<?xml version="1.0" encoding="UTF-8"?>
<gpx version="1.1" creator="https://www.youtrack.es" xsi:schemaLocation="http://www.topografix.com/GPX/1/1 http://www.topografix.com/GPX/1/1/gpx.xsd http://www.garmin.com/xmlschemas/GpxExtensions/v3 http://www.garmin.com/xmlschemas/GpxExtensionsv3.xsd http://www.garmin.com/xmlschemas/TrackPointExtension/v1 http://www.garmin.com/xmlschemas/TrackPointExtensionv1.xsd" xmlns:gpxtpx="http://www.garmin.com/xmlschemas/TrackPointExtension/v1" xmlns:gpxx="http://www.garmin.com/xmlschemas/GpxExtensions/v3" xmlns:xsi="http://www.w3.org/2001/XMLSchema-instance">
  <metadata>
    <author>
      <name>jose torres rodriguez</name>
      <email id="jose_torres" domain="hotmail.com"/>
    </author>
    <link href="https://www.youtrack.es">
      <text>YouTrack.es</text>
    </link>
    <time>2026-05-08T14:27:41Z</time>
  </metadata>
  <trk>
    <src>https://www.youtrack.es</src>
    <link href="https://www.youtrack.es/ruta/734-10-000-del-soplao-2018">
      <text>YouTrack.es</text>
    </link>
    <trkseg>
      <trkpt lat="43.30794333" lon="-4.234455">
        <ele>135.0</ele>
        <time>2018-05-19T06:10:45.881Z</time>
      </trkpt>
      <trkpt lat="43.30794833" lon="-4.2345">
        <ele>135.0</ele>
        <time>2018-05-19T06:10:46.853Z</time>
      </trkpt>
      <trkpt lat="43.30794833" lon="-4.2345">
        <ele>135.0</ele>
        <time>2018-05-19T06:10:47.865Z</time>
      </trkpt>
      <trkpt lat="43.30795167" lon="-4.23453833">
        <ele>134.0</ele>
        <time>2018-05-19T06:10:48.881Z</time>
      </trkpt>
      <trkpt lat="43.30795167" lon="-4.23453833">
        <ele>134.0</ele>
        <time>2018-05-19T06:10:49.845Z</time>
      </trkpt>
      <trkpt lat="43.30795667" lon="-4.234565">
        <ele>134.0</ele>
        <time>2018-05-19T06:10:50.877Z</time>
      </trkpt>
      <trkpt lat="43.30795667" lon="-4.234565">
        <ele>134.0</ele>
        <time>2018-05-19T06:10:51.872Z</time>
      </trkpt>
      <trkpt lat="43.30796333" lon="-4.2346">
        <ele>133.0</ele>
        <time>2018-05-19T06:10:52.870Z</time>
      </trkpt>
      <trkpt lat="43.30796333" lon="-4.2346">
        <ele>133.0</ele>
        <time>2018-05-19T06:10:53.879Z</time>
      </trkpt>
      <trkpt lat="43.30796833" lon="-4.23465">
        <ele>133.0</ele>
        <time>2018-05-19T06:10:54.877Z</time>
      </trkpt>
      <trkpt lat="43.30796833" lon="-4.23465">
        <ele>133.0</ele>
        <time>2018-05-19T06:10:55.874Z</time>
      </trkpt>
      <trkpt lat="43.30797" lon="-4.234705">
        <ele>133.0</ele>
        <time>2018-05-19T06:10:56.882Z</time>
      </trkpt>
      <trkpt lat="43.30797" lon="-4.234705">
        <ele>133.0</ele>
        <time>2018-05-19T06:10:57.855Z</time>
      </trkpt>
      <trkpt lat="43.307975" lon="-4.23477333">
        <ele>133.0</ele>
        <time>2018-05-19T06:10:58.882Z</time>
      </trkpt>
      <trkpt lat="43.307975" lon="-4.23477333">
        <ele>133.0</ele>
        <time>2018-05-19T06:10:59.882Z</time>
      </trkpt>
      <trkpt lat="43.30798333" lon="-4.234825">
        <ele>132.0</ele>
        <time>2018-05-19T06:11:00.880Z</time>
      </trkpt>
      <trkpt lat="43.307985" lon="-4.23484667">
        <ele>132.0</ele>
        <time>2018-05-19T06:11:01.880Z</time>
      </trkpt>
      <trkpt lat="43.307985" lon="-4.23484667">
        <ele>132.0</ele>
        <time>2018-05-19T06:11:02.876Z</time>
      </trkpt>
      <trkpt lat="43.30798833" lon="-4.23488333">
        <ele>131.0</ele>
        <time>2018-05-19T06:11:03.874Z</time>
      </trkpt>
      <trkpt lat="43.30799" lon="-4.234895">
        <ele>131.0</ele>
        <time>2018-05-19T06:11:04.875Z</time>
      </trkpt>
      <trkpt lat="43.30799167" lon="-4.23491167">
        <ele>131.0</ele>
        <time>2018-05-19T06:11:05.848Z</time>
      </trkpt>
      <trkpt lat="43.30799167" lon="-4.23491167">
        <ele>131.0</ele>
        <time>2018-05-19T06:11:06.881Z</time>
      </trkpt>
      <trkpt lat="43.30799333" lon="-4.23495333">
        <ele>130.0</ele>
        <time>2018-05-19T06:11:07.876Z</time>
      </trkpt>
      <trkpt lat="43.30799333" lon="-4.23497667">
        <ele>130.0</ele>
        <time>2018-05-19T06:11:08.847Z</time>
      </trkpt>
      <trkpt lat="43.30799333" lon="-4.23497667">
        <ele>130.0</ele>
        <time>2018-05-19T06:11:09.877Z</time>
      </trkpt>
      <trkpt lat="43.30799333" lon="-4.23501333">
        <ele>130.0</ele>
        <time>2018-05-19T06:11:10.878Z</time>
      </trkpt>
      <trkpt lat="43.30799333" lon="-4.23501333">
        <ele>130.0</ele>
        <time>2018-05-19T06:11:11.873Z</time>
      </trkpt>
      <trkpt lat="43.308" lon="-4.23505">
        <ele>129.0</ele>
        <time>2018-05-19T06:11:12.877Z</time>
      </trkpt>
      <trkpt lat="43.308" lon="-4.23505">
        <ele>129.0</ele>
        <time>2018-05-19T06:11:13.847Z</time>
      </trkpt>
      <trkpt lat="43.308" lon="-4.23509167">
        <ele>129.0</ele>
        <time>2018-05-19T06:11:14.876Z</time>
      </trkpt>
      <trkpt lat="43.308" lon="-4.23509167">
        <ele>129.0</ele>
        <time>2018-05-19T06:11:15.872Z</time>
      </trkpt>
      <trkpt lat="43.30800333" lon="-4.23512167">
        <ele>128.0</ele>
        <time>2018-05-19T06:11:16.879Z</time>
      </trkpt>
      <trkpt lat="43.30800833" lon="-4.23514">
        <ele>128.0</ele>
        <time>2018-05-19T06:11:17.881Z</time>
      </trkpt>
      <trkpt lat="43.30800833" lon="-4.23514">
        <ele>128.0</ele>
        <time>2018-05-19T06:11:18.846Z</time>
      </trkpt>
      <trkpt lat="43.30801667" lon="-4.23518167">
        <ele>128.0</ele>
        <time>2018-05-19T06:11:19.876Z</time>
      </trkpt>
      <trkpt lat="43.30801833" lon="-4.23519333">
        <ele>128.0</ele>
        <time>2018-05-19T06:11:20.858Z</time>
      </trkpt>
      <trkpt lat="43.30801833" lon="-4.23519333">
        <ele>128.0</ele>
        <time>2018-05-19T06:11:21.848Z</time>
      </trkpt>
      <trkpt lat="43.308025" lon="-4.23523167">
        <ele>127.0</ele>
        <time>2018-05-19T06:11:22.883Z</time>
      </trkpt>
      <trkpt lat="43.308025" lon="-4.23523167">
        <ele>127.0</ele>
        <time>2018-05-19T06:11:23.883Z</time>
      </trkpt>
      <trkpt lat="43.30803167" lon="-4.23528333">
        <ele>127.0</ele>
        <time>2018-05-19T06:11:24.882Z</time>
      </trkpt>
      <trkpt lat="43.30803167" lon="-4.23528333">
        <ele>127.0</ele>
        <time>2018-05-19T06:11:25.877Z</time>
      </trkpt>
      <trkpt lat="43.30803333" lon="-4.23531667">
        <ele>127.0</ele>
        <time>2018-05-19T06:11:26.874Z</time>
      </trkpt>
      <trkpt lat="43.30803333" lon="-4.23533833">
        <ele>127.0</ele>
        <time>2018-05-19T06:11:27.881Z</time>
      </trkpt>
      <trkpt lat="43.308035" lon="-4.23536667">
        <ele>127.0</ele>
        <time>2018-05-19T06:11:28.863Z</time>
      </trkpt>
      <trkpt lat="43.308035" lon="-4.23536667">
        <ele>127.0</ele>
        <time>2018-05-19T06:11:29.851Z</time>
      </trkpt>
      <trkpt lat="43.30803333" lon="-4.23543667">
        <ele>127.0</ele>
        <time>2018-05-19T06:11:30.878Z</time>
      </trkpt>
      <trkpt lat="43.30803333" lon="-4.23543667">
        <ele>127.0</ele>
        <time>2018-05-19T06:11:31.847Z</time>
      </trkpt>
      <trkpt lat="43.308035" lon="-4.23549333">
        <ele>128.0</ele>
        <time>2018-05-19T06:11:32.862Z</time>
      </trkpt>
      <trkpt lat="43.30803333" lon="-4.23552167">
        <ele>128.0</ele>
        <time>2018-05-19T06:11:33.844Z</time>
      </trkpt>
      <trkpt lat="43.30803333" lon="-4.23552167">
        <ele>128.0</ele>
        <time>2018-05-19T06:11:34.878Z</time>
      </trkpt>
      <trkpt lat="43.30804167" lon="-4.23561167">
        <ele>128.0</ele>
        <time>2018-05-19T06:11:35.872Z</time>
      </trkpt>
      <trkpt lat="43.30803833" lon="-4.23566167">
        <ele>128.0</ele>
        <time>2018-05-19T06:11:36.876Z</time>
      </trkpt>
      <trkpt lat="43.30803833" lon="-4.23566167">
        <ele>128.0</ele>
        <time>2018-05-19T06:11:37.873Z</time>
      </trkpt>
      <trkpt lat="43.30804833" lon="-4.23576333">
        <ele>130.0</ele>
        <time>2018-05-19T06:11:38.847Z</time>
      </trkpt>
      <trkpt lat="43.30807" lon="-4.23580667">
        <ele>131.0</ele>
        <time>2018-05-19T06:11:39.879Z</time>
      </trkpt>
      <trkpt lat="43.30807" lon="-4.23580667">
        <ele>131.0</ele>
        <time>2018-05-19T06:11:40.877Z</time>
      </trkpt>
      <trkpt lat="43.30813167" lon="-4.23586833">
        <ele>132.0</ele>
        <time>2018-05-19T06:11:41.876Z</time>
      </trkpt>
      <trkpt lat="43.30813167" lon="-4.23586833">
        <ele>132.0</ele>
        <time>2018-05-19T06:11:42.874Z</time>
      </trkpt>
      <trkpt lat="43.30820167" lon="-4.235905">
        <ele>132.0</ele>
        <time>2018-05-19T06:11:43.880Z</time>
      </trkpt>
      <trkpt lat="43.30823833" lon="-4.23592167">
        <ele>133.0</ele>
        <time>2018-05-19T06:11:44.880Z</time>
      </trkpt>
      <trkpt lat="43.30827167" lon="-4.23593333">
        <ele>132.0</ele>
        <time>2018-05-19T06:11:45.845Z</time>
      </trkpt>
      <trkpt lat="43.30827167" lon="-4.23593333">
        <ele>132.0</ele>
        <time>2018-05-19T06:11:46.844Z</time>
      </trkpt>
      <trkpt lat="43.30833333" lon="-4.235965">
        <ele>132.0</ele>
        <time>2018-05-19T06:11:47.879Z</time>
      </trkpt>
      <trkpt lat="43.30833333" lon="-4.235965">
        <ele>132.0</ele>
        <time>2018-05-19T06:11:48.851Z</time>
      </trkpt>
      <trkpt lat="43.30840667" lon="-4.23598333">
        <ele>132.0</ele>
        <time>2018-05-19T06:11:49.877Z</time>
      </trkpt>
      <trkpt lat="43.30844833" lon="-4.23598">
        <ele>132.0</ele>
        <time>2018-05-19T06:11:50.875Z</time>
      </trkpt>
      <trkpt lat="43.30844833" lon="-4.23598">
        <ele>132.0</ele>
        <time>2018-05-19T06:11:51.870Z</time>
      </trkpt>
      <trkpt lat="43.30853667" lon="-4.23593167">
        <ele>131.0</ele>
        <time>2018-05-19T06:11:52.874Z</time>
      </trkpt>
      <trkpt lat="43.30853667" lon="-4.23593167">
        <ele>131.0</ele>
        <time>2018-05-19T06:11:53.871Z</time>
      </trkpt>
      <trkpt lat="43.30861333" lon="-4.23588167">
        <ele>132.0</ele>
        <time>2018-05-19T06:11:54.880Z</time>
      </trkpt>
      <trkpt lat="43.30861333" lon="-4.23588167">
        <ele>132.0</ele>
        <time>2018-05-19T06:11:55.874Z</time>
      </trkpt>
      <trkpt lat="43.30868" lon="-4.23581833">
        <ele>133.0</ele>
        <time>2018-05-19T06:11:56.846Z</time>
      </trkpt>
      <trkpt lat="43.30868" lon="-4.23581833">
        <ele>133.0</ele>
        <time>2018-05-19T06:11:57.871Z</time>
      </trkpt>
      <trkpt lat="43.30874" lon="-4.23574167">
        <ele>135.0</ele>
        <time>2018-05-19T06:11:58.877Z</time>
      </trkpt>
      <trkpt lat="43.30874" lon="-4.23574167">
        <ele>135.0</ele>
        <time>2018-05-19T06:11:59.876Z</time>
      </trkpt>
      <trkpt lat="43.308795" lon="-4.235655">
        <ele>135.0</ele>
        <time>2018-05-19T06:12:00.873Z</time>
      </trkpt>
      <trkpt lat="43.30882167" lon="-4.23560833">
        <ele>136.0</ele>
        <time>2018-05-19T06:12:01.879Z</time>
      </trkpt>
      <trkpt lat="43.30882167" lon="-4.23560833">
        <ele>136.0</ele>
        <time>2018-05-19T06:12:02.872Z</time>
      </trkpt>
      <trkpt lat="43.30888333" lon="-4.23551833">
        <ele>136.0</ele>
        <time>2018-05-19T06:12:03.880Z</time>
      </trkpt>
      <trkpt lat="43.308915" lon="-4.23548">
        <ele>136.0</ele>
        <time>2018-05-19T06:12:04.850Z</time>
      </trkpt>
      <trkpt lat="43.30895" lon="-4.23545">
        <ele>137.0</ele>
        <time>2018-05-19T06:12:05.880Z</time>
      </trkpt>
      <trkpt lat="43.30895" lon="-4.23545">
        <ele>137.0</ele>
        <time>2018-05-19T06:12:06.872Z</time>
      </trkpt>
      <trkpt lat="43.30903167" lon="-4.23546167">
        <ele>137.0</ele>
        <time>2018-05-19T06:12:07.879Z</time>
      </trkpt>
      <trkpt lat="43.30903167" lon="-4.23546167">
        <ele>137.0</ele>
        <time>2018-05-19T06:12:08.875Z</time>
      </trkpt>
      <trkpt lat="43.30910667" lon="-4.23555333">
        <ele>137.0</ele>
        <time>2018-05-19T06:12:09.874Z</time>
      </trkpt>
      <trkpt lat="43.30910667" lon="-4.23555333">
        <ele>137.0</ele>
        <time>2018-05-19T06:12:10.872Z</time>
      </trkpt>
      <trkpt lat="43.309185" lon="-4.23567333">
        <ele>137.0</ele>
        <time>2018-05-19T06:12:11.875Z</time>
      </trkpt>
      <trkpt lat="43.309225" lon="-4.23572333">
        <ele>137.0</ele>
        <time>2018-05-19T06:12:12.878Z</time>
      </trkpt>
      <trkpt lat="43.309225" lon="-4.23572333">
        <ele>137.0</ele>
        <time>2018-05-19T06:12:13.872Z</time>
      </trkpt>
      <trkpt lat="43.30932" lon="-4.23579167">
        <ele>137.0</ele>
        <time>2018-05-19T06:12:14.880Z</time>
      </trkpt>
      <trkpt lat="43.30932" lon="-4.23579167">
        <ele>137.0</ele>
        <time>2018-05-19T06:12:15.872Z</time>
      </trkpt>
      <trkpt lat="43.309395" lon="-4.23588667">
        <ele>137.0</ele>
        <time>2018-05-19T06:12:16.858Z</time>
      </trkpt>
      <trkpt lat="43.309395" lon="-4.23588667">
        <ele>137.0</ele>
        <time>2018-05-19T06:12:17.852Z</time>
      </trkpt>
      <trkpt lat="43.30942333" lon="-4.23600833">
        <ele>137.0</ele>
        <time>2018-05-19T06:12:18.883Z</time>
      </trkpt>
      <trkpt lat="43.30942667" lon="-4.23607">
        <ele>138.0</ele>
        <time>2018-05-19T06:12:19.844Z</time>
      </trkpt>
      <trkpt lat="43.309425" lon="-4.23613333">
        <ele>138.0</ele>
        <time>2018-05-19T06:12:20.876Z</time>
      </trkpt>
      <trkpt lat="43.309425" lon="-4.23613333">
        <ele>138.0</ele>
        <time>2018-05-19T06:12:21.874Z</time>
      </trkpt>
      <trkpt lat="43.30941667" lon="-4.23627333">
        <ele>138.0</ele>
        <time>2018-05-19T06:12:22.875Z</time>
      </trkpt>
      <trkpt lat="43.30941667" lon="-4.23627333">
        <ele>138.0</ele>
        <time>2018-05-19T06:12:23.870Z</time>
      </trkpt>
      <trkpt lat="43.30940167" lon="-4.23641667">
        <ele>138.0</ele>
        <time>2018-05-19T06:12:24.849Z</time>
      </trkpt>
      <trkpt lat="43.30940167" lon="-4.23641667">
        <ele>138.0</ele>
        <time>2018-05-19T06:12:25.879Z</time>
      </trkpt>
      <trkpt lat="43.30938667" lon="-4.236565">
        <ele>138.0</ele>
        <time>2018-05-19T06:12:26.878Z</time>
      </trkpt>
      <trkpt lat="43.30938667" lon="-4.236565">
        <ele>138.0</ele>
        <time>2018-05-19T06:12:27.873Z</time>
      </trkpt>
      <trkpt lat="43.30935833" lon="-4.23671167">
        <ele>138.0</ele>
        <time>2018-05-19T06:12:28.848Z</time>
      </trkpt>
      <trkpt lat="43.30933667" lon="-4.23678333">
        <ele>138.0</ele>
        <time>2018-05-19T06:12:29.880Z</time>
      </trkpt>
      <trkpt lat="43.30933667" lon="-4.23678333">
        <ele>138.0</ele>
        <time>2018-05-19T06:12:30.876Z</time>
      </trkpt>
      <trkpt lat="43.30929667" lon="-4.23693667">
        <ele>139.0</ele>
        <time>2018-05-19T06:12:31.879Z</time>
      </trkpt>
      <trkpt lat="43.30929667" lon="-4.23693667">
        <ele>139.0</ele>
        <time>2018-05-19T06:12:32.869Z</time>
      </trkpt>
      <trkpt lat="43.30925" lon="-4.23709833">
        <ele>139.0</ele>
        <time>2018-05-19T06:12:33.875Z</time>
      </trkpt>
      <trkpt lat="43.30925" lon="-4.23709833">
        <ele>139.0</ele>
        <time>2018-05-19T06:12:34.869Z</time>
      </trkpt>
      <trkpt lat="43.309185" lon="-4.23725">
        <ele>139.0</ele>
        <time>2018-05-19T06:12:35.844Z</time>
      </trkpt>
      <trkpt lat="43.30914333" lon="-4.23732">
        <ele>139.0</ele>
        <time>2018-05-19T06:12:36.875Z</time>
      </trkpt>
      <trkpt lat="43.30914333" lon="-4.23732">
        <ele>139.0</ele>
        <time>2018-05-19T06:12:37.870Z</time>
      </trkpt>
      <trkpt lat="43.309055" lon="-4.23743">
        <ele>139.0</ele>
        <time>2018-05-19T06:12:38.880Z</time>
      </trkpt>
      <trkpt lat="43.309055" lon="-4.23743">
        <ele>139.0</ele>
        <time>2018-05-19T06:12:39.872Z</time>
      </trkpt>
      <trkpt lat="43.308965" lon="-4.23748667">
        <ele>139.0</ele>
        <time>2018-05-19T06:12:40.876Z</time>
      </trkpt>
      <trkpt lat="43.30893" lon="-4.23750833">
        <ele>139.0</ele>
        <time>2018-05-19T06:12:41.876Z</time>
      </trkpt>
      <trkpt lat="43.30893" lon="-4.23750833">
        <ele>139.0</ele>
        <time>2018-05-19T06:12:42.871Z</time>
      </trkpt>
      <trkpt lat="43.30886167" lon="-4.237525">
        <ele>139.0</ele>
        <time>2018-05-19T06:12:43.874Z</time>
      </trkpt>
      <trkpt lat="43.30883" lon="-4.237525">
        <ele>139.0</ele>
        <time>2018-05-19T06:12:44.874Z</time>
      </trkpt>
      <trkpt lat="43.30883" lon="-4.237525">
        <ele>139.0</ele>
        <time>2018-05-19T06:12:45.874Z</time>
      </trkpt>
      <trkpt lat="43.30875333" lon="-4.237515">
        <ele>139.0</ele>
        <time>2018-05-19T06:12:46.875Z</time>
      </trkpt>
      <trkpt lat="43.30870833" lon="-4.23750833">
        <ele>139.0</ele>
        <time>2018-05-19T06:12:47.875Z</time>
      </trkpt>
      <trkpt lat="43.30870833" lon="-4.23750833">
        <ele>139.0</ele>
        <time>2018-05-19T06:12:48.874Z</time>
      </trkpt>
      <trkpt lat="43.30860667" lon="-4.23749333">
        <ele>138.0</ele>
        <time>2018-05-19T06:12:49.871Z</time>
      </trkpt>
      <trkpt lat="43.30855333" lon="-4.237485">
        <ele>138.0</ele>
        <time>2018-05-19T06:12:50.877Z</time>
      </trkpt>
      <trkpt lat="43.30855333" lon="-4.237485">
        <ele>138.0</ele>
        <time>2018-05-19T06:12:51.872Z</time>
      </trkpt>
      <trkpt lat="43.30844667" lon="-4.237475">
        <ele>138.0</ele>
        <time>2018-05-19T06:12:52.876Z</time>
      </trkpt>
      <trkpt lat="43.30839333" lon="-4.23747167">
        <ele>137.0</ele>
        <time>2018-05-19T06:12:53.875Z</time>
      </trkpt>
      <trkpt lat="43.30834" lon="-4.23747">
        <ele>137.0</ele>
        <time>2018-05-19T06:12:54.879Z</time>
      </trkpt>
      <trkpt lat="43.308285" lon="-4.23747">
        <ele>137.0</ele>
        <time>2018-05-19T06:12:55.846Z</time>
      </trkpt>
      <trkpt lat="43.308285" lon="-4.23747">
        <ele>137.0</ele>
        <time>2018-05-19T06:12:56.872Z</time>
      </trkpt>
      <trkpt lat="43.30817667" lon="-4.23747833">
        <ele>137.0</ele>
        <time>2018-05-19T06:12:57.874Z</time>
      </trkpt>
      <trkpt lat="43.30812167" lon="-4.23747833">
        <ele>136.0</ele>
        <time>2018-05-19T06:12:58.875Z</time>
      </trkpt>
      <trkpt lat="43.30806833" lon="-4.23749333">
        <ele>136.0</ele>
        <time>2018-05-19T06:12:59.883Z</time>
      </trkpt>
      <trkpt lat="43.30806833" lon="-4.23749333">
        <ele>136.0</ele>
        <time>2018-05-19T06:13:00.883Z</time>
      </trkpt>
      <trkpt lat="43.30796" lon="-4.23750167">
        <ele>136.0</ele>
        <time>2018-05-19T06:13:01.883Z</time>
      </trkpt>
      <trkpt lat="43.307905" lon="-4.23750833">
        <ele>136.0</ele>
        <time>2018-05-19T06:13:02.878Z</time>
      </trkpt>
      <trkpt lat="43.30784667" lon="-4.23751667">
        <ele>136.0</ele>
        <time>2018-05-19T06:13:03.875Z</time>
      </trkpt>
      <trkpt lat="43.30784667" lon="-4.23751667">
        <ele>136.0</ele>
        <time>2018-05-19T06:13:04.872Z</time>
      </trkpt>
      <trkpt lat="43.30773667" lon="-4.23753667">
        <ele>136.0</ele>
        <time>2018-05-19T06:13:05.880Z</time>
      </trkpt>
      <trkpt lat="43.30768" lon="-4.23755667">
        <ele>136.0</ele>
        <time>2018-05-19T06:13:06.877Z</time>
      </trkpt>
      <trkpt lat="43.30768" lon="-4.23755667">
        <ele>136.0</ele>
        <time>2018-05-19T06:13:07.870Z</time>
      </trkpt>
      <trkpt lat="43.30758833" lon="-4.23760833">
        <ele>136.0</ele>
        <time>2018-05-19T06:13:08.858Z</time>
      </trkpt>
      <trkpt lat="43.30758833" lon="-4.23760833">
        <ele>136.0</ele>
        <time>2018-05-19T06:13:09.847Z</time>
      </trkpt>
      <trkpt lat="43.30749" lon="-4.23765333">
        <ele>136.0</ele>
        <time>2018-05-19T06:13:10.880Z</time>
      </trkpt>
      <trkpt lat="43.30749" lon="-4.23765333">
        <ele>136.0</ele>
        <time>2018-05-19T06:13:11.869Z</time>
      </trkpt>
      <trkpt lat="43.3074" lon="-4.237695">
        <ele>136.0</ele>
        <time>2018-05-19T06:13:12.848Z</time>
      </trkpt>
      <trkpt lat="43.3074" lon="-4.237695">
        <ele>136.0</ele>
        <time>2018-05-19T06:13:13.844Z</time>
      </trkpt>
      <trkpt lat="43.30731333" lon="-4.23773333">
        <ele>136.0</ele>
        <time>2018-05-19T06:13:14.878Z</time>
      </trkpt>
      <trkpt lat="43.30725" lon="-4.23776333">
        <ele>135.0</ele>
        <time>2018-05-19T06:13:15.858Z</time>
      </trkpt>
      <trkpt lat="43.30725" lon="-4.23776333">
        <ele>135.0</ele>
        <time>2018-05-19T06:13:16.858Z</time>
      </trkpt>
      <trkpt lat="43.30712667" lon="-4.23786167">
        <ele>135.0</ele>
        <time>2018-05-19T06:13:17.845Z</time>
      </trkpt>
      <trkpt lat="43.30707333" lon="-4.237895">
        <ele>135.0</ele>
        <time>2018-05-19T06:13:18.875Z</time>
      </trkpt>
      <trkpt lat="43.30707333" lon="-4.237895">
        <ele>135.0</ele>
        <time>2018-05-19T06:13:19.877Z</time>
      </trkpt>
      <trkpt lat="43.30695333" lon="-4.23792667">
        <ele>136.0</ele>
        <time>2018-05-19T06:13:20.874Z</time>
      </trkpt>
      <trkpt lat="43.30695333" lon="-4.23792667">
        <ele>136.0</ele>
        <time>2018-05-19T06:13:21.870Z</time>
      </trkpt>
      <trkpt lat="43.30683333" lon="-4.23797333">
        <ele>136.0</ele>
        <time>2018-05-19T06:13:22.874Z</time>
      </trkpt>
      <trkpt lat="43.30677167" lon="-4.23799167">
        <ele>136.0</ele>
        <time>2018-05-19T06:13:23.874Z</time>
      </trkpt>
      <trkpt lat="43.30677167" lon="-4.23799167">
        <ele>136.0</ele>
        <time>2018-05-19T06:13:24.871Z</time>
      </trkpt>
      <trkpt lat="43.30664833" lon="-4.23803">
        <ele>136.0</ele>
        <time>2018-05-19T06:13:25.875Z</time>
      </trkpt>
      <trkpt lat="43.306585" lon="-4.23804667">
        <ele>136.0</ele>
        <time>2018-05-19T06:13:26.874Z</time>
      </trkpt>
      <trkpt lat="43.306585" lon="-4.23804667">
        <ele>136.0</ele>
        <time>2018-05-19T06:13:27.875Z</time>
      </trkpt>
      <trkpt lat="43.30645333" lon="-4.23807167">
        <ele>137.0</ele>
        <time>2018-05-19T06:13:28.874Z</time>
      </trkpt>
      <trkpt lat="43.30645333" lon="-4.23807167">
        <ele>137.0</ele>
        <time>2018-05-19T06:13:29.876Z</time>
      </trkpt>
      <trkpt lat="43.30632333" lon="-4.238115">
        <ele>137.0</ele>
        <time>2018-05-19T06:13:30.875Z</time>
      </trkpt>
      <trkpt lat="43.30625667" lon="-4.23813833">
        <ele>137.0</ele>
        <time>2018-05-19T06:13:31.874Z</time>
      </trkpt>
      <trkpt lat="43.30625667" lon="-4.23813833">
        <ele>137.0</ele>
        <time>2018-05-19T06:13:32.872Z</time>
      </trkpt>
      <trkpt lat="43.30612167" lon="-4.23817333">
        <ele>137.0</ele>
        <time>2018-05-19T06:13:33.872Z</time>
      </trkpt>
      <trkpt lat="43.30605167" lon="-4.23818667">
        <ele>137.0</ele>
        <time>2018-05-19T06:13:34.873Z</time>
      </trkpt>
      <trkpt lat="43.30598167" lon="-4.238195">
        <ele>137.0</ele>
        <time>2018-05-19T06:13:35.874Z</time>
      </trkpt>
      <trkpt lat="43.30598167" lon="-4.238195">
        <ele>137.0</ele>
        <time>2018-05-19T06:13:36.872Z</time>
      </trkpt>
      <trkpt lat="43.30584" lon="-4.23819833">
        <ele>137.0</ele>
        <time>2018-05-19T06:13:37.880Z</time>
      </trkpt>
      <trkpt lat="43.30577333" lon="-4.23818667">
        <ele>137.0</ele>
        <time>2018-05-19T06:13:38.874Z</time>
      </trkpt>
      <trkpt lat="43.30577333" lon="-4.23818667">
        <ele>137.0</ele>
        <time>2018-05-19T06:13:39.875Z</time>
      </trkpt>
      <trkpt lat="43.30564333" lon="-4.23814333">
        <ele>137.0</ele>
        <time>2018-05-19T06:13:40.873Z</time>
      </trkpt>
      <trkpt lat="43.30557833" lon="-4.23811333">
        <ele>137.0</ele>
        <time>2018-05-19T06:13:41.873Z</time>
      </trkpt>
      <trkpt lat="43.30557833" lon="-4.23811333">
        <ele>137.0</ele>
        <time>2018-05-19T06:13:42.862Z</time>
      </trkpt>
      <trkpt lat="43.305445" lon="-4.23807">
        <ele>137.0</ele>
        <time>2018-05-19T06:13:43.874Z</time>
      </trkpt>
      <trkpt lat="43.305445" lon="-4.23807">
        <ele>137.0</ele>
        <time>2018-05-19T06:13:44.872Z</time>
      </trkpt>
      <trkpt lat="43.30531" lon="-4.23804333">
        <ele>138.0</ele>
        <time>2018-05-19T06:13:45.881Z</time>
      </trkpt>
      <trkpt lat="43.30524333" lon="-4.23802833">
        <ele>137.0</ele>
        <time>2018-05-19T06:13:46.874Z</time>
      </trkpt>
      <trkpt lat="43.30524333" lon="-4.23802833">
        <ele>137.0</ele>
        <time>2018-05-19T06:13:47.869Z</time>
      </trkpt>
      <trkpt lat="43.30511333" lon="-4.23799667">
        <ele>137.0</ele>
        <time>2018-05-19T06:13:48.872Z</time>
      </trkpt>
      <trkpt lat="43.30504667" lon="-4.23798167">
        <ele>137.0</ele>
        <time>2018-05-19T06:13:49.878Z</time>
      </trkpt>
      <trkpt lat="43.30498167" lon="-4.23796">
        <ele>137.0</ele>
        <time>2018-05-19T06:13:50.874Z</time>
      </trkpt>
      <trkpt lat="43.30498167" lon="-4.23796">
        <ele>137.0</ele>
        <time>2018-05-19T06:13:51.868Z</time>
      </trkpt>
      <trkpt lat="43.30484833" lon="-4.23791333">
        <ele>137.0</ele>
        <time>2018-05-19T06:13:52.874Z</time>
      </trkpt>
      <trkpt lat="43.30478167" lon="-4.23789333">
        <ele>137.0</ele>
        <time>2018-05-19T06:13:53.874Z</time>
      </trkpt>
      <trkpt lat="43.30478167" lon="-4.23789333">
        <ele>137.0</ele>
        <time>2018-05-19T06:13:54.872Z</time>
      </trkpt>
      <trkpt lat="43.30465" lon="-4.23785333">
        <ele>137.0</ele>
        <time>2018-05-19T06:13:55.880Z</time>
      </trkpt>
      <trkpt lat="43.304585" lon="-4.23783833">
        <ele>137.0</ele>
        <time>2018-05-19T06:13:56.875Z</time>
      </trkpt>
      <trkpt lat="43.304585" lon="-4.23783833">
        <ele>137.0</ele>
        <time>2018-05-19T06:13:57.872Z</time>
      </trkpt>
      <trkpt lat="43.30444667" lon="-4.23783333">
        <ele>137.0</ele>
        <time>2018-05-19T06:13:58.874Z</time>
      </trkpt>
      <trkpt lat="43.30437667" lon="-4.23782667">
        <ele>137.0</ele>
        <time>2018-05-19T06:13:59.875Z</time>
      </trkpt>
      <trkpt lat="43.30437667" lon="-4.23782667">
        <ele>137.0</ele>
        <time>2018-05-19T06:14:00.862Z</time>
      </trkpt>
      <trkpt lat="43.30424333" lon="-4.23778333">
        <ele>137.0</ele>
        <time>2018-05-19T06:14:01.848Z</time>
      </trkpt>
      <trkpt lat="43.30424333" lon="-4.23778333">
        <ele>137.0</ele>
        <time>2018-05-19T06:14:02.874Z</time>
      </trkpt>
      <trkpt lat="43.30410667" lon="-4.23773833">
        <ele>137.0</ele>
        <time>2018-05-19T06:14:03.883Z</time>
      </trkpt>
      <trkpt lat="43.30410667" lon="-4.23773833">
        <ele>137.0</ele>
        <time>2018-05-19T06:14:04.877Z</time>
      </trkpt>
      <trkpt lat="43.30397" lon="-4.237705">
        <ele>138.0</ele>
        <time>2018-05-19T06:14:05.878Z</time>
      </trkpt>
      <trkpt lat="43.30397" lon="-4.237705">
        <ele>138.0</ele>
        <time>2018-05-19T06:14:06.872Z</time>
      </trkpt>
      <trkpt lat="43.30383667" lon="-4.237665">
        <ele>138.0</ele>
        <time>2018-05-19T06:14:07.874Z</time>
      </trkpt>
      <trkpt lat="43.30376833" lon="-4.23764667">
        <ele>138.0</ele>
        <time>2018-05-19T06:14:08.873Z</time>
      </trkpt>
      <trkpt lat="43.30376833" lon="-4.23764667">
        <ele>138.0</ele>
        <time>2018-05-19T06:14:09.873Z</time>
      </trkpt>
      <trkpt lat="43.30363" lon="-4.23761833">
        <ele>138.0</ele>
        <time>2018-05-19T06:14:10.871Z</time>
      </trkpt>
      <trkpt lat="43.30356167" lon="-4.23760833">
        <ele>138.0</ele>
        <time>2018-05-19T06:14:11.874Z</time>
      </trkpt>
      <trkpt lat="43.30356167" lon="-4.23760833">
        <ele>138.0</ele>
        <time>2018-05-19T06:14:12.869Z</time>
      </trkpt>
      <trkpt lat="43.303425" lon="-4.23761667">
        <ele>138.0</ele>
        <time>2018-05-19T06:14:13.871Z</time>
      </trkpt>
      <trkpt lat="43.30335667" lon="-4.23762667">
        <ele>138.0</ele>
        <time>2018-05-19T06:14:14.874Z</time>
      </trkpt>
      <trkpt lat="43.30335667" lon="-4.23762667">
        <ele>138.0</ele>
        <time>2018-05-19T06:14:15.883Z</time>
      </trkpt>
      <trkpt lat="43.30321833" lon="-4.23764">
        <ele>138.0</ele>
        <time>2018-05-19T06:14:16.875Z</time>
      </trkpt>
      <trkpt lat="43.30315" lon="-4.23765">
        <ele>138.0</ele>
        <time>2018-05-19T06:14:17.874Z</time>
      </trkpt>
      <trkpt lat="43.30315" lon="-4.23765">
        <ele>138.0</ele>
        <time>2018-05-19T06:14:18.871Z</time>
      </trkpt>
      <trkpt lat="43.30301833" lon="-4.237665">
        <ele>138.0</ele>
        <time>2018-05-19T06:14:19.875Z</time>
      </trkpt>
      <trkpt lat="43.30295167" lon="-4.23767333">
        <ele>138.0</ele>
        <time>2018-05-19T06:14:20.875Z</time>
      </trkpt>
      <trkpt lat="43.30295167" lon="-4.23767333">
        <ele>138.0</ele>
        <time>2018-05-19T06:14:21.868Z</time>
      </trkpt>
      <trkpt lat="43.30281833" lon="-4.23769167">
        <ele>139.0</ele>
        <time>2018-05-19T06:14:22.873Z</time>
      </trkpt>
      <trkpt lat="43.30275" lon="-4.2377">
        <ele>139.0</ele>
        <time>2018-05-19T06:14:23.873Z</time>
      </trkpt>
      <trkpt lat="43.30275" lon="-4.2377">
        <ele>139.0</ele>
        <time>2018-05-19T06:14:24.872Z</time>
      </trkpt>
      <trkpt lat="43.302615" lon="-4.23771333">
        <ele>139.0</ele>
        <time>2018-05-19T06:14:25.889Z</time>
      </trkpt>
      <trkpt lat="43.302615" lon="-4.23771333">
        <ele>139.0</ele>
        <time>2018-05-19T06:14:26.881Z</time>
      </trkpt>
      <trkpt lat="43.30247667" lon="-4.23773167">
        <ele>139.0</ele>
        <time>2018-05-19T06:14:27.848Z</time>
      </trkpt>
      <trkpt lat="43.30247667" lon="-4.23773167">
        <ele>139.0</ele>
        <time>2018-05-19T06:14:28.873Z</time>
      </trkpt>
      <trkpt lat="43.30233833" lon="-4.23775">
        <ele>139.0</ele>
        <time>2018-05-19T06:14:29.874Z</time>
      </trkpt>
      <trkpt lat="43.30233833" lon="-4.23775">
        <ele>139.0</ele>
        <time>2018-05-19T06:14:30.876Z</time>
      </trkpt>
      <trkpt lat="43.3022" lon="-4.23776833">
        <ele>139.0</ele>
        <time>2018-05-19T06:14:31.876Z</time>
      </trkpt>
      <trkpt lat="43.3022" lon="-4.23776833">
        <ele>139.0</ele>
        <time>2018-05-19T06:14:32.871Z</time>
      </trkpt>
      <trkpt lat="43.30206667" lon="-4.23778333">
        <ele>140.0</ele>
        <time>2018-05-19T06:14:33.875Z</time>
      </trkpt>
      <trkpt lat="43.30206667" lon="-4.23778333">
        <ele>140.0</ele>
        <time>2018-05-19T06:14:34.870Z</time>
      </trkpt>
      <trkpt lat="43.30193667" lon="-4.237805">
        <ele>140.0</ele>
        <time>2018-05-19T06:14:35.862Z</time>
      </trkpt>
      <trkpt lat="43.30193667" lon="-4.237805">
        <ele>140.0</ele>
        <time>2018-05-19T06:14:36.873Z</time>
      </trkpt>
      <trkpt lat="43.3018" lon="-4.23783">
        <ele>140.0</ele>
        <time>2018-05-19T06:14:37.883Z</time>
      </trkpt>
      <trkpt lat="43.30173333" lon="-4.23784">
        <ele>140.0</ele>
        <time>2018-05-19T06:14:38.874Z</time>
      </trkpt>
      <trkpt lat="43.30173333" lon="-4.23784">
        <ele>140.0</ele>
        <time>2018-05-19T06:14:39.877Z</time>
      </trkpt>
      <trkpt lat="43.30159667" lon="-4.23786">
        <ele>140.0</ele>
        <time>2018-05-19T06:14:40.883Z</time>
      </trkpt>
      <trkpt lat="43.30159667" lon="-4.23786">
        <ele>140.0</ele>
        <time>2018-05-19T06:14:41.870Z</time>
      </trkpt>
      <trkpt lat="43.30146" lon="-4.23787833">
        <ele>141.0</ele>
        <time>2018-05-19T06:14:42.874Z</time>
      </trkpt>
      <trkpt lat="43.30146" lon="-4.23787833">
        <ele>141.0</ele>
        <time>2018-05-19T06:14:43.870Z</time>
      </trkpt>
      <trkpt lat="43.30132" lon="-4.23789167">
        <ele>141.0</ele>
        <time>2018-05-19T06:14:44.874Z</time>
      </trkpt>
      <trkpt lat="43.30132" lon="-4.23789167">
        <ele>141.0</ele>
        <time>2018-05-19T06:14:45.874Z</time>
      </trkpt>
      <trkpt lat="43.30117667" lon="-4.237905">
        <ele>141.0</ele>
        <time>2018-05-19T06:14:46.875Z</time>
      </trkpt>
      <trkpt lat="43.30117667" lon="-4.237905">
        <ele>141.0</ele>
        <time>2018-05-19T06:14:47.868Z</time>
      </trkpt>
      <trkpt lat="43.30103333" lon="-4.23791833">
        <ele>141.0</ele>
        <time>2018-05-19T06:14:48.874Z</time>
      </trkpt>
      <trkpt lat="43.30096333" lon="-4.237925">
        <ele>141.0</ele>
        <time>2018-05-19T06:14:49.880Z</time>
      </trkpt>
      <trkpt lat="43.300895" lon="-4.23792833">
        <ele>141.0</ele>
        <time>2018-05-19T06:14:50.876Z</time>
      </trkpt>
      <trkpt lat="43.300895" lon="-4.23792833">
        <ele>141.0</ele>
        <time>2018-05-19T06:14:51.871Z</time>
      </trkpt>
      <trkpt lat="43.30076" lon="-4.23793833">
        <ele>141.0</ele>
        <time>2018-05-19T06:14:52.874Z</time>
      </trkpt>
      <trkpt lat="43.30076" lon="-4.23793833">
        <ele>141.0</ele>
        <time>2018-05-19T06:14:53.845Z</time>
      </trkpt>
      <trkpt lat="43.30063" lon="-4.23794833">
        <ele>141.0</ele>
        <time>2018-05-19T06:14:54.874Z</time>
      </trkpt>
      <trkpt lat="43.30063" lon="-4.23794833">
        <ele>141.0</ele>
        <time>2018-05-19T06:14:55.871Z</time>
      </trkpt>
      <trkpt lat="43.30050167" lon="-4.23796833">
        <ele>141.0</ele>
        <time>2018-05-19T06:14:56.874Z</time>
      </trkpt>
      <trkpt lat="43.30050167" lon="-4.23796833">
        <ele>141.0</ele>
        <time>2018-05-19T06:14:57.868Z</time>
      </trkpt>
      <trkpt lat="43.30036667" lon="-4.23799333">
        <ele>141.0</ele>
        <time>2018-05-19T06:14:58.874Z</time>
      </trkpt>
      <trkpt lat="43.30036667" lon="-4.23799333">
        <ele>141.0</ele>
        <time>2018-05-19T06:14:59.865Z</time>
      </trkpt>
      <trkpt lat="43.30023167" lon="-4.238015">
        <ele>141.0</ele>
        <time>2018-05-19T06:15:00.868Z</time>
      </trkpt>
      <trkpt lat="43.30016333" lon="-4.23803167">
        <ele>141.0</ele>
        <time>2018-05-19T06:15:01.874Z</time>
      </trkpt>
      <trkpt lat="43.30016333" lon="-4.23803167">
        <ele>141.0</ele>
        <time>2018-05-19T06:15:02.868Z</time>
      </trkpt>
      <trkpt lat="43.300025" lon="-4.238055">
        <ele>141.0</ele>
        <time>2018-05-19T06:15:03.873Z</time>
      </trkpt>
      <trkpt lat="43.300025" lon="-4.238055">
        <ele>141.0</ele>
        <time>2018-05-19T06:15:04.868Z</time>
      </trkpt>
      <trkpt lat="43.29988667" lon="-4.23806">
        <ele>141.0</ele>
        <time>2018-05-19T06:15:05.874Z</time>
      </trkpt>
      <trkpt lat="43.29988667" lon="-4.23806">
        <ele>141.0</ele>
        <time>2018-05-19T06:15:06.872Z</time>
      </trkpt>
      <trkpt lat="43.29975167" lon="-4.23806167">
        <ele>141.0</ele>
        <time>2018-05-19T06:15:07.873Z</time>
      </trkpt>
      <trkpt lat="43.29968667" lon="-4.23806">
        <ele>141.0</ele>
        <time>2018-05-19T06:15:08.874Z</time>
      </trkpt>
      <trkpt lat="43.29968667" lon="-4.23806">
        <ele>141.0</ele>
        <time>2018-05-19T06:15:09.871Z</time>
      </trkpt>
      <trkpt lat="43.29956333" lon="-4.23806">
        <ele>142.0</ele>
        <time>2018-05-19T06:15:10.876Z</time>
      </trkpt>
      <trkpt lat="43.29956333" lon="-4.23806">
        <ele>142.0</ele>
        <time>2018-05-19T06:15:11.868Z</time>
      </trkpt>
      <trkpt lat="43.29943833" lon="-4.238065">
        <ele>142.0</ele>
        <time>2018-05-19T06:15:12.844Z</time>
      </trkpt>
      <trkpt lat="43.29943833" lon="-4.238065">
        <ele>142.0</ele>
        <time>2018-05-19T06:15:13.871Z</time>
      </trkpt>
      <trkpt lat="43.29931" lon="-4.23807833">
        <ele>142.0</ele>
        <time>2018-05-19T06:15:14.875Z</time>
      </trkpt>
      <trkpt lat="43.29931" lon="-4.23807833">
        <ele>142.0</ele>
        <time>2018-05-19T06:15:15.846Z</time>
      </trkpt>
      <trkpt lat="43.29917667" lon="-4.23809667">
        <ele>142.0</ele>
        <time>2018-05-19T06:15:16.873Z</time>
      </trkpt>
      <trkpt lat="43.29917667" lon="-4.23809667">
        <ele>142.0</ele>
        <time>2018-05-19T06:15:17.875Z</time>
      </trkpt>
      <trkpt lat="43.29904167" lon="-4.23812">
        <ele>142.0</ele>
        <time>2018-05-19T06:15:18.873Z</time>
      </trkpt>
      <trkpt lat="43.298975" lon="-4.23812833">
        <ele>142.0</ele>
        <time>2018-05-19T06:15:19.873Z</time>
      </trkpt>
      <trkpt lat="43.298975" lon="-4.23812833">
        <ele>142.0</ele>
        <time>2018-05-19T06:15:20.875Z</time>
      </trkpt>
      <trkpt lat="43.298845" lon="-4.23813833">
        <ele>142.0</ele>
        <time>2018-05-19T06:15:21.873Z</time>
      </trkpt>
      <trkpt lat="43.29878167" lon="-4.23815">
        <ele>142.0</ele>
        <time>2018-05-19T06:15:22.875Z</time>
      </trkpt>
      <trkpt lat="43.29878167" lon="-4.23815">
        <ele>142.0</ele>
        <time>2018-05-19T06:15:23.871Z</time>
      </trkpt>
      <trkpt lat="43.29866167" lon="-4.23817333">
        <ele>142.0</ele>
        <time>2018-05-19T06:15:24.874Z</time>
      </trkpt>
      <trkpt lat="43.29866167" lon="-4.23817333">
        <ele>142.0</ele>
        <time>2018-05-19T06:15:25.874Z</time>
      </trkpt>
      <trkpt lat="43.29855333" lon="-4.23818333">
        <ele>143.0</ele>
        <time>2018-05-19T06:15:26.872Z</time>
      </trkpt>
      <trkpt lat="43.29855333" lon="-4.23818333">
        <ele>143.0</ele>
        <time>2018-05-19T06:15:27.871Z</time>
      </trkpt>
      <trkpt lat="43.29845167" lon="-4.23818">
        <ele>143.0</ele>
        <time>2018-05-19T06:15:28.874Z</time>
      </trkpt>
      <trkpt lat="43.29845167" lon="-4.23818">
        <ele>143.0</ele>
        <time>2018-05-19T06:15:29.865Z</time>
      </trkpt>
      <trkpt lat="43.29835" lon="-4.23818667">
        <ele>143.0</ele>
        <time>2018-05-19T06:15:30.880Z</time>
      </trkpt>
      <trkpt lat="43.29829667" lon="-4.23819">
        <ele>142.0</ele>
        <time>2018-05-19T06:15:31.874Z</time>
      </trkpt>
      <trkpt lat="43.29824333" lon="-4.23819333">
        <ele>142.0</ele>
        <time>2018-05-19T06:15:32.874Z</time>
      </trkpt>
      <trkpt lat="43.29824333" lon="-4.23819333">
        <ele>142.0</ele>
        <time>2018-05-19T06:15:33.861Z</time>
      </trkpt>
      <trkpt lat="43.29814" lon="-4.23820333">
        <ele>143.0</ele>
        <time>2018-05-19T06:15:34.885Z</time>
      </trkpt>
      <trkpt lat="43.298085" lon="-4.23820833">
        <ele>143.0</ele>
        <time>2018-05-19T06:15:35.876Z</time>
      </trkpt>
      <trkpt lat="43.298085" lon="-4.23820833">
        <ele>143.0</ele>
        <time>2018-05-19T06:15:36.845Z</time>
      </trkpt>
      <trkpt lat="43.297975" lon="-4.23822">
        <ele>143.0</ele>
        <time>2018-05-19T06:15:37.873Z</time>
      </trkpt>
      <trkpt lat="43.29791667" lon="-4.23823">
        <ele>143.0</ele>
        <time>2018-05-19T06:15:38.873Z</time>
      </trkpt>
      <trkpt lat="43.29791667" lon="-4.23823">
        <ele>143.0</ele>
        <time>2018-05-19T06:15:39.872Z</time>
      </trkpt>
      <trkpt lat="43.2978" lon="-4.238255">
        <ele>143.0</ele>
        <time>2018-05-19T06:15:40.875Z</time>
      </trkpt>
      <trkpt lat="43.2978" lon="-4.238255">
        <ele>143.0</ele>
        <time>2018-05-19T06:15:41.870Z</time>
      </trkpt>
      <trkpt lat="43.29768333" lon="-4.238285">
        <ele>143.0</ele>
        <time>2018-05-19T06:15:42.875Z</time>
      </trkpt>
      <trkpt lat="43.29768333" lon="-4.238285">
        <ele>143.0</ele>
        <time>2018-05-19T06:15:43.873Z</time>
      </trkpt>
      <trkpt lat="43.29756667" lon="-4.23831167">
        <ele>143.0</ele>
        <time>2018-05-19T06:15:44.872Z</time>
      </trkpt>
      <trkpt lat="43.29756667" lon="-4.23831167">
        <ele>143.0</ele>
        <time>2018-05-19T06:15:45.850Z</time>
      </trkpt>
      <trkpt lat="43.29744167" lon="-4.23832833">
        <ele>143.0</ele>
        <time>2018-05-19T06:15:46.877Z</time>
      </trkpt>
      <trkpt lat="43.29744167" lon="-4.23832833">
        <ele>143.0</ele>
        <time>2018-05-19T06:15:47.867Z</time>
      </trkpt>
      <trkpt lat="43.29731333" lon="-4.238345">
        <ele>143.0</ele>
        <time>2018-05-19T06:15:48.874Z</time>
      </trkpt>
      <trkpt lat="43.29731333" lon="-4.238345">
        <ele>143.0</ele>
        <time>2018-05-19T06:15:49.871Z</time>
      </trkpt>
      <trkpt lat="43.29718167" lon="-4.23835833">
        <ele>143.0</ele>
        <time>2018-05-19T06:15:50.851Z</time>
      </trkpt>
      <trkpt lat="43.29718167" lon="-4.23835833">
        <ele>143.0</ele>
        <time>2018-05-19T06:15:51.874Z</time>
      </trkpt>
      <trkpt lat="43.29705167" lon="-4.23836667">
        <ele>143.0</ele>
        <time>2018-05-19T06:15:52.874Z</time>
      </trkpt>
      <trkpt lat="43.29705167" lon="-4.23836667">
        <ele>143.0</ele>
        <time>2018-05-19T06:15:53.865Z</time>
      </trkpt>
      <trkpt lat="43.296925" lon="-4.23838333">
        <ele>143.0</ele>
        <time>2018-05-19T06:15:54.875Z</time>
      </trkpt>
      <trkpt lat="43.296925" lon="-4.23838333">
        <ele>143.0</ele>
        <time>2018-05-19T06:15:55.871Z</time>
      </trkpt>
      <trkpt lat="43.29681167" lon="-4.23839833">
        <ele>143.0</ele>
        <time>2018-05-19T06:15:56.874Z</time>
      </trkpt>
      <trkpt lat="43.29681167" lon="-4.23839833">
        <ele>143.0</ele>
        <time>2018-05-19T06:15:57.866Z</time>
      </trkpt>
      <trkpt lat="43.29669833" lon="-4.23840833">
        <ele>143.0</ele>
        <time>2018-05-19T06:15:58.873Z</time>
      </trkpt>
      <trkpt lat="43.29669833" lon="-4.23840833">
        <ele>143.0</ele>
        <time>2018-05-19T06:15:59.872Z</time>
      </trkpt>
      <trkpt lat="43.29657667" lon="-4.23841167">
        <ele>143.0</ele>
        <time>2018-05-19T06:16:00.864Z</time>
      </trkpt>
      <trkpt lat="43.29657667" lon="-4.23841167">
        <ele>143.0</ele>
        <time>2018-05-19T06:16:01.866Z</time>
      </trkpt>
      <trkpt lat="43.29645167" lon="-4.238405">
        <ele>143.0</ele>
        <time>2018-05-19T06:16:02.858Z</time>
      </trkpt>
      <trkpt lat="43.29645167" lon="-4.238405">
        <ele>143.0</ele>
        <time>2018-05-19T06:16:03.847Z</time>
      </trkpt>
      <trkpt lat="43.296325" lon="-4.238405">
        <ele>144.0</ele>
        <time>2018-05-19T06:16:04.876Z</time>
      </trkpt>
      <trkpt lat="43.296325" lon="-4.238405">
        <ele>144.0</ele>
        <time>2018-05-19T06:16:05.864Z</time>
      </trkpt>
      <trkpt lat="43.296195" lon="-4.23840167">
        <ele>144.0</ele>
        <time>2018-05-19T06:16:06.848Z</time>
      </trkpt>
      <trkpt lat="43.296195" lon="-4.23840167">
        <ele>144.0</ele>
        <time>2018-05-19T06:16:07.873Z</time>
      </trkpt>
      <trkpt lat="43.29606333" lon="-4.238385">
        <ele>144.0</ele>
        <time>2018-05-19T06:16:08.874Z</time>
      </trkpt>
      <trkpt lat="43.29606333" lon="-4.238385">
        <ele>144.0</ele>
        <time>2018-05-19T06:16:09.868Z</time>
      </trkpt>
      <trkpt lat="43.29593" lon="-4.23835667">
        <ele>144.0</ele>
        <time>2018-05-19T06:16:10.853Z</time>
      </trkpt>
      <trkpt lat="43.29593" lon="-4.23835667">
        <ele>144.0</ele>
        <time>2018-05-19T06:16:11.879Z</time>
      </trkpt>
      <trkpt lat="43.29580333" lon="-4.23831">
        <ele>144.0</ele>
        <time>2018-05-19T06:16:12.874Z</time>
      </trkpt>
      <trkpt lat="43.29580333" lon="-4.23831">
        <ele>144.0</ele>
        <time>2018-05-19T06:16:13.867Z</time>
      </trkpt>
      <trkpt lat="43.29568167" lon="-4.23824667">
        <ele>144.0</ele>
        <time>2018-05-19T06:16:14.873Z</time>
      </trkpt>
      <trkpt lat="43.29568167" lon="-4.23824667">
        <ele>144.0</ele>
        <time>2018-05-19T06:16:15.847Z</time>
      </trkpt>
      <trkpt lat="43.29556833" lon="-4.23816667">
        <ele>145.0</ele>
        <time>2018-05-19T06:16:16.873Z</time>
      </trkpt>
      <trkpt lat="43.29556833" lon="-4.23816667">
        <ele>145.0</ele>
        <time>2018-05-19T06:16:17.865Z</time>
      </trkpt>
      <trkpt lat="43.29545667" lon="-4.2381">
        <ele>145.0</ele>
        <time>2018-05-19T06:16:18.874Z</time>
      </trkpt>
      <trkpt lat="43.2954" lon="-4.23807333">
        <ele>145.0</ele>
        <time>2018-05-19T06:16:19.872Z</time>
      </trkpt>
      <trkpt lat="43.2954" lon="-4.23807333">
        <ele>145.0</ele>
        <time>2018-05-19T06:16:20.871Z</time>
      </trkpt>
      <trkpt lat="43.29528833" lon="-4.23801833">
        <ele>145.0</ele>
        <time>2018-05-19T06:16:21.883Z</time>
      </trkpt>
      <trkpt lat="43.29528833" lon="-4.23801833">
        <ele>145.0</ele>
        <time>2018-05-19T06:16:22.869Z</time>
      </trkpt>
      <trkpt lat="43.29517667" lon="-4.23795833">
        <ele>144.0</ele>
        <time>2018-05-19T06:16:23.873Z</time>
      </trkpt>
      <trkpt lat="43.29512167" lon="-4.23792833">
        <ele>145.0</ele>
        <time>2018-05-19T06:16:24.883Z</time>
      </trkpt>
      <trkpt lat="43.29512167" lon="-4.23792833">
        <ele>145.0</ele>
        <time>2018-05-19T06:16:25.870Z</time>
      </trkpt>
      <trkpt lat="43.29502833" lon="-4.23787167">
        <ele>145.0</ele>
        <time>2018-05-19T06:16:26.871Z</time>
      </trkpt>
      <trkpt lat="43.29502833" lon="-4.23787167">
        <ele>145.0</ele>
        <time>2018-05-19T06:16:27.867Z</time>
      </trkpt>
      <trkpt lat="43.29495" lon="-4.237815">
        <ele>144.0</ele>
        <time>2018-05-19T06:16:28.874Z</time>
      </trkpt>
      <trkpt lat="43.29495" lon="-4.237815">
        <ele>144.0</ele>
        <time>2018-05-19T06:16:29.871Z</time>
      </trkpt>
      <trkpt lat="43.29488333" lon="-4.23776667">
        <ele>144.0</ele>
        <time>2018-05-19T06:16:30.874Z</time>
      </trkpt>
      <trkpt lat="43.29488333" lon="-4.23776667">
        <ele>144.0</ele>
        <time>2018-05-19T06:16:31.876Z</time>
      </trkpt>
      <trkpt lat="43.29480667" lon="-4.23772333">
        <ele>144.0</ele>
        <time>2018-05-19T06:16:32.874Z</time>
      </trkpt>
      <trkpt lat="43.29480667" lon="-4.23772333">
        <ele>144.0</ele>
        <time>2018-05-19T06:16:33.871Z</time>
      </trkpt>
      <trkpt lat="43.29473" lon="-4.23767167">
        <ele>144.0</ele>
        <time>2018-05-19T06:16:34.870Z</time>
      </trkpt>
      <trkpt lat="43.29473" lon="-4.23767167">
        <ele>144.0</ele>
        <time>2018-05-19T06:16:35.870Z</time>
      </trkpt>
      <trkpt lat="43.29464667" lon="-4.237615">
        <ele>144.0</ele>
        <time>2018-05-19T06:16:36.879Z</time>
      </trkpt>
      <trkpt lat="43.29464667" lon="-4.237615">
        <ele>144.0</ele>
        <time>2018-05-19T06:16:37.871Z</time>
      </trkpt>
      <trkpt lat="43.29455833" lon="-4.23755333">
        <ele>144.0</ele>
        <time>2018-05-19T06:16:38.874Z</time>
      </trkpt>
      <trkpt lat="43.29455833" lon="-4.23755333">
        <ele>144.0</ele>
        <time>2018-05-19T06:16:39.868Z</time>
      </trkpt>
      <trkpt lat="43.29448167" lon="-4.23746667">
        <ele>144.0</ele>
        <time>2018-05-19T06:16:40.875Z</time>
      </trkpt>
      <trkpt lat="43.29448167" lon="-4.23746667">
        <ele>144.0</ele>
        <time>2018-05-19T06:16:41.867Z</time>
      </trkpt>
      <trkpt lat="43.294425" lon="-4.23734833">
        <ele>145.0</ele>
        <time>2018-05-19T06:16:42.874Z</time>
      </trkpt>
      <trkpt lat="43.29439833" lon="-4.23728667">
        <ele>145.0</ele>
        <time>2018-05-19T06:16:43.873Z</time>
      </trkpt>
      <trkpt lat="43.29439833" lon="-4.23728667">
        <ele>145.0</ele>
        <time>2018-05-19T06:16:44.871Z</time>
      </trkpt>
      <trkpt lat="43.29433667" lon="-4.237175">
        <ele>145.0</ele>
        <time>2018-05-19T06:16:45.851Z</time>
      </trkpt>
      <trkpt lat="43.29433667" lon="-4.237175">
        <ele>145.0</ele>
        <time>2018-05-19T06:16:46.876Z</time>
      </trkpt>
      <trkpt lat="43.294265" lon="-4.23707333">
        <ele>145.0</ele>
        <time>2018-05-19T06:16:47.874Z</time>
      </trkpt>
      <trkpt lat="43.294265" lon="-4.23707333">
        <ele>145.0</ele>
        <time>2018-05-19T06:16:48.871Z</time>
      </trkpt>
      <trkpt lat="43.29418333" lon="-4.23697833">
        <ele>145.0</ele>
        <time>2018-05-19T06:16:49.872Z</time>
      </trkpt>
      <trkpt lat="43.29413833" lon="-4.236935">
        <ele>145.0</ele>
        <time>2018-05-19T06:16:50.874Z</time>
      </trkpt>
      <trkpt lat="43.29413833" lon="-4.236935">
        <ele>145.0</ele>
        <time>2018-05-19T06:16:51.876Z</time>
      </trkpt>
      <trkpt lat="43.29404833" lon="-4.23685833">
        <ele>145.0</ele>
        <time>2018-05-19T06:16:52.873Z</time>
      </trkpt>
      <trkpt lat="43.29404833" lon="-4.23685833">
        <ele>145.0</ele>
        <time>2018-05-19T06:16:53.865Z</time>
      </trkpt>
      <trkpt lat="43.29396" lon="-4.23679167">
        <ele>145.0</ele>
        <time>2018-05-19T06:16:54.874Z</time>
      </trkpt>
      <trkpt lat="43.29396" lon="-4.23679167">
        <ele>145.0</ele>
        <time>2018-05-19T06:16:55.871Z</time>
      </trkpt>
      <trkpt lat="43.293865" lon="-4.23673">
        <ele>146.0</ele>
        <time>2018-05-19T06:16:56.874Z</time>
      </trkpt>
      <trkpt lat="43.293865" lon="-4.23673">
        <ele>146.0</ele>
        <time>2018-05-19T06:16:57.865Z</time>
      </trkpt>
      <trkpt lat="43.29376833" lon="-4.23667">
        <ele>146.0</ele>
        <time>2018-05-19T06:16:58.873Z</time>
      </trkpt>
      <trkpt lat="43.29371667" lon="-4.23664333">
        <ele>147.0</ele>
        <time>2018-05-19T06:16:59.873Z</time>
      </trkpt>
      <trkpt lat="43.29371667" lon="-4.23664333">
        <ele>147.0</ele>
        <time>2018-05-19T06:17:00.867Z</time>
      </trkpt>
      <trkpt lat="43.29362" lon="-4.23658167">
        <ele>147.0</ele>
        <time>2018-05-19T06:17:01.879Z</time>
      </trkpt>
      <trkpt lat="43.29356833" lon="-4.23655167">
        <ele>147.0</ele>
        <time>2018-05-19T06:17:02.874Z</time>
      </trkpt>
      <trkpt lat="43.29356833" lon="-4.23655167">
        <ele>147.0</ele>
        <time>2018-05-19T06:17:03.868Z</time>
      </trkpt>
      <trkpt lat="43.293465" lon="-4.23649167">
        <ele>148.0</ele>
        <time>2018-05-19T06:17:04.873Z</time>
      </trkpt>
      <trkpt lat="43.29341167" lon="-4.23645667">
        <ele>148.0</ele>
        <time>2018-05-19T06:17:05.872Z</time>
      </trkpt>
      <trkpt lat="43.29335667" lon="-4.23641667">
        <ele>148.0</ele>
        <time>2018-05-19T06:17:06.875Z</time>
      </trkpt>
      <trkpt lat="43.29335667" lon="-4.23641667">
        <ele>148.0</ele>
        <time>2018-05-19T06:17:07.864Z</time>
      </trkpt>
      <trkpt lat="43.29325" lon="-4.23633333">
        <ele>148.0</ele>
        <time>2018-05-19T06:17:08.848Z</time>
      </trkpt>
      <trkpt lat="43.29325" lon="-4.23633333">
        <ele>148.0</ele>
        <time>2018-05-19T06:17:09.870Z</time>
      </trkpt>
      <trkpt lat="43.29313667" lon="-4.23625833">
        <ele>148.0</ele>
        <time>2018-05-19T06:17:10.872Z</time>
      </trkpt>
      <trkpt lat="43.29313667" lon="-4.23625833">
        <ele>148.0</ele>
        <time>2018-05-19T06:17:11.875Z</time>
      </trkpt>
      <trkpt lat="43.29302" lon="-4.236185">
        <ele>148.0</ele>
        <time>2018-05-19T06:17:12.874Z</time>
      </trkpt>
      <trkpt lat="43.29302" lon="-4.236185">
        <ele>148.0</ele>
        <time>2018-05-19T06:17:13.867Z</time>
      </trkpt>
      <trkpt lat="43.29290167" lon="-4.23610833">
        <ele>148.0</ele>
        <time>2018-05-19T06:17:14.874Z</time>
      </trkpt>
      <trkpt lat="43.29290167" lon="-4.23610833">
        <ele>148.0</ele>
        <time>2018-05-19T06:17:15.858Z</time>
      </trkpt>
      <trkpt lat="43.292785" lon="-4.23603833">
        <ele>148.0</ele>
        <time>2018-05-19T06:17:16.882Z</time>
      </trkpt>
      <trkpt lat="43.292785" lon="-4.23603833">
        <ele>148.0</ele>
        <time>2018-05-19T06:17:17.867Z</time>
      </trkpt>
      <trkpt lat="43.29265667" lon="-4.23598333">
        <ele>148.0</ele>
        <time>2018-05-19T06:17:18.874Z</time>
      </trkpt>
      <trkpt lat="43.29265667" lon="-4.23598333">
        <ele>148.0</ele>
        <time>2018-05-19T06:17:19.871Z</time>
      </trkpt>
      <trkpt lat="43.29252333" lon="-4.23594667">
        <ele>148.0</ele>
        <time>2018-05-19T06:17:20.874Z</time>
      </trkpt>
      <trkpt lat="43.29252333" lon="-4.23594667">
        <ele>148.0</ele>
        <time>2018-05-19T06:17:21.875Z</time>
      </trkpt>
      <trkpt lat="43.29239333" lon="-4.23592">
        <ele>148.0</ele>
        <time>2018-05-19T06:17:22.872Z</time>
      </trkpt>
      <trkpt lat="43.29239333" lon="-4.23592">
        <ele>148.0</ele>
        <time>2018-05-19T06:17:23.868Z</time>
      </trkpt>
      <trkpt lat="43.292265" lon="-4.23590667">
        <ele>148.0</ele>
        <time>2018-05-19T06:17:24.873Z</time>
      </trkpt>
      <trkpt lat="43.292265" lon="-4.23590667">
        <ele>148.0</ele>
        <time>2018-05-19T06:17:25.867Z</time>
      </trkpt>
      <trkpt lat="43.292135" lon="-4.23589333">
        <ele>149.0</ele>
        <time>2018-05-19T06:17:26.873Z</time>
      </trkpt>
      <trkpt lat="43.29207167" lon="-4.23588667">
        <ele>149.0</ele>
        <time>2018-05-19T06:17:27.874Z</time>
      </trkpt>
      <trkpt lat="43.29207167" lon="-4.23588667">
        <ele>149.0</ele>
        <time>2018-05-19T06:17:28.870Z</time>
      </trkpt>
      <trkpt lat="43.29193833" lon="-4.23588667">
        <ele>149.0</ele>
        <time>2018-05-19T06:17:29.871Z</time>
      </trkpt>
      <trkpt lat="43.29187333" lon="-4.235885">
        <ele>150.0</ele>
        <time>2018-05-19T06:17:30.874Z</time>
      </trkpt>
      <trkpt lat="43.29187333" lon="-4.235885">
        <ele>150.0</ele>
        <time>2018-05-19T06:17:31.867Z</time>
      </trkpt>
      <trkpt lat="43.29173833" lon="-4.23588667">
        <ele>150.0</ele>
        <time>2018-05-19T06:17:32.871Z</time>
      </trkpt>
      <trkpt lat="43.29167167" lon="-4.23588667">
        <ele>150.0</ele>
        <time>2018-05-19T06:17:33.872Z</time>
      </trkpt>
      <trkpt lat="43.29167167" lon="-4.23588667">
        <ele>150.0</ele>
        <time>2018-05-19T06:17:34.867Z</time>
      </trkpt>
      <trkpt lat="43.29153667" lon="-4.23588">
        <ele>150.0</ele>
        <time>2018-05-19T06:17:35.871Z</time>
      </trkpt>
      <trkpt lat="43.29153667" lon="-4.23588">
        <ele>150.0</ele>
        <time>2018-05-19T06:17:36.846Z</time>
      </trkpt>
      <trkpt lat="43.29140167" lon="-4.23586167">
        <ele>150.0</ele>
        <time>2018-05-19T06:17:37.874Z</time>
      </trkpt>
      <trkpt lat="43.29133333" lon="-4.23585">
        <ele>150.0</ele>
        <time>2018-05-19T06:17:38.874Z</time>
      </trkpt>
      <trkpt lat="43.29133333" lon="-4.23585">
        <ele>150.0</ele>
        <time>2018-05-19T06:17:39.867Z</time>
      </trkpt>
      <trkpt lat="43.29119667" lon="-4.235845">
        <ele>151.0</ele>
        <time>2018-05-19T06:17:40.874Z</time>
      </trkpt>
      <trkpt lat="43.29119667" lon="-4.235845">
        <ele>151.0</ele>
        <time>2018-05-19T06:17:41.870Z</time>
      </trkpt>
      <trkpt lat="43.29105833" lon="-4.23584667">
        <ele>151.0</ele>
        <time>2018-05-19T06:17:42.867Z</time>
      </trkpt>
      <trkpt lat="43.29099167" lon="-4.23584667">
        <ele>151.0</ele>
        <time>2018-05-19T06:17:43.872Z</time>
      </trkpt>
      <trkpt lat="43.29092333" lon="-4.23584667">
        <ele>151.0</ele>
        <time>2018-05-19T06:17:44.874Z</time>
      </trkpt>
      <trkpt lat="43.29092333" lon="-4.23584667">
        <ele>151.0</ele>
        <time>2018-05-19T06:17:45.848Z</time>
      </trkpt>
      <trkpt lat="43.29079" lon="-4.235855">
        <ele>151.0</ele>
        <time>2018-05-19T06:17:46.874Z</time>
      </trkpt>
      <trkpt lat="43.29079" lon="-4.235855">
        <ele>151.0</ele>
        <time>2018-05-19T06:17:47.867Z</time>
      </trkpt>
      <trkpt lat="43.29065667" lon="-4.23586333">
        <ele>151.0</ele>
        <time>2018-05-19T06:17:48.875Z</time>
      </trkpt>
      <trkpt lat="43.29065667" lon="-4.23586333">
        <ele>151.0</ele>
        <time>2018-05-19T06:17:49.868Z</time>
      </trkpt>
      <trkpt lat="43.290525" lon="-4.23587167">
        <ele>152.0</ele>
        <time>2018-05-19T06:17:50.874Z</time>
      </trkpt>
      <trkpt lat="43.290525" lon="-4.23587167">
        <ele>152.0</ele>
        <time>2018-05-19T06:17:51.871Z</time>
      </trkpt>
      <trkpt lat="43.29039333" lon="-4.23588">
        <ele>152.0</ele>
        <time>2018-05-19T06:17:52.857Z</time>
      </trkpt>
      <trkpt lat="43.29039333" lon="-4.23588">
        <ele>152.0</ele>
        <time>2018-05-19T06:17:53.883Z</time>
      </trkpt>
      <trkpt lat="43.29026167" lon="-4.23588667">
        <ele>152.0</ele>
        <time>2018-05-19T06:17:54.874Z</time>
      </trkpt>
      <trkpt lat="43.29026167" lon="-4.23588667">
        <ele>152.0</ele>
        <time>2018-05-19T06:17:55.868Z</time>
      </trkpt>
      <trkpt lat="43.29013" lon="-4.23588833">
        <ele>152.0</ele>
        <time>2018-05-19T06:17:56.874Z</time>
      </trkpt>
      <trkpt lat="43.29013" lon="-4.23588833">
        <ele>152.0</ele>
        <time>2018-05-19T06:17:57.864Z</time>
      </trkpt>
      <trkpt lat="43.29" lon="-4.235885">
        <ele>152.0</ele>
        <time>2018-05-19T06:17:58.848Z</time>
      </trkpt>
      <trkpt lat="43.29" lon="-4.235885">
        <ele>152.0</ele>
        <time>2018-05-19T06:17:59.870Z</time>
      </trkpt>
      <trkpt lat="43.28987" lon="-4.23588333">
        <ele>152.0</ele>
        <time>2018-05-19T06:18:00.872Z</time>
      </trkpt>
      <trkpt lat="43.28987" lon="-4.23588333">
        <ele>152.0</ele>
        <time>2018-05-19T06:18:01.868Z</time>
      </trkpt>
      <trkpt lat="43.28974333" lon="-4.23588667">
        <ele>152.0</ele>
        <time>2018-05-19T06:18:02.878Z</time>
      </trkpt>
      <trkpt lat="43.28974333" lon="-4.23588667">
        <ele>152.0</ele>
        <time>2018-05-19T06:18:03.868Z</time>
      </trkpt>
      <trkpt lat="43.28962167" lon="-4.23588667">
        <ele>152.0</ele>
        <time>2018-05-19T06:18:04.873Z</time>
      </trkpt>
      <trkpt lat="43.28962167" lon="-4.23588667">
        <ele>152.0</ele>
        <time>2018-05-19T06:18:05.868Z</time>
      </trkpt>
      <trkpt lat="43.28950167" lon="-4.23588833">
        <ele>152.0</ele>
        <time>2018-05-19T06:18:06.874Z</time>
      </trkpt>
      <trkpt lat="43.28950167" lon="-4.23588833">
        <ele>152.0</ele>
        <time>2018-05-19T06:18:07.867Z</time>
      </trkpt>
      <trkpt lat="43.289385" lon="-4.23589167">
        <ele>152.0</ele>
        <time>2018-05-19T06:18:08.873Z</time>
      </trkpt>
      <trkpt lat="43.289385" lon="-4.23589167">
        <ele>152.0</ele>
        <time>2018-05-19T06:18:09.865Z</time>
      </trkpt>
      <trkpt lat="43.28927333" lon="-4.2359">
        <ele>152.0</ele>
        <time>2018-05-19T06:18:10.848Z</time>
      </trkpt>
      <trkpt lat="43.28921833" lon="-4.235905">
        <ele>152.0</ele>
        <time>2018-05-19T06:18:11.873Z</time>
      </trkpt>
      <trkpt lat="43.28921833" lon="-4.235905">
        <ele>152.0</ele>
        <time>2018-05-19T06:18:12.876Z</time>
      </trkpt>
      <trkpt lat="43.28911833" lon="-4.23592">
        <ele>152.0</ele>
        <time>2018-05-19T06:18:13.873Z</time>
      </trkpt>
      <trkpt lat="43.28907" lon="-4.23592333">
        <ele>152.0</ele>
        <time>2018-05-19T06:18:14.872Z</time>
      </trkpt>
      <trkpt lat="43.28907" lon="-4.23592333">
        <ele>152.0</ele>
        <time>2018-05-19T06:18:15.868Z</time>
      </trkpt>
      <trkpt lat="43.28897833" lon="-4.23593833">
        <ele>152.0</ele>
        <time>2018-05-19T06:18:16.873Z</time>
      </trkpt>
      <trkpt lat="43.28897833" lon="-4.23593833">
        <ele>152.0</ele>
        <time>2018-05-19T06:18:17.864Z</time>
      </trkpt>
      <trkpt lat="43.2889" lon="-4.23601">
        <ele>152.0</ele>
        <time>2018-05-19T06:18:18.879Z</time>
      </trkpt>
      <trkpt lat="43.2889" lon="-4.23601">
        <ele>152.0</ele>
        <time>2018-05-19T06:18:19.870Z</time>
      </trkpt>
      <trkpt lat="43.28884667" lon="-4.23614">
        <ele>152.0</ele>
        <time>2018-05-19T06:18:20.875Z</time>
      </trkpt>
      <trkpt lat="43.28884667" lon="-4.23614">
        <ele>152.0</ele>
        <time>2018-05-19T06:18:21.868Z</time>
      </trkpt>
      <trkpt lat="43.288795" lon="-4.23628833">
        <ele>152.0</ele>
        <time>2018-05-19T06:18:22.873Z</time>
      </trkpt>
      <trkpt lat="43.288795" lon="-4.23628833">
        <ele>152.0</ele>
        <time>2018-05-19T06:18:23.873Z</time>
      </trkpt>
      <trkpt lat="43.28874333" lon="-4.23643667">
        <ele>152.0</ele>
        <time>2018-05-19T06:18:24.874Z</time>
      </trkpt>
      <trkpt lat="43.28874333" lon="-4.23643667">
        <ele>152.0</ele>
        <time>2018-05-19T06:18:25.867Z</time>
      </trkpt>
      <trkpt lat="43.28869" lon="-4.23658167">
        <ele>152.0</ele>
        <time>2018-05-19T06:18:26.870Z</time>
      </trkpt>
      <trkpt lat="43.28869" lon="-4.23658167">
        <ele>152.0</ele>
        <time>2018-05-19T06:18:27.867Z</time>
      </trkpt>
      <trkpt lat="43.28864167" lon="-4.23672167">
        <ele>152.0</ele>
        <time>2018-05-19T06:18:28.873Z</time>
      </trkpt>
      <trkpt lat="43.28864167" lon="-4.23672167">
        <ele>152.0</ele>
        <time>2018-05-19T06:18:29.871Z</time>
      </trkpt>
      <trkpt lat="43.28860167" lon="-4.23685667">
        <ele>152.0</ele>
        <time>2018-05-19T06:18:30.874Z</time>
      </trkpt>
      <trkpt lat="43.28860167" lon="-4.23685667">
        <ele>152.0</ele>
        <time>2018-05-19T06:18:31.869Z</time>
      </trkpt>
      <trkpt lat="43.28857333" lon="-4.23700333">
        <ele>152.0</ele>
        <time>2018-05-19T06:18:32.844Z</time>
      </trkpt>
      <trkpt lat="43.28856" lon="-4.23707833">
        <ele>152.0</ele>
        <time>2018-05-19T06:18:33.876Z</time>
      </trkpt>
      <trkpt lat="43.28856" lon="-4.23707833">
        <ele>152.0</ele>
        <time>2018-05-19T06:18:34.864Z</time>
      </trkpt>
      <trkpt lat="43.28854" lon="-4.23724167">
        <ele>153.0</ele>
        <time>2018-05-19T06:18:35.848Z</time>
      </trkpt>
      <trkpt lat="43.28853333" lon="-4.23732667">
        <ele>153.0</ele>
        <time>2018-05-19T06:18:36.876Z</time>
      </trkpt>
      <trkpt lat="43.28853333" lon="-4.23732667">
        <ele>153.0</ele>
        <time>2018-05-19T06:18:37.871Z</time>
      </trkpt>
      <trkpt lat="43.28851833" lon="-4.23749167">
        <ele>153.0</ele>
        <time>2018-05-19T06:18:38.873Z</time>
      </trkpt>
      <trkpt lat="43.28851833" lon="-4.23749167">
        <ele>153.0</ele>
        <time>2018-05-19T06:18:39.867Z</time>
      </trkpt>
      <trkpt lat="43.28850667" lon="-4.23766333">
        <ele>153.0</ele>
        <time>2018-05-19T06:18:40.873Z</time>
      </trkpt>
      <trkpt lat="43.28850667" lon="-4.23766333">
        <ele>153.0</ele>
        <time>2018-05-19T06:18:41.876Z</time>
      </trkpt>
      <trkpt lat="43.28848167" lon="-4.23781833">
        <ele>153.0</ele>
        <time>2018-05-19T06:18:42.876Z</time>
      </trkpt>
      <trkpt lat="43.28848167" lon="-4.23781833">
        <ele>153.0</ele>
        <time>2018-05-19T06:18:43.867Z</time>
      </trkpt>
      <trkpt lat="43.288445" lon="-4.23795167">
        <ele>153.0</ele>
        <time>2018-05-19T06:18:44.870Z</time>
      </trkpt>
      <trkpt lat="43.288445" lon="-4.23795167">
        <ele>153.0</ele>
        <time>2018-05-19T06:18:45.848Z</time>
      </trkpt>
      <trkpt lat="43.288405" lon="-4.23807833">
        <ele>153.0</ele>
        <time>2018-05-19T06:18:46.875Z</time>
      </trkpt>
      <trkpt lat="43.288405" lon="-4.23807833">
        <ele>153.0</ele>
        <time>2018-05-19T06:18:47.867Z</time>
      </trkpt>
      <trkpt lat="43.28836667" lon="-4.23820333">
        <ele>153.0</ele>
        <time>2018-05-19T06:18:48.874Z</time>
      </trkpt>
      <trkpt lat="43.28836667" lon="-4.23820333">
        <ele>153.0</ele>
        <time>2018-05-19T06:18:49.869Z</time>
      </trkpt>
      <trkpt lat="43.28832333" lon="-4.23832667">
        <ele>153.0</ele>
        <time>2018-05-19T06:18:50.858Z</time>
      </trkpt>
      <trkpt lat="43.28832333" lon="-4.23832667">
        <ele>153.0</ele>
        <time>2018-05-19T06:18:51.880Z</time>
      </trkpt>
      <trkpt lat="43.28827833" lon="-4.23842833">
        <ele>154.0</ele>
        <time>2018-05-19T06:18:52.878Z</time>
      </trkpt>
      <trkpt lat="43.28827833" lon="-4.23842833">
        <ele>154.0</ele>
        <time>2018-05-19T06:18:53.883Z</time>
      </trkpt>
      <trkpt lat="43.28823167" lon="-4.23852167">
        <ele>154.0</ele>
        <time>2018-05-19T06:18:54.876Z</time>
      </trkpt>
      <trkpt lat="43.28823167" lon="-4.23852167">
        <ele>154.0</ele>
        <time>2018-05-19T06:18:55.871Z</time>
      </trkpt>
      <trkpt lat="43.28818333" lon="-4.23859667">
        <ele>154.0</ele>
        <time>2018-05-19T06:18:56.874Z</time>
      </trkpt>
      <trkpt lat="43.28818333" lon="-4.23859667">
        <ele>154.0</ele>
        <time>2018-05-19T06:18:57.867Z</time>
      </trkpt>
      <trkpt lat="43.28814" lon="-4.23867">
        <ele>154.0</ele>
        <time>2018-05-19T06:18:58.874Z</time>
      </trkpt>
      <trkpt lat="43.28812" lon="-4.23871167">
        <ele>154.0</ele>
        <time>2018-05-19T06:18:59.873Z</time>
      </trkpt>
      <trkpt lat="43.28812" lon="-4.23871167">
        <ele>154.0</ele>
        <time>2018-05-19T06:19:00.862Z</time>
      </trkpt>
      <trkpt lat="43.28809167" lon="-4.2388">
        <ele>155.0</ele>
        <time>2018-05-19T06:19:01.857Z</time>
      </trkpt>
      <trkpt lat="43.28808" lon="-4.23884167">
        <ele>155.0</ele>
        <time>2018-05-19T06:19:02.885Z</time>
      </trkpt>
      <trkpt lat="43.28808" lon="-4.23884167">
        <ele>155.0</ele>
        <time>2018-05-19T06:19:03.867Z</time>
      </trkpt>
      <trkpt lat="43.28806667" lon="-4.23890333">
        <ele>155.0</ele>
        <time>2018-05-19T06:19:04.872Z</time>
      </trkpt>
      <trkpt lat="43.28806167" lon="-4.23892667">
        <ele>155.0</ele>
        <time>2018-05-19T06:19:05.873Z</time>
      </trkpt>
      <trkpt lat="43.28806167" lon="-4.23892667">
        <ele>155.0</ele>
        <time>2018-05-19T06:19:06.873Z</time>
      </trkpt>
      <trkpt lat="43.28805167" lon="-4.23896333">
        <ele>155.0</ele>
        <time>2018-05-19T06:19:07.873Z</time>
      </trkpt>
      <trkpt lat="43.28804833" lon="-4.23897833">
        <ele>155.0</ele>
        <time>2018-05-19T06:19:08.874Z</time>
      </trkpt>
      <trkpt lat="43.28804833" lon="-4.23897833">
        <ele>155.0</ele>
        <time>2018-05-19T06:19:09.868Z</time>
      </trkpt>
      <trkpt lat="43.28804333" lon="-4.23900667">
        <ele>155.0</ele>
        <time>2018-05-19T06:19:10.875Z</time>
      </trkpt>
      <trkpt lat="43.28804333" lon="-4.23900667">
        <ele>155.0</ele>
        <time>2018-05-19T06:19:11.867Z</time>
      </trkpt>
      <trkpt lat="43.28804167" lon="-4.23904833">
        <ele>155.0</ele>
        <time>2018-05-19T06:19:12.858Z</time>
      </trkpt>
      <trkpt lat="43.28804167" lon="-4.23904833">
        <ele>155.0</ele>
        <time>2018-05-19T06:19:13.845Z</time>
      </trkpt>
      <trkpt lat="43.28803833" lon="-4.23908333">
        <ele>156.0</ele>
        <time>2018-05-19T06:19:14.880Z</time>
      </trkpt>
      <trkpt lat="43.28803167" lon="-4.23909833">
        <ele>156.0</ele>
        <time>2018-05-19T06:19:15.873Z</time>
      </trkpt>
      <trkpt lat="43.28803167" lon="-4.23909833">
        <ele>156.0</ele>
        <time>2018-05-19T06:19:16.874Z</time>
      </trkpt>
      <trkpt lat="43.28803" lon="-4.23912167">
        <ele>156.0</ele>
        <time>2018-05-19T06:19:17.873Z</time>
      </trkpt>
      <trkpt lat="43.28803" lon="-4.23913333">
        <ele>156.0</ele>
        <time>2018-05-19T06:19:18.875Z</time>
      </trkpt>
      <trkpt lat="43.28802667" lon="-4.23914833">
        <ele>156.0</ele>
        <time>2018-05-19T06:19:19.873Z</time>
      </trkpt>
      <trkpt lat="43.28802667" lon="-4.23914833">
        <ele>156.0</ele>
        <time>2018-05-19T06:19:20.877Z</time>
      </trkpt>
      <trkpt lat="43.288015" lon="-4.23917667">
        <ele>156.0</ele>
        <time>2018-05-19T06:19:21.873Z</time>
      </trkpt>
      <trkpt lat="43.28801167" lon="-4.23919">
        <ele>156.0</ele>
        <time>2018-05-19T06:19:22.878Z</time>
      </trkpt>
      <trkpt lat="43.28801167" lon="-4.23919">
        <ele>156.0</ele>
        <time>2018-05-19T06:19:23.863Z</time>
      </trkpt>
      <trkpt lat="43.28800167" lon="-4.23921">
        <ele>156.0</ele>
        <time>2018-05-19T06:19:24.849Z</time>
      </trkpt>
      <trkpt lat="43.28800167" lon="-4.23921">
        <ele>156.0</ele>
        <time>2018-05-19T06:19:25.876Z</time>
      </trkpt>
      <trkpt lat="43.28798667" lon="-4.23923">
        <ele>156.0</ele>
        <time>2018-05-19T06:19:26.873Z</time>
      </trkpt>
      <trkpt lat="43.28798667" lon="-4.23923">
        <ele>156.0</ele>
        <time>2018-05-19T06:19:27.864Z</time>
      </trkpt>
      <trkpt lat="43.28797833" lon="-4.23924833">
        <ele>156.0</ele>
        <time>2018-05-19T06:19:28.850Z</time>
      </trkpt>
      <trkpt lat="43.28797833" lon="-4.23924833">
        <ele>156.0</ele>
        <time>2018-05-19T06:19:29.876Z</time>
      </trkpt>
      <trkpt lat="43.28797333" lon="-4.23926667">
        <ele>156.0</ele>
        <time>2018-05-19T06:19:30.874Z</time>
      </trkpt>
      <trkpt lat="43.28797333" lon="-4.23926667">
        <ele>156.0</ele>
        <time>2018-05-19T06:19:31.870Z</time>
      </trkpt>
      <trkpt lat="43.28796333" lon="-4.23929">
        <ele>156.0</ele>
        <time>2018-05-19T06:19:32.873Z</time>
      </trkpt>
      <trkpt lat="43.28796333" lon="-4.23929">
        <ele>156.0</ele>
        <time>2018-05-19T06:19:33.873Z</time>
      </trkpt>
      <trkpt lat="43.28795167" lon="-4.23931667">
        <ele>156.0</ele>
        <time>2018-05-19T06:19:34.881Z</time>
      </trkpt>
      <trkpt lat="43.28795167" lon="-4.23931667">
        <ele>156.0</ele>
        <time>2018-05-19T06:19:35.870Z</time>
      </trkpt>
      <trkpt lat="43.28794667" lon="-4.23933667">
        <ele>156.0</ele>
        <time>2018-05-19T06:19:36.875Z</time>
      </trkpt>
      <trkpt lat="43.28794667" lon="-4.23933667">
        <ele>156.0</ele>
        <time>2018-05-19T06:19:37.877Z</time>
      </trkpt>
      <trkpt lat="43.28794333" lon="-4.23936">
        <ele>156.0</ele>
        <time>2018-05-19T06:19:38.874Z</time>
      </trkpt>
      <trkpt lat="43.28794333" lon="-4.23936">
        <ele>156.0</ele>
        <time>2018-05-19T06:19:39.868Z</time>
      </trkpt>
      <trkpt lat="43.28793833" lon="-4.239385">
        <ele>156.0</ele>
        <time>2018-05-19T06:19:40.872Z</time>
      </trkpt>
      <trkpt lat="43.28793833" lon="-4.239385">
        <ele>156.0</ele>
        <time>2018-05-19T06:19:41.864Z</time>
      </trkpt>
      <trkpt lat="43.287935" lon="-4.23941167">
        <ele>156.0</ele>
        <time>2018-05-19T06:19:42.857Z</time>
      </trkpt>
      <trkpt lat="43.287935" lon="-4.23941167">
        <ele>156.0</ele>
        <time>2018-05-19T06:19:43.877Z</time>
      </trkpt>
      <trkpt lat="43.28793167" lon="-4.23942667">
        <ele>156.0</ele>
        <time>2018-05-19T06:19:44.877Z</time>
      </trkpt>
      <trkpt lat="43.28793" lon="-4.23944">
        <ele>156.0</ele>
        <time>2018-05-19T06:19:45.858Z</time>
      </trkpt>
      <trkpt lat="43.28793" lon="-4.23944">
        <ele>156.0</ele>
        <time>2018-05-19T06:19:46.844Z</time>
      </trkpt>
      <trkpt lat="43.28792833" lon="-4.23945833">
        <ele>156.0</ele>
        <time>2018-05-19T06:19:47.878Z</time>
      </trkpt>
      <trkpt lat="43.28792667" lon="-4.23946667">
        <ele>156.0</ele>
        <time>2018-05-19T06:19:48.879Z</time>
      </trkpt>
      <trkpt lat="43.28792667" lon="-4.23946667">
        <ele>156.0</ele>
        <time>2018-05-19T06:19:49.875Z</time>
      </trkpt>
      <trkpt lat="43.28792167" lon="-4.23948333">
        <ele>157.0</ele>
        <time>2018-05-19T06:19:50.849Z</time>
      </trkpt>
      <trkpt lat="43.28792167" lon="-4.23948333">
        <ele>157.0</ele>
        <time>2018-05-19T06:19:51.874Z</time>
      </trkpt>
      <trkpt lat="43.287915" lon="-4.23950333">
        <ele>157.0</ele>
        <time>2018-05-19T06:19:52.874Z</time>
      </trkpt>
      <trkpt lat="43.287915" lon="-4.23950333">
        <ele>157.0</ele>
        <time>2018-05-19T06:19:53.848Z</time>
      </trkpt>
      <trkpt lat="43.28791" lon="-4.23952">
        <ele>157.0</ele>
        <time>2018-05-19T06:19:54.879Z</time>
      </trkpt>
      <trkpt lat="43.28790667" lon="-4.23952667">
        <ele>157.0</ele>
        <time>2018-05-19T06:19:55.848Z</time>
      </trkpt>
      <trkpt lat="43.28790667" lon="-4.23952667">
        <ele>157.0</ele>
        <time>2018-05-19T06:19:56.879Z</time>
      </trkpt>
      <trkpt lat="43.28790167" lon="-4.23954333">
        <ele>157.0</ele>
        <time>2018-05-19T06:19:57.875Z</time>
      </trkpt>
      <trkpt lat="43.2879" lon="-4.23955167">
        <ele>157.0</ele>
        <time>2018-05-19T06:19:58.879Z</time>
      </trkpt>
      <trkpt lat="43.28789833" lon="-4.239555">
        <ele>157.0</ele>
        <time>2018-05-19T06:19:59.858Z</time>
      </trkpt>
      <trkpt lat="43.28789833" lon="-4.239555">
        <ele>157.0</ele>
        <time>2018-05-19T06:20:00.857Z</time>
      </trkpt>
      <trkpt lat="43.28789333" lon="-4.23956833">
        <ele>157.0</ele>
        <time>2018-05-19T06:20:01.870Z</time>
      </trkpt>
      <trkpt lat="43.28788833" lon="-4.23958833">
        <ele>156.0</ele>
        <time>2018-05-19T06:20:02.847Z</time>
      </trkpt>
      <trkpt lat="43.287885" lon="-4.239595">
        <ele>156.0</ele>
        <time>2018-05-19T06:20:03.851Z</time>
      </trkpt>
      <trkpt lat="43.287885" lon="-4.239595">
        <ele>156.0</ele>
        <time>2018-05-19T06:20:04.883Z</time>
      </trkpt>
      <trkpt lat="43.28788" lon="-4.23960833">
        <ele>156.0</ele>
        <time>2018-05-19T06:20:05.879Z</time>
      </trkpt>
      <trkpt lat="43.28787833" lon="-4.239615">
        <ele>156.0</ele>
        <time>2018-05-19T06:20:06.846Z</time>
      </trkpt>
      <trkpt lat="43.28787833" lon="-4.239615">
        <ele>156.0</ele>
        <time>2018-05-19T06:20:07.873Z</time>
      </trkpt>
      <trkpt lat="43.28787667" lon="-4.23962167">
        <ele>156.0</ele>
        <time>2018-05-19T06:20:08.874Z</time>
      </trkpt>
      <trkpt lat="43.28786667" lon="-4.23964833">
        <ele>156.0</ele>
        <time>2018-05-19T06:20:09.880Z</time>
      </trkpt>
      <trkpt lat="43.28786333" lon="-4.239655">
        <ele>156.0</ele>
        <time>2018-05-19T06:20:10.880Z</time>
      </trkpt>
      <trkpt lat="43.28786333" lon="-4.239655">
        <ele>156.0</ele>
        <time>2018-05-19T06:20:11.873Z</time>
      </trkpt>
      <trkpt lat="43.28785667" lon="-4.23967167">
        <ele>155.0</ele>
        <time>2018-05-19T06:20:12.844Z</time>
      </trkpt>
      <trkpt lat="43.28785667" lon="-4.23967833">
        <ele>155.0</ele>
        <time>2018-05-19T06:20:13.883Z</time>
      </trkpt>
      <trkpt lat="43.28785667" lon="-4.23967833">
        <ele>155.0</ele>
        <time>2018-05-19T06:20:14.871Z</time>
      </trkpt>
      <trkpt lat="43.28784667" lon="-4.23972">
        <ele>155.0</ele>
        <time>2018-05-19T06:20:15.846Z</time>
      </trkpt>
      <trkpt lat="43.28784333" lon="-4.239725">
        <ele>155.0</ele>
        <time>2018-05-19T06:20:16.848Z</time>
      </trkpt>
      <trkpt lat="43.28784167" lon="-4.23972833">
        <ele>155.0</ele>
        <time>2018-05-19T06:20:17.848Z</time>
      </trkpt>
      <trkpt lat="43.28784167" lon="-4.23972833">
        <ele>155.0</ele>
        <time>2018-05-19T06:20:18.848Z</time>
      </trkpt>
      <trkpt lat="43.28783667" lon="-4.23974167">
        <ele>155.0</ele>
        <time>2018-05-19T06:20:19.881Z</time>
      </trkpt>
      <trkpt lat="43.28783667" lon="-4.23974833">
        <ele>155.0</ele>
        <time>2018-05-19T06:20:20.844Z</time>
      </trkpt>
      <trkpt lat="43.28783667" lon="-4.23974833">
        <ele>155.0</ele>
        <time>2018-05-19T06:20:21.849Z</time>
      </trkpt>
      <trkpt lat="43.28783333" lon="-4.23976">
        <ele>155.0</ele>
        <time>2018-05-19T06:20:22.851Z</time>
      </trkpt>
      <trkpt lat="43.28783" lon="-4.23976833">
        <ele>155.0</ele>
        <time>2018-05-19T06:20:23.844Z</time>
      </trkpt>
      <trkpt lat="43.28783" lon="-4.23976833">
        <ele>155.0</ele>
        <time>2018-05-19T06:20:24.856Z</time>
      </trkpt>
      <trkpt lat="43.287825" lon="-4.23978333">
        <ele>156.0</ele>
        <time>2018-05-19T06:20:25.866Z</time>
      </trkpt>
      <trkpt lat="43.287825" lon="-4.23978333">
        <ele>156.0</ele>
        <time>2018-05-19T06:20:26.867Z</time>
      </trkpt>
      <trkpt lat="43.28782" lon="-4.2398">
        <ele>156.0</ele>
        <time>2018-05-19T06:20:27.858Z</time>
      </trkpt>
      <trkpt lat="43.28782" lon="-4.2398">
        <ele>156.0</ele>
        <time>2018-05-19T06:20:28.882Z</time>
      </trkpt>
      <trkpt lat="43.28781667" lon="-4.239815">
        <ele>156.0</ele>
        <time>2018-05-19T06:20:29.882Z</time>
      </trkpt>
      <trkpt lat="43.287815" lon="-4.23982167">
        <ele>156.0</ele>
        <time>2018-05-19T06:20:30.848Z</time>
      </trkpt>
      <trkpt lat="43.287815" lon="-4.23982167">
        <ele>156.0</ele>
        <time>2018-05-19T06:20:31.850Z</time>
      </trkpt>
      <trkpt lat="43.28781" lon="-4.23984">
        <ele>156.0</ele>
        <time>2018-05-19T06:20:32.845Z</time>
      </trkpt>
      <trkpt lat="43.28781" lon="-4.23984">
        <ele>156.0</ele>
        <time>2018-05-19T06:20:33.881Z</time>
      </trkpt>
      <trkpt lat="43.287805" lon="-4.23985333">
        <ele>156.0</ele>
        <time>2018-05-19T06:20:34.858Z</time>
      </trkpt>
      <trkpt lat="43.287805" lon="-4.23985333">
        <ele>156.0</ele>
        <time>2018-05-19T06:20:35.853Z</time>
      </trkpt>
      <trkpt lat="43.2878" lon="-4.239875">
        <ele>156.0</ele>
        <time>2018-05-19T06:20:36.849Z</time>
      </trkpt>
      <trkpt lat="43.2878" lon="-4.239875">
        <ele>156.0</ele>
        <time>2018-05-19T06:20:37.882Z</time>
      </trkpt>
      <trkpt lat="43.287795" lon="-4.239895">
        <ele>156.0</ele>
        <time>2018-05-19T06:20:38.847Z</time>
      </trkpt>
      <trkpt lat="43.28779" lon="-4.239905">
        <ele>156.0</ele>
        <time>2018-05-19T06:20:39.844Z</time>
      </trkpt>
      <trkpt lat="43.28779" lon="-4.239905">
        <ele>156.0</ele>
        <time>2018-05-19T06:20:40.883Z</time>
      </trkpt>
      <trkpt lat="43.28778167" lon="-4.23992833">
        <ele>156.0</ele>
        <time>2018-05-19T06:20:41.844Z</time>
      </trkpt>
      <trkpt lat="43.28778167" lon="-4.23992833">
        <ele>156.0</ele>
        <time>2018-05-19T06:20:42.845Z</time>
      </trkpt>
      <trkpt lat="43.28777833" lon="-4.239945">
        <ele>157.0</ele>
        <time>2018-05-19T06:20:43.866Z</time>
      </trkpt>
      <trkpt lat="43.28777833" lon="-4.239945">
        <ele>157.0</ele>
        <time>2018-05-19T06:20:44.862Z</time>
      </trkpt>
      <trkpt lat="43.28777" lon="-4.23996333">
        <ele>157.0</ele>
        <time>2018-05-19T06:20:45.867Z</time>
      </trkpt>
      <trkpt lat="43.28777" lon="-4.23996333">
        <ele>157.0</ele>
        <time>2018-05-19T06:20:46.876Z</time>
      </trkpt>
      <trkpt lat="43.28777" lon="-4.23997333">
        <ele>157.0</ele>
        <time>2018-05-19T06:20:47.844Z</time>
      </trkpt>
      <trkpt lat="43.28777" lon="-4.23997333">
        <ele>157.0</ele>
        <time>2018-05-19T06:20:48.881Z</time>
      </trkpt>
      <trkpt lat="43.28775" lon="-4.24001167">
        <ele>157.0</ele>
        <time>2018-05-19T06:20:49.861Z</time>
      </trkpt>
      <trkpt lat="43.28774333" lon="-4.24002333">
        <ele>157.0</ele>
        <time>2018-05-19T06:20:50.859Z</time>
      </trkpt>
      <trkpt lat="43.28774333" lon="-4.24002333">
        <ele>157.0</ele>
        <time>2018-05-19T06:20:51.852Z</time>
      </trkpt>
      <trkpt lat="43.28773" lon="-4.24004667">
        <ele>157.0</ele>
        <time>2018-05-19T06:20:52.858Z</time>
      </trkpt>
      <trkpt lat="43.28773" lon="-4.24004667">
        <ele>157.0</ele>
        <time>2018-05-19T06:20:53.853Z</time>
      </trkpt>
      <trkpt lat="43.28772167" lon="-4.24007833">
        <ele>157.0</ele>
        <time>2018-05-19T06:20:54.849Z</time>
      </trkpt>
      <trkpt lat="43.287715" lon="-4.24009">
        <ele>157.0</ele>
        <time>2018-05-19T06:20:55.863Z</time>
      </trkpt>
      <trkpt lat="43.287715" lon="-4.24009">
        <ele>157.0</ele>
        <time>2018-05-19T06:20:56.848Z</time>
      </trkpt>
      <trkpt lat="43.287705" lon="-4.240115">
        <ele>158.0</ele>
        <time>2018-05-19T06:20:57.860Z</time>
      </trkpt>
      <trkpt lat="43.287705" lon="-4.240115">
        <ele>158.0</ele>
        <time>2018-05-19T06:20:58.851Z</time>
      </trkpt>
      <trkpt lat="43.28769833" lon="-4.24013833">
        <ele>158.0</ele>
        <time>2018-05-19T06:20:59.853Z</time>
      </trkpt>
      <trkpt lat="43.28769833" lon="-4.24013833">
        <ele>158.0</ele>
        <time>2018-05-19T06:21:00.852Z</time>
      </trkpt>
      <trkpt lat="43.28769167" lon="-4.24016">
        <ele>158.0</ele>
        <time>2018-05-19T06:21:01.853Z</time>
      </trkpt>
      <trkpt lat="43.28769167" lon="-4.24016">
        <ele>158.0</ele>
        <time>2018-05-19T06:21:02.850Z</time>
      </trkpt>
      <trkpt lat="43.287685" lon="-4.24018">
        <ele>158.0</ele>
        <time>2018-05-19T06:21:03.855Z</time>
      </trkpt>
      <trkpt lat="43.28768167" lon="-4.24019">
        <ele>158.0</ele>
        <time>2018-05-19T06:21:04.874Z</time>
      </trkpt>
      <trkpt lat="43.28768167" lon="-4.24019">
        <ele>158.0</ele>
        <time>2018-05-19T06:21:05.863Z</time>
      </trkpt>
      <trkpt lat="43.28767333" lon="-4.24020833">
        <ele>158.0</ele>
        <time>2018-05-19T06:21:06.856Z</time>
      </trkpt>
      <trkpt lat="43.28767333" lon="-4.24020833">
        <ele>158.0</ele>
        <time>2018-05-19T06:21:07.852Z</time>
      </trkpt>
      <trkpt lat="43.28766833" lon="-4.24022667">
        <ele>158.0</ele>
        <time>2018-05-19T06:21:08.855Z</time>
      </trkpt>
      <trkpt lat="43.28766833" lon="-4.24022667">
        <ele>158.0</ele>
        <time>2018-05-19T06:21:09.852Z</time>
      </trkpt>
      <trkpt lat="43.287665" lon="-4.24024333">
        <ele>158.0</ele>
        <time>2018-05-19T06:21:10.854Z</time>
      </trkpt>
      <trkpt lat="43.287665" lon="-4.24024333">
        <ele>158.0</ele>
        <time>2018-05-19T06:21:11.854Z</time>
      </trkpt>
      <trkpt lat="43.28766333" lon="-4.24025">
        <ele>157.0</ele>
        <time>2018-05-19T06:21:12.852Z</time>
      </trkpt>
      <trkpt lat="43.28766333" lon="-4.24025">
        <ele>157.0</ele>
        <time>2018-05-19T06:21:13.858Z</time>
      </trkpt>
      <trkpt lat="43.28758833" lon="-4.240525">
        <ele>155.0</ele>
        <time>2018-05-19T06:21:14.854Z</time>
      </trkpt>
      <trkpt lat="43.28758833" lon="-4.240525">
        <ele>155.0</ele>
        <time>2018-05-19T06:21:15.844Z</time>
      </trkpt>
      <trkpt lat="43.28758667" lon="-4.240535">
        <ele>155.0</ele>
        <time>2018-05-19T06:21:16.876Z</time>
      </trkpt>
      <trkpt lat="43.28758167" lon="-4.24055">
        <ele>155.0</ele>
        <time>2018-05-19T06:21:17.879Z</time>
      </trkpt>
      <trkpt lat="43.28758167" lon="-4.240555">
        <ele>155.0</ele>
        <time>2018-05-19T06:21:18.874Z</time>
      </trkpt>
      <trkpt lat="43.28758167" lon="-4.240555">
        <ele>155.0</ele>
        <time>2018-05-19T06:21:19.875Z</time>
      </trkpt>
      <trkpt lat="43.287575" lon="-4.240595">
        <ele>155.0</ele>
        <time>2018-05-19T06:21:20.880Z</time>
      </trkpt>
      <trkpt lat="43.287575" lon="-4.240595">
        <ele>155.0</ele>
        <time>2018-05-19T06:21:21.883Z</time>
      </trkpt>
      <trkpt lat="43.287575" lon="-4.24060833">
        <ele>155.0</ele>
        <time>2018-05-19T06:21:22.852Z</time>
      </trkpt>
      <trkpt lat="43.287575" lon="-4.24060833">
        <ele>155.0</ele>
        <time>2018-05-19T06:21:23.852Z</time>
      </trkpt>
      <trkpt lat="43.287575" lon="-4.24062333">
        <ele>155.0</ele>
        <time>2018-05-19T06:21:24.882Z</time>
      </trkpt>
      <trkpt lat="43.287575" lon="-4.24062833">
        <ele>155.0</ele>
        <time>2018-05-19T06:21:25.867Z</time>
      </trkpt>
      <trkpt lat="43.28759333" lon="-4.24070333">
        <ele>154.0</ele>
        <time>2018-05-19T06:21:26.855Z</time>
      </trkpt>
      <trkpt lat="43.28759333" lon="-4.24071167">
        <ele>154.0</ele>
        <time>2018-05-19T06:21:27.857Z</time>
      </trkpt>
      <trkpt lat="43.28759333" lon="-4.24071167">
        <ele>154.0</ele>
        <time>2018-05-19T06:21:28.848Z</time>
      </trkpt>
      <trkpt lat="43.28759333" lon="-4.24072333">
        <ele>154.0</ele>
        <time>2018-05-19T06:21:29.857Z</time>
      </trkpt>
      <trkpt lat="43.28759333" lon="-4.24072333">
        <ele>154.0</ele>
        <time>2018-05-19T06:21:30.844Z</time>
      </trkpt>
      <trkpt lat="43.28759333" lon="-4.24073167">
        <ele>154.0</ele>
        <time>2018-05-19T06:21:31.882Z</time>
      </trkpt>
      <trkpt lat="43.28759333" lon="-4.24073167">
        <ele>154.0</ele>
        <time>2018-05-19T06:21:32.877Z</time>
      </trkpt>
      <trkpt lat="43.28759" lon="-4.24073">
        <ele>154.0</ele>
        <time>2018-05-19T06:21:33.850Z</time>
      </trkpt>
      <trkpt lat="43.28759" lon="-4.24073">
        <ele>154.0</ele>
        <time>2018-05-19T06:21:34.853Z</time>
      </trkpt>
      <trkpt lat="43.287585" lon="-4.24084667">
        <ele>156.0</ele>
        <time>2018-05-19T06:21:35.851Z</time>
      </trkpt>
      <trkpt lat="43.287585" lon="-4.24084667">
        <ele>156.0</ele>
        <time>2018-05-19T06:21:36.847Z</time>
      </trkpt>
      <trkpt lat="43.28758667" lon="-4.24085333">
        <ele>156.0</ele>
        <time>2018-05-19T06:21:37.857Z</time>
      </trkpt>
      <trkpt lat="43.28758667" lon="-4.24085333">
        <ele>156.0</ele>
        <time>2018-05-19T06:21:38.847Z</time>
      </trkpt>
      <trkpt lat="43.28758167" lon="-4.24090333">
        <ele>157.0</ele>
        <time>2018-05-19T06:21:39.863Z</time>
      </trkpt>
      <trkpt lat="43.28758167" lon="-4.240905">
        <ele>157.0</ele>
        <time>2018-05-19T06:21:40.859Z</time>
      </trkpt>
      <trkpt lat="43.28758167" lon="-4.240905">
        <ele>157.0</ele>
        <time>2018-05-19T06:21:41.855Z</time>
      </trkpt>
      <trkpt lat="43.28757833" lon="-4.24092833">
        <ele>157.0</ele>
        <time>2018-05-19T06:21:42.871Z</time>
      </trkpt>
      <trkpt lat="43.28757833" lon="-4.24092833">
        <ele>157.0</ele>
        <time>2018-05-19T06:21:43.868Z</time>
      </trkpt>
      <trkpt lat="43.28757667" lon="-4.24094667">
        <ele>157.0</ele>
        <time>2018-05-19T06:21:44.871Z</time>
      </trkpt>
      <trkpt lat="43.28757667" lon="-4.24094667">
        <ele>157.0</ele>
        <time>2018-05-19T06:21:45.863Z</time>
      </trkpt>
      <trkpt lat="43.287575" lon="-4.24096167">
        <ele>157.0</ele>
        <time>2018-05-19T06:21:46.872Z</time>
      </trkpt>
      <trkpt lat="43.28757333" lon="-4.24097">
        <ele>157.0</ele>
        <time>2018-05-19T06:21:47.868Z</time>
      </trkpt>
      <trkpt lat="43.28757167" lon="-4.24098167">
        <ele>157.0</ele>
        <time>2018-05-19T06:21:48.874Z</time>
      </trkpt>
      <trkpt lat="43.28757167" lon="-4.24098167">
        <ele>157.0</ele>
        <time>2018-05-19T06:21:49.879Z</time>
      </trkpt>
      <trkpt lat="43.28756833" lon="-4.24099833">
        <ele>157.0</ele>
        <time>2018-05-19T06:21:50.868Z</time>
      </trkpt>
      <trkpt lat="43.28756833" lon="-4.24099833">
        <ele>157.0</ele>
        <time>2018-05-19T06:21:51.863Z</time>
      </trkpt>
      <trkpt lat="43.287565" lon="-4.24101167">
        <ele>157.0</ele>
        <time>2018-05-19T06:21:52.846Z</time>
      </trkpt>
      <trkpt lat="43.287565" lon="-4.24101167">
        <ele>157.0</ele>
        <time>2018-05-19T06:21:53.871Z</time>
      </trkpt>
      <trkpt lat="43.28756167" lon="-4.24102833">
        <ele>157.0</ele>
        <time>2018-05-19T06:21:54.877Z</time>
      </trkpt>
      <trkpt lat="43.28756167" lon="-4.24102833">
        <ele>157.0</ele>
        <time>2018-05-19T06:21:55.868Z</time>
      </trkpt>
      <trkpt lat="43.28756" lon="-4.24104833">
        <ele>157.0</ele>
        <time>2018-05-19T06:21:56.867Z</time>
      </trkpt>
      <trkpt lat="43.28755667" lon="-4.24105833">
        <ele>157.0</ele>
        <time>2018-05-19T06:21:57.867Z</time>
      </trkpt>
      <trkpt lat="43.28755667" lon="-4.24105833">
        <ele>157.0</ele>
        <time>2018-05-19T06:21:58.864Z</time>
      </trkpt>
      <trkpt lat="43.28755167" lon="-4.24109">
        <ele>157.0</ele>
        <time>2018-05-19T06:21:59.868Z</time>
      </trkpt>
      <trkpt lat="43.28754667" lon="-4.24111">
        <ele>157.0</ele>
        <time>2018-05-19T06:22:00.868Z</time>
      </trkpt>
      <trkpt lat="43.28754667" lon="-4.24111">
        <ele>157.0</ele>
        <time>2018-05-19T06:22:01.865Z</time>
      </trkpt>
      <trkpt lat="43.28753333" lon="-4.24117333">
        <ele>157.0</ele>
        <time>2018-05-19T06:22:02.869Z</time>
      </trkpt>
      <trkpt lat="43.287525" lon="-4.24121167">
        <ele>157.0</ele>
        <time>2018-05-19T06:22:03.867Z</time>
      </trkpt>
      <trkpt lat="43.287515" lon="-4.24125">
        <ele>157.0</ele>
        <time>2018-05-19T06:22:04.868Z</time>
      </trkpt>
      <trkpt lat="43.287515" lon="-4.24125">
        <ele>157.0</ele>
        <time>2018-05-19T06:22:05.865Z</time>
      </trkpt>
      <trkpt lat="43.28750167" lon="-4.24133333">
        <ele>157.0</ele>
        <time>2018-05-19T06:22:06.868Z</time>
      </trkpt>
      <trkpt lat="43.28750167" lon="-4.24133333">
        <ele>157.0</ele>
        <time>2018-05-19T06:22:07.861Z</time>
      </trkpt>
      <trkpt lat="43.28749667" lon="-4.24142167">
        <ele>157.0</ele>
        <time>2018-05-19T06:22:08.868Z</time>
      </trkpt>
      <trkpt lat="43.28749667" lon="-4.24142167">
        <ele>157.0</ele>
        <time>2018-05-19T06:22:09.862Z</time>
      </trkpt>
      <trkpt lat="43.28749" lon="-4.24151">
        <ele>157.0</ele>
        <time>2018-05-19T06:22:10.845Z</time>
      </trkpt>
      <trkpt lat="43.28749" lon="-4.24151">
        <ele>157.0</ele>
        <time>2018-05-19T06:22:11.870Z</time>
      </trkpt>
      <trkpt lat="43.28747833" lon="-4.24160667">
        <ele>157.0</ele>
        <time>2018-05-19T06:22:12.869Z</time>
      </trkpt>
      <trkpt lat="43.28747833" lon="-4.24160667">
        <ele>157.0</ele>
        <time>2018-05-19T06:22:13.873Z</time>
      </trkpt>
      <trkpt lat="43.28746333" lon="-4.24170667">
        <ele>158.0</ele>
        <time>2018-05-19T06:22:14.867Z</time>
      </trkpt>
      <trkpt lat="43.28745333" lon="-4.241755">
        <ele>158.0</ele>
        <time>2018-05-19T06:22:15.868Z</time>
      </trkpt>
      <trkpt lat="43.28744667" lon="-4.24180167">
        <ele>158.0</ele>
        <time>2018-05-19T06:22:16.868Z</time>
      </trkpt>
      <trkpt lat="43.28744667" lon="-4.24180167">
        <ele>158.0</ele>
        <time>2018-05-19T06:22:17.861Z</time>
      </trkpt>
      <trkpt lat="43.28744" lon="-4.24191">
        <ele>159.0</ele>
        <time>2018-05-19T06:22:18.868Z</time>
      </trkpt>
      <trkpt lat="43.28744" lon="-4.24191">
        <ele>159.0</ele>
        <time>2018-05-19T06:22:19.862Z</time>
      </trkpt>
      <trkpt lat="43.287425" lon="-4.24202667">
        <ele>159.0</ele>
        <time>2018-05-19T06:22:20.865Z</time>
      </trkpt>
      <trkpt lat="43.287425" lon="-4.24202667">
        <ele>159.0</ele>
        <time>2018-05-19T06:22:21.862Z</time>
      </trkpt>
      <trkpt lat="43.28741167" lon="-4.24214">
        <ele>159.0</ele>
        <time>2018-05-19T06:22:22.866Z</time>
      </trkpt>
      <trkpt lat="43.28741167" lon="-4.24214">
        <ele>159.0</ele>
        <time>2018-05-19T06:22:23.862Z</time>
      </trkpt>
      <trkpt lat="43.287395" lon="-4.24225167">
        <ele>159.0</ele>
        <time>2018-05-19T06:22:24.868Z</time>
      </trkpt>
      <trkpt lat="43.287395" lon="-4.24225167">
        <ele>159.0</ele>
        <time>2018-05-19T06:22:25.865Z</time>
      </trkpt>
      <trkpt lat="43.28737167" lon="-4.24236333">
        <ele>159.0</ele>
        <time>2018-05-19T06:22:26.868Z</time>
      </trkpt>
      <trkpt lat="43.28737167" lon="-4.24236333">
        <ele>159.0</ele>
        <time>2018-05-19T06:22:27.865Z</time>
      </trkpt>
      <trkpt lat="43.28734667" lon="-4.24245333">
        <ele>160.0</ele>
        <time>2018-05-19T06:22:28.869Z</time>
      </trkpt>
      <trkpt lat="43.28734667" lon="-4.24245333">
        <ele>160.0</ele>
        <time>2018-05-19T06:22:29.864Z</time>
      </trkpt>
      <trkpt lat="43.28734" lon="-4.24254333">
        <ele>160.0</ele>
        <time>2018-05-19T06:22:30.868Z</time>
      </trkpt>
      <trkpt lat="43.28734" lon="-4.24254333">
        <ele>160.0</ele>
        <time>2018-05-19T06:22:31.865Z</time>
      </trkpt>
      <trkpt lat="43.28735333" lon="-4.24263">
        <ele>160.0</ele>
        <time>2018-05-19T06:22:32.868Z</time>
      </trkpt>
      <trkpt lat="43.28736167" lon="-4.242665">
        <ele>160.0</ele>
        <time>2018-05-19T06:22:33.874Z</time>
      </trkpt>
      <trkpt lat="43.28736167" lon="-4.242665">
        <ele>160.0</ele>
        <time>2018-05-19T06:22:34.864Z</time>
      </trkpt>
      <trkpt lat="43.28739333" lon="-4.24270667">
        <ele>159.0</ele>
        <time>2018-05-19T06:22:35.868Z</time>
      </trkpt>
      <trkpt lat="43.287405" lon="-4.24272667">
        <ele>160.0</ele>
        <time>2018-05-19T06:22:36.871Z</time>
      </trkpt>
      <trkpt lat="43.287405" lon="-4.24272667">
        <ele>160.0</ele>
        <time>2018-05-19T06:22:37.869Z</time>
      </trkpt>
      <trkpt lat="43.28742" lon="-4.24275333">
        <ele>160.0</ele>
        <time>2018-05-19T06:22:38.877Z</time>
      </trkpt>
      <trkpt lat="43.28742" lon="-4.24275333">
        <ele>160.0</ele>
        <time>2018-05-19T06:22:39.875Z</time>
      </trkpt>
      <trkpt lat="43.28742167" lon="-4.24276833">
        <ele>160.0</ele>
        <time>2018-05-19T06:22:40.882Z</time>
      </trkpt>
      <trkpt lat="43.28742167" lon="-4.24276833">
        <ele>160.0</ele>
        <time>2018-05-19T06:22:41.873Z</time>
      </trkpt>
      <trkpt lat="43.28742167" lon="-4.24276833">
        <ele>160.0</ele>
        <time>2018-05-19T06:22:42.850Z</time>
      </trkpt>
      <trkpt lat="43.28742167" lon="-4.24276833">
        <ele>160.0</ele>
        <time>2018-05-19T06:22:43.848Z</time>
      </trkpt>
      <trkpt lat="43.287445" lon="-4.24285833">
        <ele>160.0</ele>
        <time>2018-05-19T06:22:44.876Z</time>
      </trkpt>
      <trkpt lat="43.28744667" lon="-4.24286167">
        <ele>159.0</ele>
        <time>2018-05-19T06:22:45.877Z</time>
      </trkpt>
      <trkpt lat="43.28745333" lon="-4.24289333">
        <ele>160.0</ele>
        <time>2018-05-19T06:22:46.844Z</time>
      </trkpt>
      <trkpt lat="43.28745333" lon="-4.24289333">
        <ele>160.0</ele>
        <time>2018-05-19T06:22:47.873Z</time>
      </trkpt>
      <trkpt lat="43.28745667" lon="-4.2429">
        <ele>160.0</ele>
        <time>2018-05-19T06:22:48.880Z</time>
      </trkpt>
      <trkpt lat="43.287465" lon="-4.242935">
        <ele>159.0</ele>
        <time>2018-05-19T06:22:49.845Z</time>
      </trkpt>
      <trkpt lat="43.28746667" lon="-4.24294167">
        <ele>159.0</ele>
        <time>2018-05-19T06:22:50.848Z</time>
      </trkpt>
      <trkpt lat="43.28746667" lon="-4.24294167">
        <ele>159.0</ele>
        <time>2018-05-19T06:22:51.881Z</time>
      </trkpt>
      <trkpt lat="43.28747" lon="-4.24295333">
        <ele>159.0</ele>
        <time>2018-05-19T06:22:52.881Z</time>
      </trkpt>
      <trkpt lat="43.28747167" lon="-4.24295833">
        <ele>159.0</ele>
        <time>2018-05-19T06:22:53.878Z</time>
      </trkpt>
      <trkpt lat="43.28747167" lon="-4.24295833">
        <ele>159.0</ele>
        <time>2018-05-19T06:22:54.871Z</time>
      </trkpt>
      <trkpt lat="43.28747333" lon="-4.24297167">
        <ele>159.0</ele>
        <time>2018-05-19T06:22:55.880Z</time>
      </trkpt>
      <trkpt lat="43.287475" lon="-4.24297667">
        <ele>159.0</ele>
        <time>2018-05-19T06:22:56.878Z</time>
      </trkpt>
      <trkpt lat="43.28748" lon="-4.24298333">
        <ele>159.0</ele>
        <time>2018-05-19T06:22:57.878Z</time>
      </trkpt>
      <trkpt lat="43.28748" lon="-4.24298333">
        <ele>159.0</ele>
        <time>2018-05-19T06:22:58.873Z</time>
      </trkpt>
      <trkpt lat="43.287485" lon="-4.24299333">
        <ele>159.0</ele>
        <time>2018-05-19T06:22:59.877Z</time>
      </trkpt>
      <trkpt lat="43.287485" lon="-4.24299333">
        <ele>159.0</ele>
        <time>2018-05-19T06:23:00.871Z</time>
      </trkpt>
      <trkpt lat="43.28749" lon="-4.243005">
        <ele>159.0</ele>
        <time>2018-05-19T06:23:01.855Z</time>
      </trkpt>
      <trkpt lat="43.28749" lon="-4.243005">
        <ele>159.0</ele>
        <time>2018-05-19T06:23:02.882Z</time>
      </trkpt>
      <trkpt lat="43.28749333" lon="-4.243015">
        <ele>159.0</ele>
        <time>2018-05-19T06:23:03.849Z</time>
      </trkpt>
      <trkpt lat="43.28749333" lon="-4.243015">
        <ele>159.0</ele>
        <time>2018-05-19T06:23:04.872Z</time>
      </trkpt>
      <trkpt lat="43.28749833" lon="-4.24303">
        <ele>159.0</ele>
        <time>2018-05-19T06:23:05.878Z</time>
      </trkpt>
      <trkpt lat="43.28749833" lon="-4.24303">
        <ele>159.0</ele>
        <time>2018-05-19T06:23:06.872Z</time>
      </trkpt>
      <trkpt lat="43.2875" lon="-4.243045">
        <ele>159.0</ele>
        <time>2018-05-19T06:23:07.878Z</time>
      </trkpt>
      <trkpt lat="43.2875" lon="-4.243045">
        <ele>159.0</ele>
        <time>2018-05-19T06:23:08.872Z</time>
      </trkpt>
      <trkpt lat="43.287505" lon="-4.24305333">
        <ele>159.0</ele>
        <time>2018-05-19T06:23:09.878Z</time>
      </trkpt>
      <trkpt lat="43.287505" lon="-4.24305333">
        <ele>159.0</ele>
        <time>2018-05-19T06:23:10.865Z</time>
      </trkpt>
      <trkpt lat="43.28752" lon="-4.24310667">
        <ele>159.0</ele>
        <time>2018-05-19T06:23:11.868Z</time>
      </trkpt>
      <trkpt lat="43.28752" lon="-4.24310667">
        <ele>159.0</ele>
        <time>2018-05-19T06:23:12.856Z</time>
      </trkpt>
      <trkpt lat="43.28752" lon="-4.243155">
        <ele>159.0</ele>
        <time>2018-05-19T06:23:13.881Z</time>
      </trkpt>
      <trkpt lat="43.28750333" lon="-4.2432">
        <ele>160.0</ele>
        <time>2018-05-19T06:23:14.882Z</time>
      </trkpt>
      <trkpt lat="43.28750333" lon="-4.2432">
        <ele>160.0</ele>
        <time>2018-05-19T06:23:15.866Z</time>
      </trkpt>
      <trkpt lat="43.287495" lon="-4.24321333">
        <ele>160.0</ele>
        <time>2018-05-19T06:23:16.876Z</time>
      </trkpt>
      <trkpt lat="43.287495" lon="-4.24321333">
        <ele>160.0</ele>
        <time>2018-05-19T06:23:17.878Z</time>
      </trkpt>
      <trkpt lat="43.287485" lon="-4.24322333">
        <ele>160.0</ele>
        <time>2018-05-19T06:23:18.846Z</time>
      </trkpt>
      <trkpt lat="43.287485" lon="-4.24322333">
        <ele>160.0</ele>
        <time>2018-05-19T06:23:19.870Z</time>
      </trkpt>
      <trkpt lat="43.28748167" lon="-4.243235">
        <ele>160.0</ele>
        <time>2018-05-19T06:23:20.873Z</time>
      </trkpt>
      <trkpt lat="43.28748167" lon="-4.243235">
        <ele>160.0</ele>
        <time>2018-05-19T06:23:21.878Z</time>
      </trkpt>
      <trkpt lat="43.28747" lon="-4.24324667">
        <ele>160.0</ele>
        <time>2018-05-19T06:23:22.875Z</time>
      </trkpt>
      <trkpt lat="43.28747" lon="-4.24324667">
        <ele>160.0</ele>
        <time>2018-05-19T06:23:23.871Z</time>
      </trkpt>
      <trkpt lat="43.28746333" lon="-4.24325">
        <ele>160.0</ele>
        <time>2018-05-19T06:23:24.851Z</time>
      </trkpt>
      <trkpt lat="43.28746333" lon="-4.24325">
        <ele>160.0</ele>
        <time>2018-05-19T06:23:25.875Z</time>
      </trkpt>
      <trkpt lat="43.28745667" lon="-4.24325833">
        <ele>160.0</ele>
        <time>2018-05-19T06:23:26.883Z</time>
      </trkpt>
      <trkpt lat="43.28745667" lon="-4.24325833">
        <ele>160.0</ele>
        <time>2018-05-19T06:23:27.848Z</time>
      </trkpt>
      <trkpt lat="43.28744667" lon="-4.24326667">
        <ele>160.0</ele>
        <time>2018-05-19T06:23:28.877Z</time>
      </trkpt>
      <trkpt lat="43.28744667" lon="-4.24326667">
        <ele>160.0</ele>
        <time>2018-05-19T06:23:29.847Z</time>
      </trkpt>
      <trkpt lat="43.28743833" lon="-4.24327667">
        <ele>160.0</ele>
        <time>2018-05-19T06:23:30.873Z</time>
      </trkpt>
      <trkpt lat="43.28743833" lon="-4.24327667">
        <ele>160.0</ele>
        <time>2018-05-19T06:23:31.873Z</time>
      </trkpt>
      <trkpt lat="43.28743333" lon="-4.24328833">
        <ele>160.0</ele>
        <time>2018-05-19T06:23:32.880Z</time>
      </trkpt>
      <trkpt lat="43.28743333" lon="-4.24328833">
        <ele>160.0</ele>
        <time>2018-05-19T06:23:33.859Z</time>
      </trkpt>
      <trkpt lat="43.287425" lon="-4.2433">
        <ele>161.0</ele>
        <time>2018-05-19T06:23:34.849Z</time>
      </trkpt>
      <trkpt lat="43.287425" lon="-4.2433">
        <ele>161.0</ele>
        <time>2018-05-19T06:23:35.873Z</time>
      </trkpt>
      <trkpt lat="43.28741833" lon="-4.243305">
        <ele>161.0</ele>
        <time>2018-05-19T06:23:36.873Z</time>
      </trkpt>
      <trkpt lat="43.28741833" lon="-4.243305">
        <ele>161.0</ele>
        <time>2018-05-19T06:23:37.872Z</time>
      </trkpt>
      <trkpt lat="43.28741" lon="-4.243315">
        <ele>161.0</ele>
        <time>2018-05-19T06:23:38.866Z</time>
      </trkpt>
      <trkpt lat="43.28741" lon="-4.243315">
        <ele>161.0</ele>
        <time>2018-05-19T06:23:39.849Z</time>
      </trkpt>
      <trkpt lat="43.287405" lon="-4.24332167">
        <ele>161.0</ele>
        <time>2018-05-19T06:23:40.876Z</time>
      </trkpt>
      <trkpt lat="43.28740333" lon="-4.243325">
        <ele>161.0</ele>
        <time>2018-05-19T06:23:41.876Z</time>
      </trkpt>
      <trkpt lat="43.28740333" lon="-4.243325">
        <ele>161.0</ele>
        <time>2018-05-19T06:23:42.883Z</time>
      </trkpt>
      <trkpt lat="43.287395" lon="-4.24333333">
        <ele>161.0</ele>
        <time>2018-05-19T06:23:43.845Z</time>
      </trkpt>
      <trkpt lat="43.287395" lon="-4.24333333">
        <ele>161.0</ele>
        <time>2018-05-19T06:23:44.869Z</time>
      </trkpt>
      <trkpt lat="43.28738833" lon="-4.24333167">
        <ele>161.0</ele>
        <time>2018-05-19T06:23:45.879Z</time>
      </trkpt>
      <trkpt lat="43.28736167" lon="-4.243355">
        <ele>161.0</ele>
        <time>2018-05-19T06:23:46.852Z</time>
      </trkpt>
      <trkpt lat="43.28735833" lon="-4.24335833">
        <ele>161.0</ele>
        <time>2018-05-19T06:23:47.844Z</time>
      </trkpt>
      <trkpt lat="43.28735833" lon="-4.24335833">
        <ele>161.0</ele>
        <time>2018-05-19T06:23:48.873Z</time>
      </trkpt>
      <trkpt lat="43.28735" lon="-4.24336333">
        <ele>162.0</ele>
        <time>2018-05-19T06:23:49.904Z</time>
      </trkpt>
      <trkpt lat="43.28735" lon="-4.243365">
        <ele>162.0</ele>
        <time>2018-05-19T06:23:50.854Z</time>
      </trkpt>
      <trkpt lat="43.28735" lon="-4.243365">
        <ele>162.0</ele>
        <time>2018-05-19T06:23:51.851Z</time>
      </trkpt>
      <trkpt lat="43.28734333" lon="-4.24337">
        <ele>162.0</ele>
        <time>2018-05-19T06:23:52.845Z</time>
      </trkpt>
      <trkpt lat="43.28734333" lon="-4.24337">
        <ele>162.0</ele>
        <time>2018-05-19T06:23:53.874Z</time>
      </trkpt>
      <trkpt lat="43.28734333" lon="-4.24337">
        <ele>162.0</ele>
        <time>2018-05-19T06:23:54.860Z</time>
      </trkpt>
      <trkpt lat="43.28734333" lon="-4.24337">
        <ele>162.0</ele>
        <time>2018-05-19T06:23:55.860Z</time>
      </trkpt>
      <trkpt lat="43.28731667" lon="-4.24341">
        <ele>162.0</ele>
        <time>2018-05-19T06:23:56.881Z</time>
      </trkpt>
      <trkpt lat="43.28731667" lon="-4.24341">
        <ele>162.0</ele>
        <time>2018-05-19T06:23:57.888Z</time>
      </trkpt>
      <trkpt lat="43.28731167" lon="-4.24342">
        <ele>162.0</ele>
        <time>2018-05-19T06:23:58.862Z</time>
      </trkpt>
      <trkpt lat="43.28731167" lon="-4.24342">
        <ele>162.0</ele>
        <time>2018-05-19T06:23:59.864Z</time>
      </trkpt>
      <trkpt lat="43.28730833" lon="-4.24342667">
        <ele>162.0</ele>
        <time>2018-05-19T06:24:00.881Z</time>
      </trkpt>
      <trkpt lat="43.28730833" lon="-4.24342667">
        <ele>162.0</ele>
        <time>2018-05-19T06:24:01.887Z</time>
      </trkpt>
      <trkpt lat="43.28730167" lon="-4.24343333">
        <ele>162.0</ele>
        <time>2018-05-19T06:24:02.862Z</time>
      </trkpt>
      <trkpt lat="43.28730167" lon="-4.24343333">
        <ele>162.0</ele>
        <time>2018-05-19T06:24:03.859Z</time>
      </trkpt>
      <trkpt lat="43.28729667" lon="-4.24345">
        <ele>163.0</ele>
        <time>2018-05-19T06:24:04.860Z</time>
      </trkpt>
      <trkpt lat="43.28729667" lon="-4.24345">
        <ele>163.0</ele>
        <time>2018-05-19T06:24:05.887Z</time>
      </trkpt>
      <trkpt lat="43.28728833" lon="-4.24346333">
        <ele>163.0</ele>
        <time>2018-05-19T06:24:06.860Z</time>
      </trkpt>
      <trkpt lat="43.28728833" lon="-4.24346333">
        <ele>163.0</ele>
        <time>2018-05-19T06:24:07.887Z</time>
      </trkpt>
      <trkpt lat="43.28728" lon="-4.24348167">
        <ele>163.0</ele>
        <time>2018-05-19T06:24:08.861Z</time>
      </trkpt>
      <trkpt lat="43.28728" lon="-4.24348167">
        <ele>163.0</ele>
        <time>2018-05-19T06:24:09.887Z</time>
      </trkpt>
      <trkpt lat="43.28727333" lon="-4.24350833">
        <ele>163.0</ele>
        <time>2018-05-19T06:24:10.881Z</time>
      </trkpt>
      <trkpt lat="43.28727333" lon="-4.24350833">
        <ele>163.0</ele>
        <time>2018-05-19T06:24:11.888Z</time>
      </trkpt>
      <trkpt lat="43.28724833" lon="-4.24353667">
        <ele>163.0</ele>
        <time>2018-05-19T06:24:12.881Z</time>
      </trkpt>
      <trkpt lat="43.28724833" lon="-4.24353667">
        <ele>163.0</ele>
        <time>2018-05-19T06:24:13.887Z</time>
      </trkpt>
      <trkpt lat="43.287235" lon="-4.24355667">
        <ele>163.0</ele>
        <time>2018-05-19T06:24:14.881Z</time>
      </trkpt>
      <trkpt lat="43.287235" lon="-4.24355667">
        <ele>163.0</ele>
        <time>2018-05-19T06:24:15.845Z</time>
      </trkpt>
      <trkpt lat="43.28722667" lon="-4.24358333">
        <ele>163.0</ele>
        <time>2018-05-19T06:24:16.849Z</time>
      </trkpt>
      <trkpt lat="43.28722167" lon="-4.24359167">
        <ele>163.0</ele>
        <time>2018-05-19T06:24:17.852Z</time>
      </trkpt>
      <trkpt lat="43.28722167" lon="-4.24359167">
        <ele>163.0</ele>
        <time>2018-05-19T06:24:18.846Z</time>
      </trkpt>
      <trkpt lat="43.28721" lon="-4.24362">
        <ele>163.0</ele>
        <time>2018-05-19T06:24:19.844Z</time>
      </trkpt>
      <trkpt lat="43.287205" lon="-4.24363333">
        <ele>164.0</ele>
        <time>2018-05-19T06:24:20.881Z</time>
      </trkpt>
      <trkpt lat="43.287205" lon="-4.24363333">
        <ele>164.0</ele>
        <time>2018-05-19T06:24:21.889Z</time>
      </trkpt>
      <trkpt lat="43.287195" lon="-4.243655">
        <ele>164.0</ele>
        <time>2018-05-19T06:24:22.881Z</time>
      </trkpt>
      <trkpt lat="43.287195" lon="-4.243655">
        <ele>164.0</ele>
        <time>2018-05-19T06:24:23.888Z</time>
      </trkpt>
      <trkpt lat="43.287185" lon="-4.24367167">
        <ele>164.0</ele>
        <time>2018-05-19T06:24:24.879Z</time>
      </trkpt>
      <trkpt lat="43.287185" lon="-4.24367167">
        <ele>164.0</ele>
        <time>2018-05-19T06:24:25.888Z</time>
      </trkpt>
      <trkpt lat="43.28718333" lon="-4.24369">
        <ele>165.0</ele>
        <time>2018-05-19T06:24:26.862Z</time>
      </trkpt>
      <trkpt lat="43.28718333" lon="-4.24369">
        <ele>165.0</ele>
        <time>2018-05-19T06:24:27.847Z</time>
      </trkpt>
      <trkpt lat="43.28717667" lon="-4.243705">
        <ele>165.0</ele>
        <time>2018-05-19T06:24:28.881Z</time>
      </trkpt>
      <trkpt lat="43.28717667" lon="-4.243705">
        <ele>165.0</ele>
        <time>2018-05-19T06:24:29.888Z</time>
      </trkpt>
      <trkpt lat="43.28717" lon="-4.24372333">
        <ele>165.0</ele>
        <time>2018-05-19T06:24:30.882Z</time>
      </trkpt>
      <trkpt lat="43.28717" lon="-4.24372333">
        <ele>165.0</ele>
        <time>2018-05-19T06:24:31.887Z</time>
      </trkpt>
      <trkpt lat="43.28715833" lon="-4.24373667">
        <ele>166.0</ele>
        <time>2018-05-19T06:24:32.860Z</time>
      </trkpt>
      <trkpt lat="43.28715833" lon="-4.24373667">
        <ele>166.0</ele>
        <time>2018-05-19T06:24:33.887Z</time>
      </trkpt>
      <trkpt lat="43.28715" lon="-4.24376">
        <ele>166.0</ele>
        <time>2018-05-19T06:24:34.888Z</time>
      </trkpt>
      <trkpt lat="43.28714667" lon="-4.24377167">
        <ele>166.0</ele>
        <time>2018-05-19T06:24:35.862Z</time>
      </trkpt>
      <trkpt lat="43.28714667" lon="-4.24377167">
        <ele>166.0</ele>
        <time>2018-05-19T06:24:36.885Z</time>
      </trkpt>
      <trkpt lat="43.28713667" lon="-4.24378833">
        <ele>167.0</ele>
        <time>2018-05-19T06:24:37.887Z</time>
      </trkpt>
      <trkpt lat="43.28713167" lon="-4.2438">
        <ele>167.0</ele>
        <time>2018-05-19T06:24:38.861Z</time>
      </trkpt>
      <trkpt lat="43.28713167" lon="-4.2438">
        <ele>167.0</ele>
        <time>2018-05-19T06:24:39.887Z</time>
      </trkpt>
      <trkpt lat="43.28712333" lon="-4.24381833">
        <ele>167.0</ele>
        <time>2018-05-19T06:24:40.882Z</time>
      </trkpt>
      <trkpt lat="43.28712333" lon="-4.24381833">
        <ele>167.0</ele>
        <time>2018-05-19T06:24:41.888Z</time>
      </trkpt>
      <trkpt lat="43.28712" lon="-4.24383">
        <ele>168.0</ele>
        <time>2018-05-19T06:24:42.878Z</time>
      </trkpt>
      <trkpt lat="43.28705833" lon="-4.24395167">
        <ele>170.0</ele>
        <time>2018-05-19T06:24:43.874Z</time>
      </trkpt>
      <trkpt lat="43.28705833" lon="-4.24395167">
        <ele>170.0</ele>
        <time>2018-05-19T06:24:44.878Z</time>
      </trkpt>
      <trkpt lat="43.28705167" lon="-4.24397667">
        <ele>170.0</ele>
        <time>2018-05-19T06:24:45.866Z</time>
      </trkpt>
      <trkpt lat="43.28705167" lon="-4.24397667">
        <ele>170.0</ele>
        <time>2018-05-19T06:24:46.847Z</time>
      </trkpt>
      <trkpt lat="43.28705" lon="-4.24400333">
        <ele>170.0</ele>
        <time>2018-05-19T06:24:47.851Z</time>
      </trkpt>
      <trkpt lat="43.28705" lon="-4.24400333">
        <ele>170.0</ele>
        <time>2018-05-19T06:24:48.878Z</time>
      </trkpt>
      <trkpt lat="43.28704833" lon="-4.24402833">
        <ele>170.0</ele>
        <time>2018-05-19T06:24:49.853Z</time>
      </trkpt>
      <trkpt lat="43.28704833" lon="-4.24402833">
        <ele>170.0</ele>
        <time>2018-05-19T06:24:50.855Z</time>
      </trkpt>
      <trkpt lat="43.28704833" lon="-4.24404833">
        <ele>170.0</ele>
        <time>2018-05-19T06:24:51.853Z</time>
      </trkpt>
      <trkpt lat="43.28704833" lon="-4.24404833">
        <ele>170.0</ele>
        <time>2018-05-19T06:24:52.879Z</time>
      </trkpt>
      <trkpt lat="43.28705" lon="-4.24406667">
        <ele>170.0</ele>
        <time>2018-05-19T06:24:53.854Z</time>
      </trkpt>
      <trkpt lat="43.28705" lon="-4.24406667">
        <ele>170.0</ele>
        <time>2018-05-19T06:24:54.878Z</time>
      </trkpt>
      <trkpt lat="43.28705" lon="-4.244085">
        <ele>170.0</ele>
        <time>2018-05-19T06:24:55.873Z</time>
      </trkpt>
      <trkpt lat="43.28705" lon="-4.244085">
        <ele>170.0</ele>
        <time>2018-05-19T06:24:56.879Z</time>
      </trkpt>
      <trkpt lat="43.28705167" lon="-4.24410333">
        <ele>170.0</ele>
        <time>2018-05-19T06:24:57.854Z</time>
      </trkpt>
      <trkpt lat="43.28705167" lon="-4.24410333">
        <ele>170.0</ele>
        <time>2018-05-19T06:24:58.844Z</time>
      </trkpt>
      <trkpt lat="43.28705333" lon="-4.24412">
        <ele>170.0</ele>
        <time>2018-05-19T06:24:59.846Z</time>
      </trkpt>
      <trkpt lat="43.28705333" lon="-4.24412">
        <ele>170.0</ele>
        <time>2018-05-19T06:25:00.846Z</time>
      </trkpt>
      <trkpt lat="43.28705333" lon="-4.24412">
        <ele>170.0</ele>
        <time>2018-05-19T06:25:01.846Z</time>
      </trkpt>
      <trkpt lat="43.28706667" lon="-4.24419167">
        <ele>168.0</ele>
        <time>2018-05-19T06:25:02.866Z</time>
      </trkpt>
      <trkpt lat="43.28706667" lon="-4.24419167">
        <ele>168.0</ele>
        <time>2018-05-19T06:25:03.847Z</time>
      </trkpt>
      <trkpt lat="43.28707167" lon="-4.24421833">
        <ele>168.0</ele>
        <time>2018-05-19T06:25:04.880Z</time>
      </trkpt>
      <trkpt lat="43.28707167" lon="-4.24421833">
        <ele>168.0</ele>
        <time>2018-05-19T06:25:05.873Z</time>
      </trkpt>
      <trkpt lat="43.287075" lon="-4.24424">
        <ele>168.0</ele>
        <time>2018-05-19T06:25:06.875Z</time>
      </trkpt>
      <trkpt lat="43.287075" lon="-4.24424">
        <ele>168.0</ele>
        <time>2018-05-19T06:25:07.846Z</time>
      </trkpt>
      <trkpt lat="43.28707667" lon="-4.24426167">
        <ele>168.0</ele>
        <time>2018-05-19T06:25:08.879Z</time>
      </trkpt>
      <trkpt lat="43.28708" lon="-4.24427167">
        <ele>168.0</ele>
        <time>2018-05-19T06:25:09.883Z</time>
      </trkpt>
      <trkpt lat="43.28708" lon="-4.24427167">
        <ele>168.0</ele>
        <time>2018-05-19T06:25:10.869Z</time>
      </trkpt>
      <trkpt lat="43.28708" lon="-4.24427167">
        <ele>168.0</ele>
        <time>2018-05-19T06:25:11.876Z</time>
      </trkpt>
      <trkpt lat="43.28708333" lon="-4.244285">
        <ele>168.0</ele>
        <time>2018-05-19T06:25:12.867Z</time>
      </trkpt>
      <trkpt lat="43.28708333" lon="-4.244285">
        <ele>168.0</ele>
        <time>2018-05-19T06:25:13.873Z</time>
      </trkpt>
      <trkpt lat="43.28708667" lon="-4.24429833">
        <ele>168.0</ele>
        <time>2018-05-19T06:25:14.847Z</time>
      </trkpt>
      <trkpt lat="43.28708667" lon="-4.24429833">
        <ele>168.0</ele>
        <time>2018-05-19T06:25:15.873Z</time>
      </trkpt>
      <trkpt lat="43.28709" lon="-4.24430667">
        <ele>168.0</ele>
        <time>2018-05-19T06:25:16.847Z</time>
      </trkpt>
      <trkpt lat="43.28709" lon="-4.24430667">
        <ele>168.0</ele>
        <time>2018-05-19T06:25:17.873Z</time>
      </trkpt>
      <trkpt lat="43.28709167" lon="-4.244315">
        <ele>168.0</ele>
        <time>2018-05-19T06:25:18.846Z</time>
      </trkpt>
      <trkpt lat="43.28709167" lon="-4.244315">
        <ele>168.0</ele>
        <time>2018-05-19T06:25:19.873Z</time>
      </trkpt>
      <trkpt lat="43.287095" lon="-4.244325">
        <ele>169.0</ele>
        <time>2018-05-19T06:25:20.847Z</time>
      </trkpt>
      <trkpt lat="43.287095" lon="-4.244325">
        <ele>169.0</ele>
        <time>2018-05-19T06:25:21.873Z</time>
      </trkpt>
      <trkpt lat="43.287095" lon="-4.24432667">
        <ele>169.0</ele>
        <time>2018-05-19T06:25:22.848Z</time>
      </trkpt>
      <trkpt lat="43.287095" lon="-4.24432667">
        <ele>169.0</ele>
        <time>2018-05-19T06:25:23.874Z</time>
      </trkpt>
      <trkpt lat="43.287095" lon="-4.24432833">
        <ele>169.0</ele>
        <time>2018-05-19T06:25:24.867Z</time>
      </trkpt>
      <trkpt lat="43.287095" lon="-4.24432833">
        <ele>169.0</ele>
        <time>2018-05-19T06:25:25.862Z</time>
      </trkpt>
      <trkpt lat="43.28710667" lon="-4.24436333">
        <ele>170.0</ele>
        <time>2018-05-19T06:25:26.879Z</time>
      </trkpt>
      <trkpt lat="43.28710667" lon="-4.24436333">
        <ele>170.0</ele>
        <time>2018-05-19T06:25:27.882Z</time>
      </trkpt>
      <trkpt lat="43.28711167" lon="-4.24438167">
        <ele>170.0</ele>
        <time>2018-05-19T06:25:28.845Z</time>
      </trkpt>
      <trkpt lat="43.28711167" lon="-4.24438167">
        <ele>170.0</ele>
        <time>2018-05-19T06:25:29.881Z</time>
      </trkpt>
      <trkpt lat="43.28711667" lon="-4.24440333">
        <ele>170.0</ele>
        <time>2018-05-19T06:25:30.847Z</time>
      </trkpt>
      <trkpt lat="43.28711667" lon="-4.24440333">
        <ele>170.0</ele>
        <time>2018-05-19T06:25:31.882Z</time>
      </trkpt>
      <trkpt lat="43.287135" lon="-4.24443">
        <ele>170.0</ele>
        <time>2018-05-19T06:25:32.846Z</time>
      </trkpt>
      <trkpt lat="43.287135" lon="-4.24443">
        <ele>170.0</ele>
        <time>2018-05-19T06:25:33.883Z</time>
      </trkpt>
      <trkpt lat="43.28714667" lon="-4.24446">
        <ele>170.0</ele>
        <time>2018-05-19T06:25:34.847Z</time>
      </trkpt>
      <trkpt lat="43.28714667" lon="-4.24446">
        <ele>170.0</ele>
        <time>2018-05-19T06:25:35.882Z</time>
      </trkpt>
      <trkpt lat="43.28715667" lon="-4.24448">
        <ele>170.0</ele>
        <time>2018-05-19T06:25:36.845Z</time>
      </trkpt>
      <trkpt lat="43.28715667" lon="-4.24448">
        <ele>170.0</ele>
        <time>2018-05-19T06:25:37.880Z</time>
      </trkpt>
      <trkpt lat="43.28716" lon="-4.24450167">
        <ele>170.0</ele>
        <time>2018-05-19T06:25:38.861Z</time>
      </trkpt>
      <trkpt lat="43.28716" lon="-4.24450167">
        <ele>170.0</ele>
        <time>2018-05-19T06:25:39.844Z</time>
      </trkpt>
      <trkpt lat="43.28717" lon="-4.24452833">
        <ele>170.0</ele>
        <time>2018-05-19T06:25:40.844Z</time>
      </trkpt>
      <trkpt lat="43.28717" lon="-4.24452833">
        <ele>170.0</ele>
        <time>2018-05-19T06:25:41.881Z</time>
      </trkpt>
      <trkpt lat="43.28717667" lon="-4.24455667">
        <ele>170.0</ele>
        <time>2018-05-19T06:25:42.846Z</time>
      </trkpt>
      <trkpt lat="43.28717667" lon="-4.24455667">
        <ele>170.0</ele>
        <time>2018-05-19T06:25:43.882Z</time>
      </trkpt>
      <trkpt lat="43.287185" lon="-4.24458333">
        <ele>170.0</ele>
        <time>2018-05-19T06:25:44.847Z</time>
      </trkpt>
      <trkpt lat="43.287185" lon="-4.24458333">
        <ele>170.0</ele>
        <time>2018-05-19T06:25:45.882Z</time>
      </trkpt>
      <trkpt lat="43.28719333" lon="-4.24460667">
        <ele>170.0</ele>
        <time>2018-05-19T06:25:46.848Z</time>
      </trkpt>
      <trkpt lat="43.28719333" lon="-4.24460667">
        <ele>170.0</ele>
        <time>2018-05-19T06:25:47.881Z</time>
      </trkpt>
      <trkpt lat="43.28720167" lon="-4.24462833">
        <ele>170.0</ele>
        <time>2018-05-19T06:25:48.847Z</time>
      </trkpt>
      <trkpt lat="43.28720167" lon="-4.24462833">
        <ele>170.0</ele>
        <time>2018-05-19T06:25:49.880Z</time>
      </trkpt>
      <trkpt lat="43.28720833" lon="-4.24465">
        <ele>170.0</ele>
        <time>2018-05-19T06:25:50.878Z</time>
      </trkpt>
      <trkpt lat="43.28721333" lon="-4.24466">
        <ele>170.0</ele>
        <time>2018-05-19T06:25:51.846Z</time>
      </trkpt>
      <trkpt lat="43.28721833" lon="-4.24467167">
        <ele>170.0</ele>
        <time>2018-05-19T06:25:52.847Z</time>
      </trkpt>
      <trkpt lat="43.28721833" lon="-4.24467167">
        <ele>170.0</ele>
        <time>2018-05-19T06:25:53.880Z</time>
      </trkpt>
      <trkpt lat="43.28722667" lon="-4.24469333">
        <ele>171.0</ele>
        <time>2018-05-19T06:25:54.846Z</time>
      </trkpt>
      <trkpt lat="43.28722667" lon="-4.24469333">
        <ele>171.0</ele>
        <time>2018-05-19T06:25:55.881Z</time>
      </trkpt>
      <trkpt lat="43.287235" lon="-4.24471833">
        <ele>171.0</ele>
        <time>2018-05-19T06:25:56.846Z</time>
      </trkpt>
      <trkpt lat="43.287235" lon="-4.24471833">
        <ele>171.0</ele>
        <time>2018-05-19T06:25:57.880Z</time>
      </trkpt>
      <trkpt lat="43.287245" lon="-4.24473833">
        <ele>171.0</ele>
        <time>2018-05-19T06:25:58.846Z</time>
      </trkpt>
      <trkpt lat="43.287245" lon="-4.24473833">
        <ele>171.0</ele>
        <time>2018-05-19T06:25:59.880Z</time>
      </trkpt>
      <trkpt lat="43.287255" lon="-4.24475667">
        <ele>171.0</ele>
        <time>2018-05-19T06:26:00.876Z</time>
      </trkpt>
      <trkpt lat="43.28726" lon="-4.244765">
        <ele>171.0</ele>
        <time>2018-05-19T06:26:01.860Z</time>
      </trkpt>
      <trkpt lat="43.28726" lon="-4.244765">
        <ele>171.0</ele>
        <time>2018-05-19T06:26:02.883Z</time>
      </trkpt>
      <trkpt lat="43.28727" lon="-4.24478">
        <ele>171.0</ele>
        <time>2018-05-19T06:26:03.845Z</time>
      </trkpt>
      <trkpt lat="43.287275" lon="-4.24478833">
        <ele>171.0</ele>
        <time>2018-05-19T06:26:04.847Z</time>
      </trkpt>
      <trkpt lat="43.287275" lon="-4.24478833">
        <ele>171.0</ele>
        <time>2018-05-19T06:26:05.852Z</time>
      </trkpt>
      <trkpt lat="43.28728167" lon="-4.24480167">
        <ele>171.0</ele>
        <time>2018-05-19T06:26:06.847Z</time>
      </trkpt>
      <trkpt lat="43.28728167" lon="-4.24480167">
        <ele>171.0</ele>
        <time>2018-05-19T06:26:07.880Z</time>
      </trkpt>
      <trkpt lat="43.28728833" lon="-4.24481333">
        <ele>171.0</ele>
        <time>2018-05-19T06:26:08.846Z</time>
      </trkpt>
      <trkpt lat="43.28729167" lon="-4.24481833">
        <ele>171.0</ele>
        <time>2018-05-19T06:26:09.861Z</time>
      </trkpt>
      <trkpt lat="43.28729667" lon="-4.244825">
        <ele>171.0</ele>
        <time>2018-05-19T06:26:10.854Z</time>
      </trkpt>
      <trkpt lat="43.28729667" lon="-4.244825">
        <ele>171.0</ele>
        <time>2018-05-19T06:26:11.883Z</time>
      </trkpt>
      <trkpt lat="43.28730333" lon="-4.24484">
        <ele>171.0</ele>
        <time>2018-05-19T06:26:12.847Z</time>
      </trkpt>
      <trkpt lat="43.28730333" lon="-4.24484">
        <ele>171.0</ele>
        <time>2018-05-19T06:26:13.882Z</time>
      </trkpt>
      <trkpt lat="43.28731667" lon="-4.24485667">
        <ele>172.0</ele>
        <time>2018-05-19T06:26:14.846Z</time>
      </trkpt>
      <trkpt lat="43.28731667" lon="-4.24485667">
        <ele>172.0</ele>
        <time>2018-05-19T06:26:15.880Z</time>
      </trkpt>
      <trkpt lat="43.28732667" lon="-4.244875">
        <ele>172.0</ele>
        <time>2018-05-19T06:26:16.847Z</time>
      </trkpt>
      <trkpt lat="43.28732667" lon="-4.244875">
        <ele>172.0</ele>
        <time>2018-05-19T06:26:17.880Z</time>
      </trkpt>
      <trkpt lat="43.28733667" lon="-4.24489">
        <ele>172.0</ele>
        <time>2018-05-19T06:26:18.844Z</time>
      </trkpt>
      <trkpt lat="43.28733667" lon="-4.24489">
        <ele>172.0</ele>
        <time>2018-05-19T06:26:19.880Z</time>
      </trkpt>
      <trkpt lat="43.287345" lon="-4.24490833">
        <ele>172.0</ele>
        <time>2018-05-19T06:26:20.851Z</time>
      </trkpt>
      <trkpt lat="43.28735167" lon="-4.24491667">
        <ele>172.0</ele>
        <time>2018-05-19T06:26:21.846Z</time>
      </trkpt>
      <trkpt lat="43.287355" lon="-4.24492167">
        <ele>172.0</ele>
        <time>2018-05-19T06:26:22.848Z</time>
      </trkpt>
      <trkpt lat="43.287355" lon="-4.24492167">
        <ele>172.0</ele>
        <time>2018-05-19T06:26:23.880Z</time>
      </trkpt>
      <trkpt lat="43.28736333" lon="-4.24492833">
        <ele>172.0</ele>
        <time>2018-05-19T06:26:24.862Z</time>
      </trkpt>
      <trkpt lat="43.28736333" lon="-4.24492833">
        <ele>172.0</ele>
        <time>2018-05-19T06:26:25.844Z</time>
      </trkpt>
      <trkpt lat="43.28736833" lon="-4.24493333">
        <ele>172.0</ele>
        <time>2018-05-19T06:26:26.844Z</time>
      </trkpt>
      <trkpt lat="43.28736833" lon="-4.24493333">
        <ele>172.0</ele>
        <time>2018-05-19T06:26:27.881Z</time>
      </trkpt>
      <trkpt lat="43.28736833" lon="-4.244935">
        <ele>172.0</ele>
        <time>2018-05-19T06:26:28.848Z</time>
      </trkpt>
      <trkpt lat="43.28736833" lon="-4.244935">
        <ele>172.0</ele>
        <time>2018-05-19T06:26:29.880Z</time>
      </trkpt>
      <trkpt lat="43.28736833" lon="-4.244935">
        <ele>172.0</ele>
        <time>2018-05-19T06:26:30.856Z</time>
      </trkpt>
      <trkpt lat="43.28736833" lon="-4.244935">
        <ele>172.0</ele>
        <time>2018-05-19T06:26:31.856Z</time>
      </trkpt>
      <trkpt lat="43.28736833" lon="-4.244935">
        <ele>172.0</ele>
        <time>2018-05-19T06:26:32.881Z</time>
      </trkpt>
      <trkpt lat="43.28740167" lon="-4.24497833">
        <ele>171.0</ele>
        <time>2018-05-19T06:26:33.879Z</time>
      </trkpt>
      <trkpt lat="43.28740167" lon="-4.24497833">
        <ele>171.0</ele>
        <time>2018-05-19T06:26:34.875Z</time>
      </trkpt>
      <trkpt lat="43.28741667" lon="-4.245">
        <ele>171.0</ele>
        <time>2018-05-19T06:26:35.884Z</time>
      </trkpt>
      <trkpt lat="43.28741667" lon="-4.245">
        <ele>171.0</ele>
        <time>2018-05-19T06:26:36.884Z</time>
      </trkpt>
      <trkpt lat="43.287435" lon="-4.24502667">
        <ele>171.0</ele>
        <time>2018-05-19T06:26:37.879Z</time>
      </trkpt>
      <trkpt lat="43.287435" lon="-4.24502667">
        <ele>171.0</ele>
        <time>2018-05-19T06:26:38.876Z</time>
      </trkpt>
      <trkpt lat="43.28745167" lon="-4.24505167">
        <ele>171.0</ele>
        <time>2018-05-19T06:26:39.876Z</time>
      </trkpt>
      <trkpt lat="43.28745167" lon="-4.24505167">
        <ele>171.0</ele>
        <time>2018-05-19T06:26:40.874Z</time>
      </trkpt>
      <trkpt lat="43.28746833" lon="-4.24508">
        <ele>171.0</ele>
        <time>2018-05-19T06:26:41.881Z</time>
      </trkpt>
      <trkpt lat="43.28746833" lon="-4.24508">
        <ele>171.0</ele>
        <time>2018-05-19T06:26:42.876Z</time>
      </trkpt>
      <trkpt lat="43.28748667" lon="-4.24510333">
        <ele>171.0</ele>
        <time>2018-05-19T06:26:43.878Z</time>
      </trkpt>
      <trkpt lat="43.28748667" lon="-4.24510333">
        <ele>171.0</ele>
        <time>2018-05-19T06:26:44.874Z</time>
      </trkpt>
      <trkpt lat="43.28750833" lon="-4.24512333">
        <ele>171.0</ele>
        <time>2018-05-19T06:26:45.844Z</time>
      </trkpt>
      <trkpt lat="43.28750833" lon="-4.24512333">
        <ele>171.0</ele>
        <time>2018-05-19T06:26:46.882Z</time>
      </trkpt>
      <trkpt lat="43.28752167" lon="-4.24514833">
        <ele>171.0</ele>
        <time>2018-05-19T06:26:47.881Z</time>
      </trkpt>
      <trkpt lat="43.28752167" lon="-4.24514833">
        <ele>171.0</ele>
        <time>2018-05-19T06:26:48.874Z</time>
      </trkpt>
      <trkpt lat="43.28753167" lon="-4.24516833">
        <ele>171.0</ele>
        <time>2018-05-19T06:26:49.883Z</time>
      </trkpt>
      <trkpt lat="43.28753333" lon="-4.245175">
        <ele>171.0</ele>
        <time>2018-05-19T06:26:50.881Z</time>
      </trkpt>
      <trkpt lat="43.28753333" lon="-4.245175">
        <ele>171.0</ele>
        <time>2018-05-19T06:26:51.846Z</time>
      </trkpt>
      <trkpt lat="43.28754333" lon="-4.24519333">
        <ele>171.0</ele>
        <time>2018-05-19T06:26:52.852Z</time>
      </trkpt>
      <trkpt lat="43.28754333" lon="-4.24519333">
        <ele>171.0</ele>
        <time>2018-05-19T06:26:53.858Z</time>
      </trkpt>
      <trkpt lat="43.287555" lon="-4.24521167">
        <ele>171.0</ele>
        <time>2018-05-19T06:26:54.876Z</time>
      </trkpt>
      <trkpt lat="43.28756" lon="-4.24522167">
        <ele>171.0</ele>
        <time>2018-05-19T06:26:55.881Z</time>
      </trkpt>
      <trkpt lat="43.28756333" lon="-4.24523">
        <ele>171.0</ele>
        <time>2018-05-19T06:26:56.857Z</time>
      </trkpt>
      <trkpt lat="43.28756333" lon="-4.24523">
        <ele>171.0</ele>
        <time>2018-05-19T06:26:57.881Z</time>
      </trkpt>
      <trkpt lat="43.28757" lon="-4.245245">
        <ele>171.0</ele>
        <time>2018-05-19T06:26:58.868Z</time>
      </trkpt>
      <trkpt lat="43.28757333" lon="-4.245255">
        <ele>171.0</ele>
        <time>2018-05-19T06:26:59.855Z</time>
      </trkpt>
      <trkpt lat="43.28757333" lon="-4.245255">
        <ele>171.0</ele>
        <time>2018-05-19T06:27:00.878Z</time>
      </trkpt>
      <trkpt lat="43.28757833" lon="-4.24528333">
        <ele>171.0</ele>
        <time>2018-05-19T06:27:01.882Z</time>
      </trkpt>
      <trkpt lat="43.28757833" lon="-4.24528333">
        <ele>171.0</ele>
        <time>2018-05-19T06:27:02.876Z</time>
      </trkpt>
      <trkpt lat="43.28758167" lon="-4.24531333">
        <ele>171.0</ele>
        <time>2018-05-19T06:27:03.881Z</time>
      </trkpt>
      <trkpt lat="43.28758167" lon="-4.24531333">
        <ele>171.0</ele>
        <time>2018-05-19T06:27:04.875Z</time>
      </trkpt>
      <trkpt lat="43.28758333" lon="-4.24534">
        <ele>171.0</ele>
        <time>2018-05-19T06:27:05.864Z</time>
      </trkpt>
      <trkpt lat="43.28758333" lon="-4.24534">
        <ele>171.0</ele>
        <time>2018-05-19T06:27:06.856Z</time>
      </trkpt>
      <trkpt lat="43.28758833" lon="-4.24536167">
        <ele>171.0</ele>
        <time>2018-05-19T06:27:07.881Z</time>
      </trkpt>
      <trkpt lat="43.28758833" lon="-4.24536167">
        <ele>171.0</ele>
        <time>2018-05-19T06:27:08.874Z</time>
      </trkpt>
      <trkpt lat="43.28759" lon="-4.245385">
        <ele>171.0</ele>
        <time>2018-05-19T06:27:09.880Z</time>
      </trkpt>
      <trkpt lat="43.28759" lon="-4.245385">
        <ele>171.0</ele>
        <time>2018-05-19T06:27:10.874Z</time>
      </trkpt>
      <trkpt lat="43.28759" lon="-4.245405">
        <ele>171.0</ele>
        <time>2018-05-19T06:27:11.880Z</time>
      </trkpt>
      <trkpt lat="43.28759" lon="-4.245405">
        <ele>171.0</ele>
        <time>2018-05-19T06:27:12.875Z</time>
      </trkpt>
      <trkpt lat="43.28758667" lon="-4.245425">
        <ele>171.0</ele>
        <time>2018-05-19T06:27:13.881Z</time>
      </trkpt>
      <trkpt lat="43.28758667" lon="-4.245425">
        <ele>171.0</ele>
        <time>2018-05-19T06:27:14.874Z</time>
      </trkpt>
      <trkpt lat="43.28758333" lon="-4.24544167">
        <ele>171.0</ele>
        <time>2018-05-19T06:27:15.857Z</time>
      </trkpt>
      <trkpt lat="43.28758333" lon="-4.24544167">
        <ele>171.0</ele>
        <time>2018-05-19T06:27:16.882Z</time>
      </trkpt>
      <trkpt lat="43.28758" lon="-4.24545667">
        <ele>171.0</ele>
        <time>2018-05-19T06:27:17.880Z</time>
      </trkpt>
      <trkpt lat="43.28758" lon="-4.24545667">
        <ele>171.0</ele>
        <time>2018-05-19T06:27:18.871Z</time>
      </trkpt>
      <trkpt lat="43.28757667" lon="-4.24547333">
        <ele>171.0</ele>
        <time>2018-05-19T06:27:19.881Z</time>
      </trkpt>
      <trkpt lat="43.28757667" lon="-4.24547333">
        <ele>171.0</ele>
        <time>2018-05-19T06:27:20.875Z</time>
      </trkpt>
      <trkpt lat="43.28757" lon="-4.24549">
        <ele>172.0</ele>
        <time>2018-05-19T06:27:21.881Z</time>
      </trkpt>
      <trkpt lat="43.28757" lon="-4.24549">
        <ele>172.0</ele>
        <time>2018-05-19T06:27:22.872Z</time>
      </trkpt>
      <trkpt lat="43.28756333" lon="-4.24550833">
        <ele>172.0</ele>
        <time>2018-05-19T06:27:23.880Z</time>
      </trkpt>
      <trkpt lat="43.28756333" lon="-4.24550833">
        <ele>172.0</ele>
        <time>2018-05-19T06:27:24.874Z</time>
      </trkpt>
      <trkpt lat="43.287555" lon="-4.24552667">
        <ele>172.0</ele>
        <time>2018-05-19T06:27:25.874Z</time>
      </trkpt>
      <trkpt lat="43.287555" lon="-4.24552667">
        <ele>172.0</ele>
        <time>2018-05-19T06:27:26.856Z</time>
      </trkpt>
      <trkpt lat="43.287545" lon="-4.24554167">
        <ele>172.0</ele>
        <time>2018-05-19T06:27:27.881Z</time>
      </trkpt>
      <trkpt lat="43.287545" lon="-4.24554167">
        <ele>172.0</ele>
        <time>2018-05-19T06:27:28.874Z</time>
      </trkpt>
      <trkpt lat="43.287535" lon="-4.24555667">
        <ele>172.0</ele>
        <time>2018-05-19T06:27:29.881Z</time>
      </trkpt>
      <trkpt lat="43.287535" lon="-4.24555667">
        <ele>172.0</ele>
        <time>2018-05-19T06:27:30.874Z</time>
      </trkpt>
      <trkpt lat="43.28752667" lon="-4.24557167">
        <ele>172.0</ele>
        <time>2018-05-19T06:27:31.882Z</time>
      </trkpt>
      <trkpt lat="43.28752667" lon="-4.24557167">
        <ele>172.0</ele>
        <time>2018-05-19T06:27:32.875Z</time>
      </trkpt>
      <trkpt lat="43.28751833" lon="-4.24558833">
        <ele>173.0</ele>
        <time>2018-05-19T06:27:33.880Z</time>
      </trkpt>
      <trkpt lat="43.28751833" lon="-4.24558833">
        <ele>173.0</ele>
        <time>2018-05-19T06:27:34.874Z</time>
      </trkpt>
      <trkpt lat="43.28750833" lon="-4.24560333">
        <ele>173.0</ele>
        <time>2018-05-19T06:27:35.858Z</time>
      </trkpt>
      <trkpt lat="43.28750833" lon="-4.24560333">
        <ele>173.0</ele>
        <time>2018-05-19T06:27:36.881Z</time>
      </trkpt>
      <trkpt lat="43.28750167" lon="-4.245615">
        <ele>173.0</ele>
        <time>2018-05-19T06:27:37.878Z</time>
      </trkpt>
      <trkpt lat="43.28750167" lon="-4.245615">
        <ele>173.0</ele>
        <time>2018-05-19T06:27:38.874Z</time>
      </trkpt>
      <trkpt lat="43.28749333" lon="-4.24562833">
        <ele>173.0</ele>
        <time>2018-05-19T06:27:39.880Z</time>
      </trkpt>
      <trkpt lat="43.28749333" lon="-4.24562833">
        <ele>173.0</ele>
        <time>2018-05-19T06:27:40.874Z</time>
      </trkpt>
      <trkpt lat="43.28748333" lon="-4.24564167">
        <ele>173.0</ele>
        <time>2018-05-19T06:27:41.880Z</time>
      </trkpt>
      <trkpt lat="43.28747833" lon="-4.24564667">
        <ele>173.0</ele>
        <time>2018-05-19T06:27:42.881Z</time>
      </trkpt>
      <trkpt lat="43.28747833" lon="-4.24564667">
        <ele>173.0</ele>
        <time>2018-05-19T06:27:43.876Z</time>
      </trkpt>
      <trkpt lat="43.28747333" lon="-4.24565833">
        <ele>173.0</ele>
        <time>2018-05-19T06:27:44.880Z</time>
      </trkpt>
      <trkpt lat="43.28747" lon="-4.24566333">
        <ele>173.0</ele>
        <time>2018-05-19T06:27:45.882Z</time>
      </trkpt>
      <trkpt lat="43.28747" lon="-4.24566333">
        <ele>173.0</ele>
        <time>2018-05-19T06:27:46.875Z</time>
      </trkpt>
      <trkpt lat="43.28746333" lon="-4.24567333">
        <ele>173.0</ele>
        <time>2018-05-19T06:27:47.878Z</time>
      </trkpt>
      <trkpt lat="43.28746333" lon="-4.24567333">
        <ele>173.0</ele>
        <time>2018-05-19T06:27:48.874Z</time>
      </trkpt>
      <trkpt lat="43.28745667" lon="-4.24568333">
        <ele>173.0</ele>
        <time>2018-05-19T06:27:49.880Z</time>
      </trkpt>
      <trkpt lat="43.28745667" lon="-4.24568333">
        <ele>173.0</ele>
        <time>2018-05-19T06:27:50.874Z</time>
      </trkpt>
      <trkpt lat="43.28745167" lon="-4.24569667">
        <ele>173.0</ele>
        <time>2018-05-19T06:27:51.879Z</time>
      </trkpt>
      <trkpt lat="43.28745167" lon="-4.24569667">
        <ele>173.0</ele>
        <time>2018-05-19T06:27:52.873Z</time>
      </trkpt>
      <trkpt lat="43.28744333" lon="-4.24571167">
        <ele>173.0</ele>
        <time>2018-05-19T06:27:53.856Z</time>
      </trkpt>
      <trkpt lat="43.28744333" lon="-4.24571167">
        <ele>173.0</ele>
        <time>2018-05-19T06:27:54.879Z</time>
      </trkpt>
      <trkpt lat="43.28743667" lon="-4.24572833">
        <ele>173.0</ele>
        <time>2018-05-19T06:27:55.879Z</time>
      </trkpt>
      <trkpt lat="43.28742833" lon="-4.24573667">
        <ele>173.0</ele>
        <time>2018-05-19T06:27:56.882Z</time>
      </trkpt>
      <trkpt lat="43.28742833" lon="-4.24573667">
        <ele>173.0</ele>
        <time>2018-05-19T06:27:57.878Z</time>
      </trkpt>
      <trkpt lat="43.28741833" lon="-4.24575">
        <ele>173.0</ele>
        <time>2018-05-19T06:27:58.879Z</time>
      </trkpt>
      <trkpt lat="43.28741833" lon="-4.24575">
        <ele>173.0</ele>
        <time>2018-05-19T06:27:59.874Z</time>
      </trkpt>
      <trkpt lat="43.28741" lon="-4.24576833">
        <ele>173.0</ele>
        <time>2018-05-19T06:28:00.865Z</time>
      </trkpt>
      <trkpt lat="43.287405" lon="-4.24577667">
        <ele>173.0</ele>
        <time>2018-05-19T06:28:01.851Z</time>
      </trkpt>
      <trkpt lat="43.287405" lon="-4.24577667">
        <ele>173.0</ele>
        <time>2018-05-19T06:28:02.876Z</time>
      </trkpt>
      <trkpt lat="43.28738833" lon="-4.24579833">
        <ele>174.0</ele>
        <time>2018-05-19T06:28:03.880Z</time>
      </trkpt>
      <trkpt lat="43.28738833" lon="-4.24579833">
        <ele>174.0</ele>
        <time>2018-05-19T06:28:04.874Z</time>
      </trkpt>
      <trkpt lat="43.287375" lon="-4.24582">
        <ele>174.0</ele>
        <time>2018-05-19T06:28:05.864Z</time>
      </trkpt>
      <trkpt lat="43.287375" lon="-4.24582">
        <ele>174.0</ele>
        <time>2018-05-19T06:28:06.849Z</time>
      </trkpt>
      <trkpt lat="43.28736167" lon="-4.245835">
        <ele>174.0</ele>
        <time>2018-05-19T06:28:07.881Z</time>
      </trkpt>
      <trkpt lat="43.28736167" lon="-4.245835">
        <ele>174.0</ele>
        <time>2018-05-19T06:28:08.874Z</time>
      </trkpt>
      <trkpt lat="43.28734" lon="-4.24585667">
        <ele>174.0</ele>
        <time>2018-05-19T06:28:09.844Z</time>
      </trkpt>
      <trkpt lat="43.28734" lon="-4.24585667">
        <ele>174.0</ele>
        <time>2018-05-19T06:28:10.874Z</time>
      </trkpt>
      <trkpt lat="43.28732167" lon="-4.24588333">
        <ele>175.0</ele>
        <time>2018-05-19T06:28:11.855Z</time>
      </trkpt>
      <trkpt lat="43.28732167" lon="-4.24588333">
        <ele>175.0</ele>
        <time>2018-05-19T06:28:12.878Z</time>
      </trkpt>
      <trkpt lat="43.28730667" lon="-4.24590667">
        <ele>175.0</ele>
        <time>2018-05-19T06:28:13.881Z</time>
      </trkpt>
      <trkpt lat="43.28730667" lon="-4.24590667">
        <ele>175.0</ele>
        <time>2018-05-19T06:28:14.876Z</time>
      </trkpt>
      <trkpt lat="43.28729167" lon="-4.24592833">
        <ele>175.0</ele>
        <time>2018-05-19T06:28:15.880Z</time>
      </trkpt>
      <trkpt lat="43.28729167" lon="-4.24592833">
        <ele>175.0</ele>
        <time>2018-05-19T06:28:16.874Z</time>
      </trkpt>
      <trkpt lat="43.28727333" lon="-4.24595">
        <ele>175.0</ele>
        <time>2018-05-19T06:28:17.880Z</time>
      </trkpt>
      <trkpt lat="43.28727333" lon="-4.24595">
        <ele>175.0</ele>
        <time>2018-05-19T06:28:18.869Z</time>
      </trkpt>
      <trkpt lat="43.28725333" lon="-4.24597">
        <ele>176.0</ele>
        <time>2018-05-19T06:28:19.853Z</time>
      </trkpt>
      <trkpt lat="43.28725333" lon="-4.24597">
        <ele>176.0</ele>
        <time>2018-05-19T06:28:20.848Z</time>
      </trkpt>
      <trkpt lat="43.28724" lon="-4.245995">
        <ele>177.0</ele>
        <time>2018-05-19T06:28:21.881Z</time>
      </trkpt>
      <trkpt lat="43.28724" lon="-4.245995">
        <ele>177.0</ele>
        <time>2018-05-19T06:28:22.875Z</time>
      </trkpt>
      <trkpt lat="43.28723" lon="-4.24602167">
        <ele>177.0</ele>
        <time>2018-05-19T06:28:23.880Z</time>
      </trkpt>
      <trkpt lat="43.28723" lon="-4.24602167">
        <ele>177.0</ele>
        <time>2018-05-19T06:28:24.875Z</time>
      </trkpt>
      <trkpt lat="43.28721667" lon="-4.24604">
        <ele>178.0</ele>
        <time>2018-05-19T06:28:25.876Z</time>
      </trkpt>
      <trkpt lat="43.28721667" lon="-4.24604">
        <ele>178.0</ele>
        <time>2018-05-19T06:28:26.874Z</time>
      </trkpt>
      <trkpt lat="43.28720667" lon="-4.24606167">
        <ele>179.0</ele>
        <time>2018-05-19T06:28:27.852Z</time>
      </trkpt>
      <trkpt lat="43.28720667" lon="-4.24606167">
        <ele>179.0</ele>
        <time>2018-05-19T06:28:28.878Z</time>
      </trkpt>
      <trkpt lat="43.28719833" lon="-4.24608167">
        <ele>179.0</ele>
        <time>2018-05-19T06:28:29.880Z</time>
      </trkpt>
      <trkpt lat="43.28719833" lon="-4.24608167">
        <ele>179.0</ele>
        <time>2018-05-19T06:28:30.874Z</time>
      </trkpt>
      <trkpt lat="43.28719167" lon="-4.2461">
        <ele>180.0</ele>
        <time>2018-05-19T06:28:31.882Z</time>
      </trkpt>
      <trkpt lat="43.28718667" lon="-4.24610667">
        <ele>180.0</ele>
        <time>2018-05-19T06:28:32.878Z</time>
      </trkpt>
      <trkpt lat="43.28718667" lon="-4.24610667">
        <ele>180.0</ele>
        <time>2018-05-19T06:28:33.878Z</time>
      </trkpt>
      <trkpt lat="43.28718" lon="-4.24612">
        <ele>181.0</ele>
        <time>2018-05-19T06:28:34.880Z</time>
      </trkpt>
      <trkpt lat="43.28718" lon="-4.24612">
        <ele>181.0</ele>
        <time>2018-05-19T06:28:35.874Z</time>
      </trkpt>
      <trkpt lat="43.28717333" lon="-4.24614333">
        <ele>182.0</ele>
        <time>2018-05-19T06:28:36.879Z</time>
      </trkpt>
      <trkpt lat="43.28717333" lon="-4.24614333">
        <ele>182.0</ele>
        <time>2018-05-19T06:28:37.876Z</time>
      </trkpt>
      <trkpt lat="43.28717" lon="-4.24616833">
        <ele>183.0</ele>
        <time>2018-05-19T06:28:38.877Z</time>
      </trkpt>
      <trkpt lat="43.28717" lon="-4.24618167">
        <ele>183.0</ele>
        <time>2018-05-19T06:28:39.880Z</time>
      </trkpt>
      <trkpt lat="43.28717" lon="-4.24618167">
        <ele>183.0</ele>
        <time>2018-05-19T06:28:40.875Z</time>
      </trkpt>
      <trkpt lat="43.28716833" lon="-4.24621167">
        <ele>184.0</ele>
        <time>2018-05-19T06:28:41.880Z</time>
      </trkpt>
      <trkpt lat="43.28716833" lon="-4.24621167">
        <ele>184.0</ele>
        <time>2018-05-19T06:28:42.876Z</time>
      </trkpt>
      <trkpt lat="43.28716667" lon="-4.24624667">
        <ele>184.0</ele>
        <time>2018-05-19T06:28:43.881Z</time>
      </trkpt>
      <trkpt lat="43.28716667" lon="-4.24624667">
        <ele>184.0</ele>
        <time>2018-05-19T06:28:44.875Z</time>
      </trkpt>
      <trkpt lat="43.287165" lon="-4.24627833">
        <ele>184.0</ele>
        <time>2018-05-19T06:28:45.881Z</time>
      </trkpt>
      <trkpt lat="43.287165" lon="-4.24627833">
        <ele>184.0</ele>
        <time>2018-05-19T06:28:46.876Z</time>
      </trkpt>
      <trkpt lat="43.28717" lon="-4.24631167">
        <ele>184.0</ele>
        <time>2018-05-19T06:28:47.881Z</time>
      </trkpt>
      <trkpt lat="43.28717167" lon="-4.24632667">
        <ele>185.0</ele>
        <time>2018-05-19T06:28:48.881Z</time>
      </trkpt>
      <trkpt lat="43.28717333" lon="-4.24634">
        <ele>185.0</ele>
        <time>2018-05-19T06:28:49.881Z</time>
      </trkpt>
      <trkpt lat="43.28717333" lon="-4.24634">
        <ele>185.0</ele>
        <time>2018-05-19T06:28:50.876Z</time>
      </trkpt>
      <trkpt lat="43.28717333" lon="-4.24636667">
        <ele>185.0</ele>
        <time>2018-05-19T06:28:51.881Z</time>
      </trkpt>
      <trkpt lat="43.28717333" lon="-4.24636667">
        <ele>185.0</ele>
        <time>2018-05-19T06:28:52.875Z</time>
      </trkpt>
      <trkpt lat="43.28717167" lon="-4.24639167">
        <ele>186.0</ele>
        <time>2018-05-19T06:28:53.880Z</time>
      </trkpt>
      <trkpt lat="43.28717" lon="-4.24640833">
        <ele>186.0</ele>
        <time>2018-05-19T06:28:54.881Z</time>
      </trkpt>
      <trkpt lat="43.28717" lon="-4.24640833">
        <ele>186.0</ele>
        <time>2018-05-19T06:28:55.876Z</time>
      </trkpt>
      <trkpt lat="43.28716833" lon="-4.24643333">
        <ele>186.0</ele>
        <time>2018-05-19T06:28:56.880Z</time>
      </trkpt>
      <trkpt lat="43.28716833" lon="-4.24643333">
        <ele>186.0</ele>
        <time>2018-05-19T06:28:57.867Z</time>
      </trkpt>
      <trkpt lat="43.28716667" lon="-4.246455">
        <ele>187.0</ele>
        <time>2018-05-19T06:28:58.849Z</time>
      </trkpt>
      <trkpt lat="43.287165" lon="-4.24646667">
        <ele>187.0</ele>
        <time>2018-05-19T06:28:59.858Z</time>
      </trkpt>
      <trkpt lat="43.287165" lon="-4.24646667">
        <ele>187.0</ele>
        <time>2018-05-19T06:29:00.882Z</time>
      </trkpt>
      <trkpt lat="43.28716167" lon="-4.246485">
        <ele>187.0</ele>
        <time>2018-05-19T06:29:01.882Z</time>
      </trkpt>
      <trkpt lat="43.28716167" lon="-4.246485">
        <ele>187.0</ele>
        <time>2018-05-19T06:29:02.876Z</time>
      </trkpt>
      <trkpt lat="43.28716167" lon="-4.24650667">
        <ele>187.0</ele>
        <time>2018-05-19T06:29:03.881Z</time>
      </trkpt>
      <trkpt lat="43.28716167" lon="-4.24650667">
        <ele>187.0</ele>
        <time>2018-05-19T06:29:04.876Z</time>
      </trkpt>
      <trkpt lat="43.28715833" lon="-4.24653">
        <ele>188.0</ele>
        <time>2018-05-19T06:29:05.880Z</time>
      </trkpt>
      <trkpt lat="43.28715833" lon="-4.24653">
        <ele>188.0</ele>
        <time>2018-05-19T06:29:06.876Z</time>
      </trkpt>
      <trkpt lat="43.28715833" lon="-4.24655833">
        <ele>188.0</ele>
        <time>2018-05-19T06:29:07.864Z</time>
      </trkpt>
      <trkpt lat="43.28715833" lon="-4.24657333">
        <ele>188.0</ele>
        <time>2018-05-19T06:29:08.847Z</time>
      </trkpt>
      <trkpt lat="43.28715667" lon="-4.24659">
        <ele>188.0</ele>
        <time>2018-05-19T06:29:09.881Z</time>
      </trkpt>
      <trkpt lat="43.28715667" lon="-4.24659">
        <ele>188.0</ele>
        <time>2018-05-19T06:29:10.874Z</time>
      </trkpt>
      <trkpt lat="43.28715167" lon="-4.24662167">
        <ele>189.0</ele>
        <time>2018-05-19T06:29:11.880Z</time>
      </trkpt>
      <trkpt lat="43.28715167" lon="-4.24663833">
        <ele>189.0</ele>
        <time>2018-05-19T06:29:12.881Z</time>
      </trkpt>
      <trkpt lat="43.28715167" lon="-4.24663833">
        <ele>189.0</ele>
        <time>2018-05-19T06:29:13.873Z</time>
      </trkpt>
      <trkpt lat="43.287145" lon="-4.246665">
        <ele>190.0</ele>
        <time>2018-05-19T06:29:14.855Z</time>
      </trkpt>
      <trkpt lat="43.28714333" lon="-4.24667667">
        <ele>190.0</ele>
        <time>2018-05-19T06:29:15.880Z</time>
      </trkpt>
      <trkpt lat="43.28714333" lon="-4.24667667">
        <ele>190.0</ele>
        <time>2018-05-19T06:29:16.875Z</time>
      </trkpt>
      <trkpt lat="43.28714" lon="-4.24670167">
        <ele>190.0</ele>
        <time>2018-05-19T06:29:17.866Z</time>
      </trkpt>
      <trkpt lat="43.28713667" lon="-4.24671167">
        <ele>190.0</ele>
        <time>2018-05-19T06:29:18.852Z</time>
      </trkpt>
      <trkpt lat="43.28713667" lon="-4.24671167">
        <ele>190.0</ele>
        <time>2018-05-19T06:29:19.879Z</time>
      </trkpt>
      <trkpt lat="43.28713333" lon="-4.24673667">
        <ele>190.0</ele>
        <time>2018-05-19T06:29:20.876Z</time>
      </trkpt>
      <trkpt lat="43.28713167" lon="-4.24675">
        <ele>191.0</ele>
        <time>2018-05-19T06:29:21.880Z</time>
      </trkpt>
      <trkpt lat="43.28713167" lon="-4.24675">
        <ele>191.0</ele>
        <time>2018-05-19T06:29:22.849Z</time>
      </trkpt>
      <trkpt lat="43.287125" lon="-4.246775">
        <ele>191.0</ele>
        <time>2018-05-19T06:29:23.880Z</time>
      </trkpt>
      <trkpt lat="43.28712167" lon="-4.24679">
        <ele>191.0</ele>
        <time>2018-05-19T06:29:24.881Z</time>
      </trkpt>
      <trkpt lat="43.28712" lon="-4.24680333">
        <ele>191.0</ele>
        <time>2018-05-19T06:29:25.873Z</time>
      </trkpt>
      <trkpt lat="43.28712" lon="-4.24680333">
        <ele>191.0</ele>
        <time>2018-05-19T06:29:26.875Z</time>
      </trkpt>
      <trkpt lat="43.28711333" lon="-4.24683">
        <ele>191.0</ele>
        <time>2018-05-19T06:29:27.864Z</time>
      </trkpt>
      <trkpt lat="43.28710833" lon="-4.24684167">
        <ele>192.0</ele>
        <time>2018-05-19T06:29:28.856Z</time>
      </trkpt>
      <trkpt lat="43.28710833" lon="-4.24684167">
        <ele>192.0</ele>
        <time>2018-05-19T06:29:29.881Z</time>
      </trkpt>
      <trkpt lat="43.28710167" lon="-4.24686833">
        <ele>192.0</ele>
        <time>2018-05-19T06:29:30.850Z</time>
      </trkpt>
      <trkpt lat="43.2871" lon="-4.24688333">
        <ele>192.0</ele>
        <time>2018-05-19T06:29:31.881Z</time>
      </trkpt>
      <trkpt lat="43.2871" lon="-4.24688333">
        <ele>192.0</ele>
        <time>2018-05-19T06:29:32.872Z</time>
      </trkpt>
      <trkpt lat="43.28709333" lon="-4.24690833">
        <ele>192.0</ele>
        <time>2018-05-19T06:29:33.882Z</time>
      </trkpt>
      <trkpt lat="43.28709333" lon="-4.24690833">
        <ele>192.0</ele>
        <time>2018-05-19T06:29:34.873Z</time>
      </trkpt>
      <trkpt lat="43.28708833" lon="-4.24693167">
        <ele>193.0</ele>
        <time>2018-05-19T06:29:35.881Z</time>
      </trkpt>
      <trkpt lat="43.28708333" lon="-4.24694333">
        <ele>193.0</ele>
        <time>2018-05-19T06:29:36.880Z</time>
      </trkpt>
      <trkpt lat="43.28708333" lon="-4.24694333">
        <ele>193.0</ele>
        <time>2018-05-19T06:29:37.879Z</time>
      </trkpt>
      <trkpt lat="43.28707833" lon="-4.24697">
        <ele>193.0</ele>
        <time>2018-05-19T06:29:38.880Z</time>
      </trkpt>
      <trkpt lat="43.28707667" lon="-4.24698167">
        <ele>193.0</ele>
        <time>2018-05-19T06:29:39.882Z</time>
      </trkpt>
      <trkpt lat="43.28707667" lon="-4.24698167">
        <ele>193.0</ele>
        <time>2018-05-19T06:29:40.875Z</time>
      </trkpt>
      <trkpt lat="43.28706833" lon="-4.247005">
        <ele>193.0</ele>
        <time>2018-05-19T06:29:41.880Z</time>
      </trkpt>
      <trkpt lat="43.28706833" lon="-4.247005">
        <ele>193.0</ele>
        <time>2018-05-19T06:29:42.874Z</time>
      </trkpt>
      <trkpt lat="43.28705333" lon="-4.24703667">
        <ele>193.0</ele>
        <time>2018-05-19T06:29:43.881Z</time>
      </trkpt>
      <trkpt lat="43.28705333" lon="-4.24703667">
        <ele>193.0</ele>
        <time>2018-05-19T06:29:44.875Z</time>
      </trkpt>
      <trkpt lat="43.287045" lon="-4.247065">
        <ele>194.0</ele>
        <time>2018-05-19T06:29:45.880Z</time>
      </trkpt>
      <trkpt lat="43.287045" lon="-4.247065">
        <ele>194.0</ele>
        <time>2018-05-19T06:29:46.874Z</time>
      </trkpt>
      <trkpt lat="43.28703" lon="-4.24709167">
        <ele>194.0</ele>
        <time>2018-05-19T06:29:47.856Z</time>
      </trkpt>
      <trkpt lat="43.28703" lon="-4.24709167">
        <ele>194.0</ele>
        <time>2018-05-19T06:29:48.878Z</time>
      </trkpt>
      <trkpt lat="43.28701833" lon="-4.24711667">
        <ele>194.0</ele>
        <time>2018-05-19T06:29:49.881Z</time>
      </trkpt>
      <trkpt lat="43.28701833" lon="-4.24711667">
        <ele>194.0</ele>
        <time>2018-05-19T06:29:50.874Z</time>
      </trkpt>
      <trkpt lat="43.28700833" lon="-4.247145">
        <ele>195.0</ele>
        <time>2018-05-19T06:29:51.880Z</time>
      </trkpt>
      <trkpt lat="43.28700833" lon="-4.247145">
        <ele>195.0</ele>
        <time>2018-05-19T06:29:52.876Z</time>
      </trkpt>
      <trkpt lat="43.28701" lon="-4.24716833">
        <ele>195.0</ele>
        <time>2018-05-19T06:29:53.880Z</time>
      </trkpt>
      <trkpt lat="43.28701" lon="-4.24716833">
        <ele>195.0</ele>
        <time>2018-05-19T06:29:54.876Z</time>
      </trkpt>
      <trkpt lat="43.28700333" lon="-4.24719667">
        <ele>195.0</ele>
        <time>2018-05-19T06:29:55.864Z</time>
      </trkpt>
      <trkpt lat="43.28700333" lon="-4.24719667">
        <ele>195.0</ele>
        <time>2018-05-19T06:29:56.850Z</time>
      </trkpt>
      <trkpt lat="43.28699333" lon="-4.24721833">
        <ele>196.0</ele>
        <time>2018-05-19T06:29:57.880Z</time>
      </trkpt>
      <trkpt lat="43.28699333" lon="-4.24721833">
        <ele>196.0</ele>
        <time>2018-05-19T06:29:58.876Z</time>
      </trkpt>
      <trkpt lat="43.28698333" lon="-4.24724167">
        <ele>196.0</ele>
        <time>2018-05-19T06:29:59.880Z</time>
      </trkpt>
      <trkpt lat="43.28698333" lon="-4.24724167">
        <ele>196.0</ele>
        <time>2018-05-19T06:30:00.878Z</time>
      </trkpt>
      <trkpt lat="43.28697167" lon="-4.24726667">
        <ele>196.0</ele>
        <time>2018-05-19T06:30:01.881Z</time>
      </trkpt>
      <trkpt lat="43.28697167" lon="-4.24726667">
        <ele>196.0</ele>
        <time>2018-05-19T06:30:02.875Z</time>
      </trkpt>
      <trkpt lat="43.28696333" lon="-4.24728833">
        <ele>196.0</ele>
        <time>2018-05-19T06:30:03.880Z</time>
      </trkpt>
      <trkpt lat="43.28696333" lon="-4.24728833">
        <ele>196.0</ele>
        <time>2018-05-19T06:30:04.874Z</time>
      </trkpt>
      <trkpt lat="43.286955" lon="-4.24731">
        <ele>196.0</ele>
        <time>2018-05-19T06:30:05.856Z</time>
      </trkpt>
      <trkpt lat="43.286955" lon="-4.24731">
        <ele>196.0</ele>
        <time>2018-05-19T06:30:06.882Z</time>
      </trkpt>
      <trkpt lat="43.28694667" lon="-4.24733333">
        <ele>196.0</ele>
        <time>2018-05-19T06:30:07.878Z</time>
      </trkpt>
      <trkpt lat="43.28694667" lon="-4.24733333">
        <ele>196.0</ele>
        <time>2018-05-19T06:30:08.871Z</time>
      </trkpt>
      <trkpt lat="43.28693833" lon="-4.247355">
        <ele>197.0</ele>
        <time>2018-05-19T06:30:09.856Z</time>
      </trkpt>
      <trkpt lat="43.28693833" lon="-4.247355">
        <ele>197.0</ele>
        <time>2018-05-19T06:30:10.878Z</time>
      </trkpt>
      <trkpt lat="43.28693167" lon="-4.24737667">
        <ele>197.0</ele>
        <time>2018-05-19T06:30:11.880Z</time>
      </trkpt>
      <trkpt lat="43.28693167" lon="-4.24737667">
        <ele>197.0</ele>
        <time>2018-05-19T06:30:12.875Z</time>
      </trkpt>
      <trkpt lat="43.28692167" lon="-4.24739667">
        <ele>197.0</ele>
        <time>2018-05-19T06:30:13.881Z</time>
      </trkpt>
      <trkpt lat="43.28692167" lon="-4.24739667">
        <ele>197.0</ele>
        <time>2018-05-19T06:30:14.874Z</time>
      </trkpt>
      <trkpt lat="43.28691333" lon="-4.24742333">
        <ele>197.0</ele>
        <time>2018-05-19T06:30:15.859Z</time>
      </trkpt>
      <trkpt lat="43.286905" lon="-4.24744">
        <ele>197.0</ele>
        <time>2018-05-19T06:30:16.884Z</time>
      </trkpt>
      <trkpt lat="43.2869" lon="-4.24745333">
        <ele>198.0</ele>
        <time>2018-05-19T06:30:17.880Z</time>
      </trkpt>
      <trkpt lat="43.2869" lon="-4.24745333">
        <ele>198.0</ele>
        <time>2018-05-19T06:30:18.870Z</time>
      </trkpt>
      <trkpt lat="43.28689333" lon="-4.24748833">
        <ele>198.0</ele>
        <time>2018-05-19T06:30:19.855Z</time>
      </trkpt>
      <trkpt lat="43.28688833" lon="-4.24750167">
        <ele>198.0</ele>
        <time>2018-05-19T06:30:20.881Z</time>
      </trkpt>
      <trkpt lat="43.28688833" lon="-4.24750167">
        <ele>198.0</ele>
        <time>2018-05-19T06:30:21.879Z</time>
      </trkpt>
      <trkpt lat="43.28688333" lon="-4.247535">
        <ele>199.0</ele>
        <time>2018-05-19T06:30:22.853Z</time>
      </trkpt>
      <trkpt lat="43.28688" lon="-4.24755">
        <ele>199.0</ele>
        <time>2018-05-19T06:30:23.880Z</time>
      </trkpt>
      <trkpt lat="43.28688" lon="-4.24755">
        <ele>199.0</ele>
        <time>2018-05-19T06:30:24.874Z</time>
      </trkpt>
      <trkpt lat="43.28687167" lon="-4.247575">
        <ele>200.0</ele>
        <time>2018-05-19T06:30:25.873Z</time>
      </trkpt>
      <trkpt lat="43.28687167" lon="-4.247575">
        <ele>200.0</ele>
        <time>2018-05-19T06:30:26.875Z</time>
      </trkpt>
      <trkpt lat="43.286865" lon="-4.2476">
        <ele>200.0</ele>
        <time>2018-05-19T06:30:27.881Z</time>
      </trkpt>
      <trkpt lat="43.286865" lon="-4.2476">
        <ele>200.0</ele>
        <time>2018-05-19T06:30:28.881Z</time>
      </trkpt>
      <trkpt lat="43.286855" lon="-4.247625">
        <ele>200.0</ele>
        <time>2018-05-19T06:30:29.880Z</time>
      </trkpt>
      <trkpt lat="43.286855" lon="-4.247625">
        <ele>200.0</ele>
        <time>2018-05-19T06:30:30.873Z</time>
      </trkpt>
      <trkpt lat="43.286845" lon="-4.24765167">
        <ele>200.0</ele>
        <time>2018-05-19T06:30:31.880Z</time>
      </trkpt>
      <trkpt lat="43.286845" lon="-4.24765167">
        <ele>200.0</ele>
        <time>2018-05-19T06:30:32.876Z</time>
      </trkpt>
      <trkpt lat="43.28684" lon="-4.24767333">
        <ele>200.0</ele>
        <time>2018-05-19T06:30:33.881Z</time>
      </trkpt>
      <trkpt lat="43.28684" lon="-4.24767333">
        <ele>200.0</ele>
        <time>2018-05-19T06:30:34.874Z</time>
      </trkpt>
      <trkpt lat="43.28683167" lon="-4.24769833">
        <ele>201.0</ele>
        <time>2018-05-19T06:30:35.881Z</time>
      </trkpt>
      <trkpt lat="43.28683167" lon="-4.24769833">
        <ele>201.0</ele>
        <time>2018-05-19T06:30:36.874Z</time>
      </trkpt>
      <trkpt lat="43.28682" lon="-4.247725">
        <ele>201.0</ele>
        <time>2018-05-19T06:30:37.883Z</time>
      </trkpt>
      <trkpt lat="43.28682" lon="-4.247725">
        <ele>201.0</ele>
        <time>2018-05-19T06:30:38.867Z</time>
      </trkpt>
      <trkpt lat="43.28681333" lon="-4.247745">
        <ele>201.0</ele>
        <time>2018-05-19T06:30:39.852Z</time>
      </trkpt>
      <trkpt lat="43.28681333" lon="-4.247745">
        <ele>201.0</ele>
        <time>2018-05-19T06:30:40.876Z</time>
      </trkpt>
      <trkpt lat="43.28680167" lon="-4.24776667">
        <ele>202.0</ele>
        <time>2018-05-19T06:30:41.880Z</time>
      </trkpt>
      <trkpt lat="43.28680167" lon="-4.24776667">
        <ele>202.0</ele>
        <time>2018-05-19T06:30:42.873Z</time>
      </trkpt>
      <trkpt lat="43.28679333" lon="-4.24779">
        <ele>202.0</ele>
        <time>2018-05-19T06:30:43.881Z</time>
      </trkpt>
      <trkpt lat="43.28679333" lon="-4.24779">
        <ele>202.0</ele>
        <time>2018-05-19T06:30:44.874Z</time>
      </trkpt>
      <trkpt lat="43.28678833" lon="-4.24781333">
        <ele>203.0</ele>
        <time>2018-05-19T06:30:45.880Z</time>
      </trkpt>
      <trkpt lat="43.28678667" lon="-4.247825">
        <ele>203.0</ele>
        <time>2018-05-19T06:30:46.880Z</time>
      </trkpt>
      <trkpt lat="43.28678667" lon="-4.247825">
        <ele>203.0</ele>
        <time>2018-05-19T06:30:47.871Z</time>
      </trkpt>
      <trkpt lat="43.28678167" lon="-4.24784833">
        <ele>203.0</ele>
        <time>2018-05-19T06:30:48.865Z</time>
      </trkpt>
      <trkpt lat="43.28677667" lon="-4.24785833">
        <ele>203.0</ele>
        <time>2018-05-19T06:30:49.849Z</time>
      </trkpt>
      <trkpt lat="43.28677667" lon="-4.24785833">
        <ele>203.0</ele>
        <time>2018-05-19T06:30:50.846Z</time>
      </trkpt>
      <trkpt lat="43.28676667" lon="-4.24788333">
        <ele>204.0</ele>
        <time>2018-05-19T06:30:51.880Z</time>
      </trkpt>
      <trkpt lat="43.28676667" lon="-4.24788333">
        <ele>204.0</ele>
        <time>2018-05-19T06:30:52.874Z</time>
      </trkpt>
      <trkpt lat="43.28675667" lon="-4.2479">
        <ele>205.0</ele>
        <time>2018-05-19T06:30:53.880Z</time>
      </trkpt>
      <trkpt lat="43.28675" lon="-4.24790833">
        <ele>205.0</ele>
        <time>2018-05-19T06:30:54.880Z</time>
      </trkpt>
      <trkpt lat="43.28674333" lon="-4.24791667">
        <ele>205.0</ele>
        <time>2018-05-19T06:30:55.879Z</time>
      </trkpt>
      <trkpt lat="43.28674333" lon="-4.24791667">
        <ele>205.0</ele>
        <time>2018-05-19T06:30:56.874Z</time>
      </trkpt>
      <trkpt lat="43.28673333" lon="-4.24794167">
        <ele>206.0</ele>
        <time>2018-05-19T06:30:57.879Z</time>
      </trkpt>
      <trkpt lat="43.28673333" lon="-4.24794167">
        <ele>206.0</ele>
        <time>2018-05-19T06:30:58.877Z</time>
      </trkpt>
      <trkpt lat="43.28672333" lon="-4.247965">
        <ele>206.0</ele>
        <time>2018-05-19T06:30:59.877Z</time>
      </trkpt>
      <trkpt lat="43.28671833" lon="-4.247975">
        <ele>206.0</ele>
        <time>2018-05-19T06:31:00.880Z</time>
      </trkpt>
      <trkpt lat="43.28671833" lon="-4.247975">
        <ele>206.0</ele>
        <time>2018-05-19T06:31:01.876Z</time>
      </trkpt>
      <trkpt lat="43.28671" lon="-4.247995">
        <ele>207.0</ele>
        <time>2018-05-19T06:31:02.880Z</time>
      </trkpt>
      <trkpt lat="43.286705" lon="-4.24800667">
        <ele>207.0</ele>
        <time>2018-05-19T06:31:03.881Z</time>
      </trkpt>
      <trkpt lat="43.286705" lon="-4.24800667">
        <ele>207.0</ele>
        <time>2018-05-19T06:31:04.874Z</time>
      </trkpt>
      <trkpt lat="43.28669333" lon="-4.24803">
        <ele>207.0</ele>
        <time>2018-05-19T06:31:05.864Z</time>
      </trkpt>
      <trkpt lat="43.28668667" lon="-4.24804167">
        <ele>207.0</ele>
        <time>2018-05-19T06:31:06.849Z</time>
      </trkpt>
      <trkpt lat="43.28668" lon="-4.24805167">
        <ele>208.0</ele>
        <time>2018-05-19T06:31:07.863Z</time>
      </trkpt>
      <trkpt lat="43.28668" lon="-4.24805167">
        <ele>208.0</ele>
        <time>2018-05-19T06:31:08.849Z</time>
      </trkpt>
      <trkpt lat="43.28666833" lon="-4.24807167">
        <ele>208.0</ele>
        <time>2018-05-19T06:31:09.879Z</time>
      </trkpt>
      <trkpt lat="43.28666833" lon="-4.24807167">
        <ele>208.0</ele>
        <time>2018-05-19T06:31:10.874Z</time>
      </trkpt>
      <trkpt lat="43.28665667" lon="-4.24809">
        <ele>208.0</ele>
        <time>2018-05-19T06:31:11.880Z</time>
      </trkpt>
      <trkpt lat="43.28665667" lon="-4.24809">
        <ele>208.0</ele>
        <time>2018-05-19T06:31:12.874Z</time>
      </trkpt>
      <trkpt lat="43.28664667" lon="-4.24810667">
        <ele>209.0</ele>
        <time>2018-05-19T06:31:13.881Z</time>
      </trkpt>
      <trkpt lat="43.28664667" lon="-4.24810667">
        <ele>209.0</ele>
        <time>2018-05-19T06:31:14.874Z</time>
      </trkpt>
      <trkpt lat="43.286635" lon="-4.248125">
        <ele>209.0</ele>
        <time>2018-05-19T06:31:15.864Z</time>
      </trkpt>
      <trkpt lat="43.286635" lon="-4.248125">
        <ele>209.0</ele>
        <time>2018-05-19T06:31:16.856Z</time>
      </trkpt>
      <trkpt lat="43.28662" lon="-4.24814667">
        <ele>209.0</ele>
        <time>2018-05-19T06:31:17.878Z</time>
      </trkpt>
      <trkpt lat="43.28662" lon="-4.24814667">
        <ele>209.0</ele>
        <time>2018-05-19T06:31:18.874Z</time>
      </trkpt>
      <trkpt lat="43.286605" lon="-4.24817">
        <ele>210.0</ele>
        <time>2018-05-19T06:31:19.881Z</time>
      </trkpt>
      <trkpt lat="43.286605" lon="-4.24817">
        <ele>210.0</ele>
        <time>2018-05-19T06:31:20.873Z</time>
      </trkpt>
      <trkpt lat="43.28659333" lon="-4.248195">
        <ele>210.0</ele>
        <time>2018-05-19T06:31:21.880Z</time>
      </trkpt>
      <trkpt lat="43.28659333" lon="-4.248195">
        <ele>210.0</ele>
        <time>2018-05-19T06:31:22.874Z</time>
      </trkpt>
      <trkpt lat="43.28658833" lon="-4.24821833">
        <ele>211.0</ele>
        <time>2018-05-19T06:31:23.878Z</time>
      </trkpt>
      <trkpt lat="43.28658333" lon="-4.24823">
        <ele>211.0</ele>
        <time>2018-05-19T06:31:24.881Z</time>
      </trkpt>
      <trkpt lat="43.28658333" lon="-4.24823">
        <ele>211.0</ele>
        <time>2018-05-19T06:31:25.871Z</time>
      </trkpt>
      <trkpt lat="43.28656833" lon="-4.24825333">
        <ele>211.0</ele>
        <time>2018-05-19T06:31:26.880Z</time>
      </trkpt>
      <trkpt lat="43.28656667" lon="-4.24826">
        <ele>212.0</ele>
        <time>2018-05-19T06:31:27.846Z</time>
      </trkpt>
      <trkpt lat="43.28656667" lon="-4.24826">
        <ele>212.0</ele>
        <time>2018-05-19T06:31:28.876Z</time>
      </trkpt>
      <trkpt lat="43.286565" lon="-4.24828">
        <ele>212.0</ele>
        <time>2018-05-19T06:31:29.899Z</time>
      </trkpt>
      <trkpt lat="43.286565" lon="-4.24828">
        <ele>212.0</ele>
        <time>2018-05-19T06:31:30.849Z</time>
      </trkpt>
      <trkpt lat="43.28655833" lon="-4.24830333">
        <ele>213.0</ele>
        <time>2018-05-19T06:31:31.878Z</time>
      </trkpt>
      <trkpt lat="43.28655833" lon="-4.24830333">
        <ele>213.0</ele>
        <time>2018-05-19T06:31:32.878Z</time>
      </trkpt>
      <trkpt lat="43.28655" lon="-4.24832833">
        <ele>213.0</ele>
        <time>2018-05-19T06:31:33.880Z</time>
      </trkpt>
      <trkpt lat="43.28655" lon="-4.24832833">
        <ele>213.0</ele>
        <time>2018-05-19T06:31:34.875Z</time>
      </trkpt>
      <trkpt lat="43.28654" lon="-4.24835">
        <ele>213.0</ele>
        <time>2018-05-19T06:31:35.859Z</time>
      </trkpt>
      <trkpt lat="43.286535" lon="-4.24836">
        <ele>213.0</ele>
        <time>2018-05-19T06:31:36.846Z</time>
      </trkpt>
      <trkpt lat="43.28653167" lon="-4.24837167">
        <ele>213.0</ele>
        <time>2018-05-19T06:31:37.881Z</time>
      </trkpt>
      <trkpt lat="43.28653167" lon="-4.24837167">
        <ele>213.0</ele>
        <time>2018-05-19T06:31:38.877Z</time>
      </trkpt>
      <trkpt lat="43.286525" lon="-4.24839667">
        <ele>213.0</ele>
        <time>2018-05-19T06:31:39.879Z</time>
      </trkpt>
      <trkpt lat="43.286525" lon="-4.24839667">
        <ele>213.0</ele>
        <time>2018-05-19T06:31:40.877Z</time>
      </trkpt>
      <trkpt lat="43.28651667" lon="-4.24842">
        <ele>213.0</ele>
        <time>2018-05-19T06:31:41.876Z</time>
      </trkpt>
      <trkpt lat="43.28651667" lon="-4.24842">
        <ele>213.0</ele>
        <time>2018-05-19T06:31:42.873Z</time>
      </trkpt>
      <trkpt lat="43.28651" lon="-4.24844333">
        <ele>213.0</ele>
        <time>2018-05-19T06:31:43.881Z</time>
      </trkpt>
      <trkpt lat="43.28650667" lon="-4.248455">
        <ele>213.0</ele>
        <time>2018-05-19T06:31:44.880Z</time>
      </trkpt>
      <trkpt lat="43.28650333" lon="-4.24846667">
        <ele>213.0</ele>
        <time>2018-05-19T06:31:45.881Z</time>
      </trkpt>
      <trkpt lat="43.28650333" lon="-4.24846667">
        <ele>213.0</ele>
        <time>2018-05-19T06:31:46.856Z</time>
      </trkpt>
      <trkpt lat="43.28649833" lon="-4.24849">
        <ele>214.0</ele>
        <time>2018-05-19T06:31:47.881Z</time>
      </trkpt>
      <trkpt lat="43.28649833" lon="-4.24849">
        <ele>214.0</ele>
        <time>2018-05-19T06:31:48.870Z</time>
      </trkpt>
      <trkpt lat="43.28649167" lon="-4.24851667">
        <ele>213.0</ele>
        <time>2018-05-19T06:31:49.854Z</time>
      </trkpt>
      <trkpt lat="43.28649167" lon="-4.24851667">
        <ele>213.0</ele>
        <time>2018-05-19T06:31:50.877Z</time>
      </trkpt>
      <trkpt lat="43.28648167" lon="-4.24854167">
        <ele>214.0</ele>
        <time>2018-05-19T06:31:51.880Z</time>
      </trkpt>
      <trkpt lat="43.28648167" lon="-4.24854167">
        <ele>214.0</ele>
        <time>2018-05-19T06:31:52.873Z</time>
      </trkpt>
      <trkpt lat="43.286475" lon="-4.24856667">
        <ele>214.0</ele>
        <time>2018-05-19T06:31:53.880Z</time>
      </trkpt>
      <trkpt lat="43.286475" lon="-4.24856667">
        <ele>214.0</ele>
        <time>2018-05-19T06:31:54.874Z</time>
      </trkpt>
      <trkpt lat="43.28647" lon="-4.24859167">
        <ele>214.0</ele>
        <time>2018-05-19T06:31:55.881Z</time>
      </trkpt>
      <trkpt lat="43.28647" lon="-4.24859167">
        <ele>214.0</ele>
        <time>2018-05-19T06:31:56.876Z</time>
      </trkpt>
      <trkpt lat="43.28646667" lon="-4.248615">
        <ele>215.0</ele>
        <time>2018-05-19T06:31:57.880Z</time>
      </trkpt>
      <trkpt lat="43.28646667" lon="-4.248615">
        <ele>215.0</ele>
        <time>2018-05-19T06:31:58.877Z</time>
      </trkpt>
      <trkpt lat="43.286465" lon="-4.24864">
        <ele>215.0</ele>
        <time>2018-05-19T06:31:59.881Z</time>
      </trkpt>
      <trkpt lat="43.286465" lon="-4.24864">
        <ele>215.0</ele>
        <time>2018-05-19T06:32:00.874Z</time>
      </trkpt>
      <trkpt lat="43.286465" lon="-4.248665">
        <ele>215.0</ele>
        <time>2018-05-19T06:32:01.878Z</time>
      </trkpt>
      <trkpt lat="43.286465" lon="-4.248665">
        <ele>215.0</ele>
        <time>2018-05-19T06:32:02.874Z</time>
      </trkpt>
      <trkpt lat="43.286465" lon="-4.24869167">
        <ele>215.0</ele>
        <time>2018-05-19T06:32:03.880Z</time>
      </trkpt>
      <trkpt lat="43.286465" lon="-4.24869167">
        <ele>215.0</ele>
        <time>2018-05-19T06:32:04.874Z</time>
      </trkpt>
      <trkpt lat="43.28647" lon="-4.24871833">
        <ele>216.0</ele>
        <time>2018-05-19T06:32:05.863Z</time>
      </trkpt>
      <trkpt lat="43.28647" lon="-4.24871833">
        <ele>216.0</ele>
        <time>2018-05-19T06:32:06.845Z</time>
      </trkpt>
      <trkpt lat="43.28647167" lon="-4.248745">
        <ele>216.0</ele>
        <time>2018-05-19T06:32:07.881Z</time>
      </trkpt>
      <trkpt lat="43.28647167" lon="-4.248745">
        <ele>216.0</ele>
        <time>2018-05-19T06:32:08.876Z</time>
      </trkpt>
      <trkpt lat="43.28647667" lon="-4.24877">
        <ele>216.0</ele>
        <time>2018-05-19T06:32:09.855Z</time>
      </trkpt>
      <trkpt lat="43.28647667" lon="-4.24877">
        <ele>216.0</ele>
        <time>2018-05-19T06:32:10.879Z</time>
      </trkpt>
      <trkpt lat="43.28648167" lon="-4.24879333">
        <ele>217.0</ele>
        <time>2018-05-19T06:32:11.880Z</time>
      </trkpt>
      <trkpt lat="43.28648167" lon="-4.24879333">
        <ele>217.0</ele>
        <time>2018-05-19T06:32:12.875Z</time>
      </trkpt>
      <trkpt lat="43.28648667" lon="-4.24881833">
        <ele>217.0</ele>
        <time>2018-05-19T06:32:13.882Z</time>
      </trkpt>
      <trkpt lat="43.28648667" lon="-4.24881833">
        <ele>217.0</ele>
        <time>2018-05-19T06:32:14.875Z</time>
      </trkpt>
      <trkpt lat="43.28649167" lon="-4.24884333">
        <ele>217.0</ele>
        <time>2018-05-19T06:32:15.881Z</time>
      </trkpt>
      <trkpt lat="43.28649167" lon="-4.24884333">
        <ele>217.0</ele>
        <time>2018-05-19T06:32:16.874Z</time>
      </trkpt>
      <trkpt lat="43.28649833" lon="-4.24886667">
        <ele>217.0</ele>
        <time>2018-05-19T06:32:17.881Z</time>
      </trkpt>
      <trkpt lat="43.28649833" lon="-4.24886667">
        <ele>217.0</ele>
        <time>2018-05-19T06:32:18.874Z</time>
      </trkpt>
      <trkpt lat="43.28650333" lon="-4.24888833">
        <ele>218.0</ele>
        <time>2018-05-19T06:32:19.881Z</time>
      </trkpt>
      <trkpt lat="43.28650167" lon="-4.248895">
        <ele>218.0</ele>
        <time>2018-05-19T06:32:20.880Z</time>
      </trkpt>
      <trkpt lat="43.28650167" lon="-4.24890333">
        <ele>218.0</ele>
        <time>2018-05-19T06:32:21.880Z</time>
      </trkpt>
      <trkpt lat="43.28650167" lon="-4.24890333">
        <ele>218.0</ele>
        <time>2018-05-19T06:32:22.876Z</time>
      </trkpt>
      <trkpt lat="43.28650667" lon="-4.248925">
        <ele>218.0</ele>
        <time>2018-05-19T06:32:23.878Z</time>
      </trkpt>
      <trkpt lat="43.28651" lon="-4.24893667">
        <ele>218.0</ele>
        <time>2018-05-19T06:32:24.880Z</time>
      </trkpt>
      <trkpt lat="43.28651167" lon="-4.24894833">
        <ele>218.0</ele>
        <time>2018-05-19T06:32:25.881Z</time>
      </trkpt>
      <trkpt lat="43.28651167" lon="-4.24894833">
        <ele>218.0</ele>
        <time>2018-05-19T06:32:26.875Z</time>
      </trkpt>
      <trkpt lat="43.28652" lon="-4.24897167">
        <ele>219.0</ele>
        <time>2018-05-19T06:32:27.880Z</time>
      </trkpt>
      <trkpt lat="43.28652" lon="-4.24897167">
        <ele>219.0</ele>
        <time>2018-05-19T06:32:28.874Z</time>
      </trkpt>
      <trkpt lat="43.28652333" lon="-4.248995">
        <ele>219.0</ele>
        <time>2018-05-19T06:32:29.863Z</time>
      </trkpt>
      <trkpt lat="43.28652333" lon="-4.248995">
        <ele>219.0</ele>
        <time>2018-05-19T06:32:30.854Z</time>
      </trkpt>
      <trkpt lat="43.28653167" lon="-4.24902167">
        <ele>220.0</ele>
        <time>2018-05-19T06:32:31.881Z</time>
      </trkpt>
      <trkpt lat="43.28653167" lon="-4.24902167">
        <ele>220.0</ele>
        <time>2018-05-19T06:32:32.875Z</time>
      </trkpt>
      <trkpt lat="43.28654" lon="-4.24904667">
        <ele>220.0</ele>
        <time>2018-05-19T06:32:33.880Z</time>
      </trkpt>
      <trkpt lat="43.286545" lon="-4.24906333">
        <ele>220.0</ele>
        <time>2018-05-19T06:32:34.876Z</time>
      </trkpt>
      <trkpt lat="43.286545" lon="-4.24906333">
        <ele>220.0</ele>
        <time>2018-05-19T06:32:35.847Z</time>
      </trkpt>
      <trkpt lat="43.28655333" lon="-4.24908667">
        <ele>220.0</ele>
        <time>2018-05-19T06:32:36.880Z</time>
      </trkpt>
      <trkpt lat="43.28655667" lon="-4.2491">
        <ele>220.0</ele>
        <time>2018-05-19T06:32:37.879Z</time>
      </trkpt>
      <trkpt lat="43.28655667" lon="-4.2491">
        <ele>220.0</ele>
        <time>2018-05-19T06:32:38.871Z</time>
      </trkpt>
      <trkpt lat="43.28655833" lon="-4.24912167">
        <ele>220.0</ele>
        <time>2018-05-19T06:32:39.863Z</time>
      </trkpt>
      <trkpt lat="43.28656167" lon="-4.24912833">
        <ele>220.0</ele>
        <time>2018-05-19T06:32:40.856Z</time>
      </trkpt>
      <trkpt lat="43.28656167" lon="-4.24912833">
        <ele>220.0</ele>
        <time>2018-05-19T06:32:41.882Z</time>
      </trkpt>
      <trkpt lat="43.28657" lon="-4.24914667">
        <ele>221.0</ele>
        <time>2018-05-19T06:32:42.880Z</time>
      </trkpt>
      <trkpt lat="43.286575" lon="-4.24915667">
        <ele>221.0</ele>
        <time>2018-05-19T06:32:43.881Z</time>
      </trkpt>
      <trkpt lat="43.286575" lon="-4.24915667">
        <ele>221.0</ele>
        <time>2018-05-19T06:32:44.875Z</time>
      </trkpt>
      <trkpt lat="43.28658" lon="-4.24917833">
        <ele>221.0</ele>
        <time>2018-05-19T06:32:45.863Z</time>
      </trkpt>
      <trkpt lat="43.28658" lon="-4.24917833">
        <ele>221.0</ele>
        <time>2018-05-19T06:32:46.877Z</time>
      </trkpt>
      <trkpt lat="43.28658333" lon="-4.249205">
        <ele>221.0</ele>
        <time>2018-05-19T06:32:47.881Z</time>
      </trkpt>
      <trkpt lat="43.28658333" lon="-4.249205">
        <ele>221.0</ele>
        <time>2018-05-19T06:32:48.877Z</time>
      </trkpt>
      <trkpt lat="43.28659" lon="-4.24923167">
        <ele>222.0</ele>
        <time>2018-05-19T06:32:49.881Z</time>
      </trkpt>
      <trkpt lat="43.28659333" lon="-4.249245">
        <ele>222.0</ele>
        <time>2018-05-19T06:32:50.880Z</time>
      </trkpt>
      <trkpt lat="43.28659833" lon="-4.24926">
        <ele>222.0</ele>
        <time>2018-05-19T06:32:51.880Z</time>
      </trkpt>
      <trkpt lat="43.28659833" lon="-4.24926">
        <ele>222.0</ele>
        <time>2018-05-19T06:32:52.874Z</time>
      </trkpt>
      <trkpt lat="43.286605" lon="-4.249285">
        <ele>222.0</ele>
        <time>2018-05-19T06:32:53.880Z</time>
      </trkpt>
      <trkpt lat="43.286605" lon="-4.249285">
        <ele>222.0</ele>
        <time>2018-05-19T06:32:54.875Z</time>
      </trkpt>
      <trkpt lat="43.28661333" lon="-4.24931167">
        <ele>222.0</ele>
        <time>2018-05-19T06:32:55.863Z</time>
      </trkpt>
      <trkpt lat="43.28661833" lon="-4.24932333">
        <ele>222.0</ele>
        <time>2018-05-19T06:32:56.857Z</time>
      </trkpt>
      <trkpt lat="43.28661833" lon="-4.24932333">
        <ele>222.0</ele>
        <time>2018-05-19T06:32:57.881Z</time>
      </trkpt>
      <trkpt lat="43.286625" lon="-4.24934333">
        <ele>223.0</ele>
        <time>2018-05-19T06:32:58.876Z</time>
      </trkpt>
      <trkpt lat="43.286625" lon="-4.24934333">
        <ele>223.0</ele>
        <time>2018-05-19T06:32:59.858Z</time>
      </trkpt>
      <trkpt lat="43.28663167" lon="-4.24937">
        <ele>223.0</ele>
        <time>2018-05-19T06:33:00.846Z</time>
      </trkpt>
      <trkpt lat="43.286635" lon="-4.24938333">
        <ele>223.0</ele>
        <time>2018-05-19T06:33:01.881Z</time>
      </trkpt>
      <trkpt lat="43.286635" lon="-4.24938333">
        <ele>223.0</ele>
        <time>2018-05-19T06:33:02.875Z</time>
      </trkpt>
      <trkpt lat="43.28664167" lon="-4.24940833">
        <ele>223.0</ele>
        <time>2018-05-19T06:33:03.883Z</time>
      </trkpt>
      <trkpt lat="43.28664167" lon="-4.24940833">
        <ele>223.0</ele>
        <time>2018-05-19T06:33:04.876Z</time>
      </trkpt>
      <trkpt lat="43.28665333" lon="-4.24943167">
        <ele>223.0</ele>
        <time>2018-05-19T06:33:05.881Z</time>
      </trkpt>
      <trkpt lat="43.28665333" lon="-4.24943167">
        <ele>223.0</ele>
        <time>2018-05-19T06:33:06.874Z</time>
      </trkpt>
      <trkpt lat="43.28666333" lon="-4.24945667">
        <ele>224.0</ele>
        <time>2018-05-19T06:33:07.863Z</time>
      </trkpt>
      <trkpt lat="43.28666333" lon="-4.24945667">
        <ele>224.0</ele>
        <time>2018-05-19T06:33:08.856Z</time>
      </trkpt>
      <trkpt lat="43.28667333" lon="-4.24948333">
        <ele>224.0</ele>
        <time>2018-05-19T06:33:09.879Z</time>
      </trkpt>
      <trkpt lat="43.28668" lon="-4.249495">
        <ele>224.0</ele>
        <time>2018-05-19T06:33:10.881Z</time>
      </trkpt>
      <trkpt lat="43.28668" lon="-4.249495">
        <ele>224.0</ele>
        <time>2018-05-19T06:33:11.874Z</time>
      </trkpt>
      <trkpt lat="43.28668667" lon="-4.24952167">
        <ele>224.0</ele>
        <time>2018-05-19T06:33:12.844Z</time>
      </trkpt>
      <trkpt lat="43.28669333" lon="-4.249535">
        <ele>224.0</ele>
        <time>2018-05-19T06:33:13.882Z</time>
      </trkpt>
      <trkpt lat="43.28669333" lon="-4.249535">
        <ele>224.0</ele>
        <time>2018-05-19T06:33:14.873Z</time>
      </trkpt>
      <trkpt lat="43.28670667" lon="-4.24956167">
        <ele>225.0</ele>
        <time>2018-05-19T06:33:15.882Z</time>
      </trkpt>
      <trkpt lat="43.28670667" lon="-4.24956167">
        <ele>225.0</ele>
        <time>2018-05-19T06:33:16.875Z</time>
      </trkpt>
      <trkpt lat="43.28671833" lon="-4.24958667">
        <ele>225.0</ele>
        <time>2018-05-19T06:33:17.880Z</time>
      </trkpt>
      <trkpt lat="43.28671833" lon="-4.24958667">
        <ele>225.0</ele>
        <time>2018-05-19T06:33:18.874Z</time>
      </trkpt>
      <trkpt lat="43.28673" lon="-4.24961167">
        <ele>225.0</ele>
        <time>2018-05-19T06:33:19.857Z</time>
      </trkpt>
      <trkpt lat="43.28673" lon="-4.24961167">
        <ele>225.0</ele>
        <time>2018-05-19T06:33:20.878Z</time>
      </trkpt>
      <trkpt lat="43.28674" lon="-4.24963833">
        <ele>225.0</ele>
        <time>2018-05-19T06:33:21.880Z</time>
      </trkpt>
      <trkpt lat="43.286745" lon="-4.24965">
        <ele>226.0</ele>
        <time>2018-05-19T06:33:22.881Z</time>
      </trkpt>
      <trkpt lat="43.286745" lon="-4.24965">
        <ele>226.0</ele>
        <time>2018-05-19T06:33:23.874Z</time>
      </trkpt>
      <trkpt lat="43.28675667" lon="-4.24967833">
        <ele>226.0</ele>
        <time>2018-05-19T06:33:24.880Z</time>
      </trkpt>
      <trkpt lat="43.28675667" lon="-4.24967833">
        <ele>226.0</ele>
        <time>2018-05-19T06:33:25.878Z</time>
      </trkpt>
      <trkpt lat="43.28677" lon="-4.24970167">
        <ele>226.0</ele>
        <time>2018-05-19T06:33:26.880Z</time>
      </trkpt>
      <trkpt lat="43.286775" lon="-4.24971333">
        <ele>226.0</ele>
        <time>2018-05-19T06:33:27.880Z</time>
      </trkpt>
      <trkpt lat="43.286775" lon="-4.24971333">
        <ele>226.0</ele>
        <time>2018-05-19T06:33:28.873Z</time>
      </trkpt>
      <trkpt lat="43.286785" lon="-4.24973667">
        <ele>226.0</ele>
        <time>2018-05-19T06:33:29.882Z</time>
      </trkpt>
      <trkpt lat="43.28678833" lon="-4.24974833">
        <ele>227.0</ele>
        <time>2018-05-19T06:33:30.881Z</time>
      </trkpt>
      <trkpt lat="43.28679167" lon="-4.24976">
        <ele>227.0</ele>
        <time>2018-05-19T06:33:31.883Z</time>
      </trkpt>
      <trkpt lat="43.28679167" lon="-4.24976">
        <ele>227.0</ele>
        <time>2018-05-19T06:33:32.875Z</time>
      </trkpt>
      <trkpt lat="43.2868" lon="-4.24978333">
        <ele>227.0</ele>
        <time>2018-05-19T06:33:33.880Z</time>
      </trkpt>
      <trkpt lat="43.2868" lon="-4.24978333">
        <ele>227.0</ele>
        <time>2018-05-19T06:33:34.874Z</time>
      </trkpt>
      <trkpt lat="43.28681333" lon="-4.24980667">
        <ele>227.0</ele>
        <time>2018-05-19T06:33:35.880Z</time>
      </trkpt>
      <trkpt lat="43.28681333" lon="-4.24980667">
        <ele>227.0</ele>
        <time>2018-05-19T06:33:36.875Z</time>
      </trkpt>
      <trkpt lat="43.28682333" lon="-4.24983">
        <ele>228.0</ele>
        <time>2018-05-19T06:33:37.881Z</time>
      </trkpt>
      <trkpt lat="43.28682333" lon="-4.24983">
        <ele>228.0</ele>
        <time>2018-05-19T06:33:38.877Z</time>
      </trkpt>
      <trkpt lat="43.28683167" lon="-4.24985">
        <ele>228.0</ele>
        <time>2018-05-19T06:33:39.880Z</time>
      </trkpt>
      <trkpt lat="43.28683167" lon="-4.24985">
        <ele>228.0</ele>
        <time>2018-05-19T06:33:40.876Z</time>
      </trkpt>
      <trkpt lat="43.28684333" lon="-4.24986833">
        <ele>228.0</ele>
        <time>2018-05-19T06:33:41.880Z</time>
      </trkpt>
      <trkpt lat="43.28684333" lon="-4.24986833">
        <ele>228.0</ele>
        <time>2018-05-19T06:33:42.874Z</time>
      </trkpt>
      <trkpt lat="43.28685333" lon="-4.24989">
        <ele>228.0</ele>
        <time>2018-05-19T06:33:43.856Z</time>
      </trkpt>
      <trkpt lat="43.28685333" lon="-4.24989">
        <ele>228.0</ele>
        <time>2018-05-19T06:33:44.878Z</time>
      </trkpt>
      <trkpt lat="43.28686167" lon="-4.24991">
        <ele>229.0</ele>
        <time>2018-05-19T06:33:45.880Z</time>
      </trkpt>
      <trkpt lat="43.286865" lon="-4.24992">
        <ele>229.0</ele>
        <time>2018-05-19T06:33:46.851Z</time>
      </trkpt>
      <trkpt lat="43.286865" lon="-4.24992">
        <ele>229.0</ele>
        <time>2018-05-19T06:33:47.876Z</time>
      </trkpt>
      <trkpt lat="43.28687167" lon="-4.24993833">
        <ele>229.0</ele>
        <time>2018-05-19T06:33:48.874Z</time>
      </trkpt>
      <trkpt lat="43.286875" lon="-4.24994833">
        <ele>229.0</ele>
        <time>2018-05-19T06:33:49.881Z</time>
      </trkpt>
      <trkpt lat="43.286875" lon="-4.24994833">
        <ele>229.0</ele>
        <time>2018-05-19T06:33:50.874Z</time>
      </trkpt>
      <trkpt lat="43.28688" lon="-4.24996833">
        <ele>229.0</ele>
        <time>2018-05-19T06:33:51.880Z</time>
      </trkpt>
      <trkpt lat="43.28688" lon="-4.24996833">
        <ele>229.0</ele>
        <time>2018-05-19T06:33:52.875Z</time>
      </trkpt>
      <trkpt lat="43.28688333" lon="-4.24999">
        <ele>229.0</ele>
        <time>2018-05-19T06:33:53.880Z</time>
      </trkpt>
      <trkpt lat="43.28688333" lon="-4.24999">
        <ele>229.0</ele>
        <time>2018-05-19T06:33:54.875Z</time>
      </trkpt>
      <trkpt lat="43.28687833" lon="-4.25002333">
        <ele>230.0</ele>
        <time>2018-05-19T06:33:55.857Z</time>
      </trkpt>
      <trkpt lat="43.28687833" lon="-4.25004167">
        <ele>230.0</ele>
        <time>2018-05-19T06:33:56.884Z</time>
      </trkpt>
      <trkpt lat="43.28687833" lon="-4.25006167">
        <ele>230.0</ele>
        <time>2018-05-19T06:33:57.880Z</time>
      </trkpt>
      <trkpt lat="43.28687833" lon="-4.25006167">
        <ele>230.0</ele>
        <time>2018-05-19T06:33:58.875Z</time>
      </trkpt>
      <trkpt lat="43.28687667" lon="-4.25009667">
        <ele>230.0</ele>
        <time>2018-05-19T06:33:59.876Z</time>
      </trkpt>
      <trkpt lat="43.28687667" lon="-4.25011333">
        <ele>231.0</ele>
        <time>2018-05-19T06:34:00.856Z</time>
      </trkpt>
      <trkpt lat="43.286875" lon="-4.25012667">
        <ele>231.0</ele>
        <time>2018-05-19T06:34:01.883Z</time>
      </trkpt>
      <trkpt lat="43.286875" lon="-4.25012667">
        <ele>231.0</ele>
        <time>2018-05-19T06:34:02.872Z</time>
      </trkpt>
      <trkpt lat="43.28687167" lon="-4.25015667">
        <ele>231.0</ele>
        <time>2018-05-19T06:34:03.879Z</time>
      </trkpt>
      <trkpt lat="43.28687167" lon="-4.25015667">
        <ele>231.0</ele>
        <time>2018-05-19T06:34:04.874Z</time>
      </trkpt>
      <trkpt lat="43.28687" lon="-4.25019">
        <ele>232.0</ele>
        <time>2018-05-19T06:34:05.881Z</time>
      </trkpt>
      <trkpt lat="43.28687" lon="-4.25019">
        <ele>232.0</ele>
        <time>2018-05-19T06:34:06.874Z</time>
      </trkpt>
      <trkpt lat="43.286865" lon="-4.25021667">
        <ele>232.0</ele>
        <time>2018-05-19T06:34:07.883Z</time>
      </trkpt>
      <trkpt lat="43.286865" lon="-4.25021667">
        <ele>232.0</ele>
        <time>2018-05-19T06:34:08.874Z</time>
      </trkpt>
      <trkpt lat="43.28685667" lon="-4.25023833">
        <ele>233.0</ele>
        <time>2018-05-19T06:34:09.881Z</time>
      </trkpt>
      <trkpt lat="43.28685667" lon="-4.25023833">
        <ele>233.0</ele>
        <time>2018-05-19T06:34:10.876Z</time>
      </trkpt>
      <trkpt lat="43.28685" lon="-4.25026333">
        <ele>233.0</ele>
        <time>2018-05-19T06:34:11.881Z</time>
      </trkpt>
      <trkpt lat="43.28685" lon="-4.25026333">
        <ele>233.0</ele>
        <time>2018-05-19T06:34:12.846Z</time>
      </trkpt>
      <trkpt lat="43.28684333" lon="-4.25028333">
        <ele>234.0</ele>
        <time>2018-05-19T06:34:13.882Z</time>
      </trkpt>
      <trkpt lat="43.28684333" lon="-4.25028333">
        <ele>234.0</ele>
        <time>2018-05-19T06:34:14.875Z</time>
      </trkpt>
      <trkpt lat="43.28683833" lon="-4.25030667">
        <ele>234.0</ele>
        <time>2018-05-19T06:34:15.881Z</time>
      </trkpt>
      <trkpt lat="43.28683833" lon="-4.25030667">
        <ele>234.0</ele>
        <time>2018-05-19T06:34:16.876Z</time>
      </trkpt>
      <trkpt lat="43.28683167" lon="-4.25032833">
        <ele>235.0</ele>
        <time>2018-05-19T06:34:17.881Z</time>
      </trkpt>
      <trkpt lat="43.28683167" lon="-4.25032833">
        <ele>235.0</ele>
        <time>2018-05-19T06:34:18.878Z</time>
      </trkpt>
      <trkpt lat="43.286825" lon="-4.25035333">
        <ele>235.0</ele>
        <time>2018-05-19T06:34:19.882Z</time>
      </trkpt>
      <trkpt lat="43.286825" lon="-4.25035333">
        <ele>235.0</ele>
        <time>2018-05-19T06:34:20.876Z</time>
      </trkpt>
      <trkpt lat="43.28681667" lon="-4.25037167">
        <ele>235.0</ele>
        <time>2018-05-19T06:34:21.881Z</time>
      </trkpt>
      <trkpt lat="43.28681667" lon="-4.25037167">
        <ele>235.0</ele>
        <time>2018-05-19T06:34:22.876Z</time>
      </trkpt>
      <trkpt lat="43.28681333" lon="-4.25039667">
        <ele>236.0</ele>
        <time>2018-05-19T06:34:23.881Z</time>
      </trkpt>
      <trkpt lat="43.28681333" lon="-4.25039667">
        <ele>236.0</ele>
        <time>2018-05-19T06:34:24.876Z</time>
      </trkpt>
      <trkpt lat="43.28681167" lon="-4.25042">
        <ele>236.0</ele>
        <time>2018-05-19T06:34:25.873Z</time>
      </trkpt>
      <trkpt lat="43.28681" lon="-4.25044167">
        <ele>236.0</ele>
        <time>2018-05-19T06:34:26.881Z</time>
      </trkpt>
      <trkpt lat="43.28681" lon="-4.25044167">
        <ele>236.0</ele>
        <time>2018-05-19T06:34:27.875Z</time>
      </trkpt>
      <trkpt lat="43.2868" lon="-4.25046333">
        <ele>237.0</ele>
        <time>2018-05-19T06:34:28.863Z</time>
      </trkpt>
      <trkpt lat="43.28679667" lon="-4.25047833">
        <ele>237.0</ele>
        <time>2018-05-19T06:34:29.855Z</time>
      </trkpt>
      <trkpt lat="43.28679667" lon="-4.25047833">
        <ele>237.0</ele>
        <time>2018-05-19T06:34:30.844Z</time>
      </trkpt>
      <trkpt lat="43.28678833" lon="-4.25050167">
        <ele>238.0</ele>
        <time>2018-05-19T06:34:31.845Z</time>
      </trkpt>
      <trkpt lat="43.28678833" lon="-4.25050167">
        <ele>238.0</ele>
        <time>2018-05-19T06:34:32.883Z</time>
      </trkpt>
      <trkpt lat="43.28678333" lon="-4.25052">
        <ele>238.0</ele>
        <time>2018-05-19T06:34:33.844Z</time>
      </trkpt>
      <trkpt lat="43.28678" lon="-4.25053">
        <ele>239.0</ele>
        <time>2018-05-19T06:34:34.882Z</time>
      </trkpt>
      <trkpt lat="43.28678" lon="-4.25053">
        <ele>239.0</ele>
        <time>2018-05-19T06:34:35.849Z</time>
      </trkpt>
      <trkpt lat="43.28677333" lon="-4.25054833">
        <ele>239.0</ele>
        <time>2018-05-19T06:34:36.844Z</time>
      </trkpt>
      <trkpt lat="43.28677" lon="-4.25055667">
        <ele>239.0</ele>
        <time>2018-05-19T06:34:37.851Z</time>
      </trkpt>
      <trkpt lat="43.28677" lon="-4.25055667">
        <ele>239.0</ele>
        <time>2018-05-19T06:34:38.866Z</time>
      </trkpt>
      <trkpt lat="43.28676" lon="-4.25056667">
        <ele>240.0</ele>
        <time>2018-05-19T06:34:39.844Z</time>
      </trkpt>
      <trkpt lat="43.28676" lon="-4.25056667">
        <ele>240.0</ele>
        <time>2018-05-19T06:34:40.879Z</time>
      </trkpt>
      <trkpt lat="43.286755" lon="-4.250585">
        <ele>240.0</ele>
        <time>2018-05-19T06:34:41.882Z</time>
      </trkpt>
      <trkpt lat="43.286755" lon="-4.250585">
        <ele>240.0</ele>
        <time>2018-05-19T06:34:42.879Z</time>
      </trkpt>
      <trkpt lat="43.28674667" lon="-4.25061">
        <ele>241.0</ele>
        <time>2018-05-19T06:34:43.880Z</time>
      </trkpt>
      <trkpt lat="43.28674667" lon="-4.25061">
        <ele>241.0</ele>
        <time>2018-05-19T06:34:44.876Z</time>
      </trkpt>
      <trkpt lat="43.286735" lon="-4.250635">
        <ele>241.0</ele>
        <time>2018-05-19T06:34:45.878Z</time>
      </trkpt>
      <trkpt lat="43.286735" lon="-4.250635">
        <ele>241.0</ele>
        <time>2018-05-19T06:34:46.877Z</time>
      </trkpt>
      <trkpt lat="43.28672167" lon="-4.25066">
        <ele>241.0</ele>
        <time>2018-05-19T06:34:47.846Z</time>
      </trkpt>
      <trkpt lat="43.28672167" lon="-4.25066">
        <ele>241.0</ele>
        <time>2018-05-19T06:34:48.883Z</time>
      </trkpt>
      <trkpt lat="43.28670833" lon="-4.25068833">
        <ele>242.0</ele>
        <time>2018-05-19T06:34:49.880Z</time>
      </trkpt>
      <trkpt lat="43.28670833" lon="-4.25068833">
        <ele>242.0</ele>
        <time>2018-05-19T06:34:50.876Z</time>
      </trkpt>
      <trkpt lat="43.2867" lon="-4.25072167">
        <ele>242.0</ele>
        <time>2018-05-19T06:34:51.882Z</time>
      </trkpt>
      <trkpt lat="43.2867" lon="-4.25072167">
        <ele>242.0</ele>
        <time>2018-05-19T06:34:52.878Z</time>
      </trkpt>
      <trkpt lat="43.28669" lon="-4.25074667">
        <ele>243.0</ele>
        <time>2018-05-19T06:34:53.881Z</time>
      </trkpt>
      <trkpt lat="43.28669" lon="-4.25074667">
        <ele>243.0</ele>
        <time>2018-05-19T06:34:54.875Z</time>
      </trkpt>
      <trkpt lat="43.28668167" lon="-4.25077667">
        <ele>244.0</ele>
        <time>2018-05-19T06:34:55.844Z</time>
      </trkpt>
      <trkpt lat="43.28668167" lon="-4.25077667">
        <ele>244.0</ele>
        <time>2018-05-19T06:34:56.876Z</time>
      </trkpt>
      <trkpt lat="43.28666833" lon="-4.25082">
        <ele>244.0</ele>
        <time>2018-05-19T06:34:57.879Z</time>
      </trkpt>
      <trkpt lat="43.28666833" lon="-4.25082">
        <ele>244.0</ele>
        <time>2018-05-19T06:34:58.876Z</time>
      </trkpt>
      <trkpt lat="43.286655" lon="-4.25086">
        <ele>245.0</ele>
        <time>2018-05-19T06:34:59.880Z</time>
      </trkpt>
      <trkpt lat="43.286655" lon="-4.25086">
        <ele>245.0</ele>
        <time>2018-05-19T06:35:00.873Z</time>
      </trkpt>
      <trkpt lat="43.28664667" lon="-4.25089667">
        <ele>245.0</ele>
        <time>2018-05-19T06:35:01.881Z</time>
      </trkpt>
      <trkpt lat="43.286645" lon="-4.25091333">
        <ele>246.0</ele>
        <time>2018-05-19T06:35:02.881Z</time>
      </trkpt>
      <trkpt lat="43.286645" lon="-4.25091333">
        <ele>246.0</ele>
        <time>2018-05-19T06:35:03.877Z</time>
      </trkpt>
      <trkpt lat="43.28663833" lon="-4.25093833">
        <ele>246.0</ele>
        <time>2018-05-19T06:35:04.880Z</time>
      </trkpt>
      <trkpt lat="43.28663833" lon="-4.25093833">
        <ele>246.0</ele>
        <time>2018-05-19T06:35:05.880Z</time>
      </trkpt>
      <trkpt lat="43.28663333" lon="-4.25096333">
        <ele>246.0</ele>
        <time>2018-05-19T06:35:06.880Z</time>
      </trkpt>
      <trkpt lat="43.28663333" lon="-4.25096333">
        <ele>246.0</ele>
        <time>2018-05-19T06:35:07.880Z</time>
      </trkpt>
      <trkpt lat="43.28663" lon="-4.250995">
        <ele>246.0</ele>
        <time>2018-05-19T06:35:08.879Z</time>
      </trkpt>
      <trkpt lat="43.28663" lon="-4.25101">
        <ele>246.0</ele>
        <time>2018-05-19T06:35:09.878Z</time>
      </trkpt>
      <trkpt lat="43.28663" lon="-4.25101">
        <ele>246.0</ele>
        <time>2018-05-19T06:35:10.882Z</time>
      </trkpt>
      <trkpt lat="43.28662833" lon="-4.25103833">
        <ele>247.0</ele>
        <time>2018-05-19T06:35:11.880Z</time>
      </trkpt>
      <trkpt lat="43.28662833" lon="-4.25103833">
        <ele>247.0</ele>
        <time>2018-05-19T06:35:12.876Z</time>
      </trkpt>
      <trkpt lat="43.28663167" lon="-4.25106833">
        <ele>247.0</ele>
        <time>2018-05-19T06:35:13.881Z</time>
      </trkpt>
      <trkpt lat="43.28663167" lon="-4.25106833">
        <ele>247.0</ele>
        <time>2018-05-19T06:35:14.876Z</time>
      </trkpt>
      <trkpt lat="43.286635" lon="-4.25109667">
        <ele>247.0</ele>
        <time>2018-05-19T06:35:15.879Z</time>
      </trkpt>
      <trkpt lat="43.286635" lon="-4.25111">
        <ele>247.0</ele>
        <time>2018-05-19T06:35:16.880Z</time>
      </trkpt>
      <trkpt lat="43.286635" lon="-4.25111">
        <ele>247.0</ele>
        <time>2018-05-19T06:35:17.876Z</time>
      </trkpt>
      <trkpt lat="43.28664" lon="-4.25114">
        <ele>247.0</ele>
        <time>2018-05-19T06:35:18.844Z</time>
      </trkpt>
      <trkpt lat="43.28664167" lon="-4.251155">
        <ele>247.0</ele>
        <time>2018-05-19T06:35:19.880Z</time>
      </trkpt>
      <trkpt lat="43.28664167" lon="-4.251155">
        <ele>247.0</ele>
        <time>2018-05-19T06:35:20.878Z</time>
      </trkpt>
      <trkpt lat="43.28664833" lon="-4.25118667">
        <ele>248.0</ele>
        <time>2018-05-19T06:35:21.880Z</time>
      </trkpt>
      <trkpt lat="43.28664833" lon="-4.25118667">
        <ele>248.0</ele>
        <time>2018-05-19T06:35:22.874Z</time>
      </trkpt>
      <trkpt lat="43.286655" lon="-4.25121667">
        <ele>248.0</ele>
        <time>2018-05-19T06:35:23.880Z</time>
      </trkpt>
      <trkpt lat="43.286655" lon="-4.25121667">
        <ele>248.0</ele>
        <time>2018-05-19T06:35:24.873Z</time>
      </trkpt>
      <trkpt lat="43.286655" lon="-4.25124333">
        <ele>249.0</ele>
        <time>2018-05-19T06:35:25.872Z</time>
      </trkpt>
      <trkpt lat="43.28665833" lon="-4.25125667">
        <ele>249.0</ele>
        <time>2018-05-19T06:35:26.879Z</time>
      </trkpt>
      <trkpt lat="43.28665833" lon="-4.25125667">
        <ele>249.0</ele>
        <time>2018-05-19T06:35:27.874Z</time>
      </trkpt>
      <trkpt lat="43.28666333" lon="-4.25128833">
        <ele>249.0</ele>
        <time>2018-05-19T06:35:28.879Z</time>
      </trkpt>
      <trkpt lat="43.286665" lon="-4.25130333">
        <ele>250.0</ele>
        <time>2018-05-19T06:35:29.879Z</time>
      </trkpt>
      <trkpt lat="43.286665" lon="-4.25130333">
        <ele>250.0</ele>
        <time>2018-05-19T06:35:30.876Z</time>
      </trkpt>
      <trkpt lat="43.28666667" lon="-4.25133333">
        <ele>250.0</ele>
        <time>2018-05-19T06:35:31.881Z</time>
      </trkpt>
      <trkpt lat="43.28666667" lon="-4.25133333">
        <ele>250.0</ele>
        <time>2018-05-19T06:35:32.875Z</time>
      </trkpt>
      <trkpt lat="43.28667667" lon="-4.25135833">
        <ele>250.0</ele>
        <time>2018-05-19T06:35:33.880Z</time>
      </trkpt>
      <trkpt lat="43.28667667" lon="-4.25135833">
        <ele>250.0</ele>
        <time>2018-05-19T06:35:34.876Z</time>
      </trkpt>
      <trkpt lat="43.286685" lon="-4.25138667">
        <ele>250.0</ele>
        <time>2018-05-19T06:35:35.881Z</time>
      </trkpt>
      <trkpt lat="43.286685" lon="-4.25138667">
        <ele>250.0</ele>
        <time>2018-05-19T06:35:36.875Z</time>
      </trkpt>
      <trkpt lat="43.28669333" lon="-4.25141667">
        <ele>250.0</ele>
        <time>2018-05-19T06:35:37.880Z</time>
      </trkpt>
      <trkpt lat="43.28669333" lon="-4.25141667">
        <ele>250.0</ele>
        <time>2018-05-19T06:35:38.874Z</time>
      </trkpt>
      <trkpt lat="43.28670167" lon="-4.25144667">
        <ele>251.0</ele>
        <time>2018-05-19T06:35:39.881Z</time>
      </trkpt>
      <trkpt lat="43.28670167" lon="-4.25144667">
        <ele>251.0</ele>
        <time>2018-05-19T06:35:40.877Z</time>
      </trkpt>
      <trkpt lat="43.28670833" lon="-4.251475">
        <ele>251.0</ele>
        <time>2018-05-19T06:35:41.881Z</time>
      </trkpt>
      <trkpt lat="43.28670833" lon="-4.251475">
        <ele>251.0</ele>
        <time>2018-05-19T06:35:42.876Z</time>
      </trkpt>
      <trkpt lat="43.28671667" lon="-4.25150333">
        <ele>251.0</ele>
        <time>2018-05-19T06:35:43.881Z</time>
      </trkpt>
      <trkpt lat="43.28671667" lon="-4.25150333">
        <ele>251.0</ele>
        <time>2018-05-19T06:35:44.875Z</time>
      </trkpt>
      <trkpt lat="43.28672333" lon="-4.251535">
        <ele>251.0</ele>
        <time>2018-05-19T06:35:45.852Z</time>
      </trkpt>
      <trkpt lat="43.28672333" lon="-4.251535">
        <ele>251.0</ele>
        <time>2018-05-19T06:35:46.877Z</time>
      </trkpt>
      <trkpt lat="43.28673833" lon="-4.25156333">
        <ele>252.0</ele>
        <time>2018-05-19T06:35:47.881Z</time>
      </trkpt>
      <trkpt lat="43.28673833" lon="-4.25156333">
        <ele>252.0</ele>
        <time>2018-05-19T06:35:48.874Z</time>
      </trkpt>
      <trkpt lat="43.28675167" lon="-4.251595">
        <ele>252.0</ele>
        <time>2018-05-19T06:35:49.881Z</time>
      </trkpt>
      <trkpt lat="43.28675167" lon="-4.251595">
        <ele>252.0</ele>
        <time>2018-05-19T06:35:50.876Z</time>
      </trkpt>
      <trkpt lat="43.28676333" lon="-4.251625">
        <ele>252.0</ele>
        <time>2018-05-19T06:35:51.879Z</time>
      </trkpt>
      <trkpt lat="43.28676333" lon="-4.251625">
        <ele>252.0</ele>
        <time>2018-05-19T06:35:52.873Z</time>
      </trkpt>
      <trkpt lat="43.286775" lon="-4.25165333">
        <ele>252.0</ele>
        <time>2018-05-19T06:35:53.880Z</time>
      </trkpt>
      <trkpt lat="43.286775" lon="-4.25165333">
        <ele>252.0</ele>
        <time>2018-05-19T06:35:54.874Z</time>
      </trkpt>
      <trkpt lat="43.28678833" lon="-4.251675">
        <ele>252.0</ele>
        <time>2018-05-19T06:35:55.882Z</time>
      </trkpt>
      <trkpt lat="43.28678833" lon="-4.251675">
        <ele>252.0</ele>
        <time>2018-05-19T06:35:56.852Z</time>
      </trkpt>
      <trkpt lat="43.28680167" lon="-4.25169833">
        <ele>252.0</ele>
        <time>2018-05-19T06:35:57.879Z</time>
      </trkpt>
      <trkpt lat="43.28680167" lon="-4.25169833">
        <ele>252.0</ele>
        <time>2018-05-19T06:35:58.874Z</time>
      </trkpt>
      <trkpt lat="43.28681833" lon="-4.25172333">
        <ele>252.0</ele>
        <time>2018-05-19T06:35:59.881Z</time>
      </trkpt>
      <trkpt lat="43.286825" lon="-4.25174">
        <ele>252.0</ele>
        <time>2018-05-19T06:36:00.880Z</time>
      </trkpt>
      <trkpt lat="43.286825" lon="-4.25174">
        <ele>252.0</ele>
        <time>2018-05-19T06:36:01.875Z</time>
      </trkpt>
      <trkpt lat="43.28683667" lon="-4.251765">
        <ele>252.0</ele>
        <time>2018-05-19T06:36:02.879Z</time>
      </trkpt>
      <trkpt lat="43.28684" lon="-4.25178167">
        <ele>253.0</ele>
        <time>2018-05-19T06:36:03.880Z</time>
      </trkpt>
      <trkpt lat="43.28684" lon="-4.25178167">
        <ele>253.0</ele>
        <time>2018-05-19T06:36:04.876Z</time>
      </trkpt>
      <trkpt lat="43.28685333" lon="-4.25181833">
        <ele>253.0</ele>
        <time>2018-05-19T06:36:05.882Z</time>
      </trkpt>
      <trkpt lat="43.28685333" lon="-4.25181833">
        <ele>253.0</ele>
        <time>2018-05-19T06:36:06.875Z</time>
      </trkpt>
      <trkpt lat="43.286865" lon="-4.25184333">
        <ele>253.0</ele>
        <time>2018-05-19T06:36:07.846Z</time>
      </trkpt>
      <trkpt lat="43.286865" lon="-4.25184333">
        <ele>253.0</ele>
        <time>2018-05-19T06:36:08.875Z</time>
      </trkpt>
      <trkpt lat="43.28687167" lon="-4.25186833">
        <ele>254.0</ele>
        <time>2018-05-19T06:36:09.880Z</time>
      </trkpt>
      <trkpt lat="43.28687167" lon="-4.25186833">
        <ele>254.0</ele>
        <time>2018-05-19T06:36:10.877Z</time>
      </trkpt>
      <trkpt lat="43.28688" lon="-4.25187833">
        <ele>254.0</ele>
        <time>2018-05-19T06:36:11.864Z</time>
      </trkpt>
      <trkpt lat="43.28688" lon="-4.25187833">
        <ele>254.0</ele>
        <time>2018-05-19T06:36:12.848Z</time>
      </trkpt>
      <trkpt lat="43.28689167" lon="-4.25191333">
        <ele>254.0</ele>
        <time>2018-05-19T06:36:13.881Z</time>
      </trkpt>
      <trkpt lat="43.28689167" lon="-4.25191333">
        <ele>254.0</ele>
        <time>2018-05-19T06:36:14.876Z</time>
      </trkpt>
      <trkpt lat="43.28692167" lon="-4.25195833">
        <ele>254.0</ele>
        <time>2018-05-19T06:36:15.880Z</time>
      </trkpt>
      <trkpt lat="43.28692167" lon="-4.25195833">
        <ele>254.0</ele>
        <time>2018-05-19T06:36:16.874Z</time>
      </trkpt>
      <trkpt lat="43.286965" lon="-4.252015">
        <ele>255.0</ele>
        <time>2018-05-19T06:36:17.881Z</time>
      </trkpt>
      <trkpt lat="43.28699333" lon="-4.25204333">
        <ele>255.0</ele>
        <time>2018-05-19T06:36:18.880Z</time>
      </trkpt>
      <trkpt lat="43.28699333" lon="-4.25204333">
        <ele>255.0</ele>
        <time>2018-05-19T06:36:19.875Z</time>
      </trkpt>
      <trkpt lat="43.287055" lon="-4.25210167">
        <ele>255.0</ele>
        <time>2018-05-19T06:36:20.880Z</time>
      </trkpt>
      <trkpt lat="43.287055" lon="-4.25210167">
        <ele>255.0</ele>
        <time>2018-05-19T06:36:21.876Z</time>
      </trkpt>
      <trkpt lat="43.28711667" lon="-4.25215833">
        <ele>255.0</ele>
        <time>2018-05-19T06:36:22.882Z</time>
      </trkpt>
      <trkpt lat="43.28711667" lon="-4.25215833">
        <ele>255.0</ele>
        <time>2018-05-19T06:36:23.879Z</time>
      </trkpt>
      <trkpt lat="43.28718167" lon="-4.25220333">
        <ele>256.0</ele>
        <time>2018-05-19T06:36:24.881Z</time>
      </trkpt>
      <trkpt lat="43.287215" lon="-4.25222333">
        <ele>256.0</ele>
        <time>2018-05-19T06:36:25.880Z</time>
      </trkpt>
      <trkpt lat="43.287215" lon="-4.25222333">
        <ele>256.0</ele>
        <time>2018-05-19T06:36:26.874Z</time>
      </trkpt>
      <trkpt lat="43.28728833" lon="-4.25225667">
        <ele>256.0</ele>
        <time>2018-05-19T06:36:27.880Z</time>
      </trkpt>
      <trkpt lat="43.28728833" lon="-4.25225667">
        <ele>256.0</ele>
        <time>2018-05-19T06:36:28.874Z</time>
      </trkpt>
      <trkpt lat="43.28736167" lon="-4.25228333">
        <ele>256.0</ele>
        <time>2018-05-19T06:36:29.881Z</time>
      </trkpt>
      <trkpt lat="43.28736167" lon="-4.25228333">
        <ele>256.0</ele>
        <time>2018-05-19T06:36:30.878Z</time>
      </trkpt>
      <trkpt lat="43.28742667" lon="-4.25231">
        <ele>257.0</ele>
        <time>2018-05-19T06:36:31.881Z</time>
      </trkpt>
      <trkpt lat="43.28745333" lon="-4.25232833">
        <ele>257.0</ele>
        <time>2018-05-19T06:36:32.882Z</time>
      </trkpt>
      <trkpt lat="43.28747667" lon="-4.25234">
        <ele>257.0</ele>
        <time>2018-05-19T06:36:33.880Z</time>
      </trkpt>
      <trkpt lat="43.28747667" lon="-4.25234">
        <ele>257.0</ele>
        <time>2018-05-19T06:36:34.876Z</time>
      </trkpt>
      <trkpt lat="43.287525" lon="-4.25237333">
        <ele>258.0</ele>
        <time>2018-05-19T06:36:35.863Z</time>
      </trkpt>
      <trkpt lat="43.28754667" lon="-4.252395">
        <ele>258.0</ele>
        <time>2018-05-19T06:36:36.848Z</time>
      </trkpt>
      <trkpt lat="43.28757" lon="-4.25241667">
        <ele>258.0</ele>
        <time>2018-05-19T06:36:37.882Z</time>
      </trkpt>
      <trkpt lat="43.28757" lon="-4.25241667">
        <ele>258.0</ele>
        <time>2018-05-19T06:36:38.877Z</time>
      </trkpt>
      <trkpt lat="43.28762" lon="-4.25245333">
        <ele>259.0</ele>
        <time>2018-05-19T06:36:39.881Z</time>
      </trkpt>
      <trkpt lat="43.28762" lon="-4.25245333">
        <ele>259.0</ele>
        <time>2018-05-19T06:36:40.874Z</time>
      </trkpt>
      <trkpt lat="43.28766667" lon="-4.25250333">
        <ele>259.0</ele>
        <time>2018-05-19T06:36:41.863Z</time>
      </trkpt>
      <trkpt lat="43.28769" lon="-4.25253">
        <ele>259.0</ele>
        <time>2018-05-19T06:36:42.849Z</time>
      </trkpt>
      <trkpt lat="43.28771167" lon="-4.25256">
        <ele>260.0</ele>
        <time>2018-05-19T06:36:43.880Z</time>
      </trkpt>
      <trkpt lat="43.28771167" lon="-4.25256">
        <ele>260.0</ele>
        <time>2018-05-19T06:36:44.874Z</time>
      </trkpt>
      <trkpt lat="43.28774333" lon="-4.25263167">
        <ele>261.0</ele>
        <time>2018-05-19T06:36:45.853Z</time>
      </trkpt>
      <trkpt lat="43.28774333" lon="-4.25263167">
        <ele>261.0</ele>
        <time>2018-05-19T06:36:46.874Z</time>
      </trkpt>
      <trkpt lat="43.28776167" lon="-4.25272333">
        <ele>263.0</ele>
        <time>2018-05-19T06:36:47.876Z</time>
      </trkpt>
      <trkpt lat="43.28776167" lon="-4.25272333">
        <ele>263.0</ele>
        <time>2018-05-19T06:36:48.876Z</time>
      </trkpt>
      <trkpt lat="43.28778167" lon="-4.25280333">
        <ele>263.0</ele>
        <time>2018-05-19T06:36:49.881Z</time>
      </trkpt>
      <trkpt lat="43.28778167" lon="-4.25280333">
        <ele>263.0</ele>
        <time>2018-05-19T06:36:50.871Z</time>
      </trkpt>
      <trkpt lat="43.28779833" lon="-4.25288833">
        <ele>264.0</ele>
        <time>2018-05-19T06:36:51.858Z</time>
      </trkpt>
      <trkpt lat="43.28779833" lon="-4.25293667">
        <ele>265.0</ele>
        <time>2018-05-19T06:36:52.880Z</time>
      </trkpt>
      <trkpt lat="43.28779833" lon="-4.25293667">
        <ele>265.0</ele>
        <time>2018-05-19T06:36:53.874Z</time>
      </trkpt>
      <trkpt lat="43.28778167" lon="-4.25303333">
        <ele>265.0</ele>
        <time>2018-05-19T06:36:54.880Z</time>
      </trkpt>
      <trkpt lat="43.28777167" lon="-4.25308333">
        <ele>265.0</ele>
        <time>2018-05-19T06:36:55.880Z</time>
      </trkpt>
      <trkpt lat="43.28777167" lon="-4.25308333">
        <ele>265.0</ele>
        <time>2018-05-19T06:36:56.874Z</time>
      </trkpt>
      <trkpt lat="43.28773333" lon="-4.25317167">
        <ele>265.0</ele>
        <time>2018-05-19T06:36:57.880Z</time>
      </trkpt>
      <trkpt lat="43.28773333" lon="-4.25317167">
        <ele>265.0</ele>
        <time>2018-05-19T06:36:58.873Z</time>
      </trkpt>
      <trkpt lat="43.28768167" lon="-4.25324167">
        <ele>266.0</ele>
        <time>2018-05-19T06:36:59.879Z</time>
      </trkpt>
      <trkpt lat="43.28768167" lon="-4.25324167">
        <ele>266.0</ele>
        <time>2018-05-19T06:37:00.876Z</time>
      </trkpt>
      <trkpt lat="43.28761833" lon="-4.25330833">
        <ele>266.0</ele>
        <time>2018-05-19T06:37:01.883Z</time>
      </trkpt>
      <trkpt lat="43.28758667" lon="-4.25334">
        <ele>266.0</ele>
        <time>2018-05-19T06:37:02.880Z</time>
      </trkpt>
      <trkpt lat="43.287555" lon="-4.25337333">
        <ele>266.0</ele>
        <time>2018-05-19T06:37:03.879Z</time>
      </trkpt>
      <trkpt lat="43.287555" lon="-4.25337333">
        <ele>266.0</ele>
        <time>2018-05-19T06:37:04.874Z</time>
      </trkpt>
      <trkpt lat="43.287505" lon="-4.25344833">
        <ele>266.0</ele>
        <time>2018-05-19T06:37:05.849Z</time>
      </trkpt>
      <trkpt lat="43.28747667" lon="-4.25348333">
        <ele>266.0</ele>
        <time>2018-05-19T06:37:06.878Z</time>
      </trkpt>
      <trkpt lat="43.28744167" lon="-4.25351333">
        <ele>266.0</ele>
        <time>2018-05-19T06:37:07.882Z</time>
      </trkpt>
      <trkpt lat="43.28744167" lon="-4.25351333">
        <ele>266.0</ele>
        <time>2018-05-19T06:37:08.871Z</time>
      </trkpt>
      <trkpt lat="43.28737833" lon="-4.25358167">
        <ele>267.0</ele>
        <time>2018-05-19T06:37:09.882Z</time>
      </trkpt>
      <trkpt lat="43.28737833" lon="-4.25358167">
        <ele>267.0</ele>
        <time>2018-05-19T06:37:10.874Z</time>
      </trkpt>
      <trkpt lat="43.28734" lon="-4.25366833">
        <ele>268.0</ele>
        <time>2018-05-19T06:37:11.880Z</time>
      </trkpt>
      <trkpt lat="43.28734" lon="-4.25366833">
        <ele>268.0</ele>
        <time>2018-05-19T06:37:12.874Z</time>
      </trkpt>
      <trkpt lat="43.287325" lon="-4.25376167">
        <ele>269.0</ele>
        <time>2018-05-19T06:37:13.882Z</time>
      </trkpt>
      <trkpt lat="43.287325" lon="-4.25376167">
        <ele>269.0</ele>
        <time>2018-05-19T06:37:14.874Z</time>
      </trkpt>
      <trkpt lat="43.28733167" lon="-4.25386">
        <ele>269.0</ele>
        <time>2018-05-19T06:37:15.879Z</time>
      </trkpt>
      <trkpt lat="43.28733167" lon="-4.25386">
        <ele>269.0</ele>
        <time>2018-05-19T06:37:16.875Z</time>
      </trkpt>
      <trkpt lat="43.28734833" lon="-4.25395333">
        <ele>270.0</ele>
        <time>2018-05-19T06:37:17.880Z</time>
      </trkpt>
      <trkpt lat="43.28734833" lon="-4.25395333">
        <ele>270.0</ele>
        <time>2018-05-19T06:37:18.876Z</time>
      </trkpt>
      <trkpt lat="43.287375" lon="-4.25403167">
        <ele>270.0</ele>
        <time>2018-05-19T06:37:19.880Z</time>
      </trkpt>
      <trkpt lat="43.28739167" lon="-4.25407">
        <ele>270.0</ele>
        <time>2018-05-19T06:37:20.880Z</time>
      </trkpt>
      <trkpt lat="43.28739167" lon="-4.25407">
        <ele>270.0</ele>
        <time>2018-05-19T06:37:21.874Z</time>
      </trkpt>
      <trkpt lat="43.28742667" lon="-4.25415">
        <ele>271.0</ele>
        <time>2018-05-19T06:37:22.879Z</time>
      </trkpt>
      <trkpt lat="43.28742667" lon="-4.25415">
        <ele>271.0</ele>
        <time>2018-05-19T06:37:23.879Z</time>
      </trkpt>
      <trkpt lat="43.28746167" lon="-4.25425167">
        <ele>271.0</ele>
        <time>2018-05-19T06:37:24.880Z</time>
      </trkpt>
      <trkpt lat="43.28746167" lon="-4.25425167">
        <ele>271.0</ele>
        <time>2018-05-19T06:37:25.870Z</time>
      </trkpt>
      <trkpt lat="43.28749833" lon="-4.25436167">
        <ele>272.0</ele>
        <time>2018-05-19T06:37:26.880Z</time>
      </trkpt>
      <trkpt lat="43.28751667" lon="-4.25442">
        <ele>272.0</ele>
        <time>2018-05-19T06:37:27.879Z</time>
      </trkpt>
      <trkpt lat="43.28751667" lon="-4.25442">
        <ele>272.0</ele>
        <time>2018-05-19T06:37:28.876Z</time>
      </trkpt>
      <trkpt lat="43.287555" lon="-4.25453167">
        <ele>272.0</ele>
        <time>2018-05-19T06:37:29.862Z</time>
      </trkpt>
      <trkpt lat="43.287555" lon="-4.25453167">
        <ele>272.0</ele>
        <time>2018-05-19T06:37:30.848Z</time>
      </trkpt>
      <trkpt lat="43.28759667" lon="-4.25465167">
        <ele>271.0</ele>
        <time>2018-05-19T06:37:31.880Z</time>
      </trkpt>
      <trkpt lat="43.28759667" lon="-4.25465167">
        <ele>271.0</ele>
        <time>2018-05-19T06:37:32.874Z</time>
      </trkpt>
      <trkpt lat="43.28764" lon="-4.25478">
        <ele>271.0</ele>
        <time>2018-05-19T06:37:33.883Z</time>
      </trkpt>
      <trkpt lat="43.28764" lon="-4.25478">
        <ele>271.0</ele>
        <time>2018-05-19T06:37:34.877Z</time>
      </trkpt>
      <trkpt lat="43.28767833" lon="-4.25490667">
        <ele>271.0</ele>
        <time>2018-05-19T06:37:35.880Z</time>
      </trkpt>
      <trkpt lat="43.28767833" lon="-4.25490667">
        <ele>271.0</ele>
        <time>2018-05-19T06:37:36.874Z</time>
      </trkpt>
      <trkpt lat="43.28772167" lon="-4.25503667">
        <ele>271.0</ele>
        <time>2018-05-19T06:37:37.880Z</time>
      </trkpt>
      <trkpt lat="43.28772167" lon="-4.25503667">
        <ele>271.0</ele>
        <time>2018-05-19T06:37:38.875Z</time>
      </trkpt>
      <trkpt lat="43.28777" lon="-4.25516">
        <ele>271.0</ele>
        <time>2018-05-19T06:37:39.879Z</time>
      </trkpt>
      <trkpt lat="43.28777" lon="-4.25516">
        <ele>271.0</ele>
        <time>2018-05-19T06:37:40.873Z</time>
      </trkpt>
      <trkpt lat="43.28780333" lon="-4.25528">
        <ele>270.0</ele>
        <time>2018-05-19T06:37:41.876Z</time>
      </trkpt>
      <trkpt lat="43.28780333" lon="-4.25528">
        <ele>270.0</ele>
        <time>2018-05-19T06:37:42.873Z</time>
      </trkpt>
      <trkpt lat="43.28782" lon="-4.25537333">
        <ele>271.0</ele>
        <time>2018-05-19T06:37:43.880Z</time>
      </trkpt>
      <trkpt lat="43.287825" lon="-4.255405">
        <ele>271.0</ele>
        <time>2018-05-19T06:37:44.881Z</time>
      </trkpt>
      <trkpt lat="43.287825" lon="-4.255405">
        <ele>271.0</ele>
        <time>2018-05-19T06:37:45.875Z</time>
      </trkpt>
      <trkpt lat="43.28783" lon="-4.25545">
        <ele>271.0</ele>
        <time>2018-05-19T06:37:46.863Z</time>
      </trkpt>
      <trkpt lat="43.28783" lon="-4.25545">
        <ele>271.0</ele>
        <time>2018-05-19T06:37:47.851Z</time>
      </trkpt>
      <trkpt lat="43.28783167" lon="-4.25548667">
        <ele>271.0</ele>
        <time>2018-05-19T06:37:48.880Z</time>
      </trkpt>
      <trkpt lat="43.28783167" lon="-4.25550333">
        <ele>271.0</ele>
        <time>2018-05-19T06:37:49.880Z</time>
      </trkpt>
      <trkpt lat="43.28783167" lon="-4.25550333">
        <ele>271.0</ele>
        <time>2018-05-19T06:37:50.873Z</time>
      </trkpt>
      <trkpt lat="43.28783" lon="-4.25553333">
        <ele>271.0</ele>
        <time>2018-05-19T06:37:51.879Z</time>
      </trkpt>
      <trkpt lat="43.28783" lon="-4.25553333">
        <ele>271.0</ele>
        <time>2018-05-19T06:37:52.874Z</time>
      </trkpt>
      <trkpt lat="43.28782833" lon="-4.25557833">
        <ele>271.0</ele>
        <time>2018-05-19T06:37:53.880Z</time>
      </trkpt>
      <trkpt lat="43.28782833" lon="-4.25557833">
        <ele>271.0</ele>
        <time>2018-05-19T06:37:54.873Z</time>
      </trkpt>
      <trkpt lat="43.28782167" lon="-4.255635">
        <ele>271.0</ele>
        <time>2018-05-19T06:37:55.862Z</time>
      </trkpt>
      <trkpt lat="43.28782167" lon="-4.255635">
        <ele>271.0</ele>
        <time>2018-05-19T06:37:56.849Z</time>
      </trkpt>
      <trkpt lat="43.28781167" lon="-4.25571">
        <ele>271.0</ele>
        <time>2018-05-19T06:37:57.880Z</time>
      </trkpt>
      <trkpt lat="43.28780833" lon="-4.25575833">
        <ele>271.0</ele>
        <time>2018-05-19T06:37:58.880Z</time>
      </trkpt>
      <trkpt lat="43.28780833" lon="-4.25575833">
        <ele>271.0</ele>
        <time>2018-05-19T06:37:59.875Z</time>
      </trkpt>
      <trkpt lat="43.287795" lon="-4.25588">
        <ele>271.0</ele>
        <time>2018-05-19T06:38:00.881Z</time>
      </trkpt>
      <trkpt lat="43.28778667" lon="-4.25595">
        <ele>271.0</ele>
        <time>2018-05-19T06:38:01.882Z</time>
      </trkpt>
      <trkpt lat="43.28778667" lon="-4.25595">
        <ele>271.0</ele>
        <time>2018-05-19T06:38:02.876Z</time>
      </trkpt>
      <trkpt lat="43.287765" lon="-4.25609667">
        <ele>271.0</ele>
        <time>2018-05-19T06:38:03.844Z</time>
      </trkpt>
      <trkpt lat="43.287765" lon="-4.25609667">
        <ele>271.0</ele>
        <time>2018-05-19T06:38:04.874Z</time>
      </trkpt>
      <trkpt lat="43.287765" lon="-4.25626333">
        <ele>270.0</ele>
        <time>2018-05-19T06:38:05.877Z</time>
      </trkpt>
      <trkpt lat="43.28778333" lon="-4.25634833">
        <ele>270.0</ele>
        <time>2018-05-19T06:38:06.880Z</time>
      </trkpt>
      <trkpt lat="43.28781333" lon="-4.25643333">
        <ele>269.0</ele>
        <time>2018-05-19T06:38:07.879Z</time>
      </trkpt>
      <trkpt lat="43.28781333" lon="-4.25643333">
        <ele>269.0</ele>
        <time>2018-05-19T06:38:08.871Z</time>
      </trkpt>
      <trkpt lat="43.28791" lon="-4.25660167">
        <ele>268.0</ele>
        <time>2018-05-19T06:38:09.879Z</time>
      </trkpt>
      <trkpt lat="43.28791" lon="-4.25660167">
        <ele>268.0</ele>
        <time>2018-05-19T06:38:10.874Z</time>
      </trkpt>
      <trkpt lat="43.28803" lon="-4.25677667">
        <ele>266.0</ele>
        <time>2018-05-19T06:38:11.880Z</time>
      </trkpt>
      <trkpt lat="43.28808667" lon="-4.25687333">
        <ele>266.0</ele>
        <time>2018-05-19T06:38:12.878Z</time>
      </trkpt>
      <trkpt lat="43.28813167" lon="-4.25698667">
        <ele>265.0</ele>
        <time>2018-05-19T06:38:13.878Z</time>
      </trkpt>
      <trkpt lat="43.28813167" lon="-4.25698667">
        <ele>265.0</ele>
        <time>2018-05-19T06:38:14.871Z</time>
      </trkpt>
      <trkpt lat="43.28819167" lon="-4.257235">
        <ele>264.0</ele>
        <time>2018-05-19T06:38:15.863Z</time>
      </trkpt>
      <trkpt lat="43.28819167" lon="-4.257235">
        <ele>264.0</ele>
        <time>2018-05-19T06:38:16.856Z</time>
      </trkpt>
      <trkpt lat="43.28822667" lon="-4.25749667">
        <ele>263.0</ele>
        <time>2018-05-19T06:38:17.845Z</time>
      </trkpt>
      <trkpt lat="43.28822667" lon="-4.25749667">
        <ele>263.0</ele>
        <time>2018-05-19T06:38:18.873Z</time>
      </trkpt>
      <trkpt lat="43.28826167" lon="-4.25773667">
        <ele>263.0</ele>
        <time>2018-05-19T06:38:19.881Z</time>
      </trkpt>
      <trkpt lat="43.28826167" lon="-4.25773667">
        <ele>263.0</ele>
        <time>2018-05-19T06:38:20.876Z</time>
      </trkpt>
      <trkpt lat="43.288295" lon="-4.257935">
        <ele>263.0</ele>
        <time>2018-05-19T06:38:21.876Z</time>
      </trkpt>
      <trkpt lat="43.288295" lon="-4.257935">
        <ele>263.0</ele>
        <time>2018-05-19T06:38:22.862Z</time>
      </trkpt>
      <trkpt lat="43.28831667" lon="-4.258115">
        <ele>263.0</ele>
        <time>2018-05-19T06:38:23.846Z</time>
      </trkpt>
      <trkpt lat="43.28831667" lon="-4.258115">
        <ele>263.0</ele>
        <time>2018-05-19T06:38:24.873Z</time>
      </trkpt>
      <trkpt lat="43.28831833" lon="-4.25830167">
        <ele>263.0</ele>
        <time>2018-05-19T06:38:25.873Z</time>
      </trkpt>
      <trkpt lat="43.28831833" lon="-4.25830167">
        <ele>263.0</ele>
        <time>2018-05-19T06:38:26.873Z</time>
      </trkpt>
      <trkpt lat="43.28829167" lon="-4.258475">
        <ele>264.0</ele>
        <time>2018-05-19T06:38:27.878Z</time>
      </trkpt>
      <trkpt lat="43.28829167" lon="-4.258475">
        <ele>264.0</ele>
        <time>2018-05-19T06:38:28.875Z</time>
      </trkpt>
      <trkpt lat="43.28825" lon="-4.25862667">
        <ele>264.0</ele>
        <time>2018-05-19T06:38:29.844Z</time>
      </trkpt>
      <trkpt lat="43.28825" lon="-4.25862667">
        <ele>264.0</ele>
        <time>2018-05-19T06:38:30.874Z</time>
      </trkpt>
      <trkpt lat="43.28820833" lon="-4.25875667">
        <ele>264.0</ele>
        <time>2018-05-19T06:38:31.881Z</time>
      </trkpt>
      <trkpt lat="43.28820833" lon="-4.25875667">
        <ele>264.0</ele>
        <time>2018-05-19T06:38:32.876Z</time>
      </trkpt>
      <trkpt lat="43.28815167" lon="-4.25885667">
        <ele>265.0</ele>
        <time>2018-05-19T06:38:33.878Z</time>
      </trkpt>
      <trkpt lat="43.28815167" lon="-4.25885667">
        <ele>265.0</ele>
        <time>2018-05-19T06:38:34.874Z</time>
      </trkpt>
      <trkpt lat="43.28810333" lon="-4.25895833">
        <ele>265.0</ele>
        <time>2018-05-19T06:38:35.877Z</time>
      </trkpt>
      <trkpt lat="43.28810333" lon="-4.25895833">
        <ele>265.0</ele>
        <time>2018-05-19T06:38:36.874Z</time>
      </trkpt>
      <trkpt lat="43.28805333" lon="-4.25905667">
        <ele>266.0</ele>
        <time>2018-05-19T06:38:37.881Z</time>
      </trkpt>
      <trkpt lat="43.28805333" lon="-4.25905667">
        <ele>266.0</ele>
        <time>2018-05-19T06:38:38.874Z</time>
      </trkpt>
      <trkpt lat="43.28800167" lon="-4.259145">
        <ele>266.0</ele>
        <time>2018-05-19T06:38:39.879Z</time>
      </trkpt>
      <trkpt lat="43.28800167" lon="-4.259145">
        <ele>266.0</ele>
        <time>2018-05-19T06:38:40.874Z</time>
      </trkpt>
      <trkpt lat="43.28795667" lon="-4.25923333">
        <ele>267.0</ele>
        <time>2018-05-19T06:38:41.880Z</time>
      </trkpt>
      <trkpt lat="43.28795667" lon="-4.25923333">
        <ele>267.0</ele>
        <time>2018-05-19T06:38:42.870Z</time>
      </trkpt>
      <trkpt lat="43.28790667" lon="-4.25932333">
        <ele>268.0</ele>
        <time>2018-05-19T06:38:43.854Z</time>
      </trkpt>
      <trkpt lat="43.28790667" lon="-4.25932333">
        <ele>268.0</ele>
        <time>2018-05-19T06:38:44.880Z</time>
      </trkpt>
      <trkpt lat="43.28786167" lon="-4.25941833">
        <ele>269.0</ele>
        <time>2018-05-19T06:38:45.852Z</time>
      </trkpt>
      <trkpt lat="43.28784" lon="-4.25946833">
        <ele>269.0</ele>
        <time>2018-05-19T06:38:46.878Z</time>
      </trkpt>
      <trkpt lat="43.28782" lon="-4.25951833">
        <ele>268.0</ele>
        <time>2018-05-19T06:38:47.880Z</time>
      </trkpt>
      <trkpt lat="43.28782" lon="-4.25951833">
        <ele>268.0</ele>
        <time>2018-05-19T06:38:48.871Z</time>
      </trkpt>
      <trkpt lat="43.287775" lon="-4.25961">
        <ele>268.0</ele>
        <time>2018-05-19T06:38:49.880Z</time>
      </trkpt>
      <trkpt lat="43.287775" lon="-4.25961">
        <ele>268.0</ele>
        <time>2018-05-19T06:38:50.873Z</time>
      </trkpt>
      <trkpt lat="43.28772833" lon="-4.259695">
        <ele>269.0</ele>
        <time>2018-05-19T06:38:51.880Z</time>
      </trkpt>
      <trkpt lat="43.28772833" lon="-4.259695">
        <ele>269.0</ele>
        <time>2018-05-19T06:38:52.873Z</time>
      </trkpt>
      <trkpt lat="43.28767333" lon="-4.25976833">
        <ele>270.0</ele>
        <time>2018-05-19T06:38:53.879Z</time>
      </trkpt>
      <trkpt lat="43.28767333" lon="-4.25976833">
        <ele>270.0</ele>
        <time>2018-05-19T06:38:54.874Z</time>
      </trkpt>
      <trkpt lat="43.28761833" lon="-4.25983167">
        <ele>270.0</ele>
        <time>2018-05-19T06:38:55.880Z</time>
      </trkpt>
      <trkpt lat="43.28761833" lon="-4.25983167">
        <ele>270.0</ele>
        <time>2018-05-19T06:38:56.873Z</time>
      </trkpt>
      <trkpt lat="43.287555" lon="-4.25988667">
        <ele>271.0</ele>
        <time>2018-05-19T06:38:57.879Z</time>
      </trkpt>
      <trkpt lat="43.287555" lon="-4.25988667">
        <ele>271.0</ele>
        <time>2018-05-19T06:38:58.873Z</time>
      </trkpt>
      <trkpt lat="43.28749667" lon="-4.259935">
        <ele>272.0</ele>
        <time>2018-05-19T06:38:59.878Z</time>
      </trkpt>
      <trkpt lat="43.28749667" lon="-4.259935">
        <ele>272.0</ele>
        <time>2018-05-19T06:39:00.874Z</time>
      </trkpt>
      <trkpt lat="43.28744" lon="-4.25998833">
        <ele>272.0</ele>
        <time>2018-05-19T06:39:01.880Z</time>
      </trkpt>
      <trkpt lat="43.28744" lon="-4.25998833">
        <ele>272.0</ele>
        <time>2018-05-19T06:39:02.874Z</time>
      </trkpt>
      <trkpt lat="43.28737667" lon="-4.26004333">
        <ele>272.0</ele>
        <time>2018-05-19T06:39:03.878Z</time>
      </trkpt>
      <trkpt lat="43.28737667" lon="-4.26004333">
        <ele>272.0</ele>
        <time>2018-05-19T06:39:04.874Z</time>
      </trkpt>
      <trkpt lat="43.287315" lon="-4.26008667">
        <ele>273.0</ele>
        <time>2018-05-19T06:39:05.878Z</time>
      </trkpt>
      <trkpt lat="43.287315" lon="-4.26008667">
        <ele>273.0</ele>
        <time>2018-05-19T06:39:06.876Z</time>
      </trkpt>
      <trkpt lat="43.28725167" lon="-4.26013333">
        <ele>274.0</ele>
        <time>2018-05-19T06:39:07.881Z</time>
      </trkpt>
      <trkpt lat="43.28725167" lon="-4.26013333">
        <ele>274.0</ele>
        <time>2018-05-19T06:39:08.870Z</time>
      </trkpt>
      <trkpt lat="43.28719667" lon="-4.26017333">
        <ele>274.0</ele>
        <time>2018-05-19T06:39:09.880Z</time>
      </trkpt>
      <trkpt lat="43.28719667" lon="-4.26017333">
        <ele>274.0</ele>
        <time>2018-05-19T06:39:10.876Z</time>
      </trkpt>
      <trkpt lat="43.287145" lon="-4.26022167">
        <ele>275.0</ele>
        <time>2018-05-19T06:39:11.878Z</time>
      </trkpt>
      <trkpt lat="43.287125" lon="-4.26024833">
        <ele>275.0</ele>
        <time>2018-05-19T06:39:12.880Z</time>
      </trkpt>
      <trkpt lat="43.287125" lon="-4.26024833">
        <ele>275.0</ele>
        <time>2018-05-19T06:39:13.876Z</time>
      </trkpt>
      <trkpt lat="43.28709333" lon="-4.26029333">
        <ele>276.0</ele>
        <time>2018-05-19T06:39:14.877Z</time>
      </trkpt>
      <trkpt lat="43.28709333" lon="-4.26029333">
        <ele>276.0</ele>
        <time>2018-05-19T06:39:15.877Z</time>
      </trkpt>
      <trkpt lat="43.28707" lon="-4.26033167">
        <ele>276.0</ele>
        <time>2018-05-19T06:39:16.878Z</time>
      </trkpt>
      <trkpt lat="43.28707" lon="-4.26033167">
        <ele>276.0</ele>
        <time>2018-05-19T06:39:17.873Z</time>
      </trkpt>
      <trkpt lat="43.287045" lon="-4.26036333">
        <ele>277.0</ele>
        <time>2018-05-19T06:39:18.872Z</time>
      </trkpt>
      <trkpt lat="43.287035" lon="-4.26038333">
        <ele>277.0</ele>
        <time>2018-05-19T06:39:19.881Z</time>
      </trkpt>
      <trkpt lat="43.287035" lon="-4.26038333">
        <ele>277.0</ele>
        <time>2018-05-19T06:39:20.874Z</time>
      </trkpt>
      <trkpt lat="43.28701333" lon="-4.260415">
        <ele>278.0</ele>
        <time>2018-05-19T06:39:21.878Z</time>
      </trkpt>
      <trkpt lat="43.28701333" lon="-4.260415">
        <ele>278.0</ele>
        <time>2018-05-19T06:39:22.876Z</time>
      </trkpt>
      <trkpt lat="43.28699667" lon="-4.26045">
        <ele>278.0</ele>
        <time>2018-05-19T06:39:23.876Z</time>
      </trkpt>
      <trkpt lat="43.28699667" lon="-4.26045">
        <ele>278.0</ele>
        <time>2018-05-19T06:39:24.872Z</time>
      </trkpt>
      <trkpt lat="43.28698333" lon="-4.26048833">
        <ele>279.0</ele>
        <time>2018-05-19T06:39:25.872Z</time>
      </trkpt>
      <trkpt lat="43.28698333" lon="-4.26048833">
        <ele>279.0</ele>
        <time>2018-05-19T06:39:26.873Z</time>
      </trkpt>
      <trkpt lat="43.28697667" lon="-4.26052833">
        <ele>279.0</ele>
        <time>2018-05-19T06:39:27.878Z</time>
      </trkpt>
      <trkpt lat="43.286975" lon="-4.260555">
        <ele>280.0</ele>
        <time>2018-05-19T06:39:28.878Z</time>
      </trkpt>
      <trkpt lat="43.286975" lon="-4.260555">
        <ele>280.0</ele>
        <time>2018-05-19T06:39:29.876Z</time>
      </trkpt>
      <trkpt lat="43.28697333" lon="-4.26061167">
        <ele>280.0</ele>
        <time>2018-05-19T06:39:30.876Z</time>
      </trkpt>
      <trkpt lat="43.28696833" lon="-4.26063833">
        <ele>281.0</ele>
        <time>2018-05-19T06:39:31.880Z</time>
      </trkpt>
      <trkpt lat="43.28696333" lon="-4.26066333">
        <ele>281.0</ele>
        <time>2018-05-19T06:39:32.880Z</time>
      </trkpt>
      <trkpt lat="43.28696333" lon="-4.26066333">
        <ele>281.0</ele>
        <time>2018-05-19T06:39:33.876Z</time>
      </trkpt>
      <trkpt lat="43.28695833" lon="-4.26071333">
        <ele>282.0</ele>
        <time>2018-05-19T06:39:34.877Z</time>
      </trkpt>
      <trkpt lat="43.28695833" lon="-4.26071333">
        <ele>282.0</ele>
        <time>2018-05-19T06:39:35.876Z</time>
      </trkpt>
      <trkpt lat="43.286955" lon="-4.26076333">
        <ele>283.0</ele>
        <time>2018-05-19T06:39:36.879Z</time>
      </trkpt>
      <trkpt lat="43.28695" lon="-4.26078833">
        <ele>283.0</ele>
        <time>2018-05-19T06:39:37.878Z</time>
      </trkpt>
      <trkpt lat="43.28695" lon="-4.26078833">
        <ele>283.0</ele>
        <time>2018-05-19T06:39:38.876Z</time>
      </trkpt>
      <trkpt lat="43.28694667" lon="-4.26084167">
        <ele>284.0</ele>
        <time>2018-05-19T06:39:39.876Z</time>
      </trkpt>
      <trkpt lat="43.28694667" lon="-4.26084167">
        <ele>284.0</ele>
        <time>2018-05-19T06:39:40.862Z</time>
      </trkpt>
      <trkpt lat="43.28694833" lon="-4.26089167">
        <ele>284.0</ele>
        <time>2018-05-19T06:39:41.847Z</time>
      </trkpt>
      <trkpt lat="43.28694833" lon="-4.26089167">
        <ele>284.0</ele>
        <time>2018-05-19T06:39:42.873Z</time>
      </trkpt>
      <trkpt lat="43.28694667" lon="-4.260945">
        <ele>285.0</ele>
        <time>2018-05-19T06:39:43.880Z</time>
      </trkpt>
      <trkpt lat="43.28694667" lon="-4.260945">
        <ele>285.0</ele>
        <time>2018-05-19T06:39:44.878Z</time>
      </trkpt>
      <trkpt lat="43.28695333" lon="-4.26099833">
        <ele>286.0</ele>
        <time>2018-05-19T06:39:45.848Z</time>
      </trkpt>
      <trkpt lat="43.28695667" lon="-4.26102333">
        <ele>286.0</ele>
        <time>2018-05-19T06:39:46.876Z</time>
      </trkpt>
      <trkpt lat="43.28695667" lon="-4.26102333">
        <ele>286.0</ele>
        <time>2018-05-19T06:39:47.873Z</time>
      </trkpt>
      <trkpt lat="43.28695833" lon="-4.26107667">
        <ele>286.0</ele>
        <time>2018-05-19T06:39:48.876Z</time>
      </trkpt>
      <trkpt lat="43.28696167" lon="-4.26110167">
        <ele>287.0</ele>
        <time>2018-05-19T06:39:49.880Z</time>
      </trkpt>
      <trkpt lat="43.28696167" lon="-4.26110167">
        <ele>287.0</ele>
        <time>2018-05-19T06:39:50.873Z</time>
      </trkpt>
      <trkpt lat="43.28697167" lon="-4.26115667">
        <ele>287.0</ele>
        <time>2018-05-19T06:39:51.879Z</time>
      </trkpt>
      <trkpt lat="43.28697167" lon="-4.26115667">
        <ele>287.0</ele>
        <time>2018-05-19T06:39:52.873Z</time>
      </trkpt>
      <trkpt lat="43.28698833" lon="-4.26121">
        <ele>288.0</ele>
        <time>2018-05-19T06:39:53.876Z</time>
      </trkpt>
      <trkpt lat="43.28698833" lon="-4.26121">
        <ele>288.0</ele>
        <time>2018-05-19T06:39:54.873Z</time>
      </trkpt>
      <trkpt lat="43.28700167" lon="-4.26126333">
        <ele>289.0</ele>
        <time>2018-05-19T06:39:55.881Z</time>
      </trkpt>
      <trkpt lat="43.28700167" lon="-4.26126333">
        <ele>289.0</ele>
        <time>2018-05-19T06:39:56.873Z</time>
      </trkpt>
      <trkpt lat="43.28700833" lon="-4.26131833">
        <ele>289.0</ele>
        <time>2018-05-19T06:39:57.878Z</time>
      </trkpt>
      <trkpt lat="43.28700833" lon="-4.26131833">
        <ele>289.0</ele>
        <time>2018-05-19T06:39:58.872Z</time>
      </trkpt>
      <trkpt lat="43.28701333" lon="-4.26137333">
        <ele>290.0</ele>
        <time>2018-05-19T06:39:59.878Z</time>
      </trkpt>
      <trkpt lat="43.28701333" lon="-4.26137333">
        <ele>290.0</ele>
        <time>2018-05-19T06:40:00.874Z</time>
      </trkpt>
      <trkpt lat="43.28701833" lon="-4.26142667">
        <ele>290.0</ele>
        <time>2018-05-19T06:40:01.880Z</time>
      </trkpt>
      <trkpt lat="43.28701833" lon="-4.26142667">
        <ele>290.0</ele>
        <time>2018-05-19T06:40:02.873Z</time>
      </trkpt>
      <trkpt lat="43.28702833" lon="-4.26147667">
        <ele>291.0</ele>
        <time>2018-05-19T06:40:03.862Z</time>
      </trkpt>
      <trkpt lat="43.28703667" lon="-4.26149667">
        <ele>291.0</ele>
        <time>2018-05-19T06:40:04.847Z</time>
      </trkpt>
      <trkpt lat="43.28703667" lon="-4.26149667">
        <ele>291.0</ele>
        <time>2018-05-19T06:40:05.875Z</time>
      </trkpt>
      <trkpt lat="43.28705167" lon="-4.26153667">
        <ele>291.0</ele>
        <time>2018-05-19T06:40:06.876Z</time>
      </trkpt>
      <trkpt lat="43.287055" lon="-4.26156333">
        <ele>291.0</ele>
        <time>2018-05-19T06:40:07.883Z</time>
      </trkpt>
      <trkpt lat="43.287055" lon="-4.26156333">
        <ele>291.0</ele>
        <time>2018-05-19T06:40:08.872Z</time>
      </trkpt>
      <trkpt lat="43.287065" lon="-4.26161333">
        <ele>291.0</ele>
        <time>2018-05-19T06:40:09.880Z</time>
      </trkpt>
      <trkpt lat="43.287065" lon="-4.26161333">
        <ele>291.0</ele>
        <time>2018-05-19T06:40:10.873Z</time>
      </trkpt>
      <trkpt lat="43.287085" lon="-4.26166167">
        <ele>292.0</ele>
        <time>2018-05-19T06:40:11.876Z</time>
      </trkpt>
      <trkpt lat="43.287085" lon="-4.26166167">
        <ele>292.0</ele>
        <time>2018-05-19T06:40:12.873Z</time>
      </trkpt>
      <trkpt lat="43.287105" lon="-4.26170833">
        <ele>293.0</ele>
        <time>2018-05-19T06:40:13.862Z</time>
      </trkpt>
      <trkpt lat="43.287105" lon="-4.26170833">
        <ele>293.0</ele>
        <time>2018-05-19T06:40:14.855Z</time>
      </trkpt>
      <trkpt lat="43.28712167" lon="-4.26175833">
        <ele>293.0</ele>
        <time>2018-05-19T06:40:15.880Z</time>
      </trkpt>
      <trkpt lat="43.28712167" lon="-4.26175833">
        <ele>293.0</ele>
        <time>2018-05-19T06:40:16.873Z</time>
      </trkpt>
      <trkpt lat="43.28714" lon="-4.26180833">
        <ele>294.0</ele>
        <time>2018-05-19T06:40:17.876Z</time>
      </trkpt>
      <trkpt lat="43.28714" lon="-4.26180833">
        <ele>294.0</ele>
        <time>2018-05-19T06:40:18.872Z</time>
      </trkpt>
      <trkpt lat="43.28716667" lon="-4.26185333">
        <ele>295.0</ele>
        <time>2018-05-19T06:40:19.880Z</time>
      </trkpt>
      <trkpt lat="43.28716667" lon="-4.26185333">
        <ele>295.0</ele>
        <time>2018-05-19T06:40:20.873Z</time>
      </trkpt>
      <trkpt lat="43.28719" lon="-4.26189833">
        <ele>295.0</ele>
        <time>2018-05-19T06:40:21.846Z</time>
      </trkpt>
      <trkpt lat="43.28719" lon="-4.26189833">
        <ele>295.0</ele>
        <time>2018-05-19T06:40:22.876Z</time>
      </trkpt>
      <trkpt lat="43.28721833" lon="-4.26194">
        <ele>296.0</ele>
        <time>2018-05-19T06:40:23.862Z</time>
      </trkpt>
      <trkpt lat="43.28723" lon="-4.26196333">
        <ele>296.0</ele>
        <time>2018-05-19T06:40:24.849Z</time>
      </trkpt>
      <trkpt lat="43.28723" lon="-4.26196333">
        <ele>296.0</ele>
        <time>2018-05-19T06:40:25.874Z</time>
      </trkpt>
      <trkpt lat="43.28725333" lon="-4.26201333">
        <ele>297.0</ele>
        <time>2018-05-19T06:40:26.876Z</time>
      </trkpt>
      <trkpt lat="43.28725333" lon="-4.26201333">
        <ele>297.0</ele>
        <time>2018-05-19T06:40:27.873Z</time>
      </trkpt>
      <trkpt lat="43.28727667" lon="-4.26205667">
        <ele>297.0</ele>
        <time>2018-05-19T06:40:28.862Z</time>
      </trkpt>
      <trkpt lat="43.28729" lon="-4.26207667">
        <ele>297.0</ele>
        <time>2018-05-19T06:40:29.845Z</time>
      </trkpt>
      <trkpt lat="43.28729" lon="-4.26207667">
        <ele>297.0</ele>
        <time>2018-05-19T06:40:30.847Z</time>
      </trkpt>
      <trkpt lat="43.28732" lon="-4.26211667">
        <ele>298.0</ele>
        <time>2018-05-19T06:40:31.881Z</time>
      </trkpt>
      <trkpt lat="43.28732" lon="-4.26211667">
        <ele>298.0</ele>
        <time>2018-05-19T06:40:32.876Z</time>
      </trkpt>
      <trkpt lat="43.28734" lon="-4.26216833">
        <ele>299.0</ele>
        <time>2018-05-19T06:40:33.879Z</time>
      </trkpt>
      <trkpt lat="43.28735" lon="-4.26219">
        <ele>299.0</ele>
        <time>2018-05-19T06:40:34.879Z</time>
      </trkpt>
      <trkpt lat="43.28735" lon="-4.26219">
        <ele>299.0</ele>
        <time>2018-05-19T06:40:35.877Z</time>
      </trkpt>
      <trkpt lat="43.28736833" lon="-4.262235">
        <ele>299.0</ele>
        <time>2018-05-19T06:40:36.876Z</time>
      </trkpt>
      <trkpt lat="43.28737833" lon="-4.262255">
        <ele>300.0</ele>
        <time>2018-05-19T06:40:37.880Z</time>
      </trkpt>
      <trkpt lat="43.28737833" lon="-4.262255">
        <ele>300.0</ele>
        <time>2018-05-19T06:40:38.873Z</time>
      </trkpt>
      <trkpt lat="43.28739667" lon="-4.26229167">
        <ele>300.0</ele>
        <time>2018-05-19T06:40:39.880Z</time>
      </trkpt>
      <trkpt lat="43.28739667" lon="-4.26229167">
        <ele>300.0</ele>
        <time>2018-05-19T06:40:40.875Z</time>
      </trkpt>
      <trkpt lat="43.287415" lon="-4.26233167">
        <ele>300.0</ele>
        <time>2018-05-19T06:40:41.880Z</time>
      </trkpt>
      <trkpt lat="43.287415" lon="-4.26233167">
        <ele>300.0</ele>
        <time>2018-05-19T06:40:42.873Z</time>
      </trkpt>
      <trkpt lat="43.28743167" lon="-4.26236833">
        <ele>301.0</ele>
        <time>2018-05-19T06:40:43.862Z</time>
      </trkpt>
      <trkpt lat="43.28744167" lon="-4.26238667">
        <ele>301.0</ele>
        <time>2018-05-19T06:40:44.862Z</time>
      </trkpt>
      <trkpt lat="43.28745333" lon="-4.26240333">
        <ele>301.0</ele>
        <time>2018-05-19T06:40:45.844Z</time>
      </trkpt>
      <trkpt lat="43.28745333" lon="-4.26240333">
        <ele>301.0</ele>
        <time>2018-05-19T06:40:46.874Z</time>
      </trkpt>
      <trkpt lat="43.28747333" lon="-4.26243667">
        <ele>302.0</ele>
        <time>2018-05-19T06:40:47.880Z</time>
      </trkpt>
      <trkpt lat="43.28747333" lon="-4.26243667">
        <ele>302.0</ele>
        <time>2018-05-19T06:40:48.876Z</time>
      </trkpt>
      <trkpt lat="43.287485" lon="-4.26247167">
        <ele>303.0</ele>
        <time>2018-05-19T06:40:49.881Z</time>
      </trkpt>
      <trkpt lat="43.287485" lon="-4.26247167">
        <ele>303.0</ele>
        <time>2018-05-19T06:40:50.873Z</time>
      </trkpt>
      <trkpt lat="43.28749667" lon="-4.26250833">
        <ele>303.0</ele>
        <time>2018-05-19T06:40:51.878Z</time>
      </trkpt>
      <trkpt lat="43.28749667" lon="-4.26250833">
        <ele>303.0</ele>
        <time>2018-05-19T06:40:52.873Z</time>
      </trkpt>
      <trkpt lat="43.287515" lon="-4.262545">
        <ele>303.0</ele>
        <time>2018-05-19T06:40:53.876Z</time>
      </trkpt>
      <trkpt lat="43.287515" lon="-4.262545">
        <ele>303.0</ele>
        <time>2018-05-19T06:40:54.873Z</time>
      </trkpt>
      <trkpt lat="43.28753333" lon="-4.26257833">
        <ele>303.0</ele>
        <time>2018-05-19T06:40:55.880Z</time>
      </trkpt>
      <trkpt lat="43.28753333" lon="-4.26257833">
        <ele>303.0</ele>
        <time>2018-05-19T06:40:56.873Z</time>
      </trkpt>
      <trkpt lat="43.28755667" lon="-4.26260667">
        <ele>304.0</ele>
        <time>2018-05-19T06:40:57.876Z</time>
      </trkpt>
      <trkpt lat="43.28755667" lon="-4.26260667">
        <ele>304.0</ele>
        <time>2018-05-19T06:40:58.876Z</time>
      </trkpt>
      <trkpt lat="43.28758" lon="-4.26264333">
        <ele>304.0</ele>
        <time>2018-05-19T06:40:59.879Z</time>
      </trkpt>
      <trkpt lat="43.28758" lon="-4.26264333">
        <ele>304.0</ele>
        <time>2018-05-19T06:41:00.873Z</time>
      </trkpt>
      <trkpt lat="43.28759333" lon="-4.26268667">
        <ele>305.0</ele>
        <time>2018-05-19T06:41:01.881Z</time>
      </trkpt>
      <trkpt lat="43.28759333" lon="-4.26268667">
        <ele>305.0</ele>
        <time>2018-05-19T06:41:02.874Z</time>
      </trkpt>
      <trkpt lat="43.28760333" lon="-4.262735">
        <ele>305.0</ele>
        <time>2018-05-19T06:41:03.879Z</time>
      </trkpt>
      <trkpt lat="43.28760333" lon="-4.262735">
        <ele>305.0</ele>
        <time>2018-05-19T06:41:04.874Z</time>
      </trkpt>
      <trkpt lat="43.28760333" lon="-4.26278833">
        <ele>306.0</ele>
        <time>2018-05-19T06:41:05.862Z</time>
      </trkpt>
      <trkpt lat="43.28760333" lon="-4.26278833">
        <ele>306.0</ele>
        <time>2018-05-19T06:41:06.846Z</time>
      </trkpt>
      <trkpt lat="43.287595" lon="-4.26283167">
        <ele>306.0</ele>
        <time>2018-05-19T06:41:07.882Z</time>
      </trkpt>
      <trkpt lat="43.287595" lon="-4.26283167">
        <ele>306.0</ele>
        <time>2018-05-19T06:41:08.876Z</time>
      </trkpt>
      <trkpt lat="43.28756667" lon="-4.26284833">
        <ele>306.0</ele>
        <time>2018-05-19T06:41:09.877Z</time>
      </trkpt>
      <trkpt lat="43.28756667" lon="-4.26284833">
        <ele>306.0</ele>
        <time>2018-05-19T06:41:10.872Z</time>
      </trkpt>
      <trkpt lat="43.287535" lon="-4.26283">
        <ele>307.0</ele>
        <time>2018-05-19T06:41:11.876Z</time>
      </trkpt>
      <trkpt lat="43.287535" lon="-4.26283">
        <ele>307.0</ele>
        <time>2018-05-19T06:41:12.874Z</time>
      </trkpt>
      <trkpt lat="43.28751333" lon="-4.26279">
        <ele>308.0</ele>
        <time>2018-05-19T06:41:13.881Z</time>
      </trkpt>
      <trkpt lat="43.28751333" lon="-4.26279">
        <ele>308.0</ele>
        <time>2018-05-19T06:41:14.873Z</time>
      </trkpt>
      <trkpt lat="43.28749333" lon="-4.26275333">
        <ele>309.0</ele>
        <time>2018-05-19T06:41:15.880Z</time>
      </trkpt>
      <trkpt lat="43.28749333" lon="-4.26275333">
        <ele>309.0</ele>
        <time>2018-05-19T06:41:16.873Z</time>
      </trkpt>
      <trkpt lat="43.28747667" lon="-4.262725">
        <ele>310.0</ele>
        <time>2018-05-19T06:41:17.878Z</time>
      </trkpt>
      <trkpt lat="43.28747667" lon="-4.262725">
        <ele>310.0</ele>
        <time>2018-05-19T06:41:18.873Z</time>
      </trkpt>
      <trkpt lat="43.28745167" lon="-4.26270167">
        <ele>310.0</ele>
        <time>2018-05-19T06:41:19.880Z</time>
      </trkpt>
      <trkpt lat="43.28745167" lon="-4.26270167">
        <ele>310.0</ele>
        <time>2018-05-19T06:41:20.873Z</time>
      </trkpt>
      <trkpt lat="43.28741667" lon="-4.26268333">
        <ele>311.0</ele>
        <time>2018-05-19T06:41:21.879Z</time>
      </trkpt>
      <trkpt lat="43.28741667" lon="-4.26268333">
        <ele>311.0</ele>
        <time>2018-05-19T06:41:22.873Z</time>
      </trkpt>
      <trkpt lat="43.28738" lon="-4.26267833">
        <ele>312.0</ele>
        <time>2018-05-19T06:41:23.876Z</time>
      </trkpt>
      <trkpt lat="43.28738" lon="-4.26267833">
        <ele>312.0</ele>
        <time>2018-05-19T06:41:24.873Z</time>
      </trkpt>
      <trkpt lat="43.287355" lon="-4.262675">
        <ele>313.0</ele>
        <time>2018-05-19T06:41:25.877Z</time>
      </trkpt>
      <trkpt lat="43.287355" lon="-4.262675">
        <ele>313.0</ele>
        <time>2018-05-19T06:41:26.873Z</time>
      </trkpt>
      <trkpt lat="43.28733333" lon="-4.26267833">
        <ele>314.0</ele>
        <time>2018-05-19T06:41:27.878Z</time>
      </trkpt>
      <trkpt lat="43.28733333" lon="-4.26267833">
        <ele>314.0</ele>
        <time>2018-05-19T06:41:28.873Z</time>
      </trkpt>
      <trkpt lat="43.28730833" lon="-4.26268333">
        <ele>314.0</ele>
        <time>2018-05-19T06:41:29.878Z</time>
      </trkpt>
      <trkpt lat="43.28730833" lon="-4.26268333">
        <ele>314.0</ele>
        <time>2018-05-19T06:41:30.875Z</time>
      </trkpt>
      <trkpt lat="43.28728" lon="-4.26269667">
        <ele>315.0</ele>
        <time>2018-05-19T06:41:31.874Z</time>
      </trkpt>
      <trkpt lat="43.28728" lon="-4.26269667">
        <ele>315.0</ele>
        <time>2018-05-19T06:41:32.873Z</time>
      </trkpt>
      <trkpt lat="43.28725167" lon="-4.26270833">
        <ele>315.0</ele>
        <time>2018-05-19T06:41:33.879Z</time>
      </trkpt>
      <trkpt lat="43.28725167" lon="-4.26270833">
        <ele>315.0</ele>
        <time>2018-05-19T06:41:34.874Z</time>
      </trkpt>
      <trkpt lat="43.28722667" lon="-4.26273167">
        <ele>316.0</ele>
        <time>2018-05-19T06:41:35.879Z</time>
      </trkpt>
      <trkpt lat="43.28722667" lon="-4.26273167">
        <ele>316.0</ele>
        <time>2018-05-19T06:41:36.873Z</time>
      </trkpt>
      <trkpt lat="43.28720167" lon="-4.26275833">
        <ele>316.0</ele>
        <time>2018-05-19T06:41:37.879Z</time>
      </trkpt>
      <trkpt lat="43.28720167" lon="-4.26275833">
        <ele>316.0</ele>
        <time>2018-05-19T06:41:38.874Z</time>
      </trkpt>
      <trkpt lat="43.28718" lon="-4.26278667">
        <ele>316.0</ele>
        <time>2018-05-19T06:41:39.880Z</time>
      </trkpt>
      <trkpt lat="43.28718" lon="-4.26278667">
        <ele>316.0</ele>
        <time>2018-05-19T06:41:40.873Z</time>
      </trkpt>
      <trkpt lat="43.28715667" lon="-4.26281667">
        <ele>316.0</ele>
        <time>2018-05-19T06:41:41.879Z</time>
      </trkpt>
      <trkpt lat="43.28714667" lon="-4.26283">
        <ele>317.0</ele>
        <time>2018-05-19T06:41:42.880Z</time>
      </trkpt>
      <trkpt lat="43.28714667" lon="-4.26283">
        <ele>317.0</ele>
        <time>2018-05-19T06:41:43.874Z</time>
      </trkpt>
      <trkpt lat="43.287125" lon="-4.26285167">
        <ele>317.0</ele>
        <time>2018-05-19T06:41:44.857Z</time>
      </trkpt>
      <trkpt lat="43.28711667" lon="-4.262865">
        <ele>317.0</ele>
        <time>2018-05-19T06:41:45.882Z</time>
      </trkpt>
      <trkpt lat="43.28711667" lon="-4.262865">
        <ele>317.0</ele>
        <time>2018-05-19T06:41:46.873Z</time>
      </trkpt>
      <trkpt lat="43.28710167" lon="-4.262895">
        <ele>317.0</ele>
        <time>2018-05-19T06:41:47.876Z</time>
      </trkpt>
      <trkpt lat="43.28710167" lon="-4.262895">
        <ele>317.0</ele>
        <time>2018-05-19T06:41:48.872Z</time>
      </trkpt>
      <trkpt lat="43.28708833" lon="-4.262925">
        <ele>318.0</ele>
        <time>2018-05-19T06:41:49.879Z</time>
      </trkpt>
      <trkpt lat="43.28708833" lon="-4.262925">
        <ele>318.0</ele>
        <time>2018-05-19T06:41:50.870Z</time>
      </trkpt>
      <trkpt lat="43.28707833" lon="-4.26295667">
        <ele>318.0</ele>
        <time>2018-05-19T06:41:51.879Z</time>
      </trkpt>
      <trkpt lat="43.28707833" lon="-4.26295667">
        <ele>318.0</ele>
        <time>2018-05-19T06:41:52.876Z</time>
      </trkpt>
      <trkpt lat="43.28705833" lon="-4.26300167">
        <ele>319.0</ele>
        <time>2018-05-19T06:41:53.877Z</time>
      </trkpt>
      <trkpt lat="43.28704833" lon="-4.26302667">
        <ele>319.0</ele>
        <time>2018-05-19T06:41:54.882Z</time>
      </trkpt>
      <trkpt lat="43.28704833" lon="-4.26302667">
        <ele>319.0</ele>
        <time>2018-05-19T06:41:55.876Z</time>
      </trkpt>
      <trkpt lat="43.28702333" lon="-4.26306333">
        <ele>320.0</ele>
        <time>2018-05-19T06:41:56.875Z</time>
      </trkpt>
      <trkpt lat="43.28701" lon="-4.26308333">
        <ele>320.0</ele>
        <time>2018-05-19T06:41:57.878Z</time>
      </trkpt>
      <trkpt lat="43.28701" lon="-4.26308333">
        <ele>320.0</ele>
        <time>2018-05-19T06:41:58.871Z</time>
      </trkpt>
      <trkpt lat="43.28699167" lon="-4.263125">
        <ele>321.0</ele>
        <time>2018-05-19T06:41:59.854Z</time>
      </trkpt>
      <trkpt lat="43.28699167" lon="-4.263125">
        <ele>321.0</ele>
        <time>2018-05-19T06:42:00.878Z</time>
      </trkpt>
      <trkpt lat="43.28697833" lon="-4.26316833">
        <ele>321.0</ele>
        <time>2018-05-19T06:42:01.879Z</time>
      </trkpt>
      <trkpt lat="43.28697833" lon="-4.26316833">
        <ele>321.0</ele>
        <time>2018-05-19T06:42:02.873Z</time>
      </trkpt>
      <trkpt lat="43.28696167" lon="-4.26321333">
        <ele>322.0</ele>
        <time>2018-05-19T06:42:03.875Z</time>
      </trkpt>
      <trkpt lat="43.28696167" lon="-4.26321333">
        <ele>322.0</ele>
        <time>2018-05-19T06:42:04.862Z</time>
      </trkpt>
      <trkpt lat="43.28694833" lon="-4.26326167">
        <ele>322.0</ele>
        <time>2018-05-19T06:42:05.849Z</time>
      </trkpt>
      <trkpt lat="43.28694833" lon="-4.26326167">
        <ele>322.0</ele>
        <time>2018-05-19T06:42:06.855Z</time>
      </trkpt>
      <trkpt lat="43.28693667" lon="-4.26331167">
        <ele>323.0</ele>
        <time>2018-05-19T06:42:07.881Z</time>
      </trkpt>
      <trkpt lat="43.28693667" lon="-4.26331167">
        <ele>323.0</ele>
        <time>2018-05-19T06:42:08.875Z</time>
      </trkpt>
      <trkpt lat="43.28692333" lon="-4.263365">
        <ele>323.0</ele>
        <time>2018-05-19T06:42:09.879Z</time>
      </trkpt>
      <trkpt lat="43.28692333" lon="-4.263365">
        <ele>323.0</ele>
        <time>2018-05-19T06:42:10.873Z</time>
      </trkpt>
      <trkpt lat="43.28691167" lon="-4.26342167">
        <ele>324.0</ele>
        <time>2018-05-19T06:42:11.876Z</time>
      </trkpt>
      <trkpt lat="43.28691167" lon="-4.26342167">
        <ele>324.0</ele>
        <time>2018-05-19T06:42:12.866Z</time>
      </trkpt>
      <trkpt lat="43.28690167" lon="-4.26348167">
        <ele>324.0</ele>
        <time>2018-05-19T06:42:13.849Z</time>
      </trkpt>
      <trkpt lat="43.28690167" lon="-4.26348167">
        <ele>324.0</ele>
        <time>2018-05-19T06:42:14.875Z</time>
      </trkpt>
      <trkpt lat="43.286885" lon="-4.263535">
        <ele>324.0</ele>
        <time>2018-05-19T06:42:15.878Z</time>
      </trkpt>
      <trkpt lat="43.286885" lon="-4.263535">
        <ele>324.0</ele>
        <time>2018-05-19T06:42:16.874Z</time>
      </trkpt>
      <trkpt lat="43.286875" lon="-4.263585">
        <ele>324.0</ele>
        <time>2018-05-19T06:42:17.877Z</time>
      </trkpt>
      <trkpt lat="43.286875" lon="-4.263585">
        <ele>324.0</ele>
        <time>2018-05-19T06:42:18.875Z</time>
      </trkpt>
      <trkpt lat="43.28685333" lon="-4.26363">
        <ele>324.0</ele>
        <time>2018-05-19T06:42:19.879Z</time>
      </trkpt>
      <trkpt lat="43.28685333" lon="-4.26363">
        <ele>324.0</ele>
        <time>2018-05-19T06:42:20.876Z</time>
      </trkpt>
      <trkpt lat="43.28682833" lon="-4.26368">
        <ele>324.0</ele>
        <time>2018-05-19T06:42:21.880Z</time>
      </trkpt>
      <trkpt lat="43.28682833" lon="-4.26368">
        <ele>324.0</ele>
        <time>2018-05-19T06:42:22.875Z</time>
      </trkpt>
      <trkpt lat="43.2868" lon="-4.26372667">
        <ele>324.0</ele>
        <time>2018-05-19T06:42:23.878Z</time>
      </trkpt>
      <trkpt lat="43.2868" lon="-4.26372667">
        <ele>324.0</ele>
        <time>2018-05-19T06:42:24.869Z</time>
      </trkpt>
      <trkpt lat="43.28677667" lon="-4.26377667">
        <ele>324.0</ele>
        <time>2018-05-19T06:42:25.879Z</time>
      </trkpt>
      <trkpt lat="43.28677667" lon="-4.26377667">
        <ele>324.0</ele>
        <time>2018-05-19T06:42:26.873Z</time>
      </trkpt>
      <trkpt lat="43.28674833" lon="-4.26382833">
        <ele>325.0</ele>
        <time>2018-05-19T06:42:27.878Z</time>
      </trkpt>
      <trkpt lat="43.28674833" lon="-4.26382833">
        <ele>325.0</ele>
        <time>2018-05-19T06:42:28.876Z</time>
      </trkpt>
      <trkpt lat="43.28672167" lon="-4.26388">
        <ele>325.0</ele>
        <time>2018-05-19T06:42:29.861Z</time>
      </trkpt>
      <trkpt lat="43.28670833" lon="-4.263905">
        <ele>325.0</ele>
        <time>2018-05-19T06:42:30.846Z</time>
      </trkpt>
      <trkpt lat="43.28670833" lon="-4.263905">
        <ele>325.0</ele>
        <time>2018-05-19T06:42:31.876Z</time>
      </trkpt>
      <trkpt lat="43.28668167" lon="-4.26395833">
        <ele>326.0</ele>
        <time>2018-05-19T06:42:32.879Z</time>
      </trkpt>
      <trkpt lat="43.286665" lon="-4.26399">
        <ele>326.0</ele>
        <time>2018-05-19T06:42:33.880Z</time>
      </trkpt>
      <trkpt lat="43.286665" lon="-4.26399">
        <ele>326.0</ele>
        <time>2018-05-19T06:42:34.868Z</time>
      </trkpt>
      <trkpt lat="43.286635" lon="-4.264065">
        <ele>327.0</ele>
        <time>2018-05-19T06:42:35.853Z</time>
      </trkpt>
      <trkpt lat="43.286635" lon="-4.264065">
        <ele>327.0</ele>
        <time>2018-05-19T06:42:36.878Z</time>
      </trkpt>
      <trkpt lat="43.28660833" lon="-4.26413">
        <ele>327.0</ele>
        <time>2018-05-19T06:42:37.881Z</time>
      </trkpt>
      <trkpt lat="43.28660833" lon="-4.26413">
        <ele>327.0</ele>
        <time>2018-05-19T06:42:38.875Z</time>
      </trkpt>
      <trkpt lat="43.28658" lon="-4.26418833">
        <ele>328.0</ele>
        <time>2018-05-19T06:42:39.878Z</time>
      </trkpt>
      <trkpt lat="43.28658" lon="-4.26418833">
        <ele>328.0</ele>
        <time>2018-05-19T06:42:40.876Z</time>
      </trkpt>
      <trkpt lat="43.286545" lon="-4.264245">
        <ele>328.0</ele>
        <time>2018-05-19T06:42:41.876Z</time>
      </trkpt>
      <trkpt lat="43.286545" lon="-4.264245">
        <ele>328.0</ele>
        <time>2018-05-19T06:42:42.872Z</time>
      </trkpt>
      <trkpt lat="43.286515" lon="-4.26430333">
        <ele>329.0</ele>
        <time>2018-05-19T06:42:43.880Z</time>
      </trkpt>
      <trkpt lat="43.286515" lon="-4.26430333">
        <ele>329.0</ele>
        <time>2018-05-19T06:42:44.874Z</time>
      </trkpt>
      <trkpt lat="43.28648333" lon="-4.26436333">
        <ele>329.0</ele>
        <time>2018-05-19T06:42:45.878Z</time>
      </trkpt>
      <trkpt lat="43.28648333" lon="-4.26436333">
        <ele>329.0</ele>
        <time>2018-05-19T06:42:46.853Z</time>
      </trkpt>
      <trkpt lat="43.28645" lon="-4.26442667">
        <ele>330.0</ele>
        <time>2018-05-19T06:42:47.878Z</time>
      </trkpt>
      <trkpt lat="43.286435" lon="-4.26445833">
        <ele>330.0</ele>
        <time>2018-05-19T06:42:48.876Z</time>
      </trkpt>
      <trkpt lat="43.28642167" lon="-4.26448833">
        <ele>330.0</ele>
        <time>2018-05-19T06:42:49.880Z</time>
      </trkpt>
      <trkpt lat="43.28642167" lon="-4.26448833">
        <ele>330.0</ele>
        <time>2018-05-19T06:42:50.876Z</time>
      </trkpt>
      <trkpt lat="43.28638833" lon="-4.26454667">
        <ele>331.0</ele>
        <time>2018-05-19T06:42:51.878Z</time>
      </trkpt>
      <trkpt lat="43.28638833" lon="-4.26454667">
        <ele>331.0</ele>
        <time>2018-05-19T06:42:52.875Z</time>
      </trkpt>
      <trkpt lat="43.28635667" lon="-4.26460667">
        <ele>332.0</ele>
        <time>2018-05-19T06:42:53.877Z</time>
      </trkpt>
      <trkpt lat="43.28634167" lon="-4.26463667">
        <ele>332.0</ele>
        <time>2018-05-19T06:42:54.876Z</time>
      </trkpt>
      <trkpt lat="43.28633" lon="-4.26466833">
        <ele>332.0</ele>
        <time>2018-05-19T06:42:55.851Z</time>
      </trkpt>
      <trkpt lat="43.28633" lon="-4.26466833">
        <ele>332.0</ele>
        <time>2018-05-19T06:42:56.877Z</time>
      </trkpt>
      <trkpt lat="43.28631" lon="-4.26472667">
        <ele>333.0</ele>
        <time>2018-05-19T06:42:57.878Z</time>
      </trkpt>
      <trkpt lat="43.28631" lon="-4.26472667">
        <ele>333.0</ele>
        <time>2018-05-19T06:42:58.875Z</time>
      </trkpt>
      <trkpt lat="43.28628333" lon="-4.26478167">
        <ele>333.0</ele>
        <time>2018-05-19T06:42:59.876Z</time>
      </trkpt>
      <trkpt lat="43.28628333" lon="-4.26478167">
        <ele>333.0</ele>
        <time>2018-05-19T06:43:00.873Z</time>
      </trkpt>
      <trkpt lat="43.28626167" lon="-4.26483667">
        <ele>334.0</ele>
        <time>2018-05-19T06:43:01.879Z</time>
      </trkpt>
      <trkpt lat="43.28626167" lon="-4.26483667">
        <ele>334.0</ele>
        <time>2018-05-19T06:43:02.866Z</time>
      </trkpt>
      <trkpt lat="43.28623833" lon="-4.26489333">
        <ele>335.0</ele>
        <time>2018-05-19T06:43:03.850Z</time>
      </trkpt>
      <trkpt lat="43.28623833" lon="-4.26489333">
        <ele>335.0</ele>
        <time>2018-05-19T06:43:04.874Z</time>
      </trkpt>
      <trkpt lat="43.28621167" lon="-4.264955">
        <ele>335.0</ele>
        <time>2018-05-19T06:43:05.881Z</time>
      </trkpt>
      <trkpt lat="43.28621167" lon="-4.264955">
        <ele>335.0</ele>
        <time>2018-05-19T06:43:06.874Z</time>
      </trkpt>
      <trkpt lat="43.28619833" lon="-4.26501">
        <ele>336.0</ele>
        <time>2018-05-19T06:43:07.880Z</time>
      </trkpt>
      <trkpt lat="43.28619833" lon="-4.26501">
        <ele>336.0</ele>
        <time>2018-05-19T06:43:08.871Z</time>
      </trkpt>
      <trkpt lat="43.286175" lon="-4.265065">
        <ele>337.0</ele>
        <time>2018-05-19T06:43:09.879Z</time>
      </trkpt>
      <trkpt lat="43.286175" lon="-4.265065">
        <ele>337.0</ele>
        <time>2018-05-19T06:43:10.874Z</time>
      </trkpt>
      <trkpt lat="43.28614833" lon="-4.26512">
        <ele>338.0</ele>
        <time>2018-05-19T06:43:11.876Z</time>
      </trkpt>
      <trkpt lat="43.28614833" lon="-4.26512">
        <ele>338.0</ele>
        <time>2018-05-19T06:43:12.873Z</time>
      </trkpt>
      <trkpt lat="43.28612167" lon="-4.265175">
        <ele>339.0</ele>
        <time>2018-05-19T06:43:13.879Z</time>
      </trkpt>
      <trkpt lat="43.28612167" lon="-4.265175">
        <ele>339.0</ele>
        <time>2018-05-19T06:43:14.874Z</time>
      </trkpt>
      <trkpt lat="43.28608333" lon="-4.26522667">
        <ele>339.0</ele>
        <time>2018-05-19T06:43:15.861Z</time>
      </trkpt>
      <trkpt lat="43.28606167" lon="-4.265245">
        <ele>340.0</ele>
        <time>2018-05-19T06:43:16.849Z</time>
      </trkpt>
      <trkpt lat="43.28604167" lon="-4.26526833">
        <ele>340.0</ele>
        <time>2018-05-19T06:43:17.880Z</time>
      </trkpt>
      <trkpt lat="43.28604167" lon="-4.26526833">
        <ele>340.0</ele>
        <time>2018-05-19T06:43:18.875Z</time>
      </trkpt>
      <trkpt lat="43.28600167" lon="-4.26532167">
        <ele>340.0</ele>
        <time>2018-05-19T06:43:19.881Z</time>
      </trkpt>
      <trkpt lat="43.28600167" lon="-4.26532167">
        <ele>340.0</ele>
        <time>2018-05-19T06:43:20.876Z</time>
      </trkpt>
      <trkpt lat="43.28596167" lon="-4.26537333">
        <ele>340.0</ele>
        <time>2018-05-19T06:43:21.879Z</time>
      </trkpt>
      <trkpt lat="43.28596167" lon="-4.26537333">
        <ele>340.0</ele>
        <time>2018-05-19T06:43:22.876Z</time>
      </trkpt>
      <trkpt lat="43.28592" lon="-4.26542833">
        <ele>340.0</ele>
        <time>2018-05-19T06:43:23.876Z</time>
      </trkpt>
      <trkpt lat="43.28590167" lon="-4.265455">
        <ele>340.0</ele>
        <time>2018-05-19T06:43:24.876Z</time>
      </trkpt>
      <trkpt lat="43.28590167" lon="-4.265455">
        <ele>340.0</ele>
        <time>2018-05-19T06:43:25.870Z</time>
      </trkpt>
      <trkpt lat="43.28586833" lon="-4.26550833">
        <ele>341.0</ele>
        <time>2018-05-19T06:43:26.876Z</time>
      </trkpt>
      <trkpt lat="43.28585" lon="-4.26553667">
        <ele>341.0</ele>
        <time>2018-05-19T06:43:27.877Z</time>
      </trkpt>
      <trkpt lat="43.28585" lon="-4.26553667">
        <ele>341.0</ele>
        <time>2018-05-19T06:43:28.869Z</time>
      </trkpt>
      <trkpt lat="43.28581333" lon="-4.2656">
        <ele>340.0</ele>
        <time>2018-05-19T06:43:29.861Z</time>
      </trkpt>
      <trkpt lat="43.28579667" lon="-4.26563">
        <ele>340.0</ele>
        <time>2018-05-19T06:43:30.849Z</time>
      </trkpt>
      <trkpt lat="43.28578" lon="-4.26565667">
        <ele>341.0</ele>
        <time>2018-05-19T06:43:31.880Z</time>
      </trkpt>
      <trkpt lat="43.285765" lon="-4.26568667">
        <ele>341.0</ele>
        <time>2018-05-19T06:43:32.879Z</time>
      </trkpt>
      <trkpt lat="43.285765" lon="-4.26568667">
        <ele>341.0</ele>
        <time>2018-05-19T06:43:33.873Z</time>
      </trkpt>
      <trkpt lat="43.28573333" lon="-4.26575167">
        <ele>341.0</ele>
        <time>2018-05-19T06:43:34.875Z</time>
      </trkpt>
      <trkpt lat="43.28573333" lon="-4.26575167">
        <ele>341.0</ele>
        <time>2018-05-19T06:43:35.854Z</time>
      </trkpt>
      <trkpt lat="43.28569833" lon="-4.26581833">
        <ele>341.0</ele>
        <time>2018-05-19T06:43:36.878Z</time>
      </trkpt>
      <trkpt lat="43.28567667" lon="-4.26585">
        <ele>341.0</ele>
        <time>2018-05-19T06:43:37.881Z</time>
      </trkpt>
      <trkpt lat="43.28567667" lon="-4.26585">
        <ele>341.0</ele>
        <time>2018-05-19T06:43:38.874Z</time>
      </trkpt>
      <trkpt lat="43.28562833" lon="-4.26591833">
        <ele>341.0</ele>
        <time>2018-05-19T06:43:39.878Z</time>
      </trkpt>
      <trkpt lat="43.28562833" lon="-4.26591833">
        <ele>341.0</ele>
        <time>2018-05-19T06:43:40.874Z</time>
      </trkpt>
      <trkpt lat="43.28557333" lon="-4.26598167">
        <ele>341.0</ele>
        <time>2018-05-19T06:43:41.879Z</time>
      </trkpt>
      <trkpt lat="43.28557333" lon="-4.26598167">
        <ele>341.0</ele>
        <time>2018-05-19T06:43:42.878Z</time>
      </trkpt>
      <trkpt lat="43.28551833" lon="-4.26603">
        <ele>341.0</ele>
        <time>2018-05-19T06:43:43.880Z</time>
      </trkpt>
      <trkpt lat="43.28551833" lon="-4.26603">
        <ele>341.0</ele>
        <time>2018-05-19T06:43:44.875Z</time>
      </trkpt>
      <trkpt lat="43.28545833" lon="-4.26607333">
        <ele>340.0</ele>
        <time>2018-05-19T06:43:45.847Z</time>
      </trkpt>
      <trkpt lat="43.285425" lon="-4.26609167">
        <ele>340.0</ele>
        <time>2018-05-19T06:43:46.876Z</time>
      </trkpt>
      <trkpt lat="43.285425" lon="-4.26609167">
        <ele>340.0</ele>
        <time>2018-05-19T06:43:47.875Z</time>
      </trkpt>
      <trkpt lat="43.28535" lon="-4.26613167">
        <ele>339.0</ele>
        <time>2018-05-19T06:43:48.862Z</time>
      </trkpt>
      <trkpt lat="43.28531" lon="-4.266155">
        <ele>339.0</ele>
        <time>2018-05-19T06:43:49.850Z</time>
      </trkpt>
      <trkpt lat="43.28531" lon="-4.266155">
        <ele>339.0</ele>
        <time>2018-05-19T06:43:50.877Z</time>
      </trkpt>
      <trkpt lat="43.28522333" lon="-4.2662">
        <ele>338.0</ele>
        <time>2018-05-19T06:43:51.876Z</time>
      </trkpt>
      <trkpt lat="43.28522333" lon="-4.2662">
        <ele>338.0</ele>
        <time>2018-05-19T06:43:52.876Z</time>
      </trkpt>
      <trkpt lat="43.28513167" lon="-4.266265">
        <ele>338.0</ele>
        <time>2018-05-19T06:43:53.879Z</time>
      </trkpt>
      <trkpt lat="43.28513167" lon="-4.266265">
        <ele>338.0</ele>
        <time>2018-05-19T06:43:54.870Z</time>
      </trkpt>
      <trkpt lat="43.28503833" lon="-4.26633">
        <ele>338.0</ele>
        <time>2018-05-19T06:43:55.855Z</time>
      </trkpt>
      <trkpt lat="43.28503833" lon="-4.26633">
        <ele>338.0</ele>
        <time>2018-05-19T06:43:56.878Z</time>
      </trkpt>
      <trkpt lat="43.28494833" lon="-4.26639">
        <ele>339.0</ele>
        <time>2018-05-19T06:43:57.877Z</time>
      </trkpt>
      <trkpt lat="43.28494833" lon="-4.26639">
        <ele>339.0</ele>
        <time>2018-05-19T06:43:58.874Z</time>
      </trkpt>
      <trkpt lat="43.28486" lon="-4.26644833">
        <ele>339.0</ele>
        <time>2018-05-19T06:43:59.875Z</time>
      </trkpt>
      <trkpt lat="43.28486" lon="-4.26644833">
        <ele>339.0</ele>
        <time>2018-05-19T06:44:00.875Z</time>
      </trkpt>
      <trkpt lat="43.28477833" lon="-4.26650333">
        <ele>340.0</ele>
        <time>2018-05-19T06:44:01.876Z</time>
      </trkpt>
      <trkpt lat="43.28477833" lon="-4.26650333">
        <ele>340.0</ele>
        <time>2018-05-19T06:44:02.872Z</time>
      </trkpt>
      <trkpt lat="43.28471667" lon="-4.266575">
        <ele>340.0</ele>
        <time>2018-05-19T06:44:03.877Z</time>
      </trkpt>
      <trkpt lat="43.28471667" lon="-4.266575">
        <ele>340.0</ele>
        <time>2018-05-19T06:44:04.876Z</time>
      </trkpt>
      <trkpt lat="43.28466333" lon="-4.266645">
        <ele>341.0</ele>
        <time>2018-05-19T06:44:05.877Z</time>
      </trkpt>
      <trkpt lat="43.28463833" lon="-4.26667667">
        <ele>341.0</ele>
        <time>2018-05-19T06:44:06.878Z</time>
      </trkpt>
      <trkpt lat="43.28461833" lon="-4.26670833">
        <ele>341.0</ele>
        <time>2018-05-19T06:44:07.882Z</time>
      </trkpt>
      <trkpt lat="43.28461833" lon="-4.26670833">
        <ele>341.0</ele>
        <time>2018-05-19T06:44:08.873Z</time>
      </trkpt>
      <trkpt lat="43.28458" lon="-4.26676667">
        <ele>342.0</ele>
        <time>2018-05-19T06:44:09.879Z</time>
      </trkpt>
      <trkpt lat="43.28458" lon="-4.26676667">
        <ele>342.0</ele>
        <time>2018-05-19T06:44:10.875Z</time>
      </trkpt>
      <trkpt lat="43.28454667" lon="-4.26682333">
        <ele>342.0</ele>
        <time>2018-05-19T06:44:11.878Z</time>
      </trkpt>
      <trkpt lat="43.28453" lon="-4.26685">
        <ele>342.0</ele>
        <time>2018-05-19T06:44:12.880Z</time>
      </trkpt>
      <trkpt lat="43.28453" lon="-4.26685">
        <ele>342.0</ele>
        <time>2018-05-19T06:44:13.874Z</time>
      </trkpt>
      <trkpt lat="43.28450167" lon="-4.2669">
        <ele>343.0</ele>
        <time>2018-05-19T06:44:14.876Z</time>
      </trkpt>
      <trkpt lat="43.28450167" lon="-4.2669">
        <ele>343.0</ele>
        <time>2018-05-19T06:44:15.861Z</time>
      </trkpt>
      <trkpt lat="43.284475" lon="-4.26694833">
        <ele>343.0</ele>
        <time>2018-05-19T06:44:16.847Z</time>
      </trkpt>
      <trkpt lat="43.284475" lon="-4.26694833">
        <ele>343.0</ele>
        <time>2018-05-19T06:44:17.876Z</time>
      </trkpt>
      <trkpt lat="43.28444667" lon="-4.26700167">
        <ele>343.0</ele>
        <time>2018-05-19T06:44:18.875Z</time>
      </trkpt>
      <trkpt lat="43.28443333" lon="-4.26702833">
        <ele>343.0</ele>
        <time>2018-05-19T06:44:19.880Z</time>
      </trkpt>
      <trkpt lat="43.28443333" lon="-4.26702833">
        <ele>343.0</ele>
        <time>2018-05-19T06:44:20.873Z</time>
      </trkpt>
      <trkpt lat="43.28440667" lon="-4.26707833">
        <ele>344.0</ele>
        <time>2018-05-19T06:44:21.878Z</time>
      </trkpt>
      <trkpt lat="43.28440667" lon="-4.26707833">
        <ele>344.0</ele>
        <time>2018-05-19T06:44:22.875Z</time>
      </trkpt>
      <trkpt lat="43.28438" lon="-4.26713167">
        <ele>345.0</ele>
        <time>2018-05-19T06:44:23.877Z</time>
      </trkpt>
      <trkpt lat="43.28438" lon="-4.26713167">
        <ele>345.0</ele>
        <time>2018-05-19T06:44:24.875Z</time>
      </trkpt>
      <trkpt lat="43.28434833" lon="-4.26718">
        <ele>345.0</ele>
        <time>2018-05-19T06:44:25.847Z</time>
      </trkpt>
      <trkpt lat="43.28433333" lon="-4.26720167">
        <ele>345.0</ele>
        <time>2018-05-19T06:44:26.877Z</time>
      </trkpt>
      <trkpt lat="43.28432167" lon="-4.26722167">
        <ele>345.0</ele>
        <time>2018-05-19T06:44:27.878Z</time>
      </trkpt>
      <trkpt lat="43.28432167" lon="-4.26722167">
        <ele>345.0</ele>
        <time>2018-05-19T06:44:28.879Z</time>
      </trkpt>
      <trkpt lat="43.2843" lon="-4.26726167">
        <ele>346.0</ele>
        <time>2018-05-19T06:44:29.878Z</time>
      </trkpt>
      <trkpt lat="43.2843" lon="-4.26726167">
        <ele>346.0</ele>
        <time>2018-05-19T06:44:30.876Z</time>
      </trkpt>
      <trkpt lat="43.284275" lon="-4.2673">
        <ele>346.0</ele>
        <time>2018-05-19T06:44:31.880Z</time>
      </trkpt>
      <trkpt lat="43.284275" lon="-4.2673">
        <ele>346.0</ele>
        <time>2018-05-19T06:44:32.875Z</time>
      </trkpt>
      <trkpt lat="43.28424833" lon="-4.26734">
        <ele>346.0</ele>
        <time>2018-05-19T06:44:33.878Z</time>
      </trkpt>
      <trkpt lat="43.28424833" lon="-4.26734">
        <ele>346.0</ele>
        <time>2018-05-19T06:44:34.876Z</time>
      </trkpt>
      <trkpt lat="43.28422333" lon="-4.26737833">
        <ele>347.0</ele>
        <time>2018-05-19T06:44:35.861Z</time>
      </trkpt>
      <trkpt lat="43.28421667" lon="-4.26739667">
        <ele>347.0</ele>
        <time>2018-05-19T06:44:36.847Z</time>
      </trkpt>
      <trkpt lat="43.28420667" lon="-4.26741667">
        <ele>347.0</ele>
        <time>2018-05-19T06:44:37.876Z</time>
      </trkpt>
      <trkpt lat="43.28420667" lon="-4.26741667">
        <ele>347.0</ele>
        <time>2018-05-19T06:44:38.875Z</time>
      </trkpt>
      <trkpt lat="43.28417833" lon="-4.26745667">
        <ele>347.0</ele>
        <time>2018-05-19T06:44:39.878Z</time>
      </trkpt>
      <trkpt lat="43.28417833" lon="-4.26745667">
        <ele>347.0</ele>
        <time>2018-05-19T06:44:40.879Z</time>
      </trkpt>
      <trkpt lat="43.28415333" lon="-4.26750333">
        <ele>348.0</ele>
        <time>2018-05-19T06:44:41.877Z</time>
      </trkpt>
      <trkpt lat="43.28415333" lon="-4.26750333">
        <ele>348.0</ele>
        <time>2018-05-19T06:44:42.875Z</time>
      </trkpt>
      <trkpt lat="43.28412333" lon="-4.26755">
        <ele>348.0</ele>
        <time>2018-05-19T06:44:43.880Z</time>
      </trkpt>
      <trkpt lat="43.28412333" lon="-4.26755">
        <ele>348.0</ele>
        <time>2018-05-19T06:44:44.873Z</time>
      </trkpt>
      <trkpt lat="43.284095" lon="-4.26759333">
        <ele>349.0</ele>
        <time>2018-05-19T06:44:45.878Z</time>
      </trkpt>
      <trkpt lat="43.284095" lon="-4.26759333">
        <ele>349.0</ele>
        <time>2018-05-19T06:44:46.876Z</time>
      </trkpt>
      <trkpt lat="43.28407833" lon="-4.26764">
        <ele>349.0</ele>
        <time>2018-05-19T06:44:47.876Z</time>
      </trkpt>
      <trkpt lat="43.28407833" lon="-4.26764">
        <ele>349.0</ele>
        <time>2018-05-19T06:44:48.872Z</time>
      </trkpt>
      <trkpt lat="43.28406" lon="-4.26768667">
        <ele>350.0</ele>
        <time>2018-05-19T06:44:49.880Z</time>
      </trkpt>
      <trkpt lat="43.28406" lon="-4.26768667">
        <ele>350.0</ele>
        <time>2018-05-19T06:44:50.875Z</time>
      </trkpt>
      <trkpt lat="43.28403667" lon="-4.26774">
        <ele>351.0</ele>
        <time>2018-05-19T06:44:51.878Z</time>
      </trkpt>
      <trkpt lat="43.28403667" lon="-4.26774">
        <ele>351.0</ele>
        <time>2018-05-19T06:44:52.873Z</time>
      </trkpt>
      <trkpt lat="43.28402333" lon="-4.26779833">
        <ele>352.0</ele>
        <time>2018-05-19T06:44:53.874Z</time>
      </trkpt>
      <trkpt lat="43.28402333" lon="-4.26779833">
        <ele>352.0</ele>
        <time>2018-05-19T06:44:54.874Z</time>
      </trkpt>
      <trkpt lat="43.28400833" lon="-4.26786">
        <ele>352.0</ele>
        <time>2018-05-19T06:44:55.880Z</time>
      </trkpt>
      <trkpt lat="43.28400833" lon="-4.26786">
        <ele>352.0</ele>
        <time>2018-05-19T06:44:56.874Z</time>
      </trkpt>
      <trkpt lat="43.283995" lon="-4.26792167">
        <ele>353.0</ele>
        <time>2018-05-19T06:44:57.877Z</time>
      </trkpt>
      <trkpt lat="43.283995" lon="-4.26792167">
        <ele>353.0</ele>
        <time>2018-05-19T06:44:58.875Z</time>
      </trkpt>
      <trkpt lat="43.28397833" lon="-4.26798167">
        <ele>353.0</ele>
        <time>2018-05-19T06:44:59.876Z</time>
      </trkpt>
      <trkpt lat="43.28397833" lon="-4.26798167">
        <ele>353.0</ele>
        <time>2018-05-19T06:45:00.876Z</time>
      </trkpt>
      <trkpt lat="43.28396167" lon="-4.26804167">
        <ele>354.0</ele>
        <time>2018-05-19T06:45:01.880Z</time>
      </trkpt>
      <trkpt lat="43.28396167" lon="-4.26804167">
        <ele>354.0</ele>
        <time>2018-05-19T06:45:02.875Z</time>
      </trkpt>
      <trkpt lat="43.28395167" lon="-4.26810333">
        <ele>354.0</ele>
        <time>2018-05-19T06:45:03.878Z</time>
      </trkpt>
      <trkpt lat="43.28395167" lon="-4.26810333">
        <ele>354.0</ele>
        <time>2018-05-19T06:45:04.876Z</time>
      </trkpt>
      <trkpt lat="43.28394833" lon="-4.26815667">
        <ele>355.0</ele>
        <time>2018-05-19T06:45:05.860Z</time>
      </trkpt>
      <trkpt lat="43.28394833" lon="-4.26818333">
        <ele>355.0</ele>
        <time>2018-05-19T06:45:06.884Z</time>
      </trkpt>
      <trkpt lat="43.28394667" lon="-4.26821167">
        <ele>355.0</ele>
        <time>2018-05-19T06:45:07.881Z</time>
      </trkpt>
      <trkpt lat="43.28394667" lon="-4.26821167">
        <ele>355.0</ele>
        <time>2018-05-19T06:45:08.874Z</time>
      </trkpt>
      <trkpt lat="43.28394" lon="-4.268265">
        <ele>355.0</ele>
        <time>2018-05-19T06:45:09.878Z</time>
      </trkpt>
      <trkpt lat="43.28394" lon="-4.268265">
        <ele>355.0</ele>
        <time>2018-05-19T06:45:10.870Z</time>
      </trkpt>
      <trkpt lat="43.283925" lon="-4.26832167">
        <ele>355.0</ele>
        <time>2018-05-19T06:45:11.875Z</time>
      </trkpt>
      <trkpt lat="43.283925" lon="-4.26832167">
        <ele>355.0</ele>
        <time>2018-05-19T06:45:12.876Z</time>
      </trkpt>
      <trkpt lat="43.28391667" lon="-4.26838333">
        <ele>356.0</ele>
        <time>2018-05-19T06:45:13.880Z</time>
      </trkpt>
      <trkpt lat="43.28391667" lon="-4.26838333">
        <ele>356.0</ele>
        <time>2018-05-19T06:45:14.873Z</time>
      </trkpt>
      <trkpt lat="43.28391333" lon="-4.26844333">
        <ele>356.0</ele>
        <time>2018-05-19T06:45:15.880Z</time>
      </trkpt>
      <trkpt lat="43.28391333" lon="-4.26844333">
        <ele>356.0</ele>
        <time>2018-05-19T06:45:16.876Z</time>
      </trkpt>
      <trkpt lat="43.28391333" lon="-4.26850333">
        <ele>357.0</ele>
        <time>2018-05-19T06:45:17.876Z</time>
      </trkpt>
      <trkpt lat="43.28391333" lon="-4.26850333">
        <ele>357.0</ele>
        <time>2018-05-19T06:45:18.862Z</time>
      </trkpt>
      <trkpt lat="43.28391167" lon="-4.268565">
        <ele>357.0</ele>
        <time>2018-05-19T06:45:19.849Z</time>
      </trkpt>
      <trkpt lat="43.28391167" lon="-4.268565">
        <ele>357.0</ele>
        <time>2018-05-19T06:45:20.874Z</time>
      </trkpt>
      <trkpt lat="43.28391167" lon="-4.26863167">
        <ele>358.0</ele>
        <time>2018-05-19T06:45:21.878Z</time>
      </trkpt>
      <trkpt lat="43.28391167" lon="-4.26863167">
        <ele>358.0</ele>
        <time>2018-05-19T06:45:22.873Z</time>
      </trkpt>
      <trkpt lat="43.28391333" lon="-4.268695">
        <ele>358.0</ele>
        <time>2018-05-19T06:45:23.874Z</time>
      </trkpt>
      <trkpt lat="43.28391333" lon="-4.268695">
        <ele>358.0</ele>
        <time>2018-05-19T06:45:24.876Z</time>
      </trkpt>
      <trkpt lat="43.28391833" lon="-4.26876">
        <ele>358.0</ele>
        <time>2018-05-19T06:45:25.876Z</time>
      </trkpt>
      <trkpt lat="43.28391833" lon="-4.26876">
        <ele>358.0</ele>
        <time>2018-05-19T06:45:26.876Z</time>
      </trkpt>
      <trkpt lat="43.28392" lon="-4.268825">
        <ele>359.0</ele>
        <time>2018-05-19T06:45:27.877Z</time>
      </trkpt>
      <trkpt lat="43.28392" lon="-4.268825">
        <ele>359.0</ele>
        <time>2018-05-19T06:45:28.874Z</time>
      </trkpt>
      <trkpt lat="43.28392" lon="-4.26889167">
        <ele>359.0</ele>
        <time>2018-05-19T06:45:29.881Z</time>
      </trkpt>
      <trkpt lat="43.28392" lon="-4.26889167">
        <ele>359.0</ele>
        <time>2018-05-19T06:45:30.872Z</time>
      </trkpt>
      <trkpt lat="43.28392" lon="-4.26895833">
        <ele>359.0</ele>
        <time>2018-05-19T06:45:31.880Z</time>
      </trkpt>
      <trkpt lat="43.28392" lon="-4.26895833">
        <ele>359.0</ele>
        <time>2018-05-19T06:45:32.875Z</time>
      </trkpt>
      <trkpt lat="43.28392" lon="-4.26902667">
        <ele>359.0</ele>
        <time>2018-05-19T06:45:33.878Z</time>
      </trkpt>
      <trkpt lat="43.28392" lon="-4.26902667">
        <ele>359.0</ele>
        <time>2018-05-19T06:45:34.873Z</time>
      </trkpt>
      <trkpt lat="43.28392167" lon="-4.26909167">
        <ele>360.0</ele>
        <time>2018-05-19T06:45:35.861Z</time>
      </trkpt>
      <trkpt lat="43.28392167" lon="-4.26909167">
        <ele>360.0</ele>
        <time>2018-05-19T06:45:36.847Z</time>
      </trkpt>
      <trkpt lat="43.28392833" lon="-4.26915333">
        <ele>360.0</ele>
        <time>2018-05-19T06:45:37.880Z</time>
      </trkpt>
      <trkpt lat="43.28392833" lon="-4.26915333">
        <ele>360.0</ele>
        <time>2018-05-19T06:45:38.874Z</time>
      </trkpt>
      <trkpt lat="43.28393" lon="-4.26921167">
        <ele>360.0</ele>
        <time>2018-05-19T06:45:39.877Z</time>
      </trkpt>
      <trkpt lat="43.28393" lon="-4.26921167">
        <ele>360.0</ele>
        <time>2018-05-19T06:45:40.874Z</time>
      </trkpt>
      <trkpt lat="43.28392833" lon="-4.26926667">
        <ele>360.0</ele>
        <time>2018-05-19T06:45:41.876Z</time>
      </trkpt>
      <trkpt lat="43.28392833" lon="-4.26926667">
        <ele>360.0</ele>
        <time>2018-05-19T06:45:42.875Z</time>
      </trkpt>
      <trkpt lat="43.28393" lon="-4.269325">
        <ele>361.0</ele>
        <time>2018-05-19T06:45:43.879Z</time>
      </trkpt>
      <trkpt lat="43.28393" lon="-4.269325">
        <ele>361.0</ele>
        <time>2018-05-19T06:45:44.875Z</time>
      </trkpt>
      <trkpt lat="43.28393333" lon="-4.26938667">
        <ele>361.0</ele>
        <time>2018-05-19T06:45:45.849Z</time>
      </trkpt>
      <trkpt lat="43.28393333" lon="-4.26938667">
        <ele>361.0</ele>
        <time>2018-05-19T06:45:46.875Z</time>
      </trkpt>
      <trkpt lat="43.28393333" lon="-4.26944667">
        <ele>361.0</ele>
        <time>2018-05-19T06:45:47.878Z</time>
      </trkpt>
      <trkpt lat="43.28393333" lon="-4.26944667">
        <ele>361.0</ele>
        <time>2018-05-19T06:45:48.869Z</time>
      </trkpt>
      <trkpt lat="43.28393167" lon="-4.26950667">
        <ele>362.0</ele>
        <time>2018-05-19T06:45:49.854Z</time>
      </trkpt>
      <trkpt lat="43.28393167" lon="-4.26950667">
        <ele>362.0</ele>
        <time>2018-05-19T06:45:50.877Z</time>
      </trkpt>
      <trkpt lat="43.28392833" lon="-4.26956">
        <ele>362.0</ele>
        <time>2018-05-19T06:45:51.878Z</time>
      </trkpt>
      <trkpt lat="43.28392833" lon="-4.26956">
        <ele>362.0</ele>
        <time>2018-05-19T06:45:52.873Z</time>
      </trkpt>
      <trkpt lat="43.28391833" lon="-4.26961">
        <ele>363.0</ele>
        <time>2018-05-19T06:45:53.875Z</time>
      </trkpt>
      <trkpt lat="43.28391833" lon="-4.26961">
        <ele>363.0</ele>
        <time>2018-05-19T06:45:54.872Z</time>
      </trkpt>
      <trkpt lat="43.28391167" lon="-4.26966167">
        <ele>363.0</ele>
        <time>2018-05-19T06:45:55.861Z</time>
      </trkpt>
      <trkpt lat="43.28391167" lon="-4.26966167">
        <ele>363.0</ele>
        <time>2018-05-19T06:45:56.845Z</time>
      </trkpt>
      <trkpt lat="43.28390167" lon="-4.26971167">
        <ele>363.0</ele>
        <time>2018-05-19T06:45:57.878Z</time>
      </trkpt>
      <trkpt lat="43.28390167" lon="-4.26971167">
        <ele>363.0</ele>
        <time>2018-05-19T06:45:58.875Z</time>
      </trkpt>
      <trkpt lat="43.28389" lon="-4.26976">
        <ele>364.0</ele>
        <time>2018-05-19T06:45:59.878Z</time>
      </trkpt>
      <trkpt lat="43.28389" lon="-4.26976">
        <ele>364.0</ele>
        <time>2018-05-19T06:46:00.875Z</time>
      </trkpt>
      <trkpt lat="43.28388" lon="-4.26981333">
        <ele>364.0</ele>
        <time>2018-05-19T06:46:01.880Z</time>
      </trkpt>
      <trkpt lat="43.28388" lon="-4.26981333">
        <ele>364.0</ele>
        <time>2018-05-19T06:46:02.875Z</time>
      </trkpt>
      <trkpt lat="43.28387167" lon="-4.26987">
        <ele>364.0</ele>
        <time>2018-05-19T06:46:03.878Z</time>
      </trkpt>
      <trkpt lat="43.28387167" lon="-4.26987">
        <ele>364.0</ele>
        <time>2018-05-19T06:46:04.876Z</time>
      </trkpt>
      <trkpt lat="43.283865" lon="-4.26992167">
        <ele>365.0</ele>
        <time>2018-05-19T06:46:05.883Z</time>
      </trkpt>
      <trkpt lat="43.28386" lon="-4.26994833">
        <ele>365.0</ele>
        <time>2018-05-19T06:46:06.879Z</time>
      </trkpt>
      <trkpt lat="43.28386" lon="-4.26994833">
        <ele>365.0</ele>
        <time>2018-05-19T06:46:07.876Z</time>
      </trkpt>
      <trkpt lat="43.28385333" lon="-4.27000167">
        <ele>365.0</ele>
        <time>2018-05-19T06:46:08.874Z</time>
      </trkpt>
      <trkpt lat="43.28384667" lon="-4.27002667">
        <ele>365.0</ele>
        <time>2018-05-19T06:46:09.877Z</time>
      </trkpt>
      <trkpt lat="43.28384667" lon="-4.27002667">
        <ele>365.0</ele>
        <time>2018-05-19T06:46:10.876Z</time>
      </trkpt>
      <trkpt lat="43.28384" lon="-4.27007833">
        <ele>366.0</ele>
        <time>2018-05-19T06:46:11.876Z</time>
      </trkpt>
      <trkpt lat="43.28384" lon="-4.27007833">
        <ele>366.0</ele>
        <time>2018-05-19T06:46:12.873Z</time>
      </trkpt>
      <trkpt lat="43.283835" lon="-4.27012833">
        <ele>367.0</ele>
        <time>2018-05-19T06:46:13.879Z</time>
      </trkpt>
      <trkpt lat="43.283835" lon="-4.27012833">
        <ele>367.0</ele>
        <time>2018-05-19T06:46:14.876Z</time>
      </trkpt>
      <trkpt lat="43.28382667" lon="-4.270175">
        <ele>368.0</ele>
        <time>2018-05-19T06:46:15.878Z</time>
      </trkpt>
      <trkpt lat="43.28382667" lon="-4.270175">
        <ele>368.0</ele>
        <time>2018-05-19T06:46:16.868Z</time>
      </trkpt>
      <trkpt lat="43.28381833" lon="-4.27022667">
        <ele>368.0</ele>
        <time>2018-05-19T06:46:17.853Z</time>
      </trkpt>
      <trkpt lat="43.28381833" lon="-4.27022667">
        <ele>368.0</ele>
        <time>2018-05-19T06:46:18.878Z</time>
      </trkpt>
      <trkpt lat="43.28380667" lon="-4.27028">
        <ele>369.0</ele>
        <time>2018-05-19T06:46:19.881Z</time>
      </trkpt>
      <trkpt lat="43.28380667" lon="-4.27028">
        <ele>369.0</ele>
        <time>2018-05-19T06:46:20.878Z</time>
      </trkpt>
      <trkpt lat="43.28379833" lon="-4.27033333">
        <ele>369.0</ele>
        <time>2018-05-19T06:46:21.879Z</time>
      </trkpt>
      <trkpt lat="43.28379833" lon="-4.27033333">
        <ele>369.0</ele>
        <time>2018-05-19T06:46:22.875Z</time>
      </trkpt>
      <trkpt lat="43.28379167" lon="-4.270385">
        <ele>370.0</ele>
        <time>2018-05-19T06:46:23.878Z</time>
      </trkpt>
      <trkpt lat="43.28379167" lon="-4.270385">
        <ele>370.0</ele>
        <time>2018-05-19T06:46:24.875Z</time>
      </trkpt>
      <trkpt lat="43.28378333" lon="-4.270435">
        <ele>371.0</ele>
        <time>2018-05-19T06:46:25.876Z</time>
      </trkpt>
      <trkpt lat="43.28378333" lon="-4.270435">
        <ele>371.0</ele>
        <time>2018-05-19T06:46:26.871Z</time>
      </trkpt>
      <trkpt lat="43.28377667" lon="-4.27049167">
        <ele>371.0</ele>
        <time>2018-05-19T06:46:27.877Z</time>
      </trkpt>
      <trkpt lat="43.28377667" lon="-4.27049167">
        <ele>371.0</ele>
        <time>2018-05-19T06:46:28.872Z</time>
      </trkpt>
      <trkpt lat="43.28377" lon="-4.270545">
        <ele>372.0</ele>
        <time>2018-05-19T06:46:29.876Z</time>
      </trkpt>
      <trkpt lat="43.28377" lon="-4.270545">
        <ele>372.0</ele>
        <time>2018-05-19T06:46:30.875Z</time>
      </trkpt>
      <trkpt lat="43.28376667" lon="-4.27059667">
        <ele>373.0</ele>
        <time>2018-05-19T06:46:31.880Z</time>
      </trkpt>
      <trkpt lat="43.28376667" lon="-4.27059667">
        <ele>373.0</ele>
        <time>2018-05-19T06:46:32.873Z</time>
      </trkpt>
      <trkpt lat="43.28376333" lon="-4.27065">
        <ele>373.0</ele>
        <time>2018-05-19T06:46:33.879Z</time>
      </trkpt>
      <trkpt lat="43.28376333" lon="-4.27065">
        <ele>373.0</ele>
        <time>2018-05-19T06:46:34.875Z</time>
      </trkpt>
      <trkpt lat="43.28375833" lon="-4.270705">
        <ele>374.0</ele>
        <time>2018-05-19T06:46:35.878Z</time>
      </trkpt>
      <trkpt lat="43.28375833" lon="-4.270705">
        <ele>374.0</ele>
        <time>2018-05-19T06:46:36.872Z</time>
      </trkpt>
      <trkpt lat="43.28375167" lon="-4.270755">
        <ele>374.0</ele>
        <time>2018-05-19T06:46:37.879Z</time>
      </trkpt>
      <trkpt lat="43.28375167" lon="-4.270755">
        <ele>374.0</ele>
        <time>2018-05-19T06:46:38.870Z</time>
      </trkpt>
      <trkpt lat="43.28374" lon="-4.270805">
        <ele>374.0</ele>
        <time>2018-05-19T06:46:39.878Z</time>
      </trkpt>
      <trkpt lat="43.28374" lon="-4.270805">
        <ele>374.0</ele>
        <time>2018-05-19T06:46:40.874Z</time>
      </trkpt>
      <trkpt lat="43.28373167" lon="-4.27085333">
        <ele>375.0</ele>
        <time>2018-05-19T06:46:41.878Z</time>
      </trkpt>
      <trkpt lat="43.28373167" lon="-4.27085333">
        <ele>375.0</ele>
        <time>2018-05-19T06:46:42.875Z</time>
      </trkpt>
      <trkpt lat="43.28372667" lon="-4.2709">
        <ele>376.0</ele>
        <time>2018-05-19T06:46:43.880Z</time>
      </trkpt>
      <trkpt lat="43.28372667" lon="-4.2709">
        <ele>376.0</ele>
        <time>2018-05-19T06:46:44.873Z</time>
      </trkpt>
      <trkpt lat="43.283725" lon="-4.27095667">
        <ele>376.0</ele>
        <time>2018-05-19T06:46:45.879Z</time>
      </trkpt>
      <trkpt lat="43.283725" lon="-4.27095667">
        <ele>376.0</ele>
        <time>2018-05-19T06:46:46.876Z</time>
      </trkpt>
      <trkpt lat="43.28372167" lon="-4.27101167">
        <ele>376.0</ele>
        <time>2018-05-19T06:46:47.878Z</time>
      </trkpt>
      <trkpt lat="43.28372167" lon="-4.27101167">
        <ele>376.0</ele>
        <time>2018-05-19T06:46:48.872Z</time>
      </trkpt>
      <trkpt lat="43.28371333" lon="-4.27106333">
        <ele>377.0</ele>
        <time>2018-05-19T06:46:49.879Z</time>
      </trkpt>
      <trkpt lat="43.28371333" lon="-4.27106333">
        <ele>377.0</ele>
        <time>2018-05-19T06:46:50.875Z</time>
      </trkpt>
      <trkpt lat="43.28370833" lon="-4.27111333">
        <ele>377.0</ele>
        <time>2018-05-19T06:46:51.878Z</time>
      </trkpt>
      <trkpt lat="43.28370833" lon="-4.27111333">
        <ele>377.0</ele>
        <time>2018-05-19T06:46:52.875Z</time>
      </trkpt>
      <trkpt lat="43.28370167" lon="-4.27115833">
        <ele>378.0</ele>
        <time>2018-05-19T06:46:53.877Z</time>
      </trkpt>
      <trkpt lat="43.28370167" lon="-4.27115833">
        <ele>378.0</ele>
        <time>2018-05-19T06:46:54.875Z</time>
      </trkpt>
      <trkpt lat="43.28369833" lon="-4.27120667">
        <ele>378.0</ele>
        <time>2018-05-19T06:46:55.879Z</time>
      </trkpt>
      <trkpt lat="43.28369833" lon="-4.27120667">
        <ele>378.0</ele>
        <time>2018-05-19T06:46:56.875Z</time>
      </trkpt>
      <trkpt lat="43.283695" lon="-4.27125167">
        <ele>379.0</ele>
        <time>2018-05-19T06:46:57.878Z</time>
      </trkpt>
      <trkpt lat="43.283695" lon="-4.27125167">
        <ele>379.0</ele>
        <time>2018-05-19T06:46:58.872Z</time>
      </trkpt>
      <trkpt lat="43.28369" lon="-4.27129167">
        <ele>379.0</ele>
        <time>2018-05-19T06:46:59.860Z</time>
      </trkpt>
      <trkpt lat="43.28369" lon="-4.27129167">
        <ele>379.0</ele>
        <time>2018-05-19T06:47:00.845Z</time>
      </trkpt>
      <trkpt lat="43.283685" lon="-4.27131833">
        <ele>380.0</ele>
        <time>2018-05-19T06:47:01.880Z</time>
      </trkpt>
      <trkpt lat="43.283685" lon="-4.27131833">
        <ele>380.0</ele>
        <time>2018-05-19T06:47:02.873Z</time>
      </trkpt>
      <trkpt lat="43.28368167" lon="-4.271355">
        <ele>380.0</ele>
        <time>2018-05-19T06:47:03.878Z</time>
      </trkpt>
      <trkpt lat="43.28368167" lon="-4.271355">
        <ele>380.0</ele>
        <time>2018-05-19T06:47:04.876Z</time>
      </trkpt>
      <trkpt lat="43.283675" lon="-4.271395">
        <ele>380.0</ele>
        <time>2018-05-19T06:47:05.875Z</time>
      </trkpt>
      <trkpt lat="43.283675" lon="-4.271395">
        <ele>380.0</ele>
        <time>2018-05-19T06:47:06.873Z</time>
      </trkpt>
      <trkpt lat="43.28367" lon="-4.27143167">
        <ele>381.0</ele>
        <time>2018-05-19T06:47:07.879Z</time>
      </trkpt>
      <trkpt lat="43.28367" lon="-4.27143167">
        <ele>381.0</ele>
        <time>2018-05-19T06:47:08.875Z</time>
      </trkpt>
      <trkpt lat="43.28366167" lon="-4.27147333">
        <ele>381.0</ele>
        <time>2018-05-19T06:47:09.878Z</time>
      </trkpt>
      <trkpt lat="43.28366167" lon="-4.27147333">
        <ele>381.0</ele>
        <time>2018-05-19T06:47:10.873Z</time>
      </trkpt>
      <trkpt lat="43.28365833" lon="-4.27151333">
        <ele>381.0</ele>
        <time>2018-05-19T06:47:11.878Z</time>
      </trkpt>
      <trkpt lat="43.28365833" lon="-4.27151333">
        <ele>381.0</ele>
        <time>2018-05-19T06:47:12.876Z</time>
      </trkpt>
      <trkpt lat="43.28364833" lon="-4.27156167">
        <ele>382.0</ele>
        <time>2018-05-19T06:47:13.880Z</time>
      </trkpt>
      <trkpt lat="43.28364833" lon="-4.27156167">
        <ele>382.0</ele>
        <time>2018-05-19T06:47:14.875Z</time>
      </trkpt>
      <trkpt lat="43.28364667" lon="-4.27160667">
        <ele>383.0</ele>
        <time>2018-05-19T06:47:15.861Z</time>
      </trkpt>
      <trkpt lat="43.28364667" lon="-4.27160667">
        <ele>383.0</ele>
        <time>2018-05-19T06:47:16.860Z</time>
      </trkpt>
      <trkpt lat="43.28364667" lon="-4.27164667">
        <ele>383.0</ele>
        <time>2018-05-19T06:47:17.846Z</time>
      </trkpt>
      <trkpt lat="43.28364667" lon="-4.27164667">
        <ele>383.0</ele>
        <time>2018-05-19T06:47:18.874Z</time>
      </trkpt>
      <trkpt lat="43.28364" lon="-4.27169">
        <ele>384.0</ele>
        <time>2018-05-19T06:47:19.880Z</time>
      </trkpt>
      <trkpt lat="43.28364" lon="-4.27169">
        <ele>384.0</ele>
        <time>2018-05-19T06:47:20.872Z</time>
      </trkpt>
      <trkpt lat="43.28364" lon="-4.27173333">
        <ele>384.0</ele>
        <time>2018-05-19T06:47:21.878Z</time>
      </trkpt>
      <trkpt lat="43.28364" lon="-4.27173333">
        <ele>384.0</ele>
        <time>2018-05-19T06:47:22.875Z</time>
      </trkpt>
      <trkpt lat="43.28364333" lon="-4.27177833">
        <ele>384.0</ele>
        <time>2018-05-19T06:47:23.877Z</time>
      </trkpt>
      <trkpt lat="43.28364167" lon="-4.2718">
        <ele>385.0</ele>
        <time>2018-05-19T06:47:24.879Z</time>
      </trkpt>
      <trkpt lat="43.28364167" lon="-4.2718">
        <ele>385.0</ele>
        <time>2018-05-19T06:47:25.872Z</time>
      </trkpt>
      <trkpt lat="43.28363667" lon="-4.271845">
        <ele>385.0</ele>
        <time>2018-05-19T06:47:26.878Z</time>
      </trkpt>
      <trkpt lat="43.28363667" lon="-4.271845">
        <ele>385.0</ele>
        <time>2018-05-19T06:47:27.873Z</time>
      </trkpt>
      <trkpt lat="43.28363333" lon="-4.27188833">
        <ele>385.0</ele>
        <time>2018-05-19T06:47:28.876Z</time>
      </trkpt>
      <trkpt lat="43.28363167" lon="-4.27190667">
        <ele>386.0</ele>
        <time>2018-05-19T06:47:29.878Z</time>
      </trkpt>
      <trkpt lat="43.28363167" lon="-4.27190667">
        <ele>386.0</ele>
        <time>2018-05-19T06:47:30.877Z</time>
      </trkpt>
      <trkpt lat="43.28362833" lon="-4.27195167">
        <ele>386.0</ele>
        <time>2018-05-19T06:47:31.877Z</time>
      </trkpt>
      <trkpt lat="43.28362833" lon="-4.27195167">
        <ele>386.0</ele>
        <time>2018-05-19T06:47:32.876Z</time>
      </trkpt>
      <trkpt lat="43.28362667" lon="-4.27200333">
        <ele>387.0</ele>
        <time>2018-05-19T06:47:33.878Z</time>
      </trkpt>
      <trkpt lat="43.28362667" lon="-4.27200333">
        <ele>387.0</ele>
        <time>2018-05-19T06:47:34.873Z</time>
      </trkpt>
      <trkpt lat="43.283625" lon="-4.27205833">
        <ele>388.0</ele>
        <time>2018-05-19T06:47:35.874Z</time>
      </trkpt>
      <trkpt lat="43.283625" lon="-4.27205833">
        <ele>388.0</ele>
        <time>2018-05-19T06:47:36.874Z</time>
      </trkpt>
      <trkpt lat="43.283625" lon="-4.272115">
        <ele>388.0</ele>
        <time>2018-05-19T06:47:37.879Z</time>
      </trkpt>
      <trkpt lat="43.283625" lon="-4.272115">
        <ele>388.0</ele>
        <time>2018-05-19T06:47:38.873Z</time>
      </trkpt>
      <trkpt lat="43.28362833" lon="-4.27216833">
        <ele>388.0</ele>
        <time>2018-05-19T06:47:39.876Z</time>
      </trkpt>
      <trkpt lat="43.28362833" lon="-4.27216833">
        <ele>388.0</ele>
        <time>2018-05-19T06:47:40.875Z</time>
      </trkpt>
      <trkpt lat="43.28362667" lon="-4.27221833">
        <ele>389.0</ele>
        <time>2018-05-19T06:47:41.877Z</time>
      </trkpt>
      <trkpt lat="43.28362667" lon="-4.27221833">
        <ele>389.0</ele>
        <time>2018-05-19T06:47:42.872Z</time>
      </trkpt>
      <trkpt lat="43.28362667" lon="-4.272275">
        <ele>389.0</ele>
        <time>2018-05-19T06:47:43.877Z</time>
      </trkpt>
      <trkpt lat="43.28362667" lon="-4.272275">
        <ele>389.0</ele>
        <time>2018-05-19T06:47:44.876Z</time>
      </trkpt>
      <trkpt lat="43.28362333" lon="-4.27233833">
        <ele>389.0</ele>
        <time>2018-05-19T06:47:45.878Z</time>
      </trkpt>
      <trkpt lat="43.28362333" lon="-4.27233833">
        <ele>389.0</ele>
        <time>2018-05-19T06:47:46.853Z</time>
      </trkpt>
      <trkpt lat="43.28361833" lon="-4.27240833">
        <ele>389.0</ele>
        <time>2018-05-19T06:47:47.878Z</time>
      </trkpt>
      <trkpt lat="43.28361833" lon="-4.27240833">
        <ele>389.0</ele>
        <time>2018-05-19T06:47:48.874Z</time>
      </trkpt>
      <trkpt lat="43.28361333" lon="-4.272475">
        <ele>390.0</ele>
        <time>2018-05-19T06:47:49.880Z</time>
      </trkpt>
      <trkpt lat="43.28361333" lon="-4.272475">
        <ele>390.0</ele>
        <time>2018-05-19T06:47:50.876Z</time>
      </trkpt>
      <trkpt lat="43.28360667" lon="-4.27255333">
        <ele>390.0</ele>
        <time>2018-05-19T06:47:51.878Z</time>
      </trkpt>
      <trkpt lat="43.28360667" lon="-4.27255333">
        <ele>390.0</ele>
        <time>2018-05-19T06:47:52.876Z</time>
      </trkpt>
      <trkpt lat="43.28359833" lon="-4.27264">
        <ele>390.0</ele>
        <time>2018-05-19T06:47:53.877Z</time>
      </trkpt>
      <trkpt lat="43.28359833" lon="-4.27264">
        <ele>390.0</ele>
        <time>2018-05-19T06:47:54.875Z</time>
      </trkpt>
      <trkpt lat="43.28359333" lon="-4.27272833">
        <ele>390.0</ele>
        <time>2018-05-19T06:47:55.879Z</time>
      </trkpt>
      <trkpt lat="43.28359333" lon="-4.27272833">
        <ele>390.0</ele>
        <time>2018-05-19T06:47:56.846Z</time>
      </trkpt>
      <trkpt lat="43.28358833" lon="-4.27280833">
        <ele>390.0</ele>
        <time>2018-05-19T06:47:57.877Z</time>
      </trkpt>
      <trkpt lat="43.283585" lon="-4.272845">
        <ele>390.0</ele>
        <time>2018-05-19T06:47:58.878Z</time>
      </trkpt>
      <trkpt lat="43.283585" lon="-4.272845">
        <ele>390.0</ele>
        <time>2018-05-19T06:47:59.872Z</time>
      </trkpt>
      <trkpt lat="43.28358333" lon="-4.27291">
        <ele>390.0</ele>
        <time>2018-05-19T06:48:00.879Z</time>
      </trkpt>
      <trkpt lat="43.28358333" lon="-4.27291">
        <ele>390.0</ele>
        <time>2018-05-19T06:48:01.873Z</time>
      </trkpt>
      <trkpt lat="43.28358" lon="-4.272965">
        <ele>390.0</ele>
        <time>2018-05-19T06:48:02.876Z</time>
      </trkpt>
      <trkpt lat="43.28357667" lon="-4.272995">
        <ele>390.0</ele>
        <time>2018-05-19T06:48:03.878Z</time>
      </trkpt>
      <trkpt lat="43.28357667" lon="-4.272995">
        <ele>390.0</ele>
        <time>2018-05-19T06:48:04.872Z</time>
      </trkpt>
      <trkpt lat="43.28357333" lon="-4.27306167">
        <ele>390.0</ele>
        <time>2018-05-19T06:48:05.878Z</time>
      </trkpt>
      <trkpt lat="43.28357333" lon="-4.27306167">
        <ele>390.0</ele>
        <time>2018-05-19T06:48:06.875Z</time>
      </trkpt>
      <trkpt lat="43.28357167" lon="-4.27312">
        <ele>390.0</ele>
        <time>2018-05-19T06:48:07.878Z</time>
      </trkpt>
      <trkpt lat="43.28357167" lon="-4.27314833">
        <ele>390.0</ele>
        <time>2018-05-19T06:48:08.876Z</time>
      </trkpt>
      <trkpt lat="43.28357" lon="-4.27317833">
        <ele>390.0</ele>
        <time>2018-05-19T06:48:09.879Z</time>
      </trkpt>
      <trkpt lat="43.28357" lon="-4.27317833">
        <ele>390.0</ele>
        <time>2018-05-19T06:48:10.875Z</time>
      </trkpt>
      <trkpt lat="43.283565" lon="-4.273235">
        <ele>390.0</ele>
        <time>2018-05-19T06:48:11.878Z</time>
      </trkpt>
      <trkpt lat="43.283565" lon="-4.273235">
        <ele>390.0</ele>
        <time>2018-05-19T06:48:12.872Z</time>
      </trkpt>
      <trkpt lat="43.28356167" lon="-4.27329167">
        <ele>391.0</ele>
        <time>2018-05-19T06:48:13.878Z</time>
      </trkpt>
      <trkpt lat="43.28356167" lon="-4.27329167">
        <ele>391.0</ele>
        <time>2018-05-19T06:48:14.875Z</time>
      </trkpt>
      <trkpt lat="43.283555" lon="-4.27334667">
        <ele>391.0</ele>
        <time>2018-05-19T06:48:15.878Z</time>
      </trkpt>
      <trkpt lat="43.28355333" lon="-4.27337667">
        <ele>391.0</ele>
        <time>2018-05-19T06:48:16.878Z</time>
      </trkpt>
      <trkpt lat="43.28355333" lon="-4.27337667">
        <ele>391.0</ele>
        <time>2018-05-19T06:48:17.868Z</time>
      </trkpt>
      <trkpt lat="43.28355333" lon="-4.27343833">
        <ele>391.0</ele>
        <time>2018-05-19T06:48:18.852Z</time>
      </trkpt>
      <trkpt lat="43.28355333" lon="-4.27343833">
        <ele>391.0</ele>
        <time>2018-05-19T06:48:19.877Z</time>
      </trkpt>
      <trkpt lat="43.28354667" lon="-4.27349833">
        <ele>392.0</ele>
        <time>2018-05-19T06:48:20.877Z</time>
      </trkpt>
      <trkpt lat="43.28354333" lon="-4.27352833">
        <ele>392.0</ele>
        <time>2018-05-19T06:48:21.878Z</time>
      </trkpt>
      <trkpt lat="43.28354333" lon="-4.27352833">
        <ele>392.0</ele>
        <time>2018-05-19T06:48:22.873Z</time>
      </trkpt>
      <trkpt lat="43.28353667" lon="-4.27359">
        <ele>393.0</ele>
        <time>2018-05-19T06:48:23.876Z</time>
      </trkpt>
      <trkpt lat="43.28353667" lon="-4.27359">
        <ele>393.0</ele>
        <time>2018-05-19T06:48:24.874Z</time>
      </trkpt>
      <trkpt lat="43.28353333" lon="-4.27365">
        <ele>394.0</ele>
        <time>2018-05-19T06:48:25.879Z</time>
      </trkpt>
      <trkpt lat="43.28353333" lon="-4.27365">
        <ele>394.0</ele>
        <time>2018-05-19T06:48:26.875Z</time>
      </trkpt>
      <trkpt lat="43.28352833" lon="-4.27370333">
        <ele>394.0</ele>
        <time>2018-05-19T06:48:27.860Z</time>
      </trkpt>
      <trkpt lat="43.28353" lon="-4.27373">
        <ele>394.0</ele>
        <time>2018-05-19T06:48:28.854Z</time>
      </trkpt>
      <trkpt lat="43.28353" lon="-4.27373">
        <ele>394.0</ele>
        <time>2018-05-19T06:48:29.878Z</time>
      </trkpt>
      <trkpt lat="43.28353167" lon="-4.273785">
        <ele>395.0</ele>
        <time>2018-05-19T06:48:30.877Z</time>
      </trkpt>
      <trkpt lat="43.28353333" lon="-4.27381333">
        <ele>395.0</ele>
        <time>2018-05-19T06:48:31.879Z</time>
      </trkpt>
      <trkpt lat="43.28353333" lon="-4.27381333">
        <ele>395.0</ele>
        <time>2018-05-19T06:48:32.873Z</time>
      </trkpt>
      <trkpt lat="43.28353333" lon="-4.27386833">
        <ele>395.0</ele>
        <time>2018-05-19T06:48:33.880Z</time>
      </trkpt>
      <trkpt lat="43.28353333" lon="-4.27386833">
        <ele>395.0</ele>
        <time>2018-05-19T06:48:34.875Z</time>
      </trkpt>
      <trkpt lat="43.28352667" lon="-4.27393">
        <ele>396.0</ele>
        <time>2018-05-19T06:48:35.877Z</time>
      </trkpt>
      <trkpt lat="43.28352667" lon="-4.27393">
        <ele>396.0</ele>
        <time>2018-05-19T06:48:36.872Z</time>
      </trkpt>
      <trkpt lat="43.283525" lon="-4.27399">
        <ele>396.0</ele>
        <time>2018-05-19T06:48:37.876Z</time>
      </trkpt>
      <trkpt lat="43.283525" lon="-4.27399">
        <ele>396.0</ele>
        <time>2018-05-19T06:48:38.874Z</time>
      </trkpt>
      <trkpt lat="43.28352167" lon="-4.27405333">
        <ele>397.0</ele>
        <time>2018-05-19T06:48:39.878Z</time>
      </trkpt>
      <trkpt lat="43.28352167" lon="-4.27405333">
        <ele>397.0</ele>
        <time>2018-05-19T06:48:40.874Z</time>
      </trkpt>
      <trkpt lat="43.283515" lon="-4.27411833">
        <ele>397.0</ele>
        <time>2018-05-19T06:48:41.878Z</time>
      </trkpt>
      <trkpt lat="43.283515" lon="-4.27411833">
        <ele>397.0</ele>
        <time>2018-05-19T06:48:42.875Z</time>
      </trkpt>
      <trkpt lat="43.28351" lon="-4.27417833">
        <ele>398.0</ele>
        <time>2018-05-19T06:48:43.876Z</time>
      </trkpt>
      <trkpt lat="43.28351" lon="-4.27417833">
        <ele>398.0</ele>
        <time>2018-05-19T06:48:44.875Z</time>
      </trkpt>
      <trkpt lat="43.28351" lon="-4.27423333">
        <ele>399.0</ele>
        <time>2018-05-19T06:48:45.861Z</time>
      </trkpt>
      <trkpt lat="43.28351" lon="-4.27426167">
        <ele>399.0</ele>
        <time>2018-05-19T06:48:46.860Z</time>
      </trkpt>
      <trkpt lat="43.28351" lon="-4.27426167">
        <ele>399.0</ele>
        <time>2018-05-19T06:48:47.847Z</time>
      </trkpt>
      <trkpt lat="43.28351167" lon="-4.27431667">
        <ele>400.0</ele>
        <time>2018-05-19T06:48:48.876Z</time>
      </trkpt>
      <trkpt lat="43.28351167" lon="-4.27434333">
        <ele>401.0</ele>
        <time>2018-05-19T06:48:49.878Z</time>
      </trkpt>
      <trkpt lat="43.28351167" lon="-4.27434333">
        <ele>401.0</ele>
        <time>2018-05-19T06:48:50.872Z</time>
      </trkpt>
      <trkpt lat="43.28351333" lon="-4.27440167">
        <ele>401.0</ele>
        <time>2018-05-19T06:48:51.879Z</time>
      </trkpt>
      <trkpt lat="43.28351333" lon="-4.27440167">
        <ele>401.0</ele>
        <time>2018-05-19T06:48:52.876Z</time>
      </trkpt>
      <trkpt lat="43.28351167" lon="-4.27445667">
        <ele>402.0</ele>
        <time>2018-05-19T06:48:53.877Z</time>
      </trkpt>
      <trkpt lat="43.28351167" lon="-4.27445667">
        <ele>402.0</ele>
        <time>2018-05-19T06:48:54.873Z</time>
      </trkpt>
      <trkpt lat="43.28350833" lon="-4.27451">
        <ele>403.0</ele>
        <time>2018-05-19T06:48:55.880Z</time>
      </trkpt>
      <trkpt lat="43.28350833" lon="-4.27451">
        <ele>403.0</ele>
        <time>2018-05-19T06:48:56.875Z</time>
      </trkpt>
      <trkpt lat="43.283505" lon="-4.274565">
        <ele>403.0</ele>
        <time>2018-05-19T06:48:57.877Z</time>
      </trkpt>
      <trkpt lat="43.283505" lon="-4.274565">
        <ele>403.0</ele>
        <time>2018-05-19T06:48:58.873Z</time>
      </trkpt>
      <trkpt lat="43.28350333" lon="-4.27461833">
        <ele>404.0</ele>
        <time>2018-05-19T06:48:59.877Z</time>
      </trkpt>
      <trkpt lat="43.28350333" lon="-4.27461833">
        <ele>404.0</ele>
        <time>2018-05-19T06:49:00.875Z</time>
      </trkpt>
      <trkpt lat="43.28350167" lon="-4.27467">
        <ele>404.0</ele>
        <time>2018-05-19T06:49:01.878Z</time>
      </trkpt>
      <trkpt lat="43.28350167" lon="-4.27467">
        <ele>404.0</ele>
        <time>2018-05-19T06:49:02.871Z</time>
      </trkpt>
      <trkpt lat="43.28350167" lon="-4.27472333">
        <ele>405.0</ele>
        <time>2018-05-19T06:49:03.876Z</time>
      </trkpt>
      <trkpt lat="43.28350167" lon="-4.27472333">
        <ele>405.0</ele>
        <time>2018-05-19T06:49:04.874Z</time>
      </trkpt>
      <trkpt lat="43.28350167" lon="-4.27477667">
        <ele>406.0</ele>
        <time>2018-05-19T06:49:05.876Z</time>
      </trkpt>
      <trkpt lat="43.2835" lon="-4.27480167">
        <ele>406.0</ele>
        <time>2018-05-19T06:49:06.877Z</time>
      </trkpt>
      <trkpt lat="43.28350167" lon="-4.274825">
        <ele>406.0</ele>
        <time>2018-05-19T06:49:07.875Z</time>
      </trkpt>
      <trkpt lat="43.28350167" lon="-4.274825">
        <ele>406.0</ele>
        <time>2018-05-19T06:49:08.862Z</time>
      </trkpt>
      <trkpt lat="43.28350667" lon="-4.27487">
        <ele>407.0</ele>
        <time>2018-05-19T06:49:09.847Z</time>
      </trkpt>
      <trkpt lat="43.28350667" lon="-4.27487">
        <ele>407.0</ele>
        <time>2018-05-19T06:49:10.874Z</time>
      </trkpt>
      <trkpt lat="43.28351167" lon="-4.27492667">
        <ele>407.0</ele>
        <time>2018-05-19T06:49:11.876Z</time>
      </trkpt>
      <trkpt lat="43.28351167" lon="-4.27492667">
        <ele>407.0</ele>
        <time>2018-05-19T06:49:12.875Z</time>
      </trkpt>
      <trkpt lat="43.283515" lon="-4.27498167">
        <ele>408.0</ele>
        <time>2018-05-19T06:49:13.878Z</time>
      </trkpt>
      <trkpt lat="43.283515" lon="-4.27498167">
        <ele>408.0</ele>
        <time>2018-05-19T06:49:14.874Z</time>
      </trkpt>
      <trkpt lat="43.28351333" lon="-4.27504">
        <ele>408.0</ele>
        <time>2018-05-19T06:49:15.878Z</time>
      </trkpt>
      <trkpt lat="43.28351333" lon="-4.27504">
        <ele>408.0</ele>
        <time>2018-05-19T06:49:16.874Z</time>
      </trkpt>
      <trkpt lat="43.28351333" lon="-4.275105">
        <ele>409.0</ele>
        <time>2018-05-19T06:49:17.876Z</time>
      </trkpt>
      <trkpt lat="43.28351333" lon="-4.275105">
        <ele>409.0</ele>
        <time>2018-05-19T06:49:18.861Z</time>
      </trkpt>
      <trkpt lat="43.28351667" lon="-4.27517333">
        <ele>409.0</ele>
        <time>2018-05-19T06:49:19.847Z</time>
      </trkpt>
      <trkpt lat="43.28351667" lon="-4.27517333">
        <ele>409.0</ele>
        <time>2018-05-19T06:49:20.873Z</time>
      </trkpt>
      <trkpt lat="43.28351833" lon="-4.27523833">
        <ele>410.0</ele>
        <time>2018-05-19T06:49:21.874Z</time>
      </trkpt>
      <trkpt lat="43.28351833" lon="-4.27523833">
        <ele>410.0</ele>
        <time>2018-05-19T06:49:22.875Z</time>
      </trkpt>
      <trkpt lat="43.28352167" lon="-4.27530167">
        <ele>410.0</ele>
        <time>2018-05-19T06:49:23.874Z</time>
      </trkpt>
      <trkpt lat="43.28352167" lon="-4.27530167">
        <ele>410.0</ele>
        <time>2018-05-19T06:49:24.872Z</time>
      </trkpt>
      <trkpt lat="43.283525" lon="-4.27536667">
        <ele>410.0</ele>
        <time>2018-05-19T06:49:25.872Z</time>
      </trkpt>
      <trkpt lat="43.283525" lon="-4.27536667">
        <ele>410.0</ele>
        <time>2018-05-19T06:49:26.872Z</time>
      </trkpt>
      <trkpt lat="43.28353" lon="-4.27543167">
        <ele>411.0</ele>
        <time>2018-05-19T06:49:27.877Z</time>
      </trkpt>
      <trkpt lat="43.28353" lon="-4.27543167">
        <ele>411.0</ele>
        <time>2018-05-19T06:49:28.874Z</time>
      </trkpt>
      <trkpt lat="43.28353167" lon="-4.275495">
        <ele>411.0</ele>
        <time>2018-05-19T06:49:29.876Z</time>
      </trkpt>
      <trkpt lat="43.28353167" lon="-4.275495">
        <ele>411.0</ele>
        <time>2018-05-19T06:49:30.873Z</time>
      </trkpt>
      <trkpt lat="43.28353" lon="-4.27555667">
        <ele>412.0</ele>
        <time>2018-05-19T06:49:31.876Z</time>
      </trkpt>
      <trkpt lat="43.28353" lon="-4.27555667">
        <ele>412.0</ele>
        <time>2018-05-19T06:49:32.873Z</time>
      </trkpt>
      <trkpt lat="43.28353" lon="-4.27561667">
        <ele>412.0</ele>
        <time>2018-05-19T06:49:33.877Z</time>
      </trkpt>
      <trkpt lat="43.28353" lon="-4.27561667">
        <ele>412.0</ele>
        <time>2018-05-19T06:49:34.872Z</time>
      </trkpt>
      <trkpt lat="43.28353" lon="-4.275675">
        <ele>412.0</ele>
        <time>2018-05-19T06:49:35.860Z</time>
      </trkpt>
      <trkpt lat="43.28353" lon="-4.27570333">
        <ele>412.0</ele>
        <time>2018-05-19T06:49:36.847Z</time>
      </trkpt>
      <trkpt lat="43.28353" lon="-4.27573167">
        <ele>412.0</ele>
        <time>2018-05-19T06:49:37.876Z</time>
      </trkpt>
      <trkpt lat="43.28353" lon="-4.27573167">
        <ele>412.0</ele>
        <time>2018-05-19T06:49:38.874Z</time>
      </trkpt>
      <trkpt lat="43.28352833" lon="-4.27579333">
        <ele>413.0</ele>
        <time>2018-05-19T06:49:39.876Z</time>
      </trkpt>
      <trkpt lat="43.28352833" lon="-4.27579333">
        <ele>413.0</ele>
        <time>2018-05-19T06:49:40.875Z</time>
      </trkpt>
      <trkpt lat="43.28352833" lon="-4.27585833">
        <ele>413.0</ele>
        <time>2018-05-19T06:49:41.877Z</time>
      </trkpt>
      <trkpt lat="43.28352833" lon="-4.27585833">
        <ele>413.0</ele>
        <time>2018-05-19T06:49:42.874Z</time>
      </trkpt>
      <trkpt lat="43.28352833" lon="-4.27591833">
        <ele>413.0</ele>
        <time>2018-05-19T06:49:43.880Z</time>
      </trkpt>
      <trkpt lat="43.28352833" lon="-4.27591833">
        <ele>413.0</ele>
        <time>2018-05-19T06:49:44.874Z</time>
      </trkpt>
      <trkpt lat="43.28353" lon="-4.27598">
        <ele>414.0</ele>
        <time>2018-05-19T06:49:45.849Z</time>
      </trkpt>
      <trkpt lat="43.28353167" lon="-4.27601333">
        <ele>414.0</ele>
        <time>2018-05-19T06:49:46.877Z</time>
      </trkpt>
      <trkpt lat="43.28353167" lon="-4.27601333">
        <ele>414.0</ele>
        <time>2018-05-19T06:49:47.873Z</time>
      </trkpt>
      <trkpt lat="43.28353167" lon="-4.27608167">
        <ele>414.0</ele>
        <time>2018-05-19T06:49:48.876Z</time>
      </trkpt>
      <trkpt lat="43.28353333" lon="-4.27611667">
        <ele>414.0</ele>
        <time>2018-05-19T06:49:49.880Z</time>
      </trkpt>
      <trkpt lat="43.28353333" lon="-4.27611667">
        <ele>414.0</ele>
        <time>2018-05-19T06:49:50.876Z</time>
      </trkpt>
      <trkpt lat="43.283535" lon="-4.27619333">
        <ele>414.0</ele>
        <time>2018-05-19T06:49:51.877Z</time>
      </trkpt>
      <trkpt lat="43.283535" lon="-4.27619333">
        <ele>414.0</ele>
        <time>2018-05-19T06:49:52.872Z</time>
      </trkpt>
      <trkpt lat="43.28353667" lon="-4.276275">
        <ele>414.0</ele>
        <time>2018-05-19T06:49:53.877Z</time>
      </trkpt>
      <trkpt lat="43.28353667" lon="-4.276275">
        <ele>414.0</ele>
        <time>2018-05-19T06:49:54.874Z</time>
      </trkpt>
      <trkpt lat="43.28353333" lon="-4.276365">
        <ele>414.0</ele>
        <time>2018-05-19T06:49:55.860Z</time>
      </trkpt>
      <trkpt lat="43.28353333" lon="-4.276365">
        <ele>414.0</ele>
        <time>2018-05-19T06:49:56.845Z</time>
      </trkpt>
      <trkpt lat="43.28353333" lon="-4.27646667">
        <ele>414.0</ele>
        <time>2018-05-19T06:49:57.877Z</time>
      </trkpt>
      <trkpt lat="43.28353333" lon="-4.27646667">
        <ele>414.0</ele>
        <time>2018-05-19T06:49:58.850Z</time>
      </trkpt>
      <trkpt lat="43.283535" lon="-4.27656833">
        <ele>414.0</ele>
        <time>2018-05-19T06:49:59.874Z</time>
      </trkpt>
      <trkpt lat="43.283535" lon="-4.27656833">
        <ele>414.0</ele>
        <time>2018-05-19T06:50:00.871Z</time>
      </trkpt>
      <trkpt lat="43.283535" lon="-4.27666167">
        <ele>413.0</ele>
        <time>2018-05-19T06:50:01.876Z</time>
      </trkpt>
      <trkpt lat="43.283535" lon="-4.27666167">
        <ele>413.0</ele>
        <time>2018-05-19T06:50:02.874Z</time>
      </trkpt>
      <trkpt lat="43.283535" lon="-4.276745">
        <ele>413.0</ele>
        <time>2018-05-19T06:50:03.877Z</time>
      </trkpt>
      <trkpt lat="43.283535" lon="-4.276745">
        <ele>413.0</ele>
        <time>2018-05-19T06:50:04.871Z</time>
      </trkpt>
      <trkpt lat="43.283535" lon="-4.27684333">
        <ele>413.0</ele>
        <time>2018-05-19T06:50:05.860Z</time>
      </trkpt>
      <trkpt lat="43.283535" lon="-4.27684333">
        <ele>413.0</ele>
        <time>2018-05-19T06:50:06.850Z</time>
      </trkpt>
      <trkpt lat="43.283535" lon="-4.27695167">
        <ele>412.0</ele>
        <time>2018-05-19T06:50:07.880Z</time>
      </trkpt>
      <trkpt lat="43.283535" lon="-4.27695167">
        <ele>412.0</ele>
        <time>2018-05-19T06:50:08.873Z</time>
      </trkpt>
      <trkpt lat="43.28354167" lon="-4.27705667">
        <ele>412.0</ele>
        <time>2018-05-19T06:50:09.877Z</time>
      </trkpt>
      <trkpt lat="43.283545" lon="-4.277095">
        <ele>412.0</ele>
        <time>2018-05-19T06:50:10.877Z</time>
      </trkpt>
      <trkpt lat="43.283545" lon="-4.277095">
        <ele>412.0</ele>
        <time>2018-05-19T06:50:11.876Z</time>
      </trkpt>
      <trkpt lat="43.28354833" lon="-4.27716">
        <ele>412.0</ele>
        <time>2018-05-19T06:50:12.876Z</time>
      </trkpt>
      <trkpt lat="43.28354833" lon="-4.27719667">
        <ele>412.0</ele>
        <time>2018-05-19T06:50:13.875Z</time>
      </trkpt>
      <trkpt lat="43.28354833" lon="-4.27719667">
        <ele>412.0</ele>
        <time>2018-05-19T06:50:14.874Z</time>
      </trkpt>
      <trkpt lat="43.283555" lon="-4.277295">
        <ele>412.0</ele>
        <time>2018-05-19T06:50:15.877Z</time>
      </trkpt>
      <trkpt lat="43.283555" lon="-4.277295">
        <ele>412.0</ele>
        <time>2018-05-19T06:50:16.874Z</time>
      </trkpt>
      <trkpt lat="43.283565" lon="-4.277415">
        <ele>411.0</ele>
        <time>2018-05-19T06:50:17.877Z</time>
      </trkpt>
      <trkpt lat="43.283565" lon="-4.277415">
        <ele>411.0</ele>
        <time>2018-05-19T06:50:18.868Z</time>
      </trkpt>
      <trkpt lat="43.283595" lon="-4.27754667">
        <ele>411.0</ele>
        <time>2018-05-19T06:50:19.853Z</time>
      </trkpt>
      <trkpt lat="43.283595" lon="-4.27754667">
        <ele>411.0</ele>
        <time>2018-05-19T06:50:20.850Z</time>
      </trkpt>
      <trkpt lat="43.28363167" lon="-4.27769333">
        <ele>410.0</ele>
        <time>2018-05-19T06:50:21.877Z</time>
      </trkpt>
      <trkpt lat="43.28363167" lon="-4.27769333">
        <ele>410.0</ele>
        <time>2018-05-19T06:50:22.871Z</time>
      </trkpt>
      <trkpt lat="43.28367" lon="-4.27787167">
        <ele>409.0</ele>
        <time>2018-05-19T06:50:23.877Z</time>
      </trkpt>
      <trkpt lat="43.28367" lon="-4.27787167">
        <ele>409.0</ele>
        <time>2018-05-19T06:50:24.874Z</time>
      </trkpt>
      <trkpt lat="43.28371667" lon="-4.278075">
        <ele>407.0</ele>
        <time>2018-05-19T06:50:25.876Z</time>
      </trkpt>
      <trkpt lat="43.28371667" lon="-4.278075">
        <ele>407.0</ele>
        <time>2018-05-19T06:50:26.874Z</time>
      </trkpt>
      <trkpt lat="43.28375833" lon="-4.27828667">
        <ele>405.0</ele>
        <time>2018-05-19T06:50:27.876Z</time>
      </trkpt>
      <trkpt lat="43.28375833" lon="-4.27828667">
        <ele>405.0</ele>
        <time>2018-05-19T06:50:28.872Z</time>
      </trkpt>
      <trkpt lat="43.28379" lon="-4.27852">
        <ele>403.0</ele>
        <time>2018-05-19T06:50:29.884Z</time>
      </trkpt>
      <trkpt lat="43.28379" lon="-4.27852">
        <ele>403.0</ele>
        <time>2018-05-19T06:50:30.884Z</time>
      </trkpt>
      <trkpt lat="43.28384333" lon="-4.27876667">
        <ele>401.0</ele>
        <time>2018-05-19T06:50:31.878Z</time>
      </trkpt>
      <trkpt lat="43.28384333" lon="-4.27876667">
        <ele>401.0</ele>
        <time>2018-05-19T06:50:32.872Z</time>
      </trkpt>
      <trkpt lat="43.28392667" lon="-4.27902167">
        <ele>399.0</ele>
        <time>2018-05-19T06:50:33.877Z</time>
      </trkpt>
      <trkpt lat="43.28392667" lon="-4.27902167">
        <ele>399.0</ele>
        <time>2018-05-19T06:50:34.874Z</time>
      </trkpt>
      <trkpt lat="43.28404667" lon="-4.27927">
        <ele>395.0</ele>
        <time>2018-05-19T06:50:35.876Z</time>
      </trkpt>
      <trkpt lat="43.28411167" lon="-4.279395">
        <ele>394.0</ele>
        <time>2018-05-19T06:50:36.873Z</time>
      </trkpt>
      <trkpt lat="43.28417333" lon="-4.27950833">
        <ele>393.0</ele>
        <time>2018-05-19T06:50:37.878Z</time>
      </trkpt>
      <trkpt lat="43.28417333" lon="-4.27950833">
        <ele>393.0</ele>
        <time>2018-05-19T06:50:38.874Z</time>
      </trkpt>
      <trkpt lat="43.28429833" lon="-4.27971167">
        <ele>392.0</ele>
        <time>2018-05-19T06:50:39.877Z</time>
      </trkpt>
      <trkpt lat="43.28429833" lon="-4.27971167">
        <ele>392.0</ele>
        <time>2018-05-19T06:50:40.874Z</time>
      </trkpt>
      <trkpt lat="43.28441833" lon="-4.27990333">
        <ele>392.0</ele>
        <time>2018-05-19T06:50:41.877Z</time>
      </trkpt>
      <trkpt lat="43.28441833" lon="-4.27990333">
        <ele>392.0</ele>
        <time>2018-05-19T06:50:42.874Z</time>
      </trkpt>
      <trkpt lat="43.284525" lon="-4.28007833">
        <ele>392.0</ele>
        <time>2018-05-19T06:50:43.876Z</time>
      </trkpt>
      <trkpt lat="43.284525" lon="-4.28007833">
        <ele>392.0</ele>
        <time>2018-05-19T06:50:44.874Z</time>
      </trkpt>
      <trkpt lat="43.28463" lon="-4.28024333">
        <ele>392.0</ele>
        <time>2018-05-19T06:50:45.877Z</time>
      </trkpt>
      <trkpt lat="43.28463" lon="-4.28024333">
        <ele>392.0</ele>
        <time>2018-05-19T06:50:46.860Z</time>
      </trkpt>
      <trkpt lat="43.28473" lon="-4.280415">
        <ele>392.0</ele>
        <time>2018-05-19T06:50:47.846Z</time>
      </trkpt>
      <trkpt lat="43.28473" lon="-4.280415">
        <ele>392.0</ele>
        <time>2018-05-19T06:50:48.873Z</time>
      </trkpt>
      <trkpt lat="43.28482167" lon="-4.28060167">
        <ele>391.0</ele>
        <time>2018-05-19T06:50:49.878Z</time>
      </trkpt>
      <trkpt lat="43.28482167" lon="-4.28060167">
        <ele>391.0</ele>
        <time>2018-05-19T06:50:50.872Z</time>
      </trkpt>
      <trkpt lat="43.284905" lon="-4.28079833">
        <ele>391.0</ele>
        <time>2018-05-19T06:50:51.878Z</time>
      </trkpt>
      <trkpt lat="43.284905" lon="-4.28079833">
        <ele>391.0</ele>
        <time>2018-05-19T06:50:52.874Z</time>
      </trkpt>
      <trkpt lat="43.28497667" lon="-4.28100833">
        <ele>390.0</ele>
        <time>2018-05-19T06:50:53.876Z</time>
      </trkpt>
      <trkpt lat="43.28497667" lon="-4.28100833">
        <ele>390.0</ele>
        <time>2018-05-19T06:50:54.871Z</time>
      </trkpt>
      <trkpt lat="43.28504167" lon="-4.28123333">
        <ele>390.0</ele>
        <time>2018-05-19T06:50:55.860Z</time>
      </trkpt>
      <trkpt lat="43.28504167" lon="-4.28123333">
        <ele>390.0</ele>
        <time>2018-05-19T06:50:56.883Z</time>
      </trkpt>
      <trkpt lat="43.285105" lon="-4.28146667">
        <ele>388.0</ele>
        <time>2018-05-19T06:50:57.876Z</time>
      </trkpt>
      <trkpt lat="43.285105" lon="-4.28146667">
        <ele>388.0</ele>
        <time>2018-05-19T06:50:58.874Z</time>
      </trkpt>
      <trkpt lat="43.285165" lon="-4.28170667">
        <ele>387.0</ele>
        <time>2018-05-19T06:50:59.877Z</time>
      </trkpt>
      <trkpt lat="43.285165" lon="-4.28170667">
        <ele>387.0</ele>
        <time>2018-05-19T06:51:00.874Z</time>
      </trkpt>
      <trkpt lat="43.28523833" lon="-4.28196">
        <ele>385.0</ele>
        <time>2018-05-19T06:51:01.876Z</time>
      </trkpt>
      <trkpt lat="43.28523833" lon="-4.28196">
        <ele>385.0</ele>
        <time>2018-05-19T06:51:02.873Z</time>
      </trkpt>
      <trkpt lat="43.285315" lon="-4.282235">
        <ele>382.0</ele>
        <time>2018-05-19T06:51:03.876Z</time>
      </trkpt>
      <trkpt lat="43.285315" lon="-4.282235">
        <ele>382.0</ele>
        <time>2018-05-19T06:51:04.873Z</time>
      </trkpt>
      <trkpt lat="43.28538667" lon="-4.282515">
        <ele>379.0</ele>
        <time>2018-05-19T06:51:05.876Z</time>
      </trkpt>
      <trkpt lat="43.28538667" lon="-4.282515">
        <ele>379.0</ele>
        <time>2018-05-19T06:51:06.872Z</time>
      </trkpt>
      <trkpt lat="43.28545333" lon="-4.28277167">
        <ele>378.0</ele>
        <time>2018-05-19T06:51:07.849Z</time>
      </trkpt>
      <trkpt lat="43.28545333" lon="-4.28277167">
        <ele>378.0</ele>
        <time>2018-05-19T06:51:08.874Z</time>
      </trkpt>
      <trkpt lat="43.28557667" lon="-4.28297167">
        <ele>375.0</ele>
        <time>2018-05-19T06:51:09.874Z</time>
      </trkpt>
      <trkpt lat="43.28557667" lon="-4.28297167">
        <ele>375.0</ele>
        <time>2018-05-19T06:51:10.874Z</time>
      </trkpt>
      <trkpt lat="43.28575333" lon="-4.28311333">
        <ele>373.0</ele>
        <time>2018-05-19T06:51:11.876Z</time>
      </trkpt>
      <trkpt lat="43.28575333" lon="-4.28311333">
        <ele>373.0</ele>
        <time>2018-05-19T06:51:12.870Z</time>
      </trkpt>
      <trkpt lat="43.285955" lon="-4.28320833">
        <ele>371.0</ele>
        <time>2018-05-19T06:51:13.879Z</time>
      </trkpt>
      <trkpt lat="43.285955" lon="-4.28320833">
        <ele>371.0</ele>
        <time>2018-05-19T06:51:14.874Z</time>
      </trkpt>
      <trkpt lat="43.28615167" lon="-4.28330833">
        <ele>369.0</ele>
        <time>2018-05-19T06:51:15.876Z</time>
      </trkpt>
      <trkpt lat="43.28615167" lon="-4.28330833">
        <ele>369.0</ele>
        <time>2018-05-19T06:51:16.871Z</time>
      </trkpt>
      <trkpt lat="43.28633667" lon="-4.28345667">
        <ele>367.0</ele>
        <time>2018-05-19T06:51:17.877Z</time>
      </trkpt>
      <trkpt lat="43.28633667" lon="-4.28345667">
        <ele>367.0</ele>
        <time>2018-05-19T06:51:18.874Z</time>
      </trkpt>
      <trkpt lat="43.28650667" lon="-4.28365833">
        <ele>365.0</ele>
        <time>2018-05-19T06:51:19.877Z</time>
      </trkpt>
      <trkpt lat="43.28650667" lon="-4.28365833">
        <ele>365.0</ele>
        <time>2018-05-19T06:51:20.873Z</time>
      </trkpt>
      <trkpt lat="43.28665833" lon="-4.2839">
        <ele>363.0</ele>
        <time>2018-05-19T06:51:21.876Z</time>
      </trkpt>
      <trkpt lat="43.28665833" lon="-4.2839">
        <ele>363.0</ele>
        <time>2018-05-19T06:51:22.874Z</time>
      </trkpt>
      <trkpt lat="43.2868" lon="-4.284145">
        <ele>361.0</ele>
        <time>2018-05-19T06:51:23.876Z</time>
      </trkpt>
      <trkpt lat="43.2868" lon="-4.284145">
        <ele>361.0</ele>
        <time>2018-05-19T06:51:24.873Z</time>
      </trkpt>
      <trkpt lat="43.28694167" lon="-4.28437667">
        <ele>359.0</ele>
        <time>2018-05-19T06:51:25.847Z</time>
      </trkpt>
      <trkpt lat="43.28701167" lon="-4.284485">
        <ele>359.0</ele>
        <time>2018-05-19T06:51:26.876Z</time>
      </trkpt>
      <trkpt lat="43.28707833" lon="-4.28459">
        <ele>358.0</ele>
        <time>2018-05-19T06:51:27.876Z</time>
      </trkpt>
      <trkpt lat="43.28707833" lon="-4.28459">
        <ele>358.0</ele>
        <time>2018-05-19T06:51:28.871Z</time>
      </trkpt>
      <trkpt lat="43.28720333" lon="-4.284795">
        <ele>356.0</ele>
        <time>2018-05-19T06:51:29.860Z</time>
      </trkpt>
      <trkpt lat="43.28726" lon="-4.2849">
        <ele>355.0</ele>
        <time>2018-05-19T06:51:30.877Z</time>
      </trkpt>
      <trkpt lat="43.28732667" lon="-4.28499833">
        <ele>354.0</ele>
        <time>2018-05-19T06:51:31.876Z</time>
      </trkpt>
      <trkpt lat="43.28732667" lon="-4.28499833">
        <ele>354.0</ele>
        <time>2018-05-19T06:51:32.874Z</time>
      </trkpt>
      <trkpt lat="43.28745" lon="-4.28517">
        <ele>352.0</ele>
        <time>2018-05-19T06:51:33.876Z</time>
      </trkpt>
      <trkpt lat="43.28745" lon="-4.28517">
        <ele>352.0</ele>
        <time>2018-05-19T06:51:34.871Z</time>
      </trkpt>
      <trkpt lat="43.28757333" lon="-4.28533667">
        <ele>350.0</ele>
        <time>2018-05-19T06:51:35.876Z</time>
      </trkpt>
      <trkpt lat="43.28763333" lon="-4.28541">
        <ele>349.0</ele>
        <time>2018-05-19T06:51:36.876Z</time>
      </trkpt>
      <trkpt lat="43.28769833" lon="-4.285465">
        <ele>348.0</ele>
        <time>2018-05-19T06:51:37.877Z</time>
      </trkpt>
      <trkpt lat="43.28769833" lon="-4.285465">
        <ele>348.0</ele>
        <time>2018-05-19T06:51:38.873Z</time>
      </trkpt>
      <trkpt lat="43.28784333" lon="-4.28551667">
        <ele>346.0</ele>
        <time>2018-05-19T06:51:39.876Z</time>
      </trkpt>
      <trkpt lat="43.28784333" lon="-4.28551667">
        <ele>346.0</ele>
        <time>2018-05-19T06:51:40.873Z</time>
      </trkpt>
      <trkpt lat="43.28801667" lon="-4.28553">
        <ele>343.0</ele>
        <time>2018-05-19T06:51:41.876Z</time>
      </trkpt>
      <trkpt lat="43.28801667" lon="-4.28553">
        <ele>343.0</ele>
        <time>2018-05-19T06:51:42.874Z</time>
      </trkpt>
      <trkpt lat="43.288215" lon="-4.28553167">
        <ele>341.0</ele>
        <time>2018-05-19T06:51:43.878Z</time>
      </trkpt>
      <trkpt lat="43.288215" lon="-4.28553167">
        <ele>341.0</ele>
        <time>2018-05-19T06:51:44.871Z</time>
      </trkpt>
      <trkpt lat="43.28841333" lon="-4.285545">
        <ele>339.0</ele>
        <time>2018-05-19T06:51:45.883Z</time>
      </trkpt>
      <trkpt lat="43.28841333" lon="-4.285545">
        <ele>339.0</ele>
        <time>2018-05-19T06:51:46.860Z</time>
      </trkpt>
      <trkpt lat="43.28859667" lon="-4.28558167">
        <ele>337.0</ele>
        <time>2018-05-19T06:51:47.846Z</time>
      </trkpt>
      <trkpt lat="43.28859667" lon="-4.28558167">
        <ele>337.0</ele>
        <time>2018-05-19T06:51:48.870Z</time>
      </trkpt>
      <trkpt lat="43.28875667" lon="-4.28567667">
        <ele>335.0</ele>
        <time>2018-05-19T06:51:49.860Z</time>
      </trkpt>
      <trkpt lat="43.28875667" lon="-4.28567667">
        <ele>335.0</ele>
        <time>2018-05-19T06:51:50.845Z</time>
      </trkpt>
      <trkpt lat="43.28887167" lon="-4.28584833">
        <ele>333.0</ele>
        <time>2018-05-19T06:51:51.846Z</time>
      </trkpt>
      <trkpt lat="43.28887167" lon="-4.28584833">
        <ele>333.0</ele>
        <time>2018-05-19T06:51:52.871Z</time>
      </trkpt>
      <trkpt lat="43.28896333" lon="-4.28605">
        <ele>331.0</ele>
        <time>2018-05-19T06:51:53.877Z</time>
      </trkpt>
      <trkpt lat="43.28896333" lon="-4.28605">
        <ele>331.0</ele>
        <time>2018-05-19T06:51:54.874Z</time>
      </trkpt>
      <trkpt lat="43.28907333" lon="-4.28618833">
        <ele>329.0</ele>
        <time>2018-05-19T06:51:55.878Z</time>
      </trkpt>
      <trkpt lat="43.28907333" lon="-4.28618833">
        <ele>329.0</ele>
        <time>2018-05-19T06:51:56.873Z</time>
      </trkpt>
      <trkpt lat="43.28919667" lon="-4.28625167">
        <ele>327.0</ele>
        <time>2018-05-19T06:51:57.874Z</time>
      </trkpt>
      <trkpt lat="43.28919667" lon="-4.28625167">
        <ele>327.0</ele>
        <time>2018-05-19T06:51:58.874Z</time>
      </trkpt>
      <trkpt lat="43.28933833" lon="-4.286255">
        <ele>325.0</ele>
        <time>2018-05-19T06:51:59.868Z</time>
      </trkpt>
      <trkpt lat="43.28942" lon="-4.28624">
        <ele>324.0</ele>
        <time>2018-05-19T06:52:00.876Z</time>
      </trkpt>
      <trkpt lat="43.28951" lon="-4.286225">
        <ele>322.0</ele>
        <time>2018-05-19T06:52:01.877Z</time>
      </trkpt>
      <trkpt lat="43.28951" lon="-4.286225">
        <ele>322.0</ele>
        <time>2018-05-19T06:52:02.874Z</time>
      </trkpt>
      <trkpt lat="43.28971167" lon="-4.28622">
        <ele>320.0</ele>
        <time>2018-05-19T06:52:03.874Z</time>
      </trkpt>
      <trkpt lat="43.28971167" lon="-4.28622">
        <ele>320.0</ele>
        <time>2018-05-19T06:52:04.873Z</time>
      </trkpt>
      <trkpt lat="43.28991167" lon="-4.28627167">
        <ele>318.0</ele>
        <time>2018-05-19T06:52:05.876Z</time>
      </trkpt>
      <trkpt lat="43.290005" lon="-4.28630833">
        <ele>317.0</ele>
        <time>2018-05-19T06:52:06.877Z</time>
      </trkpt>
      <trkpt lat="43.290005" lon="-4.28630833">
        <ele>317.0</ele>
        <time>2018-05-19T06:52:07.875Z</time>
      </trkpt>
      <trkpt lat="43.29017667" lon="-4.28636333">
        <ele>315.0</ele>
        <time>2018-05-19T06:52:08.876Z</time>
      </trkpt>
      <trkpt lat="43.29017667" lon="-4.28636333">
        <ele>315.0</ele>
        <time>2018-05-19T06:52:09.849Z</time>
      </trkpt>
      <trkpt lat="43.29030667" lon="-4.28641333">
        <ele>313.0</ele>
        <time>2018-05-19T06:52:10.878Z</time>
      </trkpt>
      <trkpt lat="43.29035167" lon="-4.28647">
        <ele>313.0</ele>
        <time>2018-05-19T06:52:11.877Z</time>
      </trkpt>
      <trkpt lat="43.29035167" lon="-4.28647">
        <ele>313.0</ele>
        <time>2018-05-19T06:52:12.874Z</time>
      </trkpt>
      <trkpt lat="43.29038167" lon="-4.28664167">
        <ele>312.0</ele>
        <time>2018-05-19T06:52:13.883Z</time>
      </trkpt>
      <trkpt lat="43.29038167" lon="-4.28664167">
        <ele>312.0</ele>
        <time>2018-05-19T06:52:14.871Z</time>
      </trkpt>
      <trkpt lat="43.29036" lon="-4.28686">
        <ele>312.0</ele>
        <time>2018-05-19T06:52:15.860Z</time>
      </trkpt>
      <trkpt lat="43.29036" lon="-4.28697833">
        <ele>311.0</ele>
        <time>2018-05-19T06:52:16.883Z</time>
      </trkpt>
      <trkpt lat="43.29036" lon="-4.28697833">
        <ele>311.0</ele>
        <time>2018-05-19T06:52:17.872Z</time>
      </trkpt>
      <trkpt lat="43.29040333" lon="-4.2872">
        <ele>309.0</ele>
        <time>2018-05-19T06:52:18.861Z</time>
      </trkpt>
      <trkpt lat="43.29044667" lon="-4.287295">
        <ele>309.0</ele>
        <time>2018-05-19T06:52:19.845Z</time>
      </trkpt>
      <trkpt lat="43.29044667" lon="-4.287295">
        <ele>309.0</ele>
        <time>2018-05-19T06:52:20.873Z</time>
      </trkpt>
      <trkpt lat="43.29055833" lon="-4.28744167">
        <ele>307.0</ele>
        <time>2018-05-19T06:52:21.877Z</time>
      </trkpt>
      <trkpt lat="43.29055833" lon="-4.28744167">
        <ele>307.0</ele>
        <time>2018-05-19T06:52:22.874Z</time>
      </trkpt>
      <trkpt lat="43.29064167" lon="-4.28761">
        <ele>305.0</ele>
        <time>2018-05-19T06:52:23.876Z</time>
      </trkpt>
      <trkpt lat="43.29064167" lon="-4.28761">
        <ele>305.0</ele>
        <time>2018-05-19T06:52:24.874Z</time>
      </trkpt>
      <trkpt lat="43.29062833" lon="-4.28783167">
        <ele>305.0</ele>
        <time>2018-05-19T06:52:25.868Z</time>
      </trkpt>
      <trkpt lat="43.29061" lon="-4.28794667">
        <ele>304.0</ele>
        <time>2018-05-19T06:52:26.852Z</time>
      </trkpt>
      <trkpt lat="43.29061" lon="-4.28794667">
        <ele>304.0</ele>
        <time>2018-05-19T06:52:27.877Z</time>
      </trkpt>
      <trkpt lat="43.2906" lon="-4.28818">
        <ele>302.0</ele>
        <time>2018-05-19T06:52:28.876Z</time>
      </trkpt>
      <trkpt lat="43.2906" lon="-4.28818">
        <ele>302.0</ele>
        <time>2018-05-19T06:52:29.870Z</time>
      </trkpt>
      <trkpt lat="43.2906" lon="-4.288425">
        <ele>301.0</ele>
        <time>2018-05-19T06:52:30.873Z</time>
      </trkpt>
      <trkpt lat="43.2906" lon="-4.288425">
        <ele>301.0</ele>
        <time>2018-05-19T06:52:31.872Z</time>
      </trkpt>
      <trkpt lat="43.290595" lon="-4.28867167">
        <ele>300.0</ele>
        <time>2018-05-19T06:52:32.878Z</time>
      </trkpt>
      <trkpt lat="43.290595" lon="-4.28879667">
        <ele>299.0</ele>
        <time>2018-05-19T06:52:33.876Z</time>
      </trkpt>
      <trkpt lat="43.290595" lon="-4.28879667">
        <ele>299.0</ele>
        <time>2018-05-19T06:52:34.872Z</time>
      </trkpt>
      <trkpt lat="43.29060333" lon="-4.28906">
        <ele>298.0</ele>
        <time>2018-05-19T06:52:35.859Z</time>
      </trkpt>
      <trkpt lat="43.29060333" lon="-4.28906">
        <ele>298.0</ele>
        <time>2018-05-19T06:52:36.845Z</time>
      </trkpt>
      <trkpt lat="43.29062" lon="-4.28934167">
        <ele>296.0</ele>
        <time>2018-05-19T06:52:37.877Z</time>
      </trkpt>
      <trkpt lat="43.29062" lon="-4.28934167">
        <ele>296.0</ele>
        <time>2018-05-19T06:52:38.881Z</time>
      </trkpt>
      <trkpt lat="43.29063833" lon="-4.289635">
        <ele>295.0</ele>
        <time>2018-05-19T06:52:39.877Z</time>
      </trkpt>
      <trkpt lat="43.29063833" lon="-4.289635">
        <ele>295.0</ele>
        <time>2018-05-19T06:52:40.874Z</time>
      </trkpt>
      <trkpt lat="43.29068167" lon="-4.289905">
        <ele>293.0</ele>
        <time>2018-05-19T06:52:41.876Z</time>
      </trkpt>
      <trkpt lat="43.29068167" lon="-4.289905">
        <ele>293.0</ele>
        <time>2018-05-19T06:52:42.874Z</time>
      </trkpt>
      <trkpt lat="43.290775" lon="-4.29009667">
        <ele>291.0</ele>
        <time>2018-05-19T06:52:43.877Z</time>
      </trkpt>
      <trkpt lat="43.29085167" lon="-4.29015667">
        <ele>290.0</ele>
        <time>2018-05-19T06:52:44.879Z</time>
      </trkpt>
      <trkpt lat="43.29085167" lon="-4.29015667">
        <ele>290.0</ele>
        <time>2018-05-19T06:52:45.878Z</time>
      </trkpt>
      <trkpt lat="43.29102833" lon="-4.29022667">
        <ele>287.0</ele>
        <time>2018-05-19T06:52:46.876Z</time>
      </trkpt>
      <trkpt lat="43.29102833" lon="-4.29022667">
        <ele>287.0</ele>
        <time>2018-05-19T06:52:47.871Z</time>
      </trkpt>
      <trkpt lat="43.29122167" lon="-4.29027833">
        <ele>285.0</ele>
        <time>2018-05-19T06:52:48.861Z</time>
      </trkpt>
      <trkpt lat="43.29132" lon="-4.29031167">
        <ele>284.0</ele>
        <time>2018-05-19T06:52:49.848Z</time>
      </trkpt>
      <trkpt lat="43.29132" lon="-4.29031167">
        <ele>284.0</ele>
        <time>2018-05-19T06:52:50.874Z</time>
      </trkpt>
      <trkpt lat="43.29148667" lon="-4.29041667">
        <ele>282.0</ele>
        <time>2018-05-19T06:52:51.877Z</time>
      </trkpt>
      <trkpt lat="43.29148667" lon="-4.29041667">
        <ele>282.0</ele>
        <time>2018-05-19T06:52:52.871Z</time>
      </trkpt>
      <trkpt lat="43.29158" lon="-4.29058833">
        <ele>282.0</ele>
        <time>2018-05-19T06:52:53.876Z</time>
      </trkpt>
      <trkpt lat="43.29158" lon="-4.29058833">
        <ele>282.0</ele>
        <time>2018-05-19T06:52:54.873Z</time>
      </trkpt>
      <trkpt lat="43.29166667" lon="-4.29077833">
        <ele>281.0</ele>
        <time>2018-05-19T06:52:55.874Z</time>
      </trkpt>
      <trkpt lat="43.29166667" lon="-4.29077833">
        <ele>281.0</ele>
        <time>2018-05-19T06:52:56.871Z</time>
      </trkpt>
      <trkpt lat="43.29180167" lon="-4.29092667">
        <ele>279.0</ele>
        <time>2018-05-19T06:52:57.877Z</time>
      </trkpt>
      <trkpt lat="43.29180167" lon="-4.29092667">
        <ele>279.0</ele>
        <time>2018-05-19T06:52:58.879Z</time>
      </trkpt>
      <trkpt lat="43.291975" lon="-4.290965">
        <ele>277.0</ele>
        <time>2018-05-19T06:52:59.876Z</time>
      </trkpt>
      <trkpt lat="43.29205833" lon="-4.29098833">
        <ele>276.0</ele>
        <time>2018-05-19T06:53:00.860Z</time>
      </trkpt>
      <trkpt lat="43.29205833" lon="-4.29098833">
        <ele>276.0</ele>
        <time>2018-05-19T06:53:01.849Z</time>
      </trkpt>
      <trkpt lat="43.29221667" lon="-4.29113">
        <ele>274.0</ele>
        <time>2018-05-19T06:53:02.876Z</time>
      </trkpt>
      <trkpt lat="43.292285" lon="-4.29122333">
        <ele>273.0</ele>
        <time>2018-05-19T06:53:03.876Z</time>
      </trkpt>
      <trkpt lat="43.292285" lon="-4.29122333">
        <ele>273.0</ele>
        <time>2018-05-19T06:53:04.871Z</time>
      </trkpt>
      <trkpt lat="43.29239833" lon="-4.29139833">
        <ele>271.0</ele>
        <time>2018-05-19T06:53:05.859Z</time>
      </trkpt>
      <trkpt lat="43.29239833" lon="-4.29139833">
        <ele>271.0</ele>
        <time>2018-05-19T06:53:06.873Z</time>
      </trkpt>
      <trkpt lat="43.29246167" lon="-4.29157">
        <ele>270.0</ele>
        <time>2018-05-19T06:53:07.877Z</time>
      </trkpt>
      <trkpt lat="43.29246167" lon="-4.29157">
        <ele>270.0</ele>
        <time>2018-05-19T06:53:08.863Z</time>
      </trkpt>
      <trkpt lat="43.29241333" lon="-4.29176833">
        <ele>269.0</ele>
        <time>2018-05-19T06:53:09.848Z</time>
      </trkpt>
      <trkpt lat="43.29241333" lon="-4.29176833">
        <ele>269.0</ele>
        <time>2018-05-19T06:53:10.851Z</time>
      </trkpt>
      <trkpt lat="43.29236667" lon="-4.29198833">
        <ele>268.0</ele>
        <time>2018-05-19T06:53:11.878Z</time>
      </trkpt>
      <trkpt lat="43.29236667" lon="-4.29198833">
        <ele>268.0</ele>
        <time>2018-05-19T06:53:12.871Z</time>
      </trkpt>
      <trkpt lat="43.29239333" lon="-4.29224">
        <ele>266.0</ele>
        <time>2018-05-19T06:53:13.877Z</time>
      </trkpt>
      <trkpt lat="43.29239333" lon="-4.29224">
        <ele>266.0</ele>
        <time>2018-05-19T06:53:14.873Z</time>
      </trkpt>
      <trkpt lat="43.29250167" lon="-4.29246833">
        <ele>265.0</ele>
        <time>2018-05-19T06:53:15.874Z</time>
      </trkpt>
      <trkpt lat="43.29250167" lon="-4.29246833">
        <ele>265.0</ele>
        <time>2018-05-19T06:53:16.874Z</time>
      </trkpt>
      <trkpt lat="43.29265333" lon="-4.29265833">
        <ele>263.0</ele>
        <time>2018-05-19T06:53:17.876Z</time>
      </trkpt>
      <trkpt lat="43.29265333" lon="-4.29265833">
        <ele>263.0</ele>
        <time>2018-05-19T06:53:18.874Z</time>
      </trkpt>
      <trkpt lat="43.29281167" lon="-4.29279333">
        <ele>261.0</ele>
        <time>2018-05-19T06:53:19.877Z</time>
      </trkpt>
      <trkpt lat="43.29281167" lon="-4.29279333">
        <ele>261.0</ele>
        <time>2018-05-19T06:53:20.873Z</time>
      </trkpt>
      <trkpt lat="43.29294333" lon="-4.29285167">
        <ele>260.0</ele>
        <time>2018-05-19T06:53:21.876Z</time>
      </trkpt>
      <trkpt lat="43.29294333" lon="-4.29285167">
        <ele>260.0</ele>
        <time>2018-05-19T06:53:22.871Z</time>
      </trkpt>
      <trkpt lat="43.29300667" lon="-4.29296333">
        <ele>259.0</ele>
        <time>2018-05-19T06:53:23.876Z</time>
      </trkpt>
      <trkpt lat="43.29300667" lon="-4.29296333">
        <ele>259.0</ele>
        <time>2018-05-19T06:53:24.873Z</time>
      </trkpt>
      <trkpt lat="43.29299667" lon="-4.29314333">
        <ele>258.0</ele>
        <time>2018-05-19T06:53:25.875Z</time>
      </trkpt>
      <trkpt lat="43.29298" lon="-4.293245">
        <ele>257.0</ele>
        <time>2018-05-19T06:53:26.876Z</time>
      </trkpt>
      <trkpt lat="43.29298" lon="-4.293245">
        <ele>257.0</ele>
        <time>2018-05-19T06:53:27.870Z</time>
      </trkpt>
      <trkpt lat="43.29291333" lon="-4.29346333">
        <ele>256.0</ele>
        <time>2018-05-19T06:53:28.859Z</time>
      </trkpt>
      <trkpt lat="43.29286833" lon="-4.29357667">
        <ele>255.0</ele>
        <time>2018-05-19T06:53:29.866Z</time>
      </trkpt>
      <trkpt lat="43.29286833" lon="-4.29357667">
        <ele>255.0</ele>
        <time>2018-05-19T06:53:30.873Z</time>
      </trkpt>
      <trkpt lat="43.292805" lon="-4.29382">
        <ele>254.0</ele>
        <time>2018-05-19T06:53:31.877Z</time>
      </trkpt>
      <trkpt lat="43.292805" lon="-4.29382">
        <ele>254.0</ele>
        <time>2018-05-19T06:53:32.870Z</time>
      </trkpt>
      <trkpt lat="43.29279833" lon="-4.29408833">
        <ele>252.0</ele>
        <time>2018-05-19T06:53:33.873Z</time>
      </trkpt>
      <trkpt lat="43.29279833" lon="-4.29408833">
        <ele>252.0</ele>
        <time>2018-05-19T06:53:34.874Z</time>
      </trkpt>
      <trkpt lat="43.29284" lon="-4.29434667">
        <ele>251.0</ele>
        <time>2018-05-19T06:53:35.876Z</time>
      </trkpt>
      <trkpt lat="43.29285" lon="-4.29447833">
        <ele>250.0</ele>
        <time>2018-05-19T06:53:36.873Z</time>
      </trkpt>
      <trkpt lat="43.29284833" lon="-4.29461333">
        <ele>249.0</ele>
        <time>2018-05-19T06:53:37.877Z</time>
      </trkpt>
      <trkpt lat="43.29284833" lon="-4.29461333">
        <ele>249.0</ele>
        <time>2018-05-19T06:53:38.873Z</time>
      </trkpt>
      <trkpt lat="43.29278667" lon="-4.29487667">
        <ele>248.0</ele>
        <time>2018-05-19T06:53:39.873Z</time>
      </trkpt>
      <trkpt lat="43.29278667" lon="-4.29487667">
        <ele>248.0</ele>
        <time>2018-05-19T06:53:40.873Z</time>
      </trkpt>
      <trkpt lat="43.29274333" lon="-4.29514833">
        <ele>246.0</ele>
        <time>2018-05-19T06:53:41.874Z</time>
      </trkpt>
      <trkpt lat="43.29274333" lon="-4.29514833">
        <ele>246.0</ele>
        <time>2018-05-19T06:53:42.873Z</time>
      </trkpt>
      <trkpt lat="43.29276667" lon="-4.29542167">
        <ele>245.0</ele>
        <time>2018-05-19T06:53:43.877Z</time>
      </trkpt>
      <trkpt lat="43.29276667" lon="-4.29542167">
        <ele>245.0</ele>
        <time>2018-05-19T06:53:44.873Z</time>
      </trkpt>
      <trkpt lat="43.29287" lon="-4.29566">
        <ele>244.0</ele>
        <time>2018-05-19T06:53:45.884Z</time>
      </trkpt>
      <trkpt lat="43.29287" lon="-4.29566">
        <ele>244.0</ele>
        <time>2018-05-19T06:53:46.874Z</time>
      </trkpt>
      <trkpt lat="43.29303" lon="-4.29586667">
        <ele>241.0</ele>
        <time>2018-05-19T06:53:47.876Z</time>
      </trkpt>
      <trkpt lat="43.29303" lon="-4.29586667">
        <ele>241.0</ele>
        <time>2018-05-19T06:53:48.873Z</time>
      </trkpt>
      <trkpt lat="43.293205" lon="-4.29603">
        <ele>239.0</ele>
        <time>2018-05-19T06:53:49.877Z</time>
      </trkpt>
      <trkpt lat="43.293205" lon="-4.29603">
        <ele>239.0</ele>
        <time>2018-05-19T06:53:50.867Z</time>
      </trkpt>
      <trkpt lat="43.293345" lon="-4.29624333">
        <ele>237.0</ele>
        <time>2018-05-19T06:53:51.873Z</time>
      </trkpt>
      <trkpt lat="43.293345" lon="-4.29624333">
        <ele>237.0</ele>
        <time>2018-05-19T06:53:52.873Z</time>
      </trkpt>
      <trkpt lat="43.29345167" lon="-4.29650167">
        <ele>236.0</ele>
        <time>2018-05-19T06:53:53.876Z</time>
      </trkpt>
      <trkpt lat="43.29345167" lon="-4.29650167">
        <ele>236.0</ele>
        <time>2018-05-19T06:53:54.873Z</time>
      </trkpt>
      <trkpt lat="43.29351833" lon="-4.29677">
        <ele>234.0</ele>
        <time>2018-05-19T06:53:55.876Z</time>
      </trkpt>
      <trkpt lat="43.29351833" lon="-4.29677">
        <ele>234.0</ele>
        <time>2018-05-19T06:53:56.873Z</time>
      </trkpt>
      <trkpt lat="43.29352" lon="-4.29704833">
        <ele>233.0</ele>
        <time>2018-05-19T06:53:57.873Z</time>
      </trkpt>
      <trkpt lat="43.29352" lon="-4.29704833">
        <ele>233.0</ele>
        <time>2018-05-19T06:53:58.872Z</time>
      </trkpt>
      <trkpt lat="43.29347" lon="-4.29731">
        <ele>232.0</ele>
        <time>2018-05-19T06:53:59.874Z</time>
      </trkpt>
      <trkpt lat="43.29347" lon="-4.29731">
        <ele>232.0</ele>
        <time>2018-05-19T06:54:00.860Z</time>
      </trkpt>
      <trkpt lat="43.29342833" lon="-4.29751667">
        <ele>231.0</ele>
        <time>2018-05-19T06:54:01.847Z</time>
      </trkpt>
      <trkpt lat="43.29342833" lon="-4.29751667">
        <ele>231.0</ele>
        <time>2018-05-19T06:54:02.873Z</time>
      </trkpt>
      <trkpt lat="43.29347667" lon="-4.29768667">
        <ele>230.0</ele>
        <time>2018-05-19T06:54:03.876Z</time>
      </trkpt>
      <trkpt lat="43.29347667" lon="-4.29768667">
        <ele>230.0</ele>
        <time>2018-05-19T06:54:04.871Z</time>
      </trkpt>
      <trkpt lat="43.29357667" lon="-4.29782">
        <ele>229.0</ele>
        <time>2018-05-19T06:54:05.859Z</time>
      </trkpt>
      <trkpt lat="43.29357667" lon="-4.29782">
        <ele>229.0</ele>
        <time>2018-05-19T06:54:06.844Z</time>
      </trkpt>
      <trkpt lat="43.29368167" lon="-4.29796">
        <ele>228.0</ele>
        <time>2018-05-19T06:54:07.876Z</time>
      </trkpt>
      <trkpt lat="43.29368167" lon="-4.29796">
        <ele>228.0</ele>
        <time>2018-05-19T06:54:08.871Z</time>
      </trkpt>
      <trkpt lat="43.29382833" lon="-4.29811333">
        <ele>227.0</ele>
        <time>2018-05-19T06:54:09.876Z</time>
      </trkpt>
      <trkpt lat="43.29382833" lon="-4.29811333">
        <ele>227.0</ele>
        <time>2018-05-19T06:54:10.872Z</time>
      </trkpt>
      <trkpt lat="43.29396333" lon="-4.29826667">
        <ele>225.0</ele>
        <time>2018-05-19T06:54:11.874Z</time>
      </trkpt>
      <trkpt lat="43.29403167" lon="-4.29832833">
        <ele>225.0</ele>
        <time>2018-05-19T06:54:12.876Z</time>
      </trkpt>
      <trkpt lat="43.294105" lon="-4.298375">
        <ele>224.0</ele>
        <time>2018-05-19T06:54:13.877Z</time>
      </trkpt>
      <trkpt lat="43.294105" lon="-4.298375">
        <ele>224.0</ele>
        <time>2018-05-19T06:54:14.873Z</time>
      </trkpt>
      <trkpt lat="43.294265" lon="-4.29836667">
        <ele>223.0</ele>
        <time>2018-05-19T06:54:15.873Z</time>
      </trkpt>
      <trkpt lat="43.294265" lon="-4.29836667">
        <ele>223.0</ele>
        <time>2018-05-19T06:54:16.871Z</time>
      </trkpt>
      <trkpt lat="43.29439333" lon="-4.29824">
        <ele>221.0</ele>
        <time>2018-05-19T06:54:17.872Z</time>
      </trkpt>
      <trkpt lat="43.29439333" lon="-4.29824">
        <ele>221.0</ele>
        <time>2018-05-19T06:54:18.860Z</time>
      </trkpt>
      <trkpt lat="43.29452333" lon="-4.29813833">
        <ele>219.0</ele>
        <time>2018-05-19T06:54:19.846Z</time>
      </trkpt>
      <trkpt lat="43.29452333" lon="-4.29813833">
        <ele>219.0</ele>
        <time>2018-05-19T06:54:20.873Z</time>
      </trkpt>
      <trkpt lat="43.29467167" lon="-4.29810333">
        <ele>216.0</ele>
        <time>2018-05-19T06:54:21.873Z</time>
      </trkpt>
      <trkpt lat="43.29467167" lon="-4.29810333">
        <ele>216.0</ele>
        <time>2018-05-19T06:54:22.873Z</time>
      </trkpt>
      <trkpt lat="43.29484" lon="-4.298065">
        <ele>213.0</ele>
        <time>2018-05-19T06:54:23.876Z</time>
      </trkpt>
      <trkpt lat="43.29484" lon="-4.298065">
        <ele>213.0</ele>
        <time>2018-05-19T06:54:24.873Z</time>
      </trkpt>
      <trkpt lat="43.295" lon="-4.29791333">
        <ele>212.0</ele>
        <time>2018-05-19T06:54:25.874Z</time>
      </trkpt>
      <trkpt lat="43.295085" lon="-4.29782167">
        <ele>211.0</ele>
        <time>2018-05-19T06:54:26.876Z</time>
      </trkpt>
      <trkpt lat="43.29517667" lon="-4.29772833">
        <ele>210.0</ele>
        <time>2018-05-19T06:54:27.873Z</time>
      </trkpt>
      <trkpt lat="43.29517667" lon="-4.29772833">
        <ele>210.0</ele>
        <time>2018-05-19T06:54:28.870Z</time>
      </trkpt>
      <trkpt lat="43.29535833" lon="-4.29757">
        <ele>208.0</ele>
        <time>2018-05-19T06:54:29.876Z</time>
      </trkpt>
      <trkpt lat="43.29535833" lon="-4.29757">
        <ele>208.0</ele>
        <time>2018-05-19T06:54:30.873Z</time>
      </trkpt>
      <trkpt lat="43.29556333" lon="-4.297495">
        <ele>207.0</ele>
        <time>2018-05-19T06:54:31.877Z</time>
      </trkpt>
      <trkpt lat="43.29556333" lon="-4.297495">
        <ele>207.0</ele>
        <time>2018-05-19T06:54:32.863Z</time>
      </trkpt>
      <trkpt lat="43.29578167" lon="-4.29750167">
        <ele>206.0</ele>
        <time>2018-05-19T06:54:33.848Z</time>
      </trkpt>
      <trkpt lat="43.29578167" lon="-4.29750167">
        <ele>206.0</ele>
        <time>2018-05-19T06:54:34.873Z</time>
      </trkpt>
      <trkpt lat="43.29599167" lon="-4.29758167">
        <ele>204.0</ele>
        <time>2018-05-19T06:54:35.877Z</time>
      </trkpt>
      <trkpt lat="43.29609167" lon="-4.297655">
        <ele>203.0</ele>
        <time>2018-05-19T06:54:36.876Z</time>
      </trkpt>
      <trkpt lat="43.29618833" lon="-4.29773833">
        <ele>203.0</ele>
        <time>2018-05-19T06:54:37.879Z</time>
      </trkpt>
      <trkpt lat="43.29618833" lon="-4.29773833">
        <ele>203.0</ele>
        <time>2018-05-19T06:54:38.877Z</time>
      </trkpt>
      <trkpt lat="43.296375" lon="-4.297845">
        <ele>201.0</ele>
        <time>2018-05-19T06:54:39.874Z</time>
      </trkpt>
      <trkpt lat="43.296465" lon="-4.29786333">
        <ele>200.0</ele>
        <time>2018-05-19T06:54:40.873Z</time>
      </trkpt>
      <trkpt lat="43.296465" lon="-4.29786333">
        <ele>200.0</ele>
        <time>2018-05-19T06:54:41.872Z</time>
      </trkpt>
      <trkpt lat="43.29662167" lon="-4.29783333">
        <ele>197.0</ele>
        <time>2018-05-19T06:54:42.876Z</time>
      </trkpt>
      <trkpt lat="43.29668333" lon="-4.29781167">
        <ele>197.0</ele>
        <time>2018-05-19T06:54:43.878Z</time>
      </trkpt>
      <trkpt lat="43.29668333" lon="-4.29781167">
        <ele>197.0</ele>
        <time>2018-05-19T06:54:44.871Z</time>
      </trkpt>
      <trkpt lat="43.29680333" lon="-4.29781333">
        <ele>194.0</ele>
        <time>2018-05-19T06:54:45.884Z</time>
      </trkpt>
      <trkpt lat="43.29680333" lon="-4.29781333">
        <ele>194.0</ele>
        <time>2018-05-19T06:54:46.877Z</time>
      </trkpt>
      <trkpt lat="43.29689667" lon="-4.29786">
        <ele>194.0</ele>
        <time>2018-05-19T06:54:47.876Z</time>
      </trkpt>
      <trkpt lat="43.29689667" lon="-4.29786">
        <ele>194.0</ele>
        <time>2018-05-19T06:54:48.872Z</time>
      </trkpt>
      <trkpt lat="43.29698167" lon="-4.29792">
        <ele>193.0</ele>
        <time>2018-05-19T06:54:49.877Z</time>
      </trkpt>
      <trkpt lat="43.29698167" lon="-4.29792">
        <ele>193.0</ele>
        <time>2018-05-19T06:54:50.872Z</time>
      </trkpt>
      <trkpt lat="43.29708167" lon="-4.29798333">
        <ele>191.0</ele>
        <time>2018-05-19T06:54:51.850Z</time>
      </trkpt>
      <trkpt lat="43.29708167" lon="-4.29798333">
        <ele>191.0</ele>
        <time>2018-05-19T06:54:52.877Z</time>
      </trkpt>
      <trkpt lat="43.29718833" lon="-4.29808">
        <ele>189.0</ele>
        <time>2018-05-19T06:54:53.876Z</time>
      </trkpt>
      <trkpt lat="43.29718833" lon="-4.29808">
        <ele>189.0</ele>
        <time>2018-05-19T06:54:54.873Z</time>
      </trkpt>
      <trkpt lat="43.297295" lon="-4.29824333">
        <ele>187.0</ele>
        <time>2018-05-19T06:54:55.877Z</time>
      </trkpt>
      <trkpt lat="43.297295" lon="-4.29824333">
        <ele>187.0</ele>
        <time>2018-05-19T06:54:56.872Z</time>
      </trkpt>
      <trkpt lat="43.29736167" lon="-4.29846">
        <ele>186.0</ele>
        <time>2018-05-19T06:54:57.876Z</time>
      </trkpt>
      <trkpt lat="43.29738333" lon="-4.29857167">
        <ele>184.0</ele>
        <time>2018-05-19T06:54:58.877Z</time>
      </trkpt>
      <trkpt lat="43.29738333" lon="-4.29857167">
        <ele>184.0</ele>
        <time>2018-05-19T06:54:59.873Z</time>
      </trkpt>
      <trkpt lat="43.29740167" lon="-4.29878167">
        <ele>182.0</ele>
        <time>2018-05-19T06:55:00.882Z</time>
      </trkpt>
      <trkpt lat="43.29739167" lon="-4.29888167">
        <ele>181.0</ele>
        <time>2018-05-19T06:55:01.877Z</time>
      </trkpt>
      <trkpt lat="43.29739167" lon="-4.29888167">
        <ele>181.0</ele>
        <time>2018-05-19T06:55:02.871Z</time>
      </trkpt>
      <trkpt lat="43.297365" lon="-4.299085">
        <ele>179.0</ele>
        <time>2018-05-19T06:55:03.876Z</time>
      </trkpt>
      <trkpt lat="43.297365" lon="-4.299085">
        <ele>179.0</ele>
        <time>2018-05-19T06:55:04.873Z</time>
      </trkpt>
      <trkpt lat="43.297365" lon="-4.29927833">
        <ele>177.0</ele>
        <time>2018-05-19T06:55:05.876Z</time>
      </trkpt>
      <trkpt lat="43.297395" lon="-4.299355">
        <ele>176.0</ele>
        <time>2018-05-19T06:55:06.876Z</time>
      </trkpt>
      <trkpt lat="43.29743" lon="-4.29940833">
        <ele>175.0</ele>
        <time>2018-05-19T06:55:07.876Z</time>
      </trkpt>
      <trkpt lat="43.29743" lon="-4.29940833">
        <ele>175.0</ele>
        <time>2018-05-19T06:55:08.872Z</time>
      </trkpt>
      <trkpt lat="43.29756167" lon="-4.29941">
        <ele>173.0</ele>
        <time>2018-05-19T06:55:09.878Z</time>
      </trkpt>
      <trkpt lat="43.29756167" lon="-4.29941">
        <ele>173.0</ele>
        <time>2018-05-19T06:55:10.872Z</time>
      </trkpt>
      <trkpt lat="43.29769667" lon="-4.29931833">
        <ele>171.0</ele>
        <time>2018-05-19T06:55:11.860Z</time>
      </trkpt>
      <trkpt lat="43.29775167" lon="-4.299275">
        <ele>170.0</ele>
        <time>2018-05-19T06:55:12.845Z</time>
      </trkpt>
      <trkpt lat="43.2978" lon="-4.29924">
        <ele>168.0</ele>
        <time>2018-05-19T06:55:13.876Z</time>
      </trkpt>
      <trkpt lat="43.2978" lon="-4.29924">
        <ele>168.0</ele>
        <time>2018-05-19T06:55:14.871Z</time>
      </trkpt>
      <trkpt lat="43.29789167" lon="-4.299225">
        <ele>167.0</ele>
        <time>2018-05-19T06:55:15.873Z</time>
      </trkpt>
      <trkpt lat="43.29789167" lon="-4.299225">
        <ele>167.0</ele>
        <time>2018-05-19T06:55:16.873Z</time>
      </trkpt>
      <trkpt lat="43.29795667" lon="-4.29932167">
        <ele>165.0</ele>
        <time>2018-05-19T06:55:17.876Z</time>
      </trkpt>
      <trkpt lat="43.29795667" lon="-4.29932167">
        <ele>165.0</ele>
        <time>2018-05-19T06:55:18.872Z</time>
      </trkpt>
      <trkpt lat="43.29795833" lon="-4.29951">
        <ele>164.0</ele>
        <time>2018-05-19T06:55:19.876Z</time>
      </trkpt>
      <trkpt lat="43.29795833" lon="-4.29951">
        <ele>164.0</ele>
        <time>2018-05-19T06:55:20.873Z</time>
      </trkpt>
      <trkpt lat="43.29792667" lon="-4.29973">
        <ele>162.0</ele>
        <time>2018-05-19T06:55:21.873Z</time>
      </trkpt>
      <trkpt lat="43.29792667" lon="-4.29973">
        <ele>162.0</ele>
        <time>2018-05-19T06:55:22.873Z</time>
      </trkpt>
      <trkpt lat="43.29789167" lon="-4.29993667">
        <ele>160.0</ele>
        <time>2018-05-19T06:55:23.876Z</time>
      </trkpt>
      <trkpt lat="43.29789167" lon="-4.29993667">
        <ele>160.0</ele>
        <time>2018-05-19T06:55:24.873Z</time>
      </trkpt>
      <trkpt lat="43.29787" lon="-4.300085">
        <ele>159.0</ele>
        <time>2018-05-19T06:55:25.878Z</time>
      </trkpt>
      <trkpt lat="43.29787" lon="-4.300085">
        <ele>159.0</ele>
        <time>2018-05-19T06:55:26.873Z</time>
      </trkpt>
      <trkpt lat="43.29784" lon="-4.300185">
        <ele>157.0</ele>
        <time>2018-05-19T06:55:27.876Z</time>
      </trkpt>
      <trkpt lat="43.29784" lon="-4.300185">
        <ele>157.0</ele>
        <time>2018-05-19T06:55:28.872Z</time>
      </trkpt>
      <trkpt lat="43.29777833" lon="-4.30024833">
        <ele>156.0</ele>
        <time>2018-05-19T06:55:29.871Z</time>
      </trkpt>
      <trkpt lat="43.29773667" lon="-4.30027167">
        <ele>155.0</ele>
        <time>2018-05-19T06:55:30.849Z</time>
      </trkpt>
      <trkpt lat="43.29773667" lon="-4.30027167">
        <ele>155.0</ele>
        <time>2018-05-19T06:55:31.874Z</time>
      </trkpt>
      <trkpt lat="43.29766" lon="-4.30032667">
        <ele>154.0</ele>
        <time>2018-05-19T06:55:32.880Z</time>
      </trkpt>
      <trkpt lat="43.29760667" lon="-4.30036333">
        <ele>154.0</ele>
        <time>2018-05-19T06:55:33.876Z</time>
      </trkpt>
      <trkpt lat="43.29760667" lon="-4.30036333">
        <ele>154.0</ele>
        <time>2018-05-19T06:55:34.871Z</time>
      </trkpt>
      <trkpt lat="43.29750667" lon="-4.30046833">
        <ele>152.0</ele>
        <time>2018-05-19T06:55:35.877Z</time>
      </trkpt>
      <trkpt lat="43.29750667" lon="-4.30046833">
        <ele>152.0</ele>
        <time>2018-05-19T06:55:36.873Z</time>
      </trkpt>
      <trkpt lat="43.29741333" lon="-4.30056667">
        <ele>151.0</ele>
        <time>2018-05-19T06:55:37.875Z</time>
      </trkpt>
      <trkpt lat="43.29741333" lon="-4.30056667">
        <ele>151.0</ele>
        <time>2018-05-19T06:55:38.872Z</time>
      </trkpt>
      <trkpt lat="43.29730167" lon="-4.300615">
        <ele>151.0</ele>
        <time>2018-05-19T06:55:39.876Z</time>
      </trkpt>
      <trkpt lat="43.29730167" lon="-4.300615">
        <ele>151.0</ele>
        <time>2018-05-19T06:55:40.873Z</time>
      </trkpt>
      <trkpt lat="43.29719167" lon="-4.30063833">
        <ele>151.0</ele>
        <time>2018-05-19T06:55:41.869Z</time>
      </trkpt>
      <trkpt lat="43.297145" lon="-4.30065833">
        <ele>150.0</ele>
        <time>2018-05-19T06:55:42.875Z</time>
      </trkpt>
      <trkpt lat="43.29710167" lon="-4.30068">
        <ele>150.0</ele>
        <time>2018-05-19T06:55:43.877Z</time>
      </trkpt>
      <trkpt lat="43.29710167" lon="-4.30068">
        <ele>150.0</ele>
        <time>2018-05-19T06:55:44.873Z</time>
      </trkpt>
      <trkpt lat="43.29700833" lon="-4.30071833">
        <ele>150.0</ele>
        <time>2018-05-19T06:55:45.881Z</time>
      </trkpt>
      <trkpt lat="43.29700833" lon="-4.30071833">
        <ele>150.0</ele>
        <time>2018-05-19T06:55:46.872Z</time>
      </trkpt>
      <trkpt lat="43.29693833" lon="-4.30076333">
        <ele>150.0</ele>
        <time>2018-05-19T06:55:47.872Z</time>
      </trkpt>
      <trkpt lat="43.29691333" lon="-4.30078">
        <ele>150.0</ele>
        <time>2018-05-19T06:55:48.874Z</time>
      </trkpt>
      <trkpt lat="43.29691333" lon="-4.30078">
        <ele>150.0</ele>
        <time>2018-05-19T06:55:49.874Z</time>
      </trkpt>
      <trkpt lat="43.29686167" lon="-4.30082833">
        <ele>150.0</ele>
        <time>2018-05-19T06:55:50.874Z</time>
      </trkpt>
      <trkpt lat="43.29686167" lon="-4.30082833">
        <ele>150.0</ele>
        <time>2018-05-19T06:55:51.876Z</time>
      </trkpt>
      <trkpt lat="43.296815" lon="-4.30088">
        <ele>150.0</ele>
        <time>2018-05-19T06:55:52.874Z</time>
      </trkpt>
      <trkpt lat="43.29679333" lon="-4.30090667">
        <ele>151.0</ele>
        <time>2018-05-19T06:55:53.876Z</time>
      </trkpt>
      <trkpt lat="43.29679333" lon="-4.30090667">
        <ele>151.0</ele>
        <time>2018-05-19T06:55:54.872Z</time>
      </trkpt>
      <trkpt lat="43.29675333" lon="-4.300965">
        <ele>151.0</ele>
        <time>2018-05-19T06:55:55.859Z</time>
      </trkpt>
      <trkpt lat="43.29673333" lon="-4.30100167">
        <ele>151.0</ele>
        <time>2018-05-19T06:55:56.844Z</time>
      </trkpt>
      <trkpt lat="43.296705" lon="-4.301035">
        <ele>151.0</ele>
        <time>2018-05-19T06:55:57.876Z</time>
      </trkpt>
      <trkpt lat="43.296705" lon="-4.301035">
        <ele>151.0</ele>
        <time>2018-05-19T06:55:58.872Z</time>
      </trkpt>
      <trkpt lat="43.29664333" lon="-4.301095">
        <ele>151.0</ele>
        <time>2018-05-19T06:55:59.876Z</time>
      </trkpt>
      <trkpt lat="43.29664333" lon="-4.301095">
        <ele>151.0</ele>
        <time>2018-05-19T06:56:00.873Z</time>
      </trkpt>
      <trkpt lat="43.29658333" lon="-4.30114667">
        <ele>151.0</ele>
        <time>2018-05-19T06:56:01.875Z</time>
      </trkpt>
      <trkpt lat="43.29658333" lon="-4.30114667">
        <ele>151.0</ele>
        <time>2018-05-19T06:56:02.873Z</time>
      </trkpt>
      <trkpt lat="43.29654167" lon="-4.30118667">
        <ele>153.0</ele>
        <time>2018-05-19T06:56:03.874Z</time>
      </trkpt>
      <trkpt lat="43.29654167" lon="-4.30118667">
        <ele>153.0</ele>
        <time>2018-05-19T06:56:04.872Z</time>
      </trkpt>
      <trkpt lat="43.29648167" lon="-4.30123167">
        <ele>154.0</ele>
        <time>2018-05-19T06:56:05.874Z</time>
      </trkpt>
      <trkpt lat="43.29643333" lon="-4.30125">
        <ele>154.0</ele>
        <time>2018-05-19T06:56:06.878Z</time>
      </trkpt>
      <trkpt lat="43.29643333" lon="-4.30125">
        <ele>154.0</ele>
        <time>2018-05-19T06:56:07.873Z</time>
      </trkpt>
      <trkpt lat="43.29633333" lon="-4.30126833">
        <ele>155.0</ele>
        <time>2018-05-19T06:56:08.879Z</time>
      </trkpt>
      <trkpt lat="43.29628" lon="-4.30126833">
        <ele>155.0</ele>
        <time>2018-05-19T06:56:09.877Z</time>
      </trkpt>
      <trkpt lat="43.29628" lon="-4.30126833">
        <ele>155.0</ele>
        <time>2018-05-19T06:56:10.872Z</time>
      </trkpt>
      <trkpt lat="43.29616833" lon="-4.30125833">
        <ele>155.0</ele>
        <time>2018-05-19T06:56:11.874Z</time>
      </trkpt>
      <trkpt lat="43.29616833" lon="-4.30125833">
        <ele>155.0</ele>
        <time>2018-05-19T06:56:12.870Z</time>
      </trkpt>
      <trkpt lat="43.29605167" lon="-4.301225">
        <ele>156.0</ele>
        <time>2018-05-19T06:56:13.851Z</time>
      </trkpt>
      <trkpt lat="43.29605167" lon="-4.301225">
        <ele>156.0</ele>
        <time>2018-05-19T06:56:14.876Z</time>
      </trkpt>
      <trkpt lat="43.29593" lon="-4.30118">
        <ele>157.0</ele>
        <time>2018-05-19T06:56:15.874Z</time>
      </trkpt>
      <trkpt lat="43.29593" lon="-4.30118">
        <ele>157.0</ele>
        <time>2018-05-19T06:56:16.873Z</time>
      </trkpt>
      <trkpt lat="43.29580167" lon="-4.30116667">
        <ele>157.0</ele>
        <time>2018-05-19T06:56:17.866Z</time>
      </trkpt>
      <trkpt lat="43.29580167" lon="-4.30116667">
        <ele>157.0</ele>
        <time>2018-05-19T06:56:18.864Z</time>
      </trkpt>
      <trkpt lat="43.29567" lon="-4.30118333">
        <ele>158.0</ele>
        <time>2018-05-19T06:56:19.849Z</time>
      </trkpt>
      <trkpt lat="43.29567" lon="-4.30118333">
        <ele>158.0</ele>
        <time>2018-05-19T06:56:20.874Z</time>
      </trkpt>
      <trkpt lat="43.295535" lon="-4.301235">
        <ele>158.0</ele>
        <time>2018-05-19T06:56:21.881Z</time>
      </trkpt>
      <trkpt lat="43.295535" lon="-4.301235">
        <ele>158.0</ele>
        <time>2018-05-19T06:56:22.870Z</time>
      </trkpt>
      <trkpt lat="43.29541" lon="-4.30132333">
        <ele>158.0</ele>
        <time>2018-05-19T06:56:23.875Z</time>
      </trkpt>
      <trkpt lat="43.29541" lon="-4.30132333">
        <ele>158.0</ele>
        <time>2018-05-19T06:56:24.872Z</time>
      </trkpt>
      <trkpt lat="43.29529333" lon="-4.30142667">
        <ele>158.0</ele>
        <time>2018-05-19T06:56:25.880Z</time>
      </trkpt>
      <trkpt lat="43.29529333" lon="-4.30142667">
        <ele>158.0</ele>
        <time>2018-05-19T06:56:26.872Z</time>
      </trkpt>
      <trkpt lat="43.29517833" lon="-4.30154333">
        <ele>158.0</ele>
        <time>2018-05-19T06:56:27.872Z</time>
      </trkpt>
      <trkpt lat="43.29517833" lon="-4.30154333">
        <ele>158.0</ele>
        <time>2018-05-19T06:56:28.872Z</time>
      </trkpt>
      <trkpt lat="43.29507" lon="-4.30170167">
        <ele>157.0</ele>
        <time>2018-05-19T06:56:29.876Z</time>
      </trkpt>
      <trkpt lat="43.29507" lon="-4.30170167">
        <ele>157.0</ele>
        <time>2018-05-19T06:56:30.872Z</time>
      </trkpt>
      <trkpt lat="43.29498833" lon="-4.30190167">
        <ele>157.0</ele>
        <time>2018-05-19T06:56:31.876Z</time>
      </trkpt>
      <trkpt lat="43.29498833" lon="-4.30190167">
        <ele>157.0</ele>
        <time>2018-05-19T06:56:32.863Z</time>
      </trkpt>
      <trkpt lat="43.294935" lon="-4.30211833">
        <ele>156.0</ele>
        <time>2018-05-19T06:56:33.848Z</time>
      </trkpt>
      <trkpt lat="43.294935" lon="-4.30211833">
        <ele>156.0</ele>
        <time>2018-05-19T06:56:34.874Z</time>
      </trkpt>
      <trkpt lat="43.29488167" lon="-4.30233333">
        <ele>156.0</ele>
        <time>2018-05-19T06:56:35.875Z</time>
      </trkpt>
      <trkpt lat="43.29488167" lon="-4.30233333">
        <ele>156.0</ele>
        <time>2018-05-19T06:56:36.872Z</time>
      </trkpt>
      <trkpt lat="43.29479833" lon="-4.30250667">
        <ele>155.0</ele>
        <time>2018-05-19T06:56:37.876Z</time>
      </trkpt>
      <trkpt lat="43.294745" lon="-4.30256667">
        <ele>155.0</ele>
        <time>2018-05-19T06:56:38.876Z</time>
      </trkpt>
      <trkpt lat="43.29468667" lon="-4.30260833">
        <ele>155.0</ele>
        <time>2018-05-19T06:56:39.875Z</time>
      </trkpt>
      <trkpt lat="43.29468667" lon="-4.30260833">
        <ele>155.0</ele>
        <time>2018-05-19T06:56:40.871Z</time>
      </trkpt>
      <trkpt lat="43.29456167" lon="-4.30265167">
        <ele>156.0</ele>
        <time>2018-05-19T06:56:41.873Z</time>
      </trkpt>
      <trkpt lat="43.29450333" lon="-4.30265833">
        <ele>157.0</ele>
        <time>2018-05-19T06:56:42.873Z</time>
      </trkpt>
      <trkpt lat="43.29450333" lon="-4.30265833">
        <ele>157.0</ele>
        <time>2018-05-19T06:56:43.874Z</time>
      </trkpt>
      <trkpt lat="43.29439333" lon="-4.30266833">
        <ele>158.0</ele>
        <time>2018-05-19T06:56:44.874Z</time>
      </trkpt>
      <trkpt lat="43.29434333" lon="-4.30267">
        <ele>158.0</ele>
        <time>2018-05-19T06:56:45.881Z</time>
      </trkpt>
      <trkpt lat="43.29434333" lon="-4.30267">
        <ele>158.0</ele>
        <time>2018-05-19T06:56:46.882Z</time>
      </trkpt>
      <trkpt lat="43.29425" lon="-4.30266667">
        <ele>159.0</ele>
        <time>2018-05-19T06:56:47.878Z</time>
      </trkpt>
      <trkpt lat="43.29425" lon="-4.30266667">
        <ele>159.0</ele>
        <time>2018-05-19T06:56:48.873Z</time>
      </trkpt>
      <trkpt lat="43.29416667" lon="-4.30267333">
        <ele>161.0</ele>
        <time>2018-05-19T06:56:49.876Z</time>
      </trkpt>
      <trkpt lat="43.29416667" lon="-4.30267333">
        <ele>161.0</ele>
        <time>2018-05-19T06:56:50.872Z</time>
      </trkpt>
      <trkpt lat="43.29408667" lon="-4.30267667">
        <ele>162.0</ele>
        <time>2018-05-19T06:56:51.873Z</time>
      </trkpt>
      <trkpt lat="43.29408667" lon="-4.30267667">
        <ele>162.0</ele>
        <time>2018-05-19T06:56:52.871Z</time>
      </trkpt>
      <trkpt lat="43.29401167" lon="-4.30268">
        <ele>163.0</ele>
        <time>2018-05-19T06:56:53.874Z</time>
      </trkpt>
      <trkpt lat="43.29401167" lon="-4.30268">
        <ele>163.0</ele>
        <time>2018-05-19T06:56:54.872Z</time>
      </trkpt>
      <trkpt lat="43.29394167" lon="-4.30269167">
        <ele>164.0</ele>
        <time>2018-05-19T06:56:55.876Z</time>
      </trkpt>
      <trkpt lat="43.29394167" lon="-4.30269167">
        <ele>164.0</ele>
        <time>2018-05-19T06:56:56.872Z</time>
      </trkpt>
      <trkpt lat="43.29387333" lon="-4.30270167">
        <ele>165.0</ele>
        <time>2018-05-19T06:56:57.874Z</time>
      </trkpt>
      <trkpt lat="43.29387333" lon="-4.30270167">
        <ele>165.0</ele>
        <time>2018-05-19T06:56:58.872Z</time>
      </trkpt>
      <trkpt lat="43.29380667" lon="-4.30271">
        <ele>166.0</ele>
        <time>2018-05-19T06:56:59.871Z</time>
      </trkpt>
      <trkpt lat="43.29380667" lon="-4.30271">
        <ele>166.0</ele>
        <time>2018-05-19T06:57:00.869Z</time>
      </trkpt>
      <trkpt lat="43.29374" lon="-4.30270833">
        <ele>167.0</ele>
        <time>2018-05-19T06:57:01.876Z</time>
      </trkpt>
      <trkpt lat="43.29374" lon="-4.30270833">
        <ele>167.0</ele>
        <time>2018-05-19T06:57:02.874Z</time>
      </trkpt>
      <trkpt lat="43.29367667" lon="-4.30270667">
        <ele>168.0</ele>
        <time>2018-05-19T06:57:03.876Z</time>
      </trkpt>
      <trkpt lat="43.29367667" lon="-4.30270667">
        <ele>168.0</ele>
        <time>2018-05-19T06:57:04.869Z</time>
      </trkpt>
      <trkpt lat="43.293615" lon="-4.30271333">
        <ele>169.0</ele>
        <time>2018-05-19T06:57:05.860Z</time>
      </trkpt>
      <trkpt lat="43.293615" lon="-4.30271333">
        <ele>169.0</ele>
        <time>2018-05-19T06:57:06.859Z</time>
      </trkpt>
      <trkpt lat="43.29355667" lon="-4.30271667">
        <ele>171.0</ele>
        <time>2018-05-19T06:57:07.845Z</time>
      </trkpt>
      <trkpt lat="43.29355667" lon="-4.30271667">
        <ele>171.0</ele>
        <time>2018-05-19T06:57:08.873Z</time>
      </trkpt>
      <trkpt lat="43.29350167" lon="-4.302735">
        <ele>172.0</ele>
        <time>2018-05-19T06:57:09.878Z</time>
      </trkpt>
      <trkpt lat="43.29350167" lon="-4.302735">
        <ele>172.0</ele>
        <time>2018-05-19T06:57:10.872Z</time>
      </trkpt>
      <trkpt lat="43.29345167" lon="-4.30277167">
        <ele>173.0</ele>
        <time>2018-05-19T06:57:11.875Z</time>
      </trkpt>
      <trkpt lat="43.29345167" lon="-4.30277167">
        <ele>173.0</ele>
        <time>2018-05-19T06:57:12.872Z</time>
      </trkpt>
      <trkpt lat="43.29341167" lon="-4.30279833">
        <ele>174.0</ele>
        <time>2018-05-19T06:57:13.874Z</time>
      </trkpt>
      <trkpt lat="43.29341167" lon="-4.30279833">
        <ele>174.0</ele>
        <time>2018-05-19T06:57:14.872Z</time>
      </trkpt>
      <trkpt lat="43.293385" lon="-4.30283167">
        <ele>175.0</ele>
        <time>2018-05-19T06:57:15.876Z</time>
      </trkpt>
      <trkpt lat="43.293385" lon="-4.30283167">
        <ele>175.0</ele>
        <time>2018-05-19T06:57:16.871Z</time>
      </trkpt>
      <trkpt lat="43.29334667" lon="-4.30287">
        <ele>176.0</ele>
        <time>2018-05-19T06:57:17.871Z</time>
      </trkpt>
      <trkpt lat="43.29334667" lon="-4.30287">
        <ele>176.0</ele>
        <time>2018-05-19T06:57:18.871Z</time>
      </trkpt>
      <trkpt lat="43.293305" lon="-4.30291">
        <ele>178.0</ele>
        <time>2018-05-19T06:57:19.876Z</time>
      </trkpt>
      <trkpt lat="43.293305" lon="-4.30291">
        <ele>178.0</ele>
        <time>2018-05-19T06:57:20.872Z</time>
      </trkpt>
      <trkpt lat="43.29326667" lon="-4.30295667">
        <ele>179.0</ele>
        <time>2018-05-19T06:57:21.874Z</time>
      </trkpt>
      <trkpt lat="43.29326667" lon="-4.30295667">
        <ele>179.0</ele>
        <time>2018-05-19T06:57:22.871Z</time>
      </trkpt>
      <trkpt lat="43.29323" lon="-4.303">
        <ele>180.0</ele>
        <time>2018-05-19T06:57:23.874Z</time>
      </trkpt>
      <trkpt lat="43.29320833" lon="-4.30302167">
        <ele>181.0</ele>
        <time>2018-05-19T06:57:24.874Z</time>
      </trkpt>
      <trkpt lat="43.29320833" lon="-4.30302167">
        <ele>181.0</ele>
        <time>2018-05-19T06:57:25.866Z</time>
      </trkpt>
      <trkpt lat="43.29316667" lon="-4.30306667">
        <ele>182.0</ele>
        <time>2018-05-19T06:57:26.844Z</time>
      </trkpt>
      <trkpt lat="43.29315" lon="-4.30309">
        <ele>183.0</ele>
        <time>2018-05-19T06:57:27.872Z</time>
      </trkpt>
      <trkpt lat="43.29315" lon="-4.30309">
        <ele>183.0</ele>
        <time>2018-05-19T06:57:28.859Z</time>
      </trkpt>
      <trkpt lat="43.29311" lon="-4.30313">
        <ele>184.0</ele>
        <time>2018-05-19T06:57:29.844Z</time>
      </trkpt>
      <trkpt lat="43.29311" lon="-4.30313">
        <ele>184.0</ele>
        <time>2018-05-19T06:57:30.872Z</time>
      </trkpt>
      <trkpt lat="43.29305333" lon="-4.30315333">
        <ele>186.0</ele>
        <time>2018-05-19T06:57:31.876Z</time>
      </trkpt>
      <trkpt lat="43.29305333" lon="-4.30315333">
        <ele>186.0</ele>
        <time>2018-05-19T06:57:32.846Z</time>
      </trkpt>
      <trkpt lat="43.293005" lon="-4.30315">
        <ele>187.0</ele>
        <time>2018-05-19T06:57:33.874Z</time>
      </trkpt>
      <trkpt lat="43.293005" lon="-4.30315">
        <ele>187.0</ele>
        <time>2018-05-19T06:57:34.871Z</time>
      </trkpt>
      <trkpt lat="43.29295833" lon="-4.303145">
        <ele>188.0</ele>
        <time>2018-05-19T06:57:35.874Z</time>
      </trkpt>
      <trkpt lat="43.29293333" lon="-4.30314333">
        <ele>188.0</ele>
        <time>2018-05-19T06:57:36.875Z</time>
      </trkpt>
      <trkpt lat="43.29291" lon="-4.30314167">
        <ele>189.0</ele>
        <time>2018-05-19T06:57:37.879Z</time>
      </trkpt>
      <trkpt lat="43.29291" lon="-4.30314167">
        <ele>189.0</ele>
        <time>2018-05-19T06:57:38.877Z</time>
      </trkpt>
      <trkpt lat="43.292865" lon="-4.30313667">
        <ele>190.0</ele>
        <time>2018-05-19T06:57:39.872Z</time>
      </trkpt>
      <trkpt lat="43.292865" lon="-4.30313667">
        <ele>190.0</ele>
        <time>2018-05-19T06:57:40.872Z</time>
      </trkpt>
      <trkpt lat="43.29282" lon="-4.30313">
        <ele>191.0</ele>
        <time>2018-05-19T06:57:41.875Z</time>
      </trkpt>
      <trkpt lat="43.29282" lon="-4.30313">
        <ele>191.0</ele>
        <time>2018-05-19T06:57:42.866Z</time>
      </trkpt>
      <trkpt lat="43.29278" lon="-4.30312667">
        <ele>192.0</ele>
        <time>2018-05-19T06:57:43.848Z</time>
      </trkpt>
      <trkpt lat="43.29278" lon="-4.30312667">
        <ele>192.0</ele>
        <time>2018-05-19T06:57:44.872Z</time>
      </trkpt>
      <trkpt lat="43.29273667" lon="-4.30312167">
        <ele>193.0</ele>
        <time>2018-05-19T06:57:45.881Z</time>
      </trkpt>
      <trkpt lat="43.29273667" lon="-4.30312167">
        <ele>193.0</ele>
        <time>2018-05-19T06:57:46.881Z</time>
      </trkpt>
      <trkpt lat="43.292685" lon="-4.30312333">
        <ele>193.0</ele>
        <time>2018-05-19T06:57:47.875Z</time>
      </trkpt>
      <trkpt lat="43.292685" lon="-4.30312333">
        <ele>193.0</ele>
        <time>2018-05-19T06:57:48.873Z</time>
      </trkpt>
      <trkpt lat="43.29262333" lon="-4.303125">
        <ele>194.0</ele>
        <time>2018-05-19T06:57:49.875Z</time>
      </trkpt>
      <trkpt lat="43.29262333" lon="-4.303125">
        <ele>194.0</ele>
        <time>2018-05-19T06:57:50.872Z</time>
      </trkpt>
      <trkpt lat="43.29257167" lon="-4.303125">
        <ele>194.0</ele>
        <time>2018-05-19T06:57:51.876Z</time>
      </trkpt>
      <trkpt lat="43.29257167" lon="-4.303125">
        <ele>194.0</ele>
        <time>2018-05-19T06:57:52.844Z</time>
      </trkpt>
      <trkpt lat="43.29252" lon="-4.30312833">
        <ele>194.0</ele>
        <time>2018-05-19T06:57:53.874Z</time>
      </trkpt>
      <trkpt lat="43.29249833" lon="-4.30313167">
        <ele>195.0</ele>
        <time>2018-05-19T06:57:54.876Z</time>
      </trkpt>
      <trkpt lat="43.29247667" lon="-4.30313333">
        <ele>195.0</ele>
        <time>2018-05-19T06:57:55.876Z</time>
      </trkpt>
      <trkpt lat="43.29247667" lon="-4.30313333">
        <ele>195.0</ele>
        <time>2018-05-19T06:57:56.871Z</time>
      </trkpt>
      <trkpt lat="43.29242167" lon="-4.30312333">
        <ele>195.0</ele>
        <time>2018-05-19T06:57:57.874Z</time>
      </trkpt>
      <trkpt lat="43.29242167" lon="-4.30312333">
        <ele>195.0</ele>
        <time>2018-05-19T06:57:58.871Z</time>
      </trkpt>
      <trkpt lat="43.29236333" lon="-4.30310333">
        <ele>195.0</ele>
        <time>2018-05-19T06:57:59.878Z</time>
      </trkpt>
      <trkpt lat="43.29236333" lon="-4.30310333">
        <ele>195.0</ele>
        <time>2018-05-19T06:58:00.872Z</time>
      </trkpt>
      <trkpt lat="43.29230667" lon="-4.30308167">
        <ele>195.0</ele>
        <time>2018-05-19T06:58:01.876Z</time>
      </trkpt>
      <trkpt lat="43.29230667" lon="-4.30308167">
        <ele>195.0</ele>
        <time>2018-05-19T06:58:02.872Z</time>
      </trkpt>
      <trkpt lat="43.29225167" lon="-4.30305333">
        <ele>195.0</ele>
        <time>2018-05-19T06:58:03.875Z</time>
      </trkpt>
      <trkpt lat="43.29225167" lon="-4.30305333">
        <ele>195.0</ele>
        <time>2018-05-19T06:58:04.871Z</time>
      </trkpt>
      <trkpt lat="43.29219833" lon="-4.30301833">
        <ele>195.0</ele>
        <time>2018-05-19T06:58:05.876Z</time>
      </trkpt>
      <trkpt lat="43.29217" lon="-4.30299833">
        <ele>195.0</ele>
        <time>2018-05-19T06:58:06.874Z</time>
      </trkpt>
      <trkpt lat="43.29214167" lon="-4.30298">
        <ele>195.0</ele>
        <time>2018-05-19T06:58:07.875Z</time>
      </trkpt>
      <trkpt lat="43.29214167" lon="-4.30298">
        <ele>195.0</ele>
        <time>2018-05-19T06:58:08.871Z</time>
      </trkpt>
      <trkpt lat="43.292085" lon="-4.30294167">
        <ele>195.0</ele>
        <time>2018-05-19T06:58:09.881Z</time>
      </trkpt>
      <trkpt lat="43.292085" lon="-4.30294167">
        <ele>195.0</ele>
        <time>2018-05-19T06:58:10.870Z</time>
      </trkpt>
      <trkpt lat="43.29203" lon="-4.30289167">
        <ele>195.0</ele>
        <time>2018-05-19T06:58:11.875Z</time>
      </trkpt>
      <trkpt lat="43.29203" lon="-4.30289167">
        <ele>195.0</ele>
        <time>2018-05-19T06:58:12.873Z</time>
      </trkpt>
      <trkpt lat="43.29199167" lon="-4.30282667">
        <ele>194.0</ele>
        <time>2018-05-19T06:58:13.876Z</time>
      </trkpt>
      <trkpt lat="43.29199167" lon="-4.30282667">
        <ele>194.0</ele>
        <time>2018-05-19T06:58:14.872Z</time>
      </trkpt>
      <trkpt lat="43.29196167" lon="-4.30275333">
        <ele>194.0</ele>
        <time>2018-05-19T06:58:15.875Z</time>
      </trkpt>
      <trkpt lat="43.29196167" lon="-4.30275333">
        <ele>194.0</ele>
        <time>2018-05-19T06:58:16.872Z</time>
      </trkpt>
      <trkpt lat="43.29195333" lon="-4.30266833">
        <ele>194.0</ele>
        <time>2018-05-19T06:58:17.874Z</time>
      </trkpt>
      <trkpt lat="43.29195333" lon="-4.30266833">
        <ele>194.0</ele>
        <time>2018-05-19T06:58:18.871Z</time>
      </trkpt>
      <trkpt lat="43.29196" lon="-4.30258833">
        <ele>194.0</ele>
        <time>2018-05-19T06:58:19.876Z</time>
      </trkpt>
      <trkpt lat="43.29196" lon="-4.30258833">
        <ele>194.0</ele>
        <time>2018-05-19T06:58:20.872Z</time>
      </trkpt>
      <trkpt lat="43.29197667" lon="-4.3025">
        <ele>194.0</ele>
        <time>2018-05-19T06:58:21.874Z</time>
      </trkpt>
      <trkpt lat="43.29197667" lon="-4.3025">
        <ele>194.0</ele>
        <time>2018-05-19T06:58:22.870Z</time>
      </trkpt>
      <trkpt lat="43.29197667" lon="-4.30241833">
        <ele>194.0</ele>
        <time>2018-05-19T06:58:23.874Z</time>
      </trkpt>
      <trkpt lat="43.29197833" lon="-4.30236833">
        <ele>194.0</ele>
        <time>2018-05-19T06:58:24.875Z</time>
      </trkpt>
      <trkpt lat="43.291975" lon="-4.30230833">
        <ele>193.0</ele>
        <time>2018-05-19T06:58:25.877Z</time>
      </trkpt>
      <trkpt lat="43.291975" lon="-4.30230833">
        <ele>193.0</ele>
        <time>2018-05-19T06:58:26.872Z</time>
      </trkpt>
      <trkpt lat="43.29197167" lon="-4.30217167">
        <ele>193.0</ele>
        <time>2018-05-19T06:58:27.875Z</time>
      </trkpt>
      <trkpt lat="43.29197167" lon="-4.30217167">
        <ele>193.0</ele>
        <time>2018-05-19T06:58:28.871Z</time>
      </trkpt>
      <trkpt lat="43.291955" lon="-4.302015">
        <ele>192.0</ele>
        <time>2018-05-19T06:58:29.875Z</time>
      </trkpt>
      <trkpt lat="43.29194333" lon="-4.30193">
        <ele>191.0</ele>
        <time>2018-05-19T06:58:30.874Z</time>
      </trkpt>
      <trkpt lat="43.29194333" lon="-4.30193">
        <ele>191.0</ele>
        <time>2018-05-19T06:58:31.873Z</time>
      </trkpt>
      <trkpt lat="43.2919" lon="-4.301745">
        <ele>190.0</ele>
        <time>2018-05-19T06:58:32.867Z</time>
      </trkpt>
      <trkpt lat="43.29187833" lon="-4.30165">
        <ele>190.0</ele>
        <time>2018-05-19T06:58:33.875Z</time>
      </trkpt>
      <trkpt lat="43.29187833" lon="-4.30165">
        <ele>190.0</ele>
        <time>2018-05-19T06:58:34.872Z</time>
      </trkpt>
      <trkpt lat="43.29182667" lon="-4.30148333">
        <ele>188.0</ele>
        <time>2018-05-19T06:58:35.874Z</time>
      </trkpt>
      <trkpt lat="43.291815" lon="-4.30139333">
        <ele>188.0</ele>
        <time>2018-05-19T06:58:36.876Z</time>
      </trkpt>
      <trkpt lat="43.291805" lon="-4.30131667">
        <ele>188.0</ele>
        <time>2018-05-19T06:58:37.845Z</time>
      </trkpt>
      <trkpt lat="43.291805" lon="-4.30131667">
        <ele>188.0</ele>
        <time>2018-05-19T06:58:38.871Z</time>
      </trkpt>
      <trkpt lat="43.291785" lon="-4.30120333">
        <ele>187.0</ele>
        <time>2018-05-19T06:58:39.876Z</time>
      </trkpt>
      <trkpt lat="43.291785" lon="-4.30120333">
        <ele>187.0</ele>
        <time>2018-05-19T06:58:40.873Z</time>
      </trkpt>
      <trkpt lat="43.29178333" lon="-4.30112">
        <ele>187.0</ele>
        <time>2018-05-19T06:58:41.874Z</time>
      </trkpt>
      <trkpt lat="43.29178333" lon="-4.30112">
        <ele>187.0</ele>
        <time>2018-05-19T06:58:42.870Z</time>
      </trkpt>
      <trkpt lat="43.29176333" lon="-4.301035">
        <ele>187.0</ele>
        <time>2018-05-19T06:58:43.848Z</time>
      </trkpt>
      <trkpt lat="43.29176333" lon="-4.301035">
        <ele>187.0</ele>
        <time>2018-05-19T06:58:44.873Z</time>
      </trkpt>
      <trkpt lat="43.29175333" lon="-4.30093167">
        <ele>187.0</ele>
        <time>2018-05-19T06:58:45.882Z</time>
      </trkpt>
      <trkpt lat="43.29175333" lon="-4.30093167">
        <ele>187.0</ele>
        <time>2018-05-19T06:58:46.860Z</time>
      </trkpt>
      <trkpt lat="43.291745" lon="-4.30081833">
        <ele>187.0</ele>
        <time>2018-05-19T06:58:47.845Z</time>
      </trkpt>
      <trkpt lat="43.291745" lon="-4.30081833">
        <ele>187.0</ele>
        <time>2018-05-19T06:58:48.874Z</time>
      </trkpt>
      <trkpt lat="43.291735" lon="-4.30069333">
        <ele>187.0</ele>
        <time>2018-05-19T06:58:49.876Z</time>
      </trkpt>
      <trkpt lat="43.291735" lon="-4.30069333">
        <ele>187.0</ele>
        <time>2018-05-19T06:58:50.873Z</time>
      </trkpt>
      <trkpt lat="43.29172167" lon="-4.30059833">
        <ele>187.0</ele>
        <time>2018-05-19T06:58:51.872Z</time>
      </trkpt>
      <trkpt lat="43.29172167" lon="-4.30059833">
        <ele>187.0</ele>
        <time>2018-05-19T06:58:52.869Z</time>
      </trkpt>
      <trkpt lat="43.29171" lon="-4.30053167">
        <ele>187.0</ele>
        <time>2018-05-19T06:58:53.874Z</time>
      </trkpt>
      <trkpt lat="43.29168833" lon="-4.30049833">
        <ele>187.0</ele>
        <time>2018-05-19T06:58:54.874Z</time>
      </trkpt>
      <trkpt lat="43.29168833" lon="-4.30049833">
        <ele>187.0</ele>
        <time>2018-05-19T06:58:55.872Z</time>
      </trkpt>
      <trkpt lat="43.29164" lon="-4.30043">
        <ele>188.0</ele>
        <time>2018-05-19T06:58:56.875Z</time>
      </trkpt>
      <trkpt lat="43.29161167" lon="-4.30040167">
        <ele>188.0</ele>
        <time>2018-05-19T06:58:57.875Z</time>
      </trkpt>
      <trkpt lat="43.29161167" lon="-4.30040167">
        <ele>188.0</ele>
        <time>2018-05-19T06:58:58.872Z</time>
      </trkpt>
      <trkpt lat="43.291555" lon="-4.30036">
        <ele>189.0</ele>
        <time>2018-05-19T06:58:59.875Z</time>
      </trkpt>
      <trkpt lat="43.291555" lon="-4.30036">
        <ele>189.0</ele>
        <time>2018-05-19T06:59:00.873Z</time>
      </trkpt>
      <trkpt lat="43.29150167" lon="-4.30032">
        <ele>189.0</ele>
        <time>2018-05-19T06:59:01.876Z</time>
      </trkpt>
      <trkpt lat="43.29146833" lon="-4.30028667">
        <ele>190.0</ele>
        <time>2018-05-19T06:59:02.872Z</time>
      </trkpt>
      <trkpt lat="43.29146833" lon="-4.30028667">
        <ele>190.0</ele>
        <time>2018-05-19T06:59:03.872Z</time>
      </trkpt>
      <trkpt lat="43.29141333" lon="-4.30025167">
        <ele>190.0</ele>
        <time>2018-05-19T06:59:04.874Z</time>
      </trkpt>
      <trkpt lat="43.29141333" lon="-4.30025167">
        <ele>190.0</ele>
        <time>2018-05-19T06:59:05.872Z</time>
      </trkpt>
      <trkpt lat="43.29136167" lon="-4.300225">
        <ele>191.0</ele>
        <time>2018-05-19T06:59:06.874Z</time>
      </trkpt>
      <trkpt lat="43.29133" lon="-4.300215">
        <ele>192.0</ele>
        <time>2018-05-19T06:59:07.876Z</time>
      </trkpt>
      <trkpt lat="43.29133" lon="-4.300215">
        <ele>192.0</ele>
        <time>2018-05-19T06:59:08.872Z</time>
      </trkpt>
      <trkpt lat="43.29126833" lon="-4.30018167">
        <ele>193.0</ele>
        <time>2018-05-19T06:59:09.872Z</time>
      </trkpt>
      <trkpt lat="43.29126833" lon="-4.30018167">
        <ele>193.0</ele>
        <time>2018-05-19T06:59:10.870Z</time>
      </trkpt>
      <trkpt lat="43.29121333" lon="-4.30015167">
        <ele>194.0</ele>
        <time>2018-05-19T06:59:11.876Z</time>
      </trkpt>
      <trkpt lat="43.29121333" lon="-4.30015167">
        <ele>194.0</ele>
        <time>2018-05-19T06:59:12.872Z</time>
      </trkpt>
      <trkpt lat="43.29116333" lon="-4.30012167">
        <ele>195.0</ele>
        <time>2018-05-19T06:59:13.874Z</time>
      </trkpt>
      <trkpt lat="43.29114167" lon="-4.30011167">
        <ele>195.0</ele>
        <time>2018-05-19T06:59:14.872Z</time>
      </trkpt>
      <trkpt lat="43.29112167" lon="-4.30010167">
        <ele>196.0</ele>
        <time>2018-05-19T06:59:15.874Z</time>
      </trkpt>
      <trkpt lat="43.29112167" lon="-4.30010167">
        <ele>196.0</ele>
        <time>2018-05-19T06:59:16.873Z</time>
      </trkpt>
      <trkpt lat="43.29107333" lon="-4.30006833">
        <ele>197.0</ele>
        <time>2018-05-19T06:59:17.875Z</time>
      </trkpt>
      <trkpt lat="43.29105333" lon="-4.30004833">
        <ele>197.0</ele>
        <time>2018-05-19T06:59:18.874Z</time>
      </trkpt>
      <trkpt lat="43.29105333" lon="-4.30004833">
        <ele>197.0</ele>
        <time>2018-05-19T06:59:19.870Z</time>
      </trkpt>
      <trkpt lat="43.29100667" lon="-4.30000833">
        <ele>198.0</ele>
        <time>2018-05-19T06:59:20.859Z</time>
      </trkpt>
      <trkpt lat="43.29098167" lon="-4.29999">
        <ele>198.0</ele>
        <time>2018-05-19T06:59:21.845Z</time>
      </trkpt>
      <trkpt lat="43.29098167" lon="-4.29999">
        <ele>198.0</ele>
        <time>2018-05-19T06:59:22.872Z</time>
      </trkpt>
      <trkpt lat="43.290945" lon="-4.29995167">
        <ele>199.0</ele>
        <time>2018-05-19T06:59:23.874Z</time>
      </trkpt>
      <trkpt lat="43.29092667" lon="-4.29993667">
        <ele>200.0</ele>
        <time>2018-05-19T06:59:24.873Z</time>
      </trkpt>
      <trkpt lat="43.29092667" lon="-4.29993667">
        <ele>200.0</ele>
        <time>2018-05-19T06:59:25.866Z</time>
      </trkpt>
      <trkpt lat="43.29088167" lon="-4.29991833">
        <ele>200.0</ele>
        <time>2018-05-19T06:59:26.848Z</time>
      </trkpt>
      <trkpt lat="43.29085833" lon="-4.299905">
        <ele>200.0</ele>
        <time>2018-05-19T06:59:27.874Z</time>
      </trkpt>
      <trkpt lat="43.29085833" lon="-4.299905">
        <ele>200.0</ele>
        <time>2018-05-19T06:59:28.872Z</time>
      </trkpt>
      <trkpt lat="43.29081333" lon="-4.29987667">
        <ele>201.0</ele>
        <time>2018-05-19T06:59:29.875Z</time>
      </trkpt>
      <trkpt lat="43.29081333" lon="-4.29987667">
        <ele>201.0</ele>
        <time>2018-05-19T06:59:30.873Z</time>
      </trkpt>
      <trkpt lat="43.29076667" lon="-4.299855">
        <ele>202.0</ele>
        <time>2018-05-19T06:59:31.876Z</time>
      </trkpt>
      <trkpt lat="43.29076667" lon="-4.299855">
        <ele>202.0</ele>
        <time>2018-05-19T06:59:32.858Z</time>
      </trkpt>
      <trkpt lat="43.290715" lon="-4.29984167">
        <ele>202.0</ele>
        <time>2018-05-19T06:59:33.844Z</time>
      </trkpt>
      <trkpt lat="43.290695" lon="-4.29983333">
        <ele>203.0</ele>
        <time>2018-05-19T06:59:34.874Z</time>
      </trkpt>
      <trkpt lat="43.290695" lon="-4.29983333">
        <ele>203.0</ele>
        <time>2018-05-19T06:59:35.873Z</time>
      </trkpt>
      <trkpt lat="43.29066" lon="-4.29981833">
        <ele>203.0</ele>
        <time>2018-05-19T06:59:36.876Z</time>
      </trkpt>
      <trkpt lat="43.29066" lon="-4.29981833">
        <ele>203.0</ele>
        <time>2018-05-19T06:59:37.876Z</time>
      </trkpt>
      <trkpt lat="43.29062" lon="-4.299805">
        <ele>204.0</ele>
        <time>2018-05-19T06:59:38.874Z</time>
      </trkpt>
      <trkpt lat="43.29059833" lon="-4.29979667">
        <ele>204.0</ele>
        <time>2018-05-19T06:59:39.876Z</time>
      </trkpt>
      <trkpt lat="43.29059833" lon="-4.29979667">
        <ele>204.0</ele>
        <time>2018-05-19T06:59:40.873Z</time>
      </trkpt>
      <trkpt lat="43.29056" lon="-4.29978">
        <ele>205.0</ele>
        <time>2018-05-19T06:59:41.874Z</time>
      </trkpt>
      <trkpt lat="43.29056" lon="-4.29978">
        <ele>205.0</ele>
        <time>2018-05-19T06:59:42.869Z</time>
      </trkpt>
      <trkpt lat="43.29052" lon="-4.29976333">
        <ele>205.0</ele>
        <time>2018-05-19T06:59:43.858Z</time>
      </trkpt>
      <trkpt lat="43.29049833" lon="-4.29975333">
        <ele>206.0</ele>
        <time>2018-05-19T06:59:44.844Z</time>
      </trkpt>
      <trkpt lat="43.29047667" lon="-4.29974167">
        <ele>206.0</ele>
        <time>2018-05-19T06:59:45.880Z</time>
      </trkpt>
      <trkpt lat="43.29047667" lon="-4.29974167">
        <ele>206.0</ele>
        <time>2018-05-19T06:59:46.848Z</time>
      </trkpt>
      <trkpt lat="43.29043" lon="-4.29972">
        <ele>207.0</ele>
        <time>2018-05-19T06:59:47.855Z</time>
      </trkpt>
      <trkpt lat="43.29043" lon="-4.29972">
        <ele>207.0</ele>
        <time>2018-05-19T06:59:48.862Z</time>
      </trkpt>
      <trkpt lat="43.29039333" lon="-4.29968333">
        <ele>208.0</ele>
        <time>2018-05-19T06:59:49.876Z</time>
      </trkpt>
      <trkpt lat="43.29039333" lon="-4.29968333">
        <ele>208.0</ele>
        <time>2018-05-19T06:59:50.872Z</time>
      </trkpt>
      <trkpt lat="43.29035667" lon="-4.29964167">
        <ele>208.0</ele>
        <time>2018-05-19T06:59:51.874Z</time>
      </trkpt>
      <trkpt lat="43.29035667" lon="-4.29964167">
        <ele>208.0</ele>
        <time>2018-05-19T06:59:52.846Z</time>
      </trkpt>
      <trkpt lat="43.29030833" lon="-4.29960167">
        <ele>208.0</ele>
        <time>2018-05-19T06:59:53.876Z</time>
      </trkpt>
      <trkpt lat="43.29030833" lon="-4.29960167">
        <ele>208.0</ele>
        <time>2018-05-19T06:59:54.872Z</time>
      </trkpt>
      <trkpt lat="43.29024167" lon="-4.299555">
        <ele>209.0</ele>
        <time>2018-05-19T06:59:55.876Z</time>
      </trkpt>
      <trkpt lat="43.29021167" lon="-4.29952833">
        <ele>209.0</ele>
        <time>2018-05-19T06:59:56.875Z</time>
      </trkpt>
      <trkpt lat="43.290185" lon="-4.29950167">
        <ele>209.0</ele>
        <time>2018-05-19T06:59:57.875Z</time>
      </trkpt>
      <trkpt lat="43.290185" lon="-4.29950167">
        <ele>209.0</ele>
        <time>2018-05-19T06:59:58.872Z</time>
      </trkpt>
      <trkpt lat="43.29013167" lon="-4.29944833">
        <ele>209.0</ele>
        <time>2018-05-19T06:59:59.874Z</time>
      </trkpt>
      <trkpt lat="43.29013167" lon="-4.29944833">
        <ele>209.0</ele>
        <time>2018-05-19T07:00:00.870Z</time>
      </trkpt>
      <trkpt lat="43.29007333" lon="-4.29940167">
        <ele>210.0</ele>
        <time>2018-05-19T07:00:01.875Z</time>
      </trkpt>
      <trkpt lat="43.29007333" lon="-4.29940167">
        <ele>210.0</ele>
        <time>2018-05-19T07:00:02.873Z</time>
      </trkpt>
      <trkpt lat="43.29001667" lon="-4.29935833">
        <ele>210.0</ele>
        <time>2018-05-19T07:00:03.875Z</time>
      </trkpt>
      <trkpt lat="43.29001667" lon="-4.29935833">
        <ele>210.0</ele>
        <time>2018-05-19T07:00:04.870Z</time>
      </trkpt>
      <trkpt lat="43.289975" lon="-4.29932667">
        <ele>210.0</ele>
        <time>2018-05-19T07:00:05.875Z</time>
      </trkpt>
      <trkpt lat="43.289975" lon="-4.29932667">
        <ele>210.0</ele>
        <time>2018-05-19T07:00:06.872Z</time>
      </trkpt>
      <trkpt lat="43.28993" lon="-4.29929833">
        <ele>211.0</ele>
        <time>2018-05-19T07:00:07.874Z</time>
      </trkpt>
      <trkpt lat="43.28993" lon="-4.29929833">
        <ele>211.0</ele>
        <time>2018-05-19T07:00:08.871Z</time>
      </trkpt>
      <trkpt lat="43.28989833" lon="-4.299275">
        <ele>212.0</ele>
        <time>2018-05-19T07:00:09.881Z</time>
      </trkpt>
      <trkpt lat="43.28989833" lon="-4.299275">
        <ele>212.0</ele>
        <time>2018-05-19T07:00:10.872Z</time>
      </trkpt>
      <trkpt lat="43.28987167" lon="-4.29925667">
        <ele>213.0</ele>
        <time>2018-05-19T07:00:11.874Z</time>
      </trkpt>
      <trkpt lat="43.28987167" lon="-4.29925667">
        <ele>213.0</ele>
        <time>2018-05-19T07:00:12.872Z</time>
      </trkpt>
      <trkpt lat="43.28983167" lon="-4.29923333">
        <ele>213.0</ele>
        <time>2018-05-19T07:00:13.875Z</time>
      </trkpt>
      <trkpt lat="43.28981167" lon="-4.29922667">
        <ele>214.0</ele>
        <time>2018-05-19T07:00:14.875Z</time>
      </trkpt>
      <trkpt lat="43.28981167" lon="-4.29922667">
        <ele>214.0</ele>
        <time>2018-05-19T07:00:15.872Z</time>
      </trkpt>
      <trkpt lat="43.289765" lon="-4.29921167">
        <ele>215.0</ele>
        <time>2018-05-19T07:00:16.874Z</time>
      </trkpt>
      <trkpt lat="43.289765" lon="-4.29921167">
        <ele>215.0</ele>
        <time>2018-05-19T07:00:17.862Z</time>
      </trkpt>
      <trkpt lat="43.28972833" lon="-4.29918167">
        <ele>215.0</ele>
        <time>2018-05-19T07:00:18.848Z</time>
      </trkpt>
      <trkpt lat="43.28970833" lon="-4.29916167">
        <ele>216.0</ele>
        <time>2018-05-19T07:00:19.875Z</time>
      </trkpt>
      <trkpt lat="43.28968667" lon="-4.29914167">
        <ele>216.0</ele>
        <time>2018-05-19T07:00:20.876Z</time>
      </trkpt>
      <trkpt lat="43.28968667" lon="-4.29914167">
        <ele>216.0</ele>
        <time>2018-05-19T07:00:21.872Z</time>
      </trkpt>
      <trkpt lat="43.28964333" lon="-4.299105">
        <ele>217.0</ele>
        <time>2018-05-19T07:00:22.874Z</time>
      </trkpt>
      <trkpt lat="43.28964333" lon="-4.299105">
        <ele>217.0</ele>
        <time>2018-05-19T07:00:23.872Z</time>
      </trkpt>
      <trkpt lat="43.28960333" lon="-4.29907333">
        <ele>217.0</ele>
        <time>2018-05-19T07:00:24.876Z</time>
      </trkpt>
      <trkpt lat="43.28960333" lon="-4.29907333">
        <ele>217.0</ele>
        <time>2018-05-19T07:00:25.866Z</time>
      </trkpt>
      <trkpt lat="43.28956667" lon="-4.299045">
        <ele>218.0</ele>
        <time>2018-05-19T07:00:26.849Z</time>
      </trkpt>
      <trkpt lat="43.28956667" lon="-4.299045">
        <ele>218.0</ele>
        <time>2018-05-19T07:00:27.873Z</time>
      </trkpt>
      <trkpt lat="43.28953167" lon="-4.299015">
        <ele>219.0</ele>
        <time>2018-05-19T07:00:28.874Z</time>
      </trkpt>
      <trkpt lat="43.28953167" lon="-4.299015">
        <ele>219.0</ele>
        <time>2018-05-19T07:00:29.873Z</time>
      </trkpt>
      <trkpt lat="43.289495" lon="-4.29899">
        <ele>220.0</ele>
        <time>2018-05-19T07:00:30.873Z</time>
      </trkpt>
      <trkpt lat="43.28947333" lon="-4.29897667">
        <ele>220.0</ele>
        <time>2018-05-19T07:00:31.874Z</time>
      </trkpt>
      <trkpt lat="43.28947333" lon="-4.29897667">
        <ele>220.0</ele>
        <time>2018-05-19T07:00:32.872Z</time>
      </trkpt>
      <trkpt lat="43.28943" lon="-4.29894167">
        <ele>221.0</ele>
        <time>2018-05-19T07:00:33.875Z</time>
      </trkpt>
      <trkpt lat="43.28943" lon="-4.29894167">
        <ele>221.0</ele>
        <time>2018-05-19T07:00:34.872Z</time>
      </trkpt>
      <trkpt lat="43.2894" lon="-4.29889833">
        <ele>222.0</ele>
        <time>2018-05-19T07:00:35.874Z</time>
      </trkpt>
      <trkpt lat="43.2894" lon="-4.29889833">
        <ele>222.0</ele>
        <time>2018-05-19T07:00:36.872Z</time>
      </trkpt>
      <trkpt lat="43.28936833" lon="-4.29885667">
        <ele>222.0</ele>
        <time>2018-05-19T07:00:37.875Z</time>
      </trkpt>
      <trkpt lat="43.28936833" lon="-4.29885667">
        <ele>222.0</ele>
        <time>2018-05-19T07:00:38.872Z</time>
      </trkpt>
      <trkpt lat="43.289335" lon="-4.29881833">
        <ele>223.0</ele>
        <time>2018-05-19T07:00:39.876Z</time>
      </trkpt>
      <trkpt lat="43.289315" lon="-4.29879833">
        <ele>223.0</ele>
        <time>2018-05-19T07:00:40.874Z</time>
      </trkpt>
      <trkpt lat="43.28929167" lon="-4.29878167">
        <ele>223.0</ele>
        <time>2018-05-19T07:00:41.872Z</time>
      </trkpt>
      <trkpt lat="43.28929167" lon="-4.29878167">
        <ele>223.0</ele>
        <time>2018-05-19T07:00:42.871Z</time>
      </trkpt>
      <trkpt lat="43.28923833" lon="-4.29874833">
        <ele>223.0</ele>
        <time>2018-05-19T07:00:43.876Z</time>
      </trkpt>
      <trkpt lat="43.28923833" lon="-4.29874833">
        <ele>223.0</ele>
        <time>2018-05-19T07:00:44.872Z</time>
      </trkpt>
      <trkpt lat="43.28919333" lon="-4.29872167">
        <ele>224.0</ele>
        <time>2018-05-19T07:00:45.882Z</time>
      </trkpt>
      <trkpt lat="43.28919333" lon="-4.29872167">
        <ele>224.0</ele>
        <time>2018-05-19T07:00:46.881Z</time>
      </trkpt>
      <trkpt lat="43.28915833" lon="-4.2987">
        <ele>224.0</ele>
        <time>2018-05-19T07:00:47.875Z</time>
      </trkpt>
      <trkpt lat="43.28914333" lon="-4.29869">
        <ele>225.0</ele>
        <time>2018-05-19T07:00:48.876Z</time>
      </trkpt>
      <trkpt lat="43.289125" lon="-4.29867667">
        <ele>225.0</ele>
        <time>2018-05-19T07:00:49.877Z</time>
      </trkpt>
      <trkpt lat="43.289125" lon="-4.29867667">
        <ele>225.0</ele>
        <time>2018-05-19T07:00:50.870Z</time>
      </trkpt>
      <trkpt lat="43.28908667" lon="-4.298655">
        <ele>226.0</ele>
        <time>2018-05-19T07:00:51.873Z</time>
      </trkpt>
      <trkpt lat="43.28908667" lon="-4.298655">
        <ele>226.0</ele>
        <time>2018-05-19T07:00:52.872Z</time>
      </trkpt>
      <trkpt lat="43.28905" lon="-4.29865">
        <ele>227.0</ele>
        <time>2018-05-19T07:00:53.875Z</time>
      </trkpt>
      <trkpt lat="43.28905" lon="-4.29865">
        <ele>227.0</ele>
        <time>2018-05-19T07:00:54.870Z</time>
      </trkpt>
      <trkpt lat="43.28901" lon="-4.29863833">
        <ele>227.0</ele>
        <time>2018-05-19T07:00:55.876Z</time>
      </trkpt>
      <trkpt lat="43.28901" lon="-4.29863833">
        <ele>227.0</ele>
        <time>2018-05-19T07:00:56.872Z</time>
      </trkpt>
      <trkpt lat="43.288955" lon="-4.29862333">
        <ele>227.0</ele>
        <time>2018-05-19T07:00:57.876Z</time>
      </trkpt>
      <trkpt lat="43.288955" lon="-4.29862333">
        <ele>227.0</ele>
        <time>2018-05-19T07:00:58.872Z</time>
      </trkpt>
      <trkpt lat="43.28891167" lon="-4.29858333">
        <ele>228.0</ele>
        <time>2018-05-19T07:00:59.876Z</time>
      </trkpt>
      <trkpt lat="43.28891167" lon="-4.29858333">
        <ele>228.0</ele>
        <time>2018-05-19T07:01:00.872Z</time>
      </trkpt>
      <trkpt lat="43.28886" lon="-4.29852">
        <ele>228.0</ele>
        <time>2018-05-19T07:01:01.877Z</time>
      </trkpt>
      <trkpt lat="43.28886" lon="-4.29852">
        <ele>228.0</ele>
        <time>2018-05-19T07:01:02.873Z</time>
      </trkpt>
      <trkpt lat="43.288825" lon="-4.29843833">
        <ele>228.0</ele>
        <time>2018-05-19T07:01:03.873Z</time>
      </trkpt>
      <trkpt lat="43.288825" lon="-4.29843833">
        <ele>228.0</ele>
        <time>2018-05-19T07:01:04.872Z</time>
      </trkpt>
      <trkpt lat="43.288785" lon="-4.29831833">
        <ele>229.0</ele>
        <time>2018-05-19T07:01:05.876Z</time>
      </trkpt>
      <trkpt lat="43.288785" lon="-4.29831833">
        <ele>229.0</ele>
        <time>2018-05-19T07:01:06.872Z</time>
      </trkpt>
      <trkpt lat="43.28873833" lon="-4.298185">
        <ele>229.0</ele>
        <time>2018-05-19T07:01:07.877Z</time>
      </trkpt>
      <trkpt lat="43.28873833" lon="-4.298185">
        <ele>229.0</ele>
        <time>2018-05-19T07:01:08.873Z</time>
      </trkpt>
      <trkpt lat="43.28867667" lon="-4.29806333">
        <ele>228.0</ele>
        <time>2018-05-19T07:01:09.875Z</time>
      </trkpt>
      <trkpt lat="43.28867667" lon="-4.29806333">
        <ele>228.0</ele>
        <time>2018-05-19T07:01:10.873Z</time>
      </trkpt>
      <trkpt lat="43.28861" lon="-4.29794333">
        <ele>228.0</ele>
        <time>2018-05-19T07:01:11.872Z</time>
      </trkpt>
      <trkpt lat="43.28855667" lon="-4.29786667">
        <ele>228.0</ele>
        <time>2018-05-19T07:01:12.873Z</time>
      </trkpt>
      <trkpt lat="43.28855667" lon="-4.29786667">
        <ele>228.0</ele>
        <time>2018-05-19T07:01:13.874Z</time>
      </trkpt>
      <trkpt lat="43.28846333" lon="-4.29774167">
        <ele>228.0</ele>
        <time>2018-05-19T07:01:14.875Z</time>
      </trkpt>
      <trkpt lat="43.28846333" lon="-4.29774167">
        <ele>228.0</ele>
        <time>2018-05-19T07:01:15.874Z</time>
      </trkpt>
      <trkpt lat="43.28838167" lon="-4.29762167">
        <ele>228.0</ele>
        <time>2018-05-19T07:01:16.875Z</time>
      </trkpt>
      <trkpt lat="43.28835833" lon="-4.29756833">
        <ele>229.0</ele>
        <time>2018-05-19T07:01:17.876Z</time>
      </trkpt>
      <trkpt lat="43.28835833" lon="-4.29756833">
        <ele>229.0</ele>
        <time>2018-05-19T07:01:18.872Z</time>
      </trkpt>
      <trkpt lat="43.28831167" lon="-4.297475">
        <ele>229.0</ele>
        <time>2018-05-19T07:01:19.876Z</time>
      </trkpt>
      <trkpt lat="43.28831167" lon="-4.297475">
        <ele>229.0</ele>
        <time>2018-05-19T07:01:20.863Z</time>
      </trkpt>
      <trkpt lat="43.28827833" lon="-4.297395">
        <ele>230.0</ele>
        <time>2018-05-19T07:01:21.849Z</time>
      </trkpt>
      <trkpt lat="43.28827833" lon="-4.297395">
        <ele>230.0</ele>
        <time>2018-05-19T07:01:22.875Z</time>
      </trkpt>
      <trkpt lat="43.28825333" lon="-4.29731667">
        <ele>230.0</ele>
        <time>2018-05-19T07:01:23.875Z</time>
      </trkpt>
      <trkpt lat="43.28825333" lon="-4.29731667">
        <ele>230.0</ele>
        <time>2018-05-19T07:01:24.870Z</time>
      </trkpt>
      <trkpt lat="43.28823833" lon="-4.297235">
        <ele>231.0</ele>
        <time>2018-05-19T07:01:25.875Z</time>
      </trkpt>
      <trkpt lat="43.28823833" lon="-4.297235">
        <ele>231.0</ele>
        <time>2018-05-19T07:01:26.872Z</time>
      </trkpt>
      <trkpt lat="43.28821333" lon="-4.29714333">
        <ele>231.0</ele>
        <time>2018-05-19T07:01:27.872Z</time>
      </trkpt>
      <trkpt lat="43.28821333" lon="-4.29714333">
        <ele>231.0</ele>
        <time>2018-05-19T07:01:28.858Z</time>
      </trkpt>
      <trkpt lat="43.28818167" lon="-4.297065">
        <ele>232.0</ele>
        <time>2018-05-19T07:01:29.844Z</time>
      </trkpt>
      <trkpt lat="43.28817" lon="-4.29703">
        <ele>232.0</ele>
        <time>2018-05-19T07:01:30.876Z</time>
      </trkpt>
      <trkpt lat="43.28817" lon="-4.29703">
        <ele>232.0</ele>
        <time>2018-05-19T07:01:31.871Z</time>
      </trkpt>
      <trkpt lat="43.28814167" lon="-4.29695333">
        <ele>233.0</ele>
        <time>2018-05-19T07:01:32.879Z</time>
      </trkpt>
      <trkpt lat="43.28813" lon="-4.29691333">
        <ele>233.0</ele>
        <time>2018-05-19T07:01:33.876Z</time>
      </trkpt>
      <trkpt lat="43.28813" lon="-4.29691333">
        <ele>233.0</ele>
        <time>2018-05-19T07:01:34.874Z</time>
      </trkpt>
      <trkpt lat="43.288105" lon="-4.29682333">
        <ele>233.0</ele>
        <time>2018-05-19T07:01:35.874Z</time>
      </trkpt>
      <trkpt lat="43.288085" lon="-4.29677833">
        <ele>233.0</ele>
        <time>2018-05-19T07:01:36.876Z</time>
      </trkpt>
      <trkpt lat="43.288055" lon="-4.29674333">
        <ele>233.0</ele>
        <time>2018-05-19T07:01:37.878Z</time>
      </trkpt>
      <trkpt lat="43.288055" lon="-4.29674333">
        <ele>233.0</ele>
        <time>2018-05-19T07:01:38.877Z</time>
      </trkpt>
      <trkpt lat="43.287995" lon="-4.296695">
        <ele>234.0</ele>
        <time>2018-05-19T07:01:39.876Z</time>
      </trkpt>
      <trkpt lat="43.287995" lon="-4.296695">
        <ele>234.0</ele>
        <time>2018-05-19T07:01:40.869Z</time>
      </trkpt>
      <trkpt lat="43.28793" lon="-4.29667167">
        <ele>234.0</ele>
        <time>2018-05-19T07:01:41.876Z</time>
      </trkpt>
      <trkpt lat="43.28793" lon="-4.29667167">
        <ele>234.0</ele>
        <time>2018-05-19T07:01:42.872Z</time>
      </trkpt>
      <trkpt lat="43.28784833" lon="-4.296655">
        <ele>235.0</ele>
        <time>2018-05-19T07:01:43.876Z</time>
      </trkpt>
      <trkpt lat="43.28784833" lon="-4.296655">
        <ele>235.0</ele>
        <time>2018-05-19T07:01:44.873Z</time>
      </trkpt>
      <trkpt lat="43.28776833" lon="-4.29665">
        <ele>235.0</ele>
        <time>2018-05-19T07:01:45.881Z</time>
      </trkpt>
      <trkpt lat="43.28772833" lon="-4.296645">
        <ele>235.0</ele>
        <time>2018-05-19T07:01:46.881Z</time>
      </trkpt>
      <trkpt lat="43.287675" lon="-4.29664333">
        <ele>235.0</ele>
        <time>2018-05-19T07:01:47.876Z</time>
      </trkpt>
      <trkpt lat="43.287675" lon="-4.29664333">
        <ele>235.0</ele>
        <time>2018-05-19T07:01:48.873Z</time>
      </trkpt>
      <trkpt lat="43.28756167" lon="-4.29664333">
        <ele>235.0</ele>
        <time>2018-05-19T07:01:49.879Z</time>
      </trkpt>
      <trkpt lat="43.28756167" lon="-4.29664333">
        <ele>235.0</ele>
        <time>2018-05-19T07:01:50.872Z</time>
      </trkpt>
      <trkpt lat="43.28744167" lon="-4.29665667">
        <ele>235.0</ele>
        <time>2018-05-19T07:01:51.876Z</time>
      </trkpt>
      <trkpt lat="43.28744167" lon="-4.29665667">
        <ele>235.0</ele>
        <time>2018-05-19T07:01:52.871Z</time>
      </trkpt>
      <trkpt lat="43.28733167" lon="-4.29667">
        <ele>235.0</ele>
        <time>2018-05-19T07:01:53.876Z</time>
      </trkpt>
      <trkpt lat="43.28733167" lon="-4.29667">
        <ele>235.0</ele>
        <time>2018-05-19T07:01:54.874Z</time>
      </trkpt>
      <trkpt lat="43.28724167" lon="-4.29668167">
        <ele>235.0</ele>
        <time>2018-05-19T07:01:55.877Z</time>
      </trkpt>
      <trkpt lat="43.28724167" lon="-4.29668167">
        <ele>235.0</ele>
        <time>2018-05-19T07:01:56.869Z</time>
      </trkpt>
      <trkpt lat="43.28715833" lon="-4.29664333">
        <ele>236.0</ele>
        <time>2018-05-19T07:01:57.872Z</time>
      </trkpt>
      <trkpt lat="43.28715833" lon="-4.29664333">
        <ele>236.0</ele>
        <time>2018-05-19T07:01:58.870Z</time>
      </trkpt>
      <trkpt lat="43.28709667" lon="-4.29655">
        <ele>236.0</ele>
        <time>2018-05-19T07:01:59.874Z</time>
      </trkpt>
      <trkpt lat="43.28707333" lon="-4.29650333">
        <ele>236.0</ele>
        <time>2018-05-19T07:02:00.873Z</time>
      </trkpt>
      <trkpt lat="43.28705333" lon="-4.29646">
        <ele>236.0</ele>
        <time>2018-05-19T07:02:01.874Z</time>
      </trkpt>
      <trkpt lat="43.28705333" lon="-4.29646">
        <ele>236.0</ele>
        <time>2018-05-19T07:02:02.872Z</time>
      </trkpt>
      <trkpt lat="43.28701333" lon="-4.29638333">
        <ele>236.0</ele>
        <time>2018-05-19T07:02:03.876Z</time>
      </trkpt>
      <trkpt lat="43.28701333" lon="-4.29638333">
        <ele>236.0</ele>
        <time>2018-05-19T07:02:04.872Z</time>
      </trkpt>
      <trkpt lat="43.286975" lon="-4.29632333">
        <ele>236.0</ele>
        <time>2018-05-19T07:02:05.871Z</time>
      </trkpt>
      <trkpt lat="43.28694333" lon="-4.29630667">
        <ele>237.0</ele>
        <time>2018-05-19T07:02:06.875Z</time>
      </trkpt>
      <trkpt lat="43.28694333" lon="-4.29630667">
        <ele>237.0</ele>
        <time>2018-05-19T07:02:07.874Z</time>
      </trkpt>
      <trkpt lat="43.28689167" lon="-4.29634">
        <ele>237.0</ele>
        <time>2018-05-19T07:02:08.874Z</time>
      </trkpt>
      <trkpt lat="43.286875" lon="-4.29637167">
        <ele>237.0</ele>
        <time>2018-05-19T07:02:09.878Z</time>
      </trkpt>
      <trkpt lat="43.286875" lon="-4.29637167">
        <ele>237.0</ele>
        <time>2018-05-19T07:02:10.870Z</time>
      </trkpt>
      <trkpt lat="43.28685" lon="-4.29643833">
        <ele>238.0</ele>
        <time>2018-05-19T07:02:11.875Z</time>
      </trkpt>
      <trkpt lat="43.28685" lon="-4.29643833">
        <ele>238.0</ele>
        <time>2018-05-19T07:02:12.873Z</time>
      </trkpt>
      <trkpt lat="43.28682333" lon="-4.29650833">
        <ele>239.0</ele>
        <time>2018-05-19T07:02:13.876Z</time>
      </trkpt>
      <trkpt lat="43.28682333" lon="-4.29650833">
        <ele>239.0</ele>
        <time>2018-05-19T07:02:14.870Z</time>
      </trkpt>
      <trkpt lat="43.28678833" lon="-4.29657333">
        <ele>239.0</ele>
        <time>2018-05-19T07:02:15.875Z</time>
      </trkpt>
      <trkpt lat="43.28678833" lon="-4.29657333">
        <ele>239.0</ele>
        <time>2018-05-19T07:02:16.871Z</time>
      </trkpt>
      <trkpt lat="43.28675833" lon="-4.29664">
        <ele>239.0</ele>
        <time>2018-05-19T07:02:17.874Z</time>
      </trkpt>
      <trkpt lat="43.286745" lon="-4.29667333">
        <ele>239.0</ele>
        <time>2018-05-19T07:02:18.874Z</time>
      </trkpt>
      <trkpt lat="43.28672333" lon="-4.29671">
        <ele>240.0</ele>
        <time>2018-05-19T07:02:19.876Z</time>
      </trkpt>
      <trkpt lat="43.28672333" lon="-4.29671">
        <ele>240.0</ele>
        <time>2018-05-19T07:02:20.873Z</time>
      </trkpt>
      <trkpt lat="43.28668833" lon="-4.29677833">
        <ele>240.0</ele>
        <time>2018-05-19T07:02:21.876Z</time>
      </trkpt>
      <trkpt lat="43.28668833" lon="-4.29677833">
        <ele>240.0</ele>
        <time>2018-05-19T07:02:22.873Z</time>
      </trkpt>
      <trkpt lat="43.28665667" lon="-4.29684333">
        <ele>241.0</ele>
        <time>2018-05-19T07:02:23.876Z</time>
      </trkpt>
      <trkpt lat="43.28665667" lon="-4.29684333">
        <ele>241.0</ele>
        <time>2018-05-19T07:02:24.873Z</time>
      </trkpt>
      <trkpt lat="43.28663167" lon="-4.29690167">
        <ele>241.0</ele>
        <time>2018-05-19T07:02:25.868Z</time>
      </trkpt>
      <trkpt lat="43.28662167" lon="-4.29693">
        <ele>242.0</ele>
        <time>2018-05-19T07:02:26.874Z</time>
      </trkpt>
      <trkpt lat="43.28661167" lon="-4.296955">
        <ele>242.0</ele>
        <time>2018-05-19T07:02:27.876Z</time>
      </trkpt>
      <trkpt lat="43.28661167" lon="-4.296955">
        <ele>242.0</ele>
        <time>2018-05-19T07:02:28.871Z</time>
      </trkpt>
      <trkpt lat="43.28659" lon="-4.29701333">
        <ele>242.0</ele>
        <time>2018-05-19T07:02:29.874Z</time>
      </trkpt>
      <trkpt lat="43.28659" lon="-4.29701333">
        <ele>242.0</ele>
        <time>2018-05-19T07:02:30.869Z</time>
      </trkpt>
      <trkpt lat="43.28656833" lon="-4.29707">
        <ele>243.0</ele>
        <time>2018-05-19T07:02:31.876Z</time>
      </trkpt>
      <trkpt lat="43.28656833" lon="-4.29707">
        <ele>243.0</ele>
        <time>2018-05-19T07:02:32.871Z</time>
      </trkpt>
      <trkpt lat="43.28654333" lon="-4.297115">
        <ele>244.0</ele>
        <time>2018-05-19T07:02:33.878Z</time>
      </trkpt>
      <trkpt lat="43.28654333" lon="-4.297115">
        <ele>244.0</ele>
        <time>2018-05-19T07:02:34.871Z</time>
      </trkpt>
      <trkpt lat="43.286525" lon="-4.29714167">
        <ele>244.0</ele>
        <time>2018-05-19T07:02:35.850Z</time>
      </trkpt>
      <trkpt lat="43.286525" lon="-4.29714167">
        <ele>244.0</ele>
        <time>2018-05-19T07:02:36.876Z</time>
      </trkpt>
      <trkpt lat="43.28649833" lon="-4.29717">
        <ele>245.0</ele>
        <time>2018-05-19T07:02:37.876Z</time>
      </trkpt>
      <trkpt lat="43.28649833" lon="-4.29717">
        <ele>245.0</ele>
        <time>2018-05-19T07:02:38.869Z</time>
      </trkpt>
      <trkpt lat="43.28646667" lon="-4.29719333">
        <ele>245.0</ele>
        <time>2018-05-19T07:02:39.876Z</time>
      </trkpt>
      <trkpt lat="43.28646667" lon="-4.29719333">
        <ele>245.0</ele>
        <time>2018-05-19T07:02:40.871Z</time>
      </trkpt>
      <trkpt lat="43.28643667" lon="-4.29721833">
        <ele>245.0</ele>
        <time>2018-05-19T07:02:41.874Z</time>
      </trkpt>
      <trkpt lat="43.28643667" lon="-4.29721833">
        <ele>245.0</ele>
        <time>2018-05-19T07:02:42.871Z</time>
      </trkpt>
      <trkpt lat="43.28640333" lon="-4.29725">
        <ele>246.0</ele>
        <time>2018-05-19T07:02:43.876Z</time>
      </trkpt>
      <trkpt lat="43.28640333" lon="-4.29725">
        <ele>246.0</ele>
        <time>2018-05-19T07:02:44.873Z</time>
      </trkpt>
      <trkpt lat="43.28638167" lon="-4.29728667">
        <ele>247.0</ele>
        <time>2018-05-19T07:02:45.881Z</time>
      </trkpt>
      <trkpt lat="43.28638167" lon="-4.29728667">
        <ele>247.0</ele>
        <time>2018-05-19T07:02:46.872Z</time>
      </trkpt>
      <trkpt lat="43.28635" lon="-4.29732333">
        <ele>247.0</ele>
        <time>2018-05-19T07:02:47.875Z</time>
      </trkpt>
      <trkpt lat="43.28633333" lon="-4.29734167">
        <ele>247.0</ele>
        <time>2018-05-19T07:02:48.876Z</time>
      </trkpt>
      <trkpt lat="43.28631667" lon="-4.29736167">
        <ele>248.0</ele>
        <time>2018-05-19T07:02:49.876Z</time>
      </trkpt>
      <trkpt lat="43.28631667" lon="-4.29736167">
        <ele>248.0</ele>
        <time>2018-05-19T07:02:50.872Z</time>
      </trkpt>
      <trkpt lat="43.28628" lon="-4.29740167">
        <ele>249.0</ele>
        <time>2018-05-19T07:02:51.873Z</time>
      </trkpt>
      <trkpt lat="43.28628" lon="-4.29740167">
        <ele>249.0</ele>
        <time>2018-05-19T07:02:52.869Z</time>
      </trkpt>
      <trkpt lat="43.28625167" lon="-4.29743833">
        <ele>249.0</ele>
        <time>2018-05-19T07:02:53.876Z</time>
      </trkpt>
      <trkpt lat="43.28625167" lon="-4.29743833">
        <ele>249.0</ele>
        <time>2018-05-19T07:02:54.872Z</time>
      </trkpt>
      <trkpt lat="43.28623" lon="-4.29747333">
        <ele>250.0</ele>
        <time>2018-05-19T07:02:55.858Z</time>
      </trkpt>
      <trkpt lat="43.28623" lon="-4.29747333">
        <ele>250.0</ele>
        <time>2018-05-19T07:02:56.846Z</time>
      </trkpt>
      <trkpt lat="43.28619667" lon="-4.29749667">
        <ele>251.0</ele>
        <time>2018-05-19T07:02:57.878Z</time>
      </trkpt>
      <trkpt lat="43.28619667" lon="-4.29749667">
        <ele>251.0</ele>
        <time>2018-05-19T07:02:58.872Z</time>
      </trkpt>
      <trkpt lat="43.28616167" lon="-4.29751667">
        <ele>251.0</ele>
        <time>2018-05-19T07:02:59.875Z</time>
      </trkpt>
      <trkpt lat="43.28616167" lon="-4.29751667">
        <ele>251.0</ele>
        <time>2018-05-19T07:03:00.871Z</time>
      </trkpt>
      <trkpt lat="43.28612167" lon="-4.29753667">
        <ele>252.0</ele>
        <time>2018-05-19T07:03:01.875Z</time>
      </trkpt>
      <trkpt lat="43.28612167" lon="-4.29753667">
        <ele>252.0</ele>
        <time>2018-05-19T07:03:02.873Z</time>
      </trkpt>
      <trkpt lat="43.28608667" lon="-4.29755333">
        <ele>253.0</ele>
        <time>2018-05-19T07:03:03.873Z</time>
      </trkpt>
      <trkpt lat="43.28608667" lon="-4.29755333">
        <ele>253.0</ele>
        <time>2018-05-19T07:03:04.872Z</time>
      </trkpt>
      <trkpt lat="43.286055" lon="-4.297575">
        <ele>253.0</ele>
        <time>2018-05-19T07:03:05.872Z</time>
      </trkpt>
      <trkpt lat="43.28604833" lon="-4.29757833">
        <ele>254.0</ele>
        <time>2018-05-19T07:03:06.875Z</time>
      </trkpt>
      <trkpt lat="43.28604833" lon="-4.29757833">
        <ele>254.0</ele>
        <time>2018-05-19T07:03:07.872Z</time>
      </trkpt>
      <trkpt lat="43.28602167" lon="-4.29759333">
        <ele>254.0</ele>
        <time>2018-05-19T07:03:08.874Z</time>
      </trkpt>
      <trkpt lat="43.286015" lon="-4.2976">
        <ele>254.0</ele>
        <time>2018-05-19T07:03:09.873Z</time>
      </trkpt>
      <trkpt lat="43.286015" lon="-4.2976">
        <ele>254.0</ele>
        <time>2018-05-19T07:03:10.870Z</time>
      </trkpt>
      <trkpt lat="43.285985" lon="-4.29762167">
        <ele>255.0</ele>
        <time>2018-05-19T07:03:11.875Z</time>
      </trkpt>
      <trkpt lat="43.285985" lon="-4.29762167">
        <ele>255.0</ele>
        <time>2018-05-19T07:03:12.872Z</time>
      </trkpt>
      <trkpt lat="43.28596167" lon="-4.29763833">
        <ele>255.0</ele>
        <time>2018-05-19T07:03:13.876Z</time>
      </trkpt>
      <trkpt lat="43.28596167" lon="-4.29763833">
        <ele>255.0</ele>
        <time>2018-05-19T07:03:14.873Z</time>
      </trkpt>
      <trkpt lat="43.28593667" lon="-4.297655">
        <ele>256.0</ele>
        <time>2018-05-19T07:03:15.873Z</time>
      </trkpt>
      <trkpt lat="43.28592333" lon="-4.29766667">
        <ele>256.0</ele>
        <time>2018-05-19T07:03:16.874Z</time>
      </trkpt>
      <trkpt lat="43.28592333" lon="-4.29766667">
        <ele>256.0</ele>
        <time>2018-05-19T07:03:17.870Z</time>
      </trkpt>
      <trkpt lat="43.285885" lon="-4.29767667">
        <ele>256.0</ele>
        <time>2018-05-19T07:03:18.858Z</time>
      </trkpt>
      <trkpt lat="43.28587167" lon="-4.29768333">
        <ele>257.0</ele>
        <time>2018-05-19T07:03:19.845Z</time>
      </trkpt>
      <trkpt lat="43.28587167" lon="-4.29768333">
        <ele>257.0</ele>
        <time>2018-05-19T07:03:20.872Z</time>
      </trkpt>
      <trkpt lat="43.28584333" lon="-4.297705">
        <ele>257.0</ele>
        <time>2018-05-19T07:03:21.876Z</time>
      </trkpt>
      <trkpt lat="43.28584333" lon="-4.297705">
        <ele>257.0</ele>
        <time>2018-05-19T07:03:22.873Z</time>
      </trkpt>
      <trkpt lat="43.28580833" lon="-4.29771667">
        <ele>258.0</ele>
        <time>2018-05-19T07:03:23.876Z</time>
      </trkpt>
      <trkpt lat="43.28580833" lon="-4.29771667">
        <ele>258.0</ele>
        <time>2018-05-19T07:03:24.873Z</time>
      </trkpt>
      <trkpt lat="43.28577833" lon="-4.29772833">
        <ele>258.0</ele>
        <time>2018-05-19T07:03:25.874Z</time>
      </trkpt>
      <trkpt lat="43.28576667" lon="-4.297735">
        <ele>259.0</ele>
        <time>2018-05-19T07:03:26.874Z</time>
      </trkpt>
      <trkpt lat="43.28575333" lon="-4.29774167">
        <ele>259.0</ele>
        <time>2018-05-19T07:03:27.876Z</time>
      </trkpt>
      <trkpt lat="43.28575333" lon="-4.29774167">
        <ele>259.0</ele>
        <time>2018-05-19T07:03:28.872Z</time>
      </trkpt>
      <trkpt lat="43.28572" lon="-4.29775667">
        <ele>260.0</ele>
        <time>2018-05-19T07:03:29.875Z</time>
      </trkpt>
      <trkpt lat="43.28572" lon="-4.29775667">
        <ele>260.0</ele>
        <time>2018-05-19T07:03:30.873Z</time>
      </trkpt>
      <trkpt lat="43.28568833" lon="-4.29777">
        <ele>260.0</ele>
        <time>2018-05-19T07:03:31.874Z</time>
      </trkpt>
      <trkpt lat="43.28568833" lon="-4.29777">
        <ele>260.0</ele>
        <time>2018-05-19T07:03:32.870Z</time>
      </trkpt>
      <trkpt lat="43.28565333" lon="-4.297785">
        <ele>261.0</ele>
        <time>2018-05-19T07:03:33.875Z</time>
      </trkpt>
      <trkpt lat="43.28565333" lon="-4.297785">
        <ele>261.0</ele>
        <time>2018-05-19T07:03:34.872Z</time>
      </trkpt>
      <trkpt lat="43.28561833" lon="-4.29779833">
        <ele>261.0</ele>
        <time>2018-05-19T07:03:35.874Z</time>
      </trkpt>
      <trkpt lat="43.28560333" lon="-4.29780167">
        <ele>262.0</ele>
        <time>2018-05-19T07:03:36.872Z</time>
      </trkpt>
      <trkpt lat="43.28558833" lon="-4.29780833">
        <ele>262.0</ele>
        <time>2018-05-19T07:03:37.876Z</time>
      </trkpt>
      <trkpt lat="43.28558833" lon="-4.29780833">
        <ele>262.0</ele>
        <time>2018-05-19T07:03:38.872Z</time>
      </trkpt>
      <trkpt lat="43.285555" lon="-4.29782333">
        <ele>263.0</ele>
        <time>2018-05-19T07:03:39.876Z</time>
      </trkpt>
      <trkpt lat="43.285555" lon="-4.29782333">
        <ele>263.0</ele>
        <time>2018-05-19T07:03:40.872Z</time>
      </trkpt>
      <trkpt lat="43.28551333" lon="-4.29783333">
        <ele>263.0</ele>
        <time>2018-05-19T07:03:41.873Z</time>
      </trkpt>
      <trkpt lat="43.28549167" lon="-4.297835">
        <ele>263.0</ele>
        <time>2018-05-19T07:03:42.876Z</time>
      </trkpt>
      <trkpt lat="43.28549167" lon="-4.297835">
        <ele>263.0</ele>
        <time>2018-05-19T07:03:43.873Z</time>
      </trkpt>
      <trkpt lat="43.28545" lon="-4.29783667">
        <ele>264.0</ele>
        <time>2018-05-19T07:03:44.874Z</time>
      </trkpt>
      <trkpt lat="43.28543" lon="-4.29784">
        <ele>264.0</ele>
        <time>2018-05-19T07:03:45.886Z</time>
      </trkpt>
      <trkpt lat="43.28543" lon="-4.29784">
        <ele>264.0</ele>
        <time>2018-05-19T07:03:46.872Z</time>
      </trkpt>
      <trkpt lat="43.285395" lon="-4.29785667">
        <ele>265.0</ele>
        <time>2018-05-19T07:03:47.875Z</time>
      </trkpt>
      <trkpt lat="43.285395" lon="-4.29785667">
        <ele>265.0</ele>
        <time>2018-05-19T07:03:48.872Z</time>
      </trkpt>
      <trkpt lat="43.28535667" lon="-4.297885">
        <ele>266.0</ele>
        <time>2018-05-19T07:03:49.876Z</time>
      </trkpt>
      <trkpt lat="43.28535667" lon="-4.297885">
        <ele>266.0</ele>
        <time>2018-05-19T07:03:50.874Z</time>
      </trkpt>
      <trkpt lat="43.28532667" lon="-4.29791333">
        <ele>266.0</ele>
        <time>2018-05-19T07:03:51.873Z</time>
      </trkpt>
      <trkpt lat="43.28532667" lon="-4.29791333">
        <ele>266.0</ele>
        <time>2018-05-19T07:03:52.870Z</time>
      </trkpt>
      <trkpt lat="43.28529833" lon="-4.29794167">
        <ele>267.0</ele>
        <time>2018-05-19T07:03:53.873Z</time>
      </trkpt>
      <trkpt lat="43.28529833" lon="-4.29794167">
        <ele>267.0</ele>
        <time>2018-05-19T07:03:54.872Z</time>
      </trkpt>
      <trkpt lat="43.28527167" lon="-4.29797667">
        <ele>267.0</ele>
        <time>2018-05-19T07:03:55.857Z</time>
      </trkpt>
      <trkpt lat="43.28527167" lon="-4.29797667">
        <ele>267.0</ele>
        <time>2018-05-19T07:03:56.858Z</time>
      </trkpt>
      <trkpt lat="43.285245" lon="-4.29801">
        <ele>268.0</ele>
        <time>2018-05-19T07:03:57.844Z</time>
      </trkpt>
      <trkpt lat="43.285245" lon="-4.29801">
        <ele>268.0</ele>
        <time>2018-05-19T07:03:58.876Z</time>
      </trkpt>
      <trkpt lat="43.28522" lon="-4.298045">
        <ele>268.0</ele>
        <time>2018-05-19T07:03:59.874Z</time>
      </trkpt>
      <trkpt lat="43.28522" lon="-4.298045">
        <ele>268.0</ele>
        <time>2018-05-19T07:04:00.866Z</time>
      </trkpt>
      <trkpt lat="43.28519" lon="-4.29808333">
        <ele>268.0</ele>
        <time>2018-05-19T07:04:01.848Z</time>
      </trkpt>
      <trkpt lat="43.28519" lon="-4.29808333">
        <ele>268.0</ele>
        <time>2018-05-19T07:04:02.873Z</time>
      </trkpt>
      <trkpt lat="43.28515833" lon="-4.29812167">
        <ele>269.0</ele>
        <time>2018-05-19T07:04:03.875Z</time>
      </trkpt>
      <trkpt lat="43.28515833" lon="-4.29812167">
        <ele>269.0</ele>
        <time>2018-05-19T07:04:04.873Z</time>
      </trkpt>
      <trkpt lat="43.28512833" lon="-4.29817167">
        <ele>269.0</ele>
        <time>2018-05-19T07:04:05.875Z</time>
      </trkpt>
      <trkpt lat="43.28512833" lon="-4.29817167">
        <ele>269.0</ele>
        <time>2018-05-19T07:04:06.873Z</time>
      </trkpt>
      <trkpt lat="43.28511167" lon="-4.29822">
        <ele>270.0</ele>
        <time>2018-05-19T07:04:07.876Z</time>
      </trkpt>
      <trkpt lat="43.28511167" lon="-4.29822">
        <ele>270.0</ele>
        <time>2018-05-19T07:04:08.870Z</time>
      </trkpt>
      <trkpt lat="43.28509833" lon="-4.29826833">
        <ele>270.0</ele>
        <time>2018-05-19T07:04:09.875Z</time>
      </trkpt>
      <trkpt lat="43.28509833" lon="-4.29826833">
        <ele>270.0</ele>
        <time>2018-05-19T07:04:10.873Z</time>
      </trkpt>
      <trkpt lat="43.28508333" lon="-4.29831833">
        <ele>271.0</ele>
        <time>2018-05-19T07:04:11.875Z</time>
      </trkpt>
      <trkpt lat="43.28508333" lon="-4.29831833">
        <ele>271.0</ele>
        <time>2018-05-19T07:04:12.870Z</time>
      </trkpt>
      <trkpt lat="43.28504" lon="-4.29837333">
        <ele>271.0</ele>
        <time>2018-05-19T07:04:13.876Z</time>
      </trkpt>
      <trkpt lat="43.28504" lon="-4.29837333">
        <ele>271.0</ele>
        <time>2018-05-19T07:04:14.872Z</time>
      </trkpt>
      <trkpt lat="43.28502333" lon="-4.29842833">
        <ele>272.0</ele>
        <time>2018-05-19T07:04:15.875Z</time>
      </trkpt>
      <trkpt lat="43.28502333" lon="-4.29842833">
        <ele>272.0</ele>
        <time>2018-05-19T07:04:16.872Z</time>
      </trkpt>
      <trkpt lat="43.285025" lon="-4.29847833">
        <ele>272.0</ele>
        <time>2018-05-19T07:04:17.876Z</time>
      </trkpt>
      <trkpt lat="43.285025" lon="-4.29847833">
        <ele>272.0</ele>
        <time>2018-05-19T07:04:18.872Z</time>
      </trkpt>
      <trkpt lat="43.28502833" lon="-4.29852667">
        <ele>273.0</ele>
        <time>2018-05-19T07:04:19.876Z</time>
      </trkpt>
      <trkpt lat="43.28502833" lon="-4.29852667">
        <ele>273.0</ele>
        <time>2018-05-19T07:04:20.872Z</time>
      </trkpt>
      <trkpt lat="43.28503167" lon="-4.29857833">
        <ele>273.0</ele>
        <time>2018-05-19T07:04:21.875Z</time>
      </trkpt>
      <trkpt lat="43.28503167" lon="-4.29857833">
        <ele>273.0</ele>
        <time>2018-05-19T07:04:22.873Z</time>
      </trkpt>
      <trkpt lat="43.28503333" lon="-4.298635">
        <ele>273.0</ele>
        <time>2018-05-19T07:04:23.874Z</time>
      </trkpt>
      <trkpt lat="43.28503333" lon="-4.29866167">
        <ele>274.0</ele>
        <time>2018-05-19T07:04:24.874Z</time>
      </trkpt>
      <trkpt lat="43.28503" lon="-4.29868833">
        <ele>274.0</ele>
        <time>2018-05-19T07:04:25.876Z</time>
      </trkpt>
      <trkpt lat="43.28503" lon="-4.29868833">
        <ele>274.0</ele>
        <time>2018-05-19T07:04:26.872Z</time>
      </trkpt>
      <trkpt lat="43.28502833" lon="-4.29874">
        <ele>275.0</ele>
        <time>2018-05-19T07:04:27.874Z</time>
      </trkpt>
      <trkpt lat="43.28502833" lon="-4.29874">
        <ele>275.0</ele>
        <time>2018-05-19T07:04:28.873Z</time>
      </trkpt>
      <trkpt lat="43.28501833" lon="-4.29878833">
        <ele>275.0</ele>
        <time>2018-05-19T07:04:29.875Z</time>
      </trkpt>
      <trkpt lat="43.28501833" lon="-4.29878833">
        <ele>275.0</ele>
        <time>2018-05-19T07:04:30.869Z</time>
      </trkpt>
      <trkpt lat="43.285015" lon="-4.29882833">
        <ele>276.0</ele>
        <time>2018-05-19T07:04:31.876Z</time>
      </trkpt>
      <trkpt lat="43.285015" lon="-4.29882833">
        <ele>276.0</ele>
        <time>2018-05-19T07:04:32.872Z</time>
      </trkpt>
      <trkpt lat="43.28501" lon="-4.298865">
        <ele>276.0</ele>
        <time>2018-05-19T07:04:33.875Z</time>
      </trkpt>
      <trkpt lat="43.28501" lon="-4.298865">
        <ele>276.0</ele>
        <time>2018-05-19T07:04:34.872Z</time>
      </trkpt>
      <trkpt lat="43.28498833" lon="-4.29890333">
        <ele>277.0</ele>
        <time>2018-05-19T07:04:35.876Z</time>
      </trkpt>
      <trkpt lat="43.28498833" lon="-4.29893">
        <ele>277.0</ele>
        <time>2018-05-19T07:04:36.876Z</time>
      </trkpt>
      <trkpt lat="43.28498833" lon="-4.29893">
        <ele>277.0</ele>
        <time>2018-05-19T07:04:37.874Z</time>
      </trkpt>
      <trkpt lat="43.284995" lon="-4.29898167">
        <ele>278.0</ele>
        <time>2018-05-19T07:04:38.874Z</time>
      </trkpt>
      <trkpt lat="43.28499667" lon="-4.29900833">
        <ele>278.0</ele>
        <time>2018-05-19T07:04:39.875Z</time>
      </trkpt>
      <trkpt lat="43.28499667" lon="-4.29900833">
        <ele>278.0</ele>
        <time>2018-05-19T07:04:40.873Z</time>
      </trkpt>
      <trkpt lat="43.28500667" lon="-4.29905167">
        <ele>279.0</ele>
        <time>2018-05-19T07:04:41.873Z</time>
      </trkpt>
      <trkpt lat="43.28500667" lon="-4.29905167">
        <ele>279.0</ele>
        <time>2018-05-19T07:04:42.872Z</time>
      </trkpt>
      <trkpt lat="43.28497833" lon="-4.29908667">
        <ele>279.0</ele>
        <time>2018-05-19T07:04:43.875Z</time>
      </trkpt>
      <trkpt lat="43.28495833" lon="-4.29911667">
        <ele>280.0</ele>
        <time>2018-05-19T07:04:44.876Z</time>
      </trkpt>
      <trkpt lat="43.28495833" lon="-4.29911667">
        <ele>280.0</ele>
        <time>2018-05-19T07:04:45.881Z</time>
      </trkpt>
      <trkpt lat="43.28494" lon="-4.299165">
        <ele>280.0</ele>
        <time>2018-05-19T07:04:46.851Z</time>
      </trkpt>
      <trkpt lat="43.284935" lon="-4.29918167">
        <ele>280.0</ele>
        <time>2018-05-19T07:04:47.876Z</time>
      </trkpt>
      <trkpt lat="43.284935" lon="-4.29918167">
        <ele>280.0</ele>
        <time>2018-05-19T07:04:48.869Z</time>
      </trkpt>
      <trkpt lat="43.28492167" lon="-4.29922">
        <ele>281.0</ele>
        <time>2018-05-19T07:04:49.876Z</time>
      </trkpt>
      <trkpt lat="43.28492167" lon="-4.29922">
        <ele>281.0</ele>
        <time>2018-05-19T07:04:50.872Z</time>
      </trkpt>
      <trkpt lat="43.284905" lon="-4.29926167">
        <ele>282.0</ele>
        <time>2018-05-19T07:04:51.875Z</time>
      </trkpt>
      <trkpt lat="43.284905" lon="-4.29926167">
        <ele>282.0</ele>
        <time>2018-05-19T07:04:52.870Z</time>
      </trkpt>
      <trkpt lat="43.28489333" lon="-4.29930667">
        <ele>283.0</ele>
        <time>2018-05-19T07:04:53.872Z</time>
      </trkpt>
      <trkpt lat="43.28489333" lon="-4.29930667">
        <ele>283.0</ele>
        <time>2018-05-19T07:04:54.875Z</time>
      </trkpt>
      <trkpt lat="43.28489" lon="-4.29937">
        <ele>283.0</ele>
        <time>2018-05-19T07:04:55.876Z</time>
      </trkpt>
      <trkpt lat="43.28489" lon="-4.29937">
        <ele>283.0</ele>
        <time>2018-05-19T07:04:56.871Z</time>
      </trkpt>
      <trkpt lat="43.28489667" lon="-4.299445">
        <ele>283.0</ele>
        <time>2018-05-19T07:04:57.875Z</time>
      </trkpt>
      <trkpt lat="43.28489667" lon="-4.299445">
        <ele>283.0</ele>
        <time>2018-05-19T07:04:58.869Z</time>
      </trkpt>
      <trkpt lat="43.28492667" lon="-4.29949667">
        <ele>284.0</ele>
        <time>2018-05-19T07:04:59.874Z</time>
      </trkpt>
      <trkpt lat="43.28492667" lon="-4.29949667">
        <ele>284.0</ele>
        <time>2018-05-19T07:05:00.872Z</time>
      </trkpt>
      <trkpt lat="43.28498" lon="-4.29952667">
        <ele>285.0</ele>
        <time>2018-05-19T07:05:01.873Z</time>
      </trkpt>
      <trkpt lat="43.28498" lon="-4.29952667">
        <ele>285.0</ele>
        <time>2018-05-19T07:05:02.870Z</time>
      </trkpt>
      <trkpt lat="43.28503167" lon="-4.29955333">
        <ele>285.0</ele>
        <time>2018-05-19T07:05:03.875Z</time>
      </trkpt>
      <trkpt lat="43.28503167" lon="-4.29955333">
        <ele>285.0</ele>
        <time>2018-05-19T07:05:04.872Z</time>
      </trkpt>
      <trkpt lat="43.28507667" lon="-4.29958167">
        <ele>286.0</ele>
        <time>2018-05-19T07:05:05.874Z</time>
      </trkpt>
      <trkpt lat="43.28507667" lon="-4.29958167">
        <ele>286.0</ele>
        <time>2018-05-19T07:05:06.865Z</time>
      </trkpt>
      <trkpt lat="43.28512833" lon="-4.29960667">
        <ele>287.0</ele>
        <time>2018-05-19T07:05:07.849Z</time>
      </trkpt>
      <trkpt lat="43.28512833" lon="-4.29960667">
        <ele>287.0</ele>
        <time>2018-05-19T07:05:08.874Z</time>
      </trkpt>
      <trkpt lat="43.28516" lon="-4.29965833">
        <ele>287.0</ele>
        <time>2018-05-19T07:05:09.881Z</time>
      </trkpt>
      <trkpt lat="43.28516" lon="-4.29965833">
        <ele>287.0</ele>
        <time>2018-05-19T07:05:10.878Z</time>
      </trkpt>
      <trkpt lat="43.28518667" lon="-4.29970833">
        <ele>288.0</ele>
        <time>2018-05-19T07:05:11.875Z</time>
      </trkpt>
      <trkpt lat="43.28518667" lon="-4.29970833">
        <ele>288.0</ele>
        <time>2018-05-19T07:05:12.873Z</time>
      </trkpt>
      <trkpt lat="43.28522667" lon="-4.29976833">
        <ele>288.0</ele>
        <time>2018-05-19T07:05:13.876Z</time>
      </trkpt>
      <trkpt lat="43.28522667" lon="-4.29976833">
        <ele>288.0</ele>
        <time>2018-05-19T07:05:14.872Z</time>
      </trkpt>
      <trkpt lat="43.285265" lon="-4.29984667">
        <ele>288.0</ele>
        <time>2018-05-19T07:05:15.876Z</time>
      </trkpt>
      <trkpt lat="43.285265" lon="-4.29984667">
        <ele>288.0</ele>
        <time>2018-05-19T07:05:16.875Z</time>
      </trkpt>
      <trkpt lat="43.28531167" lon="-4.29994833">
        <ele>288.0</ele>
        <time>2018-05-19T07:05:17.876Z</time>
      </trkpt>
      <trkpt lat="43.28531167" lon="-4.29994833">
        <ele>288.0</ele>
        <time>2018-05-19T07:05:18.872Z</time>
      </trkpt>
      <trkpt lat="43.28536" lon="-4.30006167">
        <ele>287.0</ele>
        <time>2018-05-19T07:05:19.874Z</time>
      </trkpt>
      <trkpt lat="43.28536" lon="-4.30006167">
        <ele>287.0</ele>
        <time>2018-05-19T07:05:20.869Z</time>
      </trkpt>
      <trkpt lat="43.28542167" lon="-4.300185">
        <ele>286.0</ele>
        <time>2018-05-19T07:05:21.875Z</time>
      </trkpt>
      <trkpt lat="43.28542167" lon="-4.300185">
        <ele>286.0</ele>
        <time>2018-05-19T07:05:22.873Z</time>
      </trkpt>
      <trkpt lat="43.28548833" lon="-4.300325">
        <ele>285.0</ele>
        <time>2018-05-19T07:05:23.875Z</time>
      </trkpt>
      <trkpt lat="43.28548833" lon="-4.300325">
        <ele>285.0</ele>
        <time>2018-05-19T07:05:24.870Z</time>
      </trkpt>
      <trkpt lat="43.28558333" lon="-4.300475">
        <ele>284.0</ele>
        <time>2018-05-19T07:05:25.873Z</time>
      </trkpt>
      <trkpt lat="43.28563833" lon="-4.30055167">
        <ele>283.0</ele>
        <time>2018-05-19T07:05:26.874Z</time>
      </trkpt>
      <trkpt lat="43.28569" lon="-4.30063333">
        <ele>283.0</ele>
        <time>2018-05-19T07:05:27.876Z</time>
      </trkpt>
      <trkpt lat="43.28569" lon="-4.30063333">
        <ele>283.0</ele>
        <time>2018-05-19T07:05:28.871Z</time>
      </trkpt>
      <trkpt lat="43.28578" lon="-4.30079833">
        <ele>284.0</ele>
        <time>2018-05-19T07:05:29.875Z</time>
      </trkpt>
      <trkpt lat="43.28578" lon="-4.30079833">
        <ele>284.0</ele>
        <time>2018-05-19T07:05:30.869Z</time>
      </trkpt>
      <trkpt lat="43.28584167" lon="-4.30093167">
        <ele>285.0</ele>
        <time>2018-05-19T07:05:31.876Z</time>
      </trkpt>
      <trkpt lat="43.28587" lon="-4.30099">
        <ele>285.0</ele>
        <time>2018-05-19T07:05:32.857Z</time>
      </trkpt>
      <trkpt lat="43.28587" lon="-4.30099">
        <ele>285.0</ele>
        <time>2018-05-19T07:05:33.882Z</time>
      </trkpt>
      <trkpt lat="43.28589833" lon="-4.30114167">
        <ele>286.0</ele>
        <time>2018-05-19T07:05:34.849Z</time>
      </trkpt>
      <trkpt lat="43.28589833" lon="-4.30114167">
        <ele>286.0</ele>
        <time>2018-05-19T07:05:35.870Z</time>
      </trkpt>
      <trkpt lat="43.28591167" lon="-4.30132667">
        <ele>286.0</ele>
        <time>2018-05-19T07:05:36.874Z</time>
      </trkpt>
      <trkpt lat="43.28591167" lon="-4.301425">
        <ele>287.0</ele>
        <time>2018-05-19T07:05:37.876Z</time>
      </trkpt>
      <trkpt lat="43.28591167" lon="-4.301425">
        <ele>287.0</ele>
        <time>2018-05-19T07:05:38.873Z</time>
      </trkpt>
      <trkpt lat="43.28588333" lon="-4.30160167">
        <ele>287.0</ele>
        <time>2018-05-19T07:05:39.875Z</time>
      </trkpt>
      <trkpt lat="43.28588333" lon="-4.30160167">
        <ele>287.0</ele>
        <time>2018-05-19T07:05:40.872Z</time>
      </trkpt>
      <trkpt lat="43.28585333" lon="-4.30175167">
        <ele>287.0</ele>
        <time>2018-05-19T07:05:41.875Z</time>
      </trkpt>
      <trkpt lat="43.28585333" lon="-4.30175167">
        <ele>287.0</ele>
        <time>2018-05-19T07:05:42.867Z</time>
      </trkpt>
      <trkpt lat="43.285815" lon="-4.30186667">
        <ele>287.0</ele>
        <time>2018-05-19T07:05:43.852Z</time>
      </trkpt>
      <trkpt lat="43.285815" lon="-4.30186667">
        <ele>287.0</ele>
        <time>2018-05-19T07:05:44.877Z</time>
      </trkpt>
      <trkpt lat="43.285795" lon="-4.30195167">
        <ele>288.0</ele>
        <time>2018-05-19T07:05:45.887Z</time>
      </trkpt>
      <trkpt lat="43.285795" lon="-4.30195167">
        <ele>288.0</ele>
        <time>2018-05-19T07:05:46.863Z</time>
      </trkpt>
      <trkpt lat="43.285775" lon="-4.30201167">
        <ele>288.0</ele>
        <time>2018-05-19T07:05:47.849Z</time>
      </trkpt>
      <trkpt lat="43.285775" lon="-4.30201167">
        <ele>288.0</ele>
        <time>2018-05-19T07:05:48.875Z</time>
      </trkpt>
      <trkpt lat="43.285755" lon="-4.30207333">
        <ele>289.0</ele>
        <time>2018-05-19T07:05:49.876Z</time>
      </trkpt>
      <trkpt lat="43.285755" lon="-4.30207333">
        <ele>289.0</ele>
        <time>2018-05-19T07:05:50.873Z</time>
      </trkpt>
      <trkpt lat="43.28572833" lon="-4.30213333">
        <ele>289.0</ele>
        <time>2018-05-19T07:05:51.874Z</time>
      </trkpt>
      <trkpt lat="43.28572833" lon="-4.30213333">
        <ele>289.0</ele>
        <time>2018-05-19T07:05:52.873Z</time>
      </trkpt>
      <trkpt lat="43.28571667" lon="-4.30219333">
        <ele>290.0</ele>
        <time>2018-05-19T07:05:53.875Z</time>
      </trkpt>
      <trkpt lat="43.28571667" lon="-4.30219333">
        <ele>290.0</ele>
        <time>2018-05-19T07:05:54.872Z</time>
      </trkpt>
      <trkpt lat="43.28568833" lon="-4.302255">
        <ele>290.0</ele>
        <time>2018-05-19T07:05:55.874Z</time>
      </trkpt>
      <trkpt lat="43.285675" lon="-4.30228333">
        <ele>291.0</ele>
        <time>2018-05-19T07:05:56.876Z</time>
      </trkpt>
      <trkpt lat="43.28566667" lon="-4.30231">
        <ele>291.0</ele>
        <time>2018-05-19T07:05:57.875Z</time>
      </trkpt>
      <trkpt lat="43.28566667" lon="-4.30231">
        <ele>291.0</ele>
        <time>2018-05-19T07:05:58.873Z</time>
      </trkpt>
      <trkpt lat="43.28565167" lon="-4.30236833">
        <ele>292.0</ele>
        <time>2018-05-19T07:05:59.875Z</time>
      </trkpt>
      <trkpt lat="43.28565167" lon="-4.30236833">
        <ele>292.0</ele>
        <time>2018-05-19T07:06:00.872Z</time>
      </trkpt>
      <trkpt lat="43.285645" lon="-4.302435">
        <ele>292.0</ele>
        <time>2018-05-19T07:06:01.873Z</time>
      </trkpt>
      <trkpt lat="43.285645" lon="-4.302435">
        <ele>292.0</ele>
        <time>2018-05-19T07:06:02.872Z</time>
      </trkpt>
      <trkpt lat="43.28563333" lon="-4.302495">
        <ele>292.0</ele>
        <time>2018-05-19T07:06:03.875Z</time>
      </trkpt>
      <trkpt lat="43.28563333" lon="-4.302495">
        <ele>292.0</ele>
        <time>2018-05-19T07:06:04.872Z</time>
      </trkpt>
      <trkpt lat="43.285615" lon="-4.30255667">
        <ele>293.0</ele>
        <time>2018-05-19T07:06:05.874Z</time>
      </trkpt>
      <trkpt lat="43.285615" lon="-4.30255667">
        <ele>293.0</ele>
        <time>2018-05-19T07:06:06.873Z</time>
      </trkpt>
      <trkpt lat="43.2856" lon="-4.30262333">
        <ele>293.0</ele>
        <time>2018-05-19T07:06:07.876Z</time>
      </trkpt>
      <trkpt lat="43.2856" lon="-4.30262333">
        <ele>293.0</ele>
        <time>2018-05-19T07:06:08.871Z</time>
      </trkpt>
      <trkpt lat="43.28558167" lon="-4.302675">
        <ele>294.0</ele>
        <time>2018-05-19T07:06:09.874Z</time>
      </trkpt>
      <trkpt lat="43.28558167" lon="-4.302675">
        <ele>294.0</ele>
        <time>2018-05-19T07:06:10.873Z</time>
      </trkpt>
      <trkpt lat="43.285575" lon="-4.30272167">
        <ele>295.0</ele>
        <time>2018-05-19T07:06:11.876Z</time>
      </trkpt>
      <trkpt lat="43.285575" lon="-4.30272167">
        <ele>295.0</ele>
        <time>2018-05-19T07:06:12.872Z</time>
      </trkpt>
      <trkpt lat="43.285565" lon="-4.302775">
        <ele>295.0</ele>
        <time>2018-05-19T07:06:13.873Z</time>
      </trkpt>
      <trkpt lat="43.285565" lon="-4.302775">
        <ele>295.0</ele>
        <time>2018-05-19T07:06:14.870Z</time>
      </trkpt>
      <trkpt lat="43.28555333" lon="-4.30282">
        <ele>295.0</ele>
        <time>2018-05-19T07:06:15.875Z</time>
      </trkpt>
      <trkpt lat="43.28555333" lon="-4.30282">
        <ele>295.0</ele>
        <time>2018-05-19T07:06:16.872Z</time>
      </trkpt>
      <trkpt lat="43.28553167" lon="-4.30286333">
        <ele>296.0</ele>
        <time>2018-05-19T07:06:17.850Z</time>
      </trkpt>
      <trkpt lat="43.28553167" lon="-4.30286333">
        <ele>296.0</ele>
        <time>2018-05-19T07:06:18.846Z</time>
      </trkpt>
      <trkpt lat="43.28550667" lon="-4.30290167">
        <ele>296.0</ele>
        <time>2018-05-19T07:06:19.876Z</time>
      </trkpt>
      <trkpt lat="43.28550667" lon="-4.30290167">
        <ele>296.0</ele>
        <time>2018-05-19T07:06:20.872Z</time>
      </trkpt>
      <trkpt lat="43.28548333" lon="-4.30292667">
        <ele>296.0</ele>
        <time>2018-05-19T07:06:21.874Z</time>
      </trkpt>
      <trkpt lat="43.28548333" lon="-4.30292667">
        <ele>296.0</ele>
        <time>2018-05-19T07:06:22.870Z</time>
      </trkpt>
      <trkpt lat="43.285465" lon="-4.30294833">
        <ele>297.0</ele>
        <time>2018-05-19T07:06:23.845Z</time>
      </trkpt>
      <trkpt lat="43.285465" lon="-4.30294833">
        <ele>297.0</ele>
        <time>2018-05-19T07:06:24.872Z</time>
      </trkpt>
      <trkpt lat="43.28542833" lon="-4.30297333">
        <ele>297.0</ele>
        <time>2018-05-19T07:06:25.877Z</time>
      </trkpt>
      <trkpt lat="43.28542833" lon="-4.30297333">
        <ele>297.0</ele>
        <time>2018-05-19T07:06:26.872Z</time>
      </trkpt>
      <trkpt lat="43.28539667" lon="-4.302995">
        <ele>298.0</ele>
        <time>2018-05-19T07:06:27.882Z</time>
      </trkpt>
      <trkpt lat="43.28539667" lon="-4.302995">
        <ele>298.0</ele>
        <time>2018-05-19T07:06:28.874Z</time>
      </trkpt>
      <trkpt lat="43.28536" lon="-4.30302667">
        <ele>298.0</ele>
        <time>2018-05-19T07:06:29.875Z</time>
      </trkpt>
      <trkpt lat="43.28536" lon="-4.30302667">
        <ele>298.0</ele>
        <time>2018-05-19T07:06:30.872Z</time>
      </trkpt>
      <trkpt lat="43.28533" lon="-4.30308333">
        <ele>299.0</ele>
        <time>2018-05-19T07:06:31.876Z</time>
      </trkpt>
      <trkpt lat="43.28533" lon="-4.30308333">
        <ele>299.0</ele>
        <time>2018-05-19T07:06:32.872Z</time>
      </trkpt>
      <trkpt lat="43.28529" lon="-4.303135">
        <ele>299.0</ele>
        <time>2018-05-19T07:06:33.844Z</time>
      </trkpt>
      <trkpt lat="43.28529" lon="-4.303135">
        <ele>299.0</ele>
        <time>2018-05-19T07:06:34.872Z</time>
      </trkpt>
      <trkpt lat="43.28525333" lon="-4.30317833">
        <ele>300.0</ele>
        <time>2018-05-19T07:06:35.876Z</time>
      </trkpt>
      <trkpt lat="43.28523833" lon="-4.30319833">
        <ele>300.0</ele>
        <time>2018-05-19T07:06:36.875Z</time>
      </trkpt>
      <trkpt lat="43.28523833" lon="-4.30319833">
        <ele>300.0</ele>
        <time>2018-05-19T07:06:37.873Z</time>
      </trkpt>
      <trkpt lat="43.28520167" lon="-4.30324333">
        <ele>301.0</ele>
        <time>2018-05-19T07:06:38.874Z</time>
      </trkpt>
      <trkpt lat="43.28518" lon="-4.30326833">
        <ele>301.0</ele>
        <time>2018-05-19T07:06:39.874Z</time>
      </trkpt>
      <trkpt lat="43.28518" lon="-4.30326833">
        <ele>301.0</ele>
        <time>2018-05-19T07:06:40.873Z</time>
      </trkpt>
      <trkpt lat="43.285125" lon="-4.30331333">
        <ele>302.0</ele>
        <time>2018-05-19T07:06:41.875Z</time>
      </trkpt>
      <trkpt lat="43.285125" lon="-4.30331333">
        <ele>302.0</ele>
        <time>2018-05-19T07:06:42.870Z</time>
      </trkpt>
      <trkpt lat="43.28507833" lon="-4.30335">
        <ele>303.0</ele>
        <time>2018-05-19T07:06:43.876Z</time>
      </trkpt>
      <trkpt lat="43.28507833" lon="-4.30335">
        <ele>303.0</ele>
        <time>2018-05-19T07:06:44.872Z</time>
      </trkpt>
      <trkpt lat="43.28504167" lon="-4.30338">
        <ele>304.0</ele>
        <time>2018-05-19T07:06:45.883Z</time>
      </trkpt>
      <trkpt lat="43.28504167" lon="-4.30338">
        <ele>304.0</ele>
        <time>2018-05-19T07:06:46.869Z</time>
      </trkpt>
      <trkpt lat="43.285015" lon="-4.303415">
        <ele>305.0</ele>
        <time>2018-05-19T07:06:47.859Z</time>
      </trkpt>
      <trkpt lat="43.285015" lon="-4.303415">
        <ele>305.0</ele>
        <time>2018-05-19T07:06:48.857Z</time>
      </trkpt>
      <trkpt lat="43.28496833" lon="-4.30345">
        <ele>305.0</ele>
        <time>2018-05-19T07:06:49.846Z</time>
      </trkpt>
      <trkpt lat="43.28496833" lon="-4.30345">
        <ele>305.0</ele>
        <time>2018-05-19T07:06:50.883Z</time>
      </trkpt>
      <trkpt lat="43.28492167" lon="-4.30348833">
        <ele>305.0</ele>
        <time>2018-05-19T07:06:51.874Z</time>
      </trkpt>
      <trkpt lat="43.28492167" lon="-4.30348833">
        <ele>305.0</ele>
        <time>2018-05-19T07:06:52.872Z</time>
      </trkpt>
      <trkpt lat="43.28487" lon="-4.30353333">
        <ele>306.0</ele>
        <time>2018-05-19T07:06:53.875Z</time>
      </trkpt>
      <trkpt lat="43.28487" lon="-4.30353333">
        <ele>306.0</ele>
        <time>2018-05-19T07:06:54.872Z</time>
      </trkpt>
      <trkpt lat="43.28481167" lon="-4.30357">
        <ele>306.0</ele>
        <time>2018-05-19T07:06:55.876Z</time>
      </trkpt>
      <trkpt lat="43.28481167" lon="-4.30357">
        <ele>306.0</ele>
        <time>2018-05-19T07:06:56.873Z</time>
      </trkpt>
      <trkpt lat="43.28476" lon="-4.30360667">
        <ele>306.0</ele>
        <time>2018-05-19T07:06:57.873Z</time>
      </trkpt>
      <trkpt lat="43.28473833" lon="-4.30362667">
        <ele>306.0</ele>
        <time>2018-05-19T07:06:58.875Z</time>
      </trkpt>
      <trkpt lat="43.28473833" lon="-4.30362667">
        <ele>306.0</ele>
        <time>2018-05-19T07:06:59.872Z</time>
      </trkpt>
      <trkpt lat="43.28471333" lon="-4.30368333">
        <ele>306.0</ele>
        <time>2018-05-19T07:07:00.874Z</time>
      </trkpt>
      <trkpt lat="43.28471333" lon="-4.30368333">
        <ele>306.0</ele>
        <time>2018-05-19T07:07:01.873Z</time>
      </trkpt>
      <trkpt lat="43.28472833" lon="-4.30376167">
        <ele>306.0</ele>
        <time>2018-05-19T07:07:02.874Z</time>
      </trkpt>
      <trkpt lat="43.28474333" lon="-4.303795">
        <ele>306.0</ele>
        <time>2018-05-19T07:07:03.874Z</time>
      </trkpt>
      <trkpt lat="43.28474333" lon="-4.303795">
        <ele>306.0</ele>
        <time>2018-05-19T07:07:04.867Z</time>
      </trkpt>
      <trkpt lat="43.28477167" lon="-4.30384833">
        <ele>306.0</ele>
        <time>2018-05-19T07:07:05.849Z</time>
      </trkpt>
      <trkpt lat="43.28477167" lon="-4.30384833">
        <ele>306.0</ele>
        <time>2018-05-19T07:07:06.874Z</time>
      </trkpt>
      <trkpt lat="43.28481333" lon="-4.30390833">
        <ele>306.0</ele>
        <time>2018-05-19T07:07:07.868Z</time>
      </trkpt>
      <trkpt lat="43.28483833" lon="-4.30393833">
        <ele>306.0</ele>
        <time>2018-05-19T07:07:08.857Z</time>
      </trkpt>
      <trkpt lat="43.284865" lon="-4.30396333">
        <ele>305.0</ele>
        <time>2018-05-19T07:07:09.846Z</time>
      </trkpt>
      <trkpt lat="43.284865" lon="-4.30396333">
        <ele>305.0</ele>
        <time>2018-05-19T07:07:10.872Z</time>
      </trkpt>
      <trkpt lat="43.28491833" lon="-4.30400833">
        <ele>305.0</ele>
        <time>2018-05-19T07:07:11.875Z</time>
      </trkpt>
      <trkpt lat="43.28491833" lon="-4.30400833">
        <ele>305.0</ele>
        <time>2018-05-19T07:07:12.872Z</time>
      </trkpt>
      <trkpt lat="43.28497833" lon="-4.304045">
        <ele>305.0</ele>
        <time>2018-05-19T07:07:13.875Z</time>
      </trkpt>
      <trkpt lat="43.28497833" lon="-4.304045">
        <ele>305.0</ele>
        <time>2018-05-19T07:07:14.873Z</time>
      </trkpt>
      <trkpt lat="43.28504333" lon="-4.304085">
        <ele>305.0</ele>
        <time>2018-05-19T07:07:15.875Z</time>
      </trkpt>
      <trkpt lat="43.28504333" lon="-4.304085">
        <ele>305.0</ele>
        <time>2018-05-19T07:07:16.872Z</time>
      </trkpt>
      <trkpt lat="43.28510833" lon="-4.30411667">
        <ele>305.0</ele>
        <time>2018-05-19T07:07:17.851Z</time>
      </trkpt>
      <trkpt lat="43.28510833" lon="-4.30411667">
        <ele>305.0</ele>
        <time>2018-05-19T07:07:18.884Z</time>
      </trkpt>
      <trkpt lat="43.28516333" lon="-4.30415667">
        <ele>305.0</ele>
        <time>2018-05-19T07:07:19.876Z</time>
      </trkpt>
      <trkpt lat="43.28516333" lon="-4.30415667">
        <ele>305.0</ele>
        <time>2018-05-19T07:07:20.869Z</time>
      </trkpt>
      <trkpt lat="43.28522" lon="-4.3042">
        <ele>305.0</ele>
        <time>2018-05-19T07:07:21.876Z</time>
      </trkpt>
      <trkpt lat="43.28522" lon="-4.3042">
        <ele>305.0</ele>
        <time>2018-05-19T07:07:22.870Z</time>
      </trkpt>
      <trkpt lat="43.28526667" lon="-4.30425167">
        <ele>305.0</ele>
        <time>2018-05-19T07:07:23.873Z</time>
      </trkpt>
      <trkpt lat="43.28529" lon="-4.30428167">
        <ele>305.0</ele>
        <time>2018-05-19T07:07:24.873Z</time>
      </trkpt>
      <trkpt lat="43.28529" lon="-4.30428167">
        <ele>305.0</ele>
        <time>2018-05-19T07:07:25.869Z</time>
      </trkpt>
      <trkpt lat="43.28533" lon="-4.30434333">
        <ele>306.0</ele>
        <time>2018-05-19T07:07:26.874Z</time>
      </trkpt>
      <trkpt lat="43.28534667" lon="-4.30437667">
        <ele>306.0</ele>
        <time>2018-05-19T07:07:27.883Z</time>
      </trkpt>
      <trkpt lat="43.28534667" lon="-4.30437667">
        <ele>306.0</ele>
        <time>2018-05-19T07:07:28.877Z</time>
      </trkpt>
      <trkpt lat="43.285385" lon="-4.304445">
        <ele>306.0</ele>
        <time>2018-05-19T07:07:29.846Z</time>
      </trkpt>
      <trkpt lat="43.28541" lon="-4.30447333">
        <ele>307.0</ele>
        <time>2018-05-19T07:07:30.883Z</time>
      </trkpt>
      <trkpt lat="43.28541" lon="-4.30447333">
        <ele>307.0</ele>
        <time>2018-05-19T07:07:31.870Z</time>
      </trkpt>
      <trkpt lat="43.28544667" lon="-4.304525">
        <ele>308.0</ele>
        <time>2018-05-19T07:07:32.874Z</time>
      </trkpt>
      <trkpt lat="43.28546667" lon="-4.30454833">
        <ele>308.0</ele>
        <time>2018-05-19T07:07:33.876Z</time>
      </trkpt>
      <trkpt lat="43.28546667" lon="-4.30454833">
        <ele>308.0</ele>
        <time>2018-05-19T07:07:34.876Z</time>
      </trkpt>
      <trkpt lat="43.28551" lon="-4.30459333">
        <ele>309.0</ele>
        <time>2018-05-19T07:07:35.872Z</time>
      </trkpt>
      <trkpt lat="43.28551" lon="-4.30459333">
        <ele>309.0</ele>
        <time>2018-05-19T07:07:36.870Z</time>
      </trkpt>
      <trkpt lat="43.28555" lon="-4.30463667">
        <ele>310.0</ele>
        <time>2018-05-19T07:07:37.876Z</time>
      </trkpt>
      <trkpt lat="43.28555" lon="-4.30463667">
        <ele>310.0</ele>
        <time>2018-05-19T07:07:38.872Z</time>
      </trkpt>
      <trkpt lat="43.28559" lon="-4.30467833">
        <ele>310.0</ele>
        <time>2018-05-19T07:07:39.874Z</time>
      </trkpt>
      <trkpt lat="43.28559" lon="-4.30467833">
        <ele>310.0</ele>
        <time>2018-05-19T07:07:40.870Z</time>
      </trkpt>
      <trkpt lat="43.28563333" lon="-4.30470833">
        <ele>311.0</ele>
        <time>2018-05-19T07:07:41.874Z</time>
      </trkpt>
      <trkpt lat="43.28563333" lon="-4.30470833">
        <ele>311.0</ele>
        <time>2018-05-19T07:07:42.872Z</time>
      </trkpt>
      <trkpt lat="43.28567833" lon="-4.30474333">
        <ele>312.0</ele>
        <time>2018-05-19T07:07:43.876Z</time>
      </trkpt>
      <trkpt lat="43.28567833" lon="-4.30474333">
        <ele>312.0</ele>
        <time>2018-05-19T07:07:44.868Z</time>
      </trkpt>
      <trkpt lat="43.28572333" lon="-4.30476833">
        <ele>312.0</ele>
        <time>2018-05-19T07:07:45.882Z</time>
      </trkpt>
      <trkpt lat="43.28572333" lon="-4.30476833">
        <ele>312.0</ele>
        <time>2018-05-19T07:07:46.872Z</time>
      </trkpt>
      <trkpt lat="43.28577167" lon="-4.30479833">
        <ele>312.0</ele>
        <time>2018-05-19T07:07:47.875Z</time>
      </trkpt>
      <trkpt lat="43.285795" lon="-4.30481333">
        <ele>312.0</ele>
        <time>2018-05-19T07:07:48.872Z</time>
      </trkpt>
      <trkpt lat="43.285795" lon="-4.30481333">
        <ele>312.0</ele>
        <time>2018-05-19T07:07:49.867Z</time>
      </trkpt>
      <trkpt lat="43.28584667" lon="-4.30484">
        <ele>312.0</ele>
        <time>2018-05-19T07:07:50.857Z</time>
      </trkpt>
      <trkpt lat="43.28584667" lon="-4.30484">
        <ele>312.0</ele>
        <time>2018-05-19T07:07:51.882Z</time>
      </trkpt>
      <trkpt lat="43.28589833" lon="-4.30486">
        <ele>313.0</ele>
        <time>2018-05-19T07:07:52.873Z</time>
      </trkpt>
      <trkpt lat="43.28589833" lon="-4.30486">
        <ele>313.0</ele>
        <time>2018-05-19T07:07:53.871Z</time>
      </trkpt>
      <trkpt lat="43.285945" lon="-4.30488833">
        <ele>314.0</ele>
        <time>2018-05-19T07:07:54.874Z</time>
      </trkpt>
      <trkpt lat="43.28597" lon="-4.30490167">
        <ele>314.0</ele>
        <time>2018-05-19T07:07:55.875Z</time>
      </trkpt>
      <trkpt lat="43.28599333" lon="-4.30491667">
        <ele>314.0</ele>
        <time>2018-05-19T07:07:56.874Z</time>
      </trkpt>
      <trkpt lat="43.28601833" lon="-4.30493167">
        <ele>315.0</ele>
        <time>2018-05-19T07:07:57.872Z</time>
      </trkpt>
      <trkpt lat="43.28601833" lon="-4.30493167">
        <ele>315.0</ele>
        <time>2018-05-19T07:07:58.867Z</time>
      </trkpt>
      <trkpt lat="43.28607" lon="-4.30495667">
        <ele>315.0</ele>
        <time>2018-05-19T07:07:59.874Z</time>
      </trkpt>
      <trkpt lat="43.28607" lon="-4.30495667">
        <ele>315.0</ele>
        <time>2018-05-19T07:08:00.873Z</time>
      </trkpt>
      <trkpt lat="43.28611667" lon="-4.30497833">
        <ele>316.0</ele>
        <time>2018-05-19T07:08:01.875Z</time>
      </trkpt>
      <trkpt lat="43.28611667" lon="-4.30497833">
        <ele>316.0</ele>
        <time>2018-05-19T07:08:02.869Z</time>
      </trkpt>
      <trkpt lat="43.286165" lon="-4.30499667">
        <ele>316.0</ele>
        <time>2018-05-19T07:08:03.874Z</time>
      </trkpt>
      <trkpt lat="43.286165" lon="-4.30499667">
        <ele>316.0</ele>
        <time>2018-05-19T07:08:04.871Z</time>
      </trkpt>
      <trkpt lat="43.28621333" lon="-4.30503">
        <ele>316.0</ele>
        <time>2018-05-19T07:08:05.873Z</time>
      </trkpt>
      <trkpt lat="43.28623667" lon="-4.30504667">
        <ele>317.0</ele>
        <time>2018-05-19T07:08:06.873Z</time>
      </trkpt>
      <trkpt lat="43.28625667" lon="-4.30505833">
        <ele>317.0</ele>
        <time>2018-05-19T07:08:07.876Z</time>
      </trkpt>
      <trkpt lat="43.28625667" lon="-4.30505833">
        <ele>317.0</ele>
        <time>2018-05-19T07:08:08.857Z</time>
      </trkpt>
      <trkpt lat="43.2863" lon="-4.30507167">
        <ele>318.0</ele>
        <time>2018-05-19T07:08:09.846Z</time>
      </trkpt>
      <trkpt lat="43.2863" lon="-4.30507167">
        <ele>318.0</ele>
        <time>2018-05-19T07:08:10.857Z</time>
      </trkpt>
      <trkpt lat="43.28633667" lon="-4.30508167">
        <ele>318.0</ele>
        <time>2018-05-19T07:08:11.883Z</time>
      </trkpt>
      <trkpt lat="43.28635333" lon="-4.30508833">
        <ele>319.0</ele>
        <time>2018-05-19T07:08:12.874Z</time>
      </trkpt>
      <trkpt lat="43.28635333" lon="-4.30508833">
        <ele>319.0</ele>
        <time>2018-05-19T07:08:13.873Z</time>
      </trkpt>
      <trkpt lat="43.28639333" lon="-4.30510167">
        <ele>319.0</ele>
        <time>2018-05-19T07:08:14.874Z</time>
      </trkpt>
      <trkpt lat="43.28639333" lon="-4.30510167">
        <ele>319.0</ele>
        <time>2018-05-19T07:08:15.872Z</time>
      </trkpt>
      <trkpt lat="43.28643833" lon="-4.305125">
        <ele>319.0</ele>
        <time>2018-05-19T07:08:16.872Z</time>
      </trkpt>
      <trkpt lat="43.28643833" lon="-4.305125">
        <ele>319.0</ele>
        <time>2018-05-19T07:08:17.870Z</time>
      </trkpt>
      <trkpt lat="43.28648" lon="-4.305155">
        <ele>319.0</ele>
        <time>2018-05-19T07:08:18.874Z</time>
      </trkpt>
      <trkpt lat="43.28649833" lon="-4.30516333">
        <ele>320.0</ele>
        <time>2018-05-19T07:08:19.874Z</time>
      </trkpt>
      <trkpt lat="43.286515" lon="-4.30517333">
        <ele>320.0</ele>
        <time>2018-05-19T07:08:20.874Z</time>
      </trkpt>
      <trkpt lat="43.28653333" lon="-4.30517333">
        <ele>320.0</ele>
        <time>2018-05-19T07:08:21.874Z</time>
      </trkpt>
      <trkpt lat="43.28653333" lon="-4.30517333">
        <ele>320.0</ele>
        <time>2018-05-19T07:08:22.872Z</time>
      </trkpt>
      <trkpt lat="43.286555" lon="-4.30517333">
        <ele>320.0</ele>
        <time>2018-05-19T07:08:23.874Z</time>
      </trkpt>
      <trkpt lat="43.286555" lon="-4.30517333">
        <ele>320.0</ele>
        <time>2018-05-19T07:08:24.869Z</time>
      </trkpt>
      <trkpt lat="43.28655667" lon="-4.30517333">
        <ele>320.0</ele>
        <time>2018-05-19T07:08:25.873Z</time>
      </trkpt>
      <trkpt lat="43.286555" lon="-4.305175">
        <ele>320.0</ele>
        <time>2018-05-19T07:08:26.874Z</time>
      </trkpt>
      <trkpt lat="43.286555" lon="-4.305175">
        <ele>320.0</ele>
        <time>2018-05-19T07:08:27.863Z</time>
      </trkpt>
      <trkpt lat="43.286535" lon="-4.30524833">
        <ele>318.0</ele>
        <time>2018-05-19T07:08:28.860Z</time>
      </trkpt>
      <trkpt lat="43.286535" lon="-4.30524833">
        <ele>318.0</ele>
        <time>2018-05-19T07:08:29.855Z</time>
      </trkpt>
      <trkpt lat="43.28654167" lon="-4.30528167">
        <ele>318.0</ele>
        <time>2018-05-19T07:08:30.858Z</time>
      </trkpt>
      <trkpt lat="43.28654167" lon="-4.30528167">
        <ele>318.0</ele>
        <time>2018-05-19T07:08:31.855Z</time>
      </trkpt>
      <trkpt lat="43.28655" lon="-4.30532167">
        <ele>318.0</ele>
        <time>2018-05-19T07:08:32.857Z</time>
      </trkpt>
      <trkpt lat="43.28655333" lon="-4.30534667">
        <ele>317.0</ele>
        <time>2018-05-19T07:08:33.858Z</time>
      </trkpt>
      <trkpt lat="43.28656" lon="-4.30537333">
        <ele>317.0</ele>
        <time>2018-05-19T07:08:34.857Z</time>
      </trkpt>
      <trkpt lat="43.28656" lon="-4.30537333">
        <ele>317.0</ele>
        <time>2018-05-19T07:08:35.855Z</time>
      </trkpt>
      <trkpt lat="43.28657833" lon="-4.305435">
        <ele>317.0</ele>
        <time>2018-05-19T07:08:36.858Z</time>
      </trkpt>
      <trkpt lat="43.28657833" lon="-4.305435">
        <ele>317.0</ele>
        <time>2018-05-19T07:08:37.859Z</time>
      </trkpt>
      <trkpt lat="43.28658667" lon="-4.30551">
        <ele>317.0</ele>
        <time>2018-05-19T07:08:38.857Z</time>
      </trkpt>
      <trkpt lat="43.28658667" lon="-4.30551">
        <ele>317.0</ele>
        <time>2018-05-19T07:08:39.855Z</time>
      </trkpt>
      <trkpt lat="43.28660167" lon="-4.305595">
        <ele>316.0</ele>
        <time>2018-05-19T07:08:40.858Z</time>
      </trkpt>
      <trkpt lat="43.28660167" lon="-4.305595">
        <ele>316.0</ele>
        <time>2018-05-19T07:08:41.855Z</time>
      </trkpt>
      <trkpt lat="43.28662167" lon="-4.305685">
        <ele>316.0</ele>
        <time>2018-05-19T07:08:42.858Z</time>
      </trkpt>
      <trkpt lat="43.28662167" lon="-4.305685">
        <ele>316.0</ele>
        <time>2018-05-19T07:08:43.852Z</time>
      </trkpt>
      <trkpt lat="43.28664333" lon="-4.30578167">
        <ele>316.0</ele>
        <time>2018-05-19T07:08:44.858Z</time>
      </trkpt>
      <trkpt lat="43.28664333" lon="-4.30578167">
        <ele>316.0</ele>
        <time>2018-05-19T07:08:45.882Z</time>
      </trkpt>
      <trkpt lat="43.28668" lon="-4.305885">
        <ele>316.0</ele>
        <time>2018-05-19T07:08:46.860Z</time>
      </trkpt>
      <trkpt lat="43.28668" lon="-4.305885">
        <ele>316.0</ele>
        <time>2018-05-19T07:08:47.859Z</time>
      </trkpt>
      <trkpt lat="43.286735" lon="-4.305975">
        <ele>316.0</ele>
        <time>2018-05-19T07:08:48.870Z</time>
      </trkpt>
      <trkpt lat="43.286735" lon="-4.305975">
        <ele>316.0</ele>
        <time>2018-05-19T07:08:49.856Z</time>
      </trkpt>
      <trkpt lat="43.286795" lon="-4.30606167">
        <ele>316.0</ele>
        <time>2018-05-19T07:08:50.865Z</time>
      </trkpt>
      <trkpt lat="43.28682667" lon="-4.306105">
        <ele>316.0</ele>
        <time>2018-05-19T07:08:51.859Z</time>
      </trkpt>
      <trkpt lat="43.28682667" lon="-4.306105">
        <ele>316.0</ele>
        <time>2018-05-19T07:08:52.856Z</time>
      </trkpt>
      <trkpt lat="43.286895" lon="-4.30621333">
        <ele>315.0</ele>
        <time>2018-05-19T07:08:53.858Z</time>
      </trkpt>
      <trkpt lat="43.28693167" lon="-4.30627">
        <ele>315.0</ele>
        <time>2018-05-19T07:08:54.859Z</time>
      </trkpt>
      <trkpt lat="43.28693167" lon="-4.30627">
        <ele>315.0</ele>
        <time>2018-05-19T07:08:55.853Z</time>
      </trkpt>
      <trkpt lat="43.28700333" lon="-4.3064">
        <ele>315.0</ele>
        <time>2018-05-19T07:08:56.857Z</time>
      </trkpt>
      <trkpt lat="43.28700333" lon="-4.3064">
        <ele>315.0</ele>
        <time>2018-05-19T07:08:57.864Z</time>
      </trkpt>
      <trkpt lat="43.28707167" lon="-4.30654167">
        <ele>315.0</ele>
        <time>2018-05-19T07:08:58.859Z</time>
      </trkpt>
      <trkpt lat="43.287105" lon="-4.30661167">
        <ele>315.0</ele>
        <time>2018-05-19T07:08:59.858Z</time>
      </trkpt>
      <trkpt lat="43.28713667" lon="-4.30668167">
        <ele>315.0</ele>
        <time>2018-05-19T07:09:00.858Z</time>
      </trkpt>
      <trkpt lat="43.28713667" lon="-4.30668167">
        <ele>315.0</ele>
        <time>2018-05-19T07:09:01.854Z</time>
      </trkpt>
      <trkpt lat="43.28719333" lon="-4.30681167">
        <ele>315.0</ele>
        <time>2018-05-19T07:09:02.858Z</time>
      </trkpt>
      <trkpt lat="43.28719333" lon="-4.30681167">
        <ele>315.0</ele>
        <time>2018-05-19T07:09:03.855Z</time>
      </trkpt>
      <trkpt lat="43.28726333" lon="-4.30692667">
        <ele>315.0</ele>
        <time>2018-05-19T07:09:04.858Z</time>
      </trkpt>
      <trkpt lat="43.28726333" lon="-4.30692667">
        <ele>315.0</ele>
        <time>2018-05-19T07:09:05.854Z</time>
      </trkpt>
      <trkpt lat="43.28734" lon="-4.30702167">
        <ele>315.0</ele>
        <time>2018-05-19T07:09:06.858Z</time>
      </trkpt>
      <trkpt lat="43.28734" lon="-4.30702167">
        <ele>315.0</ele>
        <time>2018-05-19T07:09:07.859Z</time>
      </trkpt>
      <trkpt lat="43.28742" lon="-4.307105">
        <ele>314.0</ele>
        <time>2018-05-19T07:09:08.857Z</time>
      </trkpt>
      <trkpt lat="43.28746" lon="-4.30715833">
        <ele>313.0</ele>
        <time>2018-05-19T07:09:09.847Z</time>
      </trkpt>
      <trkpt lat="43.28746" lon="-4.30715833">
        <ele>313.0</ele>
        <time>2018-05-19T07:09:10.873Z</time>
      </trkpt>
      <trkpt lat="43.28755667" lon="-4.30729167">
        <ele>311.0</ele>
        <time>2018-05-19T07:09:11.858Z</time>
      </trkpt>
      <trkpt lat="43.28762" lon="-4.30737333">
        <ele>310.0</ele>
        <time>2018-05-19T07:09:12.858Z</time>
      </trkpt>
      <trkpt lat="43.28762" lon="-4.30737333">
        <ele>310.0</ele>
        <time>2018-05-19T07:09:13.857Z</time>
      </trkpt>
      <trkpt lat="43.28775333" lon="-4.30757833">
        <ele>308.0</ele>
        <time>2018-05-19T07:09:14.858Z</time>
      </trkpt>
      <trkpt lat="43.28775333" lon="-4.30757833">
        <ele>308.0</ele>
        <time>2018-05-19T07:09:15.854Z</time>
      </trkpt>
      <trkpt lat="43.28784167" lon="-4.30784833">
        <ele>307.0</ele>
        <time>2018-05-19T07:09:16.860Z</time>
      </trkpt>
      <trkpt lat="43.28784167" lon="-4.30784833">
        <ele>307.0</ele>
        <time>2018-05-19T07:09:17.858Z</time>
      </trkpt>
      <trkpt lat="43.28791833" lon="-4.30812333">
        <ele>307.0</ele>
        <time>2018-05-19T07:09:18.868Z</time>
      </trkpt>
      <trkpt lat="43.28791833" lon="-4.30812333">
        <ele>307.0</ele>
        <time>2018-05-19T07:09:19.855Z</time>
      </trkpt>
      <trkpt lat="43.28803" lon="-4.30837">
        <ele>306.0</ele>
        <time>2018-05-19T07:09:20.857Z</time>
      </trkpt>
      <trkpt lat="43.28810167" lon="-4.30849">
        <ele>306.0</ele>
        <time>2018-05-19T07:09:21.857Z</time>
      </trkpt>
      <trkpt lat="43.28810167" lon="-4.30849">
        <ele>306.0</ele>
        <time>2018-05-19T07:09:22.853Z</time>
      </trkpt>
      <trkpt lat="43.28824" lon="-4.30870833">
        <ele>305.0</ele>
        <time>2018-05-19T07:09:23.858Z</time>
      </trkpt>
      <trkpt lat="43.28830833" lon="-4.3088">
        <ele>305.0</ele>
        <time>2018-05-19T07:09:24.859Z</time>
      </trkpt>
      <trkpt lat="43.28830833" lon="-4.3088">
        <ele>305.0</ele>
        <time>2018-05-19T07:09:25.855Z</time>
      </trkpt>
      <trkpt lat="43.28842833" lon="-4.30896333">
        <ele>304.0</ele>
        <time>2018-05-19T07:09:26.855Z</time>
      </trkpt>
      <trkpt lat="43.28842833" lon="-4.30896333">
        <ele>304.0</ele>
        <time>2018-05-19T07:09:27.852Z</time>
      </trkpt>
      <trkpt lat="43.28856" lon="-4.30906833">
        <ele>303.0</ele>
        <time>2018-05-19T07:09:28.858Z</time>
      </trkpt>
      <trkpt lat="43.28856" lon="-4.30906833">
        <ele>303.0</ele>
        <time>2018-05-19T07:09:29.855Z</time>
      </trkpt>
      <trkpt lat="43.28865833" lon="-4.30918">
        <ele>300.0</ele>
        <time>2018-05-19T07:09:30.858Z</time>
      </trkpt>
      <trkpt lat="43.28865833" lon="-4.30918">
        <ele>300.0</ele>
        <time>2018-05-19T07:09:31.852Z</time>
      </trkpt>
      <trkpt lat="43.28867" lon="-4.30931333">
        <ele>299.0</ele>
        <time>2018-05-19T07:09:32.858Z</time>
      </trkpt>
      <trkpt lat="43.28867" lon="-4.30931333">
        <ele>299.0</ele>
        <time>2018-05-19T07:09:33.855Z</time>
      </trkpt>
      <trkpt lat="43.28859167" lon="-4.30938833">
        <ele>297.0</ele>
        <time>2018-05-19T07:09:34.874Z</time>
      </trkpt>
      <trkpt lat="43.28852667" lon="-4.30939">
        <ele>296.0</ele>
        <time>2018-05-19T07:09:35.860Z</time>
      </trkpt>
      <trkpt lat="43.288445" lon="-4.30938167">
        <ele>296.0</ele>
        <time>2018-05-19T07:09:36.855Z</time>
      </trkpt>
      <trkpt lat="43.288445" lon="-4.30938167">
        <ele>296.0</ele>
        <time>2018-05-19T07:09:37.853Z</time>
      </trkpt>
      <trkpt lat="43.28827" lon="-4.309365">
        <ele>294.0</ele>
        <time>2018-05-19T07:09:38.858Z</time>
      </trkpt>
      <trkpt lat="43.28827" lon="-4.309365">
        <ele>294.0</ele>
        <time>2018-05-19T07:09:39.860Z</time>
      </trkpt>
      <trkpt lat="43.288115" lon="-4.30934833">
        <ele>292.0</ele>
        <time>2018-05-19T07:09:40.858Z</time>
      </trkpt>
      <trkpt lat="43.288115" lon="-4.30934833">
        <ele>292.0</ele>
        <time>2018-05-19T07:09:41.852Z</time>
      </trkpt>
      <trkpt lat="43.28797667" lon="-4.30933167">
        <ele>289.0</ele>
        <time>2018-05-19T07:09:42.858Z</time>
      </trkpt>
      <trkpt lat="43.28797667" lon="-4.30933167">
        <ele>289.0</ele>
        <time>2018-05-19T07:09:43.854Z</time>
      </trkpt>
      <trkpt lat="43.28782833" lon="-4.309345">
        <ele>287.0</ele>
        <time>2018-05-19T07:09:44.858Z</time>
      </trkpt>
      <trkpt lat="43.28782833" lon="-4.309345">
        <ele>287.0</ele>
        <time>2018-05-19T07:09:45.865Z</time>
      </trkpt>
      <trkpt lat="43.28769" lon="-4.30934333">
        <ele>285.0</ele>
        <time>2018-05-19T07:09:46.869Z</time>
      </trkpt>
      <trkpt lat="43.28769" lon="-4.30934333">
        <ele>285.0</ele>
        <time>2018-05-19T07:09:47.861Z</time>
      </trkpt>
      <trkpt lat="43.28755" lon="-4.30934833">
        <ele>282.0</ele>
        <time>2018-05-19T07:09:48.860Z</time>
      </trkpt>
      <trkpt lat="43.28755" lon="-4.30934833">
        <ele>282.0</ele>
        <time>2018-05-19T07:09:49.855Z</time>
      </trkpt>
      <trkpt lat="43.28740667" lon="-4.30940833">
        <ele>280.0</ele>
        <time>2018-05-19T07:09:50.855Z</time>
      </trkpt>
      <trkpt lat="43.28740667" lon="-4.30940833">
        <ele>280.0</ele>
        <time>2018-05-19T07:09:51.853Z</time>
      </trkpt>
      <trkpt lat="43.28729" lon="-4.30949333">
        <ele>277.0</ele>
        <time>2018-05-19T07:09:52.859Z</time>
      </trkpt>
      <trkpt lat="43.28729" lon="-4.30949333">
        <ele>277.0</ele>
        <time>2018-05-19T07:09:53.855Z</time>
      </trkpt>
      <trkpt lat="43.28724667" lon="-4.30963333">
        <ele>276.0</ele>
        <time>2018-05-19T07:09:54.857Z</time>
      </trkpt>
      <trkpt lat="43.28724667" lon="-4.30963333">
        <ele>276.0</ele>
        <time>2018-05-19T07:09:55.852Z</time>
      </trkpt>
      <trkpt lat="43.28723833" lon="-4.30976667">
        <ele>274.0</ele>
        <time>2018-05-19T07:09:56.857Z</time>
      </trkpt>
      <trkpt lat="43.28724833" lon="-4.30980667">
        <ele>273.0</ele>
        <time>2018-05-19T07:09:57.858Z</time>
      </trkpt>
      <trkpt lat="43.28724833" lon="-4.30980667">
        <ele>273.0</ele>
        <time>2018-05-19T07:09:58.850Z</time>
      </trkpt>
      <trkpt lat="43.28732667" lon="-4.30988333">
        <ele>271.0</ele>
        <time>2018-05-19T07:09:59.857Z</time>
      </trkpt>
      <trkpt lat="43.28736667" lon="-4.30992333">
        <ele>270.0</ele>
        <time>2018-05-19T07:10:00.858Z</time>
      </trkpt>
      <trkpt lat="43.28736667" lon="-4.30992333">
        <ele>270.0</ele>
        <time>2018-05-19T07:10:01.854Z</time>
      </trkpt>
      <trkpt lat="43.28748" lon="-4.30995667">
        <ele>269.0</ele>
        <time>2018-05-19T07:10:02.858Z</time>
      </trkpt>
      <trkpt lat="43.28754333" lon="-4.30996167">
        <ele>268.0</ele>
        <time>2018-05-19T07:10:03.855Z</time>
      </trkpt>
      <trkpt lat="43.28754333" lon="-4.30996167">
        <ele>268.0</ele>
        <time>2018-05-19T07:10:04.854Z</time>
      </trkpt>
      <trkpt lat="43.287675" lon="-4.30993">
        <ele>267.0</ele>
        <time>2018-05-19T07:10:05.857Z</time>
      </trkpt>
      <trkpt lat="43.28774" lon="-4.309915">
        <ele>266.0</ele>
        <time>2018-05-19T07:10:06.858Z</time>
      </trkpt>
      <trkpt lat="43.28774" lon="-4.309915">
        <ele>266.0</ele>
        <time>2018-05-19T07:10:07.856Z</time>
      </trkpt>
      <trkpt lat="43.28788167" lon="-4.30993333">
        <ele>264.0</ele>
        <time>2018-05-19T07:10:08.850Z</time>
      </trkpt>
      <trkpt lat="43.28796667" lon="-4.30996167">
        <ele>263.0</ele>
        <time>2018-05-19T07:10:09.864Z</time>
      </trkpt>
      <trkpt lat="43.28804667" lon="-4.30999167">
        <ele>262.0</ele>
        <time>2018-05-19T07:10:10.858Z</time>
      </trkpt>
      <trkpt lat="43.28804667" lon="-4.30999167">
        <ele>262.0</ele>
        <time>2018-05-19T07:10:11.855Z</time>
      </trkpt>
      <trkpt lat="43.28818833" lon="-4.310085">
        <ele>260.0</ele>
        <time>2018-05-19T07:10:12.855Z</time>
      </trkpt>
      <trkpt lat="43.28818833" lon="-4.310085">
        <ele>260.0</ele>
        <time>2018-05-19T07:10:13.864Z</time>
      </trkpt>
      <trkpt lat="43.28832333" lon="-4.31026167">
        <ele>259.0</ele>
        <time>2018-05-19T07:10:14.858Z</time>
      </trkpt>
      <trkpt lat="43.28838667" lon="-4.31036167">
        <ele>258.0</ele>
        <time>2018-05-19T07:10:15.858Z</time>
      </trkpt>
      <trkpt lat="43.28838667" lon="-4.31036167">
        <ele>258.0</ele>
        <time>2018-05-19T07:10:16.856Z</time>
      </trkpt>
      <trkpt lat="43.288535" lon="-4.31053">
        <ele>257.0</ele>
        <time>2018-05-19T07:10:17.854Z</time>
      </trkpt>
      <trkpt lat="43.28862333" lon="-4.310605">
        <ele>256.0</ele>
        <time>2018-05-19T07:10:18.859Z</time>
      </trkpt>
      <trkpt lat="43.28862333" lon="-4.310605">
        <ele>256.0</ele>
        <time>2018-05-19T07:10:19.853Z</time>
      </trkpt>
      <trkpt lat="43.28881167" lon="-4.31074833">
        <ele>254.0</ele>
        <time>2018-05-19T07:10:20.857Z</time>
      </trkpt>
      <trkpt lat="43.28881167" lon="-4.31074833">
        <ele>254.0</ele>
        <time>2018-05-19T07:10:21.855Z</time>
      </trkpt>
      <trkpt lat="43.28903167" lon="-4.31073667">
        <ele>252.0</ele>
        <time>2018-05-19T07:10:22.858Z</time>
      </trkpt>
      <trkpt lat="43.28903167" lon="-4.31073667">
        <ele>252.0</ele>
        <time>2018-05-19T07:10:23.855Z</time>
      </trkpt>
      <trkpt lat="43.28925167" lon="-4.31063833">
        <ele>249.0</ele>
        <time>2018-05-19T07:10:24.858Z</time>
      </trkpt>
      <trkpt lat="43.28925167" lon="-4.31063833">
        <ele>249.0</ele>
        <time>2018-05-19T07:10:25.855Z</time>
      </trkpt>
      <trkpt lat="43.28945167" lon="-4.31062667">
        <ele>248.0</ele>
        <time>2018-05-19T07:10:26.857Z</time>
      </trkpt>
      <trkpt lat="43.28945167" lon="-4.31062667">
        <ele>248.0</ele>
        <time>2018-05-19T07:10:27.852Z</time>
      </trkpt>
      <trkpt lat="43.28961333" lon="-4.31066167">
        <ele>247.0</ele>
        <time>2018-05-19T07:10:28.860Z</time>
      </trkpt>
      <trkpt lat="43.28961333" lon="-4.31066167">
        <ele>247.0</ele>
        <time>2018-05-19T07:10:29.855Z</time>
      </trkpt>
      <trkpt lat="43.28971167" lon="-4.31083667">
        <ele>245.0</ele>
        <time>2018-05-19T07:10:30.857Z</time>
      </trkpt>
      <trkpt lat="43.28971167" lon="-4.31083667">
        <ele>245.0</ele>
        <time>2018-05-19T07:10:31.853Z</time>
      </trkpt>
      <trkpt lat="43.28981833" lon="-4.311015">
        <ele>244.0</ele>
        <time>2018-05-19T07:10:32.857Z</time>
      </trkpt>
      <trkpt lat="43.28981833" lon="-4.311015">
        <ele>244.0</ele>
        <time>2018-05-19T07:10:33.870Z</time>
      </trkpt>
      <trkpt lat="43.28994167" lon="-4.31108167">
        <ele>244.0</ele>
        <time>2018-05-19T07:10:34.860Z</time>
      </trkpt>
      <trkpt lat="43.28999" lon="-4.31111">
        <ele>243.0</ele>
        <time>2018-05-19T07:10:35.858Z</time>
      </trkpt>
      <trkpt lat="43.29005333" lon="-4.31115">
        <ele>242.0</ele>
        <time>2018-05-19T07:10:36.857Z</time>
      </trkpt>
      <trkpt lat="43.29005333" lon="-4.31115">
        <ele>242.0</ele>
        <time>2018-05-19T07:10:37.857Z</time>
      </trkpt>
      <trkpt lat="43.290165" lon="-4.311315">
        <ele>241.0</ele>
        <time>2018-05-19T07:10:38.867Z</time>
      </trkpt>
      <trkpt lat="43.290165" lon="-4.311315">
        <ele>241.0</ele>
        <time>2018-05-19T07:10:39.856Z</time>
      </trkpt>
      <trkpt lat="43.290305" lon="-4.31147667">
        <ele>239.0</ele>
        <time>2018-05-19T07:10:40.859Z</time>
      </trkpt>
      <trkpt lat="43.29038" lon="-4.31151167">
        <ele>238.0</ele>
        <time>2018-05-19T07:10:41.858Z</time>
      </trkpt>
      <trkpt lat="43.29038" lon="-4.31151167">
        <ele>238.0</ele>
        <time>2018-05-19T07:10:42.855Z</time>
      </trkpt>
      <trkpt lat="43.29052" lon="-4.311585">
        <ele>238.0</ele>
        <time>2018-05-19T07:10:43.857Z</time>
      </trkpt>
      <trkpt lat="43.29052" lon="-4.311585">
        <ele>238.0</ele>
        <time>2018-05-19T07:10:44.855Z</time>
      </trkpt>
      <trkpt lat="43.29064667" lon="-4.31170833">
        <ele>239.0</ele>
        <time>2018-05-19T07:10:45.867Z</time>
      </trkpt>
      <trkpt lat="43.29064667" lon="-4.31170833">
        <ele>239.0</ele>
        <time>2018-05-19T07:10:46.856Z</time>
      </trkpt>
      <trkpt lat="43.29074333" lon="-4.31184833">
        <ele>239.0</ele>
        <time>2018-05-19T07:10:47.856Z</time>
      </trkpt>
      <trkpt lat="43.290785" lon="-4.31192667">
        <ele>239.0</ele>
        <time>2018-05-19T07:10:48.876Z</time>
      </trkpt>
      <trkpt lat="43.290785" lon="-4.31192667">
        <ele>239.0</ele>
        <time>2018-05-19T07:10:49.859Z</time>
      </trkpt>
      <trkpt lat="43.29084167" lon="-4.31210833">
        <ele>238.0</ele>
        <time>2018-05-19T07:10:50.858Z</time>
      </trkpt>
      <trkpt lat="43.29086167" lon="-4.31221333">
        <ele>237.0</ele>
        <time>2018-05-19T07:10:51.858Z</time>
      </trkpt>
      <trkpt lat="43.29086167" lon="-4.31221333">
        <ele>237.0</ele>
        <time>2018-05-19T07:10:52.855Z</time>
      </trkpt>
      <trkpt lat="43.290895" lon="-4.31244">
        <ele>235.0</ele>
        <time>2018-05-19T07:10:53.857Z</time>
      </trkpt>
      <trkpt lat="43.290895" lon="-4.31244">
        <ele>235.0</ele>
        <time>2018-05-19T07:10:54.852Z</time>
      </trkpt>
      <trkpt lat="43.29095333" lon="-4.31266833">
        <ele>234.0</ele>
        <time>2018-05-19T07:10:55.857Z</time>
      </trkpt>
      <trkpt lat="43.29095333" lon="-4.31266833">
        <ele>234.0</ele>
        <time>2018-05-19T07:10:56.855Z</time>
      </trkpt>
      <trkpt lat="43.29101833" lon="-4.31289833">
        <ele>234.0</ele>
        <time>2018-05-19T07:10:57.854Z</time>
      </trkpt>
      <trkpt lat="43.29104667" lon="-4.31301333">
        <ele>233.0</ele>
        <time>2018-05-19T07:10:58.859Z</time>
      </trkpt>
      <trkpt lat="43.29107167" lon="-4.31313">
        <ele>233.0</ele>
        <time>2018-05-19T07:10:59.857Z</time>
      </trkpt>
      <trkpt lat="43.29107167" lon="-4.31313">
        <ele>233.0</ele>
        <time>2018-05-19T07:11:00.857Z</time>
      </trkpt>
      <trkpt lat="43.29111" lon="-4.31336333">
        <ele>232.0</ele>
        <time>2018-05-19T07:11:01.857Z</time>
      </trkpt>
      <trkpt lat="43.29111" lon="-4.31336333">
        <ele>232.0</ele>
        <time>2018-05-19T07:11:02.855Z</time>
      </trkpt>
      <trkpt lat="43.29112" lon="-4.31358833">
        <ele>232.0</ele>
        <time>2018-05-19T07:11:03.857Z</time>
      </trkpt>
      <trkpt lat="43.29112" lon="-4.31358833">
        <ele>232.0</ele>
        <time>2018-05-19T07:11:04.858Z</time>
      </trkpt>
      <trkpt lat="43.29109833" lon="-4.31379333">
        <ele>232.0</ele>
        <time>2018-05-19T07:11:05.857Z</time>
      </trkpt>
      <trkpt lat="43.29107833" lon="-4.31389333">
        <ele>232.0</ele>
        <time>2018-05-19T07:11:06.855Z</time>
      </trkpt>
      <trkpt lat="43.29107833" lon="-4.31389333">
        <ele>232.0</ele>
        <time>2018-05-19T07:11:07.853Z</time>
      </trkpt>
      <trkpt lat="43.29105667" lon="-4.31409333">
        <ele>231.0</ele>
        <time>2018-05-19T07:11:08.878Z</time>
      </trkpt>
      <trkpt lat="43.29105667" lon="-4.31409333">
        <ele>231.0</ele>
        <time>2018-05-19T07:11:09.855Z</time>
      </trkpt>
      <trkpt lat="43.29110833" lon="-4.31424833">
        <ele>231.0</ele>
        <time>2018-05-19T07:11:10.858Z</time>
      </trkpt>
      <trkpt lat="43.291125" lon="-4.31431333">
        <ele>231.0</ele>
        <time>2018-05-19T07:11:11.858Z</time>
      </trkpt>
      <trkpt lat="43.29115833" lon="-4.31436833">
        <ele>231.0</ele>
        <time>2018-05-19T07:11:12.857Z</time>
      </trkpt>
      <trkpt lat="43.29115833" lon="-4.31436833">
        <ele>231.0</ele>
        <time>2018-05-19T07:11:13.855Z</time>
      </trkpt>
      <trkpt lat="43.29121667" lon="-4.31447167">
        <ele>232.0</ele>
        <time>2018-05-19T07:11:14.857Z</time>
      </trkpt>
      <trkpt lat="43.29121667" lon="-4.31447167">
        <ele>232.0</ele>
        <time>2018-05-19T07:11:15.855Z</time>
      </trkpt>
      <trkpt lat="43.29124167" lon="-4.31459667">
        <ele>232.0</ele>
        <time>2018-05-19T07:11:16.857Z</time>
      </trkpt>
      <trkpt lat="43.29124167" lon="-4.31459667">
        <ele>232.0</ele>
        <time>2018-05-19T07:11:17.855Z</time>
      </trkpt>
      <trkpt lat="43.29124333" lon="-4.31473333">
        <ele>233.0</ele>
        <time>2018-05-19T07:11:18.858Z</time>
      </trkpt>
      <trkpt lat="43.29124333" lon="-4.31473333">
        <ele>233.0</ele>
        <time>2018-05-19T07:11:19.856Z</time>
      </trkpt>
      <trkpt lat="43.29124" lon="-4.31486333">
        <ele>234.0</ele>
        <time>2018-05-19T07:11:20.856Z</time>
      </trkpt>
      <trkpt lat="43.29124" lon="-4.31486333">
        <ele>234.0</ele>
        <time>2018-05-19T07:11:21.853Z</time>
      </trkpt>
      <trkpt lat="43.29121833" lon="-4.31499667">
        <ele>235.0</ele>
        <time>2018-05-19T07:11:22.859Z</time>
      </trkpt>
      <trkpt lat="43.29121667" lon="-4.31506833">
        <ele>235.0</ele>
        <time>2018-05-19T07:11:23.858Z</time>
      </trkpt>
      <trkpt lat="43.29121833" lon="-4.31514667">
        <ele>235.0</ele>
        <time>2018-05-19T07:11:24.871Z</time>
      </trkpt>
      <trkpt lat="43.29121833" lon="-4.31514667">
        <ele>235.0</ele>
        <time>2018-05-19T07:11:25.856Z</time>
      </trkpt>
      <trkpt lat="43.29123667" lon="-4.315325">
        <ele>234.0</ele>
        <time>2018-05-19T07:11:26.857Z</time>
      </trkpt>
      <trkpt lat="43.29125667" lon="-4.31542167">
        <ele>234.0</ele>
        <time>2018-05-19T07:11:27.857Z</time>
      </trkpt>
      <trkpt lat="43.29125667" lon="-4.31542167">
        <ele>234.0</ele>
        <time>2018-05-19T07:11:28.855Z</time>
      </trkpt>
      <trkpt lat="43.29131667" lon="-4.315645">
        <ele>234.0</ele>
        <time>2018-05-19T07:11:29.858Z</time>
      </trkpt>
      <trkpt lat="43.29134833" lon="-4.31576">
        <ele>233.0</ele>
        <time>2018-05-19T07:11:30.857Z</time>
      </trkpt>
      <trkpt lat="43.29134833" lon="-4.31576">
        <ele>233.0</ele>
        <time>2018-05-19T07:11:31.854Z</time>
      </trkpt>
      <trkpt lat="43.29138167" lon="-4.31600667">
        <ele>233.0</ele>
        <time>2018-05-19T07:11:32.871Z</time>
      </trkpt>
      <trkpt lat="43.29138167" lon="-4.31600667">
        <ele>233.0</ele>
        <time>2018-05-19T07:11:33.859Z</time>
      </trkpt>
      <trkpt lat="43.29141167" lon="-4.31626">
        <ele>232.0</ele>
        <time>2018-05-19T07:11:34.857Z</time>
      </trkpt>
      <trkpt lat="43.29144167" lon="-4.31638">
        <ele>232.0</ele>
        <time>2018-05-19T07:11:35.858Z</time>
      </trkpt>
      <trkpt lat="43.29148667" lon="-4.31649">
        <ele>232.0</ele>
        <time>2018-05-19T07:11:36.858Z</time>
      </trkpt>
      <trkpt lat="43.29148667" lon="-4.31649">
        <ele>232.0</ele>
        <time>2018-05-19T07:11:37.849Z</time>
      </trkpt>
      <trkpt lat="43.29157333" lon="-4.31670667">
        <ele>232.0</ele>
        <time>2018-05-19T07:11:38.875Z</time>
      </trkpt>
      <trkpt lat="43.29157333" lon="-4.31670667">
        <ele>232.0</ele>
        <time>2018-05-19T07:11:39.855Z</time>
      </trkpt>
      <trkpt lat="43.29162333" lon="-4.316945">
        <ele>231.0</ele>
        <time>2018-05-19T07:11:40.858Z</time>
      </trkpt>
      <trkpt lat="43.29162333" lon="-4.316945">
        <ele>231.0</ele>
        <time>2018-05-19T07:11:41.852Z</time>
      </trkpt>
      <trkpt lat="43.29166" lon="-4.31719167">
        <ele>231.0</ele>
        <time>2018-05-19T07:11:42.857Z</time>
      </trkpt>
      <trkpt lat="43.29166" lon="-4.31719167">
        <ele>231.0</ele>
        <time>2018-05-19T07:11:43.855Z</time>
      </trkpt>
      <trkpt lat="43.29165" lon="-4.31744333">
        <ele>231.0</ele>
        <time>2018-05-19T07:11:44.857Z</time>
      </trkpt>
      <trkpt lat="43.29165" lon="-4.31744333">
        <ele>231.0</ele>
        <time>2018-05-19T07:11:45.866Z</time>
      </trkpt>
      <trkpt lat="43.2916" lon="-4.31768667">
        <ele>230.0</ele>
        <time>2018-05-19T07:11:46.858Z</time>
      </trkpt>
      <trkpt lat="43.2916" lon="-4.31768667">
        <ele>230.0</ele>
        <time>2018-05-19T07:11:47.860Z</time>
      </trkpt>
      <trkpt lat="43.29158" lon="-4.31793667">
        <ele>229.0</ele>
        <time>2018-05-19T07:11:48.858Z</time>
      </trkpt>
      <trkpt lat="43.291585" lon="-4.318065">
        <ele>229.0</ele>
        <time>2018-05-19T07:11:49.858Z</time>
      </trkpt>
      <trkpt lat="43.291585" lon="-4.318065">
        <ele>229.0</ele>
        <time>2018-05-19T07:11:50.855Z</time>
      </trkpt>
      <trkpt lat="43.29162167" lon="-4.31831333">
        <ele>228.0</ele>
        <time>2018-05-19T07:11:51.857Z</time>
      </trkpt>
      <trkpt lat="43.29162667" lon="-4.318435">
        <ele>228.0</ele>
        <time>2018-05-19T07:11:52.855Z</time>
      </trkpt>
      <trkpt lat="43.29162667" lon="-4.318435">
        <ele>228.0</ele>
        <time>2018-05-19T07:11:53.852Z</time>
      </trkpt>
      <trkpt lat="43.29162" lon="-4.31866833">
        <ele>227.0</ele>
        <time>2018-05-19T07:11:54.860Z</time>
      </trkpt>
      <trkpt lat="43.29162" lon="-4.31866833">
        <ele>227.0</ele>
        <time>2018-05-19T07:11:55.855Z</time>
      </trkpt>
      <trkpt lat="43.29157167" lon="-4.318905">
        <ele>227.0</ele>
        <time>2018-05-19T07:11:56.857Z</time>
      </trkpt>
      <trkpt lat="43.29157167" lon="-4.318905">
        <ele>227.0</ele>
        <time>2018-05-19T07:11:57.853Z</time>
      </trkpt>
      <trkpt lat="43.291475" lon="-4.3191">
        <ele>227.0</ele>
        <time>2018-05-19T07:11:58.858Z</time>
      </trkpt>
      <trkpt lat="43.291475" lon="-4.3191">
        <ele>227.0</ele>
        <time>2018-05-19T07:11:59.850Z</time>
      </trkpt>
      <trkpt lat="43.29134667" lon="-4.31923333">
        <ele>226.0</ele>
        <time>2018-05-19T07:12:00.873Z</time>
      </trkpt>
      <trkpt lat="43.29134667" lon="-4.31923333">
        <ele>226.0</ele>
        <time>2018-05-19T07:12:01.858Z</time>
      </trkpt>
      <trkpt lat="43.29116833" lon="-4.31923167">
        <ele>225.0</ele>
        <time>2018-05-19T07:12:02.857Z</time>
      </trkpt>
      <trkpt lat="43.29109333" lon="-4.31925833">
        <ele>225.0</ele>
        <time>2018-05-19T07:12:03.857Z</time>
      </trkpt>
      <trkpt lat="43.291005" lon="-4.31931833">
        <ele>225.0</ele>
        <time>2018-05-19T07:12:04.866Z</time>
      </trkpt>
      <trkpt lat="43.291005" lon="-4.31931833">
        <ele>225.0</ele>
        <time>2018-05-19T07:12:05.855Z</time>
      </trkpt>
      <trkpt lat="43.29088833" lon="-4.31948333">
        <ele>224.0</ele>
        <time>2018-05-19T07:12:06.856Z</time>
      </trkpt>
      <trkpt lat="43.29088833" lon="-4.31948333">
        <ele>224.0</ele>
        <time>2018-05-19T07:12:07.851Z</time>
      </trkpt>
      <trkpt lat="43.290875" lon="-4.31967667">
        <ele>223.0</ele>
        <time>2018-05-19T07:12:08.857Z</time>
      </trkpt>
      <trkpt lat="43.290875" lon="-4.31967667">
        <ele>223.0</ele>
        <time>2018-05-19T07:12:09.863Z</time>
      </trkpt>
      <trkpt lat="43.29089" lon="-4.31984333">
        <ele>223.0</ele>
        <time>2018-05-19T07:12:10.858Z</time>
      </trkpt>
      <trkpt lat="43.29089" lon="-4.31984333">
        <ele>223.0</ele>
        <time>2018-05-19T07:12:11.851Z</time>
      </trkpt>
      <trkpt lat="43.29097833" lon="-4.31994">
        <ele>222.0</ele>
        <time>2018-05-19T07:12:12.858Z</time>
      </trkpt>
      <trkpt lat="43.29097833" lon="-4.31994">
        <ele>222.0</ele>
        <time>2018-05-19T07:12:13.855Z</time>
      </trkpt>
      <trkpt lat="43.29108167" lon="-4.32007333">
        <ele>222.0</ele>
        <time>2018-05-19T07:12:14.858Z</time>
      </trkpt>
      <trkpt lat="43.29108167" lon="-4.32007333">
        <ele>222.0</ele>
        <time>2018-05-19T07:12:15.852Z</time>
      </trkpt>
      <trkpt lat="43.291125" lon="-4.32021833">
        <ele>222.0</ele>
        <time>2018-05-19T07:12:16.858Z</time>
      </trkpt>
      <trkpt lat="43.29112" lon="-4.32028833">
        <ele>222.0</ele>
        <time>2018-05-19T07:12:17.857Z</time>
      </trkpt>
      <trkpt lat="43.291125" lon="-4.320355">
        <ele>222.0</ele>
        <time>2018-05-19T07:12:18.857Z</time>
      </trkpt>
      <trkpt lat="43.291125" lon="-4.320355">
        <ele>222.0</ele>
        <time>2018-05-19T07:12:19.864Z</time>
      </trkpt>
      <trkpt lat="43.29113" lon="-4.32048333">
        <ele>222.0</ele>
        <time>2018-05-19T07:12:20.853Z</time>
      </trkpt>
      <trkpt lat="43.29112667" lon="-4.32054333">
        <ele>222.0</ele>
        <time>2018-05-19T07:12:21.856Z</time>
      </trkpt>
      <trkpt lat="43.291125" lon="-4.3206">
        <ele>222.0</ele>
        <time>2018-05-19T07:12:22.859Z</time>
      </trkpt>
      <trkpt lat="43.291125" lon="-4.3206">
        <ele>222.0</ele>
        <time>2018-05-19T07:12:23.855Z</time>
      </trkpt>
      <trkpt lat="43.29113" lon="-4.32070667">
        <ele>222.0</ele>
        <time>2018-05-19T07:12:24.860Z</time>
      </trkpt>
      <trkpt lat="43.29113" lon="-4.32070667">
        <ele>222.0</ele>
        <time>2018-05-19T07:12:25.852Z</time>
      </trkpt>
      <trkpt lat="43.29113833" lon="-4.3208">
        <ele>223.0</ele>
        <time>2018-05-19T07:12:26.856Z</time>
      </trkpt>
      <trkpt lat="43.29113833" lon="-4.3208">
        <ele>223.0</ele>
        <time>2018-05-19T07:12:27.860Z</time>
      </trkpt>
      <trkpt lat="43.29116" lon="-4.32089167">
        <ele>224.0</ele>
        <time>2018-05-19T07:12:28.858Z</time>
      </trkpt>
      <trkpt lat="43.29116" lon="-4.32089167">
        <ele>224.0</ele>
        <time>2018-05-19T07:12:29.863Z</time>
      </trkpt>
      <trkpt lat="43.291165" lon="-4.32098333">
        <ele>224.0</ele>
        <time>2018-05-19T07:12:30.857Z</time>
      </trkpt>
      <trkpt lat="43.291165" lon="-4.32098333">
        <ele>224.0</ele>
        <time>2018-05-19T07:12:31.855Z</time>
      </trkpt>
      <trkpt lat="43.29118667" lon="-4.32107167">
        <ele>226.0</ele>
        <time>2018-05-19T07:12:32.857Z</time>
      </trkpt>
      <trkpt lat="43.29118667" lon="-4.32107167">
        <ele>226.0</ele>
        <time>2018-05-19T07:12:33.849Z</time>
      </trkpt>
      <trkpt lat="43.29120667" lon="-4.32115333">
        <ele>227.0</ele>
        <time>2018-05-19T07:12:34.871Z</time>
      </trkpt>
      <trkpt lat="43.29121" lon="-4.32119167">
        <ele>228.0</ele>
        <time>2018-05-19T07:12:35.858Z</time>
      </trkpt>
      <trkpt lat="43.29121" lon="-4.32119167">
        <ele>228.0</ele>
        <time>2018-05-19T07:12:36.855Z</time>
      </trkpt>
      <trkpt lat="43.29122167" lon="-4.32126167">
        <ele>229.0</ele>
        <time>2018-05-19T07:12:37.858Z</time>
      </trkpt>
      <trkpt lat="43.29122167" lon="-4.32126167">
        <ele>229.0</ele>
        <time>2018-05-19T07:12:38.854Z</time>
      </trkpt>
      <trkpt lat="43.29122833" lon="-4.32133833">
        <ele>230.0</ele>
        <time>2018-05-19T07:12:39.860Z</time>
      </trkpt>
      <trkpt lat="43.29122833" lon="-4.32133833">
        <ele>230.0</ele>
        <time>2018-05-19T07:12:40.855Z</time>
      </trkpt>
      <trkpt lat="43.291215" lon="-4.32141">
        <ele>230.0</ele>
        <time>2018-05-19T07:12:41.857Z</time>
      </trkpt>
      <trkpt lat="43.29120833" lon="-4.32144333">
        <ele>231.0</ele>
        <time>2018-05-19T07:12:42.857Z</time>
      </trkpt>
      <trkpt lat="43.29120833" lon="-4.32144333">
        <ele>231.0</ele>
        <time>2018-05-19T07:12:43.853Z</time>
      </trkpt>
      <trkpt lat="43.29120667" lon="-4.32152">
        <ele>232.0</ele>
        <time>2018-05-19T07:12:44.857Z</time>
      </trkpt>
      <trkpt lat="43.29121" lon="-4.321555">
        <ele>233.0</ele>
        <time>2018-05-19T07:12:45.867Z</time>
      </trkpt>
      <trkpt lat="43.29121" lon="-4.321555">
        <ele>233.0</ele>
        <time>2018-05-19T07:12:46.868Z</time>
      </trkpt>
      <trkpt lat="43.29121667" lon="-4.32162833">
        <ele>234.0</ele>
        <time>2018-05-19T07:12:47.858Z</time>
      </trkpt>
      <trkpt lat="43.29122167" lon="-4.32166667">
        <ele>234.0</ele>
        <time>2018-05-19T07:12:48.857Z</time>
      </trkpt>
      <trkpt lat="43.29122167" lon="-4.32166667">
        <ele>234.0</ele>
        <time>2018-05-19T07:12:49.861Z</time>
      </trkpt>
      <trkpt lat="43.29122333" lon="-4.32173833">
        <ele>235.0</ele>
        <time>2018-05-19T07:12:50.858Z</time>
      </trkpt>
      <trkpt lat="43.29122333" lon="-4.32173833">
        <ele>235.0</ele>
        <time>2018-05-19T07:12:51.855Z</time>
      </trkpt>
      <trkpt lat="43.29121667" lon="-4.32181333">
        <ele>236.0</ele>
        <time>2018-05-19T07:12:52.858Z</time>
      </trkpt>
      <trkpt lat="43.29121667" lon="-4.32181333">
        <ele>236.0</ele>
        <time>2018-05-19T07:12:53.855Z</time>
      </trkpt>
      <trkpt lat="43.29119" lon="-4.321885">
        <ele>236.0</ele>
        <time>2018-05-19T07:12:54.857Z</time>
      </trkpt>
      <trkpt lat="43.29119" lon="-4.321885">
        <ele>236.0</ele>
        <time>2018-05-19T07:12:55.852Z</time>
      </trkpt>
      <trkpt lat="43.29116667" lon="-4.32196333">
        <ele>237.0</ele>
        <time>2018-05-19T07:12:56.857Z</time>
      </trkpt>
      <trkpt lat="43.29116667" lon="-4.32196333">
        <ele>237.0</ele>
        <time>2018-05-19T07:12:57.858Z</time>
      </trkpt>
      <trkpt lat="43.29114167" lon="-4.322045">
        <ele>238.0</ele>
        <time>2018-05-19T07:12:58.858Z</time>
      </trkpt>
      <trkpt lat="43.29113167" lon="-4.32208667">
        <ele>239.0</ele>
        <time>2018-05-19T07:12:59.859Z</time>
      </trkpt>
      <trkpt lat="43.29112" lon="-4.32212833">
        <ele>239.0</ele>
        <time>2018-05-19T07:13:00.857Z</time>
      </trkpt>
      <trkpt lat="43.29112" lon="-4.32212833">
        <ele>239.0</ele>
        <time>2018-05-19T07:13:01.853Z</time>
      </trkpt>
      <trkpt lat="43.29109167" lon="-4.32221">
        <ele>240.0</ele>
        <time>2018-05-19T07:13:02.860Z</time>
      </trkpt>
      <trkpt lat="43.29109167" lon="-4.32221">
        <ele>240.0</ele>
        <time>2018-05-19T07:13:03.854Z</time>
      </trkpt>
      <trkpt lat="43.29106167" lon="-4.32228667">
        <ele>240.0</ele>
        <time>2018-05-19T07:13:04.857Z</time>
      </trkpt>
      <trkpt lat="43.29104833" lon="-4.32232667">
        <ele>240.0</ele>
        <time>2018-05-19T07:13:05.860Z</time>
      </trkpt>
      <trkpt lat="43.29104833" lon="-4.32232667">
        <ele>240.0</ele>
        <time>2018-05-19T07:13:06.855Z</time>
      </trkpt>
      <trkpt lat="43.29101333" lon="-4.32241">
        <ele>241.0</ele>
        <time>2018-05-19T07:13:07.871Z</time>
      </trkpt>
      <trkpt lat="43.29099167" lon="-4.322455">
        <ele>241.0</ele>
        <time>2018-05-19T07:13:08.858Z</time>
      </trkpt>
      <trkpt lat="43.29099167" lon="-4.322455">
        <ele>241.0</ele>
        <time>2018-05-19T07:13:09.854Z</time>
      </trkpt>
      <trkpt lat="43.29094333" lon="-4.32253667">
        <ele>241.0</ele>
        <time>2018-05-19T07:13:10.858Z</time>
      </trkpt>
      <trkpt lat="43.29094333" lon="-4.32253667">
        <ele>241.0</ele>
        <time>2018-05-19T07:13:11.854Z</time>
      </trkpt>
      <trkpt lat="43.29089333" lon="-4.322625">
        <ele>241.0</ele>
        <time>2018-05-19T07:13:12.857Z</time>
      </trkpt>
      <trkpt lat="43.29089333" lon="-4.322625">
        <ele>241.0</ele>
        <time>2018-05-19T07:13:13.851Z</time>
      </trkpt>
      <trkpt lat="43.29083667" lon="-4.32271333">
        <ele>241.0</ele>
        <time>2018-05-19T07:13:14.857Z</time>
      </trkpt>
      <trkpt lat="43.29083667" lon="-4.32271333">
        <ele>241.0</ele>
        <time>2018-05-19T07:13:15.851Z</time>
      </trkpt>
      <trkpt lat="43.290775" lon="-4.32280667">
        <ele>241.0</ele>
        <time>2018-05-19T07:13:16.857Z</time>
      </trkpt>
      <trkpt lat="43.290775" lon="-4.32280667">
        <ele>241.0</ele>
        <time>2018-05-19T07:13:17.852Z</time>
      </trkpt>
      <trkpt lat="43.29071667" lon="-4.32291">
        <ele>241.0</ele>
        <time>2018-05-19T07:13:18.857Z</time>
      </trkpt>
      <trkpt lat="43.29071667" lon="-4.32291">
        <ele>241.0</ele>
        <time>2018-05-19T07:13:19.856Z</time>
      </trkpt>
      <trkpt lat="43.290665" lon="-4.323015">
        <ele>242.0</ele>
        <time>2018-05-19T07:13:20.857Z</time>
      </trkpt>
      <trkpt lat="43.290665" lon="-4.323015">
        <ele>242.0</ele>
        <time>2018-05-19T07:13:21.855Z</time>
      </trkpt>
      <trkpt lat="43.29062" lon="-4.32312167">
        <ele>242.0</ele>
        <time>2018-05-19T07:13:22.858Z</time>
      </trkpt>
      <trkpt lat="43.29059667" lon="-4.32317333">
        <ele>242.0</ele>
        <time>2018-05-19T07:13:23.857Z</time>
      </trkpt>
      <trkpt lat="43.290575" lon="-4.323225">
        <ele>242.0</ele>
        <time>2018-05-19T07:13:24.857Z</time>
      </trkpt>
      <trkpt lat="43.290575" lon="-4.323225">
        <ele>242.0</ele>
        <time>2018-05-19T07:13:25.851Z</time>
      </trkpt>
      <trkpt lat="43.29053333" lon="-4.32332833">
        <ele>243.0</ele>
        <time>2018-05-19T07:13:26.856Z</time>
      </trkpt>
      <trkpt lat="43.29053333" lon="-4.32332833">
        <ele>243.0</ele>
        <time>2018-05-19T07:13:27.851Z</time>
      </trkpt>
      <trkpt lat="43.29049833" lon="-4.32343167">
        <ele>243.0</ele>
        <time>2018-05-19T07:13:28.857Z</time>
      </trkpt>
      <trkpt lat="43.29049833" lon="-4.32343167">
        <ele>243.0</ele>
        <time>2018-05-19T07:13:29.868Z</time>
      </trkpt>
      <trkpt lat="43.290475" lon="-4.32354">
        <ele>244.0</ele>
        <time>2018-05-19T07:13:30.858Z</time>
      </trkpt>
      <trkpt lat="43.290475" lon="-4.32354">
        <ele>244.0</ele>
        <time>2018-05-19T07:13:31.851Z</time>
      </trkpt>
      <trkpt lat="43.29047" lon="-4.32364667">
        <ele>244.0</ele>
        <time>2018-05-19T07:13:32.856Z</time>
      </trkpt>
      <trkpt lat="43.29047" lon="-4.32364667">
        <ele>244.0</ele>
        <time>2018-05-19T07:13:33.854Z</time>
      </trkpt>
      <trkpt lat="43.29047667" lon="-4.32375">
        <ele>245.0</ele>
        <time>2018-05-19T07:13:34.863Z</time>
      </trkpt>
      <trkpt lat="43.29047667" lon="-4.32375">
        <ele>245.0</ele>
        <time>2018-05-19T07:13:35.853Z</time>
      </trkpt>
      <trkpt lat="43.29048833" lon="-4.32384667">
        <ele>246.0</ele>
        <time>2018-05-19T07:13:36.857Z</time>
      </trkpt>
      <trkpt lat="43.29048833" lon="-4.32384667">
        <ele>246.0</ele>
        <time>2018-05-19T07:13:37.858Z</time>
      </trkpt>
      <trkpt lat="43.290495" lon="-4.32394333">
        <ele>247.0</ele>
        <time>2018-05-19T07:13:38.857Z</time>
      </trkpt>
      <trkpt lat="43.290495" lon="-4.32394333">
        <ele>247.0</ele>
        <time>2018-05-19T07:13:39.864Z</time>
      </trkpt>
      <trkpt lat="43.290495" lon="-4.324035">
        <ele>247.0</ele>
        <time>2018-05-19T07:13:40.858Z</time>
      </trkpt>
      <trkpt lat="43.29049333" lon="-4.32408333">
        <ele>248.0</ele>
        <time>2018-05-19T07:13:41.857Z</time>
      </trkpt>
      <trkpt lat="43.29049333" lon="-4.32408333">
        <ele>248.0</ele>
        <time>2018-05-19T07:13:42.855Z</time>
      </trkpt>
      <trkpt lat="43.290485" lon="-4.32418667">
        <ele>248.0</ele>
        <time>2018-05-19T07:13:43.857Z</time>
      </trkpt>
      <trkpt lat="43.290485" lon="-4.32418667">
        <ele>248.0</ele>
        <time>2018-05-19T07:13:44.851Z</time>
      </trkpt>
      <trkpt lat="43.29045667" lon="-4.32429167">
        <ele>248.0</ele>
        <time>2018-05-19T07:13:45.867Z</time>
      </trkpt>
      <trkpt lat="43.29043667" lon="-4.324345">
        <ele>248.0</ele>
        <time>2018-05-19T07:13:46.858Z</time>
      </trkpt>
      <trkpt lat="43.29043667" lon="-4.324345">
        <ele>248.0</ele>
        <time>2018-05-19T07:13:47.854Z</time>
      </trkpt>
      <trkpt lat="43.29038833" lon="-4.32444333">
        <ele>248.0</ele>
        <time>2018-05-19T07:13:48.857Z</time>
      </trkpt>
      <trkpt lat="43.29038833" lon="-4.32444333">
        <ele>248.0</ele>
        <time>2018-05-19T07:13:49.851Z</time>
      </trkpt>
      <trkpt lat="43.29033667" lon="-4.32454">
        <ele>248.0</ele>
        <time>2018-05-19T07:13:50.849Z</time>
      </trkpt>
      <trkpt lat="43.29031167" lon="-4.32459">
        <ele>248.0</ele>
        <time>2018-05-19T07:13:51.872Z</time>
      </trkpt>
      <trkpt lat="43.29031167" lon="-4.32459">
        <ele>248.0</ele>
        <time>2018-05-19T07:13:52.857Z</time>
      </trkpt>
      <trkpt lat="43.29026667" lon="-4.32469167">
        <ele>249.0</ele>
        <time>2018-05-19T07:13:53.856Z</time>
      </trkpt>
      <trkpt lat="43.29025167" lon="-4.32474167">
        <ele>249.0</ele>
        <time>2018-05-19T07:13:54.857Z</time>
      </trkpt>
      <trkpt lat="43.29025167" lon="-4.32474167">
        <ele>249.0</ele>
        <time>2018-05-19T07:13:55.854Z</time>
      </trkpt>
      <trkpt lat="43.290225" lon="-4.32484167">
        <ele>249.0</ele>
        <time>2018-05-19T07:13:56.856Z</time>
      </trkpt>
      <trkpt lat="43.290225" lon="-4.32484167">
        <ele>249.0</ele>
        <time>2018-05-19T07:13:57.851Z</time>
      </trkpt>
      <trkpt lat="43.29019833" lon="-4.32493833">
        <ele>250.0</ele>
        <time>2018-05-19T07:13:58.857Z</time>
      </trkpt>
      <trkpt lat="43.29019833" lon="-4.32493833">
        <ele>250.0</ele>
        <time>2018-05-19T07:13:59.848Z</time>
      </trkpt>
      <trkpt lat="43.29017" lon="-4.32505167">
        <ele>250.0</ele>
        <time>2018-05-19T07:14:00.850Z</time>
      </trkpt>
      <trkpt lat="43.29017" lon="-4.32505167">
        <ele>250.0</ele>
        <time>2018-05-19T07:14:01.854Z</time>
      </trkpt>
      <trkpt lat="43.29015167" lon="-4.32520333">
        <ele>248.0</ele>
        <time>2018-05-19T07:14:02.857Z</time>
      </trkpt>
      <trkpt lat="43.29015167" lon="-4.32520333">
        <ele>248.0</ele>
        <time>2018-05-19T07:14:03.852Z</time>
      </trkpt>
      <trkpt lat="43.29013167" lon="-4.32539333">
        <ele>248.0</ele>
        <time>2018-05-19T07:14:04.880Z</time>
      </trkpt>
      <trkpt lat="43.29013167" lon="-4.32539333">
        <ele>248.0</ele>
        <time>2018-05-19T07:14:05.862Z</time>
      </trkpt>
      <trkpt lat="43.290095" lon="-4.325585">
        <ele>247.0</ele>
        <time>2018-05-19T07:14:06.854Z</time>
      </trkpt>
      <trkpt lat="43.290095" lon="-4.325585">
        <ele>247.0</ele>
        <time>2018-05-19T07:14:07.851Z</time>
      </trkpt>
      <trkpt lat="43.29001667" lon="-4.32574167">
        <ele>247.0</ele>
        <time>2018-05-19T07:14:08.858Z</time>
      </trkpt>
      <trkpt lat="43.29001667" lon="-4.32574167">
        <ele>247.0</ele>
        <time>2018-05-19T07:14:09.855Z</time>
      </trkpt>
      <trkpt lat="43.28991833" lon="-4.325865">
        <ele>247.0</ele>
        <time>2018-05-19T07:14:10.860Z</time>
      </trkpt>
      <trkpt lat="43.28991833" lon="-4.325865">
        <ele>247.0</ele>
        <time>2018-05-19T07:14:11.849Z</time>
      </trkpt>
      <trkpt lat="43.28983333" lon="-4.325975">
        <ele>247.0</ele>
        <time>2018-05-19T07:14:12.872Z</time>
      </trkpt>
      <trkpt lat="43.28983333" lon="-4.325975">
        <ele>247.0</ele>
        <time>2018-05-19T07:14:13.857Z</time>
      </trkpt>
      <trkpt lat="43.28977667" lon="-4.32608">
        <ele>248.0</ele>
        <time>2018-05-19T07:14:14.857Z</time>
      </trkpt>
      <trkpt lat="43.289765" lon="-4.32613">
        <ele>248.0</ele>
        <time>2018-05-19T07:14:15.857Z</time>
      </trkpt>
      <trkpt lat="43.289765" lon="-4.32613">
        <ele>248.0</ele>
        <time>2018-05-19T07:14:16.853Z</time>
      </trkpt>
      <trkpt lat="43.28975833" lon="-4.32621167">
        <ele>249.0</ele>
        <time>2018-05-19T07:14:17.858Z</time>
      </trkpt>
      <trkpt lat="43.289755" lon="-4.32624667">
        <ele>250.0</ele>
        <time>2018-05-19T07:14:18.857Z</time>
      </trkpt>
      <trkpt lat="43.289755" lon="-4.32624667">
        <ele>250.0</ele>
        <time>2018-05-19T07:14:19.854Z</time>
      </trkpt>
      <trkpt lat="43.289755" lon="-4.32632">
        <ele>250.0</ele>
        <time>2018-05-19T07:14:20.860Z</time>
      </trkpt>
      <trkpt lat="43.289755" lon="-4.32632">
        <ele>250.0</ele>
        <time>2018-05-19T07:14:21.850Z</time>
      </trkpt>
      <trkpt lat="43.28974667" lon="-4.32640333">
        <ele>251.0</ele>
        <time>2018-05-19T07:14:22.872Z</time>
      </trkpt>
      <trkpt lat="43.28974667" lon="-4.32640333">
        <ele>251.0</ele>
        <time>2018-05-19T07:14:23.857Z</time>
      </trkpt>
      <trkpt lat="43.28973" lon="-4.32648667">
        <ele>252.0</ele>
        <time>2018-05-19T07:14:24.856Z</time>
      </trkpt>
      <trkpt lat="43.28973" lon="-4.32648667">
        <ele>252.0</ele>
        <time>2018-05-19T07:14:25.851Z</time>
      </trkpt>
      <trkpt lat="43.28971" lon="-4.32656667">
        <ele>253.0</ele>
        <time>2018-05-19T07:14:26.856Z</time>
      </trkpt>
      <trkpt lat="43.28971" lon="-4.32656667">
        <ele>253.0</ele>
        <time>2018-05-19T07:14:27.851Z</time>
      </trkpt>
      <trkpt lat="43.28968833" lon="-4.32664167">
        <ele>254.0</ele>
        <time>2018-05-19T07:14:28.858Z</time>
      </trkpt>
      <trkpt lat="43.28968833" lon="-4.32664167">
        <ele>254.0</ele>
        <time>2018-05-19T07:14:29.845Z</time>
      </trkpt>
      <trkpt lat="43.28967167" lon="-4.326715">
        <ele>255.0</ele>
        <time>2018-05-19T07:14:30.873Z</time>
      </trkpt>
      <trkpt lat="43.28967167" lon="-4.326715">
        <ele>255.0</ele>
        <time>2018-05-19T07:14:31.858Z</time>
      </trkpt>
      <trkpt lat="43.28965667" lon="-4.32678667">
        <ele>255.0</ele>
        <time>2018-05-19T07:14:32.857Z</time>
      </trkpt>
      <trkpt lat="43.28965667" lon="-4.32678667">
        <ele>255.0</ele>
        <time>2018-05-19T07:14:33.851Z</time>
      </trkpt>
      <trkpt lat="43.28964333" lon="-4.326855">
        <ele>256.0</ele>
        <time>2018-05-19T07:14:34.857Z</time>
      </trkpt>
      <trkpt lat="43.28964333" lon="-4.326855">
        <ele>256.0</ele>
        <time>2018-05-19T07:14:35.851Z</time>
      </trkpt>
      <trkpt lat="43.28963" lon="-4.32692333">
        <ele>257.0</ele>
        <time>2018-05-19T07:14:36.856Z</time>
      </trkpt>
      <trkpt lat="43.28963" lon="-4.32692333">
        <ele>257.0</ele>
        <time>2018-05-19T07:14:37.854Z</time>
      </trkpt>
      <trkpt lat="43.28960333" lon="-4.32697833">
        <ele>257.0</ele>
        <time>2018-05-19T07:14:38.854Z</time>
      </trkpt>
      <trkpt lat="43.289585" lon="-4.327">
        <ele>257.0</ele>
        <time>2018-05-19T07:14:39.858Z</time>
      </trkpt>
      <trkpt lat="43.28956333" lon="-4.32701667">
        <ele>257.0</ele>
        <time>2018-05-19T07:14:40.867Z</time>
      </trkpt>
      <trkpt lat="43.28956333" lon="-4.32701667">
        <ele>257.0</ele>
        <time>2018-05-19T07:14:41.852Z</time>
      </trkpt>
      <trkpt lat="43.28951667" lon="-4.32704167">
        <ele>258.0</ele>
        <time>2018-05-19T07:14:42.857Z</time>
      </trkpt>
      <trkpt lat="43.28951667" lon="-4.32704167">
        <ele>258.0</ele>
        <time>2018-05-19T07:14:43.848Z</time>
      </trkpt>
      <trkpt lat="43.28946667" lon="-4.32707167">
        <ele>258.0</ele>
        <time>2018-05-19T07:14:44.856Z</time>
      </trkpt>
      <trkpt lat="43.28946667" lon="-4.32707167">
        <ele>258.0</ele>
        <time>2018-05-19T07:14:45.866Z</time>
      </trkpt>
      <trkpt lat="43.28941667" lon="-4.32711">
        <ele>258.0</ele>
        <time>2018-05-19T07:14:46.869Z</time>
      </trkpt>
      <trkpt lat="43.28941667" lon="-4.32711">
        <ele>258.0</ele>
        <time>2018-05-19T07:14:47.861Z</time>
      </trkpt>
      <trkpt lat="43.28936833" lon="-4.32714833">
        <ele>259.0</ele>
        <time>2018-05-19T07:14:48.857Z</time>
      </trkpt>
      <trkpt lat="43.289345" lon="-4.32716667">
        <ele>259.0</ele>
        <time>2018-05-19T07:14:49.857Z</time>
      </trkpt>
      <trkpt lat="43.289345" lon="-4.32716667">
        <ele>259.0</ele>
        <time>2018-05-19T07:14:50.858Z</time>
      </trkpt>
      <trkpt lat="43.28929667" lon="-4.32720833">
        <ele>259.0</ele>
        <time>2018-05-19T07:14:51.856Z</time>
      </trkpt>
      <trkpt lat="43.28927333" lon="-4.32722833">
        <ele>259.0</ele>
        <time>2018-05-19T07:14:52.857Z</time>
      </trkpt>
      <trkpt lat="43.28927333" lon="-4.32722833">
        <ele>259.0</ele>
        <time>2018-05-19T07:14:53.852Z</time>
      </trkpt>
      <trkpt lat="43.28922" lon="-4.32726167">
        <ele>260.0</ele>
        <time>2018-05-19T07:14:54.858Z</time>
      </trkpt>
      <trkpt lat="43.28922" lon="-4.32726167">
        <ele>260.0</ele>
        <time>2018-05-19T07:14:55.851Z</time>
      </trkpt>
      <trkpt lat="43.28916667" lon="-4.32730333">
        <ele>261.0</ele>
        <time>2018-05-19T07:14:56.856Z</time>
      </trkpt>
      <trkpt lat="43.28914167" lon="-4.32732333">
        <ele>261.0</ele>
        <time>2018-05-19T07:14:57.856Z</time>
      </trkpt>
      <trkpt lat="43.28911667" lon="-4.32734167">
        <ele>261.0</ele>
        <time>2018-05-19T07:14:58.858Z</time>
      </trkpt>
      <trkpt lat="43.28911667" lon="-4.32734167">
        <ele>261.0</ele>
        <time>2018-05-19T07:14:59.864Z</time>
      </trkpt>
      <trkpt lat="43.28907" lon="-4.32738167">
        <ele>262.0</ele>
        <time>2018-05-19T07:15:00.859Z</time>
      </trkpt>
      <trkpt lat="43.28907" lon="-4.32738167">
        <ele>262.0</ele>
        <time>2018-05-19T07:15:01.854Z</time>
      </trkpt>
      <trkpt lat="43.28901667" lon="-4.32741833">
        <ele>262.0</ele>
        <time>2018-05-19T07:15:02.857Z</time>
      </trkpt>
      <trkpt lat="43.28901667" lon="-4.32741833">
        <ele>262.0</ele>
        <time>2018-05-19T07:15:03.854Z</time>
      </trkpt>
      <trkpt lat="43.28896833" lon="-4.327455">
        <ele>263.0</ele>
        <time>2018-05-19T07:15:04.858Z</time>
      </trkpt>
      <trkpt lat="43.28896833" lon="-4.327455">
        <ele>263.0</ele>
        <time>2018-05-19T07:15:05.855Z</time>
      </trkpt>
      <trkpt lat="43.28892333" lon="-4.32750167">
        <ele>263.0</ele>
        <time>2018-05-19T07:15:06.866Z</time>
      </trkpt>
      <trkpt lat="43.28892333" lon="-4.32750167">
        <ele>263.0</ele>
        <time>2018-05-19T07:15:07.851Z</time>
      </trkpt>
      <trkpt lat="43.28888667" lon="-4.32754667">
        <ele>264.0</ele>
        <time>2018-05-19T07:15:08.856Z</time>
      </trkpt>
      <trkpt lat="43.28888667" lon="-4.32754667">
        <ele>264.0</ele>
        <time>2018-05-19T07:15:09.868Z</time>
      </trkpt>
      <trkpt lat="43.28884833" lon="-4.32759333">
        <ele>264.0</ele>
        <time>2018-05-19T07:15:10.857Z</time>
      </trkpt>
      <trkpt lat="43.28883" lon="-4.32761667">
        <ele>265.0</ele>
        <time>2018-05-19T07:15:11.864Z</time>
      </trkpt>
      <trkpt lat="43.28883" lon="-4.32761667">
        <ele>265.0</ele>
        <time>2018-05-19T07:15:12.855Z</time>
      </trkpt>
      <trkpt lat="43.288795" lon="-4.32766">
        <ele>265.0</ele>
        <time>2018-05-19T07:15:13.856Z</time>
      </trkpt>
      <trkpt lat="43.28877667" lon="-4.32768333">
        <ele>266.0</ele>
        <time>2018-05-19T07:15:14.869Z</time>
      </trkpt>
      <trkpt lat="43.28877667" lon="-4.32768333">
        <ele>266.0</ele>
        <time>2018-05-19T07:15:15.854Z</time>
      </trkpt>
      <trkpt lat="43.28875" lon="-4.32772167">
        <ele>267.0</ele>
        <time>2018-05-19T07:15:16.858Z</time>
      </trkpt>
      <trkpt lat="43.28875" lon="-4.32772167">
        <ele>267.0</ele>
        <time>2018-05-19T07:15:17.851Z</time>
      </trkpt>
      <trkpt lat="43.28872667" lon="-4.32777">
        <ele>268.0</ele>
        <time>2018-05-19T07:15:18.857Z</time>
      </trkpt>
      <trkpt lat="43.28872667" lon="-4.32777">
        <ele>268.0</ele>
        <time>2018-05-19T07:15:19.850Z</time>
      </trkpt>
      <trkpt lat="43.28870833" lon="-4.32781">
        <ele>269.0</ele>
        <time>2018-05-19T07:15:20.873Z</time>
      </trkpt>
      <trkpt lat="43.28870833" lon="-4.32781">
        <ele>269.0</ele>
        <time>2018-05-19T07:15:21.866Z</time>
      </trkpt>
      <trkpt lat="43.28868" lon="-4.32787">
        <ele>270.0</ele>
        <time>2018-05-19T07:15:22.858Z</time>
      </trkpt>
      <trkpt lat="43.28868" lon="-4.32787">
        <ele>270.0</ele>
        <time>2018-05-19T07:15:23.854Z</time>
      </trkpt>
      <trkpt lat="43.28864833" lon="-4.32792333">
        <ele>271.0</ele>
        <time>2018-05-19T07:15:24.857Z</time>
      </trkpt>
      <trkpt lat="43.28864833" lon="-4.32792333">
        <ele>271.0</ele>
        <time>2018-05-19T07:15:25.848Z</time>
      </trkpt>
      <trkpt lat="43.28862333" lon="-4.327975">
        <ele>272.0</ele>
        <time>2018-05-19T07:15:26.872Z</time>
      </trkpt>
      <trkpt lat="43.288615" lon="-4.32799667">
        <ele>273.0</ele>
        <time>2018-05-19T07:15:27.862Z</time>
      </trkpt>
      <trkpt lat="43.288615" lon="-4.32799667">
        <ele>273.0</ele>
        <time>2018-05-19T07:15:28.855Z</time>
      </trkpt>
      <trkpt lat="43.28859833" lon="-4.32805333">
        <ele>273.0</ele>
        <time>2018-05-19T07:15:29.856Z</time>
      </trkpt>
      <trkpt lat="43.28859167" lon="-4.32808">
        <ele>274.0</ele>
        <time>2018-05-19T07:15:30.857Z</time>
      </trkpt>
      <trkpt lat="43.28859167" lon="-4.32808">
        <ele>274.0</ele>
        <time>2018-05-19T07:15:31.848Z</time>
      </trkpt>
      <trkpt lat="43.28857667" lon="-4.328125">
        <ele>275.0</ele>
        <time>2018-05-19T07:15:32.871Z</time>
      </trkpt>
      <trkpt lat="43.28857667" lon="-4.328125">
        <ele>275.0</ele>
        <time>2018-05-19T07:15:33.855Z</time>
      </trkpt>
      <trkpt lat="43.28855333" lon="-4.32817">
        <ele>276.0</ele>
        <time>2018-05-19T07:15:34.869Z</time>
      </trkpt>
      <trkpt lat="43.28855333" lon="-4.32817">
        <ele>276.0</ele>
        <time>2018-05-19T07:15:35.854Z</time>
      </trkpt>
      <trkpt lat="43.288525" lon="-4.32821333">
        <ele>276.0</ele>
        <time>2018-05-19T07:15:36.856Z</time>
      </trkpt>
      <trkpt lat="43.288525" lon="-4.32821333">
        <ele>276.0</ele>
        <time>2018-05-19T07:15:37.851Z</time>
      </trkpt>
      <trkpt lat="43.2885" lon="-4.32825667">
        <ele>277.0</ele>
        <time>2018-05-19T07:15:38.856Z</time>
      </trkpt>
      <trkpt lat="43.2885" lon="-4.32825667">
        <ele>277.0</ele>
        <time>2018-05-19T07:15:39.851Z</time>
      </trkpt>
      <trkpt lat="43.28847667" lon="-4.32830833">
        <ele>277.0</ele>
        <time>2018-05-19T07:15:40.858Z</time>
      </trkpt>
      <trkpt lat="43.28847667" lon="-4.32830833">
        <ele>277.0</ele>
        <time>2018-05-19T07:15:41.853Z</time>
      </trkpt>
      <trkpt lat="43.28846167" lon="-4.32835667">
        <ele>277.0</ele>
        <time>2018-05-19T07:15:42.857Z</time>
      </trkpt>
      <trkpt lat="43.28846167" lon="-4.32835667">
        <ele>277.0</ele>
        <time>2018-05-19T07:15:43.855Z</time>
      </trkpt>
      <trkpt lat="43.28845167" lon="-4.32840167">
        <ele>277.0</ele>
        <time>2018-05-19T07:15:44.856Z</time>
      </trkpt>
      <trkpt lat="43.28845167" lon="-4.32840167">
        <ele>277.0</ele>
        <time>2018-05-19T07:15:45.867Z</time>
      </trkpt>
      <trkpt lat="43.28844167" lon="-4.32844167">
        <ele>277.0</ele>
        <time>2018-05-19T07:15:46.858Z</time>
      </trkpt>
      <trkpt lat="43.28844167" lon="-4.32844167">
        <ele>277.0</ele>
        <time>2018-05-19T07:15:47.855Z</time>
      </trkpt>
      <trkpt lat="43.288435" lon="-4.32848">
        <ele>278.0</ele>
        <time>2018-05-19T07:15:48.858Z</time>
      </trkpt>
      <trkpt lat="43.288435" lon="-4.32848">
        <ele>278.0</ele>
        <time>2018-05-19T07:15:49.851Z</time>
      </trkpt>
      <trkpt lat="43.28842667" lon="-4.32851667">
        <ele>279.0</ele>
        <time>2018-05-19T07:15:50.857Z</time>
      </trkpt>
      <trkpt lat="43.28842667" lon="-4.32851667">
        <ele>279.0</ele>
        <time>2018-05-19T07:15:51.863Z</time>
      </trkpt>
      <trkpt lat="43.288425" lon="-4.328555">
        <ele>279.0</ele>
        <time>2018-05-19T07:15:52.858Z</time>
      </trkpt>
      <trkpt lat="43.288425" lon="-4.328555">
        <ele>279.0</ele>
        <time>2018-05-19T07:15:53.854Z</time>
      </trkpt>
      <trkpt lat="43.288425" lon="-4.32859833">
        <ele>279.0</ele>
        <time>2018-05-19T07:15:54.856Z</time>
      </trkpt>
      <trkpt lat="43.288425" lon="-4.32859833">
        <ele>279.0</ele>
        <time>2018-05-19T07:15:55.851Z</time>
      </trkpt>
      <trkpt lat="43.288425" lon="-4.32864667">
        <ele>280.0</ele>
        <time>2018-05-19T07:15:56.857Z</time>
      </trkpt>
      <trkpt lat="43.288425" lon="-4.32864667">
        <ele>280.0</ele>
        <time>2018-05-19T07:15:57.859Z</time>
      </trkpt>
      <trkpt lat="43.28842167" lon="-4.32869167">
        <ele>280.0</ele>
        <time>2018-05-19T07:15:58.858Z</time>
      </trkpt>
      <trkpt lat="43.28842167" lon="-4.32869167">
        <ele>280.0</ele>
        <time>2018-05-19T07:15:59.851Z</time>
      </trkpt>
      <trkpt lat="43.28842" lon="-4.32874">
        <ele>281.0</ele>
        <time>2018-05-19T07:16:00.857Z</time>
      </trkpt>
      <trkpt lat="43.28842" lon="-4.32874">
        <ele>281.0</ele>
        <time>2018-05-19T07:16:01.868Z</time>
      </trkpt>
      <trkpt lat="43.28841167" lon="-4.32878167">
        <ele>282.0</ele>
        <time>2018-05-19T07:16:02.853Z</time>
      </trkpt>
      <trkpt lat="43.28841167" lon="-4.32878167">
        <ele>282.0</ele>
        <time>2018-05-19T07:16:03.851Z</time>
      </trkpt>
      <trkpt lat="43.28840167" lon="-4.32883">
        <ele>282.0</ele>
        <time>2018-05-19T07:16:04.859Z</time>
      </trkpt>
      <trkpt lat="43.28840167" lon="-4.32883">
        <ele>282.0</ele>
        <time>2018-05-19T07:16:05.853Z</time>
      </trkpt>
      <trkpt lat="43.28838833" lon="-4.32888">
        <ele>283.0</ele>
        <time>2018-05-19T07:16:06.856Z</time>
      </trkpt>
      <trkpt lat="43.28838333" lon="-4.32890167">
        <ele>283.0</ele>
        <time>2018-05-19T07:16:07.855Z</time>
      </trkpt>
      <trkpt lat="43.28838333" lon="-4.32890167">
        <ele>283.0</ele>
        <time>2018-05-19T07:16:08.851Z</time>
      </trkpt>
      <trkpt lat="43.28837" lon="-4.32894667">
        <ele>284.0</ele>
        <time>2018-05-19T07:16:09.855Z</time>
      </trkpt>
      <trkpt lat="43.28836167" lon="-4.328965">
        <ele>284.0</ele>
        <time>2018-05-19T07:16:10.858Z</time>
      </trkpt>
      <trkpt lat="43.28836167" lon="-4.328965">
        <ele>284.0</ele>
        <time>2018-05-19T07:16:11.852Z</time>
      </trkpt>
      <trkpt lat="43.288345" lon="-4.329005">
        <ele>284.0</ele>
        <time>2018-05-19T07:16:12.857Z</time>
      </trkpt>
      <trkpt lat="43.288345" lon="-4.329005">
        <ele>284.0</ele>
        <time>2018-05-19T07:16:13.851Z</time>
      </trkpt>
      <trkpt lat="43.28832667" lon="-4.329045">
        <ele>285.0</ele>
        <time>2018-05-19T07:16:14.853Z</time>
      </trkpt>
      <trkpt lat="43.28832667" lon="-4.329045">
        <ele>285.0</ele>
        <time>2018-05-19T07:16:15.850Z</time>
      </trkpt>
      <trkpt lat="43.28830667" lon="-4.329085">
        <ele>285.0</ele>
        <time>2018-05-19T07:16:16.872Z</time>
      </trkpt>
      <trkpt lat="43.28830667" lon="-4.329085">
        <ele>285.0</ele>
        <time>2018-05-19T07:16:17.862Z</time>
      </trkpt>
      <trkpt lat="43.28828" lon="-4.32912333">
        <ele>286.0</ele>
        <time>2018-05-19T07:16:18.854Z</time>
      </trkpt>
      <trkpt lat="43.28828" lon="-4.32912333">
        <ele>286.0</ele>
        <time>2018-05-19T07:16:19.858Z</time>
      </trkpt>
      <trkpt lat="43.28825833" lon="-4.32916167">
        <ele>286.0</ele>
        <time>2018-05-19T07:16:20.856Z</time>
      </trkpt>
      <trkpt lat="43.28825167" lon="-4.32918167">
        <ele>286.0</ele>
        <time>2018-05-19T07:16:21.865Z</time>
      </trkpt>
      <trkpt lat="43.28825167" lon="-4.32918167">
        <ele>286.0</ele>
        <time>2018-05-19T07:16:22.855Z</time>
      </trkpt>
      <trkpt lat="43.28823833" lon="-4.329215">
        <ele>286.0</ele>
        <time>2018-05-19T07:16:23.870Z</time>
      </trkpt>
      <trkpt lat="43.28823" lon="-4.32922833">
        <ele>286.0</ele>
        <time>2018-05-19T07:16:24.857Z</time>
      </trkpt>
      <trkpt lat="43.28823" lon="-4.32922833">
        <ele>286.0</ele>
        <time>2018-05-19T07:16:25.855Z</time>
      </trkpt>
      <trkpt lat="43.28821" lon="-4.32925667">
        <ele>287.0</ele>
        <time>2018-05-19T07:16:26.856Z</time>
      </trkpt>
      <trkpt lat="43.28821" lon="-4.32925667">
        <ele>287.0</ele>
        <time>2018-05-19T07:16:27.848Z</time>
      </trkpt>
      <trkpt lat="43.28819" lon="-4.329285">
        <ele>287.0</ele>
        <time>2018-05-19T07:16:28.873Z</time>
      </trkpt>
      <trkpt lat="43.28819" lon="-4.329285">
        <ele>287.0</ele>
        <time>2018-05-19T07:16:29.858Z</time>
      </trkpt>
      <trkpt lat="43.28817333" lon="-4.329315">
        <ele>287.0</ele>
        <time>2018-05-19T07:16:30.856Z</time>
      </trkpt>
      <trkpt lat="43.28817333" lon="-4.329315">
        <ele>287.0</ele>
        <time>2018-05-19T07:16:31.855Z</time>
      </trkpt>
      <trkpt lat="43.28816" lon="-4.32935167">
        <ele>288.0</ele>
        <time>2018-05-19T07:16:32.856Z</time>
      </trkpt>
      <trkpt lat="43.28815" lon="-4.329365">
        <ele>288.0</ele>
        <time>2018-05-19T07:16:33.857Z</time>
      </trkpt>
      <trkpt lat="43.28815" lon="-4.329365">
        <ele>288.0</ele>
        <time>2018-05-19T07:16:34.875Z</time>
      </trkpt>
      <trkpt lat="43.28813" lon="-4.32939">
        <ele>288.0</ele>
        <time>2018-05-19T07:16:35.866Z</time>
      </trkpt>
      <trkpt lat="43.28812333" lon="-4.329405">
        <ele>288.0</ele>
        <time>2018-05-19T07:16:36.857Z</time>
      </trkpt>
      <trkpt lat="43.28812333" lon="-4.329405">
        <ele>288.0</ele>
        <time>2018-05-19T07:16:37.848Z</time>
      </trkpt>
      <trkpt lat="43.28810333" lon="-4.329445">
        <ele>289.0</ele>
        <time>2018-05-19T07:16:38.854Z</time>
      </trkpt>
      <trkpt lat="43.28810333" lon="-4.329445">
        <ele>289.0</ele>
        <time>2018-05-19T07:16:39.851Z</time>
      </trkpt>
      <trkpt lat="43.28807333" lon="-4.32948833">
        <ele>289.0</ele>
        <time>2018-05-19T07:16:40.857Z</time>
      </trkpt>
      <trkpt lat="43.28807333" lon="-4.32948833">
        <ele>289.0</ele>
        <time>2018-05-19T07:16:41.855Z</time>
      </trkpt>
      <trkpt lat="43.28804333" lon="-4.32953">
        <ele>289.0</ele>
        <time>2018-05-19T07:16:42.857Z</time>
      </trkpt>
      <trkpt lat="43.28804333" lon="-4.32953">
        <ele>289.0</ele>
        <time>2018-05-19T07:16:43.853Z</time>
      </trkpt>
      <trkpt lat="43.28800667" lon="-4.32957167">
        <ele>290.0</ele>
        <time>2018-05-19T07:16:44.856Z</time>
      </trkpt>
      <trkpt lat="43.28799" lon="-4.32959167">
        <ele>290.0</ele>
        <time>2018-05-19T07:16:45.866Z</time>
      </trkpt>
      <trkpt lat="43.28797333" lon="-4.32960833">
        <ele>290.0</ele>
        <time>2018-05-19T07:16:46.858Z</time>
      </trkpt>
      <trkpt lat="43.28797333" lon="-4.32960833">
        <ele>290.0</ele>
        <time>2018-05-19T07:16:47.852Z</time>
      </trkpt>
      <trkpt lat="43.28794167" lon="-4.32964833">
        <ele>291.0</ele>
        <time>2018-05-19T07:16:48.857Z</time>
      </trkpt>
      <trkpt lat="43.28794167" lon="-4.32964833">
        <ele>291.0</ele>
        <time>2018-05-19T07:16:49.858Z</time>
      </trkpt>
      <trkpt lat="43.28790833" lon="-4.32968667">
        <ele>291.0</ele>
        <time>2018-05-19T07:16:50.853Z</time>
      </trkpt>
      <trkpt lat="43.28790833" lon="-4.32968667">
        <ele>291.0</ele>
        <time>2018-05-19T07:16:51.858Z</time>
      </trkpt>
      <trkpt lat="43.28787833" lon="-4.32972">
        <ele>292.0</ele>
        <time>2018-05-19T07:16:52.858Z</time>
      </trkpt>
      <trkpt lat="43.28787833" lon="-4.32972">
        <ele>292.0</ele>
        <time>2018-05-19T07:16:53.848Z</time>
      </trkpt>
      <trkpt lat="43.28784333" lon="-4.32975333">
        <ele>293.0</ele>
        <time>2018-05-19T07:16:54.873Z</time>
      </trkpt>
      <trkpt lat="43.28784333" lon="-4.32975333">
        <ele>293.0</ele>
        <time>2018-05-19T07:16:55.873Z</time>
      </trkpt>
      <trkpt lat="43.28781167" lon="-4.32978833">
        <ele>293.0</ele>
        <time>2018-05-19T07:16:56.858Z</time>
      </trkpt>
      <trkpt lat="43.28781167" lon="-4.32978833">
        <ele>293.0</ele>
        <time>2018-05-19T07:16:57.850Z</time>
      </trkpt>
      <trkpt lat="43.28777833" lon="-4.32982333">
        <ele>294.0</ele>
        <time>2018-05-19T07:16:58.877Z</time>
      </trkpt>
      <trkpt lat="43.28777833" lon="-4.32982333">
        <ele>294.0</ele>
        <time>2018-05-19T07:16:59.862Z</time>
      </trkpt>
      <trkpt lat="43.28774167" lon="-4.32986167">
        <ele>295.0</ele>
        <time>2018-05-19T07:17:00.853Z</time>
      </trkpt>
      <trkpt lat="43.28774167" lon="-4.32986167">
        <ele>295.0</ele>
        <time>2018-05-19T07:17:01.851Z</time>
      </trkpt>
      <trkpt lat="43.28772167" lon="-4.32991">
        <ele>296.0</ele>
        <time>2018-05-19T07:17:02.868Z</time>
      </trkpt>
      <trkpt lat="43.28772167" lon="-4.32991">
        <ele>296.0</ele>
        <time>2018-05-19T07:17:03.853Z</time>
      </trkpt>
      <trkpt lat="43.2877" lon="-4.329955">
        <ele>296.0</ele>
        <time>2018-05-19T07:17:04.858Z</time>
      </trkpt>
      <trkpt lat="43.2877" lon="-4.329955">
        <ele>296.0</ele>
        <time>2018-05-19T07:17:05.853Z</time>
      </trkpt>
      <trkpt lat="43.28767333" lon="-4.32999833">
        <ele>297.0</ele>
        <time>2018-05-19T07:17:06.856Z</time>
      </trkpt>
      <trkpt lat="43.28767333" lon="-4.32999833">
        <ele>297.0</ele>
        <time>2018-05-19T07:17:07.850Z</time>
      </trkpt>
      <trkpt lat="43.287645" lon="-4.33003">
        <ele>298.0</ele>
        <time>2018-05-19T07:17:08.872Z</time>
      </trkpt>
      <trkpt lat="43.28763333" lon="-4.330045">
        <ele>298.0</ele>
        <time>2018-05-19T07:17:09.858Z</time>
      </trkpt>
      <trkpt lat="43.28763333" lon="-4.330045">
        <ele>298.0</ele>
        <time>2018-05-19T07:17:10.853Z</time>
      </trkpt>
      <trkpt lat="43.28761167" lon="-4.33007167">
        <ele>299.0</ele>
        <time>2018-05-19T07:17:11.856Z</time>
      </trkpt>
      <trkpt lat="43.287605" lon="-4.33008167">
        <ele>299.0</ele>
        <time>2018-05-19T07:17:12.857Z</time>
      </trkpt>
      <trkpt lat="43.287605" lon="-4.33008167">
        <ele>299.0</ele>
        <time>2018-05-19T07:17:13.851Z</time>
      </trkpt>
      <trkpt lat="43.28758167" lon="-4.33011833">
        <ele>300.0</ele>
        <time>2018-05-19T07:17:14.856Z</time>
      </trkpt>
      <trkpt lat="43.28758167" lon="-4.33011833">
        <ele>300.0</ele>
        <time>2018-05-19T07:17:15.848Z</time>
      </trkpt>
      <trkpt lat="43.28757333" lon="-4.33016">
        <ele>300.0</ele>
        <time>2018-05-19T07:17:16.872Z</time>
      </trkpt>
      <trkpt lat="43.28757333" lon="-4.33016">
        <ele>300.0</ele>
        <time>2018-05-19T07:17:17.860Z</time>
      </trkpt>
      <trkpt lat="43.287555" lon="-4.33019333">
        <ele>301.0</ele>
        <time>2018-05-19T07:17:18.857Z</time>
      </trkpt>
      <trkpt lat="43.287555" lon="-4.33019333">
        <ele>301.0</ele>
        <time>2018-05-19T07:17:19.854Z</time>
      </trkpt>
      <trkpt lat="43.28754167" lon="-4.33022667">
        <ele>301.0</ele>
        <time>2018-05-19T07:17:20.853Z</time>
      </trkpt>
      <trkpt lat="43.287535" lon="-4.330245">
        <ele>302.0</ele>
        <time>2018-05-19T07:17:21.854Z</time>
      </trkpt>
      <trkpt lat="43.287535" lon="-4.330245">
        <ele>302.0</ele>
        <time>2018-05-19T07:17:22.853Z</time>
      </trkpt>
      <trkpt lat="43.287515" lon="-4.33029">
        <ele>302.0</ele>
        <time>2018-05-19T07:17:23.856Z</time>
      </trkpt>
      <trkpt lat="43.28750667" lon="-4.33030833">
        <ele>302.0</ele>
        <time>2018-05-19T07:17:24.857Z</time>
      </trkpt>
      <trkpt lat="43.28750667" lon="-4.33030833">
        <ele>302.0</ele>
        <time>2018-05-19T07:17:25.851Z</time>
      </trkpt>
      <trkpt lat="43.28749333" lon="-4.330345">
        <ele>303.0</ele>
        <time>2018-05-19T07:17:26.856Z</time>
      </trkpt>
      <trkpt lat="43.28749333" lon="-4.330345">
        <ele>303.0</ele>
        <time>2018-05-19T07:17:27.850Z</time>
      </trkpt>
      <trkpt lat="43.28747667" lon="-4.33038167">
        <ele>303.0</ele>
        <time>2018-05-19T07:17:28.872Z</time>
      </trkpt>
      <trkpt lat="43.28747667" lon="-4.33038167">
        <ele>303.0</ele>
        <time>2018-05-19T07:17:29.856Z</time>
      </trkpt>
      <trkpt lat="43.28746667" lon="-4.33041667">
        <ele>304.0</ele>
        <time>2018-05-19T07:17:30.860Z</time>
      </trkpt>
      <trkpt lat="43.28746667" lon="-4.33041667">
        <ele>304.0</ele>
        <time>2018-05-19T07:17:31.854Z</time>
      </trkpt>
      <trkpt lat="43.28746167" lon="-4.33044667">
        <ele>304.0</ele>
        <time>2018-05-19T07:17:32.857Z</time>
      </trkpt>
      <trkpt lat="43.28746167" lon="-4.33044667">
        <ele>304.0</ele>
        <time>2018-05-19T07:17:33.850Z</time>
      </trkpt>
      <trkpt lat="43.28742833" lon="-4.33049">
        <ele>305.0</ele>
        <time>2018-05-19T07:17:34.859Z</time>
      </trkpt>
      <trkpt lat="43.28742833" lon="-4.33049">
        <ele>305.0</ele>
        <time>2018-05-19T07:17:35.853Z</time>
      </trkpt>
      <trkpt lat="43.28741" lon="-4.33052667">
        <ele>305.0</ele>
        <time>2018-05-19T07:17:36.857Z</time>
      </trkpt>
      <trkpt lat="43.28741" lon="-4.33052667">
        <ele>305.0</ele>
        <time>2018-05-19T07:17:37.848Z</time>
      </trkpt>
      <trkpt lat="43.28739667" lon="-4.33056833">
        <ele>305.0</ele>
        <time>2018-05-19T07:17:38.872Z</time>
      </trkpt>
      <trkpt lat="43.28738833" lon="-4.33059333">
        <ele>305.0</ele>
        <time>2018-05-19T07:17:39.866Z</time>
      </trkpt>
      <trkpt lat="43.28738833" lon="-4.33059333">
        <ele>305.0</ele>
        <time>2018-05-19T07:17:40.856Z</time>
      </trkpt>
      <trkpt lat="43.28737833" lon="-4.33064167">
        <ele>306.0</ele>
        <time>2018-05-19T07:17:41.856Z</time>
      </trkpt>
      <trkpt lat="43.28737833" lon="-4.33064167">
        <ele>306.0</ele>
        <time>2018-05-19T07:17:42.853Z</time>
      </trkpt>
      <trkpt lat="43.28737" lon="-4.33068833">
        <ele>306.0</ele>
        <time>2018-05-19T07:17:43.856Z</time>
      </trkpt>
      <trkpt lat="43.28736333" lon="-4.33071167">
        <ele>306.0</ele>
        <time>2018-05-19T07:17:44.857Z</time>
      </trkpt>
      <trkpt lat="43.28735833" lon="-4.33073667">
        <ele>307.0</ele>
        <time>2018-05-19T07:17:45.867Z</time>
      </trkpt>
      <trkpt lat="43.28735833" lon="-4.33073667">
        <ele>307.0</ele>
        <time>2018-05-19T07:17:46.852Z</time>
      </trkpt>
      <trkpt lat="43.28734833" lon="-4.33078167">
        <ele>307.0</ele>
        <time>2018-05-19T07:17:47.857Z</time>
      </trkpt>
      <trkpt lat="43.28734833" lon="-4.33078167">
        <ele>307.0</ele>
        <time>2018-05-19T07:17:48.858Z</time>
      </trkpt>
      <trkpt lat="43.28734167" lon="-4.33082833">
        <ele>307.0</ele>
        <time>2018-05-19T07:17:49.860Z</time>
      </trkpt>
      <trkpt lat="43.28734167" lon="-4.33082833">
        <ele>307.0</ele>
        <time>2018-05-19T07:17:50.854Z</time>
      </trkpt>
      <trkpt lat="43.287335" lon="-4.33086833">
        <ele>308.0</ele>
        <time>2018-05-19T07:17:51.856Z</time>
      </trkpt>
      <trkpt lat="43.28733167" lon="-4.33088833">
        <ele>308.0</ele>
        <time>2018-05-19T07:17:52.860Z</time>
      </trkpt>
      <trkpt lat="43.28733167" lon="-4.33088833">
        <ele>308.0</ele>
        <time>2018-05-19T07:17:53.851Z</time>
      </trkpt>
      <trkpt lat="43.28732" lon="-4.33092333">
        <ele>308.0</ele>
        <time>2018-05-19T07:17:54.857Z</time>
      </trkpt>
      <trkpt lat="43.28732" lon="-4.33092333">
        <ele>308.0</ele>
        <time>2018-05-19T07:17:55.851Z</time>
      </trkpt>
      <trkpt lat="43.28731667" lon="-4.33096333">
        <ele>309.0</ele>
        <time>2018-05-19T07:17:56.858Z</time>
      </trkpt>
      <trkpt lat="43.28731667" lon="-4.33096333">
        <ele>309.0</ele>
        <time>2018-05-19T07:17:57.848Z</time>
      </trkpt>
      <trkpt lat="43.28731167" lon="-4.331015">
        <ele>309.0</ele>
        <time>2018-05-19T07:17:58.872Z</time>
      </trkpt>
      <trkpt lat="43.28731167" lon="-4.331015">
        <ele>309.0</ele>
        <time>2018-05-19T07:17:59.861Z</time>
      </trkpt>
      <trkpt lat="43.28731833" lon="-4.33106667">
        <ele>310.0</ele>
        <time>2018-05-19T07:18:00.857Z</time>
      </trkpt>
      <trkpt lat="43.28731833" lon="-4.33109333">
        <ele>310.0</ele>
        <time>2018-05-19T07:18:01.857Z</time>
      </trkpt>
      <trkpt lat="43.28731833" lon="-4.33109333">
        <ele>310.0</ele>
        <time>2018-05-19T07:18:02.862Z</time>
      </trkpt>
      <trkpt lat="43.28731667" lon="-4.33114167">
        <ele>311.0</ele>
        <time>2018-05-19T07:18:03.855Z</time>
      </trkpt>
      <trkpt lat="43.28731333" lon="-4.33116667">
        <ele>311.0</ele>
        <time>2018-05-19T07:18:04.858Z</time>
      </trkpt>
      <trkpt lat="43.28731333" lon="-4.33116667">
        <ele>311.0</ele>
        <time>2018-05-19T07:18:05.851Z</time>
      </trkpt>
      <trkpt lat="43.28731667" lon="-4.33120667">
        <ele>312.0</ele>
        <time>2018-05-19T07:18:06.857Z</time>
      </trkpt>
      <trkpt lat="43.28731667" lon="-4.33120667">
        <ele>312.0</ele>
        <time>2018-05-19T07:18:07.850Z</time>
      </trkpt>
      <trkpt lat="43.28731667" lon="-4.33125167">
        <ele>313.0</ele>
        <time>2018-05-19T07:18:08.856Z</time>
      </trkpt>
      <trkpt lat="43.28731667" lon="-4.33125167">
        <ele>313.0</ele>
        <time>2018-05-19T07:18:09.854Z</time>
      </trkpt>
      <trkpt lat="43.28732" lon="-4.33129667">
        <ele>314.0</ele>
        <time>2018-05-19T07:18:10.858Z</time>
      </trkpt>
      <trkpt lat="43.28732" lon="-4.33129667">
        <ele>314.0</ele>
        <time>2018-05-19T07:18:11.851Z</time>
      </trkpt>
      <trkpt lat="43.28731333" lon="-4.33134833">
        <ele>315.0</ele>
        <time>2018-05-19T07:18:12.860Z</time>
      </trkpt>
      <trkpt lat="43.28731333" lon="-4.33134833">
        <ele>315.0</ele>
        <time>2018-05-19T07:18:13.854Z</time>
      </trkpt>
      <trkpt lat="43.28730833" lon="-4.33140167">
        <ele>316.0</ele>
        <time>2018-05-19T07:18:14.857Z</time>
      </trkpt>
      <trkpt lat="43.287305" lon="-4.33143167">
        <ele>316.0</ele>
        <time>2018-05-19T07:18:15.857Z</time>
      </trkpt>
      <trkpt lat="43.287305" lon="-4.33143167">
        <ele>316.0</ele>
        <time>2018-05-19T07:18:16.855Z</time>
      </trkpt>
      <trkpt lat="43.28730167" lon="-4.33149333">
        <ele>317.0</ele>
        <time>2018-05-19T07:18:17.856Z</time>
      </trkpt>
      <trkpt lat="43.2873" lon="-4.33152833">
        <ele>317.0</ele>
        <time>2018-05-19T07:18:18.859Z</time>
      </trkpt>
      <trkpt lat="43.2873" lon="-4.33152833">
        <ele>317.0</ele>
        <time>2018-05-19T07:18:19.850Z</time>
      </trkpt>
      <trkpt lat="43.28730333" lon="-4.331595">
        <ele>317.0</ele>
        <time>2018-05-19T07:18:20.872Z</time>
      </trkpt>
      <trkpt lat="43.28730333" lon="-4.331595">
        <ele>317.0</ele>
        <time>2018-05-19T07:18:21.857Z</time>
      </trkpt>
      <trkpt lat="43.28730833" lon="-4.33165833">
        <ele>318.0</ele>
        <time>2018-05-19T07:18:22.861Z</time>
      </trkpt>
      <trkpt lat="43.28730833" lon="-4.33165833">
        <ele>318.0</ele>
        <time>2018-05-19T07:18:23.851Z</time>
      </trkpt>
      <trkpt lat="43.28731" lon="-4.33172167">
        <ele>318.0</ele>
        <time>2018-05-19T07:18:24.856Z</time>
      </trkpt>
      <trkpt lat="43.28731" lon="-4.33172167">
        <ele>318.0</ele>
        <time>2018-05-19T07:18:25.850Z</time>
      </trkpt>
      <trkpt lat="43.28731167" lon="-4.33178333">
        <ele>318.0</ele>
        <time>2018-05-19T07:18:26.854Z</time>
      </trkpt>
      <trkpt lat="43.28731167" lon="-4.33181833">
        <ele>318.0</ele>
        <time>2018-05-19T07:18:27.857Z</time>
      </trkpt>
      <trkpt lat="43.28731167" lon="-4.33181833">
        <ele>318.0</ele>
        <time>2018-05-19T07:18:28.855Z</time>
      </trkpt>
      <trkpt lat="43.28731833" lon="-4.33189">
        <ele>319.0</ele>
        <time>2018-05-19T07:18:29.857Z</time>
      </trkpt>
      <trkpt lat="43.28731833" lon="-4.33189">
        <ele>319.0</ele>
        <time>2018-05-19T07:18:30.854Z</time>
      </trkpt>
      <trkpt lat="43.28732333" lon="-4.33196333">
        <ele>319.0</ele>
        <time>2018-05-19T07:18:31.857Z</time>
      </trkpt>
      <trkpt lat="43.28732333" lon="-4.33196333">
        <ele>319.0</ele>
        <time>2018-05-19T07:18:32.855Z</time>
      </trkpt>
      <trkpt lat="43.28732833" lon="-4.33203667">
        <ele>319.0</ele>
        <time>2018-05-19T07:18:33.857Z</time>
      </trkpt>
      <trkpt lat="43.28732833" lon="-4.33203667">
        <ele>319.0</ele>
        <time>2018-05-19T07:18:34.858Z</time>
      </trkpt>
      <trkpt lat="43.28733167" lon="-4.33211333">
        <ele>320.0</ele>
        <time>2018-05-19T07:18:35.857Z</time>
      </trkpt>
      <trkpt lat="43.28733" lon="-4.33215">
        <ele>320.0</ele>
        <time>2018-05-19T07:18:36.857Z</time>
      </trkpt>
      <trkpt lat="43.28733" lon="-4.33215">
        <ele>320.0</ele>
        <time>2018-05-19T07:18:37.851Z</time>
      </trkpt>
      <trkpt lat="43.28733" lon="-4.33222333">
        <ele>320.0</ele>
        <time>2018-05-19T07:18:38.855Z</time>
      </trkpt>
      <trkpt lat="43.28732833" lon="-4.33225667">
        <ele>320.0</ele>
        <time>2018-05-19T07:18:39.859Z</time>
      </trkpt>
      <trkpt lat="43.28732333" lon="-4.33229167">
        <ele>320.0</ele>
        <time>2018-05-19T07:18:40.858Z</time>
      </trkpt>
      <trkpt lat="43.28732333" lon="-4.33229167">
        <ele>320.0</ele>
        <time>2018-05-19T07:18:41.851Z</time>
      </trkpt>
      <trkpt lat="43.28731833" lon="-4.33235833">
        <ele>320.0</ele>
        <time>2018-05-19T07:18:42.863Z</time>
      </trkpt>
      <trkpt lat="43.28731833" lon="-4.33235833">
        <ele>320.0</ele>
        <time>2018-05-19T07:18:43.851Z</time>
      </trkpt>
      <trkpt lat="43.28731667" lon="-4.332425">
        <ele>321.0</ele>
        <time>2018-05-19T07:18:44.857Z</time>
      </trkpt>
      <trkpt lat="43.28731667" lon="-4.332425">
        <ele>321.0</ele>
        <time>2018-05-19T07:18:45.867Z</time>
      </trkpt>
      <trkpt lat="43.28731833" lon="-4.33248833">
        <ele>321.0</ele>
        <time>2018-05-19T07:18:46.870Z</time>
      </trkpt>
      <trkpt lat="43.28731833" lon="-4.33248833">
        <ele>321.0</ele>
        <time>2018-05-19T07:18:47.867Z</time>
      </trkpt>
      <trkpt lat="43.28731333" lon="-4.33254833">
        <ele>321.0</ele>
        <time>2018-05-19T07:18:48.857Z</time>
      </trkpt>
      <trkpt lat="43.28731333" lon="-4.33254833">
        <ele>321.0</ele>
        <time>2018-05-19T07:18:49.848Z</time>
      </trkpt>
      <trkpt lat="43.28731333" lon="-4.33260667">
        <ele>322.0</ele>
        <time>2018-05-19T07:18:50.856Z</time>
      </trkpt>
      <trkpt lat="43.28731667" lon="-4.33264">
        <ele>322.0</ele>
        <time>2018-05-19T07:18:51.856Z</time>
      </trkpt>
      <trkpt lat="43.28731667" lon="-4.33264">
        <ele>322.0</ele>
        <time>2018-05-19T07:18:52.859Z</time>
      </trkpt>
      <trkpt lat="43.28732333" lon="-4.33270667">
        <ele>322.0</ele>
        <time>2018-05-19T07:18:53.854Z</time>
      </trkpt>
      <trkpt lat="43.28732333" lon="-4.33270667">
        <ele>322.0</ele>
        <time>2018-05-19T07:18:54.852Z</time>
      </trkpt>
      <trkpt lat="43.28733667" lon="-4.33277167">
        <ele>322.0</ele>
        <time>2018-05-19T07:18:55.855Z</time>
      </trkpt>
      <trkpt lat="43.28733667" lon="-4.33277167">
        <ele>322.0</ele>
        <time>2018-05-19T07:18:56.848Z</time>
      </trkpt>
      <trkpt lat="43.28736" lon="-4.33284167">
        <ele>322.0</ele>
        <time>2018-05-19T07:18:57.871Z</time>
      </trkpt>
      <trkpt lat="43.28736" lon="-4.33284167">
        <ele>322.0</ele>
        <time>2018-05-19T07:18:58.860Z</time>
      </trkpt>
      <trkpt lat="43.287415" lon="-4.332925">
        <ele>321.0</ele>
        <time>2018-05-19T07:18:59.868Z</time>
      </trkpt>
      <trkpt lat="43.28746833" lon="-4.33296833">
        <ele>321.0</ele>
        <time>2018-05-19T07:19:00.856Z</time>
      </trkpt>
      <trkpt lat="43.28753" lon="-4.33300167">
        <ele>320.0</ele>
        <time>2018-05-19T07:19:01.856Z</time>
      </trkpt>
      <trkpt lat="43.28753" lon="-4.33300167">
        <ele>320.0</ele>
        <time>2018-05-19T07:19:02.850Z</time>
      </trkpt>
      <trkpt lat="43.28767667" lon="-4.33304167">
        <ele>319.0</ele>
        <time>2018-05-19T07:19:03.856Z</time>
      </trkpt>
      <trkpt lat="43.28767667" lon="-4.33304167">
        <ele>319.0</ele>
        <time>2018-05-19T07:19:04.854Z</time>
      </trkpt>
      <trkpt lat="43.28784833" lon="-4.33305333">
        <ele>318.0</ele>
        <time>2018-05-19T07:19:05.856Z</time>
      </trkpt>
      <trkpt lat="43.28792667" lon="-4.33306333">
        <ele>318.0</ele>
        <time>2018-05-19T07:19:06.856Z</time>
      </trkpt>
      <trkpt lat="43.28792667" lon="-4.33306333">
        <ele>318.0</ele>
        <time>2018-05-19T07:19:07.852Z</time>
      </trkpt>
      <trkpt lat="43.288075" lon="-4.33309">
        <ele>318.0</ele>
        <time>2018-05-19T07:19:08.855Z</time>
      </trkpt>
      <trkpt lat="43.288075" lon="-4.33309">
        <ele>318.0</ele>
        <time>2018-05-19T07:19:09.870Z</time>
      </trkpt>
      <trkpt lat="43.28819" lon="-4.33311">
        <ele>319.0</ele>
        <time>2018-05-19T07:19:10.858Z</time>
      </trkpt>
      <trkpt lat="43.28823333" lon="-4.333115">
        <ele>320.0</ele>
        <time>2018-05-19T07:19:11.857Z</time>
      </trkpt>
      <trkpt lat="43.288265" lon="-4.33311833">
        <ele>320.0</ele>
        <time>2018-05-19T07:19:12.856Z</time>
      </trkpt>
      <trkpt lat="43.288265" lon="-4.33311833">
        <ele>320.0</ele>
        <time>2018-05-19T07:19:13.854Z</time>
      </trkpt>
      <trkpt lat="43.288315" lon="-4.33311833">
        <ele>321.0</ele>
        <time>2018-05-19T07:19:14.857Z</time>
      </trkpt>
      <trkpt lat="43.288315" lon="-4.33311833">
        <ele>321.0</ele>
        <time>2018-05-19T07:19:15.863Z</time>
      </trkpt>
      <trkpt lat="43.28837" lon="-4.33313167">
        <ele>321.0</ele>
        <time>2018-05-19T07:19:16.857Z</time>
      </trkpt>
      <trkpt lat="43.28840167" lon="-4.33314">
        <ele>321.0</ele>
        <time>2018-05-19T07:19:17.857Z</time>
      </trkpt>
      <trkpt lat="43.28840167" lon="-4.33314">
        <ele>321.0</ele>
        <time>2018-05-19T07:19:18.854Z</time>
      </trkpt>
      <trkpt lat="43.28847" lon="-4.33315">
        <ele>322.0</ele>
        <time>2018-05-19T07:19:19.856Z</time>
      </trkpt>
      <trkpt lat="43.28847" lon="-4.33315">
        <ele>322.0</ele>
        <time>2018-05-19T07:19:20.847Z</time>
      </trkpt>
      <trkpt lat="43.28854833" lon="-4.33314833">
        <ele>322.0</ele>
        <time>2018-05-19T07:19:21.855Z</time>
      </trkpt>
      <trkpt lat="43.28858667" lon="-4.33314333">
        <ele>322.0</ele>
        <time>2018-05-19T07:19:22.857Z</time>
      </trkpt>
      <trkpt lat="43.28862" lon="-4.33313167">
        <ele>322.0</ele>
        <time>2018-05-19T07:19:23.857Z</time>
      </trkpt>
      <trkpt lat="43.28862" lon="-4.33313167">
        <ele>322.0</ele>
        <time>2018-05-19T07:19:24.851Z</time>
      </trkpt>
      <trkpt lat="43.288685" lon="-4.33308333">
        <ele>323.0</ele>
        <time>2018-05-19T07:19:25.855Z</time>
      </trkpt>
      <trkpt lat="43.28871833" lon="-4.33305333">
        <ele>323.0</ele>
        <time>2018-05-19T07:19:26.858Z</time>
      </trkpt>
      <trkpt lat="43.28871833" lon="-4.33305333">
        <ele>323.0</ele>
        <time>2018-05-19T07:19:27.848Z</time>
      </trkpt>
      <trkpt lat="43.28877" lon="-4.33298667">
        <ele>325.0</ele>
        <time>2018-05-19T07:19:28.871Z</time>
      </trkpt>
      <trkpt lat="43.28877" lon="-4.33298667">
        <ele>325.0</ele>
        <time>2018-05-19T07:19:29.856Z</time>
      </trkpt>
      <trkpt lat="43.28881667" lon="-4.33293167">
        <ele>326.0</ele>
        <time>2018-05-19T07:19:30.856Z</time>
      </trkpt>
      <trkpt lat="43.28881667" lon="-4.33293167">
        <ele>326.0</ele>
        <time>2018-05-19T07:19:31.850Z</time>
      </trkpt>
      <trkpt lat="43.28885833" lon="-4.33287833">
        <ele>326.0</ele>
        <time>2018-05-19T07:19:32.855Z</time>
      </trkpt>
      <trkpt lat="43.28885833" lon="-4.33287833">
        <ele>326.0</ele>
        <time>2018-05-19T07:19:33.849Z</time>
      </trkpt>
      <trkpt lat="43.2889" lon="-4.33282333">
        <ele>327.0</ele>
        <time>2018-05-19T07:19:34.855Z</time>
      </trkpt>
      <trkpt lat="43.2889" lon="-4.33282333">
        <ele>327.0</ele>
        <time>2018-05-19T07:19:35.850Z</time>
      </trkpt>
      <trkpt lat="43.28894333" lon="-4.33278">
        <ele>328.0</ele>
        <time>2018-05-19T07:19:36.856Z</time>
      </trkpt>
      <trkpt lat="43.28894333" lon="-4.33278">
        <ele>328.0</ele>
        <time>2018-05-19T07:19:37.850Z</time>
      </trkpt>
      <trkpt lat="43.289005" lon="-4.332735">
        <ele>328.0</ele>
        <time>2018-05-19T07:19:38.872Z</time>
      </trkpt>
      <trkpt lat="43.289005" lon="-4.332735">
        <ele>328.0</ele>
        <time>2018-05-19T07:19:39.864Z</time>
      </trkpt>
      <trkpt lat="43.28906833" lon="-4.33268833">
        <ele>329.0</ele>
        <time>2018-05-19T07:19:40.857Z</time>
      </trkpt>
      <trkpt lat="43.28906833" lon="-4.33268833">
        <ele>329.0</ele>
        <time>2018-05-19T07:19:41.850Z</time>
      </trkpt>
      <trkpt lat="43.28913333" lon="-4.33265833">
        <ele>330.0</ele>
        <time>2018-05-19T07:19:42.857Z</time>
      </trkpt>
      <trkpt lat="43.28913333" lon="-4.33265833">
        <ele>330.0</ele>
        <time>2018-05-19T07:19:43.859Z</time>
      </trkpt>
      <trkpt lat="43.28920333" lon="-4.33264833">
        <ele>331.0</ele>
        <time>2018-05-19T07:19:44.855Z</time>
      </trkpt>
      <trkpt lat="43.28920333" lon="-4.33264833">
        <ele>331.0</ele>
        <time>2018-05-19T07:19:45.867Z</time>
      </trkpt>
      <trkpt lat="43.28928" lon="-4.33263667">
        <ele>331.0</ele>
        <time>2018-05-19T07:19:46.860Z</time>
      </trkpt>
      <trkpt lat="43.28928" lon="-4.33263667">
        <ele>331.0</ele>
        <time>2018-05-19T07:19:47.848Z</time>
      </trkpt>
      <trkpt lat="43.28935333" lon="-4.33263167">
        <ele>331.0</ele>
        <time>2018-05-19T07:19:48.871Z</time>
      </trkpt>
      <trkpt lat="43.28935333" lon="-4.33263167">
        <ele>331.0</ele>
        <time>2018-05-19T07:19:49.856Z</time>
      </trkpt>
      <trkpt lat="43.28942833" lon="-4.33263">
        <ele>332.0</ele>
        <time>2018-05-19T07:19:50.857Z</time>
      </trkpt>
      <trkpt lat="43.28942833" lon="-4.33263">
        <ele>332.0</ele>
        <time>2018-05-19T07:19:51.850Z</time>
      </trkpt>
      <trkpt lat="43.28951333" lon="-4.33264333">
        <ele>332.0</ele>
        <time>2018-05-19T07:19:52.857Z</time>
      </trkpt>
      <trkpt lat="43.28951333" lon="-4.33264333">
        <ele>332.0</ele>
        <time>2018-05-19T07:19:53.865Z</time>
      </trkpt>
      <trkpt lat="43.289605" lon="-4.332665">
        <ele>331.0</ele>
        <time>2018-05-19T07:19:54.856Z</time>
      </trkpt>
      <trkpt lat="43.289605" lon="-4.332665">
        <ele>331.0</ele>
        <time>2018-05-19T07:19:55.851Z</time>
      </trkpt>
      <trkpt lat="43.289705" lon="-4.33269667">
        <ele>331.0</ele>
        <time>2018-05-19T07:19:56.853Z</time>
      </trkpt>
      <trkpt lat="43.289705" lon="-4.33269667">
        <ele>331.0</ele>
        <time>2018-05-19T07:19:57.850Z</time>
      </trkpt>
      <trkpt lat="43.28982" lon="-4.33273667">
        <ele>331.0</ele>
        <time>2018-05-19T07:19:58.874Z</time>
      </trkpt>
      <trkpt lat="43.28982" lon="-4.33273667">
        <ele>331.0</ele>
        <time>2018-05-19T07:19:59.860Z</time>
      </trkpt>
      <trkpt lat="43.28993" lon="-4.33278333">
        <ele>332.0</ele>
        <time>2018-05-19T07:20:00.856Z</time>
      </trkpt>
      <trkpt lat="43.28993" lon="-4.33278333">
        <ele>332.0</ele>
        <time>2018-05-19T07:20:01.854Z</time>
      </trkpt>
      <trkpt lat="43.29003167" lon="-4.33285167">
        <ele>332.0</ele>
        <time>2018-05-19T07:20:02.855Z</time>
      </trkpt>
      <trkpt lat="43.29003167" lon="-4.33285167">
        <ele>332.0</ele>
        <time>2018-05-19T07:20:03.850Z</time>
      </trkpt>
      <trkpt lat="43.29011" lon="-4.33294167">
        <ele>332.0</ele>
        <time>2018-05-19T07:20:04.872Z</time>
      </trkpt>
      <trkpt lat="43.29011" lon="-4.33294167">
        <ele>332.0</ele>
        <time>2018-05-19T07:20:05.857Z</time>
      </trkpt>
      <trkpt lat="43.29018667" lon="-4.33303167">
        <ele>333.0</ele>
        <time>2018-05-19T07:20:06.853Z</time>
      </trkpt>
      <trkpt lat="43.29018667" lon="-4.33303167">
        <ele>333.0</ele>
        <time>2018-05-19T07:20:07.882Z</time>
      </trkpt>
      <trkpt lat="43.29026" lon="-4.333115">
        <ele>333.0</ele>
        <time>2018-05-19T07:20:08.864Z</time>
      </trkpt>
      <trkpt lat="43.29026" lon="-4.333115">
        <ele>333.0</ele>
        <time>2018-05-19T07:20:09.853Z</time>
      </trkpt>
      <trkpt lat="43.29032833" lon="-4.333185">
        <ele>334.0</ele>
        <time>2018-05-19T07:20:10.863Z</time>
      </trkpt>
      <trkpt lat="43.29036833" lon="-4.33320833">
        <ele>334.0</ele>
        <time>2018-05-19T07:20:11.857Z</time>
      </trkpt>
      <trkpt lat="43.29036833" lon="-4.33320833">
        <ele>334.0</ele>
        <time>2018-05-19T07:20:12.853Z</time>
      </trkpt>
      <trkpt lat="43.29044833" lon="-4.333265">
        <ele>334.0</ele>
        <time>2018-05-19T07:20:13.861Z</time>
      </trkpt>
      <trkpt lat="43.29044833" lon="-4.333265">
        <ele>334.0</ele>
        <time>2018-05-19T07:20:14.855Z</time>
      </trkpt>
      <trkpt lat="43.29052667" lon="-4.33330833">
        <ele>335.0</ele>
        <time>2018-05-19T07:20:15.855Z</time>
      </trkpt>
      <trkpt lat="43.29056667" lon="-4.33333167">
        <ele>335.0</ele>
        <time>2018-05-19T07:20:16.856Z</time>
      </trkpt>
      <trkpt lat="43.29056667" lon="-4.33333167">
        <ele>335.0</ele>
        <time>2018-05-19T07:20:17.850Z</time>
      </trkpt>
      <trkpt lat="43.29065" lon="-4.33337333">
        <ele>335.0</ele>
        <time>2018-05-19T07:20:18.856Z</time>
      </trkpt>
      <trkpt lat="43.29065" lon="-4.33337333">
        <ele>335.0</ele>
        <time>2018-05-19T07:20:19.850Z</time>
      </trkpt>
      <trkpt lat="43.29073333" lon="-4.33341167">
        <ele>335.0</ele>
        <time>2018-05-19T07:20:20.872Z</time>
      </trkpt>
      <trkpt lat="43.29073333" lon="-4.33341167">
        <ele>335.0</ele>
        <time>2018-05-19T07:20:21.857Z</time>
      </trkpt>
      <trkpt lat="43.290815" lon="-4.33345">
        <ele>336.0</ele>
        <time>2018-05-19T07:20:22.857Z</time>
      </trkpt>
      <trkpt lat="43.290815" lon="-4.33345">
        <ele>336.0</ele>
        <time>2018-05-19T07:20:23.859Z</time>
      </trkpt>
      <trkpt lat="43.29089833" lon="-4.33347333">
        <ele>336.0</ele>
        <time>2018-05-19T07:20:24.857Z</time>
      </trkpt>
      <trkpt lat="43.29089833" lon="-4.33347333">
        <ele>336.0</ele>
        <time>2018-05-19T07:20:25.854Z</time>
      </trkpt>
      <trkpt lat="43.29098167" lon="-4.33349">
        <ele>336.0</ele>
        <time>2018-05-19T07:20:26.857Z</time>
      </trkpt>
      <trkpt lat="43.29098167" lon="-4.33349">
        <ele>336.0</ele>
        <time>2018-05-19T07:20:27.851Z</time>
      </trkpt>
      <trkpt lat="43.29106333" lon="-4.3335">
        <ele>337.0</ele>
        <time>2018-05-19T07:20:28.856Z</time>
      </trkpt>
      <trkpt lat="43.29106333" lon="-4.3335">
        <ele>337.0</ele>
        <time>2018-05-19T07:20:29.850Z</time>
      </trkpt>
      <trkpt lat="43.29114333" lon="-4.33350167">
        <ele>337.0</ele>
        <time>2018-05-19T07:20:30.872Z</time>
      </trkpt>
      <trkpt lat="43.29114333" lon="-4.33350167">
        <ele>337.0</ele>
        <time>2018-05-19T07:20:31.856Z</time>
      </trkpt>
      <trkpt lat="43.29122167" lon="-4.33350167">
        <ele>337.0</ele>
        <time>2018-05-19T07:20:32.855Z</time>
      </trkpt>
      <trkpt lat="43.29125833" lon="-4.33350167">
        <ele>338.0</ele>
        <time>2018-05-19T07:20:33.859Z</time>
      </trkpt>
      <trkpt lat="43.29125833" lon="-4.33350167">
        <ele>338.0</ele>
        <time>2018-05-19T07:20:34.850Z</time>
      </trkpt>
      <trkpt lat="43.29132667" lon="-4.33351">
        <ele>338.0</ele>
        <time>2018-05-19T07:20:35.861Z</time>
      </trkpt>
      <trkpt lat="43.29136" lon="-4.33352167">
        <ele>338.0</ele>
        <time>2018-05-19T07:20:36.857Z</time>
      </trkpt>
      <trkpt lat="43.29136" lon="-4.33352167">
        <ele>338.0</ele>
        <time>2018-05-19T07:20:37.848Z</time>
      </trkpt>
      <trkpt lat="43.291425" lon="-4.33355667">
        <ele>338.0</ele>
        <time>2018-05-19T07:20:38.856Z</time>
      </trkpt>
      <trkpt lat="43.29145833" lon="-4.33358">
        <ele>338.0</ele>
        <time>2018-05-19T07:20:39.856Z</time>
      </trkpt>
      <trkpt lat="43.29145833" lon="-4.33358">
        <ele>338.0</ele>
        <time>2018-05-19T07:20:40.855Z</time>
      </trkpt>
      <trkpt lat="43.29152833" lon="-4.333635">
        <ele>338.0</ele>
        <time>2018-05-19T07:20:41.852Z</time>
      </trkpt>
      <trkpt lat="43.291565" lon="-4.333665">
        <ele>337.0</ele>
        <time>2018-05-19T07:20:42.855Z</time>
      </trkpt>
      <trkpt lat="43.291565" lon="-4.333665">
        <ele>337.0</ele>
        <time>2018-05-19T07:20:43.856Z</time>
      </trkpt>
      <trkpt lat="43.29164167" lon="-4.33374">
        <ele>337.0</ele>
        <time>2018-05-19T07:20:44.880Z</time>
      </trkpt>
      <trkpt lat="43.29164167" lon="-4.33374">
        <ele>337.0</ele>
        <time>2018-05-19T07:20:45.867Z</time>
      </trkpt>
      <trkpt lat="43.29174167" lon="-4.33382667">
        <ele>336.0</ele>
        <time>2018-05-19T07:20:46.856Z</time>
      </trkpt>
      <trkpt lat="43.29174167" lon="-4.33382667">
        <ele>336.0</ele>
        <time>2018-05-19T07:20:47.846Z</time>
      </trkpt>
      <trkpt lat="43.29186833" lon="-4.33391">
        <ele>335.0</ele>
        <time>2018-05-19T07:20:48.872Z</time>
      </trkpt>
      <trkpt lat="43.29186833" lon="-4.33391">
        <ele>335.0</ele>
        <time>2018-05-19T07:20:49.858Z</time>
      </trkpt>
      <trkpt lat="43.29201833" lon="-4.33398167">
        <ele>334.0</ele>
        <time>2018-05-19T07:20:50.856Z</time>
      </trkpt>
      <trkpt lat="43.29201833" lon="-4.33398167">
        <ele>334.0</ele>
        <time>2018-05-19T07:20:51.883Z</time>
      </trkpt>
      <trkpt lat="43.29218667" lon="-4.33406833">
        <ele>332.0</ele>
        <time>2018-05-19T07:20:52.874Z</time>
      </trkpt>
      <trkpt lat="43.29218667" lon="-4.33406833">
        <ele>332.0</ele>
        <time>2018-05-19T07:20:53.867Z</time>
      </trkpt>
      <trkpt lat="43.29237167" lon="-4.33416333">
        <ele>330.0</ele>
        <time>2018-05-19T07:20:54.870Z</time>
      </trkpt>
      <trkpt lat="43.29237167" lon="-4.33416333">
        <ele>330.0</ele>
        <time>2018-05-19T07:20:55.853Z</time>
      </trkpt>
      <trkpt lat="43.29256167" lon="-4.33426833">
        <ele>329.0</ele>
        <time>2018-05-19T07:20:56.856Z</time>
      </trkpt>
      <trkpt lat="43.29256167" lon="-4.33426833">
        <ele>329.0</ele>
        <time>2018-05-19T07:20:57.847Z</time>
      </trkpt>
      <trkpt lat="43.29276" lon="-4.33437">
        <ele>327.0</ele>
        <time>2018-05-19T07:20:58.873Z</time>
      </trkpt>
      <trkpt lat="43.29276" lon="-4.33437">
        <ele>327.0</ele>
        <time>2018-05-19T07:20:59.858Z</time>
      </trkpt>
      <trkpt lat="43.29296833" lon="-4.33443833">
        <ele>326.0</ele>
        <time>2018-05-19T07:21:00.856Z</time>
      </trkpt>
      <trkpt lat="43.29296833" lon="-4.33443833">
        <ele>326.0</ele>
        <time>2018-05-19T07:21:01.853Z</time>
      </trkpt>
      <trkpt lat="43.29318" lon="-4.33444">
        <ele>324.0</ele>
        <time>2018-05-19T07:21:02.853Z</time>
      </trkpt>
      <trkpt lat="43.29318" lon="-4.33444">
        <ele>324.0</ele>
        <time>2018-05-19T07:21:03.850Z</time>
      </trkpt>
      <trkpt lat="43.29335167" lon="-4.33434667">
        <ele>324.0</ele>
        <time>2018-05-19T07:21:04.853Z</time>
      </trkpt>
      <trkpt lat="43.29335167" lon="-4.33434667">
        <ele>324.0</ele>
        <time>2018-05-19T07:21:05.850Z</time>
      </trkpt>
      <trkpt lat="43.29348667" lon="-4.334205">
        <ele>323.0</ele>
        <time>2018-05-19T07:21:06.857Z</time>
      </trkpt>
      <trkpt lat="43.29348667" lon="-4.334205">
        <ele>323.0</ele>
        <time>2018-05-19T07:21:07.851Z</time>
      </trkpt>
      <trkpt lat="43.29360333" lon="-4.33405333">
        <ele>324.0</ele>
        <time>2018-05-19T07:21:08.856Z</time>
      </trkpt>
      <trkpt lat="43.29360333" lon="-4.33405333">
        <ele>324.0</ele>
        <time>2018-05-19T07:21:09.851Z</time>
      </trkpt>
      <trkpt lat="43.29369333" lon="-4.33392833">
        <ele>325.0</ele>
        <time>2018-05-19T07:21:10.858Z</time>
      </trkpt>
      <trkpt lat="43.29369333" lon="-4.33392833">
        <ele>325.0</ele>
        <time>2018-05-19T07:21:11.851Z</time>
      </trkpt>
      <trkpt lat="43.29376833" lon="-4.33382333">
        <ele>325.0</ele>
        <time>2018-05-19T07:21:12.855Z</time>
      </trkpt>
      <trkpt lat="43.29376833" lon="-4.33382333">
        <ele>325.0</ele>
        <time>2018-05-19T07:21:13.853Z</time>
      </trkpt>
      <trkpt lat="43.293835" lon="-4.33372833">
        <ele>326.0</ele>
        <time>2018-05-19T07:21:14.855Z</time>
      </trkpt>
      <trkpt lat="43.293835" lon="-4.33372833">
        <ele>326.0</ele>
        <time>2018-05-19T07:21:15.850Z</time>
      </trkpt>
      <trkpt lat="43.29389833" lon="-4.33364">
        <ele>326.0</ele>
        <time>2018-05-19T07:21:16.857Z</time>
      </trkpt>
      <trkpt lat="43.29389833" lon="-4.33364">
        <ele>326.0</ele>
        <time>2018-05-19T07:21:17.850Z</time>
      </trkpt>
      <trkpt lat="43.29396333" lon="-4.33356167">
        <ele>327.0</ele>
        <time>2018-05-19T07:21:18.872Z</time>
      </trkpt>
      <trkpt lat="43.29396333" lon="-4.33356167">
        <ele>327.0</ele>
        <time>2018-05-19T07:21:19.858Z</time>
      </trkpt>
      <trkpt lat="43.29402833" lon="-4.33348833">
        <ele>328.0</ele>
        <time>2018-05-19T07:21:20.856Z</time>
      </trkpt>
      <trkpt lat="43.29402833" lon="-4.33348833">
        <ele>328.0</ele>
        <time>2018-05-19T07:21:21.851Z</time>
      </trkpt>
      <trkpt lat="43.29408667" lon="-4.333425">
        <ele>329.0</ele>
        <time>2018-05-19T07:21:22.857Z</time>
      </trkpt>
      <trkpt lat="43.29408667" lon="-4.333425">
        <ele>329.0</ele>
        <time>2018-05-19T07:21:23.851Z</time>
      </trkpt>
      <trkpt lat="43.29413667" lon="-4.33336667">
        <ele>329.0</ele>
        <time>2018-05-19T07:21:24.856Z</time>
      </trkpt>
      <trkpt lat="43.29413667" lon="-4.33336667">
        <ele>329.0</ele>
        <time>2018-05-19T07:21:25.853Z</time>
      </trkpt>
      <trkpt lat="43.29418" lon="-4.33331">
        <ele>330.0</ele>
        <time>2018-05-19T07:21:26.855Z</time>
      </trkpt>
      <trkpt lat="43.29420333" lon="-4.333285">
        <ele>331.0</ele>
        <time>2018-05-19T07:21:27.856Z</time>
      </trkpt>
      <trkpt lat="43.29420333" lon="-4.333285">
        <ele>331.0</ele>
        <time>2018-05-19T07:21:28.854Z</time>
      </trkpt>
      <trkpt lat="43.29424833" lon="-4.33323167">
        <ele>332.0</ele>
        <time>2018-05-19T07:21:29.855Z</time>
      </trkpt>
      <trkpt lat="43.294265" lon="-4.33320333">
        <ele>332.0</ele>
        <time>2018-05-19T07:21:30.857Z</time>
      </trkpt>
      <trkpt lat="43.294265" lon="-4.33320333">
        <ele>332.0</ele>
        <time>2018-05-19T07:21:31.849Z</time>
      </trkpt>
      <trkpt lat="43.294295" lon="-4.33314167">
        <ele>333.0</ele>
        <time>2018-05-19T07:21:32.874Z</time>
      </trkpt>
      <trkpt lat="43.294295" lon="-4.33314167">
        <ele>333.0</ele>
        <time>2018-05-19T07:21:33.858Z</time>
      </trkpt>
      <trkpt lat="43.29431333" lon="-4.33308333">
        <ele>334.0</ele>
        <time>2018-05-19T07:21:34.882Z</time>
      </trkpt>
      <trkpt lat="43.29431333" lon="-4.33308333">
        <ele>334.0</ele>
        <time>2018-05-19T07:21:35.880Z</time>
      </trkpt>
      <trkpt lat="43.29432167" lon="-4.33302">
        <ele>335.0</ele>
        <time>2018-05-19T07:21:36.866Z</time>
      </trkpt>
      <trkpt lat="43.29432167" lon="-4.33302">
        <ele>335.0</ele>
        <time>2018-05-19T07:21:37.851Z</time>
      </trkpt>
      <trkpt lat="43.29433" lon="-4.33295333">
        <ele>336.0</ele>
        <time>2018-05-19T07:21:38.856Z</time>
      </trkpt>
      <trkpt lat="43.29433" lon="-4.33295333">
        <ele>336.0</ele>
        <time>2018-05-19T07:21:39.858Z</time>
      </trkpt>
      <trkpt lat="43.29432833" lon="-4.33287667">
        <ele>336.0</ele>
        <time>2018-05-19T07:21:40.857Z</time>
      </trkpt>
      <trkpt lat="43.29432833" lon="-4.33287667">
        <ele>336.0</ele>
        <time>2018-05-19T07:21:41.851Z</time>
      </trkpt>
      <trkpt lat="43.29432333" lon="-4.33281">
        <ele>337.0</ele>
        <time>2018-05-19T07:21:42.855Z</time>
      </trkpt>
      <trkpt lat="43.29432333" lon="-4.33281">
        <ele>337.0</ele>
        <time>2018-05-19T07:21:43.850Z</time>
      </trkpt>
      <trkpt lat="43.294315" lon="-4.33274">
        <ele>338.0</ele>
        <time>2018-05-19T07:21:44.844Z</time>
      </trkpt>
      <trkpt lat="43.29431667" lon="-4.33270167">
        <ele>338.0</ele>
        <time>2018-05-19T07:21:45.866Z</time>
      </trkpt>
      <trkpt lat="43.29431667" lon="-4.33270167">
        <ele>338.0</ele>
        <time>2018-05-19T07:21:46.848Z</time>
      </trkpt>
      <trkpt lat="43.29432" lon="-4.33262167">
        <ele>339.0</ele>
        <time>2018-05-19T07:21:47.855Z</time>
      </trkpt>
      <trkpt lat="43.29431833" lon="-4.33258167">
        <ele>339.0</ele>
        <time>2018-05-19T07:21:48.856Z</time>
      </trkpt>
      <trkpt lat="43.29431833" lon="-4.33258167">
        <ele>339.0</ele>
        <time>2018-05-19T07:21:49.861Z</time>
      </trkpt>
      <trkpt lat="43.29431667" lon="-4.33250167">
        <ele>339.0</ele>
        <time>2018-05-19T07:21:50.853Z</time>
      </trkpt>
      <trkpt lat="43.29431667" lon="-4.33250167">
        <ele>339.0</ele>
        <time>2018-05-19T07:21:51.850Z</time>
      </trkpt>
      <trkpt lat="43.29431333" lon="-4.33242333">
        <ele>340.0</ele>
        <time>2018-05-19T07:21:52.873Z</time>
      </trkpt>
      <trkpt lat="43.29431333" lon="-4.33242333">
        <ele>340.0</ele>
        <time>2018-05-19T07:21:53.858Z</time>
      </trkpt>
      <trkpt lat="43.29431333" lon="-4.33234333">
        <ele>340.0</ele>
        <time>2018-05-19T07:21:54.861Z</time>
      </trkpt>
      <trkpt lat="43.29431333" lon="-4.33234333">
        <ele>340.0</ele>
        <time>2018-05-19T07:21:55.850Z</time>
      </trkpt>
      <trkpt lat="43.29431333" lon="-4.33226333">
        <ele>340.0</ele>
        <time>2018-05-19T07:21:56.855Z</time>
      </trkpt>
      <trkpt lat="43.29431333" lon="-4.33226333">
        <ele>340.0</ele>
        <time>2018-05-19T07:21:57.851Z</time>
      </trkpt>
      <trkpt lat="43.29430667" lon="-4.33218333">
        <ele>341.0</ele>
        <time>2018-05-19T07:21:58.857Z</time>
      </trkpt>
      <trkpt lat="43.29430667" lon="-4.33218333">
        <ele>341.0</ele>
        <time>2018-05-19T07:21:59.848Z</time>
      </trkpt>
      <trkpt lat="43.29431667" lon="-4.33211167">
        <ele>341.0</ele>
        <time>2018-05-19T07:22:00.856Z</time>
      </trkpt>
      <trkpt lat="43.29431667" lon="-4.33211167">
        <ele>341.0</ele>
        <time>2018-05-19T07:22:01.850Z</time>
      </trkpt>
      <trkpt lat="43.29433333" lon="-4.332055">
        <ele>342.0</ele>
        <time>2018-05-19T07:22:02.855Z</time>
      </trkpt>
      <trkpt lat="43.29433333" lon="-4.332055">
        <ele>342.0</ele>
        <time>2018-05-19T07:22:03.850Z</time>
      </trkpt>
      <trkpt lat="43.29436167" lon="-4.33202833">
        <ele>343.0</ele>
        <time>2018-05-19T07:22:04.877Z</time>
      </trkpt>
      <trkpt lat="43.29438" lon="-4.33203833">
        <ele>343.0</ele>
        <time>2018-05-19T07:22:05.863Z</time>
      </trkpt>
      <trkpt lat="43.29438" lon="-4.33203833">
        <ele>343.0</ele>
        <time>2018-05-19T07:22:06.854Z</time>
      </trkpt>
      <trkpt lat="43.29441" lon="-4.33209">
        <ele>344.0</ele>
        <time>2018-05-19T07:22:07.855Z</time>
      </trkpt>
      <trkpt lat="43.29441" lon="-4.33209">
        <ele>344.0</ele>
        <time>2018-05-19T07:22:08.850Z</time>
      </trkpt>
      <trkpt lat="43.29443333" lon="-4.33216833">
        <ele>345.0</ele>
        <time>2018-05-19T07:22:09.856Z</time>
      </trkpt>
      <trkpt lat="43.29443333" lon="-4.33216833">
        <ele>345.0</ele>
        <time>2018-05-19T07:22:10.870Z</time>
      </trkpt>
      <trkpt lat="43.29445333" lon="-4.33226">
        <ele>346.0</ele>
        <time>2018-05-19T07:22:11.856Z</time>
      </trkpt>
      <trkpt lat="43.29447" lon="-4.33230667">
        <ele>346.0</ele>
        <time>2018-05-19T07:22:12.856Z</time>
      </trkpt>
      <trkpt lat="43.29447" lon="-4.33230667">
        <ele>346.0</ele>
        <time>2018-05-19T07:22:13.850Z</time>
      </trkpt>
      <trkpt lat="43.294505" lon="-4.3324">
        <ele>346.0</ele>
        <time>2018-05-19T07:22:14.860Z</time>
      </trkpt>
      <trkpt lat="43.294525" lon="-4.332445">
        <ele>346.0</ele>
        <time>2018-05-19T07:22:15.855Z</time>
      </trkpt>
      <trkpt lat="43.294545" lon="-4.332485">
        <ele>346.0</ele>
        <time>2018-05-19T07:22:16.856Z</time>
      </trkpt>
      <trkpt lat="43.294545" lon="-4.332485">
        <ele>346.0</ele>
        <time>2018-05-19T07:22:17.851Z</time>
      </trkpt>
      <trkpt lat="43.29458667" lon="-4.33255833">
        <ele>346.0</ele>
        <time>2018-05-19T07:22:18.856Z</time>
      </trkpt>
      <trkpt lat="43.29458667" lon="-4.33255833">
        <ele>346.0</ele>
        <time>2018-05-19T07:22:19.851Z</time>
      </trkpt>
      <trkpt lat="43.29462833" lon="-4.33262333">
        <ele>347.0</ele>
        <time>2018-05-19T07:22:20.855Z</time>
      </trkpt>
      <trkpt lat="43.29465333" lon="-4.33265667">
        <ele>347.0</ele>
        <time>2018-05-19T07:22:21.855Z</time>
      </trkpt>
      <trkpt lat="43.29467667" lon="-4.332685">
        <ele>347.0</ele>
        <time>2018-05-19T07:22:22.857Z</time>
      </trkpt>
      <trkpt lat="43.29467667" lon="-4.332685">
        <ele>347.0</ele>
        <time>2018-05-19T07:22:23.851Z</time>
      </trkpt>
      <trkpt lat="43.29473833" lon="-4.33273167">
        <ele>348.0</ele>
        <time>2018-05-19T07:22:24.857Z</time>
      </trkpt>
      <trkpt lat="43.29473833" lon="-4.33273167">
        <ele>348.0</ele>
        <time>2018-05-19T07:22:25.850Z</time>
      </trkpt>
      <trkpt lat="43.29479667" lon="-4.332775">
        <ele>349.0</ele>
        <time>2018-05-19T07:22:26.856Z</time>
      </trkpt>
      <trkpt lat="43.29479667" lon="-4.332775">
        <ele>349.0</ele>
        <time>2018-05-19T07:22:27.850Z</time>
      </trkpt>
      <trkpt lat="43.29485333" lon="-4.33280333">
        <ele>349.0</ele>
        <time>2018-05-19T07:22:28.872Z</time>
      </trkpt>
      <trkpt lat="43.29485333" lon="-4.33280333">
        <ele>349.0</ele>
        <time>2018-05-19T07:22:29.857Z</time>
      </trkpt>
      <trkpt lat="43.29491667" lon="-4.33282333">
        <ele>350.0</ele>
        <time>2018-05-19T07:22:30.856Z</time>
      </trkpt>
      <trkpt lat="43.29491667" lon="-4.33282333">
        <ele>350.0</ele>
        <time>2018-05-19T07:22:31.850Z</time>
      </trkpt>
      <trkpt lat="43.29498167" lon="-4.332835">
        <ele>350.0</ele>
        <time>2018-05-19T07:22:32.855Z</time>
      </trkpt>
      <trkpt lat="43.29498167" lon="-4.332835">
        <ele>350.0</ele>
        <time>2018-05-19T07:22:33.849Z</time>
      </trkpt>
      <trkpt lat="43.29504167" lon="-4.33285">
        <ele>350.0</ele>
        <time>2018-05-19T07:22:34.859Z</time>
      </trkpt>
      <trkpt lat="43.29504167" lon="-4.33285">
        <ele>350.0</ele>
        <time>2018-05-19T07:22:35.867Z</time>
      </trkpt>
      <trkpt lat="43.29510167" lon="-4.33287333">
        <ele>351.0</ele>
        <time>2018-05-19T07:22:36.856Z</time>
      </trkpt>
      <trkpt lat="43.29510167" lon="-4.33287333">
        <ele>351.0</ele>
        <time>2018-05-19T07:22:37.850Z</time>
      </trkpt>
      <trkpt lat="43.29516333" lon="-4.33289">
        <ele>352.0</ele>
        <time>2018-05-19T07:22:38.854Z</time>
      </trkpt>
      <trkpt lat="43.295195" lon="-4.33289833">
        <ele>353.0</ele>
        <time>2018-05-19T07:22:39.856Z</time>
      </trkpt>
      <trkpt lat="43.295225" lon="-4.33290333">
        <ele>353.0</ele>
        <time>2018-05-19T07:22:40.856Z</time>
      </trkpt>
      <trkpt lat="43.295225" lon="-4.33290333">
        <ele>353.0</ele>
        <time>2018-05-19T07:22:41.850Z</time>
      </trkpt>
      <trkpt lat="43.29528167" lon="-4.33291833">
        <ele>353.0</ele>
        <time>2018-05-19T07:22:42.855Z</time>
      </trkpt>
      <trkpt lat="43.29528167" lon="-4.33291833">
        <ele>353.0</ele>
        <time>2018-05-19T07:22:43.851Z</time>
      </trkpt>
      <trkpt lat="43.29533667" lon="-4.33292833">
        <ele>353.0</ele>
        <time>2018-05-19T07:22:44.854Z</time>
      </trkpt>
      <trkpt lat="43.29533667" lon="-4.33292833">
        <ele>353.0</ele>
        <time>2018-05-19T07:22:45.863Z</time>
      </trkpt>
      <trkpt lat="43.29539167" lon="-4.33293833">
        <ele>354.0</ele>
        <time>2018-05-19T07:22:46.845Z</time>
      </trkpt>
      <trkpt lat="43.29539167" lon="-4.33293833">
        <ele>354.0</ele>
        <time>2018-05-19T07:22:47.851Z</time>
      </trkpt>
      <trkpt lat="43.29544167" lon="-4.33294833">
        <ele>354.0</ele>
        <time>2018-05-19T07:22:48.857Z</time>
      </trkpt>
      <trkpt lat="43.29546667" lon="-4.33295333">
        <ele>355.0</ele>
        <time>2018-05-19T07:22:49.855Z</time>
      </trkpt>
      <trkpt lat="43.29549" lon="-4.33295667">
        <ele>355.0</ele>
        <time>2018-05-19T07:22:50.855Z</time>
      </trkpt>
      <trkpt lat="43.29549" lon="-4.33295667">
        <ele>355.0</ele>
        <time>2018-05-19T07:22:51.850Z</time>
      </trkpt>
      <trkpt lat="43.295535" lon="-4.33297667">
        <ele>355.0</ele>
        <time>2018-05-19T07:22:52.872Z</time>
      </trkpt>
      <trkpt lat="43.295535" lon="-4.33297667">
        <ele>355.0</ele>
        <time>2018-05-19T07:22:53.857Z</time>
      </trkpt>
      <trkpt lat="43.29557833" lon="-4.332995">
        <ele>356.0</ele>
        <time>2018-05-19T07:22:54.855Z</time>
      </trkpt>
      <trkpt lat="43.2956" lon="-4.33300167">
        <ele>356.0</ele>
        <time>2018-05-19T07:22:55.856Z</time>
      </trkpt>
      <trkpt lat="43.2956" lon="-4.33300167">
        <ele>356.0</ele>
        <time>2018-05-19T07:22:56.847Z</time>
      </trkpt>
      <trkpt lat="43.29565167" lon="-4.33302167">
        <ele>356.0</ele>
        <time>2018-05-19T07:22:57.870Z</time>
      </trkpt>
      <trkpt lat="43.29567667" lon="-4.33303">
        <ele>356.0</ele>
        <time>2018-05-19T07:22:58.854Z</time>
      </trkpt>
      <trkpt lat="43.29567667" lon="-4.33303">
        <ele>356.0</ele>
        <time>2018-05-19T07:22:59.850Z</time>
      </trkpt>
      <trkpt lat="43.29573" lon="-4.333045">
        <ele>356.0</ele>
        <time>2018-05-19T07:23:00.856Z</time>
      </trkpt>
      <trkpt lat="43.29573" lon="-4.333045">
        <ele>356.0</ele>
        <time>2018-05-19T07:23:01.849Z</time>
      </trkpt>
      <trkpt lat="43.29578833" lon="-4.33306333">
        <ele>357.0</ele>
        <time>2018-05-19T07:23:02.855Z</time>
      </trkpt>
      <trkpt lat="43.29578833" lon="-4.33306333">
        <ele>357.0</ele>
        <time>2018-05-19T07:23:03.847Z</time>
      </trkpt>
      <trkpt lat="43.29584833" lon="-4.33308">
        <ele>357.0</ele>
        <time>2018-05-19T07:23:04.873Z</time>
      </trkpt>
      <trkpt lat="43.29584833" lon="-4.33308">
        <ele>357.0</ele>
        <time>2018-05-19T07:23:05.858Z</time>
      </trkpt>
      <trkpt lat="43.29590833" lon="-4.33308667">
        <ele>357.0</ele>
        <time>2018-05-19T07:23:06.855Z</time>
      </trkpt>
      <trkpt lat="43.29590833" lon="-4.33308667">
        <ele>357.0</ele>
        <time>2018-05-19T07:23:07.849Z</time>
      </trkpt>
      <trkpt lat="43.29597167" lon="-4.33309333">
        <ele>357.0</ele>
        <time>2018-05-19T07:23:08.855Z</time>
      </trkpt>
      <trkpt lat="43.29597167" lon="-4.33309333">
        <ele>357.0</ele>
        <time>2018-05-19T07:23:09.852Z</time>
      </trkpt>
      <trkpt lat="43.29603167" lon="-4.333095">
        <ele>357.0</ele>
        <time>2018-05-19T07:23:10.858Z</time>
      </trkpt>
      <trkpt lat="43.29603167" lon="-4.333095">
        <ele>357.0</ele>
        <time>2018-05-19T07:23:11.850Z</time>
      </trkpt>
      <trkpt lat="43.29609333" lon="-4.33309167">
        <ele>358.0</ele>
        <time>2018-05-19T07:23:12.855Z</time>
      </trkpt>
      <trkpt lat="43.29609333" lon="-4.33309167">
        <ele>358.0</ele>
        <time>2018-05-19T07:23:13.853Z</time>
      </trkpt>
      <trkpt lat="43.29615167" lon="-4.33308167">
        <ele>358.0</ele>
        <time>2018-05-19T07:23:14.852Z</time>
      </trkpt>
      <trkpt lat="43.29615167" lon="-4.33308167">
        <ele>358.0</ele>
        <time>2018-05-19T07:23:15.850Z</time>
      </trkpt>
      <trkpt lat="43.296205" lon="-4.33306">
        <ele>359.0</ele>
        <time>2018-05-19T07:23:16.857Z</time>
      </trkpt>
      <trkpt lat="43.296205" lon="-4.33306">
        <ele>359.0</ele>
        <time>2018-05-19T07:23:17.851Z</time>
      </trkpt>
      <trkpt lat="43.29625667" lon="-4.33303">
        <ele>359.0</ele>
        <time>2018-05-19T07:23:18.856Z</time>
      </trkpt>
      <trkpt lat="43.29625667" lon="-4.33303">
        <ele>359.0</ele>
        <time>2018-05-19T07:23:19.850Z</time>
      </trkpt>
      <trkpt lat="43.29630833" lon="-4.333005">
        <ele>359.0</ele>
        <time>2018-05-19T07:23:20.854Z</time>
      </trkpt>
      <trkpt lat="43.29633333" lon="-4.33299">
        <ele>360.0</ele>
        <time>2018-05-19T07:23:21.853Z</time>
      </trkpt>
      <trkpt lat="43.29633333" lon="-4.33299">
        <ele>360.0</ele>
        <time>2018-05-19T07:23:22.851Z</time>
      </trkpt>
      <trkpt lat="43.29637667" lon="-4.33295">
        <ele>360.0</ele>
        <time>2018-05-19T07:23:23.857Z</time>
      </trkpt>
      <trkpt lat="43.29637667" lon="-4.33295">
        <ele>360.0</ele>
        <time>2018-05-19T07:23:24.850Z</time>
      </trkpt>
      <trkpt lat="43.296415" lon="-4.332905">
        <ele>361.0</ele>
        <time>2018-05-19T07:23:25.874Z</time>
      </trkpt>
      <trkpt lat="43.29643333" lon="-4.33288333">
        <ele>361.0</ele>
        <time>2018-05-19T07:23:26.861Z</time>
      </trkpt>
      <trkpt lat="43.29643333" lon="-4.33288333">
        <ele>361.0</ele>
        <time>2018-05-19T07:23:27.849Z</time>
      </trkpt>
      <trkpt lat="43.29646833" lon="-4.33283667">
        <ele>361.0</ele>
        <time>2018-05-19T07:23:28.857Z</time>
      </trkpt>
      <trkpt lat="43.29646833" lon="-4.33283667">
        <ele>361.0</ele>
        <time>2018-05-19T07:23:29.847Z</time>
      </trkpt>
      <trkpt lat="43.296505" lon="-4.33278667">
        <ele>362.0</ele>
        <time>2018-05-19T07:23:30.873Z</time>
      </trkpt>
      <trkpt lat="43.296505" lon="-4.33278667">
        <ele>362.0</ele>
        <time>2018-05-19T07:23:31.857Z</time>
      </trkpt>
      <trkpt lat="43.29654" lon="-4.33273667">
        <ele>362.0</ele>
        <time>2018-05-19T07:23:32.854Z</time>
      </trkpt>
      <trkpt lat="43.29654" lon="-4.33273667">
        <ele>362.0</ele>
        <time>2018-05-19T07:23:33.850Z</time>
      </trkpt>
      <trkpt lat="43.29656833" lon="-4.33268167">
        <ele>362.0</ele>
        <time>2018-05-19T07:23:34.878Z</time>
      </trkpt>
      <trkpt lat="43.29656833" lon="-4.33268167">
        <ele>362.0</ele>
        <time>2018-05-19T07:23:35.879Z</time>
      </trkpt>
      <trkpt lat="43.29659333" lon="-4.33262333">
        <ele>363.0</ele>
        <time>2018-05-19T07:23:36.864Z</time>
      </trkpt>
      <trkpt lat="43.29659333" lon="-4.33262333">
        <ele>363.0</ele>
        <time>2018-05-19T07:23:37.850Z</time>
      </trkpt>
      <trkpt lat="43.296615" lon="-4.33256333">
        <ele>363.0</ele>
        <time>2018-05-19T07:23:38.852Z</time>
      </trkpt>
      <trkpt lat="43.29662167" lon="-4.33253167">
        <ele>364.0</ele>
        <time>2018-05-19T07:23:39.855Z</time>
      </trkpt>
      <trkpt lat="43.29662833" lon="-4.3325">
        <ele>364.0</ele>
        <time>2018-05-19T07:23:40.857Z</time>
      </trkpt>
      <trkpt lat="43.29662833" lon="-4.3325">
        <ele>364.0</ele>
        <time>2018-05-19T07:23:41.850Z</time>
      </trkpt>
      <trkpt lat="43.296645" lon="-4.33244">
        <ele>364.0</ele>
        <time>2018-05-19T07:23:42.854Z</time>
      </trkpt>
      <trkpt lat="43.296645" lon="-4.33244">
        <ele>364.0</ele>
        <time>2018-05-19T07:23:43.850Z</time>
      </trkpt>
      <trkpt lat="43.29665667" lon="-4.33237667">
        <ele>365.0</ele>
        <time>2018-05-19T07:23:44.880Z</time>
      </trkpt>
      <trkpt lat="43.29665667" lon="-4.33237667">
        <ele>365.0</ele>
        <time>2018-05-19T07:23:45.867Z</time>
      </trkpt>
      <trkpt lat="43.29667" lon="-4.33231">
        <ele>366.0</ele>
        <time>2018-05-19T07:23:46.858Z</time>
      </trkpt>
      <trkpt lat="43.29667" lon="-4.33231">
        <ele>366.0</ele>
        <time>2018-05-19T07:23:47.849Z</time>
      </trkpt>
      <trkpt lat="43.29668333" lon="-4.33224167">
        <ele>366.0</ele>
        <time>2018-05-19T07:23:48.852Z</time>
      </trkpt>
      <trkpt lat="43.29668333" lon="-4.33224167">
        <ele>366.0</ele>
        <time>2018-05-19T07:23:49.851Z</time>
      </trkpt>
      <trkpt lat="43.29669833" lon="-4.33217167">
        <ele>367.0</ele>
        <time>2018-05-19T07:23:50.855Z</time>
      </trkpt>
      <trkpt lat="43.29669833" lon="-4.33217167">
        <ele>367.0</ele>
        <time>2018-05-19T07:23:51.849Z</time>
      </trkpt>
      <trkpt lat="43.29671667" lon="-4.33210333">
        <ele>367.0</ele>
        <time>2018-05-19T07:23:52.857Z</time>
      </trkpt>
      <trkpt lat="43.29671667" lon="-4.33210333">
        <ele>367.0</ele>
        <time>2018-05-19T07:23:53.849Z</time>
      </trkpt>
      <trkpt lat="43.296735" lon="-4.33203833">
        <ele>368.0</ele>
        <time>2018-05-19T07:23:54.865Z</time>
      </trkpt>
      <trkpt lat="43.296735" lon="-4.33203833">
        <ele>368.0</ele>
        <time>2018-05-19T07:23:55.853Z</time>
      </trkpt>
      <trkpt lat="43.29675167" lon="-4.331975">
        <ele>368.0</ele>
        <time>2018-05-19T07:23:56.855Z</time>
      </trkpt>
      <trkpt lat="43.29675167" lon="-4.331975">
        <ele>368.0</ele>
        <time>2018-05-19T07:23:57.849Z</time>
      </trkpt>
      <trkpt lat="43.29677" lon="-4.331915">
        <ele>369.0</ele>
        <time>2018-05-19T07:23:58.873Z</time>
      </trkpt>
      <trkpt lat="43.29677" lon="-4.331915">
        <ele>369.0</ele>
        <time>2018-05-19T07:23:59.858Z</time>
      </trkpt>
      <trkpt lat="43.29678667" lon="-4.33184833">
        <ele>369.0</ele>
        <time>2018-05-19T07:24:00.855Z</time>
      </trkpt>
      <trkpt lat="43.29678667" lon="-4.33184833">
        <ele>369.0</ele>
        <time>2018-05-19T07:24:01.849Z</time>
      </trkpt>
      <trkpt lat="43.29680333" lon="-4.331775">
        <ele>369.0</ele>
        <time>2018-05-19T07:24:02.845Z</time>
      </trkpt>
      <trkpt lat="43.29680333" lon="-4.331775">
        <ele>369.0</ele>
        <time>2018-05-19T07:24:03.871Z</time>
      </trkpt>
      <trkpt lat="43.29682333" lon="-4.331695">
        <ele>370.0</ele>
        <time>2018-05-19T07:24:04.857Z</time>
      </trkpt>
      <trkpt lat="43.29682333" lon="-4.331695">
        <ele>370.0</ele>
        <time>2018-05-19T07:24:05.851Z</time>
      </trkpt>
      <trkpt lat="43.29684167" lon="-4.33160833">
        <ele>370.0</ele>
        <time>2018-05-19T07:24:06.855Z</time>
      </trkpt>
      <trkpt lat="43.29684167" lon="-4.33160833">
        <ele>370.0</ele>
        <time>2018-05-19T07:24:07.850Z</time>
      </trkpt>
      <trkpt lat="43.29685833" lon="-4.33151833">
        <ele>370.0</ele>
        <time>2018-05-19T07:24:08.854Z</time>
      </trkpt>
      <trkpt lat="43.29685833" lon="-4.33151833">
        <ele>370.0</ele>
        <time>2018-05-19T07:24:09.851Z</time>
      </trkpt>
      <trkpt lat="43.29687833" lon="-4.33142667">
        <ele>370.0</ele>
        <time>2018-05-19T07:24:10.869Z</time>
      </trkpt>
      <trkpt lat="43.29687833" lon="-4.33142667">
        <ele>370.0</ele>
        <time>2018-05-19T07:24:11.854Z</time>
      </trkpt>
      <trkpt lat="43.2969" lon="-4.33133333">
        <ele>371.0</ele>
        <time>2018-05-19T07:24:12.878Z</time>
      </trkpt>
      <trkpt lat="43.2969" lon="-4.33133333">
        <ele>371.0</ele>
        <time>2018-05-19T07:24:13.862Z</time>
      </trkpt>
      <trkpt lat="43.29692667" lon="-4.331235">
        <ele>371.0</ele>
        <time>2018-05-19T07:24:14.854Z</time>
      </trkpt>
      <trkpt lat="43.29692667" lon="-4.331235">
        <ele>371.0</ele>
        <time>2018-05-19T07:24:15.849Z</time>
      </trkpt>
      <trkpt lat="43.296945" lon="-4.33112667">
        <ele>371.0</ele>
        <time>2018-05-19T07:24:16.873Z</time>
      </trkpt>
      <trkpt lat="43.296945" lon="-4.33112667">
        <ele>371.0</ele>
        <time>2018-05-19T07:24:17.863Z</time>
      </trkpt>
      <trkpt lat="43.29696333" lon="-4.33101167">
        <ele>371.0</ele>
        <time>2018-05-19T07:24:18.855Z</time>
      </trkpt>
      <trkpt lat="43.29696333" lon="-4.33101167">
        <ele>371.0</ele>
        <time>2018-05-19T07:24:19.849Z</time>
      </trkpt>
      <trkpt lat="43.29699" lon="-4.33089167">
        <ele>371.0</ele>
        <time>2018-05-19T07:24:20.855Z</time>
      </trkpt>
      <trkpt lat="43.29699" lon="-4.33089167">
        <ele>371.0</ele>
        <time>2018-05-19T07:24:21.849Z</time>
      </trkpt>
      <trkpt lat="43.29701667" lon="-4.33076667">
        <ele>371.0</ele>
        <time>2018-05-19T07:24:22.854Z</time>
      </trkpt>
      <trkpt lat="43.29701667" lon="-4.33076667">
        <ele>371.0</ele>
        <time>2018-05-19T07:24:23.847Z</time>
      </trkpt>
      <trkpt lat="43.29704833" lon="-4.330635">
        <ele>371.0</ele>
        <time>2018-05-19T07:24:24.878Z</time>
      </trkpt>
      <trkpt lat="43.29704833" lon="-4.330635">
        <ele>371.0</ele>
        <time>2018-05-19T07:24:25.862Z</time>
      </trkpt>
      <trkpt lat="43.29709333" lon="-4.33050333">
        <ele>371.0</ele>
        <time>2018-05-19T07:24:26.855Z</time>
      </trkpt>
      <trkpt lat="43.29709333" lon="-4.33050333">
        <ele>371.0</ele>
        <time>2018-05-19T07:24:27.859Z</time>
      </trkpt>
      <trkpt lat="43.29714167" lon="-4.33037167">
        <ele>371.0</ele>
        <time>2018-05-19T07:24:28.872Z</time>
      </trkpt>
      <trkpt lat="43.29716667" lon="-4.33030833">
        <ele>371.0</ele>
        <time>2018-05-19T07:24:29.860Z</time>
      </trkpt>
      <trkpt lat="43.29716667" lon="-4.33030833">
        <ele>371.0</ele>
        <time>2018-05-19T07:24:30.865Z</time>
      </trkpt>
      <trkpt lat="43.29722333" lon="-4.330185">
        <ele>372.0</ele>
        <time>2018-05-19T07:24:31.871Z</time>
      </trkpt>
      <trkpt lat="43.29724833" lon="-4.33012667">
        <ele>372.0</ele>
        <time>2018-05-19T07:24:32.878Z</time>
      </trkpt>
      <trkpt lat="43.29724833" lon="-4.33012667">
        <ele>372.0</ele>
        <time>2018-05-19T07:24:33.849Z</time>
      </trkpt>
      <trkpt lat="43.29729333" lon="-4.33000833">
        <ele>373.0</ele>
        <time>2018-05-19T07:24:34.854Z</time>
      </trkpt>
      <trkpt lat="43.29731" lon="-4.32995333">
        <ele>373.0</ele>
        <time>2018-05-19T07:24:35.855Z</time>
      </trkpt>
      <trkpt lat="43.29731" lon="-4.32995333">
        <ele>373.0</ele>
        <time>2018-05-19T07:24:36.851Z</time>
      </trkpt>
      <trkpt lat="43.29733667" lon="-4.32984">
        <ele>374.0</ele>
        <time>2018-05-19T07:24:37.854Z</time>
      </trkpt>
      <trkpt lat="43.29735333" lon="-4.32978833">
        <ele>374.0</ele>
        <time>2018-05-19T07:24:38.855Z</time>
      </trkpt>
      <trkpt lat="43.29735333" lon="-4.32978833">
        <ele>374.0</ele>
        <time>2018-05-19T07:24:39.849Z</time>
      </trkpt>
      <trkpt lat="43.297385" lon="-4.32969">
        <ele>375.0</ele>
        <time>2018-05-19T07:24:40.878Z</time>
      </trkpt>
      <trkpt lat="43.297385" lon="-4.32969">
        <ele>375.0</ele>
        <time>2018-05-19T07:24:41.860Z</time>
      </trkpt>
      <trkpt lat="43.29741833" lon="-4.32959833">
        <ele>376.0</ele>
        <time>2018-05-19T07:24:42.856Z</time>
      </trkpt>
      <trkpt lat="43.29741833" lon="-4.32959833">
        <ele>376.0</ele>
        <time>2018-05-19T07:24:43.850Z</time>
      </trkpt>
      <trkpt lat="43.29745667" lon="-4.32951">
        <ele>377.0</ele>
        <time>2018-05-19T07:24:44.857Z</time>
      </trkpt>
      <trkpt lat="43.29747667" lon="-4.32946833">
        <ele>377.0</ele>
        <time>2018-05-19T07:24:45.870Z</time>
      </trkpt>
      <trkpt lat="43.29747667" lon="-4.32946833">
        <ele>377.0</ele>
        <time>2018-05-19T07:24:46.868Z</time>
      </trkpt>
      <trkpt lat="43.297515" lon="-4.329385">
        <ele>378.0</ele>
        <time>2018-05-19T07:24:47.854Z</time>
      </trkpt>
      <trkpt lat="43.29753667" lon="-4.32934333">
        <ele>378.0</ele>
        <time>2018-05-19T07:24:48.855Z</time>
      </trkpt>
      <trkpt lat="43.29753667" lon="-4.32934333">
        <ele>378.0</ele>
        <time>2018-05-19T07:24:49.850Z</time>
      </trkpt>
      <trkpt lat="43.29758333" lon="-4.32925167">
        <ele>378.0</ele>
        <time>2018-05-19T07:24:50.856Z</time>
      </trkpt>
      <trkpt lat="43.29758333" lon="-4.32925167">
        <ele>378.0</ele>
        <time>2018-05-19T07:24:51.849Z</time>
      </trkpt>
      <trkpt lat="43.297635" lon="-4.32914833">
        <ele>377.0</ele>
        <time>2018-05-19T07:24:52.872Z</time>
      </trkpt>
      <trkpt lat="43.297635" lon="-4.32914833">
        <ele>377.0</ele>
        <time>2018-05-19T07:24:53.857Z</time>
      </trkpt>
      <trkpt lat="43.297695" lon="-4.32902833">
        <ele>377.0</ele>
        <time>2018-05-19T07:24:54.855Z</time>
      </trkpt>
      <trkpt lat="43.297695" lon="-4.32902833">
        <ele>377.0</ele>
        <time>2018-05-19T07:24:55.849Z</time>
      </trkpt>
      <trkpt lat="43.29775" lon="-4.328895">
        <ele>376.0</ele>
        <time>2018-05-19T07:24:56.880Z</time>
      </trkpt>
      <trkpt lat="43.297775" lon="-4.32882667">
        <ele>376.0</ele>
        <time>2018-05-19T07:24:57.865Z</time>
      </trkpt>
      <trkpt lat="43.297775" lon="-4.32882667">
        <ele>376.0</ele>
        <time>2018-05-19T07:24:58.853Z</time>
      </trkpt>
      <trkpt lat="43.29783" lon="-4.32869">
        <ele>376.0</ele>
        <time>2018-05-19T07:24:59.855Z</time>
      </trkpt>
      <trkpt lat="43.29785667" lon="-4.32861833">
        <ele>376.0</ele>
        <time>2018-05-19T07:25:00.856Z</time>
      </trkpt>
      <trkpt lat="43.29785667" lon="-4.32861833">
        <ele>376.0</ele>
        <time>2018-05-19T07:25:01.850Z</time>
      </trkpt>
      <trkpt lat="43.29791167" lon="-4.328465">
        <ele>375.0</ele>
        <time>2018-05-19T07:25:02.854Z</time>
      </trkpt>
      <trkpt lat="43.29793833" lon="-4.32838333">
        <ele>375.0</ele>
        <time>2018-05-19T07:25:03.855Z</time>
      </trkpt>
      <trkpt lat="43.29793833" lon="-4.32838333">
        <ele>375.0</ele>
        <time>2018-05-19T07:25:04.848Z</time>
      </trkpt>
      <trkpt lat="43.29798833" lon="-4.32821667">
        <ele>375.0</ele>
        <time>2018-05-19T07:25:05.855Z</time>
      </trkpt>
      <trkpt lat="43.29798833" lon="-4.32821667">
        <ele>375.0</ele>
        <time>2018-05-19T07:25:06.849Z</time>
      </trkpt>
      <trkpt lat="43.298045" lon="-4.32804833">
        <ele>375.0</ele>
        <time>2018-05-19T07:25:07.878Z</time>
      </trkpt>
      <trkpt lat="43.29807833" lon="-4.32797">
        <ele>375.0</ele>
        <time>2018-05-19T07:25:08.865Z</time>
      </trkpt>
      <trkpt lat="43.29807833" lon="-4.32797">
        <ele>375.0</ele>
        <time>2018-05-19T07:25:09.860Z</time>
      </trkpt>
      <trkpt lat="43.29815667" lon="-4.32782667">
        <ele>375.0</ele>
        <time>2018-05-19T07:25:10.857Z</time>
      </trkpt>
      <trkpt lat="43.29815667" lon="-4.32782667">
        <ele>375.0</ele>
        <time>2018-05-19T07:25:11.849Z</time>
      </trkpt>
      <trkpt lat="43.29824167" lon="-4.32769667">
        <ele>375.0</ele>
        <time>2018-05-19T07:25:12.871Z</time>
      </trkpt>
      <trkpt lat="43.29824167" lon="-4.32769667">
        <ele>375.0</ele>
        <time>2018-05-19T07:25:13.857Z</time>
      </trkpt>
      <trkpt lat="43.298335" lon="-4.32757">
        <ele>374.0</ele>
        <time>2018-05-19T07:25:14.853Z</time>
      </trkpt>
      <trkpt lat="43.29838667" lon="-4.32750667">
        <ele>374.0</ele>
        <time>2018-05-19T07:25:15.855Z</time>
      </trkpt>
      <trkpt lat="43.29838667" lon="-4.32750667">
        <ele>374.0</ele>
        <time>2018-05-19T07:25:16.846Z</time>
      </trkpt>
      <trkpt lat="43.29849667" lon="-4.32736">
        <ele>372.0</ele>
        <time>2018-05-19T07:25:17.869Z</time>
      </trkpt>
      <trkpt lat="43.29856" lon="-4.32727667">
        <ele>371.0</ele>
        <time>2018-05-19T07:25:18.860Z</time>
      </trkpt>
      <trkpt lat="43.29856" lon="-4.32727667">
        <ele>371.0</ele>
        <time>2018-05-19T07:25:19.850Z</time>
      </trkpt>
      <trkpt lat="43.29868667" lon="-4.32709833">
        <ele>370.0</ele>
        <time>2018-05-19T07:25:20.856Z</time>
      </trkpt>
      <trkpt lat="43.29868667" lon="-4.32709833">
        <ele>370.0</ele>
        <time>2018-05-19T07:25:21.850Z</time>
      </trkpt>
      <trkpt lat="43.29880167" lon="-4.326915">
        <ele>370.0</ele>
        <time>2018-05-19T07:25:22.872Z</time>
      </trkpt>
      <trkpt lat="43.29880167" lon="-4.326915">
        <ele>370.0</ele>
        <time>2018-05-19T07:25:23.859Z</time>
      </trkpt>
      <trkpt lat="43.29891333" lon="-4.32673333">
        <ele>370.0</ele>
        <time>2018-05-19T07:25:24.856Z</time>
      </trkpt>
      <trkpt lat="43.29891333" lon="-4.32673333">
        <ele>370.0</ele>
        <time>2018-05-19T07:25:25.849Z</time>
      </trkpt>
      <trkpt lat="43.29903" lon="-4.32655333">
        <ele>369.0</ele>
        <time>2018-05-19T07:25:26.879Z</time>
      </trkpt>
      <trkpt lat="43.29903" lon="-4.32655333">
        <ele>369.0</ele>
        <time>2018-05-19T07:25:27.868Z</time>
      </trkpt>
      <trkpt lat="43.29915" lon="-4.32637333">
        <ele>368.0</ele>
        <time>2018-05-19T07:25:28.856Z</time>
      </trkpt>
      <trkpt lat="43.29915" lon="-4.32637333">
        <ele>368.0</ele>
        <time>2018-05-19T07:25:29.848Z</time>
      </trkpt>
      <trkpt lat="43.29926833" lon="-4.32619">
        <ele>367.0</ele>
        <time>2018-05-19T07:25:30.855Z</time>
      </trkpt>
      <trkpt lat="43.29926833" lon="-4.32619">
        <ele>367.0</ele>
        <time>2018-05-19T07:25:31.849Z</time>
      </trkpt>
      <trkpt lat="43.299375" lon="-4.325995">
        <ele>367.0</ele>
        <time>2018-05-19T07:25:32.855Z</time>
      </trkpt>
      <trkpt lat="43.299375" lon="-4.325995">
        <ele>367.0</ele>
        <time>2018-05-19T07:25:33.848Z</time>
      </trkpt>
      <trkpt lat="43.29947" lon="-4.32579833">
        <ele>366.0</ele>
        <time>2018-05-19T07:25:34.870Z</time>
      </trkpt>
      <trkpt lat="43.29947" lon="-4.32579833">
        <ele>366.0</ele>
        <time>2018-05-19T07:25:35.853Z</time>
      </trkpt>
      <trkpt lat="43.29956167" lon="-4.32560833">
        <ele>366.0</ele>
        <time>2018-05-19T07:25:36.855Z</time>
      </trkpt>
      <trkpt lat="43.29956167" lon="-4.32560833">
        <ele>366.0</ele>
        <time>2018-05-19T07:25:37.849Z</time>
      </trkpt>
      <trkpt lat="43.29965" lon="-4.32543">
        <ele>366.0</ele>
        <time>2018-05-19T07:25:38.855Z</time>
      </trkpt>
      <trkpt lat="43.29968667" lon="-4.32534167">
        <ele>366.0</ele>
        <time>2018-05-19T07:25:39.857Z</time>
      </trkpt>
      <trkpt lat="43.299715" lon="-4.32525">
        <ele>366.0</ele>
        <time>2018-05-19T07:25:40.857Z</time>
      </trkpt>
      <trkpt lat="43.299715" lon="-4.32525">
        <ele>366.0</ele>
        <time>2018-05-19T07:25:41.849Z</time>
      </trkpt>
      <trkpt lat="43.29977" lon="-4.325065">
        <ele>366.0</ele>
        <time>2018-05-19T07:25:42.855Z</time>
      </trkpt>
      <trkpt lat="43.29977" lon="-4.325065">
        <ele>366.0</ele>
        <time>2018-05-19T07:25:43.846Z</time>
      </trkpt>
      <trkpt lat="43.29983" lon="-4.324885">
        <ele>366.0</ele>
        <time>2018-05-19T07:25:44.854Z</time>
      </trkpt>
      <trkpt lat="43.29983" lon="-4.324885">
        <ele>366.0</ele>
        <time>2018-05-19T07:25:45.867Z</time>
      </trkpt>
      <trkpt lat="43.299885" lon="-4.32470167">
        <ele>366.0</ele>
        <time>2018-05-19T07:25:46.857Z</time>
      </trkpt>
      <trkpt lat="43.299885" lon="-4.32470167">
        <ele>366.0</ele>
        <time>2018-05-19T07:25:47.851Z</time>
      </trkpt>
      <trkpt lat="43.299935" lon="-4.32451167">
        <ele>367.0</ele>
        <time>2018-05-19T07:25:48.856Z</time>
      </trkpt>
      <trkpt lat="43.299935" lon="-4.32451167">
        <ele>367.0</ele>
        <time>2018-05-19T07:25:49.850Z</time>
      </trkpt>
      <trkpt lat="43.29998333" lon="-4.32432167">
        <ele>367.0</ele>
        <time>2018-05-19T07:25:50.855Z</time>
      </trkpt>
      <trkpt lat="43.30001" lon="-4.32423">
        <ele>367.0</ele>
        <time>2018-05-19T07:25:51.855Z</time>
      </trkpt>
      <trkpt lat="43.30003667" lon="-4.32414333">
        <ele>367.0</ele>
        <time>2018-05-19T07:25:52.856Z</time>
      </trkpt>
      <trkpt lat="43.30003667" lon="-4.32414333">
        <ele>367.0</ele>
        <time>2018-05-19T07:25:53.850Z</time>
      </trkpt>
      <trkpt lat="43.30008167" lon="-4.32397833">
        <ele>368.0</ele>
        <time>2018-05-19T07:25:54.855Z</time>
      </trkpt>
      <trkpt lat="43.30010167" lon="-4.32390167">
        <ele>368.0</ele>
        <time>2018-05-19T07:25:55.854Z</time>
      </trkpt>
      <trkpt lat="43.30012" lon="-4.32382833">
        <ele>369.0</ele>
        <time>2018-05-19T07:25:56.855Z</time>
      </trkpt>
      <trkpt lat="43.30012" lon="-4.32382833">
        <ele>369.0</ele>
        <time>2018-05-19T07:25:57.848Z</time>
      </trkpt>
      <trkpt lat="43.30016333" lon="-4.32369167">
        <ele>369.0</ele>
        <time>2018-05-19T07:25:58.878Z</time>
      </trkpt>
      <trkpt lat="43.30016333" lon="-4.32369167">
        <ele>369.0</ele>
        <time>2018-05-19T07:25:59.863Z</time>
      </trkpt>
      <trkpt lat="43.300225" lon="-4.32356667">
        <ele>369.0</ele>
        <time>2018-05-19T07:26:00.855Z</time>
      </trkpt>
      <trkpt lat="43.300225" lon="-4.32356667">
        <ele>369.0</ele>
        <time>2018-05-19T07:26:01.849Z</time>
      </trkpt>
      <trkpt lat="43.30030667" lon="-4.32344167">
        <ele>368.0</ele>
        <time>2018-05-19T07:26:02.854Z</time>
      </trkpt>
      <trkpt lat="43.30030667" lon="-4.32344167">
        <ele>368.0</ele>
        <time>2018-05-19T07:26:03.849Z</time>
      </trkpt>
      <trkpt lat="43.30040333" lon="-4.323305">
        <ele>366.0</ele>
        <time>2018-05-19T07:26:04.857Z</time>
      </trkpt>
      <trkpt lat="43.30040333" lon="-4.323305">
        <ele>366.0</ele>
        <time>2018-05-19T07:26:05.850Z</time>
      </trkpt>
      <trkpt lat="43.300515" lon="-4.32314167">
        <ele>363.0</ele>
        <time>2018-05-19T07:26:06.856Z</time>
      </trkpt>
      <trkpt lat="43.300515" lon="-4.32314167">
        <ele>363.0</ele>
        <time>2018-05-19T07:26:07.882Z</time>
      </trkpt>
      <trkpt lat="43.300645" lon="-4.32294333">
        <ele>360.0</ele>
        <time>2018-05-19T07:26:08.867Z</time>
      </trkpt>
      <trkpt lat="43.300645" lon="-4.32294333">
        <ele>360.0</ele>
        <time>2018-05-19T07:26:09.853Z</time>
      </trkpt>
      <trkpt lat="43.30077333" lon="-4.32274167">
        <ele>357.0</ele>
        <time>2018-05-19T07:26:10.858Z</time>
      </trkpt>
      <trkpt lat="43.30077333" lon="-4.32274167">
        <ele>357.0</ele>
        <time>2018-05-19T07:26:11.850Z</time>
      </trkpt>
      <trkpt lat="43.30089333" lon="-4.32256167">
        <ele>355.0</ele>
        <time>2018-05-19T07:26:12.854Z</time>
      </trkpt>
      <trkpt lat="43.30089333" lon="-4.32256167">
        <ele>355.0</ele>
        <time>2018-05-19T07:26:13.846Z</time>
      </trkpt>
      <trkpt lat="43.30100833" lon="-4.32242667">
        <ele>354.0</ele>
        <time>2018-05-19T07:26:14.855Z</time>
      </trkpt>
      <trkpt lat="43.30100833" lon="-4.32242667">
        <ele>354.0</ele>
        <time>2018-05-19T07:26:15.849Z</time>
      </trkpt>
      <trkpt lat="43.30113667" lon="-4.32233667">
        <ele>352.0</ele>
        <time>2018-05-19T07:26:16.857Z</time>
      </trkpt>
      <trkpt lat="43.30113667" lon="-4.32233667">
        <ele>352.0</ele>
        <time>2018-05-19T07:26:17.848Z</time>
      </trkpt>
      <trkpt lat="43.30126833" lon="-4.32227667">
        <ele>351.0</ele>
        <time>2018-05-19T07:26:18.855Z</time>
      </trkpt>
      <trkpt lat="43.30126833" lon="-4.32227667">
        <ele>351.0</ele>
        <time>2018-05-19T07:26:19.849Z</time>
      </trkpt>
      <trkpt lat="43.30139333" lon="-4.32223">
        <ele>350.0</ele>
        <time>2018-05-19T07:26:20.852Z</time>
      </trkpt>
      <trkpt lat="43.30144167" lon="-4.322215">
        <ele>349.0</ele>
        <time>2018-05-19T07:26:21.855Z</time>
      </trkpt>
      <trkpt lat="43.30147667" lon="-4.32222167">
        <ele>349.0</ele>
        <time>2018-05-19T07:26:22.856Z</time>
      </trkpt>
      <trkpt lat="43.30147667" lon="-4.32222167">
        <ele>349.0</ele>
        <time>2018-05-19T07:26:23.849Z</time>
      </trkpt>
      <trkpt lat="43.30151667" lon="-4.32229833">
        <ele>350.0</ele>
        <time>2018-05-19T07:26:24.878Z</time>
      </trkpt>
      <trkpt lat="43.30152667" lon="-4.32235167">
        <ele>350.0</ele>
        <time>2018-05-19T07:26:25.877Z</time>
      </trkpt>
      <trkpt lat="43.30152667" lon="-4.32235167">
        <ele>350.0</ele>
        <time>2018-05-19T07:26:26.862Z</time>
      </trkpt>
      <trkpt lat="43.30153833" lon="-4.32246">
        <ele>350.0</ele>
        <time>2018-05-19T07:26:27.861Z</time>
      </trkpt>
      <trkpt lat="43.30154833" lon="-4.32251333">
        <ele>350.0</ele>
        <time>2018-05-19T07:26:28.856Z</time>
      </trkpt>
      <trkpt lat="43.30154833" lon="-4.32251333">
        <ele>350.0</ele>
        <time>2018-05-19T07:26:29.849Z</time>
      </trkpt>
      <trkpt lat="43.30155667" lon="-4.32262833">
        <ele>351.0</ele>
        <time>2018-05-19T07:26:30.859Z</time>
      </trkpt>
      <trkpt lat="43.30155667" lon="-4.32262833">
        <ele>351.0</ele>
        <time>2018-05-19T07:26:31.852Z</time>
      </trkpt>
      <trkpt lat="43.301555" lon="-4.32274">
        <ele>351.0</ele>
        <time>2018-05-19T07:26:32.855Z</time>
      </trkpt>
      <trkpt lat="43.30155167" lon="-4.3228">
        <ele>352.0</ele>
        <time>2018-05-19T07:26:33.855Z</time>
      </trkpt>
      <trkpt lat="43.30155167" lon="-4.322865">
        <ele>352.0</ele>
        <time>2018-05-19T07:26:34.854Z</time>
      </trkpt>
      <trkpt lat="43.30155167" lon="-4.322865">
        <ele>352.0</ele>
        <time>2018-05-19T07:26:35.852Z</time>
      </trkpt>
      <trkpt lat="43.30154333" lon="-4.32299667">
        <ele>352.0</ele>
        <time>2018-05-19T07:26:36.855Z</time>
      </trkpt>
      <trkpt lat="43.30154333" lon="-4.32299667">
        <ele>352.0</ele>
        <time>2018-05-19T07:26:37.846Z</time>
      </trkpt>
      <trkpt lat="43.30152833" lon="-4.32313167">
        <ele>352.0</ele>
        <time>2018-05-19T07:26:38.855Z</time>
      </trkpt>
      <trkpt lat="43.30152833" lon="-4.32313167">
        <ele>352.0</ele>
        <time>2018-05-19T07:26:39.849Z</time>
      </trkpt>
      <trkpt lat="43.301505" lon="-4.32326333">
        <ele>353.0</ele>
        <time>2018-05-19T07:26:40.857Z</time>
      </trkpt>
      <trkpt lat="43.301505" lon="-4.32326333">
        <ele>353.0</ele>
        <time>2018-05-19T07:26:41.850Z</time>
      </trkpt>
      <trkpt lat="43.301485" lon="-4.32340333">
        <ele>353.0</ele>
        <time>2018-05-19T07:26:42.854Z</time>
      </trkpt>
      <trkpt lat="43.301485" lon="-4.32340333">
        <ele>353.0</ele>
        <time>2018-05-19T07:26:43.850Z</time>
      </trkpt>
      <trkpt lat="43.30147333" lon="-4.32354667">
        <ele>354.0</ele>
        <time>2018-05-19T07:26:44.855Z</time>
      </trkpt>
      <trkpt lat="43.30147333" lon="-4.32354667">
        <ele>354.0</ele>
        <time>2018-05-19T07:26:45.868Z</time>
      </trkpt>
      <trkpt lat="43.30146" lon="-4.32369">
        <ele>354.0</ele>
        <time>2018-05-19T07:26:46.851Z</time>
      </trkpt>
      <trkpt lat="43.30146" lon="-4.32369">
        <ele>354.0</ele>
        <time>2018-05-19T07:26:47.849Z</time>
      </trkpt>
      <trkpt lat="43.30144833" lon="-4.323815">
        <ele>354.0</ele>
        <time>2018-05-19T07:26:48.855Z</time>
      </trkpt>
      <trkpt lat="43.30144833" lon="-4.323815">
        <ele>354.0</ele>
        <time>2018-05-19T07:26:49.849Z</time>
      </trkpt>
      <trkpt lat="43.30144667" lon="-4.32396">
        <ele>354.0</ele>
        <time>2018-05-19T07:26:50.855Z</time>
      </trkpt>
      <trkpt lat="43.30144667" lon="-4.32396">
        <ele>354.0</ele>
        <time>2018-05-19T07:26:51.849Z</time>
      </trkpt>
      <trkpt lat="43.30143667" lon="-4.32411333">
        <ele>354.0</ele>
        <time>2018-05-19T07:26:52.872Z</time>
      </trkpt>
      <trkpt lat="43.30143667" lon="-4.32411333">
        <ele>354.0</ele>
        <time>2018-05-19T07:26:53.857Z</time>
      </trkpt>
      <trkpt lat="43.30142667" lon="-4.32427667">
        <ele>354.0</ele>
        <time>2018-05-19T07:26:54.855Z</time>
      </trkpt>
      <trkpt lat="43.30141833" lon="-4.32436333">
        <ele>354.0</ele>
        <time>2018-05-19T07:26:55.854Z</time>
      </trkpt>
      <trkpt lat="43.30140833" lon="-4.32444833">
        <ele>354.0</ele>
        <time>2018-05-19T07:26:56.855Z</time>
      </trkpt>
      <trkpt lat="43.30140833" lon="-4.32444833">
        <ele>354.0</ele>
        <time>2018-05-19T07:26:57.848Z</time>
      </trkpt>
      <trkpt lat="43.30138333" lon="-4.32461667">
        <ele>355.0</ele>
        <time>2018-05-19T07:26:58.871Z</time>
      </trkpt>
      <trkpt lat="43.30138333" lon="-4.32461667">
        <ele>355.0</ele>
        <time>2018-05-19T07:26:59.856Z</time>
      </trkpt>
      <trkpt lat="43.30135" lon="-4.32478167">
        <ele>355.0</ele>
        <time>2018-05-19T07:27:00.855Z</time>
      </trkpt>
      <trkpt lat="43.30135" lon="-4.32478167">
        <ele>355.0</ele>
        <time>2018-05-19T07:27:01.850Z</time>
      </trkpt>
      <trkpt lat="43.30131833" lon="-4.32495167">
        <ele>354.0</ele>
        <time>2018-05-19T07:27:02.855Z</time>
      </trkpt>
      <trkpt lat="43.30131833" lon="-4.32495167">
        <ele>354.0</ele>
        <time>2018-05-19T07:27:03.848Z</time>
      </trkpt>
      <trkpt lat="43.30130833" lon="-4.32513833">
        <ele>354.0</ele>
        <time>2018-05-19T07:27:04.857Z</time>
      </trkpt>
      <trkpt lat="43.30130833" lon="-4.32513833">
        <ele>354.0</ele>
        <time>2018-05-19T07:27:05.850Z</time>
      </trkpt>
      <trkpt lat="43.30133333" lon="-4.32533167">
        <ele>353.0</ele>
        <time>2018-05-19T07:27:06.855Z</time>
      </trkpt>
      <trkpt lat="43.30133333" lon="-4.32533167">
        <ele>353.0</ele>
        <time>2018-05-19T07:27:07.855Z</time>
      </trkpt>
      <trkpt lat="43.30141667" lon="-4.32552">
        <ele>352.0</ele>
        <time>2018-05-19T07:27:08.853Z</time>
      </trkpt>
      <trkpt lat="43.30141667" lon="-4.32552">
        <ele>352.0</ele>
        <time>2018-05-19T07:27:09.851Z</time>
      </trkpt>
      <trkpt lat="43.301535" lon="-4.32568667">
        <ele>352.0</ele>
        <time>2018-05-19T07:27:10.860Z</time>
      </trkpt>
      <trkpt lat="43.301535" lon="-4.32568667">
        <ele>352.0</ele>
        <time>2018-05-19T07:27:11.848Z</time>
      </trkpt>
      <trkpt lat="43.30165" lon="-4.32585">
        <ele>351.0</ele>
        <time>2018-05-19T07:27:12.854Z</time>
      </trkpt>
      <trkpt lat="43.30165" lon="-4.32585">
        <ele>351.0</ele>
        <time>2018-05-19T07:27:13.850Z</time>
      </trkpt>
      <trkpt lat="43.30175833" lon="-4.32601833">
        <ele>351.0</ele>
        <time>2018-05-19T07:27:14.879Z</time>
      </trkpt>
      <trkpt lat="43.30180667" lon="-4.32610667">
        <ele>350.0</ele>
        <time>2018-05-19T07:27:15.865Z</time>
      </trkpt>
      <trkpt lat="43.30185167" lon="-4.326195">
        <ele>350.0</ele>
        <time>2018-05-19T07:27:16.856Z</time>
      </trkpt>
      <trkpt lat="43.30185167" lon="-4.326195">
        <ele>350.0</ele>
        <time>2018-05-19T07:27:17.844Z</time>
      </trkpt>
      <trkpt lat="43.30194" lon="-4.32636833">
        <ele>350.0</ele>
        <time>2018-05-19T07:27:18.870Z</time>
      </trkpt>
      <trkpt lat="43.30194" lon="-4.32636833">
        <ele>350.0</ele>
        <time>2018-05-19T07:27:19.852Z</time>
      </trkpt>
      <trkpt lat="43.30203833" lon="-4.326515">
        <ele>350.0</ele>
        <time>2018-05-19T07:27:20.854Z</time>
      </trkpt>
      <trkpt lat="43.30203833" lon="-4.326515">
        <ele>350.0</ele>
        <time>2018-05-19T07:27:21.849Z</time>
      </trkpt>
      <trkpt lat="43.302155" lon="-4.32662333">
        <ele>349.0</ele>
        <time>2018-05-19T07:27:22.872Z</time>
      </trkpt>
      <trkpt lat="43.302155" lon="-4.32662333">
        <ele>349.0</ele>
        <time>2018-05-19T07:27:23.857Z</time>
      </trkpt>
      <trkpt lat="43.30228333" lon="-4.32671">
        <ele>348.0</ele>
        <time>2018-05-19T07:27:24.855Z</time>
      </trkpt>
      <trkpt lat="43.30228333" lon="-4.32671">
        <ele>348.0</ele>
        <time>2018-05-19T07:27:25.852Z</time>
      </trkpt>
      <trkpt lat="43.30242333" lon="-4.32674167">
        <ele>348.0</ele>
        <time>2018-05-19T07:27:26.854Z</time>
      </trkpt>
      <trkpt lat="43.30250333" lon="-4.32675">
        <ele>347.0</ele>
        <time>2018-05-19T07:27:27.854Z</time>
      </trkpt>
      <trkpt lat="43.30250333" lon="-4.32675">
        <ele>347.0</ele>
        <time>2018-05-19T07:27:28.847Z</time>
      </trkpt>
      <trkpt lat="43.30269167" lon="-4.32674833">
        <ele>345.0</ele>
        <time>2018-05-19T07:27:29.854Z</time>
      </trkpt>
      <trkpt lat="43.30279333" lon="-4.326745">
        <ele>345.0</ele>
        <time>2018-05-19T07:27:30.855Z</time>
      </trkpt>
      <trkpt lat="43.30279333" lon="-4.326745">
        <ele>345.0</ele>
        <time>2018-05-19T07:27:31.852Z</time>
      </trkpt>
      <trkpt lat="43.30301167" lon="-4.32673833">
        <ele>343.0</ele>
        <time>2018-05-19T07:27:32.860Z</time>
      </trkpt>
      <trkpt lat="43.30301167" lon="-4.32673833">
        <ele>343.0</ele>
        <time>2018-05-19T07:27:33.849Z</time>
      </trkpt>
      <trkpt lat="43.303235" lon="-4.32672667">
        <ele>341.0</ele>
        <time>2018-05-19T07:27:34.848Z</time>
      </trkpt>
      <trkpt lat="43.303235" lon="-4.32672667">
        <ele>341.0</ele>
        <time>2018-05-19T07:27:35.852Z</time>
      </trkpt>
      <trkpt lat="43.30345" lon="-4.32671833">
        <ele>339.0</ele>
        <time>2018-05-19T07:27:36.864Z</time>
      </trkpt>
      <trkpt lat="43.30345" lon="-4.32671833">
        <ele>339.0</ele>
        <time>2018-05-19T07:27:37.860Z</time>
      </trkpt>
      <trkpt lat="43.30364833" lon="-4.32671167">
        <ele>337.0</ele>
        <time>2018-05-19T07:27:38.854Z</time>
      </trkpt>
      <trkpt lat="43.30364833" lon="-4.32671167">
        <ele>337.0</ele>
        <time>2018-05-19T07:27:39.849Z</time>
      </trkpt>
      <trkpt lat="43.30385667" lon="-4.3267">
        <ele>336.0</ele>
        <time>2018-05-19T07:27:40.856Z</time>
      </trkpt>
      <trkpt lat="43.30385667" lon="-4.3267">
        <ele>336.0</ele>
        <time>2018-05-19T07:27:41.849Z</time>
      </trkpt>
      <trkpt lat="43.304075" lon="-4.32669">
        <ele>334.0</ele>
        <time>2018-05-19T07:27:42.855Z</time>
      </trkpt>
      <trkpt lat="43.304075" lon="-4.32669">
        <ele>334.0</ele>
        <time>2018-05-19T07:27:43.848Z</time>
      </trkpt>
      <trkpt lat="43.3043" lon="-4.32668">
        <ele>333.0</ele>
        <time>2018-05-19T07:27:44.851Z</time>
      </trkpt>
      <trkpt lat="43.30441167" lon="-4.326675">
        <ele>332.0</ele>
        <time>2018-05-19T07:27:45.882Z</time>
      </trkpt>
      <trkpt lat="43.304525" lon="-4.32666833">
        <ele>331.0</ele>
        <time>2018-05-19T07:27:46.859Z</time>
      </trkpt>
      <trkpt lat="43.304525" lon="-4.32666833">
        <ele>331.0</ele>
        <time>2018-05-19T07:27:47.865Z</time>
      </trkpt>
      <trkpt lat="43.30475333" lon="-4.32665833">
        <ele>330.0</ele>
        <time>2018-05-19T07:27:48.854Z</time>
      </trkpt>
      <trkpt lat="43.30475333" lon="-4.32665833">
        <ele>330.0</ele>
        <time>2018-05-19T07:27:49.857Z</time>
      </trkpt>
      <trkpt lat="43.304985" lon="-4.32664833">
        <ele>328.0</ele>
        <time>2018-05-19T07:27:50.856Z</time>
      </trkpt>
      <trkpt lat="43.30509667" lon="-4.32664667">
        <ele>327.0</ele>
        <time>2018-05-19T07:27:51.855Z</time>
      </trkpt>
      <trkpt lat="43.30520667" lon="-4.32664">
        <ele>326.0</ele>
        <time>2018-05-19T07:27:52.857Z</time>
      </trkpt>
      <trkpt lat="43.30520667" lon="-4.32664">
        <ele>326.0</ele>
        <time>2018-05-19T07:27:53.849Z</time>
      </trkpt>
      <trkpt lat="43.30542167" lon="-4.32662">
        <ele>325.0</ele>
        <time>2018-05-19T07:27:54.855Z</time>
      </trkpt>
      <trkpt lat="43.30542167" lon="-4.32662">
        <ele>325.0</ele>
        <time>2018-05-19T07:27:55.849Z</time>
      </trkpt>
      <trkpt lat="43.30562833" lon="-4.32661667">
        <ele>325.0</ele>
        <time>2018-05-19T07:27:56.854Z</time>
      </trkpt>
      <trkpt lat="43.30562833" lon="-4.32661667">
        <ele>325.0</ele>
        <time>2018-05-19T07:27:57.848Z</time>
      </trkpt>
      <trkpt lat="43.30581333" lon="-4.326645">
        <ele>324.0</ele>
        <time>2018-05-19T07:27:58.856Z</time>
      </trkpt>
      <trkpt lat="43.30581333" lon="-4.326645">
        <ele>324.0</ele>
        <time>2018-05-19T07:27:59.849Z</time>
      </trkpt>
      <trkpt lat="43.305985" lon="-4.32669167">
        <ele>327.0</ele>
        <time>2018-05-19T07:28:00.854Z</time>
      </trkpt>
      <trkpt lat="43.305985" lon="-4.32669167">
        <ele>327.0</ele>
        <time>2018-05-19T07:28:01.850Z</time>
      </trkpt>
      <trkpt lat="43.30612333" lon="-4.326765">
        <ele>329.0</ele>
        <time>2018-05-19T07:28:02.854Z</time>
      </trkpt>
      <trkpt lat="43.30612333" lon="-4.326765">
        <ele>329.0</ele>
        <time>2018-05-19T07:28:03.848Z</time>
      </trkpt>
      <trkpt lat="43.30623167" lon="-4.326845">
        <ele>331.0</ele>
        <time>2018-05-19T07:28:04.857Z</time>
      </trkpt>
      <trkpt lat="43.30623167" lon="-4.326845">
        <ele>331.0</ele>
        <time>2018-05-19T07:28:05.848Z</time>
      </trkpt>
      <trkpt lat="43.30632333" lon="-4.32690167">
        <ele>332.0</ele>
        <time>2018-05-19T07:28:06.854Z</time>
      </trkpt>
      <trkpt lat="43.30632333" lon="-4.32690167">
        <ele>332.0</ele>
        <time>2018-05-19T07:28:07.846Z</time>
      </trkpt>
      <trkpt lat="43.30640333" lon="-4.32695833">
        <ele>333.0</ele>
        <time>2018-05-19T07:28:08.864Z</time>
      </trkpt>
      <trkpt lat="43.30640333" lon="-4.32695833">
        <ele>333.0</ele>
        <time>2018-05-19T07:28:09.850Z</time>
      </trkpt>
      <trkpt lat="43.30647333" lon="-4.32700667">
        <ele>334.0</ele>
        <time>2018-05-19T07:28:10.856Z</time>
      </trkpt>
      <trkpt lat="43.30647333" lon="-4.32700667">
        <ele>334.0</ele>
        <time>2018-05-19T07:28:11.852Z</time>
      </trkpt>
      <trkpt lat="43.30653833" lon="-4.32705">
        <ele>335.0</ele>
        <time>2018-05-19T07:28:12.855Z</time>
      </trkpt>
      <trkpt lat="43.30653833" lon="-4.32705">
        <ele>335.0</ele>
        <time>2018-05-19T07:28:13.850Z</time>
      </trkpt>
      <trkpt lat="43.30660333" lon="-4.32708833">
        <ele>336.0</ele>
        <time>2018-05-19T07:28:14.878Z</time>
      </trkpt>
      <trkpt lat="43.306635" lon="-4.32710833">
        <ele>337.0</ele>
        <time>2018-05-19T07:28:15.865Z</time>
      </trkpt>
      <trkpt lat="43.306635" lon="-4.32710833">
        <ele>337.0</ele>
        <time>2018-05-19T07:28:16.853Z</time>
      </trkpt>
      <trkpt lat="43.30669167" lon="-4.32715">
        <ele>338.0</ele>
        <time>2018-05-19T07:28:17.846Z</time>
      </trkpt>
      <trkpt lat="43.30672" lon="-4.32717">
        <ele>338.0</ele>
        <time>2018-05-19T07:28:18.854Z</time>
      </trkpt>
      <trkpt lat="43.30672" lon="-4.32717">
        <ele>338.0</ele>
        <time>2018-05-19T07:28:19.848Z</time>
      </trkpt>
      <trkpt lat="43.30677333" lon="-4.327205">
        <ele>339.0</ele>
        <time>2018-05-19T07:28:20.854Z</time>
      </trkpt>
      <trkpt lat="43.3068" lon="-4.32722167">
        <ele>339.0</ele>
        <time>2018-05-19T07:28:21.855Z</time>
      </trkpt>
      <trkpt lat="43.30682667" lon="-4.32723833">
        <ele>339.0</ele>
        <time>2018-05-19T07:28:22.856Z</time>
      </trkpt>
      <trkpt lat="43.30682667" lon="-4.32723833">
        <ele>339.0</ele>
        <time>2018-05-19T07:28:23.848Z</time>
      </trkpt>
      <trkpt lat="43.30688" lon="-4.32727333">
        <ele>340.0</ele>
        <time>2018-05-19T07:28:24.854Z</time>
      </trkpt>
      <trkpt lat="43.30688" lon="-4.32727333">
        <ele>340.0</ele>
        <time>2018-05-19T07:28:25.849Z</time>
      </trkpt>
      <trkpt lat="43.30693" lon="-4.32731">
        <ele>341.0</ele>
        <time>2018-05-19T07:28:26.855Z</time>
      </trkpt>
      <trkpt lat="43.30695667" lon="-4.32732667">
        <ele>341.0</ele>
        <time>2018-05-19T07:28:27.854Z</time>
      </trkpt>
      <trkpt lat="43.30695667" lon="-4.32732667">
        <ele>341.0</ele>
        <time>2018-05-19T07:28:28.862Z</time>
      </trkpt>
      <trkpt lat="43.30700833" lon="-4.32736167">
        <ele>341.0</ele>
        <time>2018-05-19T07:28:29.855Z</time>
      </trkpt>
      <trkpt lat="43.307035" lon="-4.327375">
        <ele>341.0</ele>
        <time>2018-05-19T07:28:30.854Z</time>
      </trkpt>
      <trkpt lat="43.307035" lon="-4.327375">
        <ele>341.0</ele>
        <time>2018-05-19T07:28:31.852Z</time>
      </trkpt>
      <trkpt lat="43.30709333" lon="-4.327405">
        <ele>342.0</ele>
        <time>2018-05-19T07:28:32.854Z</time>
      </trkpt>
      <trkpt lat="43.30709333" lon="-4.327405">
        <ele>342.0</ele>
        <time>2018-05-19T07:28:33.848Z</time>
      </trkpt>
      <trkpt lat="43.30715333" lon="-4.32743167">
        <ele>342.0</ele>
        <time>2018-05-19T07:28:34.848Z</time>
      </trkpt>
      <trkpt lat="43.30718167" lon="-4.32744333">
        <ele>342.0</ele>
        <time>2018-05-19T07:28:35.860Z</time>
      </trkpt>
      <trkpt lat="43.30718167" lon="-4.32744333">
        <ele>342.0</ele>
        <time>2018-05-19T07:28:36.860Z</time>
      </trkpt>
      <trkpt lat="43.30724333" lon="-4.327465">
        <ele>342.0</ele>
        <time>2018-05-19T07:28:37.848Z</time>
      </trkpt>
      <trkpt lat="43.30727333" lon="-4.32747833">
        <ele>342.0</ele>
        <time>2018-05-19T07:28:38.871Z</time>
      </trkpt>
      <trkpt lat="43.30727333" lon="-4.32747833">
        <ele>342.0</ele>
        <time>2018-05-19T07:28:39.856Z</time>
      </trkpt>
      <trkpt lat="43.30734167" lon="-4.327495">
        <ele>342.0</ele>
        <time>2018-05-19T07:28:40.856Z</time>
      </trkpt>
      <trkpt lat="43.30734167" lon="-4.327495">
        <ele>342.0</ele>
        <time>2018-05-19T07:28:41.848Z</time>
      </trkpt>
      <trkpt lat="43.30741" lon="-4.32749167">
        <ele>342.0</ele>
        <time>2018-05-19T07:28:42.870Z</time>
      </trkpt>
      <trkpt lat="43.30741" lon="-4.32749167">
        <ele>342.0</ele>
        <time>2018-05-19T07:28:43.856Z</time>
      </trkpt>
      <trkpt lat="43.30747667" lon="-4.32748167">
        <ele>343.0</ele>
        <time>2018-05-19T07:28:44.854Z</time>
      </trkpt>
      <trkpt lat="43.30747667" lon="-4.32748167">
        <ele>343.0</ele>
        <time>2018-05-19T07:28:45.863Z</time>
      </trkpt>
      <trkpt lat="43.30755" lon="-4.32746667">
        <ele>343.0</ele>
        <time>2018-05-19T07:28:46.855Z</time>
      </trkpt>
      <trkpt lat="43.30759" lon="-4.327455">
        <ele>343.0</ele>
        <time>2018-05-19T07:28:47.862Z</time>
      </trkpt>
      <trkpt lat="43.30759" lon="-4.327455">
        <ele>343.0</ele>
        <time>2018-05-19T07:28:48.867Z</time>
      </trkpt>
      <trkpt lat="43.30766667" lon="-4.32742667">
        <ele>343.0</ele>
        <time>2018-05-19T07:28:49.854Z</time>
      </trkpt>
      <trkpt lat="43.30770333" lon="-4.32741333">
        <ele>343.0</ele>
        <time>2018-05-19T07:28:50.856Z</time>
      </trkpt>
      <trkpt lat="43.30774333" lon="-4.32739833">
        <ele>344.0</ele>
        <time>2018-05-19T07:28:51.855Z</time>
      </trkpt>
      <trkpt lat="43.30774333" lon="-4.32739833">
        <ele>344.0</ele>
        <time>2018-05-19T07:28:52.850Z</time>
      </trkpt>
      <trkpt lat="43.30782333" lon="-4.32736833">
        <ele>344.0</ele>
        <time>2018-05-19T07:28:53.852Z</time>
      </trkpt>
      <trkpt lat="43.30786167" lon="-4.32736">
        <ele>344.0</ele>
        <time>2018-05-19T07:28:54.855Z</time>
      </trkpt>
      <trkpt lat="43.30786167" lon="-4.32736">
        <ele>344.0</ele>
        <time>2018-05-19T07:28:55.848Z</time>
      </trkpt>
      <trkpt lat="43.30794" lon="-4.32734">
        <ele>345.0</ele>
        <time>2018-05-19T07:28:56.855Z</time>
      </trkpt>
      <trkpt lat="43.30794" lon="-4.32734">
        <ele>345.0</ele>
        <time>2018-05-19T07:28:57.846Z</time>
      </trkpt>
      <trkpt lat="43.30801833" lon="-4.32732">
        <ele>345.0</ele>
        <time>2018-05-19T07:28:58.868Z</time>
      </trkpt>
      <trkpt lat="43.308055" lon="-4.32731333">
        <ele>345.0</ele>
        <time>2018-05-19T07:28:59.855Z</time>
      </trkpt>
      <trkpt lat="43.308095" lon="-4.327305">
        <ele>345.0</ele>
        <time>2018-05-19T07:29:00.854Z</time>
      </trkpt>
      <trkpt lat="43.308095" lon="-4.327305">
        <ele>345.0</ele>
        <time>2018-05-19T07:29:01.848Z</time>
      </trkpt>
      <trkpt lat="43.308175" lon="-4.32729">
        <ele>345.0</ele>
        <time>2018-05-19T07:29:02.870Z</time>
      </trkpt>
      <trkpt lat="43.308175" lon="-4.32729">
        <ele>345.0</ele>
        <time>2018-05-19T07:29:03.852Z</time>
      </trkpt>
      <trkpt lat="43.30824333" lon="-4.32727667">
        <ele>345.0</ele>
        <time>2018-05-19T07:29:04.854Z</time>
      </trkpt>
      <trkpt lat="43.30827667" lon="-4.32727">
        <ele>346.0</ele>
        <time>2018-05-19T07:29:05.855Z</time>
      </trkpt>
      <trkpt lat="43.30827667" lon="-4.32727">
        <ele>346.0</ele>
        <time>2018-05-19T07:29:06.848Z</time>
      </trkpt>
      <trkpt lat="43.308365" lon="-4.32724167">
        <ele>346.0</ele>
        <time>2018-05-19T07:29:07.856Z</time>
      </trkpt>
      <trkpt lat="43.30841" lon="-4.32722833">
        <ele>346.0</ele>
        <time>2018-05-19T07:29:08.863Z</time>
      </trkpt>
      <trkpt lat="43.30845167" lon="-4.32722">
        <ele>346.0</ele>
        <time>2018-05-19T07:29:09.854Z</time>
      </trkpt>
      <trkpt lat="43.308495" lon="-4.32721667">
        <ele>346.0</ele>
        <time>2018-05-19T07:29:10.864Z</time>
      </trkpt>
      <trkpt lat="43.308495" lon="-4.32721667">
        <ele>346.0</ele>
        <time>2018-05-19T07:29:11.849Z</time>
      </trkpt>
      <trkpt lat="43.308585" lon="-4.32721833">
        <ele>346.0</ele>
        <time>2018-05-19T07:29:12.854Z</time>
      </trkpt>
      <trkpt lat="43.308585" lon="-4.32721833">
        <ele>346.0</ele>
        <time>2018-05-19T07:29:13.850Z</time>
      </trkpt>
      <trkpt lat="43.30867333" lon="-4.32723333">
        <ele>347.0</ele>
        <time>2018-05-19T07:29:14.854Z</time>
      </trkpt>
      <trkpt lat="43.30867333" lon="-4.32723333">
        <ele>347.0</ele>
        <time>2018-05-19T07:29:15.848Z</time>
      </trkpt>
      <trkpt lat="43.30874667" lon="-4.32726167">
        <ele>348.0</ele>
        <time>2018-05-19T07:29:16.855Z</time>
      </trkpt>
      <trkpt lat="43.30874667" lon="-4.32726167">
        <ele>348.0</ele>
        <time>2018-05-19T07:29:17.847Z</time>
      </trkpt>
      <trkpt lat="43.308815" lon="-4.3273">
        <ele>349.0</ele>
        <time>2018-05-19T07:29:18.855Z</time>
      </trkpt>
      <trkpt lat="43.308815" lon="-4.3273">
        <ele>349.0</ele>
        <time>2018-05-19T07:29:19.850Z</time>
      </trkpt>
      <trkpt lat="43.308885" lon="-4.327345">
        <ele>350.0</ele>
        <time>2018-05-19T07:29:20.854Z</time>
      </trkpt>
      <trkpt lat="43.30892" lon="-4.32736833">
        <ele>350.0</ele>
        <time>2018-05-19T07:29:21.854Z</time>
      </trkpt>
      <trkpt lat="43.30895333" lon="-4.32739">
        <ele>350.0</ele>
        <time>2018-05-19T07:29:22.855Z</time>
      </trkpt>
      <trkpt lat="43.30895333" lon="-4.32739">
        <ele>350.0</ele>
        <time>2018-05-19T07:29:23.848Z</time>
      </trkpt>
      <trkpt lat="43.30902333" lon="-4.32742167">
        <ele>351.0</ele>
        <time>2018-05-19T07:29:24.854Z</time>
      </trkpt>
      <trkpt lat="43.30902333" lon="-4.32742167">
        <ele>351.0</ele>
        <time>2018-05-19T07:29:25.849Z</time>
      </trkpt>
      <trkpt lat="43.30909333" lon="-4.327445">
        <ele>351.0</ele>
        <time>2018-05-19T07:29:26.854Z</time>
      </trkpt>
      <trkpt lat="43.30909333" lon="-4.327445">
        <ele>351.0</ele>
        <time>2018-05-19T07:29:27.882Z</time>
      </trkpt>
      <trkpt lat="43.309165" lon="-4.32747333">
        <ele>351.0</ele>
        <time>2018-05-19T07:29:28.866Z</time>
      </trkpt>
      <trkpt lat="43.309165" lon="-4.32747333">
        <ele>351.0</ele>
        <time>2018-05-19T07:29:29.852Z</time>
      </trkpt>
      <trkpt lat="43.30923667" lon="-4.327505">
        <ele>352.0</ele>
        <time>2018-05-19T07:29:30.854Z</time>
      </trkpt>
      <trkpt lat="43.30923667" lon="-4.327505">
        <ele>352.0</ele>
        <time>2018-05-19T07:29:31.848Z</time>
      </trkpt>
      <trkpt lat="43.30931" lon="-4.32754667">
        <ele>352.0</ele>
        <time>2018-05-19T07:29:32.852Z</time>
      </trkpt>
      <trkpt lat="43.30931" lon="-4.32754667">
        <ele>352.0</ele>
        <time>2018-05-19T07:29:33.848Z</time>
      </trkpt>
      <trkpt lat="43.30938333" lon="-4.32759833">
        <ele>352.0</ele>
        <time>2018-05-19T07:29:34.847Z</time>
      </trkpt>
      <trkpt lat="43.30938333" lon="-4.32759833">
        <ele>352.0</ele>
        <time>2018-05-19T07:29:35.860Z</time>
      </trkpt>
      <trkpt lat="43.30945667" lon="-4.32764833">
        <ele>352.0</ele>
        <time>2018-05-19T07:29:36.853Z</time>
      </trkpt>
      <trkpt lat="43.30945667" lon="-4.32764833">
        <ele>352.0</ele>
        <time>2018-05-19T07:29:37.848Z</time>
      </trkpt>
      <trkpt lat="43.30953" lon="-4.327705">
        <ele>353.0</ele>
        <time>2018-05-19T07:29:38.854Z</time>
      </trkpt>
      <trkpt lat="43.30953" lon="-4.327705">
        <ele>353.0</ele>
        <time>2018-05-19T07:29:39.850Z</time>
      </trkpt>
      <trkpt lat="43.30959833" lon="-4.32775833">
        <ele>353.0</ele>
        <time>2018-05-19T07:29:40.863Z</time>
      </trkpt>
      <trkpt lat="43.30959833" lon="-4.32775833">
        <ele>353.0</ele>
        <time>2018-05-19T07:29:41.849Z</time>
      </trkpt>
      <trkpt lat="43.30966667" lon="-4.32782">
        <ele>354.0</ele>
        <time>2018-05-19T07:29:42.855Z</time>
      </trkpt>
      <trkpt lat="43.30966667" lon="-4.32782">
        <ele>354.0</ele>
        <time>2018-05-19T07:29:43.848Z</time>
      </trkpt>
      <trkpt lat="43.30973167" lon="-4.327885">
        <ele>354.0</ele>
        <time>2018-05-19T07:29:44.854Z</time>
      </trkpt>
      <trkpt lat="43.30973167" lon="-4.327885">
        <ele>354.0</ele>
        <time>2018-05-19T07:29:45.863Z</time>
      </trkpt>
      <trkpt lat="43.30980167" lon="-4.32795333">
        <ele>354.0</ele>
        <time>2018-05-19T07:29:46.883Z</time>
      </trkpt>
      <trkpt lat="43.30980167" lon="-4.32795333">
        <ele>354.0</ele>
        <time>2018-05-19T07:29:47.849Z</time>
      </trkpt>
      <trkpt lat="43.30987167" lon="-4.32802667">
        <ele>354.0</ele>
        <time>2018-05-19T07:29:48.855Z</time>
      </trkpt>
      <trkpt lat="43.30990667" lon="-4.32806667">
        <ele>354.0</ele>
        <time>2018-05-19T07:29:49.856Z</time>
      </trkpt>
      <trkpt lat="43.30990667" lon="-4.32806667">
        <ele>354.0</ele>
        <time>2018-05-19T07:29:50.849Z</time>
      </trkpt>
      <trkpt lat="43.30997667" lon="-4.328145">
        <ele>354.0</ele>
        <time>2018-05-19T07:29:51.855Z</time>
      </trkpt>
      <trkpt lat="43.31001333" lon="-4.32818167">
        <ele>354.0</ele>
        <time>2018-05-19T07:29:52.855Z</time>
      </trkpt>
      <trkpt lat="43.31001333" lon="-4.32818167">
        <ele>354.0</ele>
        <time>2018-05-19T07:29:53.849Z</time>
      </trkpt>
      <trkpt lat="43.310085" lon="-4.32825333">
        <ele>354.0</ele>
        <time>2018-05-19T07:29:54.877Z</time>
      </trkpt>
      <trkpt lat="43.310085" lon="-4.32825333">
        <ele>354.0</ele>
        <time>2018-05-19T07:29:55.862Z</time>
      </trkpt>
      <trkpt lat="43.310155" lon="-4.32831667">
        <ele>354.0</ele>
        <time>2018-05-19T07:29:56.854Z</time>
      </trkpt>
      <trkpt lat="43.310155" lon="-4.32831667">
        <ele>354.0</ele>
        <time>2018-05-19T07:29:57.847Z</time>
      </trkpt>
      <trkpt lat="43.31022833" lon="-4.32838167">
        <ele>354.0</ele>
        <time>2018-05-19T07:29:58.855Z</time>
      </trkpt>
      <trkpt lat="43.31022833" lon="-4.32838167">
        <ele>354.0</ele>
        <time>2018-05-19T07:29:59.877Z</time>
      </trkpt>
      <trkpt lat="43.31030833" lon="-4.32844667">
        <ele>353.0</ele>
        <time>2018-05-19T07:30:00.862Z</time>
      </trkpt>
      <trkpt lat="43.31030833" lon="-4.32844667">
        <ele>353.0</ele>
        <time>2018-05-19T07:30:01.849Z</time>
      </trkpt>
      <trkpt lat="43.31038167" lon="-4.32852333">
        <ele>353.0</ele>
        <time>2018-05-19T07:30:02.852Z</time>
      </trkpt>
      <trkpt lat="43.31042167" lon="-4.32856333">
        <ele>353.0</ele>
        <time>2018-05-19T07:30:03.854Z</time>
      </trkpt>
      <trkpt lat="43.31046833" lon="-4.3286">
        <ele>353.0</ele>
        <time>2018-05-19T07:30:04.863Z</time>
      </trkpt>
      <trkpt lat="43.31046833" lon="-4.3286">
        <ele>353.0</ele>
        <time>2018-05-19T07:30:05.849Z</time>
      </trkpt>
      <trkpt lat="43.31055833" lon="-4.32868333">
        <ele>352.0</ele>
        <time>2018-05-19T07:30:06.855Z</time>
      </trkpt>
      <trkpt lat="43.31055833" lon="-4.32868333">
        <ele>352.0</ele>
        <time>2018-05-19T07:30:07.846Z</time>
      </trkpt>
      <trkpt lat="43.31065167" lon="-4.328785">
        <ele>352.0</ele>
        <time>2018-05-19T07:30:08.854Z</time>
      </trkpt>
      <trkpt lat="43.3107" lon="-4.32883833">
        <ele>352.0</ele>
        <time>2018-05-19T07:30:09.854Z</time>
      </trkpt>
      <trkpt lat="43.31074667" lon="-4.32889333">
        <ele>352.0</ele>
        <time>2018-05-19T07:30:10.864Z</time>
      </trkpt>
      <trkpt lat="43.31074667" lon="-4.32889333">
        <ele>352.0</ele>
        <time>2018-05-19T07:30:11.851Z</time>
      </trkpt>
      <trkpt lat="43.31083833" lon="-4.329005">
        <ele>352.0</ele>
        <time>2018-05-19T07:30:12.854Z</time>
      </trkpt>
      <trkpt lat="43.31083833" lon="-4.329005">
        <ele>352.0</ele>
        <time>2018-05-19T07:30:13.852Z</time>
      </trkpt>
      <trkpt lat="43.31093333" lon="-4.32911333">
        <ele>352.0</ele>
        <time>2018-05-19T07:30:14.853Z</time>
      </trkpt>
      <trkpt lat="43.31093333" lon="-4.32911333">
        <ele>352.0</ele>
        <time>2018-05-19T07:30:15.852Z</time>
      </trkpt>
      <trkpt lat="43.31101333" lon="-4.32923333">
        <ele>352.0</ele>
        <time>2018-05-19T07:30:16.855Z</time>
      </trkpt>
      <trkpt lat="43.31101333" lon="-4.32923333">
        <ele>352.0</ele>
        <time>2018-05-19T07:30:17.848Z</time>
      </trkpt>
      <trkpt lat="43.31104833" lon="-4.32938333">
        <ele>351.0</ele>
        <time>2018-05-19T07:30:18.855Z</time>
      </trkpt>
      <trkpt lat="43.31104833" lon="-4.32938333">
        <ele>351.0</ele>
        <time>2018-05-19T07:30:19.848Z</time>
      </trkpt>
      <trkpt lat="43.31104833" lon="-4.32954667">
        <ele>350.0</ele>
        <time>2018-05-19T07:30:20.854Z</time>
      </trkpt>
      <trkpt lat="43.31104833" lon="-4.32954667">
        <ele>350.0</ele>
        <time>2018-05-19T07:30:21.849Z</time>
      </trkpt>
      <trkpt lat="43.31102833" lon="-4.32969">
        <ele>348.0</ele>
        <time>2018-05-19T07:30:22.855Z</time>
      </trkpt>
      <trkpt lat="43.31102833" lon="-4.32969">
        <ele>348.0</ele>
        <time>2018-05-19T07:30:23.848Z</time>
      </trkpt>
      <trkpt lat="43.31101333" lon="-4.32979833">
        <ele>347.0</ele>
        <time>2018-05-19T07:30:24.877Z</time>
      </trkpt>
      <trkpt lat="43.311005" lon="-4.32984667">
        <ele>347.0</ele>
        <time>2018-05-19T07:30:25.877Z</time>
      </trkpt>
      <trkpt lat="43.31099667" lon="-4.329895">
        <ele>346.0</ele>
        <time>2018-05-19T07:30:26.863Z</time>
      </trkpt>
      <trkpt lat="43.31099667" lon="-4.329895">
        <ele>346.0</ele>
        <time>2018-05-19T07:30:27.848Z</time>
      </trkpt>
      <trkpt lat="43.31097833" lon="-4.330025">
        <ele>344.0</ele>
        <time>2018-05-19T07:30:28.855Z</time>
      </trkpt>
      <trkpt lat="43.31097833" lon="-4.330025">
        <ele>344.0</ele>
        <time>2018-05-19T07:30:29.850Z</time>
      </trkpt>
      <trkpt lat="43.31095" lon="-4.33021167">
        <ele>342.0</ele>
        <time>2018-05-19T07:30:30.854Z</time>
      </trkpt>
      <trkpt lat="43.31095" lon="-4.33021167">
        <ele>342.0</ele>
        <time>2018-05-19T07:30:31.849Z</time>
      </trkpt>
      <trkpt lat="43.31091167" lon="-4.33044167">
        <ele>339.0</ele>
        <time>2018-05-19T07:30:32.854Z</time>
      </trkpt>
      <trkpt lat="43.31091167" lon="-4.33044167">
        <ele>339.0</ele>
        <time>2018-05-19T07:30:33.848Z</time>
      </trkpt>
      <trkpt lat="43.31088333" lon="-4.33066167">
        <ele>337.0</ele>
        <time>2018-05-19T07:30:34.854Z</time>
      </trkpt>
      <trkpt lat="43.31088333" lon="-4.33066167">
        <ele>337.0</ele>
        <time>2018-05-19T07:30:35.848Z</time>
      </trkpt>
      <trkpt lat="43.31086333" lon="-4.33083333">
        <ele>334.0</ele>
        <time>2018-05-19T07:30:36.862Z</time>
      </trkpt>
      <trkpt lat="43.31086333" lon="-4.33083333">
        <ele>334.0</ele>
        <time>2018-05-19T07:30:37.847Z</time>
      </trkpt>
      <trkpt lat="43.31085833" lon="-4.330995">
        <ele>332.0</ele>
        <time>2018-05-19T07:30:38.853Z</time>
      </trkpt>
      <trkpt lat="43.31085833" lon="-4.330995">
        <ele>332.0</ele>
        <time>2018-05-19T07:30:39.850Z</time>
      </trkpt>
      <trkpt lat="43.310835" lon="-4.331185">
        <ele>329.0</ele>
        <time>2018-05-19T07:30:40.855Z</time>
      </trkpt>
      <trkpt lat="43.310835" lon="-4.331185">
        <ele>329.0</ele>
        <time>2018-05-19T07:30:41.849Z</time>
      </trkpt>
      <trkpt lat="43.31079333" lon="-4.33139167">
        <ele>326.0</ele>
        <time>2018-05-19T07:30:42.855Z</time>
      </trkpt>
      <trkpt lat="43.31079333" lon="-4.33139167">
        <ele>326.0</ele>
        <time>2018-05-19T07:30:43.849Z</time>
      </trkpt>
      <trkpt lat="43.31073833" lon="-4.3316">
        <ele>325.0</ele>
        <time>2018-05-19T07:30:44.855Z</time>
      </trkpt>
      <trkpt lat="43.31073833" lon="-4.3316">
        <ele>325.0</ele>
        <time>2018-05-19T07:30:45.867Z</time>
      </trkpt>
      <trkpt lat="43.31068" lon="-4.331825">
        <ele>323.0</ele>
        <time>2018-05-19T07:30:46.856Z</time>
      </trkpt>
      <trkpt lat="43.31068" lon="-4.331825">
        <ele>323.0</ele>
        <time>2018-05-19T07:30:47.845Z</time>
      </trkpt>
      <trkpt lat="43.31062333" lon="-4.33203833">
        <ele>322.0</ele>
        <time>2018-05-19T07:30:48.877Z</time>
      </trkpt>
      <trkpt lat="43.31062333" lon="-4.33203833">
        <ele>322.0</ele>
        <time>2018-05-19T07:30:49.869Z</time>
      </trkpt>
      <trkpt lat="43.31058167" lon="-4.33225667">
        <ele>320.0</ele>
        <time>2018-05-19T07:30:50.854Z</time>
      </trkpt>
      <trkpt lat="43.31056167" lon="-4.33237">
        <ele>319.0</ele>
        <time>2018-05-19T07:30:51.856Z</time>
      </trkpt>
      <trkpt lat="43.31056167" lon="-4.33237">
        <ele>319.0</ele>
        <time>2018-05-19T07:30:52.847Z</time>
      </trkpt>
      <trkpt lat="43.310525" lon="-4.33259">
        <ele>317.0</ele>
        <time>2018-05-19T07:30:53.854Z</time>
      </trkpt>
      <trkpt lat="43.310525" lon="-4.33259">
        <ele>317.0</ele>
        <time>2018-05-19T07:30:54.848Z</time>
      </trkpt>
      <trkpt lat="43.31048667" lon="-4.33280833">
        <ele>315.0</ele>
        <time>2018-05-19T07:30:55.853Z</time>
      </trkpt>
      <trkpt lat="43.31048667" lon="-4.33280833">
        <ele>315.0</ele>
        <time>2018-05-19T07:30:56.880Z</time>
      </trkpt>
      <trkpt lat="43.31044833" lon="-4.33301">
        <ele>313.0</ele>
        <time>2018-05-19T07:30:57.866Z</time>
      </trkpt>
      <trkpt lat="43.31043" lon="-4.333115">
        <ele>313.0</ele>
        <time>2018-05-19T07:30:58.856Z</time>
      </trkpt>
      <trkpt lat="43.31043" lon="-4.333115">
        <ele>313.0</ele>
        <time>2018-05-19T07:30:59.852Z</time>
      </trkpt>
      <trkpt lat="43.310405" lon="-4.33334">
        <ele>311.0</ele>
        <time>2018-05-19T07:31:00.856Z</time>
      </trkpt>
      <trkpt lat="43.310405" lon="-4.33334">
        <ele>311.0</ele>
        <time>2018-05-19T07:31:01.849Z</time>
      </trkpt>
      <trkpt lat="43.31041333" lon="-4.33355">
        <ele>309.0</ele>
        <time>2018-05-19T07:31:02.852Z</time>
      </trkpt>
      <trkpt lat="43.31043" lon="-4.33364333">
        <ele>308.0</ele>
        <time>2018-05-19T07:31:03.852Z</time>
      </trkpt>
      <trkpt lat="43.31045333" lon="-4.33373">
        <ele>307.0</ele>
        <time>2018-05-19T07:31:04.856Z</time>
      </trkpt>
      <trkpt lat="43.31045333" lon="-4.33373">
        <ele>307.0</ele>
        <time>2018-05-19T07:31:05.847Z</time>
      </trkpt>
      <trkpt lat="43.31051167" lon="-4.333895">
        <ele>307.0</ele>
        <time>2018-05-19T07:31:06.870Z</time>
      </trkpt>
      <trkpt lat="43.31051167" lon="-4.333895">
        <ele>307.0</ele>
        <time>2018-05-19T07:31:07.867Z</time>
      </trkpt>
      <trkpt lat="43.31058167" lon="-4.33403833">
        <ele>306.0</ele>
        <time>2018-05-19T07:31:08.853Z</time>
      </trkpt>
      <trkpt lat="43.31061167" lon="-4.33410833">
        <ele>306.0</ele>
        <time>2018-05-19T07:31:09.850Z</time>
      </trkpt>
      <trkpt lat="43.31061167" lon="-4.33410833">
        <ele>306.0</ele>
        <time>2018-05-19T07:31:10.864Z</time>
      </trkpt>
      <trkpt lat="43.31066667" lon="-4.33424667">
        <ele>306.0</ele>
        <time>2018-05-19T07:31:11.850Z</time>
      </trkpt>
      <trkpt lat="43.31069333" lon="-4.33431833">
        <ele>306.0</ele>
        <time>2018-05-19T07:31:12.854Z</time>
      </trkpt>
      <trkpt lat="43.31069333" lon="-4.33431833">
        <ele>306.0</ele>
        <time>2018-05-19T07:31:13.880Z</time>
      </trkpt>
      <trkpt lat="43.310735" lon="-4.33448">
        <ele>306.0</ele>
        <time>2018-05-19T07:31:14.866Z</time>
      </trkpt>
      <trkpt lat="43.31074833" lon="-4.33457167">
        <ele>306.0</ele>
        <time>2018-05-19T07:31:15.854Z</time>
      </trkpt>
      <trkpt lat="43.31075833" lon="-4.33466833">
        <ele>305.0</ele>
        <time>2018-05-19T07:31:16.856Z</time>
      </trkpt>
      <trkpt lat="43.31075833" lon="-4.33466833">
        <ele>305.0</ele>
        <time>2018-05-19T07:31:17.848Z</time>
      </trkpt>
      <trkpt lat="43.310765" lon="-4.33486833">
        <ele>304.0</ele>
        <time>2018-05-19T07:31:18.854Z</time>
      </trkpt>
      <trkpt lat="43.310765" lon="-4.33486833">
        <ele>304.0</ele>
        <time>2018-05-19T07:31:19.851Z</time>
      </trkpt>
      <trkpt lat="43.31077" lon="-4.335075">
        <ele>301.0</ele>
        <time>2018-05-19T07:31:20.854Z</time>
      </trkpt>
      <trkpt lat="43.31077" lon="-4.335075">
        <ele>301.0</ele>
        <time>2018-05-19T07:31:21.849Z</time>
      </trkpt>
      <trkpt lat="43.310795" lon="-4.33529333">
        <ele>298.0</ele>
        <time>2018-05-19T07:31:22.855Z</time>
      </trkpt>
      <trkpt lat="43.310795" lon="-4.33529333">
        <ele>298.0</ele>
        <time>2018-05-19T07:31:23.849Z</time>
      </trkpt>
      <trkpt lat="43.31081833" lon="-4.33550667">
        <ele>296.0</ele>
        <time>2018-05-19T07:31:24.876Z</time>
      </trkpt>
      <trkpt lat="43.31082833" lon="-4.335615">
        <ele>295.0</ele>
        <time>2018-05-19T07:31:25.868Z</time>
      </trkpt>
      <trkpt lat="43.31082833" lon="-4.335615">
        <ele>295.0</ele>
        <time>2018-05-19T07:31:26.852Z</time>
      </trkpt>
      <trkpt lat="43.31085" lon="-4.33585">
        <ele>292.0</ele>
        <time>2018-05-19T07:31:27.849Z</time>
      </trkpt>
      <trkpt lat="43.31086" lon="-4.33596667">
        <ele>292.0</ele>
        <time>2018-05-19T07:31:28.854Z</time>
      </trkpt>
      <trkpt lat="43.31086" lon="-4.33596667">
        <ele>292.0</ele>
        <time>2018-05-19T07:31:29.850Z</time>
      </trkpt>
      <trkpt lat="43.31087333" lon="-4.33619167">
        <ele>291.0</ele>
        <time>2018-05-19T07:31:30.852Z</time>
      </trkpt>
      <trkpt lat="43.31087333" lon="-4.33619167">
        <ele>291.0</ele>
        <time>2018-05-19T07:31:31.847Z</time>
      </trkpt>
      <trkpt lat="43.31088333" lon="-4.3364">
        <ele>288.0</ele>
        <time>2018-05-19T07:31:32.849Z</time>
      </trkpt>
      <trkpt lat="43.31089333" lon="-4.33649667">
        <ele>287.0</ele>
        <time>2018-05-19T07:31:33.852Z</time>
      </trkpt>
      <trkpt lat="43.31089333" lon="-4.33649667">
        <ele>287.0</ele>
        <time>2018-05-19T07:31:34.851Z</time>
      </trkpt>
      <trkpt lat="43.310915" lon="-4.33666667">
        <ele>285.0</ele>
        <time>2018-05-19T07:31:35.860Z</time>
      </trkpt>
      <trkpt lat="43.31092833" lon="-4.33674833">
        <ele>284.0</ele>
        <time>2018-05-19T07:31:36.853Z</time>
      </trkpt>
      <trkpt lat="43.31092833" lon="-4.33674833">
        <ele>284.0</ele>
        <time>2018-05-19T07:31:37.847Z</time>
      </trkpt>
      <trkpt lat="43.31095833" lon="-4.33691333">
        <ele>282.0</ele>
        <time>2018-05-19T07:31:38.853Z</time>
      </trkpt>
      <trkpt lat="43.31097167" lon="-4.337005">
        <ele>281.0</ele>
        <time>2018-05-19T07:31:39.853Z</time>
      </trkpt>
      <trkpt lat="43.31097333" lon="-4.33710667">
        <ele>280.0</ele>
        <time>2018-05-19T07:31:40.855Z</time>
      </trkpt>
      <trkpt lat="43.31097333" lon="-4.33710667">
        <ele>280.0</ele>
        <time>2018-05-19T07:31:41.848Z</time>
      </trkpt>
      <trkpt lat="43.31093" lon="-4.33730167">
        <ele>277.0</ele>
        <time>2018-05-19T07:31:42.854Z</time>
      </trkpt>
      <trkpt lat="43.31093" lon="-4.33730167">
        <ele>277.0</ele>
        <time>2018-05-19T07:31:43.848Z</time>
      </trkpt>
      <trkpt lat="43.31087" lon="-4.33748833">
        <ele>274.0</ele>
        <time>2018-05-19T07:31:44.878Z</time>
      </trkpt>
      <trkpt lat="43.31087" lon="-4.33748833">
        <ele>274.0</ele>
        <time>2018-05-19T07:31:45.864Z</time>
      </trkpt>
      <trkpt lat="43.31082333" lon="-4.33765667">
        <ele>273.0</ele>
        <time>2018-05-19T07:31:46.845Z</time>
      </trkpt>
      <trkpt lat="43.31082333" lon="-4.33765667">
        <ele>273.0</ele>
        <time>2018-05-19T07:31:47.851Z</time>
      </trkpt>
      <trkpt lat="43.310785" lon="-4.3378">
        <ele>271.0</ele>
        <time>2018-05-19T07:31:48.857Z</time>
      </trkpt>
      <trkpt lat="43.310785" lon="-4.3378">
        <ele>271.0</ele>
        <time>2018-05-19T07:31:49.850Z</time>
      </trkpt>
      <trkpt lat="43.31074" lon="-4.33794333">
        <ele>269.0</ele>
        <time>2018-05-19T07:31:50.868Z</time>
      </trkpt>
      <trkpt lat="43.31074" lon="-4.33794333">
        <ele>269.0</ele>
        <time>2018-05-19T07:31:51.854Z</time>
      </trkpt>
      <trkpt lat="43.31066833" lon="-4.33811833">
        <ele>266.0</ele>
        <time>2018-05-19T07:31:52.860Z</time>
      </trkpt>
      <trkpt lat="43.31066833" lon="-4.33811833">
        <ele>266.0</ele>
        <time>2018-05-19T07:31:53.849Z</time>
      </trkpt>
      <trkpt lat="43.31059833" lon="-4.338295">
        <ele>265.0</ele>
        <time>2018-05-19T07:31:54.854Z</time>
      </trkpt>
      <trkpt lat="43.31059833" lon="-4.338295">
        <ele>265.0</ele>
        <time>2018-05-19T07:31:55.848Z</time>
      </trkpt>
      <trkpt lat="43.31054333" lon="-4.33846">
        <ele>263.0</ele>
        <time>2018-05-19T07:31:56.850Z</time>
      </trkpt>
      <trkpt lat="43.31054333" lon="-4.33846">
        <ele>263.0</ele>
        <time>2018-05-19T07:31:57.850Z</time>
      </trkpt>
      <trkpt lat="43.31050667" lon="-4.33862833">
        <ele>261.0</ele>
        <time>2018-05-19T07:31:58.855Z</time>
      </trkpt>
      <trkpt lat="43.31049" lon="-4.33871333">
        <ele>260.0</ele>
        <time>2018-05-19T07:31:59.856Z</time>
      </trkpt>
      <trkpt lat="43.31049" lon="-4.33871333">
        <ele>260.0</ele>
        <time>2018-05-19T07:32:00.852Z</time>
      </trkpt>
      <trkpt lat="43.31044667" lon="-4.33887167">
        <ele>257.0</ele>
        <time>2018-05-19T07:32:01.854Z</time>
      </trkpt>
      <trkpt lat="43.31044667" lon="-4.33887167">
        <ele>257.0</ele>
        <time>2018-05-19T07:32:02.849Z</time>
      </trkpt>
      <trkpt lat="43.31040167" lon="-4.33901667">
        <ele>255.0</ele>
        <time>2018-05-19T07:32:03.851Z</time>
      </trkpt>
      <trkpt lat="43.31037667" lon="-4.33908667">
        <ele>253.0</ele>
        <time>2018-05-19T07:32:04.853Z</time>
      </trkpt>
      <trkpt lat="43.31037667" lon="-4.33908667">
        <ele>253.0</ele>
        <time>2018-05-19T07:32:05.880Z</time>
      </trkpt>
      <trkpt lat="43.31033167" lon="-4.33922833">
        <ele>251.0</ele>
        <time>2018-05-19T07:32:06.863Z</time>
      </trkpt>
      <trkpt lat="43.31033167" lon="-4.33922833">
        <ele>251.0</ele>
        <time>2018-05-19T07:32:07.846Z</time>
      </trkpt>
      <trkpt lat="43.310305" lon="-4.33937">
        <ele>248.0</ele>
        <time>2018-05-19T07:32:08.852Z</time>
      </trkpt>
      <trkpt lat="43.310305" lon="-4.33937">
        <ele>248.0</ele>
        <time>2018-05-19T07:32:09.850Z</time>
      </trkpt>
      <trkpt lat="43.310275" lon="-4.33953">
        <ele>245.0</ele>
        <time>2018-05-19T07:32:10.876Z</time>
      </trkpt>
      <trkpt lat="43.310275" lon="-4.33953">
        <ele>245.0</ele>
        <time>2018-05-19T07:32:11.847Z</time>
      </trkpt>
      <trkpt lat="43.310235" lon="-4.33970167">
        <ele>242.0</ele>
        <time>2018-05-19T07:32:12.853Z</time>
      </trkpt>
      <trkpt lat="43.310235" lon="-4.33970167">
        <ele>242.0</ele>
        <time>2018-05-19T07:32:13.848Z</time>
      </trkpt>
      <trkpt lat="43.31018" lon="-4.339875">
        <ele>239.0</ele>
        <time>2018-05-19T07:32:14.878Z</time>
      </trkpt>
      <trkpt lat="43.310145" lon="-4.33996333">
        <ele>237.0</ele>
        <time>2018-05-19T07:32:15.864Z</time>
      </trkpt>
      <trkpt lat="43.31010833" lon="-4.34004667">
        <ele>236.0</ele>
        <time>2018-05-19T07:32:16.853Z</time>
      </trkpt>
      <trkpt lat="43.31010833" lon="-4.34004667">
        <ele>236.0</ele>
        <time>2018-05-19T07:32:17.848Z</time>
      </trkpt>
      <trkpt lat="43.31004" lon="-4.34016667">
        <ele>233.0</ele>
        <time>2018-05-19T07:32:18.854Z</time>
      </trkpt>
      <trkpt lat="43.31004" lon="-4.34016667">
        <ele>233.0</ele>
        <time>2018-05-19T07:32:19.849Z</time>
      </trkpt>
      <trkpt lat="43.30994833" lon="-4.34024333">
        <ele>233.0</ele>
        <time>2018-05-19T07:32:20.878Z</time>
      </trkpt>
      <trkpt lat="43.30994833" lon="-4.34024333">
        <ele>233.0</ele>
        <time>2018-05-19T07:32:21.863Z</time>
      </trkpt>
      <trkpt lat="43.309835" lon="-4.34031167">
        <ele>232.0</ele>
        <time>2018-05-19T07:32:22.856Z</time>
      </trkpt>
      <trkpt lat="43.309835" lon="-4.34031167">
        <ele>232.0</ele>
        <time>2018-05-19T07:32:23.850Z</time>
      </trkpt>
      <trkpt lat="43.30975167" lon="-4.34041667">
        <ele>230.0</ele>
        <time>2018-05-19T07:32:24.850Z</time>
      </trkpt>
      <trkpt lat="43.30975167" lon="-4.34041667">
        <ele>230.0</ele>
        <time>2018-05-19T07:32:25.850Z</time>
      </trkpt>
      <trkpt lat="43.309705" lon="-4.34055">
        <ele>228.0</ele>
        <time>2018-05-19T07:32:26.852Z</time>
      </trkpt>
      <trkpt lat="43.309705" lon="-4.34055">
        <ele>228.0</ele>
        <time>2018-05-19T07:32:27.846Z</time>
      </trkpt>
      <trkpt lat="43.30970833" lon="-4.34071333">
        <ele>226.0</ele>
        <time>2018-05-19T07:32:28.868Z</time>
      </trkpt>
      <trkpt lat="43.30970833" lon="-4.34071333">
        <ele>226.0</ele>
        <time>2018-05-19T07:32:29.853Z</time>
      </trkpt>
      <trkpt lat="43.309745" lon="-4.34085833">
        <ele>224.0</ele>
        <time>2018-05-19T07:32:30.854Z</time>
      </trkpt>
      <trkpt lat="43.309745" lon="-4.34085833">
        <ele>224.0</ele>
        <time>2018-05-19T07:32:31.847Z</time>
      </trkpt>
      <trkpt lat="43.30977667" lon="-4.341">
        <ele>222.0</ele>
        <time>2018-05-19T07:32:32.852Z</time>
      </trkpt>
      <trkpt lat="43.30977667" lon="-4.341">
        <ele>222.0</ele>
        <time>2018-05-19T07:32:33.849Z</time>
      </trkpt>
      <trkpt lat="43.3098" lon="-4.34115833">
        <ele>220.0</ele>
        <time>2018-05-19T07:32:34.847Z</time>
      </trkpt>
      <trkpt lat="43.3098" lon="-4.34115833">
        <ele>220.0</ele>
        <time>2018-05-19T07:32:35.847Z</time>
      </trkpt>
      <trkpt lat="43.30981333" lon="-4.341335">
        <ele>219.0</ele>
        <time>2018-05-19T07:32:36.861Z</time>
      </trkpt>
      <trkpt lat="43.30981333" lon="-4.341335">
        <ele>219.0</ele>
        <time>2018-05-19T07:32:37.848Z</time>
      </trkpt>
      <trkpt lat="43.309785" lon="-4.34155167">
        <ele>216.0</ele>
        <time>2018-05-19T07:32:38.852Z</time>
      </trkpt>
      <trkpt lat="43.309785" lon="-4.34155167">
        <ele>216.0</ele>
        <time>2018-05-19T07:32:39.850Z</time>
      </trkpt>
      <trkpt lat="43.30976167" lon="-4.34175833">
        <ele>215.0</ele>
        <time>2018-05-19T07:32:40.877Z</time>
      </trkpt>
      <trkpt lat="43.30976333" lon="-4.34183833">
        <ele>214.0</ele>
        <time>2018-05-19T07:32:41.861Z</time>
      </trkpt>
      <trkpt lat="43.30978" lon="-4.341905">
        <ele>213.0</ele>
        <time>2018-05-19T07:32:42.853Z</time>
      </trkpt>
      <trkpt lat="43.30978" lon="-4.341905">
        <ele>213.0</ele>
        <time>2018-05-19T07:32:43.850Z</time>
      </trkpt>
      <trkpt lat="43.30984833" lon="-4.34202333">
        <ele>211.0</ele>
        <time>2018-05-19T07:32:44.853Z</time>
      </trkpt>
      <trkpt lat="43.30989667" lon="-4.34208333">
        <ele>210.0</ele>
        <time>2018-05-19T07:32:45.867Z</time>
      </trkpt>
      <trkpt lat="43.30994167" lon="-4.342155">
        <ele>210.0</ele>
        <time>2018-05-19T07:32:46.856Z</time>
      </trkpt>
      <trkpt lat="43.30994167" lon="-4.342155">
        <ele>210.0</ele>
        <time>2018-05-19T07:32:47.846Z</time>
      </trkpt>
      <trkpt lat="43.31000167" lon="-4.34233833">
        <ele>208.0</ele>
        <time>2018-05-19T07:32:48.868Z</time>
      </trkpt>
      <trkpt lat="43.31000167" lon="-4.34233833">
        <ele>208.0</ele>
        <time>2018-05-19T07:32:49.854Z</time>
      </trkpt>
      <trkpt lat="43.31003667" lon="-4.342545">
        <ele>207.0</ele>
        <time>2018-05-19T07:32:50.852Z</time>
      </trkpt>
      <trkpt lat="43.31005833" lon="-4.34265333">
        <ele>206.0</ele>
        <time>2018-05-19T07:32:51.852Z</time>
      </trkpt>
      <trkpt lat="43.310085" lon="-4.34276167">
        <ele>205.0</ele>
        <time>2018-05-19T07:32:52.854Z</time>
      </trkpt>
      <trkpt lat="43.310085" lon="-4.34276167">
        <ele>205.0</ele>
        <time>2018-05-19T07:32:53.849Z</time>
      </trkpt>
      <trkpt lat="43.310155" lon="-4.34296167">
        <ele>203.0</ele>
        <time>2018-05-19T07:32:54.855Z</time>
      </trkpt>
      <trkpt lat="43.310155" lon="-4.34296167">
        <ele>203.0</ele>
        <time>2018-05-19T07:32:55.844Z</time>
      </trkpt>
      <trkpt lat="43.31026833" lon="-4.3431">
        <ele>201.0</ele>
        <time>2018-05-19T07:32:56.852Z</time>
      </trkpt>
      <trkpt lat="43.31026833" lon="-4.3431">
        <ele>201.0</ele>
        <time>2018-05-19T07:32:57.844Z</time>
      </trkpt>
      <trkpt lat="43.31041333" lon="-4.34315167">
        <ele>201.0</ele>
        <time>2018-05-19T07:32:58.870Z</time>
      </trkpt>
      <trkpt lat="43.31041333" lon="-4.34315167">
        <ele>201.0</ele>
        <time>2018-05-19T07:32:59.856Z</time>
      </trkpt>
      <trkpt lat="43.310535" lon="-4.34315667">
        <ele>200.0</ele>
        <time>2018-05-19T07:33:00.860Z</time>
      </trkpt>
      <trkpt lat="43.310535" lon="-4.34315667">
        <ele>200.0</ele>
        <time>2018-05-19T07:33:01.850Z</time>
      </trkpt>
      <trkpt lat="43.31063167" lon="-4.343225">
        <ele>199.0</ele>
        <time>2018-05-19T07:33:02.851Z</time>
      </trkpt>
      <trkpt lat="43.31063167" lon="-4.343225">
        <ele>199.0</ele>
        <time>2018-05-19T07:33:03.846Z</time>
      </trkpt>
      <trkpt lat="43.310685" lon="-4.34334833">
        <ele>198.0</ele>
        <time>2018-05-19T07:33:04.876Z</time>
      </trkpt>
      <trkpt lat="43.310685" lon="-4.34334833">
        <ele>198.0</ele>
        <time>2018-05-19T07:33:05.860Z</time>
      </trkpt>
      <trkpt lat="43.31069" lon="-4.34352833">
        <ele>197.0</ele>
        <time>2018-05-19T07:33:06.853Z</time>
      </trkpt>
      <trkpt lat="43.31069" lon="-4.34352833">
        <ele>197.0</ele>
        <time>2018-05-19T07:33:07.880Z</time>
      </trkpt>
      <trkpt lat="43.31067667" lon="-4.34373333">
        <ele>194.0</ele>
        <time>2018-05-19T07:33:08.864Z</time>
      </trkpt>
      <trkpt lat="43.31067667" lon="-4.34373333">
        <ele>194.0</ele>
        <time>2018-05-19T07:33:09.850Z</time>
      </trkpt>
      <trkpt lat="43.31067333" lon="-4.34392667">
        <ele>191.0</ele>
        <time>2018-05-19T07:33:10.854Z</time>
      </trkpt>
      <trkpt lat="43.31067333" lon="-4.34392667">
        <ele>191.0</ele>
        <time>2018-05-19T07:33:11.847Z</time>
      </trkpt>
      <trkpt lat="43.31067667" lon="-4.34411167">
        <ele>189.0</ele>
        <time>2018-05-19T07:33:12.854Z</time>
      </trkpt>
      <trkpt lat="43.31067667" lon="-4.34411167">
        <ele>189.0</ele>
        <time>2018-05-19T07:33:13.851Z</time>
      </trkpt>
      <trkpt lat="43.310695" lon="-4.34426333">
        <ele>187.0</ele>
        <time>2018-05-19T07:33:14.850Z</time>
      </trkpt>
      <trkpt lat="43.310695" lon="-4.34426333">
        <ele>187.0</ele>
        <time>2018-05-19T07:33:15.846Z</time>
      </trkpt>
      <trkpt lat="43.31073833" lon="-4.34438167">
        <ele>185.0</ele>
        <time>2018-05-19T07:33:16.853Z</time>
      </trkpt>
      <trkpt lat="43.31073833" lon="-4.34438167">
        <ele>185.0</ele>
        <time>2018-05-19T07:33:17.844Z</time>
      </trkpt>
      <trkpt lat="43.31083" lon="-4.34445167">
        <ele>182.0</ele>
        <time>2018-05-19T07:33:18.867Z</time>
      </trkpt>
      <trkpt lat="43.31083" lon="-4.34445167">
        <ele>182.0</ele>
        <time>2018-05-19T07:33:19.852Z</time>
      </trkpt>
      <trkpt lat="43.31096667" lon="-4.34447833">
        <ele>180.0</ele>
        <time>2018-05-19T07:33:20.854Z</time>
      </trkpt>
      <trkpt lat="43.31096667" lon="-4.34447833">
        <ele>180.0</ele>
        <time>2018-05-19T07:33:21.850Z</time>
      </trkpt>
      <trkpt lat="43.31111" lon="-4.34451167">
        <ele>177.0</ele>
        <time>2018-05-19T07:33:22.854Z</time>
      </trkpt>
      <trkpt lat="43.31111" lon="-4.34451167">
        <ele>177.0</ele>
        <time>2018-05-19T07:33:23.850Z</time>
      </trkpt>
      <trkpt lat="43.31124667" lon="-4.34461167">
        <ele>175.0</ele>
        <time>2018-05-19T07:33:24.854Z</time>
      </trkpt>
      <trkpt lat="43.31124667" lon="-4.34461167">
        <ele>175.0</ele>
        <time>2018-05-19T07:33:25.848Z</time>
      </trkpt>
      <trkpt lat="43.31136333" lon="-4.34476">
        <ele>173.0</ele>
        <time>2018-05-19T07:33:26.850Z</time>
      </trkpt>
      <trkpt lat="43.31136333" lon="-4.34476">
        <ele>173.0</ele>
        <time>2018-05-19T07:33:27.849Z</time>
      </trkpt>
      <trkpt lat="43.3115" lon="-4.34484333">
        <ele>171.0</ele>
        <time>2018-05-19T07:33:28.854Z</time>
      </trkpt>
      <trkpt lat="43.31157333" lon="-4.34483833">
        <ele>170.0</ele>
        <time>2018-05-19T07:33:29.852Z</time>
      </trkpt>
      <trkpt lat="43.31157333" lon="-4.34483833">
        <ele>170.0</ele>
        <time>2018-05-19T07:33:30.848Z</time>
      </trkpt>
      <trkpt lat="43.311715" lon="-4.344805">
        <ele>168.0</ele>
        <time>2018-05-19T07:33:31.852Z</time>
      </trkpt>
      <trkpt lat="43.311715" lon="-4.344805">
        <ele>168.0</ele>
        <time>2018-05-19T07:33:32.850Z</time>
      </trkpt>
      <trkpt lat="43.31185667" lon="-4.34483">
        <ele>166.0</ele>
        <time>2018-05-19T07:33:33.851Z</time>
      </trkpt>
      <trkpt lat="43.31193" lon="-4.344845">
        <ele>165.0</ele>
        <time>2018-05-19T07:33:34.856Z</time>
      </trkpt>
      <trkpt lat="43.31193" lon="-4.344845">
        <ele>165.0</ele>
        <time>2018-05-19T07:33:35.860Z</time>
      </trkpt>
      <trkpt lat="43.31208167" lon="-4.34478833">
        <ele>163.0</ele>
        <time>2018-05-19T07:33:36.854Z</time>
      </trkpt>
      <trkpt lat="43.31208167" lon="-4.34478833">
        <ele>163.0</ele>
        <time>2018-05-19T07:33:37.844Z</time>
      </trkpt>
      <trkpt lat="43.31221333" lon="-4.34466833">
        <ele>161.0</ele>
        <time>2018-05-19T07:33:38.852Z</time>
      </trkpt>
      <trkpt lat="43.31221333" lon="-4.34466833">
        <ele>161.0</ele>
        <time>2018-05-19T07:33:39.846Z</time>
      </trkpt>
      <trkpt lat="43.31231833" lon="-4.34459167">
        <ele>160.0</ele>
        <time>2018-05-19T07:33:40.857Z</time>
      </trkpt>
      <trkpt lat="43.31231833" lon="-4.34459167">
        <ele>160.0</ele>
        <time>2018-05-19T07:33:41.849Z</time>
      </trkpt>
      <trkpt lat="43.31240833" lon="-4.34464167">
        <ele>160.0</ele>
        <time>2018-05-19T07:33:42.850Z</time>
      </trkpt>
      <trkpt lat="43.31240833" lon="-4.34464167">
        <ele>160.0</ele>
        <time>2018-05-19T07:33:43.850Z</time>
      </trkpt>
      <trkpt lat="43.31247" lon="-4.34476833">
        <ele>159.0</ele>
        <time>2018-05-19T07:33:44.852Z</time>
      </trkpt>
      <trkpt lat="43.31247" lon="-4.34476833">
        <ele>159.0</ele>
        <time>2018-05-19T07:33:45.867Z</time>
      </trkpt>
      <trkpt lat="43.31248667" lon="-4.34495">
        <ele>158.0</ele>
        <time>2018-05-19T07:33:46.851Z</time>
      </trkpt>
      <trkpt lat="43.31248667" lon="-4.34495">
        <ele>158.0</ele>
        <time>2018-05-19T07:33:47.849Z</time>
      </trkpt>
      <trkpt lat="43.31247667" lon="-4.34512">
        <ele>157.0</ele>
        <time>2018-05-19T07:33:48.853Z</time>
      </trkpt>
      <trkpt lat="43.31247667" lon="-4.34512">
        <ele>157.0</ele>
        <time>2018-05-19T07:33:49.847Z</time>
      </trkpt>
      <trkpt lat="43.31247833" lon="-4.34526167">
        <ele>155.0</ele>
        <time>2018-05-19T07:33:50.852Z</time>
      </trkpt>
      <trkpt lat="43.31247833" lon="-4.34526167">
        <ele>155.0</ele>
        <time>2018-05-19T07:33:51.850Z</time>
      </trkpt>
      <trkpt lat="43.31249" lon="-4.345395">
        <ele>154.0</ele>
        <time>2018-05-19T07:33:52.855Z</time>
      </trkpt>
      <trkpt lat="43.31249" lon="-4.345395">
        <ele>154.0</ele>
        <time>2018-05-19T07:33:53.847Z</time>
      </trkpt>
      <trkpt lat="43.31256333" lon="-4.34551167">
        <ele>153.0</ele>
        <time>2018-05-19T07:33:54.853Z</time>
      </trkpt>
      <trkpt lat="43.31256333" lon="-4.34551167">
        <ele>153.0</ele>
        <time>2018-05-19T07:33:55.848Z</time>
      </trkpt>
      <trkpt lat="43.31268833" lon="-4.34563167">
        <ele>152.0</ele>
        <time>2018-05-19T07:33:56.851Z</time>
      </trkpt>
      <trkpt lat="43.31275333" lon="-4.34567833">
        <ele>151.0</ele>
        <time>2018-05-19T07:33:57.852Z</time>
      </trkpt>
      <trkpt lat="43.31275333" lon="-4.34567833">
        <ele>151.0</ele>
        <time>2018-05-19T07:33:58.849Z</time>
      </trkpt>
      <trkpt lat="43.3129" lon="-4.345735">
        <ele>150.0</ele>
        <time>2018-05-19T07:33:59.852Z</time>
      </trkpt>
      <trkpt lat="43.31301" lon="-4.34578833">
        <ele>149.0</ele>
        <time>2018-05-19T07:34:00.852Z</time>
      </trkpt>
      <trkpt lat="43.31301" lon="-4.34578833">
        <ele>149.0</ele>
        <time>2018-05-19T07:34:01.849Z</time>
      </trkpt>
      <trkpt lat="43.31320167" lon="-4.34590167">
        <ele>147.0</ele>
        <time>2018-05-19T07:34:02.851Z</time>
      </trkpt>
      <trkpt lat="43.31329333" lon="-4.34595333">
        <ele>146.0</ele>
        <time>2018-05-19T07:34:03.849Z</time>
      </trkpt>
      <trkpt lat="43.31329333" lon="-4.34595333">
        <ele>146.0</ele>
        <time>2018-05-19T07:34:04.876Z</time>
      </trkpt>
      <trkpt lat="43.31347833" lon="-4.34601167">
        <ele>144.0</ele>
        <time>2018-05-19T07:34:05.862Z</time>
      </trkpt>
      <trkpt lat="43.31357167" lon="-4.34598167">
        <ele>143.0</ele>
        <time>2018-05-19T07:34:06.854Z</time>
      </trkpt>
      <trkpt lat="43.31357167" lon="-4.34598167">
        <ele>143.0</ele>
        <time>2018-05-19T07:34:07.845Z</time>
      </trkpt>
      <trkpt lat="43.31373167" lon="-4.345885">
        <ele>142.0</ele>
        <time>2018-05-19T07:34:08.853Z</time>
      </trkpt>
      <trkpt lat="43.31373167" lon="-4.345885">
        <ele>142.0</ele>
        <time>2018-05-19T07:34:09.846Z</time>
      </trkpt>
      <trkpt lat="43.31388667" lon="-4.34585167">
        <ele>140.0</ele>
        <time>2018-05-19T07:34:10.870Z</time>
      </trkpt>
      <trkpt lat="43.31388667" lon="-4.34585167">
        <ele>140.0</ele>
        <time>2018-05-19T07:34:11.856Z</time>
      </trkpt>
      <trkpt lat="43.31403167" lon="-4.34596">
        <ele>138.0</ele>
        <time>2018-05-19T07:34:12.852Z</time>
      </trkpt>
      <trkpt lat="43.31403167" lon="-4.34596">
        <ele>138.0</ele>
        <time>2018-05-19T07:34:13.850Z</time>
      </trkpt>
      <trkpt lat="43.31416" lon="-4.346095">
        <ele>136.0</ele>
        <time>2018-05-19T07:34:14.852Z</time>
      </trkpt>
      <trkpt lat="43.31416" lon="-4.346095">
        <ele>136.0</ele>
        <time>2018-05-19T07:34:15.853Z</time>
      </trkpt>
      <trkpt lat="43.31427833" lon="-4.34625167">
        <ele>135.0</ele>
        <time>2018-05-19T07:34:16.854Z</time>
      </trkpt>
      <trkpt lat="43.31427833" lon="-4.34625167">
        <ele>135.0</ele>
        <time>2018-05-19T07:34:17.846Z</time>
      </trkpt>
      <trkpt lat="43.31439833" lon="-4.34638">
        <ele>133.0</ele>
        <time>2018-05-19T07:34:18.854Z</time>
      </trkpt>
      <trkpt lat="43.31439833" lon="-4.34638">
        <ele>133.0</ele>
        <time>2018-05-19T07:34:19.848Z</time>
      </trkpt>
      <trkpt lat="43.31449833" lon="-4.346505">
        <ele>132.0</ele>
        <time>2018-05-19T07:34:20.850Z</time>
      </trkpt>
      <trkpt lat="43.31449833" lon="-4.346505">
        <ele>132.0</ele>
        <time>2018-05-19T07:34:21.876Z</time>
      </trkpt>
      <trkpt lat="43.31455167" lon="-4.34668333">
        <ele>131.0</ele>
        <time>2018-05-19T07:34:22.864Z</time>
      </trkpt>
      <trkpt lat="43.31455167" lon="-4.34668333">
        <ele>131.0</ele>
        <time>2018-05-19T07:34:23.849Z</time>
      </trkpt>
      <trkpt lat="43.314565" lon="-4.34690167">
        <ele>130.0</ele>
        <time>2018-05-19T07:34:24.876Z</time>
      </trkpt>
      <trkpt lat="43.314565" lon="-4.34690167">
        <ele>130.0</ele>
        <time>2018-05-19T07:34:25.870Z</time>
      </trkpt>
      <trkpt lat="43.31454833" lon="-4.34714333">
        <ele>128.0</ele>
        <time>2018-05-19T07:34:26.853Z</time>
      </trkpt>
      <trkpt lat="43.31454833" lon="-4.34714333">
        <ele>128.0</ele>
        <time>2018-05-19T07:34:27.844Z</time>
      </trkpt>
      <trkpt lat="43.314555" lon="-4.34739833">
        <ele>126.0</ele>
        <time>2018-05-19T07:34:28.869Z</time>
      </trkpt>
      <trkpt lat="43.314555" lon="-4.34739833">
        <ele>126.0</ele>
        <time>2018-05-19T07:34:29.854Z</time>
      </trkpt>
      <trkpt lat="43.3146" lon="-4.34765833">
        <ele>124.0</ele>
        <time>2018-05-19T07:34:30.852Z</time>
      </trkpt>
      <trkpt lat="43.3146" lon="-4.34765833">
        <ele>124.0</ele>
        <time>2018-05-19T07:34:31.848Z</time>
      </trkpt>
      <trkpt lat="43.31465167" lon="-4.347925">
        <ele>123.0</ele>
        <time>2018-05-19T07:34:32.852Z</time>
      </trkpt>
      <trkpt lat="43.31465167" lon="-4.347925">
        <ele>123.0</ele>
        <time>2018-05-19T07:34:33.849Z</time>
      </trkpt>
      <trkpt lat="43.314665" lon="-4.34819">
        <ele>121.0</ele>
        <time>2018-05-19T07:34:34.851Z</time>
      </trkpt>
      <trkpt lat="43.314665" lon="-4.34819">
        <ele>121.0</ele>
        <time>2018-05-19T07:34:35.863Z</time>
      </trkpt>
      <trkpt lat="43.31466833" lon="-4.34842833">
        <ele>120.0</ele>
        <time>2018-05-19T07:34:36.867Z</time>
      </trkpt>
      <trkpt lat="43.31466833" lon="-4.34842833">
        <ele>120.0</ele>
        <time>2018-05-19T07:34:37.864Z</time>
      </trkpt>
      <trkpt lat="43.31471" lon="-4.34863333">
        <ele>119.0</ele>
        <time>2018-05-19T07:34:38.852Z</time>
      </trkpt>
      <trkpt lat="43.31471" lon="-4.34863333">
        <ele>119.0</ele>
        <time>2018-05-19T07:34:39.850Z</time>
      </trkpt>
      <trkpt lat="43.31476167" lon="-4.348835">
        <ele>118.0</ele>
        <time>2018-05-19T07:34:40.854Z</time>
      </trkpt>
      <trkpt lat="43.31476167" lon="-4.348835">
        <ele>118.0</ele>
        <time>2018-05-19T07:34:41.850Z</time>
      </trkpt>
      <trkpt lat="43.31477667" lon="-4.34902333">
        <ele>115.0</ele>
        <time>2018-05-19T07:34:42.850Z</time>
      </trkpt>
      <trkpt lat="43.31477667" lon="-4.34902333">
        <ele>115.0</ele>
        <time>2018-05-19T07:34:43.849Z</time>
      </trkpt>
      <trkpt lat="43.314795" lon="-4.34921167">
        <ele>113.0</ele>
        <time>2018-05-19T07:34:44.850Z</time>
      </trkpt>
      <trkpt lat="43.314795" lon="-4.34921167">
        <ele>113.0</ele>
        <time>2018-05-19T07:34:45.867Z</time>
      </trkpt>
      <trkpt lat="43.31487333" lon="-4.34938833">
        <ele>111.0</ele>
        <time>2018-05-19T07:34:46.855Z</time>
      </trkpt>
      <trkpt lat="43.31487333" lon="-4.34938833">
        <ele>111.0</ele>
        <time>2018-05-19T07:34:47.848Z</time>
      </trkpt>
      <trkpt lat="43.31498833" lon="-4.34953833">
        <ele>110.0</ele>
        <time>2018-05-19T07:34:48.852Z</time>
      </trkpt>
      <trkpt lat="43.31498833" lon="-4.34953833">
        <ele>110.0</ele>
        <time>2018-05-19T07:34:49.847Z</time>
      </trkpt>
      <trkpt lat="43.315115" lon="-4.349655">
        <ele>109.0</ele>
        <time>2018-05-19T07:34:50.852Z</time>
      </trkpt>
      <trkpt lat="43.315115" lon="-4.349655">
        <ele>109.0</ele>
        <time>2018-05-19T07:34:51.849Z</time>
      </trkpt>
      <trkpt lat="43.31522833" lon="-4.34974">
        <ele>108.0</ele>
        <time>2018-05-19T07:34:52.854Z</time>
      </trkpt>
      <trkpt lat="43.31522833" lon="-4.34974">
        <ele>108.0</ele>
        <time>2018-05-19T07:34:53.848Z</time>
      </trkpt>
      <trkpt lat="43.31530833" lon="-4.34982833">
        <ele>107.0</ele>
        <time>2018-05-19T07:34:54.876Z</time>
      </trkpt>
      <trkpt lat="43.31534333" lon="-4.34985667">
        <ele>106.0</ele>
        <time>2018-05-19T07:34:55.870Z</time>
      </trkpt>
      <trkpt lat="43.31534333" lon="-4.34985667">
        <ele>106.0</ele>
        <time>2018-05-19T07:34:56.852Z</time>
      </trkpt>
      <trkpt lat="43.31541" lon="-4.34987333">
        <ele>105.0</ele>
        <time>2018-05-19T07:34:57.851Z</time>
      </trkpt>
      <trkpt lat="43.31544167" lon="-4.34985167">
        <ele>105.0</ele>
        <time>2018-05-19T07:34:58.854Z</time>
      </trkpt>
      <trkpt lat="43.31544167" lon="-4.34985167">
        <ele>105.0</ele>
        <time>2018-05-19T07:34:59.852Z</time>
      </trkpt>
      <trkpt lat="43.31548333" lon="-4.34975167">
        <ele>102.0</ele>
        <time>2018-05-19T07:35:00.854Z</time>
      </trkpt>
      <trkpt lat="43.31548333" lon="-4.34975167">
        <ele>102.0</ele>
        <time>2018-05-19T07:35:01.850Z</time>
      </trkpt>
      <trkpt lat="43.31550667" lon="-4.34960167">
        <ele>100.0</ele>
        <time>2018-05-19T07:35:02.848Z</time>
      </trkpt>
      <trkpt lat="43.315525" lon="-4.34951667">
        <ele>98.0</ele>
        <time>2018-05-19T07:35:03.851Z</time>
      </trkpt>
      <trkpt lat="43.315525" lon="-4.34951667">
        <ele>98.0</ele>
        <time>2018-05-19T07:35:04.848Z</time>
      </trkpt>
      <trkpt lat="43.31558333" lon="-4.349345">
        <ele>97.0</ele>
        <time>2018-05-19T07:35:05.850Z</time>
      </trkpt>
      <trkpt lat="43.31561667" lon="-4.34926833">
        <ele>96.0</ele>
        <time>2018-05-19T07:35:06.852Z</time>
      </trkpt>
      <trkpt lat="43.31561667" lon="-4.34926833">
        <ele>96.0</ele>
        <time>2018-05-19T07:35:07.846Z</time>
      </trkpt>
      <trkpt lat="43.31568667" lon="-4.34914">
        <ele>94.0</ele>
        <time>2018-05-19T07:35:08.851Z</time>
      </trkpt>
      <trkpt lat="43.31573167" lon="-4.34907167">
        <ele>93.0</ele>
        <time>2018-05-19T07:35:09.850Z</time>
      </trkpt>
      <trkpt lat="43.31577333" lon="-4.349">
        <ele>92.0</ele>
        <time>2018-05-19T07:35:10.860Z</time>
      </trkpt>
      <trkpt lat="43.31577333" lon="-4.349">
        <ele>92.0</ele>
        <time>2018-05-19T07:35:11.846Z</time>
      </trkpt>
      <trkpt lat="43.31585333" lon="-4.34885167">
        <ele>89.0</ele>
        <time>2018-05-19T07:35:12.852Z</time>
      </trkpt>
      <trkpt lat="43.31585333" lon="-4.34885167">
        <ele>89.0</ele>
        <time>2018-05-19T07:35:13.849Z</time>
      </trkpt>
      <trkpt lat="43.31591833" lon="-4.348695">
        <ele>88.0</ele>
        <time>2018-05-19T07:35:14.877Z</time>
      </trkpt>
      <trkpt lat="43.31591833" lon="-4.348695">
        <ele>88.0</ele>
        <time>2018-05-19T07:35:15.862Z</time>
      </trkpt>
      <trkpt lat="43.31600333" lon="-4.34854">
        <ele>86.0</ele>
        <time>2018-05-19T07:35:16.854Z</time>
      </trkpt>
      <trkpt lat="43.31600333" lon="-4.34854">
        <ele>86.0</ele>
        <time>2018-05-19T07:35:17.845Z</time>
      </trkpt>
      <trkpt lat="43.31611833" lon="-4.348395">
        <ele>84.0</ele>
        <time>2018-05-19T07:35:18.849Z</time>
      </trkpt>
      <trkpt lat="43.31611833" lon="-4.348395">
        <ele>84.0</ele>
        <time>2018-05-19T07:35:19.850Z</time>
      </trkpt>
      <trkpt lat="43.31620833" lon="-4.34827833">
        <ele>82.0</ele>
        <time>2018-05-19T07:35:20.852Z</time>
      </trkpt>
      <trkpt lat="43.31620833" lon="-4.34827833">
        <ele>82.0</ele>
        <time>2018-05-19T07:35:21.850Z</time>
      </trkpt>
      <trkpt lat="43.31630833" lon="-4.34821833">
        <ele>80.0</ele>
        <time>2018-05-19T07:35:22.868Z</time>
      </trkpt>
      <trkpt lat="43.31630833" lon="-4.34821833">
        <ele>80.0</ele>
        <time>2018-05-19T07:35:23.852Z</time>
      </trkpt>
      <trkpt lat="43.31645167" lon="-4.34824833">
        <ele>78.0</ele>
        <time>2018-05-19T07:35:24.849Z</time>
      </trkpt>
      <trkpt lat="43.316515" lon="-4.348275">
        <ele>77.0</ele>
        <time>2018-05-19T07:35:25.852Z</time>
      </trkpt>
      <trkpt lat="43.316515" lon="-4.348275">
        <ele>77.0</ele>
        <time>2018-05-19T07:35:26.849Z</time>
      </trkpt>
      <trkpt lat="43.31663167" lon="-4.34834667">
        <ele>75.0</ele>
        <time>2018-05-19T07:35:27.844Z</time>
      </trkpt>
      <trkpt lat="43.31668167" lon="-4.348405">
        <ele>74.0</ele>
        <time>2018-05-19T07:35:28.870Z</time>
      </trkpt>
      <trkpt lat="43.31668167" lon="-4.348405">
        <ele>74.0</ele>
        <time>2018-05-19T07:35:29.857Z</time>
      </trkpt>
      <trkpt lat="43.31671667" lon="-4.34856333">
        <ele>73.0</ele>
        <time>2018-05-19T07:35:30.854Z</time>
      </trkpt>
      <trkpt lat="43.31671667" lon="-4.34856333">
        <ele>73.0</ele>
        <time>2018-05-19T07:35:31.849Z</time>
      </trkpt>
      <trkpt lat="43.31674167" lon="-4.34875167">
        <ele>71.0</ele>
        <time>2018-05-19T07:35:32.852Z</time>
      </trkpt>
      <trkpt lat="43.31674667" lon="-4.34885">
        <ele>71.0</ele>
        <time>2018-05-19T07:35:33.852Z</time>
      </trkpt>
      <trkpt lat="43.31674667" lon="-4.34885">
        <ele>71.0</ele>
        <time>2018-05-19T07:35:34.847Z</time>
      </trkpt>
      <trkpt lat="43.31673167" lon="-4.349025">
        <ele>71.0</ele>
        <time>2018-05-19T07:35:35.851Z</time>
      </trkpt>
      <trkpt lat="43.31671833" lon="-4.349105">
        <ele>71.0</ele>
        <time>2018-05-19T07:35:36.853Z</time>
      </trkpt>
      <trkpt lat="43.31671833" lon="-4.349105">
        <ele>71.0</ele>
        <time>2018-05-19T07:35:37.883Z</time>
      </trkpt>
      <trkpt lat="43.31669333" lon="-4.34925333">
        <ele>70.0</ele>
        <time>2018-05-19T07:35:38.851Z</time>
      </trkpt>
      <trkpt lat="43.31669333" lon="-4.34925333">
        <ele>70.0</ele>
        <time>2018-05-19T07:35:39.849Z</time>
      </trkpt>
      <trkpt lat="43.31667" lon="-4.34939667">
        <ele>70.0</ele>
        <time>2018-05-19T07:35:40.854Z</time>
      </trkpt>
      <trkpt lat="43.31667" lon="-4.34939667">
        <ele>70.0</ele>
        <time>2018-05-19T07:35:41.849Z</time>
      </trkpt>
      <trkpt lat="43.316665" lon="-4.34955167">
        <ele>69.0</ele>
        <time>2018-05-19T07:35:42.868Z</time>
      </trkpt>
      <trkpt lat="43.316665" lon="-4.34955167">
        <ele>69.0</ele>
        <time>2018-05-19T07:35:43.852Z</time>
      </trkpt>
      <trkpt lat="43.3167" lon="-4.34969167">
        <ele>68.0</ele>
        <time>2018-05-19T07:35:44.851Z</time>
      </trkpt>
      <trkpt lat="43.31673" lon="-4.34975833">
        <ele>68.0</ele>
        <time>2018-05-19T07:35:45.868Z</time>
      </trkpt>
      <trkpt lat="43.31676333" lon="-4.34982333">
        <ele>68.0</ele>
        <time>2018-05-19T07:35:46.854Z</time>
      </trkpt>
      <trkpt lat="43.31676333" lon="-4.34982333">
        <ele>68.0</ele>
        <time>2018-05-19T07:35:47.848Z</time>
      </trkpt>
      <trkpt lat="43.316835" lon="-4.34994667">
        <ele>67.0</ele>
        <time>2018-05-19T07:35:48.853Z</time>
      </trkpt>
      <trkpt lat="43.316835" lon="-4.34994667">
        <ele>67.0</ele>
        <time>2018-05-19T07:35:49.847Z</time>
      </trkpt>
      <trkpt lat="43.31688167" lon="-4.350055">
        <ele>68.0</ele>
        <time>2018-05-19T07:35:50.852Z</time>
      </trkpt>
      <trkpt lat="43.31688167" lon="-4.350055">
        <ele>68.0</ele>
        <time>2018-05-19T07:35:51.850Z</time>
      </trkpt>
      <trkpt lat="43.31692667" lon="-4.35014333">
        <ele>68.0</ele>
        <time>2018-05-19T07:35:52.850Z</time>
      </trkpt>
      <trkpt lat="43.31692667" lon="-4.35014333">
        <ele>68.0</ele>
        <time>2018-05-19T07:35:53.846Z</time>
      </trkpt>
      <trkpt lat="43.31695833" lon="-4.35026">
        <ele>69.0</ele>
        <time>2018-05-19T07:35:54.854Z</time>
      </trkpt>
      <trkpt lat="43.31695833" lon="-4.35026">
        <ele>69.0</ele>
        <time>2018-05-19T07:35:55.849Z</time>
      </trkpt>
      <trkpt lat="43.31698833" lon="-4.35038167">
        <ele>69.0</ele>
        <time>2018-05-19T07:35:56.851Z</time>
      </trkpt>
      <trkpt lat="43.31702" lon="-4.35044">
        <ele>70.0</ele>
        <time>2018-05-19T07:35:57.851Z</time>
      </trkpt>
      <trkpt lat="43.31704833" lon="-4.350505">
        <ele>70.0</ele>
        <time>2018-05-19T07:35:58.852Z</time>
      </trkpt>
      <trkpt lat="43.31704833" lon="-4.350505">
        <ele>70.0</ele>
        <time>2018-05-19T07:35:59.850Z</time>
      </trkpt>
      <trkpt lat="43.31712167" lon="-4.35063667">
        <ele>69.0</ele>
        <time>2018-05-19T07:36:00.854Z</time>
      </trkpt>
      <trkpt lat="43.31712167" lon="-4.35063667">
        <ele>69.0</ele>
        <time>2018-05-19T07:36:01.849Z</time>
      </trkpt>
      <trkpt lat="43.31727167" lon="-4.35069">
        <ele>66.0</ele>
        <time>2018-05-19T07:36:02.877Z</time>
      </trkpt>
      <trkpt lat="43.317365" lon="-4.350685">
        <ele>65.0</ele>
        <time>2018-05-19T07:36:03.862Z</time>
      </trkpt>
      <trkpt lat="43.317365" lon="-4.350685">
        <ele>65.0</ele>
        <time>2018-05-19T07:36:04.848Z</time>
      </trkpt>
      <trkpt lat="43.31755667" lon="-4.35064833">
        <ele>62.0</ele>
        <time>2018-05-19T07:36:05.852Z</time>
      </trkpt>
      <trkpt lat="43.31765" lon="-4.35064833">
        <ele>60.0</ele>
        <time>2018-05-19T07:36:06.852Z</time>
      </trkpt>
      <trkpt lat="43.31765" lon="-4.35064833">
        <ele>60.0</ele>
        <time>2018-05-19T07:36:07.882Z</time>
      </trkpt>
      <trkpt lat="43.31785" lon="-4.35069833">
        <ele>61.0</ele>
        <time>2018-05-19T07:36:08.867Z</time>
      </trkpt>
      <trkpt lat="43.31785" lon="-4.35069833">
        <ele>61.0</ele>
        <time>2018-05-19T07:36:09.852Z</time>
      </trkpt>
      <trkpt lat="43.31803333" lon="-4.35070833">
        <ele>60.0</ele>
        <time>2018-05-19T07:36:10.868Z</time>
      </trkpt>
      <trkpt lat="43.31803333" lon="-4.35070833">
        <ele>60.0</ele>
        <time>2018-05-19T07:36:11.855Z</time>
      </trkpt>
      <trkpt lat="43.31821333" lon="-4.35065833">
        <ele>60.0</ele>
        <time>2018-05-19T07:36:12.853Z</time>
      </trkpt>
      <trkpt lat="43.31821333" lon="-4.35065833">
        <ele>60.0</ele>
        <time>2018-05-19T07:36:13.850Z</time>
      </trkpt>
      <trkpt lat="43.31840333" lon="-4.35061">
        <ele>59.0</ele>
        <time>2018-05-19T07:36:14.877Z</time>
      </trkpt>
      <trkpt lat="43.31840333" lon="-4.35061">
        <ele>59.0</ele>
        <time>2018-05-19T07:36:15.862Z</time>
      </trkpt>
      <trkpt lat="43.31860333" lon="-4.35054167">
        <ele>57.0</ele>
        <time>2018-05-19T07:36:16.855Z</time>
      </trkpt>
      <trkpt lat="43.31860333" lon="-4.35054167">
        <ele>57.0</ele>
        <time>2018-05-19T07:36:17.883Z</time>
      </trkpt>
      <trkpt lat="43.31880667" lon="-4.350465">
        <ele>55.0</ele>
        <time>2018-05-19T07:36:18.868Z</time>
      </trkpt>
      <trkpt lat="43.31880667" lon="-4.350465">
        <ele>55.0</ele>
        <time>2018-05-19T07:36:19.870Z</time>
      </trkpt>
      <trkpt lat="43.31902833" lon="-4.35042">
        <ele>52.0</ele>
        <time>2018-05-19T07:36:20.858Z</time>
      </trkpt>
      <trkpt lat="43.31902833" lon="-4.35042">
        <ele>52.0</ele>
        <time>2018-05-19T07:36:21.850Z</time>
      </trkpt>
      <trkpt lat="43.31923333" lon="-4.35039">
        <ele>50.0</ele>
        <time>2018-05-19T07:36:22.850Z</time>
      </trkpt>
      <trkpt lat="43.31923333" lon="-4.35039">
        <ele>50.0</ele>
        <time>2018-05-19T07:36:23.849Z</time>
      </trkpt>
      <trkpt lat="43.31938833" lon="-4.35035">
        <ele>49.0</ele>
        <time>2018-05-19T07:36:24.852Z</time>
      </trkpt>
      <trkpt lat="43.31938833" lon="-4.35035">
        <ele>49.0</ele>
        <time>2018-05-19T07:36:25.851Z</time>
      </trkpt>
      <trkpt lat="43.31949667" lon="-4.35033">
        <ele>48.0</ele>
        <time>2018-05-19T07:36:26.853Z</time>
      </trkpt>
      <trkpt lat="43.31949667" lon="-4.35033">
        <ele>48.0</ele>
        <time>2018-05-19T07:36:27.880Z</time>
      </trkpt>
      <trkpt lat="43.319565" lon="-4.35039">
        <ele>47.0</ele>
        <time>2018-05-19T07:36:28.863Z</time>
      </trkpt>
      <trkpt lat="43.319565" lon="-4.35039">
        <ele>47.0</ele>
        <time>2018-05-19T07:36:29.848Z</time>
      </trkpt>
      <trkpt lat="43.31957667" lon="-4.350515">
        <ele>47.0</ele>
        <time>2018-05-19T07:36:30.857Z</time>
      </trkpt>
      <trkpt lat="43.31957667" lon="-4.350515">
        <ele>47.0</ele>
        <time>2018-05-19T07:36:31.849Z</time>
      </trkpt>
      <trkpt lat="43.31954667" lon="-4.35066667">
        <ele>47.0</ele>
        <time>2018-05-19T07:36:32.844Z</time>
      </trkpt>
      <trkpt lat="43.31952667" lon="-4.35074333">
        <ele>47.0</ele>
        <time>2018-05-19T07:36:33.850Z</time>
      </trkpt>
      <trkpt lat="43.31952667" lon="-4.35074333">
        <ele>47.0</ele>
        <time>2018-05-19T07:36:34.850Z</time>
      </trkpt>
      <trkpt lat="43.31949833" lon="-4.35088833">
        <ele>47.0</ele>
        <time>2018-05-19T07:36:35.852Z</time>
      </trkpt>
      <trkpt lat="43.31948167" lon="-4.35095833">
        <ele>47.0</ele>
        <time>2018-05-19T07:36:36.876Z</time>
      </trkpt>
      <trkpt lat="43.31948167" lon="-4.35095833">
        <ele>47.0</ele>
        <time>2018-05-19T07:36:37.867Z</time>
      </trkpt>
      <trkpt lat="43.31944667" lon="-4.351095">
        <ele>47.0</ele>
        <time>2018-05-19T07:36:38.851Z</time>
      </trkpt>
      <trkpt lat="43.31944667" lon="-4.351095">
        <ele>47.0</ele>
        <time>2018-05-19T07:36:39.846Z</time>
      </trkpt>
      <trkpt lat="43.31941333" lon="-4.351235">
        <ele>46.0</ele>
        <time>2018-05-19T07:36:40.870Z</time>
      </trkpt>
      <trkpt lat="43.31941333" lon="-4.351235">
        <ele>46.0</ele>
        <time>2018-05-19T07:36:41.852Z</time>
      </trkpt>
      <trkpt lat="43.31939333" lon="-4.35136833">
        <ele>46.0</ele>
        <time>2018-05-19T07:36:42.855Z</time>
      </trkpt>
      <trkpt lat="43.31939833" lon="-4.35142667">
        <ele>46.0</ele>
        <time>2018-05-19T07:36:43.851Z</time>
      </trkpt>
      <trkpt lat="43.31939833" lon="-4.35142667">
        <ele>46.0</ele>
        <time>2018-05-19T07:36:44.849Z</time>
      </trkpt>
      <trkpt lat="43.31938167" lon="-4.35153833">
        <ele>46.0</ele>
        <time>2018-05-19T07:36:45.883Z</time>
      </trkpt>
      <trkpt lat="43.31934667" lon="-4.35157333">
        <ele>46.0</ele>
        <time>2018-05-19T07:36:46.850Z</time>
      </trkpt>
      <trkpt lat="43.31934667" lon="-4.35157333">
        <ele>46.0</ele>
        <time>2018-05-19T07:36:47.857Z</time>
      </trkpt>
      <trkpt lat="43.31925" lon="-4.35160333">
        <ele>46.0</ele>
        <time>2018-05-19T07:36:48.863Z</time>
      </trkpt>
      <trkpt lat="43.31925" lon="-4.35160333">
        <ele>46.0</ele>
        <time>2018-05-19T07:36:49.849Z</time>
      </trkpt>
      <trkpt lat="43.31914833" lon="-4.35165167">
        <ele>46.0</ele>
        <time>2018-05-19T07:36:50.850Z</time>
      </trkpt>
      <trkpt lat="43.31914833" lon="-4.35165167">
        <ele>46.0</ele>
        <time>2018-05-19T07:36:51.849Z</time>
      </trkpt>
      <trkpt lat="43.31906" lon="-4.3517">
        <ele>46.0</ele>
        <time>2018-05-19T07:36:52.856Z</time>
      </trkpt>
      <trkpt lat="43.31906" lon="-4.3517">
        <ele>46.0</ele>
        <time>2018-05-19T07:36:53.849Z</time>
      </trkpt>
      <trkpt lat="43.31899333" lon="-4.35174">
        <ele>46.0</ele>
        <time>2018-05-19T07:36:54.853Z</time>
      </trkpt>
      <trkpt lat="43.31899333" lon="-4.35174">
        <ele>46.0</ele>
        <time>2018-05-19T07:36:55.849Z</time>
      </trkpt>
      <trkpt lat="43.31896667" lon="-4.351745">
        <ele>46.0</ele>
        <time>2018-05-19T07:36:56.851Z</time>
      </trkpt>
      <trkpt lat="43.31896667" lon="-4.351745">
        <ele>46.0</ele>
        <time>2018-05-19T07:36:57.882Z</time>
      </trkpt>
      <trkpt lat="43.31896833" lon="-4.351745">
        <ele>46.0</ele>
        <time>2018-05-19T07:36:58.867Z</time>
      </trkpt>
      <trkpt lat="43.31896833" lon="-4.351745">
        <ele>46.0</ele>
        <time>2018-05-19T07:36:59.852Z</time>
      </trkpt>
      <trkpt lat="43.31896" lon="-4.35175167">
        <ele>46.0</ele>
        <time>2018-05-19T07:37:00.880Z</time>
      </trkpt>
      <trkpt lat="43.31889167" lon="-4.35178">
        <ele>46.0</ele>
        <time>2018-05-19T07:37:01.846Z</time>
      </trkpt>
      <trkpt lat="43.31889167" lon="-4.35178">
        <ele>46.0</ele>
        <time>2018-05-19T07:37:02.882Z</time>
      </trkpt>
      <trkpt lat="43.31880833" lon="-4.35180833">
        <ele>46.0</ele>
        <time>2018-05-19T07:37:03.844Z</time>
      </trkpt>
      <trkpt lat="43.31880833" lon="-4.35180833">
        <ele>46.0</ele>
        <time>2018-05-19T07:37:04.876Z</time>
      </trkpt>
      <trkpt lat="43.3187" lon="-4.35181833">
        <ele>46.0</ele>
        <time>2018-05-19T07:37:05.860Z</time>
      </trkpt>
      <trkpt lat="43.3187" lon="-4.35181833">
        <ele>46.0</ele>
        <time>2018-05-19T07:37:06.844Z</time>
      </trkpt>
      <trkpt lat="43.31858333" lon="-4.35180333">
        <ele>47.0</ele>
        <time>2018-05-19T07:37:07.847Z</time>
      </trkpt>
      <trkpt lat="43.31858333" lon="-4.35180333">
        <ele>47.0</ele>
        <time>2018-05-19T07:37:08.879Z</time>
      </trkpt>
      <trkpt lat="43.318475" lon="-4.35177333">
        <ele>47.0</ele>
        <time>2018-05-19T07:37:09.883Z</time>
      </trkpt>
      <trkpt lat="43.318475" lon="-4.35177333">
        <ele>47.0</ele>
        <time>2018-05-19T07:37:10.881Z</time>
      </trkpt>
      <trkpt lat="43.31838833" lon="-4.35174667">
        <ele>48.0</ele>
        <time>2018-05-19T07:37:11.844Z</time>
      </trkpt>
      <trkpt lat="43.31838833" lon="-4.35174667">
        <ele>48.0</ele>
        <time>2018-05-19T07:37:12.879Z</time>
      </trkpt>
      <trkpt lat="43.31833833" lon="-4.35174167">
        <ele>48.0</ele>
        <time>2018-05-19T07:37:13.847Z</time>
      </trkpt>
      <trkpt lat="43.31833833" lon="-4.35174167">
        <ele>48.0</ele>
        <time>2018-05-19T07:37:14.875Z</time>
      </trkpt>
      <trkpt lat="43.31827167" lon="-4.35175667">
        <ele>48.0</ele>
        <time>2018-05-19T07:37:15.860Z</time>
      </trkpt>
      <trkpt lat="43.31827167" lon="-4.35175667">
        <ele>48.0</ele>
        <time>2018-05-19T07:37:16.844Z</time>
      </trkpt>
      <trkpt lat="43.31818667" lon="-4.35179167">
        <ele>49.0</ele>
        <time>2018-05-19T07:37:17.844Z</time>
      </trkpt>
      <trkpt lat="43.31818667" lon="-4.35179167">
        <ele>49.0</ele>
        <time>2018-05-19T07:37:18.882Z</time>
      </trkpt>
      <trkpt lat="43.31811333" lon="-4.35185">
        <ele>50.0</ele>
        <time>2018-05-19T07:37:19.846Z</time>
      </trkpt>
      <trkpt lat="43.31811333" lon="-4.35185">
        <ele>50.0</ele>
        <time>2018-05-19T07:37:20.882Z</time>
      </trkpt>
      <trkpt lat="43.31805333" lon="-4.35192">
        <ele>51.0</ele>
        <time>2018-05-19T07:37:21.845Z</time>
      </trkpt>
      <trkpt lat="43.31805333" lon="-4.35192">
        <ele>51.0</ele>
        <time>2018-05-19T07:37:22.882Z</time>
      </trkpt>
      <trkpt lat="43.31799833" lon="-4.351985">
        <ele>52.0</ele>
        <time>2018-05-19T07:37:23.881Z</time>
      </trkpt>
      <trkpt lat="43.31799833" lon="-4.351985">
        <ele>52.0</ele>
        <time>2018-05-19T07:37:24.874Z</time>
      </trkpt>
      <trkpt lat="43.317955" lon="-4.35204667">
        <ele>52.0</ele>
        <time>2018-05-19T07:37:25.858Z</time>
      </trkpt>
      <trkpt lat="43.317955" lon="-4.35204667">
        <ele>52.0</ele>
        <time>2018-05-19T07:37:26.881Z</time>
      </trkpt>
      <trkpt lat="43.31792667" lon="-4.352115">
        <ele>53.0</ele>
        <time>2018-05-19T07:37:27.845Z</time>
      </trkpt>
      <trkpt lat="43.31792667" lon="-4.352115">
        <ele>53.0</ele>
        <time>2018-05-19T07:37:28.881Z</time>
      </trkpt>
      <trkpt lat="43.31790333" lon="-4.352185">
        <ele>54.0</ele>
        <time>2018-05-19T07:37:29.882Z</time>
      </trkpt>
      <trkpt lat="43.31789833" lon="-4.35221667">
        <ele>54.0</ele>
        <time>2018-05-19T07:37:30.861Z</time>
      </trkpt>
      <trkpt lat="43.31789333" lon="-4.35225333">
        <ele>55.0</ele>
        <time>2018-05-19T07:37:31.853Z</time>
      </trkpt>
      <trkpt lat="43.31789333" lon="-4.35225333">
        <ele>55.0</ele>
        <time>2018-05-19T07:37:32.879Z</time>
      </trkpt>
      <trkpt lat="43.31788167" lon="-4.35232167">
        <ele>55.0</ele>
        <time>2018-05-19T07:37:33.882Z</time>
      </trkpt>
      <trkpt lat="43.31788167" lon="-4.35232167">
        <ele>55.0</ele>
        <time>2018-05-19T07:37:34.875Z</time>
      </trkpt>
      <trkpt lat="43.31786833" lon="-4.35239">
        <ele>56.0</ele>
        <time>2018-05-19T07:37:35.844Z</time>
      </trkpt>
      <trkpt lat="43.31786167" lon="-4.35242167">
        <ele>56.0</ele>
        <time>2018-05-19T07:37:36.870Z</time>
      </trkpt>
      <trkpt lat="43.31786167" lon="-4.35242167">
        <ele>56.0</ele>
        <time>2018-05-19T07:37:37.854Z</time>
      </trkpt>
      <trkpt lat="43.317855" lon="-4.352485">
        <ele>57.0</ele>
        <time>2018-05-19T07:37:38.883Z</time>
      </trkpt>
      <trkpt lat="43.31785667" lon="-4.35251333">
        <ele>57.0</ele>
        <time>2018-05-19T07:37:39.845Z</time>
      </trkpt>
      <trkpt lat="43.31785667" lon="-4.35251333">
        <ele>57.0</ele>
        <time>2018-05-19T07:37:40.879Z</time>
      </trkpt>
      <trkpt lat="43.31786167" lon="-4.35257">
        <ele>58.0</ele>
        <time>2018-05-19T07:37:41.883Z</time>
      </trkpt>
      <trkpt lat="43.31786167" lon="-4.35257">
        <ele>58.0</ele>
        <time>2018-05-19T07:37:42.881Z</time>
      </trkpt>
      <trkpt lat="43.31785833" lon="-4.35262333">
        <ele>59.0</ele>
        <time>2018-05-19T07:37:43.845Z</time>
      </trkpt>
      <trkpt lat="43.31785833" lon="-4.35262333">
        <ele>59.0</ele>
        <time>2018-05-19T07:37:44.878Z</time>
      </trkpt>
      <trkpt lat="43.31785167" lon="-4.35267333">
        <ele>60.0</ele>
        <time>2018-05-19T07:37:45.861Z</time>
      </trkpt>
      <trkpt lat="43.31784667" lon="-4.35269667">
        <ele>60.0</ele>
        <time>2018-05-19T07:37:46.844Z</time>
      </trkpt>
      <trkpt lat="43.31784667" lon="-4.35269667">
        <ele>60.0</ele>
        <time>2018-05-19T07:37:47.882Z</time>
      </trkpt>
      <trkpt lat="43.31783" lon="-4.352735">
        <ele>60.0</ele>
        <time>2018-05-19T07:37:48.844Z</time>
      </trkpt>
      <trkpt lat="43.31782" lon="-4.35274833">
        <ele>61.0</ele>
        <time>2018-05-19T07:37:49.847Z</time>
      </trkpt>
      <trkpt lat="43.31782" lon="-4.35274833">
        <ele>61.0</ele>
        <time>2018-05-19T07:37:50.879Z</time>
      </trkpt>
      <trkpt lat="43.31780667" lon="-4.35277667">
        <ele>61.0</ele>
        <time>2018-05-19T07:37:51.883Z</time>
      </trkpt>
      <trkpt lat="43.31780667" lon="-4.35277667">
        <ele>61.0</ele>
        <time>2018-05-19T07:37:52.879Z</time>
      </trkpt>
      <trkpt lat="43.31779333" lon="-4.35281167">
        <ele>62.0</ele>
        <time>2018-05-19T07:37:53.844Z</time>
      </trkpt>
      <trkpt lat="43.31779333" lon="-4.35281167">
        <ele>62.0</ele>
        <time>2018-05-19T07:37:54.877Z</time>
      </trkpt>
      <trkpt lat="43.31776667" lon="-4.35283333">
        <ele>62.0</ele>
        <time>2018-05-19T07:37:55.862Z</time>
      </trkpt>
      <trkpt lat="43.31776667" lon="-4.35283333">
        <ele>62.0</ele>
        <time>2018-05-19T07:37:56.845Z</time>
      </trkpt>
      <trkpt lat="43.31774667" lon="-4.352865">
        <ele>63.0</ele>
        <time>2018-05-19T07:37:57.845Z</time>
      </trkpt>
      <trkpt lat="43.31774667" lon="-4.352865">
        <ele>63.0</ele>
        <time>2018-05-19T07:37:58.880Z</time>
      </trkpt>
      <trkpt lat="43.317725" lon="-4.35289667">
        <ele>64.0</ele>
        <time>2018-05-19T07:37:59.883Z</time>
      </trkpt>
      <trkpt lat="43.317725" lon="-4.35289667">
        <ele>64.0</ele>
        <time>2018-05-19T07:38:00.881Z</time>
      </trkpt>
      <trkpt lat="43.31770167" lon="-4.352935">
        <ele>65.0</ele>
        <time>2018-05-19T07:38:01.847Z</time>
      </trkpt>
      <trkpt lat="43.31770167" lon="-4.352935">
        <ele>65.0</ele>
        <time>2018-05-19T07:38:02.880Z</time>
      </trkpt>
      <trkpt lat="43.31768333" lon="-4.35297167">
        <ele>65.0</ele>
        <time>2018-05-19T07:38:03.846Z</time>
      </trkpt>
      <trkpt lat="43.31768333" lon="-4.35297167">
        <ele>65.0</ele>
        <time>2018-05-19T07:38:04.875Z</time>
      </trkpt>
      <trkpt lat="43.31767333" lon="-4.35301">
        <ele>66.0</ele>
        <time>2018-05-19T07:38:05.859Z</time>
      </trkpt>
      <trkpt lat="43.31767333" lon="-4.35301">
        <ele>66.0</ele>
        <time>2018-05-19T07:38:06.883Z</time>
      </trkpt>
      <trkpt lat="43.31766167" lon="-4.353045">
        <ele>66.0</ele>
        <time>2018-05-19T07:38:07.845Z</time>
      </trkpt>
      <trkpt lat="43.31766167" lon="-4.353045">
        <ele>66.0</ele>
        <time>2018-05-19T07:38:08.881Z</time>
      </trkpt>
      <trkpt lat="43.31765167" lon="-4.35307333">
        <ele>66.0</ele>
        <time>2018-05-19T07:38:09.844Z</time>
      </trkpt>
      <trkpt lat="43.31765167" lon="-4.35307333">
        <ele>66.0</ele>
        <time>2018-05-19T07:38:10.881Z</time>
      </trkpt>
      <trkpt lat="43.31764833" lon="-4.35309667">
        <ele>66.0</ele>
        <time>2018-05-19T07:38:11.844Z</time>
      </trkpt>
      <trkpt lat="43.31764833" lon="-4.35309667">
        <ele>66.0</ele>
        <time>2018-05-19T07:38:12.881Z</time>
      </trkpt>
      <trkpt lat="43.31765" lon="-4.35312667">
        <ele>66.0</ele>
        <time>2018-05-19T07:38:13.845Z</time>
      </trkpt>
      <trkpt lat="43.31765" lon="-4.35312667">
        <ele>66.0</ele>
        <time>2018-05-19T07:38:14.881Z</time>
      </trkpt>
      <trkpt lat="43.31764667" lon="-4.35316333">
        <ele>66.0</ele>
        <time>2018-05-19T07:38:15.845Z</time>
      </trkpt>
      <trkpt lat="43.31764667" lon="-4.35316333">
        <ele>66.0</ele>
        <time>2018-05-19T07:38:16.882Z</time>
      </trkpt>
      <trkpt lat="43.31764167" lon="-4.35319667">
        <ele>66.0</ele>
        <time>2018-05-19T07:38:17.883Z</time>
      </trkpt>
      <trkpt lat="43.31764167" lon="-4.35319667">
        <ele>66.0</ele>
        <time>2018-05-19T07:38:18.881Z</time>
      </trkpt>
      <trkpt lat="43.31763333" lon="-4.35323667">
        <ele>66.0</ele>
        <time>2018-05-19T07:38:19.847Z</time>
      </trkpt>
      <trkpt lat="43.31763333" lon="-4.35323667">
        <ele>66.0</ele>
        <time>2018-05-19T07:38:20.874Z</time>
      </trkpt>
      <trkpt lat="43.31762667" lon="-4.35327833">
        <ele>65.0</ele>
        <time>2018-05-19T07:38:21.868Z</time>
      </trkpt>
      <trkpt lat="43.31762667" lon="-4.35327833">
        <ele>65.0</ele>
        <time>2018-05-19T07:38:22.857Z</time>
      </trkpt>
      <trkpt lat="43.31762667" lon="-4.35330333">
        <ele>65.0</ele>
        <time>2018-05-19T07:38:23.883Z</time>
      </trkpt>
      <trkpt lat="43.31762667" lon="-4.35330333">
        <ele>65.0</ele>
        <time>2018-05-19T07:38:24.876Z</time>
      </trkpt>
      <trkpt lat="43.31762333" lon="-4.35332167">
        <ele>65.0</ele>
        <time>2018-05-19T07:38:25.860Z</time>
      </trkpt>
      <trkpt lat="43.31762333" lon="-4.35332167">
        <ele>65.0</ele>
        <time>2018-05-19T07:38:26.845Z</time>
      </trkpt>
      <trkpt lat="43.31762" lon="-4.353345">
        <ele>65.0</ele>
        <time>2018-05-19T07:38:27.844Z</time>
      </trkpt>
      <trkpt lat="43.31762" lon="-4.353345">
        <ele>65.0</ele>
        <time>2018-05-19T07:38:28.879Z</time>
      </trkpt>
      <trkpt lat="43.31761833" lon="-4.35336667">
        <ele>66.0</ele>
        <time>2018-05-19T07:38:29.881Z</time>
      </trkpt>
      <trkpt lat="43.31761833" lon="-4.35336667">
        <ele>66.0</ele>
        <time>2018-05-19T07:38:30.878Z</time>
      </trkpt>
      <trkpt lat="43.31761333" lon="-4.35339167">
        <ele>66.0</ele>
        <time>2018-05-19T07:38:31.879Z</time>
      </trkpt>
      <trkpt lat="43.31761" lon="-4.35340333">
        <ele>66.0</ele>
        <time>2018-05-19T07:38:32.859Z</time>
      </trkpt>
      <trkpt lat="43.31761" lon="-4.35340333">
        <ele>66.0</ele>
        <time>2018-05-19T07:38:33.864Z</time>
      </trkpt>
      <trkpt lat="43.31760833" lon="-4.35342833">
        <ele>66.0</ele>
        <time>2018-05-19T07:38:34.870Z</time>
      </trkpt>
      <trkpt lat="43.31760833" lon="-4.35342833">
        <ele>66.0</ele>
        <time>2018-05-19T07:38:35.877Z</time>
      </trkpt>
      <trkpt lat="43.31760333" lon="-4.35345167">
        <ele>66.0</ele>
        <time>2018-05-19T07:38:36.844Z</time>
      </trkpt>
      <trkpt lat="43.31759833" lon="-4.353465">
        <ele>66.0</ele>
        <time>2018-05-19T07:38:37.847Z</time>
      </trkpt>
      <trkpt lat="43.31759833" lon="-4.353465">
        <ele>66.0</ele>
        <time>2018-05-19T07:38:38.881Z</time>
      </trkpt>
      <trkpt lat="43.31759333" lon="-4.353495">
        <ele>66.0</ele>
        <time>2018-05-19T07:38:39.845Z</time>
      </trkpt>
      <trkpt lat="43.31759333" lon="-4.353495">
        <ele>66.0</ele>
        <time>2018-05-19T07:38:40.882Z</time>
      </trkpt>
      <trkpt lat="43.31759" lon="-4.35352833">
        <ele>66.0</ele>
        <time>2018-05-19T07:38:41.858Z</time>
      </trkpt>
      <trkpt lat="43.31759" lon="-4.35352833">
        <ele>66.0</ele>
        <time>2018-05-19T07:38:42.883Z</time>
      </trkpt>
      <trkpt lat="43.31759" lon="-4.35356333">
        <ele>66.0</ele>
        <time>2018-05-19T07:38:43.847Z</time>
      </trkpt>
      <trkpt lat="43.31759" lon="-4.35356333">
        <ele>66.0</ele>
        <time>2018-05-19T07:38:44.878Z</time>
      </trkpt>
      <trkpt lat="43.31758667" lon="-4.353605">
        <ele>66.0</ele>
        <time>2018-05-19T07:38:45.860Z</time>
      </trkpt>
      <trkpt lat="43.317585" lon="-4.35362833">
        <ele>66.0</ele>
        <time>2018-05-19T07:38:46.854Z</time>
      </trkpt>
      <trkpt lat="43.317585" lon="-4.35362833">
        <ele>66.0</ele>
        <time>2018-05-19T07:38:47.881Z</time>
      </trkpt>
      <trkpt lat="43.31759" lon="-4.35367667">
        <ele>66.0</ele>
        <time>2018-05-19T07:38:48.844Z</time>
      </trkpt>
      <trkpt lat="43.31759333" lon="-4.35369833">
        <ele>67.0</ele>
        <time>2018-05-19T07:38:49.883Z</time>
      </trkpt>
      <trkpt lat="43.31759333" lon="-4.35369833">
        <ele>67.0</ele>
        <time>2018-05-19T07:38:50.845Z</time>
      </trkpt>
      <trkpt lat="43.31759667" lon="-4.35374">
        <ele>67.0</ele>
        <time>2018-05-19T07:38:51.845Z</time>
      </trkpt>
      <trkpt lat="43.31759833" lon="-4.35376">
        <ele>68.0</ele>
        <time>2018-05-19T07:38:52.876Z</time>
      </trkpt>
      <trkpt lat="43.31759833" lon="-4.35376">
        <ele>68.0</ele>
        <time>2018-05-19T07:38:53.879Z</time>
      </trkpt>
      <trkpt lat="43.317595" lon="-4.3538">
        <ele>68.0</ele>
        <time>2018-05-19T07:38:54.877Z</time>
      </trkpt>
      <trkpt lat="43.317595" lon="-4.35382">
        <ele>69.0</ele>
        <time>2018-05-19T07:38:55.862Z</time>
      </trkpt>
      <trkpt lat="43.317595" lon="-4.35382">
        <ele>69.0</ele>
        <time>2018-05-19T07:38:56.853Z</time>
      </trkpt>
      <trkpt lat="43.31759167" lon="-4.35386167">
        <ele>70.0</ele>
        <time>2018-05-19T07:38:57.845Z</time>
      </trkpt>
      <trkpt lat="43.31759167" lon="-4.35386167">
        <ele>70.0</ele>
        <time>2018-05-19T07:38:58.879Z</time>
      </trkpt>
      <trkpt lat="43.317585" lon="-4.35389833">
        <ele>70.0</ele>
        <time>2018-05-19T07:38:59.857Z</time>
      </trkpt>
      <trkpt lat="43.317585" lon="-4.35389833">
        <ele>70.0</ele>
        <time>2018-05-19T07:39:00.882Z</time>
      </trkpt>
      <trkpt lat="43.31757833" lon="-4.353935">
        <ele>71.0</ele>
        <time>2018-05-19T07:39:01.844Z</time>
      </trkpt>
      <trkpt lat="43.31757833" lon="-4.353935">
        <ele>71.0</ele>
        <time>2018-05-19T07:39:02.879Z</time>
      </trkpt>
      <trkpt lat="43.31757167" lon="-4.353965">
        <ele>72.0</ele>
        <time>2018-05-19T07:39:03.846Z</time>
      </trkpt>
      <trkpt lat="43.31757167" lon="-4.353965">
        <ele>72.0</ele>
        <time>2018-05-19T07:39:04.881Z</time>
      </trkpt>
      <trkpt lat="43.317565" lon="-4.35399667">
        <ele>73.0</ele>
        <time>2018-05-19T07:39:05.883Z</time>
      </trkpt>
      <trkpt lat="43.31756" lon="-4.35401">
        <ele>73.0</ele>
        <time>2018-05-19T07:39:06.882Z</time>
      </trkpt>
      <trkpt lat="43.317555" lon="-4.354025">
        <ele>74.0</ele>
        <time>2018-05-19T07:39:07.847Z</time>
      </trkpt>
      <trkpt lat="43.317555" lon="-4.354025">
        <ele>74.0</ele>
        <time>2018-05-19T07:39:08.881Z</time>
      </trkpt>
      <trkpt lat="43.317545" lon="-4.35406167">
        <ele>74.0</ele>
        <time>2018-05-19T07:39:09.845Z</time>
      </trkpt>
      <trkpt lat="43.317545" lon="-4.35406167">
        <ele>74.0</ele>
        <time>2018-05-19T07:39:10.881Z</time>
      </trkpt>
      <trkpt lat="43.31753667" lon="-4.35409833">
        <ele>75.0</ele>
        <time>2018-05-19T07:39:11.844Z</time>
      </trkpt>
      <trkpt lat="43.317535" lon="-4.354115">
        <ele>75.0</ele>
        <time>2018-05-19T07:39:12.881Z</time>
      </trkpt>
      <trkpt lat="43.31753" lon="-4.35413">
        <ele>75.0</ele>
        <time>2018-05-19T07:39:13.847Z</time>
      </trkpt>
      <trkpt lat="43.31753" lon="-4.35413">
        <ele>75.0</ele>
        <time>2018-05-19T07:39:14.881Z</time>
      </trkpt>
      <trkpt lat="43.31752" lon="-4.354165">
        <ele>76.0</ele>
        <time>2018-05-19T07:39:15.844Z</time>
      </trkpt>
      <trkpt lat="43.31752" lon="-4.354165">
        <ele>76.0</ele>
        <time>2018-05-19T07:39:16.879Z</time>
      </trkpt>
      <trkpt lat="43.31750333" lon="-4.35420167">
        <ele>77.0</ele>
        <time>2018-05-19T07:39:17.884Z</time>
      </trkpt>
      <trkpt lat="43.31750333" lon="-4.35420167">
        <ele>77.0</ele>
        <time>2018-05-19T07:39:18.844Z</time>
      </trkpt>
      <trkpt lat="43.31749833" lon="-4.35424167">
        <ele>78.0</ele>
        <time>2018-05-19T07:39:19.845Z</time>
      </trkpt>
      <trkpt lat="43.31749833" lon="-4.35424167">
        <ele>78.0</ele>
        <time>2018-05-19T07:39:20.879Z</time>
      </trkpt>
      <trkpt lat="43.31749" lon="-4.35427333">
        <ele>78.0</ele>
        <time>2018-05-19T07:39:21.868Z</time>
      </trkpt>
      <trkpt lat="43.317485" lon="-4.35428833">
        <ele>79.0</ele>
        <time>2018-05-19T07:39:22.862Z</time>
      </trkpt>
      <trkpt lat="43.317485" lon="-4.35428833">
        <ele>79.0</ele>
        <time>2018-05-19T07:39:23.845Z</time>
      </trkpt>
      <trkpt lat="43.31748" lon="-4.354325">
        <ele>79.0</ele>
        <time>2018-05-19T07:39:24.877Z</time>
      </trkpt>
      <trkpt lat="43.317475" lon="-4.35434167">
        <ele>79.0</ele>
        <time>2018-05-19T07:39:25.862Z</time>
      </trkpt>
      <trkpt lat="43.317475" lon="-4.35434167">
        <ele>79.0</ele>
        <time>2018-05-19T07:39:26.845Z</time>
      </trkpt>
      <trkpt lat="43.31746833" lon="-4.35437167">
        <ele>80.0</ele>
        <time>2018-05-19T07:39:27.845Z</time>
      </trkpt>
      <trkpt lat="43.31746833" lon="-4.35437167">
        <ele>80.0</ele>
        <time>2018-05-19T07:39:28.881Z</time>
      </trkpt>
      <trkpt lat="43.31746" lon="-4.3544">
        <ele>80.0</ele>
        <time>2018-05-19T07:39:29.883Z</time>
      </trkpt>
      <trkpt lat="43.31746" lon="-4.3544">
        <ele>80.0</ele>
        <time>2018-05-19T07:39:30.881Z</time>
      </trkpt>
      <trkpt lat="43.31744667" lon="-4.35443">
        <ele>81.0</ele>
        <time>2018-05-19T07:39:31.883Z</time>
      </trkpt>
      <trkpt lat="43.31744667" lon="-4.35443">
        <ele>81.0</ele>
        <time>2018-05-19T07:39:32.881Z</time>
      </trkpt>
      <trkpt lat="43.31743333" lon="-4.35446333">
        <ele>81.0</ele>
        <time>2018-05-19T07:39:33.845Z</time>
      </trkpt>
      <trkpt lat="43.31743333" lon="-4.35446333">
        <ele>81.0</ele>
        <time>2018-05-19T07:39:34.874Z</time>
      </trkpt>
      <trkpt lat="43.31742" lon="-4.35449833">
        <ele>81.0</ele>
        <time>2018-05-19T07:39:35.859Z</time>
      </trkpt>
      <trkpt lat="43.31742" lon="-4.35449833">
        <ele>81.0</ele>
        <time>2018-05-19T07:39:36.844Z</time>
      </trkpt>
      <trkpt lat="43.317415" lon="-4.35453167">
        <ele>82.0</ele>
        <time>2018-05-19T07:39:37.883Z</time>
      </trkpt>
      <trkpt lat="43.317415" lon="-4.35453167">
        <ele>82.0</ele>
        <time>2018-05-19T07:39:38.878Z</time>
      </trkpt>
      <trkpt lat="43.31740833" lon="-4.35456667">
        <ele>83.0</ele>
        <time>2018-05-19T07:39:39.845Z</time>
      </trkpt>
      <trkpt lat="43.31740833" lon="-4.35456667">
        <ele>83.0</ele>
        <time>2018-05-19T07:39:40.881Z</time>
      </trkpt>
      <trkpt lat="43.31739833" lon="-4.3546">
        <ele>83.0</ele>
        <time>2018-05-19T07:39:41.883Z</time>
      </trkpt>
      <trkpt lat="43.317395" lon="-4.35461667">
        <ele>83.0</ele>
        <time>2018-05-19T07:39:42.884Z</time>
      </trkpt>
      <trkpt lat="43.31739167" lon="-4.35463333">
        <ele>84.0</ele>
        <time>2018-05-19T07:39:43.883Z</time>
      </trkpt>
      <trkpt lat="43.31739167" lon="-4.35463333">
        <ele>84.0</ele>
        <time>2018-05-19T07:39:44.879Z</time>
      </trkpt>
      <trkpt lat="43.31738333" lon="-4.35466833">
        <ele>84.0</ele>
        <time>2018-05-19T07:39:45.858Z</time>
      </trkpt>
      <trkpt lat="43.31738" lon="-4.35468333">
        <ele>84.0</ele>
        <time>2018-05-19T07:39:46.868Z</time>
      </trkpt>
      <trkpt lat="43.31738" lon="-4.35468333">
        <ele>84.0</ele>
        <time>2018-05-19T07:39:47.852Z</time>
      </trkpt>
      <trkpt lat="43.31737167" lon="-4.354715">
        <ele>85.0</ele>
        <time>2018-05-19T07:39:48.882Z</time>
      </trkpt>
      <trkpt lat="43.31737167" lon="-4.354715">
        <ele>85.0</ele>
        <time>2018-05-19T07:39:49.881Z</time>
      </trkpt>
      <trkpt lat="43.31736833" lon="-4.35474333">
        <ele>85.0</ele>
        <time>2018-05-19T07:39:50.883Z</time>
      </trkpt>
      <trkpt lat="43.31736833" lon="-4.35474333">
        <ele>85.0</ele>
        <time>2018-05-19T07:39:51.850Z</time>
      </trkpt>
      <trkpt lat="43.31736" lon="-4.35476833">
        <ele>86.0</ele>
        <time>2018-05-19T07:39:52.844Z</time>
      </trkpt>
      <trkpt lat="43.31736" lon="-4.35476833">
        <ele>86.0</ele>
        <time>2018-05-19T07:39:53.882Z</time>
      </trkpt>
      <trkpt lat="43.31734833" lon="-4.3548">
        <ele>86.0</ele>
        <time>2018-05-19T07:39:54.876Z</time>
      </trkpt>
      <trkpt lat="43.31734167" lon="-4.35481667">
        <ele>87.0</ele>
        <time>2018-05-19T07:39:55.861Z</time>
      </trkpt>
      <trkpt lat="43.31734167" lon="-4.35481667">
        <ele>87.0</ele>
        <time>2018-05-19T07:39:56.883Z</time>
      </trkpt>
      <trkpt lat="43.31733" lon="-4.35485">
        <ele>87.0</ele>
        <time>2018-05-19T07:39:57.845Z</time>
      </trkpt>
      <trkpt lat="43.31733" lon="-4.35485">
        <ele>87.0</ele>
        <time>2018-05-19T07:39:58.881Z</time>
      </trkpt>
      <trkpt lat="43.31731833" lon="-4.354885">
        <ele>88.0</ele>
        <time>2018-05-19T07:39:59.883Z</time>
      </trkpt>
      <trkpt lat="43.31731833" lon="-4.354885">
        <ele>88.0</ele>
        <time>2018-05-19T07:40:00.881Z</time>
      </trkpt>
      <trkpt lat="43.31730833" lon="-4.35492333">
        <ele>88.0</ele>
        <time>2018-05-19T07:40:01.868Z</time>
      </trkpt>
      <trkpt lat="43.31730833" lon="-4.35492333">
        <ele>88.0</ele>
        <time>2018-05-19T07:40:02.853Z</time>
      </trkpt>
      <trkpt lat="43.31730333" lon="-4.35496333">
        <ele>89.0</ele>
        <time>2018-05-19T07:40:03.845Z</time>
      </trkpt>
      <trkpt lat="43.31730333" lon="-4.35496333">
        <ele>89.0</ele>
        <time>2018-05-19T07:40:04.880Z</time>
      </trkpt>
      <trkpt lat="43.31729833" lon="-4.35499667">
        <ele>89.0</ele>
        <time>2018-05-19T07:40:05.883Z</time>
      </trkpt>
      <trkpt lat="43.31729333" lon="-4.35501833">
        <ele>89.0</ele>
        <time>2018-05-19T07:40:06.844Z</time>
      </trkpt>
      <trkpt lat="43.31729333" lon="-4.35501833">
        <ele>89.0</ele>
        <time>2018-05-19T07:40:07.881Z</time>
      </trkpt>
      <trkpt lat="43.317285" lon="-4.355055">
        <ele>90.0</ele>
        <time>2018-05-19T07:40:08.883Z</time>
      </trkpt>
      <trkpt lat="43.31728333" lon="-4.35507">
        <ele>91.0</ele>
        <time>2018-05-19T07:40:09.844Z</time>
      </trkpt>
      <trkpt lat="43.31728333" lon="-4.35507">
        <ele>91.0</ele>
        <time>2018-05-19T07:40:10.878Z</time>
      </trkpt>
      <trkpt lat="43.317275" lon="-4.35509667">
        <ele>91.0</ele>
        <time>2018-05-19T07:40:11.856Z</time>
      </trkpt>
      <trkpt lat="43.317275" lon="-4.35509667">
        <ele>91.0</ele>
        <time>2018-05-19T07:40:12.881Z</time>
      </trkpt>
      <trkpt lat="43.317265" lon="-4.35513333">
        <ele>92.0</ele>
        <time>2018-05-19T07:40:13.883Z</time>
      </trkpt>
      <trkpt lat="43.317265" lon="-4.35513333">
        <ele>92.0</ele>
        <time>2018-05-19T07:40:14.875Z</time>
      </trkpt>
      <trkpt lat="43.31726" lon="-4.35518167">
        <ele>93.0</ele>
        <time>2018-05-19T07:40:15.845Z</time>
      </trkpt>
      <trkpt lat="43.31726" lon="-4.35518167">
        <ele>93.0</ele>
        <time>2018-05-19T07:40:16.883Z</time>
      </trkpt>
      <trkpt lat="43.317255" lon="-4.35523833">
        <ele>94.0</ele>
        <time>2018-05-19T07:40:17.883Z</time>
      </trkpt>
      <trkpt lat="43.31725167" lon="-4.35526833">
        <ele>94.0</ele>
        <time>2018-05-19T07:40:18.883Z</time>
      </trkpt>
      <trkpt lat="43.31725" lon="-4.3553">
        <ele>94.0</ele>
        <time>2018-05-19T07:40:19.883Z</time>
      </trkpt>
      <trkpt lat="43.31725" lon="-4.3553">
        <ele>94.0</ele>
        <time>2018-05-19T07:40:20.881Z</time>
      </trkpt>
      <trkpt lat="43.317245" lon="-4.35538">
        <ele>94.0</ele>
        <time>2018-05-19T07:40:21.879Z</time>
      </trkpt>
      <trkpt lat="43.31724167" lon="-4.35542">
        <ele>94.0</ele>
        <time>2018-05-19T07:40:22.883Z</time>
      </trkpt>
      <trkpt lat="43.31724167" lon="-4.35542">
        <ele>94.0</ele>
        <time>2018-05-19T07:40:23.878Z</time>
      </trkpt>
      <trkpt lat="43.31723333" lon="-4.35550167">
        <ele>95.0</ele>
        <time>2018-05-19T07:40:24.876Z</time>
      </trkpt>
      <trkpt lat="43.31722833" lon="-4.35553833">
        <ele>95.0</ele>
        <time>2018-05-19T07:40:25.861Z</time>
      </trkpt>
      <trkpt lat="43.31722833" lon="-4.35553833">
        <ele>95.0</ele>
        <time>2018-05-19T07:40:26.853Z</time>
      </trkpt>
      <trkpt lat="43.317215" lon="-4.35561333">
        <ele>95.0</ele>
        <time>2018-05-19T07:40:27.844Z</time>
      </trkpt>
      <trkpt lat="43.317215" lon="-4.35561333">
        <ele>95.0</ele>
        <time>2018-05-19T07:40:28.879Z</time>
      </trkpt>
      <trkpt lat="43.31720333" lon="-4.35569667">
        <ele>95.0</ele>
        <time>2018-05-19T07:40:29.883Z</time>
      </trkpt>
      <trkpt lat="43.31720333" lon="-4.35569667">
        <ele>95.0</ele>
        <time>2018-05-19T07:40:30.880Z</time>
      </trkpt>
      <trkpt lat="43.31719" lon="-4.35578333">
        <ele>95.0</ele>
        <time>2018-05-19T07:40:31.881Z</time>
      </trkpt>
      <trkpt lat="43.31719" lon="-4.35578333">
        <ele>95.0</ele>
        <time>2018-05-19T07:40:32.880Z</time>
      </trkpt>
      <trkpt lat="43.31717167" lon="-4.355865">
        <ele>96.0</ele>
        <time>2018-05-19T07:40:33.844Z</time>
      </trkpt>
      <trkpt lat="43.31717167" lon="-4.355865">
        <ele>96.0</ele>
        <time>2018-05-19T07:40:34.875Z</time>
      </trkpt>
      <trkpt lat="43.31715833" lon="-4.35594167">
        <ele>96.0</ele>
        <time>2018-05-19T07:40:35.859Z</time>
      </trkpt>
      <trkpt lat="43.31715833" lon="-4.35594167">
        <ele>96.0</ele>
        <time>2018-05-19T07:40:36.844Z</time>
      </trkpt>
      <trkpt lat="43.31714333" lon="-4.35601667">
        <ele>96.0</ele>
        <time>2018-05-19T07:40:37.853Z</time>
      </trkpt>
      <trkpt lat="43.31714333" lon="-4.35601667">
        <ele>96.0</ele>
        <time>2018-05-19T07:40:38.881Z</time>
      </trkpt>
      <trkpt lat="43.31710833" lon="-4.35609333">
        <ele>96.0</ele>
        <time>2018-05-19T07:40:39.844Z</time>
      </trkpt>
      <trkpt lat="43.31710833" lon="-4.35609333">
        <ele>96.0</ele>
        <time>2018-05-19T07:40:40.881Z</time>
      </trkpt>
      <trkpt lat="43.31707" lon="-4.35617833">
        <ele>96.0</ele>
        <time>2018-05-19T07:40:41.845Z</time>
      </trkpt>
      <trkpt lat="43.317055" lon="-4.35622333">
        <ele>96.0</ele>
        <time>2018-05-19T07:40:42.844Z</time>
      </trkpt>
      <trkpt lat="43.31704333" lon="-4.35626833">
        <ele>96.0</ele>
        <time>2018-05-19T07:40:43.845Z</time>
      </trkpt>
      <trkpt lat="43.31704333" lon="-4.35626833">
        <ele>96.0</ele>
        <time>2018-05-19T07:40:44.874Z</time>
      </trkpt>
      <trkpt lat="43.31701833" lon="-4.35636333">
        <ele>95.0</ele>
        <time>2018-05-19T07:40:45.861Z</time>
      </trkpt>
      <trkpt lat="43.31701" lon="-4.35640833">
        <ele>96.0</ele>
        <time>2018-05-19T07:40:46.882Z</time>
      </trkpt>
      <trkpt lat="43.31701" lon="-4.35640833">
        <ele>96.0</ele>
        <time>2018-05-19T07:40:47.881Z</time>
      </trkpt>
      <trkpt lat="43.317" lon="-4.35649167">
        <ele>96.0</ele>
        <time>2018-05-19T07:40:48.883Z</time>
      </trkpt>
      <trkpt lat="43.316995" lon="-4.35653167">
        <ele>96.0</ele>
        <time>2018-05-19T07:40:49.844Z</time>
      </trkpt>
      <trkpt lat="43.316995" lon="-4.35653167">
        <ele>96.0</ele>
        <time>2018-05-19T07:40:50.881Z</time>
      </trkpt>
      <trkpt lat="43.316985" lon="-4.35660167">
        <ele>96.0</ele>
        <time>2018-05-19T07:40:51.845Z</time>
      </trkpt>
      <trkpt lat="43.316985" lon="-4.35660167">
        <ele>96.0</ele>
        <time>2018-05-19T07:40:52.879Z</time>
      </trkpt>
      <trkpt lat="43.31698333" lon="-4.35666333">
        <ele>97.0</ele>
        <time>2018-05-19T07:40:53.844Z</time>
      </trkpt>
      <trkpt lat="43.31698333" lon="-4.35666333">
        <ele>97.0</ele>
        <time>2018-05-19T07:40:54.876Z</time>
      </trkpt>
      <trkpt lat="43.31697333" lon="-4.35673">
        <ele>97.0</ele>
        <time>2018-05-19T07:40:55.860Z</time>
      </trkpt>
      <trkpt lat="43.31697333" lon="-4.35673">
        <ele>97.0</ele>
        <time>2018-05-19T07:40:56.882Z</time>
      </trkpt>
      <trkpt lat="43.31696" lon="-4.35678167">
        <ele>98.0</ele>
        <time>2018-05-19T07:40:57.883Z</time>
      </trkpt>
      <trkpt lat="43.31696" lon="-4.35678167">
        <ele>98.0</ele>
        <time>2018-05-19T07:40:58.880Z</time>
      </trkpt>
      <trkpt lat="43.31695" lon="-4.35681833">
        <ele>99.0</ele>
        <time>2018-05-19T07:40:59.844Z</time>
      </trkpt>
      <trkpt lat="43.31695" lon="-4.35681833">
        <ele>99.0</ele>
        <time>2018-05-19T07:41:00.879Z</time>
      </trkpt>
      <trkpt lat="43.316945" lon="-4.35685">
        <ele>99.0</ele>
        <time>2018-05-19T07:41:01.882Z</time>
      </trkpt>
      <trkpt lat="43.316945" lon="-4.35685">
        <ele>99.0</ele>
        <time>2018-05-19T07:41:02.881Z</time>
      </trkpt>
      <trkpt lat="43.316935" lon="-4.356885">
        <ele>100.0</ele>
        <time>2018-05-19T07:41:03.882Z</time>
      </trkpt>
      <trkpt lat="43.316935" lon="-4.356885">
        <ele>100.0</ele>
        <time>2018-05-19T07:41:04.874Z</time>
      </trkpt>
      <trkpt lat="43.316925" lon="-4.35692833">
        <ele>100.0</ele>
        <time>2018-05-19T07:41:05.859Z</time>
      </trkpt>
      <trkpt lat="43.316925" lon="-4.35692833">
        <ele>100.0</ele>
        <time>2018-05-19T07:41:06.844Z</time>
      </trkpt>
      <trkpt lat="43.31690333" lon="-4.35697167">
        <ele>101.0</ele>
        <time>2018-05-19T07:41:07.846Z</time>
      </trkpt>
      <trkpt lat="43.31690333" lon="-4.35697167">
        <ele>101.0</ele>
        <time>2018-05-19T07:41:08.882Z</time>
      </trkpt>
      <trkpt lat="43.316885" lon="-4.35702333">
        <ele>101.0</ele>
        <time>2018-05-19T07:41:09.845Z</time>
      </trkpt>
      <trkpt lat="43.316885" lon="-4.35702333">
        <ele>101.0</ele>
        <time>2018-05-19T07:41:10.881Z</time>
      </trkpt>
      <trkpt lat="43.31686833" lon="-4.35706667">
        <ele>103.0</ele>
        <time>2018-05-19T07:41:11.856Z</time>
      </trkpt>
      <trkpt lat="43.31686833" lon="-4.35706667">
        <ele>103.0</ele>
        <time>2018-05-19T07:41:12.882Z</time>
      </trkpt>
      <trkpt lat="43.31685333" lon="-4.3571">
        <ele>105.0</ele>
        <time>2018-05-19T07:41:13.845Z</time>
      </trkpt>
      <trkpt lat="43.31685333" lon="-4.3571">
        <ele>105.0</ele>
        <time>2018-05-19T07:41:14.875Z</time>
      </trkpt>
      <trkpt lat="43.31684167" lon="-4.35713833">
        <ele>106.0</ele>
        <time>2018-05-19T07:41:15.861Z</time>
      </trkpt>
      <trkpt lat="43.31684167" lon="-4.35713833">
        <ele>106.0</ele>
        <time>2018-05-19T07:41:16.847Z</time>
      </trkpt>
      <trkpt lat="43.31682167" lon="-4.357165">
        <ele>107.0</ele>
        <time>2018-05-19T07:41:17.883Z</time>
      </trkpt>
      <trkpt lat="43.31682167" lon="-4.357165">
        <ele>107.0</ele>
        <time>2018-05-19T07:41:18.879Z</time>
      </trkpt>
      <trkpt lat="43.31679833" lon="-4.35719667">
        <ele>108.0</ele>
        <time>2018-05-19T07:41:19.845Z</time>
      </trkpt>
      <trkpt lat="43.31679833" lon="-4.35719667">
        <ele>108.0</ele>
        <time>2018-05-19T07:41:20.881Z</time>
      </trkpt>
      <trkpt lat="43.31678" lon="-4.35723333">
        <ele>109.0</ele>
        <time>2018-05-19T07:41:21.845Z</time>
      </trkpt>
      <trkpt lat="43.31678" lon="-4.35723333">
        <ele>109.0</ele>
        <time>2018-05-19T07:41:22.879Z</time>
      </trkpt>
      <trkpt lat="43.31676667" lon="-4.35728167">
        <ele>110.0</ele>
        <time>2018-05-19T07:41:23.881Z</time>
      </trkpt>
      <trkpt lat="43.31676667" lon="-4.35728167">
        <ele>110.0</ele>
        <time>2018-05-19T07:41:24.875Z</time>
      </trkpt>
      <trkpt lat="43.31676" lon="-4.35733">
        <ele>111.0</ele>
        <time>2018-05-19T07:41:25.859Z</time>
      </trkpt>
      <trkpt lat="43.31676" lon="-4.35733">
        <ele>111.0</ele>
        <time>2018-05-19T07:41:26.844Z</time>
      </trkpt>
      <trkpt lat="43.31675333" lon="-4.35737667">
        <ele>112.0</ele>
        <time>2018-05-19T07:41:27.845Z</time>
      </trkpt>
      <trkpt lat="43.31675333" lon="-4.35737667">
        <ele>112.0</ele>
        <time>2018-05-19T07:41:28.881Z</time>
      </trkpt>
      <trkpt lat="43.31674167" lon="-4.357425">
        <ele>113.0</ele>
        <time>2018-05-19T07:41:29.883Z</time>
      </trkpt>
      <trkpt lat="43.316735" lon="-4.35745167">
        <ele>113.0</ele>
        <time>2018-05-19T07:41:30.883Z</time>
      </trkpt>
      <trkpt lat="43.316735" lon="-4.35745167">
        <ele>113.0</ele>
        <time>2018-05-19T07:41:31.876Z</time>
      </trkpt>
      <trkpt lat="43.31672333" lon="-4.35750833">
        <ele>114.0</ele>
        <time>2018-05-19T07:41:32.883Z</time>
      </trkpt>
      <trkpt lat="43.31671833" lon="-4.35753333">
        <ele>114.0</ele>
        <time>2018-05-19T07:41:33.844Z</time>
      </trkpt>
      <trkpt lat="43.31671833" lon="-4.35753333">
        <ele>114.0</ele>
        <time>2018-05-19T07:41:34.876Z</time>
      </trkpt>
      <trkpt lat="43.31670833" lon="-4.35758667">
        <ele>115.0</ele>
        <time>2018-05-19T07:41:35.861Z</time>
      </trkpt>
      <trkpt lat="43.31670833" lon="-4.35758667">
        <ele>115.0</ele>
        <time>2018-05-19T07:41:36.845Z</time>
      </trkpt>
      <trkpt lat="43.31669833" lon="-4.35763833">
        <ele>115.0</ele>
        <time>2018-05-19T07:41:37.861Z</time>
      </trkpt>
      <trkpt lat="43.31669833" lon="-4.35763833">
        <ele>115.0</ele>
        <time>2018-05-19T07:41:38.884Z</time>
      </trkpt>
      <trkpt lat="43.31668833" lon="-4.35769">
        <ele>115.0</ele>
        <time>2018-05-19T07:41:39.845Z</time>
      </trkpt>
      <trkpt lat="43.31668833" lon="-4.35769">
        <ele>115.0</ele>
        <time>2018-05-19T07:41:40.881Z</time>
      </trkpt>
      <trkpt lat="43.31667833" lon="-4.35773833">
        <ele>115.0</ele>
        <time>2018-05-19T07:41:41.844Z</time>
      </trkpt>
      <trkpt lat="43.31667833" lon="-4.35773833">
        <ele>115.0</ele>
        <time>2018-05-19T07:41:42.844Z</time>
      </trkpt>
      <trkpt lat="43.31667167" lon="-4.35779167">
        <ele>115.0</ele>
        <time>2018-05-19T07:41:43.845Z</time>
      </trkpt>
      <trkpt lat="43.31667167" lon="-4.35779167">
        <ele>115.0</ele>
        <time>2018-05-19T07:41:44.875Z</time>
      </trkpt>
      <trkpt lat="43.31666" lon="-4.35784">
        <ele>116.0</ele>
        <time>2018-05-19T07:41:45.861Z</time>
      </trkpt>
      <trkpt lat="43.31665333" lon="-4.357865">
        <ele>116.0</ele>
        <time>2018-05-19T07:41:46.856Z</time>
      </trkpt>
      <trkpt lat="43.31665" lon="-4.35788667">
        <ele>116.0</ele>
        <time>2018-05-19T07:41:47.844Z</time>
      </trkpt>
      <trkpt lat="43.31665" lon="-4.35788667">
        <ele>116.0</ele>
        <time>2018-05-19T07:41:48.881Z</time>
      </trkpt>
      <trkpt lat="43.31663833" lon="-4.35792667">
        <ele>116.0</ele>
        <time>2018-05-19T07:41:49.845Z</time>
      </trkpt>
      <trkpt lat="43.31663833" lon="-4.35792667">
        <ele>116.0</ele>
        <time>2018-05-19T07:41:50.879Z</time>
      </trkpt>
      <trkpt lat="43.31662667" lon="-4.357975">
        <ele>117.0</ele>
        <time>2018-05-19T07:41:51.845Z</time>
      </trkpt>
      <trkpt lat="43.31662667" lon="-4.357975">
        <ele>117.0</ele>
        <time>2018-05-19T07:41:52.881Z</time>
      </trkpt>
      <trkpt lat="43.31661667" lon="-4.35802667">
        <ele>118.0</ele>
        <time>2018-05-19T07:41:53.883Z</time>
      </trkpt>
      <trkpt lat="43.31661667" lon="-4.35802667">
        <ele>118.0</ele>
        <time>2018-05-19T07:41:54.874Z</time>
      </trkpt>
      <trkpt lat="43.31660667" lon="-4.35808167">
        <ele>118.0</ele>
        <time>2018-05-19T07:41:55.858Z</time>
      </trkpt>
      <trkpt lat="43.31660667" lon="-4.35808167">
        <ele>118.0</ele>
        <time>2018-05-19T07:41:56.881Z</time>
      </trkpt>
      <trkpt lat="43.31659167" lon="-4.358125">
        <ele>118.0</ele>
        <time>2018-05-19T07:41:57.844Z</time>
      </trkpt>
      <trkpt lat="43.31659167" lon="-4.358125">
        <ele>118.0</ele>
        <time>2018-05-19T07:41:58.881Z</time>
      </trkpt>
      <trkpt lat="43.31657333" lon="-4.35816833">
        <ele>119.0</ele>
        <time>2018-05-19T07:41:59.851Z</time>
      </trkpt>
      <trkpt lat="43.31657333" lon="-4.35816833">
        <ele>119.0</ele>
        <time>2018-05-19T07:42:00.879Z</time>
      </trkpt>
      <trkpt lat="43.31655333" lon="-4.358205">
        <ele>119.0</ele>
        <time>2018-05-19T07:42:01.868Z</time>
      </trkpt>
      <trkpt lat="43.31655333" lon="-4.358205">
        <ele>119.0</ele>
        <time>2018-05-19T07:42:02.853Z</time>
      </trkpt>
      <trkpt lat="43.31653833" lon="-4.35825">
        <ele>119.0</ele>
        <time>2018-05-19T07:42:03.845Z</time>
      </trkpt>
      <trkpt lat="43.31653833" lon="-4.35825">
        <ele>119.0</ele>
        <time>2018-05-19T07:42:04.879Z</time>
      </trkpt>
      <trkpt lat="43.31652667" lon="-4.35829167">
        <ele>120.0</ele>
        <time>2018-05-19T07:42:05.883Z</time>
      </trkpt>
      <trkpt lat="43.31652667" lon="-4.35829167">
        <ele>120.0</ele>
        <time>2018-05-19T07:42:06.882Z</time>
      </trkpt>
      <trkpt lat="43.31651333" lon="-4.358335">
        <ele>120.0</ele>
        <time>2018-05-19T07:42:07.844Z</time>
      </trkpt>
      <trkpt lat="43.31651333" lon="-4.358335">
        <ele>120.0</ele>
        <time>2018-05-19T07:42:08.878Z</time>
      </trkpt>
      <trkpt lat="43.31650667" lon="-4.358375">
        <ele>121.0</ele>
        <time>2018-05-19T07:42:09.845Z</time>
      </trkpt>
      <trkpt lat="43.31650667" lon="-4.358375">
        <ele>121.0</ele>
        <time>2018-05-19T07:42:10.881Z</time>
      </trkpt>
      <trkpt lat="43.3165" lon="-4.35841">
        <ele>122.0</ele>
        <time>2018-05-19T07:42:11.855Z</time>
      </trkpt>
      <trkpt lat="43.3165" lon="-4.35841">
        <ele>122.0</ele>
        <time>2018-05-19T07:42:12.879Z</time>
      </trkpt>
      <trkpt lat="43.316495" lon="-4.35844333">
        <ele>123.0</ele>
        <time>2018-05-19T07:42:13.845Z</time>
      </trkpt>
      <trkpt lat="43.316495" lon="-4.35844333">
        <ele>123.0</ele>
        <time>2018-05-19T07:42:14.876Z</time>
      </trkpt>
      <trkpt lat="43.31649167" lon="-4.35847">
        <ele>123.0</ele>
        <time>2018-05-19T07:42:15.845Z</time>
      </trkpt>
      <trkpt lat="43.31649167" lon="-4.35847">
        <ele>123.0</ele>
        <time>2018-05-19T07:42:16.883Z</time>
      </trkpt>
      <trkpt lat="43.31649" lon="-4.35850167">
        <ele>124.0</ele>
        <time>2018-05-19T07:42:17.883Z</time>
      </trkpt>
      <trkpt lat="43.31649" lon="-4.35850167">
        <ele>124.0</ele>
        <time>2018-05-19T07:42:18.881Z</time>
      </trkpt>
      <trkpt lat="43.31649" lon="-4.35852833">
        <ele>124.0</ele>
        <time>2018-05-19T07:42:19.845Z</time>
      </trkpt>
      <trkpt lat="43.31649" lon="-4.35852833">
        <ele>124.0</ele>
        <time>2018-05-19T07:42:20.881Z</time>
      </trkpt>
      <trkpt lat="43.31649" lon="-4.35856167">
        <ele>125.0</ele>
        <time>2018-05-19T07:42:21.845Z</time>
      </trkpt>
      <trkpt lat="43.31649" lon="-4.35856167">
        <ele>125.0</ele>
        <time>2018-05-19T07:42:22.859Z</time>
      </trkpt>
      <trkpt lat="43.31649" lon="-4.35859167">
        <ele>126.0</ele>
        <time>2018-05-19T07:42:23.844Z</time>
      </trkpt>
      <trkpt lat="43.31649" lon="-4.35859167">
        <ele>126.0</ele>
        <time>2018-05-19T07:42:24.880Z</time>
      </trkpt>
      <trkpt lat="43.31649" lon="-4.35862">
        <ele>127.0</ele>
        <time>2018-05-19T07:42:25.882Z</time>
      </trkpt>
      <trkpt lat="43.31649" lon="-4.35862">
        <ele>127.0</ele>
        <time>2018-05-19T07:42:26.868Z</time>
      </trkpt>
      <trkpt lat="43.31648833" lon="-4.35864667">
        <ele>128.0</ele>
        <time>2018-05-19T07:42:27.855Z</time>
      </trkpt>
      <trkpt lat="43.31648833" lon="-4.35864667">
        <ele>128.0</ele>
        <time>2018-05-19T07:42:28.881Z</time>
      </trkpt>
      <trkpt lat="43.316485" lon="-4.35867">
        <ele>129.0</ele>
        <time>2018-05-19T07:42:29.884Z</time>
      </trkpt>
      <trkpt lat="43.316485" lon="-4.35867">
        <ele>129.0</ele>
        <time>2018-05-19T07:42:30.878Z</time>
      </trkpt>
      <trkpt lat="43.31648333" lon="-4.35869667">
        <ele>130.0</ele>
        <time>2018-05-19T07:42:31.868Z</time>
      </trkpt>
      <trkpt lat="43.31648333" lon="-4.35869667">
        <ele>130.0</ele>
        <time>2018-05-19T07:42:32.853Z</time>
      </trkpt>
      <trkpt lat="43.31648" lon="-4.35872667">
        <ele>131.0</ele>
        <time>2018-05-19T07:42:33.844Z</time>
      </trkpt>
      <trkpt lat="43.31648" lon="-4.35872667">
        <ele>131.0</ele>
        <time>2018-05-19T07:42:34.871Z</time>
      </trkpt>
      <trkpt lat="43.316475" lon="-4.35875">
        <ele>132.0</ele>
        <time>2018-05-19T07:42:35.855Z</time>
      </trkpt>
      <trkpt lat="43.31647667" lon="-4.35876333">
        <ele>132.0</ele>
        <time>2018-05-19T07:42:36.847Z</time>
      </trkpt>
      <trkpt lat="43.31647667" lon="-4.35876333">
        <ele>132.0</ele>
        <time>2018-05-19T07:42:37.879Z</time>
      </trkpt>
      <trkpt lat="43.31647333" lon="-4.35879">
        <ele>133.0</ele>
        <time>2018-05-19T07:42:38.884Z</time>
      </trkpt>
      <trkpt lat="43.31647167" lon="-4.35880167">
        <ele>133.0</ele>
        <time>2018-05-19T07:42:39.844Z</time>
      </trkpt>
      <trkpt lat="43.31647167" lon="-4.35880167">
        <ele>133.0</ele>
        <time>2018-05-19T07:42:40.879Z</time>
      </trkpt>
      <trkpt lat="43.31646667" lon="-4.35883667">
        <ele>134.0</ele>
        <time>2018-05-19T07:42:41.883Z</time>
      </trkpt>
      <trkpt lat="43.31646667" lon="-4.35883667">
        <ele>134.0</ele>
        <time>2018-05-19T07:42:42.881Z</time>
      </trkpt>
      <trkpt lat="43.31645833" lon="-4.35886667">
        <ele>135.0</ele>
        <time>2018-05-19T07:42:43.845Z</time>
      </trkpt>
      <trkpt lat="43.31645833" lon="-4.35886667">
        <ele>135.0</ele>
        <time>2018-05-19T07:42:44.875Z</time>
      </trkpt>
      <trkpt lat="43.31646" lon="-4.35889333">
        <ele>136.0</ele>
        <time>2018-05-19T07:42:45.869Z</time>
      </trkpt>
      <trkpt lat="43.31645667" lon="-4.35890667">
        <ele>136.0</ele>
        <time>2018-05-19T07:42:46.849Z</time>
      </trkpt>
      <trkpt lat="43.31645667" lon="-4.35890667">
        <ele>136.0</ele>
        <time>2018-05-19T07:42:47.881Z</time>
      </trkpt>
      <trkpt lat="43.31645" lon="-4.35895667">
        <ele>137.0</ele>
        <time>2018-05-19T07:42:48.844Z</time>
      </trkpt>
      <trkpt lat="43.31644667" lon="-4.358975">
        <ele>137.0</ele>
        <time>2018-05-19T07:42:49.845Z</time>
      </trkpt>
      <trkpt lat="43.31644667" lon="-4.358975">
        <ele>137.0</ele>
        <time>2018-05-19T07:42:50.882Z</time>
      </trkpt>
      <trkpt lat="43.316445" lon="-4.35901833">
        <ele>137.0</ele>
        <time>2018-05-19T07:42:51.868Z</time>
      </trkpt>
      <trkpt lat="43.316445" lon="-4.35901833">
        <ele>137.0</ele>
        <time>2018-05-19T07:42:52.853Z</time>
      </trkpt>
      <trkpt lat="43.31643667" lon="-4.359065">
        <ele>138.0</ele>
        <time>2018-05-19T07:42:53.844Z</time>
      </trkpt>
      <trkpt lat="43.31643667" lon="-4.359065">
        <ele>138.0</ele>
        <time>2018-05-19T07:42:54.875Z</time>
      </trkpt>
      <trkpt lat="43.31642333" lon="-4.35911667">
        <ele>138.0</ele>
        <time>2018-05-19T07:42:55.860Z</time>
      </trkpt>
      <trkpt lat="43.31642333" lon="-4.35911667">
        <ele>138.0</ele>
        <time>2018-05-19T07:42:56.844Z</time>
      </trkpt>
      <trkpt lat="43.31641" lon="-4.35916833">
        <ele>139.0</ele>
        <time>2018-05-19T07:42:57.844Z</time>
      </trkpt>
      <trkpt lat="43.31641" lon="-4.35916833">
        <ele>139.0</ele>
        <time>2018-05-19T07:42:58.882Z</time>
      </trkpt>
      <trkpt lat="43.316395" lon="-4.35921667">
        <ele>139.0</ele>
        <time>2018-05-19T07:42:59.883Z</time>
      </trkpt>
      <trkpt lat="43.316395" lon="-4.35921667">
        <ele>139.0</ele>
        <time>2018-05-19T07:43:00.881Z</time>
      </trkpt>
      <trkpt lat="43.31638333" lon="-4.359255">
        <ele>139.0</ele>
        <time>2018-05-19T07:43:01.844Z</time>
      </trkpt>
      <trkpt lat="43.31638333" lon="-4.359255">
        <ele>139.0</ele>
        <time>2018-05-19T07:43:02.879Z</time>
      </trkpt>
      <trkpt lat="43.31637333" lon="-4.35928667">
        <ele>140.0</ele>
        <time>2018-05-19T07:43:03.844Z</time>
      </trkpt>
      <trkpt lat="43.31637333" lon="-4.35928667">
        <ele>140.0</ele>
        <time>2018-05-19T07:43:04.875Z</time>
      </trkpt>
      <trkpt lat="43.31636333" lon="-4.35932">
        <ele>140.0</ele>
        <time>2018-05-19T07:43:05.860Z</time>
      </trkpt>
      <trkpt lat="43.31636333" lon="-4.35932">
        <ele>140.0</ele>
        <time>2018-05-19T07:43:06.844Z</time>
      </trkpt>
      <trkpt lat="43.31634833" lon="-4.35935333">
        <ele>139.0</ele>
        <time>2018-05-19T07:43:07.882Z</time>
      </trkpt>
      <trkpt lat="43.31634833" lon="-4.35935333">
        <ele>139.0</ele>
        <time>2018-05-19T07:43:08.880Z</time>
      </trkpt>
      <trkpt lat="43.31634167" lon="-4.35938167">
        <ele>140.0</ele>
        <time>2018-05-19T07:43:09.853Z</time>
      </trkpt>
      <trkpt lat="43.31634167" lon="-4.35938167">
        <ele>140.0</ele>
        <time>2018-05-19T07:43:10.881Z</time>
      </trkpt>
      <trkpt lat="43.31633333" lon="-4.35941167">
        <ele>140.0</ele>
        <time>2018-05-19T07:43:11.863Z</time>
      </trkpt>
      <trkpt lat="43.31633" lon="-4.359425">
        <ele>140.0</ele>
        <time>2018-05-19T07:43:12.850Z</time>
      </trkpt>
      <trkpt lat="43.31633" lon="-4.359425">
        <ele>140.0</ele>
        <time>2018-05-19T07:43:13.878Z</time>
      </trkpt>
      <trkpt lat="43.31632167" lon="-4.359455">
        <ele>140.0</ele>
        <time>2018-05-19T07:43:14.867Z</time>
      </trkpt>
      <trkpt lat="43.31632167" lon="-4.35947">
        <ele>141.0</ele>
        <time>2018-05-19T07:43:15.854Z</time>
      </trkpt>
      <trkpt lat="43.31632167" lon="-4.35947">
        <ele>141.0</ele>
        <time>2018-05-19T07:43:16.882Z</time>
      </trkpt>
      <trkpt lat="43.31631333" lon="-4.35950667">
        <ele>141.0</ele>
        <time>2018-05-19T07:43:17.883Z</time>
      </trkpt>
      <trkpt lat="43.31631333" lon="-4.35950667">
        <ele>141.0</ele>
        <time>2018-05-19T07:43:18.881Z</time>
      </trkpt>
      <trkpt lat="43.31630833" lon="-4.35954833">
        <ele>141.0</ele>
        <time>2018-05-19T07:43:19.844Z</time>
      </trkpt>
      <trkpt lat="43.31630833" lon="-4.35954833">
        <ele>141.0</ele>
        <time>2018-05-19T07:43:20.878Z</time>
      </trkpt>
      <trkpt lat="43.316305" lon="-4.35958167">
        <ele>142.0</ele>
        <time>2018-05-19T07:43:21.867Z</time>
      </trkpt>
      <trkpt lat="43.31630167" lon="-4.3596">
        <ele>142.0</ele>
        <time>2018-05-19T07:43:22.862Z</time>
      </trkpt>
      <trkpt lat="43.31630167" lon="-4.3596">
        <ele>142.0</ele>
        <time>2018-05-19T07:43:23.857Z</time>
      </trkpt>
      <trkpt lat="43.31629333" lon="-4.35963167">
        <ele>142.0</ele>
        <time>2018-05-19T07:43:24.844Z</time>
      </trkpt>
      <trkpt lat="43.31629167" lon="-4.35965">
        <ele>142.0</ele>
        <time>2018-05-19T07:43:25.845Z</time>
      </trkpt>
      <trkpt lat="43.31629167" lon="-4.35965">
        <ele>142.0</ele>
        <time>2018-05-19T07:43:26.881Z</time>
      </trkpt>
      <trkpt lat="43.31628833" lon="-4.35969">
        <ele>142.0</ele>
        <time>2018-05-19T07:43:27.844Z</time>
      </trkpt>
      <trkpt lat="43.31628833" lon="-4.35969">
        <ele>142.0</ele>
        <time>2018-05-19T07:43:28.881Z</time>
      </trkpt>
      <trkpt lat="43.316285" lon="-4.35972167">
        <ele>143.0</ele>
        <time>2018-05-19T07:43:29.883Z</time>
      </trkpt>
      <trkpt lat="43.31628167" lon="-4.35974">
        <ele>143.0</ele>
        <time>2018-05-19T07:43:30.883Z</time>
      </trkpt>
      <trkpt lat="43.31628167" lon="-4.35974">
        <ele>143.0</ele>
        <time>2018-05-19T07:43:31.870Z</time>
      </trkpt>
      <trkpt lat="43.31627" lon="-4.359775">
        <ele>143.0</ele>
        <time>2018-05-19T07:43:32.853Z</time>
      </trkpt>
      <trkpt lat="43.31626667" lon="-4.35979333">
        <ele>144.0</ele>
        <time>2018-05-19T07:43:33.844Z</time>
      </trkpt>
      <trkpt lat="43.31626667" lon="-4.35979333">
        <ele>144.0</ele>
        <time>2018-05-19T07:43:34.880Z</time>
      </trkpt>
      <trkpt lat="43.31626167" lon="-4.35982667">
        <ele>144.0</ele>
        <time>2018-05-19T07:43:35.883Z</time>
      </trkpt>
      <trkpt lat="43.31625833" lon="-4.35984333">
        <ele>144.0</ele>
        <time>2018-05-19T07:43:36.844Z</time>
      </trkpt>
      <trkpt lat="43.31625833" lon="-4.35984333">
        <ele>144.0</ele>
        <time>2018-05-19T07:43:37.844Z</time>
      </trkpt>
      <trkpt lat="43.31625333" lon="-4.35987667">
        <ele>145.0</ele>
        <time>2018-05-19T07:43:38.844Z</time>
      </trkpt>
      <trkpt lat="43.31625333" lon="-4.35989167">
        <ele>145.0</ele>
        <time>2018-05-19T07:43:39.845Z</time>
      </trkpt>
      <trkpt lat="43.31625333" lon="-4.35989167">
        <ele>145.0</ele>
        <time>2018-05-19T07:43:40.879Z</time>
      </trkpt>
      <trkpt lat="43.31624667" lon="-4.35992667">
        <ele>145.0</ele>
        <time>2018-05-19T07:43:41.883Z</time>
      </trkpt>
      <trkpt lat="43.31624667" lon="-4.35992667">
        <ele>145.0</ele>
        <time>2018-05-19T07:43:42.879Z</time>
      </trkpt>
      <trkpt lat="43.31624" lon="-4.35996167">
        <ele>146.0</ele>
        <time>2018-05-19T07:43:43.868Z</time>
      </trkpt>
      <trkpt lat="43.31624" lon="-4.35996167">
        <ele>146.0</ele>
        <time>2018-05-19T07:43:44.874Z</time>
      </trkpt>
      <trkpt lat="43.31623667" lon="-4.35999833">
        <ele>146.0</ele>
        <time>2018-05-19T07:43:45.868Z</time>
      </trkpt>
      <trkpt lat="43.31623333" lon="-4.36001667">
        <ele>147.0</ele>
        <time>2018-05-19T07:43:46.876Z</time>
      </trkpt>
      <trkpt lat="43.31623333" lon="-4.36003333">
        <ele>147.0</ele>
        <time>2018-05-19T07:43:47.883Z</time>
      </trkpt>
      <trkpt lat="43.31623333" lon="-4.36003333">
        <ele>147.0</ele>
        <time>2018-05-19T07:43:48.849Z</time>
      </trkpt>
      <trkpt lat="43.31623667" lon="-4.360065">
        <ele>147.0</ele>
        <time>2018-05-19T07:43:49.846Z</time>
      </trkpt>
      <trkpt lat="43.31623667" lon="-4.360065">
        <ele>147.0</ele>
        <time>2018-05-19T07:43:50.882Z</time>
      </trkpt>
      <trkpt lat="43.31623333" lon="-4.360105">
        <ele>148.0</ele>
        <time>2018-05-19T07:43:51.844Z</time>
      </trkpt>
      <trkpt lat="43.31623333" lon="-4.360105">
        <ele>148.0</ele>
        <time>2018-05-19T07:43:52.881Z</time>
      </trkpt>
      <trkpt lat="43.31623" lon="-4.36014">
        <ele>148.0</ele>
        <time>2018-05-19T07:43:53.880Z</time>
      </trkpt>
      <trkpt lat="43.31623" lon="-4.36014">
        <ele>148.0</ele>
        <time>2018-05-19T07:43:54.875Z</time>
      </trkpt>
      <trkpt lat="43.316225" lon="-4.36017833">
        <ele>149.0</ele>
        <time>2018-05-19T07:43:55.859Z</time>
      </trkpt>
      <trkpt lat="43.316225" lon="-4.36017833">
        <ele>149.0</ele>
        <time>2018-05-19T07:43:56.845Z</time>
      </trkpt>
      <trkpt lat="43.31622333" lon="-4.36022667">
        <ele>149.0</ele>
        <time>2018-05-19T07:43:57.844Z</time>
      </trkpt>
      <trkpt lat="43.31622333" lon="-4.36022667">
        <ele>149.0</ele>
        <time>2018-05-19T07:43:58.879Z</time>
      </trkpt>
      <trkpt lat="43.316225" lon="-4.360285">
        <ele>150.0</ele>
        <time>2018-05-19T07:43:59.883Z</time>
      </trkpt>
      <trkpt lat="43.316225" lon="-4.360285">
        <ele>150.0</ele>
        <time>2018-05-19T07:44:00.880Z</time>
      </trkpt>
      <trkpt lat="43.31621833" lon="-4.36034167">
        <ele>151.0</ele>
        <time>2018-05-19T07:44:01.882Z</time>
      </trkpt>
      <trkpt lat="43.31621833" lon="-4.36034167">
        <ele>151.0</ele>
        <time>2018-05-19T07:44:02.879Z</time>
      </trkpt>
      <trkpt lat="43.31620833" lon="-4.36039">
        <ele>151.0</ele>
        <time>2018-05-19T07:44:03.877Z</time>
      </trkpt>
      <trkpt lat="43.31620833" lon="-4.36039">
        <ele>151.0</ele>
        <time>2018-05-19T07:44:04.874Z</time>
      </trkpt>
      <trkpt lat="43.31619333" lon="-4.36044167">
        <ele>151.0</ele>
        <time>2018-05-19T07:44:05.859Z</time>
      </trkpt>
      <trkpt lat="43.31619333" lon="-4.36044167">
        <ele>151.0</ele>
        <time>2018-05-19T07:44:06.883Z</time>
      </trkpt>
      <trkpt lat="43.316185" lon="-4.360495">
        <ele>151.0</ele>
        <time>2018-05-19T07:44:07.844Z</time>
      </trkpt>
      <trkpt lat="43.316185" lon="-4.360495">
        <ele>151.0</ele>
        <time>2018-05-19T07:44:08.881Z</time>
      </trkpt>
      <trkpt lat="43.31617833" lon="-4.36054833">
        <ele>152.0</ele>
        <time>2018-05-19T07:44:09.844Z</time>
      </trkpt>
      <trkpt lat="43.31617833" lon="-4.36054833">
        <ele>152.0</ele>
        <time>2018-05-19T07:44:10.881Z</time>
      </trkpt>
      <trkpt lat="43.316175" lon="-4.36059667">
        <ele>153.0</ele>
        <time>2018-05-19T07:44:11.883Z</time>
      </trkpt>
      <trkpt lat="43.31617" lon="-4.36062167">
        <ele>153.0</ele>
        <time>2018-05-19T07:44:12.883Z</time>
      </trkpt>
      <trkpt lat="43.31617" lon="-4.36062167">
        <ele>153.0</ele>
        <time>2018-05-19T07:44:13.881Z</time>
      </trkpt>
      <trkpt lat="43.316165" lon="-4.360665">
        <ele>153.0</ele>
        <time>2018-05-19T07:44:14.878Z</time>
      </trkpt>
      <trkpt lat="43.31616333" lon="-4.36068667">
        <ele>154.0</ele>
        <time>2018-05-19T07:44:15.844Z</time>
      </trkpt>
      <trkpt lat="43.31616333" lon="-4.36068667">
        <ele>154.0</ele>
        <time>2018-05-19T07:44:16.881Z</time>
      </trkpt>
      <trkpt lat="43.31616" lon="-4.360735">
        <ele>154.0</ele>
        <time>2018-05-19T07:44:17.883Z</time>
      </trkpt>
      <trkpt lat="43.31616" lon="-4.360735">
        <ele>154.0</ele>
        <time>2018-05-19T07:44:18.881Z</time>
      </trkpt>
      <trkpt lat="43.316155" lon="-4.36077833">
        <ele>155.0</ele>
        <time>2018-05-19T07:44:19.844Z</time>
      </trkpt>
      <trkpt lat="43.316155" lon="-4.36077833">
        <ele>155.0</ele>
        <time>2018-05-19T07:44:20.881Z</time>
      </trkpt>
      <trkpt lat="43.31615333" lon="-4.36082">
        <ele>156.0</ele>
        <time>2018-05-19T07:44:21.881Z</time>
      </trkpt>
      <trkpt lat="43.31615333" lon="-4.36082">
        <ele>156.0</ele>
        <time>2018-05-19T07:44:22.880Z</time>
      </trkpt>
      <trkpt lat="43.31614667" lon="-4.360865">
        <ele>156.0</ele>
        <time>2018-05-19T07:44:23.884Z</time>
      </trkpt>
      <trkpt lat="43.31614667" lon="-4.360865">
        <ele>156.0</ele>
        <time>2018-05-19T07:44:24.874Z</time>
      </trkpt>
      <trkpt lat="43.31613667" lon="-4.36091167">
        <ele>157.0</ele>
        <time>2018-05-19T07:44:25.859Z</time>
      </trkpt>
      <trkpt lat="43.31613667" lon="-4.36091167">
        <ele>157.0</ele>
        <time>2018-05-19T07:44:26.844Z</time>
      </trkpt>
      <trkpt lat="43.31612667" lon="-4.360955">
        <ele>157.0</ele>
        <time>2018-05-19T07:44:27.856Z</time>
      </trkpt>
      <trkpt lat="43.31612667" lon="-4.360955">
        <ele>157.0</ele>
        <time>2018-05-19T07:44:28.882Z</time>
      </trkpt>
      <trkpt lat="43.31612667" lon="-4.36101">
        <ele>158.0</ele>
        <time>2018-05-19T07:44:29.881Z</time>
      </trkpt>
      <trkpt lat="43.31612667" lon="-4.36101">
        <ele>158.0</ele>
        <time>2018-05-19T07:44:30.880Z</time>
      </trkpt>
      <trkpt lat="43.31612667" lon="-4.361065">
        <ele>158.0</ele>
        <time>2018-05-19T07:44:31.845Z</time>
      </trkpt>
      <trkpt lat="43.31612667" lon="-4.361065">
        <ele>158.0</ele>
        <time>2018-05-19T07:44:32.882Z</time>
      </trkpt>
      <trkpt lat="43.31612167" lon="-4.36110833">
        <ele>159.0</ele>
        <time>2018-05-19T07:44:33.844Z</time>
      </trkpt>
      <trkpt lat="43.31612167" lon="-4.36110833">
        <ele>159.0</ele>
        <time>2018-05-19T07:44:34.874Z</time>
      </trkpt>
      <trkpt lat="43.31611833" lon="-4.36115333">
        <ele>159.0</ele>
        <time>2018-05-19T07:44:35.859Z</time>
      </trkpt>
      <trkpt lat="43.31611833" lon="-4.36115333">
        <ele>159.0</ele>
        <time>2018-05-19T07:44:36.844Z</time>
      </trkpt>
      <trkpt lat="43.31612" lon="-4.36119667">
        <ele>160.0</ele>
        <time>2018-05-19T07:44:37.881Z</time>
      </trkpt>
      <trkpt lat="43.31612" lon="-4.36119667">
        <ele>160.0</ele>
        <time>2018-05-19T07:44:38.878Z</time>
      </trkpt>
      <trkpt lat="43.316125" lon="-4.36123667">
        <ele>160.0</ele>
        <time>2018-05-19T07:44:39.844Z</time>
      </trkpt>
      <trkpt lat="43.316125" lon="-4.36123667">
        <ele>160.0</ele>
        <time>2018-05-19T07:44:40.881Z</time>
      </trkpt>
      <trkpt lat="43.31612833" lon="-4.36128333">
        <ele>161.0</ele>
        <time>2018-05-19T07:44:41.883Z</time>
      </trkpt>
      <trkpt lat="43.31612833" lon="-4.36128333">
        <ele>161.0</ele>
        <time>2018-05-19T07:44:42.878Z</time>
      </trkpt>
      <trkpt lat="43.31613667" lon="-4.36133">
        <ele>161.0</ele>
        <time>2018-05-19T07:44:43.844Z</time>
      </trkpt>
      <trkpt lat="43.31613667" lon="-4.36133">
        <ele>161.0</ele>
        <time>2018-05-19T07:44:44.874Z</time>
      </trkpt>
      <trkpt lat="43.31614167" lon="-4.361375">
        <ele>162.0</ele>
        <time>2018-05-19T07:44:45.865Z</time>
      </trkpt>
      <trkpt lat="43.31614333" lon="-4.36139833">
        <ele>162.0</ele>
        <time>2018-05-19T07:44:46.883Z</time>
      </trkpt>
      <trkpt lat="43.31614333" lon="-4.36139833">
        <ele>162.0</ele>
        <time>2018-05-19T07:44:47.878Z</time>
      </trkpt>
      <trkpt lat="43.31614667" lon="-4.361445">
        <ele>162.0</ele>
        <time>2018-05-19T07:44:48.883Z</time>
      </trkpt>
      <trkpt lat="43.31615" lon="-4.36146833">
        <ele>162.0</ele>
        <time>2018-05-19T07:44:49.884Z</time>
      </trkpt>
      <trkpt lat="43.31615" lon="-4.36146833">
        <ele>162.0</ele>
        <time>2018-05-19T07:44:50.881Z</time>
      </trkpt>
      <trkpt lat="43.316155" lon="-4.36151333">
        <ele>163.0</ele>
        <time>2018-05-19T07:44:51.845Z</time>
      </trkpt>
      <trkpt lat="43.316155" lon="-4.36151333">
        <ele>163.0</ele>
        <time>2018-05-19T07:44:52.881Z</time>
      </trkpt>
      <trkpt lat="43.31615833" lon="-4.36156">
        <ele>163.0</ele>
        <time>2018-05-19T07:44:53.845Z</time>
      </trkpt>
      <trkpt lat="43.31616167" lon="-4.36158333">
        <ele>164.0</ele>
        <time>2018-05-19T07:44:54.883Z</time>
      </trkpt>
      <trkpt lat="43.31616167" lon="-4.36158333">
        <ele>164.0</ele>
        <time>2018-05-19T07:44:55.879Z</time>
      </trkpt>
      <trkpt lat="43.31616833" lon="-4.36162">
        <ele>164.0</ele>
        <time>2018-05-19T07:44:56.868Z</time>
      </trkpt>
      <trkpt lat="43.31617167" lon="-4.36163833">
        <ele>164.0</ele>
        <time>2018-05-19T07:44:57.854Z</time>
      </trkpt>
      <trkpt lat="43.31617167" lon="-4.36163833">
        <ele>164.0</ele>
        <time>2018-05-19T07:44:58.881Z</time>
      </trkpt>
      <trkpt lat="43.31617" lon="-4.36167">
        <ele>165.0</ele>
        <time>2018-05-19T07:44:59.883Z</time>
      </trkpt>
      <trkpt lat="43.31617" lon="-4.36167">
        <ele>165.0</ele>
        <time>2018-05-19T07:45:00.878Z</time>
      </trkpt>
      <trkpt lat="43.31617167" lon="-4.361715">
        <ele>165.0</ele>
        <time>2018-05-19T07:45:01.867Z</time>
      </trkpt>
      <trkpt lat="43.31617167" lon="-4.361715">
        <ele>165.0</ele>
        <time>2018-05-19T07:45:02.851Z</time>
      </trkpt>
      <trkpt lat="43.316175" lon="-4.36176">
        <ele>166.0</ele>
        <time>2018-05-19T07:45:03.844Z</time>
      </trkpt>
      <trkpt lat="43.316175" lon="-4.36176">
        <ele>166.0</ele>
        <time>2018-05-19T07:45:04.874Z</time>
      </trkpt>
      <trkpt lat="43.31618667" lon="-4.36179333">
        <ele>166.0</ele>
        <time>2018-05-19T07:45:05.859Z</time>
      </trkpt>
      <trkpt lat="43.31618667" lon="-4.36179333">
        <ele>166.0</ele>
        <time>2018-05-19T07:45:06.883Z</time>
      </trkpt>
      <trkpt lat="43.316195" lon="-4.36182333">
        <ele>167.0</ele>
        <time>2018-05-19T07:45:07.844Z</time>
      </trkpt>
      <trkpt lat="43.316195" lon="-4.36182333">
        <ele>167.0</ele>
        <time>2018-05-19T07:45:08.879Z</time>
      </trkpt>
      <trkpt lat="43.31620333" lon="-4.361855">
        <ele>167.0</ele>
        <time>2018-05-19T07:45:09.883Z</time>
      </trkpt>
      <trkpt lat="43.31620333" lon="-4.361855">
        <ele>167.0</ele>
        <time>2018-05-19T07:45:10.881Z</time>
      </trkpt>
      <trkpt lat="43.31621" lon="-4.36189167">
        <ele>168.0</ele>
        <time>2018-05-19T07:45:11.868Z</time>
      </trkpt>
      <trkpt lat="43.31621" lon="-4.36189167">
        <ele>168.0</ele>
        <time>2018-05-19T07:45:12.854Z</time>
      </trkpt>
      <trkpt lat="43.316215" lon="-4.36193">
        <ele>168.0</ele>
        <time>2018-05-19T07:45:13.845Z</time>
      </trkpt>
      <trkpt lat="43.31621667" lon="-4.36194833">
        <ele>168.0</ele>
        <time>2018-05-19T07:45:14.882Z</time>
      </trkpt>
      <trkpt lat="43.31622" lon="-4.36196167">
        <ele>168.0</ele>
        <time>2018-05-19T07:45:15.844Z</time>
      </trkpt>
      <trkpt lat="43.31622" lon="-4.36196167">
        <ele>168.0</ele>
        <time>2018-05-19T07:45:16.844Z</time>
      </trkpt>
      <trkpt lat="43.31623" lon="-4.36199">
        <ele>169.0</ele>
        <time>2018-05-19T07:45:17.883Z</time>
      </trkpt>
      <trkpt lat="43.31623" lon="-4.36199">
        <ele>169.0</ele>
        <time>2018-05-19T07:45:18.881Z</time>
      </trkpt>
      <trkpt lat="43.31624167" lon="-4.36202333">
        <ele>169.0</ele>
        <time>2018-05-19T07:45:19.883Z</time>
      </trkpt>
      <trkpt lat="43.31624167" lon="-4.36202333">
        <ele>169.0</ele>
        <time>2018-05-19T07:45:20.881Z</time>
      </trkpt>
      <trkpt lat="43.316245" lon="-4.36205667">
        <ele>169.0</ele>
        <time>2018-05-19T07:45:21.867Z</time>
      </trkpt>
      <trkpt lat="43.316245" lon="-4.36205667">
        <ele>169.0</ele>
        <time>2018-05-19T07:45:22.870Z</time>
      </trkpt>
      <trkpt lat="43.31625667" lon="-4.362085">
        <ele>170.0</ele>
        <time>2018-05-19T07:45:23.856Z</time>
      </trkpt>
      <trkpt lat="43.31625667" lon="-4.362085">
        <ele>170.0</ele>
        <time>2018-05-19T07:45:24.881Z</time>
      </trkpt>
      <trkpt lat="43.31626667" lon="-4.36211833">
        <ele>170.0</ele>
        <time>2018-05-19T07:45:25.845Z</time>
      </trkpt>
      <trkpt lat="43.31626667" lon="-4.36211833">
        <ele>170.0</ele>
        <time>2018-05-19T07:45:26.879Z</time>
      </trkpt>
      <trkpt lat="43.316275" lon="-4.36215167">
        <ele>171.0</ele>
        <time>2018-05-19T07:45:27.882Z</time>
      </trkpt>
      <trkpt lat="43.316275" lon="-4.36215167">
        <ele>171.0</ele>
        <time>2018-05-19T07:45:28.881Z</time>
      </trkpt>
      <trkpt lat="43.31628167" lon="-4.362185">
        <ele>171.0</ele>
        <time>2018-05-19T07:45:29.883Z</time>
      </trkpt>
      <trkpt lat="43.31628167" lon="-4.362185">
        <ele>171.0</ele>
        <time>2018-05-19T07:45:30.879Z</time>
      </trkpt>
      <trkpt lat="43.316295" lon="-4.36222167">
        <ele>171.0</ele>
        <time>2018-05-19T07:45:31.848Z</time>
      </trkpt>
      <trkpt lat="43.316295" lon="-4.36222167">
        <ele>171.0</ele>
        <time>2018-05-19T07:45:32.878Z</time>
      </trkpt>
      <trkpt lat="43.31630333" lon="-4.362255">
        <ele>171.0</ele>
        <time>2018-05-19T07:45:33.844Z</time>
      </trkpt>
      <trkpt lat="43.31630333" lon="-4.362255">
        <ele>171.0</ele>
        <time>2018-05-19T07:45:34.874Z</time>
      </trkpt>
      <trkpt lat="43.31631667" lon="-4.36229333">
        <ele>172.0</ele>
        <time>2018-05-19T07:45:35.855Z</time>
      </trkpt>
      <trkpt lat="43.31631667" lon="-4.36229333">
        <ele>172.0</ele>
        <time>2018-05-19T07:45:36.880Z</time>
      </trkpt>
      <trkpt lat="43.31633167" lon="-4.36233333">
        <ele>172.0</ele>
        <time>2018-05-19T07:45:37.882Z</time>
      </trkpt>
      <trkpt lat="43.31633167" lon="-4.36233333">
        <ele>172.0</ele>
        <time>2018-05-19T07:45:38.851Z</time>
      </trkpt>
      <trkpt lat="43.31634167" lon="-4.36237">
        <ele>172.0</ele>
        <time>2018-05-19T07:45:39.844Z</time>
      </trkpt>
      <trkpt lat="43.31634167" lon="-4.36237">
        <ele>172.0</ele>
        <time>2018-05-19T07:45:40.881Z</time>
      </trkpt>
      <trkpt lat="43.31634833" lon="-4.36240333">
        <ele>173.0</ele>
        <time>2018-05-19T07:45:41.883Z</time>
      </trkpt>
      <trkpt lat="43.31634833" lon="-4.36240333">
        <ele>173.0</ele>
        <time>2018-05-19T07:45:42.881Z</time>
      </trkpt>
      <trkpt lat="43.31635333" lon="-4.36243833">
        <ele>173.0</ele>
        <time>2018-05-19T07:45:43.884Z</time>
      </trkpt>
      <trkpt lat="43.31635333" lon="-4.36243833">
        <ele>173.0</ele>
        <time>2018-05-19T07:45:44.874Z</time>
      </trkpt>
      <trkpt lat="43.31636333" lon="-4.36247833">
        <ele>173.0</ele>
        <time>2018-05-19T07:45:45.866Z</time>
      </trkpt>
      <trkpt lat="43.31636833" lon="-4.3625">
        <ele>174.0</ele>
        <time>2018-05-19T07:45:46.851Z</time>
      </trkpt>
      <trkpt lat="43.31636833" lon="-4.3625">
        <ele>174.0</ele>
        <time>2018-05-19T07:45:47.858Z</time>
      </trkpt>
      <trkpt lat="43.316375" lon="-4.36254167">
        <ele>174.0</ele>
        <time>2018-05-19T07:45:48.867Z</time>
      </trkpt>
      <trkpt lat="43.31637667" lon="-4.36256167">
        <ele>174.0</ele>
        <time>2018-05-19T07:45:49.853Z</time>
      </trkpt>
      <trkpt lat="43.31637667" lon="-4.36256167">
        <ele>174.0</ele>
        <time>2018-05-19T07:45:50.879Z</time>
      </trkpt>
      <trkpt lat="43.31638" lon="-4.362605">
        <ele>174.0</ele>
        <time>2018-05-19T07:45:51.881Z</time>
      </trkpt>
      <trkpt lat="43.31638" lon="-4.362605">
        <ele>174.0</ele>
        <time>2018-05-19T07:45:52.881Z</time>
      </trkpt>
      <trkpt lat="43.31638833" lon="-4.36264167">
        <ele>174.0</ele>
        <time>2018-05-19T07:45:53.883Z</time>
      </trkpt>
      <trkpt lat="43.31638833" lon="-4.36264167">
        <ele>174.0</ele>
        <time>2018-05-19T07:45:54.874Z</time>
      </trkpt>
      <trkpt lat="43.316395" lon="-4.36268">
        <ele>175.0</ele>
        <time>2018-05-19T07:45:55.855Z</time>
      </trkpt>
      <trkpt lat="43.316395" lon="-4.36268">
        <ele>175.0</ele>
        <time>2018-05-19T07:45:56.880Z</time>
      </trkpt>
      <trkpt lat="43.31640167" lon="-4.36272">
        <ele>175.0</ele>
        <time>2018-05-19T07:45:57.844Z</time>
      </trkpt>
      <trkpt lat="43.31640167" lon="-4.36272">
        <ele>175.0</ele>
        <time>2018-05-19T07:45:58.880Z</time>
      </trkpt>
      <trkpt lat="43.31640833" lon="-4.36275667">
        <ele>176.0</ele>
        <time>2018-05-19T07:45:59.883Z</time>
      </trkpt>
      <trkpt lat="43.31640833" lon="-4.36275667">
        <ele>176.0</ele>
        <time>2018-05-19T07:46:00.880Z</time>
      </trkpt>
      <trkpt lat="43.31641" lon="-4.362795">
        <ele>176.0</ele>
        <time>2018-05-19T07:46:01.884Z</time>
      </trkpt>
      <trkpt lat="43.31641" lon="-4.362795">
        <ele>176.0</ele>
        <time>2018-05-19T07:46:02.881Z</time>
      </trkpt>
      <trkpt lat="43.31642" lon="-4.36283333">
        <ele>177.0</ele>
        <time>2018-05-19T07:46:03.844Z</time>
      </trkpt>
      <trkpt lat="43.31642" lon="-4.36283333">
        <ele>177.0</ele>
        <time>2018-05-19T07:46:04.882Z</time>
      </trkpt>
      <trkpt lat="43.31643" lon="-4.36287333">
        <ele>177.0</ele>
        <time>2018-05-19T07:46:05.882Z</time>
      </trkpt>
      <trkpt lat="43.31643" lon="-4.36287333">
        <ele>177.0</ele>
        <time>2018-05-19T07:46:06.880Z</time>
      </trkpt>
      <trkpt lat="43.31644" lon="-4.36291333">
        <ele>178.0</ele>
        <time>2018-05-19T07:46:07.844Z</time>
      </trkpt>
      <trkpt lat="43.31644" lon="-4.36291333">
        <ele>178.0</ele>
        <time>2018-05-19T07:46:08.879Z</time>
      </trkpt>
      <trkpt lat="43.31645" lon="-4.36295167">
        <ele>178.0</ele>
        <time>2018-05-19T07:46:09.844Z</time>
      </trkpt>
      <trkpt lat="43.31645" lon="-4.36295167">
        <ele>178.0</ele>
        <time>2018-05-19T07:46:10.880Z</time>
      </trkpt>
      <trkpt lat="43.31645667" lon="-4.36299333">
        <ele>179.0</ele>
        <time>2018-05-19T07:46:11.882Z</time>
      </trkpt>
      <trkpt lat="43.31645667" lon="-4.363015">
        <ele>179.0</ele>
        <time>2018-05-19T07:46:12.854Z</time>
      </trkpt>
      <trkpt lat="43.31645833" lon="-4.36303833">
        <ele>179.0</ele>
        <time>2018-05-19T07:46:13.882Z</time>
      </trkpt>
      <trkpt lat="43.31645833" lon="-4.36303833">
        <ele>179.0</ele>
        <time>2018-05-19T07:46:14.875Z</time>
      </trkpt>
      <trkpt lat="43.31646667" lon="-4.36308333">
        <ele>180.0</ele>
        <time>2018-05-19T07:46:15.860Z</time>
      </trkpt>
      <trkpt lat="43.31646667" lon="-4.36308333">
        <ele>180.0</ele>
        <time>2018-05-19T07:46:16.846Z</time>
      </trkpt>
      <trkpt lat="43.31647" lon="-4.36312667">
        <ele>181.0</ele>
        <time>2018-05-19T07:46:17.883Z</time>
      </trkpt>
      <trkpt lat="43.31647" lon="-4.36312667">
        <ele>181.0</ele>
        <time>2018-05-19T07:46:18.881Z</time>
      </trkpt>
      <trkpt lat="43.31647833" lon="-4.36316833">
        <ele>182.0</ele>
        <time>2018-05-19T07:46:19.884Z</time>
      </trkpt>
      <trkpt lat="43.31647833" lon="-4.36316833">
        <ele>182.0</ele>
        <time>2018-05-19T07:46:20.881Z</time>
      </trkpt>
      <trkpt lat="43.31648833" lon="-4.36321167">
        <ele>182.0</ele>
        <time>2018-05-19T07:46:21.844Z</time>
      </trkpt>
      <trkpt lat="43.31648833" lon="-4.36321167">
        <ele>182.0</ele>
        <time>2018-05-19T07:46:22.878Z</time>
      </trkpt>
      <trkpt lat="43.316495" lon="-4.36325167">
        <ele>183.0</ele>
        <time>2018-05-19T07:46:23.882Z</time>
      </trkpt>
      <trkpt lat="43.316495" lon="-4.36325167">
        <ele>183.0</ele>
        <time>2018-05-19T07:46:24.874Z</time>
      </trkpt>
      <trkpt lat="43.316505" lon="-4.36329167">
        <ele>183.0</ele>
        <time>2018-05-19T07:46:25.855Z</time>
      </trkpt>
      <trkpt lat="43.316505" lon="-4.36329167">
        <ele>183.0</ele>
        <time>2018-05-19T07:46:26.880Z</time>
      </trkpt>
      <trkpt lat="43.316515" lon="-4.36333">
        <ele>184.0</ele>
        <time>2018-05-19T07:46:27.844Z</time>
      </trkpt>
      <trkpt lat="43.316515" lon="-4.36333">
        <ele>184.0</ele>
        <time>2018-05-19T07:46:28.880Z</time>
      </trkpt>
      <trkpt lat="43.31653167" lon="-4.36338">
        <ele>184.0</ele>
        <time>2018-05-19T07:46:29.882Z</time>
      </trkpt>
      <trkpt lat="43.31653667" lon="-4.36340833">
        <ele>184.0</ele>
        <time>2018-05-19T07:46:30.853Z</time>
      </trkpt>
      <trkpt lat="43.31653667" lon="-4.36340833">
        <ele>184.0</ele>
        <time>2018-05-19T07:46:31.844Z</time>
      </trkpt>
      <trkpt lat="43.31654" lon="-4.36346167">
        <ele>185.0</ele>
        <time>2018-05-19T07:46:32.884Z</time>
      </trkpt>
      <trkpt lat="43.31654167" lon="-4.36348667">
        <ele>185.0</ele>
        <time>2018-05-19T07:46:33.849Z</time>
      </trkpt>
      <trkpt lat="43.31654167" lon="-4.36348667">
        <ele>185.0</ele>
        <time>2018-05-19T07:46:34.874Z</time>
      </trkpt>
      <trkpt lat="43.31654167" lon="-4.36352833">
        <ele>186.0</ele>
        <time>2018-05-19T07:46:35.855Z</time>
      </trkpt>
      <trkpt lat="43.31654167" lon="-4.36352833">
        <ele>186.0</ele>
        <time>2018-05-19T07:46:36.878Z</time>
      </trkpt>
      <trkpt lat="43.31654667" lon="-4.36357">
        <ele>187.0</ele>
        <time>2018-05-19T07:46:37.882Z</time>
      </trkpt>
      <trkpt lat="43.31654667" lon="-4.36357">
        <ele>187.0</ele>
        <time>2018-05-19T07:46:38.881Z</time>
      </trkpt>
      <trkpt lat="43.31655667" lon="-4.36362167">
        <ele>187.0</ele>
        <time>2018-05-19T07:46:39.844Z</time>
      </trkpt>
      <trkpt lat="43.31655667" lon="-4.36362167">
        <ele>187.0</ele>
        <time>2018-05-19T07:46:40.878Z</time>
      </trkpt>
      <trkpt lat="43.316565" lon="-4.363675">
        <ele>188.0</ele>
        <time>2018-05-19T07:46:41.868Z</time>
      </trkpt>
      <trkpt lat="43.316565" lon="-4.363675">
        <ele>188.0</ele>
        <time>2018-05-19T07:46:42.850Z</time>
      </trkpt>
      <trkpt lat="43.31656333" lon="-4.36372167">
        <ele>188.0</ele>
        <time>2018-05-19T07:46:43.883Z</time>
      </trkpt>
      <trkpt lat="43.31656333" lon="-4.36372167">
        <ele>188.0</ele>
        <time>2018-05-19T07:46:44.873Z</time>
      </trkpt>
      <trkpt lat="43.316565" lon="-4.363775">
        <ele>189.0</ele>
        <time>2018-05-19T07:46:45.861Z</time>
      </trkpt>
      <trkpt lat="43.31657333" lon="-4.3638">
        <ele>189.0</ele>
        <time>2018-05-19T07:46:46.883Z</time>
      </trkpt>
      <trkpt lat="43.31657333" lon="-4.3638">
        <ele>189.0</ele>
        <time>2018-05-19T07:46:47.881Z</time>
      </trkpt>
      <trkpt lat="43.316585" lon="-4.36384167">
        <ele>190.0</ele>
        <time>2018-05-19T07:46:48.883Z</time>
      </trkpt>
      <trkpt lat="43.316585" lon="-4.36384167">
        <ele>190.0</ele>
        <time>2018-05-19T07:46:49.879Z</time>
      </trkpt>
      <trkpt lat="43.31659333" lon="-4.36388833">
        <ele>191.0</ele>
        <time>2018-05-19T07:46:50.881Z</time>
      </trkpt>
      <trkpt lat="43.31660167" lon="-4.36391167">
        <ele>191.0</ele>
        <time>2018-05-19T07:46:51.844Z</time>
      </trkpt>
      <trkpt lat="43.31660167" lon="-4.36391167">
        <ele>191.0</ele>
        <time>2018-05-19T07:46:52.881Z</time>
      </trkpt>
      <trkpt lat="43.31662167" lon="-4.36396333">
        <ele>192.0</ele>
        <time>2018-05-19T07:46:53.882Z</time>
      </trkpt>
      <trkpt lat="43.31662167" lon="-4.36396333">
        <ele>192.0</ele>
        <time>2018-05-19T07:46:54.874Z</time>
      </trkpt>
      <trkpt lat="43.31662833" lon="-4.36401833">
        <ele>192.0</ele>
        <time>2018-05-19T07:46:55.853Z</time>
      </trkpt>
      <trkpt lat="43.31662833" lon="-4.36401833">
        <ele>192.0</ele>
        <time>2018-05-19T07:46:56.880Z</time>
      </trkpt>
      <trkpt lat="43.31663167" lon="-4.36407667">
        <ele>193.0</ele>
        <time>2018-05-19T07:46:57.883Z</time>
      </trkpt>
      <trkpt lat="43.31663167" lon="-4.36407667">
        <ele>193.0</ele>
        <time>2018-05-19T07:46:58.877Z</time>
      </trkpt>
      <trkpt lat="43.31663833" lon="-4.36413167">
        <ele>193.0</ele>
        <time>2018-05-19T07:46:59.883Z</time>
      </trkpt>
      <trkpt lat="43.31663833" lon="-4.36413167">
        <ele>193.0</ele>
        <time>2018-05-19T07:47:00.880Z</time>
      </trkpt>
      <trkpt lat="43.316645" lon="-4.36419167">
        <ele>194.0</ele>
        <time>2018-05-19T07:47:01.867Z</time>
      </trkpt>
      <trkpt lat="43.316645" lon="-4.36419167">
        <ele>194.0</ele>
        <time>2018-05-19T07:47:02.852Z</time>
      </trkpt>
      <trkpt lat="43.31664667" lon="-4.364245">
        <ele>194.0</ele>
        <time>2018-05-19T07:47:03.844Z</time>
      </trkpt>
      <trkpt lat="43.31664667" lon="-4.364245">
        <ele>194.0</ele>
        <time>2018-05-19T07:47:04.875Z</time>
      </trkpt>
      <trkpt lat="43.31664833" lon="-4.3643">
        <ele>194.0</ele>
        <time>2018-05-19T07:47:05.853Z</time>
      </trkpt>
      <trkpt lat="43.31664833" lon="-4.3643">
        <ele>194.0</ele>
        <time>2018-05-19T07:47:06.880Z</time>
      </trkpt>
      <trkpt lat="43.31664833" lon="-4.36435333">
        <ele>195.0</ele>
        <time>2018-05-19T07:47:07.845Z</time>
      </trkpt>
      <trkpt lat="43.31664833" lon="-4.36435333">
        <ele>195.0</ele>
        <time>2018-05-19T07:47:08.880Z</time>
      </trkpt>
      <trkpt lat="43.31665167" lon="-4.36440667">
        <ele>195.0</ele>
        <time>2018-05-19T07:47:09.880Z</time>
      </trkpt>
      <trkpt lat="43.31665167" lon="-4.36440667">
        <ele>195.0</ele>
        <time>2018-05-19T07:47:10.880Z</time>
      </trkpt>
      <trkpt lat="43.31665167" lon="-4.36445833">
        <ele>196.0</ele>
        <time>2018-05-19T07:47:11.868Z</time>
      </trkpt>
      <trkpt lat="43.31665167" lon="-4.36445833">
        <ele>196.0</ele>
        <time>2018-05-19T07:47:12.853Z</time>
      </trkpt>
      <trkpt lat="43.31665" lon="-4.36451667">
        <ele>196.0</ele>
        <time>2018-05-19T07:47:13.844Z</time>
      </trkpt>
      <trkpt lat="43.31665" lon="-4.36451667">
        <ele>196.0</ele>
        <time>2018-05-19T07:47:14.877Z</time>
      </trkpt>
      <trkpt lat="43.31664833" lon="-4.36457167">
        <ele>196.0</ele>
        <time>2018-05-19T07:47:15.883Z</time>
      </trkpt>
      <trkpt lat="43.31664667" lon="-4.3646">
        <ele>197.0</ele>
        <time>2018-05-19T07:47:16.846Z</time>
      </trkpt>
      <trkpt lat="43.31664667" lon="-4.3646">
        <ele>197.0</ele>
        <time>2018-05-19T07:47:17.880Z</time>
      </trkpt>
      <trkpt lat="43.31664667" lon="-4.36466">
        <ele>197.0</ele>
        <time>2018-05-19T07:47:18.883Z</time>
      </trkpt>
      <trkpt lat="43.31664667" lon="-4.36469">
        <ele>197.0</ele>
        <time>2018-05-19T07:47:19.883Z</time>
      </trkpt>
      <trkpt lat="43.31664667" lon="-4.36469">
        <ele>197.0</ele>
        <time>2018-05-19T07:47:20.877Z</time>
      </trkpt>
      <trkpt lat="43.31665" lon="-4.36474833">
        <ele>197.0</ele>
        <time>2018-05-19T07:47:21.884Z</time>
      </trkpt>
      <trkpt lat="43.31665" lon="-4.36474833">
        <ele>197.0</ele>
        <time>2018-05-19T07:47:22.880Z</time>
      </trkpt>
      <trkpt lat="43.31665" lon="-4.36480833">
        <ele>197.0</ele>
        <time>2018-05-19T07:47:23.883Z</time>
      </trkpt>
      <trkpt lat="43.31665" lon="-4.36480833">
        <ele>197.0</ele>
        <time>2018-05-19T07:47:24.873Z</time>
      </trkpt>
      <trkpt lat="43.31665333" lon="-4.36486667">
        <ele>198.0</ele>
        <time>2018-05-19T07:47:25.855Z</time>
      </trkpt>
      <trkpt lat="43.31665333" lon="-4.36486667">
        <ele>198.0</ele>
        <time>2018-05-19T07:47:26.880Z</time>
      </trkpt>
      <trkpt lat="43.31665667" lon="-4.36492667">
        <ele>199.0</ele>
        <time>2018-05-19T07:47:27.880Z</time>
      </trkpt>
      <trkpt lat="43.31665667" lon="-4.36492667">
        <ele>199.0</ele>
        <time>2018-05-19T07:47:28.881Z</time>
      </trkpt>
      <trkpt lat="43.316655" lon="-4.36498167">
        <ele>199.0</ele>
        <time>2018-05-19T07:47:29.879Z</time>
      </trkpt>
      <trkpt lat="43.31665667" lon="-4.36501">
        <ele>199.0</ele>
        <time>2018-05-19T07:47:30.883Z</time>
      </trkpt>
      <trkpt lat="43.31665667" lon="-4.36501">
        <ele>199.0</ele>
        <time>2018-05-19T07:47:31.874Z</time>
      </trkpt>
      <trkpt lat="43.31666" lon="-4.36507167">
        <ele>200.0</ele>
        <time>2018-05-19T07:47:32.860Z</time>
      </trkpt>
      <trkpt lat="43.316665" lon="-4.36510167">
        <ele>200.0</ele>
        <time>2018-05-19T07:47:33.844Z</time>
      </trkpt>
      <trkpt lat="43.316665" lon="-4.36510167">
        <ele>200.0</ele>
        <time>2018-05-19T07:47:34.877Z</time>
      </trkpt>
      <trkpt lat="43.31667333" lon="-4.36515333">
        <ele>200.0</ele>
        <time>2018-05-19T07:47:35.859Z</time>
      </trkpt>
      <trkpt lat="43.31667333" lon="-4.36515333">
        <ele>200.0</ele>
        <time>2018-05-19T07:47:36.881Z</time>
      </trkpt>
      <trkpt lat="43.31668833" lon="-4.36518833">
        <ele>201.0</ele>
        <time>2018-05-19T07:47:37.861Z</time>
      </trkpt>
      <trkpt lat="43.31668833" lon="-4.36518833">
        <ele>201.0</ele>
        <time>2018-05-19T07:47:38.845Z</time>
      </trkpt>
      <trkpt lat="43.31670333" lon="-4.365225">
        <ele>201.0</ele>
        <time>2018-05-19T07:47:39.883Z</time>
      </trkpt>
      <trkpt lat="43.31670333" lon="-4.365225">
        <ele>201.0</ele>
        <time>2018-05-19T07:47:40.878Z</time>
      </trkpt>
      <trkpt lat="43.31671333" lon="-4.36526">
        <ele>202.0</ele>
        <time>2018-05-19T07:47:41.844Z</time>
      </trkpt>
      <trkpt lat="43.31671333" lon="-4.36526">
        <ele>202.0</ele>
        <time>2018-05-19T07:47:42.882Z</time>
      </trkpt>
      <trkpt lat="43.31672333" lon="-4.36530333">
        <ele>203.0</ele>
        <time>2018-05-19T07:47:43.844Z</time>
      </trkpt>
      <trkpt lat="43.31672333" lon="-4.36530333">
        <ele>203.0</ele>
        <time>2018-05-19T07:47:44.873Z</time>
      </trkpt>
      <trkpt lat="43.31673333" lon="-4.36534667">
        <ele>203.0</ele>
        <time>2018-05-19T07:47:45.858Z</time>
      </trkpt>
      <trkpt lat="43.31673833" lon="-4.36536667">
        <ele>203.0</ele>
        <time>2018-05-19T07:47:46.847Z</time>
      </trkpt>
      <trkpt lat="43.316745" lon="-4.36538667">
        <ele>204.0</ele>
        <time>2018-05-19T07:47:47.853Z</time>
      </trkpt>
      <trkpt lat="43.316745" lon="-4.36538667">
        <ele>204.0</ele>
        <time>2018-05-19T07:47:48.859Z</time>
      </trkpt>
      <trkpt lat="43.31675333" lon="-4.36543167">
        <ele>204.0</ele>
        <time>2018-05-19T07:47:49.844Z</time>
      </trkpt>
      <trkpt lat="43.31675667" lon="-4.36545333">
        <ele>204.0</ele>
        <time>2018-05-19T07:47:50.844Z</time>
      </trkpt>
      <trkpt lat="43.31675667" lon="-4.36545333">
        <ele>204.0</ele>
        <time>2018-05-19T07:47:51.880Z</time>
      </trkpt>
      <trkpt lat="43.31676667" lon="-4.36549833">
        <ele>205.0</ele>
        <time>2018-05-19T07:47:52.856Z</time>
      </trkpt>
      <trkpt lat="43.31677" lon="-4.36552">
        <ele>205.0</ele>
        <time>2018-05-19T07:47:53.882Z</time>
      </trkpt>
      <trkpt lat="43.31677" lon="-4.36552">
        <ele>205.0</ele>
        <time>2018-05-19T07:47:54.873Z</time>
      </trkpt>
      <trkpt lat="43.31678" lon="-4.36556333">
        <ele>206.0</ele>
        <time>2018-05-19T07:47:55.867Z</time>
      </trkpt>
      <trkpt lat="43.31678" lon="-4.36556333">
        <ele>206.0</ele>
        <time>2018-05-19T07:47:56.853Z</time>
      </trkpt>
      <trkpt lat="43.31679" lon="-4.36561333">
        <ele>206.0</ele>
        <time>2018-05-19T07:47:57.844Z</time>
      </trkpt>
      <trkpt lat="43.31679" lon="-4.36561333">
        <ele>206.0</ele>
        <time>2018-05-19T07:47:58.877Z</time>
      </trkpt>
      <trkpt lat="43.31679833" lon="-4.36566667">
        <ele>206.0</ele>
        <time>2018-05-19T07:47:59.883Z</time>
      </trkpt>
      <trkpt lat="43.31679833" lon="-4.36566667">
        <ele>206.0</ele>
        <time>2018-05-19T07:48:00.880Z</time>
      </trkpt>
      <trkpt lat="43.31680667" lon="-4.36572333">
        <ele>207.0</ele>
        <time>2018-05-19T07:48:01.883Z</time>
      </trkpt>
      <trkpt lat="43.31680667" lon="-4.36572333">
        <ele>207.0</ele>
        <time>2018-05-19T07:48:02.880Z</time>
      </trkpt>
      <trkpt lat="43.31681167" lon="-4.36577833">
        <ele>207.0</ele>
        <time>2018-05-19T07:48:03.880Z</time>
      </trkpt>
      <trkpt lat="43.31681167" lon="-4.36577833">
        <ele>207.0</ele>
        <time>2018-05-19T07:48:04.880Z</time>
      </trkpt>
      <trkpt lat="43.31681667" lon="-4.36583167">
        <ele>208.0</ele>
        <time>2018-05-19T07:48:05.882Z</time>
      </trkpt>
      <trkpt lat="43.31681667" lon="-4.36583167">
        <ele>208.0</ele>
        <time>2018-05-19T07:48:06.880Z</time>
      </trkpt>
      <trkpt lat="43.31682" lon="-4.36588">
        <ele>208.0</ele>
        <time>2018-05-19T07:48:07.883Z</time>
      </trkpt>
      <trkpt lat="43.31682" lon="-4.36588">
        <ele>208.0</ele>
        <time>2018-05-19T07:48:08.880Z</time>
      </trkpt>
      <trkpt lat="43.31682333" lon="-4.36593333">
        <ele>208.0</ele>
        <time>2018-05-19T07:48:09.880Z</time>
      </trkpt>
      <trkpt lat="43.31682333" lon="-4.36593333">
        <ele>208.0</ele>
        <time>2018-05-19T07:48:10.880Z</time>
      </trkpt>
      <trkpt lat="43.31682167" lon="-4.36598167">
        <ele>209.0</ele>
        <time>2018-05-19T07:48:11.860Z</time>
      </trkpt>
      <trkpt lat="43.31682167" lon="-4.36598167">
        <ele>209.0</ele>
        <time>2018-05-19T07:48:12.846Z</time>
      </trkpt>
      <trkpt lat="43.31682167" lon="-4.36603333">
        <ele>209.0</ele>
        <time>2018-05-19T07:48:13.844Z</time>
      </trkpt>
      <trkpt lat="43.31682167" lon="-4.36603333">
        <ele>209.0</ele>
        <time>2018-05-19T07:48:14.873Z</time>
      </trkpt>
      <trkpt lat="43.31682167" lon="-4.36608167">
        <ele>210.0</ele>
        <time>2018-05-19T07:48:15.860Z</time>
      </trkpt>
      <trkpt lat="43.31682167" lon="-4.36608167">
        <ele>210.0</ele>
        <time>2018-05-19T07:48:16.846Z</time>
      </trkpt>
      <trkpt lat="43.31681833" lon="-4.36612167">
        <ele>210.0</ele>
        <time>2018-05-19T07:48:17.883Z</time>
      </trkpt>
      <trkpt lat="43.316815" lon="-4.36614">
        <ele>211.0</ele>
        <time>2018-05-19T07:48:18.882Z</time>
      </trkpt>
      <trkpt lat="43.316815" lon="-4.36614">
        <ele>211.0</ele>
        <time>2018-05-19T07:48:19.879Z</time>
      </trkpt>
      <trkpt lat="43.31681333" lon="-4.366175">
        <ele>211.0</ele>
        <time>2018-05-19T07:48:20.883Z</time>
      </trkpt>
      <trkpt lat="43.31681333" lon="-4.366175">
        <ele>211.0</ele>
        <time>2018-05-19T07:48:21.881Z</time>
      </trkpt>
      <trkpt lat="43.31681333" lon="-4.36621333">
        <ele>212.0</ele>
        <time>2018-05-19T07:48:22.882Z</time>
      </trkpt>
      <trkpt lat="43.31681333" lon="-4.36623333">
        <ele>213.0</ele>
        <time>2018-05-19T07:48:23.883Z</time>
      </trkpt>
      <trkpt lat="43.31681333" lon="-4.36623333">
        <ele>213.0</ele>
        <time>2018-05-19T07:48:24.877Z</time>
      </trkpt>
      <trkpt lat="43.31681167" lon="-4.36627167">
        <ele>213.0</ele>
        <time>2018-05-19T07:48:25.884Z</time>
      </trkpt>
      <trkpt lat="43.31681167" lon="-4.36627167">
        <ele>213.0</ele>
        <time>2018-05-19T07:48:26.880Z</time>
      </trkpt>
      <trkpt lat="43.316815" lon="-4.36630833">
        <ele>214.0</ele>
        <time>2018-05-19T07:48:27.884Z</time>
      </trkpt>
      <trkpt lat="43.316815" lon="-4.36630833">
        <ele>214.0</ele>
        <time>2018-05-19T07:48:28.878Z</time>
      </trkpt>
      <trkpt lat="43.31681667" lon="-4.36635">
        <ele>215.0</ele>
        <time>2018-05-19T07:48:29.882Z</time>
      </trkpt>
      <trkpt lat="43.31681667" lon="-4.36636833">
        <ele>215.0</ele>
        <time>2018-05-19T07:48:30.883Z</time>
      </trkpt>
      <trkpt lat="43.31681667" lon="-4.36636833">
        <ele>215.0</ele>
        <time>2018-05-19T07:48:31.882Z</time>
      </trkpt>
      <trkpt lat="43.31682333" lon="-4.366415">
        <ele>216.0</ele>
        <time>2018-05-19T07:48:32.883Z</time>
      </trkpt>
      <trkpt lat="43.31682333" lon="-4.366435">
        <ele>216.0</ele>
        <time>2018-05-19T07:48:33.880Z</time>
      </trkpt>
      <trkpt lat="43.31682333" lon="-4.366435">
        <ele>216.0</ele>
        <time>2018-05-19T07:48:34.873Z</time>
      </trkpt>
      <trkpt lat="43.31682167" lon="-4.36647333">
        <ele>217.0</ele>
        <time>2018-05-19T07:48:35.858Z</time>
      </trkpt>
      <trkpt lat="43.31682167" lon="-4.36647333">
        <ele>217.0</ele>
        <time>2018-05-19T07:48:36.883Z</time>
      </trkpt>
      <trkpt lat="43.31682333" lon="-4.366515">
        <ele>217.0</ele>
        <time>2018-05-19T07:48:37.850Z</time>
      </trkpt>
      <trkpt lat="43.31682333" lon="-4.366515">
        <ele>217.0</ele>
        <time>2018-05-19T07:48:38.844Z</time>
      </trkpt>
      <trkpt lat="43.316825" lon="-4.36656">
        <ele>218.0</ele>
        <time>2018-05-19T07:48:39.844Z</time>
      </trkpt>
      <trkpt lat="43.316825" lon="-4.36656">
        <ele>218.0</ele>
        <time>2018-05-19T07:48:40.880Z</time>
      </trkpt>
      <trkpt lat="43.31682667" lon="-4.36661333">
        <ele>219.0</ele>
        <time>2018-05-19T07:48:41.883Z</time>
      </trkpt>
      <trkpt lat="43.31682667" lon="-4.36663833">
        <ele>219.0</ele>
        <time>2018-05-19T07:48:42.883Z</time>
      </trkpt>
      <trkpt lat="43.31682667" lon="-4.36666167">
        <ele>219.0</ele>
        <time>2018-05-19T07:48:43.855Z</time>
      </trkpt>
      <trkpt lat="43.31682667" lon="-4.36666167">
        <ele>219.0</ele>
        <time>2018-05-19T07:48:44.880Z</time>
      </trkpt>
      <trkpt lat="43.31683" lon="-4.36670667">
        <ele>219.0</ele>
        <time>2018-05-19T07:48:45.876Z</time>
      </trkpt>
      <trkpt lat="43.31683" lon="-4.36670667">
        <ele>219.0</ele>
        <time>2018-05-19T07:48:46.866Z</time>
      </trkpt>
      <trkpt lat="43.31682667" lon="-4.36675167">
        <ele>220.0</ele>
        <time>2018-05-19T07:48:47.853Z</time>
      </trkpt>
      <trkpt lat="43.31682667" lon="-4.36675167">
        <ele>220.0</ele>
        <time>2018-05-19T07:48:48.878Z</time>
      </trkpt>
      <trkpt lat="43.31682833" lon="-4.3668">
        <ele>221.0</ele>
        <time>2018-05-19T07:48:49.883Z</time>
      </trkpt>
      <trkpt lat="43.31682833" lon="-4.3668">
        <ele>221.0</ele>
        <time>2018-05-19T07:48:50.880Z</time>
      </trkpt>
      <trkpt lat="43.31682833" lon="-4.36684167">
        <ele>221.0</ele>
        <time>2018-05-19T07:48:51.881Z</time>
      </trkpt>
      <trkpt lat="43.31682833" lon="-4.36684167">
        <ele>221.0</ele>
        <time>2018-05-19T07:48:52.878Z</time>
      </trkpt>
      <trkpt lat="43.31682833" lon="-4.36688">
        <ele>222.0</ele>
        <time>2018-05-19T07:48:53.883Z</time>
      </trkpt>
      <trkpt lat="43.31682833" lon="-4.36688">
        <ele>222.0</ele>
        <time>2018-05-19T07:48:54.880Z</time>
      </trkpt>
      <trkpt lat="43.316825" lon="-4.36691833">
        <ele>223.0</ele>
        <time>2018-05-19T07:48:55.844Z</time>
      </trkpt>
      <trkpt lat="43.316825" lon="-4.36691833">
        <ele>223.0</ele>
        <time>2018-05-19T07:48:56.851Z</time>
      </trkpt>
      <trkpt lat="43.31682667" lon="-4.36696">
        <ele>224.0</ele>
        <time>2018-05-19T07:48:57.881Z</time>
      </trkpt>
      <trkpt lat="43.31682667" lon="-4.36696">
        <ele>224.0</ele>
        <time>2018-05-19T07:48:58.880Z</time>
      </trkpt>
      <trkpt lat="43.316825" lon="-4.36700167">
        <ele>224.0</ele>
        <time>2018-05-19T07:48:59.882Z</time>
      </trkpt>
      <trkpt lat="43.316825" lon="-4.36700167">
        <ele>224.0</ele>
        <time>2018-05-19T07:49:00.880Z</time>
      </trkpt>
      <trkpt lat="43.31682667" lon="-4.36704667">
        <ele>225.0</ele>
        <time>2018-05-19T07:49:01.844Z</time>
      </trkpt>
      <trkpt lat="43.31682667" lon="-4.36704667">
        <ele>225.0</ele>
        <time>2018-05-19T07:49:02.878Z</time>
      </trkpt>
      <trkpt lat="43.31682667" lon="-4.367095">
        <ele>226.0</ele>
        <time>2018-05-19T07:49:03.844Z</time>
      </trkpt>
      <trkpt lat="43.31682667" lon="-4.367095">
        <ele>226.0</ele>
        <time>2018-05-19T07:49:04.879Z</time>
      </trkpt>
      <trkpt lat="43.31682667" lon="-4.36714333">
        <ele>226.0</ele>
        <time>2018-05-19T07:49:05.880Z</time>
      </trkpt>
      <trkpt lat="43.31682667" lon="-4.36714333">
        <ele>226.0</ele>
        <time>2018-05-19T07:49:06.877Z</time>
      </trkpt>
      <trkpt lat="43.31682333" lon="-4.36719">
        <ele>227.0</ele>
        <time>2018-05-19T07:49:07.883Z</time>
      </trkpt>
      <trkpt lat="43.31682333" lon="-4.36719">
        <ele>227.0</ele>
        <time>2018-05-19T07:49:08.880Z</time>
      </trkpt>
      <trkpt lat="43.31682333" lon="-4.36724">
        <ele>227.0</ele>
        <time>2018-05-19T07:49:09.880Z</time>
      </trkpt>
      <trkpt lat="43.31682333" lon="-4.36724">
        <ele>227.0</ele>
        <time>2018-05-19T07:49:10.876Z</time>
      </trkpt>
      <trkpt lat="43.31681833" lon="-4.367295">
        <ele>228.0</ele>
        <time>2018-05-19T07:49:11.868Z</time>
      </trkpt>
      <trkpt lat="43.31681833" lon="-4.367295">
        <ele>228.0</ele>
        <time>2018-05-19T07:49:12.854Z</time>
      </trkpt>
      <trkpt lat="43.31682" lon="-4.367345">
        <ele>228.0</ele>
        <time>2018-05-19T07:49:13.883Z</time>
      </trkpt>
      <trkpt lat="43.31682" lon="-4.367345">
        <ele>228.0</ele>
        <time>2018-05-19T07:49:14.874Z</time>
      </trkpt>
      <trkpt lat="43.31681333" lon="-4.36740167">
        <ele>229.0</ele>
        <time>2018-05-19T07:49:15.859Z</time>
      </trkpt>
      <trkpt lat="43.31681333" lon="-4.36740167">
        <ele>229.0</ele>
        <time>2018-05-19T07:49:16.853Z</time>
      </trkpt>
      <trkpt lat="43.316805" lon="-4.36745833">
        <ele>229.0</ele>
        <time>2018-05-19T07:49:17.882Z</time>
      </trkpt>
      <trkpt lat="43.31680333" lon="-4.36749">
        <ele>229.0</ele>
        <time>2018-05-19T07:49:18.882Z</time>
      </trkpt>
      <trkpt lat="43.3168" lon="-4.367525">
        <ele>229.0</ele>
        <time>2018-05-19T07:49:19.844Z</time>
      </trkpt>
      <trkpt lat="43.3168" lon="-4.367525">
        <ele>229.0</ele>
        <time>2018-05-19T07:49:20.880Z</time>
      </trkpt>
      <trkpt lat="43.31679167" lon="-4.36760167">
        <ele>229.0</ele>
        <time>2018-05-19T07:49:21.880Z</time>
      </trkpt>
      <trkpt lat="43.31679167" lon="-4.36760167">
        <ele>229.0</ele>
        <time>2018-05-19T07:49:22.880Z</time>
      </trkpt>
      <trkpt lat="43.316785" lon="-4.36767833">
        <ele>229.0</ele>
        <time>2018-05-19T07:49:23.882Z</time>
      </trkpt>
      <trkpt lat="43.316785" lon="-4.36767833">
        <ele>229.0</ele>
        <time>2018-05-19T07:49:24.874Z</time>
      </trkpt>
      <trkpt lat="43.31676833" lon="-4.36775667">
        <ele>229.0</ele>
        <time>2018-05-19T07:49:25.859Z</time>
      </trkpt>
      <trkpt lat="43.31676833" lon="-4.36775667">
        <ele>229.0</ele>
        <time>2018-05-19T07:49:26.844Z</time>
      </trkpt>
      <trkpt lat="43.31674167" lon="-4.36784">
        <ele>229.0</ele>
        <time>2018-05-19T07:49:27.882Z</time>
      </trkpt>
      <trkpt lat="43.31674167" lon="-4.36784">
        <ele>229.0</ele>
        <time>2018-05-19T07:49:28.877Z</time>
      </trkpt>
      <trkpt lat="43.31671167" lon="-4.36792167">
        <ele>230.0</ele>
        <time>2018-05-19T07:49:29.882Z</time>
      </trkpt>
      <trkpt lat="43.31671167" lon="-4.36792167">
        <ele>230.0</ele>
        <time>2018-05-19T07:49:30.880Z</time>
      </trkpt>
      <trkpt lat="43.316685" lon="-4.368">
        <ele>230.0</ele>
        <time>2018-05-19T07:49:31.876Z</time>
      </trkpt>
      <trkpt lat="43.316685" lon="-4.368">
        <ele>230.0</ele>
        <time>2018-05-19T07:49:32.880Z</time>
      </trkpt>
      <trkpt lat="43.31666" lon="-4.368085">
        <ele>230.0</ele>
        <time>2018-05-19T07:49:33.880Z</time>
      </trkpt>
      <trkpt lat="43.31666" lon="-4.368085">
        <ele>230.0</ele>
        <time>2018-05-19T07:49:34.874Z</time>
      </trkpt>
      <trkpt lat="43.31664333" lon="-4.36817333">
        <ele>231.0</ele>
        <time>2018-05-19T07:49:35.858Z</time>
      </trkpt>
      <trkpt lat="43.31664333" lon="-4.36817333">
        <ele>231.0</ele>
        <time>2018-05-19T07:49:36.883Z</time>
      </trkpt>
      <trkpt lat="43.31663167" lon="-4.368255">
        <ele>231.0</ele>
        <time>2018-05-19T07:49:37.844Z</time>
      </trkpt>
      <trkpt lat="43.31663167" lon="-4.368255">
        <ele>231.0</ele>
        <time>2018-05-19T07:49:38.879Z</time>
      </trkpt>
      <trkpt lat="43.31662333" lon="-4.368335">
        <ele>232.0</ele>
        <time>2018-05-19T07:49:39.880Z</time>
      </trkpt>
      <trkpt lat="43.31662333" lon="-4.368335">
        <ele>232.0</ele>
        <time>2018-05-19T07:49:40.880Z</time>
      </trkpt>
      <trkpt lat="43.31662" lon="-4.36841333">
        <ele>232.0</ele>
        <time>2018-05-19T07:49:41.883Z</time>
      </trkpt>
      <trkpt lat="43.31661833" lon="-4.36845167">
        <ele>232.0</ele>
        <time>2018-05-19T07:49:42.883Z</time>
      </trkpt>
      <trkpt lat="43.31661667" lon="-4.36848833">
        <ele>233.0</ele>
        <time>2018-05-19T07:49:43.884Z</time>
      </trkpt>
      <trkpt lat="43.31661667" lon="-4.36848833">
        <ele>233.0</ele>
        <time>2018-05-19T07:49:44.877Z</time>
      </trkpt>
      <trkpt lat="43.31661167" lon="-4.36856167">
        <ele>233.0</ele>
        <time>2018-05-19T07:49:45.860Z</time>
      </trkpt>
      <trkpt lat="43.31661167" lon="-4.36856167">
        <ele>233.0</ele>
        <time>2018-05-19T07:49:46.848Z</time>
      </trkpt>
      <trkpt lat="43.31659833" lon="-4.36863667">
        <ele>234.0</ele>
        <time>2018-05-19T07:49:47.882Z</time>
      </trkpt>
      <trkpt lat="43.31659833" lon="-4.36863667">
        <ele>234.0</ele>
        <time>2018-05-19T07:49:48.877Z</time>
      </trkpt>
      <trkpt lat="43.31659167" lon="-4.36871167">
        <ele>234.0</ele>
        <time>2018-05-19T07:49:49.884Z</time>
      </trkpt>
      <trkpt lat="43.31659167" lon="-4.36871167">
        <ele>234.0</ele>
        <time>2018-05-19T07:49:50.880Z</time>
      </trkpt>
      <trkpt lat="43.31658667" lon="-4.36877833">
        <ele>235.0</ele>
        <time>2018-05-19T07:49:51.881Z</time>
      </trkpt>
      <trkpt lat="43.31658667" lon="-4.36877833">
        <ele>235.0</ele>
        <time>2018-05-19T07:49:52.880Z</time>
      </trkpt>
      <trkpt lat="43.31658333" lon="-4.36884333">
        <ele>236.0</ele>
        <time>2018-05-19T07:49:53.882Z</time>
      </trkpt>
      <trkpt lat="43.31658333" lon="-4.36884333">
        <ele>236.0</ele>
        <time>2018-05-19T07:49:54.880Z</time>
      </trkpt>
      <trkpt lat="43.31658" lon="-4.36890167">
        <ele>236.0</ele>
        <time>2018-05-19T07:49:55.883Z</time>
      </trkpt>
      <trkpt lat="43.31658" lon="-4.36890167">
        <ele>236.0</ele>
        <time>2018-05-19T07:49:56.880Z</time>
      </trkpt>
      <trkpt lat="43.316575" lon="-4.36896167">
        <ele>236.0</ele>
        <time>2018-05-19T07:49:57.880Z</time>
      </trkpt>
      <trkpt lat="43.316575" lon="-4.36896167">
        <ele>236.0</ele>
        <time>2018-05-19T07:49:58.880Z</time>
      </trkpt>
      <trkpt lat="43.31657333" lon="-4.36902333">
        <ele>236.0</ele>
        <time>2018-05-19T07:49:59.882Z</time>
      </trkpt>
      <trkpt lat="43.31657333" lon="-4.36902333">
        <ele>236.0</ele>
        <time>2018-05-19T07:50:00.879Z</time>
      </trkpt>
      <trkpt lat="43.31657167" lon="-4.36908167">
        <ele>237.0</ele>
        <time>2018-05-19T07:50:01.883Z</time>
      </trkpt>
      <trkpt lat="43.31657167" lon="-4.36908167">
        <ele>237.0</ele>
        <time>2018-05-19T07:50:02.877Z</time>
      </trkpt>
      <trkpt lat="43.316565" lon="-4.36915167">
        <ele>237.0</ele>
        <time>2018-05-19T07:50:03.844Z</time>
      </trkpt>
      <trkpt lat="43.316565" lon="-4.36915167">
        <ele>237.0</ele>
        <time>2018-05-19T07:50:04.879Z</time>
      </trkpt>
      <trkpt lat="43.316565" lon="-4.36919667">
        <ele>238.0</ele>
        <time>2018-05-19T07:50:05.883Z</time>
      </trkpt>
      <trkpt lat="43.316565" lon="-4.36919667">
        <ele>238.0</ele>
        <time>2018-05-19T07:50:06.877Z</time>
      </trkpt>
      <trkpt lat="43.31654833" lon="-4.36925833">
        <ele>238.0</ele>
        <time>2018-05-19T07:50:07.883Z</time>
      </trkpt>
      <trkpt lat="43.31654833" lon="-4.36925833">
        <ele>238.0</ele>
        <time>2018-05-19T07:50:08.878Z</time>
      </trkpt>
      <trkpt lat="43.31652667" lon="-4.36933">
        <ele>239.0</ele>
        <time>2018-05-19T07:50:09.880Z</time>
      </trkpt>
      <trkpt lat="43.31652667" lon="-4.36933">
        <ele>239.0</ele>
        <time>2018-05-19T07:50:10.880Z</time>
      </trkpt>
      <trkpt lat="43.31650167" lon="-4.36939167">
        <ele>239.0</ele>
        <time>2018-05-19T07:50:11.882Z</time>
      </trkpt>
      <trkpt lat="43.31649" lon="-4.36942">
        <ele>239.0</ele>
        <time>2018-05-19T07:50:12.882Z</time>
      </trkpt>
      <trkpt lat="43.31648" lon="-4.36944667">
        <ele>239.0</ele>
        <time>2018-05-19T07:50:13.883Z</time>
      </trkpt>
      <trkpt lat="43.31648" lon="-4.36944667">
        <ele>239.0</ele>
        <time>2018-05-19T07:50:14.873Z</time>
      </trkpt>
      <trkpt lat="43.31646667" lon="-4.369505">
        <ele>239.0</ele>
        <time>2018-05-19T07:50:15.859Z</time>
      </trkpt>
      <trkpt lat="43.31646667" lon="-4.369505">
        <ele>239.0</ele>
        <time>2018-05-19T07:50:16.844Z</time>
      </trkpt>
      <trkpt lat="43.31645167" lon="-4.36955667">
        <ele>240.0</ele>
        <time>2018-05-19T07:50:17.883Z</time>
      </trkpt>
      <trkpt lat="43.31645167" lon="-4.36955667">
        <ele>240.0</ele>
        <time>2018-05-19T07:50:18.880Z</time>
      </trkpt>
      <trkpt lat="43.31644167" lon="-4.36961">
        <ele>240.0</ele>
        <time>2018-05-19T07:50:19.844Z</time>
      </trkpt>
      <trkpt lat="43.31644167" lon="-4.36961">
        <ele>240.0</ele>
        <time>2018-05-19T07:50:20.880Z</time>
      </trkpt>
      <trkpt lat="43.31642667" lon="-4.36966167">
        <ele>240.0</ele>
        <time>2018-05-19T07:50:21.881Z</time>
      </trkpt>
      <trkpt lat="43.31642667" lon="-4.36966167">
        <ele>240.0</ele>
        <time>2018-05-19T07:50:22.880Z</time>
      </trkpt>
      <trkpt lat="43.31642333" lon="-4.36973">
        <ele>240.0</ele>
        <time>2018-05-19T07:50:23.883Z</time>
      </trkpt>
      <trkpt lat="43.31642333" lon="-4.36973">
        <ele>240.0</ele>
        <time>2018-05-19T07:50:24.873Z</time>
      </trkpt>
      <trkpt lat="43.31641167" lon="-4.36979667">
        <ele>240.0</ele>
        <time>2018-05-19T07:50:25.855Z</time>
      </trkpt>
      <trkpt lat="43.31641167" lon="-4.36979667">
        <ele>240.0</ele>
        <time>2018-05-19T07:50:26.880Z</time>
      </trkpt>
      <trkpt lat="43.31640333" lon="-4.36987">
        <ele>240.0</ele>
        <time>2018-05-19T07:50:27.880Z</time>
      </trkpt>
      <trkpt lat="43.31640333" lon="-4.36987">
        <ele>240.0</ele>
        <time>2018-05-19T07:50:28.880Z</time>
      </trkpt>
      <trkpt lat="43.31638833" lon="-4.36994333">
        <ele>241.0</ele>
        <time>2018-05-19T07:50:29.882Z</time>
      </trkpt>
      <trkpt lat="43.31638833" lon="-4.36994333">
        <ele>241.0</ele>
        <time>2018-05-19T07:50:30.880Z</time>
      </trkpt>
      <trkpt lat="43.31638833" lon="-4.37001667">
        <ele>241.0</ele>
        <time>2018-05-19T07:50:31.882Z</time>
      </trkpt>
      <trkpt lat="43.31638833" lon="-4.37001667">
        <ele>241.0</ele>
        <time>2018-05-19T07:50:32.880Z</time>
      </trkpt>
      <trkpt lat="43.316375" lon="-4.37009167">
        <ele>241.0</ele>
        <time>2018-05-19T07:50:33.880Z</time>
      </trkpt>
      <trkpt lat="43.316375" lon="-4.37009167">
        <ele>241.0</ele>
        <time>2018-05-19T07:50:34.879Z</time>
      </trkpt>
      <trkpt lat="43.31636667" lon="-4.37016833">
        <ele>242.0</ele>
        <time>2018-05-19T07:50:35.882Z</time>
      </trkpt>
      <trkpt lat="43.31636667" lon="-4.37016833">
        <ele>242.0</ele>
        <time>2018-05-19T07:50:36.880Z</time>
      </trkpt>
      <trkpt lat="43.31635333" lon="-4.37023667">
        <ele>242.0</ele>
        <time>2018-05-19T07:50:37.857Z</time>
      </trkpt>
      <trkpt lat="43.31635333" lon="-4.37023667">
        <ele>242.0</ele>
        <time>2018-05-19T07:50:38.883Z</time>
      </trkpt>
      <trkpt lat="43.31634" lon="-4.37030333">
        <ele>242.0</ele>
        <time>2018-05-19T07:50:39.853Z</time>
      </trkpt>
      <trkpt lat="43.31634" lon="-4.37030333">
        <ele>242.0</ele>
        <time>2018-05-19T07:50:40.880Z</time>
      </trkpt>
      <trkpt lat="43.31632667" lon="-4.37037167">
        <ele>243.0</ele>
        <time>2018-05-19T07:50:41.879Z</time>
      </trkpt>
      <trkpt lat="43.31632667" lon="-4.37037167">
        <ele>243.0</ele>
        <time>2018-05-19T07:50:42.877Z</time>
      </trkpt>
      <trkpt lat="43.316315" lon="-4.37043833">
        <ele>243.0</ele>
        <time>2018-05-19T07:50:43.883Z</time>
      </trkpt>
      <trkpt lat="43.316315" lon="-4.37043833">
        <ele>243.0</ele>
        <time>2018-05-19T07:50:44.873Z</time>
      </trkpt>
      <trkpt lat="43.31630333" lon="-4.37050167">
        <ele>244.0</ele>
        <time>2018-05-19T07:50:45.858Z</time>
      </trkpt>
      <trkpt lat="43.31630333" lon="-4.37050167">
        <ele>244.0</ele>
        <time>2018-05-19T07:50:46.879Z</time>
      </trkpt>
      <trkpt lat="43.31629" lon="-4.370555">
        <ele>244.0</ele>
        <time>2018-05-19T07:50:47.882Z</time>
      </trkpt>
      <trkpt lat="43.31629" lon="-4.370555">
        <ele>244.0</ele>
        <time>2018-05-19T07:50:48.879Z</time>
      </trkpt>
      <trkpt lat="43.31628167" lon="-4.37060667">
        <ele>244.0</ele>
        <time>2018-05-19T07:50:49.883Z</time>
      </trkpt>
      <trkpt lat="43.31628167" lon="-4.37060667">
        <ele>244.0</ele>
        <time>2018-05-19T07:50:50.880Z</time>
      </trkpt>
      <trkpt lat="43.316275" lon="-4.37065667">
        <ele>243.0</ele>
        <time>2018-05-19T07:50:51.880Z</time>
      </trkpt>
      <trkpt lat="43.316275" lon="-4.37065667">
        <ele>243.0</ele>
        <time>2018-05-19T07:50:52.879Z</time>
      </trkpt>
      <trkpt lat="43.31626333" lon="-4.37069833">
        <ele>243.0</ele>
        <time>2018-05-19T07:50:53.883Z</time>
      </trkpt>
      <trkpt lat="43.31626333" lon="-4.37069833">
        <ele>243.0</ele>
        <time>2018-05-19T07:50:54.874Z</time>
      </trkpt>
      <trkpt lat="43.31624167" lon="-4.37073833">
        <ele>243.0</ele>
        <time>2018-05-19T07:50:55.856Z</time>
      </trkpt>
      <trkpt lat="43.316235" lon="-4.37076167">
        <ele>243.0</ele>
        <time>2018-05-19T07:50:56.882Z</time>
      </trkpt>
      <trkpt lat="43.316235" lon="-4.37076167">
        <ele>243.0</ele>
        <time>2018-05-19T07:50:57.880Z</time>
      </trkpt>
      <trkpt lat="43.31623167" lon="-4.37082333">
        <ele>243.0</ele>
        <time>2018-05-19T07:50:58.882Z</time>
      </trkpt>
      <trkpt lat="43.31623167" lon="-4.37082333">
        <ele>243.0</ele>
        <time>2018-05-19T07:50:59.879Z</time>
      </trkpt>
      <trkpt lat="43.316225" lon="-4.37088833">
        <ele>244.0</ele>
        <time>2018-05-19T07:51:00.882Z</time>
      </trkpt>
      <trkpt lat="43.31622167" lon="-4.37092333">
        <ele>244.0</ele>
        <time>2018-05-19T07:51:01.866Z</time>
      </trkpt>
      <trkpt lat="43.31622167" lon="-4.37092333">
        <ele>244.0</ele>
        <time>2018-05-19T07:51:02.851Z</time>
      </trkpt>
      <trkpt lat="43.31621667" lon="-4.37099">
        <ele>244.0</ele>
        <time>2018-05-19T07:51:03.857Z</time>
      </trkpt>
      <trkpt lat="43.31621667" lon="-4.37099">
        <ele>244.0</ele>
        <time>2018-05-19T07:51:04.882Z</time>
      </trkpt>
      <trkpt lat="43.31621333" lon="-4.37105333">
        <ele>245.0</ele>
        <time>2018-05-19T07:51:05.882Z</time>
      </trkpt>
      <trkpt lat="43.31621333" lon="-4.37105333">
        <ele>245.0</ele>
        <time>2018-05-19T07:51:06.881Z</time>
      </trkpt>
      <trkpt lat="43.316205" lon="-4.371115">
        <ele>245.0</ele>
        <time>2018-05-19T07:51:07.883Z</time>
      </trkpt>
      <trkpt lat="43.316205" lon="-4.371115">
        <ele>245.0</ele>
        <time>2018-05-19T07:51:08.877Z</time>
      </trkpt>
      <trkpt lat="43.316195" lon="-4.371175">
        <ele>246.0</ele>
        <time>2018-05-19T07:51:09.880Z</time>
      </trkpt>
      <trkpt lat="43.316195" lon="-4.371175">
        <ele>246.0</ele>
        <time>2018-05-19T07:51:10.879Z</time>
      </trkpt>
      <trkpt lat="43.316185" lon="-4.37122833">
        <ele>246.0</ele>
        <time>2018-05-19T07:51:11.882Z</time>
      </trkpt>
      <trkpt lat="43.31617667" lon="-4.37125167">
        <ele>247.0</ele>
        <time>2018-05-19T07:51:12.883Z</time>
      </trkpt>
      <trkpt lat="43.31617667" lon="-4.37125167">
        <ele>247.0</ele>
        <time>2018-05-19T07:51:13.878Z</time>
      </trkpt>
      <trkpt lat="43.31616167" lon="-4.37129833">
        <ele>247.0</ele>
        <time>2018-05-19T07:51:14.876Z</time>
      </trkpt>
      <trkpt lat="43.316155" lon="-4.371325">
        <ele>247.0</ele>
        <time>2018-05-19T07:51:15.880Z</time>
      </trkpt>
      <trkpt lat="43.316155" lon="-4.371325">
        <ele>247.0</ele>
        <time>2018-05-19T07:51:16.880Z</time>
      </trkpt>
      <trkpt lat="43.31614" lon="-4.37137833">
        <ele>247.0</ele>
        <time>2018-05-19T07:51:17.880Z</time>
      </trkpt>
      <trkpt lat="43.316135" lon="-4.3714">
        <ele>248.0</ele>
        <time>2018-05-19T07:51:18.881Z</time>
      </trkpt>
      <trkpt lat="43.316135" lon="-4.3714">
        <ele>248.0</ele>
        <time>2018-05-19T07:51:19.881Z</time>
      </trkpt>
      <trkpt lat="43.31613167" lon="-4.37143667">
        <ele>248.0</ele>
        <time>2018-05-19T07:51:20.882Z</time>
      </trkpt>
      <trkpt lat="43.31612667" lon="-4.37145667">
        <ele>248.0</ele>
        <time>2018-05-19T07:51:21.883Z</time>
      </trkpt>
      <trkpt lat="43.31612667" lon="-4.37145667">
        <ele>248.0</ele>
        <time>2018-05-19T07:51:22.877Z</time>
      </trkpt>
      <trkpt lat="43.316115" lon="-4.37150167">
        <ele>248.0</ele>
        <time>2018-05-19T07:51:23.882Z</time>
      </trkpt>
      <trkpt lat="43.316115" lon="-4.37150167">
        <ele>248.0</ele>
        <time>2018-05-19T07:51:24.874Z</time>
      </trkpt>
      <trkpt lat="43.31611" lon="-4.37154833">
        <ele>248.0</ele>
        <time>2018-05-19T07:51:25.858Z</time>
      </trkpt>
      <trkpt lat="43.31611" lon="-4.37154833">
        <ele>248.0</ele>
        <time>2018-05-19T07:51:26.881Z</time>
      </trkpt>
      <trkpt lat="43.31610333" lon="-4.37159667">
        <ele>249.0</ele>
        <time>2018-05-19T07:51:27.875Z</time>
      </trkpt>
      <trkpt lat="43.3161" lon="-4.37162">
        <ele>249.0</ele>
        <time>2018-05-19T07:51:28.882Z</time>
      </trkpt>
      <trkpt lat="43.3161" lon="-4.37162">
        <ele>249.0</ele>
        <time>2018-05-19T07:51:29.880Z</time>
      </trkpt>
      <trkpt lat="43.31608833" lon="-4.37167">
        <ele>249.0</ele>
        <time>2018-05-19T07:51:30.879Z</time>
      </trkpt>
      <trkpt lat="43.31608167" lon="-4.37169333">
        <ele>249.0</ele>
        <time>2018-05-19T07:51:31.844Z</time>
      </trkpt>
      <trkpt lat="43.31607833" lon="-4.37171833">
        <ele>250.0</ele>
        <time>2018-05-19T07:51:32.857Z</time>
      </trkpt>
      <trkpt lat="43.31607333" lon="-4.37174333">
        <ele>250.0</ele>
        <time>2018-05-19T07:51:33.880Z</time>
      </trkpt>
      <trkpt lat="43.31607333" lon="-4.37174333">
        <ele>250.0</ele>
        <time>2018-05-19T07:51:34.879Z</time>
      </trkpt>
      <trkpt lat="43.31606667" lon="-4.371795">
        <ele>250.0</ele>
        <time>2018-05-19T07:51:35.882Z</time>
      </trkpt>
      <trkpt lat="43.316065" lon="-4.37181833">
        <ele>251.0</ele>
        <time>2018-05-19T07:51:36.880Z</time>
      </trkpt>
      <trkpt lat="43.316065" lon="-4.37181833">
        <ele>251.0</ele>
        <time>2018-05-19T07:51:37.877Z</time>
      </trkpt>
      <trkpt lat="43.31606167" lon="-4.37186333">
        <ele>251.0</ele>
        <time>2018-05-19T07:51:38.848Z</time>
      </trkpt>
      <trkpt lat="43.31605667" lon="-4.37188667">
        <ele>251.0</ele>
        <time>2018-05-19T07:51:39.880Z</time>
      </trkpt>
      <trkpt lat="43.31605667" lon="-4.37188667">
        <ele>251.0</ele>
        <time>2018-05-19T07:51:40.880Z</time>
      </trkpt>
      <trkpt lat="43.31605167" lon="-4.37193833">
        <ele>252.0</ele>
        <time>2018-05-19T07:51:41.882Z</time>
      </trkpt>
      <trkpt lat="43.31604833" lon="-4.37196333">
        <ele>253.0</ele>
        <time>2018-05-19T07:51:42.882Z</time>
      </trkpt>
      <trkpt lat="43.31604833" lon="-4.37196333">
        <ele>253.0</ele>
        <time>2018-05-19T07:51:43.881Z</time>
      </trkpt>
      <trkpt lat="43.31605167" lon="-4.37201">
        <ele>253.0</ele>
        <time>2018-05-19T07:51:44.876Z</time>
      </trkpt>
      <trkpt lat="43.31605167" lon="-4.37201">
        <ele>253.0</ele>
        <time>2018-05-19T07:51:45.861Z</time>
      </trkpt>
      <trkpt lat="43.31605667" lon="-4.37206667">
        <ele>254.0</ele>
        <time>2018-05-19T07:51:46.877Z</time>
      </trkpt>
      <trkpt lat="43.31605667" lon="-4.37209333">
        <ele>254.0</ele>
        <time>2018-05-19T07:51:47.883Z</time>
      </trkpt>
      <trkpt lat="43.31605667" lon="-4.37209333">
        <ele>254.0</ele>
        <time>2018-05-19T07:51:48.879Z</time>
      </trkpt>
      <trkpt lat="43.316055" lon="-4.37214167">
        <ele>255.0</ele>
        <time>2018-05-19T07:51:49.856Z</time>
      </trkpt>
      <trkpt lat="43.316055" lon="-4.37214167">
        <ele>255.0</ele>
        <time>2018-05-19T07:51:50.882Z</time>
      </trkpt>
      <trkpt lat="43.31605167" lon="-4.37218667">
        <ele>255.0</ele>
        <time>2018-05-19T07:51:51.880Z</time>
      </trkpt>
      <trkpt lat="43.31605167" lon="-4.37218667">
        <ele>255.0</ele>
        <time>2018-05-19T07:51:52.878Z</time>
      </trkpt>
      <trkpt lat="43.31604833" lon="-4.37224">
        <ele>256.0</ele>
        <time>2018-05-19T07:51:53.882Z</time>
      </trkpt>
      <trkpt lat="43.31604833" lon="-4.37224">
        <ele>256.0</ele>
        <time>2018-05-19T07:51:54.875Z</time>
      </trkpt>
      <trkpt lat="43.31605" lon="-4.37228833">
        <ele>256.0</ele>
        <time>2018-05-19T07:51:55.883Z</time>
      </trkpt>
      <trkpt lat="43.31605" lon="-4.37228833">
        <ele>256.0</ele>
        <time>2018-05-19T07:51:56.880Z</time>
      </trkpt>
      <trkpt lat="43.31604667" lon="-4.37233667">
        <ele>257.0</ele>
        <time>2018-05-19T07:51:57.880Z</time>
      </trkpt>
      <trkpt lat="43.31604667" lon="-4.37233667">
        <ele>257.0</ele>
        <time>2018-05-19T07:51:58.879Z</time>
      </trkpt>
      <trkpt lat="43.31604167" lon="-4.372385">
        <ele>257.0</ele>
        <time>2018-05-19T07:51:59.881Z</time>
      </trkpt>
      <trkpt lat="43.31603667" lon="-4.37240833">
        <ele>257.0</ele>
        <time>2018-05-19T07:52:00.853Z</time>
      </trkpt>
      <trkpt lat="43.31603667" lon="-4.37240833">
        <ele>257.0</ele>
        <time>2018-05-19T07:52:01.881Z</time>
      </trkpt>
      <trkpt lat="43.31603167" lon="-4.37245667">
        <ele>257.0</ele>
        <time>2018-05-19T07:52:02.882Z</time>
      </trkpt>
      <trkpt lat="43.31603" lon="-4.37248">
        <ele>258.0</ele>
        <time>2018-05-19T07:52:03.884Z</time>
      </trkpt>
      <trkpt lat="43.31603" lon="-4.37248">
        <ele>258.0</ele>
        <time>2018-05-19T07:52:04.870Z</time>
      </trkpt>
      <trkpt lat="43.31602667" lon="-4.37252833">
        <ele>258.0</ele>
        <time>2018-05-19T07:52:05.869Z</time>
      </trkpt>
      <trkpt lat="43.31602667" lon="-4.37252833">
        <ele>258.0</ele>
        <time>2018-05-19T07:52:06.855Z</time>
      </trkpt>
      <trkpt lat="43.31602333" lon="-4.37257">
        <ele>259.0</ele>
        <time>2018-05-19T07:52:07.844Z</time>
      </trkpt>
      <trkpt lat="43.31602333" lon="-4.37257">
        <ele>259.0</ele>
        <time>2018-05-19T07:52:08.880Z</time>
      </trkpt>
      <trkpt lat="43.316015" lon="-4.372615">
        <ele>259.0</ele>
        <time>2018-05-19T07:52:09.880Z</time>
      </trkpt>
      <trkpt lat="43.316015" lon="-4.372615">
        <ele>259.0</ele>
        <time>2018-05-19T07:52:10.882Z</time>
      </trkpt>
      <trkpt lat="43.31601333" lon="-4.372655">
        <ele>260.0</ele>
        <time>2018-05-19T07:52:11.881Z</time>
      </trkpt>
      <trkpt lat="43.31600667" lon="-4.37267833">
        <ele>260.0</ele>
        <time>2018-05-19T07:52:12.881Z</time>
      </trkpt>
      <trkpt lat="43.31600667" lon="-4.37267833">
        <ele>260.0</ele>
        <time>2018-05-19T07:52:13.880Z</time>
      </trkpt>
      <trkpt lat="43.316005" lon="-4.37272167">
        <ele>260.0</ele>
        <time>2018-05-19T07:52:14.874Z</time>
      </trkpt>
      <trkpt lat="43.316" lon="-4.37274667">
        <ele>260.0</ele>
        <time>2018-05-19T07:52:15.880Z</time>
      </trkpt>
      <trkpt lat="43.316" lon="-4.37274667">
        <ele>260.0</ele>
        <time>2018-05-19T07:52:16.883Z</time>
      </trkpt>
      <trkpt lat="43.31599333" lon="-4.37278833">
        <ele>261.0</ele>
        <time>2018-05-19T07:52:17.882Z</time>
      </trkpt>
      <trkpt lat="43.31599333" lon="-4.37278833">
        <ele>261.0</ele>
        <time>2018-05-19T07:52:18.880Z</time>
      </trkpt>
      <trkpt lat="43.31598667" lon="-4.37283333">
        <ele>262.0</ele>
        <time>2018-05-19T07:52:19.883Z</time>
      </trkpt>
      <trkpt lat="43.31598667" lon="-4.37283333">
        <ele>262.0</ele>
        <time>2018-05-19T07:52:20.879Z</time>
      </trkpt>
      <trkpt lat="43.315985" lon="-4.37287833">
        <ele>262.0</ele>
        <time>2018-05-19T07:52:21.880Z</time>
      </trkpt>
      <trkpt lat="43.315985" lon="-4.37287833">
        <ele>262.0</ele>
        <time>2018-05-19T07:52:22.879Z</time>
      </trkpt>
      <trkpt lat="43.31597667" lon="-4.37292833">
        <ele>263.0</ele>
        <time>2018-05-19T07:52:23.882Z</time>
      </trkpt>
      <trkpt lat="43.31597667" lon="-4.37292833">
        <ele>263.0</ele>
        <time>2018-05-19T07:52:24.877Z</time>
      </trkpt>
      <trkpt lat="43.31597333" lon="-4.37298167">
        <ele>263.0</ele>
        <time>2018-05-19T07:52:25.882Z</time>
      </trkpt>
      <trkpt lat="43.31597333" lon="-4.37298167">
        <ele>263.0</ele>
        <time>2018-05-19T07:52:26.880Z</time>
      </trkpt>
      <trkpt lat="43.31597167" lon="-4.37303">
        <ele>264.0</ele>
        <time>2018-05-19T07:52:27.883Z</time>
      </trkpt>
      <trkpt lat="43.31597167" lon="-4.37303">
        <ele>264.0</ele>
        <time>2018-05-19T07:52:28.878Z</time>
      </trkpt>
      <trkpt lat="43.31596333" lon="-4.37307167">
        <ele>265.0</ele>
        <time>2018-05-19T07:52:29.882Z</time>
      </trkpt>
      <trkpt lat="43.31596167" lon="-4.37309167">
        <ele>265.0</ele>
        <time>2018-05-19T07:52:30.882Z</time>
      </trkpt>
      <trkpt lat="43.31596167" lon="-4.37309167">
        <ele>265.0</ele>
        <time>2018-05-19T07:52:31.874Z</time>
      </trkpt>
      <trkpt lat="43.315955" lon="-4.373135">
        <ele>265.0</ele>
        <time>2018-05-19T07:52:32.883Z</time>
      </trkpt>
      <trkpt lat="43.31595" lon="-4.37316">
        <ele>265.0</ele>
        <time>2018-05-19T07:52:33.880Z</time>
      </trkpt>
      <trkpt lat="43.31595" lon="-4.37316">
        <ele>265.0</ele>
        <time>2018-05-19T07:52:34.873Z</time>
      </trkpt>
      <trkpt lat="43.315935" lon="-4.37320333">
        <ele>266.0</ele>
        <time>2018-05-19T07:52:35.881Z</time>
      </trkpt>
      <trkpt lat="43.315935" lon="-4.37320333">
        <ele>266.0</ele>
        <time>2018-05-19T07:52:36.879Z</time>
      </trkpt>
      <trkpt lat="43.31591333" lon="-4.37323833">
        <ele>266.0</ele>
        <time>2018-05-19T07:52:37.883Z</time>
      </trkpt>
      <trkpt lat="43.31591333" lon="-4.37323833">
        <ele>266.0</ele>
        <time>2018-05-19T07:52:38.879Z</time>
      </trkpt>
      <trkpt lat="43.315885" lon="-4.37326333">
        <ele>266.0</ele>
        <time>2018-05-19T07:52:39.882Z</time>
      </trkpt>
      <trkpt lat="43.315885" lon="-4.37326333">
        <ele>266.0</ele>
        <time>2018-05-19T07:52:40.879Z</time>
      </trkpt>
      <trkpt lat="43.315855" lon="-4.37329333">
        <ele>266.0</ele>
        <time>2018-05-19T07:52:41.867Z</time>
      </trkpt>
      <trkpt lat="43.31584333" lon="-4.37330833">
        <ele>266.0</ele>
        <time>2018-05-19T07:52:42.853Z</time>
      </trkpt>
      <trkpt lat="43.31584333" lon="-4.37330833">
        <ele>266.0</ele>
        <time>2018-05-19T07:52:43.878Z</time>
      </trkpt>
      <trkpt lat="43.315815" lon="-4.37333167">
        <ele>267.0</ele>
        <time>2018-05-19T07:52:44.875Z</time>
      </trkpt>
      <trkpt lat="43.31580333" lon="-4.37334833">
        <ele>267.0</ele>
        <time>2018-05-19T07:52:45.864Z</time>
      </trkpt>
      <trkpt lat="43.31580333" lon="-4.37334833">
        <ele>267.0</ele>
        <time>2018-05-19T07:52:46.859Z</time>
      </trkpt>
      <trkpt lat="43.31577833" lon="-4.37337667">
        <ele>268.0</ele>
        <time>2018-05-19T07:52:47.873Z</time>
      </trkpt>
      <trkpt lat="43.31577833" lon="-4.37337667">
        <ele>268.0</ele>
        <time>2018-05-19T07:52:48.882Z</time>
      </trkpt>
      <trkpt lat="43.315755" lon="-4.37341167">
        <ele>268.0</ele>
        <time>2018-05-19T07:52:49.883Z</time>
      </trkpt>
      <trkpt lat="43.315755" lon="-4.37341167">
        <ele>268.0</ele>
        <time>2018-05-19T07:52:50.880Z</time>
      </trkpt>
      <trkpt lat="43.31573667" lon="-4.37344833">
        <ele>269.0</ele>
        <time>2018-05-19T07:52:51.881Z</time>
      </trkpt>
      <trkpt lat="43.31572667" lon="-4.37346333">
        <ele>269.0</ele>
        <time>2018-05-19T07:52:52.856Z</time>
      </trkpt>
      <trkpt lat="43.31571667" lon="-4.37348167">
        <ele>269.0</ele>
        <time>2018-05-19T07:52:53.879Z</time>
      </trkpt>
      <trkpt lat="43.31571667" lon="-4.37348167">
        <ele>269.0</ele>
        <time>2018-05-19T07:52:54.872Z</time>
      </trkpt>
      <trkpt lat="43.31570167" lon="-4.37351667">
        <ele>269.0</ele>
        <time>2018-05-19T07:52:55.855Z</time>
      </trkpt>
      <trkpt lat="43.31570167" lon="-4.37351667">
        <ele>269.0</ele>
        <time>2018-05-19T07:52:56.881Z</time>
      </trkpt>
      <trkpt lat="43.31568667" lon="-4.37355833">
        <ele>269.0</ele>
        <time>2018-05-19T07:52:57.880Z</time>
      </trkpt>
      <trkpt lat="43.31568667" lon="-4.37355833">
        <ele>269.0</ele>
        <time>2018-05-19T07:52:58.879Z</time>
      </trkpt>
      <trkpt lat="43.315675" lon="-4.37360667">
        <ele>270.0</ele>
        <time>2018-05-19T07:52:59.882Z</time>
      </trkpt>
      <trkpt lat="43.315675" lon="-4.37360667">
        <ele>270.0</ele>
        <time>2018-05-19T07:53:00.880Z</time>
      </trkpt>
      <trkpt lat="43.31566" lon="-4.37364833">
        <ele>270.0</ele>
        <time>2018-05-19T07:53:01.844Z</time>
      </trkpt>
      <trkpt lat="43.31566" lon="-4.37364833">
        <ele>270.0</ele>
        <time>2018-05-19T07:53:02.879Z</time>
      </trkpt>
      <trkpt lat="43.31565167" lon="-4.37368">
        <ele>271.0</ele>
        <time>2018-05-19T07:53:03.882Z</time>
      </trkpt>
      <trkpt lat="43.31565167" lon="-4.37368">
        <ele>271.0</ele>
        <time>2018-05-19T07:53:04.873Z</time>
      </trkpt>
      <trkpt lat="43.31564833" lon="-4.37372">
        <ele>272.0</ele>
        <time>2018-05-19T07:53:05.855Z</time>
      </trkpt>
      <trkpt lat="43.31564833" lon="-4.37372">
        <ele>272.0</ele>
        <time>2018-05-19T07:53:06.877Z</time>
      </trkpt>
      <trkpt lat="43.31563833" lon="-4.37376333">
        <ele>272.0</ele>
        <time>2018-05-19T07:53:07.884Z</time>
      </trkpt>
      <trkpt lat="43.31563833" lon="-4.37376333">
        <ele>272.0</ele>
        <time>2018-05-19T07:53:08.879Z</time>
      </trkpt>
      <trkpt lat="43.31562833" lon="-4.37381167">
        <ele>273.0</ele>
        <time>2018-05-19T07:53:09.883Z</time>
      </trkpt>
      <trkpt lat="43.31562833" lon="-4.37381167">
        <ele>273.0</ele>
        <time>2018-05-19T07:53:10.877Z</time>
      </trkpt>
      <trkpt lat="43.315635" lon="-4.37386">
        <ele>273.0</ele>
        <time>2018-05-19T07:53:11.882Z</time>
      </trkpt>
      <trkpt lat="43.31563167" lon="-4.37388667">
        <ele>274.0</ele>
        <time>2018-05-19T07:53:12.850Z</time>
      </trkpt>
      <trkpt lat="43.31562667" lon="-4.37391">
        <ele>274.0</ele>
        <time>2018-05-19T07:53:13.883Z</time>
      </trkpt>
      <trkpt lat="43.31562667" lon="-4.37391">
        <ele>274.0</ele>
        <time>2018-05-19T07:53:14.874Z</time>
      </trkpt>
      <trkpt lat="43.31561333" lon="-4.37395667">
        <ele>274.0</ele>
        <time>2018-05-19T07:53:15.883Z</time>
      </trkpt>
      <trkpt lat="43.31561333" lon="-4.37395667">
        <ele>274.0</ele>
        <time>2018-05-19T07:53:16.879Z</time>
      </trkpt>
      <trkpt lat="43.31560333" lon="-4.374">
        <ele>275.0</ele>
        <time>2018-05-19T07:53:17.883Z</time>
      </trkpt>
      <trkpt lat="43.31560333" lon="-4.374">
        <ele>275.0</ele>
        <time>2018-05-19T07:53:18.878Z</time>
      </trkpt>
      <trkpt lat="43.315595" lon="-4.374045">
        <ele>276.0</ele>
        <time>2018-05-19T07:53:19.883Z</time>
      </trkpt>
      <trkpt lat="43.315595" lon="-4.374045">
        <ele>276.0</ele>
        <time>2018-05-19T07:53:20.879Z</time>
      </trkpt>
      <trkpt lat="43.31559667" lon="-4.37408833">
        <ele>277.0</ele>
        <time>2018-05-19T07:53:21.866Z</time>
      </trkpt>
      <trkpt lat="43.31559667" lon="-4.374115">
        <ele>277.0</ele>
        <time>2018-05-19T07:53:22.860Z</time>
      </trkpt>
      <trkpt lat="43.31559667" lon="-4.374115">
        <ele>277.0</ele>
        <time>2018-05-19T07:53:23.882Z</time>
      </trkpt>
      <trkpt lat="43.31558" lon="-4.37415833">
        <ele>277.0</ele>
        <time>2018-05-19T07:53:24.881Z</time>
      </trkpt>
      <trkpt lat="43.31556833" lon="-4.37417667">
        <ele>278.0</ele>
        <time>2018-05-19T07:53:25.882Z</time>
      </trkpt>
      <trkpt lat="43.31556833" lon="-4.37417667">
        <ele>278.0</ele>
        <time>2018-05-19T07:53:26.881Z</time>
      </trkpt>
      <trkpt lat="43.315545" lon="-4.37421333">
        <ele>278.0</ele>
        <time>2018-05-19T07:53:27.883Z</time>
      </trkpt>
      <trkpt lat="43.315545" lon="-4.37421333">
        <ele>278.0</ele>
        <time>2018-05-19T07:53:28.880Z</time>
      </trkpt>
      <trkpt lat="43.31552667" lon="-4.37425">
        <ele>279.0</ele>
        <time>2018-05-19T07:53:29.881Z</time>
      </trkpt>
      <trkpt lat="43.31552667" lon="-4.37425">
        <ele>279.0</ele>
        <time>2018-05-19T07:53:30.880Z</time>
      </trkpt>
      <trkpt lat="43.3155" lon="-4.37428333">
        <ele>280.0</ele>
        <time>2018-05-19T07:53:31.878Z</time>
      </trkpt>
      <trkpt lat="43.3155" lon="-4.37428333">
        <ele>280.0</ele>
        <time>2018-05-19T07:53:32.879Z</time>
      </trkpt>
      <trkpt lat="43.315485" lon="-4.37431333">
        <ele>281.0</ele>
        <time>2018-05-19T07:53:33.879Z</time>
      </trkpt>
      <trkpt lat="43.315485" lon="-4.37431333">
        <ele>281.0</ele>
        <time>2018-05-19T07:53:34.873Z</time>
      </trkpt>
      <trkpt lat="43.31548" lon="-4.37433833">
        <ele>282.0</ele>
        <time>2018-05-19T07:53:35.858Z</time>
      </trkpt>
      <trkpt lat="43.31548" lon="-4.37433833">
        <ele>282.0</ele>
        <time>2018-05-19T07:53:36.883Z</time>
      </trkpt>
      <trkpt lat="43.315475" lon="-4.37438333">
        <ele>283.0</ele>
        <time>2018-05-19T07:53:37.883Z</time>
      </trkpt>
      <trkpt lat="43.315475" lon="-4.37438333">
        <ele>283.0</ele>
        <time>2018-05-19T07:53:38.879Z</time>
      </trkpt>
      <trkpt lat="43.31545333" lon="-4.37441833">
        <ele>283.0</ele>
        <time>2018-05-19T07:53:39.844Z</time>
      </trkpt>
      <trkpt lat="43.31545333" lon="-4.37441833">
        <ele>283.0</ele>
        <time>2018-05-19T07:53:40.880Z</time>
      </trkpt>
      <trkpt lat="43.31543" lon="-4.37444833">
        <ele>284.0</ele>
        <time>2018-05-19T07:53:41.882Z</time>
      </trkpt>
      <trkpt lat="43.31543" lon="-4.37444833">
        <ele>284.0</ele>
        <time>2018-05-19T07:53:42.879Z</time>
      </trkpt>
      <trkpt lat="43.31540833" lon="-4.37448333">
        <ele>284.0</ele>
        <time>2018-05-19T07:53:43.883Z</time>
      </trkpt>
      <trkpt lat="43.31540833" lon="-4.37448333">
        <ele>284.0</ele>
        <time>2018-05-19T07:53:44.884Z</time>
      </trkpt>
      <trkpt lat="43.31538167" lon="-4.37451">
        <ele>285.0</ele>
        <time>2018-05-19T07:53:45.858Z</time>
      </trkpt>
      <trkpt lat="43.31536667" lon="-4.37452333">
        <ele>286.0</ele>
        <time>2018-05-19T07:53:46.882Z</time>
      </trkpt>
      <trkpt lat="43.31535" lon="-4.37453667">
        <ele>286.0</ele>
        <time>2018-05-19T07:53:47.881Z</time>
      </trkpt>
      <trkpt lat="43.31535" lon="-4.37453667">
        <ele>286.0</ele>
        <time>2018-05-19T07:53:48.879Z</time>
      </trkpt>
      <trkpt lat="43.31531833" lon="-4.37457167">
        <ele>286.0</ele>
        <time>2018-05-19T07:53:49.883Z</time>
      </trkpt>
      <trkpt lat="43.31531833" lon="-4.37457167">
        <ele>286.0</ele>
        <time>2018-05-19T07:53:50.879Z</time>
      </trkpt>
      <trkpt lat="43.31529" lon="-4.37460667">
        <ele>286.0</ele>
        <time>2018-05-19T07:53:51.882Z</time>
      </trkpt>
      <trkpt lat="43.31527167" lon="-4.37462833">
        <ele>286.0</ele>
        <time>2018-05-19T07:53:52.881Z</time>
      </trkpt>
      <trkpt lat="43.31527167" lon="-4.37462833">
        <ele>286.0</ele>
        <time>2018-05-19T07:53:53.879Z</time>
      </trkpt>
      <trkpt lat="43.31523833" lon="-4.37466333">
        <ele>287.0</ele>
        <time>2018-05-19T07:53:54.874Z</time>
      </trkpt>
      <trkpt lat="43.31522667" lon="-4.374685">
        <ele>287.0</ele>
        <time>2018-05-19T07:53:55.857Z</time>
      </trkpt>
      <trkpt lat="43.31521833" lon="-4.374705">
        <ele>287.0</ele>
        <time>2018-05-19T07:53:56.884Z</time>
      </trkpt>
      <trkpt lat="43.31521833" lon="-4.374705">
        <ele>287.0</ele>
        <time>2018-05-19T07:53:57.880Z</time>
      </trkpt>
      <trkpt lat="43.31519833" lon="-4.37474833">
        <ele>287.0</ele>
        <time>2018-05-19T07:53:58.881Z</time>
      </trkpt>
      <trkpt lat="43.31519833" lon="-4.37474833">
        <ele>287.0</ele>
        <time>2018-05-19T07:53:59.879Z</time>
      </trkpt>
      <trkpt lat="43.315175" lon="-4.37479167">
        <ele>288.0</ele>
        <time>2018-05-19T07:54:00.881Z</time>
      </trkpt>
      <trkpt lat="43.31516333" lon="-4.37481">
        <ele>288.0</ele>
        <time>2018-05-19T07:54:01.883Z</time>
      </trkpt>
      <trkpt lat="43.31516333" lon="-4.37481">
        <ele>288.0</ele>
        <time>2018-05-19T07:54:02.879Z</time>
      </trkpt>
      <trkpt lat="43.31514333" lon="-4.37485167">
        <ele>289.0</ele>
        <time>2018-05-19T07:54:03.880Z</time>
      </trkpt>
      <trkpt lat="43.31514333" lon="-4.37485167">
        <ele>289.0</ele>
        <time>2018-05-19T07:54:04.873Z</time>
      </trkpt>
      <trkpt lat="43.31512833" lon="-4.37489333">
        <ele>289.0</ele>
        <time>2018-05-19T07:54:05.881Z</time>
      </trkpt>
      <trkpt lat="43.31512833" lon="-4.37489333">
        <ele>289.0</ele>
        <time>2018-05-19T07:54:06.880Z</time>
      </trkpt>
      <trkpt lat="43.31511333" lon="-4.37493667">
        <ele>289.0</ele>
        <time>2018-05-19T07:54:07.858Z</time>
      </trkpt>
      <trkpt lat="43.31511333" lon="-4.37493667">
        <ele>289.0</ele>
        <time>2018-05-19T07:54:08.844Z</time>
      </trkpt>
      <trkpt lat="43.31510333" lon="-4.37497667">
        <ele>290.0</ele>
        <time>2018-05-19T07:54:09.883Z</time>
      </trkpt>
      <trkpt lat="43.31510333" lon="-4.37497667">
        <ele>290.0</ele>
        <time>2018-05-19T07:54:10.876Z</time>
      </trkpt>
      <trkpt lat="43.31509667" lon="-4.37502">
        <ele>290.0</ele>
        <time>2018-05-19T07:54:11.879Z</time>
      </trkpt>
      <trkpt lat="43.31509667" lon="-4.37502">
        <ele>290.0</ele>
        <time>2018-05-19T07:54:12.879Z</time>
      </trkpt>
      <trkpt lat="43.31509667" lon="-4.375065">
        <ele>290.0</ele>
        <time>2018-05-19T07:54:13.883Z</time>
      </trkpt>
      <trkpt lat="43.31509667" lon="-4.375065">
        <ele>290.0</ele>
        <time>2018-05-19T07:54:14.873Z</time>
      </trkpt>
      <trkpt lat="43.31509333" lon="-4.37510833">
        <ele>291.0</ele>
        <time>2018-05-19T07:54:15.881Z</time>
      </trkpt>
      <trkpt lat="43.31509333" lon="-4.37510833">
        <ele>291.0</ele>
        <time>2018-05-19T07:54:16.879Z</time>
      </trkpt>
      <trkpt lat="43.31509167" lon="-4.37516333">
        <ele>291.0</ele>
        <time>2018-05-19T07:54:17.882Z</time>
      </trkpt>
      <trkpt lat="43.31509167" lon="-4.37516333">
        <ele>291.0</ele>
        <time>2018-05-19T07:54:18.879Z</time>
      </trkpt>
      <trkpt lat="43.315095" lon="-4.37521333">
        <ele>291.0</ele>
        <time>2018-05-19T07:54:19.883Z</time>
      </trkpt>
      <trkpt lat="43.315095" lon="-4.37521333">
        <ele>291.0</ele>
        <time>2018-05-19T07:54:20.879Z</time>
      </trkpt>
      <trkpt lat="43.31508667" lon="-4.37526">
        <ele>292.0</ele>
        <time>2018-05-19T07:54:21.881Z</time>
      </trkpt>
      <trkpt lat="43.31508667" lon="-4.37526">
        <ele>292.0</ele>
        <time>2018-05-19T07:54:22.879Z</time>
      </trkpt>
      <trkpt lat="43.315075" lon="-4.37530333">
        <ele>292.0</ele>
        <time>2018-05-19T07:54:23.878Z</time>
      </trkpt>
      <trkpt lat="43.315075" lon="-4.37530333">
        <ele>292.0</ele>
        <time>2018-05-19T07:54:24.873Z</time>
      </trkpt>
      <trkpt lat="43.31506333" lon="-4.37535">
        <ele>293.0</ele>
        <time>2018-05-19T07:54:25.856Z</time>
      </trkpt>
      <trkpt lat="43.31506333" lon="-4.37535">
        <ele>293.0</ele>
        <time>2018-05-19T07:54:26.881Z</time>
      </trkpt>
      <trkpt lat="43.31504833" lon="-4.37540167">
        <ele>293.0</ele>
        <time>2018-05-19T07:54:27.881Z</time>
      </trkpt>
      <trkpt lat="43.31504833" lon="-4.37540167">
        <ele>293.0</ele>
        <time>2018-05-19T07:54:28.877Z</time>
      </trkpt>
      <trkpt lat="43.31504167" lon="-4.37545">
        <ele>293.0</ele>
        <time>2018-05-19T07:54:29.855Z</time>
      </trkpt>
      <trkpt lat="43.31504167" lon="-4.37545">
        <ele>293.0</ele>
        <time>2018-05-19T07:54:30.880Z</time>
      </trkpt>
      <trkpt lat="43.31503667" lon="-4.375495">
        <ele>294.0</ele>
        <time>2018-05-19T07:54:31.875Z</time>
      </trkpt>
      <trkpt lat="43.31503" lon="-4.375515">
        <ele>294.0</ele>
        <time>2018-05-19T07:54:32.883Z</time>
      </trkpt>
      <trkpt lat="43.31502333" lon="-4.37553833">
        <ele>295.0</ele>
        <time>2018-05-19T07:54:33.882Z</time>
      </trkpt>
      <trkpt lat="43.31502333" lon="-4.37553833">
        <ele>295.0</ele>
        <time>2018-05-19T07:54:34.873Z</time>
      </trkpt>
      <trkpt lat="43.31500333" lon="-4.37558">
        <ele>295.0</ele>
        <time>2018-05-19T07:54:35.858Z</time>
      </trkpt>
      <trkpt lat="43.31500333" lon="-4.37558">
        <ele>295.0</ele>
        <time>2018-05-19T07:54:36.883Z</time>
      </trkpt>
      <trkpt lat="43.31499167" lon="-4.37562167">
        <ele>296.0</ele>
        <time>2018-05-19T07:54:37.883Z</time>
      </trkpt>
      <trkpt lat="43.31499167" lon="-4.37562167">
        <ele>296.0</ele>
        <time>2018-05-19T07:54:38.853Z</time>
      </trkpt>
      <trkpt lat="43.31497167" lon="-4.37565833">
        <ele>297.0</ele>
        <time>2018-05-19T07:54:39.879Z</time>
      </trkpt>
      <trkpt lat="43.31497167" lon="-4.37565833">
        <ele>297.0</ele>
        <time>2018-05-19T07:54:40.878Z</time>
      </trkpt>
      <trkpt lat="43.31494833" lon="-4.37569833">
        <ele>297.0</ele>
        <time>2018-05-19T07:54:41.867Z</time>
      </trkpt>
      <trkpt lat="43.31494833" lon="-4.37569833">
        <ele>297.0</ele>
        <time>2018-05-19T07:54:42.852Z</time>
      </trkpt>
      <trkpt lat="43.31493333" lon="-4.37573833">
        <ele>298.0</ele>
        <time>2018-05-19T07:54:43.882Z</time>
      </trkpt>
      <trkpt lat="43.31493333" lon="-4.37573833">
        <ele>298.0</ele>
        <time>2018-05-19T07:54:44.879Z</time>
      </trkpt>
      <trkpt lat="43.31491667" lon="-4.37578167">
        <ele>299.0</ele>
        <time>2018-05-19T07:54:45.880Z</time>
      </trkpt>
      <trkpt lat="43.31490667" lon="-4.375805">
        <ele>299.0</ele>
        <time>2018-05-19T07:54:46.849Z</time>
      </trkpt>
      <trkpt lat="43.31490667" lon="-4.375805">
        <ele>299.0</ele>
        <time>2018-05-19T07:54:47.855Z</time>
      </trkpt>
      <trkpt lat="43.31489" lon="-4.37585333">
        <ele>299.0</ele>
        <time>2018-05-19T07:54:48.865Z</time>
      </trkpt>
      <trkpt lat="43.31488" lon="-4.37587667">
        <ele>299.0</ele>
        <time>2018-05-19T07:54:49.852Z</time>
      </trkpt>
      <trkpt lat="43.31488" lon="-4.37587667">
        <ele>299.0</ele>
        <time>2018-05-19T07:54:50.846Z</time>
      </trkpt>
      <trkpt lat="43.31486167" lon="-4.375925">
        <ele>300.0</ele>
        <time>2018-05-19T07:54:51.882Z</time>
      </trkpt>
      <trkpt lat="43.31486167" lon="-4.375925">
        <ele>300.0</ele>
        <time>2018-05-19T07:54:52.877Z</time>
      </trkpt>
      <trkpt lat="43.31484667" lon="-4.37597667">
        <ele>300.0</ele>
        <time>2018-05-19T07:54:53.881Z</time>
      </trkpt>
      <trkpt lat="43.31484667" lon="-4.37597667">
        <ele>300.0</ele>
        <time>2018-05-19T07:54:54.873Z</time>
      </trkpt>
      <trkpt lat="43.31482833" lon="-4.37602833">
        <ele>300.0</ele>
        <time>2018-05-19T07:54:55.855Z</time>
      </trkpt>
      <trkpt lat="43.31482833" lon="-4.37602833">
        <ele>300.0</ele>
        <time>2018-05-19T07:54:56.859Z</time>
      </trkpt>
      <trkpt lat="43.31481167" lon="-4.37608333">
        <ele>300.0</ele>
        <time>2018-05-19T07:54:57.846Z</time>
      </trkpt>
      <trkpt lat="43.31480667" lon="-4.37610833">
        <ele>300.0</ele>
        <time>2018-05-19T07:54:58.881Z</time>
      </trkpt>
      <trkpt lat="43.31480667" lon="-4.37610833">
        <ele>300.0</ele>
        <time>2018-05-19T07:54:59.879Z</time>
      </trkpt>
      <trkpt lat="43.31479167" lon="-4.37615667">
        <ele>301.0</ele>
        <time>2018-05-19T07:55:00.881Z</time>
      </trkpt>
      <trkpt lat="43.314785" lon="-4.37617833">
        <ele>301.0</ele>
        <time>2018-05-19T07:55:01.883Z</time>
      </trkpt>
      <trkpt lat="43.314785" lon="-4.37617833">
        <ele>301.0</ele>
        <time>2018-05-19T07:55:02.879Z</time>
      </trkpt>
      <trkpt lat="43.314765" lon="-4.37622333">
        <ele>301.0</ele>
        <time>2018-05-19T07:55:03.883Z</time>
      </trkpt>
      <trkpt lat="43.314765" lon="-4.37622333">
        <ele>301.0</ele>
        <time>2018-05-19T07:55:04.872Z</time>
      </trkpt>
      <trkpt lat="43.31474333" lon="-4.37627">
        <ele>301.0</ele>
        <time>2018-05-19T07:55:05.855Z</time>
      </trkpt>
      <trkpt lat="43.31473333" lon="-4.37629167">
        <ele>301.0</ele>
        <time>2018-05-19T07:55:06.882Z</time>
      </trkpt>
      <trkpt lat="43.31473333" lon="-4.37629167">
        <ele>301.0</ele>
        <time>2018-05-19T07:55:07.881Z</time>
      </trkpt>
      <trkpt lat="43.31470833" lon="-4.37633667">
        <ele>302.0</ele>
        <time>2018-05-19T07:55:08.845Z</time>
      </trkpt>
      <trkpt lat="43.31470833" lon="-4.37633667">
        <ele>302.0</ele>
        <time>2018-05-19T07:55:09.879Z</time>
      </trkpt>
      <trkpt lat="43.31468667" lon="-4.37638167">
        <ele>303.0</ele>
        <time>2018-05-19T07:55:10.881Z</time>
      </trkpt>
      <trkpt lat="43.31467667" lon="-4.37640333">
        <ele>303.0</ele>
        <time>2018-05-19T07:55:11.882Z</time>
      </trkpt>
      <trkpt lat="43.31467667" lon="-4.37640333">
        <ele>303.0</ele>
        <time>2018-05-19T07:55:12.878Z</time>
      </trkpt>
      <trkpt lat="43.31464833" lon="-4.37643667">
        <ele>303.0</ele>
        <time>2018-05-19T07:55:13.882Z</time>
      </trkpt>
      <trkpt lat="43.31464833" lon="-4.37643667">
        <ele>303.0</ele>
        <time>2018-05-19T07:55:14.870Z</time>
      </trkpt>
      <trkpt lat="43.31462" lon="-4.376475">
        <ele>303.0</ele>
        <time>2018-05-19T07:55:15.855Z</time>
      </trkpt>
      <trkpt lat="43.31462" lon="-4.376475">
        <ele>303.0</ele>
        <time>2018-05-19T07:55:16.880Z</time>
      </trkpt>
      <trkpt lat="43.31459167" lon="-4.37651167">
        <ele>304.0</ele>
        <time>2018-05-19T07:55:17.881Z</time>
      </trkpt>
      <trkpt lat="43.31457833" lon="-4.376535">
        <ele>304.0</ele>
        <time>2018-05-19T07:55:18.882Z</time>
      </trkpt>
      <trkpt lat="43.31457833" lon="-4.376535">
        <ele>304.0</ele>
        <time>2018-05-19T07:55:19.874Z</time>
      </trkpt>
      <trkpt lat="43.31455667" lon="-4.37658333">
        <ele>304.0</ele>
        <time>2018-05-19T07:55:20.861Z</time>
      </trkpt>
      <trkpt lat="43.31455667" lon="-4.37658333">
        <ele>304.0</ele>
        <time>2018-05-19T07:55:21.844Z</time>
      </trkpt>
      <trkpt lat="43.31453333" lon="-4.37663167">
        <ele>304.0</ele>
        <time>2018-05-19T07:55:22.881Z</time>
      </trkpt>
      <trkpt lat="43.31453333" lon="-4.37663167">
        <ele>304.0</ele>
        <time>2018-05-19T07:55:23.878Z</time>
      </trkpt>
      <trkpt lat="43.31451" lon="-4.37668167">
        <ele>305.0</ele>
        <time>2018-05-19T07:55:24.879Z</time>
      </trkpt>
      <trkpt lat="43.3145" lon="-4.376705">
        <ele>305.0</ele>
        <time>2018-05-19T07:55:25.882Z</time>
      </trkpt>
      <trkpt lat="43.3145" lon="-4.376705">
        <ele>305.0</ele>
        <time>2018-05-19T07:55:26.876Z</time>
      </trkpt>
      <trkpt lat="43.31447667" lon="-4.376755">
        <ele>305.0</ele>
        <time>2018-05-19T07:55:27.881Z</time>
      </trkpt>
      <trkpt lat="43.31447667" lon="-4.376755">
        <ele>305.0</ele>
        <time>2018-05-19T07:55:28.880Z</time>
      </trkpt>
      <trkpt lat="43.31445833" lon="-4.37680333">
        <ele>305.0</ele>
        <time>2018-05-19T07:55:29.867Z</time>
      </trkpt>
      <trkpt lat="43.31445833" lon="-4.37680333">
        <ele>305.0</ele>
        <time>2018-05-19T07:55:30.878Z</time>
      </trkpt>
      <trkpt lat="43.314445" lon="-4.37685">
        <ele>305.0</ele>
        <time>2018-05-19T07:55:31.844Z</time>
      </trkpt>
      <trkpt lat="43.314445" lon="-4.37685">
        <ele>305.0</ele>
        <time>2018-05-19T07:55:32.878Z</time>
      </trkpt>
      <trkpt lat="43.314435" lon="-4.3769">
        <ele>306.0</ele>
        <time>2018-05-19T07:55:33.881Z</time>
      </trkpt>
      <trkpt lat="43.314435" lon="-4.3769">
        <ele>306.0</ele>
        <time>2018-05-19T07:55:34.873Z</time>
      </trkpt>
      <trkpt lat="43.31442667" lon="-4.37694833">
        <ele>306.0</ele>
        <time>2018-05-19T07:55:35.856Z</time>
      </trkpt>
      <trkpt lat="43.31442667" lon="-4.37694833">
        <ele>306.0</ele>
        <time>2018-05-19T07:55:36.881Z</time>
      </trkpt>
      <trkpt lat="43.314415" lon="-4.376995">
        <ele>306.0</ele>
        <time>2018-05-19T07:55:37.881Z</time>
      </trkpt>
      <trkpt lat="43.31441167" lon="-4.37701833">
        <ele>307.0</ele>
        <time>2018-05-19T07:55:38.875Z</time>
      </trkpt>
      <trkpt lat="43.31440833" lon="-4.37704333">
        <ele>307.0</ele>
        <time>2018-05-19T07:55:39.866Z</time>
      </trkpt>
      <trkpt lat="43.31440833" lon="-4.37704333">
        <ele>307.0</ele>
        <time>2018-05-19T07:55:40.856Z</time>
      </trkpt>
      <trkpt lat="43.31439833" lon="-4.37708833">
        <ele>307.0</ele>
        <time>2018-05-19T07:55:41.883Z</time>
      </trkpt>
      <trkpt lat="43.31439333" lon="-4.37711">
        <ele>307.0</ele>
        <time>2018-05-19T07:55:42.880Z</time>
      </trkpt>
      <trkpt lat="43.31439333" lon="-4.37711">
        <ele>307.0</ele>
        <time>2018-05-19T07:55:43.880Z</time>
      </trkpt>
      <trkpt lat="43.31438167" lon="-4.37715333">
        <ele>308.0</ele>
        <time>2018-05-19T07:55:44.875Z</time>
      </trkpt>
      <trkpt lat="43.31438167" lon="-4.37715333">
        <ele>308.0</ele>
        <time>2018-05-19T07:55:45.862Z</time>
      </trkpt>
      <trkpt lat="43.314375" lon="-4.37719667">
        <ele>308.0</ele>
        <time>2018-05-19T07:55:46.881Z</time>
      </trkpt>
      <trkpt lat="43.314375" lon="-4.37719667">
        <ele>308.0</ele>
        <time>2018-05-19T07:55:47.878Z</time>
      </trkpt>
      <trkpt lat="43.31436667" lon="-4.37724333">
        <ele>309.0</ele>
        <time>2018-05-19T07:55:48.881Z</time>
      </trkpt>
      <trkpt lat="43.31436" lon="-4.37726667">
        <ele>309.0</ele>
        <time>2018-05-19T07:55:49.866Z</time>
      </trkpt>
      <trkpt lat="43.31436" lon="-4.37726667">
        <ele>309.0</ele>
        <time>2018-05-19T07:55:50.851Z</time>
      </trkpt>
      <trkpt lat="43.31434833" lon="-4.37731167">
        <ele>309.0</ele>
        <time>2018-05-19T07:55:51.881Z</time>
      </trkpt>
      <trkpt lat="43.31434167" lon="-4.37733333">
        <ele>310.0</ele>
        <time>2018-05-19T07:55:52.881Z</time>
      </trkpt>
      <trkpt lat="43.31433667" lon="-4.377355">
        <ele>310.0</ele>
        <time>2018-05-19T07:55:53.882Z</time>
      </trkpt>
      <trkpt lat="43.31433667" lon="-4.377355">
        <ele>310.0</ele>
        <time>2018-05-19T07:55:54.873Z</time>
      </trkpt>
      <trkpt lat="43.31432667" lon="-4.3774">
        <ele>310.0</ele>
        <time>2018-05-19T07:55:55.858Z</time>
      </trkpt>
      <trkpt lat="43.31432667" lon="-4.3774">
        <ele>310.0</ele>
        <time>2018-05-19T07:55:56.884Z</time>
      </trkpt>
      <trkpt lat="43.31431667" lon="-4.37744833">
        <ele>311.0</ele>
        <time>2018-05-19T07:55:57.882Z</time>
      </trkpt>
      <trkpt lat="43.31431667" lon="-4.37744833">
        <ele>311.0</ele>
        <time>2018-05-19T07:55:58.879Z</time>
      </trkpt>
      <trkpt lat="43.31430667" lon="-4.377495">
        <ele>311.0</ele>
        <time>2018-05-19T07:55:59.878Z</time>
      </trkpt>
      <trkpt lat="43.31430667" lon="-4.377495">
        <ele>311.0</ele>
        <time>2018-05-19T07:56:00.876Z</time>
      </trkpt>
      <trkpt lat="43.314295" lon="-4.37754667">
        <ele>311.0</ele>
        <time>2018-05-19T07:56:01.853Z</time>
      </trkpt>
      <trkpt lat="43.31429" lon="-4.37757167">
        <ele>312.0</ele>
        <time>2018-05-19T07:56:02.863Z</time>
      </trkpt>
      <trkpt lat="43.31429" lon="-4.37757167">
        <ele>312.0</ele>
        <time>2018-05-19T07:56:03.869Z</time>
      </trkpt>
      <trkpt lat="43.31428333" lon="-4.37762667">
        <ele>312.0</ele>
        <time>2018-05-19T07:56:04.877Z</time>
      </trkpt>
      <trkpt lat="43.31428" lon="-4.37765333">
        <ele>312.0</ele>
        <time>2018-05-19T07:56:05.883Z</time>
      </trkpt>
      <trkpt lat="43.31428" lon="-4.37765333">
        <ele>312.0</ele>
        <time>2018-05-19T07:56:06.849Z</time>
      </trkpt>
      <trkpt lat="43.31427" lon="-4.37771">
        <ele>312.0</ele>
        <time>2018-05-19T07:56:07.882Z</time>
      </trkpt>
      <trkpt lat="43.31426667" lon="-4.37773833">
        <ele>312.0</ele>
        <time>2018-05-19T07:56:08.867Z</time>
      </trkpt>
      <trkpt lat="43.31426667" lon="-4.37773833">
        <ele>312.0</ele>
        <time>2018-05-19T07:56:09.851Z</time>
      </trkpt>
      <trkpt lat="43.31426667" lon="-4.37778833">
        <ele>313.0</ele>
        <time>2018-05-19T07:56:10.880Z</time>
      </trkpt>
      <trkpt lat="43.31426667" lon="-4.37778833">
        <ele>313.0</ele>
        <time>2018-05-19T07:56:11.853Z</time>
      </trkpt>
      <trkpt lat="43.31426167" lon="-4.377845">
        <ele>313.0</ele>
        <time>2018-05-19T07:56:12.881Z</time>
      </trkpt>
      <trkpt lat="43.31425667" lon="-4.37787667">
        <ele>313.0</ele>
        <time>2018-05-19T07:56:13.883Z</time>
      </trkpt>
      <trkpt lat="43.31425667" lon="-4.37787667">
        <ele>313.0</ele>
        <time>2018-05-19T07:56:14.879Z</time>
      </trkpt>
      <trkpt lat="43.31424333" lon="-4.37795333">
        <ele>313.0</ele>
        <time>2018-05-19T07:56:15.882Z</time>
      </trkpt>
      <trkpt lat="43.31424333" lon="-4.37795333">
        <ele>313.0</ele>
        <time>2018-05-19T07:56:16.879Z</time>
      </trkpt>
      <trkpt lat="43.31423167" lon="-4.37803833">
        <ele>313.0</ele>
        <time>2018-05-19T07:56:17.881Z</time>
      </trkpt>
      <trkpt lat="43.31422" lon="-4.37808">
        <ele>313.0</ele>
        <time>2018-05-19T07:56:18.881Z</time>
      </trkpt>
      <trkpt lat="43.31422" lon="-4.37808">
        <ele>313.0</ele>
        <time>2018-05-19T07:56:19.880Z</time>
      </trkpt>
      <trkpt lat="43.314195" lon="-4.37815833">
        <ele>312.0</ele>
        <time>2018-05-19T07:56:20.858Z</time>
      </trkpt>
      <trkpt lat="43.31418167" lon="-4.3782">
        <ele>312.0</ele>
        <time>2018-05-19T07:56:21.844Z</time>
      </trkpt>
      <trkpt lat="43.31418167" lon="-4.3782">
        <ele>312.0</ele>
        <time>2018-05-19T07:56:22.876Z</time>
      </trkpt>
      <trkpt lat="43.31413833" lon="-4.378275">
        <ele>312.0</ele>
        <time>2018-05-19T07:56:23.880Z</time>
      </trkpt>
      <trkpt lat="43.31413833" lon="-4.378275">
        <ele>312.0</ele>
        <time>2018-05-19T07:56:24.879Z</time>
      </trkpt>
      <trkpt lat="43.3141" lon="-4.37833">
        <ele>312.0</ele>
        <time>2018-05-19T07:56:25.883Z</time>
      </trkpt>
      <trkpt lat="43.3141" lon="-4.37833">
        <ele>312.0</ele>
        <time>2018-05-19T07:56:26.876Z</time>
      </trkpt>
      <trkpt lat="43.31407333" lon="-4.37837333">
        <ele>312.0</ele>
        <time>2018-05-19T07:56:27.881Z</time>
      </trkpt>
      <trkpt lat="43.31407333" lon="-4.37837333">
        <ele>312.0</ele>
        <time>2018-05-19T07:56:28.879Z</time>
      </trkpt>
      <trkpt lat="43.31404333" lon="-4.378425">
        <ele>312.0</ele>
        <time>2018-05-19T07:56:29.852Z</time>
      </trkpt>
      <trkpt lat="43.31404333" lon="-4.378425">
        <ele>312.0</ele>
        <time>2018-05-19T07:56:30.856Z</time>
      </trkpt>
      <trkpt lat="43.31401333" lon="-4.37849">
        <ele>312.0</ele>
        <time>2018-05-19T07:56:31.844Z</time>
      </trkpt>
      <trkpt lat="43.31401333" lon="-4.37849">
        <ele>312.0</ele>
        <time>2018-05-19T07:56:32.878Z</time>
      </trkpt>
      <trkpt lat="43.31397833" lon="-4.37856167">
        <ele>312.0</ele>
        <time>2018-05-19T07:56:33.881Z</time>
      </trkpt>
      <trkpt lat="43.31397833" lon="-4.37856167">
        <ele>312.0</ele>
        <time>2018-05-19T07:56:34.883Z</time>
      </trkpt>
      <trkpt lat="43.31394833" lon="-4.378625">
        <ele>313.0</ele>
        <time>2018-05-19T07:56:35.881Z</time>
      </trkpt>
      <trkpt lat="43.31394833" lon="-4.378625">
        <ele>313.0</ele>
        <time>2018-05-19T07:56:36.880Z</time>
      </trkpt>
      <trkpt lat="43.313925" lon="-4.378685">
        <ele>313.0</ele>
        <time>2018-05-19T07:56:37.882Z</time>
      </trkpt>
      <trkpt lat="43.313915" lon="-4.37871667">
        <ele>314.0</ele>
        <time>2018-05-19T07:56:38.854Z</time>
      </trkpt>
      <trkpt lat="43.313915" lon="-4.37871667">
        <ele>314.0</ele>
        <time>2018-05-19T07:56:39.860Z</time>
      </trkpt>
      <trkpt lat="43.313895" lon="-4.37878167">
        <ele>314.0</ele>
        <time>2018-05-19T07:56:40.875Z</time>
      </trkpt>
      <trkpt lat="43.313895" lon="-4.37878167">
        <ele>314.0</ele>
        <time>2018-05-19T07:56:41.881Z</time>
      </trkpt>
      <trkpt lat="43.31387667" lon="-4.37884333">
        <ele>315.0</ele>
        <time>2018-05-19T07:56:42.849Z</time>
      </trkpt>
      <trkpt lat="43.31387667" lon="-4.37884333">
        <ele>315.0</ele>
        <time>2018-05-19T07:56:43.881Z</time>
      </trkpt>
      <trkpt lat="43.31386667" lon="-4.37891">
        <ele>315.0</ele>
        <time>2018-05-19T07:56:44.881Z</time>
      </trkpt>
      <trkpt lat="43.31386667" lon="-4.37891">
        <ele>315.0</ele>
        <time>2018-05-19T07:56:45.860Z</time>
      </trkpt>
      <trkpt lat="43.31385667" lon="-4.37897667">
        <ele>315.0</ele>
        <time>2018-05-19T07:56:46.858Z</time>
      </trkpt>
      <trkpt lat="43.31385167" lon="-4.37900833">
        <ele>315.0</ele>
        <time>2018-05-19T07:56:47.872Z</time>
      </trkpt>
      <trkpt lat="43.31384833" lon="-4.37904333">
        <ele>315.0</ele>
        <time>2018-05-19T07:56:48.855Z</time>
      </trkpt>
      <trkpt lat="43.31384333" lon="-4.37907833">
        <ele>316.0</ele>
        <time>2018-05-19T07:56:49.883Z</time>
      </trkpt>
      <trkpt lat="43.31384333" lon="-4.37907833">
        <ele>316.0</ele>
        <time>2018-05-19T07:56:50.878Z</time>
      </trkpt>
      <trkpt lat="43.31383167" lon="-4.37915667">
        <ele>316.0</ele>
        <time>2018-05-19T07:56:51.882Z</time>
      </trkpt>
      <trkpt lat="43.31383167" lon="-4.37915667">
        <ele>316.0</ele>
        <time>2018-05-19T07:56:52.878Z</time>
      </trkpt>
      <trkpt lat="43.31381667" lon="-4.37923667">
        <ele>316.0</ele>
        <time>2018-05-19T07:56:53.881Z</time>
      </trkpt>
      <trkpt lat="43.31381667" lon="-4.37923667">
        <ele>316.0</ele>
        <time>2018-05-19T07:56:54.879Z</time>
      </trkpt>
      <trkpt lat="43.31380333" lon="-4.37931">
        <ele>315.0</ele>
        <time>2018-05-19T07:56:55.882Z</time>
      </trkpt>
      <trkpt lat="43.31380333" lon="-4.37931">
        <ele>315.0</ele>
        <time>2018-05-19T07:56:56.879Z</time>
      </trkpt>
      <trkpt lat="43.31378667" lon="-4.37938667">
        <ele>315.0</ele>
        <time>2018-05-19T07:56:57.882Z</time>
      </trkpt>
      <trkpt lat="43.31378667" lon="-4.37938667">
        <ele>315.0</ele>
        <time>2018-05-19T07:56:58.879Z</time>
      </trkpt>
      <trkpt lat="43.31376667" lon="-4.37946">
        <ele>316.0</ele>
        <time>2018-05-19T07:56:59.882Z</time>
      </trkpt>
      <trkpt lat="43.31376667" lon="-4.37946">
        <ele>316.0</ele>
        <time>2018-05-19T07:57:00.876Z</time>
      </trkpt>
      <trkpt lat="43.313745" lon="-4.37953">
        <ele>316.0</ele>
        <time>2018-05-19T07:57:01.865Z</time>
      </trkpt>
      <trkpt lat="43.313745" lon="-4.37953">
        <ele>316.0</ele>
        <time>2018-05-19T07:57:02.851Z</time>
      </trkpt>
      <trkpt lat="43.31371833" lon="-4.37959167">
        <ele>316.0</ele>
        <time>2018-05-19T07:57:03.882Z</time>
      </trkpt>
      <trkpt lat="43.31371833" lon="-4.37959167">
        <ele>316.0</ele>
        <time>2018-05-19T07:57:04.873Z</time>
      </trkpt>
      <trkpt lat="43.31368833" lon="-4.37964167">
        <ele>315.0</ele>
        <time>2018-05-19T07:57:05.855Z</time>
      </trkpt>
      <trkpt lat="43.31368833" lon="-4.37964167">
        <ele>315.0</ele>
        <time>2018-05-19T07:57:06.880Z</time>
      </trkpt>
      <trkpt lat="43.31364667" lon="-4.379725">
        <ele>314.0</ele>
        <time>2018-05-19T07:57:07.882Z</time>
      </trkpt>
      <trkpt lat="43.31364667" lon="-4.379725">
        <ele>314.0</ele>
        <time>2018-05-19T07:57:08.879Z</time>
      </trkpt>
      <trkpt lat="43.31358833" lon="-4.37986">
        <ele>313.0</ele>
        <time>2018-05-19T07:57:09.882Z</time>
      </trkpt>
      <trkpt lat="43.31358833" lon="-4.37986">
        <ele>313.0</ele>
        <time>2018-05-19T07:57:10.872Z</time>
      </trkpt>
      <trkpt lat="43.31353833" lon="-4.38001833">
        <ele>312.0</ele>
        <time>2018-05-19T07:57:11.859Z</time>
      </trkpt>
      <trkpt lat="43.31351667" lon="-4.38010167">
        <ele>312.0</ele>
        <time>2018-05-19T07:57:12.847Z</time>
      </trkpt>
      <trkpt lat="43.31351667" lon="-4.38010167">
        <ele>312.0</ele>
        <time>2018-05-19T07:57:13.878Z</time>
      </trkpt>
      <trkpt lat="43.313465" lon="-4.380275">
        <ele>312.0</ele>
        <time>2018-05-19T07:57:14.865Z</time>
      </trkpt>
      <trkpt lat="43.313445" lon="-4.38036333">
        <ele>311.0</ele>
        <time>2018-05-19T07:57:15.851Z</time>
      </trkpt>
      <trkpt lat="43.313445" lon="-4.38036333">
        <ele>311.0</ele>
        <time>2018-05-19T07:57:16.883Z</time>
      </trkpt>
      <trkpt lat="43.313395" lon="-4.38053833">
        <ele>311.0</ele>
        <time>2018-05-19T07:57:17.881Z</time>
      </trkpt>
      <trkpt lat="43.313395" lon="-4.38053833">
        <ele>311.0</ele>
        <time>2018-05-19T07:57:18.879Z</time>
      </trkpt>
      <trkpt lat="43.31333833" lon="-4.380695">
        <ele>311.0</ele>
        <time>2018-05-19T07:57:19.882Z</time>
      </trkpt>
      <trkpt lat="43.31333833" lon="-4.380695">
        <ele>311.0</ele>
        <time>2018-05-19T07:57:20.857Z</time>
      </trkpt>
      <trkpt lat="43.31329333" lon="-4.38084333">
        <ele>310.0</ele>
        <time>2018-05-19T07:57:21.883Z</time>
      </trkpt>
      <trkpt lat="43.31327" lon="-4.38091333">
        <ele>310.0</ele>
        <time>2018-05-19T07:57:22.882Z</time>
      </trkpt>
      <trkpt lat="43.31327" lon="-4.38091333">
        <ele>310.0</ele>
        <time>2018-05-19T07:57:23.878Z</time>
      </trkpt>
      <trkpt lat="43.31322833" lon="-4.38100833">
        <ele>309.0</ele>
        <time>2018-05-19T07:57:24.881Z</time>
      </trkpt>
      <trkpt lat="43.31321333" lon="-4.38103667">
        <ele>309.0</ele>
        <time>2018-05-19T07:57:25.882Z</time>
      </trkpt>
      <trkpt lat="43.31320333" lon="-4.38106167">
        <ele>309.0</ele>
        <time>2018-05-19T07:57:26.882Z</time>
      </trkpt>
      <trkpt lat="43.31320333" lon="-4.38106167">
        <ele>309.0</ele>
        <time>2018-05-19T07:57:27.879Z</time>
      </trkpt>
      <trkpt lat="43.313175" lon="-4.38112333">
        <ele>309.0</ele>
        <time>2018-05-19T07:57:28.880Z</time>
      </trkpt>
      <trkpt lat="43.313175" lon="-4.38112333">
        <ele>309.0</ele>
        <time>2018-05-19T07:57:29.878Z</time>
      </trkpt>
      <trkpt lat="43.31314" lon="-4.38119167">
        <ele>309.0</ele>
        <time>2018-05-19T07:57:30.881Z</time>
      </trkpt>
      <trkpt lat="43.31314" lon="-4.38119167">
        <ele>309.0</ele>
        <time>2018-05-19T07:57:31.875Z</time>
      </trkpt>
      <trkpt lat="43.31307167" lon="-4.38127">
        <ele>309.0</ele>
        <time>2018-05-19T07:57:32.881Z</time>
      </trkpt>
      <trkpt lat="43.31307167" lon="-4.38127">
        <ele>309.0</ele>
        <time>2018-05-19T07:57:33.877Z</time>
      </trkpt>
      <trkpt lat="43.31297167" lon="-4.38134">
        <ele>308.0</ele>
        <time>2018-05-19T07:57:34.850Z</time>
      </trkpt>
      <trkpt lat="43.31297167" lon="-4.38134">
        <ele>308.0</ele>
        <time>2018-05-19T07:57:35.879Z</time>
      </trkpt>
      <trkpt lat="43.31285333" lon="-4.381405">
        <ele>307.0</ele>
        <time>2018-05-19T07:57:36.881Z</time>
      </trkpt>
      <trkpt lat="43.31279" lon="-4.38143667">
        <ele>307.0</ele>
        <time>2018-05-19T07:57:37.882Z</time>
      </trkpt>
      <trkpt lat="43.31279" lon="-4.38143667">
        <ele>307.0</ele>
        <time>2018-05-19T07:57:38.851Z</time>
      </trkpt>
      <trkpt lat="43.31266333" lon="-4.38149667">
        <ele>306.0</ele>
        <time>2018-05-19T07:57:39.881Z</time>
      </trkpt>
      <trkpt lat="43.31266333" lon="-4.38149667">
        <ele>306.0</ele>
        <time>2018-05-19T07:57:40.879Z</time>
      </trkpt>
      <trkpt lat="43.31254167" lon="-4.38156">
        <ele>304.0</ele>
        <time>2018-05-19T07:57:41.883Z</time>
      </trkpt>
      <trkpt lat="43.31254167" lon="-4.38156">
        <ele>304.0</ele>
        <time>2018-05-19T07:57:42.878Z</time>
      </trkpt>
      <trkpt lat="43.31241667" lon="-4.38162833">
        <ele>302.0</ele>
        <time>2018-05-19T07:57:43.883Z</time>
      </trkpt>
      <trkpt lat="43.31241667" lon="-4.38162833">
        <ele>302.0</ele>
        <time>2018-05-19T07:57:44.879Z</time>
      </trkpt>
      <trkpt lat="43.31229" lon="-4.38172167">
        <ele>301.0</ele>
        <time>2018-05-19T07:57:45.859Z</time>
      </trkpt>
      <trkpt lat="43.31223667" lon="-4.38178833">
        <ele>301.0</ele>
        <time>2018-05-19T07:57:46.882Z</time>
      </trkpt>
      <trkpt lat="43.31223667" lon="-4.38178833">
        <ele>301.0</ele>
        <time>2018-05-19T07:57:47.880Z</time>
      </trkpt>
      <trkpt lat="43.31215667" lon="-4.38194">
        <ele>301.0</ele>
        <time>2018-05-19T07:57:48.881Z</time>
      </trkpt>
      <trkpt lat="43.31212167" lon="-4.38201167">
        <ele>301.0</ele>
        <time>2018-05-19T07:57:49.882Z</time>
      </trkpt>
      <trkpt lat="43.31212167" lon="-4.38201167">
        <ele>301.0</ele>
        <time>2018-05-19T07:57:50.877Z</time>
      </trkpt>
      <trkpt lat="43.31207" lon="-4.38214333">
        <ele>302.0</ele>
        <time>2018-05-19T07:57:51.865Z</time>
      </trkpt>
      <trkpt lat="43.31205833" lon="-4.38220667">
        <ele>302.0</ele>
        <time>2018-05-19T07:57:52.849Z</time>
      </trkpt>
      <trkpt lat="43.31205833" lon="-4.38220667">
        <ele>302.0</ele>
        <time>2018-05-19T07:57:53.879Z</time>
      </trkpt>
      <trkpt lat="43.312045" lon="-4.38232833">
        <ele>302.0</ele>
        <time>2018-05-19T07:57:54.878Z</time>
      </trkpt>
      <trkpt lat="43.31203833" lon="-4.382385">
        <ele>302.0</ele>
        <time>2018-05-19T07:57:55.882Z</time>
      </trkpt>
      <trkpt lat="43.31203833" lon="-4.382385">
        <ele>302.0</ele>
        <time>2018-05-19T07:57:56.878Z</time>
      </trkpt>
      <trkpt lat="43.31202667" lon="-4.38249167">
        <ele>303.0</ele>
        <time>2018-05-19T07:57:57.882Z</time>
      </trkpt>
      <trkpt lat="43.31202667" lon="-4.38249167">
        <ele>303.0</ele>
        <time>2018-05-19T07:57:58.878Z</time>
      </trkpt>
      <trkpt lat="43.31202333" lon="-4.38259333">
        <ele>303.0</ele>
        <time>2018-05-19T07:57:59.881Z</time>
      </trkpt>
      <trkpt lat="43.31202333" lon="-4.38259333">
        <ele>303.0</ele>
        <time>2018-05-19T07:58:00.878Z</time>
      </trkpt>
      <trkpt lat="43.312015" lon="-4.38268667">
        <ele>304.0</ele>
        <time>2018-05-19T07:58:01.882Z</time>
      </trkpt>
      <trkpt lat="43.31201" lon="-4.38273167">
        <ele>304.0</ele>
        <time>2018-05-19T07:58:02.844Z</time>
      </trkpt>
      <trkpt lat="43.31201" lon="-4.38273167">
        <ele>304.0</ele>
        <time>2018-05-19T07:58:03.866Z</time>
      </trkpt>
      <trkpt lat="43.31199833" lon="-4.38281333">
        <ele>305.0</ele>
        <time>2018-05-19T07:58:04.873Z</time>
      </trkpt>
      <trkpt lat="43.311995" lon="-4.38285333">
        <ele>305.0</ele>
        <time>2018-05-19T07:58:05.880Z</time>
      </trkpt>
      <trkpt lat="43.311995" lon="-4.38285333">
        <ele>305.0</ele>
        <time>2018-05-19T07:58:06.846Z</time>
      </trkpt>
      <trkpt lat="43.31199" lon="-4.38293167">
        <ele>306.0</ele>
        <time>2018-05-19T07:58:07.879Z</time>
      </trkpt>
      <trkpt lat="43.31199" lon="-4.38293167">
        <ele>306.0</ele>
        <time>2018-05-19T07:58:08.876Z</time>
      </trkpt>
      <trkpt lat="43.31198667" lon="-4.38300667">
        <ele>306.0</ele>
        <time>2018-05-19T07:58:09.881Z</time>
      </trkpt>
      <trkpt lat="43.31198667" lon="-4.38300667">
        <ele>306.0</ele>
        <time>2018-05-19T07:58:10.845Z</time>
      </trkpt>
      <trkpt lat="43.311985" lon="-4.38307667">
        <ele>306.0</ele>
        <time>2018-05-19T07:58:11.881Z</time>
      </trkpt>
      <trkpt lat="43.311985" lon="-4.38307667">
        <ele>306.0</ele>
        <time>2018-05-19T07:58:12.854Z</time>
      </trkpt>
      <trkpt lat="43.31198833" lon="-4.38314667">
        <ele>307.0</ele>
        <time>2018-05-19T07:58:13.882Z</time>
      </trkpt>
      <trkpt lat="43.31198833" lon="-4.38314667">
        <ele>307.0</ele>
        <time>2018-05-19T07:58:14.879Z</time>
      </trkpt>
      <trkpt lat="43.31198667" lon="-4.38321333">
        <ele>307.0</ele>
        <time>2018-05-19T07:58:15.881Z</time>
      </trkpt>
      <trkpt lat="43.31198667" lon="-4.38321333">
        <ele>307.0</ele>
        <time>2018-05-19T07:58:16.878Z</time>
      </trkpt>
      <trkpt lat="43.31198333" lon="-4.38328167">
        <ele>308.0</ele>
        <time>2018-05-19T07:58:17.881Z</time>
      </trkpt>
      <trkpt lat="43.31198333" lon="-4.38328167">
        <ele>308.0</ele>
        <time>2018-05-19T07:58:18.878Z</time>
      </trkpt>
      <trkpt lat="43.31197833" lon="-4.38335167">
        <ele>308.0</ele>
        <time>2018-05-19T07:58:19.882Z</time>
      </trkpt>
      <trkpt lat="43.31197833" lon="-4.38335167">
        <ele>308.0</ele>
        <time>2018-05-19T07:58:20.886Z</time>
      </trkpt>
      <trkpt lat="43.31197167" lon="-4.38342333">
        <ele>308.0</ele>
        <time>2018-05-19T07:58:21.881Z</time>
      </trkpt>
      <trkpt lat="43.31197167" lon="-4.38342333">
        <ele>308.0</ele>
        <time>2018-05-19T07:58:22.879Z</time>
      </trkpt>
      <trkpt lat="43.31197" lon="-4.3835">
        <ele>309.0</ele>
        <time>2018-05-19T07:58:23.882Z</time>
      </trkpt>
      <trkpt lat="43.31197" lon="-4.3835">
        <ele>309.0</ele>
        <time>2018-05-19T07:58:24.878Z</time>
      </trkpt>
      <trkpt lat="43.31196667" lon="-4.38357667">
        <ele>309.0</ele>
        <time>2018-05-19T07:58:25.881Z</time>
      </trkpt>
      <trkpt lat="43.31196667" lon="-4.38357667">
        <ele>309.0</ele>
        <time>2018-05-19T07:58:26.877Z</time>
      </trkpt>
      <trkpt lat="43.31196667" lon="-4.383655">
        <ele>309.0</ele>
        <time>2018-05-19T07:58:27.881Z</time>
      </trkpt>
      <trkpt lat="43.31196667" lon="-4.383655">
        <ele>309.0</ele>
        <time>2018-05-19T07:58:28.879Z</time>
      </trkpt>
      <trkpt lat="43.31196" lon="-4.38372833">
        <ele>310.0</ele>
        <time>2018-05-19T07:58:29.881Z</time>
      </trkpt>
      <trkpt lat="43.31196" lon="-4.38372833">
        <ele>310.0</ele>
        <time>2018-05-19T07:58:30.876Z</time>
      </trkpt>
      <trkpt lat="43.311955" lon="-4.3838">
        <ele>310.0</ele>
        <time>2018-05-19T07:58:31.846Z</time>
      </trkpt>
      <trkpt lat="43.311955" lon="-4.3838">
        <ele>310.0</ele>
        <time>2018-05-19T07:58:32.875Z</time>
      </trkpt>
      <trkpt lat="43.31195167" lon="-4.38387">
        <ele>310.0</ele>
        <time>2018-05-19T07:58:33.881Z</time>
      </trkpt>
      <trkpt lat="43.31195167" lon="-4.38387">
        <ele>310.0</ele>
        <time>2018-05-19T07:58:34.877Z</time>
      </trkpt>
      <trkpt lat="43.31194833" lon="-4.38394">
        <ele>310.0</ele>
        <time>2018-05-19T07:58:35.881Z</time>
      </trkpt>
      <trkpt lat="43.31194833" lon="-4.38394">
        <ele>310.0</ele>
        <time>2018-05-19T07:58:36.875Z</time>
      </trkpt>
      <trkpt lat="43.31194167" lon="-4.38401">
        <ele>311.0</ele>
        <time>2018-05-19T07:58:37.881Z</time>
      </trkpt>
      <trkpt lat="43.31194167" lon="-4.38401">
        <ele>311.0</ele>
        <time>2018-05-19T07:58:38.877Z</time>
      </trkpt>
      <trkpt lat="43.311935" lon="-4.38407667">
        <ele>311.0</ele>
        <time>2018-05-19T07:58:39.853Z</time>
      </trkpt>
      <trkpt lat="43.311935" lon="-4.38407667">
        <ele>311.0</ele>
        <time>2018-05-19T07:58:40.878Z</time>
      </trkpt>
      <trkpt lat="43.311925" lon="-4.384145">
        <ele>312.0</ele>
        <time>2018-05-19T07:58:41.881Z</time>
      </trkpt>
      <trkpt lat="43.311925" lon="-4.384145">
        <ele>312.0</ele>
        <time>2018-05-19T07:58:42.878Z</time>
      </trkpt>
      <trkpt lat="43.311915" lon="-4.38421167">
        <ele>312.0</ele>
        <time>2018-05-19T07:58:43.882Z</time>
      </trkpt>
      <trkpt lat="43.31191167" lon="-4.384245">
        <ele>313.0</ele>
        <time>2018-05-19T07:58:44.884Z</time>
      </trkpt>
      <trkpt lat="43.31191167" lon="-4.384245">
        <ele>313.0</ele>
        <time>2018-05-19T07:58:45.859Z</time>
      </trkpt>
      <trkpt lat="43.311905" lon="-4.38431167">
        <ele>313.0</ele>
        <time>2018-05-19T07:58:46.850Z</time>
      </trkpt>
      <trkpt lat="43.31190333" lon="-4.384345">
        <ele>313.0</ele>
        <time>2018-05-19T07:58:47.881Z</time>
      </trkpt>
      <trkpt lat="43.31190333" lon="-4.384345">
        <ele>313.0</ele>
        <time>2018-05-19T07:58:48.878Z</time>
      </trkpt>
      <trkpt lat="43.3119" lon="-4.384415">
        <ele>314.0</ele>
        <time>2018-05-19T07:58:49.881Z</time>
      </trkpt>
      <trkpt lat="43.3119" lon="-4.384415">
        <ele>314.0</ele>
        <time>2018-05-19T07:58:50.878Z</time>
      </trkpt>
      <trkpt lat="43.31189833" lon="-4.384485">
        <ele>314.0</ele>
        <time>2018-05-19T07:58:51.881Z</time>
      </trkpt>
      <trkpt lat="43.31189667" lon="-4.38452167">
        <ele>314.0</ele>
        <time>2018-05-19T07:58:52.881Z</time>
      </trkpt>
      <trkpt lat="43.31189667" lon="-4.38452167">
        <ele>314.0</ele>
        <time>2018-05-19T07:58:53.876Z</time>
      </trkpt>
      <trkpt lat="43.31189" lon="-4.38459333">
        <ele>314.0</ele>
        <time>2018-05-19T07:58:54.882Z</time>
      </trkpt>
      <trkpt lat="43.31189" lon="-4.38459333">
        <ele>314.0</ele>
        <time>2018-05-19T07:58:55.879Z</time>
      </trkpt>
      <trkpt lat="43.31188" lon="-4.38466167">
        <ele>315.0</ele>
        <time>2018-05-19T07:58:56.866Z</time>
      </trkpt>
      <trkpt lat="43.31188" lon="-4.38466167">
        <ele>315.0</ele>
        <time>2018-05-19T07:58:57.851Z</time>
      </trkpt>
      <trkpt lat="43.31187667" lon="-4.38473">
        <ele>315.0</ele>
        <time>2018-05-19T07:58:58.883Z</time>
      </trkpt>
      <trkpt lat="43.31187667" lon="-4.38473">
        <ele>315.0</ele>
        <time>2018-05-19T07:58:59.879Z</time>
      </trkpt>
      <trkpt lat="43.31187" lon="-4.38479667">
        <ele>315.0</ele>
        <time>2018-05-19T07:59:00.880Z</time>
      </trkpt>
      <trkpt lat="43.31187" lon="-4.38479667">
        <ele>315.0</ele>
        <time>2018-05-19T07:59:01.851Z</time>
      </trkpt>
      <trkpt lat="43.31186333" lon="-4.38486333">
        <ele>316.0</ele>
        <time>2018-05-19T07:59:02.881Z</time>
      </trkpt>
      <trkpt lat="43.31186" lon="-4.38489667">
        <ele>316.0</ele>
        <time>2018-05-19T07:59:03.847Z</time>
      </trkpt>
      <trkpt lat="43.31186" lon="-4.38489667">
        <ele>316.0</ele>
        <time>2018-05-19T07:59:04.879Z</time>
      </trkpt>
      <trkpt lat="43.31185167" lon="-4.38496333">
        <ele>316.0</ele>
        <time>2018-05-19T07:59:05.881Z</time>
      </trkpt>
      <trkpt lat="43.31185167" lon="-4.38496333">
        <ele>316.0</ele>
        <time>2018-05-19T07:59:06.876Z</time>
      </trkpt>
      <trkpt lat="43.311845" lon="-4.38502667">
        <ele>317.0</ele>
        <time>2018-05-19T07:59:07.882Z</time>
      </trkpt>
      <trkpt lat="43.311845" lon="-4.38502667">
        <ele>317.0</ele>
        <time>2018-05-19T07:59:08.883Z</time>
      </trkpt>
      <trkpt lat="43.31183667" lon="-4.38509333">
        <ele>317.0</ele>
        <time>2018-05-19T07:59:09.882Z</time>
      </trkpt>
      <trkpt lat="43.31183667" lon="-4.38509333">
        <ele>317.0</ele>
        <time>2018-05-19T07:59:10.879Z</time>
      </trkpt>
      <trkpt lat="43.31183" lon="-4.385165">
        <ele>317.0</ele>
        <time>2018-05-19T07:59:11.857Z</time>
      </trkpt>
      <trkpt lat="43.31182667" lon="-4.38520333">
        <ele>318.0</ele>
        <time>2018-05-19T07:59:12.846Z</time>
      </trkpt>
      <trkpt lat="43.31182667" lon="-4.38520333">
        <ele>318.0</ele>
        <time>2018-05-19T07:59:13.879Z</time>
      </trkpt>
      <trkpt lat="43.31182" lon="-4.38528167">
        <ele>318.0</ele>
        <time>2018-05-19T07:59:14.880Z</time>
      </trkpt>
      <trkpt lat="43.31181667" lon="-4.38532">
        <ele>318.0</ele>
        <time>2018-05-19T07:59:15.881Z</time>
      </trkpt>
      <trkpt lat="43.31181667" lon="-4.38532">
        <ele>318.0</ele>
        <time>2018-05-19T07:59:16.876Z</time>
      </trkpt>
      <trkpt lat="43.31181167" lon="-4.38539667">
        <ele>319.0</ele>
        <time>2018-05-19T07:59:17.880Z</time>
      </trkpt>
      <trkpt lat="43.31181167" lon="-4.38539667">
        <ele>319.0</ele>
        <time>2018-05-19T07:59:18.878Z</time>
      </trkpt>
      <trkpt lat="43.311805" lon="-4.385475">
        <ele>319.0</ele>
        <time>2018-05-19T07:59:19.881Z</time>
      </trkpt>
      <trkpt lat="43.311805" lon="-4.385475">
        <ele>319.0</ele>
        <time>2018-05-19T07:59:20.875Z</time>
      </trkpt>
      <trkpt lat="43.31180333" lon="-4.385555">
        <ele>319.0</ele>
        <time>2018-05-19T07:59:21.844Z</time>
      </trkpt>
      <trkpt lat="43.31180333" lon="-4.385555">
        <ele>319.0</ele>
        <time>2018-05-19T07:59:22.878Z</time>
      </trkpt>
      <trkpt lat="43.31179667" lon="-4.385635">
        <ele>320.0</ele>
        <time>2018-05-19T07:59:23.881Z</time>
      </trkpt>
      <trkpt lat="43.31179667" lon="-4.385635">
        <ele>320.0</ele>
        <time>2018-05-19T07:59:24.880Z</time>
      </trkpt>
      <trkpt lat="43.31179167" lon="-4.38571333">
        <ele>320.0</ele>
        <time>2018-05-19T07:59:25.882Z</time>
      </trkpt>
      <trkpt lat="43.31178833" lon="-4.38575167">
        <ele>320.0</ele>
        <time>2018-05-19T07:59:26.864Z</time>
      </trkpt>
      <trkpt lat="43.31178833" lon="-4.38575167">
        <ele>320.0</ele>
        <time>2018-05-19T07:59:27.846Z</time>
      </trkpt>
      <trkpt lat="43.31178167" lon="-4.38582833">
        <ele>321.0</ele>
        <time>2018-05-19T07:59:28.880Z</time>
      </trkpt>
      <trkpt lat="43.31177833" lon="-4.38586833">
        <ele>321.0</ele>
        <time>2018-05-19T07:59:29.882Z</time>
      </trkpt>
      <trkpt lat="43.31177833" lon="-4.38586833">
        <ele>321.0</ele>
        <time>2018-05-19T07:59:30.865Z</time>
      </trkpt>
      <trkpt lat="43.31177167" lon="-4.38594833">
        <ele>321.0</ele>
        <time>2018-05-19T07:59:31.882Z</time>
      </trkpt>
      <trkpt lat="43.31177167" lon="-4.38594833">
        <ele>321.0</ele>
        <time>2018-05-19T07:59:32.878Z</time>
      </trkpt>
      <trkpt lat="43.31176167" lon="-4.38602833">
        <ele>321.0</ele>
        <time>2018-05-19T07:59:33.881Z</time>
      </trkpt>
      <trkpt lat="43.31176167" lon="-4.38602833">
        <ele>321.0</ele>
        <time>2018-05-19T07:59:34.879Z</time>
      </trkpt>
      <trkpt lat="43.31175333" lon="-4.38611333">
        <ele>322.0</ele>
        <time>2018-05-19T07:59:35.880Z</time>
      </trkpt>
      <trkpt lat="43.31175" lon="-4.386155">
        <ele>322.0</ele>
        <time>2018-05-19T07:59:36.881Z</time>
      </trkpt>
      <trkpt lat="43.31175" lon="-4.386155">
        <ele>322.0</ele>
        <time>2018-05-19T07:59:37.879Z</time>
      </trkpt>
      <trkpt lat="43.311745" lon="-4.38623667">
        <ele>322.0</ele>
        <time>2018-05-19T07:59:38.881Z</time>
      </trkpt>
      <trkpt lat="43.31174167" lon="-4.38627667">
        <ele>322.0</ele>
        <time>2018-05-19T07:59:39.882Z</time>
      </trkpt>
      <trkpt lat="43.31174167" lon="-4.38627667">
        <ele>322.0</ele>
        <time>2018-05-19T07:59:40.876Z</time>
      </trkpt>
      <trkpt lat="43.311735" lon="-4.38636167">
        <ele>322.0</ele>
        <time>2018-05-19T07:59:41.864Z</time>
      </trkpt>
      <trkpt lat="43.31173167" lon="-4.38640333">
        <ele>322.0</ele>
        <time>2018-05-19T07:59:42.849Z</time>
      </trkpt>
      <trkpt lat="43.31172833" lon="-4.38644833">
        <ele>323.0</ele>
        <time>2018-05-19T07:59:43.882Z</time>
      </trkpt>
      <trkpt lat="43.31172833" lon="-4.38644833">
        <ele>323.0</ele>
        <time>2018-05-19T07:59:44.876Z</time>
      </trkpt>
      <trkpt lat="43.31172667" lon="-4.38653833">
        <ele>323.0</ele>
        <time>2018-05-19T07:59:45.864Z</time>
      </trkpt>
      <trkpt lat="43.311725" lon="-4.386585">
        <ele>323.0</ele>
        <time>2018-05-19T07:59:46.847Z</time>
      </trkpt>
      <trkpt lat="43.311725" lon="-4.386585">
        <ele>323.0</ele>
        <time>2018-05-19T07:59:47.878Z</time>
      </trkpt>
      <trkpt lat="43.31172167" lon="-4.38667833">
        <ele>323.0</ele>
        <time>2018-05-19T07:59:48.881Z</time>
      </trkpt>
      <trkpt lat="43.31172" lon="-4.38672667">
        <ele>323.0</ele>
        <time>2018-05-19T07:59:49.883Z</time>
      </trkpt>
      <trkpt lat="43.31172" lon="-4.38672667">
        <ele>323.0</ele>
        <time>2018-05-19T07:59:50.878Z</time>
      </trkpt>
      <trkpt lat="43.311715" lon="-4.38682">
        <ele>323.0</ele>
        <time>2018-05-19T07:59:51.845Z</time>
      </trkpt>
      <trkpt lat="43.311715" lon="-4.38682">
        <ele>323.0</ele>
        <time>2018-05-19T07:59:52.879Z</time>
      </trkpt>
      <trkpt lat="43.31171" lon="-4.386915">
        <ele>324.0</ele>
        <time>2018-05-19T07:59:53.878Z</time>
      </trkpt>
      <trkpt lat="43.31171" lon="-4.38696167">
        <ele>324.0</ele>
        <time>2018-05-19T07:59:54.880Z</time>
      </trkpt>
      <trkpt lat="43.31171" lon="-4.38696167">
        <ele>324.0</ele>
        <time>2018-05-19T07:59:55.879Z</time>
      </trkpt>
      <trkpt lat="43.31170333" lon="-4.38706">
        <ele>324.0</ele>
        <time>2018-05-19T07:59:56.881Z</time>
      </trkpt>
      <trkpt lat="43.3117" lon="-4.38710667">
        <ele>324.0</ele>
        <time>2018-05-19T07:59:57.881Z</time>
      </trkpt>
      <trkpt lat="43.3117" lon="-4.38710667">
        <ele>324.0</ele>
        <time>2018-05-19T07:59:58.879Z</time>
      </trkpt>
      <trkpt lat="43.31169667" lon="-4.387205">
        <ele>325.0</ele>
        <time>2018-05-19T07:59:59.880Z</time>
      </trkpt>
      <trkpt lat="43.31169667" lon="-4.387205">
        <ele>325.0</ele>
        <time>2018-05-19T08:00:00.882Z</time>
      </trkpt>
      <trkpt lat="43.31169833" lon="-4.38730667">
        <ele>325.0</ele>
        <time>2018-05-19T08:00:01.847Z</time>
      </trkpt>
      <trkpt lat="43.31169833" lon="-4.38730667">
        <ele>325.0</ele>
        <time>2018-05-19T08:00:02.875Z</time>
      </trkpt>
      <trkpt lat="43.311695" lon="-4.38741">
        <ele>325.0</ele>
        <time>2018-05-19T08:00:03.880Z</time>
      </trkpt>
      <trkpt lat="43.311695" lon="-4.38741">
        <ele>325.0</ele>
        <time>2018-05-19T08:00:04.879Z</time>
      </trkpt>
      <trkpt lat="43.31168833" lon="-4.38751833">
        <ele>325.0</ele>
        <time>2018-05-19T08:00:05.881Z</time>
      </trkpt>
      <trkpt lat="43.31168833" lon="-4.38751833">
        <ele>325.0</ele>
        <time>2018-05-19T08:00:06.878Z</time>
      </trkpt>
      <trkpt lat="43.31168" lon="-4.38763">
        <ele>325.0</ele>
        <time>2018-05-19T08:00:07.881Z</time>
      </trkpt>
      <trkpt lat="43.31168" lon="-4.38763">
        <ele>325.0</ele>
        <time>2018-05-19T08:00:08.878Z</time>
      </trkpt>
      <trkpt lat="43.311675" lon="-4.38774667">
        <ele>325.0</ele>
        <time>2018-05-19T08:00:09.881Z</time>
      </trkpt>
      <trkpt lat="43.311675" lon="-4.38774667">
        <ele>325.0</ele>
        <time>2018-05-19T08:00:10.878Z</time>
      </trkpt>
      <trkpt lat="43.31167333" lon="-4.38787">
        <ele>325.0</ele>
        <time>2018-05-19T08:00:11.852Z</time>
      </trkpt>
      <trkpt lat="43.311675" lon="-4.38793333">
        <ele>325.0</ele>
        <time>2018-05-19T08:00:12.881Z</time>
      </trkpt>
      <trkpt lat="43.311675" lon="-4.38793333">
        <ele>325.0</ele>
        <time>2018-05-19T08:00:13.879Z</time>
      </trkpt>
      <trkpt lat="43.311675" lon="-4.38806667">
        <ele>325.0</ele>
        <time>2018-05-19T08:00:14.880Z</time>
      </trkpt>
      <trkpt lat="43.31167667" lon="-4.388135">
        <ele>325.0</ele>
        <time>2018-05-19T08:00:15.881Z</time>
      </trkpt>
      <trkpt lat="43.31167667" lon="-4.388135">
        <ele>325.0</ele>
        <time>2018-05-19T08:00:16.876Z</time>
      </trkpt>
      <trkpt lat="43.31167833" lon="-4.38827167">
        <ele>325.0</ele>
        <time>2018-05-19T08:00:17.880Z</time>
      </trkpt>
      <trkpt lat="43.31167833" lon="-4.38827167">
        <ele>325.0</ele>
        <time>2018-05-19T08:00:18.878Z</time>
      </trkpt>
      <trkpt lat="43.31168" lon="-4.38841833">
        <ele>325.0</ele>
        <time>2018-05-19T08:00:19.879Z</time>
      </trkpt>
      <trkpt lat="43.31168" lon="-4.38841833">
        <ele>325.0</ele>
        <time>2018-05-19T08:00:20.876Z</time>
      </trkpt>
      <trkpt lat="43.31168667" lon="-4.38857333">
        <ele>325.0</ele>
        <time>2018-05-19T08:00:21.881Z</time>
      </trkpt>
      <trkpt lat="43.31168667" lon="-4.38857333">
        <ele>325.0</ele>
        <time>2018-05-19T08:00:22.878Z</time>
      </trkpt>
      <trkpt lat="43.31169667" lon="-4.38873">
        <ele>324.0</ele>
        <time>2018-05-19T08:00:23.880Z</time>
      </trkpt>
      <trkpt lat="43.3117" lon="-4.38881167">
        <ele>324.0</ele>
        <time>2018-05-19T08:00:24.878Z</time>
      </trkpt>
      <trkpt lat="43.3117" lon="-4.38881167">
        <ele>324.0</ele>
        <time>2018-05-19T08:00:25.877Z</time>
      </trkpt>
      <trkpt lat="43.31170833" lon="-4.38898333">
        <ele>324.0</ele>
        <time>2018-05-19T08:00:26.880Z</time>
      </trkpt>
      <trkpt lat="43.31171" lon="-4.389075">
        <ele>324.0</ele>
        <time>2018-05-19T08:00:27.881Z</time>
      </trkpt>
      <trkpt lat="43.31171" lon="-4.389075">
        <ele>324.0</ele>
        <time>2018-05-19T08:00:28.878Z</time>
      </trkpt>
      <trkpt lat="43.31171" lon="-4.38925667">
        <ele>323.0</ele>
        <time>2018-05-19T08:00:29.881Z</time>
      </trkpt>
      <trkpt lat="43.31171" lon="-4.38925667">
        <ele>323.0</ele>
        <time>2018-05-19T08:00:30.878Z</time>
      </trkpt>
      <trkpt lat="43.31171" lon="-4.389435">
        <ele>323.0</ele>
        <time>2018-05-19T08:00:31.874Z</time>
      </trkpt>
      <trkpt lat="43.31171" lon="-4.389435">
        <ele>323.0</ele>
        <time>2018-05-19T08:00:32.879Z</time>
      </trkpt>
      <trkpt lat="43.311705" lon="-4.389615">
        <ele>323.0</ele>
        <time>2018-05-19T08:00:33.881Z</time>
      </trkpt>
      <trkpt lat="43.311705" lon="-4.389615">
        <ele>323.0</ele>
        <time>2018-05-19T08:00:34.877Z</time>
      </trkpt>
      <trkpt lat="43.31169" lon="-4.38979667">
        <ele>323.0</ele>
        <time>2018-05-19T08:00:35.882Z</time>
      </trkpt>
      <trkpt lat="43.31169" lon="-4.38979667">
        <ele>323.0</ele>
        <time>2018-05-19T08:00:36.879Z</time>
      </trkpt>
      <trkpt lat="43.31165833" lon="-4.38997333">
        <ele>323.0</ele>
        <time>2018-05-19T08:00:37.882Z</time>
      </trkpt>
      <trkpt lat="43.31165833" lon="-4.38997333">
        <ele>323.0</ele>
        <time>2018-05-19T08:00:38.878Z</time>
      </trkpt>
      <trkpt lat="43.311605" lon="-4.39013667">
        <ele>324.0</ele>
        <time>2018-05-19T08:00:39.846Z</time>
      </trkpt>
      <trkpt lat="43.311605" lon="-4.39013667">
        <ele>324.0</ele>
        <time>2018-05-19T08:00:40.878Z</time>
      </trkpt>
      <trkpt lat="43.311555" lon="-4.39029167">
        <ele>324.0</ele>
        <time>2018-05-19T08:00:41.881Z</time>
      </trkpt>
      <trkpt lat="43.31153333" lon="-4.39036833">
        <ele>324.0</ele>
        <time>2018-05-19T08:00:42.880Z</time>
      </trkpt>
      <trkpt lat="43.31153333" lon="-4.39036833">
        <ele>324.0</ele>
        <time>2018-05-19T08:00:43.876Z</time>
      </trkpt>
      <trkpt lat="43.31149" lon="-4.39052167">
        <ele>324.0</ele>
        <time>2018-05-19T08:00:44.882Z</time>
      </trkpt>
      <trkpt lat="43.31149" lon="-4.39052167">
        <ele>324.0</ele>
        <time>2018-05-19T08:00:45.858Z</time>
      </trkpt>
      <trkpt lat="43.31143667" lon="-4.390675">
        <ele>324.0</ele>
        <time>2018-05-19T08:00:46.880Z</time>
      </trkpt>
      <trkpt lat="43.31143667" lon="-4.390675">
        <ele>324.0</ele>
        <time>2018-05-19T08:00:47.846Z</time>
      </trkpt>
      <trkpt lat="43.31135333" lon="-4.39080167">
        <ele>324.0</ele>
        <time>2018-05-19T08:00:48.852Z</time>
      </trkpt>
      <trkpt lat="43.3113" lon="-4.39084">
        <ele>324.0</ele>
        <time>2018-05-19T08:00:49.882Z</time>
      </trkpt>
      <trkpt lat="43.3113" lon="-4.39084">
        <ele>324.0</ele>
        <time>2018-05-19T08:00:50.876Z</time>
      </trkpt>
      <trkpt lat="43.31117833" lon="-4.39086833">
        <ele>324.0</ele>
        <time>2018-05-19T08:00:51.864Z</time>
      </trkpt>
      <trkpt lat="43.31117833" lon="-4.39086833">
        <ele>324.0</ele>
        <time>2018-05-19T08:00:52.850Z</time>
      </trkpt>
      <trkpt lat="43.31105667" lon="-4.39085833">
        <ele>325.0</ele>
        <time>2018-05-19T08:00:53.857Z</time>
      </trkpt>
      <trkpt lat="43.31105667" lon="-4.39085833">
        <ele>325.0</ele>
        <time>2018-05-19T08:00:54.883Z</time>
      </trkpt>
      <trkpt lat="43.310935" lon="-4.39084167">
        <ele>325.0</ele>
        <time>2018-05-19T08:00:55.881Z</time>
      </trkpt>
      <trkpt lat="43.31087667" lon="-4.39083167">
        <ele>325.0</ele>
        <time>2018-05-19T08:00:56.881Z</time>
      </trkpt>
      <trkpt lat="43.31082167" lon="-4.39082">
        <ele>325.0</ele>
        <time>2018-05-19T08:00:57.881Z</time>
      </trkpt>
      <trkpt lat="43.31082167" lon="-4.39082">
        <ele>325.0</ele>
        <time>2018-05-19T08:00:58.880Z</time>
      </trkpt>
      <trkpt lat="43.31072667" lon="-4.390795">
        <ele>326.0</ele>
        <time>2018-05-19T08:00:59.880Z</time>
      </trkpt>
      <trkpt lat="43.31068667" lon="-4.390785">
        <ele>326.0</ele>
        <time>2018-05-19T08:01:00.881Z</time>
      </trkpt>
      <trkpt lat="43.31068667" lon="-4.390785">
        <ele>326.0</ele>
        <time>2018-05-19T08:01:01.879Z</time>
      </trkpt>
      <trkpt lat="43.310615" lon="-4.39076167">
        <ele>327.0</ele>
        <time>2018-05-19T08:01:02.881Z</time>
      </trkpt>
      <trkpt lat="43.31057833" lon="-4.390735">
        <ele>327.0</ele>
        <time>2018-05-19T08:01:03.881Z</time>
      </trkpt>
      <trkpt lat="43.31057833" lon="-4.390735">
        <ele>327.0</ele>
        <time>2018-05-19T08:01:04.878Z</time>
      </trkpt>
      <trkpt lat="43.31050667" lon="-4.39065167">
        <ele>327.0</ele>
        <time>2018-05-19T08:01:05.881Z</time>
      </trkpt>
      <trkpt lat="43.31050667" lon="-4.39065167">
        <ele>327.0</ele>
        <time>2018-05-19T08:01:06.876Z</time>
      </trkpt>
      <trkpt lat="43.310445" lon="-4.39053">
        <ele>327.0</ele>
        <time>2018-05-19T08:01:07.881Z</time>
      </trkpt>
      <trkpt lat="43.310445" lon="-4.39053">
        <ele>327.0</ele>
        <time>2018-05-19T08:01:08.878Z</time>
      </trkpt>
      <trkpt lat="43.3104" lon="-4.39037833">
        <ele>326.0</ele>
        <time>2018-05-19T08:01:09.881Z</time>
      </trkpt>
      <trkpt lat="43.3104" lon="-4.39037833">
        <ele>326.0</ele>
        <time>2018-05-19T08:01:10.878Z</time>
      </trkpt>
      <trkpt lat="43.31028833" lon="-4.39028667">
        <ele>325.0</ele>
        <time>2018-05-19T08:01:11.880Z</time>
      </trkpt>
      <trkpt lat="43.31028833" lon="-4.39028667">
        <ele>325.0</ele>
        <time>2018-05-19T08:01:12.857Z</time>
      </trkpt>
      <trkpt lat="43.31019167" lon="-4.39036833">
        <ele>325.0</ele>
        <time>2018-05-19T08:01:13.883Z</time>
      </trkpt>
      <trkpt lat="43.31019167" lon="-4.39036833">
        <ele>325.0</ele>
        <time>2018-05-19T08:01:14.878Z</time>
      </trkpt>
      <trkpt lat="43.31015167" lon="-4.390535">
        <ele>325.0</ele>
        <time>2018-05-19T08:01:15.880Z</time>
      </trkpt>
      <trkpt lat="43.31015167" lon="-4.390535">
        <ele>325.0</ele>
        <time>2018-05-19T08:01:16.878Z</time>
      </trkpt>
      <trkpt lat="43.310115" lon="-4.39071667">
        <ele>324.0</ele>
        <time>2018-05-19T08:01:17.881Z</time>
      </trkpt>
      <trkpt lat="43.310115" lon="-4.39071667">
        <ele>324.0</ele>
        <time>2018-05-19T08:01:18.879Z</time>
      </trkpt>
      <trkpt lat="43.31007" lon="-4.39090167">
        <ele>324.0</ele>
        <time>2018-05-19T08:01:19.882Z</time>
      </trkpt>
      <trkpt lat="43.31007" lon="-4.39090167">
        <ele>324.0</ele>
        <time>2018-05-19T08:01:20.873Z</time>
      </trkpt>
      <trkpt lat="43.31002333" lon="-4.391095">
        <ele>323.0</ele>
        <time>2018-05-19T08:01:21.866Z</time>
      </trkpt>
      <trkpt lat="43.30999667" lon="-4.39119833">
        <ele>323.0</ele>
        <time>2018-05-19T08:01:22.859Z</time>
      </trkpt>
      <trkpt lat="43.30999667" lon="-4.39119833">
        <ele>323.0</ele>
        <time>2018-05-19T08:01:23.883Z</time>
      </trkpt>
      <trkpt lat="43.30993667" lon="-4.39140667">
        <ele>323.0</ele>
        <time>2018-05-19T08:01:24.881Z</time>
      </trkpt>
      <trkpt lat="43.30993667" lon="-4.39140667">
        <ele>323.0</ele>
        <time>2018-05-19T08:01:25.878Z</time>
      </trkpt>
      <trkpt lat="43.309875" lon="-4.39162">
        <ele>322.0</ele>
        <time>2018-05-19T08:01:26.881Z</time>
      </trkpt>
      <trkpt lat="43.30984667" lon="-4.39173167">
        <ele>322.0</ele>
        <time>2018-05-19T08:01:27.881Z</time>
      </trkpt>
      <trkpt lat="43.30984667" lon="-4.39173167">
        <ele>322.0</ele>
        <time>2018-05-19T08:01:28.875Z</time>
      </trkpt>
      <trkpt lat="43.30981333" lon="-4.39195833">
        <ele>322.0</ele>
        <time>2018-05-19T08:01:29.882Z</time>
      </trkpt>
      <trkpt lat="43.30981333" lon="-4.39195833">
        <ele>322.0</ele>
        <time>2018-05-19T08:01:30.877Z</time>
      </trkpt>
      <trkpt lat="43.30981" lon="-4.39217167">
        <ele>323.0</ele>
        <time>2018-05-19T08:01:31.872Z</time>
      </trkpt>
      <trkpt lat="43.30980667" lon="-4.39227167">
        <ele>323.0</ele>
        <time>2018-05-19T08:01:32.857Z</time>
      </trkpt>
      <trkpt lat="43.30980167" lon="-4.39236667">
        <ele>324.0</ele>
        <time>2018-05-19T08:01:33.882Z</time>
      </trkpt>
      <trkpt lat="43.30980167" lon="-4.39236667">
        <ele>324.0</ele>
        <time>2018-05-19T08:01:34.875Z</time>
      </trkpt>
      <trkpt lat="43.30978167" lon="-4.39254">
        <ele>325.0</ele>
        <time>2018-05-19T08:01:35.881Z</time>
      </trkpt>
      <trkpt lat="43.30977" lon="-4.39261833">
        <ele>325.0</ele>
        <time>2018-05-19T08:01:36.881Z</time>
      </trkpt>
      <trkpt lat="43.30977" lon="-4.39261833">
        <ele>325.0</ele>
        <time>2018-05-19T08:01:37.878Z</time>
      </trkpt>
      <trkpt lat="43.30974333" lon="-4.39275833">
        <ele>326.0</ele>
        <time>2018-05-19T08:01:38.881Z</time>
      </trkpt>
      <trkpt lat="43.30972833" lon="-4.392825">
        <ele>327.0</ele>
        <time>2018-05-19T08:01:39.883Z</time>
      </trkpt>
      <trkpt lat="43.30972833" lon="-4.392825">
        <ele>327.0</ele>
        <time>2018-05-19T08:01:40.876Z</time>
      </trkpt>
      <trkpt lat="43.3097" lon="-4.39294667">
        <ele>328.0</ele>
        <time>2018-05-19T08:01:41.880Z</time>
      </trkpt>
      <trkpt lat="43.3097" lon="-4.39294667">
        <ele>328.0</ele>
        <time>2018-05-19T08:01:42.878Z</time>
      </trkpt>
      <trkpt lat="43.309675" lon="-4.39305833">
        <ele>328.0</ele>
        <time>2018-05-19T08:01:43.881Z</time>
      </trkpt>
      <trkpt lat="43.309665" lon="-4.39311167">
        <ele>329.0</ele>
        <time>2018-05-19T08:01:44.880Z</time>
      </trkpt>
      <trkpt lat="43.309665" lon="-4.39311167">
        <ele>329.0</ele>
        <time>2018-05-19T08:01:45.858Z</time>
      </trkpt>
      <trkpt lat="43.309645" lon="-4.39321167">
        <ele>329.0</ele>
        <time>2018-05-19T08:01:46.854Z</time>
      </trkpt>
      <trkpt lat="43.309635" lon="-4.39325833">
        <ele>330.0</ele>
        <time>2018-05-19T08:01:47.863Z</time>
      </trkpt>
      <trkpt lat="43.30962333" lon="-4.39330333">
        <ele>330.0</ele>
        <time>2018-05-19T08:01:48.850Z</time>
      </trkpt>
      <trkpt lat="43.30961167" lon="-4.39334833">
        <ele>330.0</ele>
        <time>2018-05-19T08:01:49.882Z</time>
      </trkpt>
      <trkpt lat="43.30961167" lon="-4.39334833">
        <ele>330.0</ele>
        <time>2018-05-19T08:01:50.877Z</time>
      </trkpt>
      <trkpt lat="43.30959" lon="-4.39343">
        <ele>331.0</ele>
        <time>2018-05-19T08:01:51.882Z</time>
      </trkpt>
      <trkpt lat="43.30959" lon="-4.39343">
        <ele>331.0</ele>
        <time>2018-05-19T08:01:52.878Z</time>
      </trkpt>
      <trkpt lat="43.30956833" lon="-4.39351">
        <ele>332.0</ele>
        <time>2018-05-19T08:01:53.857Z</time>
      </trkpt>
      <trkpt lat="43.30956" lon="-4.39355">
        <ele>332.0</ele>
        <time>2018-05-19T08:01:54.845Z</time>
      </trkpt>
      <trkpt lat="43.30956" lon="-4.39355">
        <ele>332.0</ele>
        <time>2018-05-19T08:01:55.880Z</time>
      </trkpt>
      <trkpt lat="43.30954333" lon="-4.393625">
        <ele>332.0</ele>
        <time>2018-05-19T08:01:56.880Z</time>
      </trkpt>
      <trkpt lat="43.309535" lon="-4.39366167">
        <ele>333.0</ele>
        <time>2018-05-19T08:01:57.882Z</time>
      </trkpt>
      <trkpt lat="43.30952667" lon="-4.393695">
        <ele>333.0</ele>
        <time>2018-05-19T08:01:58.880Z</time>
      </trkpt>
      <trkpt lat="43.30952667" lon="-4.393695">
        <ele>333.0</ele>
        <time>2018-05-19T08:01:59.877Z</time>
      </trkpt>
      <trkpt lat="43.30951167" lon="-4.39376333">
        <ele>333.0</ele>
        <time>2018-05-19T08:02:00.853Z</time>
      </trkpt>
      <trkpt lat="43.30951167" lon="-4.39376333">
        <ele>333.0</ele>
        <time>2018-05-19T08:02:01.879Z</time>
      </trkpt>
      <trkpt lat="43.30949833" lon="-4.393835">
        <ele>334.0</ele>
        <time>2018-05-19T08:02:02.881Z</time>
      </trkpt>
      <trkpt lat="43.30949167" lon="-4.39387167">
        <ele>334.0</ele>
        <time>2018-05-19T08:02:03.881Z</time>
      </trkpt>
      <trkpt lat="43.30949167" lon="-4.39387167">
        <ele>334.0</ele>
        <time>2018-05-19T08:02:04.878Z</time>
      </trkpt>
      <trkpt lat="43.30947333" lon="-4.39394167">
        <ele>335.0</ele>
        <time>2018-05-19T08:02:05.880Z</time>
      </trkpt>
      <trkpt lat="43.30946333" lon="-4.39397667">
        <ele>335.0</ele>
        <time>2018-05-19T08:02:06.881Z</time>
      </trkpt>
      <trkpt lat="43.30946333" lon="-4.39397667">
        <ele>335.0</ele>
        <time>2018-05-19T08:02:07.876Z</time>
      </trkpt>
      <trkpt lat="43.30944167" lon="-4.39404333">
        <ele>336.0</ele>
        <time>2018-05-19T08:02:08.881Z</time>
      </trkpt>
      <trkpt lat="43.30943333" lon="-4.39407667">
        <ele>336.0</ele>
        <time>2018-05-19T08:02:09.882Z</time>
      </trkpt>
      <trkpt lat="43.30943333" lon="-4.39407667">
        <ele>336.0</ele>
        <time>2018-05-19T08:02:10.878Z</time>
      </trkpt>
      <trkpt lat="43.30942" lon="-4.39415">
        <ele>337.0</ele>
        <time>2018-05-19T08:02:11.866Z</time>
      </trkpt>
      <trkpt lat="43.30942" lon="-4.39415">
        <ele>337.0</ele>
        <time>2018-05-19T08:02:12.851Z</time>
      </trkpt>
      <trkpt lat="43.309405" lon="-4.39422167">
        <ele>337.0</ele>
        <time>2018-05-19T08:02:13.881Z</time>
      </trkpt>
      <trkpt lat="43.3094" lon="-4.39425833">
        <ele>337.0</ele>
        <time>2018-05-19T08:02:14.880Z</time>
      </trkpt>
      <trkpt lat="43.30939333" lon="-4.39429333">
        <ele>338.0</ele>
        <time>2018-05-19T08:02:15.882Z</time>
      </trkpt>
      <trkpt lat="43.30939333" lon="-4.39429333">
        <ele>338.0</ele>
        <time>2018-05-19T08:02:16.881Z</time>
      </trkpt>
      <trkpt lat="43.309385" lon="-4.39436333">
        <ele>338.0</ele>
        <time>2018-05-19T08:02:17.881Z</time>
      </trkpt>
      <trkpt lat="43.309385" lon="-4.39436333">
        <ele>338.0</ele>
        <time>2018-05-19T08:02:18.878Z</time>
      </trkpt>
      <trkpt lat="43.309375" lon="-4.39443167">
        <ele>339.0</ele>
        <time>2018-05-19T08:02:19.881Z</time>
      </trkpt>
      <trkpt lat="43.309365" lon="-4.394465">
        <ele>339.0</ele>
        <time>2018-05-19T08:02:20.881Z</time>
      </trkpt>
      <trkpt lat="43.30935667" lon="-4.39449667">
        <ele>339.0</ele>
        <time>2018-05-19T08:02:21.881Z</time>
      </trkpt>
      <trkpt lat="43.30935667" lon="-4.39449667">
        <ele>339.0</ele>
        <time>2018-05-19T08:02:22.879Z</time>
      </trkpt>
      <trkpt lat="43.30934667" lon="-4.394565">
        <ele>340.0</ele>
        <time>2018-05-19T08:02:23.880Z</time>
      </trkpt>
      <trkpt lat="43.30934667" lon="-4.394565">
        <ele>340.0</ele>
        <time>2018-05-19T08:02:24.866Z</time>
      </trkpt>
      <trkpt lat="43.30934167" lon="-4.39463167">
        <ele>340.0</ele>
        <time>2018-05-19T08:02:25.851Z</time>
      </trkpt>
      <trkpt lat="43.30934167" lon="-4.39463167">
        <ele>340.0</ele>
        <time>2018-05-19T08:02:26.878Z</time>
      </trkpt>
      <trkpt lat="43.30933833" lon="-4.3947">
        <ele>341.0</ele>
        <time>2018-05-19T08:02:27.880Z</time>
      </trkpt>
      <trkpt lat="43.30933833" lon="-4.3947">
        <ele>341.0</ele>
        <time>2018-05-19T08:02:28.876Z</time>
      </trkpt>
      <trkpt lat="43.30933833" lon="-4.39476667">
        <ele>341.0</ele>
        <time>2018-05-19T08:02:29.880Z</time>
      </trkpt>
      <trkpt lat="43.30933833" lon="-4.39476667">
        <ele>341.0</ele>
        <time>2018-05-19T08:02:30.876Z</time>
      </trkpt>
      <trkpt lat="43.309345" lon="-4.394835">
        <ele>342.0</ele>
        <time>2018-05-19T08:02:31.880Z</time>
      </trkpt>
      <trkpt lat="43.309345" lon="-4.394835">
        <ele>342.0</ele>
        <time>2018-05-19T08:02:32.877Z</time>
      </trkpt>
      <trkpt lat="43.30935333" lon="-4.39490667">
        <ele>342.0</ele>
        <time>2018-05-19T08:02:33.866Z</time>
      </trkpt>
      <trkpt lat="43.309355" lon="-4.39494167">
        <ele>343.0</ele>
        <time>2018-05-19T08:02:34.856Z</time>
      </trkpt>
      <trkpt lat="43.30935667" lon="-4.39497667">
        <ele>343.0</ele>
        <time>2018-05-19T08:02:35.880Z</time>
      </trkpt>
      <trkpt lat="43.30935667" lon="-4.39497667">
        <ele>343.0</ele>
        <time>2018-05-19T08:02:36.879Z</time>
      </trkpt>
      <trkpt lat="43.309365" lon="-4.39504167">
        <ele>343.0</ele>
        <time>2018-05-19T08:02:37.880Z</time>
      </trkpt>
      <trkpt lat="43.309365" lon="-4.39504167">
        <ele>343.0</ele>
        <time>2018-05-19T08:02:38.878Z</time>
      </trkpt>
      <trkpt lat="43.30937" lon="-4.395105">
        <ele>344.0</ele>
        <time>2018-05-19T08:02:39.881Z</time>
      </trkpt>
      <trkpt lat="43.30937" lon="-4.395105">
        <ele>344.0</ele>
        <time>2018-05-19T08:02:40.878Z</time>
      </trkpt>
      <trkpt lat="43.30937333" lon="-4.39517333">
        <ele>344.0</ele>
        <time>2018-05-19T08:02:41.881Z</time>
      </trkpt>
      <trkpt lat="43.30937333" lon="-4.39517333">
        <ele>344.0</ele>
        <time>2018-05-19T08:02:42.878Z</time>
      </trkpt>
      <trkpt lat="43.309375" lon="-4.39523833">
        <ele>345.0</ele>
        <time>2018-05-19T08:02:43.880Z</time>
      </trkpt>
      <trkpt lat="43.30937667" lon="-4.39527167">
        <ele>345.0</ele>
        <time>2018-05-19T08:02:44.880Z</time>
      </trkpt>
      <trkpt lat="43.30937667" lon="-4.39527167">
        <ele>345.0</ele>
        <time>2018-05-19T08:02:45.859Z</time>
      </trkpt>
      <trkpt lat="43.30937833" lon="-4.39533667">
        <ele>345.0</ele>
        <time>2018-05-19T08:02:46.869Z</time>
      </trkpt>
      <trkpt lat="43.30938167" lon="-4.39536833">
        <ele>346.0</ele>
        <time>2018-05-19T08:02:47.875Z</time>
      </trkpt>
      <trkpt lat="43.30938333" lon="-4.39539833">
        <ele>346.0</ele>
        <time>2018-05-19T08:02:48.880Z</time>
      </trkpt>
      <trkpt lat="43.30938333" lon="-4.39539833">
        <ele>346.0</ele>
        <time>2018-05-19T08:02:49.878Z</time>
      </trkpt>
      <trkpt lat="43.30938333" lon="-4.39546333">
        <ele>346.0</ele>
        <time>2018-05-19T08:02:50.881Z</time>
      </trkpt>
      <trkpt lat="43.30938333" lon="-4.395495">
        <ele>346.0</ele>
        <time>2018-05-19T08:02:51.881Z</time>
      </trkpt>
      <trkpt lat="43.30938333" lon="-4.395495">
        <ele>346.0</ele>
        <time>2018-05-19T08:02:52.847Z</time>
      </trkpt>
      <trkpt lat="43.30938667" lon="-4.39556167">
        <ele>347.0</ele>
        <time>2018-05-19T08:02:53.881Z</time>
      </trkpt>
      <trkpt lat="43.30939" lon="-4.39559333">
        <ele>347.0</ele>
        <time>2018-05-19T08:02:54.880Z</time>
      </trkpt>
      <trkpt lat="43.30939" lon="-4.39559333">
        <ele>347.0</ele>
        <time>2018-05-19T08:02:55.880Z</time>
      </trkpt>
      <trkpt lat="43.30939" lon="-4.39565833">
        <ele>347.0</ele>
        <time>2018-05-19T08:02:56.881Z</time>
      </trkpt>
      <trkpt lat="43.30939333" lon="-4.39569">
        <ele>348.0</ele>
        <time>2018-05-19T08:02:57.881Z</time>
      </trkpt>
      <trkpt lat="43.30939333" lon="-4.39569">
        <ele>348.0</ele>
        <time>2018-05-19T08:02:58.878Z</time>
      </trkpt>
      <trkpt lat="43.30939833" lon="-4.395755">
        <ele>348.0</ele>
        <time>2018-05-19T08:02:59.881Z</time>
      </trkpt>
      <trkpt lat="43.30939833" lon="-4.395755">
        <ele>348.0</ele>
        <time>2018-05-19T08:03:00.878Z</time>
      </trkpt>
      <trkpt lat="43.30939833" lon="-4.39582167">
        <ele>348.0</ele>
        <time>2018-05-19T08:03:01.879Z</time>
      </trkpt>
      <trkpt lat="43.3094" lon="-4.39585333">
        <ele>348.0</ele>
        <time>2018-05-19T08:03:02.880Z</time>
      </trkpt>
      <trkpt lat="43.3094" lon="-4.39585333">
        <ele>348.0</ele>
        <time>2018-05-19T08:03:03.879Z</time>
      </trkpt>
      <trkpt lat="43.30940167" lon="-4.395915">
        <ele>349.0</ele>
        <time>2018-05-19T08:03:04.879Z</time>
      </trkpt>
      <trkpt lat="43.30940167" lon="-4.39594667">
        <ele>349.0</ele>
        <time>2018-05-19T08:03:05.880Z</time>
      </trkpt>
      <trkpt lat="43.30940167" lon="-4.39594667">
        <ele>349.0</ele>
        <time>2018-05-19T08:03:06.876Z</time>
      </trkpt>
      <trkpt lat="43.30940167" lon="-4.39600833">
        <ele>349.0</ele>
        <time>2018-05-19T08:03:07.881Z</time>
      </trkpt>
      <trkpt lat="43.30940167" lon="-4.39600833">
        <ele>349.0</ele>
        <time>2018-05-19T08:03:08.878Z</time>
      </trkpt>
      <trkpt lat="43.30940333" lon="-4.39607">
        <ele>350.0</ele>
        <time>2018-05-19T08:03:09.880Z</time>
      </trkpt>
      <trkpt lat="43.30940333" lon="-4.39607">
        <ele>350.0</ele>
        <time>2018-05-19T08:03:10.875Z</time>
      </trkpt>
      <trkpt lat="43.30940667" lon="-4.39613167">
        <ele>350.0</ele>
        <time>2018-05-19T08:03:11.864Z</time>
      </trkpt>
      <trkpt lat="43.30940667" lon="-4.39613167">
        <ele>350.0</ele>
        <time>2018-05-19T08:03:12.878Z</time>
      </trkpt>
      <trkpt lat="43.30941" lon="-4.39619167">
        <ele>351.0</ele>
        <time>2018-05-19T08:03:13.882Z</time>
      </trkpt>
      <trkpt lat="43.30941" lon="-4.39619167">
        <ele>351.0</ele>
        <time>2018-05-19T08:03:14.878Z</time>
      </trkpt>
      <trkpt lat="43.30941167" lon="-4.396255">
        <ele>351.0</ele>
        <time>2018-05-19T08:03:15.881Z</time>
      </trkpt>
      <trkpt lat="43.30941333" lon="-4.396285">
        <ele>351.0</ele>
        <time>2018-05-19T08:03:16.881Z</time>
      </trkpt>
      <trkpt lat="43.30941333" lon="-4.396285">
        <ele>351.0</ele>
        <time>2018-05-19T08:03:17.878Z</time>
      </trkpt>
      <trkpt lat="43.30941667" lon="-4.39634667">
        <ele>352.0</ele>
        <time>2018-05-19T08:03:18.881Z</time>
      </trkpt>
      <trkpt lat="43.30941667" lon="-4.39634667">
        <ele>352.0</ele>
        <time>2018-05-19T08:03:19.878Z</time>
      </trkpt>
      <trkpt lat="43.30942167" lon="-4.39641">
        <ele>352.0</ele>
        <time>2018-05-19T08:03:20.881Z</time>
      </trkpt>
      <trkpt lat="43.30942167" lon="-4.39641">
        <ele>352.0</ele>
        <time>2018-05-19T08:03:21.851Z</time>
      </trkpt>
      <trkpt lat="43.30943167" lon="-4.39646833">
        <ele>353.0</ele>
        <time>2018-05-19T08:03:22.881Z</time>
      </trkpt>
      <trkpt lat="43.30943167" lon="-4.39646833">
        <ele>353.0</ele>
        <time>2018-05-19T08:03:23.878Z</time>
      </trkpt>
      <trkpt lat="43.30944" lon="-4.39652833">
        <ele>353.0</ele>
        <time>2018-05-19T08:03:24.881Z</time>
      </trkpt>
      <trkpt lat="43.30944333" lon="-4.39655833">
        <ele>353.0</ele>
        <time>2018-05-19T08:03:25.881Z</time>
      </trkpt>
      <trkpt lat="43.30944333" lon="-4.39655833">
        <ele>353.0</ele>
        <time>2018-05-19T08:03:26.878Z</time>
      </trkpt>
      <trkpt lat="43.30945333" lon="-4.396615">
        <ele>354.0</ele>
        <time>2018-05-19T08:03:27.880Z</time>
      </trkpt>
      <trkpt lat="43.30945333" lon="-4.396615">
        <ele>354.0</ele>
        <time>2018-05-19T08:03:28.876Z</time>
      </trkpt>
      <trkpt lat="43.30946167" lon="-4.39667333">
        <ele>354.0</ele>
        <time>2018-05-19T08:03:29.880Z</time>
      </trkpt>
      <trkpt lat="43.30946167" lon="-4.39667333">
        <ele>354.0</ele>
        <time>2018-05-19T08:03:30.877Z</time>
      </trkpt>
      <trkpt lat="43.30947333" lon="-4.39672833">
        <ele>355.0</ele>
        <time>2018-05-19T08:03:31.871Z</time>
      </trkpt>
      <trkpt lat="43.30948" lon="-4.39675667">
        <ele>355.0</ele>
        <time>2018-05-19T08:03:32.855Z</time>
      </trkpt>
      <trkpt lat="43.309485" lon="-4.39678667">
        <ele>355.0</ele>
        <time>2018-05-19T08:03:33.881Z</time>
      </trkpt>
      <trkpt lat="43.309485" lon="-4.39678667">
        <ele>355.0</ele>
        <time>2018-05-19T08:03:34.875Z</time>
      </trkpt>
      <trkpt lat="43.30950167" lon="-4.39684">
        <ele>355.0</ele>
        <time>2018-05-19T08:03:35.881Z</time>
      </trkpt>
      <trkpt lat="43.30950167" lon="-4.39684">
        <ele>355.0</ele>
        <time>2018-05-19T08:03:36.878Z</time>
      </trkpt>
      <trkpt lat="43.30951333" lon="-4.39689667">
        <ele>356.0</ele>
        <time>2018-05-19T08:03:37.880Z</time>
      </trkpt>
      <trkpt lat="43.30951333" lon="-4.39689667">
        <ele>356.0</ele>
        <time>2018-05-19T08:03:38.877Z</time>
      </trkpt>
      <trkpt lat="43.30951833" lon="-4.396955">
        <ele>356.0</ele>
        <time>2018-05-19T08:03:39.880Z</time>
      </trkpt>
      <trkpt lat="43.30951833" lon="-4.396955">
        <ele>356.0</ele>
        <time>2018-05-19T08:03:40.875Z</time>
      </trkpt>
      <trkpt lat="43.30951833" lon="-4.397015">
        <ele>357.0</ele>
        <time>2018-05-19T08:03:41.864Z</time>
      </trkpt>
      <trkpt lat="43.30951667" lon="-4.39704333">
        <ele>357.0</ele>
        <time>2018-05-19T08:03:42.850Z</time>
      </trkpt>
      <trkpt lat="43.30951667" lon="-4.39704333">
        <ele>357.0</ele>
        <time>2018-05-19T08:03:43.879Z</time>
      </trkpt>
      <trkpt lat="43.30950833" lon="-4.3971">
        <ele>358.0</ele>
        <time>2018-05-19T08:03:44.880Z</time>
      </trkpt>
      <trkpt lat="43.30950833" lon="-4.3971">
        <ele>358.0</ele>
        <time>2018-05-19T08:03:45.858Z</time>
      </trkpt>
      <trkpt lat="43.309495" lon="-4.39715167">
        <ele>358.0</ele>
        <time>2018-05-19T08:03:46.850Z</time>
      </trkpt>
      <trkpt lat="43.309485" lon="-4.397175">
        <ele>358.0</ele>
        <time>2018-05-19T08:03:47.880Z</time>
      </trkpt>
      <trkpt lat="43.30947167" lon="-4.39719667">
        <ele>359.0</ele>
        <time>2018-05-19T08:03:48.880Z</time>
      </trkpt>
      <trkpt lat="43.30947167" lon="-4.39719667">
        <ele>359.0</ele>
        <time>2018-05-19T08:03:49.883Z</time>
      </trkpt>
      <trkpt lat="43.30944333" lon="-4.39724167">
        <ele>359.0</ele>
        <time>2018-05-19T08:03:50.880Z</time>
      </trkpt>
      <trkpt lat="43.30944333" lon="-4.39724167">
        <ele>359.0</ele>
        <time>2018-05-19T08:03:51.878Z</time>
      </trkpt>
      <trkpt lat="43.30940333" lon="-4.397265">
        <ele>360.0</ele>
        <time>2018-05-19T08:03:52.879Z</time>
      </trkpt>
      <trkpt lat="43.30940333" lon="-4.397265">
        <ele>360.0</ele>
        <time>2018-05-19T08:03:53.876Z</time>
      </trkpt>
      <trkpt lat="43.30936" lon="-4.39727167">
        <ele>360.0</ele>
        <time>2018-05-19T08:03:54.869Z</time>
      </trkpt>
      <trkpt lat="43.30933833" lon="-4.39726667">
        <ele>361.0</ele>
        <time>2018-05-19T08:03:55.857Z</time>
      </trkpt>
      <trkpt lat="43.30933833" lon="-4.39726667">
        <ele>361.0</ele>
        <time>2018-05-19T08:03:56.880Z</time>
      </trkpt>
      <trkpt lat="43.30929667" lon="-4.397245">
        <ele>361.0</ele>
        <time>2018-05-19T08:03:57.880Z</time>
      </trkpt>
      <trkpt lat="43.30929667" lon="-4.397245">
        <ele>361.0</ele>
        <time>2018-05-19T08:03:58.878Z</time>
      </trkpt>
      <trkpt lat="43.309265" lon="-4.39720333">
        <ele>362.0</ele>
        <time>2018-05-19T08:03:59.880Z</time>
      </trkpt>
      <trkpt lat="43.309265" lon="-4.39720333">
        <ele>362.0</ele>
        <time>2018-05-19T08:04:00.877Z</time>
      </trkpt>
      <trkpt lat="43.30923667" lon="-4.39714833">
        <ele>362.0</ele>
        <time>2018-05-19T08:04:01.882Z</time>
      </trkpt>
      <trkpt lat="43.30923667" lon="-4.39714833">
        <ele>362.0</ele>
        <time>2018-05-19T08:04:02.878Z</time>
      </trkpt>
      <trkpt lat="43.30921833" lon="-4.39708667">
        <ele>363.0</ele>
        <time>2018-05-19T08:04:03.880Z</time>
      </trkpt>
      <trkpt lat="43.30921833" lon="-4.39708667">
        <ele>363.0</ele>
        <time>2018-05-19T08:04:04.878Z</time>
      </trkpt>
      <trkpt lat="43.30919833" lon="-4.39702833">
        <ele>363.0</ele>
        <time>2018-05-19T08:04:05.879Z</time>
      </trkpt>
      <trkpt lat="43.30918833" lon="-4.397">
        <ele>364.0</ele>
        <time>2018-05-19T08:04:06.879Z</time>
      </trkpt>
      <trkpt lat="43.30918833" lon="-4.397">
        <ele>364.0</ele>
        <time>2018-05-19T08:04:07.878Z</time>
      </trkpt>
      <trkpt lat="43.30916667" lon="-4.39694167">
        <ele>364.0</ele>
        <time>2018-05-19T08:04:08.881Z</time>
      </trkpt>
      <trkpt lat="43.30915333" lon="-4.39691167">
        <ele>365.0</ele>
        <time>2018-05-19T08:04:09.883Z</time>
      </trkpt>
      <trkpt lat="43.30914167" lon="-4.39688167">
        <ele>365.0</ele>
        <time>2018-05-19T08:04:10.882Z</time>
      </trkpt>
      <trkpt lat="43.30914167" lon="-4.39688167">
        <ele>365.0</ele>
        <time>2018-05-19T08:04:11.879Z</time>
      </trkpt>
      <trkpt lat="43.30912" lon="-4.39682167">
        <ele>366.0</ele>
        <time>2018-05-19T08:04:12.880Z</time>
      </trkpt>
      <trkpt lat="43.30912" lon="-4.39682167">
        <ele>366.0</ele>
        <time>2018-05-19T08:04:13.879Z</time>
      </trkpt>
      <trkpt lat="43.30909833" lon="-4.39677">
        <ele>366.0</ele>
        <time>2018-05-19T08:04:14.879Z</time>
      </trkpt>
      <trkpt lat="43.30908167" lon="-4.39674667">
        <ele>366.0</ele>
        <time>2018-05-19T08:04:15.880Z</time>
      </trkpt>
      <trkpt lat="43.30908167" lon="-4.39674667">
        <ele>366.0</ele>
        <time>2018-05-19T08:04:16.877Z</time>
      </trkpt>
      <trkpt lat="43.30904333" lon="-4.39671">
        <ele>367.0</ele>
        <time>2018-05-19T08:04:17.882Z</time>
      </trkpt>
      <trkpt lat="43.30904333" lon="-4.39671">
        <ele>367.0</ele>
        <time>2018-05-19T08:04:18.877Z</time>
      </trkpt>
      <trkpt lat="43.309" lon="-4.39668833">
        <ele>367.0</ele>
        <time>2018-05-19T08:04:19.881Z</time>
      </trkpt>
      <trkpt lat="43.309" lon="-4.39668833">
        <ele>367.0</ele>
        <time>2018-05-19T08:04:20.875Z</time>
      </trkpt>
      <trkpt lat="43.30895833" lon="-4.39668333">
        <ele>367.0</ele>
        <time>2018-05-19T08:04:21.881Z</time>
      </trkpt>
      <trkpt lat="43.30895833" lon="-4.39668333">
        <ele>367.0</ele>
        <time>2018-05-19T08:04:22.876Z</time>
      </trkpt>
      <trkpt lat="43.30892167" lon="-4.39670333">
        <ele>368.0</ele>
        <time>2018-05-19T08:04:23.881Z</time>
      </trkpt>
      <trkpt lat="43.30892167" lon="-4.39670333">
        <ele>368.0</ele>
        <time>2018-05-19T08:04:24.874Z</time>
      </trkpt>
      <trkpt lat="43.30888" lon="-4.39672667">
        <ele>368.0</ele>
        <time>2018-05-19T08:04:25.881Z</time>
      </trkpt>
      <trkpt lat="43.30888" lon="-4.39672667">
        <ele>368.0</ele>
        <time>2018-05-19T08:04:26.878Z</time>
      </trkpt>
      <trkpt lat="43.30884167" lon="-4.39676667">
        <ele>369.0</ele>
        <time>2018-05-19T08:04:27.880Z</time>
      </trkpt>
      <trkpt lat="43.30884167" lon="-4.39676667">
        <ele>369.0</ele>
        <time>2018-05-19T08:04:28.874Z</time>
      </trkpt>
      <trkpt lat="43.30881167" lon="-4.39681667">
        <ele>369.0</ele>
        <time>2018-05-19T08:04:29.879Z</time>
      </trkpt>
      <trkpt lat="43.308805" lon="-4.39685">
        <ele>370.0</ele>
        <time>2018-05-19T08:04:30.877Z</time>
      </trkpt>
      <trkpt lat="43.308805" lon="-4.39685">
        <ele>370.0</ele>
        <time>2018-05-19T08:04:31.873Z</time>
      </trkpt>
      <trkpt lat="43.30879667" lon="-4.39691667">
        <ele>370.0</ele>
        <time>2018-05-19T08:04:32.855Z</time>
      </trkpt>
      <trkpt lat="43.30879667" lon="-4.39694833">
        <ele>371.0</ele>
        <time>2018-05-19T08:04:33.881Z</time>
      </trkpt>
      <trkpt lat="43.30879667" lon="-4.39694833">
        <ele>371.0</ele>
        <time>2018-05-19T08:04:34.873Z</time>
      </trkpt>
      <trkpt lat="43.30880667" lon="-4.39701">
        <ele>371.0</ele>
        <time>2018-05-19T08:04:35.879Z</time>
      </trkpt>
      <trkpt lat="43.30880667" lon="-4.39701">
        <ele>371.0</ele>
        <time>2018-05-19T08:04:36.875Z</time>
      </trkpt>
      <trkpt lat="43.30882167" lon="-4.39706667">
        <ele>371.0</ele>
        <time>2018-05-19T08:04:37.881Z</time>
      </trkpt>
      <trkpt lat="43.30882167" lon="-4.39706667">
        <ele>371.0</ele>
        <time>2018-05-19T08:04:38.874Z</time>
      </trkpt>
      <trkpt lat="43.30884667" lon="-4.39711833">
        <ele>372.0</ele>
        <time>2018-05-19T08:04:39.880Z</time>
      </trkpt>
      <trkpt lat="43.30884667" lon="-4.39711833">
        <ele>372.0</ele>
        <time>2018-05-19T08:04:40.878Z</time>
      </trkpt>
      <trkpt lat="43.30887667" lon="-4.39716833">
        <ele>372.0</ele>
        <time>2018-05-19T08:04:41.881Z</time>
      </trkpt>
      <trkpt lat="43.30889167" lon="-4.39719167">
        <ele>372.0</ele>
        <time>2018-05-19T08:04:42.879Z</time>
      </trkpt>
      <trkpt lat="43.30890667" lon="-4.39721667">
        <ele>373.0</ele>
        <time>2018-05-19T08:04:43.881Z</time>
      </trkpt>
      <trkpt lat="43.30890667" lon="-4.39721667">
        <ele>373.0</ele>
        <time>2018-05-19T08:04:44.847Z</time>
      </trkpt>
      <trkpt lat="43.308935" lon="-4.39726333">
        <ele>373.0</ele>
        <time>2018-05-19T08:04:45.858Z</time>
      </trkpt>
      <trkpt lat="43.30894667" lon="-4.39729167">
        <ele>373.0</ele>
        <time>2018-05-19T08:04:46.866Z</time>
      </trkpt>
      <trkpt lat="43.30894667" lon="-4.39729167">
        <ele>373.0</ele>
        <time>2018-05-19T08:04:47.872Z</time>
      </trkpt>
      <trkpt lat="43.30896833" lon="-4.397345">
        <ele>374.0</ele>
        <time>2018-05-19T08:04:48.880Z</time>
      </trkpt>
      <trkpt lat="43.30898" lon="-4.39737167">
        <ele>374.0</ele>
        <time>2018-05-19T08:04:49.881Z</time>
      </trkpt>
      <trkpt lat="43.30898" lon="-4.39737167">
        <ele>374.0</ele>
        <time>2018-05-19T08:04:50.874Z</time>
      </trkpt>
      <trkpt lat="43.30899833" lon="-4.397425">
        <ele>374.0</ele>
        <time>2018-05-19T08:04:51.878Z</time>
      </trkpt>
      <trkpt lat="43.30899833" lon="-4.397425">
        <ele>374.0</ele>
        <time>2018-05-19T08:04:52.874Z</time>
      </trkpt>
      <trkpt lat="43.30901" lon="-4.397485">
        <ele>375.0</ele>
        <time>2018-05-19T08:04:53.879Z</time>
      </trkpt>
      <trkpt lat="43.30901" lon="-4.397485">
        <ele>375.0</ele>
        <time>2018-05-19T08:04:54.873Z</time>
      </trkpt>
      <trkpt lat="43.30902333" lon="-4.397545">
        <ele>375.0</ele>
        <time>2018-05-19T08:04:55.855Z</time>
      </trkpt>
      <trkpt lat="43.30902333" lon="-4.397545">
        <ele>375.0</ele>
        <time>2018-05-19T08:04:56.881Z</time>
      </trkpt>
      <trkpt lat="43.30903667" lon="-4.39760167">
        <ele>375.0</ele>
        <time>2018-05-19T08:04:57.880Z</time>
      </trkpt>
      <trkpt lat="43.30903667" lon="-4.39760167">
        <ele>375.0</ele>
        <time>2018-05-19T08:04:58.880Z</time>
      </trkpt>
      <trkpt lat="43.30904333" lon="-4.39766167">
        <ele>376.0</ele>
        <time>2018-05-19T08:04:59.879Z</time>
      </trkpt>
      <trkpt lat="43.309045" lon="-4.39769167">
        <ele>376.0</ele>
        <time>2018-05-19T08:05:00.877Z</time>
      </trkpt>
      <trkpt lat="43.309045" lon="-4.39769167">
        <ele>376.0</ele>
        <time>2018-05-19T08:05:01.878Z</time>
      </trkpt>
      <trkpt lat="43.30904667" lon="-4.39775333">
        <ele>376.0</ele>
        <time>2018-05-19T08:05:02.880Z</time>
      </trkpt>
      <trkpt lat="43.30904833" lon="-4.39778333">
        <ele>377.0</ele>
        <time>2018-05-19T08:05:03.880Z</time>
      </trkpt>
      <trkpt lat="43.30904833" lon="-4.39778333">
        <ele>377.0</ele>
        <time>2018-05-19T08:05:04.883Z</time>
      </trkpt>
      <trkpt lat="43.30904833" lon="-4.397845">
        <ele>377.0</ele>
        <time>2018-05-19T08:05:05.879Z</time>
      </trkpt>
      <trkpt lat="43.30904833" lon="-4.397845">
        <ele>377.0</ele>
        <time>2018-05-19T08:05:06.874Z</time>
      </trkpt>
      <trkpt lat="43.30905167" lon="-4.39790333">
        <ele>377.0</ele>
        <time>2018-05-19T08:05:07.881Z</time>
      </trkpt>
      <trkpt lat="43.30905167" lon="-4.39790333">
        <ele>377.0</ele>
        <time>2018-05-19T08:05:08.874Z</time>
      </trkpt>
      <trkpt lat="43.30904667" lon="-4.39796833">
        <ele>378.0</ele>
        <time>2018-05-19T08:05:09.879Z</time>
      </trkpt>
      <trkpt lat="43.30904667" lon="-4.39796833">
        <ele>378.0</ele>
        <time>2018-05-19T08:05:10.877Z</time>
      </trkpt>
      <trkpt lat="43.30904167" lon="-4.39803333">
        <ele>378.0</ele>
        <time>2018-05-19T08:05:11.881Z</time>
      </trkpt>
      <trkpt lat="43.30904167" lon="-4.39803333">
        <ele>378.0</ele>
        <time>2018-05-19T08:05:12.880Z</time>
      </trkpt>
      <trkpt lat="43.30903667" lon="-4.39809333">
        <ele>379.0</ele>
        <time>2018-05-19T08:05:13.882Z</time>
      </trkpt>
      <trkpt lat="43.30903667" lon="-4.39809333">
        <ele>379.0</ele>
        <time>2018-05-19T08:05:14.880Z</time>
      </trkpt>
      <trkpt lat="43.30904167" lon="-4.39815667">
        <ele>379.0</ele>
        <time>2018-05-19T08:05:15.850Z</time>
      </trkpt>
      <trkpt lat="43.30904167" lon="-4.39815667">
        <ele>379.0</ele>
        <time>2018-05-19T08:05:16.877Z</time>
      </trkpt>
      <trkpt lat="43.30904833" lon="-4.39822167">
        <ele>380.0</ele>
        <time>2018-05-19T08:05:17.879Z</time>
      </trkpt>
      <trkpt lat="43.30904833" lon="-4.39822167">
        <ele>380.0</ele>
        <time>2018-05-19T08:05:18.874Z</time>
      </trkpt>
      <trkpt lat="43.30904833" lon="-4.39829167">
        <ele>380.0</ele>
        <time>2018-05-19T08:05:19.881Z</time>
      </trkpt>
      <trkpt lat="43.30904833" lon="-4.39829167">
        <ele>380.0</ele>
        <time>2018-05-19T08:05:20.878Z</time>
      </trkpt>
      <trkpt lat="43.30904667" lon="-4.39836333">
        <ele>381.0</ele>
        <time>2018-05-19T08:05:21.877Z</time>
      </trkpt>
      <trkpt lat="43.30904667" lon="-4.39836333">
        <ele>381.0</ele>
        <time>2018-05-19T08:05:22.874Z</time>
      </trkpt>
      <trkpt lat="43.30905" lon="-4.39842833">
        <ele>381.0</ele>
        <time>2018-05-19T08:05:23.879Z</time>
      </trkpt>
      <trkpt lat="43.30905" lon="-4.39842833">
        <ele>381.0</ele>
        <time>2018-05-19T08:05:24.875Z</time>
      </trkpt>
      <trkpt lat="43.309055" lon="-4.39849167">
        <ele>382.0</ele>
        <time>2018-05-19T08:05:25.881Z</time>
      </trkpt>
      <trkpt lat="43.309055" lon="-4.39849167">
        <ele>382.0</ele>
        <time>2018-05-19T08:05:26.874Z</time>
      </trkpt>
      <trkpt lat="43.30906167" lon="-4.39855333">
        <ele>382.0</ele>
        <time>2018-05-19T08:05:27.880Z</time>
      </trkpt>
      <trkpt lat="43.30906167" lon="-4.39855333">
        <ele>382.0</ele>
        <time>2018-05-19T08:05:28.874Z</time>
      </trkpt>
      <trkpt lat="43.30906667" lon="-4.39861667">
        <ele>383.0</ele>
        <time>2018-05-19T08:05:29.879Z</time>
      </trkpt>
      <trkpt lat="43.30906667" lon="-4.39864833">
        <ele>383.0</ele>
        <time>2018-05-19T08:05:30.880Z</time>
      </trkpt>
      <trkpt lat="43.30906667" lon="-4.39864833">
        <ele>383.0</ele>
        <time>2018-05-19T08:05:31.873Z</time>
      </trkpt>
      <trkpt lat="43.30906833" lon="-4.39871167">
        <ele>383.0</ele>
        <time>2018-05-19T08:05:32.855Z</time>
      </trkpt>
      <trkpt lat="43.30906833" lon="-4.39874333">
        <ele>383.0</ele>
        <time>2018-05-19T08:05:33.880Z</time>
      </trkpt>
      <trkpt lat="43.30906833" lon="-4.39874333">
        <ele>383.0</ele>
        <time>2018-05-19T08:05:34.882Z</time>
      </trkpt>
      <trkpt lat="43.309065" lon="-4.39880833">
        <ele>384.0</ele>
        <time>2018-05-19T08:05:35.876Z</time>
      </trkpt>
      <trkpt lat="43.309065" lon="-4.39883833">
        <ele>384.0</ele>
        <time>2018-05-19T08:05:36.880Z</time>
      </trkpt>
      <trkpt lat="43.309065" lon="-4.39886833">
        <ele>384.0</ele>
        <time>2018-05-19T08:05:37.881Z</time>
      </trkpt>
      <trkpt lat="43.309065" lon="-4.39886833">
        <ele>384.0</ele>
        <time>2018-05-19T08:05:38.878Z</time>
      </trkpt>
      <trkpt lat="43.30907" lon="-4.39893167">
        <ele>384.0</ele>
        <time>2018-05-19T08:05:39.858Z</time>
      </trkpt>
      <trkpt lat="43.30907" lon="-4.39893167">
        <ele>384.0</ele>
        <time>2018-05-19T08:05:40.853Z</time>
      </trkpt>
      <trkpt lat="43.30907333" lon="-4.39899333">
        <ele>385.0</ele>
        <time>2018-05-19T08:05:41.879Z</time>
      </trkpt>
      <trkpt lat="43.30907667" lon="-4.39902333">
        <ele>385.0</ele>
        <time>2018-05-19T08:05:42.882Z</time>
      </trkpt>
      <trkpt lat="43.30907667" lon="-4.39902333">
        <ele>385.0</ele>
        <time>2018-05-19T08:05:43.878Z</time>
      </trkpt>
      <trkpt lat="43.30908333" lon="-4.39908167">
        <ele>385.0</ele>
        <time>2018-05-19T08:05:44.881Z</time>
      </trkpt>
      <trkpt lat="43.30908333" lon="-4.39908167">
        <ele>385.0</ele>
        <time>2018-05-19T08:05:45.859Z</time>
      </trkpt>
      <trkpt lat="43.30909333" lon="-4.39914">
        <ele>386.0</ele>
        <time>2018-05-19T08:05:46.880Z</time>
      </trkpt>
      <trkpt lat="43.30909333" lon="-4.39914">
        <ele>386.0</ele>
        <time>2018-05-19T08:05:47.874Z</time>
      </trkpt>
      <trkpt lat="43.309105" lon="-4.39919833">
        <ele>386.0</ele>
        <time>2018-05-19T08:05:48.879Z</time>
      </trkpt>
      <trkpt lat="43.30911167" lon="-4.39923">
        <ele>386.0</ele>
        <time>2018-05-19T08:05:49.881Z</time>
      </trkpt>
      <trkpt lat="43.30911833" lon="-4.39925833">
        <ele>387.0</ele>
        <time>2018-05-19T08:05:50.881Z</time>
      </trkpt>
      <trkpt lat="43.30911833" lon="-4.39925833">
        <ele>387.0</ele>
        <time>2018-05-19T08:05:51.878Z</time>
      </trkpt>
      <trkpt lat="43.30913333" lon="-4.39931833">
        <ele>387.0</ele>
        <time>2018-05-19T08:05:52.879Z</time>
      </trkpt>
      <trkpt lat="43.30914" lon="-4.39934833">
        <ele>387.0</ele>
        <time>2018-05-19T08:05:53.880Z</time>
      </trkpt>
      <trkpt lat="43.30914" lon="-4.39934833">
        <ele>387.0</ele>
        <time>2018-05-19T08:05:54.876Z</time>
      </trkpt>
      <trkpt lat="43.30916" lon="-4.399405">
        <ele>388.0</ele>
        <time>2018-05-19T08:05:55.853Z</time>
      </trkpt>
      <trkpt lat="43.30916" lon="-4.399405">
        <ele>388.0</ele>
        <time>2018-05-19T08:05:56.877Z</time>
      </trkpt>
      <trkpt lat="43.30918" lon="-4.39946167">
        <ele>388.0</ele>
        <time>2018-05-19T08:05:57.880Z</time>
      </trkpt>
      <trkpt lat="43.30918" lon="-4.39946167">
        <ele>388.0</ele>
        <time>2018-05-19T08:05:58.874Z</time>
      </trkpt>
      <trkpt lat="43.30920167" lon="-4.39951833">
        <ele>389.0</ele>
        <time>2018-05-19T08:05:59.880Z</time>
      </trkpt>
      <trkpt lat="43.30920167" lon="-4.39951833">
        <ele>389.0</ele>
        <time>2018-05-19T08:06:00.874Z</time>
      </trkpt>
      <trkpt lat="43.30922833" lon="-4.39957333">
        <ele>389.0</ele>
        <time>2018-05-19T08:06:01.883Z</time>
      </trkpt>
      <trkpt lat="43.30922833" lon="-4.39957333">
        <ele>389.0</ele>
        <time>2018-05-19T08:06:02.877Z</time>
      </trkpt>
      <trkpt lat="43.30925167" lon="-4.39963">
        <ele>389.0</ele>
        <time>2018-05-19T08:06:03.880Z</time>
      </trkpt>
      <trkpt lat="43.30925167" lon="-4.39963">
        <ele>389.0</ele>
        <time>2018-05-19T08:06:04.870Z</time>
      </trkpt>
      <trkpt lat="43.30927333" lon="-4.399685">
        <ele>389.0</ele>
        <time>2018-05-19T08:06:05.880Z</time>
      </trkpt>
      <trkpt lat="43.30927333" lon="-4.399685">
        <ele>389.0</ele>
        <time>2018-05-19T08:06:06.878Z</time>
      </trkpt>
      <trkpt lat="43.30929333" lon="-4.39974333">
        <ele>390.0</ele>
        <time>2018-05-19T08:06:07.881Z</time>
      </trkpt>
      <trkpt lat="43.30929333" lon="-4.39974333">
        <ele>390.0</ele>
        <time>2018-05-19T08:06:08.874Z</time>
      </trkpt>
      <trkpt lat="43.30930833" lon="-4.39980167">
        <ele>390.0</ele>
        <time>2018-05-19T08:06:09.879Z</time>
      </trkpt>
      <trkpt lat="43.30930833" lon="-4.39980167">
        <ele>390.0</ele>
        <time>2018-05-19T08:06:10.874Z</time>
      </trkpt>
      <trkpt lat="43.30931667" lon="-4.399865">
        <ele>391.0</ele>
        <time>2018-05-19T08:06:11.879Z</time>
      </trkpt>
      <trkpt lat="43.30931333" lon="-4.39989833">
        <ele>391.0</ele>
        <time>2018-05-19T08:06:12.853Z</time>
      </trkpt>
      <trkpt lat="43.30931333" lon="-4.39989833">
        <ele>391.0</ele>
        <time>2018-05-19T08:06:13.878Z</time>
      </trkpt>
      <trkpt lat="43.30930833" lon="-4.399965">
        <ele>391.0</ele>
        <time>2018-05-19T08:06:14.873Z</time>
      </trkpt>
      <trkpt lat="43.30930167" lon="-4.39999833">
        <ele>391.0</ele>
        <time>2018-05-19T08:06:15.863Z</time>
      </trkpt>
      <trkpt lat="43.30930167" lon="-4.39999833">
        <ele>391.0</ele>
        <time>2018-05-19T08:06:16.849Z</time>
      </trkpt>
      <trkpt lat="43.30928" lon="-4.40005667">
        <ele>392.0</ele>
        <time>2018-05-19T08:06:17.881Z</time>
      </trkpt>
      <trkpt lat="43.30928" lon="-4.40005667">
        <ele>392.0</ele>
        <time>2018-05-19T08:06:18.874Z</time>
      </trkpt>
      <trkpt lat="43.30924333" lon="-4.40010333">
        <ele>392.0</ele>
        <time>2018-05-19T08:06:19.881Z</time>
      </trkpt>
      <trkpt lat="43.30924333" lon="-4.40010333">
        <ele>392.0</ele>
        <time>2018-05-19T08:06:20.877Z</time>
      </trkpt>
      <trkpt lat="43.309205" lon="-4.40014167">
        <ele>392.0</ele>
        <time>2018-05-19T08:06:21.864Z</time>
      </trkpt>
      <trkpt lat="43.309205" lon="-4.40014167">
        <ele>392.0</ele>
        <time>2018-05-19T08:06:22.849Z</time>
      </trkpt>
      <trkpt lat="43.30916" lon="-4.40016167">
        <ele>393.0</ele>
        <time>2018-05-19T08:06:23.880Z</time>
      </trkpt>
      <trkpt lat="43.30916" lon="-4.40016167">
        <ele>393.0</ele>
        <time>2018-05-19T08:06:24.874Z</time>
      </trkpt>
      <trkpt lat="43.30911333" lon="-4.40014667">
        <ele>394.0</ele>
        <time>2018-05-19T08:06:25.878Z</time>
      </trkpt>
      <trkpt lat="43.30911333" lon="-4.40014667">
        <ele>394.0</ele>
        <time>2018-05-19T08:06:26.883Z</time>
      </trkpt>
      <trkpt lat="43.30907" lon="-4.40011833">
        <ele>394.0</ele>
        <time>2018-05-19T08:06:27.880Z</time>
      </trkpt>
      <trkpt lat="43.30907" lon="-4.40011833">
        <ele>394.0</ele>
        <time>2018-05-19T08:06:28.878Z</time>
      </trkpt>
      <trkpt lat="43.30903" lon="-4.40007833">
        <ele>395.0</ele>
        <time>2018-05-19T08:06:29.880Z</time>
      </trkpt>
      <trkpt lat="43.30903" lon="-4.40007833">
        <ele>395.0</ele>
        <time>2018-05-19T08:06:30.875Z</time>
      </trkpt>
      <trkpt lat="43.30899833" lon="-4.40002833">
        <ele>396.0</ele>
        <time>2018-05-19T08:06:31.873Z</time>
      </trkpt>
      <trkpt lat="43.30899833" lon="-4.40002833">
        <ele>396.0</ele>
        <time>2018-05-19T08:06:32.874Z</time>
      </trkpt>
      <trkpt lat="43.30897333" lon="-4.39997">
        <ele>396.0</ele>
        <time>2018-05-19T08:06:33.880Z</time>
      </trkpt>
      <trkpt lat="43.30897333" lon="-4.39997">
        <ele>396.0</ele>
        <time>2018-05-19T08:06:34.870Z</time>
      </trkpt>
      <trkpt lat="43.30894833" lon="-4.39991167">
        <ele>397.0</ele>
        <time>2018-05-19T08:06:35.871Z</time>
      </trkpt>
      <trkpt lat="43.30893667" lon="-4.39988167">
        <ele>397.0</ele>
        <time>2018-05-19T08:06:36.855Z</time>
      </trkpt>
      <trkpt lat="43.308925" lon="-4.39985167">
        <ele>397.0</ele>
        <time>2018-05-19T08:06:37.881Z</time>
      </trkpt>
      <trkpt lat="43.308925" lon="-4.39985167">
        <ele>397.0</ele>
        <time>2018-05-19T08:06:38.877Z</time>
      </trkpt>
      <trkpt lat="43.3089" lon="-4.39979">
        <ele>397.0</ele>
        <time>2018-05-19T08:06:39.880Z</time>
      </trkpt>
      <trkpt lat="43.3089" lon="-4.39979">
        <ele>397.0</ele>
        <time>2018-05-19T08:06:40.851Z</time>
      </trkpt>
      <trkpt lat="43.308875" lon="-4.39973167">
        <ele>398.0</ele>
        <time>2018-05-19T08:06:41.876Z</time>
      </trkpt>
      <trkpt lat="43.30886167" lon="-4.39970333">
        <ele>398.0</ele>
        <time>2018-05-19T08:06:42.880Z</time>
      </trkpt>
      <trkpt lat="43.30886167" lon="-4.39970333">
        <ele>398.0</ele>
        <time>2018-05-19T08:06:43.878Z</time>
      </trkpt>
      <trkpt lat="43.30883333" lon="-4.39964833">
        <ele>399.0</ele>
        <time>2018-05-19T08:06:44.872Z</time>
      </trkpt>
      <trkpt lat="43.30883333" lon="-4.39964833">
        <ele>399.0</ele>
        <time>2018-05-19T08:06:45.859Z</time>
      </trkpt>
      <trkpt lat="43.308805" lon="-4.39959333">
        <ele>399.0</ele>
        <time>2018-05-19T08:06:46.883Z</time>
      </trkpt>
      <trkpt lat="43.30879167" lon="-4.399565">
        <ele>399.0</ele>
        <time>2018-05-19T08:06:47.849Z</time>
      </trkpt>
      <trkpt lat="43.30879167" lon="-4.399565">
        <ele>399.0</ele>
        <time>2018-05-19T08:06:48.876Z</time>
      </trkpt>
      <trkpt lat="43.308765" lon="-4.39950667">
        <ele>400.0</ele>
        <time>2018-05-19T08:06:49.881Z</time>
      </trkpt>
      <trkpt lat="43.30875333" lon="-4.39947833">
        <ele>400.0</ele>
        <time>2018-05-19T08:06:50.880Z</time>
      </trkpt>
      <trkpt lat="43.30873833" lon="-4.39945">
        <ele>400.0</ele>
        <time>2018-05-19T08:06:51.856Z</time>
      </trkpt>
      <trkpt lat="43.30873833" lon="-4.39945">
        <ele>400.0</ele>
        <time>2018-05-19T08:06:52.881Z</time>
      </trkpt>
      <trkpt lat="43.308705" lon="-4.39939833">
        <ele>400.0</ele>
        <time>2018-05-19T08:06:53.880Z</time>
      </trkpt>
      <trkpt lat="43.308705" lon="-4.39939833">
        <ele>400.0</ele>
        <time>2018-05-19T08:06:54.870Z</time>
      </trkpt>
      <trkpt lat="43.30867667" lon="-4.399345">
        <ele>401.0</ele>
        <time>2018-05-19T08:06:55.863Z</time>
      </trkpt>
      <trkpt lat="43.30867667" lon="-4.399345">
        <ele>401.0</ele>
        <time>2018-05-19T08:06:56.845Z</time>
      </trkpt>
      <trkpt lat="43.30864" lon="-4.399305">
        <ele>401.0</ele>
        <time>2018-05-19T08:06:57.877Z</time>
      </trkpt>
      <trkpt lat="43.30864" lon="-4.399305">
        <ele>401.0</ele>
        <time>2018-05-19T08:06:58.875Z</time>
      </trkpt>
      <trkpt lat="43.30859667" lon="-4.39927833">
        <ele>402.0</ele>
        <time>2018-05-19T08:06:59.878Z</time>
      </trkpt>
      <trkpt lat="43.308575" lon="-4.39927167">
        <ele>402.0</ele>
        <time>2018-05-19T08:07:00.880Z</time>
      </trkpt>
      <trkpt lat="43.30855167" lon="-4.39927">
        <ele>402.0</ele>
        <time>2018-05-19T08:07:01.881Z</time>
      </trkpt>
      <trkpt lat="43.30855167" lon="-4.39927">
        <ele>402.0</ele>
        <time>2018-05-19T08:07:02.874Z</time>
      </trkpt>
      <trkpt lat="43.30850833" lon="-4.39928333">
        <ele>403.0</ele>
        <time>2018-05-19T08:07:03.879Z</time>
      </trkpt>
      <trkpt lat="43.30850833" lon="-4.39928333">
        <ele>403.0</ele>
        <time>2018-05-19T08:07:04.870Z</time>
      </trkpt>
      <trkpt lat="43.308465" lon="-4.39930667">
        <ele>403.0</ele>
        <time>2018-05-19T08:07:05.884Z</time>
      </trkpt>
      <trkpt lat="43.308465" lon="-4.39930667">
        <ele>403.0</ele>
        <time>2018-05-19T08:07:06.876Z</time>
      </trkpt>
      <trkpt lat="43.30843333" lon="-4.39935">
        <ele>404.0</ele>
        <time>2018-05-19T08:07:07.881Z</time>
      </trkpt>
      <trkpt lat="43.30843333" lon="-4.39935">
        <ele>404.0</ele>
        <time>2018-05-19T08:07:08.874Z</time>
      </trkpt>
      <trkpt lat="43.30841333" lon="-4.399405">
        <ele>404.0</ele>
        <time>2018-05-19T08:07:09.879Z</time>
      </trkpt>
      <trkpt lat="43.30841333" lon="-4.399405">
        <ele>404.0</ele>
        <time>2018-05-19T08:07:10.874Z</time>
      </trkpt>
      <trkpt lat="43.3084" lon="-4.39946833">
        <ele>405.0</ele>
        <time>2018-05-19T08:07:11.856Z</time>
      </trkpt>
      <trkpt lat="43.3084" lon="-4.39946833">
        <ele>405.0</ele>
        <time>2018-05-19T08:07:12.846Z</time>
      </trkpt>
      <trkpt lat="43.30840667" lon="-4.39953333">
        <ele>405.0</ele>
        <time>2018-05-19T08:07:13.882Z</time>
      </trkpt>
      <trkpt lat="43.30840667" lon="-4.39953333">
        <ele>405.0</ele>
        <time>2018-05-19T08:07:14.873Z</time>
      </trkpt>
      <trkpt lat="43.308425" lon="-4.39959667">
        <ele>406.0</ele>
        <time>2018-05-19T08:07:15.857Z</time>
      </trkpt>
      <trkpt lat="43.308425" lon="-4.39959667">
        <ele>406.0</ele>
        <time>2018-05-19T08:07:16.847Z</time>
      </trkpt>
      <trkpt lat="43.30844667" lon="-4.39965667">
        <ele>406.0</ele>
        <time>2018-05-19T08:07:17.879Z</time>
      </trkpt>
      <trkpt lat="43.30844667" lon="-4.39965667">
        <ele>406.0</ele>
        <time>2018-05-19T08:07:18.873Z</time>
      </trkpt>
      <trkpt lat="43.30847333" lon="-4.39971667">
        <ele>406.0</ele>
        <time>2018-05-19T08:07:19.881Z</time>
      </trkpt>
      <trkpt lat="43.30847333" lon="-4.39971667">
        <ele>406.0</ele>
        <time>2018-05-19T08:07:20.876Z</time>
      </trkpt>
      <trkpt lat="43.30849833" lon="-4.39978">
        <ele>407.0</ele>
        <time>2018-05-19T08:07:21.880Z</time>
      </trkpt>
      <trkpt lat="43.30851167" lon="-4.39981167">
        <ele>407.0</ele>
        <time>2018-05-19T08:07:22.880Z</time>
      </trkpt>
      <trkpt lat="43.30851167" lon="-4.39981167">
        <ele>407.0</ele>
        <time>2018-05-19T08:07:23.878Z</time>
      </trkpt>
      <trkpt lat="43.30853667" lon="-4.39987333">
        <ele>407.0</ele>
        <time>2018-05-19T08:07:24.873Z</time>
      </trkpt>
      <trkpt lat="43.30855" lon="-4.39990333">
        <ele>408.0</ele>
        <time>2018-05-19T08:07:25.862Z</time>
      </trkpt>
      <trkpt lat="43.30855" lon="-4.39990333">
        <ele>408.0</ele>
        <time>2018-05-19T08:07:26.854Z</time>
      </trkpt>
      <trkpt lat="43.30857667" lon="-4.399965">
        <ele>408.0</ele>
        <time>2018-05-19T08:07:27.873Z</time>
      </trkpt>
      <trkpt lat="43.30857667" lon="-4.399965">
        <ele>408.0</ele>
        <time>2018-05-19T08:07:28.878Z</time>
      </trkpt>
      <trkpt lat="43.3086" lon="-4.40002833">
        <ele>408.0</ele>
        <time>2018-05-19T08:07:29.877Z</time>
      </trkpt>
      <trkpt lat="43.3086" lon="-4.40002833">
        <ele>408.0</ele>
        <time>2018-05-19T08:07:30.878Z</time>
      </trkpt>
      <trkpt lat="43.30861833" lon="-4.400095">
        <ele>409.0</ele>
        <time>2018-05-19T08:07:31.874Z</time>
      </trkpt>
      <trkpt lat="43.30861833" lon="-4.400095">
        <ele>409.0</ele>
        <time>2018-05-19T08:07:32.875Z</time>
      </trkpt>
      <trkpt lat="43.30863833" lon="-4.40016">
        <ele>409.0</ele>
        <time>2018-05-19T08:07:33.881Z</time>
      </trkpt>
      <trkpt lat="43.30863833" lon="-4.40016">
        <ele>409.0</ele>
        <time>2018-05-19T08:07:34.874Z</time>
      </trkpt>
      <trkpt lat="43.30866333" lon="-4.40022333">
        <ele>409.0</ele>
        <time>2018-05-19T08:07:35.858Z</time>
      </trkpt>
      <trkpt lat="43.30866333" lon="-4.40022333">
        <ele>409.0</ele>
        <time>2018-05-19T08:07:36.881Z</time>
      </trkpt>
      <trkpt lat="43.30869" lon="-4.400285">
        <ele>410.0</ele>
        <time>2018-05-19T08:07:37.881Z</time>
      </trkpt>
      <trkpt lat="43.30869" lon="-4.400285">
        <ele>410.0</ele>
        <time>2018-05-19T08:07:38.873Z</time>
      </trkpt>
      <trkpt lat="43.30871667" lon="-4.40034667">
        <ele>410.0</ele>
        <time>2018-05-19T08:07:39.855Z</time>
      </trkpt>
      <trkpt lat="43.30871667" lon="-4.40034667">
        <ele>410.0</ele>
        <time>2018-05-19T08:07:40.882Z</time>
      </trkpt>
      <trkpt lat="43.30873833" lon="-4.40040833">
        <ele>411.0</ele>
        <time>2018-05-19T08:07:41.878Z</time>
      </trkpt>
      <trkpt lat="43.30875" lon="-4.40043833">
        <ele>411.0</ele>
        <time>2018-05-19T08:07:42.880Z</time>
      </trkpt>
      <trkpt lat="43.30875" lon="-4.40043833">
        <ele>411.0</ele>
        <time>2018-05-19T08:07:43.878Z</time>
      </trkpt>
      <trkpt lat="43.308775" lon="-4.4005">
        <ele>411.0</ele>
        <time>2018-05-19T08:07:44.872Z</time>
      </trkpt>
      <trkpt lat="43.308775" lon="-4.4005">
        <ele>411.0</ele>
        <time>2018-05-19T08:07:45.865Z</time>
      </trkpt>
      <trkpt lat="43.30879667" lon="-4.40056333">
        <ele>411.0</ele>
        <time>2018-05-19T08:07:46.879Z</time>
      </trkpt>
      <trkpt lat="43.30879667" lon="-4.40056333">
        <ele>411.0</ele>
        <time>2018-05-19T08:07:47.845Z</time>
      </trkpt>
      <trkpt lat="43.30881667" lon="-4.40062667">
        <ele>412.0</ele>
        <time>2018-05-19T08:07:48.880Z</time>
      </trkpt>
      <trkpt lat="43.308825" lon="-4.40066">
        <ele>412.0</ele>
        <time>2018-05-19T08:07:49.880Z</time>
      </trkpt>
      <trkpt lat="43.308825" lon="-4.40066">
        <ele>412.0</ele>
        <time>2018-05-19T08:07:50.878Z</time>
      </trkpt>
      <trkpt lat="43.308845" lon="-4.400725">
        <ele>412.0</ele>
        <time>2018-05-19T08:07:51.855Z</time>
      </trkpt>
      <trkpt lat="43.308845" lon="-4.400725">
        <ele>412.0</ele>
        <time>2018-05-19T08:07:52.880Z</time>
      </trkpt>
      <trkpt lat="43.30885833" lon="-4.40079">
        <ele>413.0</ele>
        <time>2018-05-19T08:07:53.878Z</time>
      </trkpt>
      <trkpt lat="43.30885833" lon="-4.40079">
        <ele>413.0</ele>
        <time>2018-05-19T08:07:54.869Z</time>
      </trkpt>
      <trkpt lat="43.30885833" lon="-4.40085667">
        <ele>413.0</ele>
        <time>2018-05-19T08:07:55.854Z</time>
      </trkpt>
      <trkpt lat="43.30885833" lon="-4.40085667">
        <ele>413.0</ele>
        <time>2018-05-19T08:07:56.847Z</time>
      </trkpt>
      <trkpt lat="43.30884" lon="-4.40091833">
        <ele>414.0</ele>
        <time>2018-05-19T08:07:57.880Z</time>
      </trkpt>
      <trkpt lat="43.30884" lon="-4.40091833">
        <ele>414.0</ele>
        <time>2018-05-19T08:07:58.874Z</time>
      </trkpt>
      <trkpt lat="43.30880667" lon="-4.40096">
        <ele>414.0</ele>
        <time>2018-05-19T08:07:59.845Z</time>
      </trkpt>
      <trkpt lat="43.30880667" lon="-4.40096">
        <ele>414.0</ele>
        <time>2018-05-19T08:08:00.874Z</time>
      </trkpt>
      <trkpt lat="43.308765" lon="-4.40098667">
        <ele>415.0</ele>
        <time>2018-05-19T08:08:01.881Z</time>
      </trkpt>
      <trkpt lat="43.308765" lon="-4.40098667">
        <ele>415.0</ele>
        <time>2018-05-19T08:08:02.874Z</time>
      </trkpt>
      <trkpt lat="43.30871333" lon="-4.40098667">
        <ele>415.0</ele>
        <time>2018-05-19T08:08:03.880Z</time>
      </trkpt>
      <trkpt lat="43.30871333" lon="-4.40098667">
        <ele>415.0</ele>
        <time>2018-05-19T08:08:04.870Z</time>
      </trkpt>
      <trkpt lat="43.30866833" lon="-4.40095667">
        <ele>416.0</ele>
        <time>2018-05-19T08:08:05.880Z</time>
      </trkpt>
      <trkpt lat="43.30866833" lon="-4.40095667">
        <ele>416.0</ele>
        <time>2018-05-19T08:08:06.877Z</time>
      </trkpt>
      <trkpt lat="43.30863167" lon="-4.40091167">
        <ele>416.0</ele>
        <time>2018-05-19T08:08:07.881Z</time>
      </trkpt>
      <trkpt lat="43.30863167" lon="-4.40091167">
        <ele>416.0</ele>
        <time>2018-05-19T08:08:08.875Z</time>
      </trkpt>
      <trkpt lat="43.3086" lon="-4.40086">
        <ele>417.0</ele>
        <time>2018-05-19T08:08:09.880Z</time>
      </trkpt>
      <trkpt lat="43.308585" lon="-4.40083167">
        <ele>417.0</ele>
        <time>2018-05-19T08:08:10.879Z</time>
      </trkpt>
      <trkpt lat="43.308585" lon="-4.40083167">
        <ele>417.0</ele>
        <time>2018-05-19T08:08:11.874Z</time>
      </trkpt>
      <trkpt lat="43.30856167" lon="-4.40077333">
        <ele>418.0</ele>
        <time>2018-05-19T08:08:12.878Z</time>
      </trkpt>
      <trkpt lat="43.30855" lon="-4.40074167">
        <ele>418.0</ele>
        <time>2018-05-19T08:08:13.882Z</time>
      </trkpt>
      <trkpt lat="43.30855" lon="-4.40074167">
        <ele>418.0</ele>
        <time>2018-05-19T08:08:14.869Z</time>
      </trkpt>
      <trkpt lat="43.308525" lon="-4.40068167">
        <ele>419.0</ele>
        <time>2018-05-19T08:08:15.853Z</time>
      </trkpt>
      <trkpt lat="43.308525" lon="-4.40068167">
        <ele>419.0</ele>
        <time>2018-05-19T08:08:16.880Z</time>
      </trkpt>
      <trkpt lat="43.30849667" lon="-4.40061833">
        <ele>419.0</ele>
        <time>2018-05-19T08:08:17.879Z</time>
      </trkpt>
      <trkpt lat="43.30849667" lon="-4.40061833">
        <ele>419.0</ele>
        <time>2018-05-19T08:08:18.873Z</time>
      </trkpt>
      <trkpt lat="43.30846167" lon="-4.40056167">
        <ele>419.0</ele>
        <time>2018-05-19T08:08:19.855Z</time>
      </trkpt>
      <trkpt lat="43.30846167" lon="-4.40056167">
        <ele>419.0</ele>
        <time>2018-05-19T08:08:20.879Z</time>
      </trkpt>
      <trkpt lat="43.30841833" lon="-4.40052">
        <ele>420.0</ele>
        <time>2018-05-19T08:08:21.880Z</time>
      </trkpt>
      <trkpt lat="43.30841833" lon="-4.40052">
        <ele>420.0</ele>
        <time>2018-05-19T08:08:22.873Z</time>
      </trkpt>
      <trkpt lat="43.30837" lon="-4.40050333">
        <ele>420.0</ele>
        <time>2018-05-19T08:08:23.879Z</time>
      </trkpt>
      <trkpt lat="43.30837" lon="-4.40050333">
        <ele>420.0</ele>
        <time>2018-05-19T08:08:24.869Z</time>
      </trkpt>
      <trkpt lat="43.308325" lon="-4.40051667">
        <ele>421.0</ele>
        <time>2018-05-19T08:08:25.853Z</time>
      </trkpt>
      <trkpt lat="43.308325" lon="-4.40051667">
        <ele>421.0</ele>
        <time>2018-05-19T08:08:26.877Z</time>
      </trkpt>
      <trkpt lat="43.30828333" lon="-4.40055">
        <ele>421.0</ele>
        <time>2018-05-19T08:08:27.879Z</time>
      </trkpt>
      <trkpt lat="43.30828333" lon="-4.40055">
        <ele>421.0</ele>
        <time>2018-05-19T08:08:28.877Z</time>
      </trkpt>
      <trkpt lat="43.30826" lon="-4.40060667">
        <ele>422.0</ele>
        <time>2018-05-19T08:08:29.878Z</time>
      </trkpt>
      <trkpt lat="43.30826" lon="-4.40060667">
        <ele>422.0</ele>
        <time>2018-05-19T08:08:30.873Z</time>
      </trkpt>
      <trkpt lat="43.30825667" lon="-4.40067333">
        <ele>422.0</ele>
        <time>2018-05-19T08:08:31.880Z</time>
      </trkpt>
      <trkpt lat="43.30826333" lon="-4.40070667">
        <ele>422.0</ele>
        <time>2018-05-19T08:08:32.881Z</time>
      </trkpt>
      <trkpt lat="43.30827" lon="-4.40074333">
        <ele>422.0</ele>
        <time>2018-05-19T08:08:33.879Z</time>
      </trkpt>
      <trkpt lat="43.30827" lon="-4.40074333">
        <ele>422.0</ele>
        <time>2018-05-19T08:08:34.874Z</time>
      </trkpt>
      <trkpt lat="43.30829" lon="-4.40081167">
        <ele>423.0</ele>
        <time>2018-05-19T08:08:35.878Z</time>
      </trkpt>
      <trkpt lat="43.30829" lon="-4.40081167">
        <ele>423.0</ele>
        <time>2018-05-19T08:08:36.875Z</time>
      </trkpt>
      <trkpt lat="43.30831" lon="-4.400875">
        <ele>423.0</ele>
        <time>2018-05-19T08:08:37.881Z</time>
      </trkpt>
      <trkpt lat="43.30831" lon="-4.400875">
        <ele>423.0</ele>
        <time>2018-05-19T08:08:38.877Z</time>
      </trkpt>
      <trkpt lat="43.30833167" lon="-4.40093833">
        <ele>423.0</ele>
        <time>2018-05-19T08:08:39.879Z</time>
      </trkpt>
      <trkpt lat="43.30833167" lon="-4.40093833">
        <ele>423.0</ele>
        <time>2018-05-19T08:08:40.873Z</time>
      </trkpt>
      <trkpt lat="43.30835333" lon="-4.40100167">
        <ele>424.0</ele>
        <time>2018-05-19T08:08:41.863Z</time>
      </trkpt>
      <trkpt lat="43.30835333" lon="-4.40100167">
        <ele>424.0</ele>
        <time>2018-05-19T08:08:42.845Z</time>
      </trkpt>
      <trkpt lat="43.30837333" lon="-4.40106667">
        <ele>424.0</ele>
        <time>2018-05-19T08:08:43.881Z</time>
      </trkpt>
      <trkpt lat="43.30837333" lon="-4.40106667">
        <ele>424.0</ele>
        <time>2018-05-19T08:08:44.874Z</time>
      </trkpt>
      <trkpt lat="43.30839667" lon="-4.40112833">
        <ele>425.0</ele>
        <time>2018-05-19T08:08:45.890Z</time>
      </trkpt>
      <trkpt lat="43.30840833" lon="-4.40115833">
        <ele>425.0</ele>
        <time>2018-05-19T08:08:46.847Z</time>
      </trkpt>
      <trkpt lat="43.30840833" lon="-4.40115833">
        <ele>425.0</ele>
        <time>2018-05-19T08:08:47.853Z</time>
      </trkpt>
      <trkpt lat="43.308435" lon="-4.40121667">
        <ele>425.0</ele>
        <time>2018-05-19T08:08:48.879Z</time>
      </trkpt>
      <trkpt lat="43.30844667" lon="-4.40125">
        <ele>425.0</ele>
        <time>2018-05-19T08:08:49.881Z</time>
      </trkpt>
      <trkpt lat="43.30844667" lon="-4.40125">
        <ele>425.0</ele>
        <time>2018-05-19T08:08:50.849Z</time>
      </trkpt>
      <trkpt lat="43.30847167" lon="-4.40131167">
        <ele>426.0</ele>
        <time>2018-05-19T08:08:51.879Z</time>
      </trkpt>
      <trkpt lat="43.30847167" lon="-4.40131167">
        <ele>426.0</ele>
        <time>2018-05-19T08:08:52.874Z</time>
      </trkpt>
      <trkpt lat="43.308495" lon="-4.40137167">
        <ele>426.0</ele>
        <time>2018-05-19T08:08:53.879Z</time>
      </trkpt>
      <trkpt lat="43.308505" lon="-4.40140333">
        <ele>426.0</ele>
        <time>2018-05-19T08:08:54.873Z</time>
      </trkpt>
      <trkpt lat="43.30852" lon="-4.40143333">
        <ele>426.0</ele>
        <time>2018-05-19T08:08:55.855Z</time>
      </trkpt>
      <trkpt lat="43.30852" lon="-4.40143333">
        <ele>426.0</ele>
        <time>2018-05-19T08:08:56.880Z</time>
      </trkpt>
      <trkpt lat="43.308545" lon="-4.401495">
        <ele>426.0</ele>
        <time>2018-05-19T08:08:57.878Z</time>
      </trkpt>
      <trkpt lat="43.30855667" lon="-4.40152667">
        <ele>427.0</ele>
        <time>2018-05-19T08:08:58.880Z</time>
      </trkpt>
      <trkpt lat="43.30855667" lon="-4.40152667">
        <ele>427.0</ele>
        <time>2018-05-19T08:08:59.873Z</time>
      </trkpt>
      <trkpt lat="43.30858167" lon="-4.40159167">
        <ele>427.0</ele>
        <time>2018-05-19T08:09:00.855Z</time>
      </trkpt>
      <trkpt lat="43.30859333" lon="-4.40162333">
        <ele>427.0</ele>
        <time>2018-05-19T08:09:01.883Z</time>
      </trkpt>
      <trkpt lat="43.30860833" lon="-4.40165167">
        <ele>427.0</ele>
        <time>2018-05-19T08:09:02.879Z</time>
      </trkpt>
      <trkpt lat="43.30860833" lon="-4.40165167">
        <ele>427.0</ele>
        <time>2018-05-19T08:09:03.877Z</time>
      </trkpt>
      <trkpt lat="43.30863333" lon="-4.401715">
        <ele>428.0</ele>
        <time>2018-05-19T08:09:04.872Z</time>
      </trkpt>
      <trkpt lat="43.30864667" lon="-4.40174667">
        <ele>428.0</ele>
        <time>2018-05-19T08:09:05.855Z</time>
      </trkpt>
      <trkpt lat="43.30864667" lon="-4.40174667">
        <ele>428.0</ele>
        <time>2018-05-19T08:09:06.880Z</time>
      </trkpt>
      <trkpt lat="43.30866833" lon="-4.40181">
        <ele>428.0</ele>
        <time>2018-05-19T08:09:07.847Z</time>
      </trkpt>
      <trkpt lat="43.30866833" lon="-4.40181">
        <ele>428.0</ele>
        <time>2018-05-19T08:09:08.876Z</time>
      </trkpt>
      <trkpt lat="43.30868833" lon="-4.401875">
        <ele>429.0</ele>
        <time>2018-05-19T08:09:09.879Z</time>
      </trkpt>
      <trkpt lat="43.30868833" lon="-4.401875">
        <ele>429.0</ele>
        <time>2018-05-19T08:09:10.873Z</time>
      </trkpt>
      <trkpt lat="43.30870833" lon="-4.40194167">
        <ele>429.0</ele>
        <time>2018-05-19T08:09:11.879Z</time>
      </trkpt>
      <trkpt lat="43.30870833" lon="-4.40194167">
        <ele>429.0</ele>
        <time>2018-05-19T08:09:12.850Z</time>
      </trkpt>
      <trkpt lat="43.308725" lon="-4.40201167">
        <ele>429.0</ele>
        <time>2018-05-19T08:09:13.881Z</time>
      </trkpt>
      <trkpt lat="43.308725" lon="-4.40201167">
        <ele>429.0</ele>
        <time>2018-05-19T08:09:14.869Z</time>
      </trkpt>
      <trkpt lat="43.30873667" lon="-4.40208167">
        <ele>430.0</ele>
        <time>2018-05-19T08:09:15.854Z</time>
      </trkpt>
      <trkpt lat="43.30873667" lon="-4.40208167">
        <ele>430.0</ele>
        <time>2018-05-19T08:09:16.877Z</time>
      </trkpt>
      <trkpt lat="43.30874" lon="-4.40215333">
        <ele>430.0</ele>
        <time>2018-05-19T08:09:17.879Z</time>
      </trkpt>
      <trkpt lat="43.30874" lon="-4.40215333">
        <ele>430.0</ele>
        <time>2018-05-19T08:09:18.878Z</time>
      </trkpt>
      <trkpt lat="43.30873" lon="-4.40222167">
        <ele>430.0</ele>
        <time>2018-05-19T08:09:19.877Z</time>
      </trkpt>
      <trkpt lat="43.30871833" lon="-4.402255">
        <ele>431.0</ele>
        <time>2018-05-19T08:09:20.879Z</time>
      </trkpt>
      <trkpt lat="43.30871833" lon="-4.402255">
        <ele>431.0</ele>
        <time>2018-05-19T08:09:21.877Z</time>
      </trkpt>
      <trkpt lat="43.308685" lon="-4.40230833">
        <ele>431.0</ele>
        <time>2018-05-19T08:09:22.876Z</time>
      </trkpt>
      <trkpt lat="43.308685" lon="-4.40230833">
        <ele>431.0</ele>
        <time>2018-05-19T08:09:23.873Z</time>
      </trkpt>
      <trkpt lat="43.30864167" lon="-4.40234">
        <ele>431.0</ele>
        <time>2018-05-19T08:09:24.871Z</time>
      </trkpt>
      <trkpt lat="43.30861667" lon="-4.40234833">
        <ele>432.0</ele>
        <time>2018-05-19T08:09:25.857Z</time>
      </trkpt>
      <trkpt lat="43.30861667" lon="-4.40234833">
        <ele>432.0</ele>
        <time>2018-05-19T08:09:26.882Z</time>
      </trkpt>
      <trkpt lat="43.30856333" lon="-4.40234667">
        <ele>432.0</ele>
        <time>2018-05-19T08:09:27.880Z</time>
      </trkpt>
      <trkpt lat="43.30856333" lon="-4.40234667">
        <ele>432.0</ele>
        <time>2018-05-19T08:09:28.873Z</time>
      </trkpt>
      <trkpt lat="43.30851167" lon="-4.402325">
        <ele>432.0</ele>
        <time>2018-05-19T08:09:29.878Z</time>
      </trkpt>
      <trkpt lat="43.30849" lon="-4.40230667">
        <ele>433.0</ele>
        <time>2018-05-19T08:09:30.879Z</time>
      </trkpt>
      <trkpt lat="43.30849" lon="-4.40230667">
        <ele>433.0</ele>
        <time>2018-05-19T08:09:31.864Z</time>
      </trkpt>
      <trkpt lat="43.308455" lon="-4.40225833">
        <ele>433.0</ele>
        <time>2018-05-19T08:09:32.848Z</time>
      </trkpt>
      <trkpt lat="43.30844" lon="-4.40222833">
        <ele>433.0</ele>
        <time>2018-05-19T08:09:33.879Z</time>
      </trkpt>
      <trkpt lat="43.30844" lon="-4.40222833">
        <ele>433.0</ele>
        <time>2018-05-19T08:09:34.868Z</time>
      </trkpt>
      <trkpt lat="43.308415" lon="-4.402165">
        <ele>434.0</ele>
        <time>2018-05-19T08:09:35.856Z</time>
      </trkpt>
      <trkpt lat="43.308405" lon="-4.40213333">
        <ele>434.0</ele>
        <time>2018-05-19T08:09:36.845Z</time>
      </trkpt>
      <trkpt lat="43.308405" lon="-4.40213333">
        <ele>434.0</ele>
        <time>2018-05-19T08:09:37.878Z</time>
      </trkpt>
      <trkpt lat="43.30838" lon="-4.40207">
        <ele>435.0</ele>
        <time>2018-05-19T08:09:38.879Z</time>
      </trkpt>
      <trkpt lat="43.30836833" lon="-4.40203833">
        <ele>435.0</ele>
        <time>2018-05-19T08:09:39.846Z</time>
      </trkpt>
      <trkpt lat="43.30836833" lon="-4.40203833">
        <ele>435.0</ele>
        <time>2018-05-19T08:09:40.873Z</time>
      </trkpt>
      <trkpt lat="43.30834333" lon="-4.401975">
        <ele>435.0</ele>
        <time>2018-05-19T08:09:41.878Z</time>
      </trkpt>
      <trkpt lat="43.30832667" lon="-4.40194833">
        <ele>436.0</ele>
        <time>2018-05-19T08:09:42.879Z</time>
      </trkpt>
      <trkpt lat="43.30832667" lon="-4.40194833">
        <ele>436.0</ele>
        <time>2018-05-19T08:09:43.869Z</time>
      </trkpt>
      <trkpt lat="43.30828833" lon="-4.40190333">
        <ele>436.0</ele>
        <time>2018-05-19T08:09:44.853Z</time>
      </trkpt>
      <trkpt lat="43.30828833" lon="-4.40190333">
        <ele>436.0</ele>
        <time>2018-05-19T08:09:45.859Z</time>
      </trkpt>
      <trkpt lat="43.30824" lon="-4.40188">
        <ele>436.0</ele>
        <time>2018-05-19T08:09:46.858Z</time>
      </trkpt>
      <trkpt lat="43.30824" lon="-4.40188">
        <ele>436.0</ele>
        <time>2018-05-19T08:09:47.867Z</time>
      </trkpt>
      <trkpt lat="43.30819" lon="-4.40187833">
        <ele>437.0</ele>
        <time>2018-05-19T08:09:48.853Z</time>
      </trkpt>
      <trkpt lat="43.30819" lon="-4.40187833">
        <ele>437.0</ele>
        <time>2018-05-19T08:09:49.878Z</time>
      </trkpt>
      <trkpt lat="43.30814" lon="-4.40190167">
        <ele>437.0</ele>
        <time>2018-05-19T08:09:50.878Z</time>
      </trkpt>
      <trkpt lat="43.30811833" lon="-4.40192167">
        <ele>437.0</ele>
        <time>2018-05-19T08:09:51.880Z</time>
      </trkpt>
      <trkpt lat="43.30811833" lon="-4.40192167">
        <ele>437.0</ele>
        <time>2018-05-19T08:09:52.873Z</time>
      </trkpt>
      <trkpt lat="43.30808167" lon="-4.40197">
        <ele>438.0</ele>
        <time>2018-05-19T08:09:53.878Z</time>
      </trkpt>
      <trkpt lat="43.30808167" lon="-4.40197">
        <ele>438.0</ele>
        <time>2018-05-19T08:09:54.868Z</time>
      </trkpt>
      <trkpt lat="43.30805167" lon="-4.402025">
        <ele>439.0</ele>
        <time>2018-05-19T08:09:55.853Z</time>
      </trkpt>
      <trkpt lat="43.30805167" lon="-4.402025">
        <ele>439.0</ele>
        <time>2018-05-19T08:09:56.879Z</time>
      </trkpt>
      <trkpt lat="43.30803167" lon="-4.40208833">
        <ele>439.0</ele>
        <time>2018-05-19T08:09:57.878Z</time>
      </trkpt>
      <trkpt lat="43.30802" lon="-4.40211833">
        <ele>440.0</ele>
        <time>2018-05-19T08:09:58.880Z</time>
      </trkpt>
      <trkpt lat="43.30802" lon="-4.40211833">
        <ele>440.0</ele>
        <time>2018-05-19T08:09:59.874Z</time>
      </trkpt>
      <trkpt lat="43.30799" lon="-4.402185">
        <ele>440.0</ele>
        <time>2018-05-19T08:10:00.879Z</time>
      </trkpt>
      <trkpt lat="43.30798" lon="-4.402215">
        <ele>441.0</ele>
        <time>2018-05-19T08:10:01.880Z</time>
      </trkpt>
      <trkpt lat="43.30798" lon="-4.402215">
        <ele>441.0</ele>
        <time>2018-05-19T08:10:02.873Z</time>
      </trkpt>
      <trkpt lat="43.30796333" lon="-4.40227833">
        <ele>441.0</ele>
        <time>2018-05-19T08:10:03.879Z</time>
      </trkpt>
      <trkpt lat="43.30796333" lon="-4.40227833">
        <ele>441.0</ele>
        <time>2018-05-19T08:10:04.870Z</time>
      </trkpt>
      <trkpt lat="43.307945" lon="-4.40234833">
        <ele>442.0</ele>
        <time>2018-05-19T08:10:05.878Z</time>
      </trkpt>
      <trkpt lat="43.30793667" lon="-4.402385">
        <ele>442.0</ele>
        <time>2018-05-19T08:10:06.879Z</time>
      </trkpt>
      <trkpt lat="43.30793" lon="-4.40242">
        <ele>442.0</ele>
        <time>2018-05-19T08:10:07.881Z</time>
      </trkpt>
      <trkpt lat="43.30793" lon="-4.40242">
        <ele>442.0</ele>
        <time>2018-05-19T08:10:08.873Z</time>
      </trkpt>
      <trkpt lat="43.307915" lon="-4.40249167">
        <ele>443.0</ele>
        <time>2018-05-19T08:10:09.856Z</time>
      </trkpt>
      <trkpt lat="43.307915" lon="-4.40249167">
        <ele>443.0</ele>
        <time>2018-05-19T08:10:10.881Z</time>
      </trkpt>
      <trkpt lat="43.30790167" lon="-4.40256">
        <ele>443.0</ele>
        <time>2018-05-19T08:10:11.846Z</time>
      </trkpt>
      <trkpt lat="43.30789167" lon="-4.40259333">
        <ele>444.0</ele>
        <time>2018-05-19T08:10:12.851Z</time>
      </trkpt>
      <trkpt lat="43.30787833" lon="-4.402625">
        <ele>444.0</ele>
        <time>2018-05-19T08:10:13.879Z</time>
      </trkpt>
      <trkpt lat="43.30787833" lon="-4.402625">
        <ele>444.0</ele>
        <time>2018-05-19T08:10:14.869Z</time>
      </trkpt>
      <trkpt lat="43.30785667" lon="-4.40268833">
        <ele>444.0</ele>
        <time>2018-05-19T08:10:15.853Z</time>
      </trkpt>
      <trkpt lat="43.30785667" lon="-4.40268833">
        <ele>444.0</ele>
        <time>2018-05-19T08:10:16.880Z</time>
      </trkpt>
      <trkpt lat="43.30784" lon="-4.40275167">
        <ele>445.0</ele>
        <time>2018-05-19T08:10:17.879Z</time>
      </trkpt>
      <trkpt lat="43.30783167" lon="-4.40278333">
        <ele>445.0</ele>
        <time>2018-05-19T08:10:18.878Z</time>
      </trkpt>
      <trkpt lat="43.30782333" lon="-4.402815">
        <ele>445.0</ele>
        <time>2018-05-19T08:10:19.880Z</time>
      </trkpt>
      <trkpt lat="43.30782333" lon="-4.402815">
        <ele>445.0</ele>
        <time>2018-05-19T08:10:20.874Z</time>
      </trkpt>
      <trkpt lat="43.30780667" lon="-4.40287667">
        <ele>446.0</ele>
        <time>2018-05-19T08:10:21.879Z</time>
      </trkpt>
      <trkpt lat="43.307795" lon="-4.40290333">
        <ele>446.0</ele>
        <time>2018-05-19T08:10:22.879Z</time>
      </trkpt>
      <trkpt lat="43.307795" lon="-4.40290333">
        <ele>446.0</ele>
        <time>2018-05-19T08:10:23.874Z</time>
      </trkpt>
      <trkpt lat="43.30777667" lon="-4.40296333">
        <ele>447.0</ele>
        <time>2018-05-19T08:10:24.871Z</time>
      </trkpt>
      <trkpt lat="43.30776833" lon="-4.40299333">
        <ele>447.0</ele>
        <time>2018-05-19T08:10:25.856Z</time>
      </trkpt>
      <trkpt lat="43.30776833" lon="-4.40299333">
        <ele>447.0</ele>
        <time>2018-05-19T08:10:26.881Z</time>
      </trkpt>
      <trkpt lat="43.30775333" lon="-4.40306">
        <ele>447.0</ele>
        <time>2018-05-19T08:10:27.875Z</time>
      </trkpt>
      <trkpt lat="43.307745" lon="-4.40309167">
        <ele>447.0</ele>
        <time>2018-05-19T08:10:28.879Z</time>
      </trkpt>
      <trkpt lat="43.30773833" lon="-4.40312333">
        <ele>448.0</ele>
        <time>2018-05-19T08:10:29.879Z</time>
      </trkpt>
      <trkpt lat="43.30773833" lon="-4.40312333">
        <ele>448.0</ele>
        <time>2018-05-19T08:10:30.873Z</time>
      </trkpt>
      <trkpt lat="43.307725" lon="-4.40318833">
        <ele>448.0</ele>
        <time>2018-05-19T08:10:31.870Z</time>
      </trkpt>
      <trkpt lat="43.307725" lon="-4.40318833">
        <ele>448.0</ele>
        <time>2018-05-19T08:10:32.873Z</time>
      </trkpt>
      <trkpt lat="43.30771333" lon="-4.40325">
        <ele>449.0</ele>
        <time>2018-05-19T08:10:33.863Z</time>
      </trkpt>
      <trkpt lat="43.30771333" lon="-4.40325">
        <ele>449.0</ele>
        <time>2018-05-19T08:10:34.848Z</time>
      </trkpt>
      <trkpt lat="43.3077" lon="-4.40331333">
        <ele>450.0</ele>
        <time>2018-05-19T08:10:35.876Z</time>
      </trkpt>
      <trkpt lat="43.3077" lon="-4.40331333">
        <ele>450.0</ele>
        <time>2018-05-19T08:10:36.873Z</time>
      </trkpt>
      <trkpt lat="43.30769" lon="-4.40337833">
        <ele>450.0</ele>
        <time>2018-05-19T08:10:37.845Z</time>
      </trkpt>
      <trkpt lat="43.30768667" lon="-4.40341167">
        <ele>450.0</ele>
        <time>2018-05-19T08:10:38.877Z</time>
      </trkpt>
      <trkpt lat="43.30768667" lon="-4.40341167">
        <ele>450.0</ele>
        <time>2018-05-19T08:10:39.874Z</time>
      </trkpt>
      <trkpt lat="43.30768167" lon="-4.40348">
        <ele>451.0</ele>
        <time>2018-05-19T08:10:40.880Z</time>
      </trkpt>
      <trkpt lat="43.30768167" lon="-4.40348">
        <ele>451.0</ele>
        <time>2018-05-19T08:10:41.873Z</time>
      </trkpt>
      <trkpt lat="43.30767667" lon="-4.40354667">
        <ele>451.0</ele>
        <time>2018-05-19T08:10:42.855Z</time>
      </trkpt>
      <trkpt lat="43.307675" lon="-4.40358">
        <ele>451.0</ele>
        <time>2018-05-19T08:10:43.881Z</time>
      </trkpt>
      <trkpt lat="43.307675" lon="-4.40358">
        <ele>451.0</ele>
        <time>2018-05-19T08:10:44.869Z</time>
      </trkpt>
      <trkpt lat="43.30767" lon="-4.403645">
        <ele>452.0</ele>
        <time>2018-05-19T08:10:45.860Z</time>
      </trkpt>
      <trkpt lat="43.30767" lon="-4.403645">
        <ele>452.0</ele>
        <time>2018-05-19T08:10:46.846Z</time>
      </trkpt>
      <trkpt lat="43.307665" lon="-4.403705">
        <ele>453.0</ele>
        <time>2018-05-19T08:10:47.853Z</time>
      </trkpt>
      <trkpt lat="43.30766333" lon="-4.40374">
        <ele>453.0</ele>
        <time>2018-05-19T08:10:48.876Z</time>
      </trkpt>
      <trkpt lat="43.307665" lon="-4.40377167">
        <ele>454.0</ele>
        <time>2018-05-19T08:10:49.881Z</time>
      </trkpt>
      <trkpt lat="43.307665" lon="-4.40377167">
        <ele>454.0</ele>
        <time>2018-05-19T08:10:50.875Z</time>
      </trkpt>
      <trkpt lat="43.30767" lon="-4.40384167">
        <ele>454.0</ele>
        <time>2018-05-19T08:10:51.882Z</time>
      </trkpt>
      <trkpt lat="43.30767" lon="-4.40384167">
        <ele>454.0</ele>
        <time>2018-05-19T08:10:52.849Z</time>
      </trkpt>
      <trkpt lat="43.30767833" lon="-4.40391167">
        <ele>455.0</ele>
        <time>2018-05-19T08:10:53.876Z</time>
      </trkpt>
      <trkpt lat="43.30767833" lon="-4.40391167">
        <ele>455.0</ele>
        <time>2018-05-19T08:10:54.868Z</time>
      </trkpt>
      <trkpt lat="43.30769" lon="-4.40397667">
        <ele>455.0</ele>
        <time>2018-05-19T08:10:55.853Z</time>
      </trkpt>
      <trkpt lat="43.30769" lon="-4.40397667">
        <ele>455.0</ele>
        <time>2018-05-19T08:10:56.877Z</time>
      </trkpt>
      <trkpt lat="43.30770333" lon="-4.40404167">
        <ele>456.0</ele>
        <time>2018-05-19T08:10:57.882Z</time>
      </trkpt>
      <trkpt lat="43.30771" lon="-4.40407667">
        <ele>456.0</ele>
        <time>2018-05-19T08:10:58.880Z</time>
      </trkpt>
      <trkpt lat="43.30771" lon="-4.40407667">
        <ele>456.0</ele>
        <time>2018-05-19T08:10:59.873Z</time>
      </trkpt>
      <trkpt lat="43.307725" lon="-4.40414">
        <ele>456.0</ele>
        <time>2018-05-19T08:11:00.878Z</time>
      </trkpt>
      <trkpt lat="43.30773167" lon="-4.40417333">
        <ele>457.0</ele>
        <time>2018-05-19T08:11:01.882Z</time>
      </trkpt>
      <trkpt lat="43.30773167" lon="-4.40417333">
        <ele>457.0</ele>
        <time>2018-05-19T08:11:02.873Z</time>
      </trkpt>
      <trkpt lat="43.30774667" lon="-4.40423833">
        <ele>457.0</ele>
        <time>2018-05-19T08:11:03.878Z</time>
      </trkpt>
      <trkpt lat="43.30774667" lon="-4.40423833">
        <ele>457.0</ele>
        <time>2018-05-19T08:11:04.869Z</time>
      </trkpt>
      <trkpt lat="43.30776333" lon="-4.40430333">
        <ele>458.0</ele>
        <time>2018-05-19T08:11:05.851Z</time>
      </trkpt>
      <trkpt lat="43.30776333" lon="-4.40430333">
        <ele>458.0</ele>
        <time>2018-05-19T08:11:06.878Z</time>
      </trkpt>
      <trkpt lat="43.30778" lon="-4.40437">
        <ele>458.0</ele>
        <time>2018-05-19T08:11:07.883Z</time>
      </trkpt>
      <trkpt lat="43.30778" lon="-4.40437">
        <ele>458.0</ele>
        <time>2018-05-19T08:11:08.876Z</time>
      </trkpt>
      <trkpt lat="43.30779667" lon="-4.40443667">
        <ele>459.0</ele>
        <time>2018-05-19T08:11:09.879Z</time>
      </trkpt>
      <trkpt lat="43.30779667" lon="-4.40443667">
        <ele>459.0</ele>
        <time>2018-05-19T08:11:10.875Z</time>
      </trkpt>
      <trkpt lat="43.30780833" lon="-4.404505">
        <ele>459.0</ele>
        <time>2018-05-19T08:11:11.880Z</time>
      </trkpt>
      <trkpt lat="43.30780833" lon="-4.404505">
        <ele>459.0</ele>
        <time>2018-05-19T08:11:12.873Z</time>
      </trkpt>
      <trkpt lat="43.30781833" lon="-4.40457167">
        <ele>459.0</ele>
        <time>2018-05-19T08:11:13.847Z</time>
      </trkpt>
      <trkpt lat="43.30781833" lon="-4.40457167">
        <ele>459.0</ele>
        <time>2018-05-19T08:11:14.874Z</time>
      </trkpt>
      <trkpt lat="43.30782333" lon="-4.40463833">
        <ele>460.0</ele>
        <time>2018-05-19T08:11:15.879Z</time>
      </trkpt>
      <trkpt lat="43.30782333" lon="-4.40463833">
        <ele>460.0</ele>
        <time>2018-05-19T08:11:16.876Z</time>
      </trkpt>
      <trkpt lat="43.30782167" lon="-4.40470667">
        <ele>460.0</ele>
        <time>2018-05-19T08:11:17.847Z</time>
      </trkpt>
      <trkpt lat="43.30782167" lon="-4.40470667">
        <ele>460.0</ele>
        <time>2018-05-19T08:11:18.873Z</time>
      </trkpt>
      <trkpt lat="43.307815" lon="-4.404785">
        <ele>461.0</ele>
        <time>2018-05-19T08:11:19.880Z</time>
      </trkpt>
      <trkpt lat="43.307815" lon="-4.404785">
        <ele>461.0</ele>
        <time>2018-05-19T08:11:20.874Z</time>
      </trkpt>
      <trkpt lat="43.30782167" lon="-4.40485167">
        <ele>461.0</ele>
        <time>2018-05-19T08:11:21.875Z</time>
      </trkpt>
      <trkpt lat="43.30782167" lon="-4.40485167">
        <ele>461.0</ele>
        <time>2018-05-19T08:11:22.873Z</time>
      </trkpt>
      <trkpt lat="43.30782667" lon="-4.40492">
        <ele>462.0</ele>
        <time>2018-05-19T08:11:23.878Z</time>
      </trkpt>
      <trkpt lat="43.30782667" lon="-4.40492">
        <ele>462.0</ele>
        <time>2018-05-19T08:11:24.869Z</time>
      </trkpt>
      <trkpt lat="43.307835" lon="-4.40498667">
        <ele>462.0</ele>
        <time>2018-05-19T08:11:25.853Z</time>
      </trkpt>
      <trkpt lat="43.307835" lon="-4.40498667">
        <ele>462.0</ele>
        <time>2018-05-19T08:11:26.879Z</time>
      </trkpt>
      <trkpt lat="43.30783167" lon="-4.40505667">
        <ele>463.0</ele>
        <time>2018-05-19T08:11:27.883Z</time>
      </trkpt>
      <trkpt lat="43.30783167" lon="-4.40505667">
        <ele>463.0</ele>
        <time>2018-05-19T08:11:28.873Z</time>
      </trkpt>
      <trkpt lat="43.30782667" lon="-4.405125">
        <ele>463.0</ele>
        <time>2018-05-19T08:11:29.855Z</time>
      </trkpt>
      <trkpt lat="43.30782667" lon="-4.405125">
        <ele>463.0</ele>
        <time>2018-05-19T08:11:30.880Z</time>
      </trkpt>
      <trkpt lat="43.307825" lon="-4.40519667">
        <ele>463.0</ele>
        <time>2018-05-19T08:11:31.872Z</time>
      </trkpt>
      <trkpt lat="43.307825" lon="-4.40519667">
        <ele>463.0</ele>
        <time>2018-05-19T08:11:32.873Z</time>
      </trkpt>
      <trkpt lat="43.30782167" lon="-4.405265">
        <ele>464.0</ele>
        <time>2018-05-19T08:11:33.878Z</time>
      </trkpt>
      <trkpt lat="43.30782167" lon="-4.405265">
        <ele>464.0</ele>
        <time>2018-05-19T08:11:34.870Z</time>
      </trkpt>
      <trkpt lat="43.30782" lon="-4.40533333">
        <ele>464.0</ele>
        <time>2018-05-19T08:11:35.877Z</time>
      </trkpt>
      <trkpt lat="43.30782" lon="-4.40533333">
        <ele>464.0</ele>
        <time>2018-05-19T08:11:36.874Z</time>
      </trkpt>
      <trkpt lat="43.30781333" lon="-4.4054">
        <ele>465.0</ele>
        <time>2018-05-19T08:11:37.882Z</time>
      </trkpt>
      <trkpt lat="43.30781333" lon="-4.4054">
        <ele>465.0</ele>
        <time>2018-05-19T08:11:38.876Z</time>
      </trkpt>
      <trkpt lat="43.30780333" lon="-4.40546333">
        <ele>465.0</ele>
        <time>2018-05-19T08:11:39.878Z</time>
      </trkpt>
      <trkpt lat="43.3078" lon="-4.405495">
        <ele>465.0</ele>
        <time>2018-05-19T08:11:40.877Z</time>
      </trkpt>
      <trkpt lat="43.3078" lon="-4.405495">
        <ele>465.0</ele>
        <time>2018-05-19T08:11:41.873Z</time>
      </trkpt>
      <trkpt lat="43.30779333" lon="-4.40556167">
        <ele>466.0</ele>
        <time>2018-05-19T08:11:42.878Z</time>
      </trkpt>
      <trkpt lat="43.30779167" lon="-4.405595">
        <ele>466.0</ele>
        <time>2018-05-19T08:11:43.880Z</time>
      </trkpt>
      <trkpt lat="43.30779167" lon="-4.405595">
        <ele>466.0</ele>
        <time>2018-05-19T08:11:44.872Z</time>
      </trkpt>
      <trkpt lat="43.30779" lon="-4.40566">
        <ele>466.0</ele>
        <time>2018-05-19T08:11:45.867Z</time>
      </trkpt>
      <trkpt lat="43.30778833" lon="-4.40569167">
        <ele>467.0</ele>
        <time>2018-05-19T08:11:46.878Z</time>
      </trkpt>
      <trkpt lat="43.30778667" lon="-4.40572333">
        <ele>467.0</ele>
        <time>2018-05-19T08:11:47.884Z</time>
      </trkpt>
      <trkpt lat="43.30778667" lon="-4.40572333">
        <ele>467.0</ele>
        <time>2018-05-19T08:11:48.848Z</time>
      </trkpt>
      <trkpt lat="43.307785" lon="-4.40579">
        <ele>468.0</ele>
        <time>2018-05-19T08:11:49.880Z</time>
      </trkpt>
      <trkpt lat="43.307785" lon="-4.40579">
        <ele>468.0</ele>
        <time>2018-05-19T08:11:50.873Z</time>
      </trkpt>
      <trkpt lat="43.30778333" lon="-4.405855">
        <ele>468.0</ele>
        <time>2018-05-19T08:11:51.862Z</time>
      </trkpt>
      <trkpt lat="43.30778333" lon="-4.405855">
        <ele>468.0</ele>
        <time>2018-05-19T08:11:52.845Z</time>
      </trkpt>
      <trkpt lat="43.30777833" lon="-4.40592">
        <ele>469.0</ele>
        <time>2018-05-19T08:11:53.879Z</time>
      </trkpt>
      <trkpt lat="43.30777833" lon="-4.40592">
        <ele>469.0</ele>
        <time>2018-05-19T08:11:54.868Z</time>
      </trkpt>
      <trkpt lat="43.30776667" lon="-4.40598333">
        <ele>469.0</ele>
        <time>2018-05-19T08:11:55.853Z</time>
      </trkpt>
      <trkpt lat="43.30776667" lon="-4.40598333">
        <ele>469.0</ele>
        <time>2018-05-19T08:11:56.879Z</time>
      </trkpt>
      <trkpt lat="43.30775833" lon="-4.40604833">
        <ele>469.0</ele>
        <time>2018-05-19T08:11:57.878Z</time>
      </trkpt>
      <trkpt lat="43.30775833" lon="-4.40604833">
        <ele>469.0</ele>
        <time>2018-05-19T08:11:58.873Z</time>
      </trkpt>
      <trkpt lat="43.30774833" lon="-4.40611167">
        <ele>470.0</ele>
        <time>2018-05-19T08:11:59.877Z</time>
      </trkpt>
      <trkpt lat="43.30774833" lon="-4.40611167">
        <ele>470.0</ele>
        <time>2018-05-19T08:12:00.873Z</time>
      </trkpt>
      <trkpt lat="43.30774167" lon="-4.40617667">
        <ele>470.0</ele>
        <time>2018-05-19T08:12:01.855Z</time>
      </trkpt>
      <trkpt lat="43.30774167" lon="-4.40617667">
        <ele>470.0</ele>
        <time>2018-05-19T08:12:02.880Z</time>
      </trkpt>
      <trkpt lat="43.30773333" lon="-4.40624333">
        <ele>471.0</ele>
        <time>2018-05-19T08:12:03.878Z</time>
      </trkpt>
      <trkpt lat="43.30773333" lon="-4.40624333">
        <ele>471.0</ele>
        <time>2018-05-19T08:12:04.868Z</time>
      </trkpt>
      <trkpt lat="43.30772333" lon="-4.40630833">
        <ele>471.0</ele>
        <time>2018-05-19T08:12:05.854Z</time>
      </trkpt>
      <trkpt lat="43.30772333" lon="-4.40630833">
        <ele>471.0</ele>
        <time>2018-05-19T08:12:06.879Z</time>
      </trkpt>
      <trkpt lat="43.30771333" lon="-4.40637333">
        <ele>471.0</ele>
        <time>2018-05-19T08:12:07.879Z</time>
      </trkpt>
      <trkpt lat="43.30770667" lon="-4.406405">
        <ele>472.0</ele>
        <time>2018-05-19T08:12:08.879Z</time>
      </trkpt>
      <trkpt lat="43.30770667" lon="-4.406405">
        <ele>472.0</ele>
        <time>2018-05-19T08:12:09.877Z</time>
      </trkpt>
      <trkpt lat="43.30769" lon="-4.406465">
        <ele>472.0</ele>
        <time>2018-05-19T08:12:10.879Z</time>
      </trkpt>
      <trkpt lat="43.30769" lon="-4.406465">
        <ele>472.0</ele>
        <time>2018-05-19T08:12:11.873Z</time>
      </trkpt>
      <trkpt lat="43.30767" lon="-4.406525">
        <ele>472.0</ele>
        <time>2018-05-19T08:12:12.873Z</time>
      </trkpt>
      <trkpt lat="43.30765833" lon="-4.406555">
        <ele>473.0</ele>
        <time>2018-05-19T08:12:13.856Z</time>
      </trkpt>
      <trkpt lat="43.30765833" lon="-4.406555">
        <ele>473.0</ele>
        <time>2018-05-19T08:12:14.881Z</time>
      </trkpt>
      <trkpt lat="43.30764" lon="-4.40661667">
        <ele>473.0</ele>
        <time>2018-05-19T08:12:15.879Z</time>
      </trkpt>
      <trkpt lat="43.30764" lon="-4.40661667">
        <ele>473.0</ele>
        <time>2018-05-19T08:12:16.874Z</time>
      </trkpt>
      <trkpt lat="43.30761667" lon="-4.406675">
        <ele>473.0</ele>
        <time>2018-05-19T08:12:17.880Z</time>
      </trkpt>
      <trkpt lat="43.30761667" lon="-4.406675">
        <ele>473.0</ele>
        <time>2018-05-19T08:12:18.872Z</time>
      </trkpt>
      <trkpt lat="43.30759833" lon="-4.40673">
        <ele>474.0</ele>
        <time>2018-05-19T08:12:19.855Z</time>
      </trkpt>
      <trkpt lat="43.30759833" lon="-4.40673">
        <ele>474.0</ele>
        <time>2018-05-19T08:12:20.880Z</time>
      </trkpt>
      <trkpt lat="43.30758333" lon="-4.40679">
        <ele>475.0</ele>
        <time>2018-05-19T08:12:21.880Z</time>
      </trkpt>
      <trkpt lat="43.30758333" lon="-4.40679">
        <ele>475.0</ele>
        <time>2018-05-19T08:12:22.874Z</time>
      </trkpt>
      <trkpt lat="43.30756333" lon="-4.40684833">
        <ele>475.0</ele>
        <time>2018-05-19T08:12:23.879Z</time>
      </trkpt>
      <trkpt lat="43.30756333" lon="-4.40684833">
        <ele>475.0</ele>
        <time>2018-05-19T08:12:24.869Z</time>
      </trkpt>
      <trkpt lat="43.30753833" lon="-4.40690667">
        <ele>475.0</ele>
        <time>2018-05-19T08:12:25.853Z</time>
      </trkpt>
      <trkpt lat="43.30753833" lon="-4.40690667">
        <ele>475.0</ele>
        <time>2018-05-19T08:12:26.878Z</time>
      </trkpt>
      <trkpt lat="43.30751" lon="-4.40695667">
        <ele>476.0</ele>
        <time>2018-05-19T08:12:27.880Z</time>
      </trkpt>
      <trkpt lat="43.30751" lon="-4.40695667">
        <ele>476.0</ele>
        <time>2018-05-19T08:12:28.869Z</time>
      </trkpt>
      <trkpt lat="43.30747667" lon="-4.40700333">
        <ele>477.0</ele>
        <time>2018-05-19T08:12:29.853Z</time>
      </trkpt>
      <trkpt lat="43.30747667" lon="-4.40700333">
        <ele>477.0</ele>
        <time>2018-05-19T08:12:30.878Z</time>
      </trkpt>
      <trkpt lat="43.307435" lon="-4.40704333">
        <ele>477.0</ele>
        <time>2018-05-19T08:12:31.867Z</time>
      </trkpt>
      <trkpt lat="43.307435" lon="-4.40704333">
        <ele>477.0</ele>
        <time>2018-05-19T08:12:32.853Z</time>
      </trkpt>
      <trkpt lat="43.30739667" lon="-4.40709667">
        <ele>477.0</ele>
        <time>2018-05-19T08:12:33.879Z</time>
      </trkpt>
      <trkpt lat="43.30739667" lon="-4.40709667">
        <ele>477.0</ele>
        <time>2018-05-19T08:12:34.868Z</time>
      </trkpt>
      <trkpt lat="43.30736" lon="-4.40715167">
        <ele>477.0</ele>
        <time>2018-05-19T08:12:35.852Z</time>
      </trkpt>
      <trkpt lat="43.307345" lon="-4.40718">
        <ele>478.0</ele>
        <time>2018-05-19T08:12:36.879Z</time>
      </trkpt>
      <trkpt lat="43.30733167" lon="-4.40721">
        <ele>478.0</ele>
        <time>2018-05-19T08:12:37.880Z</time>
      </trkpt>
      <trkpt lat="43.30733167" lon="-4.40721">
        <ele>478.0</ele>
        <time>2018-05-19T08:12:38.874Z</time>
      </trkpt>
      <trkpt lat="43.30730833" lon="-4.40727167">
        <ele>479.0</ele>
        <time>2018-05-19T08:12:39.879Z</time>
      </trkpt>
      <trkpt lat="43.30730833" lon="-4.40727167">
        <ele>479.0</ele>
        <time>2018-05-19T08:12:40.844Z</time>
      </trkpt>
      <trkpt lat="43.30728667" lon="-4.40733833">
        <ele>480.0</ele>
        <time>2018-05-19T08:12:41.879Z</time>
      </trkpt>
      <trkpt lat="43.30727667" lon="-4.40737167">
        <ele>480.0</ele>
        <time>2018-05-19T08:12:42.878Z</time>
      </trkpt>
      <trkpt lat="43.30727" lon="-4.40740667">
        <ele>480.0</ele>
        <time>2018-05-19T08:12:43.877Z</time>
      </trkpt>
      <trkpt lat="43.30727" lon="-4.40740667">
        <ele>480.0</ele>
        <time>2018-05-19T08:12:44.869Z</time>
      </trkpt>
      <trkpt lat="43.30725167" lon="-4.40747333">
        <ele>480.0</ele>
        <time>2018-05-19T08:12:45.880Z</time>
      </trkpt>
      <trkpt lat="43.30724333" lon="-4.40750667">
        <ele>481.0</ele>
        <time>2018-05-19T08:12:46.877Z</time>
      </trkpt>
      <trkpt lat="43.30724333" lon="-4.40750667">
        <ele>481.0</ele>
        <time>2018-05-19T08:12:47.844Z</time>
      </trkpt>
      <trkpt lat="43.30722667" lon="-4.40757333">
        <ele>481.0</ele>
        <time>2018-05-19T08:12:48.879Z</time>
      </trkpt>
      <trkpt lat="43.30721833" lon="-4.40760667">
        <ele>481.0</ele>
        <time>2018-05-19T08:12:49.862Z</time>
      </trkpt>
      <trkpt lat="43.30721833" lon="-4.40760667">
        <ele>481.0</ele>
        <time>2018-05-19T08:12:50.845Z</time>
      </trkpt>
      <trkpt lat="43.307205" lon="-4.40767333">
        <ele>482.0</ele>
        <time>2018-05-19T08:12:51.879Z</time>
      </trkpt>
      <trkpt lat="43.3072" lon="-4.40770667">
        <ele>482.0</ele>
        <time>2018-05-19T08:12:52.879Z</time>
      </trkpt>
      <trkpt lat="43.3072" lon="-4.40770667">
        <ele>482.0</ele>
        <time>2018-05-19T08:12:53.877Z</time>
      </trkpt>
      <trkpt lat="43.30719167" lon="-4.40777333">
        <ele>482.0</ele>
        <time>2018-05-19T08:12:54.873Z</time>
      </trkpt>
      <trkpt lat="43.30718667" lon="-4.40780667">
        <ele>483.0</ele>
        <time>2018-05-19T08:12:55.855Z</time>
      </trkpt>
      <trkpt lat="43.30718667" lon="-4.40780667">
        <ele>483.0</ele>
        <time>2018-05-19T08:12:56.880Z</time>
      </trkpt>
      <trkpt lat="43.30717833" lon="-4.407875">
        <ele>483.0</ele>
        <time>2018-05-19T08:12:57.880Z</time>
      </trkpt>
      <trkpt lat="43.30717833" lon="-4.407875">
        <ele>483.0</ele>
        <time>2018-05-19T08:12:58.874Z</time>
      </trkpt>
      <trkpt lat="43.30716667" lon="-4.40794333">
        <ele>484.0</ele>
        <time>2018-05-19T08:12:59.878Z</time>
      </trkpt>
      <trkpt lat="43.30716667" lon="-4.40794333">
        <ele>484.0</ele>
        <time>2018-05-19T08:13:00.873Z</time>
      </trkpt>
      <trkpt lat="43.30716" lon="-4.40801">
        <ele>484.0</ele>
        <time>2018-05-19T08:13:01.856Z</time>
      </trkpt>
      <trkpt lat="43.30716" lon="-4.40801">
        <ele>484.0</ele>
        <time>2018-05-19T08:13:02.881Z</time>
      </trkpt>
      <trkpt lat="43.30715167" lon="-4.40807833">
        <ele>485.0</ele>
        <time>2018-05-19T08:13:03.880Z</time>
      </trkpt>
      <trkpt lat="43.30715167" lon="-4.40807833">
        <ele>485.0</ele>
        <time>2018-05-19T08:13:04.868Z</time>
      </trkpt>
      <trkpt lat="43.30714" lon="-4.40814667">
        <ele>485.0</ele>
        <time>2018-05-19T08:13:05.853Z</time>
      </trkpt>
      <trkpt lat="43.30714" lon="-4.40814667">
        <ele>485.0</ele>
        <time>2018-05-19T08:13:06.880Z</time>
      </trkpt>
      <trkpt lat="43.30712667" lon="-4.40821667">
        <ele>486.0</ele>
        <time>2018-05-19T08:13:07.880Z</time>
      </trkpt>
      <trkpt lat="43.30712667" lon="-4.40821667">
        <ele>486.0</ele>
        <time>2018-05-19T08:13:08.873Z</time>
      </trkpt>
      <trkpt lat="43.307115" lon="-4.40828667">
        <ele>486.0</ele>
        <time>2018-05-19T08:13:09.879Z</time>
      </trkpt>
      <trkpt lat="43.307115" lon="-4.40828667">
        <ele>486.0</ele>
        <time>2018-05-19T08:13:10.873Z</time>
      </trkpt>
      <trkpt lat="43.30710833" lon="-4.40835833">
        <ele>486.0</ele>
        <time>2018-05-19T08:13:11.855Z</time>
      </trkpt>
      <trkpt lat="43.307105" lon="-4.408395">
        <ele>487.0</ele>
        <time>2018-05-19T08:13:12.892Z</time>
      </trkpt>
      <trkpt lat="43.30710333" lon="-4.40843">
        <ele>487.0</ele>
        <time>2018-05-19T08:13:13.877Z</time>
      </trkpt>
      <trkpt lat="43.30710333" lon="-4.40843">
        <ele>487.0</ele>
        <time>2018-05-19T08:13:14.869Z</time>
      </trkpt>
      <trkpt lat="43.307095" lon="-4.4085">
        <ele>487.0</ele>
        <time>2018-05-19T08:13:15.854Z</time>
      </trkpt>
      <trkpt lat="43.307095" lon="-4.4085">
        <ele>487.0</ele>
        <time>2018-05-19T08:13:16.879Z</time>
      </trkpt>
      <trkpt lat="43.307085" lon="-4.40857167">
        <ele>488.0</ele>
        <time>2018-05-19T08:13:17.879Z</time>
      </trkpt>
      <trkpt lat="43.307085" lon="-4.40857167">
        <ele>488.0</ele>
        <time>2018-05-19T08:13:18.881Z</time>
      </trkpt>
      <trkpt lat="43.30707333" lon="-4.40864167">
        <ele>488.0</ele>
        <time>2018-05-19T08:13:19.880Z</time>
      </trkpt>
      <trkpt lat="43.30707333" lon="-4.40864167">
        <ele>488.0</ele>
        <time>2018-05-19T08:13:20.874Z</time>
      </trkpt>
      <trkpt lat="43.30706333" lon="-4.408715">
        <ele>488.0</ele>
        <time>2018-05-19T08:13:21.879Z</time>
      </trkpt>
      <trkpt lat="43.30706333" lon="-4.408715">
        <ele>488.0</ele>
        <time>2018-05-19T08:13:22.874Z</time>
      </trkpt>
      <trkpt lat="43.30705667" lon="-4.408785">
        <ele>489.0</ele>
        <time>2018-05-19T08:13:23.878Z</time>
      </trkpt>
      <trkpt lat="43.30705667" lon="-4.408785">
        <ele>489.0</ele>
        <time>2018-05-19T08:13:24.870Z</time>
      </trkpt>
      <trkpt lat="43.30704333" lon="-4.408855">
        <ele>489.0</ele>
        <time>2018-05-19T08:13:25.855Z</time>
      </trkpt>
      <trkpt lat="43.30704333" lon="-4.408855">
        <ele>489.0</ele>
        <time>2018-05-19T08:13:26.881Z</time>
      </trkpt>
      <trkpt lat="43.30703" lon="-4.40892333">
        <ele>490.0</ele>
        <time>2018-05-19T08:13:27.879Z</time>
      </trkpt>
      <trkpt lat="43.30702667" lon="-4.40895833">
        <ele>490.0</ele>
        <time>2018-05-19T08:13:28.880Z</time>
      </trkpt>
      <trkpt lat="43.30702667" lon="-4.40895833">
        <ele>490.0</ele>
        <time>2018-05-19T08:13:29.873Z</time>
      </trkpt>
      <trkpt lat="43.30701833" lon="-4.40903">
        <ele>490.0</ele>
        <time>2018-05-19T08:13:30.855Z</time>
      </trkpt>
      <trkpt lat="43.30701833" lon="-4.40903">
        <ele>490.0</ele>
        <time>2018-05-19T08:13:31.844Z</time>
      </trkpt>
      <trkpt lat="43.30700167" lon="-4.4091">
        <ele>491.0</ele>
        <time>2018-05-19T08:13:32.880Z</time>
      </trkpt>
      <trkpt lat="43.30700167" lon="-4.4091">
        <ele>491.0</ele>
        <time>2018-05-19T08:13:33.876Z</time>
      </trkpt>
      <trkpt lat="43.30698167" lon="-4.40917">
        <ele>491.0</ele>
        <time>2018-05-19T08:13:34.871Z</time>
      </trkpt>
      <trkpt lat="43.306975" lon="-4.40920667">
        <ele>492.0</ele>
        <time>2018-05-19T08:13:35.855Z</time>
      </trkpt>
      <trkpt lat="43.306975" lon="-4.40920667">
        <ele>492.0</ele>
        <time>2018-05-19T08:13:36.880Z</time>
      </trkpt>
      <trkpt lat="43.30696167" lon="-4.40928">
        <ele>492.0</ele>
        <time>2018-05-19T08:13:37.879Z</time>
      </trkpt>
      <trkpt lat="43.30696167" lon="-4.40928">
        <ele>492.0</ele>
        <time>2018-05-19T08:13:38.877Z</time>
      </trkpt>
      <trkpt lat="43.30694833" lon="-4.40935333">
        <ele>493.0</ele>
        <time>2018-05-19T08:13:39.879Z</time>
      </trkpt>
      <trkpt lat="43.30694833" lon="-4.40935333">
        <ele>493.0</ele>
        <time>2018-05-19T08:13:40.853Z</time>
      </trkpt>
      <trkpt lat="43.306935" lon="-4.40942833">
        <ele>493.0</ele>
        <time>2018-05-19T08:13:41.878Z</time>
      </trkpt>
      <trkpt lat="43.30693" lon="-4.409465">
        <ele>493.0</ele>
        <time>2018-05-19T08:13:42.879Z</time>
      </trkpt>
      <trkpt lat="43.30692667" lon="-4.40950333">
        <ele>494.0</ele>
        <time>2018-05-19T08:13:43.880Z</time>
      </trkpt>
      <trkpt lat="43.30692667" lon="-4.40950333">
        <ele>494.0</ele>
        <time>2018-05-19T08:13:44.873Z</time>
      </trkpt>
      <trkpt lat="43.30692" lon="-4.40958">
        <ele>494.0</ele>
        <time>2018-05-19T08:13:45.870Z</time>
      </trkpt>
      <trkpt lat="43.30691833" lon="-4.40961833">
        <ele>494.0</ele>
        <time>2018-05-19T08:13:46.872Z</time>
      </trkpt>
      <trkpt lat="43.30691833" lon="-4.40961833">
        <ele>494.0</ele>
        <time>2018-05-19T08:13:47.878Z</time>
      </trkpt>
      <trkpt lat="43.306915" lon="-4.409695">
        <ele>495.0</ele>
        <time>2018-05-19T08:13:48.845Z</time>
      </trkpt>
      <trkpt lat="43.306915" lon="-4.409695">
        <ele>495.0</ele>
        <time>2018-05-19T08:13:49.874Z</time>
      </trkpt>
      <trkpt lat="43.30691333" lon="-4.40977">
        <ele>495.0</ele>
        <time>2018-05-19T08:13:50.878Z</time>
      </trkpt>
      <trkpt lat="43.30691333" lon="-4.40980833">
        <ele>495.0</ele>
        <time>2018-05-19T08:13:51.851Z</time>
      </trkpt>
      <trkpt lat="43.30691333" lon="-4.40980833">
        <ele>495.0</ele>
        <time>2018-05-19T08:13:52.875Z</time>
      </trkpt>
      <trkpt lat="43.306915" lon="-4.40988167">
        <ele>496.0</ele>
        <time>2018-05-19T08:13:53.878Z</time>
      </trkpt>
      <trkpt lat="43.306915" lon="-4.40988167">
        <ele>496.0</ele>
        <time>2018-05-19T08:13:54.869Z</time>
      </trkpt>
      <trkpt lat="43.30691833" lon="-4.40995667">
        <ele>496.0</ele>
        <time>2018-05-19T08:13:55.862Z</time>
      </trkpt>
      <trkpt lat="43.30691833" lon="-4.40995667">
        <ele>496.0</ele>
        <time>2018-05-19T08:13:56.848Z</time>
      </trkpt>
      <trkpt lat="43.30692" lon="-4.41003">
        <ele>496.0</ele>
        <time>2018-05-19T08:13:57.879Z</time>
      </trkpt>
      <trkpt lat="43.30692" lon="-4.41003">
        <ele>496.0</ele>
        <time>2018-05-19T08:13:58.873Z</time>
      </trkpt>
      <trkpt lat="43.30692667" lon="-4.410105">
        <ele>496.0</ele>
        <time>2018-05-19T08:13:59.855Z</time>
      </trkpt>
      <trkpt lat="43.30693" lon="-4.41014167">
        <ele>497.0</ele>
        <time>2018-05-19T08:14:00.881Z</time>
      </trkpt>
      <trkpt lat="43.306935" lon="-4.41018">
        <ele>497.0</ele>
        <time>2018-05-19T08:14:01.879Z</time>
      </trkpt>
      <trkpt lat="43.306935" lon="-4.41018">
        <ele>497.0</ele>
        <time>2018-05-19T08:14:02.873Z</time>
      </trkpt>
      <trkpt lat="43.30694167" lon="-4.410255">
        <ele>497.0</ele>
        <time>2018-05-19T08:14:03.855Z</time>
      </trkpt>
      <trkpt lat="43.30694167" lon="-4.410255">
        <ele>497.0</ele>
        <time>2018-05-19T08:14:04.878Z</time>
      </trkpt>
      <trkpt lat="43.30694333" lon="-4.410335">
        <ele>497.0</ele>
        <time>2018-05-19T08:14:05.880Z</time>
      </trkpt>
      <trkpt lat="43.30694333" lon="-4.410335">
        <ele>497.0</ele>
        <time>2018-05-19T08:14:06.873Z</time>
      </trkpt>
      <trkpt lat="43.30694" lon="-4.410405">
        <ele>498.0</ele>
        <time>2018-05-19T08:14:07.855Z</time>
      </trkpt>
      <trkpt lat="43.30694" lon="-4.410405">
        <ele>498.0</ele>
        <time>2018-05-19T08:14:08.879Z</time>
      </trkpt>
      <trkpt lat="43.30693333" lon="-4.41047667">
        <ele>499.0</ele>
        <time>2018-05-19T08:14:09.878Z</time>
      </trkpt>
      <trkpt lat="43.30693333" lon="-4.41047667">
        <ele>499.0</ele>
        <time>2018-05-19T08:14:10.873Z</time>
      </trkpt>
      <trkpt lat="43.30691333" lon="-4.41054167">
        <ele>499.0</ele>
        <time>2018-05-19T08:14:11.855Z</time>
      </trkpt>
      <trkpt lat="43.30689833" lon="-4.41057333">
        <ele>499.0</ele>
        <time>2018-05-19T08:14:12.873Z</time>
      </trkpt>
      <trkpt lat="43.30688" lon="-4.4106">
        <ele>498.0</ele>
        <time>2018-05-19T08:14:13.879Z</time>
      </trkpt>
      <trkpt lat="43.30688" lon="-4.4106">
        <ele>498.0</ele>
        <time>2018-05-19T08:14:14.869Z</time>
      </trkpt>
      <trkpt lat="43.306835" lon="-4.41064167">
        <ele>499.0</ele>
        <time>2018-05-19T08:14:15.854Z</time>
      </trkpt>
      <trkpt lat="43.306835" lon="-4.41064167">
        <ele>499.0</ele>
        <time>2018-05-19T08:14:16.881Z</time>
      </trkpt>
      <trkpt lat="43.306785" lon="-4.41066167">
        <ele>499.0</ele>
        <time>2018-05-19T08:14:17.880Z</time>
      </trkpt>
      <trkpt lat="43.306785" lon="-4.41066167">
        <ele>499.0</ele>
        <time>2018-05-19T08:14:18.873Z</time>
      </trkpt>
      <trkpt lat="43.30673167" lon="-4.41065333">
        <ele>500.0</ele>
        <time>2018-05-19T08:14:19.876Z</time>
      </trkpt>
      <trkpt lat="43.30670333" lon="-4.41064">
        <ele>500.0</ele>
        <time>2018-05-19T08:14:20.878Z</time>
      </trkpt>
      <trkpt lat="43.30668" lon="-4.41062167">
        <ele>500.0</ele>
        <time>2018-05-19T08:14:21.879Z</time>
      </trkpt>
      <trkpt lat="43.30668" lon="-4.41062167">
        <ele>500.0</ele>
        <time>2018-05-19T08:14:22.873Z</time>
      </trkpt>
      <trkpt lat="43.306645" lon="-4.41056833">
        <ele>501.0</ele>
        <time>2018-05-19T08:14:23.855Z</time>
      </trkpt>
      <trkpt lat="43.306645" lon="-4.41056833">
        <ele>501.0</ele>
        <time>2018-05-19T08:14:24.880Z</time>
      </trkpt>
      <trkpt lat="43.30662333" lon="-4.41050167">
        <ele>501.0</ele>
        <time>2018-05-19T08:14:25.879Z</time>
      </trkpt>
      <trkpt lat="43.30662333" lon="-4.41050167">
        <ele>501.0</ele>
        <time>2018-05-19T08:14:26.874Z</time>
      </trkpt>
      <trkpt lat="43.30661333" lon="-4.41042667">
        <ele>502.0</ele>
        <time>2018-05-19T08:14:27.879Z</time>
      </trkpt>
      <trkpt lat="43.30661333" lon="-4.41042667">
        <ele>502.0</ele>
        <time>2018-05-19T08:14:28.872Z</time>
      </trkpt>
      <trkpt lat="43.30660333" lon="-4.41035167">
        <ele>502.0</ele>
        <time>2018-05-19T08:14:29.856Z</time>
      </trkpt>
      <trkpt lat="43.3066" lon="-4.410315">
        <ele>502.0</ele>
        <time>2018-05-19T08:14:30.879Z</time>
      </trkpt>
      <trkpt lat="43.3066" lon="-4.410315">
        <ele>502.0</ele>
        <time>2018-05-19T08:14:31.872Z</time>
      </trkpt>
      <trkpt lat="43.30659333" lon="-4.41023667">
        <ele>503.0</ele>
        <time>2018-05-19T08:14:32.878Z</time>
      </trkpt>
      <trkpt lat="43.30659333" lon="-4.41023667">
        <ele>503.0</ele>
        <time>2018-05-19T08:14:33.874Z</time>
      </trkpt>
      <trkpt lat="43.30658667" lon="-4.41016">
        <ele>503.0</ele>
        <time>2018-05-19T08:14:34.870Z</time>
      </trkpt>
      <trkpt lat="43.30658167" lon="-4.41012167">
        <ele>503.0</ele>
        <time>2018-05-19T08:14:35.853Z</time>
      </trkpt>
      <trkpt lat="43.30658167" lon="-4.41012167">
        <ele>503.0</ele>
        <time>2018-05-19T08:14:36.876Z</time>
      </trkpt>
      <trkpt lat="43.306575" lon="-4.41004667">
        <ele>504.0</ele>
        <time>2018-05-19T08:14:37.879Z</time>
      </trkpt>
      <trkpt lat="43.306575" lon="-4.41004667">
        <ele>504.0</ele>
        <time>2018-05-19T08:14:38.874Z</time>
      </trkpt>
      <trkpt lat="43.30657" lon="-4.40996833">
        <ele>504.0</ele>
        <time>2018-05-19T08:14:39.879Z</time>
      </trkpt>
      <trkpt lat="43.30657" lon="-4.40996833">
        <ele>504.0</ele>
        <time>2018-05-19T08:14:40.846Z</time>
      </trkpt>
      <trkpt lat="43.30656333" lon="-4.40989333">
        <ele>505.0</ele>
        <time>2018-05-19T08:14:41.880Z</time>
      </trkpt>
      <trkpt lat="43.30656333" lon="-4.40989333">
        <ele>505.0</ele>
        <time>2018-05-19T08:14:42.872Z</time>
      </trkpt>
      <trkpt lat="43.306555" lon="-4.40981833">
        <ele>505.0</ele>
        <time>2018-05-19T08:14:43.855Z</time>
      </trkpt>
      <trkpt lat="43.306555" lon="-4.40981833">
        <ele>505.0</ele>
        <time>2018-05-19T08:14:44.878Z</time>
      </trkpt>
      <trkpt lat="43.306545" lon="-4.40974167">
        <ele>505.0</ele>
        <time>2018-05-19T08:14:45.861Z</time>
      </trkpt>
      <trkpt lat="43.30653667" lon="-4.409705">
        <ele>505.0</ele>
        <time>2018-05-19T08:14:46.878Z</time>
      </trkpt>
      <trkpt lat="43.30652833" lon="-4.40966667">
        <ele>506.0</ele>
        <time>2018-05-19T08:14:47.879Z</time>
      </trkpt>
      <trkpt lat="43.30652833" lon="-4.40966667">
        <ele>506.0</ele>
        <time>2018-05-19T08:14:48.874Z</time>
      </trkpt>
      <trkpt lat="43.30651167" lon="-4.40959">
        <ele>506.0</ele>
        <time>2018-05-19T08:14:49.879Z</time>
      </trkpt>
      <trkpt lat="43.30651167" lon="-4.40959">
        <ele>506.0</ele>
        <time>2018-05-19T08:14:50.874Z</time>
      </trkpt>
      <trkpt lat="43.306495" lon="-4.40951333">
        <ele>506.0</ele>
        <time>2018-05-19T08:14:51.879Z</time>
      </trkpt>
      <trkpt lat="43.306495" lon="-4.40951333">
        <ele>506.0</ele>
        <time>2018-05-19T08:14:52.874Z</time>
      </trkpt>
      <trkpt lat="43.30647833" lon="-4.40943833">
        <ele>506.0</ele>
        <time>2018-05-19T08:14:53.878Z</time>
      </trkpt>
      <trkpt lat="43.30647833" lon="-4.40943833">
        <ele>506.0</ele>
        <time>2018-05-19T08:14:54.868Z</time>
      </trkpt>
      <trkpt lat="43.306445" lon="-4.40937667">
        <ele>507.0</ele>
        <time>2018-05-19T08:14:55.853Z</time>
      </trkpt>
      <trkpt lat="43.306445" lon="-4.40937667">
        <ele>507.0</ele>
        <time>2018-05-19T08:14:56.879Z</time>
      </trkpt>
      <trkpt lat="43.3064" lon="-4.40933333">
        <ele>507.0</ele>
        <time>2018-05-19T08:14:57.879Z</time>
      </trkpt>
      <trkpt lat="43.3064" lon="-4.40933333">
        <ele>507.0</ele>
        <time>2018-05-19T08:14:58.874Z</time>
      </trkpt>
      <trkpt lat="43.306345" lon="-4.40931667">
        <ele>507.0</ele>
        <time>2018-05-19T08:14:59.878Z</time>
      </trkpt>
      <trkpt lat="43.306345" lon="-4.40931667">
        <ele>507.0</ele>
        <time>2018-05-19T08:15:00.876Z</time>
      </trkpt>
      <trkpt lat="43.30629167" lon="-4.40932667">
        <ele>508.0</ele>
        <time>2018-05-19T08:15:01.847Z</time>
      </trkpt>
      <trkpt lat="43.30629167" lon="-4.40932667">
        <ele>508.0</ele>
        <time>2018-05-19T08:15:02.873Z</time>
      </trkpt>
      <trkpt lat="43.30624333" lon="-4.40936667">
        <ele>508.0</ele>
        <time>2018-05-19T08:15:03.879Z</time>
      </trkpt>
      <trkpt lat="43.30624333" lon="-4.40936667">
        <ele>508.0</ele>
        <time>2018-05-19T08:15:04.873Z</time>
      </trkpt>
      <trkpt lat="43.30621" lon="-4.40943">
        <ele>508.0</ele>
        <time>2018-05-19T08:15:05.878Z</time>
      </trkpt>
      <trkpt lat="43.30621" lon="-4.40943">
        <ele>508.0</ele>
        <time>2018-05-19T08:15:06.873Z</time>
      </trkpt>
      <trkpt lat="43.30619167" lon="-4.409505">
        <ele>509.0</ele>
        <time>2018-05-19T08:15:07.880Z</time>
      </trkpt>
      <trkpt lat="43.30619167" lon="-4.409505">
        <ele>509.0</ele>
        <time>2018-05-19T08:15:08.875Z</time>
      </trkpt>
      <trkpt lat="43.30619" lon="-4.409585">
        <ele>509.0</ele>
        <time>2018-05-19T08:15:09.880Z</time>
      </trkpt>
      <trkpt lat="43.30619" lon="-4.409585">
        <ele>509.0</ele>
        <time>2018-05-19T08:15:10.875Z</time>
      </trkpt>
      <trkpt lat="43.306195" lon="-4.40966667">
        <ele>510.0</ele>
        <time>2018-05-19T08:15:11.845Z</time>
      </trkpt>
      <trkpt lat="43.3062" lon="-4.40970833">
        <ele>510.0</ele>
        <time>2018-05-19T08:15:12.878Z</time>
      </trkpt>
      <trkpt lat="43.306205" lon="-4.40975">
        <ele>510.0</ele>
        <time>2018-05-19T08:15:13.880Z</time>
      </trkpt>
      <trkpt lat="43.306205" lon="-4.40975">
        <ele>510.0</ele>
        <time>2018-05-19T08:15:14.870Z</time>
      </trkpt>
      <trkpt lat="43.30621" lon="-4.40983">
        <ele>511.0</ele>
        <time>2018-05-19T08:15:15.853Z</time>
      </trkpt>
      <trkpt lat="43.30621" lon="-4.40983">
        <ele>511.0</ele>
        <time>2018-05-19T08:15:16.879Z</time>
      </trkpt>
      <trkpt lat="43.30621333" lon="-4.40991167">
        <ele>511.0</ele>
        <time>2018-05-19T08:15:17.878Z</time>
      </trkpt>
      <trkpt lat="43.30621333" lon="-4.40991167">
        <ele>511.0</ele>
        <time>2018-05-19T08:15:18.875Z</time>
      </trkpt>
      <trkpt lat="43.306225" lon="-4.40998833">
        <ele>511.0</ele>
        <time>2018-05-19T08:15:19.879Z</time>
      </trkpt>
      <trkpt lat="43.306225" lon="-4.40998833">
        <ele>511.0</ele>
        <time>2018-05-19T08:15:20.874Z</time>
      </trkpt>
      <trkpt lat="43.30623333" lon="-4.41007333">
        <ele>512.0</ele>
        <time>2018-05-19T08:15:21.879Z</time>
      </trkpt>
      <trkpt lat="43.30623167" lon="-4.410115">
        <ele>512.0</ele>
        <time>2018-05-19T08:15:22.879Z</time>
      </trkpt>
      <trkpt lat="43.30623167" lon="-4.410115">
        <ele>512.0</ele>
        <time>2018-05-19T08:15:23.877Z</time>
      </trkpt>
      <trkpt lat="43.30623333" lon="-4.41019833">
        <ele>512.0</ele>
        <time>2018-05-19T08:15:24.871Z</time>
      </trkpt>
      <trkpt lat="43.306235" lon="-4.41024167">
        <ele>513.0</ele>
        <time>2018-05-19T08:15:25.880Z</time>
      </trkpt>
      <trkpt lat="43.306235" lon="-4.41024167">
        <ele>513.0</ele>
        <time>2018-05-19T08:15:26.873Z</time>
      </trkpt>
      <trkpt lat="43.30623667" lon="-4.41033">
        <ele>513.0</ele>
        <time>2018-05-19T08:15:27.878Z</time>
      </trkpt>
      <trkpt lat="43.30623667" lon="-4.41033">
        <ele>513.0</ele>
        <time>2018-05-19T08:15:28.873Z</time>
      </trkpt>
      <trkpt lat="43.30623667" lon="-4.41042">
        <ele>513.0</ele>
        <time>2018-05-19T08:15:29.878Z</time>
      </trkpt>
      <trkpt lat="43.306235" lon="-4.410465">
        <ele>513.0</ele>
        <time>2018-05-19T08:15:30.876Z</time>
      </trkpt>
      <trkpt lat="43.306235" lon="-4.410465">
        <ele>513.0</ele>
        <time>2018-05-19T08:15:31.863Z</time>
      </trkpt>
      <trkpt lat="43.30623167" lon="-4.41055833">
        <ele>513.0</ele>
        <time>2018-05-19T08:15:32.852Z</time>
      </trkpt>
      <trkpt lat="43.30622833" lon="-4.410605">
        <ele>513.0</ele>
        <time>2018-05-19T08:15:33.878Z</time>
      </trkpt>
      <trkpt lat="43.30622833" lon="-4.410605">
        <ele>513.0</ele>
        <time>2018-05-19T08:15:34.868Z</time>
      </trkpt>
      <trkpt lat="43.30622" lon="-4.41070167">
        <ele>513.0</ele>
        <time>2018-05-19T08:15:35.853Z</time>
      </trkpt>
      <trkpt lat="43.30622" lon="-4.41070167">
        <ele>513.0</ele>
        <time>2018-05-19T08:15:36.876Z</time>
      </trkpt>
      <trkpt lat="43.30620833" lon="-4.41079667">
        <ele>513.0</ele>
        <time>2018-05-19T08:15:37.880Z</time>
      </trkpt>
      <trkpt lat="43.30620833" lon="-4.41079667">
        <ele>513.0</ele>
        <time>2018-05-19T08:15:38.873Z</time>
      </trkpt>
      <trkpt lat="43.30619333" lon="-4.41089833">
        <ele>513.0</ele>
        <time>2018-05-19T08:15:39.849Z</time>
      </trkpt>
      <trkpt lat="43.30619333" lon="-4.41089833">
        <ele>513.0</ele>
        <time>2018-05-19T08:15:40.844Z</time>
      </trkpt>
      <trkpt lat="43.30617167" lon="-4.41100833">
        <ele>513.0</ele>
        <time>2018-05-19T08:15:41.880Z</time>
      </trkpt>
      <trkpt lat="43.30617167" lon="-4.41100833">
        <ele>513.0</ele>
        <time>2018-05-19T08:15:42.874Z</time>
      </trkpt>
      <trkpt lat="43.306145" lon="-4.41112667">
        <ele>513.0</ele>
        <time>2018-05-19T08:15:43.877Z</time>
      </trkpt>
      <trkpt lat="43.306145" lon="-4.41112667">
        <ele>513.0</ele>
        <time>2018-05-19T08:15:44.868Z</time>
      </trkpt>
      <trkpt lat="43.30610833" lon="-4.41125167">
        <ele>513.0</ele>
        <time>2018-05-19T08:15:45.860Z</time>
      </trkpt>
      <trkpt lat="43.30608833" lon="-4.411315">
        <ele>512.0</ele>
        <time>2018-05-19T08:15:46.847Z</time>
      </trkpt>
      <trkpt lat="43.30608833" lon="-4.411315">
        <ele>512.0</ele>
        <time>2018-05-19T08:15:47.853Z</time>
      </trkpt>
      <trkpt lat="43.30605" lon="-4.41145167">
        <ele>512.0</ele>
        <time>2018-05-19T08:15:48.877Z</time>
      </trkpt>
      <trkpt lat="43.30603333" lon="-4.41152333">
        <ele>512.0</ele>
        <time>2018-05-19T08:15:49.879Z</time>
      </trkpt>
      <trkpt lat="43.30603333" lon="-4.41152333">
        <ele>512.0</ele>
        <time>2018-05-19T08:15:50.874Z</time>
      </trkpt>
      <trkpt lat="43.30599333" lon="-4.41167667">
        <ele>512.0</ele>
        <time>2018-05-19T08:15:51.861Z</time>
      </trkpt>
      <trkpt lat="43.30599333" lon="-4.41167667">
        <ele>512.0</ele>
        <time>2018-05-19T08:15:52.848Z</time>
      </trkpt>
      <trkpt lat="43.30594" lon="-4.411835">
        <ele>511.0</ele>
        <time>2018-05-19T08:15:53.878Z</time>
      </trkpt>
      <trkpt lat="43.30594" lon="-4.411835">
        <ele>511.0</ele>
        <time>2018-05-19T08:15:54.869Z</time>
      </trkpt>
      <trkpt lat="43.30589667" lon="-4.41200833">
        <ele>510.0</ele>
        <time>2018-05-19T08:15:55.855Z</time>
      </trkpt>
      <trkpt lat="43.30589667" lon="-4.41200833">
        <ele>510.0</ele>
        <time>2018-05-19T08:15:56.861Z</time>
      </trkpt>
      <trkpt lat="43.30585833" lon="-4.41219333">
        <ele>510.0</ele>
        <time>2018-05-19T08:15:57.849Z</time>
      </trkpt>
      <trkpt lat="43.30585833" lon="-4.41219333">
        <ele>510.0</ele>
        <time>2018-05-19T08:15:58.873Z</time>
      </trkpt>
      <trkpt lat="43.30581333" lon="-4.41239167">
        <ele>509.0</ele>
        <time>2018-05-19T08:15:59.877Z</time>
      </trkpt>
      <trkpt lat="43.30581333" lon="-4.41239167">
        <ele>509.0</ele>
        <time>2018-05-19T08:16:00.872Z</time>
      </trkpt>
      <trkpt lat="43.305765" lon="-4.41259833">
        <ele>508.0</ele>
        <time>2018-05-19T08:16:01.855Z</time>
      </trkpt>
      <trkpt lat="43.305765" lon="-4.41259833">
        <ele>508.0</ele>
        <time>2018-05-19T08:16:02.878Z</time>
      </trkpt>
      <trkpt lat="43.30571833" lon="-4.41281667">
        <ele>507.0</ele>
        <time>2018-05-19T08:16:03.878Z</time>
      </trkpt>
      <trkpt lat="43.30571833" lon="-4.41281667">
        <ele>507.0</ele>
        <time>2018-05-19T08:16:04.869Z</time>
      </trkpt>
      <trkpt lat="43.30567667" lon="-4.41304833">
        <ele>506.0</ele>
        <time>2018-05-19T08:16:05.854Z</time>
      </trkpt>
      <trkpt lat="43.30567667" lon="-4.41304833">
        <ele>506.0</ele>
        <time>2018-05-19T08:16:06.880Z</time>
      </trkpt>
      <trkpt lat="43.30563333" lon="-4.41329167">
        <ele>505.0</ele>
        <time>2018-05-19T08:16:07.880Z</time>
      </trkpt>
      <trkpt lat="43.30563333" lon="-4.41329167">
        <ele>505.0</ele>
        <time>2018-05-19T08:16:08.875Z</time>
      </trkpt>
      <trkpt lat="43.30559167" lon="-4.41355">
        <ele>503.0</ele>
        <time>2018-05-19T08:16:09.848Z</time>
      </trkpt>
      <trkpt lat="43.30559167" lon="-4.41355">
        <ele>503.0</ele>
        <time>2018-05-19T08:16:10.874Z</time>
      </trkpt>
      <trkpt lat="43.30554833" lon="-4.41382167">
        <ele>502.0</ele>
        <time>2018-05-19T08:16:11.878Z</time>
      </trkpt>
      <trkpt lat="43.30554833" lon="-4.41382167">
        <ele>502.0</ele>
        <time>2018-05-19T08:16:12.875Z</time>
      </trkpt>
      <trkpt lat="43.30551" lon="-4.41410833">
        <ele>501.0</ele>
        <time>2018-05-19T08:16:13.881Z</time>
      </trkpt>
      <trkpt lat="43.30551" lon="-4.41410833">
        <ele>501.0</ele>
        <time>2018-05-19T08:16:14.873Z</time>
      </trkpt>
      <trkpt lat="43.305465" lon="-4.41440333">
        <ele>499.0</ele>
        <time>2018-05-19T08:16:15.879Z</time>
      </trkpt>
      <trkpt lat="43.305465" lon="-4.41440333">
        <ele>499.0</ele>
        <time>2018-05-19T08:16:16.872Z</time>
      </trkpt>
      <trkpt lat="43.30542667" lon="-4.41471333">
        <ele>497.0</ele>
        <time>2018-05-19T08:16:17.879Z</time>
      </trkpt>
      <trkpt lat="43.30540667" lon="-4.41487333">
        <ele>497.0</ele>
        <time>2018-05-19T08:16:18.881Z</time>
      </trkpt>
      <trkpt lat="43.30538667" lon="-4.415035">
        <ele>496.0</ele>
        <time>2018-05-19T08:16:19.880Z</time>
      </trkpt>
      <trkpt lat="43.30538667" lon="-4.415035">
        <ele>496.0</ele>
        <time>2018-05-19T08:16:20.869Z</time>
      </trkpt>
      <trkpt lat="43.305345" lon="-4.415365">
        <ele>494.0</ele>
        <time>2018-05-19T08:16:21.855Z</time>
      </trkpt>
      <trkpt lat="43.305325" lon="-4.415535">
        <ele>493.0</ele>
        <time>2018-05-19T08:16:22.880Z</time>
      </trkpt>
      <trkpt lat="43.305325" lon="-4.415535">
        <ele>493.0</ele>
        <time>2018-05-19T08:16:23.873Z</time>
      </trkpt>
      <trkpt lat="43.30528" lon="-4.41587833">
        <ele>491.0</ele>
        <time>2018-05-19T08:16:24.871Z</time>
      </trkpt>
      <trkpt lat="43.305255" lon="-4.41605167">
        <ele>490.0</ele>
        <time>2018-05-19T08:16:25.880Z</time>
      </trkpt>
      <trkpt lat="43.305255" lon="-4.41605167">
        <ele>490.0</ele>
        <time>2018-05-19T08:16:26.873Z</time>
      </trkpt>
      <trkpt lat="43.30518833" lon="-4.41640167">
        <ele>488.0</ele>
        <time>2018-05-19T08:16:27.878Z</time>
      </trkpt>
      <trkpt lat="43.30518833" lon="-4.41640167">
        <ele>488.0</ele>
        <time>2018-05-19T08:16:28.873Z</time>
      </trkpt>
      <trkpt lat="43.305055" lon="-4.41672333">
        <ele>486.0</ele>
        <time>2018-05-19T08:16:29.878Z</time>
      </trkpt>
      <trkpt lat="43.30496333" lon="-4.41686">
        <ele>485.0</ele>
        <time>2018-05-19T08:16:30.853Z</time>
      </trkpt>
      <trkpt lat="43.30496333" lon="-4.41686">
        <ele>485.0</ele>
        <time>2018-05-19T08:16:31.881Z</time>
      </trkpt>
      <trkpt lat="43.304735" lon="-4.41706167">
        <ele>483.0</ele>
        <time>2018-05-19T08:16:32.879Z</time>
      </trkpt>
      <trkpt lat="43.30460667" lon="-4.41712167">
        <ele>482.0</ele>
        <time>2018-05-19T08:16:33.878Z</time>
      </trkpt>
      <trkpt lat="43.30460667" lon="-4.41712167">
        <ele>482.0</ele>
        <time>2018-05-19T08:16:34.865Z</time>
      </trkpt>
      <trkpt lat="43.304345" lon="-4.41716667">
        <ele>480.0</ele>
        <time>2018-05-19T08:16:35.848Z</time>
      </trkpt>
      <trkpt lat="43.304345" lon="-4.41716667">
        <ele>480.0</ele>
        <time>2018-05-19T08:16:36.875Z</time>
      </trkpt>
      <trkpt lat="43.30410667" lon="-4.41724667">
        <ele>479.0</ele>
        <time>2018-05-19T08:16:37.877Z</time>
      </trkpt>
      <trkpt lat="43.30410667" lon="-4.41724667">
        <ele>479.0</ele>
        <time>2018-05-19T08:16:38.873Z</time>
      </trkpt>
      <trkpt lat="43.30390667" lon="-4.41739833">
        <ele>477.0</ele>
        <time>2018-05-19T08:16:39.878Z</time>
      </trkpt>
      <trkpt lat="43.30390667" lon="-4.41739833">
        <ele>477.0</ele>
        <time>2018-05-19T08:16:40.874Z</time>
      </trkpt>
      <trkpt lat="43.30373" lon="-4.4176">
        <ele>476.0</ele>
        <time>2018-05-19T08:16:41.844Z</time>
      </trkpt>
      <trkpt lat="43.30365" lon="-4.41770667">
        <ele>475.0</ele>
        <time>2018-05-19T08:16:42.878Z</time>
      </trkpt>
      <trkpt lat="43.30357333" lon="-4.41781333">
        <ele>475.0</ele>
        <time>2018-05-19T08:16:43.880Z</time>
      </trkpt>
      <trkpt lat="43.30357333" lon="-4.41781333">
        <ele>475.0</ele>
        <time>2018-05-19T08:16:44.869Z</time>
      </trkpt>
      <trkpt lat="43.30342" lon="-4.418005">
        <ele>476.0</ele>
        <time>2018-05-19T08:16:45.861Z</time>
      </trkpt>
      <trkpt lat="43.303345" lon="-4.41808667">
        <ele>476.0</ele>
        <time>2018-05-19T08:16:46.854Z</time>
      </trkpt>
      <trkpt lat="43.303345" lon="-4.41808667">
        <ele>476.0</ele>
        <time>2018-05-19T08:16:47.879Z</time>
      </trkpt>
      <trkpt lat="43.30321333" lon="-4.41824167">
        <ele>478.0</ele>
        <time>2018-05-19T08:16:48.878Z</time>
      </trkpt>
      <trkpt lat="43.30321333" lon="-4.41824167">
        <ele>478.0</ele>
        <time>2018-05-19T08:16:49.878Z</time>
      </trkpt>
      <trkpt lat="43.30309333" lon="-4.41837667">
        <ele>479.0</ele>
        <time>2018-05-19T08:16:50.883Z</time>
      </trkpt>
      <trkpt lat="43.303035" lon="-4.418435">
        <ele>479.0</ele>
        <time>2018-05-19T08:16:51.878Z</time>
      </trkpt>
      <trkpt lat="43.303035" lon="-4.418435">
        <ele>479.0</ele>
        <time>2018-05-19T08:16:52.873Z</time>
      </trkpt>
      <trkpt lat="43.302925" lon="-4.418535">
        <ele>480.0</ele>
        <time>2018-05-19T08:16:53.879Z</time>
      </trkpt>
      <trkpt lat="43.302925" lon="-4.418535">
        <ele>480.0</ele>
        <time>2018-05-19T08:16:54.873Z</time>
      </trkpt>
      <trkpt lat="43.30282167" lon="-4.418615">
        <ele>481.0</ele>
        <time>2018-05-19T08:16:55.856Z</time>
      </trkpt>
      <trkpt lat="43.30282167" lon="-4.418615">
        <ele>481.0</ele>
        <time>2018-05-19T08:16:56.880Z</time>
      </trkpt>
      <trkpt lat="43.30272667" lon="-4.41867167">
        <ele>482.0</ele>
        <time>2018-05-19T08:16:57.878Z</time>
      </trkpt>
      <trkpt lat="43.30272667" lon="-4.41867167">
        <ele>482.0</ele>
        <time>2018-05-19T08:16:58.873Z</time>
      </trkpt>
      <trkpt lat="43.30264333" lon="-4.41872">
        <ele>483.0</ele>
        <time>2018-05-19T08:16:59.878Z</time>
      </trkpt>
      <trkpt lat="43.30264333" lon="-4.41872">
        <ele>483.0</ele>
        <time>2018-05-19T08:17:00.848Z</time>
      </trkpt>
      <trkpt lat="43.30256833" lon="-4.418755">
        <ele>484.0</ele>
        <time>2018-05-19T08:17:01.881Z</time>
      </trkpt>
      <trkpt lat="43.30256833" lon="-4.418755">
        <ele>484.0</ele>
        <time>2018-05-19T08:17:02.873Z</time>
      </trkpt>
      <trkpt lat="43.30249833" lon="-4.41878333">
        <ele>485.0</ele>
        <time>2018-05-19T08:17:03.878Z</time>
      </trkpt>
      <trkpt lat="43.30249833" lon="-4.41878333">
        <ele>485.0</ele>
        <time>2018-05-19T08:17:04.869Z</time>
      </trkpt>
      <trkpt lat="43.30243167" lon="-4.41880333">
        <ele>485.0</ele>
        <time>2018-05-19T08:17:05.852Z</time>
      </trkpt>
      <trkpt lat="43.3024" lon="-4.41881667">
        <ele>486.0</ele>
        <time>2018-05-19T08:17:06.879Z</time>
      </trkpt>
      <trkpt lat="43.30236833" lon="-4.41882667">
        <ele>486.0</ele>
        <time>2018-05-19T08:17:07.879Z</time>
      </trkpt>
      <trkpt lat="43.30236833" lon="-4.41882667">
        <ele>486.0</ele>
        <time>2018-05-19T08:17:08.873Z</time>
      </trkpt>
      <trkpt lat="43.30230333" lon="-4.41885167">
        <ele>487.0</ele>
        <time>2018-05-19T08:17:09.878Z</time>
      </trkpt>
      <trkpt lat="43.30227167" lon="-4.41886833">
        <ele>487.0</ele>
        <time>2018-05-19T08:17:10.882Z</time>
      </trkpt>
      <trkpt lat="43.30227167" lon="-4.41886833">
        <ele>487.0</ele>
        <time>2018-05-19T08:17:11.879Z</time>
      </trkpt>
      <trkpt lat="43.30220833" lon="-4.418905">
        <ele>488.0</ele>
        <time>2018-05-19T08:17:12.878Z</time>
      </trkpt>
      <trkpt lat="43.30217833" lon="-4.41892833">
        <ele>488.0</ele>
        <time>2018-05-19T08:17:13.872Z</time>
      </trkpt>
      <trkpt lat="43.30217833" lon="-4.41892833">
        <ele>488.0</ele>
        <time>2018-05-19T08:17:14.869Z</time>
      </trkpt>
      <trkpt lat="43.30211667" lon="-4.41896833">
        <ele>488.0</ele>
        <time>2018-05-19T08:17:15.854Z</time>
      </trkpt>
      <trkpt lat="43.30211667" lon="-4.41896833">
        <ele>488.0</ele>
        <time>2018-05-19T08:17:16.880Z</time>
      </trkpt>
      <trkpt lat="43.30205833" lon="-4.41901167">
        <ele>489.0</ele>
        <time>2018-05-19T08:17:17.878Z</time>
      </trkpt>
      <trkpt lat="43.30205833" lon="-4.41901167">
        <ele>489.0</ele>
        <time>2018-05-19T08:17:18.873Z</time>
      </trkpt>
      <trkpt lat="43.302005" lon="-4.41906333">
        <ele>490.0</ele>
        <time>2018-05-19T08:17:19.855Z</time>
      </trkpt>
      <trkpt lat="43.302005" lon="-4.41906333">
        <ele>490.0</ele>
        <time>2018-05-19T08:17:20.882Z</time>
      </trkpt>
      <trkpt lat="43.30195833" lon="-4.41912333">
        <ele>491.0</ele>
        <time>2018-05-19T08:17:21.879Z</time>
      </trkpt>
      <trkpt lat="43.30195833" lon="-4.41912333">
        <ele>491.0</ele>
        <time>2018-05-19T08:17:22.882Z</time>
      </trkpt>
      <trkpt lat="43.301915" lon="-4.41919333">
        <ele>491.0</ele>
        <time>2018-05-19T08:17:23.854Z</time>
      </trkpt>
      <trkpt lat="43.301915" lon="-4.41919333">
        <ele>491.0</ele>
        <time>2018-05-19T08:17:24.881Z</time>
      </trkpt>
      <trkpt lat="43.30187167" lon="-4.419265">
        <ele>492.0</ele>
        <time>2018-05-19T08:17:25.879Z</time>
      </trkpt>
      <trkpt lat="43.30187167" lon="-4.419265">
        <ele>492.0</ele>
        <time>2018-05-19T08:17:26.873Z</time>
      </trkpt>
      <trkpt lat="43.30182667" lon="-4.419335">
        <ele>493.0</ele>
        <time>2018-05-19T08:17:27.878Z</time>
      </trkpt>
      <trkpt lat="43.30182667" lon="-4.419335">
        <ele>493.0</ele>
        <time>2018-05-19T08:17:28.876Z</time>
      </trkpt>
      <trkpt lat="43.30178" lon="-4.41940167">
        <ele>493.0</ele>
        <time>2018-05-19T08:17:29.878Z</time>
      </trkpt>
      <trkpt lat="43.301755" lon="-4.41943167">
        <ele>494.0</ele>
        <time>2018-05-19T08:17:30.882Z</time>
      </trkpt>
      <trkpt lat="43.301755" lon="-4.41943167">
        <ele>494.0</ele>
        <time>2018-05-19T08:17:31.853Z</time>
      </trkpt>
      <trkpt lat="43.30170333" lon="-4.41948833">
        <ele>494.0</ele>
        <time>2018-05-19T08:17:32.878Z</time>
      </trkpt>
      <trkpt lat="43.30167833" lon="-4.41951667">
        <ele>495.0</ele>
        <time>2018-05-19T08:17:33.878Z</time>
      </trkpt>
      <trkpt lat="43.30167833" lon="-4.41951667">
        <ele>495.0</ele>
        <time>2018-05-19T08:17:34.874Z</time>
      </trkpt>
      <trkpt lat="43.30162667" lon="-4.41957">
        <ele>495.0</ele>
        <time>2018-05-19T08:17:35.878Z</time>
      </trkpt>
      <trkpt lat="43.30162667" lon="-4.41957">
        <ele>495.0</ele>
        <time>2018-05-19T08:17:36.872Z</time>
      </trkpt>
      <trkpt lat="43.30157167" lon="-4.41961333">
        <ele>496.0</ele>
        <time>2018-05-19T08:17:37.855Z</time>
      </trkpt>
      <trkpt lat="43.30157167" lon="-4.41961333">
        <ele>496.0</ele>
        <time>2018-05-19T08:17:38.881Z</time>
      </trkpt>
      <trkpt lat="43.30151167" lon="-4.41964167">
        <ele>496.0</ele>
        <time>2018-05-19T08:17:39.877Z</time>
      </trkpt>
      <trkpt lat="43.30148167" lon="-4.41964833">
        <ele>497.0</ele>
        <time>2018-05-19T08:17:40.878Z</time>
      </trkpt>
      <trkpt lat="43.30148167" lon="-4.41964833">
        <ele>497.0</ele>
        <time>2018-05-19T08:17:41.872Z</time>
      </trkpt>
      <trkpt lat="43.30141667" lon="-4.41964">
        <ele>497.0</ele>
        <time>2018-05-19T08:17:42.878Z</time>
      </trkpt>
      <trkpt lat="43.301385" lon="-4.41962833">
        <ele>498.0</ele>
        <time>2018-05-19T08:17:43.877Z</time>
      </trkpt>
      <trkpt lat="43.301385" lon="-4.41962833">
        <ele>498.0</ele>
        <time>2018-05-19T08:17:44.873Z</time>
      </trkpt>
      <trkpt lat="43.30132833" lon="-4.41959">
        <ele>498.0</ele>
        <time>2018-05-19T08:17:45.868Z</time>
      </trkpt>
      <trkpt lat="43.30130333" lon="-4.41956333">
        <ele>499.0</ele>
        <time>2018-05-19T08:17:46.878Z</time>
      </trkpt>
      <trkpt lat="43.30130333" lon="-4.41956333">
        <ele>499.0</ele>
        <time>2018-05-19T08:17:47.873Z</time>
      </trkpt>
      <trkpt lat="43.30125833" lon="-4.41950167">
        <ele>499.0</ele>
        <time>2018-05-19T08:17:48.879Z</time>
      </trkpt>
      <trkpt lat="43.30123667" lon="-4.41947">
        <ele>500.0</ele>
        <time>2018-05-19T08:17:49.879Z</time>
      </trkpt>
      <trkpt lat="43.30123667" lon="-4.41947">
        <ele>500.0</ele>
        <time>2018-05-19T08:17:50.873Z</time>
      </trkpt>
      <trkpt lat="43.30119333" lon="-4.41940167">
        <ele>500.0</ele>
        <time>2018-05-19T08:17:51.878Z</time>
      </trkpt>
      <trkpt lat="43.30119333" lon="-4.41940167">
        <ele>500.0</ele>
        <time>2018-05-19T08:17:52.876Z</time>
      </trkpt>
      <trkpt lat="43.301155" lon="-4.419325">
        <ele>500.0</ele>
        <time>2018-05-19T08:17:53.878Z</time>
      </trkpt>
      <trkpt lat="43.301155" lon="-4.419325">
        <ele>500.0</ele>
        <time>2018-05-19T08:17:54.871Z</time>
      </trkpt>
      <trkpt lat="43.301115" lon="-4.41924667">
        <ele>501.0</ele>
        <time>2018-05-19T08:17:55.854Z</time>
      </trkpt>
      <trkpt lat="43.301115" lon="-4.41924667">
        <ele>501.0</ele>
        <time>2018-05-19T08:17:56.881Z</time>
      </trkpt>
      <trkpt lat="43.301075" lon="-4.41916667">
        <ele>501.0</ele>
        <time>2018-05-19T08:17:57.879Z</time>
      </trkpt>
      <trkpt lat="43.301075" lon="-4.41916667">
        <ele>501.0</ele>
        <time>2018-05-19T08:17:58.873Z</time>
      </trkpt>
      <trkpt lat="43.30102667" lon="-4.41908333">
        <ele>501.0</ele>
        <time>2018-05-19T08:17:59.878Z</time>
      </trkpt>
      <trkpt lat="43.30102667" lon="-4.41908333">
        <ele>501.0</ele>
        <time>2018-05-19T08:18:00.873Z</time>
      </trkpt>
      <trkpt lat="43.300965" lon="-4.41901">
        <ele>501.0</ele>
        <time>2018-05-19T08:18:01.877Z</time>
      </trkpt>
      <trkpt lat="43.30093" lon="-4.418975">
        <ele>501.0</ele>
        <time>2018-05-19T08:18:02.879Z</time>
      </trkpt>
      <trkpt lat="43.30089" lon="-4.41893833">
        <ele>501.0</ele>
        <time>2018-05-19T08:18:03.878Z</time>
      </trkpt>
      <trkpt lat="43.30089" lon="-4.41893833">
        <ele>501.0</ele>
        <time>2018-05-19T08:18:04.869Z</time>
      </trkpt>
      <trkpt lat="43.30079833" lon="-4.41888167">
        <ele>501.0</ele>
        <time>2018-05-19T08:18:05.854Z</time>
      </trkpt>
      <trkpt lat="43.30079833" lon="-4.41888167">
        <ele>501.0</ele>
        <time>2018-05-19T08:18:06.879Z</time>
      </trkpt>
      <trkpt lat="43.300685" lon="-4.41886667">
        <ele>500.0</ele>
        <time>2018-05-19T08:18:07.879Z</time>
      </trkpt>
      <trkpt lat="43.300685" lon="-4.41886667">
        <ele>500.0</ele>
        <time>2018-05-19T08:18:08.873Z</time>
      </trkpt>
      <trkpt lat="43.30055833" lon="-4.41886333">
        <ele>500.0</ele>
        <time>2018-05-19T08:18:09.878Z</time>
      </trkpt>
      <trkpt lat="43.30055833" lon="-4.41886333">
        <ele>500.0</ele>
        <time>2018-05-19T08:18:10.873Z</time>
      </trkpt>
      <trkpt lat="43.30042333" lon="-4.41884333">
        <ele>499.0</ele>
        <time>2018-05-19T08:18:11.873Z</time>
      </trkpt>
      <trkpt lat="43.300355" lon="-4.41881667">
        <ele>499.0</ele>
        <time>2018-05-19T08:18:12.852Z</time>
      </trkpt>
      <trkpt lat="43.30028833" lon="-4.41877833">
        <ele>499.0</ele>
        <time>2018-05-19T08:18:13.879Z</time>
      </trkpt>
      <trkpt lat="43.30028833" lon="-4.41877833">
        <ele>499.0</ele>
        <time>2018-05-19T08:18:14.874Z</time>
      </trkpt>
      <trkpt lat="43.30016333" lon="-4.41867167">
        <ele>498.0</ele>
        <time>2018-05-19T08:18:15.877Z</time>
      </trkpt>
      <trkpt lat="43.30016333" lon="-4.41867167">
        <ele>498.0</ele>
        <time>2018-05-19T08:18:16.876Z</time>
      </trkpt>
      <trkpt lat="43.30004167" lon="-4.418545">
        <ele>497.0</ele>
        <time>2018-05-19T08:18:17.878Z</time>
      </trkpt>
      <trkpt lat="43.30004167" lon="-4.418545">
        <ele>497.0</ele>
        <time>2018-05-19T08:18:18.873Z</time>
      </trkpt>
      <trkpt lat="43.29992" lon="-4.418405">
        <ele>496.0</ele>
        <time>2018-05-19T08:18:19.880Z</time>
      </trkpt>
      <trkpt lat="43.29992" lon="-4.418405">
        <ele>496.0</ele>
        <time>2018-05-19T08:18:20.875Z</time>
      </trkpt>
      <trkpt lat="43.29980333" lon="-4.418235">
        <ele>495.0</ele>
        <time>2018-05-19T08:18:21.876Z</time>
      </trkpt>
      <trkpt lat="43.29974667" lon="-4.41814167">
        <ele>495.0</ele>
        <time>2018-05-19T08:18:22.878Z</time>
      </trkpt>
      <trkpt lat="43.29974667" lon="-4.41814167">
        <ele>495.0</ele>
        <time>2018-05-19T08:18:23.875Z</time>
      </trkpt>
      <trkpt lat="43.29963667" lon="-4.41794167">
        <ele>493.0</ele>
        <time>2018-05-19T08:18:24.874Z</time>
      </trkpt>
      <trkpt lat="43.29958167" lon="-4.41783667">
        <ele>493.0</ele>
        <time>2018-05-19T08:18:25.880Z</time>
      </trkpt>
      <trkpt lat="43.29958167" lon="-4.41783667">
        <ele>493.0</ele>
        <time>2018-05-19T08:18:26.875Z</time>
      </trkpt>
      <trkpt lat="43.29946833" lon="-4.41762">
        <ele>492.0</ele>
        <time>2018-05-19T08:18:27.878Z</time>
      </trkpt>
      <trkpt lat="43.29946833" lon="-4.41762">
        <ele>492.0</ele>
        <time>2018-05-19T08:18:28.875Z</time>
      </trkpt>
      <trkpt lat="43.29935333" lon="-4.41740333">
        <ele>491.0</ele>
        <time>2018-05-19T08:18:29.877Z</time>
      </trkpt>
      <trkpt lat="43.29935333" lon="-4.41740333">
        <ele>491.0</ele>
        <time>2018-05-19T08:18:30.873Z</time>
      </trkpt>
      <trkpt lat="43.29925167" lon="-4.417175">
        <ele>490.0</ele>
        <time>2018-05-19T08:18:31.877Z</time>
      </trkpt>
      <trkpt lat="43.29920667" lon="-4.417055">
        <ele>489.0</ele>
        <time>2018-05-19T08:18:32.878Z</time>
      </trkpt>
      <trkpt lat="43.29917" lon="-4.41693167">
        <ele>489.0</ele>
        <time>2018-05-19T08:18:33.878Z</time>
      </trkpt>
      <trkpt lat="43.29917" lon="-4.41693167">
        <ele>489.0</ele>
        <time>2018-05-19T08:18:34.873Z</time>
      </trkpt>
      <trkpt lat="43.29911333" lon="-4.41668333">
        <ele>488.0</ele>
        <time>2018-05-19T08:18:35.877Z</time>
      </trkpt>
      <trkpt lat="43.29911333" lon="-4.41668333">
        <ele>488.0</ele>
        <time>2018-05-19T08:18:36.872Z</time>
      </trkpt>
      <trkpt lat="43.299075" lon="-4.41644">
        <ele>488.0</ele>
        <time>2018-05-19T08:18:37.855Z</time>
      </trkpt>
      <trkpt lat="43.299075" lon="-4.41644">
        <ele>488.0</ele>
        <time>2018-05-19T08:18:38.880Z</time>
      </trkpt>
      <trkpt lat="43.29905333" lon="-4.41620667">
        <ele>488.0</ele>
        <time>2018-05-19T08:18:39.877Z</time>
      </trkpt>
      <trkpt lat="43.29905333" lon="-4.41620667">
        <ele>488.0</ele>
        <time>2018-05-19T08:18:40.844Z</time>
      </trkpt>
      <trkpt lat="43.29903833" lon="-4.415985">
        <ele>489.0</ele>
        <time>2018-05-19T08:18:41.879Z</time>
      </trkpt>
      <trkpt lat="43.29903833" lon="-4.415985">
        <ele>489.0</ele>
        <time>2018-05-19T08:18:42.875Z</time>
      </trkpt>
      <trkpt lat="43.299025" lon="-4.41577667">
        <ele>489.0</ele>
        <time>2018-05-19T08:18:43.880Z</time>
      </trkpt>
      <trkpt lat="43.299025" lon="-4.41577667">
        <ele>489.0</ele>
        <time>2018-05-19T08:18:44.869Z</time>
      </trkpt>
      <trkpt lat="43.29900833" lon="-4.41559">
        <ele>490.0</ele>
        <time>2018-05-19T08:18:45.863Z</time>
      </trkpt>
      <trkpt lat="43.29899833" lon="-4.41550333">
        <ele>490.0</ele>
        <time>2018-05-19T08:18:46.844Z</time>
      </trkpt>
      <trkpt lat="43.29898667" lon="-4.41542333">
        <ele>491.0</ele>
        <time>2018-05-19T08:18:47.877Z</time>
      </trkpt>
      <trkpt lat="43.29898667" lon="-4.41542333">
        <ele>491.0</ele>
        <time>2018-05-19T08:18:48.875Z</time>
      </trkpt>
      <trkpt lat="43.29896833" lon="-4.41528167">
        <ele>492.0</ele>
        <time>2018-05-19T08:18:49.880Z</time>
      </trkpt>
      <trkpt lat="43.29896833" lon="-4.41528167">
        <ele>492.0</ele>
        <time>2018-05-19T08:18:50.884Z</time>
      </trkpt>
      <trkpt lat="43.29894667" lon="-4.41516">
        <ele>492.0</ele>
        <time>2018-05-19T08:18:51.883Z</time>
      </trkpt>
      <trkpt lat="43.29894667" lon="-4.41516">
        <ele>492.0</ele>
        <time>2018-05-19T08:18:52.875Z</time>
      </trkpt>
      <trkpt lat="43.29892167" lon="-4.41505333">
        <ele>493.0</ele>
        <time>2018-05-19T08:18:53.878Z</time>
      </trkpt>
      <trkpt lat="43.29892167" lon="-4.41505333">
        <ele>493.0</ele>
        <time>2018-05-19T08:18:54.873Z</time>
      </trkpt>
      <trkpt lat="43.29889833" lon="-4.414955">
        <ele>494.0</ele>
        <time>2018-05-19T08:18:55.880Z</time>
      </trkpt>
      <trkpt lat="43.29889833" lon="-4.414955">
        <ele>494.0</ele>
        <time>2018-05-19T08:18:56.872Z</time>
      </trkpt>
      <trkpt lat="43.29887" lon="-4.414855">
        <ele>494.0</ele>
        <time>2018-05-19T08:18:57.878Z</time>
      </trkpt>
      <trkpt lat="43.29887" lon="-4.414855">
        <ele>494.0</ele>
        <time>2018-05-19T08:18:58.874Z</time>
      </trkpt>
      <trkpt lat="43.29884667" lon="-4.41475667">
        <ele>495.0</ele>
        <time>2018-05-19T08:18:59.877Z</time>
      </trkpt>
      <trkpt lat="43.29883667" lon="-4.41470667">
        <ele>495.0</ele>
        <time>2018-05-19T08:19:00.877Z</time>
      </trkpt>
      <trkpt lat="43.29883167" lon="-4.41465333">
        <ele>495.0</ele>
        <time>2018-05-19T08:19:01.878Z</time>
      </trkpt>
      <trkpt lat="43.29883167" lon="-4.41465333">
        <ele>495.0</ele>
        <time>2018-05-19T08:19:02.873Z</time>
      </trkpt>
      <trkpt lat="43.29881667" lon="-4.41455167">
        <ele>495.0</ele>
        <time>2018-05-19T08:19:03.878Z</time>
      </trkpt>
      <trkpt lat="43.29881667" lon="-4.41455167">
        <ele>495.0</ele>
        <time>2018-05-19T08:19:04.872Z</time>
      </trkpt>
      <trkpt lat="43.298795" lon="-4.41445167">
        <ele>496.0</ele>
        <time>2018-05-19T08:19:05.877Z</time>
      </trkpt>
      <trkpt lat="43.298795" lon="-4.41445167">
        <ele>496.0</ele>
        <time>2018-05-19T08:19:06.872Z</time>
      </trkpt>
      <trkpt lat="43.298775" lon="-4.414355">
        <ele>496.0</ele>
        <time>2018-05-19T08:19:07.855Z</time>
      </trkpt>
      <trkpt lat="43.298775" lon="-4.414355">
        <ele>496.0</ele>
        <time>2018-05-19T08:19:08.855Z</time>
      </trkpt>
      <trkpt lat="43.29875" lon="-4.41427">
        <ele>497.0</ele>
        <time>2018-05-19T08:19:09.880Z</time>
      </trkpt>
      <trkpt lat="43.29873333" lon="-4.41423167">
        <ele>497.0</ele>
        <time>2018-05-19T08:19:10.874Z</time>
      </trkpt>
      <trkpt lat="43.298715" lon="-4.41420167">
        <ele>497.0</ele>
        <time>2018-05-19T08:19:11.847Z</time>
      </trkpt>
      <trkpt lat="43.298715" lon="-4.41420167">
        <ele>497.0</ele>
        <time>2018-05-19T08:19:12.860Z</time>
      </trkpt>
      <trkpt lat="43.298685" lon="-4.41413833">
        <ele>497.0</ele>
        <time>2018-05-19T08:19:13.845Z</time>
      </trkpt>
      <trkpt lat="43.298685" lon="-4.41413833">
        <ele>497.0</ele>
        <time>2018-05-19T08:19:14.853Z</time>
      </trkpt>
      <trkpt lat="43.29864667" lon="-4.41406667">
        <ele>498.0</ele>
        <time>2018-05-19T08:19:15.878Z</time>
      </trkpt>
      <trkpt lat="43.29864667" lon="-4.41406667">
        <ele>498.0</ele>
        <time>2018-05-19T08:19:16.875Z</time>
      </trkpt>
      <trkpt lat="43.29859667" lon="-4.41399667">
        <ele>498.0</ele>
        <time>2018-05-19T08:19:17.878Z</time>
      </trkpt>
      <trkpt lat="43.29859667" lon="-4.41399667">
        <ele>498.0</ele>
        <time>2018-05-19T08:19:18.875Z</time>
      </trkpt>
      <trkpt lat="43.298545" lon="-4.41392667">
        <ele>499.0</ele>
        <time>2018-05-19T08:19:19.880Z</time>
      </trkpt>
      <trkpt lat="43.298545" lon="-4.41392667">
        <ele>499.0</ele>
        <time>2018-05-19T08:19:20.875Z</time>
      </trkpt>
      <trkpt lat="43.29850333" lon="-4.413845">
        <ele>499.0</ele>
        <time>2018-05-19T08:19:21.882Z</time>
      </trkpt>
      <trkpt lat="43.29850333" lon="-4.413845">
        <ele>499.0</ele>
        <time>2018-05-19T08:19:22.875Z</time>
      </trkpt>
      <trkpt lat="43.29847833" lon="-4.41375167">
        <ele>500.0</ele>
        <time>2018-05-19T08:19:23.875Z</time>
      </trkpt>
      <trkpt lat="43.29847833" lon="-4.41375167">
        <ele>500.0</ele>
        <time>2018-05-19T08:19:24.883Z</time>
      </trkpt>
      <trkpt lat="43.29846667" lon="-4.41366167">
        <ele>500.0</ele>
        <time>2018-05-19T08:19:25.879Z</time>
      </trkpt>
      <trkpt lat="43.29846667" lon="-4.41366167">
        <ele>500.0</ele>
        <time>2018-05-19T08:19:26.874Z</time>
      </trkpt>
      <trkpt lat="43.29846" lon="-4.413575">
        <ele>501.0</ele>
        <time>2018-05-19T08:19:27.877Z</time>
      </trkpt>
      <trkpt lat="43.29846" lon="-4.413575">
        <ele>501.0</ele>
        <time>2018-05-19T08:19:28.873Z</time>
      </trkpt>
      <trkpt lat="43.29846" lon="-4.41349667">
        <ele>502.0</ele>
        <time>2018-05-19T08:19:29.861Z</time>
      </trkpt>
      <trkpt lat="43.29846" lon="-4.41349667">
        <ele>502.0</ele>
        <time>2018-05-19T08:19:30.845Z</time>
      </trkpt>
      <trkpt lat="43.29847" lon="-4.41342">
        <ele>503.0</ele>
        <time>2018-05-19T08:19:31.853Z</time>
      </trkpt>
      <trkpt lat="43.29847" lon="-4.41342">
        <ele>503.0</ele>
        <time>2018-05-19T08:19:32.876Z</time>
      </trkpt>
      <trkpt lat="43.29849167" lon="-4.41334833">
        <ele>504.0</ele>
        <time>2018-05-19T08:19:33.878Z</time>
      </trkpt>
      <trkpt lat="43.29849167" lon="-4.41334833">
        <ele>504.0</ele>
        <time>2018-05-19T08:19:34.869Z</time>
      </trkpt>
      <trkpt lat="43.29852333" lon="-4.41327833">
        <ele>504.0</ele>
        <time>2018-05-19T08:19:35.853Z</time>
      </trkpt>
      <trkpt lat="43.29852333" lon="-4.41327833">
        <ele>504.0</ele>
        <time>2018-05-19T08:19:36.879Z</time>
      </trkpt>
      <trkpt lat="43.29855667" lon="-4.41321">
        <ele>505.0</ele>
        <time>2018-05-19T08:19:37.876Z</time>
      </trkpt>
      <trkpt lat="43.29855667" lon="-4.41321">
        <ele>505.0</ele>
        <time>2018-05-19T08:19:38.872Z</time>
      </trkpt>
      <trkpt lat="43.29859167" lon="-4.41315">
        <ele>505.0</ele>
        <time>2018-05-19T08:19:39.878Z</time>
      </trkpt>
      <trkpt lat="43.29859167" lon="-4.41315">
        <ele>505.0</ele>
        <time>2018-05-19T08:19:40.871Z</time>
      </trkpt>
      <trkpt lat="43.29863167" lon="-4.413095">
        <ele>506.0</ele>
        <time>2018-05-19T08:19:41.877Z</time>
      </trkpt>
      <trkpt lat="43.29863167" lon="-4.413095">
        <ele>506.0</ele>
        <time>2018-05-19T08:19:42.871Z</time>
      </trkpt>
      <trkpt lat="43.29867167" lon="-4.413045">
        <ele>506.0</ele>
        <time>2018-05-19T08:19:43.879Z</time>
      </trkpt>
      <trkpt lat="43.29867167" lon="-4.413045">
        <ele>506.0</ele>
        <time>2018-05-19T08:19:44.868Z</time>
      </trkpt>
      <trkpt lat="43.29871167" lon="-4.413">
        <ele>507.0</ele>
        <time>2018-05-19T08:19:45.860Z</time>
      </trkpt>
      <trkpt lat="43.29873" lon="-4.41297667">
        <ele>507.0</ele>
        <time>2018-05-19T08:19:46.851Z</time>
      </trkpt>
      <trkpt lat="43.29873" lon="-4.41297667">
        <ele>507.0</ele>
        <time>2018-05-19T08:19:47.860Z</time>
      </trkpt>
      <trkpt lat="43.298765" lon="-4.41293">
        <ele>508.0</ele>
        <time>2018-05-19T08:19:48.874Z</time>
      </trkpt>
      <trkpt lat="43.29878167" lon="-4.41290667">
        <ele>508.0</ele>
        <time>2018-05-19T08:19:49.879Z</time>
      </trkpt>
      <trkpt lat="43.29878167" lon="-4.41290667">
        <ele>508.0</ele>
        <time>2018-05-19T08:19:50.883Z</time>
      </trkpt>
      <trkpt lat="43.298815" lon="-4.41286">
        <ele>508.0</ele>
        <time>2018-05-19T08:19:51.848Z</time>
      </trkpt>
      <trkpt lat="43.298815" lon="-4.41286">
        <ele>508.0</ele>
        <time>2018-05-19T08:19:52.873Z</time>
      </trkpt>
      <trkpt lat="43.29884667" lon="-4.41281">
        <ele>509.0</ele>
        <time>2018-05-19T08:19:53.877Z</time>
      </trkpt>
      <trkpt lat="43.29884667" lon="-4.41281">
        <ele>509.0</ele>
        <time>2018-05-19T08:19:54.874Z</time>
      </trkpt>
      <trkpt lat="43.29887333" lon="-4.412755">
        <ele>509.0</ele>
        <time>2018-05-19T08:19:55.877Z</time>
      </trkpt>
      <trkpt lat="43.29887333" lon="-4.412755">
        <ele>509.0</ele>
        <time>2018-05-19T08:19:56.871Z</time>
      </trkpt>
      <trkpt lat="43.29890167" lon="-4.4127">
        <ele>510.0</ele>
        <time>2018-05-19T08:19:57.853Z</time>
      </trkpt>
      <trkpt lat="43.29890167" lon="-4.4127">
        <ele>510.0</ele>
        <time>2018-05-19T08:19:58.875Z</time>
      </trkpt>
      <trkpt lat="43.29892167" lon="-4.41264">
        <ele>511.0</ele>
        <time>2018-05-19T08:19:59.877Z</time>
      </trkpt>
      <trkpt lat="43.29892667" lon="-4.41260833">
        <ele>511.0</ele>
        <time>2018-05-19T08:20:00.877Z</time>
      </trkpt>
      <trkpt lat="43.29893" lon="-4.41257667">
        <ele>511.0</ele>
        <time>2018-05-19T08:20:01.875Z</time>
      </trkpt>
      <trkpt lat="43.29893" lon="-4.41257667">
        <ele>511.0</ele>
        <time>2018-05-19T08:20:02.871Z</time>
      </trkpt>
      <trkpt lat="43.29893167" lon="-4.41251667">
        <ele>512.0</ele>
        <time>2018-05-19T08:20:03.877Z</time>
      </trkpt>
      <trkpt lat="43.29893167" lon="-4.41251667">
        <ele>512.0</ele>
        <time>2018-05-19T08:20:04.867Z</time>
      </trkpt>
      <trkpt lat="43.29892" lon="-4.41245667">
        <ele>513.0</ele>
        <time>2018-05-19T08:20:05.851Z</time>
      </trkpt>
      <trkpt lat="43.29891167" lon="-4.41242667">
        <ele>513.0</ele>
        <time>2018-05-19T08:20:06.878Z</time>
      </trkpt>
      <trkpt lat="43.29890167" lon="-4.41239833">
        <ele>514.0</ele>
        <time>2018-05-19T08:20:07.879Z</time>
      </trkpt>
      <trkpt lat="43.29890167" lon="-4.41239833">
        <ele>514.0</ele>
        <time>2018-05-19T08:20:08.872Z</time>
      </trkpt>
      <trkpt lat="43.29888" lon="-4.412345">
        <ele>515.0</ele>
        <time>2018-05-19T08:20:09.878Z</time>
      </trkpt>
      <trkpt lat="43.29888" lon="-4.412345">
        <ele>515.0</ele>
        <time>2018-05-19T08:20:10.872Z</time>
      </trkpt>
      <trkpt lat="43.29884833" lon="-4.4123">
        <ele>515.0</ele>
        <time>2018-05-19T08:20:11.860Z</time>
      </trkpt>
      <trkpt lat="43.29884833" lon="-4.4123">
        <ele>515.0</ele>
        <time>2018-05-19T08:20:12.882Z</time>
      </trkpt>
      <trkpt lat="43.29881333" lon="-4.41226333">
        <ele>516.0</ele>
        <time>2018-05-19T08:20:13.849Z</time>
      </trkpt>
      <trkpt lat="43.29881333" lon="-4.41226333">
        <ele>516.0</ele>
        <time>2018-05-19T08:20:14.872Z</time>
      </trkpt>
      <trkpt lat="43.29877833" lon="-4.41225667">
        <ele>517.0</ele>
        <time>2018-05-19T08:20:15.879Z</time>
      </trkpt>
      <trkpt lat="43.29877833" lon="-4.41225667">
        <ele>517.0</ele>
        <time>2018-05-19T08:20:16.873Z</time>
      </trkpt>
      <trkpt lat="43.298745" lon="-4.41226833">
        <ele>517.0</ele>
        <time>2018-05-19T08:20:17.877Z</time>
      </trkpt>
      <trkpt lat="43.29872833" lon="-4.41227">
        <ele>517.0</ele>
        <time>2018-05-19T08:20:18.878Z</time>
      </trkpt>
      <trkpt lat="43.29871167" lon="-4.41227667">
        <ele>517.0</ele>
        <time>2018-05-19T08:20:19.878Z</time>
      </trkpt>
      <trkpt lat="43.29871167" lon="-4.41227667">
        <ele>517.0</ele>
        <time>2018-05-19T08:20:20.875Z</time>
      </trkpt>
      <trkpt lat="43.29867667" lon="-4.4123">
        <ele>518.0</ele>
        <time>2018-05-19T08:20:21.878Z</time>
      </trkpt>
      <trkpt lat="43.29867667" lon="-4.4123">
        <ele>518.0</ele>
        <time>2018-05-19T08:20:22.872Z</time>
      </trkpt>
      <trkpt lat="43.29864667" lon="-4.41232667">
        <ele>518.0</ele>
        <time>2018-05-19T08:20:23.879Z</time>
      </trkpt>
      <trkpt lat="43.29864667" lon="-4.41232667">
        <ele>518.0</ele>
        <time>2018-05-19T08:20:24.874Z</time>
      </trkpt>
      <trkpt lat="43.29862333" lon="-4.41235333">
        <ele>518.0</ele>
        <time>2018-05-19T08:20:25.878Z</time>
      </trkpt>
      <trkpt lat="43.29862333" lon="-4.41235333">
        <ele>518.0</ele>
        <time>2018-05-19T08:20:26.873Z</time>
      </trkpt>
      <trkpt lat="43.29859667" lon="-4.41236667">
        <ele>518.0</ele>
        <time>2018-05-19T08:20:27.878Z</time>
      </trkpt>
      <trkpt lat="43.29859667" lon="-4.41236667">
        <ele>518.0</ele>
        <time>2018-05-19T08:20:28.875Z</time>
      </trkpt>
      <trkpt lat="43.298585" lon="-4.4124">
        <ele>517.0</ele>
        <time>2018-05-19T08:20:29.878Z</time>
      </trkpt>
      <trkpt lat="43.298585" lon="-4.4124">
        <ele>517.0</ele>
        <time>2018-05-19T08:20:30.872Z</time>
      </trkpt>
      <trkpt lat="43.29857333" lon="-4.41243833">
        <ele>517.0</ele>
        <time>2018-05-19T08:20:31.873Z</time>
      </trkpt>
      <trkpt lat="43.29857333" lon="-4.41243833">
        <ele>517.0</ele>
        <time>2018-05-19T08:20:32.873Z</time>
      </trkpt>
      <trkpt lat="43.29856333" lon="-4.41245667">
        <ele>517.0</ele>
        <time>2018-05-19T08:20:33.878Z</time>
      </trkpt>
      <trkpt lat="43.29856333" lon="-4.41245667">
        <ele>517.0</ele>
        <time>2018-05-19T08:20:34.873Z</time>
      </trkpt>
      <trkpt lat="43.29856167" lon="-4.41245833">
        <ele>517.0</ele>
        <time>2018-05-19T08:20:35.868Z</time>
      </trkpt>
      <trkpt lat="43.29849167" lon="-4.41247667">
        <ele>518.0</ele>
        <time>2018-05-19T08:20:36.856Z</time>
      </trkpt>
      <trkpt lat="43.29849167" lon="-4.41247667">
        <ele>518.0</ele>
        <time>2018-05-19T08:20:37.850Z</time>
      </trkpt>
      <trkpt lat="43.29848" lon="-4.41246333">
        <ele>519.0</ele>
        <time>2018-05-19T08:20:38.846Z</time>
      </trkpt>
      <trkpt lat="43.29847167" lon="-4.41245333">
        <ele>519.0</ele>
        <time>2018-05-19T08:20:39.871Z</time>
      </trkpt>
      <trkpt lat="43.29847" lon="-4.41244667">
        <ele>519.0</ele>
        <time>2018-05-19T08:20:40.857Z</time>
      </trkpt>
      <trkpt lat="43.29847" lon="-4.41244667">
        <ele>519.0</ele>
        <time>2018-05-19T08:20:41.851Z</time>
      </trkpt>
      <trkpt lat="43.29846" lon="-4.41243667">
        <ele>519.0</ele>
        <time>2018-05-19T08:20:42.856Z</time>
      </trkpt>
      <trkpt lat="43.29846" lon="-4.41243667">
        <ele>519.0</ele>
        <time>2018-05-19T08:20:43.848Z</time>
      </trkpt>
      <trkpt lat="43.29844833" lon="-4.41243167">
        <ele>519.0</ele>
        <time>2018-05-19T08:20:44.854Z</time>
      </trkpt>
      <trkpt lat="43.29844833" lon="-4.41243167">
        <ele>519.0</ele>
        <time>2018-05-19T08:20:45.868Z</time>
      </trkpt>
      <trkpt lat="43.298435" lon="-4.41242333">
        <ele>519.0</ele>
        <time>2018-05-19T08:20:46.848Z</time>
      </trkpt>
      <trkpt lat="43.298435" lon="-4.41242333">
        <ele>519.0</ele>
        <time>2018-05-19T08:20:47.854Z</time>
      </trkpt>
      <trkpt lat="43.298425" lon="-4.41241">
        <ele>519.0</ele>
        <time>2018-05-19T08:20:48.860Z</time>
      </trkpt>
      <trkpt lat="43.29841833" lon="-4.41240167">
        <ele>519.0</ele>
        <time>2018-05-19T08:20:49.854Z</time>
      </trkpt>
      <trkpt lat="43.29841667" lon="-4.412395">
        <ele>519.0</ele>
        <time>2018-05-19T08:20:50.855Z</time>
      </trkpt>
      <trkpt lat="43.29841667" lon="-4.412395">
        <ele>519.0</ele>
        <time>2018-05-19T08:20:51.851Z</time>
      </trkpt>
      <trkpt lat="43.29841167" lon="-4.412375">
        <ele>519.0</ele>
        <time>2018-05-19T08:20:52.857Z</time>
      </trkpt>
      <trkpt lat="43.29841167" lon="-4.412375">
        <ele>519.0</ele>
        <time>2018-05-19T08:20:53.865Z</time>
      </trkpt>
      <trkpt lat="43.29841" lon="-4.41236167">
        <ele>519.0</ele>
        <time>2018-05-19T08:20:54.855Z</time>
      </trkpt>
      <trkpt lat="43.29841" lon="-4.41236167">
        <ele>519.0</ele>
        <time>2018-05-19T08:20:55.844Z</time>
      </trkpt>
      <trkpt lat="43.298395" lon="-4.41233833">
        <ele>520.0</ele>
        <time>2018-05-19T08:20:56.850Z</time>
      </trkpt>
      <trkpt lat="43.298395" lon="-4.41233833">
        <ele>520.0</ele>
        <time>2018-05-19T08:20:57.846Z</time>
      </trkpt>
      <trkpt lat="43.29838667" lon="-4.41233667">
        <ele>520.0</ele>
        <time>2018-05-19T08:20:58.847Z</time>
      </trkpt>
      <trkpt lat="43.29838667" lon="-4.41233667">
        <ele>520.0</ele>
        <time>2018-05-19T08:20:59.867Z</time>
      </trkpt>
      <trkpt lat="43.29837833" lon="-4.41233667">
        <ele>520.0</ele>
        <time>2018-05-19T08:21:00.849Z</time>
      </trkpt>
      <trkpt lat="43.29837833" lon="-4.41233667">
        <ele>520.0</ele>
        <time>2018-05-19T08:21:01.868Z</time>
      </trkpt>
      <trkpt lat="43.29837" lon="-4.41233333">
        <ele>520.0</ele>
        <time>2018-05-19T08:21:02.867Z</time>
      </trkpt>
      <trkpt lat="43.29837" lon="-4.41233333">
        <ele>520.0</ele>
        <time>2018-05-19T08:21:03.861Z</time>
      </trkpt>
      <trkpt lat="43.29840167" lon="-4.41225167">
        <ele>518.0</ele>
        <time>2018-05-19T08:21:04.867Z</time>
      </trkpt>
      <trkpt lat="43.29840167" lon="-4.41225167">
        <ele>518.0</ele>
        <time>2018-05-19T08:21:05.853Z</time>
      </trkpt>
      <trkpt lat="43.29842167" lon="-4.41221667">
        <ele>518.0</ele>
        <time>2018-05-19T08:21:06.860Z</time>
      </trkpt>
      <trkpt lat="43.298425" lon="-4.41219167">
        <ele>518.0</ele>
        <time>2018-05-19T08:21:07.865Z</time>
      </trkpt>
      <trkpt lat="43.298425" lon="-4.41219167">
        <ele>518.0</ele>
        <time>2018-05-19T08:21:08.855Z</time>
      </trkpt>
      <trkpt lat="43.29842167" lon="-4.41214667">
        <ele>518.0</ele>
        <time>2018-05-19T08:21:09.866Z</time>
      </trkpt>
      <trkpt lat="43.29842167" lon="-4.41214667">
        <ele>518.0</ele>
        <time>2018-05-19T08:21:10.860Z</time>
      </trkpt>
      <trkpt lat="43.29842667" lon="-4.41209833">
        <ele>518.0</ele>
        <time>2018-05-19T08:21:11.864Z</time>
      </trkpt>
      <trkpt lat="43.29842667" lon="-4.41209833">
        <ele>518.0</ele>
        <time>2018-05-19T08:21:12.860Z</time>
      </trkpt>
      <trkpt lat="43.29842" lon="-4.41205167">
        <ele>519.0</ele>
        <time>2018-05-19T08:21:13.866Z</time>
      </trkpt>
      <trkpt lat="43.29842" lon="-4.41205167">
        <ele>519.0</ele>
        <time>2018-05-19T08:21:14.861Z</time>
      </trkpt>
      <trkpt lat="43.2984" lon="-4.41202167">
        <ele>519.0</ele>
        <time>2018-05-19T08:21:15.866Z</time>
      </trkpt>
      <trkpt lat="43.2984" lon="-4.41202167">
        <ele>519.0</ele>
        <time>2018-05-19T08:21:16.855Z</time>
      </trkpt>
      <trkpt lat="43.298375" lon="-4.411995">
        <ele>520.0</ele>
        <time>2018-05-19T08:21:17.867Z</time>
      </trkpt>
      <trkpt lat="43.298375" lon="-4.411995">
        <ele>520.0</ele>
        <time>2018-05-19T08:21:18.854Z</time>
      </trkpt>
      <trkpt lat="43.29834833" lon="-4.411965">
        <ele>520.0</ele>
        <time>2018-05-19T08:21:19.862Z</time>
      </trkpt>
      <trkpt lat="43.29834833" lon="-4.411965">
        <ele>520.0</ele>
        <time>2018-05-19T08:21:20.857Z</time>
      </trkpt>
      <trkpt lat="43.29832" lon="-4.41193167">
        <ele>520.0</ele>
        <time>2018-05-19T08:21:21.860Z</time>
      </trkpt>
      <trkpt lat="43.29831" lon="-4.41191">
        <ele>520.0</ele>
        <time>2018-05-19T08:21:22.861Z</time>
      </trkpt>
      <trkpt lat="43.29829667" lon="-4.41189">
        <ele>520.0</ele>
        <time>2018-05-19T08:21:23.864Z</time>
      </trkpt>
      <trkpt lat="43.29829667" lon="-4.41189">
        <ele>520.0</ele>
        <time>2018-05-19T08:21:24.854Z</time>
      </trkpt>
      <trkpt lat="43.29826667" lon="-4.41185833">
        <ele>520.0</ele>
        <time>2018-05-19T08:21:25.857Z</time>
      </trkpt>
      <trkpt lat="43.29825167" lon="-4.41184333">
        <ele>521.0</ele>
        <time>2018-05-19T08:21:26.857Z</time>
      </trkpt>
      <trkpt lat="43.29825167" lon="-4.41184333">
        <ele>521.0</ele>
        <time>2018-05-19T08:21:27.877Z</time>
      </trkpt>
      <trkpt lat="43.298215" lon="-4.41181">
        <ele>521.0</ele>
        <time>2018-05-19T08:21:28.861Z</time>
      </trkpt>
      <trkpt lat="43.29819667" lon="-4.41179333">
        <ele>521.0</ele>
        <time>2018-05-19T08:21:29.875Z</time>
      </trkpt>
      <trkpt lat="43.29819667" lon="-4.41179333">
        <ele>521.0</ele>
        <time>2018-05-19T08:21:30.856Z</time>
      </trkpt>
      <trkpt lat="43.29816" lon="-4.41175667">
        <ele>522.0</ele>
        <time>2018-05-19T08:21:31.861Z</time>
      </trkpt>
      <trkpt lat="43.29816" lon="-4.41175667">
        <ele>522.0</ele>
        <time>2018-05-19T08:21:32.854Z</time>
      </trkpt>
      <trkpt lat="43.29811667" lon="-4.41172833">
        <ele>522.0</ele>
        <time>2018-05-19T08:21:33.859Z</time>
      </trkpt>
      <trkpt lat="43.29811667" lon="-4.41172833">
        <ele>522.0</ele>
        <time>2018-05-19T08:21:34.854Z</time>
      </trkpt>
      <trkpt lat="43.298075" lon="-4.41169">
        <ele>522.0</ele>
        <time>2018-05-19T08:21:35.861Z</time>
      </trkpt>
      <trkpt lat="43.298075" lon="-4.41169">
        <ele>522.0</ele>
        <time>2018-05-19T08:21:36.854Z</time>
      </trkpt>
      <trkpt lat="43.29803667" lon="-4.41165">
        <ele>523.0</ele>
        <time>2018-05-19T08:21:37.867Z</time>
      </trkpt>
      <trkpt lat="43.29803667" lon="-4.41165">
        <ele>523.0</ele>
        <time>2018-05-19T08:21:38.858Z</time>
      </trkpt>
      <trkpt lat="43.297995" lon="-4.41161333">
        <ele>523.0</ele>
        <time>2018-05-19T08:21:39.861Z</time>
      </trkpt>
      <trkpt lat="43.297995" lon="-4.41161333">
        <ele>523.0</ele>
        <time>2018-05-19T08:21:40.854Z</time>
      </trkpt>
      <trkpt lat="43.29795333" lon="-4.41157167">
        <ele>523.0</ele>
        <time>2018-05-19T08:21:41.861Z</time>
      </trkpt>
      <trkpt lat="43.29795333" lon="-4.41157167">
        <ele>523.0</ele>
        <time>2018-05-19T08:21:42.854Z</time>
      </trkpt>
      <trkpt lat="43.29790167" lon="-4.41153333">
        <ele>523.0</ele>
        <time>2018-05-19T08:21:43.861Z</time>
      </trkpt>
      <trkpt lat="43.29790167" lon="-4.41153333">
        <ele>523.0</ele>
        <time>2018-05-19T08:21:44.854Z</time>
      </trkpt>
      <trkpt lat="43.29784833" lon="-4.41149">
        <ele>524.0</ele>
        <time>2018-05-19T08:21:45.857Z</time>
      </trkpt>
      <trkpt lat="43.29784833" lon="-4.41149">
        <ele>524.0</ele>
        <time>2018-05-19T08:21:46.874Z</time>
      </trkpt>
      <trkpt lat="43.29779167" lon="-4.41144">
        <ele>524.0</ele>
        <time>2018-05-19T08:21:47.880Z</time>
      </trkpt>
      <trkpt lat="43.29779167" lon="-4.41144">
        <ele>524.0</ele>
        <time>2018-05-19T08:21:48.853Z</time>
      </trkpt>
      <trkpt lat="43.29773167" lon="-4.41138667">
        <ele>524.0</ele>
        <time>2018-05-19T08:21:49.861Z</time>
      </trkpt>
      <trkpt lat="43.29773167" lon="-4.41138667">
        <ele>524.0</ele>
        <time>2018-05-19T08:21:50.855Z</time>
      </trkpt>
      <trkpt lat="43.297665" lon="-4.411335">
        <ele>524.0</ele>
        <time>2018-05-19T08:21:51.857Z</time>
      </trkpt>
      <trkpt lat="43.297665" lon="-4.411335">
        <ele>524.0</ele>
        <time>2018-05-19T08:21:52.868Z</time>
      </trkpt>
      <trkpt lat="43.29758167" lon="-4.41128667">
        <ele>524.0</ele>
        <time>2018-05-19T08:21:53.862Z</time>
      </trkpt>
      <trkpt lat="43.29758167" lon="-4.41128667">
        <ele>524.0</ele>
        <time>2018-05-19T08:21:54.854Z</time>
      </trkpt>
      <trkpt lat="43.29748" lon="-4.411245">
        <ele>523.0</ele>
        <time>2018-05-19T08:21:55.861Z</time>
      </trkpt>
      <trkpt lat="43.29748" lon="-4.411245">
        <ele>523.0</ele>
        <time>2018-05-19T08:21:56.854Z</time>
      </trkpt>
      <trkpt lat="43.29735833" lon="-4.41121333">
        <ele>522.0</ele>
        <time>2018-05-19T08:21:57.876Z</time>
      </trkpt>
      <trkpt lat="43.29735833" lon="-4.41121333">
        <ele>522.0</ele>
        <time>2018-05-19T08:21:58.873Z</time>
      </trkpt>
      <trkpt lat="43.29721167" lon="-4.41121833">
        <ele>521.0</ele>
        <time>2018-05-19T08:21:59.863Z</time>
      </trkpt>
      <trkpt lat="43.29721167" lon="-4.41121833">
        <ele>521.0</ele>
        <time>2018-05-19T08:22:00.857Z</time>
      </trkpt>
      <trkpt lat="43.29704167" lon="-4.41124333">
        <ele>519.0</ele>
        <time>2018-05-19T08:22:01.861Z</time>
      </trkpt>
      <trkpt lat="43.29704167" lon="-4.41124333">
        <ele>519.0</ele>
        <time>2018-05-19T08:22:02.855Z</time>
      </trkpt>
      <trkpt lat="43.29687" lon="-4.41117333">
        <ele>518.0</ele>
        <time>2018-05-19T08:22:03.861Z</time>
      </trkpt>
      <trkpt lat="43.29687" lon="-4.41117333">
        <ele>518.0</ele>
        <time>2018-05-19T08:22:04.854Z</time>
      </trkpt>
      <trkpt lat="43.29672167" lon="-4.41101667">
        <ele>517.0</ele>
        <time>2018-05-19T08:22:05.854Z</time>
      </trkpt>
      <trkpt lat="43.29672167" lon="-4.41101667">
        <ele>517.0</ele>
        <time>2018-05-19T08:22:06.854Z</time>
      </trkpt>
      <trkpt lat="43.29655667" lon="-4.41094">
        <ele>517.0</ele>
        <time>2018-05-19T08:22:07.860Z</time>
      </trkpt>
      <trkpt lat="43.29655667" lon="-4.41094">
        <ele>517.0</ele>
        <time>2018-05-19T08:22:08.854Z</time>
      </trkpt>
      <trkpt lat="43.29641" lon="-4.410975">
        <ele>518.0</ele>
        <time>2018-05-19T08:22:09.859Z</time>
      </trkpt>
      <trkpt lat="43.29635333" lon="-4.41101833">
        <ele>518.0</ele>
        <time>2018-05-19T08:22:10.861Z</time>
      </trkpt>
      <trkpt lat="43.29635333" lon="-4.41101833">
        <ele>518.0</ele>
        <time>2018-05-19T08:22:11.857Z</time>
      </trkpt>
      <trkpt lat="43.29626833" lon="-4.41113167">
        <ele>519.0</ele>
        <time>2018-05-19T08:22:12.856Z</time>
      </trkpt>
      <trkpt lat="43.29623667" lon="-4.41119333">
        <ele>519.0</ele>
        <time>2018-05-19T08:22:13.872Z</time>
      </trkpt>
      <trkpt lat="43.29623667" lon="-4.41119333">
        <ele>519.0</ele>
        <time>2018-05-19T08:22:14.855Z</time>
      </trkpt>
      <trkpt lat="43.29619667" lon="-4.41132667">
        <ele>520.0</ele>
        <time>2018-05-19T08:22:15.857Z</time>
      </trkpt>
      <trkpt lat="43.29619667" lon="-4.41132667">
        <ele>520.0</ele>
        <time>2018-05-19T08:22:16.854Z</time>
      </trkpt>
      <trkpt lat="43.29618333" lon="-4.41147167">
        <ele>521.0</ele>
        <time>2018-05-19T08:22:17.861Z</time>
      </trkpt>
      <trkpt lat="43.29618333" lon="-4.41147167">
        <ele>521.0</ele>
        <time>2018-05-19T08:22:18.858Z</time>
      </trkpt>
      <trkpt lat="43.296165" lon="-4.41161667">
        <ele>520.0</ele>
        <time>2018-05-19T08:22:19.861Z</time>
      </trkpt>
      <trkpt lat="43.296165" lon="-4.41161667">
        <ele>520.0</ele>
        <time>2018-05-19T08:22:20.850Z</time>
      </trkpt>
      <trkpt lat="43.29613833" lon="-4.41175333">
        <ele>521.0</ele>
        <time>2018-05-19T08:22:21.859Z</time>
      </trkpt>
      <trkpt lat="43.29611833" lon="-4.41181667">
        <ele>521.0</ele>
        <time>2018-05-19T08:22:22.860Z</time>
      </trkpt>
      <trkpt lat="43.29611833" lon="-4.41181667">
        <ele>521.0</ele>
        <time>2018-05-19T08:22:23.856Z</time>
      </trkpt>
      <trkpt lat="43.29605333" lon="-4.41192833">
        <ele>522.0</ele>
        <time>2018-05-19T08:22:24.856Z</time>
      </trkpt>
      <trkpt lat="43.29601167" lon="-4.41197333">
        <ele>522.0</ele>
        <time>2018-05-19T08:22:25.861Z</time>
      </trkpt>
      <trkpt lat="43.29601167" lon="-4.41197333">
        <ele>522.0</ele>
        <time>2018-05-19T08:22:26.855Z</time>
      </trkpt>
      <trkpt lat="43.29592667" lon="-4.41205">
        <ele>522.0</ele>
        <time>2018-05-19T08:22:27.856Z</time>
      </trkpt>
      <trkpt lat="43.29592667" lon="-4.41205">
        <ele>522.0</ele>
        <time>2018-05-19T08:22:28.851Z</time>
      </trkpt>
      <trkpt lat="43.29583833" lon="-4.41212667">
        <ele>522.0</ele>
        <time>2018-05-19T08:22:29.875Z</time>
      </trkpt>
      <trkpt lat="43.29583833" lon="-4.41212667">
        <ele>522.0</ele>
        <time>2018-05-19T08:22:30.881Z</time>
      </trkpt>
      <trkpt lat="43.29575667" lon="-4.41222333">
        <ele>523.0</ele>
        <time>2018-05-19T08:22:31.866Z</time>
      </trkpt>
      <trkpt lat="43.29575667" lon="-4.41222333">
        <ele>523.0</ele>
        <time>2018-05-19T08:22:32.854Z</time>
      </trkpt>
      <trkpt lat="43.29570167" lon="-4.41234667">
        <ele>524.0</ele>
        <time>2018-05-19T08:22:33.876Z</time>
      </trkpt>
      <trkpt lat="43.29567833" lon="-4.41240667">
        <ele>524.0</ele>
        <time>2018-05-19T08:22:34.862Z</time>
      </trkpt>
      <trkpt lat="43.29567833" lon="-4.41240667">
        <ele>524.0</ele>
        <time>2018-05-19T08:22:35.861Z</time>
      </trkpt>
      <trkpt lat="43.29562333" lon="-4.412505">
        <ele>524.0</ele>
        <time>2018-05-19T08:22:36.856Z</time>
      </trkpt>
      <trkpt lat="43.29558833" lon="-4.41254333">
        <ele>524.0</ele>
        <time>2018-05-19T08:22:37.861Z</time>
      </trkpt>
      <trkpt lat="43.29558833" lon="-4.41254333">
        <ele>524.0</ele>
        <time>2018-05-19T08:22:38.850Z</time>
      </trkpt>
      <trkpt lat="43.29550167" lon="-4.41259333">
        <ele>524.0</ele>
        <time>2018-05-19T08:22:39.876Z</time>
      </trkpt>
      <trkpt lat="43.29550167" lon="-4.41259333">
        <ele>524.0</ele>
        <time>2018-05-19T08:22:40.867Z</time>
      </trkpt>
      <trkpt lat="43.29540833" lon="-4.41263167">
        <ele>524.0</ele>
        <time>2018-05-19T08:22:41.877Z</time>
      </trkpt>
      <trkpt lat="43.29540833" lon="-4.41263167">
        <ele>524.0</ele>
        <time>2018-05-19T08:22:42.857Z</time>
      </trkpt>
      <trkpt lat="43.29531667" lon="-4.41267833">
        <ele>524.0</ele>
        <time>2018-05-19T08:22:43.860Z</time>
      </trkpt>
      <trkpt lat="43.29531667" lon="-4.41267833">
        <ele>524.0</ele>
        <time>2018-05-19T08:22:44.854Z</time>
      </trkpt>
      <trkpt lat="43.29523167" lon="-4.412735">
        <ele>524.0</ele>
        <time>2018-05-19T08:22:45.844Z</time>
      </trkpt>
      <trkpt lat="43.29519333" lon="-4.41277">
        <ele>524.0</ele>
        <time>2018-05-19T08:22:46.856Z</time>
      </trkpt>
      <trkpt lat="43.29516" lon="-4.41281833">
        <ele>524.0</ele>
        <time>2018-05-19T08:22:47.864Z</time>
      </trkpt>
      <trkpt lat="43.29516" lon="-4.41281833">
        <ele>524.0</ele>
        <time>2018-05-19T08:22:48.857Z</time>
      </trkpt>
      <trkpt lat="43.29510667" lon="-4.41294667">
        <ele>524.0</ele>
        <time>2018-05-19T08:22:49.860Z</time>
      </trkpt>
      <trkpt lat="43.29510667" lon="-4.41294667">
        <ele>524.0</ele>
        <time>2018-05-19T08:22:50.867Z</time>
      </trkpt>
      <trkpt lat="43.295035" lon="-4.41310167">
        <ele>523.0</ele>
        <time>2018-05-19T08:22:51.866Z</time>
      </trkpt>
      <trkpt lat="43.295035" lon="-4.41310167">
        <ele>523.0</ele>
        <time>2018-05-19T08:22:52.854Z</time>
      </trkpt>
      <trkpt lat="43.29495333" lon="-4.413285">
        <ele>522.0</ele>
        <time>2018-05-19T08:22:53.861Z</time>
      </trkpt>
      <trkpt lat="43.29495333" lon="-4.413285">
        <ele>522.0</ele>
        <time>2018-05-19T08:22:54.856Z</time>
      </trkpt>
      <trkpt lat="43.29489833" lon="-4.41348333">
        <ele>521.0</ele>
        <time>2018-05-19T08:22:55.859Z</time>
      </trkpt>
      <trkpt lat="43.29489833" lon="-4.41348333">
        <ele>521.0</ele>
        <time>2018-05-19T08:22:56.855Z</time>
      </trkpt>
      <trkpt lat="43.29486833" lon="-4.41367333">
        <ele>520.0</ele>
        <time>2018-05-19T08:22:57.859Z</time>
      </trkpt>
      <trkpt lat="43.29486833" lon="-4.41367333">
        <ele>520.0</ele>
        <time>2018-05-19T08:22:58.850Z</time>
      </trkpt>
      <trkpt lat="43.29485833" lon="-4.41384333">
        <ele>518.0</ele>
        <time>2018-05-19T08:22:59.875Z</time>
      </trkpt>
      <trkpt lat="43.29485833" lon="-4.41384333">
        <ele>518.0</ele>
        <time>2018-05-19T08:23:00.861Z</time>
      </trkpt>
      <trkpt lat="43.29484833" lon="-4.41397333">
        <ele>518.0</ele>
        <time>2018-05-19T08:23:01.861Z</time>
      </trkpt>
      <trkpt lat="43.29484833" lon="-4.41397333">
        <ele>518.0</ele>
        <time>2018-05-19T08:23:02.855Z</time>
      </trkpt>
      <trkpt lat="43.29483833" lon="-4.4141">
        <ele>517.0</ele>
        <time>2018-05-19T08:23:03.856Z</time>
      </trkpt>
      <trkpt lat="43.29483333" lon="-4.41416667">
        <ele>516.0</ele>
        <time>2018-05-19T08:23:04.860Z</time>
      </trkpt>
      <trkpt lat="43.29483333" lon="-4.41416667">
        <ele>516.0</ele>
        <time>2018-05-19T08:23:05.848Z</time>
      </trkpt>
      <trkpt lat="43.294815" lon="-4.41428833">
        <ele>516.0</ele>
        <time>2018-05-19T08:23:06.870Z</time>
      </trkpt>
      <trkpt lat="43.29480167" lon="-4.41434167">
        <ele>516.0</ele>
        <time>2018-05-19T08:23:07.859Z</time>
      </trkpt>
      <trkpt lat="43.29480167" lon="-4.41434167">
        <ele>516.0</ele>
        <time>2018-05-19T08:23:08.852Z</time>
      </trkpt>
      <trkpt lat="43.29477833" lon="-4.41446833">
        <ele>515.0</ele>
        <time>2018-05-19T08:23:09.876Z</time>
      </trkpt>
      <trkpt lat="43.29477833" lon="-4.41446833">
        <ele>515.0</ele>
        <time>2018-05-19T08:23:10.862Z</time>
      </trkpt>
      <trkpt lat="43.29475333" lon="-4.41462">
        <ele>514.0</ele>
        <time>2018-05-19T08:23:11.860Z</time>
      </trkpt>
      <trkpt lat="43.29475333" lon="-4.41462">
        <ele>514.0</ele>
        <time>2018-05-19T08:23:12.855Z</time>
      </trkpt>
      <trkpt lat="43.29475167" lon="-4.41478667">
        <ele>513.0</ele>
        <time>2018-05-19T08:23:13.860Z</time>
      </trkpt>
      <trkpt lat="43.29475167" lon="-4.41478667">
        <ele>513.0</ele>
        <time>2018-05-19T08:23:14.856Z</time>
      </trkpt>
      <trkpt lat="43.294755" lon="-4.41493167">
        <ele>512.0</ele>
        <time>2018-05-19T08:23:15.859Z</time>
      </trkpt>
      <trkpt lat="43.29475333" lon="-4.41499833">
        <ele>511.0</ele>
        <time>2018-05-19T08:23:16.856Z</time>
      </trkpt>
      <trkpt lat="43.29475333" lon="-4.41499833">
        <ele>511.0</ele>
        <time>2018-05-19T08:23:17.855Z</time>
      </trkpt>
      <trkpt lat="43.29475833" lon="-4.41514333">
        <ele>509.0</ele>
        <time>2018-05-19T08:23:18.852Z</time>
      </trkpt>
      <trkpt lat="43.29477" lon="-4.41522167">
        <ele>508.0</ele>
        <time>2018-05-19T08:23:19.876Z</time>
      </trkpt>
      <trkpt lat="43.29477" lon="-4.41522167">
        <ele>508.0</ele>
        <time>2018-05-19T08:23:20.873Z</time>
      </trkpt>
      <trkpt lat="43.29480667" lon="-4.41537333">
        <ele>507.0</ele>
        <time>2018-05-19T08:23:21.860Z</time>
      </trkpt>
      <trkpt lat="43.29481333" lon="-4.41544333">
        <ele>506.0</ele>
        <time>2018-05-19T08:23:22.861Z</time>
      </trkpt>
      <trkpt lat="43.29481333" lon="-4.41544333">
        <ele>506.0</ele>
        <time>2018-05-19T08:23:23.856Z</time>
      </trkpt>
      <trkpt lat="43.29480833" lon="-4.41558667">
        <ele>505.0</ele>
        <time>2018-05-19T08:23:24.861Z</time>
      </trkpt>
      <trkpt lat="43.2948" lon="-4.41565">
        <ele>505.0</ele>
        <time>2018-05-19T08:23:25.862Z</time>
      </trkpt>
      <trkpt lat="43.2948" lon="-4.41565">
        <ele>505.0</ele>
        <time>2018-05-19T08:23:26.856Z</time>
      </trkpt>
      <trkpt lat="43.29479333" lon="-4.41576667">
        <ele>504.0</ele>
        <time>2018-05-19T08:23:27.856Z</time>
      </trkpt>
      <trkpt lat="43.29479333" lon="-4.41576667">
        <ele>504.0</ele>
        <time>2018-05-19T08:23:28.851Z</time>
      </trkpt>
      <trkpt lat="43.29479167" lon="-4.41587667">
        <ele>504.0</ele>
        <time>2018-05-19T08:23:29.875Z</time>
      </trkpt>
      <trkpt lat="43.29479167" lon="-4.41587667">
        <ele>504.0</ele>
        <time>2018-05-19T08:23:30.862Z</time>
      </trkpt>
      <trkpt lat="43.29476167" lon="-4.41599">
        <ele>503.0</ele>
        <time>2018-05-19T08:23:31.859Z</time>
      </trkpt>
      <trkpt lat="43.29476167" lon="-4.41599">
        <ele>503.0</ele>
        <time>2018-05-19T08:23:32.854Z</time>
      </trkpt>
      <trkpt lat="43.294715" lon="-4.41611167">
        <ele>503.0</ele>
        <time>2018-05-19T08:23:33.858Z</time>
      </trkpt>
      <trkpt lat="43.294715" lon="-4.41611167">
        <ele>503.0</ele>
        <time>2018-05-19T08:23:34.856Z</time>
      </trkpt>
      <trkpt lat="43.29466667" lon="-4.41621333">
        <ele>502.0</ele>
        <time>2018-05-19T08:23:35.859Z</time>
      </trkpt>
      <trkpt lat="43.29466667" lon="-4.41621333">
        <ele>502.0</ele>
        <time>2018-05-19T08:23:36.857Z</time>
      </trkpt>
      <trkpt lat="43.29462667" lon="-4.41631667">
        <ele>500.0</ele>
        <time>2018-05-19T08:23:37.859Z</time>
      </trkpt>
      <trkpt lat="43.29462667" lon="-4.41631667">
        <ele>500.0</ele>
        <time>2018-05-19T08:23:38.850Z</time>
      </trkpt>
      <trkpt lat="43.29458" lon="-4.41647167">
        <ele>497.0</ele>
        <time>2018-05-19T08:23:39.875Z</time>
      </trkpt>
      <trkpt lat="43.29458" lon="-4.41647167">
        <ele>497.0</ele>
        <time>2018-05-19T08:23:40.861Z</time>
      </trkpt>
      <trkpt lat="43.29456333" lon="-4.416615">
        <ele>495.0</ele>
        <time>2018-05-19T08:23:41.861Z</time>
      </trkpt>
      <trkpt lat="43.29456333" lon="-4.416615">
        <ele>495.0</ele>
        <time>2018-05-19T08:23:42.854Z</time>
      </trkpt>
      <trkpt lat="43.294545" lon="-4.41675833">
        <ele>493.0</ele>
        <time>2018-05-19T08:23:43.859Z</time>
      </trkpt>
      <trkpt lat="43.294545" lon="-4.41675833">
        <ele>493.0</ele>
        <time>2018-05-19T08:23:44.856Z</time>
      </trkpt>
      <trkpt lat="43.29450333" lon="-4.41690167">
        <ele>491.0</ele>
        <time>2018-05-19T08:23:45.876Z</time>
      </trkpt>
      <trkpt lat="43.29447" lon="-4.41697667">
        <ele>489.0</ele>
        <time>2018-05-19T08:23:46.861Z</time>
      </trkpt>
      <trkpt lat="43.294435" lon="-4.417055">
        <ele>490.0</ele>
        <time>2018-05-19T08:23:47.861Z</time>
      </trkpt>
      <trkpt lat="43.294435" lon="-4.417055">
        <ele>490.0</ele>
        <time>2018-05-19T08:23:48.853Z</time>
      </trkpt>
      <trkpt lat="43.294385" lon="-4.41718333">
        <ele>489.0</ele>
        <time>2018-05-19T08:23:49.860Z</time>
      </trkpt>
      <trkpt lat="43.294385" lon="-4.41718333">
        <ele>489.0</ele>
        <time>2018-05-19T08:23:50.858Z</time>
      </trkpt>
      <trkpt lat="43.29435667" lon="-4.41732333">
        <ele>487.0</ele>
        <time>2018-05-19T08:23:51.857Z</time>
      </trkpt>
      <trkpt lat="43.29435667" lon="-4.41732333">
        <ele>487.0</ele>
        <time>2018-05-19T08:23:52.856Z</time>
      </trkpt>
      <trkpt lat="43.29434167" lon="-4.41743167">
        <ele>486.0</ele>
        <time>2018-05-19T08:23:53.861Z</time>
      </trkpt>
      <trkpt lat="43.29434167" lon="-4.41743167">
        <ele>486.0</ele>
        <time>2018-05-19T08:23:54.856Z</time>
      </trkpt>
      <trkpt lat="43.29432333" lon="-4.41751333">
        <ele>485.0</ele>
        <time>2018-05-19T08:23:55.860Z</time>
      </trkpt>
      <trkpt lat="43.29432333" lon="-4.41751333">
        <ele>485.0</ele>
        <time>2018-05-19T08:23:56.856Z</time>
      </trkpt>
      <trkpt lat="43.29429167" lon="-4.41759333">
        <ele>484.0</ele>
        <time>2018-05-19T08:23:57.856Z</time>
      </trkpt>
      <trkpt lat="43.29429167" lon="-4.41759333">
        <ele>484.0</ele>
        <time>2018-05-19T08:23:58.850Z</time>
      </trkpt>
      <trkpt lat="43.29424667" lon="-4.41768167">
        <ele>483.0</ele>
        <time>2018-05-19T08:23:59.875Z</time>
      </trkpt>
      <trkpt lat="43.29424667" lon="-4.41768167">
        <ele>483.0</ele>
        <time>2018-05-19T08:24:00.862Z</time>
      </trkpt>
      <trkpt lat="43.2942" lon="-4.41778167">
        <ele>482.0</ele>
        <time>2018-05-19T08:24:01.859Z</time>
      </trkpt>
      <trkpt lat="43.2942" lon="-4.41778167">
        <ele>482.0</ele>
        <time>2018-05-19T08:24:02.853Z</time>
      </trkpt>
      <trkpt lat="43.29415833" lon="-4.41790667">
        <ele>480.0</ele>
        <time>2018-05-19T08:24:03.856Z</time>
      </trkpt>
      <trkpt lat="43.29415833" lon="-4.41790667">
        <ele>480.0</ele>
        <time>2018-05-19T08:24:04.856Z</time>
      </trkpt>
      <trkpt lat="43.294145" lon="-4.41803833">
        <ele>479.0</ele>
        <time>2018-05-19T08:24:05.855Z</time>
      </trkpt>
      <trkpt lat="43.29414833" lon="-4.41810833">
        <ele>478.0</ele>
        <time>2018-05-19T08:24:06.856Z</time>
      </trkpt>
      <trkpt lat="43.29414833" lon="-4.41818167">
        <ele>477.0</ele>
        <time>2018-05-19T08:24:07.859Z</time>
      </trkpt>
      <trkpt lat="43.29414833" lon="-4.41818167">
        <ele>477.0</ele>
        <time>2018-05-19T08:24:08.850Z</time>
      </trkpt>
      <trkpt lat="43.29413333" lon="-4.41832333">
        <ele>475.0</ele>
        <time>2018-05-19T08:24:09.872Z</time>
      </trkpt>
      <trkpt lat="43.29413333" lon="-4.41832333">
        <ele>475.0</ele>
        <time>2018-05-19T08:24:10.856Z</time>
      </trkpt>
      <trkpt lat="43.29410167" lon="-4.41842167">
        <ele>474.0</ele>
        <time>2018-05-19T08:24:11.851Z</time>
      </trkpt>
      <trkpt lat="43.294085" lon="-4.41846333">
        <ele>473.0</ele>
        <time>2018-05-19T08:24:12.859Z</time>
      </trkpt>
      <trkpt lat="43.29406667" lon="-4.41850333">
        <ele>473.0</ele>
        <time>2018-05-19T08:24:13.861Z</time>
      </trkpt>
      <trkpt lat="43.29406667" lon="-4.41850333">
        <ele>473.0</ele>
        <time>2018-05-19T08:24:14.856Z</time>
      </trkpt>
      <trkpt lat="43.29403167" lon="-4.41859333">
        <ele>472.0</ele>
        <time>2018-05-19T08:24:15.856Z</time>
      </trkpt>
      <trkpt lat="43.29403167" lon="-4.41859333">
        <ele>472.0</ele>
        <time>2018-05-19T08:24:16.857Z</time>
      </trkpt>
      <trkpt lat="43.293995" lon="-4.41868167">
        <ele>471.0</ele>
        <time>2018-05-19T08:24:17.867Z</time>
      </trkpt>
      <trkpt lat="43.293995" lon="-4.41868167">
        <ele>471.0</ele>
        <time>2018-05-19T08:24:18.857Z</time>
      </trkpt>
      <trkpt lat="43.29396" lon="-4.41877667">
        <ele>470.0</ele>
        <time>2018-05-19T08:24:19.860Z</time>
      </trkpt>
      <trkpt lat="43.29396" lon="-4.41877667">
        <ele>470.0</ele>
        <time>2018-05-19T08:24:20.857Z</time>
      </trkpt>
      <trkpt lat="43.29391333" lon="-4.41889833">
        <ele>468.0</ele>
        <time>2018-05-19T08:24:21.846Z</time>
      </trkpt>
      <trkpt lat="43.29389667" lon="-4.41896333">
        <ele>467.0</ele>
        <time>2018-05-19T08:24:22.871Z</time>
      </trkpt>
      <trkpt lat="43.29387333" lon="-4.41902833">
        <ele>466.0</ele>
        <time>2018-05-19T08:24:23.860Z</time>
      </trkpt>
      <trkpt lat="43.29387333" lon="-4.41902833">
        <ele>466.0</ele>
        <time>2018-05-19T08:24:24.854Z</time>
      </trkpt>
      <trkpt lat="43.29380833" lon="-4.41913333">
        <ele>465.0</ele>
        <time>2018-05-19T08:24:25.856Z</time>
      </trkpt>
      <trkpt lat="43.29380833" lon="-4.41913333">
        <ele>465.0</ele>
        <time>2018-05-19T08:24:26.856Z</time>
      </trkpt>
      <trkpt lat="43.293735" lon="-4.41920833">
        <ele>463.0</ele>
        <time>2018-05-19T08:24:27.859Z</time>
      </trkpt>
      <trkpt lat="43.293735" lon="-4.41920833">
        <ele>463.0</ele>
        <time>2018-05-19T08:24:28.855Z</time>
      </trkpt>
      <trkpt lat="43.29366167" lon="-4.41926833">
        <ele>462.0</ele>
        <time>2018-05-19T08:24:29.877Z</time>
      </trkpt>
      <trkpt lat="43.29366167" lon="-4.41926833">
        <ele>462.0</ele>
        <time>2018-05-19T08:24:30.860Z</time>
      </trkpt>
      <trkpt lat="43.29361667" lon="-4.41934">
        <ele>461.0</ele>
        <time>2018-05-19T08:24:31.859Z</time>
      </trkpt>
      <trkpt lat="43.29361667" lon="-4.41934">
        <ele>461.0</ele>
        <time>2018-05-19T08:24:32.856Z</time>
      </trkpt>
      <trkpt lat="43.293565" lon="-4.419415">
        <ele>459.0</ele>
        <time>2018-05-19T08:24:33.859Z</time>
      </trkpt>
      <trkpt lat="43.293565" lon="-4.419415">
        <ele>459.0</ele>
        <time>2018-05-19T08:24:34.856Z</time>
      </trkpt>
      <trkpt lat="43.293525" lon="-4.41948667">
        <ele>457.0</ele>
        <time>2018-05-19T08:24:35.861Z</time>
      </trkpt>
      <trkpt lat="43.293525" lon="-4.41948667">
        <ele>457.0</ele>
        <time>2018-05-19T08:24:36.855Z</time>
      </trkpt>
      <trkpt lat="43.293505" lon="-4.41954">
        <ele>456.0</ele>
        <time>2018-05-19T08:24:37.861Z</time>
      </trkpt>
      <trkpt lat="43.293505" lon="-4.41954">
        <ele>456.0</ele>
        <time>2018-05-19T08:24:38.850Z</time>
      </trkpt>
      <trkpt lat="43.29349167" lon="-4.419585">
        <ele>455.0</ele>
        <time>2018-05-19T08:24:39.872Z</time>
      </trkpt>
      <trkpt lat="43.29349167" lon="-4.419585">
        <ele>455.0</ele>
        <time>2018-05-19T08:24:40.854Z</time>
      </trkpt>
      <trkpt lat="43.29347333" lon="-4.41963">
        <ele>454.0</ele>
        <time>2018-05-19T08:24:41.875Z</time>
      </trkpt>
      <trkpt lat="43.29347333" lon="-4.41963">
        <ele>454.0</ele>
        <time>2018-05-19T08:24:42.867Z</time>
      </trkpt>
      <trkpt lat="43.29345167" lon="-4.41968">
        <ele>454.0</ele>
        <time>2018-05-19T08:24:43.859Z</time>
      </trkpt>
      <trkpt lat="43.29345167" lon="-4.41968">
        <ele>454.0</ele>
        <time>2018-05-19T08:24:44.854Z</time>
      </trkpt>
      <trkpt lat="43.29342167" lon="-4.41975333">
        <ele>453.0</ele>
        <time>2018-05-19T08:24:45.883Z</time>
      </trkpt>
      <trkpt lat="43.29342167" lon="-4.41975333">
        <ele>453.0</ele>
        <time>2018-05-19T08:24:46.872Z</time>
      </trkpt>
      <trkpt lat="43.29338667" lon="-4.41982667">
        <ele>451.0</ele>
        <time>2018-05-19T08:24:47.860Z</time>
      </trkpt>
      <trkpt lat="43.29338667" lon="-4.41982667">
        <ele>451.0</ele>
        <time>2018-05-19T08:24:48.858Z</time>
      </trkpt>
      <trkpt lat="43.29335833" lon="-4.41987667">
        <ele>451.0</ele>
        <time>2018-05-19T08:24:49.859Z</time>
      </trkpt>
      <trkpt lat="43.29335833" lon="-4.41987667">
        <ele>451.0</ele>
        <time>2018-05-19T08:24:50.856Z</time>
      </trkpt>
      <trkpt lat="43.29331" lon="-4.41994167">
        <ele>449.0</ele>
        <time>2018-05-19T08:24:51.856Z</time>
      </trkpt>
      <trkpt lat="43.29328333" lon="-4.419985">
        <ele>448.0</ele>
        <time>2018-05-19T08:24:52.859Z</time>
      </trkpt>
      <trkpt lat="43.29325667" lon="-4.42003167">
        <ele>448.0</ele>
        <time>2018-05-19T08:24:53.861Z</time>
      </trkpt>
      <trkpt lat="43.29325667" lon="-4.42003167">
        <ele>448.0</ele>
        <time>2018-05-19T08:24:54.856Z</time>
      </trkpt>
      <trkpt lat="43.29321167" lon="-4.42014333">
        <ele>447.0</ele>
        <time>2018-05-19T08:24:55.860Z</time>
      </trkpt>
      <trkpt lat="43.29321167" lon="-4.42014333">
        <ele>447.0</ele>
        <time>2018-05-19T08:24:56.856Z</time>
      </trkpt>
      <trkpt lat="43.29317667" lon="-4.42025167">
        <ele>446.0</ele>
        <time>2018-05-19T08:24:57.855Z</time>
      </trkpt>
      <trkpt lat="43.29317667" lon="-4.42025167">
        <ele>446.0</ele>
        <time>2018-05-19T08:24:58.869Z</time>
      </trkpt>
      <trkpt lat="43.29313" lon="-4.42039167">
        <ele>445.0</ele>
        <time>2018-05-19T08:24:59.861Z</time>
      </trkpt>
      <trkpt lat="43.29313" lon="-4.42039167">
        <ele>445.0</ele>
        <time>2018-05-19T08:25:00.854Z</time>
      </trkpt>
      <trkpt lat="43.29308167" lon="-4.42054333">
        <ele>444.0</ele>
        <time>2018-05-19T08:25:01.859Z</time>
      </trkpt>
      <trkpt lat="43.29308167" lon="-4.42054333">
        <ele>444.0</ele>
        <time>2018-05-19T08:25:02.855Z</time>
      </trkpt>
      <trkpt lat="43.29305833" lon="-4.42064667">
        <ele>443.0</ele>
        <time>2018-05-19T08:25:03.856Z</time>
      </trkpt>
      <trkpt lat="43.29305833" lon="-4.42064667">
        <ele>443.0</ele>
        <time>2018-05-19T08:25:04.856Z</time>
      </trkpt>
      <trkpt lat="43.29303667" lon="-4.420735">
        <ele>443.0</ele>
        <time>2018-05-19T08:25:05.860Z</time>
      </trkpt>
      <trkpt lat="43.29303667" lon="-4.420735">
        <ele>443.0</ele>
        <time>2018-05-19T08:25:06.856Z</time>
      </trkpt>
      <trkpt lat="43.29300667" lon="-4.420815">
        <ele>442.0</ele>
        <time>2018-05-19T08:25:07.859Z</time>
      </trkpt>
      <trkpt lat="43.29300667" lon="-4.420815">
        <ele>442.0</ele>
        <time>2018-05-19T08:25:08.850Z</time>
      </trkpt>
      <trkpt lat="43.29297833" lon="-4.420885">
        <ele>441.0</ele>
        <time>2018-05-19T08:25:09.874Z</time>
      </trkpt>
      <trkpt lat="43.292965" lon="-4.42091667">
        <ele>440.0</ele>
        <time>2018-05-19T08:25:10.860Z</time>
      </trkpt>
      <trkpt lat="43.29295167" lon="-4.42095667">
        <ele>439.0</ele>
        <time>2018-05-19T08:25:11.861Z</time>
      </trkpt>
      <trkpt lat="43.29295167" lon="-4.42095667">
        <ele>439.0</ele>
        <time>2018-05-19T08:25:12.854Z</time>
      </trkpt>
      <trkpt lat="43.292925" lon="-4.42107833">
        <ele>436.0</ele>
        <time>2018-05-19T08:25:13.858Z</time>
      </trkpt>
      <trkpt lat="43.292925" lon="-4.42107833">
        <ele>436.0</ele>
        <time>2018-05-19T08:25:14.856Z</time>
      </trkpt>
      <trkpt lat="43.292895" lon="-4.42121167">
        <ele>436.0</ele>
        <time>2018-05-19T08:25:15.859Z</time>
      </trkpt>
      <trkpt lat="43.29287667" lon="-4.42127167">
        <ele>435.0</ele>
        <time>2018-05-19T08:25:16.859Z</time>
      </trkpt>
      <trkpt lat="43.29287667" lon="-4.42127167">
        <ele>435.0</ele>
        <time>2018-05-19T08:25:17.855Z</time>
      </trkpt>
      <trkpt lat="43.292825" lon="-4.42140333">
        <ele>434.0</ele>
        <time>2018-05-19T08:25:18.851Z</time>
      </trkpt>
      <trkpt lat="43.29280167" lon="-4.42148833">
        <ele>433.0</ele>
        <time>2018-05-19T08:25:19.875Z</time>
      </trkpt>
      <trkpt lat="43.29280167" lon="-4.42148833">
        <ele>433.0</ele>
        <time>2018-05-19T08:25:20.876Z</time>
      </trkpt>
      <trkpt lat="43.29274667" lon="-4.42169333">
        <ele>431.0</ele>
        <time>2018-05-19T08:25:21.873Z</time>
      </trkpt>
      <trkpt lat="43.29274667" lon="-4.42169333">
        <ele>431.0</ele>
        <time>2018-05-19T08:25:22.855Z</time>
      </trkpt>
      <trkpt lat="43.29267333" lon="-4.42190167">
        <ele>429.0</ele>
        <time>2018-05-19T08:25:23.856Z</time>
      </trkpt>
      <trkpt lat="43.29267333" lon="-4.42190167">
        <ele>429.0</ele>
        <time>2018-05-19T08:25:24.856Z</time>
      </trkpt>
      <trkpt lat="43.29261833" lon="-4.42211333">
        <ele>427.0</ele>
        <time>2018-05-19T08:25:25.861Z</time>
      </trkpt>
      <trkpt lat="43.29261833" lon="-4.42211333">
        <ele>427.0</ele>
        <time>2018-05-19T08:25:26.854Z</time>
      </trkpt>
      <trkpt lat="43.29256167" lon="-4.42229167">
        <ele>425.0</ele>
        <time>2018-05-19T08:25:27.858Z</time>
      </trkpt>
      <trkpt lat="43.29256167" lon="-4.42229167">
        <ele>425.0</ele>
        <time>2018-05-19T08:25:28.850Z</time>
      </trkpt>
      <trkpt lat="43.29249333" lon="-4.42242">
        <ele>424.0</ele>
        <time>2018-05-19T08:25:29.873Z</time>
      </trkpt>
      <trkpt lat="43.29249333" lon="-4.42242">
        <ele>424.0</ele>
        <time>2018-05-19T08:25:30.855Z</time>
      </trkpt>
      <trkpt lat="43.29241333" lon="-4.4225">
        <ele>422.0</ele>
        <time>2018-05-19T08:25:31.859Z</time>
      </trkpt>
      <trkpt lat="43.29241333" lon="-4.4225">
        <ele>422.0</ele>
        <time>2018-05-19T08:25:32.856Z</time>
      </trkpt>
      <trkpt lat="43.29230667" lon="-4.422545">
        <ele>420.0</ele>
        <time>2018-05-19T08:25:33.858Z</time>
      </trkpt>
      <trkpt lat="43.29230667" lon="-4.422545">
        <ele>420.0</ele>
        <time>2018-05-19T08:25:34.853Z</time>
      </trkpt>
      <trkpt lat="43.29217333" lon="-4.42253667">
        <ele>417.0</ele>
        <time>2018-05-19T08:25:35.881Z</time>
      </trkpt>
      <trkpt lat="43.29217333" lon="-4.42253667">
        <ele>417.0</ele>
        <time>2018-05-19T08:25:36.864Z</time>
      </trkpt>
      <trkpt lat="43.29204667" lon="-4.42247333">
        <ele>416.0</ele>
        <time>2018-05-19T08:25:37.859Z</time>
      </trkpt>
      <trkpt lat="43.29204667" lon="-4.42247333">
        <ele>416.0</ele>
        <time>2018-05-19T08:25:38.849Z</time>
      </trkpt>
      <trkpt lat="43.29194667" lon="-4.42237167">
        <ele>414.0</ele>
        <time>2018-05-19T08:25:39.869Z</time>
      </trkpt>
      <trkpt lat="43.29194667" lon="-4.42237167">
        <ele>414.0</ele>
        <time>2018-05-19T08:25:40.856Z</time>
      </trkpt>
      <trkpt lat="43.29184833" lon="-4.42226833">
        <ele>413.0</ele>
        <time>2018-05-19T08:25:41.859Z</time>
      </trkpt>
      <trkpt lat="43.29184833" lon="-4.42226833">
        <ele>413.0</ele>
        <time>2018-05-19T08:25:42.871Z</time>
      </trkpt>
      <trkpt lat="43.29173333" lon="-4.42220833">
        <ele>411.0</ele>
        <time>2018-05-19T08:25:43.859Z</time>
      </trkpt>
      <trkpt lat="43.29173333" lon="-4.42220833">
        <ele>411.0</ele>
        <time>2018-05-19T08:25:44.856Z</time>
      </trkpt>
      <trkpt lat="43.29160667" lon="-4.42217833">
        <ele>409.0</ele>
        <time>2018-05-19T08:25:45.875Z</time>
      </trkpt>
      <trkpt lat="43.29154167" lon="-4.422185">
        <ele>409.0</ele>
        <time>2018-05-19T08:25:46.865Z</time>
      </trkpt>
      <trkpt lat="43.29147833" lon="-4.42220833">
        <ele>408.0</ele>
        <time>2018-05-19T08:25:47.861Z</time>
      </trkpt>
      <trkpt lat="43.29147833" lon="-4.42220833">
        <ele>408.0</ele>
        <time>2018-05-19T08:25:48.854Z</time>
      </trkpt>
      <trkpt lat="43.29136833" lon="-4.42229667">
        <ele>406.0</ele>
        <time>2018-05-19T08:25:49.860Z</time>
      </trkpt>
      <trkpt lat="43.29136833" lon="-4.42229667">
        <ele>406.0</ele>
        <time>2018-05-19T08:25:50.854Z</time>
      </trkpt>
      <trkpt lat="43.291295" lon="-4.422405">
        <ele>405.0</ele>
        <time>2018-05-19T08:25:51.858Z</time>
      </trkpt>
      <trkpt lat="43.29125833" lon="-4.422445">
        <ele>405.0</ele>
        <time>2018-05-19T08:25:52.858Z</time>
      </trkpt>
      <trkpt lat="43.29122167" lon="-4.42246167">
        <ele>404.0</ele>
        <time>2018-05-19T08:25:53.860Z</time>
      </trkpt>
      <trkpt lat="43.29122167" lon="-4.42246167">
        <ele>404.0</ele>
        <time>2018-05-19T08:25:54.856Z</time>
      </trkpt>
      <trkpt lat="43.29113" lon="-4.422505">
        <ele>403.0</ele>
        <time>2018-05-19T08:25:55.856Z</time>
      </trkpt>
      <trkpt lat="43.29113" lon="-4.422505">
        <ele>403.0</ele>
        <time>2018-05-19T08:25:56.855Z</time>
      </trkpt>
      <trkpt lat="43.29103833" lon="-4.42263">
        <ele>402.0</ele>
        <time>2018-05-19T08:25:57.858Z</time>
      </trkpt>
      <trkpt lat="43.29103833" lon="-4.42263">
        <ele>402.0</ele>
        <time>2018-05-19T08:25:58.851Z</time>
      </trkpt>
      <trkpt lat="43.29097833" lon="-4.42279">
        <ele>401.0</ele>
        <time>2018-05-19T08:25:59.876Z</time>
      </trkpt>
      <trkpt lat="43.29095667" lon="-4.42287333">
        <ele>400.0</ele>
        <time>2018-05-19T08:26:00.865Z</time>
      </trkpt>
      <trkpt lat="43.29095667" lon="-4.42287333">
        <ele>400.0</ele>
        <time>2018-05-19T08:26:01.857Z</time>
      </trkpt>
      <trkpt lat="43.29091667" lon="-4.42302">
        <ele>398.0</ele>
        <time>2018-05-19T08:26:02.855Z</time>
      </trkpt>
      <trkpt lat="43.29091667" lon="-4.42302">
        <ele>398.0</ele>
        <time>2018-05-19T08:26:03.856Z</time>
      </trkpt>
      <trkpt lat="43.290855" lon="-4.42315333">
        <ele>397.0</ele>
        <time>2018-05-19T08:26:04.858Z</time>
      </trkpt>
      <trkpt lat="43.29082" lon="-4.42320833">
        <ele>396.0</ele>
        <time>2018-05-19T08:26:05.844Z</time>
      </trkpt>
      <trkpt lat="43.29082" lon="-4.42320833">
        <ele>396.0</ele>
        <time>2018-05-19T08:26:06.869Z</time>
      </trkpt>
      <trkpt lat="43.29073333" lon="-4.423275">
        <ele>395.0</ele>
        <time>2018-05-19T08:26:07.860Z</time>
      </trkpt>
      <trkpt lat="43.29073333" lon="-4.423275">
        <ele>395.0</ele>
        <time>2018-05-19T08:26:08.853Z</time>
      </trkpt>
      <trkpt lat="43.29063" lon="-4.42333167">
        <ele>394.0</ele>
        <time>2018-05-19T08:26:09.875Z</time>
      </trkpt>
      <trkpt lat="43.29063" lon="-4.42333167">
        <ele>394.0</ele>
        <time>2018-05-19T08:26:10.867Z</time>
      </trkpt>
      <trkpt lat="43.29053833" lon="-4.42343333">
        <ele>393.0</ele>
        <time>2018-05-19T08:26:11.861Z</time>
      </trkpt>
      <trkpt lat="43.29053833" lon="-4.42343333">
        <ele>393.0</ele>
        <time>2018-05-19T08:26:12.876Z</time>
      </trkpt>
      <trkpt lat="43.29046167" lon="-4.42356">
        <ele>392.0</ele>
        <time>2018-05-19T08:26:13.859Z</time>
      </trkpt>
      <trkpt lat="43.29046167" lon="-4.42356">
        <ele>392.0</ele>
        <time>2018-05-19T08:26:14.856Z</time>
      </trkpt>
      <trkpt lat="43.29039833" lon="-4.423675">
        <ele>390.0</ele>
        <time>2018-05-19T08:26:15.858Z</time>
      </trkpt>
      <trkpt lat="43.29036833" lon="-4.42372833">
        <ele>390.0</ele>
        <time>2018-05-19T08:26:16.859Z</time>
      </trkpt>
      <trkpt lat="43.29033667" lon="-4.423785">
        <ele>389.0</ele>
        <time>2018-05-19T08:26:17.857Z</time>
      </trkpt>
      <trkpt lat="43.29033667" lon="-4.423785">
        <ele>389.0</ele>
        <time>2018-05-19T08:26:18.849Z</time>
      </trkpt>
      <trkpt lat="43.29024333" lon="-4.42387">
        <ele>388.0</ele>
        <time>2018-05-19T08:26:19.875Z</time>
      </trkpt>
      <trkpt lat="43.29024333" lon="-4.42387">
        <ele>388.0</ele>
        <time>2018-05-19T08:26:20.871Z</time>
      </trkpt>
      <trkpt lat="43.29012333" lon="-4.42392333">
        <ele>387.0</ele>
        <time>2018-05-19T08:26:21.858Z</time>
      </trkpt>
      <trkpt lat="43.29012333" lon="-4.42392333">
        <ele>387.0</ele>
        <time>2018-05-19T08:26:22.856Z</time>
      </trkpt>
      <trkpt lat="43.28999667" lon="-4.42392833">
        <ele>385.0</ele>
        <time>2018-05-19T08:26:23.874Z</time>
      </trkpt>
      <trkpt lat="43.28999667" lon="-4.42392833">
        <ele>385.0</ele>
        <time>2018-05-19T08:26:24.857Z</time>
      </trkpt>
      <trkpt lat="43.28987167" lon="-4.423965">
        <ele>384.0</ele>
        <time>2018-05-19T08:26:25.880Z</time>
      </trkpt>
      <trkpt lat="43.28987167" lon="-4.423965">
        <ele>384.0</ele>
        <time>2018-05-19T08:26:26.867Z</time>
      </trkpt>
      <trkpt lat="43.28975167" lon="-4.42405">
        <ele>383.0</ele>
        <time>2018-05-19T08:26:27.856Z</time>
      </trkpt>
      <trkpt lat="43.28975167" lon="-4.42405">
        <ele>383.0</ele>
        <time>2018-05-19T08:26:28.851Z</time>
      </trkpt>
      <trkpt lat="43.28963" lon="-4.42415">
        <ele>382.0</ele>
        <time>2018-05-19T08:26:29.876Z</time>
      </trkpt>
      <trkpt lat="43.28963" lon="-4.42415">
        <ele>382.0</ele>
        <time>2018-05-19T08:26:30.863Z</time>
      </trkpt>
      <trkpt lat="43.28953833" lon="-4.424285">
        <ele>381.0</ele>
        <time>2018-05-19T08:26:31.859Z</time>
      </trkpt>
      <trkpt lat="43.28953833" lon="-4.424285">
        <ele>381.0</ele>
        <time>2018-05-19T08:26:32.853Z</time>
      </trkpt>
      <trkpt lat="43.28948333" lon="-4.424485">
        <ele>380.0</ele>
        <time>2018-05-19T08:26:33.859Z</time>
      </trkpt>
      <trkpt lat="43.28948333" lon="-4.424485">
        <ele>380.0</ele>
        <time>2018-05-19T08:26:34.855Z</time>
      </trkpt>
      <trkpt lat="43.28942167" lon="-4.42472667">
        <ele>378.0</ele>
        <time>2018-05-19T08:26:35.856Z</time>
      </trkpt>
      <trkpt lat="43.28942167" lon="-4.42472667">
        <ele>378.0</ele>
        <time>2018-05-19T08:26:36.855Z</time>
      </trkpt>
      <trkpt lat="43.28936167" lon="-4.42493333">
        <ele>376.0</ele>
        <time>2018-05-19T08:26:37.859Z</time>
      </trkpt>
      <trkpt lat="43.28936167" lon="-4.42493333">
        <ele>376.0</ele>
        <time>2018-05-19T08:26:38.849Z</time>
      </trkpt>
      <trkpt lat="43.28931667" lon="-4.42507833">
        <ele>374.0</ele>
        <time>2018-05-19T08:26:39.874Z</time>
      </trkpt>
      <trkpt lat="43.28931667" lon="-4.42507833">
        <ele>374.0</ele>
        <time>2018-05-19T08:26:40.860Z</time>
      </trkpt>
      <trkpt lat="43.28928167" lon="-4.42522333">
        <ele>371.0</ele>
        <time>2018-05-19T08:26:41.868Z</time>
      </trkpt>
      <trkpt lat="43.28928167" lon="-4.42522333">
        <ele>371.0</ele>
        <time>2018-05-19T08:26:42.853Z</time>
      </trkpt>
      <trkpt lat="43.28920833" lon="-4.42532833">
        <ele>369.0</ele>
        <time>2018-05-19T08:26:43.859Z</time>
      </trkpt>
      <trkpt lat="43.28920833" lon="-4.42532833">
        <ele>369.0</ele>
        <time>2018-05-19T08:26:44.856Z</time>
      </trkpt>
      <trkpt lat="43.28914167" lon="-4.42541667">
        <ele>367.0</ele>
        <time>2018-05-19T08:26:45.849Z</time>
      </trkpt>
      <trkpt lat="43.289105" lon="-4.42546667">
        <ele>366.0</ele>
        <time>2018-05-19T08:26:46.853Z</time>
      </trkpt>
      <trkpt lat="43.289065" lon="-4.425525">
        <ele>366.0</ele>
        <time>2018-05-19T08:26:47.860Z</time>
      </trkpt>
      <trkpt lat="43.289065" lon="-4.425525">
        <ele>366.0</ele>
        <time>2018-05-19T08:26:48.850Z</time>
      </trkpt>
      <trkpt lat="43.28898333" lon="-4.42567167">
        <ele>364.0</ele>
        <time>2018-05-19T08:26:49.875Z</time>
      </trkpt>
      <trkpt lat="43.28898333" lon="-4.42567167">
        <ele>364.0</ele>
        <time>2018-05-19T08:26:50.869Z</time>
      </trkpt>
      <trkpt lat="43.28891667" lon="-4.42585">
        <ele>361.0</ele>
        <time>2018-05-19T08:26:51.857Z</time>
      </trkpt>
      <trkpt lat="43.28891667" lon="-4.42585">
        <ele>361.0</ele>
        <time>2018-05-19T08:26:52.856Z</time>
      </trkpt>
      <trkpt lat="43.28887333" lon="-4.42599833">
        <ele>360.0</ele>
        <time>2018-05-19T08:26:53.859Z</time>
      </trkpt>
      <trkpt lat="43.28887333" lon="-4.42599833">
        <ele>360.0</ele>
        <time>2018-05-19T08:26:54.855Z</time>
      </trkpt>
      <trkpt lat="43.28883667" lon="-4.42612167">
        <ele>358.0</ele>
        <time>2018-05-19T08:26:55.859Z</time>
      </trkpt>
      <trkpt lat="43.28883667" lon="-4.42612167">
        <ele>358.0</ele>
        <time>2018-05-19T08:26:56.855Z</time>
      </trkpt>
      <trkpt lat="43.28878667" lon="-4.42620167">
        <ele>357.0</ele>
        <time>2018-05-19T08:26:57.855Z</time>
      </trkpt>
      <trkpt lat="43.28878667" lon="-4.42620167">
        <ele>357.0</ele>
        <time>2018-05-19T08:26:58.853Z</time>
      </trkpt>
      <trkpt lat="43.28873333" lon="-4.426295">
        <ele>355.0</ele>
        <time>2018-05-19T08:26:59.859Z</time>
      </trkpt>
      <trkpt lat="43.28873333" lon="-4.426295">
        <ele>355.0</ele>
        <time>2018-05-19T08:27:00.855Z</time>
      </trkpt>
      <trkpt lat="43.28863833" lon="-4.426395">
        <ele>353.0</ele>
        <time>2018-05-19T08:27:01.859Z</time>
      </trkpt>
      <trkpt lat="43.28863833" lon="-4.426395">
        <ele>353.0</ele>
        <time>2018-05-19T08:27:02.853Z</time>
      </trkpt>
      <trkpt lat="43.28851" lon="-4.42649333">
        <ele>351.0</ele>
        <time>2018-05-19T08:27:03.857Z</time>
      </trkpt>
      <trkpt lat="43.28851" lon="-4.42649333">
        <ele>351.0</ele>
        <time>2018-05-19T08:27:04.855Z</time>
      </trkpt>
      <trkpt lat="43.28836333" lon="-4.42655833">
        <ele>348.0</ele>
        <time>2018-05-19T08:27:05.851Z</time>
      </trkpt>
      <trkpt lat="43.28836333" lon="-4.42655833">
        <ele>348.0</ele>
        <time>2018-05-19T08:27:06.855Z</time>
      </trkpt>
      <trkpt lat="43.28820167" lon="-4.42657167">
        <ele>347.0</ele>
        <time>2018-05-19T08:27:07.858Z</time>
      </trkpt>
      <trkpt lat="43.28820167" lon="-4.42657167">
        <ele>347.0</ele>
        <time>2018-05-19T08:27:08.853Z</time>
      </trkpt>
      <trkpt lat="43.28805333" lon="-4.42662167">
        <ele>344.0</ele>
        <time>2018-05-19T08:27:09.855Z</time>
      </trkpt>
      <trkpt lat="43.28805333" lon="-4.42662167">
        <ele>344.0</ele>
        <time>2018-05-19T08:27:10.880Z</time>
      </trkpt>
      <trkpt lat="43.28796167" lon="-4.426745">
        <ele>342.0</ele>
        <time>2018-05-19T08:27:11.866Z</time>
      </trkpt>
      <trkpt lat="43.28796167" lon="-4.426745">
        <ele>342.0</ele>
        <time>2018-05-19T08:27:12.855Z</time>
      </trkpt>
      <trkpt lat="43.28788833" lon="-4.42686833">
        <ele>340.0</ele>
        <time>2018-05-19T08:27:13.872Z</time>
      </trkpt>
      <trkpt lat="43.28788833" lon="-4.42686833">
        <ele>340.0</ele>
        <time>2018-05-19T08:27:14.855Z</time>
      </trkpt>
      <trkpt lat="43.28779" lon="-4.426965">
        <ele>338.0</ele>
        <time>2018-05-19T08:27:15.871Z</time>
      </trkpt>
      <trkpt lat="43.28779" lon="-4.426965">
        <ele>338.0</ele>
        <time>2018-05-19T08:27:16.853Z</time>
      </trkpt>
      <trkpt lat="43.28767833" lon="-4.42694833">
        <ele>337.0</ele>
        <time>2018-05-19T08:27:17.861Z</time>
      </trkpt>
      <trkpt lat="43.28767833" lon="-4.42694833">
        <ele>337.0</ele>
        <time>2018-05-19T08:27:18.850Z</time>
      </trkpt>
      <trkpt lat="43.28758" lon="-4.42692">
        <ele>336.0</ele>
        <time>2018-05-19T08:27:19.859Z</time>
      </trkpt>
      <trkpt lat="43.28758" lon="-4.42692">
        <ele>336.0</ele>
        <time>2018-05-19T08:27:20.857Z</time>
      </trkpt>
      <trkpt lat="43.28750167" lon="-4.42691167">
        <ele>334.0</ele>
        <time>2018-05-19T08:27:21.858Z</time>
      </trkpt>
      <trkpt lat="43.28746667" lon="-4.42692333">
        <ele>333.0</ele>
        <time>2018-05-19T08:27:22.861Z</time>
      </trkpt>
      <trkpt lat="43.28746667" lon="-4.42692333">
        <ele>333.0</ele>
        <time>2018-05-19T08:27:23.855Z</time>
      </trkpt>
      <trkpt lat="43.28739667" lon="-4.42696667">
        <ele>332.0</ele>
        <time>2018-05-19T08:27:24.858Z</time>
      </trkpt>
      <trkpt lat="43.28735667" lon="-4.42699">
        <ele>331.0</ele>
        <time>2018-05-19T08:27:25.859Z</time>
      </trkpt>
      <trkpt lat="43.28735667" lon="-4.42699">
        <ele>331.0</ele>
        <time>2018-05-19T08:27:26.854Z</time>
      </trkpt>
      <trkpt lat="43.28727833" lon="-4.427025">
        <ele>329.0</ele>
        <time>2018-05-19T08:27:27.857Z</time>
      </trkpt>
      <trkpt lat="43.28727833" lon="-4.427025">
        <ele>329.0</ele>
        <time>2018-05-19T08:27:28.850Z</time>
      </trkpt>
      <trkpt lat="43.28721333" lon="-4.42704">
        <ele>327.0</ele>
        <time>2018-05-19T08:27:29.876Z</time>
      </trkpt>
      <trkpt lat="43.28721333" lon="-4.42704">
        <ele>327.0</ele>
        <time>2018-05-19T08:27:30.862Z</time>
      </trkpt>
      <trkpt lat="43.28715333" lon="-4.42706833">
        <ele>325.0</ele>
        <time>2018-05-19T08:27:31.859Z</time>
      </trkpt>
      <trkpt lat="43.28715333" lon="-4.42706833">
        <ele>325.0</ele>
        <time>2018-05-19T08:27:32.856Z</time>
      </trkpt>
      <trkpt lat="43.28709" lon="-4.42707167">
        <ele>323.0</ele>
        <time>2018-05-19T08:27:33.857Z</time>
      </trkpt>
      <trkpt lat="43.28704667" lon="-4.427065">
        <ele>323.0</ele>
        <time>2018-05-19T08:27:34.860Z</time>
      </trkpt>
      <trkpt lat="43.28704667" lon="-4.427065">
        <ele>323.0</ele>
        <time>2018-05-19T08:27:35.855Z</time>
      </trkpt>
      <trkpt lat="43.28694833" lon="-4.427065">
        <ele>321.0</ele>
        <time>2018-05-19T08:27:36.858Z</time>
      </trkpt>
      <trkpt lat="43.28688833" lon="-4.42707833">
        <ele>321.0</ele>
        <time>2018-05-19T08:27:37.859Z</time>
      </trkpt>
      <trkpt lat="43.28688833" lon="-4.42707833">
        <ele>321.0</ele>
        <time>2018-05-19T08:27:38.853Z</time>
      </trkpt>
      <trkpt lat="43.28676833" lon="-4.42716667">
        <ele>319.0</ele>
        <time>2018-05-19T08:27:39.857Z</time>
      </trkpt>
      <trkpt lat="43.28676833" lon="-4.42716667">
        <ele>319.0</ele>
        <time>2018-05-19T08:27:40.879Z</time>
      </trkpt>
      <trkpt lat="43.28666167" lon="-4.427265">
        <ele>318.0</ele>
        <time>2018-05-19T08:27:41.883Z</time>
      </trkpt>
      <trkpt lat="43.28666167" lon="-4.427265">
        <ele>318.0</ele>
        <time>2018-05-19T08:27:42.863Z</time>
      </trkpt>
      <trkpt lat="43.286585" lon="-4.42738">
        <ele>316.0</ele>
        <time>2018-05-19T08:27:43.860Z</time>
      </trkpt>
      <trkpt lat="43.286585" lon="-4.42738">
        <ele>316.0</ele>
        <time>2018-05-19T08:27:44.855Z</time>
      </trkpt>
      <trkpt lat="43.28651" lon="-4.42746667">
        <ele>315.0</ele>
        <time>2018-05-19T08:27:45.844Z</time>
      </trkpt>
      <trkpt lat="43.28651" lon="-4.42746667">
        <ele>315.0</ele>
        <time>2018-05-19T08:27:46.861Z</time>
      </trkpt>
      <trkpt lat="43.286445" lon="-4.42752333">
        <ele>313.0</ele>
        <time>2018-05-19T08:27:47.861Z</time>
      </trkpt>
      <trkpt lat="43.286445" lon="-4.42752333">
        <ele>313.0</ele>
        <time>2018-05-19T08:27:48.849Z</time>
      </trkpt>
      <trkpt lat="43.286395" lon="-4.42756667">
        <ele>312.0</ele>
        <time>2018-05-19T08:27:49.875Z</time>
      </trkpt>
      <trkpt lat="43.286395" lon="-4.42756667">
        <ele>312.0</ele>
        <time>2018-05-19T08:27:50.863Z</time>
      </trkpt>
      <trkpt lat="43.286345" lon="-4.427615">
        <ele>311.0</ele>
        <time>2018-05-19T08:27:51.866Z</time>
      </trkpt>
      <trkpt lat="43.28631" lon="-4.42765833">
        <ele>310.0</ele>
        <time>2018-05-19T08:27:52.856Z</time>
      </trkpt>
      <trkpt lat="43.28626667" lon="-4.42771333">
        <ele>310.0</ele>
        <time>2018-05-19T08:27:53.859Z</time>
      </trkpt>
      <trkpt lat="43.28626667" lon="-4.42771333">
        <ele>310.0</ele>
        <time>2018-05-19T08:27:54.855Z</time>
      </trkpt>
      <trkpt lat="43.28617333" lon="-4.42781833">
        <ele>307.0</ele>
        <time>2018-05-19T08:27:55.859Z</time>
      </trkpt>
      <trkpt lat="43.28617333" lon="-4.42781833">
        <ele>307.0</ele>
        <time>2018-05-19T08:27:56.853Z</time>
      </trkpt>
      <trkpt lat="43.286085" lon="-4.42795833">
        <ele>306.0</ele>
        <time>2018-05-19T08:27:57.857Z</time>
      </trkpt>
      <trkpt lat="43.286085" lon="-4.42795833">
        <ele>306.0</ele>
        <time>2018-05-19T08:27:58.848Z</time>
      </trkpt>
      <trkpt lat="43.28602333" lon="-4.4281">
        <ele>304.0</ele>
        <time>2018-05-19T08:27:59.870Z</time>
      </trkpt>
      <trkpt lat="43.28602333" lon="-4.4281">
        <ele>304.0</ele>
        <time>2018-05-19T08:28:00.852Z</time>
      </trkpt>
      <trkpt lat="43.28596833" lon="-4.42824">
        <ele>303.0</ele>
        <time>2018-05-19T08:28:01.857Z</time>
      </trkpt>
      <trkpt lat="43.28596833" lon="-4.42824">
        <ele>303.0</ele>
        <time>2018-05-19T08:28:02.854Z</time>
      </trkpt>
      <trkpt lat="43.28592833" lon="-4.42838167">
        <ele>301.0</ele>
        <time>2018-05-19T08:28:03.856Z</time>
      </trkpt>
      <trkpt lat="43.28592833" lon="-4.42838167">
        <ele>301.0</ele>
        <time>2018-05-19T08:28:04.853Z</time>
      </trkpt>
      <trkpt lat="43.28590167" lon="-4.42853">
        <ele>299.0</ele>
        <time>2018-05-19T08:28:05.852Z</time>
      </trkpt>
      <trkpt lat="43.28590167" lon="-4.42853">
        <ele>299.0</ele>
        <time>2018-05-19T08:28:06.852Z</time>
      </trkpt>
      <trkpt lat="43.28589167" lon="-4.42868167">
        <ele>297.0</ele>
        <time>2018-05-19T08:28:07.858Z</time>
      </trkpt>
      <trkpt lat="43.28589167" lon="-4.42868167">
        <ele>297.0</ele>
        <time>2018-05-19T08:28:08.848Z</time>
      </trkpt>
      <trkpt lat="43.28588833" lon="-4.42884833">
        <ele>296.0</ele>
        <time>2018-05-19T08:28:09.870Z</time>
      </trkpt>
      <trkpt lat="43.28588833" lon="-4.42884833">
        <ele>296.0</ele>
        <time>2018-05-19T08:28:10.855Z</time>
      </trkpt>
      <trkpt lat="43.28586833" lon="-4.42901">
        <ele>294.0</ele>
        <time>2018-05-19T08:28:11.856Z</time>
      </trkpt>
      <trkpt lat="43.28586833" lon="-4.42901">
        <ele>294.0</ele>
        <time>2018-05-19T08:28:12.854Z</time>
      </trkpt>
      <trkpt lat="43.285825" lon="-4.42918167">
        <ele>292.0</ele>
        <time>2018-05-19T08:28:13.881Z</time>
      </trkpt>
      <trkpt lat="43.28580833" lon="-4.42926">
        <ele>291.0</ele>
        <time>2018-05-19T08:28:14.874Z</time>
      </trkpt>
      <trkpt lat="43.28580833" lon="-4.42926">
        <ele>291.0</ele>
        <time>2018-05-19T08:28:15.862Z</time>
      </trkpt>
      <trkpt lat="43.28579167" lon="-4.42943333">
        <ele>289.0</ele>
        <time>2018-05-19T08:28:16.857Z</time>
      </trkpt>
      <trkpt lat="43.28579167" lon="-4.42943333">
        <ele>289.0</ele>
        <time>2018-05-19T08:28:17.855Z</time>
      </trkpt>
      <trkpt lat="43.28578333" lon="-4.42963167">
        <ele>288.0</ele>
        <time>2018-05-19T08:28:18.849Z</time>
      </trkpt>
      <trkpt lat="43.285785" lon="-4.42973833">
        <ele>287.0</ele>
        <time>2018-05-19T08:28:19.859Z</time>
      </trkpt>
      <trkpt lat="43.285785" lon="-4.42973833">
        <ele>287.0</ele>
        <time>2018-05-19T08:28:20.853Z</time>
      </trkpt>
      <trkpt lat="43.28579" lon="-4.429945">
        <ele>285.0</ele>
        <time>2018-05-19T08:28:21.856Z</time>
      </trkpt>
      <trkpt lat="43.28579" lon="-4.429945">
        <ele>285.0</ele>
        <time>2018-05-19T08:28:22.855Z</time>
      </trkpt>
      <trkpt lat="43.28580333" lon="-4.43014333">
        <ele>283.0</ele>
        <time>2018-05-19T08:28:23.867Z</time>
      </trkpt>
      <trkpt lat="43.28580333" lon="-4.43014333">
        <ele>283.0</ele>
        <time>2018-05-19T08:28:24.853Z</time>
      </trkpt>
      <trkpt lat="43.28581833" lon="-4.43033167">
        <ele>281.0</ele>
        <time>2018-05-19T08:28:25.857Z</time>
      </trkpt>
      <trkpt lat="43.28581833" lon="-4.43033167">
        <ele>281.0</ele>
        <time>2018-05-19T08:28:26.854Z</time>
      </trkpt>
      <trkpt lat="43.28584" lon="-4.43052333">
        <ele>278.0</ele>
        <time>2018-05-19T08:28:27.857Z</time>
      </trkpt>
      <trkpt lat="43.28584" lon="-4.43052333">
        <ele>278.0</ele>
        <time>2018-05-19T08:28:28.845Z</time>
      </trkpt>
      <trkpt lat="43.28585167" lon="-4.43072333">
        <ele>276.0</ele>
        <time>2018-05-19T08:28:29.868Z</time>
      </trkpt>
      <trkpt lat="43.28585167" lon="-4.43072333">
        <ele>276.0</ele>
        <time>2018-05-19T08:28:30.854Z</time>
      </trkpt>
      <trkpt lat="43.28585333" lon="-4.43091">
        <ele>274.0</ele>
        <time>2018-05-19T08:28:31.858Z</time>
      </trkpt>
      <trkpt lat="43.28585333" lon="-4.43091">
        <ele>274.0</ele>
        <time>2018-05-19T08:28:32.855Z</time>
      </trkpt>
      <trkpt lat="43.28583" lon="-4.43108667">
        <ele>272.0</ele>
        <time>2018-05-19T08:28:33.857Z</time>
      </trkpt>
      <trkpt lat="43.28583" lon="-4.43108667">
        <ele>272.0</ele>
        <time>2018-05-19T08:28:34.854Z</time>
      </trkpt>
      <trkpt lat="43.28579167" lon="-4.43125">
        <ele>270.0</ele>
        <time>2018-05-19T08:28:35.880Z</time>
      </trkpt>
      <trkpt lat="43.28579167" lon="-4.43125">
        <ele>270.0</ele>
        <time>2018-05-19T08:28:36.863Z</time>
      </trkpt>
      <trkpt lat="43.28578167" lon="-4.431395">
        <ele>268.0</ele>
        <time>2018-05-19T08:28:37.858Z</time>
      </trkpt>
      <trkpt lat="43.28578167" lon="-4.431395">
        <ele>268.0</ele>
        <time>2018-05-19T08:28:38.849Z</time>
      </trkpt>
      <trkpt lat="43.28580833" lon="-4.43156667">
        <ele>266.0</ele>
        <time>2018-05-19T08:28:39.874Z</time>
      </trkpt>
      <trkpt lat="43.28580833" lon="-4.43156667">
        <ele>266.0</ele>
        <time>2018-05-19T08:28:40.863Z</time>
      </trkpt>
      <trkpt lat="43.28585" lon="-4.43172667">
        <ele>264.0</ele>
        <time>2018-05-19T08:28:41.857Z</time>
      </trkpt>
      <trkpt lat="43.28585" lon="-4.43172667">
        <ele>264.0</ele>
        <time>2018-05-19T08:28:42.852Z</time>
      </trkpt>
      <trkpt lat="43.28585167" lon="-4.431905">
        <ele>262.0</ele>
        <time>2018-05-19T08:28:43.857Z</time>
      </trkpt>
      <trkpt lat="43.28585167" lon="-4.431905">
        <ele>262.0</ele>
        <time>2018-05-19T08:28:44.855Z</time>
      </trkpt>
      <trkpt lat="43.285855" lon="-4.43209333">
        <ele>261.0</ele>
        <time>2018-05-19T08:28:45.848Z</time>
      </trkpt>
      <trkpt lat="43.28586333" lon="-4.43219">
        <ele>260.0</ele>
        <time>2018-05-19T08:28:46.858Z</time>
      </trkpt>
      <trkpt lat="43.28586667" lon="-4.432285">
        <ele>259.0</ele>
        <time>2018-05-19T08:28:47.865Z</time>
      </trkpt>
      <trkpt lat="43.28586667" lon="-4.432285">
        <ele>259.0</ele>
        <time>2018-05-19T08:28:48.853Z</time>
      </trkpt>
      <trkpt lat="43.28584333" lon="-4.43246167">
        <ele>256.0</ele>
        <time>2018-05-19T08:28:49.858Z</time>
      </trkpt>
      <trkpt lat="43.28584333" lon="-4.43246167">
        <ele>256.0</ele>
        <time>2018-05-19T08:28:50.863Z</time>
      </trkpt>
      <trkpt lat="43.28575833" lon="-4.43254">
        <ele>254.0</ele>
        <time>2018-05-19T08:28:51.856Z</time>
      </trkpt>
      <trkpt lat="43.28575833" lon="-4.43254">
        <ele>254.0</ele>
        <time>2018-05-19T08:28:52.855Z</time>
      </trkpt>
      <trkpt lat="43.28565" lon="-4.43245">
        <ele>252.0</ele>
        <time>2018-05-19T08:28:53.858Z</time>
      </trkpt>
      <trkpt lat="43.28565" lon="-4.43245">
        <ele>252.0</ele>
        <time>2018-05-19T08:28:54.852Z</time>
      </trkpt>
      <trkpt lat="43.28557" lon="-4.43231667">
        <ele>250.0</ele>
        <time>2018-05-19T08:28:55.878Z</time>
      </trkpt>
      <trkpt lat="43.28557" lon="-4.43231667">
        <ele>250.0</ele>
        <time>2018-05-19T08:28:56.877Z</time>
      </trkpt>
      <trkpt lat="43.28547667" lon="-4.432175">
        <ele>248.0</ele>
        <time>2018-05-19T08:28:57.863Z</time>
      </trkpt>
      <trkpt lat="43.28542" lon="-4.432095">
        <ele>247.0</ele>
        <time>2018-05-19T08:28:58.861Z</time>
      </trkpt>
      <trkpt lat="43.28535833" lon="-4.432015">
        <ele>246.0</ele>
        <time>2018-05-19T08:28:59.858Z</time>
      </trkpt>
      <trkpt lat="43.28535833" lon="-4.432015">
        <ele>246.0</ele>
        <time>2018-05-19T08:29:00.854Z</time>
      </trkpt>
      <trkpt lat="43.28523667" lon="-4.431875">
        <ele>244.0</ele>
        <time>2018-05-19T08:29:01.857Z</time>
      </trkpt>
      <trkpt lat="43.28523667" lon="-4.431875">
        <ele>244.0</ele>
        <time>2018-05-19T08:29:02.854Z</time>
      </trkpt>
      <trkpt lat="43.28515333" lon="-4.43168">
        <ele>242.0</ele>
        <time>2018-05-19T08:29:03.857Z</time>
      </trkpt>
      <trkpt lat="43.28515333" lon="-4.43168">
        <ele>242.0</ele>
        <time>2018-05-19T08:29:04.854Z</time>
      </trkpt>
      <trkpt lat="43.28506833" lon="-4.431435">
        <ele>240.0</ele>
        <time>2018-05-19T08:29:05.858Z</time>
      </trkpt>
      <trkpt lat="43.28506833" lon="-4.431435">
        <ele>240.0</ele>
        <time>2018-05-19T08:29:06.855Z</time>
      </trkpt>
      <trkpt lat="43.28498667" lon="-4.43118833">
        <ele>238.0</ele>
        <time>2018-05-19T08:29:07.857Z</time>
      </trkpt>
      <trkpt lat="43.28498667" lon="-4.43118833">
        <ele>238.0</ele>
        <time>2018-05-19T08:29:08.855Z</time>
      </trkpt>
      <trkpt lat="43.28490833" lon="-4.43096333">
        <ele>235.0</ele>
        <time>2018-05-19T08:29:09.856Z</time>
      </trkpt>
      <trkpt lat="43.28490833" lon="-4.43096333">
        <ele>235.0</ele>
        <time>2018-05-19T08:29:10.854Z</time>
      </trkpt>
      <trkpt lat="43.28484" lon="-4.43074833">
        <ele>234.0</ele>
        <time>2018-05-19T08:29:11.855Z</time>
      </trkpt>
      <trkpt lat="43.28484" lon="-4.43074833">
        <ele>234.0</ele>
        <time>2018-05-19T08:29:12.854Z</time>
      </trkpt>
      <trkpt lat="43.284815" lon="-4.43054667">
        <ele>232.0</ele>
        <time>2018-05-19T08:29:13.877Z</time>
      </trkpt>
      <trkpt lat="43.284815" lon="-4.43054667">
        <ele>232.0</ele>
        <time>2018-05-19T08:29:14.867Z</time>
      </trkpt>
      <trkpt lat="43.28477" lon="-4.43040833">
        <ele>230.0</ele>
        <time>2018-05-19T08:29:15.857Z</time>
      </trkpt>
      <trkpt lat="43.28477" lon="-4.43040833">
        <ele>230.0</ele>
        <time>2018-05-19T08:29:16.855Z</time>
      </trkpt>
      <trkpt lat="43.28468833" lon="-4.430395">
        <ele>227.0</ele>
        <time>2018-05-19T08:29:17.859Z</time>
      </trkpt>
      <trkpt lat="43.284645" lon="-4.43043833">
        <ele>225.0</ele>
        <time>2018-05-19T08:29:18.868Z</time>
      </trkpt>
      <trkpt lat="43.284645" lon="-4.43043833">
        <ele>225.0</ele>
        <time>2018-05-19T08:29:19.853Z</time>
      </trkpt>
      <trkpt lat="43.284545" lon="-4.43058667">
        <ele>222.0</ele>
        <time>2018-05-19T08:29:20.881Z</time>
      </trkpt>
      <trkpt lat="43.284545" lon="-4.43058667">
        <ele>222.0</ele>
        <time>2018-05-19T08:29:21.862Z</time>
      </trkpt>
      <trkpt lat="43.2844" lon="-4.43068167">
        <ele>219.0</ele>
        <time>2018-05-19T08:29:22.857Z</time>
      </trkpt>
      <trkpt lat="43.28432833" lon="-4.43069833">
        <ele>218.0</ele>
        <time>2018-05-19T08:29:23.859Z</time>
      </trkpt>
      <trkpt lat="43.28432833" lon="-4.43069833">
        <ele>218.0</ele>
        <time>2018-05-19T08:29:24.854Z</time>
      </trkpt>
      <trkpt lat="43.2842" lon="-4.430695">
        <ele>215.0</ele>
        <time>2018-05-19T08:29:25.859Z</time>
      </trkpt>
      <trkpt lat="43.28414333" lon="-4.43067167">
        <ele>214.0</ele>
        <time>2018-05-19T08:29:26.857Z</time>
      </trkpt>
      <trkpt lat="43.28414333" lon="-4.43067167">
        <ele>214.0</ele>
        <time>2018-05-19T08:29:27.852Z</time>
      </trkpt>
      <trkpt lat="43.28405167" lon="-4.43055333">
        <ele>213.0</ele>
        <time>2018-05-19T08:29:28.849Z</time>
      </trkpt>
      <trkpt lat="43.284015" lon="-4.430485">
        <ele>212.0</ele>
        <time>2018-05-19T08:29:29.874Z</time>
      </trkpt>
      <trkpt lat="43.284015" lon="-4.430485">
        <ele>212.0</ele>
        <time>2018-05-19T08:29:30.856Z</time>
      </trkpt>
      <trkpt lat="43.28391333" lon="-4.430395">
        <ele>210.0</ele>
        <time>2018-05-19T08:29:31.877Z</time>
      </trkpt>
      <trkpt lat="43.28391333" lon="-4.430395">
        <ele>210.0</ele>
        <time>2018-05-19T08:29:32.862Z</time>
      </trkpt>
      <trkpt lat="43.28377833" lon="-4.43039333">
        <ele>208.0</ele>
        <time>2018-05-19T08:29:33.856Z</time>
      </trkpt>
      <trkpt lat="43.28377833" lon="-4.43039333">
        <ele>208.0</ele>
        <time>2018-05-19T08:29:34.855Z</time>
      </trkpt>
      <trkpt lat="43.28367333" lon="-4.430455">
        <ele>206.0</ele>
        <time>2018-05-19T08:29:35.859Z</time>
      </trkpt>
      <trkpt lat="43.28363667" lon="-4.43052833">
        <ele>204.0</ele>
        <time>2018-05-19T08:29:36.858Z</time>
      </trkpt>
      <trkpt lat="43.28361" lon="-4.43062667">
        <ele>203.0</ele>
        <time>2018-05-19T08:29:37.855Z</time>
      </trkpt>
      <trkpt lat="43.28361" lon="-4.43062667">
        <ele>203.0</ele>
        <time>2018-05-19T08:29:38.848Z</time>
      </trkpt>
      <trkpt lat="43.28354833" lon="-4.43085667">
        <ele>201.0</ele>
        <time>2018-05-19T08:29:39.870Z</time>
      </trkpt>
      <trkpt lat="43.28354833" lon="-4.43085667">
        <ele>201.0</ele>
        <time>2018-05-19T08:29:40.854Z</time>
      </trkpt>
      <trkpt lat="43.28346667" lon="-4.43107">
        <ele>197.0</ele>
        <time>2018-05-19T08:29:41.873Z</time>
      </trkpt>
      <trkpt lat="43.28346667" lon="-4.43107">
        <ele>197.0</ele>
        <time>2018-05-19T08:29:42.855Z</time>
      </trkpt>
      <trkpt lat="43.28338333" lon="-4.43129667">
        <ele>195.0</ele>
        <time>2018-05-19T08:29:43.858Z</time>
      </trkpt>
      <trkpt lat="43.28338333" lon="-4.43129667">
        <ele>195.0</ele>
        <time>2018-05-19T08:29:44.852Z</time>
      </trkpt>
      <trkpt lat="43.28327333" lon="-4.43151167">
        <ele>193.0</ele>
        <time>2018-05-19T08:29:45.851Z</time>
      </trkpt>
      <trkpt lat="43.283235" lon="-4.43162833">
        <ele>192.0</ele>
        <time>2018-05-19T08:29:46.870Z</time>
      </trkpt>
      <trkpt lat="43.28322" lon="-4.43176167">
        <ele>190.0</ele>
        <time>2018-05-19T08:29:47.876Z</time>
      </trkpt>
      <trkpt lat="43.28322" lon="-4.43176167">
        <ele>190.0</ele>
        <time>2018-05-19T08:29:48.871Z</time>
      </trkpt>
      <trkpt lat="43.28318667" lon="-4.43204333">
        <ele>186.0</ele>
        <time>2018-05-19T08:29:49.859Z</time>
      </trkpt>
      <trkpt lat="43.28318667" lon="-4.43204333">
        <ele>186.0</ele>
        <time>2018-05-19T08:29:50.855Z</time>
      </trkpt>
      <trkpt lat="43.28314333" lon="-4.43229333">
        <ele>183.0</ele>
        <time>2018-05-19T08:29:51.857Z</time>
      </trkpt>
      <trkpt lat="43.28314333" lon="-4.43229333">
        <ele>183.0</ele>
        <time>2018-05-19T08:29:52.852Z</time>
      </trkpt>
      <trkpt lat="43.28309833" lon="-4.43249167">
        <ele>180.0</ele>
        <time>2018-05-19T08:29:53.858Z</time>
      </trkpt>
      <trkpt lat="43.28309833" lon="-4.43249167">
        <ele>180.0</ele>
        <time>2018-05-19T08:29:54.848Z</time>
      </trkpt>
      <trkpt lat="43.28305333" lon="-4.43269">
        <ele>179.0</ele>
        <time>2018-05-19T08:29:55.870Z</time>
      </trkpt>
      <trkpt lat="43.28305333" lon="-4.43269">
        <ele>179.0</ele>
        <time>2018-05-19T08:29:56.851Z</time>
      </trkpt>
      <trkpt lat="43.28306667" lon="-4.43290667">
        <ele>176.0</ele>
        <time>2018-05-19T08:29:57.856Z</time>
      </trkpt>
      <trkpt lat="43.28306667" lon="-4.43290667">
        <ele>176.0</ele>
        <time>2018-05-19T08:29:58.851Z</time>
      </trkpt>
      <trkpt lat="43.283105" lon="-4.43312167">
        <ele>174.0</ele>
        <time>2018-05-19T08:29:59.859Z</time>
      </trkpt>
      <trkpt lat="43.283105" lon="-4.43312167">
        <ele>174.0</ele>
        <time>2018-05-19T08:30:00.854Z</time>
      </trkpt>
      <trkpt lat="43.28311667" lon="-4.433375">
        <ele>172.0</ele>
        <time>2018-05-19T08:30:01.854Z</time>
      </trkpt>
      <trkpt lat="43.28311667" lon="-4.433375">
        <ele>172.0</ele>
        <time>2018-05-19T08:30:02.854Z</time>
      </trkpt>
      <trkpt lat="43.28305167" lon="-4.43357">
        <ele>170.0</ele>
        <time>2018-05-19T08:30:03.856Z</time>
      </trkpt>
      <trkpt lat="43.28305167" lon="-4.43357">
        <ele>170.0</ele>
        <time>2018-05-19T08:30:04.858Z</time>
      </trkpt>
      <trkpt lat="43.28291667" lon="-4.43369">
        <ele>169.0</ele>
        <time>2018-05-19T08:30:05.855Z</time>
      </trkpt>
      <trkpt lat="43.282835" lon="-4.43373167">
        <ele>168.0</ele>
        <time>2018-05-19T08:30:06.858Z</time>
      </trkpt>
      <trkpt lat="43.282835" lon="-4.43373167">
        <ele>168.0</ele>
        <time>2018-05-19T08:30:07.852Z</time>
      </trkpt>
      <trkpt lat="43.282675" lon="-4.43378667">
        <ele>166.0</ele>
        <time>2018-05-19T08:30:08.849Z</time>
      </trkpt>
      <trkpt lat="43.282675" lon="-4.43378667">
        <ele>166.0</ele>
        <time>2018-05-19T08:30:09.872Z</time>
      </trkpt>
      <trkpt lat="43.28253333" lon="-4.43380667">
        <ele>165.0</ele>
        <time>2018-05-19T08:30:10.857Z</time>
      </trkpt>
      <trkpt lat="43.28246833" lon="-4.433765">
        <ele>165.0</ele>
        <time>2018-05-19T08:30:11.859Z</time>
      </trkpt>
      <trkpt lat="43.28246833" lon="-4.433765">
        <ele>165.0</ele>
        <time>2018-05-19T08:30:12.854Z</time>
      </trkpt>
      <trkpt lat="43.28239667" lon="-4.43359667">
        <ele>164.0</ele>
        <time>2018-05-19T08:30:13.868Z</time>
      </trkpt>
      <trkpt lat="43.28239667" lon="-4.43359667">
        <ele>164.0</ele>
        <time>2018-05-19T08:30:14.855Z</time>
      </trkpt>
      <trkpt lat="43.28234" lon="-4.433405">
        <ele>164.0</ele>
        <time>2018-05-19T08:30:15.857Z</time>
      </trkpt>
      <trkpt lat="43.28234" lon="-4.433405">
        <ele>164.0</ele>
        <time>2018-05-19T08:30:16.854Z</time>
      </trkpt>
      <trkpt lat="43.28227167" lon="-4.43322333">
        <ele>163.0</ele>
        <time>2018-05-19T08:30:17.856Z</time>
      </trkpt>
      <trkpt lat="43.28227167" lon="-4.43322333">
        <ele>163.0</ele>
        <time>2018-05-19T08:30:18.859Z</time>
      </trkpt>
      <trkpt lat="43.28220667" lon="-4.433035">
        <ele>163.0</ele>
        <time>2018-05-19T08:30:19.857Z</time>
      </trkpt>
      <trkpt lat="43.28220667" lon="-4.433035">
        <ele>163.0</ele>
        <time>2018-05-19T08:30:20.854Z</time>
      </trkpt>
      <trkpt lat="43.282135" lon="-4.43284667">
        <ele>163.0</ele>
        <time>2018-05-19T08:30:21.857Z</time>
      </trkpt>
      <trkpt lat="43.282135" lon="-4.43284667">
        <ele>163.0</ele>
        <time>2018-05-19T08:30:22.855Z</time>
      </trkpt>
      <trkpt lat="43.282065" lon="-4.43265667">
        <ele>163.0</ele>
        <time>2018-05-19T08:30:23.859Z</time>
      </trkpt>
      <trkpt lat="43.28203333" lon="-4.43256167">
        <ele>163.0</ele>
        <time>2018-05-19T08:30:24.857Z</time>
      </trkpt>
      <trkpt lat="43.28200333" lon="-4.43247">
        <ele>164.0</ele>
        <time>2018-05-19T08:30:25.867Z</time>
      </trkpt>
      <trkpt lat="43.28200333" lon="-4.43247">
        <ele>164.0</ele>
        <time>2018-05-19T08:30:26.854Z</time>
      </trkpt>
      <trkpt lat="43.281945" lon="-4.43229167">
        <ele>164.0</ele>
        <time>2018-05-19T08:30:27.856Z</time>
      </trkpt>
      <trkpt lat="43.281945" lon="-4.43229167">
        <ele>164.0</ele>
        <time>2018-05-19T08:30:28.854Z</time>
      </trkpt>
      <trkpt lat="43.28188667" lon="-4.43211667">
        <ele>164.0</ele>
        <time>2018-05-19T08:30:29.856Z</time>
      </trkpt>
      <trkpt lat="43.28188667" lon="-4.43211667">
        <ele>164.0</ele>
        <time>2018-05-19T08:30:30.854Z</time>
      </trkpt>
      <trkpt lat="43.28183" lon="-4.431935">
        <ele>165.0</ele>
        <time>2018-05-19T08:30:31.857Z</time>
      </trkpt>
      <trkpt lat="43.28183" lon="-4.431935">
        <ele>165.0</ele>
        <time>2018-05-19T08:30:32.854Z</time>
      </trkpt>
      <trkpt lat="43.281775" lon="-4.43175333">
        <ele>165.0</ele>
        <time>2018-05-19T08:30:33.856Z</time>
      </trkpt>
      <trkpt lat="43.281775" lon="-4.43175333">
        <ele>165.0</ele>
        <time>2018-05-19T08:30:34.854Z</time>
      </trkpt>
      <trkpt lat="43.28172167" lon="-4.43157">
        <ele>165.0</ele>
        <time>2018-05-19T08:30:35.859Z</time>
      </trkpt>
      <trkpt lat="43.28172167" lon="-4.43157">
        <ele>165.0</ele>
        <time>2018-05-19T08:30:36.854Z</time>
      </trkpt>
      <trkpt lat="43.28166667" lon="-4.43138333">
        <ele>166.0</ele>
        <time>2018-05-19T08:30:37.854Z</time>
      </trkpt>
      <trkpt lat="43.28166667" lon="-4.43138333">
        <ele>166.0</ele>
        <time>2018-05-19T08:30:38.847Z</time>
      </trkpt>
      <trkpt lat="43.28161" lon="-4.43119167">
        <ele>166.0</ele>
        <time>2018-05-19T08:30:39.865Z</time>
      </trkpt>
      <trkpt lat="43.28161" lon="-4.43119167">
        <ele>166.0</ele>
        <time>2018-05-19T08:30:40.851Z</time>
      </trkpt>
      <trkpt lat="43.28156333" lon="-4.43099833">
        <ele>166.0</ele>
        <time>2018-05-19T08:30:41.859Z</time>
      </trkpt>
      <trkpt lat="43.28156333" lon="-4.43099833">
        <ele>166.0</ele>
        <time>2018-05-19T08:30:42.854Z</time>
      </trkpt>
      <trkpt lat="43.28152" lon="-4.43080333">
        <ele>166.0</ele>
        <time>2018-05-19T08:30:43.857Z</time>
      </trkpt>
      <trkpt lat="43.28152" lon="-4.43080333">
        <ele>166.0</ele>
        <time>2018-05-19T08:30:44.851Z</time>
      </trkpt>
      <trkpt lat="43.28148667" lon="-4.43059833">
        <ele>166.0</ele>
        <time>2018-05-19T08:30:45.851Z</time>
      </trkpt>
      <trkpt lat="43.28147333" lon="-4.430495">
        <ele>165.0</ele>
        <time>2018-05-19T08:30:46.858Z</time>
      </trkpt>
      <trkpt lat="43.28146167" lon="-4.43039">
        <ele>165.0</ele>
        <time>2018-05-19T08:30:47.865Z</time>
      </trkpt>
      <trkpt lat="43.28146167" lon="-4.43039">
        <ele>165.0</ele>
        <time>2018-05-19T08:30:48.859Z</time>
      </trkpt>
      <trkpt lat="43.28144833" lon="-4.43017667">
        <ele>165.0</ele>
        <time>2018-05-19T08:30:49.857Z</time>
      </trkpt>
      <trkpt lat="43.28144833" lon="-4.43017667">
        <ele>165.0</ele>
        <time>2018-05-19T08:30:50.854Z</time>
      </trkpt>
      <trkpt lat="43.28144667" lon="-4.42996">
        <ele>164.0</ele>
        <time>2018-05-19T08:30:51.857Z</time>
      </trkpt>
      <trkpt lat="43.28144833" lon="-4.42984667">
        <ele>164.0</ele>
        <time>2018-05-19T08:30:52.857Z</time>
      </trkpt>
      <trkpt lat="43.28145167" lon="-4.42973167">
        <ele>164.0</ele>
        <time>2018-05-19T08:30:53.858Z</time>
      </trkpt>
      <trkpt lat="43.28145167" lon="-4.42973167">
        <ele>164.0</ele>
        <time>2018-05-19T08:30:54.852Z</time>
      </trkpt>
      <trkpt lat="43.281465" lon="-4.42949">
        <ele>163.0</ele>
        <time>2018-05-19T08:30:55.879Z</time>
      </trkpt>
      <trkpt lat="43.281465" lon="-4.42949">
        <ele>163.0</ele>
        <time>2018-05-19T08:30:56.864Z</time>
      </trkpt>
      <trkpt lat="43.28149" lon="-4.429235">
        <ele>162.0</ele>
        <time>2018-05-19T08:30:57.856Z</time>
      </trkpt>
      <trkpt lat="43.28149" lon="-4.429235">
        <ele>162.0</ele>
        <time>2018-05-19T08:30:58.855Z</time>
      </trkpt>
      <trkpt lat="43.28153167" lon="-4.42896667">
        <ele>160.0</ele>
        <time>2018-05-19T08:30:59.856Z</time>
      </trkpt>
      <trkpt lat="43.28153167" lon="-4.42896667">
        <ele>160.0</ele>
        <time>2018-05-19T08:31:00.854Z</time>
      </trkpt>
      <trkpt lat="43.28159333" lon="-4.42869333">
        <ele>159.0</ele>
        <time>2018-05-19T08:31:01.854Z</time>
      </trkpt>
      <trkpt lat="43.28159333" lon="-4.42869333">
        <ele>159.0</ele>
        <time>2018-05-19T08:31:02.854Z</time>
      </trkpt>
      <trkpt lat="43.28167" lon="-4.42841167">
        <ele>157.0</ele>
        <time>2018-05-19T08:31:03.856Z</time>
      </trkpt>
      <trkpt lat="43.28167" lon="-4.42841167">
        <ele>157.0</ele>
        <time>2018-05-19T08:31:04.854Z</time>
      </trkpt>
      <trkpt lat="43.28176" lon="-4.42813">
        <ele>156.0</ele>
        <time>2018-05-19T08:31:05.851Z</time>
      </trkpt>
      <trkpt lat="43.28176" lon="-4.42813">
        <ele>156.0</ele>
        <time>2018-05-19T08:31:06.853Z</time>
      </trkpt>
      <trkpt lat="43.28186" lon="-4.42784333">
        <ele>155.0</ele>
        <time>2018-05-19T08:31:07.858Z</time>
      </trkpt>
      <trkpt lat="43.28186" lon="-4.42784333">
        <ele>155.0</ele>
        <time>2018-05-19T08:31:08.848Z</time>
      </trkpt>
      <trkpt lat="43.281965" lon="-4.42755667">
        <ele>153.0</ele>
        <time>2018-05-19T08:31:09.870Z</time>
      </trkpt>
      <trkpt lat="43.28201667" lon="-4.42741333">
        <ele>153.0</ele>
        <time>2018-05-19T08:31:10.857Z</time>
      </trkpt>
      <trkpt lat="43.28206667" lon="-4.42727167">
        <ele>152.0</ele>
        <time>2018-05-19T08:31:11.859Z</time>
      </trkpt>
      <trkpt lat="43.28206667" lon="-4.42727167">
        <ele>152.0</ele>
        <time>2018-05-19T08:31:12.851Z</time>
      </trkpt>
      <trkpt lat="43.28216333" lon="-4.42700167">
        <ele>152.0</ele>
        <time>2018-05-19T08:31:13.861Z</time>
      </trkpt>
      <trkpt lat="43.28216333" lon="-4.42700167">
        <ele>152.0</ele>
        <time>2018-05-19T08:31:14.854Z</time>
      </trkpt>
      <trkpt lat="43.28226167" lon="-4.42674667">
        <ele>151.0</ele>
        <time>2018-05-19T08:31:15.857Z</time>
      </trkpt>
      <trkpt lat="43.28226167" lon="-4.42674667">
        <ele>151.0</ele>
        <time>2018-05-19T08:31:16.851Z</time>
      </trkpt>
      <trkpt lat="43.28235333" lon="-4.42650333">
        <ele>151.0</ele>
        <time>2018-05-19T08:31:17.858Z</time>
      </trkpt>
      <trkpt lat="43.28235333" lon="-4.42650333">
        <ele>151.0</ele>
        <time>2018-05-19T08:31:18.857Z</time>
      </trkpt>
      <trkpt lat="43.28244" lon="-4.42626333">
        <ele>151.0</ele>
        <time>2018-05-19T08:31:19.857Z</time>
      </trkpt>
      <trkpt lat="43.28244" lon="-4.42626333">
        <ele>151.0</ele>
        <time>2018-05-19T08:31:20.853Z</time>
      </trkpt>
      <trkpt lat="43.28251333" lon="-4.42602667">
        <ele>151.0</ele>
        <time>2018-05-19T08:31:21.856Z</time>
      </trkpt>
      <trkpt lat="43.28251333" lon="-4.42602667">
        <ele>151.0</ele>
        <time>2018-05-19T08:31:22.854Z</time>
      </trkpt>
      <trkpt lat="43.28258333" lon="-4.42579667">
        <ele>151.0</ele>
        <time>2018-05-19T08:31:23.858Z</time>
      </trkpt>
      <trkpt lat="43.28258333" lon="-4.42579667">
        <ele>151.0</ele>
        <time>2018-05-19T08:31:24.853Z</time>
      </trkpt>
      <trkpt lat="43.28264167" lon="-4.425565">
        <ele>151.0</ele>
        <time>2018-05-19T08:31:25.869Z</time>
      </trkpt>
      <trkpt lat="43.28264167" lon="-4.425565">
        <ele>151.0</ele>
        <time>2018-05-19T08:31:26.857Z</time>
      </trkpt>
      <trkpt lat="43.282645" lon="-4.42533667">
        <ele>151.0</ele>
        <time>2018-05-19T08:31:27.856Z</time>
      </trkpt>
      <trkpt lat="43.282645" lon="-4.42533667">
        <ele>151.0</ele>
        <time>2018-05-19T08:31:28.851Z</time>
      </trkpt>
      <trkpt lat="43.28256833" lon="-4.42515167">
        <ele>151.0</ele>
        <time>2018-05-19T08:31:29.857Z</time>
      </trkpt>
      <trkpt lat="43.28256833" lon="-4.42515167">
        <ele>151.0</ele>
        <time>2018-05-19T08:31:30.854Z</time>
      </trkpt>
      <trkpt lat="43.28244167" lon="-4.425015">
        <ele>150.0</ele>
        <time>2018-05-19T08:31:31.857Z</time>
      </trkpt>
      <trkpt lat="43.28244167" lon="-4.425015">
        <ele>150.0</ele>
        <time>2018-05-19T08:31:32.854Z</time>
      </trkpt>
      <trkpt lat="43.28229333" lon="-4.42494167">
        <ele>150.0</ele>
        <time>2018-05-19T08:31:33.856Z</time>
      </trkpt>
      <trkpt lat="43.28229333" lon="-4.42494167">
        <ele>150.0</ele>
        <time>2018-05-19T08:31:34.854Z</time>
      </trkpt>
      <trkpt lat="43.282155" lon="-4.42499667">
        <ele>149.0</ele>
        <time>2018-05-19T08:31:35.855Z</time>
      </trkpt>
      <trkpt lat="43.282155" lon="-4.42499667">
        <ele>149.0</ele>
        <time>2018-05-19T08:31:36.854Z</time>
      </trkpt>
      <trkpt lat="43.28204833" lon="-4.425095">
        <ele>148.0</ele>
        <time>2018-05-19T08:31:37.856Z</time>
      </trkpt>
      <trkpt lat="43.28204833" lon="-4.425095">
        <ele>148.0</ele>
        <time>2018-05-19T08:31:38.847Z</time>
      </trkpt>
      <trkpt lat="43.28195167" lon="-4.42521167">
        <ele>150.0</ele>
        <time>2018-05-19T08:31:39.870Z</time>
      </trkpt>
      <trkpt lat="43.28195167" lon="-4.42521167">
        <ele>150.0</ele>
        <time>2018-05-19T08:31:40.854Z</time>
      </trkpt>
      <trkpt lat="43.28185667" lon="-4.42531167">
        <ele>151.0</ele>
        <time>2018-05-19T08:31:41.858Z</time>
      </trkpt>
      <trkpt lat="43.28185667" lon="-4.42531167">
        <ele>151.0</ele>
        <time>2018-05-19T08:31:42.877Z</time>
      </trkpt>
      <trkpt lat="43.28177" lon="-4.42541">
        <ele>152.0</ele>
        <time>2018-05-19T08:31:43.859Z</time>
      </trkpt>
      <trkpt lat="43.28177" lon="-4.42541">
        <ele>152.0</ele>
        <time>2018-05-19T08:31:44.854Z</time>
      </trkpt>
      <trkpt lat="43.28169" lon="-4.42550333">
        <ele>153.0</ele>
        <time>2018-05-19T08:31:45.874Z</time>
      </trkpt>
      <trkpt lat="43.28165167" lon="-4.42555">
        <ele>153.0</ele>
        <time>2018-05-19T08:31:46.845Z</time>
      </trkpt>
      <trkpt lat="43.281615" lon="-4.425595">
        <ele>154.0</ele>
        <time>2018-05-19T08:31:47.857Z</time>
      </trkpt>
      <trkpt lat="43.281615" lon="-4.425595">
        <ele>154.0</ele>
        <time>2018-05-19T08:31:48.847Z</time>
      </trkpt>
      <trkpt lat="43.28154833" lon="-4.42568667">
        <ele>155.0</ele>
        <time>2018-05-19T08:31:49.870Z</time>
      </trkpt>
      <trkpt lat="43.28154833" lon="-4.42568667">
        <ele>155.0</ele>
        <time>2018-05-19T08:31:50.853Z</time>
      </trkpt>
      <trkpt lat="43.28148667" lon="-4.42578167">
        <ele>155.0</ele>
        <time>2018-05-19T08:31:51.855Z</time>
      </trkpt>
      <trkpt lat="43.28146" lon="-4.42583">
        <ele>156.0</ele>
        <time>2018-05-19T08:31:52.856Z</time>
      </trkpt>
      <trkpt lat="43.28143333" lon="-4.42587833">
        <ele>156.0</ele>
        <time>2018-05-19T08:31:53.858Z</time>
      </trkpt>
      <trkpt lat="43.28143333" lon="-4.42587833">
        <ele>156.0</ele>
        <time>2018-05-19T08:31:54.854Z</time>
      </trkpt>
      <trkpt lat="43.28138833" lon="-4.42598">
        <ele>157.0</ele>
        <time>2018-05-19T08:31:55.854Z</time>
      </trkpt>
      <trkpt lat="43.28136833" lon="-4.426035">
        <ele>157.0</ele>
        <time>2018-05-19T08:31:56.856Z</time>
      </trkpt>
      <trkpt lat="43.28136833" lon="-4.426035">
        <ele>157.0</ele>
        <time>2018-05-19T08:31:57.854Z</time>
      </trkpt>
      <trkpt lat="43.28132667" lon="-4.42614333">
        <ele>158.0</ele>
        <time>2018-05-19T08:31:58.849Z</time>
      </trkpt>
      <trkpt lat="43.28130667" lon="-4.426195">
        <ele>158.0</ele>
        <time>2018-05-19T08:31:59.874Z</time>
      </trkpt>
      <trkpt lat="43.28130667" lon="-4.426195">
        <ele>158.0</ele>
        <time>2018-05-19T08:32:00.874Z</time>
      </trkpt>
      <trkpt lat="43.281265" lon="-4.42630167">
        <ele>159.0</ele>
        <time>2018-05-19T08:32:01.863Z</time>
      </trkpt>
      <trkpt lat="43.281265" lon="-4.42630167">
        <ele>159.0</ele>
        <time>2018-05-19T08:32:02.854Z</time>
      </trkpt>
      <trkpt lat="43.28122" lon="-4.4264">
        <ele>160.0</ele>
        <time>2018-05-19T08:32:03.855Z</time>
      </trkpt>
      <trkpt lat="43.28122" lon="-4.4264">
        <ele>160.0</ele>
        <time>2018-05-19T08:32:04.851Z</time>
      </trkpt>
      <trkpt lat="43.28116667" lon="-4.42649">
        <ele>161.0</ele>
        <time>2018-05-19T08:32:05.860Z</time>
      </trkpt>
      <trkpt lat="43.28116667" lon="-4.42649">
        <ele>161.0</ele>
        <time>2018-05-19T08:32:06.851Z</time>
      </trkpt>
      <trkpt lat="43.28110833" lon="-4.42657833">
        <ele>162.0</ele>
        <time>2018-05-19T08:32:07.854Z</time>
      </trkpt>
      <trkpt lat="43.28110833" lon="-4.42657833">
        <ele>162.0</ele>
        <time>2018-05-19T08:32:08.847Z</time>
      </trkpt>
      <trkpt lat="43.28104667" lon="-4.42665167">
        <ele>163.0</ele>
        <time>2018-05-19T08:32:09.870Z</time>
      </trkpt>
      <trkpt lat="43.28104667" lon="-4.42665167">
        <ele>163.0</ele>
        <time>2018-05-19T08:32:10.854Z</time>
      </trkpt>
      <trkpt lat="43.28097667" lon="-4.42670833">
        <ele>163.0</ele>
        <time>2018-05-19T08:32:11.857Z</time>
      </trkpt>
      <trkpt lat="43.28097667" lon="-4.42670833">
        <ele>163.0</ele>
        <time>2018-05-19T08:32:12.854Z</time>
      </trkpt>
      <trkpt lat="43.280905" lon="-4.42675167">
        <ele>164.0</ele>
        <time>2018-05-19T08:32:13.857Z</time>
      </trkpt>
      <trkpt lat="43.280905" lon="-4.42675167">
        <ele>164.0</ele>
        <time>2018-05-19T08:32:14.851Z</time>
      </trkpt>
      <trkpt lat="43.28082833" lon="-4.42678">
        <ele>164.0</ele>
        <time>2018-05-19T08:32:15.857Z</time>
      </trkpt>
      <trkpt lat="43.28082833" lon="-4.42678">
        <ele>164.0</ele>
        <time>2018-05-19T08:32:16.854Z</time>
      </trkpt>
      <trkpt lat="43.28074667" lon="-4.42679833">
        <ele>164.0</ele>
        <time>2018-05-19T08:32:17.856Z</time>
      </trkpt>
      <trkpt lat="43.28074667" lon="-4.42679833">
        <ele>164.0</ele>
        <time>2018-05-19T08:32:18.852Z</time>
      </trkpt>
      <trkpt lat="43.28066167" lon="-4.42679833">
        <ele>165.0</ele>
        <time>2018-05-19T08:32:19.857Z</time>
      </trkpt>
      <trkpt lat="43.28066167" lon="-4.42679833">
        <ele>165.0</ele>
        <time>2018-05-19T08:32:20.852Z</time>
      </trkpt>
      <trkpt lat="43.28057667" lon="-4.42679333">
        <ele>165.0</ele>
        <time>2018-05-19T08:32:21.856Z</time>
      </trkpt>
      <trkpt lat="43.28053333" lon="-4.42678833">
        <ele>165.0</ele>
        <time>2018-05-19T08:32:22.853Z</time>
      </trkpt>
      <trkpt lat="43.28049333" lon="-4.42678">
        <ele>165.0</ele>
        <time>2018-05-19T08:32:23.857Z</time>
      </trkpt>
      <trkpt lat="43.28049333" lon="-4.42678">
        <ele>165.0</ele>
        <time>2018-05-19T08:32:24.853Z</time>
      </trkpt>
      <trkpt lat="43.28041" lon="-4.426765">
        <ele>165.0</ele>
        <time>2018-05-19T08:32:25.857Z</time>
      </trkpt>
      <trkpt lat="43.28041" lon="-4.426765">
        <ele>165.0</ele>
        <time>2018-05-19T08:32:26.853Z</time>
      </trkpt>
      <trkpt lat="43.28032667" lon="-4.42675">
        <ele>166.0</ele>
        <time>2018-05-19T08:32:27.856Z</time>
      </trkpt>
      <trkpt lat="43.28032667" lon="-4.42675">
        <ele>166.0</ele>
        <time>2018-05-19T08:32:28.854Z</time>
      </trkpt>
      <trkpt lat="43.280245" lon="-4.42673333">
        <ele>166.0</ele>
        <time>2018-05-19T08:32:29.856Z</time>
      </trkpt>
      <trkpt lat="43.280245" lon="-4.42673333">
        <ele>166.0</ele>
        <time>2018-05-19T08:32:30.854Z</time>
      </trkpt>
      <trkpt lat="43.280165" lon="-4.426715">
        <ele>166.0</ele>
        <time>2018-05-19T08:32:31.857Z</time>
      </trkpt>
      <trkpt lat="43.280165" lon="-4.426715">
        <ele>166.0</ele>
        <time>2018-05-19T08:32:32.854Z</time>
      </trkpt>
      <trkpt lat="43.28008333" lon="-4.42670333">
        <ele>167.0</ele>
        <time>2018-05-19T08:32:33.856Z</time>
      </trkpt>
      <trkpt lat="43.28008333" lon="-4.42670333">
        <ele>167.0</ele>
        <time>2018-05-19T08:32:34.853Z</time>
      </trkpt>
      <trkpt lat="43.28" lon="-4.426685">
        <ele>167.0</ele>
        <time>2018-05-19T08:32:35.859Z</time>
      </trkpt>
      <trkpt lat="43.28" lon="-4.426685">
        <ele>167.0</ele>
        <time>2018-05-19T08:32:36.854Z</time>
      </trkpt>
      <trkpt lat="43.27991667" lon="-4.42666167">
        <ele>167.0</ele>
        <time>2018-05-19T08:32:37.857Z</time>
      </trkpt>
      <trkpt lat="43.27991667" lon="-4.42666167">
        <ele>167.0</ele>
        <time>2018-05-19T08:32:38.846Z</time>
      </trkpt>
      <trkpt lat="43.27983333" lon="-4.42664333">
        <ele>167.0</ele>
        <time>2018-05-19T08:32:39.870Z</time>
      </trkpt>
      <trkpt lat="43.27983333" lon="-4.42664333">
        <ele>167.0</ele>
        <time>2018-05-19T08:32:40.854Z</time>
      </trkpt>
      <trkpt lat="43.27975" lon="-4.426635">
        <ele>167.0</ele>
        <time>2018-05-19T08:32:41.859Z</time>
      </trkpt>
      <trkpt lat="43.27975" lon="-4.426635">
        <ele>167.0</ele>
        <time>2018-05-19T08:32:42.853Z</time>
      </trkpt>
      <trkpt lat="43.27967" lon="-4.42661833">
        <ele>168.0</ele>
        <time>2018-05-19T08:32:43.854Z</time>
      </trkpt>
      <trkpt lat="43.27967" lon="-4.42661833">
        <ele>168.0</ele>
        <time>2018-05-19T08:32:44.853Z</time>
      </trkpt>
      <trkpt lat="43.27958833" lon="-4.42660333">
        <ele>168.0</ele>
        <time>2018-05-19T08:32:45.854Z</time>
      </trkpt>
      <trkpt lat="43.27954667" lon="-4.42659667">
        <ele>169.0</ele>
        <time>2018-05-19T08:32:46.865Z</time>
      </trkpt>
      <trkpt lat="43.27950333" lon="-4.426585">
        <ele>169.0</ele>
        <time>2018-05-19T08:32:47.871Z</time>
      </trkpt>
      <trkpt lat="43.27950333" lon="-4.426585">
        <ele>169.0</ele>
        <time>2018-05-19T08:32:48.856Z</time>
      </trkpt>
      <trkpt lat="43.27941333" lon="-4.42656667">
        <ele>169.0</ele>
        <time>2018-05-19T08:32:49.858Z</time>
      </trkpt>
      <trkpt lat="43.27941333" lon="-4.42656667">
        <ele>169.0</ele>
        <time>2018-05-19T08:32:50.854Z</time>
      </trkpt>
      <trkpt lat="43.27932667" lon="-4.426555">
        <ele>169.0</ele>
        <time>2018-05-19T08:32:51.856Z</time>
      </trkpt>
      <trkpt lat="43.27928333" lon="-4.42654833">
        <ele>170.0</ele>
        <time>2018-05-19T08:32:52.856Z</time>
      </trkpt>
      <trkpt lat="43.27924" lon="-4.42653833">
        <ele>170.0</ele>
        <time>2018-05-19T08:32:53.859Z</time>
      </trkpt>
      <trkpt lat="43.27924" lon="-4.42653833">
        <ele>170.0</ele>
        <time>2018-05-19T08:32:54.854Z</time>
      </trkpt>
      <trkpt lat="43.27915333" lon="-4.42651333">
        <ele>170.0</ele>
        <time>2018-05-19T08:32:55.877Z</time>
      </trkpt>
      <trkpt lat="43.27915333" lon="-4.42651333">
        <ele>170.0</ele>
        <time>2018-05-19T08:32:56.863Z</time>
      </trkpt>
      <trkpt lat="43.27907167" lon="-4.42648333">
        <ele>171.0</ele>
        <time>2018-05-19T08:32:57.854Z</time>
      </trkpt>
      <trkpt lat="43.27907167" lon="-4.42648333">
        <ele>171.0</ele>
        <time>2018-05-19T08:32:58.851Z</time>
      </trkpt>
      <trkpt lat="43.27899167" lon="-4.42644833">
        <ele>170.0</ele>
        <time>2018-05-19T08:32:59.858Z</time>
      </trkpt>
      <trkpt lat="43.27899167" lon="-4.42644833">
        <ele>170.0</ele>
        <time>2018-05-19T08:33:00.853Z</time>
      </trkpt>
      <trkpt lat="43.27891167" lon="-4.42640333">
        <ele>170.0</ele>
        <time>2018-05-19T08:33:01.858Z</time>
      </trkpt>
      <trkpt lat="43.27891167" lon="-4.42640333">
        <ele>170.0</ele>
        <time>2018-05-19T08:33:02.851Z</time>
      </trkpt>
      <trkpt lat="43.27882667" lon="-4.42635333">
        <ele>170.0</ele>
        <time>2018-05-19T08:33:03.856Z</time>
      </trkpt>
      <trkpt lat="43.27882667" lon="-4.42635333">
        <ele>170.0</ele>
        <time>2018-05-19T08:33:04.853Z</time>
      </trkpt>
      <trkpt lat="43.27874833" lon="-4.42629667">
        <ele>170.0</ele>
        <time>2018-05-19T08:33:05.849Z</time>
      </trkpt>
      <trkpt lat="43.27874833" lon="-4.42629667">
        <ele>170.0</ele>
        <time>2018-05-19T08:33:06.854Z</time>
      </trkpt>
      <trkpt lat="43.27866833" lon="-4.42623667">
        <ele>171.0</ele>
        <time>2018-05-19T08:33:07.862Z</time>
      </trkpt>
      <trkpt lat="43.27866833" lon="-4.42623667">
        <ele>171.0</ele>
        <time>2018-05-19T08:33:08.850Z</time>
      </trkpt>
      <trkpt lat="43.27859333" lon="-4.426165">
        <ele>171.0</ele>
        <time>2018-05-19T08:33:09.854Z</time>
      </trkpt>
      <trkpt lat="43.27859333" lon="-4.426165">
        <ele>171.0</ele>
        <time>2018-05-19T08:33:10.853Z</time>
      </trkpt>
      <trkpt lat="43.27852" lon="-4.42609">
        <ele>172.0</ele>
        <time>2018-05-19T08:33:11.857Z</time>
      </trkpt>
      <trkpt lat="43.27852" lon="-4.42609">
        <ele>172.0</ele>
        <time>2018-05-19T08:33:12.851Z</time>
      </trkpt>
      <trkpt lat="43.27845167" lon="-4.42601167">
        <ele>172.0</ele>
        <time>2018-05-19T08:33:13.857Z</time>
      </trkpt>
      <trkpt lat="43.27845167" lon="-4.42601167">
        <ele>172.0</ele>
        <time>2018-05-19T08:33:14.854Z</time>
      </trkpt>
      <trkpt lat="43.27838833" lon="-4.42592167">
        <ele>172.0</ele>
        <time>2018-05-19T08:33:15.856Z</time>
      </trkpt>
      <trkpt lat="43.27835667" lon="-4.42588333">
        <ele>172.0</ele>
        <time>2018-05-19T08:33:16.857Z</time>
      </trkpt>
      <trkpt lat="43.27832167" lon="-4.42584">
        <ele>172.0</ele>
        <time>2018-05-19T08:33:17.861Z</time>
      </trkpt>
      <trkpt lat="43.27832167" lon="-4.42584">
        <ele>172.0</ele>
        <time>2018-05-19T08:33:18.847Z</time>
      </trkpt>
      <trkpt lat="43.278255" lon="-4.42574333">
        <ele>172.0</ele>
        <time>2018-05-19T08:33:19.870Z</time>
      </trkpt>
      <trkpt lat="43.278255" lon="-4.42574333">
        <ele>172.0</ele>
        <time>2018-05-19T08:33:20.854Z</time>
      </trkpt>
      <trkpt lat="43.27818667" lon="-4.42564">
        <ele>173.0</ele>
        <time>2018-05-19T08:33:21.856Z</time>
      </trkpt>
      <trkpt lat="43.27818667" lon="-4.42564">
        <ele>173.0</ele>
        <time>2018-05-19T08:33:22.854Z</time>
      </trkpt>
      <trkpt lat="43.27812" lon="-4.42554167">
        <ele>174.0</ele>
        <time>2018-05-19T08:33:23.857Z</time>
      </trkpt>
      <trkpt lat="43.27812" lon="-4.42554167">
        <ele>174.0</ele>
        <time>2018-05-19T08:33:24.854Z</time>
      </trkpt>
      <trkpt lat="43.278055" lon="-4.42544">
        <ele>174.0</ele>
        <time>2018-05-19T08:33:25.856Z</time>
      </trkpt>
      <trkpt lat="43.27802167" lon="-4.42539">
        <ele>174.0</ele>
        <time>2018-05-19T08:33:26.856Z</time>
      </trkpt>
      <trkpt lat="43.27802167" lon="-4.42539">
        <ele>174.0</ele>
        <time>2018-05-19T08:33:27.853Z</time>
      </trkpt>
      <trkpt lat="43.27795333" lon="-4.42528833">
        <ele>174.0</ele>
        <time>2018-05-19T08:33:28.883Z</time>
      </trkpt>
      <trkpt lat="43.27792" lon="-4.42524">
        <ele>174.0</ele>
        <time>2018-05-19T08:33:29.869Z</time>
      </trkpt>
      <trkpt lat="43.27792" lon="-4.42524">
        <ele>174.0</ele>
        <time>2018-05-19T08:33:30.853Z</time>
      </trkpt>
      <trkpt lat="43.27784667" lon="-4.42514">
        <ele>174.0</ele>
        <time>2018-05-19T08:33:31.854Z</time>
      </trkpt>
      <trkpt lat="43.27784667" lon="-4.42514">
        <ele>174.0</ele>
        <time>2018-05-19T08:33:32.853Z</time>
      </trkpt>
      <trkpt lat="43.27777" lon="-4.425045">
        <ele>175.0</ele>
        <time>2018-05-19T08:33:33.855Z</time>
      </trkpt>
      <trkpt lat="43.27777" lon="-4.425045">
        <ele>175.0</ele>
        <time>2018-05-19T08:33:34.851Z</time>
      </trkpt>
      <trkpt lat="43.27768667" lon="-4.42495833">
        <ele>175.0</ele>
        <time>2018-05-19T08:33:35.857Z</time>
      </trkpt>
      <trkpt lat="43.27768667" lon="-4.42495833">
        <ele>175.0</ele>
        <time>2018-05-19T08:33:36.851Z</time>
      </trkpt>
      <trkpt lat="43.27759667" lon="-4.42488333">
        <ele>175.0</ele>
        <time>2018-05-19T08:33:37.856Z</time>
      </trkpt>
      <trkpt lat="43.27759667" lon="-4.42488333">
        <ele>175.0</ele>
        <time>2018-05-19T08:33:38.851Z</time>
      </trkpt>
      <trkpt lat="43.27750333" lon="-4.42481667">
        <ele>175.0</ele>
        <time>2018-05-19T08:33:39.856Z</time>
      </trkpt>
      <trkpt lat="43.277455" lon="-4.424785">
        <ele>176.0</ele>
        <time>2018-05-19T08:33:40.857Z</time>
      </trkpt>
      <trkpt lat="43.277405" lon="-4.42475333">
        <ele>176.0</ele>
        <time>2018-05-19T08:33:41.856Z</time>
      </trkpt>
      <trkpt lat="43.277405" lon="-4.42475333">
        <ele>176.0</ele>
        <time>2018-05-19T08:33:42.852Z</time>
      </trkpt>
      <trkpt lat="43.27731" lon="-4.42469333">
        <ele>176.0</ele>
        <time>2018-05-19T08:33:43.854Z</time>
      </trkpt>
      <trkpt lat="43.27731" lon="-4.42469333">
        <ele>176.0</ele>
        <time>2018-05-19T08:33:44.853Z</time>
      </trkpt>
      <trkpt lat="43.277215" lon="-4.42463167">
        <ele>177.0</ele>
        <time>2018-05-19T08:33:45.881Z</time>
      </trkpt>
      <trkpt lat="43.277215" lon="-4.42463167">
        <ele>177.0</ele>
        <time>2018-05-19T08:33:46.847Z</time>
      </trkpt>
      <trkpt lat="43.27712" lon="-4.42457">
        <ele>177.0</ele>
        <time>2018-05-19T08:33:47.874Z</time>
      </trkpt>
      <trkpt lat="43.27712" lon="-4.42457">
        <ele>177.0</ele>
        <time>2018-05-19T08:33:48.857Z</time>
      </trkpt>
      <trkpt lat="43.277025" lon="-4.42451333">
        <ele>177.0</ele>
        <time>2018-05-19T08:33:49.856Z</time>
      </trkpt>
      <trkpt lat="43.277025" lon="-4.42451333">
        <ele>177.0</ele>
        <time>2018-05-19T08:33:50.853Z</time>
      </trkpt>
      <trkpt lat="43.27693" lon="-4.42445667">
        <ele>178.0</ele>
        <time>2018-05-19T08:33:51.855Z</time>
      </trkpt>
      <trkpt lat="43.27693" lon="-4.42445667">
        <ele>178.0</ele>
        <time>2018-05-19T08:33:52.851Z</time>
      </trkpt>
      <trkpt lat="43.27683333" lon="-4.424405">
        <ele>178.0</ele>
        <time>2018-05-19T08:33:53.857Z</time>
      </trkpt>
      <trkpt lat="43.27683333" lon="-4.424405">
        <ele>178.0</ele>
        <time>2018-05-19T08:33:54.853Z</time>
      </trkpt>
      <trkpt lat="43.27673833" lon="-4.42435">
        <ele>178.0</ele>
        <time>2018-05-19T08:33:55.856Z</time>
      </trkpt>
      <trkpt lat="43.27673833" lon="-4.42435">
        <ele>178.0</ele>
        <time>2018-05-19T08:33:56.860Z</time>
      </trkpt>
      <trkpt lat="43.276645" lon="-4.42429167">
        <ele>178.0</ele>
        <time>2018-05-19T08:33:57.856Z</time>
      </trkpt>
      <trkpt lat="43.276645" lon="-4.42429167">
        <ele>178.0</ele>
        <time>2018-05-19T08:33:58.847Z</time>
      </trkpt>
      <trkpt lat="43.27655333" lon="-4.42423">
        <ele>179.0</ele>
        <time>2018-05-19T08:33:59.879Z</time>
      </trkpt>
      <trkpt lat="43.27655333" lon="-4.42423">
        <ele>179.0</ele>
        <time>2018-05-19T08:34:00.873Z</time>
      </trkpt>
      <trkpt lat="43.27646333" lon="-4.424165">
        <ele>178.0</ele>
        <time>2018-05-19T08:34:01.856Z</time>
      </trkpt>
      <trkpt lat="43.27646333" lon="-4.424165">
        <ele>178.0</ele>
        <time>2018-05-19T08:34:02.854Z</time>
      </trkpt>
      <trkpt lat="43.27637833" lon="-4.424095">
        <ele>179.0</ele>
        <time>2018-05-19T08:34:03.856Z</time>
      </trkpt>
      <trkpt lat="43.27637833" lon="-4.424095">
        <ele>179.0</ele>
        <time>2018-05-19T08:34:04.854Z</time>
      </trkpt>
      <trkpt lat="43.27629833" lon="-4.42401333">
        <ele>179.0</ele>
        <time>2018-05-19T08:34:05.849Z</time>
      </trkpt>
      <trkpt lat="43.27629833" lon="-4.42401333">
        <ele>179.0</ele>
        <time>2018-05-19T08:34:06.853Z</time>
      </trkpt>
      <trkpt lat="43.27621833" lon="-4.42392167">
        <ele>179.0</ele>
        <time>2018-05-19T08:34:07.872Z</time>
      </trkpt>
      <trkpt lat="43.27621833" lon="-4.42392167">
        <ele>179.0</ele>
        <time>2018-05-19T08:34:08.858Z</time>
      </trkpt>
      <trkpt lat="43.27614" lon="-4.42382833">
        <ele>180.0</ele>
        <time>2018-05-19T08:34:09.856Z</time>
      </trkpt>
      <trkpt lat="43.27610333" lon="-4.42378">
        <ele>180.0</ele>
        <time>2018-05-19T08:34:10.855Z</time>
      </trkpt>
      <trkpt lat="43.27606667" lon="-4.42373167">
        <ele>180.0</ele>
        <time>2018-05-19T08:34:11.855Z</time>
      </trkpt>
      <trkpt lat="43.27606667" lon="-4.42373167">
        <ele>180.0</ele>
        <time>2018-05-19T08:34:12.852Z</time>
      </trkpt>
      <trkpt lat="43.275995" lon="-4.42363333">
        <ele>180.0</ele>
        <time>2018-05-19T08:34:13.853Z</time>
      </trkpt>
      <trkpt lat="43.275995" lon="-4.42363333">
        <ele>180.0</ele>
        <time>2018-05-19T08:34:14.858Z</time>
      </trkpt>
      <trkpt lat="43.27593" lon="-4.42352833">
        <ele>181.0</ele>
        <time>2018-05-19T08:34:15.854Z</time>
      </trkpt>
      <trkpt lat="43.2759" lon="-4.42347167">
        <ele>181.0</ele>
        <time>2018-05-19T08:34:16.854Z</time>
      </trkpt>
      <trkpt lat="43.27587167" lon="-4.42341167">
        <ele>181.0</ele>
        <time>2018-05-19T08:34:17.863Z</time>
      </trkpt>
      <trkpt lat="43.27587167" lon="-4.42341167">
        <ele>181.0</ele>
        <time>2018-05-19T08:34:18.859Z</time>
      </trkpt>
      <trkpt lat="43.27581667" lon="-4.42328833">
        <ele>181.0</ele>
        <time>2018-05-19T08:34:19.857Z</time>
      </trkpt>
      <trkpt lat="43.27581667" lon="-4.42328833">
        <ele>181.0</ele>
        <time>2018-05-19T08:34:20.851Z</time>
      </trkpt>
      <trkpt lat="43.275765" lon="-4.423165">
        <ele>181.0</ele>
        <time>2018-05-19T08:34:21.856Z</time>
      </trkpt>
      <trkpt lat="43.27574" lon="-4.42310167">
        <ele>181.0</ele>
        <time>2018-05-19T08:34:22.856Z</time>
      </trkpt>
      <trkpt lat="43.27571667" lon="-4.42303667">
        <ele>181.0</ele>
        <time>2018-05-19T08:34:23.854Z</time>
      </trkpt>
      <trkpt lat="43.27571667" lon="-4.42303667">
        <ele>181.0</ele>
        <time>2018-05-19T08:34:24.852Z</time>
      </trkpt>
      <trkpt lat="43.27567" lon="-4.42290833">
        <ele>182.0</ele>
        <time>2018-05-19T08:34:25.855Z</time>
      </trkpt>
      <trkpt lat="43.27567" lon="-4.42290833">
        <ele>182.0</ele>
        <time>2018-05-19T08:34:26.853Z</time>
      </trkpt>
      <trkpt lat="43.27562667" lon="-4.42278">
        <ele>182.0</ele>
        <time>2018-05-19T08:34:27.855Z</time>
      </trkpt>
      <trkpt lat="43.275605" lon="-4.42271667">
        <ele>182.0</ele>
        <time>2018-05-19T08:34:28.856Z</time>
      </trkpt>
      <trkpt lat="43.27558167" lon="-4.42265333">
        <ele>182.0</ele>
        <time>2018-05-19T08:34:29.857Z</time>
      </trkpt>
      <trkpt lat="43.27558167" lon="-4.42265333">
        <ele>182.0</ele>
        <time>2018-05-19T08:34:30.853Z</time>
      </trkpt>
      <trkpt lat="43.27553833" lon="-4.42252333">
        <ele>182.0</ele>
        <time>2018-05-19T08:34:31.855Z</time>
      </trkpt>
      <trkpt lat="43.27553833" lon="-4.42252333">
        <ele>182.0</ele>
        <time>2018-05-19T08:34:32.853Z</time>
      </trkpt>
      <trkpt lat="43.27549333" lon="-4.422395">
        <ele>182.0</ele>
        <time>2018-05-19T08:34:33.856Z</time>
      </trkpt>
      <trkpt lat="43.27547" lon="-4.42233167">
        <ele>182.0</ele>
        <time>2018-05-19T08:34:34.855Z</time>
      </trkpt>
      <trkpt lat="43.27545" lon="-4.42226667">
        <ele>182.0</ele>
        <time>2018-05-19T08:34:35.858Z</time>
      </trkpt>
      <trkpt lat="43.27545" lon="-4.42226667">
        <ele>182.0</ele>
        <time>2018-05-19T08:34:36.853Z</time>
      </trkpt>
      <trkpt lat="43.27540667" lon="-4.42214833">
        <ele>183.0</ele>
        <time>2018-05-19T08:34:37.856Z</time>
      </trkpt>
      <trkpt lat="43.27540667" lon="-4.42214833">
        <ele>183.0</ele>
        <time>2018-05-19T08:34:38.853Z</time>
      </trkpt>
      <trkpt lat="43.27535167" lon="-4.42203667">
        <ele>183.0</ele>
        <time>2018-05-19T08:34:39.855Z</time>
      </trkpt>
      <trkpt lat="43.27535167" lon="-4.42203667">
        <ele>183.0</ele>
        <time>2018-05-19T08:34:40.852Z</time>
      </trkpt>
      <trkpt lat="43.27529167" lon="-4.42192833">
        <ele>184.0</ele>
        <time>2018-05-19T08:34:41.858Z</time>
      </trkpt>
      <trkpt lat="43.27529167" lon="-4.42192833">
        <ele>184.0</ele>
        <time>2018-05-19T08:34:42.878Z</time>
      </trkpt>
      <trkpt lat="43.27522833" lon="-4.42183">
        <ele>184.0</ele>
        <time>2018-05-19T08:34:43.862Z</time>
      </trkpt>
      <trkpt lat="43.27522833" lon="-4.42183">
        <ele>184.0</ele>
        <time>2018-05-19T08:34:44.854Z</time>
      </trkpt>
      <trkpt lat="43.27516167" lon="-4.42174167">
        <ele>185.0</ele>
        <time>2018-05-19T08:34:45.850Z</time>
      </trkpt>
      <trkpt lat="43.275125" lon="-4.42170167">
        <ele>185.0</ele>
        <time>2018-05-19T08:34:46.861Z</time>
      </trkpt>
      <trkpt lat="43.27508833" lon="-4.421665">
        <ele>185.0</ele>
        <time>2018-05-19T08:34:47.867Z</time>
      </trkpt>
      <trkpt lat="43.27508833" lon="-4.421665">
        <ele>185.0</ele>
        <time>2018-05-19T08:34:48.867Z</time>
      </trkpt>
      <trkpt lat="43.27501167" lon="-4.42158833">
        <ele>186.0</ele>
        <time>2018-05-19T08:34:49.871Z</time>
      </trkpt>
      <trkpt lat="43.27501167" lon="-4.42158833">
        <ele>186.0</ele>
        <time>2018-05-19T08:34:50.859Z</time>
      </trkpt>
      <trkpt lat="43.27493667" lon="-4.42152833">
        <ele>187.0</ele>
        <time>2018-05-19T08:34:51.856Z</time>
      </trkpt>
      <trkpt lat="43.27493667" lon="-4.42152833">
        <ele>187.0</ele>
        <time>2018-05-19T08:34:52.853Z</time>
      </trkpt>
      <trkpt lat="43.27486167" lon="-4.421475">
        <ele>187.0</ele>
        <time>2018-05-19T08:34:53.861Z</time>
      </trkpt>
      <trkpt lat="43.27486167" lon="-4.421475">
        <ele>187.0</ele>
        <time>2018-05-19T08:34:54.854Z</time>
      </trkpt>
      <trkpt lat="43.27479167" lon="-4.42142667">
        <ele>188.0</ele>
        <time>2018-05-19T08:34:55.855Z</time>
      </trkpt>
      <trkpt lat="43.27479167" lon="-4.42142667">
        <ele>188.0</ele>
        <time>2018-05-19T08:34:56.853Z</time>
      </trkpt>
      <trkpt lat="43.27472333" lon="-4.42138167">
        <ele>188.0</ele>
        <time>2018-05-19T08:34:57.855Z</time>
      </trkpt>
      <trkpt lat="43.27469" lon="-4.42136">
        <ele>189.0</ele>
        <time>2018-05-19T08:34:58.855Z</time>
      </trkpt>
      <trkpt lat="43.27465667" lon="-4.42134">
        <ele>189.0</ele>
        <time>2018-05-19T08:34:59.857Z</time>
      </trkpt>
      <trkpt lat="43.27465667" lon="-4.42134">
        <ele>189.0</ele>
        <time>2018-05-19T08:35:00.853Z</time>
      </trkpt>
      <trkpt lat="43.27459" lon="-4.42129833">
        <ele>190.0</ele>
        <time>2018-05-19T08:35:01.853Z</time>
      </trkpt>
      <trkpt lat="43.27459" lon="-4.42129833">
        <ele>190.0</ele>
        <time>2018-05-19T08:35:02.853Z</time>
      </trkpt>
      <trkpt lat="43.274525" lon="-4.42125667">
        <ele>190.0</ele>
        <time>2018-05-19T08:35:03.864Z</time>
      </trkpt>
      <trkpt lat="43.27449333" lon="-4.421235">
        <ele>190.0</ele>
        <time>2018-05-19T08:35:04.856Z</time>
      </trkpt>
      <trkpt lat="43.27449333" lon="-4.421235">
        <ele>190.0</ele>
        <time>2018-05-19T08:35:05.847Z</time>
      </trkpt>
      <trkpt lat="43.27442667" lon="-4.421195">
        <ele>191.0</ele>
        <time>2018-05-19T08:35:06.872Z</time>
      </trkpt>
      <trkpt lat="43.27442667" lon="-4.421195">
        <ele>191.0</ele>
        <time>2018-05-19T08:35:07.856Z</time>
      </trkpt>
      <trkpt lat="43.27436" lon="-4.42116">
        <ele>191.0</ele>
        <time>2018-05-19T08:35:08.869Z</time>
      </trkpt>
      <trkpt lat="43.27432667" lon="-4.42114167">
        <ele>191.0</ele>
        <time>2018-05-19T08:35:09.856Z</time>
      </trkpt>
      <trkpt lat="43.27432667" lon="-4.42114167">
        <ele>191.0</ele>
        <time>2018-05-19T08:35:10.853Z</time>
      </trkpt>
      <trkpt lat="43.27426167" lon="-4.42110333">
        <ele>192.0</ele>
        <time>2018-05-19T08:35:11.845Z</time>
      </trkpt>
      <trkpt lat="43.27426167" lon="-4.42110333">
        <ele>192.0</ele>
        <time>2018-05-19T08:35:12.871Z</time>
      </trkpt>
      <trkpt lat="43.274195" lon="-4.42106667">
        <ele>192.0</ele>
        <time>2018-05-19T08:35:13.854Z</time>
      </trkpt>
      <trkpt lat="43.274195" lon="-4.42106667">
        <ele>192.0</ele>
        <time>2018-05-19T08:35:14.853Z</time>
      </trkpt>
      <trkpt lat="43.27413167" lon="-4.421025">
        <ele>193.0</ele>
        <time>2018-05-19T08:35:15.856Z</time>
      </trkpt>
      <trkpt lat="43.27413167" lon="-4.421025">
        <ele>193.0</ele>
        <time>2018-05-19T08:35:16.853Z</time>
      </trkpt>
      <trkpt lat="43.27406833" lon="-4.42098667">
        <ele>193.0</ele>
        <time>2018-05-19T08:35:17.857Z</time>
      </trkpt>
      <trkpt lat="43.27406833" lon="-4.42098667">
        <ele>193.0</ele>
        <time>2018-05-19T08:35:18.851Z</time>
      </trkpt>
      <trkpt lat="43.27400333" lon="-4.42094833">
        <ele>194.0</ele>
        <time>2018-05-19T08:35:19.856Z</time>
      </trkpt>
      <trkpt lat="43.27400333" lon="-4.42094833">
        <ele>194.0</ele>
        <time>2018-05-19T08:35:20.853Z</time>
      </trkpt>
      <trkpt lat="43.27393833" lon="-4.42091167">
        <ele>194.0</ele>
        <time>2018-05-19T08:35:21.855Z</time>
      </trkpt>
      <trkpt lat="43.273905" lon="-4.42089167">
        <ele>194.0</ele>
        <time>2018-05-19T08:35:22.856Z</time>
      </trkpt>
      <trkpt lat="43.27387" lon="-4.42087333">
        <ele>194.0</ele>
        <time>2018-05-19T08:35:23.857Z</time>
      </trkpt>
      <trkpt lat="43.27387" lon="-4.42087333">
        <ele>194.0</ele>
        <time>2018-05-19T08:35:24.854Z</time>
      </trkpt>
      <trkpt lat="43.27380333" lon="-4.420835">
        <ele>195.0</ele>
        <time>2018-05-19T08:35:25.856Z</time>
      </trkpt>
      <trkpt lat="43.27380333" lon="-4.420835">
        <ele>195.0</ele>
        <time>2018-05-19T08:35:26.850Z</time>
      </trkpt>
      <trkpt lat="43.27373667" lon="-4.420795">
        <ele>195.0</ele>
        <time>2018-05-19T08:35:27.855Z</time>
      </trkpt>
      <trkpt lat="43.27373667" lon="-4.420795">
        <ele>195.0</ele>
        <time>2018-05-19T08:35:28.852Z</time>
      </trkpt>
      <trkpt lat="43.27367" lon="-4.420755">
        <ele>196.0</ele>
        <time>2018-05-19T08:35:29.857Z</time>
      </trkpt>
      <trkpt lat="43.27367" lon="-4.420755">
        <ele>196.0</ele>
        <time>2018-05-19T08:35:30.870Z</time>
      </trkpt>
      <trkpt lat="43.27360333" lon="-4.420715">
        <ele>196.0</ele>
        <time>2018-05-19T08:35:31.856Z</time>
      </trkpt>
      <trkpt lat="43.27360333" lon="-4.420715">
        <ele>196.0</ele>
        <time>2018-05-19T08:35:32.853Z</time>
      </trkpt>
      <trkpt lat="43.27354" lon="-4.42067167">
        <ele>196.0</ele>
        <time>2018-05-19T08:35:33.856Z</time>
      </trkpt>
      <trkpt lat="43.27350833" lon="-4.42064833">
        <ele>197.0</ele>
        <time>2018-05-19T08:35:34.855Z</time>
      </trkpt>
      <trkpt lat="43.27347667" lon="-4.42062333">
        <ele>197.0</ele>
        <time>2018-05-19T08:35:35.858Z</time>
      </trkpt>
      <trkpt lat="43.27347667" lon="-4.42062333">
        <ele>197.0</ele>
        <time>2018-05-19T08:35:36.853Z</time>
      </trkpt>
      <trkpt lat="43.27340833" lon="-4.42057167">
        <ele>197.0</ele>
        <time>2018-05-19T08:35:37.853Z</time>
      </trkpt>
      <trkpt lat="43.27337333" lon="-4.42054833">
        <ele>197.0</ele>
        <time>2018-05-19T08:35:38.856Z</time>
      </trkpt>
      <trkpt lat="43.27337333" lon="-4.42054833">
        <ele>197.0</ele>
        <time>2018-05-19T08:35:39.850Z</time>
      </trkpt>
      <trkpt lat="43.27330833" lon="-4.4205">
        <ele>197.0</ele>
        <time>2018-05-19T08:35:40.856Z</time>
      </trkpt>
      <trkpt lat="43.27327667" lon="-4.42047333">
        <ele>197.0</ele>
        <time>2018-05-19T08:35:41.873Z</time>
      </trkpt>
      <trkpt lat="43.27327667" lon="-4.42047333">
        <ele>197.0</ele>
        <time>2018-05-19T08:35:42.854Z</time>
      </trkpt>
      <trkpt lat="43.27321167" lon="-4.42041333">
        <ele>198.0</ele>
        <time>2018-05-19T08:35:43.856Z</time>
      </trkpt>
      <trkpt lat="43.27321167" lon="-4.42041333">
        <ele>198.0</ele>
        <time>2018-05-19T08:35:44.851Z</time>
      </trkpt>
      <trkpt lat="43.27314833" lon="-4.420355">
        <ele>198.0</ele>
        <time>2018-05-19T08:35:45.861Z</time>
      </trkpt>
      <trkpt lat="43.27314833" lon="-4.420355">
        <ele>198.0</ele>
        <time>2018-05-19T08:35:46.852Z</time>
      </trkpt>
      <trkpt lat="43.273085" lon="-4.42029333">
        <ele>199.0</ele>
        <time>2018-05-19T08:35:47.859Z</time>
      </trkpt>
      <trkpt lat="43.273055" lon="-4.42025833">
        <ele>199.0</ele>
        <time>2018-05-19T08:35:48.876Z</time>
      </trkpt>
      <trkpt lat="43.273025" lon="-4.42022333">
        <ele>199.0</ele>
        <time>2018-05-19T08:35:49.862Z</time>
      </trkpt>
      <trkpt lat="43.273025" lon="-4.42022333">
        <ele>199.0</ele>
        <time>2018-05-19T08:35:50.855Z</time>
      </trkpt>
      <trkpt lat="43.27297167" lon="-4.42014833">
        <ele>199.0</ele>
        <time>2018-05-19T08:35:51.855Z</time>
      </trkpt>
      <trkpt lat="43.27297167" lon="-4.42014833">
        <ele>199.0</ele>
        <time>2018-05-19T08:35:52.850Z</time>
      </trkpt>
      <trkpt lat="43.27292333" lon="-4.42006667">
        <ele>199.0</ele>
        <time>2018-05-19T08:35:53.855Z</time>
      </trkpt>
      <trkpt lat="43.27292333" lon="-4.42006667">
        <ele>199.0</ele>
        <time>2018-05-19T08:35:54.852Z</time>
      </trkpt>
      <trkpt lat="43.27287667" lon="-4.41998">
        <ele>200.0</ele>
        <time>2018-05-19T08:35:55.856Z</time>
      </trkpt>
      <trkpt lat="43.27287667" lon="-4.41998">
        <ele>200.0</ele>
        <time>2018-05-19T08:35:56.853Z</time>
      </trkpt>
      <trkpt lat="43.27283333" lon="-4.41989333">
        <ele>200.0</ele>
        <time>2018-05-19T08:35:57.855Z</time>
      </trkpt>
      <trkpt lat="43.27281333" lon="-4.41984833">
        <ele>200.0</ele>
        <time>2018-05-19T08:35:58.855Z</time>
      </trkpt>
      <trkpt lat="43.272795" lon="-4.41980167">
        <ele>200.0</ele>
        <time>2018-05-19T08:35:59.856Z</time>
      </trkpt>
      <trkpt lat="43.272795" lon="-4.41980167">
        <ele>200.0</ele>
        <time>2018-05-19T08:36:00.852Z</time>
      </trkpt>
      <trkpt lat="43.27276167" lon="-4.41970667">
        <ele>200.0</ele>
        <time>2018-05-19T08:36:01.856Z</time>
      </trkpt>
      <trkpt lat="43.27276167" lon="-4.41970667">
        <ele>200.0</ele>
        <time>2018-05-19T08:36:02.850Z</time>
      </trkpt>
      <trkpt lat="43.272725" lon="-4.41961">
        <ele>201.0</ele>
        <time>2018-05-19T08:36:03.855Z</time>
      </trkpt>
      <trkpt lat="43.27271" lon="-4.41955833">
        <ele>201.0</ele>
        <time>2018-05-19T08:36:04.856Z</time>
      </trkpt>
      <trkpt lat="43.27271" lon="-4.41955833">
        <ele>201.0</ele>
        <time>2018-05-19T08:36:05.855Z</time>
      </trkpt>
      <trkpt lat="43.27268167" lon="-4.41945333">
        <ele>201.0</ele>
        <time>2018-05-19T08:36:06.856Z</time>
      </trkpt>
      <trkpt lat="43.27267" lon="-4.41939833">
        <ele>201.0</ele>
        <time>2018-05-19T08:36:07.856Z</time>
      </trkpt>
      <trkpt lat="43.27267" lon="-4.41939833">
        <ele>201.0</ele>
        <time>2018-05-19T08:36:08.850Z</time>
      </trkpt>
      <trkpt lat="43.27265" lon="-4.41928333">
        <ele>201.0</ele>
        <time>2018-05-19T08:36:09.855Z</time>
      </trkpt>
      <trkpt lat="43.27263833" lon="-4.41922667">
        <ele>201.0</ele>
        <time>2018-05-19T08:36:10.856Z</time>
      </trkpt>
      <trkpt lat="43.27262833" lon="-4.41917">
        <ele>201.0</ele>
        <time>2018-05-19T08:36:11.858Z</time>
      </trkpt>
      <trkpt lat="43.27262833" lon="-4.41917">
        <ele>201.0</ele>
        <time>2018-05-19T08:36:12.851Z</time>
      </trkpt>
      <trkpt lat="43.27260667" lon="-4.41905167">
        <ele>202.0</ele>
        <time>2018-05-19T08:36:13.858Z</time>
      </trkpt>
      <trkpt lat="43.27260667" lon="-4.41905167">
        <ele>202.0</ele>
        <time>2018-05-19T08:36:14.853Z</time>
      </trkpt>
      <trkpt lat="43.27258833" lon="-4.41893167">
        <ele>202.0</ele>
        <time>2018-05-19T08:36:15.856Z</time>
      </trkpt>
      <trkpt lat="43.27257833" lon="-4.41887333">
        <ele>202.0</ele>
        <time>2018-05-19T08:36:16.855Z</time>
      </trkpt>
      <trkpt lat="43.27256667" lon="-4.41881333">
        <ele>202.0</ele>
        <time>2018-05-19T08:36:17.857Z</time>
      </trkpt>
      <trkpt lat="43.27256667" lon="-4.41881333">
        <ele>202.0</ele>
        <time>2018-05-19T08:36:18.865Z</time>
      </trkpt>
      <trkpt lat="43.272545" lon="-4.41869667">
        <ele>202.0</ele>
        <time>2018-05-19T08:36:19.856Z</time>
      </trkpt>
      <trkpt lat="43.272545" lon="-4.41869667">
        <ele>202.0</ele>
        <time>2018-05-19T08:36:20.853Z</time>
      </trkpt>
      <trkpt lat="43.27252333" lon="-4.41857667">
        <ele>202.0</ele>
        <time>2018-05-19T08:36:21.856Z</time>
      </trkpt>
      <trkpt lat="43.27252333" lon="-4.41857667">
        <ele>202.0</ele>
        <time>2018-05-19T08:36:22.853Z</time>
      </trkpt>
      <trkpt lat="43.27250167" lon="-4.418455">
        <ele>202.0</ele>
        <time>2018-05-19T08:36:23.857Z</time>
      </trkpt>
      <trkpt lat="43.27250167" lon="-4.418455">
        <ele>202.0</ele>
        <time>2018-05-19T08:36:24.853Z</time>
      </trkpt>
      <trkpt lat="43.27247667" lon="-4.41833667">
        <ele>203.0</ele>
        <time>2018-05-19T08:36:25.853Z</time>
      </trkpt>
      <trkpt lat="43.27247667" lon="-4.41833667">
        <ele>203.0</ele>
        <time>2018-05-19T08:36:26.853Z</time>
      </trkpt>
      <trkpt lat="43.27244333" lon="-4.41822">
        <ele>203.0</ele>
        <time>2018-05-19T08:36:27.855Z</time>
      </trkpt>
      <trkpt lat="43.272425" lon="-4.41816167">
        <ele>203.0</ele>
        <time>2018-05-19T08:36:28.856Z</time>
      </trkpt>
      <trkpt lat="43.272405" lon="-4.41810333">
        <ele>203.0</ele>
        <time>2018-05-19T08:36:29.857Z</time>
      </trkpt>
      <trkpt lat="43.272405" lon="-4.41810333">
        <ele>203.0</ele>
        <time>2018-05-19T08:36:30.850Z</time>
      </trkpt>
      <trkpt lat="43.27236167" lon="-4.41799">
        <ele>204.0</ele>
        <time>2018-05-19T08:36:31.877Z</time>
      </trkpt>
      <trkpt lat="43.27236167" lon="-4.41799">
        <ele>204.0</ele>
        <time>2018-05-19T08:36:32.863Z</time>
      </trkpt>
      <trkpt lat="43.27231833" lon="-4.41788333">
        <ele>204.0</ele>
        <time>2018-05-19T08:36:33.853Z</time>
      </trkpt>
      <trkpt lat="43.27231833" lon="-4.41788333">
        <ele>204.0</ele>
        <time>2018-05-19T08:36:34.850Z</time>
      </trkpt>
      <trkpt lat="43.27226667" lon="-4.41778167">
        <ele>205.0</ele>
        <time>2018-05-19T08:36:35.856Z</time>
      </trkpt>
      <trkpt lat="43.27226667" lon="-4.41778167">
        <ele>205.0</ele>
        <time>2018-05-19T08:36:36.854Z</time>
      </trkpt>
      <trkpt lat="43.272205" lon="-4.41768333">
        <ele>205.0</ele>
        <time>2018-05-19T08:36:37.853Z</time>
      </trkpt>
      <trkpt lat="43.272205" lon="-4.41768333">
        <ele>205.0</ele>
        <time>2018-05-19T08:36:38.878Z</time>
      </trkpt>
      <trkpt lat="43.27213833" lon="-4.41759167">
        <ele>206.0</ele>
        <time>2018-05-19T08:36:39.861Z</time>
      </trkpt>
      <trkpt lat="43.27210167" lon="-4.41754667">
        <ele>206.0</ele>
        <time>2018-05-19T08:36:40.856Z</time>
      </trkpt>
      <trkpt lat="43.27206333" lon="-4.417505">
        <ele>206.0</ele>
        <time>2018-05-19T08:36:41.857Z</time>
      </trkpt>
      <trkpt lat="43.27206333" lon="-4.417505">
        <ele>206.0</ele>
        <time>2018-05-19T08:36:42.855Z</time>
      </trkpt>
      <trkpt lat="43.271985" lon="-4.417425">
        <ele>206.0</ele>
        <time>2018-05-19T08:36:43.856Z</time>
      </trkpt>
      <trkpt lat="43.271985" lon="-4.417425">
        <ele>206.0</ele>
        <time>2018-05-19T08:36:44.854Z</time>
      </trkpt>
      <trkpt lat="43.271905" lon="-4.41735333">
        <ele>207.0</ele>
        <time>2018-05-19T08:36:45.853Z</time>
      </trkpt>
      <trkpt lat="43.271865" lon="-4.41731833">
        <ele>207.0</ele>
        <time>2018-05-19T08:36:46.872Z</time>
      </trkpt>
      <trkpt lat="43.27182333" lon="-4.417285">
        <ele>207.0</ele>
        <time>2018-05-19T08:36:47.878Z</time>
      </trkpt>
      <trkpt lat="43.27182333" lon="-4.417285">
        <ele>207.0</ele>
        <time>2018-05-19T08:36:48.853Z</time>
      </trkpt>
      <trkpt lat="43.27174" lon="-4.41722167">
        <ele>207.0</ele>
        <time>2018-05-19T08:36:49.856Z</time>
      </trkpt>
      <trkpt lat="43.27174" lon="-4.41722167">
        <ele>207.0</ele>
        <time>2018-05-19T08:36:50.853Z</time>
      </trkpt>
      <trkpt lat="43.271655" lon="-4.41716167">
        <ele>207.0</ele>
        <time>2018-05-19T08:36:51.854Z</time>
      </trkpt>
      <trkpt lat="43.27161167" lon="-4.41713167">
        <ele>208.0</ele>
        <time>2018-05-19T08:36:52.855Z</time>
      </trkpt>
      <trkpt lat="43.27161167" lon="-4.41713167">
        <ele>208.0</ele>
        <time>2018-05-19T08:36:53.855Z</time>
      </trkpt>
      <trkpt lat="43.27152667" lon="-4.417075">
        <ele>208.0</ele>
        <time>2018-05-19T08:36:54.855Z</time>
      </trkpt>
      <trkpt lat="43.27148333" lon="-4.41704667">
        <ele>208.0</ele>
        <time>2018-05-19T08:36:55.856Z</time>
      </trkpt>
      <trkpt lat="43.27148333" lon="-4.41704667">
        <ele>208.0</ele>
        <time>2018-05-19T08:36:56.850Z</time>
      </trkpt>
      <trkpt lat="43.271395" lon="-4.416995">
        <ele>209.0</ele>
        <time>2018-05-19T08:36:57.855Z</time>
      </trkpt>
      <trkpt lat="43.271395" lon="-4.416995">
        <ele>209.0</ele>
        <time>2018-05-19T08:36:58.852Z</time>
      </trkpt>
      <trkpt lat="43.27130667" lon="-4.41694333">
        <ele>209.0</ele>
        <time>2018-05-19T08:36:59.857Z</time>
      </trkpt>
      <trkpt lat="43.27130667" lon="-4.41694333">
        <ele>209.0</ele>
        <time>2018-05-19T08:37:00.850Z</time>
      </trkpt>
      <trkpt lat="43.27121667" lon="-4.41689667">
        <ele>209.0</ele>
        <time>2018-05-19T08:37:01.855Z</time>
      </trkpt>
      <trkpt lat="43.27121667" lon="-4.41689667">
        <ele>209.0</ele>
        <time>2018-05-19T08:37:02.852Z</time>
      </trkpt>
      <trkpt lat="43.27112667" lon="-4.41685">
        <ele>210.0</ele>
        <time>2018-05-19T08:37:03.855Z</time>
      </trkpt>
      <trkpt lat="43.27108" lon="-4.41682667">
        <ele>210.0</ele>
        <time>2018-05-19T08:37:04.855Z</time>
      </trkpt>
      <trkpt lat="43.27108" lon="-4.41682667">
        <ele>210.0</ele>
        <time>2018-05-19T08:37:05.850Z</time>
      </trkpt>
      <trkpt lat="43.27099167" lon="-4.41677667">
        <ele>210.0</ele>
        <time>2018-05-19T08:37:06.854Z</time>
      </trkpt>
      <trkpt lat="43.27094833" lon="-4.41675">
        <ele>210.0</ele>
        <time>2018-05-19T08:37:07.857Z</time>
      </trkpt>
      <trkpt lat="43.27094833" lon="-4.41675">
        <ele>210.0</ele>
        <time>2018-05-19T08:37:08.853Z</time>
      </trkpt>
      <trkpt lat="43.27086" lon="-4.41669667">
        <ele>211.0</ele>
        <time>2018-05-19T08:37:09.856Z</time>
      </trkpt>
      <trkpt lat="43.27086" lon="-4.41669667">
        <ele>211.0</ele>
        <time>2018-05-19T08:37:10.851Z</time>
      </trkpt>
      <trkpt lat="43.27077167" lon="-4.41664667">
        <ele>211.0</ele>
        <time>2018-05-19T08:37:11.854Z</time>
      </trkpt>
      <trkpt lat="43.27077167" lon="-4.41664667">
        <ele>211.0</ele>
        <time>2018-05-19T08:37:12.853Z</time>
      </trkpt>
      <trkpt lat="43.270685" lon="-4.41659167">
        <ele>211.0</ele>
        <time>2018-05-19T08:37:13.869Z</time>
      </trkpt>
      <trkpt lat="43.270685" lon="-4.41659167">
        <ele>211.0</ele>
        <time>2018-05-19T08:37:14.855Z</time>
      </trkpt>
      <trkpt lat="43.27059833" lon="-4.41654">
        <ele>212.0</ele>
        <time>2018-05-19T08:37:15.851Z</time>
      </trkpt>
      <trkpt lat="43.27055333" lon="-4.41651333">
        <ele>212.0</ele>
        <time>2018-05-19T08:37:16.876Z</time>
      </trkpt>
      <trkpt lat="43.27055333" lon="-4.41651333">
        <ele>212.0</ele>
        <time>2018-05-19T08:37:17.861Z</time>
      </trkpt>
      <trkpt lat="43.27046333" lon="-4.416465">
        <ele>212.0</ele>
        <time>2018-05-19T08:37:18.874Z</time>
      </trkpt>
      <trkpt lat="43.27041833" lon="-4.41644167">
        <ele>212.0</ele>
        <time>2018-05-19T08:37:19.859Z</time>
      </trkpt>
      <trkpt lat="43.27041833" lon="-4.41644167">
        <ele>212.0</ele>
        <time>2018-05-19T08:37:20.855Z</time>
      </trkpt>
      <trkpt lat="43.27032833" lon="-4.416395">
        <ele>213.0</ele>
        <time>2018-05-19T08:37:21.854Z</time>
      </trkpt>
      <trkpt lat="43.27032833" lon="-4.416395">
        <ele>213.0</ele>
        <time>2018-05-19T08:37:22.851Z</time>
      </trkpt>
      <trkpt lat="43.27023833" lon="-4.41634833">
        <ele>213.0</ele>
        <time>2018-05-19T08:37:23.857Z</time>
      </trkpt>
      <trkpt lat="43.27023833" lon="-4.41634833">
        <ele>213.0</ele>
        <time>2018-05-19T08:37:24.851Z</time>
      </trkpt>
      <trkpt lat="43.27015167" lon="-4.416295">
        <ele>213.0</ele>
        <time>2018-05-19T08:37:25.857Z</time>
      </trkpt>
      <trkpt lat="43.27015167" lon="-4.416295">
        <ele>213.0</ele>
        <time>2018-05-19T08:37:26.851Z</time>
      </trkpt>
      <trkpt lat="43.27006167" lon="-4.416255">
        <ele>213.0</ele>
        <time>2018-05-19T08:37:27.855Z</time>
      </trkpt>
      <trkpt lat="43.27001667" lon="-4.41623667">
        <ele>214.0</ele>
        <time>2018-05-19T08:37:28.854Z</time>
      </trkpt>
      <trkpt lat="43.26997333" lon="-4.41621667">
        <ele>214.0</ele>
        <time>2018-05-19T08:37:29.858Z</time>
      </trkpt>
      <trkpt lat="43.26997333" lon="-4.41621667">
        <ele>214.0</ele>
        <time>2018-05-19T08:37:30.863Z</time>
      </trkpt>
      <trkpt lat="43.269885" lon="-4.41617667">
        <ele>214.0</ele>
        <time>2018-05-19T08:37:31.855Z</time>
      </trkpt>
      <trkpt lat="43.269885" lon="-4.41617667">
        <ele>214.0</ele>
        <time>2018-05-19T08:37:32.851Z</time>
      </trkpt>
      <trkpt lat="43.26979833" lon="-4.41613667">
        <ele>214.0</ele>
        <time>2018-05-19T08:37:33.855Z</time>
      </trkpt>
      <trkpt lat="43.26979833" lon="-4.41613667">
        <ele>214.0</ele>
        <time>2018-05-19T08:37:34.851Z</time>
      </trkpt>
      <trkpt lat="43.26971333" lon="-4.4161">
        <ele>215.0</ele>
        <time>2018-05-19T08:37:35.856Z</time>
      </trkpt>
      <trkpt lat="43.26971333" lon="-4.4161">
        <ele>215.0</ele>
        <time>2018-05-19T08:37:36.851Z</time>
      </trkpt>
      <trkpt lat="43.26963" lon="-4.41606333">
        <ele>215.0</ele>
        <time>2018-05-19T08:37:37.856Z</time>
      </trkpt>
      <trkpt lat="43.26963" lon="-4.41606333">
        <ele>215.0</ele>
        <time>2018-05-19T08:37:38.856Z</time>
      </trkpt>
      <trkpt lat="43.26954833" lon="-4.41602167">
        <ele>216.0</ele>
        <time>2018-05-19T08:37:39.852Z</time>
      </trkpt>
      <trkpt lat="43.26950667" lon="-4.41600167">
        <ele>216.0</ele>
        <time>2018-05-19T08:37:40.855Z</time>
      </trkpt>
      <trkpt lat="43.26946667" lon="-4.41598167">
        <ele>216.0</ele>
        <time>2018-05-19T08:37:41.873Z</time>
      </trkpt>
      <trkpt lat="43.26946667" lon="-4.41598167">
        <ele>216.0</ele>
        <time>2018-05-19T08:37:42.853Z</time>
      </trkpt>
      <trkpt lat="43.269385" lon="-4.41593833">
        <ele>216.0</ele>
        <time>2018-05-19T08:37:43.855Z</time>
      </trkpt>
      <trkpt lat="43.269385" lon="-4.41593833">
        <ele>216.0</ele>
        <time>2018-05-19T08:37:44.849Z</time>
      </trkpt>
      <trkpt lat="43.26930333" lon="-4.41589667">
        <ele>217.0</ele>
        <time>2018-05-19T08:37:45.852Z</time>
      </trkpt>
      <trkpt lat="43.269265" lon="-4.41587167">
        <ele>217.0</ele>
        <time>2018-05-19T08:37:46.844Z</time>
      </trkpt>
      <trkpt lat="43.269225" lon="-4.41585">
        <ele>217.0</ele>
        <time>2018-05-19T08:37:47.851Z</time>
      </trkpt>
      <trkpt lat="43.269225" lon="-4.41585">
        <ele>217.0</ele>
        <time>2018-05-19T08:37:48.875Z</time>
      </trkpt>
      <trkpt lat="43.26914333" lon="-4.41581167">
        <ele>217.0</ele>
        <time>2018-05-19T08:37:49.859Z</time>
      </trkpt>
      <trkpt lat="43.26914333" lon="-4.41581167">
        <ele>217.0</ele>
        <time>2018-05-19T08:37:50.852Z</time>
      </trkpt>
      <trkpt lat="43.26906" lon="-4.41576667">
        <ele>217.0</ele>
        <time>2018-05-19T08:37:51.855Z</time>
      </trkpt>
      <trkpt lat="43.26906" lon="-4.41576667">
        <ele>217.0</ele>
        <time>2018-05-19T08:37:52.853Z</time>
      </trkpt>
      <trkpt lat="43.26898" lon="-4.415715">
        <ele>217.0</ele>
        <time>2018-05-19T08:37:53.856Z</time>
      </trkpt>
      <trkpt lat="43.26898" lon="-4.415715">
        <ele>217.0</ele>
        <time>2018-05-19T08:37:54.850Z</time>
      </trkpt>
      <trkpt lat="43.26889667" lon="-4.41565167">
        <ele>217.0</ele>
        <time>2018-05-19T08:37:55.857Z</time>
      </trkpt>
      <trkpt lat="43.26889667" lon="-4.41565167">
        <ele>217.0</ele>
        <time>2018-05-19T08:37:56.853Z</time>
      </trkpt>
      <trkpt lat="43.26881667" lon="-4.41558">
        <ele>217.0</ele>
        <time>2018-05-19T08:37:57.853Z</time>
      </trkpt>
      <trkpt lat="43.26881667" lon="-4.41558">
        <ele>217.0</ele>
        <time>2018-05-19T08:37:58.860Z</time>
      </trkpt>
      <trkpt lat="43.26874" lon="-4.415495">
        <ele>218.0</ele>
        <time>2018-05-19T08:37:59.855Z</time>
      </trkpt>
      <trkpt lat="43.26874" lon="-4.415495">
        <ele>218.0</ele>
        <time>2018-05-19T08:38:00.853Z</time>
      </trkpt>
      <trkpt lat="43.26866667" lon="-4.4154">
        <ele>217.0</ele>
        <time>2018-05-19T08:38:01.855Z</time>
      </trkpt>
      <trkpt lat="43.26866667" lon="-4.4154">
        <ele>217.0</ele>
        <time>2018-05-19T08:38:02.851Z</time>
      </trkpt>
      <trkpt lat="43.26859667" lon="-4.41529167">
        <ele>217.0</ele>
        <time>2018-05-19T08:38:03.855Z</time>
      </trkpt>
      <trkpt lat="43.26859667" lon="-4.41529167">
        <ele>217.0</ele>
        <time>2018-05-19T08:38:04.853Z</time>
      </trkpt>
      <trkpt lat="43.26853333" lon="-4.415175">
        <ele>217.0</ele>
        <time>2018-05-19T08:38:05.849Z</time>
      </trkpt>
      <trkpt lat="43.26853333" lon="-4.415175">
        <ele>217.0</ele>
        <time>2018-05-19T08:38:06.852Z</time>
      </trkpt>
      <trkpt lat="43.26847833" lon="-4.41504833">
        <ele>217.0</ele>
        <time>2018-05-19T08:38:07.856Z</time>
      </trkpt>
      <trkpt lat="43.26847833" lon="-4.41504833">
        <ele>217.0</ele>
        <time>2018-05-19T08:38:08.852Z</time>
      </trkpt>
      <trkpt lat="43.26843333" lon="-4.41491333">
        <ele>217.0</ele>
        <time>2018-05-19T08:38:09.855Z</time>
      </trkpt>
      <trkpt lat="43.268415" lon="-4.41484167">
        <ele>217.0</ele>
        <time>2018-05-19T08:38:10.855Z</time>
      </trkpt>
      <trkpt lat="43.26840333" lon="-4.41476833">
        <ele>217.0</ele>
        <time>2018-05-19T08:38:11.854Z</time>
      </trkpt>
      <trkpt lat="43.26840333" lon="-4.41476833">
        <ele>217.0</ele>
        <time>2018-05-19T08:38:12.853Z</time>
      </trkpt>
      <trkpt lat="43.26839" lon="-4.41461833">
        <ele>216.0</ele>
        <time>2018-05-19T08:38:13.857Z</time>
      </trkpt>
      <trkpt lat="43.26839" lon="-4.41461833">
        <ele>216.0</ele>
        <time>2018-05-19T08:38:14.853Z</time>
      </trkpt>
      <trkpt lat="43.26838167" lon="-4.41446167">
        <ele>217.0</ele>
        <time>2018-05-19T08:38:15.857Z</time>
      </trkpt>
      <trkpt lat="43.26838167" lon="-4.41446167">
        <ele>217.0</ele>
        <time>2018-05-19T08:38:16.853Z</time>
      </trkpt>
      <trkpt lat="43.26838167" lon="-4.41431">
        <ele>217.0</ele>
        <time>2018-05-19T08:38:17.858Z</time>
      </trkpt>
      <trkpt lat="43.26838167" lon="-4.41431">
        <ele>217.0</ele>
        <time>2018-05-19T08:38:18.851Z</time>
      </trkpt>
      <trkpt lat="43.26838667" lon="-4.41416167">
        <ele>217.0</ele>
        <time>2018-05-19T08:38:19.855Z</time>
      </trkpt>
      <trkpt lat="43.26838667" lon="-4.41416167">
        <ele>217.0</ele>
        <time>2018-05-19T08:38:20.864Z</time>
      </trkpt>
      <trkpt lat="43.26839667" lon="-4.41401833">
        <ele>217.0</ele>
        <time>2018-05-19T08:38:21.856Z</time>
      </trkpt>
      <trkpt lat="43.26839667" lon="-4.41401833">
        <ele>217.0</ele>
        <time>2018-05-19T08:38:22.850Z</time>
      </trkpt>
      <trkpt lat="43.26840333" lon="-4.41387833">
        <ele>217.0</ele>
        <time>2018-05-19T08:38:23.856Z</time>
      </trkpt>
      <trkpt lat="43.26840333" lon="-4.41387833">
        <ele>217.0</ele>
        <time>2018-05-19T08:38:24.852Z</time>
      </trkpt>
      <trkpt lat="43.26840667" lon="-4.41374333">
        <ele>218.0</ele>
        <time>2018-05-19T08:38:25.857Z</time>
      </trkpt>
      <trkpt lat="43.26840667" lon="-4.41374333">
        <ele>218.0</ele>
        <time>2018-05-19T08:38:26.853Z</time>
      </trkpt>
      <trkpt lat="43.26840667" lon="-4.41360667">
        <ele>218.0</ele>
        <time>2018-05-19T08:38:27.855Z</time>
      </trkpt>
      <trkpt lat="43.26840667" lon="-4.41360667">
        <ele>218.0</ele>
        <time>2018-05-19T08:38:28.853Z</time>
      </trkpt>
      <trkpt lat="43.26840167" lon="-4.41347167">
        <ele>219.0</ele>
        <time>2018-05-19T08:38:29.857Z</time>
      </trkpt>
      <trkpt lat="43.26840167" lon="-4.41347167">
        <ele>219.0</ele>
        <time>2018-05-19T08:38:30.853Z</time>
      </trkpt>
      <trkpt lat="43.26837667" lon="-4.41334333">
        <ele>219.0</ele>
        <time>2018-05-19T08:38:31.856Z</time>
      </trkpt>
      <trkpt lat="43.26837667" lon="-4.41334333">
        <ele>219.0</ele>
        <time>2018-05-19T08:38:32.853Z</time>
      </trkpt>
      <trkpt lat="43.26833333" lon="-4.41322167">
        <ele>219.0</ele>
        <time>2018-05-19T08:38:33.856Z</time>
      </trkpt>
      <trkpt lat="43.26833333" lon="-4.41322167">
        <ele>219.0</ele>
        <time>2018-05-19T08:38:34.853Z</time>
      </trkpt>
      <trkpt lat="43.26828167" lon="-4.41310667">
        <ele>219.0</ele>
        <time>2018-05-19T08:38:35.856Z</time>
      </trkpt>
      <trkpt lat="43.26828167" lon="-4.41310667">
        <ele>219.0</ele>
        <time>2018-05-19T08:38:36.850Z</time>
      </trkpt>
      <trkpt lat="43.26822833" lon="-4.41299833">
        <ele>220.0</ele>
        <time>2018-05-19T08:38:37.857Z</time>
      </trkpt>
      <trkpt lat="43.26822833" lon="-4.41299833">
        <ele>220.0</ele>
        <time>2018-05-19T08:38:38.851Z</time>
      </trkpt>
      <trkpt lat="43.26817333" lon="-4.41289167">
        <ele>220.0</ele>
        <time>2018-05-19T08:38:39.855Z</time>
      </trkpt>
      <trkpt lat="43.26817333" lon="-4.41289167">
        <ele>220.0</ele>
        <time>2018-05-19T08:38:40.849Z</time>
      </trkpt>
      <trkpt lat="43.26811667" lon="-4.41278333">
        <ele>220.0</ele>
        <time>2018-05-19T08:38:41.856Z</time>
      </trkpt>
      <trkpt lat="43.26811667" lon="-4.41278333">
        <ele>220.0</ele>
        <time>2018-05-19T08:38:42.852Z</time>
      </trkpt>
      <trkpt lat="43.26805667" lon="-4.41267833">
        <ele>220.0</ele>
        <time>2018-05-19T08:38:43.844Z</time>
      </trkpt>
      <trkpt lat="43.26805667" lon="-4.41267833">
        <ele>220.0</ele>
        <time>2018-05-19T08:38:44.865Z</time>
      </trkpt>
      <trkpt lat="43.26799333" lon="-4.41257667">
        <ele>221.0</ele>
        <time>2018-05-19T08:38:45.844Z</time>
      </trkpt>
      <trkpt lat="43.26795833" lon="-4.41252667">
        <ele>221.0</ele>
        <time>2018-05-19T08:38:46.858Z</time>
      </trkpt>
      <trkpt lat="43.26795833" lon="-4.41252667">
        <ele>221.0</ele>
        <time>2018-05-19T08:38:47.863Z</time>
      </trkpt>
      <trkpt lat="43.26788167" lon="-4.412435">
        <ele>221.0</ele>
        <time>2018-05-19T08:38:48.862Z</time>
      </trkpt>
      <trkpt lat="43.26788167" lon="-4.412435">
        <ele>221.0</ele>
        <time>2018-05-19T08:38:49.854Z</time>
      </trkpt>
      <trkpt lat="43.26779" lon="-4.412375">
        <ele>221.0</ele>
        <time>2018-05-19T08:38:50.858Z</time>
      </trkpt>
      <trkpt lat="43.26779" lon="-4.412375">
        <ele>221.0</ele>
        <time>2018-05-19T08:38:51.852Z</time>
      </trkpt>
      <trkpt lat="43.26768667" lon="-4.41237667">
        <ele>221.0</ele>
        <time>2018-05-19T08:38:52.855Z</time>
      </trkpt>
      <trkpt lat="43.26763833" lon="-4.41240833">
        <ele>220.0</ele>
        <time>2018-05-19T08:38:53.861Z</time>
      </trkpt>
      <trkpt lat="43.26763833" lon="-4.41240833">
        <ele>220.0</ele>
        <time>2018-05-19T08:38:54.850Z</time>
      </trkpt>
      <trkpt lat="43.267565" lon="-4.41251333">
        <ele>220.0</ele>
        <time>2018-05-19T08:38:55.856Z</time>
      </trkpt>
      <trkpt lat="43.267565" lon="-4.41251333">
        <ele>220.0</ele>
        <time>2018-05-19T08:38:56.855Z</time>
      </trkpt>
      <trkpt lat="43.26752833" lon="-4.41264667">
        <ele>220.0</ele>
        <time>2018-05-19T08:38:57.858Z</time>
      </trkpt>
      <trkpt lat="43.26752833" lon="-4.41264667">
        <ele>220.0</ele>
        <time>2018-05-19T08:38:58.851Z</time>
      </trkpt>
      <trkpt lat="43.26752167" lon="-4.41277833">
        <ele>220.0</ele>
        <time>2018-05-19T08:38:59.856Z</time>
      </trkpt>
      <trkpt lat="43.26752167" lon="-4.41277833">
        <ele>220.0</ele>
        <time>2018-05-19T08:39:00.854Z</time>
      </trkpt>
      <trkpt lat="43.26752333" lon="-4.41290167">
        <ele>221.0</ele>
        <time>2018-05-19T08:39:01.856Z</time>
      </trkpt>
      <trkpt lat="43.26752333" lon="-4.41290167">
        <ele>221.0</ele>
        <time>2018-05-19T08:39:02.851Z</time>
      </trkpt>
      <trkpt lat="43.26753833" lon="-4.41302">
        <ele>222.0</ele>
        <time>2018-05-19T08:39:03.854Z</time>
      </trkpt>
      <trkpt lat="43.26753833" lon="-4.41302">
        <ele>222.0</ele>
        <time>2018-05-19T08:39:04.854Z</time>
      </trkpt>
      <trkpt lat="43.26755167" lon="-4.41313667">
        <ele>222.0</ele>
        <time>2018-05-19T08:39:05.850Z</time>
      </trkpt>
      <trkpt lat="43.26755167" lon="-4.41313667">
        <ele>222.0</ele>
        <time>2018-05-19T08:39:06.852Z</time>
      </trkpt>
      <trkpt lat="43.26756667" lon="-4.41324667">
        <ele>223.0</ele>
        <time>2018-05-19T08:39:07.855Z</time>
      </trkpt>
      <trkpt lat="43.26756667" lon="-4.41324667">
        <ele>223.0</ele>
        <time>2018-05-19T08:39:08.852Z</time>
      </trkpt>
      <trkpt lat="43.26757833" lon="-4.413355">
        <ele>223.0</ele>
        <time>2018-05-19T08:39:09.855Z</time>
      </trkpt>
      <trkpt lat="43.26757833" lon="-4.413355">
        <ele>223.0</ele>
        <time>2018-05-19T08:39:10.851Z</time>
      </trkpt>
      <trkpt lat="43.26758833" lon="-4.41346167">
        <ele>224.0</ele>
        <time>2018-05-19T08:39:11.856Z</time>
      </trkpt>
      <trkpt lat="43.26758833" lon="-4.41346167">
        <ele>224.0</ele>
        <time>2018-05-19T08:39:12.855Z</time>
      </trkpt>
      <trkpt lat="43.26759333" lon="-4.41356167">
        <ele>224.0</ele>
        <time>2018-05-19T08:39:13.878Z</time>
      </trkpt>
      <trkpt lat="43.26759333" lon="-4.41356167">
        <ele>224.0</ele>
        <time>2018-05-19T08:39:14.864Z</time>
      </trkpt>
      <trkpt lat="43.26759" lon="-4.41366333">
        <ele>225.0</ele>
        <time>2018-05-19T08:39:15.854Z</time>
      </trkpt>
      <trkpt lat="43.26758333" lon="-4.41371167">
        <ele>225.0</ele>
        <time>2018-05-19T08:39:16.859Z</time>
      </trkpt>
      <trkpt lat="43.26757167" lon="-4.41375833">
        <ele>225.0</ele>
        <time>2018-05-19T08:39:17.857Z</time>
      </trkpt>
      <trkpt lat="43.26757167" lon="-4.41375833">
        <ele>225.0</ele>
        <time>2018-05-19T08:39:18.851Z</time>
      </trkpt>
      <trkpt lat="43.26754167" lon="-4.413845">
        <ele>226.0</ele>
        <time>2018-05-19T08:39:19.854Z</time>
      </trkpt>
      <trkpt lat="43.26754167" lon="-4.413845">
        <ele>226.0</ele>
        <time>2018-05-19T08:39:20.852Z</time>
      </trkpt>
      <trkpt lat="43.26750333" lon="-4.41392667">
        <ele>226.0</ele>
        <time>2018-05-19T08:39:21.854Z</time>
      </trkpt>
      <trkpt lat="43.26750333" lon="-4.41392667">
        <ele>226.0</ele>
        <time>2018-05-19T08:39:22.849Z</time>
      </trkpt>
      <trkpt lat="43.26746167" lon="-4.41400333">
        <ele>227.0</ele>
        <time>2018-05-19T08:39:23.867Z</time>
      </trkpt>
      <trkpt lat="43.26743833" lon="-4.41404">
        <ele>227.0</ele>
        <time>2018-05-19T08:39:24.856Z</time>
      </trkpt>
      <trkpt lat="43.267415" lon="-4.41407833">
        <ele>228.0</ele>
        <time>2018-05-19T08:39:25.855Z</time>
      </trkpt>
      <trkpt lat="43.267415" lon="-4.41407833">
        <ele>228.0</ele>
        <time>2018-05-19T08:39:26.852Z</time>
      </trkpt>
      <trkpt lat="43.26736833" lon="-4.41415">
        <ele>228.0</ele>
        <time>2018-05-19T08:39:27.855Z</time>
      </trkpt>
      <trkpt lat="43.26736833" lon="-4.41415">
        <ele>228.0</ele>
        <time>2018-05-19T08:39:28.856Z</time>
      </trkpt>
      <trkpt lat="43.26732" lon="-4.41422333">
        <ele>229.0</ele>
        <time>2018-05-19T08:39:29.849Z</time>
      </trkpt>
      <trkpt lat="43.26732" lon="-4.41422333">
        <ele>229.0</ele>
        <time>2018-05-19T08:39:30.874Z</time>
      </trkpt>
      <trkpt lat="43.26727667" lon="-4.41430167">
        <ele>230.0</ele>
        <time>2018-05-19T08:39:31.862Z</time>
      </trkpt>
      <trkpt lat="43.26727667" lon="-4.41430167">
        <ele>230.0</ele>
        <time>2018-05-19T08:39:32.852Z</time>
      </trkpt>
      <trkpt lat="43.267235" lon="-4.41439">
        <ele>230.0</ele>
        <time>2018-05-19T08:39:33.855Z</time>
      </trkpt>
      <trkpt lat="43.267235" lon="-4.41439">
        <ele>230.0</ele>
        <time>2018-05-19T08:39:34.850Z</time>
      </trkpt>
      <trkpt lat="43.267195" lon="-4.41447833">
        <ele>231.0</ele>
        <time>2018-05-19T08:39:35.856Z</time>
      </trkpt>
      <trkpt lat="43.267195" lon="-4.41447833">
        <ele>231.0</ele>
        <time>2018-05-19T08:39:36.854Z</time>
      </trkpt>
      <trkpt lat="43.26715667" lon="-4.41457333">
        <ele>231.0</ele>
        <time>2018-05-19T08:39:37.853Z</time>
      </trkpt>
      <trkpt lat="43.26715667" lon="-4.41457333">
        <ele>231.0</ele>
        <time>2018-05-19T08:39:38.877Z</time>
      </trkpt>
      <trkpt lat="43.26712" lon="-4.41467333">
        <ele>231.0</ele>
        <time>2018-05-19T08:39:39.861Z</time>
      </trkpt>
      <trkpt lat="43.26710167" lon="-4.41472167">
        <ele>231.0</ele>
        <time>2018-05-19T08:39:40.854Z</time>
      </trkpt>
      <trkpt lat="43.26708333" lon="-4.41477167">
        <ele>231.0</ele>
        <time>2018-05-19T08:39:41.855Z</time>
      </trkpt>
      <trkpt lat="43.26708333" lon="-4.41477167">
        <ele>231.0</ele>
        <time>2018-05-19T08:39:42.871Z</time>
      </trkpt>
      <trkpt lat="43.267045" lon="-4.41487">
        <ele>232.0</ele>
        <time>2018-05-19T08:39:43.855Z</time>
      </trkpt>
      <trkpt lat="43.267045" lon="-4.41487">
        <ele>232.0</ele>
        <time>2018-05-19T08:39:44.853Z</time>
      </trkpt>
      <trkpt lat="43.267" lon="-4.41496333">
        <ele>232.0</ele>
        <time>2018-05-19T08:39:45.850Z</time>
      </trkpt>
      <trkpt lat="43.26697667" lon="-4.41501">
        <ele>232.0</ele>
        <time>2018-05-19T08:39:46.854Z</time>
      </trkpt>
      <trkpt lat="43.26695333" lon="-4.41505667">
        <ele>232.0</ele>
        <time>2018-05-19T08:39:47.861Z</time>
      </trkpt>
      <trkpt lat="43.26695333" lon="-4.41505667">
        <ele>232.0</ele>
        <time>2018-05-19T08:39:48.872Z</time>
      </trkpt>
      <trkpt lat="43.26689833" lon="-4.41515">
        <ele>232.0</ele>
        <time>2018-05-19T08:39:49.867Z</time>
      </trkpt>
      <trkpt lat="43.26689833" lon="-4.41515">
        <ele>232.0</ele>
        <time>2018-05-19T08:39:50.852Z</time>
      </trkpt>
      <trkpt lat="43.26683167" lon="-4.41524">
        <ele>231.0</ele>
        <time>2018-05-19T08:39:51.852Z</time>
      </trkpt>
      <trkpt lat="43.266795" lon="-4.41528667">
        <ele>231.0</ele>
        <time>2018-05-19T08:39:52.855Z</time>
      </trkpt>
      <trkpt lat="43.266795" lon="-4.41528667">
        <ele>231.0</ele>
        <time>2018-05-19T08:39:53.853Z</time>
      </trkpt>
      <trkpt lat="43.26671333" lon="-4.415375">
        <ele>231.0</ele>
        <time>2018-05-19T08:39:54.854Z</time>
      </trkpt>
      <trkpt lat="43.26666667" lon="-4.41541833">
        <ele>231.0</ele>
        <time>2018-05-19T08:39:55.866Z</time>
      </trkpt>
      <trkpt lat="43.26666667" lon="-4.41541833">
        <ele>231.0</ele>
        <time>2018-05-19T08:39:56.854Z</time>
      </trkpt>
      <trkpt lat="43.266565" lon="-4.4155">
        <ele>230.0</ele>
        <time>2018-05-19T08:39:57.854Z</time>
      </trkpt>
      <trkpt lat="43.266565" lon="-4.4155">
        <ele>230.0</ele>
        <time>2018-05-19T08:39:58.852Z</time>
      </trkpt>
      <trkpt lat="43.26645167" lon="-4.41558667">
        <ele>230.0</ele>
        <time>2018-05-19T08:39:59.857Z</time>
      </trkpt>
      <trkpt lat="43.26645167" lon="-4.41558667">
        <ele>230.0</ele>
        <time>2018-05-19T08:40:00.864Z</time>
      </trkpt>
      <trkpt lat="43.26632667" lon="-4.41568167">
        <ele>229.0</ele>
        <time>2018-05-19T08:40:01.861Z</time>
      </trkpt>
      <trkpt lat="43.26632667" lon="-4.41568167">
        <ele>229.0</ele>
        <time>2018-05-19T08:40:02.852Z</time>
      </trkpt>
      <trkpt lat="43.26618667" lon="-4.41579">
        <ele>228.0</ele>
        <time>2018-05-19T08:40:03.855Z</time>
      </trkpt>
      <trkpt lat="43.26618667" lon="-4.41579">
        <ele>228.0</ele>
        <time>2018-05-19T08:40:04.857Z</time>
      </trkpt>
      <trkpt lat="43.26603333" lon="-4.4159">
        <ele>227.0</ele>
        <time>2018-05-19T08:40:05.854Z</time>
      </trkpt>
      <trkpt lat="43.26603333" lon="-4.4159">
        <ele>227.0</ele>
        <time>2018-05-19T08:40:06.849Z</time>
      </trkpt>
      <trkpt lat="43.26586833" lon="-4.41602167">
        <ele>226.0</ele>
        <time>2018-05-19T08:40:07.854Z</time>
      </trkpt>
      <trkpt lat="43.26586833" lon="-4.41602167">
        <ele>226.0</ele>
        <time>2018-05-19T08:40:08.850Z</time>
      </trkpt>
      <trkpt lat="43.26569167" lon="-4.41614833">
        <ele>224.0</ele>
        <time>2018-05-19T08:40:09.854Z</time>
      </trkpt>
      <trkpt lat="43.26569167" lon="-4.41614833">
        <ele>224.0</ele>
        <time>2018-05-19T08:40:10.852Z</time>
      </trkpt>
      <trkpt lat="43.26550167" lon="-4.41627333">
        <ele>223.0</ele>
        <time>2018-05-19T08:40:11.856Z</time>
      </trkpt>
      <trkpt lat="43.26550167" lon="-4.41627333">
        <ele>223.0</ele>
        <time>2018-05-19T08:40:12.852Z</time>
      </trkpt>
      <trkpt lat="43.2653" lon="-4.41640167">
        <ele>221.0</ele>
        <time>2018-05-19T08:40:13.853Z</time>
      </trkpt>
      <trkpt lat="43.2653" lon="-4.41640167">
        <ele>221.0</ele>
        <time>2018-05-19T08:40:14.852Z</time>
      </trkpt>
      <trkpt lat="43.26508667" lon="-4.41653333">
        <ele>220.0</ele>
        <time>2018-05-19T08:40:15.854Z</time>
      </trkpt>
      <trkpt lat="43.26497333" lon="-4.41659833">
        <ele>219.0</ele>
        <time>2018-05-19T08:40:16.858Z</time>
      </trkpt>
      <trkpt lat="43.26486" lon="-4.41666333">
        <ele>219.0</ele>
        <time>2018-05-19T08:40:17.857Z</time>
      </trkpt>
      <trkpt lat="43.26486" lon="-4.41666333">
        <ele>219.0</ele>
        <time>2018-05-19T08:40:18.853Z</time>
      </trkpt>
      <trkpt lat="43.26462667" lon="-4.41679833">
        <ele>217.0</ele>
        <time>2018-05-19T08:40:19.855Z</time>
      </trkpt>
      <trkpt lat="43.26462667" lon="-4.41679833">
        <ele>217.0</ele>
        <time>2018-05-19T08:40:20.850Z</time>
      </trkpt>
      <trkpt lat="43.26439" lon="-4.41693833">
        <ele>216.0</ele>
        <time>2018-05-19T08:40:21.854Z</time>
      </trkpt>
      <trkpt lat="43.26427" lon="-4.41701">
        <ele>215.0</ele>
        <time>2018-05-19T08:40:22.855Z</time>
      </trkpt>
      <trkpt lat="43.26415167" lon="-4.41708">
        <ele>215.0</ele>
        <time>2018-05-19T08:40:23.854Z</time>
      </trkpt>
      <trkpt lat="43.26415167" lon="-4.41708">
        <ele>215.0</ele>
        <time>2018-05-19T08:40:24.849Z</time>
      </trkpt>
      <trkpt lat="43.26390667" lon="-4.41720833">
        <ele>213.0</ele>
        <time>2018-05-19T08:40:25.855Z</time>
      </trkpt>
      <trkpt lat="43.26390667" lon="-4.41720833">
        <ele>213.0</ele>
        <time>2018-05-19T08:40:26.852Z</time>
      </trkpt>
      <trkpt lat="43.263645" lon="-4.41725">
        <ele>213.0</ele>
        <time>2018-05-19T08:40:27.865Z</time>
      </trkpt>
      <trkpt lat="43.26351333" lon="-4.41722833">
        <ele>212.0</ele>
        <time>2018-05-19T08:40:28.862Z</time>
      </trkpt>
      <trkpt lat="43.26351333" lon="-4.41722833">
        <ele>212.0</ele>
        <time>2018-05-19T08:40:29.853Z</time>
      </trkpt>
      <trkpt lat="43.26326167" lon="-4.41709833">
        <ele>211.0</ele>
        <time>2018-05-19T08:40:30.854Z</time>
      </trkpt>
      <trkpt lat="43.26314667" lon="-4.417">
        <ele>211.0</ele>
        <time>2018-05-19T08:40:31.856Z</time>
      </trkpt>
      <trkpt lat="43.26314667" lon="-4.417">
        <ele>211.0</ele>
        <time>2018-05-19T08:40:32.852Z</time>
      </trkpt>
      <trkpt lat="43.26292833" lon="-4.41678167">
        <ele>209.0</ele>
        <time>2018-05-19T08:40:33.854Z</time>
      </trkpt>
      <trkpt lat="43.26292833" lon="-4.41678167">
        <ele>209.0</ele>
        <time>2018-05-19T08:40:34.851Z</time>
      </trkpt>
      <trkpt lat="43.26269167" lon="-4.4166">
        <ele>208.0</ele>
        <time>2018-05-19T08:40:35.856Z</time>
      </trkpt>
      <trkpt lat="43.26269167" lon="-4.4166">
        <ele>208.0</ele>
        <time>2018-05-19T08:40:36.852Z</time>
      </trkpt>
      <trkpt lat="43.26243167" lon="-4.416495">
        <ele>207.0</ele>
        <time>2018-05-19T08:40:37.855Z</time>
      </trkpt>
      <trkpt lat="43.26243167" lon="-4.416495">
        <ele>207.0</ele>
        <time>2018-05-19T08:40:38.852Z</time>
      </trkpt>
      <trkpt lat="43.26216" lon="-4.41644333">
        <ele>206.0</ele>
        <time>2018-05-19T08:40:39.854Z</time>
      </trkpt>
      <trkpt lat="43.26216" lon="-4.41644333">
        <ele>206.0</ele>
        <time>2018-05-19T08:40:40.851Z</time>
      </trkpt>
      <trkpt lat="43.26189167" lon="-4.41636667">
        <ele>205.0</ele>
        <time>2018-05-19T08:40:41.855Z</time>
      </trkpt>
      <trkpt lat="43.26189167" lon="-4.41636667">
        <ele>205.0</ele>
        <time>2018-05-19T08:40:42.867Z</time>
      </trkpt>
      <trkpt lat="43.26164333" lon="-4.41620333">
        <ele>204.0</ele>
        <time>2018-05-19T08:40:43.856Z</time>
      </trkpt>
      <trkpt lat="43.26164333" lon="-4.41620333">
        <ele>204.0</ele>
        <time>2018-05-19T08:40:44.853Z</time>
      </trkpt>
      <trkpt lat="43.26145" lon="-4.41594333">
        <ele>203.0</ele>
        <time>2018-05-19T08:40:45.883Z</time>
      </trkpt>
      <trkpt lat="43.26137333" lon="-4.41579333">
        <ele>202.0</ele>
        <time>2018-05-19T08:40:46.872Z</time>
      </trkpt>
      <trkpt lat="43.26130833" lon="-4.41563167">
        <ele>202.0</ele>
        <time>2018-05-19T08:40:47.848Z</time>
      </trkpt>
      <trkpt lat="43.26124667" lon="-4.41546667">
        <ele>201.0</ele>
        <time>2018-05-19T08:40:48.874Z</time>
      </trkpt>
      <trkpt lat="43.26124667" lon="-4.41546667">
        <ele>201.0</ele>
        <time>2018-05-19T08:40:49.859Z</time>
      </trkpt>
      <trkpt lat="43.26113333" lon="-4.41512667">
        <ele>200.0</ele>
        <time>2018-05-19T08:40:50.855Z</time>
      </trkpt>
      <trkpt lat="43.26107833" lon="-4.41495833">
        <ele>199.0</ele>
        <time>2018-05-19T08:40:51.855Z</time>
      </trkpt>
      <trkpt lat="43.26107833" lon="-4.41495833">
        <ele>199.0</ele>
        <time>2018-05-19T08:40:52.851Z</time>
      </trkpt>
      <trkpt lat="43.26096833" lon="-4.414615">
        <ele>197.0</ele>
        <time>2018-05-19T08:40:53.856Z</time>
      </trkpt>
      <trkpt lat="43.26096833" lon="-4.414615">
        <ele>197.0</ele>
        <time>2018-05-19T08:40:54.853Z</time>
      </trkpt>
      <trkpt lat="43.26086" lon="-4.41426667">
        <ele>196.0</ele>
        <time>2018-05-19T08:40:55.855Z</time>
      </trkpt>
      <trkpt lat="43.26086" lon="-4.41426667">
        <ele>196.0</ele>
        <time>2018-05-19T08:40:56.852Z</time>
      </trkpt>
      <trkpt lat="43.260745" lon="-4.41392833">
        <ele>194.0</ele>
        <time>2018-05-19T08:40:57.854Z</time>
      </trkpt>
      <trkpt lat="43.26068667" lon="-4.41376167">
        <ele>194.0</ele>
        <time>2018-05-19T08:40:58.854Z</time>
      </trkpt>
      <trkpt lat="43.26062833" lon="-4.41359667">
        <ele>194.0</ele>
        <time>2018-05-19T08:40:59.855Z</time>
      </trkpt>
      <trkpt lat="43.26056833" lon="-4.41343167">
        <ele>193.0</ele>
        <time>2018-05-19T08:41:00.854Z</time>
      </trkpt>
      <trkpt lat="43.26056833" lon="-4.41343167">
        <ele>193.0</ele>
        <time>2018-05-19T08:41:01.852Z</time>
      </trkpt>
      <trkpt lat="43.260445" lon="-4.41310667">
        <ele>192.0</ele>
        <time>2018-05-19T08:41:02.854Z</time>
      </trkpt>
      <trkpt lat="43.26038167" lon="-4.41294333">
        <ele>191.0</ele>
        <time>2018-05-19T08:41:03.854Z</time>
      </trkpt>
      <trkpt lat="43.26038167" lon="-4.41294333">
        <ele>191.0</ele>
        <time>2018-05-19T08:41:04.850Z</time>
      </trkpt>
      <trkpt lat="43.26025833" lon="-4.41261333">
        <ele>190.0</ele>
        <time>2018-05-19T08:41:05.855Z</time>
      </trkpt>
      <trkpt lat="43.26025833" lon="-4.41261333">
        <ele>190.0</ele>
        <time>2018-05-19T08:41:06.849Z</time>
      </trkpt>
      <trkpt lat="43.26012167" lon="-4.41229167">
        <ele>189.0</ele>
        <time>2018-05-19T08:41:07.855Z</time>
      </trkpt>
      <trkpt lat="43.26012167" lon="-4.41229167">
        <ele>189.0</ele>
        <time>2018-05-19T08:41:08.852Z</time>
      </trkpt>
      <trkpt lat="43.259985" lon="-4.41197333">
        <ele>188.0</ele>
        <time>2018-05-19T08:41:09.855Z</time>
      </trkpt>
      <trkpt lat="43.259985" lon="-4.41197333">
        <ele>188.0</ele>
        <time>2018-05-19T08:41:10.849Z</time>
      </trkpt>
      <trkpt lat="43.259845" lon="-4.41166167">
        <ele>187.0</ele>
        <time>2018-05-19T08:41:11.855Z</time>
      </trkpt>
      <trkpt lat="43.259845" lon="-4.41166167">
        <ele>187.0</ele>
        <time>2018-05-19T08:41:12.851Z</time>
      </trkpt>
      <trkpt lat="43.25970667" lon="-4.41135">
        <ele>186.0</ele>
        <time>2018-05-19T08:41:13.848Z</time>
      </trkpt>
      <trkpt lat="43.25970667" lon="-4.41135">
        <ele>186.0</ele>
        <time>2018-05-19T08:41:14.867Z</time>
      </trkpt>
      <trkpt lat="43.25956667" lon="-4.41103833">
        <ele>186.0</ele>
        <time>2018-05-19T08:41:15.854Z</time>
      </trkpt>
      <trkpt lat="43.25956667" lon="-4.41103833">
        <ele>186.0</ele>
        <time>2018-05-19T08:41:16.852Z</time>
      </trkpt>
      <trkpt lat="43.25942667" lon="-4.41072833">
        <ele>185.0</ele>
        <time>2018-05-19T08:41:17.856Z</time>
      </trkpt>
      <trkpt lat="43.25942667" lon="-4.41072833">
        <ele>185.0</ele>
        <time>2018-05-19T08:41:18.873Z</time>
      </trkpt>
      <trkpt lat="43.25929167" lon="-4.41042167">
        <ele>183.0</ele>
        <time>2018-05-19T08:41:19.858Z</time>
      </trkpt>
      <trkpt lat="43.25929167" lon="-4.41042167">
        <ele>183.0</ele>
        <time>2018-05-19T08:41:20.850Z</time>
      </trkpt>
      <trkpt lat="43.25915167" lon="-4.41011833">
        <ele>183.0</ele>
        <time>2018-05-19T08:41:21.854Z</time>
      </trkpt>
      <trkpt lat="43.259085" lon="-4.40996667">
        <ele>182.0</ele>
        <time>2018-05-19T08:41:22.854Z</time>
      </trkpt>
      <trkpt lat="43.259085" lon="-4.40996667">
        <ele>182.0</ele>
        <time>2018-05-19T08:41:23.850Z</time>
      </trkpt>
      <trkpt lat="43.258945" lon="-4.40966833">
        <ele>181.0</ele>
        <time>2018-05-19T08:41:24.854Z</time>
      </trkpt>
      <trkpt lat="43.25887333" lon="-4.40952">
        <ele>181.0</ele>
        <time>2018-05-19T08:41:25.855Z</time>
      </trkpt>
      <trkpt lat="43.25887333" lon="-4.40952">
        <ele>181.0</ele>
        <time>2018-05-19T08:41:26.851Z</time>
      </trkpt>
      <trkpt lat="43.258715" lon="-4.40923667">
        <ele>179.0</ele>
        <time>2018-05-19T08:41:27.853Z</time>
      </trkpt>
      <trkpt lat="43.258715" lon="-4.40923667">
        <ele>179.0</ele>
        <time>2018-05-19T08:41:28.876Z</time>
      </trkpt>
      <trkpt lat="43.25853" lon="-4.40897833">
        <ele>178.0</ele>
        <time>2018-05-19T08:41:29.862Z</time>
      </trkpt>
      <trkpt lat="43.25853" lon="-4.40897833">
        <ele>178.0</ele>
        <time>2018-05-19T08:41:30.855Z</time>
      </trkpt>
      <trkpt lat="43.25832167" lon="-4.40874333">
        <ele>176.0</ele>
        <time>2018-05-19T08:41:31.877Z</time>
      </trkpt>
      <trkpt lat="43.25832167" lon="-4.40874333">
        <ele>176.0</ele>
        <time>2018-05-19T08:41:32.860Z</time>
      </trkpt>
      <trkpt lat="43.25809667" lon="-4.40852667">
        <ele>175.0</ele>
        <time>2018-05-19T08:41:33.855Z</time>
      </trkpt>
      <trkpt lat="43.25809667" lon="-4.40852667">
        <ele>175.0</ele>
        <time>2018-05-19T08:41:34.852Z</time>
      </trkpt>
      <trkpt lat="43.25785833" lon="-4.408315">
        <ele>172.0</ele>
        <time>2018-05-19T08:41:35.856Z</time>
      </trkpt>
      <trkpt lat="43.25774" lon="-4.40820167">
        <ele>171.0</ele>
        <time>2018-05-19T08:41:36.862Z</time>
      </trkpt>
      <trkpt lat="43.25774" lon="-4.40820167">
        <ele>171.0</ele>
        <time>2018-05-19T08:41:37.853Z</time>
      </trkpt>
      <trkpt lat="43.25749833" lon="-4.407975">
        <ele>170.0</ele>
        <time>2018-05-19T08:41:38.854Z</time>
      </trkpt>
      <trkpt lat="43.25749833" lon="-4.407975">
        <ele>170.0</ele>
        <time>2018-05-19T08:41:39.852Z</time>
      </trkpt>
      <trkpt lat="43.25725833" lon="-4.40775833">
        <ele>169.0</ele>
        <time>2018-05-19T08:41:40.854Z</time>
      </trkpt>
      <trkpt lat="43.25714167" lon="-4.407655">
        <ele>169.0</ele>
        <time>2018-05-19T08:41:41.855Z</time>
      </trkpt>
      <trkpt lat="43.25714167" lon="-4.407655">
        <ele>169.0</ele>
        <time>2018-05-19T08:41:42.857Z</time>
      </trkpt>
      <trkpt lat="43.25691667" lon="-4.40744833">
        <ele>169.0</ele>
        <time>2018-05-19T08:41:43.855Z</time>
      </trkpt>
      <trkpt lat="43.25691667" lon="-4.40744833">
        <ele>169.0</ele>
        <time>2018-05-19T08:41:44.851Z</time>
      </trkpt>
      <trkpt lat="43.25670667" lon="-4.40724167">
        <ele>169.0</ele>
        <time>2018-05-19T08:41:45.853Z</time>
      </trkpt>
      <trkpt lat="43.25670667" lon="-4.40724167">
        <ele>169.0</ele>
        <time>2018-05-19T08:41:46.856Z</time>
      </trkpt>
      <trkpt lat="43.25650833" lon="-4.40703833">
        <ele>169.0</ele>
        <time>2018-05-19T08:41:47.866Z</time>
      </trkpt>
      <trkpt lat="43.25650833" lon="-4.40703833">
        <ele>169.0</ele>
        <time>2018-05-19T08:41:48.859Z</time>
      </trkpt>
      <trkpt lat="43.256315" lon="-4.40684667">
        <ele>168.0</ele>
        <time>2018-05-19T08:41:49.855Z</time>
      </trkpt>
      <trkpt lat="43.256315" lon="-4.40684667">
        <ele>168.0</ele>
        <time>2018-05-19T08:41:50.858Z</time>
      </trkpt>
      <trkpt lat="43.25612667" lon="-4.406655">
        <ele>167.0</ele>
        <time>2018-05-19T08:41:51.855Z</time>
      </trkpt>
      <trkpt lat="43.25612667" lon="-4.406655">
        <ele>167.0</ele>
        <time>2018-05-19T08:41:52.852Z</time>
      </trkpt>
      <trkpt lat="43.25591833" lon="-4.40650333">
        <ele>166.0</ele>
        <time>2018-05-19T08:41:53.855Z</time>
      </trkpt>
      <trkpt lat="43.25580167" lon="-4.40645667">
        <ele>165.0</ele>
        <time>2018-05-19T08:41:54.854Z</time>
      </trkpt>
      <trkpt lat="43.25580167" lon="-4.40645667">
        <ele>165.0</ele>
        <time>2018-05-19T08:41:55.852Z</time>
      </trkpt>
      <trkpt lat="43.25555167" lon="-4.406435">
        <ele>163.0</ele>
        <time>2018-05-19T08:41:56.855Z</time>
      </trkpt>
      <trkpt lat="43.25555167" lon="-4.406435">
        <ele>163.0</ele>
        <time>2018-05-19T08:41:57.852Z</time>
      </trkpt>
      <trkpt lat="43.25528833" lon="-4.406425">
        <ele>160.0</ele>
        <time>2018-05-19T08:41:58.855Z</time>
      </trkpt>
      <trkpt lat="43.25528833" lon="-4.406425">
        <ele>160.0</ele>
        <time>2018-05-19T08:41:59.856Z</time>
      </trkpt>
      <trkpt lat="43.25504" lon="-4.40638">
        <ele>159.0</ele>
        <time>2018-05-19T08:42:00.854Z</time>
      </trkpt>
      <trkpt lat="43.25492667" lon="-4.40634667">
        <ele>157.0</ele>
        <time>2018-05-19T08:42:01.851Z</time>
      </trkpt>
      <trkpt lat="43.25492667" lon="-4.40634667">
        <ele>157.0</ele>
        <time>2018-05-19T08:42:02.849Z</time>
      </trkpt>
      <trkpt lat="43.25471" lon="-4.40627">
        <ele>157.0</ele>
        <time>2018-05-19T08:42:03.854Z</time>
      </trkpt>
      <trkpt lat="43.25471" lon="-4.40627">
        <ele>157.0</ele>
        <time>2018-05-19T08:42:04.852Z</time>
      </trkpt>
      <trkpt lat="43.25453" lon="-4.406095">
        <ele>157.0</ele>
        <time>2018-05-19T08:42:05.848Z</time>
      </trkpt>
      <trkpt lat="43.25445333" lon="-4.40599833">
        <ele>157.0</ele>
        <time>2018-05-19T08:42:06.854Z</time>
      </trkpt>
      <trkpt lat="43.25437833" lon="-4.40590167">
        <ele>157.0</ele>
        <time>2018-05-19T08:42:07.854Z</time>
      </trkpt>
      <trkpt lat="43.25437833" lon="-4.40590167">
        <ele>157.0</ele>
        <time>2018-05-19T08:42:08.849Z</time>
      </trkpt>
      <trkpt lat="43.25423667" lon="-4.405715">
        <ele>157.0</ele>
        <time>2018-05-19T08:42:09.854Z</time>
      </trkpt>
      <trkpt lat="43.25423667" lon="-4.405715">
        <ele>157.0</ele>
        <time>2018-05-19T08:42:10.851Z</time>
      </trkpt>
      <trkpt lat="43.254105" lon="-4.405525">
        <ele>157.0</ele>
        <time>2018-05-19T08:42:11.855Z</time>
      </trkpt>
      <trkpt lat="43.25404167" lon="-4.405435">
        <ele>157.0</ele>
        <time>2018-05-19T08:42:12.855Z</time>
      </trkpt>
      <trkpt lat="43.25398167" lon="-4.40534833">
        <ele>158.0</ele>
        <time>2018-05-19T08:42:13.861Z</time>
      </trkpt>
      <trkpt lat="43.25398167" lon="-4.40534833">
        <ele>158.0</ele>
        <time>2018-05-19T08:42:14.852Z</time>
      </trkpt>
      <trkpt lat="43.25386333" lon="-4.40518333">
        <ele>158.0</ele>
        <time>2018-05-19T08:42:15.875Z</time>
      </trkpt>
      <trkpt lat="43.25380667" lon="-4.405105">
        <ele>158.0</ele>
        <time>2018-05-19T08:42:16.860Z</time>
      </trkpt>
      <trkpt lat="43.25380667" lon="-4.405105">
        <ele>158.0</ele>
        <time>2018-05-19T08:42:17.850Z</time>
      </trkpt>
      <trkpt lat="43.25369667" lon="-4.404955">
        <ele>158.0</ele>
        <time>2018-05-19T08:42:18.854Z</time>
      </trkpt>
      <trkpt lat="43.25364167" lon="-4.40488333">
        <ele>158.0</ele>
        <time>2018-05-19T08:42:19.854Z</time>
      </trkpt>
      <trkpt lat="43.25364167" lon="-4.40488333">
        <ele>158.0</ele>
        <time>2018-05-19T08:42:20.853Z</time>
      </trkpt>
      <trkpt lat="43.25353833" lon="-4.40474167">
        <ele>158.0</ele>
        <time>2018-05-19T08:42:21.852Z</time>
      </trkpt>
      <trkpt lat="43.25348833" lon="-4.40467167">
        <ele>158.0</ele>
        <time>2018-05-19T08:42:22.854Z</time>
      </trkpt>
      <trkpt lat="43.25348833" lon="-4.40467167">
        <ele>158.0</ele>
        <time>2018-05-19T08:42:23.853Z</time>
      </trkpt>
      <trkpt lat="43.25339333" lon="-4.40452833">
        <ele>159.0</ele>
        <time>2018-05-19T08:42:24.854Z</time>
      </trkpt>
      <trkpt lat="43.25334667" lon="-4.40446167">
        <ele>159.0</ele>
        <time>2018-05-19T08:42:25.855Z</time>
      </trkpt>
      <trkpt lat="43.25334667" lon="-4.40446167">
        <ele>159.0</ele>
        <time>2018-05-19T08:42:26.850Z</time>
      </trkpt>
      <trkpt lat="43.253255" lon="-4.404325">
        <ele>159.0</ele>
        <time>2018-05-19T08:42:27.853Z</time>
      </trkpt>
      <trkpt lat="43.253255" lon="-4.404325">
        <ele>159.0</ele>
        <time>2018-05-19T08:42:28.852Z</time>
      </trkpt>
      <trkpt lat="43.25317167" lon="-4.40418333">
        <ele>159.0</ele>
        <time>2018-05-19T08:42:29.855Z</time>
      </trkpt>
      <trkpt lat="43.25317167" lon="-4.40418333">
        <ele>159.0</ele>
        <time>2018-05-19T08:42:30.851Z</time>
      </trkpt>
      <trkpt lat="43.25309667" lon="-4.40403667">
        <ele>159.0</ele>
        <time>2018-05-19T08:42:31.854Z</time>
      </trkpt>
      <trkpt lat="43.25309667" lon="-4.40403667">
        <ele>159.0</ele>
        <time>2018-05-19T08:42:32.852Z</time>
      </trkpt>
      <trkpt lat="43.25303" lon="-4.403885">
        <ele>159.0</ele>
        <time>2018-05-19T08:42:33.855Z</time>
      </trkpt>
      <trkpt lat="43.25303" lon="-4.403885">
        <ele>159.0</ele>
        <time>2018-05-19T08:42:34.852Z</time>
      </trkpt>
      <trkpt lat="43.25297667" lon="-4.403735">
        <ele>159.0</ele>
        <time>2018-05-19T08:42:35.856Z</time>
      </trkpt>
      <trkpt lat="43.25297667" lon="-4.403735">
        <ele>159.0</ele>
        <time>2018-05-19T08:42:36.852Z</time>
      </trkpt>
      <trkpt lat="43.252935" lon="-4.40358">
        <ele>159.0</ele>
        <time>2018-05-19T08:42:37.857Z</time>
      </trkpt>
      <trkpt lat="43.252915" lon="-4.40350167">
        <ele>160.0</ele>
        <time>2018-05-19T08:42:38.854Z</time>
      </trkpt>
      <trkpt lat="43.252915" lon="-4.40350167">
        <ele>160.0</ele>
        <time>2018-05-19T08:42:39.849Z</time>
      </trkpt>
      <trkpt lat="43.25288167" lon="-4.40333833">
        <ele>160.0</ele>
        <time>2018-05-19T08:42:40.875Z</time>
      </trkpt>
      <trkpt lat="43.25288167" lon="-4.40333833">
        <ele>160.0</ele>
        <time>2018-05-19T08:42:41.860Z</time>
      </trkpt>
      <trkpt lat="43.25285667" lon="-4.40317167">
        <ele>160.0</ele>
        <time>2018-05-19T08:42:42.871Z</time>
      </trkpt>
      <trkpt lat="43.25284667" lon="-4.40308833">
        <ele>160.0</ele>
        <time>2018-05-19T08:42:43.856Z</time>
      </trkpt>
      <trkpt lat="43.25284667" lon="-4.40308833">
        <ele>160.0</ele>
        <time>2018-05-19T08:42:44.850Z</time>
      </trkpt>
      <trkpt lat="43.25283167" lon="-4.40292333">
        <ele>161.0</ele>
        <time>2018-05-19T08:42:45.852Z</time>
      </trkpt>
      <trkpt lat="43.25282833" lon="-4.40284167">
        <ele>161.0</ele>
        <time>2018-05-19T08:42:46.864Z</time>
      </trkpt>
      <trkpt lat="43.25282833" lon="-4.40284167">
        <ele>161.0</ele>
        <time>2018-05-19T08:42:47.875Z</time>
      </trkpt>
      <trkpt lat="43.25283" lon="-4.40267667">
        <ele>161.0</ele>
        <time>2018-05-19T08:42:48.861Z</time>
      </trkpt>
      <trkpt lat="43.25283333" lon="-4.402595">
        <ele>161.0</ele>
        <time>2018-05-19T08:42:49.854Z</time>
      </trkpt>
      <trkpt lat="43.25283333" lon="-4.402595">
        <ele>161.0</ele>
        <time>2018-05-19T08:42:50.852Z</time>
      </trkpt>
      <trkpt lat="43.25284333" lon="-4.40243333">
        <ele>162.0</ele>
        <time>2018-05-19T08:42:51.869Z</time>
      </trkpt>
      <trkpt lat="43.25284333" lon="-4.40243333">
        <ele>162.0</ele>
        <time>2018-05-19T08:42:52.854Z</time>
      </trkpt>
      <trkpt lat="43.25285833" lon="-4.40227833">
        <ele>162.0</ele>
        <time>2018-05-19T08:42:53.855Z</time>
      </trkpt>
      <trkpt lat="43.25285833" lon="-4.40227833">
        <ele>162.0</ele>
        <time>2018-05-19T08:42:54.852Z</time>
      </trkpt>
      <trkpt lat="43.25287667" lon="-4.40212333">
        <ele>162.0</ele>
        <time>2018-05-19T08:42:55.854Z</time>
      </trkpt>
      <trkpt lat="43.25287667" lon="-4.40212333">
        <ele>162.0</ele>
        <time>2018-05-19T08:42:56.852Z</time>
      </trkpt>
      <trkpt lat="43.25289333" lon="-4.40196833">
        <ele>162.0</ele>
        <time>2018-05-19T08:42:57.854Z</time>
      </trkpt>
      <trkpt lat="43.25289333" lon="-4.40196833">
        <ele>162.0</ele>
        <time>2018-05-19T08:42:58.849Z</time>
      </trkpt>
      <trkpt lat="43.25291167" lon="-4.40181333">
        <ele>163.0</ele>
        <time>2018-05-19T08:42:59.855Z</time>
      </trkpt>
      <trkpt lat="43.25291167" lon="-4.40181333">
        <ele>163.0</ele>
        <time>2018-05-19T08:43:00.853Z</time>
      </trkpt>
      <trkpt lat="43.25293167" lon="-4.40166">
        <ele>163.0</ele>
        <time>2018-05-19T08:43:01.855Z</time>
      </trkpt>
      <trkpt lat="43.25293167" lon="-4.40166">
        <ele>163.0</ele>
        <time>2018-05-19T08:43:02.852Z</time>
      </trkpt>
      <trkpt lat="43.25294667" lon="-4.40150833">
        <ele>164.0</ele>
        <time>2018-05-19T08:43:03.854Z</time>
      </trkpt>
      <trkpt lat="43.25294667" lon="-4.40150833">
        <ele>164.0</ele>
        <time>2018-05-19T08:43:04.852Z</time>
      </trkpt>
      <trkpt lat="43.25296167" lon="-4.40135667">
        <ele>164.0</ele>
        <time>2018-05-19T08:43:05.853Z</time>
      </trkpt>
      <trkpt lat="43.25296833" lon="-4.40128167">
        <ele>164.0</ele>
        <time>2018-05-19T08:43:06.854Z</time>
      </trkpt>
      <trkpt lat="43.25297667" lon="-4.40120667">
        <ele>164.0</ele>
        <time>2018-05-19T08:43:07.851Z</time>
      </trkpt>
      <trkpt lat="43.25297667" lon="-4.40120667">
        <ele>164.0</ele>
        <time>2018-05-19T08:43:08.881Z</time>
      </trkpt>
      <trkpt lat="43.25299167" lon="-4.401055">
        <ele>164.0</ele>
        <time>2018-05-19T08:43:09.864Z</time>
      </trkpt>
      <trkpt lat="43.25299167" lon="-4.401055">
        <ele>164.0</ele>
        <time>2018-05-19T08:43:10.852Z</time>
      </trkpt>
      <trkpt lat="43.25300667" lon="-4.40090333">
        <ele>165.0</ele>
        <time>2018-05-19T08:43:11.853Z</time>
      </trkpt>
      <trkpt lat="43.25301667" lon="-4.400825">
        <ele>165.0</ele>
        <time>2018-05-19T08:43:12.853Z</time>
      </trkpt>
      <trkpt lat="43.25301667" lon="-4.400825">
        <ele>165.0</ele>
        <time>2018-05-19T08:43:13.852Z</time>
      </trkpt>
      <trkpt lat="43.253035" lon="-4.40067333">
        <ele>165.0</ele>
        <time>2018-05-19T08:43:14.855Z</time>
      </trkpt>
      <trkpt lat="43.253035" lon="-4.40067333">
        <ele>165.0</ele>
        <time>2018-05-19T08:43:15.849Z</time>
      </trkpt>
      <trkpt lat="43.25305" lon="-4.40051833">
        <ele>165.0</ele>
        <time>2018-05-19T08:43:16.854Z</time>
      </trkpt>
      <trkpt lat="43.25305" lon="-4.40051833">
        <ele>165.0</ele>
        <time>2018-05-19T08:43:17.852Z</time>
      </trkpt>
      <trkpt lat="43.25306333" lon="-4.40035833">
        <ele>165.0</ele>
        <time>2018-05-19T08:43:18.855Z</time>
      </trkpt>
      <trkpt lat="43.25306667" lon="-4.40027833">
        <ele>165.0</ele>
        <time>2018-05-19T08:43:19.852Z</time>
      </trkpt>
      <trkpt lat="43.25306667" lon="-4.40027833">
        <ele>165.0</ele>
        <time>2018-05-19T08:43:20.850Z</time>
      </trkpt>
      <trkpt lat="43.25307333" lon="-4.40011">
        <ele>165.0</ele>
        <time>2018-05-19T08:43:21.852Z</time>
      </trkpt>
      <trkpt lat="43.25307833" lon="-4.40002333">
        <ele>165.0</ele>
        <time>2018-05-19T08:43:22.854Z</time>
      </trkpt>
      <trkpt lat="43.25307833" lon="-4.40002333">
        <ele>165.0</ele>
        <time>2018-05-19T08:43:23.852Z</time>
      </trkpt>
      <trkpt lat="43.25308333" lon="-4.39984667">
        <ele>165.0</ele>
        <time>2018-05-19T08:43:24.854Z</time>
      </trkpt>
      <trkpt lat="43.25308333" lon="-4.39975833">
        <ele>165.0</ele>
        <time>2018-05-19T08:43:25.856Z</time>
      </trkpt>
      <trkpt lat="43.25308333" lon="-4.39975833">
        <ele>165.0</ele>
        <time>2018-05-19T08:43:26.852Z</time>
      </trkpt>
      <trkpt lat="43.25308167" lon="-4.39957833">
        <ele>164.0</ele>
        <time>2018-05-19T08:43:27.854Z</time>
      </trkpt>
      <trkpt lat="43.25308167" lon="-4.39957833">
        <ele>164.0</ele>
        <time>2018-05-19T08:43:28.852Z</time>
      </trkpt>
      <trkpt lat="43.253075" lon="-4.39939833">
        <ele>164.0</ele>
        <time>2018-05-19T08:43:29.855Z</time>
      </trkpt>
      <trkpt lat="43.253075" lon="-4.39939833">
        <ele>164.0</ele>
        <time>2018-05-19T08:43:30.853Z</time>
      </trkpt>
      <trkpt lat="43.25305667" lon="-4.39922">
        <ele>164.0</ele>
        <time>2018-05-19T08:43:31.855Z</time>
      </trkpt>
      <trkpt lat="43.25305667" lon="-4.39922">
        <ele>164.0</ele>
        <time>2018-05-19T08:43:32.852Z</time>
      </trkpt>
      <trkpt lat="43.253035" lon="-4.39904333">
        <ele>164.0</ele>
        <time>2018-05-19T08:43:33.854Z</time>
      </trkpt>
      <trkpt lat="43.25301833" lon="-4.398965">
        <ele>164.0</ele>
        <time>2018-05-19T08:43:34.853Z</time>
      </trkpt>
      <trkpt lat="43.25301833" lon="-4.398965">
        <ele>164.0</ele>
        <time>2018-05-19T08:43:35.852Z</time>
      </trkpt>
      <trkpt lat="43.25299" lon="-4.39879">
        <ele>165.0</ele>
        <time>2018-05-19T08:43:36.854Z</time>
      </trkpt>
      <trkpt lat="43.25297333" lon="-4.39870333">
        <ele>165.0</ele>
        <time>2018-05-19T08:43:37.854Z</time>
      </trkpt>
      <trkpt lat="43.25297333" lon="-4.39870333">
        <ele>165.0</ele>
        <time>2018-05-19T08:43:38.846Z</time>
      </trkpt>
      <trkpt lat="43.25293167" lon="-4.39853167">
        <ele>165.0</ele>
        <time>2018-05-19T08:43:39.870Z</time>
      </trkpt>
      <trkpt lat="43.25293167" lon="-4.39853167">
        <ele>165.0</ele>
        <time>2018-05-19T08:43:40.852Z</time>
      </trkpt>
      <trkpt lat="43.25289167" lon="-4.398365">
        <ele>165.0</ele>
        <time>2018-05-19T08:43:41.859Z</time>
      </trkpt>
      <trkpt lat="43.25287167" lon="-4.39828333">
        <ele>166.0</ele>
        <time>2018-05-19T08:43:42.875Z</time>
      </trkpt>
      <trkpt lat="43.25285167" lon="-4.39820333">
        <ele>166.0</ele>
        <time>2018-05-19T08:43:43.856Z</time>
      </trkpt>
      <trkpt lat="43.25285167" lon="-4.39820333">
        <ele>166.0</ele>
        <time>2018-05-19T08:43:44.852Z</time>
      </trkpt>
      <trkpt lat="43.25281167" lon="-4.398045">
        <ele>166.0</ele>
        <time>2018-05-19T08:43:45.848Z</time>
      </trkpt>
      <trkpt lat="43.25279333" lon="-4.39796833">
        <ele>166.0</ele>
        <time>2018-05-19T08:43:46.875Z</time>
      </trkpt>
      <trkpt lat="43.252775" lon="-4.39789333">
        <ele>166.0</ele>
        <time>2018-05-19T08:43:47.845Z</time>
      </trkpt>
      <trkpt lat="43.252775" lon="-4.39789333">
        <ele>166.0</ele>
        <time>2018-05-19T08:43:48.858Z</time>
      </trkpt>
      <trkpt lat="43.25274167" lon="-4.39774667">
        <ele>167.0</ele>
        <time>2018-05-19T08:43:49.855Z</time>
      </trkpt>
      <trkpt lat="43.25274167" lon="-4.39774667">
        <ele>167.0</ele>
        <time>2018-05-19T08:43:50.875Z</time>
      </trkpt>
      <trkpt lat="43.25270667" lon="-4.397605">
        <ele>167.0</ele>
        <time>2018-05-19T08:43:51.865Z</time>
      </trkpt>
      <trkpt lat="43.25270667" lon="-4.397605">
        <ele>167.0</ele>
        <time>2018-05-19T08:43:52.851Z</time>
      </trkpt>
      <trkpt lat="43.252675" lon="-4.39746333">
        <ele>167.0</ele>
        <time>2018-05-19T08:43:53.855Z</time>
      </trkpt>
      <trkpt lat="43.25265667" lon="-4.39739333">
        <ele>167.0</ele>
        <time>2018-05-19T08:43:54.854Z</time>
      </trkpt>
      <trkpt lat="43.25264" lon="-4.39732667">
        <ele>168.0</ele>
        <time>2018-05-19T08:43:55.854Z</time>
      </trkpt>
      <trkpt lat="43.25264" lon="-4.39732667">
        <ele>168.0</ele>
        <time>2018-05-19T08:43:56.852Z</time>
      </trkpt>
      <trkpt lat="43.252615" lon="-4.39719333">
        <ele>168.0</ele>
        <time>2018-05-19T08:43:57.854Z</time>
      </trkpt>
      <trkpt lat="43.252615" lon="-4.39719333">
        <ele>168.0</ele>
        <time>2018-05-19T08:43:58.848Z</time>
      </trkpt>
      <trkpt lat="43.252585" lon="-4.39706167">
        <ele>168.0</ele>
        <time>2018-05-19T08:43:59.854Z</time>
      </trkpt>
      <trkpt lat="43.252585" lon="-4.39706167">
        <ele>168.0</ele>
        <time>2018-05-19T08:44:00.849Z</time>
      </trkpt>
      <trkpt lat="43.252555" lon="-4.396935">
        <ele>169.0</ele>
        <time>2018-05-19T08:44:01.854Z</time>
      </trkpt>
      <trkpt lat="43.25254" lon="-4.39687333">
        <ele>169.0</ele>
        <time>2018-05-19T08:44:02.854Z</time>
      </trkpt>
      <trkpt lat="43.25254" lon="-4.39687333">
        <ele>169.0</ele>
        <time>2018-05-19T08:44:03.852Z</time>
      </trkpt>
      <trkpt lat="43.25251333" lon="-4.39675">
        <ele>169.0</ele>
        <time>2018-05-19T08:44:04.853Z</time>
      </trkpt>
      <trkpt lat="43.25251333" lon="-4.39675">
        <ele>169.0</ele>
        <time>2018-05-19T08:44:05.883Z</time>
      </trkpt>
      <trkpt lat="43.25249333" lon="-4.396635">
        <ele>169.0</ele>
        <time>2018-05-19T08:44:06.868Z</time>
      </trkpt>
      <trkpt lat="43.25249333" lon="-4.396635">
        <ele>169.0</ele>
        <time>2018-05-19T08:44:07.852Z</time>
      </trkpt>
      <trkpt lat="43.25246667" lon="-4.39652333">
        <ele>169.0</ele>
        <time>2018-05-19T08:44:08.851Z</time>
      </trkpt>
      <trkpt lat="43.25245167" lon="-4.39646667">
        <ele>169.0</ele>
        <time>2018-05-19T08:44:09.853Z</time>
      </trkpt>
      <trkpt lat="43.25245167" lon="-4.39646667">
        <ele>169.0</ele>
        <time>2018-05-19T08:44:10.851Z</time>
      </trkpt>
      <trkpt lat="43.25243" lon="-4.396355">
        <ele>170.0</ele>
        <time>2018-05-19T08:44:11.854Z</time>
      </trkpt>
      <trkpt lat="43.25243" lon="-4.396355">
        <ele>170.0</ele>
        <time>2018-05-19T08:44:12.851Z</time>
      </trkpt>
      <trkpt lat="43.25241" lon="-4.39624667">
        <ele>171.0</ele>
        <time>2018-05-19T08:44:13.853Z</time>
      </trkpt>
      <trkpt lat="43.25241" lon="-4.39624667">
        <ele>171.0</ele>
        <time>2018-05-19T08:44:14.848Z</time>
      </trkpt>
      <trkpt lat="43.25238667" lon="-4.39613833">
        <ele>171.0</ele>
        <time>2018-05-19T08:44:15.875Z</time>
      </trkpt>
      <trkpt lat="43.25237833" lon="-4.396085">
        <ele>171.0</ele>
        <time>2018-05-19T08:44:16.863Z</time>
      </trkpt>
      <trkpt lat="43.25237833" lon="-4.396085">
        <ele>171.0</ele>
        <time>2018-05-19T08:44:17.852Z</time>
      </trkpt>
      <trkpt lat="43.252355" lon="-4.39597833">
        <ele>172.0</ele>
        <time>2018-05-19T08:44:18.852Z</time>
      </trkpt>
      <trkpt lat="43.25234333" lon="-4.39592667">
        <ele>172.0</ele>
        <time>2018-05-19T08:44:19.854Z</time>
      </trkpt>
      <trkpt lat="43.25234333" lon="-4.39592667">
        <ele>172.0</ele>
        <time>2018-05-19T08:44:20.852Z</time>
      </trkpt>
      <trkpt lat="43.25231667" lon="-4.39582167">
        <ele>172.0</ele>
        <time>2018-05-19T08:44:21.854Z</time>
      </trkpt>
      <trkpt lat="43.25231667" lon="-4.39582167">
        <ele>172.0</ele>
        <time>2018-05-19T08:44:22.852Z</time>
      </trkpt>
      <trkpt lat="43.25228667" lon="-4.395715">
        <ele>173.0</ele>
        <time>2018-05-19T08:44:23.852Z</time>
      </trkpt>
      <trkpt lat="43.25227167" lon="-4.39566167">
        <ele>173.0</ele>
        <time>2018-05-19T08:44:24.855Z</time>
      </trkpt>
      <trkpt lat="43.25227167" lon="-4.39566167">
        <ele>173.0</ele>
        <time>2018-05-19T08:44:25.852Z</time>
      </trkpt>
      <trkpt lat="43.25224833" lon="-4.395555">
        <ele>173.0</ele>
        <time>2018-05-19T08:44:26.854Z</time>
      </trkpt>
      <trkpt lat="43.25223667" lon="-4.39550167">
        <ele>173.0</ele>
        <time>2018-05-19T08:44:27.853Z</time>
      </trkpt>
      <trkpt lat="43.25223667" lon="-4.39550167">
        <ele>173.0</ele>
        <time>2018-05-19T08:44:28.846Z</time>
      </trkpt>
      <trkpt lat="43.25221333" lon="-4.39539667">
        <ele>174.0</ele>
        <time>2018-05-19T08:44:29.871Z</time>
      </trkpt>
      <trkpt lat="43.25221333" lon="-4.39539667">
        <ele>174.0</ele>
        <time>2018-05-19T08:44:30.859Z</time>
      </trkpt>
      <trkpt lat="43.25218833" lon="-4.39529">
        <ele>174.0</ele>
        <time>2018-05-19T08:44:31.854Z</time>
      </trkpt>
      <trkpt lat="43.25218833" lon="-4.39529">
        <ele>174.0</ele>
        <time>2018-05-19T08:44:32.851Z</time>
      </trkpt>
      <trkpt lat="43.25216167" lon="-4.39518167">
        <ele>175.0</ele>
        <time>2018-05-19T08:44:33.854Z</time>
      </trkpt>
      <trkpt lat="43.25216167" lon="-4.39518167">
        <ele>175.0</ele>
        <time>2018-05-19T08:44:34.851Z</time>
      </trkpt>
      <trkpt lat="43.25213833" lon="-4.39507333">
        <ele>175.0</ele>
        <time>2018-05-19T08:44:35.854Z</time>
      </trkpt>
      <trkpt lat="43.25212833" lon="-4.39502">
        <ele>175.0</ele>
        <time>2018-05-19T08:44:36.853Z</time>
      </trkpt>
      <trkpt lat="43.25211667" lon="-4.39496667">
        <ele>175.0</ele>
        <time>2018-05-19T08:44:37.854Z</time>
      </trkpt>
      <trkpt lat="43.25211667" lon="-4.39496667">
        <ele>175.0</ele>
        <time>2018-05-19T08:44:38.846Z</time>
      </trkpt>
      <trkpt lat="43.252095" lon="-4.39485667">
        <ele>175.0</ele>
        <time>2018-05-19T08:44:39.870Z</time>
      </trkpt>
      <trkpt lat="43.252095" lon="-4.39485667">
        <ele>175.0</ele>
        <time>2018-05-19T08:44:40.856Z</time>
      </trkpt>
      <trkpt lat="43.252075" lon="-4.394745">
        <ele>176.0</ele>
        <time>2018-05-19T08:44:41.854Z</time>
      </trkpt>
      <trkpt lat="43.252065" lon="-4.39468667">
        <ele>176.0</ele>
        <time>2018-05-19T08:44:42.875Z</time>
      </trkpt>
      <trkpt lat="43.252065" lon="-4.39468667">
        <ele>176.0</ele>
        <time>2018-05-19T08:44:43.855Z</time>
      </trkpt>
      <trkpt lat="43.25204833" lon="-4.39457">
        <ele>176.0</ele>
        <time>2018-05-19T08:44:44.857Z</time>
      </trkpt>
      <trkpt lat="43.25204833" lon="-4.39457">
        <ele>176.0</ele>
        <time>2018-05-19T08:44:45.844Z</time>
      </trkpt>
      <trkpt lat="43.252035" lon="-4.39445">
        <ele>176.0</ele>
        <time>2018-05-19T08:44:46.860Z</time>
      </trkpt>
      <trkpt lat="43.25203" lon="-4.39438833">
        <ele>176.0</ele>
        <time>2018-05-19T08:44:47.876Z</time>
      </trkpt>
      <trkpt lat="43.25203" lon="-4.39438833">
        <ele>176.0</ele>
        <time>2018-05-19T08:44:48.865Z</time>
      </trkpt>
      <trkpt lat="43.25202" lon="-4.39426833">
        <ele>176.0</ele>
        <time>2018-05-19T08:44:49.855Z</time>
      </trkpt>
      <trkpt lat="43.25201667" lon="-4.394205">
        <ele>176.0</ele>
        <time>2018-05-19T08:44:50.854Z</time>
      </trkpt>
      <trkpt lat="43.25201667" lon="-4.394205">
        <ele>176.0</ele>
        <time>2018-05-19T08:44:51.852Z</time>
      </trkpt>
      <trkpt lat="43.25201" lon="-4.394075">
        <ele>177.0</ele>
        <time>2018-05-19T08:44:52.854Z</time>
      </trkpt>
      <trkpt lat="43.25201" lon="-4.394075">
        <ele>177.0</ele>
        <time>2018-05-19T08:44:53.849Z</time>
      </trkpt>
      <trkpt lat="43.25200833" lon="-4.39393833">
        <ele>177.0</ele>
        <time>2018-05-19T08:44:54.854Z</time>
      </trkpt>
      <trkpt lat="43.25200667" lon="-4.39387">
        <ele>177.0</ele>
        <time>2018-05-19T08:44:55.854Z</time>
      </trkpt>
      <trkpt lat="43.25200667" lon="-4.39387">
        <ele>177.0</ele>
        <time>2018-05-19T08:44:56.852Z</time>
      </trkpt>
      <trkpt lat="43.25200667" lon="-4.39373167">
        <ele>177.0</ele>
        <time>2018-05-19T08:44:57.851Z</time>
      </trkpt>
      <trkpt lat="43.25200667" lon="-4.39373167">
        <ele>177.0</ele>
        <time>2018-05-19T08:44:58.880Z</time>
      </trkpt>
      <trkpt lat="43.25201" lon="-4.39359">
        <ele>177.0</ele>
        <time>2018-05-19T08:44:59.867Z</time>
      </trkpt>
      <trkpt lat="43.25201" lon="-4.39359">
        <ele>177.0</ele>
        <time>2018-05-19T08:45:00.854Z</time>
      </trkpt>
      <trkpt lat="43.25201333" lon="-4.393445">
        <ele>177.0</ele>
        <time>2018-05-19T08:45:01.853Z</time>
      </trkpt>
      <trkpt lat="43.25201333" lon="-4.393445">
        <ele>177.0</ele>
        <time>2018-05-19T08:45:02.851Z</time>
      </trkpt>
      <trkpt lat="43.25202" lon="-4.39329167">
        <ele>177.0</ele>
        <time>2018-05-19T08:45:03.854Z</time>
      </trkpt>
      <trkpt lat="43.25202" lon="-4.39329167">
        <ele>177.0</ele>
        <time>2018-05-19T08:45:04.848Z</time>
      </trkpt>
      <trkpt lat="43.25202667" lon="-4.39313667">
        <ele>177.0</ele>
        <time>2018-05-19T08:45:05.851Z</time>
      </trkpt>
      <trkpt lat="43.25203" lon="-4.39305833">
        <ele>177.0</ele>
        <time>2018-05-19T08:45:06.854Z</time>
      </trkpt>
      <trkpt lat="43.25203" lon="-4.39305833">
        <ele>177.0</ele>
        <time>2018-05-19T08:45:07.851Z</time>
      </trkpt>
      <trkpt lat="43.25203667" lon="-4.39290167">
        <ele>177.0</ele>
        <time>2018-05-19T08:45:08.851Z</time>
      </trkpt>
      <trkpt lat="43.25204167" lon="-4.39282">
        <ele>177.0</ele>
        <time>2018-05-19T08:45:09.853Z</time>
      </trkpt>
      <trkpt lat="43.25204167" lon="-4.39282">
        <ele>177.0</ele>
        <time>2018-05-19T08:45:10.849Z</time>
      </trkpt>
      <trkpt lat="43.25205167" lon="-4.39265333">
        <ele>176.0</ele>
        <time>2018-05-19T08:45:11.854Z</time>
      </trkpt>
      <trkpt lat="43.25205167" lon="-4.39265333">
        <ele>176.0</ele>
        <time>2018-05-19T08:45:12.844Z</time>
      </trkpt>
      <trkpt lat="43.25206167" lon="-4.39248333">
        <ele>176.0</ele>
        <time>2018-05-19T08:45:13.858Z</time>
      </trkpt>
      <trkpt lat="43.25206167" lon="-4.39248333">
        <ele>176.0</ele>
        <time>2018-05-19T08:45:14.852Z</time>
      </trkpt>
      <trkpt lat="43.25207333" lon="-4.39231">
        <ele>176.0</ele>
        <time>2018-05-19T08:45:15.853Z</time>
      </trkpt>
      <trkpt lat="43.25207333" lon="-4.39231">
        <ele>176.0</ele>
        <time>2018-05-19T08:45:16.851Z</time>
      </trkpt>
      <trkpt lat="43.25208333" lon="-4.39213167">
        <ele>176.0</ele>
        <time>2018-05-19T08:45:17.854Z</time>
      </trkpt>
      <trkpt lat="43.25208333" lon="-4.39213167">
        <ele>176.0</ele>
        <time>2018-05-19T08:45:18.848Z</time>
      </trkpt>
      <trkpt lat="43.25209667" lon="-4.39195833">
        <ele>176.0</ele>
        <time>2018-05-19T08:45:19.853Z</time>
      </trkpt>
      <trkpt lat="43.25209667" lon="-4.39195833">
        <ele>176.0</ele>
        <time>2018-05-19T08:45:20.849Z</time>
      </trkpt>
      <trkpt lat="43.25210667" lon="-4.39178167">
        <ele>175.0</ele>
        <time>2018-05-19T08:45:21.854Z</time>
      </trkpt>
      <trkpt lat="43.25210667" lon="-4.39178167">
        <ele>175.0</ele>
        <time>2018-05-19T08:45:22.848Z</time>
      </trkpt>
      <trkpt lat="43.25211667" lon="-4.3916">
        <ele>175.0</ele>
        <time>2018-05-19T08:45:23.854Z</time>
      </trkpt>
      <trkpt lat="43.25212333" lon="-4.39151">
        <ele>175.0</ele>
        <time>2018-05-19T08:45:24.854Z</time>
      </trkpt>
      <trkpt lat="43.25212833" lon="-4.391415">
        <ele>175.0</ele>
        <time>2018-05-19T08:45:25.855Z</time>
      </trkpt>
      <trkpt lat="43.25212833" lon="-4.391415">
        <ele>175.0</ele>
        <time>2018-05-19T08:45:26.851Z</time>
      </trkpt>
      <trkpt lat="43.25214" lon="-4.39122833">
        <ele>175.0</ele>
        <time>2018-05-19T08:45:27.853Z</time>
      </trkpt>
      <trkpt lat="43.25214" lon="-4.39122833">
        <ele>175.0</ele>
        <time>2018-05-19T08:45:28.846Z</time>
      </trkpt>
      <trkpt lat="43.25215" lon="-4.39104167">
        <ele>174.0</ele>
        <time>2018-05-19T08:45:29.855Z</time>
      </trkpt>
      <trkpt lat="43.25215" lon="-4.39104167">
        <ele>174.0</ele>
        <time>2018-05-19T08:45:30.861Z</time>
      </trkpt>
      <trkpt lat="43.25216" lon="-4.39085">
        <ele>175.0</ele>
        <time>2018-05-19T08:45:31.853Z</time>
      </trkpt>
      <trkpt lat="43.25216" lon="-4.39085">
        <ele>175.0</ele>
        <time>2018-05-19T08:45:32.856Z</time>
      </trkpt>
      <trkpt lat="43.25217167" lon="-4.39065333">
        <ele>174.0</ele>
        <time>2018-05-19T08:45:33.855Z</time>
      </trkpt>
      <trkpt lat="43.25217167" lon="-4.39065333">
        <ele>174.0</ele>
        <time>2018-05-19T08:45:34.848Z</time>
      </trkpt>
      <trkpt lat="43.25218167" lon="-4.390455">
        <ele>174.0</ele>
        <time>2018-05-19T08:45:35.870Z</time>
      </trkpt>
      <trkpt lat="43.252185" lon="-4.39035667">
        <ele>174.0</ele>
        <time>2018-05-19T08:45:36.865Z</time>
      </trkpt>
      <trkpt lat="43.252185" lon="-4.39035667">
        <ele>174.0</ele>
        <time>2018-05-19T08:45:37.849Z</time>
      </trkpt>
      <trkpt lat="43.25219667" lon="-4.39015333">
        <ele>174.0</ele>
        <time>2018-05-19T08:45:38.851Z</time>
      </trkpt>
      <trkpt lat="43.25220167" lon="-4.39004833">
        <ele>174.0</ele>
        <time>2018-05-19T08:45:39.854Z</time>
      </trkpt>
      <trkpt lat="43.25220167" lon="-4.39004833">
        <ele>174.0</ele>
        <time>2018-05-19T08:45:40.851Z</time>
      </trkpt>
      <trkpt lat="43.25221167" lon="-4.38982167">
        <ele>174.0</ele>
        <time>2018-05-19T08:45:41.851Z</time>
      </trkpt>
      <trkpt lat="43.25221167" lon="-4.38982167">
        <ele>174.0</ele>
        <time>2018-05-19T08:45:42.850Z</time>
      </trkpt>
      <trkpt lat="43.25222667" lon="-4.38958333">
        <ele>174.0</ele>
        <time>2018-05-19T08:45:43.853Z</time>
      </trkpt>
      <trkpt lat="43.252235" lon="-4.38946333">
        <ele>174.0</ele>
        <time>2018-05-19T08:45:44.850Z</time>
      </trkpt>
      <trkpt lat="43.252235" lon="-4.38946333">
        <ele>174.0</ele>
        <time>2018-05-19T08:45:45.883Z</time>
      </trkpt>
      <trkpt lat="43.25225" lon="-4.38922667">
        <ele>174.0</ele>
        <time>2018-05-19T08:45:46.859Z</time>
      </trkpt>
      <trkpt lat="43.25225667" lon="-4.38911333">
        <ele>174.0</ele>
        <time>2018-05-19T08:45:47.865Z</time>
      </trkpt>
      <trkpt lat="43.25225667" lon="-4.38911333">
        <ele>174.0</ele>
        <time>2018-05-19T08:45:48.846Z</time>
      </trkpt>
      <trkpt lat="43.25227" lon="-4.38889833">
        <ele>175.0</ele>
        <time>2018-05-19T08:45:49.866Z</time>
      </trkpt>
      <trkpt lat="43.25227" lon="-4.38889833">
        <ele>175.0</ele>
        <time>2018-05-19T08:45:50.851Z</time>
      </trkpt>
      <trkpt lat="43.252285" lon="-4.388695">
        <ele>175.0</ele>
        <time>2018-05-19T08:45:51.853Z</time>
      </trkpt>
      <trkpt lat="43.25229167" lon="-4.38859667">
        <ele>175.0</ele>
        <time>2018-05-19T08:45:52.869Z</time>
      </trkpt>
      <trkpt lat="43.25229167" lon="-4.38859667">
        <ele>175.0</ele>
        <time>2018-05-19T08:45:53.854Z</time>
      </trkpt>
      <trkpt lat="43.25230667" lon="-4.388415">
        <ele>175.0</ele>
        <time>2018-05-19T08:45:54.853Z</time>
      </trkpt>
      <trkpt lat="43.25231167" lon="-4.38833167">
        <ele>175.0</ele>
        <time>2018-05-19T08:45:55.854Z</time>
      </trkpt>
      <trkpt lat="43.25231833" lon="-4.38824667">
        <ele>175.0</ele>
        <time>2018-05-19T08:45:56.854Z</time>
      </trkpt>
      <trkpt lat="43.25231833" lon="-4.38824667">
        <ele>175.0</ele>
        <time>2018-05-19T08:45:57.852Z</time>
      </trkpt>
      <trkpt lat="43.25232833" lon="-4.38807833">
        <ele>175.0</ele>
        <time>2018-05-19T08:45:58.846Z</time>
      </trkpt>
      <trkpt lat="43.25233333" lon="-4.38799167">
        <ele>175.0</ele>
        <time>2018-05-19T08:45:59.870Z</time>
      </trkpt>
      <trkpt lat="43.25233833" lon="-4.387905">
        <ele>175.0</ele>
        <time>2018-05-19T08:46:00.853Z</time>
      </trkpt>
      <trkpt lat="43.25233833" lon="-4.387905">
        <ele>175.0</ele>
        <time>2018-05-19T08:46:01.852Z</time>
      </trkpt>
      <trkpt lat="43.25235" lon="-4.387735">
        <ele>176.0</ele>
        <time>2018-05-19T08:46:02.852Z</time>
      </trkpt>
      <trkpt lat="43.25235833" lon="-4.38765167">
        <ele>176.0</ele>
        <time>2018-05-19T08:46:03.870Z</time>
      </trkpt>
      <trkpt lat="43.25235833" lon="-4.38765167">
        <ele>176.0</ele>
        <time>2018-05-19T08:46:04.852Z</time>
      </trkpt>
      <trkpt lat="43.25238167" lon="-4.38748333">
        <ele>176.0</ele>
        <time>2018-05-19T08:46:05.850Z</time>
      </trkpt>
      <trkpt lat="43.25239167" lon="-4.3874">
        <ele>176.0</ele>
        <time>2018-05-19T08:46:06.853Z</time>
      </trkpt>
      <trkpt lat="43.25240333" lon="-4.38731333">
        <ele>176.0</ele>
        <time>2018-05-19T08:46:07.854Z</time>
      </trkpt>
      <trkpt lat="43.25240333" lon="-4.38731333">
        <ele>176.0</ele>
        <time>2018-05-19T08:46:08.845Z</time>
      </trkpt>
      <trkpt lat="43.25242667" lon="-4.38714167">
        <ele>177.0</ele>
        <time>2018-05-19T08:46:09.870Z</time>
      </trkpt>
      <trkpt lat="43.25244167" lon="-4.38705667">
        <ele>177.0</ele>
        <time>2018-05-19T08:46:10.852Z</time>
      </trkpt>
      <trkpt lat="43.25244167" lon="-4.38705667">
        <ele>177.0</ele>
        <time>2018-05-19T08:46:11.852Z</time>
      </trkpt>
      <trkpt lat="43.25247" lon="-4.386885">
        <ele>177.0</ele>
        <time>2018-05-19T08:46:12.853Z</time>
      </trkpt>
      <trkpt lat="43.25248333" lon="-4.3868">
        <ele>177.0</ele>
        <time>2018-05-19T08:46:13.854Z</time>
      </trkpt>
      <trkpt lat="43.25249667" lon="-4.38671667">
        <ele>177.0</ele>
        <time>2018-05-19T08:46:14.854Z</time>
      </trkpt>
      <trkpt lat="43.25249667" lon="-4.38671667">
        <ele>177.0</ele>
        <time>2018-05-19T08:46:15.852Z</time>
      </trkpt>
      <trkpt lat="43.252525" lon="-4.38654833">
        <ele>178.0</ele>
        <time>2018-05-19T08:46:16.853Z</time>
      </trkpt>
      <trkpt lat="43.25254" lon="-4.38646667">
        <ele>178.0</ele>
        <time>2018-05-19T08:46:17.852Z</time>
      </trkpt>
      <trkpt lat="43.25254" lon="-4.38646667">
        <ele>178.0</ele>
        <time>2018-05-19T08:46:18.847Z</time>
      </trkpt>
      <trkpt lat="43.25256833" lon="-4.38629667">
        <ele>178.0</ele>
        <time>2018-05-19T08:46:19.870Z</time>
      </trkpt>
      <trkpt lat="43.25256833" lon="-4.38629667">
        <ele>178.0</ele>
        <time>2018-05-19T08:46:20.856Z</time>
      </trkpt>
      <trkpt lat="43.25259667" lon="-4.38612833">
        <ele>178.0</ele>
        <time>2018-05-19T08:46:21.853Z</time>
      </trkpt>
      <trkpt lat="43.25259667" lon="-4.38612833">
        <ele>178.0</ele>
        <time>2018-05-19T08:46:22.848Z</time>
      </trkpt>
      <trkpt lat="43.25262833" lon="-4.38595833">
        <ele>179.0</ele>
        <time>2018-05-19T08:46:23.854Z</time>
      </trkpt>
      <trkpt lat="43.252645" lon="-4.38587167">
        <ele>179.0</ele>
        <time>2018-05-19T08:46:24.851Z</time>
      </trkpt>
      <trkpt lat="43.252645" lon="-4.38587167">
        <ele>179.0</ele>
        <time>2018-05-19T08:46:25.851Z</time>
      </trkpt>
      <trkpt lat="43.25268833" lon="-4.385705">
        <ele>179.0</ele>
        <time>2018-05-19T08:46:26.856Z</time>
      </trkpt>
      <trkpt lat="43.25268833" lon="-4.385705">
        <ele>179.0</ele>
        <time>2018-05-19T08:46:27.848Z</time>
      </trkpt>
      <trkpt lat="43.25274" lon="-4.38554167">
        <ele>179.0</ele>
        <time>2018-05-19T08:46:28.850Z</time>
      </trkpt>
      <trkpt lat="43.25276833" lon="-4.38546167">
        <ele>179.0</ele>
        <time>2018-05-19T08:46:29.854Z</time>
      </trkpt>
      <trkpt lat="43.25276833" lon="-4.38546167">
        <ele>179.0</ele>
        <time>2018-05-19T08:46:30.848Z</time>
      </trkpt>
      <trkpt lat="43.25281667" lon="-4.3853">
        <ele>180.0</ele>
        <time>2018-05-19T08:46:31.853Z</time>
      </trkpt>
      <trkpt lat="43.25284333" lon="-4.38522167">
        <ele>180.0</ele>
        <time>2018-05-19T08:46:32.853Z</time>
      </trkpt>
      <trkpt lat="43.25284333" lon="-4.38522167">
        <ele>180.0</ele>
        <time>2018-05-19T08:46:33.848Z</time>
      </trkpt>
      <trkpt lat="43.25289667" lon="-4.385055">
        <ele>180.0</ele>
        <time>2018-05-19T08:46:34.853Z</time>
      </trkpt>
      <trkpt lat="43.25292" lon="-4.38497">
        <ele>180.0</ele>
        <time>2018-05-19T08:46:35.855Z</time>
      </trkpt>
      <trkpt lat="43.25292" lon="-4.38497">
        <ele>180.0</ele>
        <time>2018-05-19T08:46:36.849Z</time>
      </trkpt>
      <trkpt lat="43.25296833" lon="-4.38481333">
        <ele>180.0</ele>
        <time>2018-05-19T08:46:37.854Z</time>
      </trkpt>
      <trkpt lat="43.25296833" lon="-4.38481333">
        <ele>180.0</ele>
        <time>2018-05-19T08:46:38.849Z</time>
      </trkpt>
      <trkpt lat="43.25301667" lon="-4.38465833">
        <ele>180.0</ele>
        <time>2018-05-19T08:46:39.854Z</time>
      </trkpt>
      <trkpt lat="43.25301667" lon="-4.38465833">
        <ele>180.0</ele>
        <time>2018-05-19T08:46:40.848Z</time>
      </trkpt>
      <trkpt lat="43.25306333" lon="-4.38450333">
        <ele>181.0</ele>
        <time>2018-05-19T08:46:41.870Z</time>
      </trkpt>
      <trkpt lat="43.25306333" lon="-4.38450333">
        <ele>181.0</ele>
        <time>2018-05-19T08:46:42.872Z</time>
      </trkpt>
      <trkpt lat="43.25310333" lon="-4.384345">
        <ele>181.0</ele>
        <time>2018-05-19T08:46:43.855Z</time>
      </trkpt>
      <trkpt lat="43.25310333" lon="-4.384345">
        <ele>181.0</ele>
        <time>2018-05-19T08:46:44.848Z</time>
      </trkpt>
      <trkpt lat="43.25314167" lon="-4.38418667">
        <ele>182.0</ele>
        <time>2018-05-19T08:46:45.845Z</time>
      </trkpt>
      <trkpt lat="43.253155" lon="-4.384105">
        <ele>182.0</ele>
        <time>2018-05-19T08:46:46.854Z</time>
      </trkpt>
      <trkpt lat="43.25316667" lon="-4.38402167">
        <ele>182.0</ele>
        <time>2018-05-19T08:46:47.865Z</time>
      </trkpt>
      <trkpt lat="43.25316667" lon="-4.38402167">
        <ele>182.0</ele>
        <time>2018-05-19T08:46:48.867Z</time>
      </trkpt>
      <trkpt lat="43.25318333" lon="-4.38385667">
        <ele>183.0</ele>
        <time>2018-05-19T08:46:49.853Z</time>
      </trkpt>
      <trkpt lat="43.25318333" lon="-4.38385667">
        <ele>183.0</ele>
        <time>2018-05-19T08:46:50.847Z</time>
      </trkpt>
      <trkpt lat="43.253195" lon="-4.38369333">
        <ele>183.0</ele>
        <time>2018-05-19T08:46:51.868Z</time>
      </trkpt>
      <trkpt lat="43.253195" lon="-4.38369333">
        <ele>183.0</ele>
        <time>2018-05-19T08:46:52.852Z</time>
      </trkpt>
      <trkpt lat="43.253195" lon="-4.38353333">
        <ele>184.0</ele>
        <time>2018-05-19T08:46:53.855Z</time>
      </trkpt>
      <trkpt lat="43.25318833" lon="-4.383455">
        <ele>184.0</ele>
        <time>2018-05-19T08:46:54.853Z</time>
      </trkpt>
      <trkpt lat="43.25318833" lon="-4.383455">
        <ele>184.0</ele>
        <time>2018-05-19T08:46:55.851Z</time>
      </trkpt>
      <trkpt lat="43.25317833" lon="-4.38330333">
        <ele>184.0</ele>
        <time>2018-05-19T08:46:56.854Z</time>
      </trkpt>
      <trkpt lat="43.25317833" lon="-4.38330333">
        <ele>184.0</ele>
        <time>2018-05-19T08:46:57.848Z</time>
      </trkpt>
      <trkpt lat="43.25316833" lon="-4.38315167">
        <ele>185.0</ele>
        <time>2018-05-19T08:46:58.851Z</time>
      </trkpt>
      <trkpt lat="43.25316167" lon="-4.38307667">
        <ele>185.0</ele>
        <time>2018-05-19T08:46:59.854Z</time>
      </trkpt>
      <trkpt lat="43.25316167" lon="-4.38307667">
        <ele>185.0</ele>
        <time>2018-05-19T08:47:00.850Z</time>
      </trkpt>
      <trkpt lat="43.25314667" lon="-4.38293167">
        <ele>186.0</ele>
        <time>2018-05-19T08:47:01.853Z</time>
      </trkpt>
      <trkpt lat="43.25314667" lon="-4.38293167">
        <ele>186.0</ele>
        <time>2018-05-19T08:47:02.848Z</time>
      </trkpt>
      <trkpt lat="43.25313667" lon="-4.38279333">
        <ele>186.0</ele>
        <time>2018-05-19T08:47:03.847Z</time>
      </trkpt>
      <trkpt lat="43.25313" lon="-4.382725">
        <ele>186.0</ele>
        <time>2018-05-19T08:47:04.868Z</time>
      </trkpt>
      <trkpt lat="43.25313" lon="-4.382725">
        <ele>186.0</ele>
        <time>2018-05-19T08:47:05.858Z</time>
      </trkpt>
      <trkpt lat="43.25311333" lon="-4.38258667">
        <ele>187.0</ele>
        <time>2018-05-19T08:47:06.850Z</time>
      </trkpt>
      <trkpt lat="43.25310667" lon="-4.38251667">
        <ele>187.0</ele>
        <time>2018-05-19T08:47:07.853Z</time>
      </trkpt>
      <trkpt lat="43.25310667" lon="-4.38251667">
        <ele>187.0</ele>
        <time>2018-05-19T08:47:08.845Z</time>
      </trkpt>
      <trkpt lat="43.25309333" lon="-4.38237333">
        <ele>187.0</ele>
        <time>2018-05-19T08:47:09.870Z</time>
      </trkpt>
      <trkpt lat="43.25309333" lon="-4.38237333">
        <ele>187.0</ele>
        <time>2018-05-19T08:47:10.851Z</time>
      </trkpt>
      <trkpt lat="43.25307667" lon="-4.38222667">
        <ele>187.0</ele>
        <time>2018-05-19T08:47:11.854Z</time>
      </trkpt>
      <trkpt lat="43.25307667" lon="-4.38222667">
        <ele>187.0</ele>
        <time>2018-05-19T08:47:12.848Z</time>
      </trkpt>
      <trkpt lat="43.253055" lon="-4.382075">
        <ele>187.0</ele>
        <time>2018-05-19T08:47:13.873Z</time>
      </trkpt>
      <trkpt lat="43.25304333" lon="-4.38199833">
        <ele>187.0</ele>
        <time>2018-05-19T08:47:14.852Z</time>
      </trkpt>
      <trkpt lat="43.25304333" lon="-4.38199833">
        <ele>187.0</ele>
        <time>2018-05-19T08:47:15.848Z</time>
      </trkpt>
      <trkpt lat="43.25301833" lon="-4.38184833">
        <ele>187.0</ele>
        <time>2018-05-19T08:47:16.853Z</time>
      </trkpt>
      <trkpt lat="43.253005" lon="-4.38177333">
        <ele>186.0</ele>
        <time>2018-05-19T08:47:17.855Z</time>
      </trkpt>
      <trkpt lat="43.253005" lon="-4.38177333">
        <ele>186.0</ele>
        <time>2018-05-19T08:47:18.845Z</time>
      </trkpt>
      <trkpt lat="43.25299333" lon="-4.38162833">
        <ele>186.0</ele>
        <time>2018-05-19T08:47:19.853Z</time>
      </trkpt>
      <trkpt lat="43.25299333" lon="-4.38162833">
        <ele>186.0</ele>
        <time>2018-05-19T08:47:20.850Z</time>
      </trkpt>
      <trkpt lat="43.25298333" lon="-4.38148333">
        <ele>187.0</ele>
        <time>2018-05-19T08:47:21.853Z</time>
      </trkpt>
      <trkpt lat="43.25298333" lon="-4.38148333">
        <ele>187.0</ele>
        <time>2018-05-19T08:47:22.848Z</time>
      </trkpt>
      <trkpt lat="43.25297" lon="-4.38134">
        <ele>187.0</ele>
        <time>2018-05-19T08:47:23.870Z</time>
      </trkpt>
      <trkpt lat="43.25297" lon="-4.38134">
        <ele>187.0</ele>
        <time>2018-05-19T08:47:24.854Z</time>
      </trkpt>
      <trkpt lat="43.252955" lon="-4.38120167">
        <ele>187.0</ele>
        <time>2018-05-19T08:47:25.853Z</time>
      </trkpt>
      <trkpt lat="43.252955" lon="-4.38120167">
        <ele>187.0</ele>
        <time>2018-05-19T08:47:26.848Z</time>
      </trkpt>
      <trkpt lat="43.25294833" lon="-4.381075">
        <ele>186.0</ele>
        <time>2018-05-19T08:47:27.853Z</time>
      </trkpt>
      <trkpt lat="43.25294833" lon="-4.381075">
        <ele>186.0</ele>
        <time>2018-05-19T08:47:28.846Z</time>
      </trkpt>
      <trkpt lat="43.252945" lon="-4.38097333">
        <ele>187.0</ele>
        <time>2018-05-19T08:47:29.869Z</time>
      </trkpt>
      <trkpt lat="43.252945" lon="-4.38097333">
        <ele>187.0</ele>
        <time>2018-05-19T08:47:30.855Z</time>
      </trkpt>
      <trkpt lat="43.25295167" lon="-4.380925">
        <ele>187.0</ele>
        <time>2018-05-19T08:47:31.853Z</time>
      </trkpt>
      <trkpt lat="43.25295167" lon="-4.380925">
        <ele>187.0</ele>
        <time>2018-05-19T08:47:32.851Z</time>
      </trkpt>
      <trkpt lat="43.25295833" lon="-4.38088333">
        <ele>187.0</ele>
        <time>2018-05-19T08:47:33.853Z</time>
      </trkpt>
      <trkpt lat="43.25295833" lon="-4.38088333">
        <ele>187.0</ele>
        <time>2018-05-19T08:47:34.851Z</time>
      </trkpt>
      <trkpt lat="43.252945" lon="-4.38084833">
        <ele>187.0</ele>
        <time>2018-05-19T08:47:35.853Z</time>
      </trkpt>
      <trkpt lat="43.252945" lon="-4.38084833">
        <ele>187.0</ele>
        <time>2018-05-19T08:47:36.848Z</time>
      </trkpt>
      <trkpt lat="43.25292833" lon="-4.38082167">
        <ele>187.0</ele>
        <time>2018-05-19T08:47:37.853Z</time>
      </trkpt>
      <trkpt lat="43.25292833" lon="-4.38082167">
        <ele>187.0</ele>
        <time>2018-05-19T08:47:38.847Z</time>
      </trkpt>
      <trkpt lat="43.25290333" lon="-4.38080333">
        <ele>187.0</ele>
        <time>2018-05-19T08:47:39.852Z</time>
      </trkpt>
      <trkpt lat="43.25290333" lon="-4.38080333">
        <ele>187.0</ele>
        <time>2018-05-19T08:47:40.848Z</time>
      </trkpt>
      <trkpt lat="43.25288" lon="-4.3808">
        <ele>187.0</ele>
        <time>2018-05-19T08:47:41.857Z</time>
      </trkpt>
      <trkpt lat="43.25287833" lon="-4.38079667">
        <ele>188.0</ele>
        <time>2018-05-19T08:47:42.854Z</time>
      </trkpt>
      <trkpt lat="43.25287833" lon="-4.38079667">
        <ele>188.0</ele>
        <time>2018-05-19T08:47:43.851Z</time>
      </trkpt>
      <trkpt lat="43.252875" lon="-4.38079667">
        <ele>187.0</ele>
        <time>2018-05-19T08:47:44.851Z</time>
      </trkpt>
      <trkpt lat="43.25279333" lon="-4.38081833">
        <ele>187.0</ele>
        <time>2018-05-19T08:47:45.863Z</time>
      </trkpt>
      <trkpt lat="43.25279" lon="-4.38082167">
        <ele>187.0</ele>
        <time>2018-05-19T08:47:46.883Z</time>
      </trkpt>
      <trkpt lat="43.25279" lon="-4.38082167">
        <ele>187.0</ele>
        <time>2018-05-19T08:47:47.875Z</time>
      </trkpt>
      <trkpt lat="43.25278" lon="-4.38082833">
        <ele>187.0</ele>
        <time>2018-05-19T08:47:48.882Z</time>
      </trkpt>
      <trkpt lat="43.25277667" lon="-4.38083167">
        <ele>187.0</ele>
        <time>2018-05-19T08:47:49.844Z</time>
      </trkpt>
      <trkpt lat="43.25277667" lon="-4.38083167">
        <ele>187.0</ele>
        <time>2018-05-19T08:47:50.874Z</time>
      </trkpt>
      <trkpt lat="43.25277" lon="-4.38083833">
        <ele>188.0</ele>
        <time>2018-05-19T08:47:51.857Z</time>
      </trkpt>
      <trkpt lat="43.25277" lon="-4.38083833">
        <ele>188.0</ele>
        <time>2018-05-19T08:47:52.859Z</time>
      </trkpt>
      <trkpt lat="43.25277" lon="-4.38083833">
        <ele>188.0</ele>
        <time>2018-05-19T08:47:53.852Z</time>
      </trkpt>
      <trkpt lat="43.25273833" lon="-4.38087833">
        <ele>187.0</ele>
        <time>2018-05-19T08:47:54.856Z</time>
      </trkpt>
      <trkpt lat="43.252735" lon="-4.38088">
        <ele>187.0</ele>
        <time>2018-05-19T08:47:55.860Z</time>
      </trkpt>
      <trkpt lat="43.25273333" lon="-4.38088167">
        <ele>188.0</ele>
        <time>2018-05-19T08:47:56.860Z</time>
      </trkpt>
      <trkpt lat="43.25266667" lon="-4.38098167">
        <ele>185.0</ele>
        <time>2018-05-19T08:47:57.877Z</time>
      </trkpt>
      <trkpt lat="43.25266333" lon="-4.380985">
        <ele>185.0</ele>
        <time>2018-05-19T08:47:58.866Z</time>
      </trkpt>
      <trkpt lat="43.25266167" lon="-4.38098833">
        <ele>185.0</ele>
        <time>2018-05-19T08:47:59.869Z</time>
      </trkpt>
      <trkpt lat="43.25266167" lon="-4.38098833">
        <ele>185.0</ele>
        <time>2018-05-19T08:48:00.861Z</time>
      </trkpt>
      <trkpt lat="43.25262" lon="-4.38111333">
        <ele>184.0</ele>
        <time>2018-05-19T08:48:01.847Z</time>
      </trkpt>
      <trkpt lat="43.25261333" lon="-4.38112333">
        <ele>184.0</ele>
        <time>2018-05-19T08:48:02.871Z</time>
      </trkpt>
      <trkpt lat="43.25261333" lon="-4.38112333">
        <ele>184.0</ele>
        <time>2018-05-19T08:48:03.869Z</time>
      </trkpt>
      <trkpt lat="43.25259667" lon="-4.38114">
        <ele>184.0</ele>
        <time>2018-05-19T08:48:04.874Z</time>
      </trkpt>
      <trkpt lat="43.25259667" lon="-4.38114">
        <ele>184.0</ele>
        <time>2018-05-19T08:48:05.866Z</time>
      </trkpt>
      <trkpt lat="43.25258167" lon="-4.38115">
        <ele>184.0</ele>
        <time>2018-05-19T08:48:06.871Z</time>
      </trkpt>
      <trkpt lat="43.25257833" lon="-4.381155">
        <ele>184.0</ele>
        <time>2018-05-19T08:48:07.873Z</time>
      </trkpt>
      <trkpt lat="43.25257833" lon="-4.381155">
        <ele>184.0</ele>
        <time>2018-05-19T08:48:08.864Z</time>
      </trkpt>
      <trkpt lat="43.25257833" lon="-4.381155">
        <ele>184.0</ele>
        <time>2018-05-19T08:48:09.877Z</time>
      </trkpt>
      <trkpt lat="43.25255167" lon="-4.38122833">
        <ele>184.0</ele>
        <time>2018-05-19T08:48:10.864Z</time>
      </trkpt>
      <trkpt lat="43.25255167" lon="-4.38122833">
        <ele>184.0</ele>
        <time>2018-05-19T08:48:11.854Z</time>
      </trkpt>
      <trkpt lat="43.25254" lon="-4.38126333">
        <ele>184.0</ele>
        <time>2018-05-19T08:48:12.882Z</time>
      </trkpt>
      <trkpt lat="43.25254" lon="-4.38126333">
        <ele>184.0</ele>
        <time>2018-05-19T08:48:13.844Z</time>
      </trkpt>
      <trkpt lat="43.25252333" lon="-4.38129833">
        <ele>184.0</ele>
        <time>2018-05-19T08:48:14.844Z</time>
      </trkpt>
      <trkpt lat="43.25252333" lon="-4.38129833">
        <ele>184.0</ele>
        <time>2018-05-19T08:48:15.879Z</time>
      </trkpt>
      <trkpt lat="43.25249333" lon="-4.38132">
        <ele>184.0</ele>
        <time>2018-05-19T08:48:16.844Z</time>
      </trkpt>
      <trkpt lat="43.25249333" lon="-4.38132">
        <ele>184.0</ele>
        <time>2018-05-19T08:48:17.877Z</time>
      </trkpt>
      <trkpt lat="43.25246667" lon="-4.38132333">
        <ele>184.0</ele>
        <time>2018-05-19T08:48:18.882Z</time>
      </trkpt>
      <trkpt lat="43.25246667" lon="-4.38132333">
        <ele>184.0</ele>
        <time>2018-05-19T08:48:19.877Z</time>
      </trkpt>
      <trkpt lat="43.25244667" lon="-4.381315">
        <ele>184.0</ele>
        <time>2018-05-19T08:48:20.865Z</time>
      </trkpt>
      <trkpt lat="43.25243833" lon="-4.38131">
        <ele>184.0</ele>
        <time>2018-05-19T08:48:21.855Z</time>
      </trkpt>
      <trkpt lat="43.25243833" lon="-4.38131">
        <ele>184.0</ele>
        <time>2018-05-19T08:48:22.878Z</time>
      </trkpt>
      <trkpt lat="43.25242333" lon="-4.38130167">
        <ele>184.0</ele>
        <time>2018-05-19T08:48:23.878Z</time>
      </trkpt>
      <trkpt lat="43.25242333" lon="-4.38130167">
        <ele>184.0</ele>
        <time>2018-05-19T08:48:24.877Z</time>
      </trkpt>
      <trkpt lat="43.25239667" lon="-4.38128667">
        <ele>184.0</ele>
        <time>2018-05-19T08:48:25.882Z</time>
      </trkpt>
      <trkpt lat="43.25238333" lon="-4.381275">
        <ele>184.0</ele>
        <time>2018-05-19T08:48:26.844Z</time>
      </trkpt>
      <trkpt lat="43.25238333" lon="-4.381275">
        <ele>184.0</ele>
        <time>2018-05-19T08:48:27.878Z</time>
      </trkpt>
      <trkpt lat="43.25236333" lon="-4.38125167">
        <ele>184.0</ele>
        <time>2018-05-19T08:48:28.883Z</time>
      </trkpt>
      <trkpt lat="43.25236333" lon="-4.38125167">
        <ele>184.0</ele>
        <time>2018-05-19T08:48:29.878Z</time>
      </trkpt>
      <trkpt lat="43.25234333" lon="-4.381235">
        <ele>184.0</ele>
        <time>2018-05-19T08:48:30.861Z</time>
      </trkpt>
      <trkpt lat="43.25233333" lon="-4.38122333">
        <ele>184.0</ele>
        <time>2018-05-19T08:48:31.865Z</time>
      </trkpt>
      <trkpt lat="43.25232167" lon="-4.38121">
        <ele>184.0</ele>
        <time>2018-05-19T08:48:32.849Z</time>
      </trkpt>
      <trkpt lat="43.25232167" lon="-4.38121">
        <ele>184.0</ele>
        <time>2018-05-19T08:48:33.877Z</time>
      </trkpt>
      <trkpt lat="43.25229667" lon="-4.38119333">
        <ele>185.0</ele>
        <time>2018-05-19T08:48:34.882Z</time>
      </trkpt>
      <trkpt lat="43.25229667" lon="-4.38119333">
        <ele>185.0</ele>
        <time>2018-05-19T08:48:35.879Z</time>
      </trkpt>
      <trkpt lat="43.25227167" lon="-4.38117833">
        <ele>185.0</ele>
        <time>2018-05-19T08:48:36.882Z</time>
      </trkpt>
      <trkpt lat="43.25227167" lon="-4.38117833">
        <ele>185.0</ele>
        <time>2018-05-19T08:48:37.877Z</time>
      </trkpt>
      <trkpt lat="43.25224333" lon="-4.38117667">
        <ele>186.0</ele>
        <time>2018-05-19T08:48:38.860Z</time>
      </trkpt>
      <trkpt lat="43.25224333" lon="-4.38117667">
        <ele>186.0</ele>
        <time>2018-05-19T08:48:39.846Z</time>
      </trkpt>
      <trkpt lat="43.25221667" lon="-4.38117333">
        <ele>186.0</ele>
        <time>2018-05-19T08:48:40.851Z</time>
      </trkpt>
      <trkpt lat="43.25221667" lon="-4.38117333">
        <ele>186.0</ele>
        <time>2018-05-19T08:48:41.877Z</time>
      </trkpt>
      <trkpt lat="43.252195" lon="-4.38116167">
        <ele>187.0</ele>
        <time>2018-05-19T08:48:42.882Z</time>
      </trkpt>
      <trkpt lat="43.252195" lon="-4.38116167">
        <ele>187.0</ele>
        <time>2018-05-19T08:48:43.876Z</time>
      </trkpt>
      <trkpt lat="43.25217167" lon="-4.38115">
        <ele>187.0</ele>
        <time>2018-05-19T08:48:44.858Z</time>
      </trkpt>
      <trkpt lat="43.25217167" lon="-4.38115">
        <ele>187.0</ele>
        <time>2018-05-19T08:48:45.879Z</time>
      </trkpt>
      <trkpt lat="43.25214167" lon="-4.38114167">
        <ele>188.0</ele>
        <time>2018-05-19T08:48:46.851Z</time>
      </trkpt>
      <trkpt lat="43.25214167" lon="-4.38114167">
        <ele>188.0</ele>
        <time>2018-05-19T08:48:47.857Z</time>
      </trkpt>
      <trkpt lat="43.25211667" lon="-4.38112667">
        <ele>188.0</ele>
        <time>2018-05-19T08:48:48.884Z</time>
      </trkpt>
      <trkpt lat="43.25211667" lon="-4.38112667">
        <ele>188.0</ele>
        <time>2018-05-19T08:48:49.876Z</time>
      </trkpt>
      <trkpt lat="43.25209" lon="-4.38109833">
        <ele>188.0</ele>
        <time>2018-05-19T08:48:50.845Z</time>
      </trkpt>
      <trkpt lat="43.252075" lon="-4.38108333">
        <ele>188.0</ele>
        <time>2018-05-19T08:48:51.847Z</time>
      </trkpt>
      <trkpt lat="43.25206167" lon="-4.38107">
        <ele>188.0</ele>
        <time>2018-05-19T08:48:52.880Z</time>
      </trkpt>
      <trkpt lat="43.25206167" lon="-4.38107">
        <ele>188.0</ele>
        <time>2018-05-19T08:48:53.873Z</time>
      </trkpt>
      <trkpt lat="43.25204333" lon="-4.38103333">
        <ele>189.0</ele>
        <time>2018-05-19T08:48:54.857Z</time>
      </trkpt>
      <trkpt lat="43.25204333" lon="-4.38103333">
        <ele>189.0</ele>
        <time>2018-05-19T08:48:55.879Z</time>
      </trkpt>
      <trkpt lat="43.25203167" lon="-4.38099667">
        <ele>189.0</ele>
        <time>2018-05-19T08:48:56.881Z</time>
      </trkpt>
      <trkpt lat="43.25203167" lon="-4.38099667">
        <ele>189.0</ele>
        <time>2018-05-19T08:48:57.877Z</time>
      </trkpt>
      <trkpt lat="43.25201833" lon="-4.380955">
        <ele>189.0</ele>
        <time>2018-05-19T08:48:58.882Z</time>
      </trkpt>
      <trkpt lat="43.25201833" lon="-4.380955">
        <ele>189.0</ele>
        <time>2018-05-19T08:48:59.877Z</time>
      </trkpt>
      <trkpt lat="43.252015" lon="-4.38091333">
        <ele>189.0</ele>
        <time>2018-05-19T08:49:00.844Z</time>
      </trkpt>
      <trkpt lat="43.25201167" lon="-4.38089667">
        <ele>189.0</ele>
        <time>2018-05-19T08:49:01.851Z</time>
      </trkpt>
      <trkpt lat="43.25200667" lon="-4.38087833">
        <ele>189.0</ele>
        <time>2018-05-19T08:49:02.883Z</time>
      </trkpt>
      <trkpt lat="43.25200667" lon="-4.38087833">
        <ele>189.0</ele>
        <time>2018-05-19T08:49:03.874Z</time>
      </trkpt>
      <trkpt lat="43.25200667" lon="-4.38084">
        <ele>189.0</ele>
        <time>2018-05-19T08:49:04.856Z</time>
      </trkpt>
      <trkpt lat="43.25200667" lon="-4.38084">
        <ele>189.0</ele>
        <time>2018-05-19T08:49:05.882Z</time>
      </trkpt>
      <trkpt lat="43.25200167" lon="-4.3808">
        <ele>189.0</ele>
        <time>2018-05-19T08:49:06.882Z</time>
      </trkpt>
      <trkpt lat="43.25200167" lon="-4.38078167">
        <ele>190.0</ele>
        <time>2018-05-19T08:49:07.883Z</time>
      </trkpt>
      <trkpt lat="43.25200167" lon="-4.38078167">
        <ele>190.0</ele>
        <time>2018-05-19T08:49:08.881Z</time>
      </trkpt>
      <trkpt lat="43.25199833" lon="-4.380745">
        <ele>190.0</ele>
        <time>2018-05-19T08:49:09.881Z</time>
      </trkpt>
      <trkpt lat="43.25199667" lon="-4.38072833">
        <ele>190.0</ele>
        <time>2018-05-19T08:49:10.883Z</time>
      </trkpt>
      <trkpt lat="43.25199667" lon="-4.38072833">
        <ele>190.0</ele>
        <time>2018-05-19T08:49:11.857Z</time>
      </trkpt>
      <trkpt lat="43.25200167" lon="-4.380715">
        <ele>190.0</ele>
        <time>2018-05-19T08:49:12.881Z</time>
      </trkpt>
      <trkpt lat="43.25200167" lon="-4.380715">
        <ele>190.0</ele>
        <time>2018-05-19T08:49:13.876Z</time>
      </trkpt>
      <trkpt lat="43.25200333" lon="-4.38071833">
        <ele>190.0</ele>
        <time>2018-05-19T08:49:14.883Z</time>
      </trkpt>
      <trkpt lat="43.25200333" lon="-4.38071833">
        <ele>190.0</ele>
        <time>2018-05-19T08:49:15.863Z</time>
      </trkpt>
      <trkpt lat="43.25200167" lon="-4.38065">
        <ele>190.0</ele>
        <time>2018-05-19T08:49:16.853Z</time>
      </trkpt>
      <trkpt lat="43.25200167" lon="-4.38065">
        <ele>190.0</ele>
        <time>2018-05-19T08:49:17.848Z</time>
      </trkpt>
      <trkpt lat="43.25199167" lon="-4.38059167">
        <ele>190.0</ele>
        <time>2018-05-19T08:49:18.851Z</time>
      </trkpt>
      <trkpt lat="43.25199167" lon="-4.38059167">
        <ele>190.0</ele>
        <time>2018-05-19T08:49:19.846Z</time>
      </trkpt>
      <trkpt lat="43.251965" lon="-4.38052667">
        <ele>190.0</ele>
        <time>2018-05-19T08:49:20.864Z</time>
      </trkpt>
      <trkpt lat="43.251965" lon="-4.38052667">
        <ele>190.0</ele>
        <time>2018-05-19T08:49:21.847Z</time>
      </trkpt>
      <trkpt lat="43.25191667" lon="-4.38045333">
        <ele>190.0</ele>
        <time>2018-05-19T08:49:22.851Z</time>
      </trkpt>
      <trkpt lat="43.25191667" lon="-4.38045333">
        <ele>190.0</ele>
        <time>2018-05-19T08:49:23.845Z</time>
      </trkpt>
      <trkpt lat="43.251855" lon="-4.38037333">
        <ele>190.0</ele>
        <time>2018-05-19T08:49:24.850Z</time>
      </trkpt>
      <trkpt lat="43.251855" lon="-4.38037333">
        <ele>190.0</ele>
        <time>2018-05-19T08:49:25.845Z</time>
      </trkpt>
      <trkpt lat="43.25179667" lon="-4.38027333">
        <ele>189.0</ele>
        <time>2018-05-19T08:49:26.850Z</time>
      </trkpt>
      <trkpt lat="43.25179667" lon="-4.38027333">
        <ele>189.0</ele>
        <time>2018-05-19T08:49:27.845Z</time>
      </trkpt>
      <trkpt lat="43.25176167" lon="-4.38015">
        <ele>188.0</ele>
        <time>2018-05-19T08:49:28.852Z</time>
      </trkpt>
      <trkpt lat="43.25176167" lon="-4.38015">
        <ele>188.0</ele>
        <time>2018-05-19T08:49:29.846Z</time>
      </trkpt>
      <trkpt lat="43.251755" lon="-4.38">
        <ele>188.0</ele>
        <time>2018-05-19T08:49:30.854Z</time>
      </trkpt>
      <trkpt lat="43.251755" lon="-4.38">
        <ele>188.0</ele>
        <time>2018-05-19T08:49:31.848Z</time>
      </trkpt>
      <trkpt lat="43.25176667" lon="-4.37984667">
        <ele>187.0</ele>
        <time>2018-05-19T08:49:32.851Z</time>
      </trkpt>
      <trkpt lat="43.25178" lon="-4.37977167">
        <ele>187.0</ele>
        <time>2018-05-19T08:49:33.851Z</time>
      </trkpt>
      <trkpt lat="43.25178" lon="-4.37977167">
        <ele>187.0</ele>
        <time>2018-05-19T08:49:34.847Z</time>
      </trkpt>
      <trkpt lat="43.25181667" lon="-4.37962667">
        <ele>186.0</ele>
        <time>2018-05-19T08:49:35.851Z</time>
      </trkpt>
      <trkpt lat="43.25183833" lon="-4.37955333">
        <ele>186.0</ele>
        <time>2018-05-19T08:49:36.851Z</time>
      </trkpt>
      <trkpt lat="43.25183833" lon="-4.37955333">
        <ele>186.0</ele>
        <time>2018-05-19T08:49:37.866Z</time>
      </trkpt>
      <trkpt lat="43.25186833" lon="-4.37940667">
        <ele>186.0</ele>
        <time>2018-05-19T08:49:38.852Z</time>
      </trkpt>
      <trkpt lat="43.25188" lon="-4.37933667">
        <ele>186.0</ele>
        <time>2018-05-19T08:49:39.850Z</time>
      </trkpt>
      <trkpt lat="43.25188" lon="-4.37933667">
        <ele>186.0</ele>
        <time>2018-05-19T08:49:40.879Z</time>
      </trkpt>
      <trkpt lat="43.251915" lon="-4.379215">
        <ele>187.0</ele>
        <time>2018-05-19T08:49:41.860Z</time>
      </trkpt>
      <trkpt lat="43.251915" lon="-4.379215">
        <ele>187.0</ele>
        <time>2018-05-19T08:49:42.859Z</time>
      </trkpt>
      <trkpt lat="43.25194667" lon="-4.37911333">
        <ele>189.0</ele>
        <time>2018-05-19T08:49:43.860Z</time>
      </trkpt>
      <trkpt lat="43.25196167" lon="-4.37906833">
        <ele>189.0</ele>
        <time>2018-05-19T08:49:44.849Z</time>
      </trkpt>
      <trkpt lat="43.25196167" lon="-4.37906833">
        <ele>189.0</ele>
        <time>2018-05-19T08:49:45.856Z</time>
      </trkpt>
      <trkpt lat="43.25199" lon="-4.37898167">
        <ele>190.0</ele>
        <time>2018-05-19T08:49:46.869Z</time>
      </trkpt>
      <trkpt lat="43.25200167" lon="-4.37894">
        <ele>191.0</ele>
        <time>2018-05-19T08:49:47.876Z</time>
      </trkpt>
      <trkpt lat="43.25200167" lon="-4.37894">
        <ele>191.0</ele>
        <time>2018-05-19T08:49:48.881Z</time>
      </trkpt>
      <trkpt lat="43.25202" lon="-4.37885833">
        <ele>192.0</ele>
        <time>2018-05-19T08:49:49.867Z</time>
      </trkpt>
      <trkpt lat="43.25202" lon="-4.37885833">
        <ele>192.0</ele>
        <time>2018-05-19T08:49:50.854Z</time>
      </trkpt>
      <trkpt lat="43.25203" lon="-4.37877">
        <ele>193.0</ele>
        <time>2018-05-19T08:49:51.861Z</time>
      </trkpt>
      <trkpt lat="43.25203" lon="-4.378725">
        <ele>193.0</ele>
        <time>2018-05-19T08:49:52.851Z</time>
      </trkpt>
      <trkpt lat="43.25203" lon="-4.378725">
        <ele>193.0</ele>
        <time>2018-05-19T08:49:53.881Z</time>
      </trkpt>
      <trkpt lat="43.252025" lon="-4.37862667">
        <ele>193.0</ele>
        <time>2018-05-19T08:49:54.863Z</time>
      </trkpt>
      <trkpt lat="43.252025" lon="-4.37862667">
        <ele>193.0</ele>
        <time>2018-05-19T08:49:55.846Z</time>
      </trkpt>
      <trkpt lat="43.25202833" lon="-4.37852">
        <ele>194.0</ele>
        <time>2018-05-19T08:49:56.851Z</time>
      </trkpt>
      <trkpt lat="43.25202833" lon="-4.37852">
        <ele>194.0</ele>
        <time>2018-05-19T08:49:57.845Z</time>
      </trkpt>
      <trkpt lat="43.25205167" lon="-4.378415">
        <ele>194.0</ele>
        <time>2018-05-19T08:49:58.851Z</time>
      </trkpt>
      <trkpt lat="43.25205167" lon="-4.378415">
        <ele>194.0</ele>
        <time>2018-05-19T08:49:59.845Z</time>
      </trkpt>
      <trkpt lat="43.25208833" lon="-4.37831167">
        <ele>194.0</ele>
        <time>2018-05-19T08:50:00.851Z</time>
      </trkpt>
      <trkpt lat="43.25208833" lon="-4.37831167">
        <ele>194.0</ele>
        <time>2018-05-19T08:50:01.845Z</time>
      </trkpt>
      <trkpt lat="43.25212167" lon="-4.37821667">
        <ele>194.0</ele>
        <time>2018-05-19T08:50:02.850Z</time>
      </trkpt>
      <trkpt lat="43.25212167" lon="-4.37821667">
        <ele>194.0</ele>
        <time>2018-05-19T08:50:03.845Z</time>
      </trkpt>
      <trkpt lat="43.25215333" lon="-4.37812167">
        <ele>195.0</ele>
        <time>2018-05-19T08:50:04.867Z</time>
      </trkpt>
      <trkpt lat="43.25215333" lon="-4.37812167">
        <ele>195.0</ele>
        <time>2018-05-19T08:50:05.852Z</time>
      </trkpt>
      <trkpt lat="43.25218833" lon="-4.378035">
        <ele>196.0</ele>
        <time>2018-05-19T08:50:06.851Z</time>
      </trkpt>
      <trkpt lat="43.25218833" lon="-4.378035">
        <ele>196.0</ele>
        <time>2018-05-19T08:50:07.848Z</time>
      </trkpt>
      <trkpt lat="43.252225" lon="-4.37795">
        <ele>197.0</ele>
        <time>2018-05-19T08:50:08.850Z</time>
      </trkpt>
      <trkpt lat="43.25224333" lon="-4.37790667">
        <ele>197.0</ele>
        <time>2018-05-19T08:50:09.850Z</time>
      </trkpt>
      <trkpt lat="43.25226333" lon="-4.37786167">
        <ele>197.0</ele>
        <time>2018-05-19T08:50:10.852Z</time>
      </trkpt>
      <trkpt lat="43.25226333" lon="-4.37786167">
        <ele>197.0</ele>
        <time>2018-05-19T08:50:11.851Z</time>
      </trkpt>
      <trkpt lat="43.252305" lon="-4.37777">
        <ele>198.0</ele>
        <time>2018-05-19T08:50:12.851Z</time>
      </trkpt>
      <trkpt lat="43.252305" lon="-4.37777">
        <ele>198.0</ele>
        <time>2018-05-19T08:50:13.875Z</time>
      </trkpt>
      <trkpt lat="43.25232667" lon="-4.37766167">
        <ele>198.0</ele>
        <time>2018-05-19T08:50:14.861Z</time>
      </trkpt>
      <trkpt lat="43.25232667" lon="-4.37766167">
        <ele>198.0</ele>
        <time>2018-05-19T08:50:15.847Z</time>
      </trkpt>
      <trkpt lat="43.252335" lon="-4.37754667">
        <ele>198.0</ele>
        <time>2018-05-19T08:50:16.851Z</time>
      </trkpt>
      <trkpt lat="43.252335" lon="-4.37754667">
        <ele>198.0</ele>
        <time>2018-05-19T08:50:17.845Z</time>
      </trkpt>
      <trkpt lat="43.25234333" lon="-4.37743167">
        <ele>198.0</ele>
        <time>2018-05-19T08:50:18.850Z</time>
      </trkpt>
      <trkpt lat="43.25234333" lon="-4.37743167">
        <ele>198.0</ele>
        <time>2018-05-19T08:50:19.846Z</time>
      </trkpt>
      <trkpt lat="43.25237333" lon="-4.37732833">
        <ele>198.0</ele>
        <time>2018-05-19T08:50:20.850Z</time>
      </trkpt>
      <trkpt lat="43.25237333" lon="-4.37732833">
        <ele>198.0</ele>
        <time>2018-05-19T08:50:21.846Z</time>
      </trkpt>
      <trkpt lat="43.25242333" lon="-4.37723833">
        <ele>199.0</ele>
        <time>2018-05-19T08:50:22.851Z</time>
      </trkpt>
      <trkpt lat="43.25242333" lon="-4.37723833">
        <ele>199.0</ele>
        <time>2018-05-19T08:50:23.845Z</time>
      </trkpt>
      <trkpt lat="43.25248333" lon="-4.37715333">
        <ele>199.0</ele>
        <time>2018-05-19T08:50:24.851Z</time>
      </trkpt>
      <trkpt lat="43.25248333" lon="-4.37715333">
        <ele>199.0</ele>
        <time>2018-05-19T08:50:25.844Z</time>
      </trkpt>
      <trkpt lat="43.25256333" lon="-4.37708167">
        <ele>200.0</ele>
        <time>2018-05-19T08:50:26.850Z</time>
      </trkpt>
      <trkpt lat="43.25256333" lon="-4.37708167">
        <ele>200.0</ele>
        <time>2018-05-19T08:50:27.846Z</time>
      </trkpt>
      <trkpt lat="43.25266333" lon="-4.37701">
        <ele>200.0</ele>
        <time>2018-05-19T08:50:28.852Z</time>
      </trkpt>
      <trkpt lat="43.25266333" lon="-4.37701">
        <ele>200.0</ele>
        <time>2018-05-19T08:50:29.844Z</time>
      </trkpt>
      <trkpt lat="43.25278333" lon="-4.37695">
        <ele>199.0</ele>
        <time>2018-05-19T08:50:30.850Z</time>
      </trkpt>
      <trkpt lat="43.252845" lon="-4.37693167">
        <ele>199.0</ele>
        <time>2018-05-19T08:50:31.856Z</time>
      </trkpt>
      <trkpt lat="43.252845" lon="-4.37693167">
        <ele>199.0</ele>
        <time>2018-05-19T08:50:32.845Z</time>
      </trkpt>
      <trkpt lat="43.25297" lon="-4.3769">
        <ele>199.0</ele>
        <time>2018-05-19T08:50:33.846Z</time>
      </trkpt>
      <trkpt lat="43.25302833" lon="-4.37688667">
        <ele>199.0</ele>
        <time>2018-05-19T08:50:34.850Z</time>
      </trkpt>
      <trkpt lat="43.25302833" lon="-4.37688667">
        <ele>199.0</ele>
        <time>2018-05-19T08:50:35.844Z</time>
      </trkpt>
      <trkpt lat="43.25314833" lon="-4.37686333">
        <ele>199.0</ele>
        <time>2018-05-19T08:50:36.851Z</time>
      </trkpt>
      <trkpt lat="43.25314833" lon="-4.37686333">
        <ele>199.0</ele>
        <time>2018-05-19T08:50:37.844Z</time>
      </trkpt>
      <trkpt lat="43.25326333" lon="-4.37681333">
        <ele>199.0</ele>
        <time>2018-05-19T08:50:38.850Z</time>
      </trkpt>
      <trkpt lat="43.25326333" lon="-4.37681333">
        <ele>199.0</ele>
        <time>2018-05-19T08:50:39.844Z</time>
      </trkpt>
      <trkpt lat="43.25336833" lon="-4.37674">
        <ele>199.0</ele>
        <time>2018-05-19T08:50:40.883Z</time>
      </trkpt>
      <trkpt lat="43.25336833" lon="-4.37674">
        <ele>199.0</ele>
        <time>2018-05-19T08:50:41.845Z</time>
      </trkpt>
      <trkpt lat="43.25346" lon="-4.37665167">
        <ele>199.0</ele>
        <time>2018-05-19T08:50:42.850Z</time>
      </trkpt>
      <trkpt lat="43.25346" lon="-4.37665167">
        <ele>199.0</ele>
        <time>2018-05-19T08:50:43.877Z</time>
      </trkpt>
      <trkpt lat="43.25353667" lon="-4.37654">
        <ele>199.0</ele>
        <time>2018-05-19T08:50:44.862Z</time>
      </trkpt>
      <trkpt lat="43.25353667" lon="-4.37654">
        <ele>199.0</ele>
        <time>2018-05-19T08:50:45.870Z</time>
      </trkpt>
      <trkpt lat="43.25359333" lon="-4.37642">
        <ele>200.0</ele>
        <time>2018-05-19T08:50:46.867Z</time>
      </trkpt>
      <trkpt lat="43.25359333" lon="-4.37642">
        <ele>200.0</ele>
        <time>2018-05-19T08:50:47.874Z</time>
      </trkpt>
      <trkpt lat="43.253645" lon="-4.37629167">
        <ele>200.0</ele>
        <time>2018-05-19T08:50:48.882Z</time>
      </trkpt>
      <trkpt lat="43.253645" lon="-4.37629167">
        <ele>200.0</ele>
        <time>2018-05-19T08:50:49.867Z</time>
      </trkpt>
      <trkpt lat="43.25370333" lon="-4.37615833">
        <ele>200.0</ele>
        <time>2018-05-19T08:50:50.856Z</time>
      </trkpt>
      <trkpt lat="43.25370333" lon="-4.37615833">
        <ele>200.0</ele>
        <time>2018-05-19T08:50:51.845Z</time>
      </trkpt>
      <trkpt lat="43.25376333" lon="-4.37601333">
        <ele>201.0</ele>
        <time>2018-05-19T08:50:52.851Z</time>
      </trkpt>
      <trkpt lat="43.25376333" lon="-4.37601333">
        <ele>201.0</ele>
        <time>2018-05-19T08:50:53.880Z</time>
      </trkpt>
      <trkpt lat="43.25383167" lon="-4.37587167">
        <ele>201.0</ele>
        <time>2018-05-19T08:50:54.864Z</time>
      </trkpt>
      <trkpt lat="43.25383167" lon="-4.37587167">
        <ele>201.0</ele>
        <time>2018-05-19T08:50:55.847Z</time>
      </trkpt>
      <trkpt lat="43.25390333" lon="-4.37573167">
        <ele>201.0</ele>
        <time>2018-05-19T08:50:56.849Z</time>
      </trkpt>
      <trkpt lat="43.25394" lon="-4.37565833">
        <ele>200.0</ele>
        <time>2018-05-19T08:50:57.851Z</time>
      </trkpt>
      <trkpt lat="43.25394" lon="-4.37565833">
        <ele>200.0</ele>
        <time>2018-05-19T08:50:58.848Z</time>
      </trkpt>
      <trkpt lat="43.25400667" lon="-4.37549">
        <ele>200.0</ele>
        <time>2018-05-19T08:50:59.856Z</time>
      </trkpt>
      <trkpt lat="43.25403167" lon="-4.37539667">
        <ele>200.0</ele>
        <time>2018-05-19T08:51:00.850Z</time>
      </trkpt>
      <trkpt lat="43.25403167" lon="-4.37539667">
        <ele>200.0</ele>
        <time>2018-05-19T08:51:01.849Z</time>
      </trkpt>
      <trkpt lat="43.25407833" lon="-4.37522">
        <ele>199.0</ele>
        <time>2018-05-19T08:51:02.849Z</time>
      </trkpt>
      <trkpt lat="43.25407833" lon="-4.37522">
        <ele>199.0</ele>
        <time>2018-05-19T08:51:03.844Z</time>
      </trkpt>
      <trkpt lat="43.254135" lon="-4.37505833">
        <ele>199.0</ele>
        <time>2018-05-19T08:51:04.867Z</time>
      </trkpt>
      <trkpt lat="43.254135" lon="-4.37505833">
        <ele>199.0</ele>
        <time>2018-05-19T08:51:05.852Z</time>
      </trkpt>
      <trkpt lat="43.25418833" lon="-4.37489833">
        <ele>198.0</ele>
        <time>2018-05-19T08:51:06.851Z</time>
      </trkpt>
      <trkpt lat="43.25418833" lon="-4.37489833">
        <ele>198.0</ele>
        <time>2018-05-19T08:51:07.844Z</time>
      </trkpt>
      <trkpt lat="43.25421667" lon="-4.37474333">
        <ele>198.0</ele>
        <time>2018-05-19T08:51:08.849Z</time>
      </trkpt>
      <trkpt lat="43.25421667" lon="-4.37474333">
        <ele>198.0</ele>
        <time>2018-05-19T08:51:09.844Z</time>
      </trkpt>
      <trkpt lat="43.25417" lon="-4.374605">
        <ele>198.0</ele>
        <time>2018-05-19T08:51:10.851Z</time>
      </trkpt>
      <trkpt lat="43.25417" lon="-4.374605">
        <ele>198.0</ele>
        <time>2018-05-19T08:51:11.844Z</time>
      </trkpt>
      <trkpt lat="43.25410333" lon="-4.374535">
        <ele>198.0</ele>
        <time>2018-05-19T08:51:12.850Z</time>
      </trkpt>
      <trkpt lat="43.25410333" lon="-4.374535">
        <ele>198.0</ele>
        <time>2018-05-19T08:51:13.844Z</time>
      </trkpt>
      <trkpt lat="43.25403667" lon="-4.37446833">
        <ele>198.0</ele>
        <time>2018-05-19T08:51:14.862Z</time>
      </trkpt>
      <trkpt lat="43.25402" lon="-4.37443333">
        <ele>198.0</ele>
        <time>2018-05-19T08:51:15.852Z</time>
      </trkpt>
      <trkpt lat="43.25402" lon="-4.37443333">
        <ele>198.0</ele>
        <time>2018-05-19T08:51:16.848Z</time>
      </trkpt>
      <trkpt lat="43.25397333" lon="-4.37433333">
        <ele>199.0</ele>
        <time>2018-05-19T08:51:17.849Z</time>
      </trkpt>
      <trkpt lat="43.25395" lon="-4.37428167">
        <ele>199.0</ele>
        <time>2018-05-19T08:51:18.850Z</time>
      </trkpt>
      <trkpt lat="43.25395" lon="-4.37428167">
        <ele>199.0</ele>
        <time>2018-05-19T08:51:19.880Z</time>
      </trkpt>
      <trkpt lat="43.25391167" lon="-4.37419667">
        <ele>199.0</ele>
        <time>2018-05-19T08:51:20.866Z</time>
      </trkpt>
      <trkpt lat="43.25391167" lon="-4.37419667">
        <ele>199.0</ele>
        <time>2018-05-19T08:51:21.849Z</time>
      </trkpt>
      <trkpt lat="43.25387833" lon="-4.3741">
        <ele>199.0</ele>
        <time>2018-05-19T08:51:22.851Z</time>
      </trkpt>
      <trkpt lat="43.25387833" lon="-4.3741">
        <ele>199.0</ele>
        <time>2018-05-19T08:51:23.844Z</time>
      </trkpt>
      <trkpt lat="43.25383333" lon="-4.37398833">
        <ele>199.0</ele>
        <time>2018-05-19T08:51:24.850Z</time>
      </trkpt>
      <trkpt lat="43.25383333" lon="-4.37398833">
        <ele>199.0</ele>
        <time>2018-05-19T08:51:25.844Z</time>
      </trkpt>
      <trkpt lat="43.253795" lon="-4.373845">
        <ele>199.0</ele>
        <time>2018-05-19T08:51:26.850Z</time>
      </trkpt>
      <trkpt lat="43.253785" lon="-4.37376167">
        <ele>199.0</ele>
        <time>2018-05-19T08:51:27.850Z</time>
      </trkpt>
      <trkpt lat="43.253785" lon="-4.37376167">
        <ele>199.0</ele>
        <time>2018-05-19T08:51:28.848Z</time>
      </trkpt>
      <trkpt lat="43.25377667" lon="-4.37359">
        <ele>198.0</ele>
        <time>2018-05-19T08:51:29.849Z</time>
      </trkpt>
      <trkpt lat="43.25376833" lon="-4.3735">
        <ele>198.0</ele>
        <time>2018-05-19T08:51:30.850Z</time>
      </trkpt>
      <trkpt lat="43.25376833" lon="-4.3735">
        <ele>198.0</ele>
        <time>2018-05-19T08:51:31.845Z</time>
      </trkpt>
      <trkpt lat="43.25375167" lon="-4.37331">
        <ele>198.0</ele>
        <time>2018-05-19T08:51:32.848Z</time>
      </trkpt>
      <trkpt lat="43.25375167" lon="-4.37331">
        <ele>198.0</ele>
        <time>2018-05-19T08:51:33.844Z</time>
      </trkpt>
      <trkpt lat="43.253755" lon="-4.37312167">
        <ele>199.0</ele>
        <time>2018-05-19T08:51:34.851Z</time>
      </trkpt>
      <trkpt lat="43.253755" lon="-4.37312167">
        <ele>199.0</ele>
        <time>2018-05-19T08:51:35.844Z</time>
      </trkpt>
      <trkpt lat="43.25378833" lon="-4.37294667">
        <ele>199.0</ele>
        <time>2018-05-19T08:51:36.850Z</time>
      </trkpt>
      <trkpt lat="43.25378833" lon="-4.37294667">
        <ele>199.0</ele>
        <time>2018-05-19T08:51:37.844Z</time>
      </trkpt>
      <trkpt lat="43.25384" lon="-4.37278">
        <ele>199.0</ele>
        <time>2018-05-19T08:51:38.849Z</time>
      </trkpt>
      <trkpt lat="43.25384" lon="-4.37278">
        <ele>199.0</ele>
        <time>2018-05-19T08:51:39.844Z</time>
      </trkpt>
      <trkpt lat="43.2539" lon="-4.37262667">
        <ele>199.0</ele>
        <time>2018-05-19T08:51:40.873Z</time>
      </trkpt>
      <trkpt lat="43.2539" lon="-4.37262667">
        <ele>199.0</ele>
        <time>2018-05-19T08:51:41.857Z</time>
      </trkpt>
      <trkpt lat="43.25398667" lon="-4.37250333">
        <ele>199.0</ele>
        <time>2018-05-19T08:51:42.850Z</time>
      </trkpt>
      <trkpt lat="43.25398667" lon="-4.37250333">
        <ele>199.0</ele>
        <time>2018-05-19T08:51:43.876Z</time>
      </trkpt>
      <trkpt lat="43.25408333" lon="-4.372405">
        <ele>199.0</ele>
        <time>2018-05-19T08:51:44.861Z</time>
      </trkpt>
      <trkpt lat="43.25408333" lon="-4.372405">
        <ele>199.0</ele>
        <time>2018-05-19T08:51:45.878Z</time>
      </trkpt>
      <trkpt lat="43.254175" lon="-4.372305">
        <ele>199.0</ele>
        <time>2018-05-19T08:51:46.847Z</time>
      </trkpt>
      <trkpt lat="43.254175" lon="-4.372305">
        <ele>199.0</ele>
        <time>2018-05-19T08:51:47.853Z</time>
      </trkpt>
      <trkpt lat="43.25426667" lon="-4.37218167">
        <ele>199.0</ele>
        <time>2018-05-19T08:51:48.860Z</time>
      </trkpt>
      <trkpt lat="43.25430833" lon="-4.37211333">
        <ele>199.0</ele>
        <time>2018-05-19T08:51:49.849Z</time>
      </trkpt>
      <trkpt lat="43.25430833" lon="-4.37211333">
        <ele>199.0</ele>
        <time>2018-05-19T08:51:50.844Z</time>
      </trkpt>
      <trkpt lat="43.254385" lon="-4.37195167">
        <ele>199.0</ele>
        <time>2018-05-19T08:51:51.849Z</time>
      </trkpt>
      <trkpt lat="43.25442" lon="-4.37186333">
        <ele>199.0</ele>
        <time>2018-05-19T08:51:52.848Z</time>
      </trkpt>
      <trkpt lat="43.25442" lon="-4.37186333">
        <ele>199.0</ele>
        <time>2018-05-19T08:51:53.876Z</time>
      </trkpt>
      <trkpt lat="43.254475" lon="-4.37168667">
        <ele>199.0</ele>
        <time>2018-05-19T08:51:54.862Z</time>
      </trkpt>
      <trkpt lat="43.254475" lon="-4.37168667">
        <ele>199.0</ele>
        <time>2018-05-19T08:51:55.846Z</time>
      </trkpt>
      <trkpt lat="43.254515" lon="-4.37151333">
        <ele>199.0</ele>
        <time>2018-05-19T08:51:56.849Z</time>
      </trkpt>
      <trkpt lat="43.254515" lon="-4.37151333">
        <ele>199.0</ele>
        <time>2018-05-19T08:51:57.844Z</time>
      </trkpt>
      <trkpt lat="43.25454" lon="-4.371355">
        <ele>199.0</ele>
        <time>2018-05-19T08:51:58.868Z</time>
      </trkpt>
      <trkpt lat="43.25454" lon="-4.371355">
        <ele>199.0</ele>
        <time>2018-05-19T08:51:59.852Z</time>
      </trkpt>
      <trkpt lat="43.25455" lon="-4.37119333">
        <ele>199.0</ele>
        <time>2018-05-19T08:52:00.850Z</time>
      </trkpt>
      <trkpt lat="43.25455" lon="-4.37119333">
        <ele>199.0</ele>
        <time>2018-05-19T08:52:01.847Z</time>
      </trkpt>
      <trkpt lat="43.25454833" lon="-4.37102833">
        <ele>199.0</ele>
        <time>2018-05-19T08:52:02.848Z</time>
      </trkpt>
      <trkpt lat="43.25455333" lon="-4.37095167">
        <ele>199.0</ele>
        <time>2018-05-19T08:52:03.849Z</time>
      </trkpt>
      <trkpt lat="43.25455" lon="-4.37087333">
        <ele>199.0</ele>
        <time>2018-05-19T08:52:04.848Z</time>
      </trkpt>
      <trkpt lat="43.25455" lon="-4.37087333">
        <ele>199.0</ele>
        <time>2018-05-19T08:52:05.844Z</time>
      </trkpt>
      <trkpt lat="43.25455833" lon="-4.37071167">
        <ele>199.0</ele>
        <time>2018-05-19T08:52:06.856Z</time>
      </trkpt>
      <trkpt lat="43.25455833" lon="-4.37071167">
        <ele>199.0</ele>
        <time>2018-05-19T08:52:07.851Z</time>
      </trkpt>
      <trkpt lat="43.25457167" lon="-4.37055333">
        <ele>199.0</ele>
        <time>2018-05-19T08:52:08.851Z</time>
      </trkpt>
      <trkpt lat="43.25457167" lon="-4.37055333">
        <ele>199.0</ele>
        <time>2018-05-19T08:52:09.844Z</time>
      </trkpt>
      <trkpt lat="43.254595" lon="-4.37040167">
        <ele>199.0</ele>
        <time>2018-05-19T08:52:10.851Z</time>
      </trkpt>
      <trkpt lat="43.254595" lon="-4.37040167">
        <ele>199.0</ele>
        <time>2018-05-19T08:52:11.845Z</time>
      </trkpt>
      <trkpt lat="43.25464833" lon="-4.37025833">
        <ele>200.0</ele>
        <time>2018-05-19T08:52:12.857Z</time>
      </trkpt>
      <trkpt lat="43.25466833" lon="-4.37018667">
        <ele>200.0</ele>
        <time>2018-05-19T08:52:13.883Z</time>
      </trkpt>
      <trkpt lat="43.25466833" lon="-4.37018667">
        <ele>200.0</ele>
        <time>2018-05-19T08:52:14.844Z</time>
      </trkpt>
      <trkpt lat="43.25472" lon="-4.37006">
        <ele>201.0</ele>
        <time>2018-05-19T08:52:15.848Z</time>
      </trkpt>
      <trkpt lat="43.25474333" lon="-4.36999833">
        <ele>201.0</ele>
        <time>2018-05-19T08:52:16.851Z</time>
      </trkpt>
      <trkpt lat="43.25474333" lon="-4.36999833">
        <ele>201.0</ele>
        <time>2018-05-19T08:52:17.845Z</time>
      </trkpt>
      <trkpt lat="43.254785" lon="-4.36987333">
        <ele>202.0</ele>
        <time>2018-05-19T08:52:18.850Z</time>
      </trkpt>
      <trkpt lat="43.254785" lon="-4.36987333">
        <ele>202.0</ele>
        <time>2018-05-19T08:52:19.883Z</time>
      </trkpt>
      <trkpt lat="43.25481333" lon="-4.36974167">
        <ele>203.0</ele>
        <time>2018-05-19T08:52:20.871Z</time>
      </trkpt>
      <trkpt lat="43.25481333" lon="-4.36974167">
        <ele>203.0</ele>
        <time>2018-05-19T08:52:21.855Z</time>
      </trkpt>
      <trkpt lat="43.25482333" lon="-4.369605">
        <ele>203.0</ele>
        <time>2018-05-19T08:52:22.847Z</time>
      </trkpt>
      <trkpt lat="43.25482333" lon="-4.369605">
        <ele>203.0</ele>
        <time>2018-05-19T08:52:23.884Z</time>
      </trkpt>
      <trkpt lat="43.25481833" lon="-4.36946833">
        <ele>204.0</ele>
        <time>2018-05-19T08:52:24.850Z</time>
      </trkpt>
      <trkpt lat="43.25481833" lon="-4.36946833">
        <ele>204.0</ele>
        <time>2018-05-19T08:52:25.846Z</time>
      </trkpt>
      <trkpt lat="43.25481" lon="-4.36934">
        <ele>205.0</ele>
        <time>2018-05-19T08:52:26.851Z</time>
      </trkpt>
      <trkpt lat="43.2548" lon="-4.36928">
        <ele>206.0</ele>
        <time>2018-05-19T08:52:27.849Z</time>
      </trkpt>
      <trkpt lat="43.25479333" lon="-4.36921833">
        <ele>207.0</ele>
        <time>2018-05-19T08:52:28.851Z</time>
      </trkpt>
      <trkpt lat="43.25479333" lon="-4.36921833">
        <ele>207.0</ele>
        <time>2018-05-19T08:52:29.844Z</time>
      </trkpt>
      <trkpt lat="43.25478333" lon="-4.36909">
        <ele>207.0</ele>
        <time>2018-05-19T08:52:30.850Z</time>
      </trkpt>
      <trkpt lat="43.25478167" lon="-4.36902667">
        <ele>207.0</ele>
        <time>2018-05-19T08:52:31.849Z</time>
      </trkpt>
      <trkpt lat="43.25478167" lon="-4.36902667">
        <ele>207.0</ele>
        <time>2018-05-19T08:52:32.844Z</time>
      </trkpt>
      <trkpt lat="43.25479" lon="-4.3689">
        <ele>208.0</ele>
        <time>2018-05-19T08:52:33.845Z</time>
      </trkpt>
      <trkpt lat="43.25479833" lon="-4.36883833">
        <ele>208.0</ele>
        <time>2018-05-19T08:52:34.850Z</time>
      </trkpt>
      <trkpt lat="43.25480667" lon="-4.36877667">
        <ele>208.0</ele>
        <time>2018-05-19T08:52:35.849Z</time>
      </trkpt>
      <trkpt lat="43.25480667" lon="-4.36877667">
        <ele>208.0</ele>
        <time>2018-05-19T08:52:36.848Z</time>
      </trkpt>
      <trkpt lat="43.254825" lon="-4.368645">
        <ele>209.0</ele>
        <time>2018-05-19T08:52:37.849Z</time>
      </trkpt>
      <trkpt lat="43.254825" lon="-4.368645">
        <ele>209.0</ele>
        <time>2018-05-19T08:52:38.844Z</time>
      </trkpt>
      <trkpt lat="43.25485" lon="-4.368515">
        <ele>209.0</ele>
        <time>2018-05-19T08:52:39.850Z</time>
      </trkpt>
      <trkpt lat="43.25485" lon="-4.368515">
        <ele>209.0</ele>
        <time>2018-05-19T08:52:40.846Z</time>
      </trkpt>
      <trkpt lat="43.25486833" lon="-4.368385">
        <ele>210.0</ele>
        <time>2018-05-19T08:52:41.849Z</time>
      </trkpt>
      <trkpt lat="43.25487333" lon="-4.36832">
        <ele>210.0</ele>
        <time>2018-05-19T08:52:42.850Z</time>
      </trkpt>
      <trkpt lat="43.25487333" lon="-4.36832">
        <ele>210.0</ele>
        <time>2018-05-19T08:52:43.881Z</time>
      </trkpt>
      <trkpt lat="43.25486333" lon="-4.368195">
        <ele>211.0</ele>
        <time>2018-05-19T08:52:44.849Z</time>
      </trkpt>
      <trkpt lat="43.25486333" lon="-4.368195">
        <ele>211.0</ele>
        <time>2018-05-19T08:52:45.845Z</time>
      </trkpt>
      <trkpt lat="43.25484333" lon="-4.36806">
        <ele>211.0</ele>
        <time>2018-05-19T08:52:46.877Z</time>
      </trkpt>
      <trkpt lat="43.25484333" lon="-4.36806">
        <ele>211.0</ele>
        <time>2018-05-19T08:52:47.883Z</time>
      </trkpt>
      <trkpt lat="43.254835" lon="-4.36793167">
        <ele>212.0</ele>
        <time>2018-05-19T08:52:48.849Z</time>
      </trkpt>
      <trkpt lat="43.25483167" lon="-4.36787">
        <ele>212.0</ele>
        <time>2018-05-19T08:52:49.850Z</time>
      </trkpt>
      <trkpt lat="43.25483167" lon="-4.36787">
        <ele>212.0</ele>
        <time>2018-05-19T08:52:50.844Z</time>
      </trkpt>
      <trkpt lat="43.25482167" lon="-4.36776">
        <ele>212.0</ele>
        <time>2018-05-19T08:52:51.850Z</time>
      </trkpt>
      <trkpt lat="43.25481667" lon="-4.36771">
        <ele>212.0</ele>
        <time>2018-05-19T08:52:52.851Z</time>
      </trkpt>
      <trkpt lat="43.25481667" lon="-4.36771">
        <ele>212.0</ele>
        <time>2018-05-19T08:52:53.880Z</time>
      </trkpt>
      <trkpt lat="43.25480167" lon="-4.36760667">
        <ele>213.0</ele>
        <time>2018-05-19T08:52:54.865Z</time>
      </trkpt>
      <trkpt lat="43.25480167" lon="-4.36760667">
        <ele>213.0</ele>
        <time>2018-05-19T08:52:55.849Z</time>
      </trkpt>
      <trkpt lat="43.25478833" lon="-4.36749667">
        <ele>213.0</ele>
        <time>2018-05-19T08:52:56.849Z</time>
      </trkpt>
      <trkpt lat="43.25478833" lon="-4.36749667">
        <ele>213.0</ele>
        <time>2018-05-19T08:52:57.884Z</time>
      </trkpt>
      <trkpt lat="43.25477167" lon="-4.36737667">
        <ele>213.0</ele>
        <time>2018-05-19T08:52:58.867Z</time>
      </trkpt>
      <trkpt lat="43.25477167" lon="-4.36737667">
        <ele>213.0</ele>
        <time>2018-05-19T08:52:59.865Z</time>
      </trkpt>
      <trkpt lat="43.254755" lon="-4.36724833">
        <ele>214.0</ele>
        <time>2018-05-19T08:53:00.849Z</time>
      </trkpt>
      <trkpt lat="43.254755" lon="-4.36724833">
        <ele>214.0</ele>
        <time>2018-05-19T08:53:01.845Z</time>
      </trkpt>
      <trkpt lat="43.25474" lon="-4.367125">
        <ele>214.0</ele>
        <time>2018-05-19T08:53:02.849Z</time>
      </trkpt>
      <trkpt lat="43.25474" lon="-4.367125">
        <ele>214.0</ele>
        <time>2018-05-19T08:53:03.882Z</time>
      </trkpt>
      <trkpt lat="43.25472" lon="-4.36701667">
        <ele>214.0</ele>
        <time>2018-05-19T08:53:04.867Z</time>
      </trkpt>
      <trkpt lat="43.25472" lon="-4.36701667">
        <ele>214.0</ele>
        <time>2018-05-19T08:53:05.850Z</time>
      </trkpt>
      <trkpt lat="43.25468333" lon="-4.36691833">
        <ele>215.0</ele>
        <time>2018-05-19T08:53:06.849Z</time>
      </trkpt>
      <trkpt lat="43.25468333" lon="-4.36691833">
        <ele>215.0</ele>
        <time>2018-05-19T08:53:07.883Z</time>
      </trkpt>
      <trkpt lat="43.25464167" lon="-4.36683833">
        <ele>216.0</ele>
        <time>2018-05-19T08:53:08.849Z</time>
      </trkpt>
      <trkpt lat="43.25464167" lon="-4.36683833">
        <ele>216.0</ele>
        <time>2018-05-19T08:53:09.883Z</time>
      </trkpt>
      <trkpt lat="43.25459667" lon="-4.36676667">
        <ele>217.0</ele>
        <time>2018-05-19T08:53:10.849Z</time>
      </trkpt>
      <trkpt lat="43.25459667" lon="-4.36676667">
        <ele>217.0</ele>
        <time>2018-05-19T08:53:11.883Z</time>
      </trkpt>
      <trkpt lat="43.254555" lon="-4.36670167">
        <ele>217.0</ele>
        <time>2018-05-19T08:53:12.849Z</time>
      </trkpt>
      <trkpt lat="43.254555" lon="-4.36670167">
        <ele>217.0</ele>
        <time>2018-05-19T08:53:13.846Z</time>
      </trkpt>
      <trkpt lat="43.25451333" lon="-4.36663">
        <ele>218.0</ele>
        <time>2018-05-19T08:53:14.845Z</time>
      </trkpt>
      <trkpt lat="43.25451333" lon="-4.36663">
        <ele>218.0</ele>
        <time>2018-05-19T08:53:15.845Z</time>
      </trkpt>
      <trkpt lat="43.25447833" lon="-4.366555">
        <ele>219.0</ele>
        <time>2018-05-19T08:53:16.850Z</time>
      </trkpt>
      <trkpt lat="43.25447833" lon="-4.366555">
        <ele>219.0</ele>
        <time>2018-05-19T08:53:17.884Z</time>
      </trkpt>
      <trkpt lat="43.25445833" lon="-4.36647167">
        <ele>218.0</ele>
        <time>2018-05-19T08:53:18.850Z</time>
      </trkpt>
      <trkpt lat="43.25445833" lon="-4.36647167">
        <ele>218.0</ele>
        <time>2018-05-19T08:53:19.848Z</time>
      </trkpt>
      <trkpt lat="43.25443333" lon="-4.36636167">
        <ele>219.0</ele>
        <time>2018-05-19T08:53:20.850Z</time>
      </trkpt>
      <trkpt lat="43.25443333" lon="-4.36636167">
        <ele>219.0</ele>
        <time>2018-05-19T08:53:21.884Z</time>
      </trkpt>
      <trkpt lat="43.254405" lon="-4.36622">
        <ele>218.0</ele>
        <time>2018-05-19T08:53:22.848Z</time>
      </trkpt>
      <trkpt lat="43.254405" lon="-4.36622">
        <ele>218.0</ele>
        <time>2018-05-19T08:53:23.882Z</time>
      </trkpt>
      <trkpt lat="43.25439333" lon="-4.36606333">
        <ele>218.0</ele>
        <time>2018-05-19T08:53:24.849Z</time>
      </trkpt>
      <trkpt lat="43.25439333" lon="-4.36606333">
        <ele>218.0</ele>
        <time>2018-05-19T08:53:25.844Z</time>
      </trkpt>
      <trkpt lat="43.25438333" lon="-4.36590333">
        <ele>219.0</ele>
        <time>2018-05-19T08:53:26.848Z</time>
      </trkpt>
      <trkpt lat="43.25438333" lon="-4.36590333">
        <ele>219.0</ele>
        <time>2018-05-19T08:53:27.883Z</time>
      </trkpt>
      <trkpt lat="43.25437167" lon="-4.36574833">
        <ele>219.0</ele>
        <time>2018-05-19T08:53:28.867Z</time>
      </trkpt>
      <trkpt lat="43.25437167" lon="-4.36574833">
        <ele>219.0</ele>
        <time>2018-05-19T08:53:29.865Z</time>
      </trkpt>
      <trkpt lat="43.25435333" lon="-4.36561667">
        <ele>220.0</ele>
        <time>2018-05-19T08:53:30.851Z</time>
      </trkpt>
      <trkpt lat="43.25435333" lon="-4.36561667">
        <ele>220.0</ele>
        <time>2018-05-19T08:53:31.883Z</time>
      </trkpt>
      <trkpt lat="43.254335" lon="-4.36550167">
        <ele>221.0</ele>
        <time>2018-05-19T08:53:32.848Z</time>
      </trkpt>
      <trkpt lat="43.254335" lon="-4.36550167">
        <ele>221.0</ele>
        <time>2018-05-19T08:53:33.883Z</time>
      </trkpt>
      <trkpt lat="43.254325" lon="-4.36538667">
        <ele>221.0</ele>
        <time>2018-05-19T08:53:34.867Z</time>
      </trkpt>
      <trkpt lat="43.254325" lon="-4.36538667">
        <ele>221.0</ele>
        <time>2018-05-19T08:53:35.871Z</time>
      </trkpt>
      <trkpt lat="43.254315" lon="-4.36527167">
        <ele>222.0</ele>
        <time>2018-05-19T08:53:36.856Z</time>
      </trkpt>
      <trkpt lat="43.254315" lon="-4.36527167">
        <ele>222.0</ele>
        <time>2018-05-19T08:53:37.844Z</time>
      </trkpt>
      <trkpt lat="43.254305" lon="-4.36515333">
        <ele>222.0</ele>
        <time>2018-05-19T08:53:38.850Z</time>
      </trkpt>
      <trkpt lat="43.2543" lon="-4.36509333">
        <ele>222.0</ele>
        <time>2018-05-19T08:53:39.850Z</time>
      </trkpt>
      <trkpt lat="43.2543" lon="-4.36509333">
        <ele>222.0</ele>
        <time>2018-05-19T08:53:40.844Z</time>
      </trkpt>
      <trkpt lat="43.25429167" lon="-4.364975">
        <ele>222.0</ele>
        <time>2018-05-19T08:53:41.848Z</time>
      </trkpt>
      <trkpt lat="43.25428667" lon="-4.36491667">
        <ele>222.0</ele>
        <time>2018-05-19T08:53:42.849Z</time>
      </trkpt>
      <trkpt lat="43.25428667" lon="-4.36491667">
        <ele>222.0</ele>
        <time>2018-05-19T08:53:43.844Z</time>
      </trkpt>
      <trkpt lat="43.25427" lon="-4.364805">
        <ele>223.0</ele>
        <time>2018-05-19T08:53:44.861Z</time>
      </trkpt>
      <trkpt lat="43.25427" lon="-4.364805">
        <ele>223.0</ele>
        <time>2018-05-19T08:53:45.848Z</time>
      </trkpt>
      <trkpt lat="43.254255" lon="-4.3647">
        <ele>224.0</ele>
        <time>2018-05-19T08:53:46.877Z</time>
      </trkpt>
      <trkpt lat="43.254255" lon="-4.3647">
        <ele>224.0</ele>
        <time>2018-05-19T08:53:47.883Z</time>
      </trkpt>
      <trkpt lat="43.25424833" lon="-4.36459">
        <ele>224.0</ele>
        <time>2018-05-19T08:53:48.849Z</time>
      </trkpt>
      <trkpt lat="43.25425167" lon="-4.36453667">
        <ele>224.0</ele>
        <time>2018-05-19T08:53:49.849Z</time>
      </trkpt>
      <trkpt lat="43.25425167" lon="-4.36453667">
        <ele>224.0</ele>
        <time>2018-05-19T08:53:50.883Z</time>
      </trkpt>
      <trkpt lat="43.25426833" lon="-4.36444">
        <ele>225.0</ele>
        <time>2018-05-19T08:53:51.846Z</time>
      </trkpt>
      <trkpt lat="43.25427833" lon="-4.36439667">
        <ele>225.0</ele>
        <time>2018-05-19T08:53:52.850Z</time>
      </trkpt>
      <trkpt lat="43.25427833" lon="-4.36439667">
        <ele>225.0</ele>
        <time>2018-05-19T08:53:53.880Z</time>
      </trkpt>
      <trkpt lat="43.2543" lon="-4.36431333">
        <ele>226.0</ele>
        <time>2018-05-19T08:53:54.865Z</time>
      </trkpt>
      <trkpt lat="43.2543" lon="-4.36431333">
        <ele>226.0</ele>
        <time>2018-05-19T08:53:55.847Z</time>
      </trkpt>
      <trkpt lat="43.25432" lon="-4.36422167">
        <ele>226.0</ele>
        <time>2018-05-19T08:53:56.848Z</time>
      </trkpt>
      <trkpt lat="43.25432" lon="-4.36422167">
        <ele>226.0</ele>
        <time>2018-05-19T08:53:57.883Z</time>
      </trkpt>
      <trkpt lat="43.25434" lon="-4.36412">
        <ele>226.0</ele>
        <time>2018-05-19T08:53:58.867Z</time>
      </trkpt>
      <trkpt lat="43.25434" lon="-4.36412">
        <ele>226.0</ele>
        <time>2018-05-19T08:53:59.861Z</time>
      </trkpt>
      <trkpt lat="43.25435333" lon="-4.36400333">
        <ele>226.0</ele>
        <time>2018-05-19T08:54:00.850Z</time>
      </trkpt>
      <trkpt lat="43.25435333" lon="-4.36400333">
        <ele>226.0</ele>
        <time>2018-05-19T08:54:01.883Z</time>
      </trkpt>
      <trkpt lat="43.25435833" lon="-4.36388333">
        <ele>226.0</ele>
        <time>2018-05-19T08:54:02.848Z</time>
      </trkpt>
      <trkpt lat="43.25435833" lon="-4.36388333">
        <ele>226.0</ele>
        <time>2018-05-19T08:54:03.850Z</time>
      </trkpt>
      <trkpt lat="43.25436" lon="-4.36375667">
        <ele>226.0</ele>
        <time>2018-05-19T08:54:04.851Z</time>
      </trkpt>
      <trkpt lat="43.25436" lon="-4.36375667">
        <ele>226.0</ele>
        <time>2018-05-19T08:54:05.883Z</time>
      </trkpt>
      <trkpt lat="43.25436167" lon="-4.36363">
        <ele>226.0</ele>
        <time>2018-05-19T08:54:06.849Z</time>
      </trkpt>
      <trkpt lat="43.25436167" lon="-4.36363">
        <ele>226.0</ele>
        <time>2018-05-19T08:54:07.883Z</time>
      </trkpt>
      <trkpt lat="43.25436667" lon="-4.36350167">
        <ele>226.0</ele>
        <time>2018-05-19T08:54:08.850Z</time>
      </trkpt>
      <trkpt lat="43.25436667" lon="-4.36350167">
        <ele>226.0</ele>
        <time>2018-05-19T08:54:09.883Z</time>
      </trkpt>
      <trkpt lat="43.254375" lon="-4.36338167">
        <ele>226.0</ele>
        <time>2018-05-19T08:54:10.850Z</time>
      </trkpt>
      <trkpt lat="43.254375" lon="-4.36338167">
        <ele>226.0</ele>
        <time>2018-05-19T08:54:11.856Z</time>
      </trkpt>
      <trkpt lat="43.25437667" lon="-4.36326333">
        <ele>226.0</ele>
        <time>2018-05-19T08:54:12.863Z</time>
      </trkpt>
      <trkpt lat="43.25437667" lon="-4.36320333">
        <ele>227.0</ele>
        <time>2018-05-19T08:54:13.875Z</time>
      </trkpt>
      <trkpt lat="43.25437667" lon="-4.36320333">
        <ele>227.0</ele>
        <time>2018-05-19T08:54:14.864Z</time>
      </trkpt>
      <trkpt lat="43.25437667" lon="-4.363085">
        <ele>227.0</ele>
        <time>2018-05-19T08:54:15.874Z</time>
      </trkpt>
      <trkpt lat="43.25437833" lon="-4.36302833">
        <ele>227.0</ele>
        <time>2018-05-19T08:54:16.865Z</time>
      </trkpt>
      <trkpt lat="43.25437833" lon="-4.36302833">
        <ele>227.0</ele>
        <time>2018-05-19T08:54:17.860Z</time>
      </trkpt>
      <trkpt lat="43.25438667" lon="-4.36290833">
        <ele>228.0</ele>
        <time>2018-05-19T08:54:18.854Z</time>
      </trkpt>
      <trkpt lat="43.25438667" lon="-4.36290833">
        <ele>228.0</ele>
        <time>2018-05-19T08:54:19.845Z</time>
      </trkpt>
      <trkpt lat="43.25439333" lon="-4.36277167">
        <ele>228.0</ele>
        <time>2018-05-19T08:54:20.845Z</time>
      </trkpt>
      <trkpt lat="43.25439" lon="-4.36269833">
        <ele>228.0</ele>
        <time>2018-05-19T08:54:21.853Z</time>
      </trkpt>
      <trkpt lat="43.25439" lon="-4.36269833">
        <ele>228.0</ele>
        <time>2018-05-19T08:54:22.845Z</time>
      </trkpt>
      <trkpt lat="43.25438667" lon="-4.36254833">
        <ele>227.0</ele>
        <time>2018-05-19T08:54:23.847Z</time>
      </trkpt>
      <trkpt lat="43.254385" lon="-4.36246833">
        <ele>227.0</ele>
        <time>2018-05-19T08:54:24.883Z</time>
      </trkpt>
      <trkpt lat="43.254385" lon="-4.36246833">
        <ele>227.0</ele>
        <time>2018-05-19T08:54:25.873Z</time>
      </trkpt>
      <trkpt lat="43.254385" lon="-4.36230333">
        <ele>227.0</ele>
        <time>2018-05-19T08:54:26.864Z</time>
      </trkpt>
      <trkpt lat="43.254385" lon="-4.36230333">
        <ele>227.0</ele>
        <time>2018-05-19T08:54:27.855Z</time>
      </trkpt>
      <trkpt lat="43.25439" lon="-4.36212833">
        <ele>226.0</ele>
        <time>2018-05-19T08:54:28.852Z</time>
      </trkpt>
      <trkpt lat="43.25439" lon="-4.36212833">
        <ele>226.0</ele>
        <time>2018-05-19T08:54:29.881Z</time>
      </trkpt>
      <trkpt lat="43.254405" lon="-4.36195833">
        <ele>227.0</ele>
        <time>2018-05-19T08:54:30.874Z</time>
      </trkpt>
      <trkpt lat="43.25441333" lon="-4.36187333">
        <ele>227.0</ele>
        <time>2018-05-19T08:54:31.865Z</time>
      </trkpt>
      <trkpt lat="43.25441333" lon="-4.36187333">
        <ele>227.0</ele>
        <time>2018-05-19T08:54:32.852Z</time>
      </trkpt>
      <trkpt lat="43.25443" lon="-4.36170667">
        <ele>227.0</ele>
        <time>2018-05-19T08:54:33.855Z</time>
      </trkpt>
      <trkpt lat="43.25444" lon="-4.361625">
        <ele>227.0</ele>
        <time>2018-05-19T08:54:34.857Z</time>
      </trkpt>
      <trkpt lat="43.25444" lon="-4.361625">
        <ele>227.0</ele>
        <time>2018-05-19T08:54:35.848Z</time>
      </trkpt>
      <trkpt lat="43.25446667" lon="-4.36146667">
        <ele>227.0</ele>
        <time>2018-05-19T08:54:36.848Z</time>
      </trkpt>
      <trkpt lat="43.25446667" lon="-4.36146667">
        <ele>227.0</ele>
        <time>2018-05-19T08:54:37.879Z</time>
      </trkpt>
      <trkpt lat="43.25449333" lon="-4.36131833">
        <ele>227.0</ele>
        <time>2018-05-19T08:54:38.873Z</time>
      </trkpt>
      <trkpt lat="43.25449333" lon="-4.36131833">
        <ele>227.0</ele>
        <time>2018-05-19T08:54:39.864Z</time>
      </trkpt>
      <trkpt lat="43.25451667" lon="-4.36119667">
        <ele>228.0</ele>
        <time>2018-05-19T08:54:40.863Z</time>
      </trkpt>
      <trkpt lat="43.25453667" lon="-4.361135">
        <ele>227.0</ele>
        <time>2018-05-19T08:54:41.852Z</time>
      </trkpt>
      <trkpt lat="43.25453667" lon="-4.361135">
        <ele>227.0</ele>
        <time>2018-05-19T08:54:42.846Z</time>
      </trkpt>
      <trkpt lat="43.254575" lon="-4.36098167">
        <ele>227.0</ele>
        <time>2018-05-19T08:54:43.877Z</time>
      </trkpt>
      <trkpt lat="43.254575" lon="-4.36098167">
        <ele>227.0</ele>
        <time>2018-05-19T08:54:44.865Z</time>
      </trkpt>
      <trkpt lat="43.25459833" lon="-4.360835">
        <ele>227.0</ele>
        <time>2018-05-19T08:54:45.881Z</time>
      </trkpt>
      <trkpt lat="43.2546" lon="-4.36076833">
        <ele>228.0</ele>
        <time>2018-05-19T08:54:46.869Z</time>
      </trkpt>
      <trkpt lat="43.25459" lon="-4.36070833">
        <ele>228.0</ele>
        <time>2018-05-19T08:54:47.877Z</time>
      </trkpt>
      <trkpt lat="43.25457667" lon="-4.360655">
        <ele>228.0</ele>
        <time>2018-05-19T08:54:48.849Z</time>
      </trkpt>
      <trkpt lat="43.25455833" lon="-4.36060167">
        <ele>228.0</ele>
        <time>2018-05-19T08:54:49.859Z</time>
      </trkpt>
      <trkpt lat="43.25455833" lon="-4.36060167">
        <ele>228.0</ele>
        <time>2018-05-19T08:54:50.879Z</time>
      </trkpt>
      <trkpt lat="43.25451333" lon="-4.36050833">
        <ele>228.0</ele>
        <time>2018-05-19T08:54:51.874Z</time>
      </trkpt>
      <trkpt lat="43.25448667" lon="-4.36046">
        <ele>228.0</ele>
        <time>2018-05-19T08:54:52.872Z</time>
      </trkpt>
      <trkpt lat="43.25448667" lon="-4.36046">
        <ele>228.0</ele>
        <time>2018-05-19T08:54:53.867Z</time>
      </trkpt>
      <trkpt lat="43.25443333" lon="-4.36036667">
        <ele>228.0</ele>
        <time>2018-05-19T08:54:54.864Z</time>
      </trkpt>
      <trkpt lat="43.25443333" lon="-4.36036667">
        <ele>228.0</ele>
        <time>2018-05-19T08:54:55.858Z</time>
      </trkpt>
      <trkpt lat="43.25437333" lon="-4.36028667">
        <ele>229.0</ele>
        <time>2018-05-19T08:54:56.853Z</time>
      </trkpt>
      <trkpt lat="43.25437333" lon="-4.36028667">
        <ele>229.0</ele>
        <time>2018-05-19T08:54:57.846Z</time>
      </trkpt>
      <trkpt lat="43.254315" lon="-4.36018833">
        <ele>229.0</ele>
        <time>2018-05-19T08:54:58.874Z</time>
      </trkpt>
      <trkpt lat="43.254315" lon="-4.36018833">
        <ele>229.0</ele>
        <time>2018-05-19T08:54:59.881Z</time>
      </trkpt>
      <trkpt lat="43.25426333" lon="-4.360075">
        <ele>230.0</ele>
        <time>2018-05-19T08:55:00.873Z</time>
      </trkpt>
      <trkpt lat="43.25426333" lon="-4.360075">
        <ele>230.0</ele>
        <time>2018-05-19T08:55:01.883Z</time>
      </trkpt>
      <trkpt lat="43.254255" lon="-4.35995167">
        <ele>230.0</ele>
        <time>2018-05-19T08:55:02.847Z</time>
      </trkpt>
      <trkpt lat="43.254255" lon="-4.35995167">
        <ele>230.0</ele>
        <time>2018-05-19T08:55:03.882Z</time>
      </trkpt>
      <trkpt lat="43.25427167" lon="-4.35982167">
        <ele>231.0</ele>
        <time>2018-05-19T08:55:04.874Z</time>
      </trkpt>
      <trkpt lat="43.25427167" lon="-4.35982167">
        <ele>231.0</ele>
        <time>2018-05-19T08:55:05.867Z</time>
      </trkpt>
      <trkpt lat="43.25429" lon="-4.35968833">
        <ele>231.0</ele>
        <time>2018-05-19T08:55:06.857Z</time>
      </trkpt>
      <trkpt lat="43.25429" lon="-4.35968833">
        <ele>231.0</ele>
        <time>2018-05-19T08:55:07.844Z</time>
      </trkpt>
      <trkpt lat="43.254305" lon="-4.35957667">
        <ele>232.0</ele>
        <time>2018-05-19T08:55:08.849Z</time>
      </trkpt>
      <trkpt lat="43.254305" lon="-4.35957667">
        <ele>232.0</ele>
        <time>2018-05-19T08:55:09.882Z</time>
      </trkpt>
      <trkpt lat="43.25430167" lon="-4.35946">
        <ele>232.0</ele>
        <time>2018-05-19T08:55:10.883Z</time>
      </trkpt>
      <trkpt lat="43.25429333" lon="-4.35941167">
        <ele>232.0</ele>
        <time>2018-05-19T08:55:11.857Z</time>
      </trkpt>
      <trkpt lat="43.25429333" lon="-4.35941167">
        <ele>232.0</ele>
        <time>2018-05-19T08:55:12.847Z</time>
      </trkpt>
      <trkpt lat="43.254255" lon="-4.359335">
        <ele>232.0</ele>
        <time>2018-05-19T08:55:13.851Z</time>
      </trkpt>
      <trkpt lat="43.25425167" lon="-4.359285">
        <ele>233.0</ele>
        <time>2018-05-19T08:55:14.881Z</time>
      </trkpt>
      <trkpt lat="43.25425167" lon="-4.359285">
        <ele>233.0</ele>
        <time>2018-05-19T08:55:15.878Z</time>
      </trkpt>
      <trkpt lat="43.25424667" lon="-4.35920167">
        <ele>234.0</ele>
        <time>2018-05-19T08:55:16.868Z</time>
      </trkpt>
      <trkpt lat="43.25424667" lon="-4.35920167">
        <ele>234.0</ele>
        <time>2018-05-19T08:55:17.859Z</time>
      </trkpt>
      <trkpt lat="43.25424667" lon="-4.35912167">
        <ele>235.0</ele>
        <time>2018-05-19T08:55:18.854Z</time>
      </trkpt>
      <trkpt lat="43.25424667" lon="-4.35912167">
        <ele>235.0</ele>
        <time>2018-05-19T08:55:19.846Z</time>
      </trkpt>
      <trkpt lat="43.25423667" lon="-4.35902">
        <ele>235.0</ele>
        <time>2018-05-19T08:55:20.882Z</time>
      </trkpt>
      <trkpt lat="43.25423167" lon="-4.35897">
        <ele>236.0</ele>
        <time>2018-05-19T08:55:21.883Z</time>
      </trkpt>
      <trkpt lat="43.25422667" lon="-4.35892">
        <ele>236.0</ele>
        <time>2018-05-19T08:55:22.873Z</time>
      </trkpt>
      <trkpt lat="43.25422667" lon="-4.35892">
        <ele>236.0</ele>
        <time>2018-05-19T08:55:23.865Z</time>
      </trkpt>
      <trkpt lat="43.25422333" lon="-4.35883">
        <ele>236.0</ele>
        <time>2018-05-19T08:55:24.862Z</time>
      </trkpt>
      <trkpt lat="43.25422333" lon="-4.35883">
        <ele>236.0</ele>
        <time>2018-05-19T08:55:25.853Z</time>
      </trkpt>
      <trkpt lat="43.25420833" lon="-4.35872833">
        <ele>236.0</ele>
        <time>2018-05-19T08:55:26.854Z</time>
      </trkpt>
      <trkpt lat="43.25420833" lon="-4.35872833">
        <ele>236.0</ele>
        <time>2018-05-19T08:55:27.849Z</time>
      </trkpt>
      <trkpt lat="43.254205" lon="-4.35862333">
        <ele>237.0</ele>
        <time>2018-05-19T08:55:28.852Z</time>
      </trkpt>
      <trkpt lat="43.254205" lon="-4.35862333">
        <ele>237.0</ele>
        <time>2018-05-19T08:55:29.883Z</time>
      </trkpt>
      <trkpt lat="43.25417667" lon="-4.35851333">
        <ele>237.0</ele>
        <time>2018-05-19T08:55:30.856Z</time>
      </trkpt>
      <trkpt lat="43.25417667" lon="-4.35851333">
        <ele>237.0</ele>
        <time>2018-05-19T08:55:31.845Z</time>
      </trkpt>
      <trkpt lat="43.25415167" lon="-4.35842833">
        <ele>238.0</ele>
        <time>2018-05-19T08:55:32.882Z</time>
      </trkpt>
      <trkpt lat="43.25415167" lon="-4.35842833">
        <ele>238.0</ele>
        <time>2018-05-19T08:55:33.874Z</time>
      </trkpt>
      <trkpt lat="43.25412833" lon="-4.358345">
        <ele>238.0</ele>
        <time>2018-05-19T08:55:34.876Z</time>
      </trkpt>
      <trkpt lat="43.25411667" lon="-4.35829667">
        <ele>238.0</ele>
        <time>2018-05-19T08:55:35.856Z</time>
      </trkpt>
      <trkpt lat="43.25411167" lon="-4.35824167">
        <ele>238.0</ele>
        <time>2018-05-19T08:55:36.855Z</time>
      </trkpt>
      <trkpt lat="43.25411167" lon="-4.35824167">
        <ele>238.0</ele>
        <time>2018-05-19T08:55:37.845Z</time>
      </trkpt>
      <trkpt lat="43.25413" lon="-4.35812">
        <ele>238.0</ele>
        <time>2018-05-19T08:55:38.877Z</time>
      </trkpt>
      <trkpt lat="43.25417333" lon="-4.35807667">
        <ele>238.0</ele>
        <time>2018-05-19T08:55:39.878Z</time>
      </trkpt>
      <trkpt lat="43.25417333" lon="-4.35807667">
        <ele>238.0</ele>
        <time>2018-05-19T08:55:40.879Z</time>
      </trkpt>
      <trkpt lat="43.25428167" lon="-4.358035">
        <ele>237.0</ele>
        <time>2018-05-19T08:55:41.867Z</time>
      </trkpt>
      <trkpt lat="43.25433667" lon="-4.35800167">
        <ele>237.0</ele>
        <time>2018-05-19T08:55:42.861Z</time>
      </trkpt>
      <trkpt lat="43.25433667" lon="-4.35800167">
        <ele>237.0</ele>
        <time>2018-05-19T08:55:43.872Z</time>
      </trkpt>
      <trkpt lat="43.25443667" lon="-4.357905">
        <ele>235.0</ele>
        <time>2018-05-19T08:55:44.878Z</time>
      </trkpt>
      <trkpt lat="43.25443667" lon="-4.357905">
        <ele>235.0</ele>
        <time>2018-05-19T08:55:45.856Z</time>
      </trkpt>
      <trkpt lat="43.254505" lon="-4.35775833">
        <ele>234.0</ele>
        <time>2018-05-19T08:55:46.850Z</time>
      </trkpt>
      <trkpt lat="43.25451833" lon="-4.35765667">
        <ele>234.0</ele>
        <time>2018-05-19T08:55:47.857Z</time>
      </trkpt>
      <trkpt lat="43.25453333" lon="-4.35755833">
        <ele>233.0</ele>
        <time>2018-05-19T08:55:48.871Z</time>
      </trkpt>
      <trkpt lat="43.25453333" lon="-4.35755833">
        <ele>233.0</ele>
        <time>2018-05-19T08:55:49.850Z</time>
      </trkpt>
      <trkpt lat="43.25455333" lon="-4.35737">
        <ele>233.0</ele>
        <time>2018-05-19T08:55:50.851Z</time>
      </trkpt>
      <trkpt lat="43.25455333" lon="-4.35737">
        <ele>233.0</ele>
        <time>2018-05-19T08:55:51.846Z</time>
      </trkpt>
      <trkpt lat="43.254605" lon="-4.35722833">
        <ele>233.0</ele>
        <time>2018-05-19T08:55:52.862Z</time>
      </trkpt>
      <trkpt lat="43.254605" lon="-4.35722833">
        <ele>233.0</ele>
        <time>2018-05-19T08:55:53.852Z</time>
      </trkpt>
      <trkpt lat="43.254675" lon="-4.35709167">
        <ele>233.0</ele>
        <time>2018-05-19T08:55:54.853Z</time>
      </trkpt>
      <trkpt lat="43.254675" lon="-4.35709167">
        <ele>233.0</ele>
        <time>2018-05-19T08:55:55.883Z</time>
      </trkpt>
      <trkpt lat="43.25474667" lon="-4.35695">
        <ele>233.0</ele>
        <time>2018-05-19T08:55:56.871Z</time>
      </trkpt>
      <trkpt lat="43.254785" lon="-4.35688167">
        <ele>233.0</ele>
        <time>2018-05-19T08:55:57.863Z</time>
      </trkpt>
      <trkpt lat="43.25482333" lon="-4.35682167">
        <ele>233.0</ele>
        <time>2018-05-19T08:55:58.857Z</time>
      </trkpt>
      <trkpt lat="43.25482333" lon="-4.35682167">
        <ele>233.0</ele>
        <time>2018-05-19T08:55:59.846Z</time>
      </trkpt>
      <trkpt lat="43.25490167" lon="-4.35670667">
        <ele>233.0</ele>
        <time>2018-05-19T08:56:00.875Z</time>
      </trkpt>
      <trkpt lat="43.25490167" lon="-4.35670667">
        <ele>233.0</ele>
        <time>2018-05-19T08:56:01.864Z</time>
      </trkpt>
      <trkpt lat="43.25495167" lon="-4.35658333">
        <ele>233.0</ele>
        <time>2018-05-19T08:56:02.852Z</time>
      </trkpt>
      <trkpt lat="43.25495167" lon="-4.35658333">
        <ele>233.0</ele>
        <time>2018-05-19T08:56:03.845Z</time>
      </trkpt>
      <trkpt lat="43.25493" lon="-4.35645833">
        <ele>233.0</ele>
        <time>2018-05-19T08:56:04.849Z</time>
      </trkpt>
      <trkpt lat="43.25493" lon="-4.35645833">
        <ele>233.0</ele>
        <time>2018-05-19T08:56:05.878Z</time>
      </trkpt>
      <trkpt lat="43.254875" lon="-4.35634667">
        <ele>233.0</ele>
        <time>2018-05-19T08:56:06.872Z</time>
      </trkpt>
      <trkpt lat="43.254875" lon="-4.35634667">
        <ele>233.0</ele>
        <time>2018-05-19T08:56:07.863Z</time>
      </trkpt>
      <trkpt lat="43.25481833" lon="-4.356235">
        <ele>234.0</ele>
        <time>2018-05-19T08:56:08.860Z</time>
      </trkpt>
      <trkpt lat="43.25481833" lon="-4.356235">
        <ele>234.0</ele>
        <time>2018-05-19T08:56:09.847Z</time>
      </trkpt>
      <trkpt lat="43.25476333" lon="-4.35612667">
        <ele>234.0</ele>
        <time>2018-05-19T08:56:10.849Z</time>
      </trkpt>
      <trkpt lat="43.25476333" lon="-4.35612667">
        <ele>234.0</ele>
        <time>2018-05-19T08:56:11.856Z</time>
      </trkpt>
      <trkpt lat="43.25471" lon="-4.356015">
        <ele>234.0</ele>
        <time>2018-05-19T08:56:12.852Z</time>
      </trkpt>
      <trkpt lat="43.25471" lon="-4.356015">
        <ele>234.0</ele>
        <time>2018-05-19T08:56:13.846Z</time>
      </trkpt>
      <trkpt lat="43.25465667" lon="-4.35590333">
        <ele>234.0</ele>
        <time>2018-05-19T08:56:14.844Z</time>
      </trkpt>
      <trkpt lat="43.25463167" lon="-4.35584667">
        <ele>235.0</ele>
        <time>2018-05-19T08:56:15.880Z</time>
      </trkpt>
      <trkpt lat="43.25463167" lon="-4.35584667">
        <ele>235.0</ele>
        <time>2018-05-19T08:56:16.874Z</time>
      </trkpt>
      <trkpt lat="43.25458" lon="-4.35573">
        <ele>236.0</ele>
        <time>2018-05-19T08:56:17.864Z</time>
      </trkpt>
      <trkpt lat="43.254555" lon="-4.35567167">
        <ele>236.0</ele>
        <time>2018-05-19T08:56:18.854Z</time>
      </trkpt>
      <trkpt lat="43.254555" lon="-4.35567167">
        <ele>236.0</ele>
        <time>2018-05-19T08:56:19.845Z</time>
      </trkpt>
      <trkpt lat="43.25451" lon="-4.35555333">
        <ele>237.0</ele>
        <time>2018-05-19T08:56:20.854Z</time>
      </trkpt>
      <trkpt lat="43.25451" lon="-4.35555333">
        <ele>237.0</ele>
        <time>2018-05-19T08:56:21.849Z</time>
      </trkpt>
      <trkpt lat="43.254475" lon="-4.35542833">
        <ele>237.0</ele>
        <time>2018-05-19T08:56:22.857Z</time>
      </trkpt>
      <trkpt lat="43.254475" lon="-4.35542833">
        <ele>237.0</ele>
        <time>2018-05-19T08:56:23.847Z</time>
      </trkpt>
      <trkpt lat="43.25445" lon="-4.35529333">
        <ele>238.0</ele>
        <time>2018-05-19T08:56:24.877Z</time>
      </trkpt>
      <trkpt lat="43.25445" lon="-4.35529333">
        <ele>238.0</ele>
        <time>2018-05-19T08:56:25.864Z</time>
      </trkpt>
      <trkpt lat="43.25443667" lon="-4.35515667">
        <ele>239.0</ele>
        <time>2018-05-19T08:56:26.857Z</time>
      </trkpt>
      <trkpt lat="43.25443667" lon="-4.35515667">
        <ele>239.0</ele>
        <time>2018-05-19T08:56:27.847Z</time>
      </trkpt>
      <trkpt lat="43.25444333" lon="-4.35503">
        <ele>239.0</ele>
        <time>2018-05-19T08:56:28.882Z</time>
      </trkpt>
      <trkpt lat="43.25444333" lon="-4.35503">
        <ele>239.0</ele>
        <time>2018-05-19T08:56:29.876Z</time>
      </trkpt>
      <trkpt lat="43.25445" lon="-4.35490167">
        <ele>240.0</ele>
        <time>2018-05-19T08:56:30.872Z</time>
      </trkpt>
      <trkpt lat="43.25445" lon="-4.35490167">
        <ele>240.0</ele>
        <time>2018-05-19T08:56:31.860Z</time>
      </trkpt>
      <trkpt lat="43.25446" lon="-4.35477333">
        <ele>241.0</ele>
        <time>2018-05-19T08:56:32.883Z</time>
      </trkpt>
      <trkpt lat="43.25446" lon="-4.35477333">
        <ele>241.0</ele>
        <time>2018-05-19T08:56:33.884Z</time>
      </trkpt>
      <trkpt lat="43.25448" lon="-4.35464667">
        <ele>241.0</ele>
        <time>2018-05-19T08:56:34.878Z</time>
      </trkpt>
      <trkpt lat="43.25448" lon="-4.35464667">
        <ele>241.0</ele>
        <time>2018-05-19T08:56:35.872Z</time>
      </trkpt>
      <trkpt lat="43.25451333" lon="-4.35453">
        <ele>241.0</ele>
        <time>2018-05-19T08:56:36.862Z</time>
      </trkpt>
      <trkpt lat="43.25451333" lon="-4.35453">
        <ele>241.0</ele>
        <time>2018-05-19T08:56:37.854Z</time>
      </trkpt>
      <trkpt lat="43.25454667" lon="-4.354415">
        <ele>242.0</ele>
        <time>2018-05-19T08:56:38.854Z</time>
      </trkpt>
      <trkpt lat="43.254565" lon="-4.35436">
        <ele>242.0</ele>
        <time>2018-05-19T08:56:39.852Z</time>
      </trkpt>
      <trkpt lat="43.254565" lon="-4.35436">
        <ele>242.0</ele>
        <time>2018-05-19T08:56:40.847Z</time>
      </trkpt>
      <trkpt lat="43.25461167" lon="-4.35425">
        <ele>243.0</ele>
        <time>2018-05-19T08:56:41.865Z</time>
      </trkpt>
      <trkpt lat="43.254635" lon="-4.35419667">
        <ele>243.0</ele>
        <time>2018-05-19T08:56:42.862Z</time>
      </trkpt>
      <trkpt lat="43.254635" lon="-4.35419667">
        <ele>243.0</ele>
        <time>2018-05-19T08:56:43.857Z</time>
      </trkpt>
      <trkpt lat="43.254685" lon="-4.35409">
        <ele>243.0</ele>
        <time>2018-05-19T08:56:44.866Z</time>
      </trkpt>
      <trkpt lat="43.254685" lon="-4.35409">
        <ele>243.0</ele>
        <time>2018-05-19T08:56:45.875Z</time>
      </trkpt>
      <trkpt lat="43.25474167" lon="-4.35399333">
        <ele>244.0</ele>
        <time>2018-05-19T08:56:46.847Z</time>
      </trkpt>
      <trkpt lat="43.25474167" lon="-4.35399333">
        <ele>244.0</ele>
        <time>2018-05-19T08:56:47.854Z</time>
      </trkpt>
      <trkpt lat="43.25479667" lon="-4.3539">
        <ele>244.0</ele>
        <time>2018-05-19T08:56:48.865Z</time>
      </trkpt>
      <trkpt lat="43.25479667" lon="-4.3539">
        <ele>244.0</ele>
        <time>2018-05-19T08:56:49.854Z</time>
      </trkpt>
      <trkpt lat="43.25485" lon="-4.35380833">
        <ele>245.0</ele>
        <time>2018-05-19T08:56:50.856Z</time>
      </trkpt>
      <trkpt lat="43.25487833" lon="-4.35376333">
        <ele>245.0</ele>
        <time>2018-05-19T08:56:51.872Z</time>
      </trkpt>
      <trkpt lat="43.25487833" lon="-4.35376333">
        <ele>245.0</ele>
        <time>2018-05-19T08:56:52.865Z</time>
      </trkpt>
      <trkpt lat="43.25493333" lon="-4.35367333">
        <ele>245.0</ele>
        <time>2018-05-19T08:56:53.875Z</time>
      </trkpt>
      <trkpt lat="43.25496" lon="-4.35363">
        <ele>245.0</ele>
        <time>2018-05-19T08:56:54.866Z</time>
      </trkpt>
      <trkpt lat="43.25496" lon="-4.35363">
        <ele>245.0</ele>
        <time>2018-05-19T08:56:55.860Z</time>
      </trkpt>
      <trkpt lat="43.25501333" lon="-4.35354">
        <ele>246.0</ele>
        <time>2018-05-19T08:56:56.851Z</time>
      </trkpt>
      <trkpt lat="43.25501333" lon="-4.35354">
        <ele>246.0</ele>
        <time>2018-05-19T08:56:57.844Z</time>
      </trkpt>
      <trkpt lat="43.25506833" lon="-4.35345">
        <ele>246.0</ele>
        <time>2018-05-19T08:56:58.874Z</time>
      </trkpt>
      <trkpt lat="43.25506833" lon="-4.35345">
        <ele>246.0</ele>
        <time>2018-05-19T08:56:59.863Z</time>
      </trkpt>
      <trkpt lat="43.25512" lon="-4.35336">
        <ele>246.0</ele>
        <time>2018-05-19T08:57:00.856Z</time>
      </trkpt>
      <trkpt lat="43.25512" lon="-4.35336">
        <ele>246.0</ele>
        <time>2018-05-19T08:57:01.852Z</time>
      </trkpt>
      <trkpt lat="43.25517667" lon="-4.35326833">
        <ele>247.0</ele>
        <time>2018-05-19T08:57:02.852Z</time>
      </trkpt>
      <trkpt lat="43.25517667" lon="-4.35326833">
        <ele>247.0</ele>
        <time>2018-05-19T08:57:03.846Z</time>
      </trkpt>
      <trkpt lat="43.25523333" lon="-4.35317833">
        <ele>247.0</ele>
        <time>2018-05-19T08:57:04.883Z</time>
      </trkpt>
      <trkpt lat="43.25523333" lon="-4.35317833">
        <ele>247.0</ele>
        <time>2018-05-19T08:57:05.881Z</time>
      </trkpt>
      <trkpt lat="43.25528833" lon="-4.35309">
        <ele>248.0</ele>
        <time>2018-05-19T08:57:06.872Z</time>
      </trkpt>
      <trkpt lat="43.25528833" lon="-4.35309">
        <ele>248.0</ele>
        <time>2018-05-19T08:57:07.861Z</time>
      </trkpt>
      <trkpt lat="43.25534333" lon="-4.353005">
        <ele>248.0</ele>
        <time>2018-05-19T08:57:08.853Z</time>
      </trkpt>
      <trkpt lat="43.25537167" lon="-4.35296167">
        <ele>248.0</ele>
        <time>2018-05-19T08:57:09.856Z</time>
      </trkpt>
      <trkpt lat="43.2554" lon="-4.35291833">
        <ele>248.0</ele>
        <time>2018-05-19T08:57:10.857Z</time>
      </trkpt>
      <trkpt lat="43.25543167" lon="-4.35287667">
        <ele>248.0</ele>
        <time>2018-05-19T08:57:11.855Z</time>
      </trkpt>
      <trkpt lat="43.25543167" lon="-4.35287667">
        <ele>248.0</ele>
        <time>2018-05-19T08:57:12.846Z</time>
      </trkpt>
      <trkpt lat="43.25549333" lon="-4.352805">
        <ele>248.0</ele>
        <time>2018-05-19T08:57:13.847Z</time>
      </trkpt>
      <trkpt lat="43.25549333" lon="-4.352805">
        <ele>248.0</ele>
        <time>2018-05-19T08:57:14.854Z</time>
      </trkpt>
      <trkpt lat="43.25555667" lon="-4.35275833">
        <ele>249.0</ele>
        <time>2018-05-19T08:57:15.861Z</time>
      </trkpt>
      <trkpt lat="43.25559" lon="-4.35274167">
        <ele>249.0</ele>
        <time>2018-05-19T08:57:16.855Z</time>
      </trkpt>
      <trkpt lat="43.25559" lon="-4.35274167">
        <ele>249.0</ele>
        <time>2018-05-19T08:57:17.844Z</time>
      </trkpt>
      <trkpt lat="43.25564833" lon="-4.35271833">
        <ele>250.0</ele>
        <time>2018-05-19T08:57:18.872Z</time>
      </trkpt>
      <trkpt lat="43.25564833" lon="-4.35271833">
        <ele>250.0</ele>
        <time>2018-05-19T08:57:19.861Z</time>
      </trkpt>
      <trkpt lat="43.25571167" lon="-4.35268167">
        <ele>251.0</ele>
        <time>2018-05-19T08:57:20.855Z</time>
      </trkpt>
      <trkpt lat="43.25574167" lon="-4.35265667">
        <ele>251.0</ele>
        <time>2018-05-19T08:57:21.852Z</time>
      </trkpt>
      <trkpt lat="43.25577" lon="-4.352625">
        <ele>251.0</ele>
        <time>2018-05-19T08:57:22.853Z</time>
      </trkpt>
      <trkpt lat="43.25577" lon="-4.352625">
        <ele>251.0</ele>
        <time>2018-05-19T08:57:23.850Z</time>
      </trkpt>
      <trkpt lat="43.25580833" lon="-4.35253833">
        <ele>251.0</ele>
        <time>2018-05-19T08:57:24.851Z</time>
      </trkpt>
      <trkpt lat="43.25580833" lon="-4.35253833">
        <ele>251.0</ele>
        <time>2018-05-19T08:57:25.861Z</time>
      </trkpt>
      <trkpt lat="43.25582667" lon="-4.35243833">
        <ele>251.0</ele>
        <time>2018-05-19T08:57:26.859Z</time>
      </trkpt>
      <trkpt lat="43.25582667" lon="-4.35243833">
        <ele>251.0</ele>
        <time>2018-05-19T08:57:27.849Z</time>
      </trkpt>
      <trkpt lat="43.25583333" lon="-4.35233167">
        <ele>252.0</ele>
        <time>2018-05-19T08:57:28.883Z</time>
      </trkpt>
      <trkpt lat="43.25583333" lon="-4.35233167">
        <ele>252.0</ele>
        <time>2018-05-19T08:57:29.872Z</time>
      </trkpt>
      <trkpt lat="43.25583167" lon="-4.35222667">
        <ele>252.0</ele>
        <time>2018-05-19T08:57:30.865Z</time>
      </trkpt>
      <trkpt lat="43.25583167" lon="-4.352175">
        <ele>252.0</ele>
        <time>2018-05-19T08:57:31.868Z</time>
      </trkpt>
      <trkpt lat="43.25582833" lon="-4.35212167">
        <ele>253.0</ele>
        <time>2018-05-19T08:57:32.882Z</time>
      </trkpt>
      <trkpt lat="43.25582833" lon="-4.35212167">
        <ele>253.0</ele>
        <time>2018-05-19T08:57:33.870Z</time>
      </trkpt>
      <trkpt lat="43.25582833" lon="-4.35202">
        <ele>253.0</ele>
        <time>2018-05-19T08:57:34.865Z</time>
      </trkpt>
      <trkpt lat="43.25582833" lon="-4.35202">
        <ele>253.0</ele>
        <time>2018-05-19T08:57:35.858Z</time>
      </trkpt>
      <trkpt lat="43.25583333" lon="-4.35192167">
        <ele>254.0</ele>
        <time>2018-05-19T08:57:36.852Z</time>
      </trkpt>
      <trkpt lat="43.25583333" lon="-4.35192167">
        <ele>254.0</ele>
        <time>2018-05-19T08:57:37.882Z</time>
      </trkpt>
      <trkpt lat="43.25586" lon="-4.35182167">
        <ele>254.0</ele>
        <time>2018-05-19T08:57:38.871Z</time>
      </trkpt>
      <trkpt lat="43.25586" lon="-4.35182167">
        <ele>254.0</ele>
        <time>2018-05-19T08:57:39.862Z</time>
      </trkpt>
      <trkpt lat="43.25588833" lon="-4.35173">
        <ele>254.0</ele>
        <time>2018-05-19T08:57:40.849Z</time>
      </trkpt>
      <trkpt lat="43.25588833" lon="-4.35173">
        <ele>254.0</ele>
        <time>2018-05-19T08:57:41.859Z</time>
      </trkpt>
      <trkpt lat="43.25593" lon="-4.35165167">
        <ele>255.0</ele>
        <time>2018-05-19T08:57:42.855Z</time>
      </trkpt>
      <trkpt lat="43.25593" lon="-4.35165167">
        <ele>255.0</ele>
        <time>2018-05-19T08:57:43.846Z</time>
      </trkpt>
      <trkpt lat="43.255985" lon="-4.35159667">
        <ele>256.0</ele>
        <time>2018-05-19T08:57:44.872Z</time>
      </trkpt>
      <trkpt lat="43.255985" lon="-4.35159667">
        <ele>256.0</ele>
        <time>2018-05-19T08:57:45.861Z</time>
      </trkpt>
      <trkpt lat="43.25604833" lon="-4.35159333">
        <ele>256.0</ele>
        <time>2018-05-19T08:57:46.851Z</time>
      </trkpt>
      <trkpt lat="43.25604833" lon="-4.35159333">
        <ele>256.0</ele>
        <time>2018-05-19T08:57:47.859Z</time>
      </trkpt>
      <trkpt lat="43.2561" lon="-4.351635">
        <ele>257.0</ele>
        <time>2018-05-19T08:57:48.872Z</time>
      </trkpt>
      <trkpt lat="43.2561" lon="-4.351635">
        <ele>257.0</ele>
        <time>2018-05-19T08:57:49.866Z</time>
      </trkpt>
      <trkpt lat="43.25613333" lon="-4.35168833">
        <ele>257.0</ele>
        <time>2018-05-19T08:57:50.857Z</time>
      </trkpt>
      <trkpt lat="43.25613833" lon="-4.35171667">
        <ele>257.0</ele>
        <time>2018-05-19T08:57:51.851Z</time>
      </trkpt>
      <trkpt lat="43.25613833" lon="-4.35171667">
        <ele>257.0</ele>
        <time>2018-05-19T08:57:52.880Z</time>
      </trkpt>
      <trkpt lat="43.25613833" lon="-4.35177667">
        <ele>257.0</ele>
        <time>2018-05-19T08:57:53.850Z</time>
      </trkpt>
      <trkpt lat="43.25613667" lon="-4.35180667">
        <ele>257.0</ele>
        <time>2018-05-19T08:57:54.854Z</time>
      </trkpt>
      <trkpt lat="43.25613667" lon="-4.35180667">
        <ele>257.0</ele>
        <time>2018-05-19T08:57:55.845Z</time>
      </trkpt>
      <trkpt lat="43.25613167" lon="-4.351855">
        <ele>257.0</ele>
        <time>2018-05-19T08:57:56.881Z</time>
      </trkpt>
      <trkpt lat="43.25613167" lon="-4.351855">
        <ele>257.0</ele>
        <time>2018-05-19T08:57:57.871Z</time>
      </trkpt>
      <trkpt lat="43.256125" lon="-4.35190667">
        <ele>257.0</ele>
        <time>2018-05-19T08:57:58.861Z</time>
      </trkpt>
      <trkpt lat="43.256125" lon="-4.35190667">
        <ele>257.0</ele>
        <time>2018-05-19T08:57:59.845Z</time>
      </trkpt>
      <trkpt lat="43.256115" lon="-4.35195667">
        <ele>258.0</ele>
        <time>2018-05-19T08:58:00.873Z</time>
      </trkpt>
      <trkpt lat="43.256115" lon="-4.35195667">
        <ele>258.0</ele>
        <time>2018-05-19T08:58:01.862Z</time>
      </trkpt>
      <trkpt lat="43.25610667" lon="-4.352005">
        <ele>258.0</ele>
        <time>2018-05-19T08:58:02.853Z</time>
      </trkpt>
      <trkpt lat="43.25610667" lon="-4.352005">
        <ele>258.0</ele>
        <time>2018-05-19T08:58:03.848Z</time>
      </trkpt>
      <trkpt lat="43.25609833" lon="-4.35204833">
        <ele>259.0</ele>
        <time>2018-05-19T08:58:04.882Z</time>
      </trkpt>
      <trkpt lat="43.25609833" lon="-4.35204833">
        <ele>259.0</ele>
        <time>2018-05-19T08:58:05.877Z</time>
      </trkpt>
      <trkpt lat="43.25610167" lon="-4.35209667">
        <ele>260.0</ele>
        <time>2018-05-19T08:58:06.871Z</time>
      </trkpt>
      <trkpt lat="43.25610167" lon="-4.35209667">
        <ele>260.0</ele>
        <time>2018-05-19T08:58:07.860Z</time>
      </trkpt>
      <trkpt lat="43.25611167" lon="-4.35213833">
        <ele>261.0</ele>
        <time>2018-05-19T08:58:08.853Z</time>
      </trkpt>
      <trkpt lat="43.25611167" lon="-4.35213833">
        <ele>261.0</ele>
        <time>2018-05-19T08:58:09.847Z</time>
      </trkpt>
      <trkpt lat="43.25612167" lon="-4.352185">
        <ele>262.0</ele>
        <time>2018-05-19T08:58:10.882Z</time>
      </trkpt>
      <trkpt lat="43.25612167" lon="-4.352185">
        <ele>262.0</ele>
        <time>2018-05-19T08:58:11.880Z</time>
      </trkpt>
      <trkpt lat="43.25612833" lon="-4.35222833">
        <ele>263.0</ele>
        <time>2018-05-19T08:58:12.875Z</time>
      </trkpt>
      <trkpt lat="43.25612833" lon="-4.35222833">
        <ele>263.0</ele>
        <time>2018-05-19T08:58:13.865Z</time>
      </trkpt>
      <trkpt lat="43.25613167" lon="-4.352275">
        <ele>263.0</ele>
        <time>2018-05-19T08:58:14.862Z</time>
      </trkpt>
      <trkpt lat="43.25613333" lon="-4.3523">
        <ele>264.0</ele>
        <time>2018-05-19T08:58:15.873Z</time>
      </trkpt>
      <trkpt lat="43.256135" lon="-4.35233">
        <ele>264.0</ele>
        <time>2018-05-19T08:58:16.856Z</time>
      </trkpt>
      <trkpt lat="43.256135" lon="-4.35233">
        <ele>264.0</ele>
        <time>2018-05-19T08:58:17.850Z</time>
      </trkpt>
      <trkpt lat="43.256135" lon="-4.35237167">
        <ele>265.0</ele>
        <time>2018-05-19T08:58:18.852Z</time>
      </trkpt>
      <trkpt lat="43.256135" lon="-4.35237167">
        <ele>265.0</ele>
        <time>2018-05-19T08:58:19.845Z</time>
      </trkpt>
      <trkpt lat="43.25614167" lon="-4.35241167">
        <ele>266.0</ele>
        <time>2018-05-19T08:58:20.852Z</time>
      </trkpt>
      <trkpt lat="43.25615" lon="-4.35243333">
        <ele>266.0</ele>
        <time>2018-05-19T08:58:21.852Z</time>
      </trkpt>
      <trkpt lat="43.25616" lon="-4.35245167">
        <ele>267.0</ele>
        <time>2018-05-19T08:58:22.846Z</time>
      </trkpt>
      <trkpt lat="43.25616" lon="-4.35245167">
        <ele>267.0</ele>
        <time>2018-05-19T08:58:23.883Z</time>
      </trkpt>
      <trkpt lat="43.25618" lon="-4.35247667">
        <ele>267.0</ele>
        <time>2018-05-19T08:58:24.881Z</time>
      </trkpt>
      <trkpt lat="43.25618" lon="-4.35247667">
        <ele>267.0</ele>
        <time>2018-05-19T08:58:25.884Z</time>
      </trkpt>
      <trkpt lat="43.25620833" lon="-4.35249833">
        <ele>268.0</ele>
        <time>2018-05-19T08:58:26.864Z</time>
      </trkpt>
      <trkpt lat="43.25620833" lon="-4.35249833">
        <ele>268.0</ele>
        <time>2018-05-19T08:58:27.852Z</time>
      </trkpt>
      <trkpt lat="43.25624" lon="-4.352515">
        <ele>269.0</ele>
        <time>2018-05-19T08:58:28.852Z</time>
      </trkpt>
      <trkpt lat="43.25624" lon="-4.352515">
        <ele>269.0</ele>
        <time>2018-05-19T08:58:29.844Z</time>
      </trkpt>
      <trkpt lat="43.25627333" lon="-4.35252833">
        <ele>270.0</ele>
        <time>2018-05-19T08:58:30.873Z</time>
      </trkpt>
      <trkpt lat="43.25627333" lon="-4.35252833">
        <ele>270.0</ele>
        <time>2018-05-19T08:58:31.862Z</time>
      </trkpt>
      <trkpt lat="43.25630833" lon="-4.35253667">
        <ele>271.0</ele>
        <time>2018-05-19T08:58:32.858Z</time>
      </trkpt>
      <trkpt lat="43.25630833" lon="-4.35253667">
        <ele>271.0</ele>
        <time>2018-05-19T08:58:33.859Z</time>
      </trkpt>
      <trkpt lat="43.25634167" lon="-4.35254667">
        <ele>272.0</ele>
        <time>2018-05-19T08:58:34.849Z</time>
      </trkpt>
      <trkpt lat="43.25634167" lon="-4.35254667">
        <ele>272.0</ele>
        <time>2018-05-19T08:58:35.845Z</time>
      </trkpt>
      <trkpt lat="43.25637167" lon="-4.35257167">
        <ele>272.0</ele>
        <time>2018-05-19T08:58:36.883Z</time>
      </trkpt>
      <trkpt lat="43.25638333" lon="-4.35259167">
        <ele>273.0</ele>
        <time>2018-05-19T08:58:37.851Z</time>
      </trkpt>
      <trkpt lat="43.25639167" lon="-4.35261167">
        <ele>273.0</ele>
        <time>2018-05-19T08:58:38.848Z</time>
      </trkpt>
      <trkpt lat="43.25639167" lon="-4.35261167">
        <ele>273.0</ele>
        <time>2018-05-19T08:58:39.847Z</time>
      </trkpt>
      <trkpt lat="43.25640833" lon="-4.35265667">
        <ele>273.0</ele>
        <time>2018-05-19T08:58:40.880Z</time>
      </trkpt>
      <trkpt lat="43.25640833" lon="-4.35265667">
        <ele>273.0</ele>
        <time>2018-05-19T08:58:41.844Z</time>
      </trkpt>
      <trkpt lat="43.25642" lon="-4.35271">
        <ele>274.0</ele>
        <time>2018-05-19T08:58:42.864Z</time>
      </trkpt>
      <trkpt lat="43.25642" lon="-4.35271">
        <ele>274.0</ele>
        <time>2018-05-19T08:58:43.847Z</time>
      </trkpt>
      <trkpt lat="43.25644167" lon="-4.35275667">
        <ele>274.0</ele>
        <time>2018-05-19T08:58:44.847Z</time>
      </trkpt>
      <trkpt lat="43.25644167" lon="-4.35275667">
        <ele>274.0</ele>
        <time>2018-05-19T08:58:45.852Z</time>
      </trkpt>
      <trkpt lat="43.25647333" lon="-4.35279">
        <ele>275.0</ele>
        <time>2018-05-19T08:58:46.857Z</time>
      </trkpt>
      <trkpt lat="43.25649667" lon="-4.35281333">
        <ele>275.0</ele>
        <time>2018-05-19T08:58:47.863Z</time>
      </trkpt>
      <trkpt lat="43.25649667" lon="-4.35281333">
        <ele>275.0</ele>
        <time>2018-05-19T08:58:48.872Z</time>
      </trkpt>
      <trkpt lat="43.25654167" lon="-4.352835">
        <ele>275.0</ele>
        <time>2018-05-19T08:58:49.847Z</time>
      </trkpt>
      <trkpt lat="43.25654167" lon="-4.352835">
        <ele>275.0</ele>
        <time>2018-05-19T08:58:50.845Z</time>
      </trkpt>
      <trkpt lat="43.25658833" lon="-4.35284167">
        <ele>275.0</ele>
        <time>2018-05-19T08:58:51.847Z</time>
      </trkpt>
      <trkpt lat="43.256605" lon="-4.35285167">
        <ele>275.0</ele>
        <time>2018-05-19T08:58:52.850Z</time>
      </trkpt>
      <trkpt lat="43.256605" lon="-4.35285167">
        <ele>275.0</ele>
        <time>2018-05-19T08:58:53.881Z</time>
      </trkpt>
      <trkpt lat="43.25664167" lon="-4.35287667">
        <ele>275.0</ele>
        <time>2018-05-19T08:58:54.852Z</time>
      </trkpt>
      <trkpt lat="43.25664167" lon="-4.35287667">
        <ele>275.0</ele>
        <time>2018-05-19T08:58:55.846Z</time>
      </trkpt>
      <trkpt lat="43.25667333" lon="-4.35290667">
        <ele>275.0</ele>
        <time>2018-05-19T08:58:56.845Z</time>
      </trkpt>
      <trkpt lat="43.25667333" lon="-4.35290667">
        <ele>275.0</ele>
        <time>2018-05-19T08:58:57.882Z</time>
      </trkpt>
      <trkpt lat="43.25670667" lon="-4.35293667">
        <ele>275.0</ele>
        <time>2018-05-19T08:58:58.845Z</time>
      </trkpt>
      <trkpt lat="43.25670667" lon="-4.35293667">
        <ele>275.0</ele>
        <time>2018-05-19T08:58:59.882Z</time>
      </trkpt>
      <trkpt lat="43.25674333" lon="-4.35297">
        <ele>275.0</ele>
        <time>2018-05-19T08:59:00.849Z</time>
      </trkpt>
      <trkpt lat="43.25674333" lon="-4.35297">
        <ele>275.0</ele>
        <time>2018-05-19T08:59:01.882Z</time>
      </trkpt>
      <trkpt lat="43.25677667" lon="-4.35299333">
        <ele>276.0</ele>
        <time>2018-05-19T08:59:02.847Z</time>
      </trkpt>
      <trkpt lat="43.25679667" lon="-4.35300833">
        <ele>276.0</ele>
        <time>2018-05-19T08:59:03.844Z</time>
      </trkpt>
      <trkpt lat="43.25679667" lon="-4.35300833">
        <ele>276.0</ele>
        <time>2018-05-19T08:59:04.883Z</time>
      </trkpt>
      <trkpt lat="43.256835" lon="-4.353015">
        <ele>276.0</ele>
        <time>2018-05-19T08:59:05.846Z</time>
      </trkpt>
      <trkpt lat="43.256855" lon="-4.35301">
        <ele>276.0</ele>
        <time>2018-05-19T08:59:06.848Z</time>
      </trkpt>
      <trkpt lat="43.256855" lon="-4.35301">
        <ele>276.0</ele>
        <time>2018-05-19T08:59:07.844Z</time>
      </trkpt>
      <trkpt lat="43.25690167" lon="-4.35298667">
        <ele>277.0</ele>
        <time>2018-05-19T08:59:08.847Z</time>
      </trkpt>
      <trkpt lat="43.25690167" lon="-4.35298667">
        <ele>277.0</ele>
        <time>2018-05-19T08:59:09.845Z</time>
      </trkpt>
      <trkpt lat="43.256935" lon="-4.35297">
        <ele>277.0</ele>
        <time>2018-05-19T08:59:10.850Z</time>
      </trkpt>
      <trkpt lat="43.256935" lon="-4.35297">
        <ele>277.0</ele>
        <time>2018-05-19T08:59:11.844Z</time>
      </trkpt>
      <trkpt lat="43.25697167" lon="-4.352965">
        <ele>277.0</ele>
        <time>2018-05-19T08:59:12.847Z</time>
      </trkpt>
      <trkpt lat="43.25697167" lon="-4.352965">
        <ele>277.0</ele>
        <time>2018-05-19T08:59:13.879Z</time>
      </trkpt>
      <trkpt lat="43.25699333" lon="-4.35296">
        <ele>278.0</ele>
        <time>2018-05-19T08:59:14.852Z</time>
      </trkpt>
      <trkpt lat="43.25700167" lon="-4.35297167">
        <ele>278.0</ele>
        <time>2018-05-19T08:59:15.844Z</time>
      </trkpt>
      <trkpt lat="43.25701167" lon="-4.35299167">
        <ele>278.0</ele>
        <time>2018-05-19T08:59:16.848Z</time>
      </trkpt>
      <trkpt lat="43.25701167" lon="-4.35299167">
        <ele>278.0</ele>
        <time>2018-05-19T08:59:17.845Z</time>
      </trkpt>
      <trkpt lat="43.257045" lon="-4.353025">
        <ele>279.0</ele>
        <time>2018-05-19T08:59:18.848Z</time>
      </trkpt>
      <trkpt lat="43.257045" lon="-4.353025">
        <ele>279.0</ele>
        <time>2018-05-19T08:59:19.882Z</time>
      </trkpt>
      <trkpt lat="43.25709667" lon="-4.35304">
        <ele>279.0</ele>
        <time>2018-05-19T08:59:20.847Z</time>
      </trkpt>
      <trkpt lat="43.25709667" lon="-4.35304">
        <ele>279.0</ele>
        <time>2018-05-19T08:59:21.844Z</time>
      </trkpt>
      <trkpt lat="43.25714" lon="-4.35304667">
        <ele>280.0</ele>
        <time>2018-05-19T08:59:22.845Z</time>
      </trkpt>
      <trkpt lat="43.25714" lon="-4.35304667">
        <ele>280.0</ele>
        <time>2018-05-19T08:59:23.879Z</time>
      </trkpt>
      <trkpt lat="43.25717667" lon="-4.35306">
        <ele>281.0</ele>
        <time>2018-05-19T08:59:24.864Z</time>
      </trkpt>
      <trkpt lat="43.25717667" lon="-4.35306">
        <ele>281.0</ele>
        <time>2018-05-19T08:59:25.847Z</time>
      </trkpt>
      <trkpt lat="43.25721667" lon="-4.35310167">
        <ele>281.0</ele>
        <time>2018-05-19T08:59:26.847Z</time>
      </trkpt>
      <trkpt lat="43.25721667" lon="-4.35310167">
        <ele>281.0</ele>
        <time>2018-05-19T08:59:27.844Z</time>
      </trkpt>
      <trkpt lat="43.25725667" lon="-4.353145">
        <ele>281.0</ele>
        <time>2018-05-19T08:59:28.849Z</time>
      </trkpt>
      <trkpt lat="43.25725667" lon="-4.353145">
        <ele>281.0</ele>
        <time>2018-05-19T08:59:29.844Z</time>
      </trkpt>
      <trkpt lat="43.25729167" lon="-4.35317833">
        <ele>282.0</ele>
        <time>2018-05-19T08:59:30.847Z</time>
      </trkpt>
      <trkpt lat="43.25729167" lon="-4.35317833">
        <ele>282.0</ele>
        <time>2018-05-19T08:59:31.844Z</time>
      </trkpt>
      <trkpt lat="43.25733167" lon="-4.353195">
        <ele>282.0</ele>
        <time>2018-05-19T08:59:32.847Z</time>
      </trkpt>
      <trkpt lat="43.25733167" lon="-4.353195">
        <ele>282.0</ele>
        <time>2018-05-19T08:59:33.880Z</time>
      </trkpt>
      <trkpt lat="43.25736667" lon="-4.35322167">
        <ele>283.0</ele>
        <time>2018-05-19T08:59:34.864Z</time>
      </trkpt>
      <trkpt lat="43.25736667" lon="-4.35322167">
        <ele>283.0</ele>
        <time>2018-05-19T08:59:35.847Z</time>
      </trkpt>
      <trkpt lat="43.257405" lon="-4.35325167">
        <ele>283.0</ele>
        <time>2018-05-19T08:59:36.850Z</time>
      </trkpt>
      <trkpt lat="43.257405" lon="-4.35325167">
        <ele>283.0</ele>
        <time>2018-05-19T08:59:37.881Z</time>
      </trkpt>
      <trkpt lat="43.25744667" lon="-4.35327">
        <ele>284.0</ele>
        <time>2018-05-19T08:59:38.846Z</time>
      </trkpt>
      <trkpt lat="43.25744667" lon="-4.35327">
        <ele>284.0</ele>
        <time>2018-05-19T08:59:39.844Z</time>
      </trkpt>
      <trkpt lat="43.25748667" lon="-4.35327">
        <ele>284.0</ele>
        <time>2018-05-19T08:59:40.881Z</time>
      </trkpt>
      <trkpt lat="43.25748667" lon="-4.35327">
        <ele>284.0</ele>
        <time>2018-05-19T08:59:41.844Z</time>
      </trkpt>
      <trkpt lat="43.25752833" lon="-4.35326">
        <ele>285.0</ele>
        <time>2018-05-19T08:59:42.848Z</time>
      </trkpt>
      <trkpt lat="43.25752833" lon="-4.35326">
        <ele>285.0</ele>
        <time>2018-05-19T08:59:43.878Z</time>
      </trkpt>
      <trkpt lat="43.25756833" lon="-4.353245">
        <ele>285.0</ele>
        <time>2018-05-19T08:59:44.845Z</time>
      </trkpt>
      <trkpt lat="43.25756833" lon="-4.353245">
        <ele>285.0</ele>
        <time>2018-05-19T08:59:45.845Z</time>
      </trkpt>
      <trkpt lat="43.25761167" lon="-4.35323167">
        <ele>285.0</ele>
        <time>2018-05-19T08:59:46.851Z</time>
      </trkpt>
      <trkpt lat="43.25762667" lon="-4.35322333">
        <ele>286.0</ele>
        <time>2018-05-19T08:59:47.857Z</time>
      </trkpt>
      <trkpt lat="43.25763833" lon="-4.35321333">
        <ele>286.0</ele>
        <time>2018-05-19T08:59:48.862Z</time>
      </trkpt>
      <trkpt lat="43.25763833" lon="-4.35321333">
        <ele>286.0</ele>
        <time>2018-05-19T08:59:49.857Z</time>
      </trkpt>
      <trkpt lat="43.25766167" lon="-4.35319667">
        <ele>286.0</ele>
        <time>2018-05-19T08:59:50.846Z</time>
      </trkpt>
      <trkpt lat="43.25766167" lon="-4.35319667">
        <ele>286.0</ele>
        <time>2018-05-19T08:59:51.845Z</time>
      </trkpt>
      <trkpt lat="43.25768833" lon="-4.35318833">
        <ele>287.0</ele>
        <time>2018-05-19T08:59:52.850Z</time>
      </trkpt>
      <trkpt lat="43.25768833" lon="-4.35318833">
        <ele>287.0</ele>
        <time>2018-05-19T08:59:53.879Z</time>
      </trkpt>
      <trkpt lat="43.25772" lon="-4.35318667">
        <ele>288.0</ele>
        <time>2018-05-19T08:59:54.864Z</time>
      </trkpt>
      <trkpt lat="43.25772" lon="-4.35318667">
        <ele>288.0</ele>
        <time>2018-05-19T08:59:55.864Z</time>
      </trkpt>
      <trkpt lat="43.257755" lon="-4.35317333">
        <ele>288.0</ele>
        <time>2018-05-19T08:59:56.852Z</time>
      </trkpt>
      <trkpt lat="43.257755" lon="-4.35317333">
        <ele>288.0</ele>
        <time>2018-05-19T08:59:57.882Z</time>
      </trkpt>
      <trkpt lat="43.25778333" lon="-4.35316167">
        <ele>289.0</ele>
        <time>2018-05-19T08:59:58.865Z</time>
      </trkpt>
      <trkpt lat="43.25778333" lon="-4.35316167">
        <ele>289.0</ele>
        <time>2018-05-19T08:59:59.846Z</time>
      </trkpt>
      <trkpt lat="43.25781167" lon="-4.35314">
        <ele>289.0</ele>
        <time>2018-05-19T09:00:00.862Z</time>
      </trkpt>
      <trkpt lat="43.25781167" lon="-4.35314">
        <ele>289.0</ele>
        <time>2018-05-19T09:00:01.847Z</time>
      </trkpt>
      <trkpt lat="43.25783667" lon="-4.35311">
        <ele>289.0</ele>
        <time>2018-05-19T09:00:02.847Z</time>
      </trkpt>
      <trkpt lat="43.25783667" lon="-4.35311">
        <ele>289.0</ele>
        <time>2018-05-19T09:00:03.884Z</time>
      </trkpt>
      <trkpt lat="43.25786167" lon="-4.35308167">
        <ele>290.0</ele>
        <time>2018-05-19T09:00:04.845Z</time>
      </trkpt>
      <trkpt lat="43.25786167" lon="-4.35308167">
        <ele>290.0</ele>
        <time>2018-05-19T09:00:05.844Z</time>
      </trkpt>
      <trkpt lat="43.25788833" lon="-4.353055">
        <ele>291.0</ele>
        <time>2018-05-19T09:00:06.852Z</time>
      </trkpt>
      <trkpt lat="43.25788833" lon="-4.353055">
        <ele>291.0</ele>
        <time>2018-05-19T09:00:07.844Z</time>
      </trkpt>
      <trkpt lat="43.25791833" lon="-4.353035">
        <ele>291.0</ele>
        <time>2018-05-19T09:00:08.846Z</time>
      </trkpt>
      <trkpt lat="43.25793333" lon="-4.35302833">
        <ele>292.0</ele>
        <time>2018-05-19T09:00:09.844Z</time>
      </trkpt>
      <trkpt lat="43.25794833" lon="-4.35302667">
        <ele>292.0</ele>
        <time>2018-05-19T09:00:10.850Z</time>
      </trkpt>
      <trkpt lat="43.25794833" lon="-4.35302667">
        <ele>292.0</ele>
        <time>2018-05-19T09:00:11.876Z</time>
      </trkpt>
      <trkpt lat="43.25797667" lon="-4.35302333">
        <ele>293.0</ele>
        <time>2018-05-19T09:00:12.860Z</time>
      </trkpt>
      <trkpt lat="43.25797667" lon="-4.35302333">
        <ele>293.0</ele>
        <time>2018-05-19T09:00:13.844Z</time>
      </trkpt>
      <trkpt lat="43.25800833" lon="-4.35301833">
        <ele>294.0</ele>
        <time>2018-05-19T09:00:14.846Z</time>
      </trkpt>
      <trkpt lat="43.25800833" lon="-4.35301833">
        <ele>294.0</ele>
        <time>2018-05-19T09:00:15.882Z</time>
      </trkpt>
      <trkpt lat="43.25804167" lon="-4.353015">
        <ele>294.0</ele>
        <time>2018-05-19T09:00:16.877Z</time>
      </trkpt>
      <trkpt lat="43.25804167" lon="-4.353015">
        <ele>294.0</ele>
        <time>2018-05-19T09:00:17.844Z</time>
      </trkpt>
      <trkpt lat="43.25807167" lon="-4.35301">
        <ele>295.0</ele>
        <time>2018-05-19T09:00:18.847Z</time>
      </trkpt>
      <trkpt lat="43.25807167" lon="-4.35301">
        <ele>295.0</ele>
        <time>2018-05-19T09:00:19.882Z</time>
      </trkpt>
      <trkpt lat="43.2581" lon="-4.35301667">
        <ele>296.0</ele>
        <time>2018-05-19T09:00:20.846Z</time>
      </trkpt>
      <trkpt lat="43.2581" lon="-4.35301667">
        <ele>296.0</ele>
        <time>2018-05-19T09:00:21.844Z</time>
      </trkpt>
      <trkpt lat="43.25813833" lon="-4.35301167">
        <ele>296.0</ele>
        <time>2018-05-19T09:00:22.845Z</time>
      </trkpt>
      <trkpt lat="43.25813833" lon="-4.35301167">
        <ele>296.0</ele>
        <time>2018-05-19T09:00:23.879Z</time>
      </trkpt>
      <trkpt lat="43.25817167" lon="-4.35301167">
        <ele>297.0</ele>
        <time>2018-05-19T09:00:24.864Z</time>
      </trkpt>
      <trkpt lat="43.25817167" lon="-4.35301167">
        <ele>297.0</ele>
        <time>2018-05-19T09:00:25.848Z</time>
      </trkpt>
      <trkpt lat="43.25820167" lon="-4.353015">
        <ele>298.0</ele>
        <time>2018-05-19T09:00:26.847Z</time>
      </trkpt>
      <trkpt lat="43.258215" lon="-4.35301333">
        <ele>298.0</ele>
        <time>2018-05-19T09:00:27.846Z</time>
      </trkpt>
      <trkpt lat="43.258215" lon="-4.35301333">
        <ele>298.0</ele>
        <time>2018-05-19T09:00:28.883Z</time>
      </trkpt>
      <trkpt lat="43.25823667" lon="-4.35299167">
        <ele>298.0</ele>
        <time>2018-05-19T09:00:29.846Z</time>
      </trkpt>
      <trkpt lat="43.25824333" lon="-4.35297667">
        <ele>299.0</ele>
        <time>2018-05-19T09:00:30.847Z</time>
      </trkpt>
      <trkpt lat="43.25824333" lon="-4.35297667">
        <ele>299.0</ele>
        <time>2018-05-19T09:00:31.844Z</time>
      </trkpt>
      <trkpt lat="43.25826833" lon="-4.352965">
        <ele>299.0</ele>
        <time>2018-05-19T09:00:32.846Z</time>
      </trkpt>
      <trkpt lat="43.25826833" lon="-4.352965">
        <ele>299.0</ele>
        <time>2018-05-19T09:00:33.879Z</time>
      </trkpt>
      <trkpt lat="43.258295" lon="-4.352955">
        <ele>300.0</ele>
        <time>2018-05-19T09:00:34.864Z</time>
      </trkpt>
      <trkpt lat="43.258295" lon="-4.352955">
        <ele>300.0</ele>
        <time>2018-05-19T09:00:35.846Z</time>
      </trkpt>
      <trkpt lat="43.25832167" lon="-4.35294333">
        <ele>300.0</ele>
        <time>2018-05-19T09:00:36.848Z</time>
      </trkpt>
      <trkpt lat="43.25832167" lon="-4.35294333">
        <ele>300.0</ele>
        <time>2018-05-19T09:00:37.879Z</time>
      </trkpt>
      <trkpt lat="43.25835" lon="-4.35293">
        <ele>301.0</ele>
        <time>2018-05-19T09:00:38.863Z</time>
      </trkpt>
      <trkpt lat="43.25835" lon="-4.35293">
        <ele>301.0</ele>
        <time>2018-05-19T09:00:39.847Z</time>
      </trkpt>
      <trkpt lat="43.25837667" lon="-4.35292333">
        <ele>301.0</ele>
        <time>2018-05-19T09:00:40.883Z</time>
      </trkpt>
      <trkpt lat="43.25837667" lon="-4.35292333">
        <ele>301.0</ele>
        <time>2018-05-19T09:00:41.883Z</time>
      </trkpt>
      <trkpt lat="43.25840167" lon="-4.35291167">
        <ele>302.0</ele>
        <time>2018-05-19T09:00:42.846Z</time>
      </trkpt>
      <trkpt lat="43.25840167" lon="-4.35291167">
        <ele>302.0</ele>
        <time>2018-05-19T09:00:43.878Z</time>
      </trkpt>
      <trkpt lat="43.258425" lon="-4.35290667">
        <ele>302.0</ele>
        <time>2018-05-19T09:00:44.881Z</time>
      </trkpt>
      <trkpt lat="43.258425" lon="-4.35290667">
        <ele>302.0</ele>
        <time>2018-05-19T09:00:45.863Z</time>
      </trkpt>
      <trkpt lat="43.25845167" lon="-4.352905">
        <ele>303.0</ele>
        <time>2018-05-19T09:00:46.866Z</time>
      </trkpt>
      <trkpt lat="43.25845167" lon="-4.352905">
        <ele>303.0</ele>
        <time>2018-05-19T09:00:47.876Z</time>
      </trkpt>
      <trkpt lat="43.25847667" lon="-4.3529">
        <ele>304.0</ele>
        <time>2018-05-19T09:00:48.882Z</time>
      </trkpt>
      <trkpt lat="43.25849" lon="-4.35289833">
        <ele>304.0</ele>
        <time>2018-05-19T09:00:49.847Z</time>
      </trkpt>
      <trkpt lat="43.25849" lon="-4.35289833">
        <ele>304.0</ele>
        <time>2018-05-19T09:00:50.845Z</time>
      </trkpt>
      <trkpt lat="43.25851333" lon="-4.35289333">
        <ele>305.0</ele>
        <time>2018-05-19T09:00:51.847Z</time>
      </trkpt>
      <trkpt lat="43.25852167" lon="-4.35288667">
        <ele>305.0</ele>
        <time>2018-05-19T09:00:52.845Z</time>
      </trkpt>
      <trkpt lat="43.25852167" lon="-4.35288667">
        <ele>305.0</ele>
        <time>2018-05-19T09:00:53.879Z</time>
      </trkpt>
      <trkpt lat="43.25854333" lon="-4.35287167">
        <ele>306.0</ele>
        <time>2018-05-19T09:00:54.861Z</time>
      </trkpt>
      <trkpt lat="43.25854333" lon="-4.35287167">
        <ele>306.0</ele>
        <time>2018-05-19T09:00:55.844Z</time>
      </trkpt>
      <trkpt lat="43.25857" lon="-4.35286833">
        <ele>306.0</ele>
        <time>2018-05-19T09:00:56.847Z</time>
      </trkpt>
      <trkpt lat="43.25858167" lon="-4.35286833">
        <ele>306.0</ele>
        <time>2018-05-19T09:00:57.847Z</time>
      </trkpt>
      <trkpt lat="43.25858167" lon="-4.35286833">
        <ele>306.0</ele>
        <time>2018-05-19T09:00:58.876Z</time>
      </trkpt>
      <trkpt lat="43.25860333" lon="-4.35286667">
        <ele>307.0</ele>
        <time>2018-05-19T09:00:59.859Z</time>
      </trkpt>
      <trkpt lat="43.258615" lon="-4.35286333">
        <ele>308.0</ele>
        <time>2018-05-19T09:01:00.847Z</time>
      </trkpt>
      <trkpt lat="43.258615" lon="-4.35286333">
        <ele>308.0</ele>
        <time>2018-05-19T09:01:01.882Z</time>
      </trkpt>
      <trkpt lat="43.25863833" lon="-4.35285167">
        <ele>308.0</ele>
        <time>2018-05-19T09:01:02.846Z</time>
      </trkpt>
      <trkpt lat="43.25863833" lon="-4.35285167">
        <ele>308.0</ele>
        <time>2018-05-19T09:01:03.876Z</time>
      </trkpt>
      <trkpt lat="43.25866" lon="-4.352865">
        <ele>309.0</ele>
        <time>2018-05-19T09:01:04.861Z</time>
      </trkpt>
      <trkpt lat="43.25866" lon="-4.352865">
        <ele>309.0</ele>
        <time>2018-05-19T09:01:05.845Z</time>
      </trkpt>
      <trkpt lat="43.25868" lon="-4.35285333">
        <ele>310.0</ele>
        <time>2018-05-19T09:01:06.848Z</time>
      </trkpt>
      <trkpt lat="43.25868" lon="-4.35285333">
        <ele>310.0</ele>
        <time>2018-05-19T09:01:07.882Z</time>
      </trkpt>
      <trkpt lat="43.25870333" lon="-4.35284333">
        <ele>311.0</ele>
        <time>2018-05-19T09:01:08.846Z</time>
      </trkpt>
      <trkpt lat="43.258715" lon="-4.35284167">
        <ele>311.0</ele>
        <time>2018-05-19T09:01:09.844Z</time>
      </trkpt>
      <trkpt lat="43.258715" lon="-4.35284167">
        <ele>311.0</ele>
        <time>2018-05-19T09:01:10.882Z</time>
      </trkpt>
      <trkpt lat="43.25874" lon="-4.352835">
        <ele>312.0</ele>
        <time>2018-05-19T09:01:11.844Z</time>
      </trkpt>
      <trkpt lat="43.25874" lon="-4.352835">
        <ele>312.0</ele>
        <time>2018-05-19T09:01:12.882Z</time>
      </trkpt>
      <trkpt lat="43.25876333" lon="-4.352835">
        <ele>312.0</ele>
        <time>2018-05-19T09:01:13.880Z</time>
      </trkpt>
      <trkpt lat="43.25876333" lon="-4.352835">
        <ele>312.0</ele>
        <time>2018-05-19T09:01:14.883Z</time>
      </trkpt>
      <trkpt lat="43.25878333" lon="-4.352825">
        <ele>313.0</ele>
        <time>2018-05-19T09:01:15.879Z</time>
      </trkpt>
      <trkpt lat="43.25879167" lon="-4.35281333">
        <ele>313.0</ele>
        <time>2018-05-19T09:01:16.864Z</time>
      </trkpt>
      <trkpt lat="43.25879167" lon="-4.35281333">
        <ele>313.0</ele>
        <time>2018-05-19T09:01:17.847Z</time>
      </trkpt>
      <trkpt lat="43.25881" lon="-4.35279833">
        <ele>314.0</ele>
        <time>2018-05-19T09:01:18.848Z</time>
      </trkpt>
      <trkpt lat="43.25881" lon="-4.35279833">
        <ele>314.0</ele>
        <time>2018-05-19T09:01:19.882Z</time>
      </trkpt>
      <trkpt lat="43.258835" lon="-4.352795">
        <ele>315.0</ele>
        <time>2018-05-19T09:01:20.871Z</time>
      </trkpt>
      <trkpt lat="43.25884667" lon="-4.35279667">
        <ele>315.0</ele>
        <time>2018-05-19T09:01:21.858Z</time>
      </trkpt>
      <trkpt lat="43.25885667" lon="-4.35279833">
        <ele>315.0</ele>
        <time>2018-05-19T09:01:22.848Z</time>
      </trkpt>
      <trkpt lat="43.25885667" lon="-4.35279833">
        <ele>315.0</ele>
        <time>2018-05-19T09:01:23.881Z</time>
      </trkpt>
      <trkpt lat="43.25887833" lon="-4.352795">
        <ele>316.0</ele>
        <time>2018-05-19T09:01:24.856Z</time>
      </trkpt>
      <trkpt lat="43.25887833" lon="-4.352795">
        <ele>316.0</ele>
        <time>2018-05-19T09:01:25.846Z</time>
      </trkpt>
      <trkpt lat="43.25889667" lon="-4.35278167">
        <ele>316.0</ele>
        <time>2018-05-19T09:01:26.845Z</time>
      </trkpt>
      <trkpt lat="43.25889667" lon="-4.35278167">
        <ele>316.0</ele>
        <time>2018-05-19T09:01:27.882Z</time>
      </trkpt>
      <trkpt lat="43.25892" lon="-4.35277667">
        <ele>317.0</ele>
        <time>2018-05-19T09:01:28.864Z</time>
      </trkpt>
      <trkpt lat="43.25892" lon="-4.35277667">
        <ele>317.0</ele>
        <time>2018-05-19T09:01:29.847Z</time>
      </trkpt>
      <trkpt lat="43.258945" lon="-4.352775">
        <ele>317.0</ele>
        <time>2018-05-19T09:01:30.848Z</time>
      </trkpt>
      <trkpt lat="43.258945" lon="-4.352775">
        <ele>317.0</ele>
        <time>2018-05-19T09:01:31.848Z</time>
      </trkpt>
      <trkpt lat="43.25897167" lon="-4.35277">
        <ele>318.0</ele>
        <time>2018-05-19T09:01:32.847Z</time>
      </trkpt>
      <trkpt lat="43.25897167" lon="-4.35277">
        <ele>318.0</ele>
        <time>2018-05-19T09:01:33.883Z</time>
      </trkpt>
      <trkpt lat="43.25899667" lon="-4.35276167">
        <ele>318.0</ele>
        <time>2018-05-19T09:01:34.845Z</time>
      </trkpt>
      <trkpt lat="43.25899667" lon="-4.35276167">
        <ele>318.0</ele>
        <time>2018-05-19T09:01:35.844Z</time>
      </trkpt>
      <trkpt lat="43.259015" lon="-4.35275">
        <ele>319.0</ele>
        <time>2018-05-19T09:01:36.847Z</time>
      </trkpt>
      <trkpt lat="43.259015" lon="-4.35275">
        <ele>319.0</ele>
        <time>2018-05-19T09:01:37.882Z</time>
      </trkpt>
      <trkpt lat="43.25903667" lon="-4.35273667">
        <ele>319.0</ele>
        <time>2018-05-19T09:01:38.845Z</time>
      </trkpt>
      <trkpt lat="43.25903667" lon="-4.35273667">
        <ele>319.0</ele>
        <time>2018-05-19T09:01:39.844Z</time>
      </trkpt>
      <trkpt lat="43.25906" lon="-4.35272833">
        <ele>320.0</ele>
        <time>2018-05-19T09:01:40.845Z</time>
      </trkpt>
      <trkpt lat="43.25906" lon="-4.35272833">
        <ele>320.0</ele>
        <time>2018-05-19T09:01:41.844Z</time>
      </trkpt>
      <trkpt lat="43.25908333" lon="-4.35272">
        <ele>320.0</ele>
        <time>2018-05-19T09:01:42.847Z</time>
      </trkpt>
      <trkpt lat="43.25908333" lon="-4.35272">
        <ele>320.0</ele>
        <time>2018-05-19T09:01:43.878Z</time>
      </trkpt>
      <trkpt lat="43.25910667" lon="-4.35271">
        <ele>321.0</ele>
        <time>2018-05-19T09:01:44.872Z</time>
      </trkpt>
      <trkpt lat="43.25910667" lon="-4.35271">
        <ele>321.0</ele>
        <time>2018-05-19T09:01:45.847Z</time>
      </trkpt>
      <trkpt lat="43.25913" lon="-4.3527">
        <ele>321.0</ele>
        <time>2018-05-19T09:01:46.870Z</time>
      </trkpt>
      <trkpt lat="43.25913" lon="-4.3527">
        <ele>321.0</ele>
        <time>2018-05-19T09:01:47.878Z</time>
      </trkpt>
      <trkpt lat="43.25915333" lon="-4.35269333">
        <ele>322.0</ele>
        <time>2018-05-19T09:01:48.848Z</time>
      </trkpt>
      <trkpt lat="43.25915333" lon="-4.35269333">
        <ele>322.0</ele>
        <time>2018-05-19T09:01:49.845Z</time>
      </trkpt>
      <trkpt lat="43.25917667" lon="-4.35268167">
        <ele>322.0</ele>
        <time>2018-05-19T09:01:50.847Z</time>
      </trkpt>
      <trkpt lat="43.25917667" lon="-4.35268167">
        <ele>322.0</ele>
        <time>2018-05-19T09:01:51.845Z</time>
      </trkpt>
      <trkpt lat="43.25920167" lon="-4.35266667">
        <ele>322.0</ele>
        <time>2018-05-19T09:01:52.848Z</time>
      </trkpt>
      <trkpt lat="43.25920167" lon="-4.35266667">
        <ele>322.0</ele>
        <time>2018-05-19T09:01:53.879Z</time>
      </trkpt>
      <trkpt lat="43.25922333" lon="-4.35265">
        <ele>323.0</ele>
        <time>2018-05-19T09:01:54.863Z</time>
      </trkpt>
      <trkpt lat="43.25922333" lon="-4.35265">
        <ele>323.0</ele>
        <time>2018-05-19T09:01:55.845Z</time>
      </trkpt>
      <trkpt lat="43.25924667" lon="-4.35263">
        <ele>323.0</ele>
        <time>2018-05-19T09:01:56.847Z</time>
      </trkpt>
      <trkpt lat="43.25924667" lon="-4.35263">
        <ele>323.0</ele>
        <time>2018-05-19T09:01:57.881Z</time>
      </trkpt>
      <trkpt lat="43.25926833" lon="-4.35261333">
        <ele>323.0</ele>
        <time>2018-05-19T09:01:58.849Z</time>
      </trkpt>
      <trkpt lat="43.25926833" lon="-4.35261333">
        <ele>323.0</ele>
        <time>2018-05-19T09:01:59.844Z</time>
      </trkpt>
      <trkpt lat="43.25928667" lon="-4.35259667">
        <ele>324.0</ele>
        <time>2018-05-19T09:02:00.847Z</time>
      </trkpt>
      <trkpt lat="43.25928667" lon="-4.35259667">
        <ele>324.0</ele>
        <time>2018-05-19T09:02:01.844Z</time>
      </trkpt>
      <trkpt lat="43.259305" lon="-4.35257167">
        <ele>324.0</ele>
        <time>2018-05-19T09:02:02.848Z</time>
      </trkpt>
      <trkpt lat="43.259305" lon="-4.35257167">
        <ele>324.0</ele>
        <time>2018-05-19T09:02:03.880Z</time>
      </trkpt>
      <trkpt lat="43.25932" lon="-4.352555">
        <ele>325.0</ele>
        <time>2018-05-19T09:02:04.844Z</time>
      </trkpt>
      <trkpt lat="43.25932" lon="-4.352555">
        <ele>325.0</ele>
        <time>2018-05-19T09:02:05.844Z</time>
      </trkpt>
      <trkpt lat="43.25934" lon="-4.35255">
        <ele>326.0</ele>
        <time>2018-05-19T09:02:06.846Z</time>
      </trkpt>
      <trkpt lat="43.25935" lon="-4.35254667">
        <ele>326.0</ele>
        <time>2018-05-19T09:02:07.847Z</time>
      </trkpt>
      <trkpt lat="43.25935" lon="-4.35254667">
        <ele>326.0</ele>
        <time>2018-05-19T09:02:08.853Z</time>
      </trkpt>
      <trkpt lat="43.25936833" lon="-4.35253">
        <ele>327.0</ele>
        <time>2018-05-19T09:02:09.848Z</time>
      </trkpt>
      <trkpt lat="43.25937167" lon="-4.35251333">
        <ele>327.0</ele>
        <time>2018-05-19T09:02:10.848Z</time>
      </trkpt>
      <trkpt lat="43.25937167" lon="-4.35251333">
        <ele>327.0</ele>
        <time>2018-05-19T09:02:11.879Z</time>
      </trkpt>
      <trkpt lat="43.25937667" lon="-4.352475">
        <ele>327.0</ele>
        <time>2018-05-19T09:02:12.846Z</time>
      </trkpt>
      <trkpt lat="43.25937667" lon="-4.352475">
        <ele>327.0</ele>
        <time>2018-05-19T09:02:13.878Z</time>
      </trkpt>
      <trkpt lat="43.259395" lon="-4.35244833">
        <ele>328.0</ele>
        <time>2018-05-19T09:02:14.859Z</time>
      </trkpt>
      <trkpt lat="43.259395" lon="-4.35244833">
        <ele>328.0</ele>
        <time>2018-05-19T09:02:15.845Z</time>
      </trkpt>
      <trkpt lat="43.259405" lon="-4.35242333">
        <ele>328.0</ele>
        <time>2018-05-19T09:02:16.848Z</time>
      </trkpt>
      <trkpt lat="43.259405" lon="-4.35242333">
        <ele>328.0</ele>
        <time>2018-05-19T09:02:17.844Z</time>
      </trkpt>
      <trkpt lat="43.25941167" lon="-4.35238833">
        <ele>328.0</ele>
        <time>2018-05-19T09:02:18.848Z</time>
      </trkpt>
      <trkpt lat="43.25941167" lon="-4.35238833">
        <ele>328.0</ele>
        <time>2018-05-19T09:02:19.883Z</time>
      </trkpt>
      <trkpt lat="43.25942333" lon="-4.35234833">
        <ele>329.0</ele>
        <time>2018-05-19T09:02:20.847Z</time>
      </trkpt>
      <trkpt lat="43.25942333" lon="-4.35234833">
        <ele>329.0</ele>
        <time>2018-05-19T09:02:21.883Z</time>
      </trkpt>
      <trkpt lat="43.259445" lon="-4.35232167">
        <ele>329.0</ele>
        <time>2018-05-19T09:02:22.849Z</time>
      </trkpt>
      <trkpt lat="43.259445" lon="-4.35232167">
        <ele>329.0</ele>
        <time>2018-05-19T09:02:23.878Z</time>
      </trkpt>
      <trkpt lat="43.25946" lon="-4.35229833">
        <ele>329.0</ele>
        <time>2018-05-19T09:02:24.863Z</time>
      </trkpt>
      <trkpt lat="43.25946" lon="-4.35229833">
        <ele>329.0</ele>
        <time>2018-05-19T09:02:25.848Z</time>
      </trkpt>
      <trkpt lat="43.25947" lon="-4.35227167">
        <ele>330.0</ele>
        <time>2018-05-19T09:02:26.846Z</time>
      </trkpt>
      <trkpt lat="43.25947" lon="-4.35227167">
        <ele>330.0</ele>
        <time>2018-05-19T09:02:27.844Z</time>
      </trkpt>
      <trkpt lat="43.25948667" lon="-4.35225333">
        <ele>331.0</ele>
        <time>2018-05-19T09:02:28.849Z</time>
      </trkpt>
      <trkpt lat="43.25948667" lon="-4.35225333">
        <ele>331.0</ele>
        <time>2018-05-19T09:02:29.881Z</time>
      </trkpt>
      <trkpt lat="43.259495" lon="-4.352235">
        <ele>331.0</ele>
        <time>2018-05-19T09:02:30.845Z</time>
      </trkpt>
      <trkpt lat="43.259495" lon="-4.352235">
        <ele>331.0</ele>
        <time>2018-05-19T09:02:31.883Z</time>
      </trkpt>
      <trkpt lat="43.2595" lon="-4.35221333">
        <ele>331.0</ele>
        <time>2018-05-19T09:02:32.847Z</time>
      </trkpt>
      <trkpt lat="43.2595" lon="-4.35221333">
        <ele>331.0</ele>
        <time>2018-05-19T09:02:33.878Z</time>
      </trkpt>
      <trkpt lat="43.259505" lon="-4.35219167">
        <ele>332.0</ele>
        <time>2018-05-19T09:02:34.864Z</time>
      </trkpt>
      <trkpt lat="43.259505" lon="-4.35219167">
        <ele>332.0</ele>
        <time>2018-05-19T09:02:35.847Z</time>
      </trkpt>
      <trkpt lat="43.25952" lon="-4.35217667">
        <ele>332.0</ele>
        <time>2018-05-19T09:02:36.847Z</time>
      </trkpt>
      <trkpt lat="43.25952" lon="-4.35217667">
        <ele>332.0</ele>
        <time>2018-05-19T09:02:37.844Z</time>
      </trkpt>
      <trkpt lat="43.25953333" lon="-4.35214667">
        <ele>332.0</ele>
        <time>2018-05-19T09:02:38.882Z</time>
      </trkpt>
      <trkpt lat="43.25954167" lon="-4.35213667">
        <ele>332.0</ele>
        <time>2018-05-19T09:02:39.845Z</time>
      </trkpt>
      <trkpt lat="43.25954167" lon="-4.35213667">
        <ele>332.0</ele>
        <time>2018-05-19T09:02:40.878Z</time>
      </trkpt>
      <trkpt lat="43.25955667" lon="-4.35210667">
        <ele>332.0</ele>
        <time>2018-05-19T09:02:41.863Z</time>
      </trkpt>
      <trkpt lat="43.25956333" lon="-4.35208667">
        <ele>333.0</ele>
        <time>2018-05-19T09:02:42.847Z</time>
      </trkpt>
      <trkpt lat="43.25956333" lon="-4.35208667">
        <ele>333.0</ele>
        <time>2018-05-19T09:02:43.878Z</time>
      </trkpt>
      <trkpt lat="43.25958333" lon="-4.352055">
        <ele>333.0</ele>
        <time>2018-05-19T09:02:44.877Z</time>
      </trkpt>
      <trkpt lat="43.25958333" lon="-4.352055">
        <ele>333.0</ele>
        <time>2018-05-19T09:02:45.856Z</time>
      </trkpt>
      <trkpt lat="43.25960667" lon="-4.35203">
        <ele>334.0</ele>
        <time>2018-05-19T09:02:46.876Z</time>
      </trkpt>
      <trkpt lat="43.25960667" lon="-4.35203">
        <ele>334.0</ele>
        <time>2018-05-19T09:02:47.882Z</time>
      </trkpt>
      <trkpt lat="43.25963167" lon="-4.35201167">
        <ele>334.0</ele>
        <time>2018-05-19T09:02:48.852Z</time>
      </trkpt>
      <trkpt lat="43.25963167" lon="-4.35201167">
        <ele>334.0</ele>
        <time>2018-05-19T09:02:49.846Z</time>
      </trkpt>
      <trkpt lat="43.25965333" lon="-4.35198833">
        <ele>335.0</ele>
        <time>2018-05-19T09:02:50.846Z</time>
      </trkpt>
      <trkpt lat="43.25965333" lon="-4.35198833">
        <ele>335.0</ele>
        <time>2018-05-19T09:02:51.844Z</time>
      </trkpt>
      <trkpt lat="43.25966833" lon="-4.351955">
        <ele>336.0</ele>
        <time>2018-05-19T09:02:52.846Z</time>
      </trkpt>
      <trkpt lat="43.25966833" lon="-4.351955">
        <ele>336.0</ele>
        <time>2018-05-19T09:02:53.880Z</time>
      </trkpt>
      <trkpt lat="43.25968" lon="-4.35192333">
        <ele>336.0</ele>
        <time>2018-05-19T09:02:54.849Z</time>
      </trkpt>
      <trkpt lat="43.25968" lon="-4.35192333">
        <ele>336.0</ele>
        <time>2018-05-19T09:02:55.883Z</time>
      </trkpt>
      <trkpt lat="43.259705" lon="-4.3519">
        <ele>336.0</ele>
        <time>2018-05-19T09:02:56.846Z</time>
      </trkpt>
      <trkpt lat="43.259705" lon="-4.3519">
        <ele>336.0</ele>
        <time>2018-05-19T09:02:57.844Z</time>
      </trkpt>
      <trkpt lat="43.259735" lon="-4.351885">
        <ele>337.0</ele>
        <time>2018-05-19T09:02:58.854Z</time>
      </trkpt>
      <trkpt lat="43.259735" lon="-4.351885">
        <ele>337.0</ele>
        <time>2018-05-19T09:02:59.844Z</time>
      </trkpt>
      <trkpt lat="43.25976667" lon="-4.35186667">
        <ele>337.0</ele>
        <time>2018-05-19T09:03:00.867Z</time>
      </trkpt>
      <trkpt lat="43.25976667" lon="-4.35186667">
        <ele>337.0</ele>
        <time>2018-05-19T09:03:01.852Z</time>
      </trkpt>
      <trkpt lat="43.25979167" lon="-4.35184167">
        <ele>338.0</ele>
        <time>2018-05-19T09:03:02.844Z</time>
      </trkpt>
      <trkpt lat="43.25979167" lon="-4.35184167">
        <ele>338.0</ele>
        <time>2018-05-19T09:03:03.878Z</time>
      </trkpt>
      <trkpt lat="43.25981833" lon="-4.35181167">
        <ele>338.0</ele>
        <time>2018-05-19T09:03:04.863Z</time>
      </trkpt>
      <trkpt lat="43.25981833" lon="-4.35181167">
        <ele>338.0</ele>
        <time>2018-05-19T09:03:05.846Z</time>
      </trkpt>
      <trkpt lat="43.259845" lon="-4.35178667">
        <ele>339.0</ele>
        <time>2018-05-19T09:03:06.846Z</time>
      </trkpt>
      <trkpt lat="43.25985833" lon="-4.35177333">
        <ele>339.0</ele>
        <time>2018-05-19T09:03:07.861Z</time>
      </trkpt>
      <trkpt lat="43.25985833" lon="-4.35177333">
        <ele>339.0</ele>
        <time>2018-05-19T09:03:08.845Z</time>
      </trkpt>
      <trkpt lat="43.25988167" lon="-4.35174833">
        <ele>340.0</ele>
        <time>2018-05-19T09:03:09.846Z</time>
      </trkpt>
      <trkpt lat="43.25989333" lon="-4.351735">
        <ele>340.0</ele>
        <time>2018-05-19T09:03:10.851Z</time>
      </trkpt>
      <trkpt lat="43.25989333" lon="-4.351735">
        <ele>340.0</ele>
        <time>2018-05-19T09:03:11.881Z</time>
      </trkpt>
      <trkpt lat="43.25991833" lon="-4.35170833">
        <ele>340.0</ele>
        <time>2018-05-19T09:03:12.847Z</time>
      </trkpt>
      <trkpt lat="43.25991833" lon="-4.35170833">
        <ele>340.0</ele>
        <time>2018-05-19T09:03:13.877Z</time>
      </trkpt>
      <trkpt lat="43.25994167" lon="-4.351675">
        <ele>341.0</ele>
        <time>2018-05-19T09:03:14.881Z</time>
      </trkpt>
      <trkpt lat="43.25994167" lon="-4.351675">
        <ele>341.0</ele>
        <time>2018-05-19T09:03:15.844Z</time>
      </trkpt>
      <trkpt lat="43.25996333" lon="-4.35164667">
        <ele>342.0</ele>
        <time>2018-05-19T09:03:16.883Z</time>
      </trkpt>
      <trkpt lat="43.259975" lon="-4.35163">
        <ele>342.0</ele>
        <time>2018-05-19T09:03:17.847Z</time>
      </trkpt>
      <trkpt lat="43.259985" lon="-4.35161333">
        <ele>343.0</ele>
        <time>2018-05-19T09:03:18.859Z</time>
      </trkpt>
      <trkpt lat="43.259985" lon="-4.35161333">
        <ele>343.0</ele>
        <time>2018-05-19T09:03:19.845Z</time>
      </trkpt>
      <trkpt lat="43.26000167" lon="-4.351575">
        <ele>343.0</ele>
        <time>2018-05-19T09:03:20.847Z</time>
      </trkpt>
      <trkpt lat="43.26000833" lon="-4.351555">
        <ele>343.0</ele>
        <time>2018-05-19T09:03:21.844Z</time>
      </trkpt>
      <trkpt lat="43.26001333" lon="-4.35153667">
        <ele>343.0</ele>
        <time>2018-05-19T09:03:22.849Z</time>
      </trkpt>
      <trkpt lat="43.26001333" lon="-4.35153667">
        <ele>343.0</ele>
        <time>2018-05-19T09:03:23.876Z</time>
      </trkpt>
      <trkpt lat="43.26002333" lon="-4.351495">
        <ele>344.0</ele>
        <time>2018-05-19T09:03:24.861Z</time>
      </trkpt>
      <trkpt lat="43.26002333" lon="-4.351495">
        <ele>344.0</ele>
        <time>2018-05-19T09:03:25.845Z</time>
      </trkpt>
      <trkpt lat="43.26003833" lon="-4.35145167">
        <ele>344.0</ele>
        <time>2018-05-19T09:03:26.847Z</time>
      </trkpt>
      <trkpt lat="43.260045" lon="-4.35142833">
        <ele>344.0</ele>
        <time>2018-05-19T09:03:27.846Z</time>
      </trkpt>
      <trkpt lat="43.260045" lon="-4.35142833">
        <ele>344.0</ele>
        <time>2018-05-19T09:03:28.883Z</time>
      </trkpt>
      <trkpt lat="43.260055" lon="-4.35137667">
        <ele>345.0</ele>
        <time>2018-05-19T09:03:29.846Z</time>
      </trkpt>
      <trkpt lat="43.260055" lon="-4.35137667">
        <ele>345.0</ele>
        <time>2018-05-19T09:03:30.847Z</time>
      </trkpt>
      <trkpt lat="43.26006" lon="-4.35132667">
        <ele>345.0</ele>
        <time>2018-05-19T09:03:31.846Z</time>
      </trkpt>
      <trkpt lat="43.26006" lon="-4.35132667">
        <ele>345.0</ele>
        <time>2018-05-19T09:03:32.845Z</time>
      </trkpt>
      <trkpt lat="43.26007" lon="-4.35125833">
        <ele>345.0</ele>
        <time>2018-05-19T09:03:33.879Z</time>
      </trkpt>
      <trkpt lat="43.26007333" lon="-4.35122833">
        <ele>345.0</ele>
        <time>2018-05-19T09:03:34.845Z</time>
      </trkpt>
      <trkpt lat="43.26007333" lon="-4.35122833">
        <ele>345.0</ele>
        <time>2018-05-19T09:03:35.882Z</time>
      </trkpt>
      <trkpt lat="43.26007833" lon="-4.35116167">
        <ele>345.0</ele>
        <time>2018-05-19T09:03:36.848Z</time>
      </trkpt>
      <trkpt lat="43.26007833" lon="-4.35116167">
        <ele>345.0</ele>
        <time>2018-05-19T09:03:37.883Z</time>
      </trkpt>
      <trkpt lat="43.26009167" lon="-4.35108333">
        <ele>346.0</ele>
        <time>2018-05-19T09:03:38.873Z</time>
      </trkpt>
      <trkpt lat="43.26009167" lon="-4.35108333">
        <ele>346.0</ele>
        <time>2018-05-19T09:03:39.856Z</time>
      </trkpt>
      <trkpt lat="43.260105" lon="-4.35102">
        <ele>346.0</ele>
        <time>2018-05-19T09:03:40.849Z</time>
      </trkpt>
      <trkpt lat="43.260105" lon="-4.35102">
        <ele>346.0</ele>
        <time>2018-05-19T09:03:41.844Z</time>
      </trkpt>
      <trkpt lat="43.26013333" lon="-4.35097167">
        <ele>346.0</ele>
        <time>2018-05-19T09:03:42.850Z</time>
      </trkpt>
      <trkpt lat="43.26013333" lon="-4.35097167">
        <ele>346.0</ele>
        <time>2018-05-19T09:03:43.844Z</time>
      </trkpt>
      <trkpt lat="43.26016167" lon="-4.350935">
        <ele>347.0</ele>
        <time>2018-05-19T09:03:44.846Z</time>
      </trkpt>
      <trkpt lat="43.26016167" lon="-4.350935">
        <ele>347.0</ele>
        <time>2018-05-19T09:03:45.865Z</time>
      </trkpt>
      <trkpt lat="43.26017167" lon="-4.35089167">
        <ele>348.0</ele>
        <time>2018-05-19T09:03:46.867Z</time>
      </trkpt>
      <trkpt lat="43.26017167" lon="-4.35089167">
        <ele>348.0</ele>
        <time>2018-05-19T09:03:47.877Z</time>
      </trkpt>
      <trkpt lat="43.26018167" lon="-4.350865">
        <ele>348.0</ele>
        <time>2018-05-19T09:03:48.883Z</time>
      </trkpt>
      <trkpt lat="43.26018333" lon="-4.35084833">
        <ele>349.0</ele>
        <time>2018-05-19T09:03:49.846Z</time>
      </trkpt>
      <trkpt lat="43.26018333" lon="-4.35084833">
        <ele>349.0</ele>
        <time>2018-05-19T09:03:50.881Z</time>
      </trkpt>
      <trkpt lat="43.26018333" lon="-4.350825">
        <ele>349.0</ele>
        <time>2018-05-19T09:03:51.846Z</time>
      </trkpt>
      <trkpt lat="43.26018167" lon="-4.350815">
        <ele>350.0</ele>
        <time>2018-05-19T09:03:52.849Z</time>
      </trkpt>
      <trkpt lat="43.26018167" lon="-4.350815">
        <ele>350.0</ele>
        <time>2018-05-19T09:03:53.880Z</time>
      </trkpt>
      <trkpt lat="43.26018" lon="-4.350785">
        <ele>350.0</ele>
        <time>2018-05-19T09:03:54.844Z</time>
      </trkpt>
      <trkpt lat="43.26018" lon="-4.350785">
        <ele>350.0</ele>
        <time>2018-05-19T09:03:55.844Z</time>
      </trkpt>
      <trkpt lat="43.2602" lon="-4.35076833">
        <ele>352.0</ele>
        <time>2018-05-19T09:03:56.847Z</time>
      </trkpt>
      <trkpt lat="43.2602" lon="-4.35076833">
        <ele>352.0</ele>
        <time>2018-05-19T09:03:57.844Z</time>
      </trkpt>
      <trkpt lat="43.26018833" lon="-4.35072833">
        <ele>353.0</ele>
        <time>2018-05-19T09:03:58.850Z</time>
      </trkpt>
      <trkpt lat="43.26018833" lon="-4.35072833">
        <ele>353.0</ele>
        <time>2018-05-19T09:03:59.878Z</time>
      </trkpt>
      <trkpt lat="43.26019167" lon="-4.35069333">
        <ele>354.0</ele>
        <time>2018-05-19T09:04:00.847Z</time>
      </trkpt>
      <trkpt lat="43.26019167" lon="-4.35069333">
        <ele>354.0</ele>
        <time>2018-05-19T09:04:01.845Z</time>
      </trkpt>
      <trkpt lat="43.26020333" lon="-4.35066167">
        <ele>355.0</ele>
        <time>2018-05-19T09:04:02.846Z</time>
      </trkpt>
      <trkpt lat="43.26020333" lon="-4.35066167">
        <ele>355.0</ele>
        <time>2018-05-19T09:04:03.877Z</time>
      </trkpt>
      <trkpt lat="43.26022" lon="-4.350605">
        <ele>356.0</ele>
        <time>2018-05-19T09:04:04.862Z</time>
      </trkpt>
      <trkpt lat="43.26022" lon="-4.350605">
        <ele>356.0</ele>
        <time>2018-05-19T09:04:05.847Z</time>
      </trkpt>
      <trkpt lat="43.26021333" lon="-4.35055833">
        <ele>357.0</ele>
        <time>2018-05-19T09:04:06.847Z</time>
      </trkpt>
      <trkpt lat="43.26021333" lon="-4.35055833">
        <ele>357.0</ele>
        <time>2018-05-19T09:04:07.883Z</time>
      </trkpt>
      <trkpt lat="43.260205" lon="-4.350525">
        <ele>358.0</ele>
        <time>2018-05-19T09:04:08.846Z</time>
      </trkpt>
      <trkpt lat="43.260205" lon="-4.350525">
        <ele>358.0</ele>
        <time>2018-05-19T09:04:09.883Z</time>
      </trkpt>
      <trkpt lat="43.26020667" lon="-4.350495">
        <ele>359.0</ele>
        <time>2018-05-19T09:04:10.849Z</time>
      </trkpt>
      <trkpt lat="43.26020667" lon="-4.350495">
        <ele>359.0</ele>
        <time>2018-05-19T09:04:11.883Z</time>
      </trkpt>
      <trkpt lat="43.26020167" lon="-4.350475">
        <ele>360.0</ele>
        <time>2018-05-19T09:04:12.883Z</time>
      </trkpt>
      <trkpt lat="43.26020167" lon="-4.350475">
        <ele>360.0</ele>
        <time>2018-05-19T09:04:13.877Z</time>
      </trkpt>
      <trkpt lat="43.260195" lon="-4.35044333">
        <ele>361.0</ele>
        <time>2018-05-19T09:04:14.870Z</time>
      </trkpt>
      <trkpt lat="43.260195" lon="-4.35044333">
        <ele>361.0</ele>
        <time>2018-05-19T09:04:15.856Z</time>
      </trkpt>
      <trkpt lat="43.260195" lon="-4.35042333">
        <ele>362.0</ele>
        <time>2018-05-19T09:04:16.848Z</time>
      </trkpt>
      <trkpt lat="43.260195" lon="-4.35042333">
        <ele>362.0</ele>
        <time>2018-05-19T09:04:17.881Z</time>
      </trkpt>
      <trkpt lat="43.26019833" lon="-4.3504">
        <ele>363.0</ele>
        <time>2018-05-19T09:04:18.847Z</time>
      </trkpt>
      <trkpt lat="43.26019833" lon="-4.3504">
        <ele>363.0</ele>
        <time>2018-05-19T09:04:19.879Z</time>
      </trkpt>
      <trkpt lat="43.26019167" lon="-4.350365">
        <ele>364.0</ele>
        <time>2018-05-19T09:04:20.846Z</time>
      </trkpt>
      <trkpt lat="43.26019167" lon="-4.350365">
        <ele>364.0</ele>
        <time>2018-05-19T09:04:21.881Z</time>
      </trkpt>
      <trkpt lat="43.260175" lon="-4.35032333">
        <ele>365.0</ele>
        <time>2018-05-19T09:04:22.847Z</time>
      </trkpt>
      <trkpt lat="43.260175" lon="-4.35032333">
        <ele>365.0</ele>
        <time>2018-05-19T09:04:23.877Z</time>
      </trkpt>
      <trkpt lat="43.26017167" lon="-4.35028333">
        <ele>366.0</ele>
        <time>2018-05-19T09:04:24.847Z</time>
      </trkpt>
      <trkpt lat="43.26017167" lon="-4.35028333">
        <ele>366.0</ele>
        <time>2018-05-19T09:04:25.844Z</time>
      </trkpt>
      <trkpt lat="43.26017667" lon="-4.350255">
        <ele>367.0</ele>
        <time>2018-05-19T09:04:26.846Z</time>
      </trkpt>
      <trkpt lat="43.26018167" lon="-4.350245">
        <ele>368.0</ele>
        <time>2018-05-19T09:04:27.845Z</time>
      </trkpt>
      <trkpt lat="43.26018167" lon="-4.350245">
        <ele>368.0</ele>
        <time>2018-05-19T09:04:28.845Z</time>
      </trkpt>
      <trkpt lat="43.26018667" lon="-4.35021">
        <ele>368.0</ele>
        <time>2018-05-19T09:04:29.879Z</time>
      </trkpt>
      <trkpt lat="43.26018667" lon="-4.35019333">
        <ele>369.0</ele>
        <time>2018-05-19T09:04:30.884Z</time>
      </trkpt>
      <trkpt lat="43.26018667" lon="-4.35019333">
        <ele>369.0</ele>
        <time>2018-05-19T09:04:31.883Z</time>
      </trkpt>
      <trkpt lat="43.2602" lon="-4.35014167">
        <ele>369.0</ele>
        <time>2018-05-19T09:04:32.846Z</time>
      </trkpt>
      <trkpt lat="43.2602" lon="-4.35014167">
        <ele>369.0</ele>
        <time>2018-05-19T09:04:33.877Z</time>
      </trkpt>
      <trkpt lat="43.26022167" lon="-4.35008">
        <ele>370.0</ele>
        <time>2018-05-19T09:04:34.862Z</time>
      </trkpt>
      <trkpt lat="43.26022167" lon="-4.35008">
        <ele>370.0</ele>
        <time>2018-05-19T09:04:35.847Z</time>
      </trkpt>
      <trkpt lat="43.26021833" lon="-4.35002667">
        <ele>370.0</ele>
        <time>2018-05-19T09:04:36.845Z</time>
      </trkpt>
      <trkpt lat="43.26021833" lon="-4.35002667">
        <ele>370.0</ele>
        <time>2018-05-19T09:04:37.883Z</time>
      </trkpt>
      <trkpt lat="43.260215" lon="-4.34997333">
        <ele>370.0</ele>
        <time>2018-05-19T09:04:38.845Z</time>
      </trkpt>
      <trkpt lat="43.260215" lon="-4.34997333">
        <ele>370.0</ele>
        <time>2018-05-19T09:04:39.847Z</time>
      </trkpt>
      <trkpt lat="43.26022" lon="-4.34993333">
        <ele>371.0</ele>
        <time>2018-05-19T09:04:40.848Z</time>
      </trkpt>
      <trkpt lat="43.26022" lon="-4.34993333">
        <ele>371.0</ele>
        <time>2018-05-19T09:04:41.881Z</time>
      </trkpt>
      <trkpt lat="43.26023333" lon="-4.34990333">
        <ele>371.0</ele>
        <time>2018-05-19T09:04:42.847Z</time>
      </trkpt>
      <trkpt lat="43.26023333" lon="-4.34990333">
        <ele>371.0</ele>
        <time>2018-05-19T09:04:43.876Z</time>
      </trkpt>
      <trkpt lat="43.26025333" lon="-4.349885">
        <ele>372.0</ele>
        <time>2018-05-19T09:04:44.882Z</time>
      </trkpt>
      <trkpt lat="43.26025333" lon="-4.349885">
        <ele>372.0</ele>
        <time>2018-05-19T09:04:45.883Z</time>
      </trkpt>
      <trkpt lat="43.26027667" lon="-4.34987167">
        <ele>372.0</ele>
        <time>2018-05-19T09:04:46.867Z</time>
      </trkpt>
      <trkpt lat="43.26028833" lon="-4.34986667">
        <ele>373.0</ele>
        <time>2018-05-19T09:04:47.875Z</time>
      </trkpt>
      <trkpt lat="43.26028833" lon="-4.34986667">
        <ele>373.0</ele>
        <time>2018-05-19T09:04:48.881Z</time>
      </trkpt>
      <trkpt lat="43.26031333" lon="-4.34986">
        <ele>374.0</ele>
        <time>2018-05-19T09:04:49.846Z</time>
      </trkpt>
      <trkpt lat="43.26031333" lon="-4.34986">
        <ele>374.0</ele>
        <time>2018-05-19T09:04:50.883Z</time>
      </trkpt>
      <trkpt lat="43.260335" lon="-4.34986">
        <ele>375.0</ele>
        <time>2018-05-19T09:04:51.844Z</time>
      </trkpt>
      <trkpt lat="43.26034833" lon="-4.34986">
        <ele>376.0</ele>
        <time>2018-05-19T09:04:52.846Z</time>
      </trkpt>
      <trkpt lat="43.26034833" lon="-4.34986">
        <ele>376.0</ele>
        <time>2018-05-19T09:04:53.876Z</time>
      </trkpt>
      <trkpt lat="43.26036833" lon="-4.34986167">
        <ele>377.0</ele>
        <time>2018-05-19T09:04:54.865Z</time>
      </trkpt>
      <trkpt lat="43.26036833" lon="-4.34986167">
        <ele>377.0</ele>
        <time>2018-05-19T09:04:55.847Z</time>
      </trkpt>
      <trkpt lat="43.260385" lon="-4.34985833">
        <ele>379.0</ele>
        <time>2018-05-19T09:04:56.845Z</time>
      </trkpt>
      <trkpt lat="43.260385" lon="-4.34985833">
        <ele>379.0</ele>
        <time>2018-05-19T09:04:57.883Z</time>
      </trkpt>
      <trkpt lat="43.26040833" lon="-4.34986167">
        <ele>380.0</ele>
        <time>2018-05-19T09:04:58.847Z</time>
      </trkpt>
      <trkpt lat="43.26040833" lon="-4.34986167">
        <ele>380.0</ele>
        <time>2018-05-19T09:04:59.882Z</time>
      </trkpt>
      <trkpt lat="43.26043" lon="-4.34984833">
        <ele>381.0</ele>
        <time>2018-05-19T09:05:00.847Z</time>
      </trkpt>
      <trkpt lat="43.26043" lon="-4.34984833">
        <ele>381.0</ele>
        <time>2018-05-19T09:05:01.883Z</time>
      </trkpt>
      <trkpt lat="43.26045167" lon="-4.349825">
        <ele>382.0</ele>
        <time>2018-05-19T09:05:02.845Z</time>
      </trkpt>
      <trkpt lat="43.26045167" lon="-4.349825">
        <ele>382.0</ele>
        <time>2018-05-19T09:05:03.877Z</time>
      </trkpt>
      <trkpt lat="43.26046833" lon="-4.349785">
        <ele>383.0</ele>
        <time>2018-05-19T09:05:04.861Z</time>
      </trkpt>
      <trkpt lat="43.26046833" lon="-4.349785">
        <ele>383.0</ele>
        <time>2018-05-19T09:05:05.846Z</time>
      </trkpt>
      <trkpt lat="43.26046167" lon="-4.34974833">
        <ele>384.0</ele>
        <time>2018-05-19T09:05:06.846Z</time>
      </trkpt>
      <trkpt lat="43.26046167" lon="-4.34974833">
        <ele>384.0</ele>
        <time>2018-05-19T09:05:07.883Z</time>
      </trkpt>
      <trkpt lat="43.26043" lon="-4.34973833">
        <ele>385.0</ele>
        <time>2018-05-19T09:05:08.846Z</time>
      </trkpt>
      <trkpt lat="43.26041167" lon="-4.34973">
        <ele>385.0</ele>
        <time>2018-05-19T09:05:09.845Z</time>
      </trkpt>
      <trkpt lat="43.26041167" lon="-4.34973">
        <ele>385.0</ele>
        <time>2018-05-19T09:05:10.844Z</time>
      </trkpt>
      <trkpt lat="43.26038167" lon="-4.34972667">
        <ele>385.0</ele>
        <time>2018-05-19T09:05:11.845Z</time>
      </trkpt>
      <trkpt lat="43.26036833" lon="-4.349725">
        <ele>385.0</ele>
        <time>2018-05-19T09:05:12.846Z</time>
      </trkpt>
      <trkpt lat="43.26036833" lon="-4.349725">
        <ele>385.0</ele>
        <time>2018-05-19T09:05:13.879Z</time>
      </trkpt>
      <trkpt lat="43.26034" lon="-4.34971833">
        <ele>385.0</ele>
        <time>2018-05-19T09:05:14.862Z</time>
      </trkpt>
      <trkpt lat="43.26034" lon="-4.34971833">
        <ele>385.0</ele>
        <time>2018-05-19T09:05:15.880Z</time>
      </trkpt>
      <trkpt lat="43.26031167" lon="-4.34971333">
        <ele>385.0</ele>
        <time>2018-05-19T09:05:16.884Z</time>
      </trkpt>
      <trkpt lat="43.26031167" lon="-4.34971333">
        <ele>385.0</ele>
        <time>2018-05-19T09:05:17.880Z</time>
      </trkpt>
      <trkpt lat="43.26027667" lon="-4.34969833">
        <ele>385.0</ele>
        <time>2018-05-19T09:05:18.845Z</time>
      </trkpt>
      <trkpt lat="43.26027667" lon="-4.34969833">
        <ele>385.0</ele>
        <time>2018-05-19T09:05:19.883Z</time>
      </trkpt>
      <trkpt lat="43.26024333" lon="-4.34968667">
        <ele>384.0</ele>
        <time>2018-05-19T09:05:20.845Z</time>
      </trkpt>
      <trkpt lat="43.26024333" lon="-4.34968667">
        <ele>384.0</ele>
        <time>2018-05-19T09:05:21.882Z</time>
      </trkpt>
      <trkpt lat="43.26021167" lon="-4.349665">
        <ele>384.0</ele>
        <time>2018-05-19T09:05:22.847Z</time>
      </trkpt>
      <trkpt lat="43.26021167" lon="-4.349665">
        <ele>384.0</ele>
        <time>2018-05-19T09:05:23.876Z</time>
      </trkpt>
      <trkpt lat="43.26017667" lon="-4.34965">
        <ele>383.0</ele>
        <time>2018-05-19T09:05:24.868Z</time>
      </trkpt>
      <trkpt lat="43.26017667" lon="-4.34965">
        <ele>383.0</ele>
        <time>2018-05-19T09:05:25.852Z</time>
      </trkpt>
      <trkpt lat="43.26014167" lon="-4.34964167">
        <ele>383.0</ele>
        <time>2018-05-19T09:05:26.845Z</time>
      </trkpt>
      <trkpt lat="43.26014167" lon="-4.34964167">
        <ele>383.0</ele>
        <time>2018-05-19T09:05:27.883Z</time>
      </trkpt>
      <trkpt lat="43.26010667" lon="-4.34964167">
        <ele>383.0</ele>
        <time>2018-05-19T09:05:28.847Z</time>
      </trkpt>
      <trkpt lat="43.26010667" lon="-4.34964167">
        <ele>383.0</ele>
        <time>2018-05-19T09:05:29.856Z</time>
      </trkpt>
      <trkpt lat="43.26007333" lon="-4.34964">
        <ele>383.0</ele>
        <time>2018-05-19T09:05:30.846Z</time>
      </trkpt>
      <trkpt lat="43.26005667" lon="-4.34963833">
        <ele>383.0</ele>
        <time>2018-05-19T09:05:31.845Z</time>
      </trkpt>
      <trkpt lat="43.26005667" lon="-4.34963833">
        <ele>383.0</ele>
        <time>2018-05-19T09:05:32.883Z</time>
      </trkpt>
      <trkpt lat="43.260025" lon="-4.34963167">
        <ele>382.0</ele>
        <time>2018-05-19T09:05:33.880Z</time>
      </trkpt>
      <trkpt lat="43.26001" lon="-4.34962833">
        <ele>382.0</ele>
        <time>2018-05-19T09:05:34.846Z</time>
      </trkpt>
      <trkpt lat="43.26001" lon="-4.34962833">
        <ele>382.0</ele>
        <time>2018-05-19T09:05:35.884Z</time>
      </trkpt>
      <trkpt lat="43.25998167" lon="-4.34960833">
        <ele>382.0</ele>
        <time>2018-05-19T09:05:36.846Z</time>
      </trkpt>
      <trkpt lat="43.25998167" lon="-4.34960833">
        <ele>382.0</ele>
        <time>2018-05-19T09:05:37.883Z</time>
      </trkpt>
      <trkpt lat="43.25994833" lon="-4.34957667">
        <ele>382.0</ele>
        <time>2018-05-19T09:05:38.845Z</time>
      </trkpt>
      <trkpt lat="43.25994833" lon="-4.34957667">
        <ele>382.0</ele>
        <time>2018-05-19T09:05:39.883Z</time>
      </trkpt>
      <trkpt lat="43.25993" lon="-4.349515">
        <ele>382.0</ele>
        <time>2018-05-19T09:05:40.882Z</time>
      </trkpt>
      <trkpt lat="43.25993" lon="-4.349515">
        <ele>382.0</ele>
        <time>2018-05-19T09:05:41.883Z</time>
      </trkpt>
      <trkpt lat="43.259925" lon="-4.34944833">
        <ele>382.0</ele>
        <time>2018-05-19T09:05:42.846Z</time>
      </trkpt>
      <trkpt lat="43.259925" lon="-4.34944833">
        <ele>382.0</ele>
        <time>2018-05-19T09:05:43.883Z</time>
      </trkpt>
      <trkpt lat="43.25991333" lon="-4.34937333">
        <ele>381.0</ele>
        <time>2018-05-19T09:05:44.844Z</time>
      </trkpt>
      <trkpt lat="43.25991333" lon="-4.34937333">
        <ele>381.0</ele>
        <time>2018-05-19T09:05:45.876Z</time>
      </trkpt>
      <trkpt lat="43.25989167" lon="-4.349275">
        <ele>381.0</ele>
        <time>2018-05-19T09:05:46.862Z</time>
      </trkpt>
      <trkpt lat="43.25989167" lon="-4.349275">
        <ele>381.0</ele>
        <time>2018-05-19T09:05:47.874Z</time>
      </trkpt>
      <trkpt lat="43.25986833" lon="-4.349145">
        <ele>379.0</ele>
        <time>2018-05-19T09:05:48.882Z</time>
      </trkpt>
      <trkpt lat="43.25986833" lon="-4.349145">
        <ele>379.0</ele>
        <time>2018-05-19T09:05:49.880Z</time>
      </trkpt>
      <trkpt lat="43.25984667" lon="-4.34897833">
        <ele>378.0</ele>
        <time>2018-05-19T09:05:50.880Z</time>
      </trkpt>
      <trkpt lat="43.25984833" lon="-4.348885">
        <ele>377.0</ele>
        <time>2018-05-19T09:05:51.845Z</time>
      </trkpt>
      <trkpt lat="43.259855" lon="-4.34878333">
        <ele>377.0</ele>
        <time>2018-05-19T09:05:52.846Z</time>
      </trkpt>
      <trkpt lat="43.259855" lon="-4.34878333">
        <ele>377.0</ele>
        <time>2018-05-19T09:05:53.876Z</time>
      </trkpt>
      <trkpt lat="43.25988" lon="-4.34856667">
        <ele>375.0</ele>
        <time>2018-05-19T09:05:54.862Z</time>
      </trkpt>
      <trkpt lat="43.25988" lon="-4.34856667">
        <ele>375.0</ele>
        <time>2018-05-19T09:05:55.847Z</time>
      </trkpt>
      <trkpt lat="43.25995167" lon="-4.34835333">
        <ele>374.0</ele>
        <time>2018-05-19T09:05:56.846Z</time>
      </trkpt>
      <trkpt lat="43.25995167" lon="-4.34835333">
        <ele>374.0</ele>
        <time>2018-05-19T09:05:57.883Z</time>
      </trkpt>
      <trkpt lat="43.26004667" lon="-4.34811667">
        <ele>372.0</ele>
        <time>2018-05-19T09:05:58.846Z</time>
      </trkpt>
      <trkpt lat="43.26004667" lon="-4.34811667">
        <ele>372.0</ele>
        <time>2018-05-19T09:05:59.883Z</time>
      </trkpt>
      <trkpt lat="43.260145" lon="-4.34784333">
        <ele>369.0</ele>
        <time>2018-05-19T09:06:00.883Z</time>
      </trkpt>
      <trkpt lat="43.260145" lon="-4.34784333">
        <ele>369.0</ele>
        <time>2018-05-19T09:06:01.883Z</time>
      </trkpt>
      <trkpt lat="43.26022" lon="-4.34755667">
        <ele>367.0</ele>
        <time>2018-05-19T09:06:02.882Z</time>
      </trkpt>
      <trkpt lat="43.26022" lon="-4.34755667">
        <ele>367.0</ele>
        <time>2018-05-19T09:06:03.876Z</time>
      </trkpt>
      <trkpt lat="43.26025333" lon="-4.34724167">
        <ele>365.0</ele>
        <time>2018-05-19T09:06:04.861Z</time>
      </trkpt>
      <trkpt lat="43.26025333" lon="-4.34724167">
        <ele>365.0</ele>
        <time>2018-05-19T09:06:05.883Z</time>
      </trkpt>
      <trkpt lat="43.26023833" lon="-4.34693667">
        <ele>363.0</ele>
        <time>2018-05-19T09:06:06.860Z</time>
      </trkpt>
      <trkpt lat="43.26023833" lon="-4.34693667">
        <ele>363.0</ele>
        <time>2018-05-19T09:06:07.882Z</time>
      </trkpt>
      <trkpt lat="43.26016167" lon="-4.34668">
        <ele>361.0</ele>
        <time>2018-05-19T09:06:08.845Z</time>
      </trkpt>
      <trkpt lat="43.26016167" lon="-4.34668">
        <ele>361.0</ele>
        <time>2018-05-19T09:06:09.883Z</time>
      </trkpt>
      <trkpt lat="43.26005" lon="-4.34648167">
        <ele>359.0</ele>
        <time>2018-05-19T09:06:10.844Z</time>
      </trkpt>
      <trkpt lat="43.26005" lon="-4.34648167">
        <ele>359.0</ele>
        <time>2018-05-19T09:06:11.880Z</time>
      </trkpt>
      <trkpt lat="43.26001833" lon="-4.346275">
        <ele>357.0</ele>
        <time>2018-05-19T09:06:12.849Z</time>
      </trkpt>
      <trkpt lat="43.26001833" lon="-4.346275">
        <ele>357.0</ele>
        <time>2018-05-19T09:06:13.877Z</time>
      </trkpt>
      <trkpt lat="43.260085" lon="-4.34608333">
        <ele>355.0</ele>
        <time>2018-05-19T09:06:14.845Z</time>
      </trkpt>
      <trkpt lat="43.260085" lon="-4.34608333">
        <ele>355.0</ele>
        <time>2018-05-19T09:06:15.883Z</time>
      </trkpt>
      <trkpt lat="43.26017167" lon="-4.34588667">
        <ele>352.0</ele>
        <time>2018-05-19T09:06:16.848Z</time>
      </trkpt>
      <trkpt lat="43.26017167" lon="-4.34588667">
        <ele>352.0</ele>
        <time>2018-05-19T09:06:17.883Z</time>
      </trkpt>
      <trkpt lat="43.26022333" lon="-4.345655">
        <ele>350.0</ele>
        <time>2018-05-19T09:06:18.846Z</time>
      </trkpt>
      <trkpt lat="43.26022333" lon="-4.345655">
        <ele>350.0</ele>
        <time>2018-05-19T09:06:19.883Z</time>
      </trkpt>
      <trkpt lat="43.26023" lon="-4.34545833">
        <ele>349.0</ele>
        <time>2018-05-19T09:06:20.881Z</time>
      </trkpt>
      <trkpt lat="43.26020167" lon="-4.34538333">
        <ele>348.0</ele>
        <time>2018-05-19T09:06:21.883Z</time>
      </trkpt>
      <trkpt lat="43.26020167" lon="-4.34538333">
        <ele>348.0</ele>
        <time>2018-05-19T09:06:22.883Z</time>
      </trkpt>
      <trkpt lat="43.26009667" lon="-4.34527833">
        <ele>346.0</ele>
        <time>2018-05-19T09:06:23.845Z</time>
      </trkpt>
      <trkpt lat="43.260035" lon="-4.34522667">
        <ele>345.0</ele>
        <time>2018-05-19T09:06:24.846Z</time>
      </trkpt>
      <trkpt lat="43.260035" lon="-4.34522667">
        <ele>345.0</ele>
        <time>2018-05-19T09:06:25.879Z</time>
      </trkpt>
      <trkpt lat="43.25995167" lon="-4.34508333">
        <ele>344.0</ele>
        <time>2018-05-19T09:06:26.845Z</time>
      </trkpt>
      <trkpt lat="43.25995167" lon="-4.34508333">
        <ele>344.0</ele>
        <time>2018-05-19T09:06:27.883Z</time>
      </trkpt>
      <trkpt lat="43.25996667" lon="-4.344915">
        <ele>344.0</ele>
        <time>2018-05-19T09:06:28.846Z</time>
      </trkpt>
      <trkpt lat="43.25996667" lon="-4.344915">
        <ele>344.0</ele>
        <time>2018-05-19T09:06:29.879Z</time>
      </trkpt>
      <trkpt lat="43.26004" lon="-4.34473833">
        <ele>343.0</ele>
        <time>2018-05-19T09:06:30.866Z</time>
      </trkpt>
      <trkpt lat="43.260095" lon="-4.344655">
        <ele>342.0</ele>
        <time>2018-05-19T09:06:31.851Z</time>
      </trkpt>
      <trkpt lat="43.260095" lon="-4.344655">
        <ele>342.0</ele>
        <time>2018-05-19T09:06:32.882Z</time>
      </trkpt>
      <trkpt lat="43.26023" lon="-4.3445">
        <ele>340.0</ele>
        <time>2018-05-19T09:06:33.876Z</time>
      </trkpt>
      <trkpt lat="43.26030333" lon="-4.34442333">
        <ele>340.0</ele>
        <time>2018-05-19T09:06:34.861Z</time>
      </trkpt>
      <trkpt lat="43.26030333" lon="-4.34442333">
        <ele>340.0</ele>
        <time>2018-05-19T09:06:35.845Z</time>
      </trkpt>
      <trkpt lat="43.260455" lon="-4.344275">
        <ele>337.0</ele>
        <time>2018-05-19T09:06:36.845Z</time>
      </trkpt>
      <trkpt lat="43.260455" lon="-4.344275">
        <ele>337.0</ele>
        <time>2018-05-19T09:06:37.883Z</time>
      </trkpt>
      <trkpt lat="43.26055167" lon="-4.34410333">
        <ele>335.0</ele>
        <time>2018-05-19T09:06:38.845Z</time>
      </trkpt>
      <trkpt lat="43.26058333" lon="-4.34402333">
        <ele>335.0</ele>
        <time>2018-05-19T09:06:39.883Z</time>
      </trkpt>
      <trkpt lat="43.26058333" lon="-4.34402333">
        <ele>335.0</ele>
        <time>2018-05-19T09:06:40.881Z</time>
      </trkpt>
      <trkpt lat="43.260675" lon="-4.34390167">
        <ele>333.0</ele>
        <time>2018-05-19T09:06:41.883Z</time>
      </trkpt>
      <trkpt lat="43.26073333" lon="-4.34385167">
        <ele>333.0</ele>
        <time>2018-05-19T09:06:42.883Z</time>
      </trkpt>
      <trkpt lat="43.26073333" lon="-4.34385167">
        <ele>333.0</ele>
        <time>2018-05-19T09:06:43.868Z</time>
      </trkpt>
      <trkpt lat="43.26081833" lon="-4.34370333">
        <ele>331.0</ele>
        <time>2018-05-19T09:06:44.851Z</time>
      </trkpt>
      <trkpt lat="43.26081833" lon="-4.34370333">
        <ele>331.0</ele>
        <time>2018-05-19T09:06:45.865Z</time>
      </trkpt>
      <trkpt lat="43.26085333" lon="-4.34351">
        <ele>330.0</ele>
        <time>2018-05-19T09:06:46.875Z</time>
      </trkpt>
      <trkpt lat="43.26086667" lon="-4.34341">
        <ele>329.0</ele>
        <time>2018-05-19T09:06:47.881Z</time>
      </trkpt>
      <trkpt lat="43.26086667" lon="-4.34341">
        <ele>329.0</ele>
        <time>2018-05-19T09:06:48.847Z</time>
      </trkpt>
      <trkpt lat="43.26090333" lon="-4.343215">
        <ele>328.0</ele>
        <time>2018-05-19T09:06:49.845Z</time>
      </trkpt>
      <trkpt lat="43.26090333" lon="-4.343215">
        <ele>328.0</ele>
        <time>2018-05-19T09:06:50.883Z</time>
      </trkpt>
      <trkpt lat="43.26089833" lon="-4.34305667">
        <ele>327.0</ele>
        <time>2018-05-19T09:06:51.845Z</time>
      </trkpt>
      <trkpt lat="43.26086" lon="-4.34300833">
        <ele>327.0</ele>
        <time>2018-05-19T09:06:52.861Z</time>
      </trkpt>
      <trkpt lat="43.26086" lon="-4.34300833">
        <ele>327.0</ele>
        <time>2018-05-19T09:06:53.846Z</time>
      </trkpt>
      <trkpt lat="43.26073833" lon="-4.34292">
        <ele>326.0</ele>
        <time>2018-05-19T09:06:54.845Z</time>
      </trkpt>
      <trkpt lat="43.26073833" lon="-4.34292">
        <ele>326.0</ele>
        <time>2018-05-19T09:06:55.883Z</time>
      </trkpt>
      <trkpt lat="43.26057833" lon="-4.34283167">
        <ele>324.0</ele>
        <time>2018-05-19T09:06:56.844Z</time>
      </trkpt>
      <trkpt lat="43.26057833" lon="-4.34283167">
        <ele>324.0</ele>
        <time>2018-05-19T09:06:57.883Z</time>
      </trkpt>
      <trkpt lat="43.26041667" lon="-4.34272333">
        <ele>323.0</ele>
        <time>2018-05-19T09:06:58.846Z</time>
      </trkpt>
      <trkpt lat="43.26041667" lon="-4.34272333">
        <ele>323.0</ele>
        <time>2018-05-19T09:06:59.882Z</time>
      </trkpt>
      <trkpt lat="43.26027" lon="-4.34255667">
        <ele>321.0</ele>
        <time>2018-05-19T09:07:00.846Z</time>
      </trkpt>
      <trkpt lat="43.26027" lon="-4.34255667">
        <ele>321.0</ele>
        <time>2018-05-19T09:07:01.873Z</time>
      </trkpt>
      <trkpt lat="43.260175" lon="-4.34234">
        <ele>320.0</ele>
        <time>2018-05-19T09:07:02.858Z</time>
      </trkpt>
      <trkpt lat="43.260175" lon="-4.34234">
        <ele>320.0</ele>
        <time>2018-05-19T09:07:03.882Z</time>
      </trkpt>
      <trkpt lat="43.26018333" lon="-4.34215667">
        <ele>318.0</ele>
        <time>2018-05-19T09:07:04.846Z</time>
      </trkpt>
      <trkpt lat="43.26018333" lon="-4.34215667">
        <ele>318.0</ele>
        <time>2018-05-19T09:07:05.844Z</time>
      </trkpt>
      <trkpt lat="43.260285" lon="-4.34201833">
        <ele>316.0</ele>
        <time>2018-05-19T09:07:06.883Z</time>
      </trkpt>
      <trkpt lat="43.260285" lon="-4.34201833">
        <ele>316.0</ele>
        <time>2018-05-19T09:07:07.883Z</time>
      </trkpt>
      <trkpt lat="43.26038833" lon="-4.341885">
        <ele>314.0</ele>
        <time>2018-05-19T09:07:08.845Z</time>
      </trkpt>
      <trkpt lat="43.26038833" lon="-4.341885">
        <ele>314.0</ele>
        <time>2018-05-19T09:07:09.882Z</time>
      </trkpt>
      <trkpt lat="43.260445" lon="-4.34172833">
        <ele>311.0</ele>
        <time>2018-05-19T09:07:10.846Z</time>
      </trkpt>
      <trkpt lat="43.260445" lon="-4.34172833">
        <ele>311.0</ele>
        <time>2018-05-19T09:07:11.883Z</time>
      </trkpt>
      <trkpt lat="43.26045333" lon="-4.34152667">
        <ele>309.0</ele>
        <time>2018-05-19T09:07:12.882Z</time>
      </trkpt>
      <trkpt lat="43.26045333" lon="-4.34152667">
        <ele>309.0</ele>
        <time>2018-05-19T09:07:13.874Z</time>
      </trkpt>
      <trkpt lat="43.26035833" lon="-4.34130333">
        <ele>308.0</ele>
        <time>2018-05-19T09:07:14.857Z</time>
      </trkpt>
      <trkpt lat="43.26035833" lon="-4.34130333">
        <ele>308.0</ele>
        <time>2018-05-19T09:07:15.880Z</time>
      </trkpt>
      <trkpt lat="43.26023667" lon="-4.34115667">
        <ele>306.0</ele>
        <time>2018-05-19T09:07:16.847Z</time>
      </trkpt>
      <trkpt lat="43.26023667" lon="-4.34115667">
        <ele>306.0</ele>
        <time>2018-05-19T09:07:17.882Z</time>
      </trkpt>
      <trkpt lat="43.26016833" lon="-4.34098333">
        <ele>305.0</ele>
        <time>2018-05-19T09:07:18.883Z</time>
      </trkpt>
      <trkpt lat="43.26016833" lon="-4.34098333">
        <ele>305.0</ele>
        <time>2018-05-19T09:07:19.883Z</time>
      </trkpt>
      <trkpt lat="43.26017167" lon="-4.34085667">
        <ele>306.0</ele>
        <time>2018-05-19T09:07:20.845Z</time>
      </trkpt>
      <trkpt lat="43.26018167" lon="-4.34081167">
        <ele>307.0</ele>
        <time>2018-05-19T09:07:21.845Z</time>
      </trkpt>
      <trkpt lat="43.26018167" lon="-4.34081167">
        <ele>307.0</ele>
        <time>2018-05-19T09:07:22.880Z</time>
      </trkpt>
      <trkpt lat="43.2602" lon="-4.340745">
        <ele>308.0</ele>
        <time>2018-05-19T09:07:23.878Z</time>
      </trkpt>
      <trkpt lat="43.26021" lon="-4.34071">
        <ele>308.0</ele>
        <time>2018-05-19T09:07:24.861Z</time>
      </trkpt>
      <trkpt lat="43.26021" lon="-4.34071">
        <ele>308.0</ele>
        <time>2018-05-19T09:07:25.858Z</time>
      </trkpt>
      <trkpt lat="43.260245" lon="-4.34064333">
        <ele>309.0</ele>
        <time>2018-05-19T09:07:26.845Z</time>
      </trkpt>
      <trkpt lat="43.26026333" lon="-4.340615">
        <ele>310.0</ele>
        <time>2018-05-19T09:07:27.845Z</time>
      </trkpt>
      <trkpt lat="43.26026333" lon="-4.340615">
        <ele>310.0</ele>
        <time>2018-05-19T09:07:28.883Z</time>
      </trkpt>
      <trkpt lat="43.26029667" lon="-4.34056167">
        <ele>311.0</ele>
        <time>2018-05-19T09:07:29.845Z</time>
      </trkpt>
      <trkpt lat="43.26029667" lon="-4.34056167">
        <ele>311.0</ele>
        <time>2018-05-19T09:07:30.883Z</time>
      </trkpt>
      <trkpt lat="43.26033333" lon="-4.34051333">
        <ele>311.0</ele>
        <time>2018-05-19T09:07:31.844Z</time>
      </trkpt>
      <trkpt lat="43.26035333" lon="-4.34049167">
        <ele>312.0</ele>
        <time>2018-05-19T09:07:32.845Z</time>
      </trkpt>
      <trkpt lat="43.26035333" lon="-4.34049167">
        <ele>312.0</ele>
        <time>2018-05-19T09:07:33.882Z</time>
      </trkpt>
      <trkpt lat="43.26038" lon="-4.34043333">
        <ele>312.0</ele>
        <time>2018-05-19T09:07:34.846Z</time>
      </trkpt>
      <trkpt lat="43.26038" lon="-4.34043333">
        <ele>312.0</ele>
        <time>2018-05-19T09:07:35.883Z</time>
      </trkpt>
      <trkpt lat="43.26039333" lon="-4.340365">
        <ele>313.0</ele>
        <time>2018-05-19T09:07:36.883Z</time>
      </trkpt>
      <trkpt lat="43.26039333" lon="-4.340365">
        <ele>313.0</ele>
        <time>2018-05-19T09:07:37.845Z</time>
      </trkpt>
      <trkpt lat="43.26041" lon="-4.3403">
        <ele>313.0</ele>
        <time>2018-05-19T09:07:38.846Z</time>
      </trkpt>
      <trkpt lat="43.26041" lon="-4.3403">
        <ele>313.0</ele>
        <time>2018-05-19T09:07:39.882Z</time>
      </trkpt>
      <trkpt lat="43.26042333" lon="-4.340235">
        <ele>314.0</ele>
        <time>2018-05-19T09:07:40.880Z</time>
      </trkpt>
      <trkpt lat="43.26042333" lon="-4.340235">
        <ele>314.0</ele>
        <time>2018-05-19T09:07:41.882Z</time>
      </trkpt>
      <trkpt lat="43.26044" lon="-4.34017333">
        <ele>314.0</ele>
        <time>2018-05-19T09:07:42.882Z</time>
      </trkpt>
      <trkpt lat="43.26044" lon="-4.34017333">
        <ele>314.0</ele>
        <time>2018-05-19T09:07:43.875Z</time>
      </trkpt>
      <trkpt lat="43.26046" lon="-4.34012333">
        <ele>315.0</ele>
        <time>2018-05-19T09:07:44.858Z</time>
      </trkpt>
      <trkpt lat="43.26046" lon="-4.34012333">
        <ele>315.0</ele>
        <time>2018-05-19T09:07:45.860Z</time>
      </trkpt>
      <trkpt lat="43.26048" lon="-4.34007333">
        <ele>315.0</ele>
        <time>2018-05-19T09:07:46.855Z</time>
      </trkpt>
      <trkpt lat="43.26049167" lon="-4.34005">
        <ele>316.0</ele>
        <time>2018-05-19T09:07:47.861Z</time>
      </trkpt>
      <trkpt lat="43.26049167" lon="-4.34005">
        <ele>316.0</ele>
        <time>2018-05-19T09:07:48.869Z</time>
      </trkpt>
      <trkpt lat="43.26050667" lon="-4.34000667">
        <ele>316.0</ele>
        <time>2018-05-19T09:07:49.846Z</time>
      </trkpt>
      <trkpt lat="43.26050667" lon="-4.34000667">
        <ele>316.0</ele>
        <time>2018-05-19T09:07:50.882Z</time>
      </trkpt>
      <trkpt lat="43.26052" lon="-4.33996667">
        <ele>317.0</ele>
        <time>2018-05-19T09:07:51.845Z</time>
      </trkpt>
      <trkpt lat="43.26052833" lon="-4.33994667">
        <ele>317.0</ele>
        <time>2018-05-19T09:07:52.845Z</time>
      </trkpt>
      <trkpt lat="43.26052833" lon="-4.33994667">
        <ele>317.0</ele>
        <time>2018-05-19T09:07:53.883Z</time>
      </trkpt>
      <trkpt lat="43.260545" lon="-4.339905">
        <ele>317.0</ele>
        <time>2018-05-19T09:07:54.845Z</time>
      </trkpt>
      <trkpt lat="43.260545" lon="-4.339905">
        <ele>317.0</ele>
        <time>2018-05-19T09:07:55.882Z</time>
      </trkpt>
      <trkpt lat="43.260555" lon="-4.33985833">
        <ele>318.0</ele>
        <time>2018-05-19T09:07:56.845Z</time>
      </trkpt>
      <trkpt lat="43.260555" lon="-4.33985833">
        <ele>318.0</ele>
        <time>2018-05-19T09:07:57.882Z</time>
      </trkpt>
      <trkpt lat="43.26056333" lon="-4.33981833">
        <ele>318.0</ele>
        <time>2018-05-19T09:07:58.846Z</time>
      </trkpt>
      <trkpt lat="43.26056333" lon="-4.33981833">
        <ele>318.0</ele>
        <time>2018-05-19T09:07:59.883Z</time>
      </trkpt>
      <trkpt lat="43.26057" lon="-4.33977667">
        <ele>319.0</ele>
        <time>2018-05-19T09:08:00.883Z</time>
      </trkpt>
      <trkpt lat="43.26057" lon="-4.33977667">
        <ele>319.0</ele>
        <time>2018-05-19T09:08:01.883Z</time>
      </trkpt>
      <trkpt lat="43.260585" lon="-4.33974">
        <ele>320.0</ele>
        <time>2018-05-19T09:08:02.846Z</time>
      </trkpt>
      <trkpt lat="43.260585" lon="-4.33974">
        <ele>320.0</ele>
        <time>2018-05-19T09:08:03.875Z</time>
      </trkpt>
      <trkpt lat="43.260605" lon="-4.33970667">
        <ele>321.0</ele>
        <time>2018-05-19T09:08:04.860Z</time>
      </trkpt>
      <trkpt lat="43.260605" lon="-4.33970667">
        <ele>321.0</ele>
        <time>2018-05-19T09:08:05.844Z</time>
      </trkpt>
      <trkpt lat="43.26062667" lon="-4.33966667">
        <ele>322.0</ele>
        <time>2018-05-19T09:08:06.882Z</time>
      </trkpt>
      <trkpt lat="43.26062667" lon="-4.33966667">
        <ele>322.0</ele>
        <time>2018-05-19T09:08:07.882Z</time>
      </trkpt>
      <trkpt lat="43.26064833" lon="-4.33962333">
        <ele>322.0</ele>
        <time>2018-05-19T09:08:08.883Z</time>
      </trkpt>
      <trkpt lat="43.26064833" lon="-4.33962333">
        <ele>322.0</ele>
        <time>2018-05-19T09:08:09.879Z</time>
      </trkpt>
      <trkpt lat="43.26067333" lon="-4.339585">
        <ele>323.0</ele>
        <time>2018-05-19T09:08:10.862Z</time>
      </trkpt>
      <trkpt lat="43.26067333" lon="-4.339585">
        <ele>323.0</ele>
        <time>2018-05-19T09:08:11.844Z</time>
      </trkpt>
      <trkpt lat="43.260695" lon="-4.33954667">
        <ele>324.0</ele>
        <time>2018-05-19T09:08:12.844Z</time>
      </trkpt>
      <trkpt lat="43.260695" lon="-4.33954667">
        <ele>324.0</ele>
        <time>2018-05-19T09:08:13.876Z</time>
      </trkpt>
      <trkpt lat="43.26072" lon="-4.33951167">
        <ele>324.0</ele>
        <time>2018-05-19T09:08:14.860Z</time>
      </trkpt>
      <trkpt lat="43.26073" lon="-4.33949167">
        <ele>325.0</ele>
        <time>2018-05-19T09:08:15.856Z</time>
      </trkpt>
      <trkpt lat="43.26073" lon="-4.33949167">
        <ele>325.0</ele>
        <time>2018-05-19T09:08:16.844Z</time>
      </trkpt>
      <trkpt lat="43.26074167" lon="-4.339455">
        <ele>325.0</ele>
        <time>2018-05-19T09:08:17.884Z</time>
      </trkpt>
      <trkpt lat="43.26074167" lon="-4.339455">
        <ele>325.0</ele>
        <time>2018-05-19T09:08:18.877Z</time>
      </trkpt>
      <trkpt lat="43.26075333" lon="-4.33941667">
        <ele>326.0</ele>
        <time>2018-05-19T09:08:19.845Z</time>
      </trkpt>
      <trkpt lat="43.26075333" lon="-4.33941667">
        <ele>326.0</ele>
        <time>2018-05-19T09:08:20.877Z</time>
      </trkpt>
      <trkpt lat="43.260755" lon="-4.33937833">
        <ele>326.0</ele>
        <time>2018-05-19T09:08:21.864Z</time>
      </trkpt>
      <trkpt lat="43.260755" lon="-4.33935667">
        <ele>327.0</ele>
        <time>2018-05-19T09:08:22.847Z</time>
      </trkpt>
      <trkpt lat="43.260755" lon="-4.33935667">
        <ele>327.0</ele>
        <time>2018-05-19T09:08:23.882Z</time>
      </trkpt>
      <trkpt lat="43.26075833" lon="-4.33931167">
        <ele>327.0</ele>
        <time>2018-05-19T09:08:24.846Z</time>
      </trkpt>
      <trkpt lat="43.26075833" lon="-4.33931167">
        <ele>327.0</ele>
        <time>2018-05-19T09:08:25.879Z</time>
      </trkpt>
      <trkpt lat="43.26076167" lon="-4.33927">
        <ele>328.0</ele>
        <time>2018-05-19T09:08:26.845Z</time>
      </trkpt>
      <trkpt lat="43.26076167" lon="-4.33927">
        <ele>328.0</ele>
        <time>2018-05-19T09:08:27.883Z</time>
      </trkpt>
      <trkpt lat="43.26076833" lon="-4.339235">
        <ele>329.0</ele>
        <time>2018-05-19T09:08:28.846Z</time>
      </trkpt>
      <trkpt lat="43.26076833" lon="-4.339235">
        <ele>329.0</ele>
        <time>2018-05-19T09:08:29.882Z</time>
      </trkpt>
      <trkpt lat="43.26078667" lon="-4.3392">
        <ele>330.0</ele>
        <time>2018-05-19T09:08:30.845Z</time>
      </trkpt>
      <trkpt lat="43.26078667" lon="-4.3392">
        <ele>330.0</ele>
        <time>2018-05-19T09:08:31.881Z</time>
      </trkpt>
      <trkpt lat="43.26080333" lon="-4.33916">
        <ele>330.0</ele>
        <time>2018-05-19T09:08:32.844Z</time>
      </trkpt>
      <trkpt lat="43.26080333" lon="-4.33916">
        <ele>330.0</ele>
        <time>2018-05-19T09:08:33.875Z</time>
      </trkpt>
      <trkpt lat="43.26082" lon="-4.33912">
        <ele>331.0</ele>
        <time>2018-05-19T09:08:34.860Z</time>
      </trkpt>
      <trkpt lat="43.26083167" lon="-4.33910167">
        <ele>331.0</ele>
        <time>2018-05-19T09:08:35.846Z</time>
      </trkpt>
      <trkpt lat="43.26084167" lon="-4.33908167">
        <ele>332.0</ele>
        <time>2018-05-19T09:08:36.845Z</time>
      </trkpt>
      <trkpt lat="43.26084167" lon="-4.33908167">
        <ele>332.0</ele>
        <time>2018-05-19T09:08:37.881Z</time>
      </trkpt>
      <trkpt lat="43.26086" lon="-4.33904">
        <ele>332.0</ele>
        <time>2018-05-19T09:08:38.883Z</time>
      </trkpt>
      <trkpt lat="43.26086" lon="-4.33904">
        <ele>332.0</ele>
        <time>2018-05-19T09:08:39.879Z</time>
      </trkpt>
      <trkpt lat="43.26087833" lon="-4.33900167">
        <ele>333.0</ele>
        <time>2018-05-19T09:08:40.868Z</time>
      </trkpt>
      <trkpt lat="43.26087833" lon="-4.33900167">
        <ele>333.0</ele>
        <time>2018-05-19T09:08:41.850Z</time>
      </trkpt>
      <trkpt lat="43.260905" lon="-4.33896333">
        <ele>334.0</ele>
        <time>2018-05-19T09:08:42.845Z</time>
      </trkpt>
      <trkpt lat="43.260905" lon="-4.33896333">
        <ele>334.0</ele>
        <time>2018-05-19T09:08:43.882Z</time>
      </trkpt>
      <trkpt lat="43.26093333" lon="-4.33893333">
        <ele>334.0</ele>
        <time>2018-05-19T09:08:44.871Z</time>
      </trkpt>
      <trkpt lat="43.26093333" lon="-4.33893333">
        <ele>334.0</ele>
        <time>2018-05-19T09:08:45.850Z</time>
      </trkpt>
      <trkpt lat="43.26096333" lon="-4.33890833">
        <ele>335.0</ele>
        <time>2018-05-19T09:08:46.850Z</time>
      </trkpt>
      <trkpt lat="43.26098333" lon="-4.33889833">
        <ele>335.0</ele>
        <time>2018-05-19T09:08:47.857Z</time>
      </trkpt>
      <trkpt lat="43.26098333" lon="-4.33889833">
        <ele>335.0</ele>
        <time>2018-05-19T09:08:48.863Z</time>
      </trkpt>
      <trkpt lat="43.26102167" lon="-4.33887833">
        <ele>336.0</ele>
        <time>2018-05-19T09:08:49.866Z</time>
      </trkpt>
      <trkpt lat="43.26102167" lon="-4.33887833">
        <ele>336.0</ele>
        <time>2018-05-19T09:08:50.851Z</time>
      </trkpt>
      <trkpt lat="43.26105667" lon="-4.33886833">
        <ele>336.0</ele>
        <time>2018-05-19T09:08:51.844Z</time>
      </trkpt>
      <trkpt lat="43.261075" lon="-4.33886167">
        <ele>336.0</ele>
        <time>2018-05-19T09:08:52.846Z</time>
      </trkpt>
      <trkpt lat="43.261075" lon="-4.33886167">
        <ele>336.0</ele>
        <time>2018-05-19T09:08:53.881Z</time>
      </trkpt>
      <trkpt lat="43.26110833" lon="-4.33885">
        <ele>337.0</ele>
        <time>2018-05-19T09:08:54.851Z</time>
      </trkpt>
      <trkpt lat="43.26110833" lon="-4.33885">
        <ele>337.0</ele>
        <time>2018-05-19T09:08:55.879Z</time>
      </trkpt>
      <trkpt lat="43.26114167" lon="-4.338845">
        <ele>338.0</ele>
        <time>2018-05-19T09:08:56.844Z</time>
      </trkpt>
      <trkpt lat="43.26114167" lon="-4.338845">
        <ele>338.0</ele>
        <time>2018-05-19T09:08:57.882Z</time>
      </trkpt>
      <trkpt lat="43.26117167" lon="-4.33885167">
        <ele>339.0</ele>
        <time>2018-05-19T09:08:58.883Z</time>
      </trkpt>
      <trkpt lat="43.26117167" lon="-4.33885167">
        <ele>339.0</ele>
        <time>2018-05-19T09:08:59.879Z</time>
      </trkpt>
      <trkpt lat="43.26120167" lon="-4.33886333">
        <ele>340.0</ele>
        <time>2018-05-19T09:09:00.844Z</time>
      </trkpt>
      <trkpt lat="43.26120167" lon="-4.33886333">
        <ele>340.0</ele>
        <time>2018-05-19T09:09:01.881Z</time>
      </trkpt>
      <trkpt lat="43.26123333" lon="-4.33886333">
        <ele>341.0</ele>
        <time>2018-05-19T09:09:02.844Z</time>
      </trkpt>
      <trkpt lat="43.26123333" lon="-4.33886333">
        <ele>341.0</ele>
        <time>2018-05-19T09:09:03.875Z</time>
      </trkpt>
      <trkpt lat="43.26126" lon="-4.33887167">
        <ele>342.0</ele>
        <time>2018-05-19T09:09:04.859Z</time>
      </trkpt>
      <trkpt lat="43.26126" lon="-4.33887167">
        <ele>342.0</ele>
        <time>2018-05-19T09:09:05.883Z</time>
      </trkpt>
      <trkpt lat="43.26129167" lon="-4.33888667">
        <ele>343.0</ele>
        <time>2018-05-19T09:09:06.882Z</time>
      </trkpt>
      <trkpt lat="43.26129167" lon="-4.33888667">
        <ele>343.0</ele>
        <time>2018-05-19T09:09:07.879Z</time>
      </trkpt>
      <trkpt lat="43.261325" lon="-4.3389">
        <ele>343.0</ele>
        <time>2018-05-19T09:09:08.844Z</time>
      </trkpt>
      <trkpt lat="43.261325" lon="-4.3389">
        <ele>343.0</ele>
        <time>2018-05-19T09:09:09.882Z</time>
      </trkpt>
      <trkpt lat="43.26135833" lon="-4.33891667">
        <ele>344.0</ele>
        <time>2018-05-19T09:09:10.845Z</time>
      </trkpt>
      <trkpt lat="43.26135833" lon="-4.33891667">
        <ele>344.0</ele>
        <time>2018-05-19T09:09:11.882Z</time>
      </trkpt>
      <trkpt lat="43.261385" lon="-4.338925">
        <ele>345.0</ele>
        <time>2018-05-19T09:09:12.845Z</time>
      </trkpt>
      <trkpt lat="43.261385" lon="-4.338925">
        <ele>345.0</ele>
        <time>2018-05-19T09:09:13.877Z</time>
      </trkpt>
      <trkpt lat="43.26141" lon="-4.33892333">
        <ele>346.0</ele>
        <time>2018-05-19T09:09:14.859Z</time>
      </trkpt>
      <trkpt lat="43.26141" lon="-4.33892333">
        <ele>346.0</ele>
        <time>2018-05-19T09:09:15.874Z</time>
      </trkpt>
      <trkpt lat="43.26143833" lon="-4.338925">
        <ele>347.0</ele>
        <time>2018-05-19T09:09:16.860Z</time>
      </trkpt>
      <trkpt lat="43.26143833" lon="-4.338925">
        <ele>347.0</ele>
        <time>2018-05-19T09:09:17.845Z</time>
      </trkpt>
      <trkpt lat="43.261465" lon="-4.33892667">
        <ele>348.0</ele>
        <time>2018-05-19T09:09:18.845Z</time>
      </trkpt>
      <trkpt lat="43.261465" lon="-4.33892667">
        <ele>348.0</ele>
        <time>2018-05-19T09:09:19.881Z</time>
      </trkpt>
      <trkpt lat="43.26149667" lon="-4.33893">
        <ele>349.0</ele>
        <time>2018-05-19T09:09:20.844Z</time>
      </trkpt>
      <trkpt lat="43.26151" lon="-4.33893">
        <ele>350.0</ele>
        <time>2018-05-19T09:09:21.845Z</time>
      </trkpt>
      <trkpt lat="43.26152167" lon="-4.338935">
        <ele>351.0</ele>
        <time>2018-05-19T09:09:22.846Z</time>
      </trkpt>
      <trkpt lat="43.26152167" lon="-4.338935">
        <ele>351.0</ele>
        <time>2018-05-19T09:09:23.881Z</time>
      </trkpt>
      <trkpt lat="43.26155" lon="-4.33895">
        <ele>352.0</ele>
        <time>2018-05-19T09:09:24.844Z</time>
      </trkpt>
      <trkpt lat="43.26155" lon="-4.33895">
        <ele>352.0</ele>
        <time>2018-05-19T09:09:25.881Z</time>
      </trkpt>
      <trkpt lat="43.26157333" lon="-4.33895667">
        <ele>353.0</ele>
        <time>2018-05-19T09:09:26.845Z</time>
      </trkpt>
      <trkpt lat="43.26157333" lon="-4.33895667">
        <ele>353.0</ele>
        <time>2018-05-19T09:09:27.882Z</time>
      </trkpt>
      <trkpt lat="43.26159167" lon="-4.33897">
        <ele>355.0</ele>
        <time>2018-05-19T09:09:28.845Z</time>
      </trkpt>
      <trkpt lat="43.26159167" lon="-4.33897">
        <ele>355.0</ele>
        <time>2018-05-19T09:09:29.882Z</time>
      </trkpt>
      <trkpt lat="43.26161833" lon="-4.338975">
        <ele>357.0</ele>
        <time>2018-05-19T09:09:30.866Z</time>
      </trkpt>
      <trkpt lat="43.26161833" lon="-4.338975">
        <ele>357.0</ele>
        <time>2018-05-19T09:09:31.866Z</time>
      </trkpt>
      <trkpt lat="43.26165" lon="-4.33896833">
        <ele>359.0</ele>
        <time>2018-05-19T09:09:32.851Z</time>
      </trkpt>
      <trkpt lat="43.26165" lon="-4.33896833">
        <ele>359.0</ele>
        <time>2018-05-19T09:09:33.876Z</time>
      </trkpt>
      <trkpt lat="43.261675" lon="-4.33895">
        <ele>361.0</ele>
        <time>2018-05-19T09:09:34.861Z</time>
      </trkpt>
      <trkpt lat="43.26168833" lon="-4.33894667">
        <ele>361.0</ele>
        <time>2018-05-19T09:09:35.849Z</time>
      </trkpt>
      <trkpt lat="43.26169833" lon="-4.33894167">
        <ele>362.0</ele>
        <time>2018-05-19T09:09:36.844Z</time>
      </trkpt>
      <trkpt lat="43.26169833" lon="-4.33894167">
        <ele>362.0</ele>
        <time>2018-05-19T09:09:37.881Z</time>
      </trkpt>
      <trkpt lat="43.26172167" lon="-4.33893167">
        <ele>364.0</ele>
        <time>2018-05-19T09:09:38.883Z</time>
      </trkpt>
      <trkpt lat="43.26172167" lon="-4.33893167">
        <ele>364.0</ele>
        <time>2018-05-19T09:09:39.879Z</time>
      </trkpt>
      <trkpt lat="43.26174" lon="-4.33890333">
        <ele>365.0</ele>
        <time>2018-05-19T09:09:40.845Z</time>
      </trkpt>
      <trkpt lat="43.26174" lon="-4.33890333">
        <ele>365.0</ele>
        <time>2018-05-19T09:09:41.880Z</time>
      </trkpt>
      <trkpt lat="43.26175667" lon="-4.33887333">
        <ele>366.0</ele>
        <time>2018-05-19T09:09:42.844Z</time>
      </trkpt>
      <trkpt lat="43.26175667" lon="-4.33887333">
        <ele>366.0</ele>
        <time>2018-05-19T09:09:43.881Z</time>
      </trkpt>
      <trkpt lat="43.261765" lon="-4.338835">
        <ele>367.0</ele>
        <time>2018-05-19T09:09:44.844Z</time>
      </trkpt>
      <trkpt lat="43.26176167" lon="-4.33881">
        <ele>368.0</ele>
        <time>2018-05-19T09:09:45.850Z</time>
      </trkpt>
      <trkpt lat="43.26176167" lon="-4.33881">
        <ele>368.0</ele>
        <time>2018-05-19T09:09:46.878Z</time>
      </trkpt>
      <trkpt lat="43.261755" lon="-4.338765">
        <ele>369.0</ele>
        <time>2018-05-19T09:09:47.844Z</time>
      </trkpt>
      <trkpt lat="43.261755" lon="-4.338765">
        <ele>369.0</ele>
        <time>2018-05-19T09:09:48.850Z</time>
      </trkpt>
      <trkpt lat="43.26175" lon="-4.33873">
        <ele>370.0</ele>
        <time>2018-05-19T09:09:49.858Z</time>
      </trkpt>
      <trkpt lat="43.26175" lon="-4.33873">
        <ele>370.0</ele>
        <time>2018-05-19T09:09:50.883Z</time>
      </trkpt>
      <trkpt lat="43.26175667" lon="-4.33870333">
        <ele>371.0</ele>
        <time>2018-05-19T09:09:51.844Z</time>
      </trkpt>
      <trkpt lat="43.26175667" lon="-4.33869">
        <ele>371.0</ele>
        <time>2018-05-19T09:09:52.845Z</time>
      </trkpt>
      <trkpt lat="43.26175667" lon="-4.33869">
        <ele>371.0</ele>
        <time>2018-05-19T09:09:53.876Z</time>
      </trkpt>
      <trkpt lat="43.26176167" lon="-4.33867667">
        <ele>372.0</ele>
        <time>2018-05-19T09:09:54.844Z</time>
      </trkpt>
      <trkpt lat="43.26176167" lon="-4.33867667">
        <ele>372.0</ele>
        <time>2018-05-19T09:09:55.881Z</time>
      </trkpt>
      <trkpt lat="43.26175333" lon="-4.33865167">
        <ele>372.0</ele>
        <time>2018-05-19T09:09:56.883Z</time>
      </trkpt>
      <trkpt lat="43.26175167" lon="-4.33863833">
        <ele>372.0</ele>
        <time>2018-05-19T09:09:57.846Z</time>
      </trkpt>
      <trkpt lat="43.26174333" lon="-4.338625">
        <ele>372.0</ele>
        <time>2018-05-19T09:09:58.845Z</time>
      </trkpt>
      <trkpt lat="43.26174333" lon="-4.338625">
        <ele>372.0</ele>
        <time>2018-05-19T09:09:59.844Z</time>
      </trkpt>
      <trkpt lat="43.26173167" lon="-4.338605">
        <ele>372.0</ele>
        <time>2018-05-19T09:10:00.845Z</time>
      </trkpt>
      <trkpt lat="43.26173167" lon="-4.338605">
        <ele>372.0</ele>
        <time>2018-05-19T09:10:01.882Z</time>
      </trkpt>
      <trkpt lat="43.26172" lon="-4.33857333">
        <ele>372.0</ele>
        <time>2018-05-19T09:10:02.882Z</time>
      </trkpt>
      <trkpt lat="43.26172" lon="-4.33857333">
        <ele>372.0</ele>
        <time>2018-05-19T09:10:03.875Z</time>
      </trkpt>
      <trkpt lat="43.261715" lon="-4.338545">
        <ele>372.0</ele>
        <time>2018-05-19T09:10:04.857Z</time>
      </trkpt>
      <trkpt lat="43.261715" lon="-4.338545">
        <ele>372.0</ele>
        <time>2018-05-19T09:10:05.844Z</time>
      </trkpt>
      <trkpt lat="43.261695" lon="-4.33852333">
        <ele>372.0</ele>
        <time>2018-05-19T09:10:06.844Z</time>
      </trkpt>
      <trkpt lat="43.261695" lon="-4.33852333">
        <ele>372.0</ele>
        <time>2018-05-19T09:10:07.882Z</time>
      </trkpt>
      <trkpt lat="43.26168333" lon="-4.338495">
        <ele>373.0</ele>
        <time>2018-05-19T09:10:08.844Z</time>
      </trkpt>
      <trkpt lat="43.26168333" lon="-4.338495">
        <ele>373.0</ele>
        <time>2018-05-19T09:10:09.881Z</time>
      </trkpt>
      <trkpt lat="43.26165667" lon="-4.33846167">
        <ele>373.0</ele>
        <time>2018-05-19T09:10:10.882Z</time>
      </trkpt>
      <trkpt lat="43.26165667" lon="-4.33846167">
        <ele>373.0</ele>
        <time>2018-05-19T09:10:11.879Z</time>
      </trkpt>
      <trkpt lat="43.26162667" lon="-4.33843333">
        <ele>373.0</ele>
        <time>2018-05-19T09:10:12.877Z</time>
      </trkpt>
      <trkpt lat="43.261615" lon="-4.33842">
        <ele>372.0</ele>
        <time>2018-05-19T09:10:13.844Z</time>
      </trkpt>
      <trkpt lat="43.261615" lon="-4.33842">
        <ele>372.0</ele>
        <time>2018-05-19T09:10:14.882Z</time>
      </trkpt>
      <trkpt lat="43.261595" lon="-4.33839833">
        <ele>372.0</ele>
        <time>2018-05-19T09:10:15.856Z</time>
      </trkpt>
      <trkpt lat="43.261585" lon="-4.33839167">
        <ele>372.0</ele>
        <time>2018-05-19T09:10:16.845Z</time>
      </trkpt>
      <trkpt lat="43.261585" lon="-4.33839167">
        <ele>372.0</ele>
        <time>2018-05-19T09:10:17.882Z</time>
      </trkpt>
      <trkpt lat="43.26156" lon="-4.338365">
        <ele>373.0</ele>
        <time>2018-05-19T09:10:18.844Z</time>
      </trkpt>
      <trkpt lat="43.26156" lon="-4.338365">
        <ele>373.0</ele>
        <time>2018-05-19T09:10:19.882Z</time>
      </trkpt>
      <trkpt lat="43.26154167" lon="-4.33834">
        <ele>373.0</ele>
        <time>2018-05-19T09:10:20.844Z</time>
      </trkpt>
      <trkpt lat="43.26154167" lon="-4.33834">
        <ele>373.0</ele>
        <time>2018-05-19T09:10:21.881Z</time>
      </trkpt>
      <trkpt lat="43.26152" lon="-4.33830667">
        <ele>372.0</ele>
        <time>2018-05-19T09:10:22.849Z</time>
      </trkpt>
      <trkpt lat="43.26152" lon="-4.33830667">
        <ele>372.0</ele>
        <time>2018-05-19T09:10:23.880Z</time>
      </trkpt>
      <trkpt lat="43.26149667" lon="-4.338275">
        <ele>372.0</ele>
        <time>2018-05-19T09:10:24.845Z</time>
      </trkpt>
      <trkpt lat="43.26149667" lon="-4.338275">
        <ele>372.0</ele>
        <time>2018-05-19T09:10:25.883Z</time>
      </trkpt>
      <trkpt lat="43.26147667" lon="-4.33825333">
        <ele>372.0</ele>
        <time>2018-05-19T09:10:26.883Z</time>
      </trkpt>
      <trkpt lat="43.26146333" lon="-4.33824">
        <ele>372.0</ele>
        <time>2018-05-19T09:10:27.844Z</time>
      </trkpt>
      <trkpt lat="43.26145333" lon="-4.338225">
        <ele>372.0</ele>
        <time>2018-05-19T09:10:28.882Z</time>
      </trkpt>
      <trkpt lat="43.26145333" lon="-4.338225">
        <ele>372.0</ele>
        <time>2018-05-19T09:10:29.879Z</time>
      </trkpt>
      <trkpt lat="43.26143667" lon="-4.338185">
        <ele>372.0</ele>
        <time>2018-05-19T09:10:30.844Z</time>
      </trkpt>
      <trkpt lat="43.26143667" lon="-4.338185">
        <ele>372.0</ele>
        <time>2018-05-19T09:10:31.881Z</time>
      </trkpt>
      <trkpt lat="43.26141833" lon="-4.338165">
        <ele>372.0</ele>
        <time>2018-05-19T09:10:32.847Z</time>
      </trkpt>
      <trkpt lat="43.26141833" lon="-4.338165">
        <ele>372.0</ele>
        <time>2018-05-19T09:10:33.876Z</time>
      </trkpt>
      <trkpt lat="43.26140333" lon="-4.33814">
        <ele>373.0</ele>
        <time>2018-05-19T09:10:34.861Z</time>
      </trkpt>
      <trkpt lat="43.26140333" lon="-4.33814">
        <ele>373.0</ele>
        <time>2018-05-19T09:10:35.855Z</time>
      </trkpt>
      <trkpt lat="43.26138833" lon="-4.33811333">
        <ele>373.0</ele>
        <time>2018-05-19T09:10:36.844Z</time>
      </trkpt>
      <trkpt lat="43.26138833" lon="-4.33811333">
        <ele>373.0</ele>
        <time>2018-05-19T09:10:37.882Z</time>
      </trkpt>
      <trkpt lat="43.26137333" lon="-4.33809">
        <ele>373.0</ele>
        <time>2018-05-19T09:10:38.883Z</time>
      </trkpt>
      <trkpt lat="43.26137333" lon="-4.33809">
        <ele>373.0</ele>
        <time>2018-05-19T09:10:39.881Z</time>
      </trkpt>
      <trkpt lat="43.26136" lon="-4.33806667">
        <ele>373.0</ele>
        <time>2018-05-19T09:10:40.844Z</time>
      </trkpt>
      <trkpt lat="43.26136" lon="-4.33806667">
        <ele>373.0</ele>
        <time>2018-05-19T09:10:41.881Z</time>
      </trkpt>
      <trkpt lat="43.26134" lon="-4.33803833">
        <ele>373.0</ele>
        <time>2018-05-19T09:10:42.845Z</time>
      </trkpt>
      <trkpt lat="43.26134" lon="-4.33803833">
        <ele>373.0</ele>
        <time>2018-05-19T09:10:43.876Z</time>
      </trkpt>
      <trkpt lat="43.26132167" lon="-4.33801333">
        <ele>373.0</ele>
        <time>2018-05-19T09:10:44.860Z</time>
      </trkpt>
      <trkpt lat="43.26132167" lon="-4.33801333">
        <ele>373.0</ele>
        <time>2018-05-19T09:10:45.850Z</time>
      </trkpt>
      <trkpt lat="43.261315" lon="-4.33798167">
        <ele>373.0</ele>
        <time>2018-05-19T09:10:46.868Z</time>
      </trkpt>
      <trkpt lat="43.261315" lon="-4.33798167">
        <ele>373.0</ele>
        <time>2018-05-19T09:10:47.874Z</time>
      </trkpt>
      <trkpt lat="43.26130167" lon="-4.33795333">
        <ele>373.0</ele>
        <time>2018-05-19T09:10:48.880Z</time>
      </trkpt>
      <trkpt lat="43.26129333" lon="-4.33794">
        <ele>373.0</ele>
        <time>2018-05-19T09:10:49.844Z</time>
      </trkpt>
      <trkpt lat="43.26129333" lon="-4.33794">
        <ele>373.0</ele>
        <time>2018-05-19T09:10:50.872Z</time>
      </trkpt>
      <trkpt lat="43.26129" lon="-4.33790333">
        <ele>372.0</ele>
        <time>2018-05-19T09:10:51.857Z</time>
      </trkpt>
      <trkpt lat="43.261295" lon="-4.33787667">
        <ele>372.0</ele>
        <time>2018-05-19T09:10:52.847Z</time>
      </trkpt>
      <trkpt lat="43.261295" lon="-4.33787667">
        <ele>372.0</ele>
        <time>2018-05-19T09:10:53.877Z</time>
      </trkpt>
      <trkpt lat="43.26130833" lon="-4.33781167">
        <ele>372.0</ele>
        <time>2018-05-19T09:10:54.884Z</time>
      </trkpt>
      <trkpt lat="43.26130833" lon="-4.33781167">
        <ele>372.0</ele>
        <time>2018-05-19T09:10:55.881Z</time>
      </trkpt>
      <trkpt lat="43.26131167" lon="-4.33777333">
        <ele>372.0</ele>
        <time>2018-05-19T09:10:56.844Z</time>
      </trkpt>
      <trkpt lat="43.26131167" lon="-4.33777333">
        <ele>372.0</ele>
        <time>2018-05-19T09:10:57.881Z</time>
      </trkpt>
      <trkpt lat="43.261315" lon="-4.33772833">
        <ele>372.0</ele>
        <time>2018-05-19T09:10:58.845Z</time>
      </trkpt>
      <trkpt lat="43.261315" lon="-4.33772833">
        <ele>372.0</ele>
        <time>2018-05-19T09:10:59.880Z</time>
      </trkpt>
      <trkpt lat="43.26132667" lon="-4.33768">
        <ele>373.0</ele>
        <time>2018-05-19T09:11:00.844Z</time>
      </trkpt>
      <trkpt lat="43.26132667" lon="-4.33768">
        <ele>373.0</ele>
        <time>2018-05-19T09:11:01.882Z</time>
      </trkpt>
      <trkpt lat="43.26135" lon="-4.33764">
        <ele>372.0</ele>
        <time>2018-05-19T09:11:02.853Z</time>
      </trkpt>
      <trkpt lat="43.26135" lon="-4.33764">
        <ele>372.0</ele>
        <time>2018-05-19T09:11:03.883Z</time>
      </trkpt>
      <trkpt lat="43.26138" lon="-4.33759">
        <ele>372.0</ele>
        <time>2018-05-19T09:11:04.846Z</time>
      </trkpt>
      <trkpt lat="43.26138" lon="-4.33759">
        <ele>372.0</ele>
        <time>2018-05-19T09:11:05.882Z</time>
      </trkpt>
      <trkpt lat="43.2614" lon="-4.33753167">
        <ele>372.0</ele>
        <time>2018-05-19T09:11:06.851Z</time>
      </trkpt>
      <trkpt lat="43.2614" lon="-4.33753167">
        <ele>372.0</ele>
        <time>2018-05-19T09:11:07.878Z</time>
      </trkpt>
      <trkpt lat="43.261405" lon="-4.337455">
        <ele>372.0</ele>
        <time>2018-05-19T09:11:08.883Z</time>
      </trkpt>
      <trkpt lat="43.26140333" lon="-4.33742">
        <ele>372.0</ele>
        <time>2018-05-19T09:11:09.844Z</time>
      </trkpt>
      <trkpt lat="43.26140333" lon="-4.33742">
        <ele>372.0</ele>
        <time>2018-05-19T09:11:10.882Z</time>
      </trkpt>
      <trkpt lat="43.26139833" lon="-4.33735">
        <ele>372.0</ele>
        <time>2018-05-19T09:11:11.884Z</time>
      </trkpt>
      <trkpt lat="43.261395" lon="-4.337315">
        <ele>373.0</ele>
        <time>2018-05-19T09:11:12.848Z</time>
      </trkpt>
      <trkpt lat="43.261395" lon="-4.337315">
        <ele>373.0</ele>
        <time>2018-05-19T09:11:13.882Z</time>
      </trkpt>
      <trkpt lat="43.26138167" lon="-4.33725333">
        <ele>373.0</ele>
        <time>2018-05-19T09:11:14.883Z</time>
      </trkpt>
      <trkpt lat="43.26137167" lon="-4.33721833">
        <ele>373.0</ele>
        <time>2018-05-19T09:11:15.860Z</time>
      </trkpt>
      <trkpt lat="43.26136833" lon="-4.33718167">
        <ele>373.0</ele>
        <time>2018-05-19T09:11:16.846Z</time>
      </trkpt>
      <trkpt lat="43.26136833" lon="-4.33718167">
        <ele>373.0</ele>
        <time>2018-05-19T09:11:17.882Z</time>
      </trkpt>
      <trkpt lat="43.261365" lon="-4.33710167">
        <ele>373.0</ele>
        <time>2018-05-19T09:11:18.882Z</time>
      </trkpt>
      <trkpt lat="43.261365" lon="-4.33710167">
        <ele>373.0</ele>
        <time>2018-05-19T09:11:19.881Z</time>
      </trkpt>
      <trkpt lat="43.26139333" lon="-4.33699833">
        <ele>372.0</ele>
        <time>2018-05-19T09:11:20.844Z</time>
      </trkpt>
      <trkpt lat="43.26139333" lon="-4.33699833">
        <ele>372.0</ele>
        <time>2018-05-19T09:11:21.882Z</time>
      </trkpt>
      <trkpt lat="43.26142667" lon="-4.33686167">
        <ele>371.0</ele>
        <time>2018-05-19T09:11:22.850Z</time>
      </trkpt>
      <trkpt lat="43.26142667" lon="-4.33686167">
        <ele>371.0</ele>
        <time>2018-05-19T09:11:23.876Z</time>
      </trkpt>
      <trkpt lat="43.26141833" lon="-4.33665333">
        <ele>371.0</ele>
        <time>2018-05-19T09:11:24.845Z</time>
      </trkpt>
      <trkpt lat="43.26141833" lon="-4.33665333">
        <ele>371.0</ele>
        <time>2018-05-19T09:11:25.880Z</time>
      </trkpt>
      <trkpt lat="43.261375" lon="-4.33646167">
        <ele>370.0</ele>
        <time>2018-05-19T09:11:26.844Z</time>
      </trkpt>
      <trkpt lat="43.261375" lon="-4.33646167">
        <ele>370.0</ele>
        <time>2018-05-19T09:11:27.882Z</time>
      </trkpt>
      <trkpt lat="43.261335" lon="-4.33632">
        <ele>371.0</ele>
        <time>2018-05-19T09:11:28.845Z</time>
      </trkpt>
      <trkpt lat="43.261335" lon="-4.33632">
        <ele>371.0</ele>
        <time>2018-05-19T09:11:29.879Z</time>
      </trkpt>
      <trkpt lat="43.26131" lon="-4.33622667">
        <ele>371.0</ele>
        <time>2018-05-19T09:11:30.844Z</time>
      </trkpt>
      <trkpt lat="43.26131" lon="-4.33622667">
        <ele>371.0</ele>
        <time>2018-05-19T09:11:31.882Z</time>
      </trkpt>
      <trkpt lat="43.26129" lon="-4.33617667">
        <ele>371.0</ele>
        <time>2018-05-19T09:11:32.844Z</time>
      </trkpt>
      <trkpt lat="43.26129" lon="-4.33617667">
        <ele>371.0</ele>
        <time>2018-05-19T09:11:33.876Z</time>
      </trkpt>
      <trkpt lat="43.26129333" lon="-4.33612167">
        <ele>371.0</ele>
        <time>2018-05-19T09:11:34.864Z</time>
      </trkpt>
      <trkpt lat="43.26129333" lon="-4.33612167">
        <ele>371.0</ele>
        <time>2018-05-19T09:11:35.847Z</time>
      </trkpt>
      <trkpt lat="43.26129167" lon="-4.33605333">
        <ele>372.0</ele>
        <time>2018-05-19T09:11:36.844Z</time>
      </trkpt>
      <trkpt lat="43.26129167" lon="-4.33605333">
        <ele>372.0</ele>
        <time>2018-05-19T09:11:37.882Z</time>
      </trkpt>
      <trkpt lat="43.261295" lon="-4.335995">
        <ele>373.0</ele>
        <time>2018-05-19T09:11:38.883Z</time>
      </trkpt>
      <trkpt lat="43.261295" lon="-4.335995">
        <ele>373.0</ele>
        <time>2018-05-19T09:11:39.884Z</time>
      </trkpt>
      <trkpt lat="43.26129" lon="-4.335935">
        <ele>374.0</ele>
        <time>2018-05-19T09:11:40.846Z</time>
      </trkpt>
      <trkpt lat="43.26128333" lon="-4.33590167">
        <ele>375.0</ele>
        <time>2018-05-19T09:11:41.844Z</time>
      </trkpt>
      <trkpt lat="43.26127833" lon="-4.33587333">
        <ele>375.0</ele>
        <time>2018-05-19T09:11:42.846Z</time>
      </trkpt>
      <trkpt lat="43.26127833" lon="-4.33587333">
        <ele>375.0</ele>
        <time>2018-05-19T09:11:43.880Z</time>
      </trkpt>
      <trkpt lat="43.26127" lon="-4.33581167">
        <ele>376.0</ele>
        <time>2018-05-19T09:11:44.883Z</time>
      </trkpt>
      <trkpt lat="43.26127" lon="-4.33581167">
        <ele>376.0</ele>
        <time>2018-05-19T09:11:45.855Z</time>
      </trkpt>
      <trkpt lat="43.26126333" lon="-4.33573667">
        <ele>377.0</ele>
        <time>2018-05-19T09:11:46.875Z</time>
      </trkpt>
      <trkpt lat="43.26126333" lon="-4.33573667">
        <ele>377.0</ele>
        <time>2018-05-19T09:11:47.881Z</time>
      </trkpt>
      <trkpt lat="43.261255" lon="-4.33566333">
        <ele>377.0</ele>
        <time>2018-05-19T09:11:48.847Z</time>
      </trkpt>
      <trkpt lat="43.261255" lon="-4.33566333">
        <ele>377.0</ele>
        <time>2018-05-19T09:11:49.853Z</time>
      </trkpt>
      <trkpt lat="43.26125" lon="-4.33558833">
        <ele>378.0</ele>
        <time>2018-05-19T09:11:50.844Z</time>
      </trkpt>
      <trkpt lat="43.26125" lon="-4.33558833">
        <ele>378.0</ele>
        <time>2018-05-19T09:11:51.878Z</time>
      </trkpt>
      <trkpt lat="43.26123667" lon="-4.3355">
        <ele>378.0</ele>
        <time>2018-05-19T09:11:52.846Z</time>
      </trkpt>
      <trkpt lat="43.26123667" lon="-4.3355">
        <ele>378.0</ele>
        <time>2018-05-19T09:11:53.875Z</time>
      </trkpt>
      <trkpt lat="43.261225" lon="-4.33541167">
        <ele>378.0</ele>
        <time>2018-05-19T09:11:54.859Z</time>
      </trkpt>
      <trkpt lat="43.261225" lon="-4.33541167">
        <ele>378.0</ele>
        <time>2018-05-19T09:11:55.845Z</time>
      </trkpt>
      <trkpt lat="43.26122167" lon="-4.335295">
        <ele>378.0</ele>
        <time>2018-05-19T09:11:56.844Z</time>
      </trkpt>
      <trkpt lat="43.26122167" lon="-4.335295">
        <ele>378.0</ele>
        <time>2018-05-19T09:11:57.882Z</time>
      </trkpt>
      <trkpt lat="43.26121167" lon="-4.33519">
        <ele>378.0</ele>
        <time>2018-05-19T09:11:58.845Z</time>
      </trkpt>
      <trkpt lat="43.26121167" lon="-4.33519">
        <ele>378.0</ele>
        <time>2018-05-19T09:11:59.882Z</time>
      </trkpt>
      <trkpt lat="43.26120833" lon="-4.33507833">
        <ele>378.0</ele>
        <time>2018-05-19T09:12:00.845Z</time>
      </trkpt>
      <trkpt lat="43.26120833" lon="-4.33507833">
        <ele>378.0</ele>
        <time>2018-05-19T09:12:01.878Z</time>
      </trkpt>
      <trkpt lat="43.26120833" lon="-4.33498">
        <ele>378.0</ele>
        <time>2018-05-19T09:12:02.883Z</time>
      </trkpt>
      <trkpt lat="43.26121" lon="-4.33492667">
        <ele>378.0</ele>
        <time>2018-05-19T09:12:03.881Z</time>
      </trkpt>
      <trkpt lat="43.26121" lon="-4.33492667">
        <ele>378.0</ele>
        <time>2018-05-19T09:12:04.872Z</time>
      </trkpt>
      <trkpt lat="43.26123167" lon="-4.334825">
        <ele>378.0</ele>
        <time>2018-05-19T09:12:05.858Z</time>
      </trkpt>
      <trkpt lat="43.26124667" lon="-4.334775">
        <ele>378.0</ele>
        <time>2018-05-19T09:12:06.845Z</time>
      </trkpt>
      <trkpt lat="43.26124667" lon="-4.334775">
        <ele>378.0</ele>
        <time>2018-05-19T09:12:07.881Z</time>
      </trkpt>
      <trkpt lat="43.26128333" lon="-4.33467167">
        <ele>378.0</ele>
        <time>2018-05-19T09:12:08.844Z</time>
      </trkpt>
      <trkpt lat="43.26128333" lon="-4.33467167">
        <ele>378.0</ele>
        <time>2018-05-19T09:12:09.878Z</time>
      </trkpt>
      <trkpt lat="43.261335" lon="-4.33456167">
        <ele>377.0</ele>
        <time>2018-05-19T09:12:10.845Z</time>
      </trkpt>
      <trkpt lat="43.261335" lon="-4.33456167">
        <ele>377.0</ele>
        <time>2018-05-19T09:12:11.880Z</time>
      </trkpt>
      <trkpt lat="43.261385" lon="-4.33443667">
        <ele>377.0</ele>
        <time>2018-05-19T09:12:12.844Z</time>
      </trkpt>
      <trkpt lat="43.261385" lon="-4.33443667">
        <ele>377.0</ele>
        <time>2018-05-19T09:12:13.883Z</time>
      </trkpt>
      <trkpt lat="43.26143" lon="-4.33430667">
        <ele>377.0</ele>
        <time>2018-05-19T09:12:14.848Z</time>
      </trkpt>
      <trkpt lat="43.26143" lon="-4.33430667">
        <ele>377.0</ele>
        <time>2018-05-19T09:12:15.853Z</time>
      </trkpt>
      <trkpt lat="43.26148" lon="-4.33418333">
        <ele>376.0</ele>
        <time>2018-05-19T09:12:16.845Z</time>
      </trkpt>
      <trkpt lat="43.26148" lon="-4.33418333">
        <ele>376.0</ele>
        <time>2018-05-19T09:12:17.882Z</time>
      </trkpt>
      <trkpt lat="43.26155" lon="-4.33407">
        <ele>375.0</ele>
        <time>2018-05-19T09:12:18.845Z</time>
      </trkpt>
      <trkpt lat="43.26155" lon="-4.33407">
        <ele>375.0</ele>
        <time>2018-05-19T09:12:19.883Z</time>
      </trkpt>
      <trkpt lat="43.26165" lon="-4.33396167">
        <ele>374.0</ele>
        <time>2018-05-19T09:12:20.883Z</time>
      </trkpt>
      <trkpt lat="43.26170333" lon="-4.3339">
        <ele>373.0</ele>
        <time>2018-05-19T09:12:21.844Z</time>
      </trkpt>
      <trkpt lat="43.26175833" lon="-4.33383">
        <ele>372.0</ele>
        <time>2018-05-19T09:12:22.844Z</time>
      </trkpt>
      <trkpt lat="43.26175833" lon="-4.33383">
        <ele>372.0</ele>
        <time>2018-05-19T09:12:23.882Z</time>
      </trkpt>
      <trkpt lat="43.26187" lon="-4.33368167">
        <ele>370.0</ele>
        <time>2018-05-19T09:12:24.845Z</time>
      </trkpt>
      <trkpt lat="43.26187" lon="-4.33368167">
        <ele>370.0</ele>
        <time>2018-05-19T09:12:25.882Z</time>
      </trkpt>
      <trkpt lat="43.26194" lon="-4.333535">
        <ele>369.0</ele>
        <time>2018-05-19T09:12:26.844Z</time>
      </trkpt>
      <trkpt lat="43.26194" lon="-4.333535">
        <ele>369.0</ele>
        <time>2018-05-19T09:12:27.879Z</time>
      </trkpt>
      <trkpt lat="43.26193833" lon="-4.3334">
        <ele>368.0</ele>
        <time>2018-05-19T09:12:28.844Z</time>
      </trkpt>
      <trkpt lat="43.26193833" lon="-4.3334">
        <ele>368.0</ele>
        <time>2018-05-19T09:12:29.882Z</time>
      </trkpt>
      <trkpt lat="43.261915" lon="-4.333335">
        <ele>368.0</ele>
        <time>2018-05-19T09:12:30.844Z</time>
      </trkpt>
      <trkpt lat="43.261915" lon="-4.333335">
        <ele>368.0</ele>
        <time>2018-05-19T09:12:31.879Z</time>
      </trkpt>
      <trkpt lat="43.26188333" lon="-4.33327167">
        <ele>367.0</ele>
        <time>2018-05-19T09:12:32.883Z</time>
      </trkpt>
      <trkpt lat="43.26188333" lon="-4.33327167">
        <ele>367.0</ele>
        <time>2018-05-19T09:12:33.850Z</time>
      </trkpt>
      <trkpt lat="43.26185833" lon="-4.33320667">
        <ele>367.0</ele>
        <time>2018-05-19T09:12:34.845Z</time>
      </trkpt>
      <trkpt lat="43.26185833" lon="-4.33320667">
        <ele>367.0</ele>
        <time>2018-05-19T09:12:35.882Z</time>
      </trkpt>
      <trkpt lat="43.26184667" lon="-4.33314667">
        <ele>367.0</ele>
        <time>2018-05-19T09:12:36.844Z</time>
      </trkpt>
      <trkpt lat="43.26184667" lon="-4.33314667">
        <ele>367.0</ele>
        <time>2018-05-19T09:12:37.881Z</time>
      </trkpt>
      <trkpt lat="43.26184833" lon="-4.33308667">
        <ele>368.0</ele>
        <time>2018-05-19T09:12:38.844Z</time>
      </trkpt>
      <trkpt lat="43.26184833" lon="-4.33308667">
        <ele>368.0</ele>
        <time>2018-05-19T09:12:39.881Z</time>
      </trkpt>
      <trkpt lat="43.26184667" lon="-4.33302167">
        <ele>368.0</ele>
        <time>2018-05-19T09:12:40.882Z</time>
      </trkpt>
      <trkpt lat="43.26184667" lon="-4.33302167">
        <ele>368.0</ele>
        <time>2018-05-19T09:12:41.881Z</time>
      </trkpt>
      <trkpt lat="43.26184167" lon="-4.332955">
        <ele>369.0</ele>
        <time>2018-05-19T09:12:42.882Z</time>
      </trkpt>
      <trkpt lat="43.26184167" lon="-4.332955">
        <ele>369.0</ele>
        <time>2018-05-19T09:12:43.878Z</time>
      </trkpt>
      <trkpt lat="43.26184167" lon="-4.33288">
        <ele>369.0</ele>
        <time>2018-05-19T09:12:44.883Z</time>
      </trkpt>
      <trkpt lat="43.26184167" lon="-4.33288">
        <ele>369.0</ele>
        <time>2018-05-19T09:12:45.876Z</time>
      </trkpt>
      <trkpt lat="43.261845" lon="-4.33281167">
        <ele>370.0</ele>
        <time>2018-05-19T09:12:46.853Z</time>
      </trkpt>
      <trkpt lat="43.26184833" lon="-4.33277833">
        <ele>370.0</ele>
        <time>2018-05-19T09:12:47.860Z</time>
      </trkpt>
      <trkpt lat="43.26185" lon="-4.33274333">
        <ele>370.0</ele>
        <time>2018-05-19T09:12:48.874Z</time>
      </trkpt>
      <trkpt lat="43.26185" lon="-4.33274333">
        <ele>370.0</ele>
        <time>2018-05-19T09:12:49.865Z</time>
      </trkpt>
      <trkpt lat="43.26186333" lon="-4.33268167">
        <ele>370.0</ele>
        <time>2018-05-19T09:12:50.851Z</time>
      </trkpt>
      <trkpt lat="43.26186333" lon="-4.33268167">
        <ele>370.0</ele>
        <time>2018-05-19T09:12:51.878Z</time>
      </trkpt>
      <trkpt lat="43.26188167" lon="-4.33262167">
        <ele>371.0</ele>
        <time>2018-05-19T09:12:52.845Z</time>
      </trkpt>
      <trkpt lat="43.26188167" lon="-4.33262167">
        <ele>371.0</ele>
        <time>2018-05-19T09:12:53.871Z</time>
      </trkpt>
      <trkpt lat="43.26191167" lon="-4.33257333">
        <ele>371.0</ele>
        <time>2018-05-19T09:12:54.858Z</time>
      </trkpt>
      <trkpt lat="43.261925" lon="-4.33254833">
        <ele>371.0</ele>
        <time>2018-05-19T09:12:55.846Z</time>
      </trkpt>
      <trkpt lat="43.261925" lon="-4.33254833">
        <ele>371.0</ele>
        <time>2018-05-19T09:12:56.880Z</time>
      </trkpt>
      <trkpt lat="43.26195333" lon="-4.33249167">
        <ele>372.0</ele>
        <time>2018-05-19T09:12:57.844Z</time>
      </trkpt>
      <trkpt lat="43.26195333" lon="-4.33249167">
        <ele>372.0</ele>
        <time>2018-05-19T09:12:58.883Z</time>
      </trkpt>
      <trkpt lat="43.261985" lon="-4.332455">
        <ele>373.0</ele>
        <time>2018-05-19T09:12:59.844Z</time>
      </trkpt>
      <trkpt lat="43.26199167" lon="-4.33243167">
        <ele>373.0</ele>
        <time>2018-05-19T09:13:00.846Z</time>
      </trkpt>
      <trkpt lat="43.26199167" lon="-4.33243167">
        <ele>373.0</ele>
        <time>2018-05-19T09:13:01.882Z</time>
      </trkpt>
      <trkpt lat="43.26200667" lon="-4.33237833">
        <ele>373.0</ele>
        <time>2018-05-19T09:13:02.844Z</time>
      </trkpt>
      <trkpt lat="43.26200667" lon="-4.33237833">
        <ele>373.0</ele>
        <time>2018-05-19T09:13:03.874Z</time>
      </trkpt>
      <trkpt lat="43.26202333" lon="-4.332335">
        <ele>374.0</ele>
        <time>2018-05-19T09:13:04.858Z</time>
      </trkpt>
      <trkpt lat="43.26202333" lon="-4.332335">
        <ele>374.0</ele>
        <time>2018-05-19T09:13:05.882Z</time>
      </trkpt>
      <trkpt lat="43.26203667" lon="-4.33229">
        <ele>374.0</ele>
        <time>2018-05-19T09:13:06.844Z</time>
      </trkpt>
      <trkpt lat="43.26203667" lon="-4.33229">
        <ele>374.0</ele>
        <time>2018-05-19T09:13:07.882Z</time>
      </trkpt>
      <trkpt lat="43.26205" lon="-4.33225167">
        <ele>375.0</ele>
        <time>2018-05-19T09:13:08.884Z</time>
      </trkpt>
      <trkpt lat="43.26205" lon="-4.33225167">
        <ele>375.0</ele>
        <time>2018-05-19T09:13:09.881Z</time>
      </trkpt>
      <trkpt lat="43.26207333" lon="-4.33221333">
        <ele>375.0</ele>
        <time>2018-05-19T09:13:10.844Z</time>
      </trkpt>
      <trkpt lat="43.26207333" lon="-4.33221333">
        <ele>375.0</ele>
        <time>2018-05-19T09:13:11.881Z</time>
      </trkpt>
      <trkpt lat="43.262085" lon="-4.332175">
        <ele>376.0</ele>
        <time>2018-05-19T09:13:12.883Z</time>
      </trkpt>
      <trkpt lat="43.262085" lon="-4.332175">
        <ele>376.0</ele>
        <time>2018-05-19T09:13:13.865Z</time>
      </trkpt>
      <trkpt lat="43.26208833" lon="-4.33213333">
        <ele>377.0</ele>
        <time>2018-05-19T09:13:14.855Z</time>
      </trkpt>
      <trkpt lat="43.26208833" lon="-4.33213333">
        <ele>377.0</ele>
        <time>2018-05-19T09:13:15.882Z</time>
      </trkpt>
      <trkpt lat="43.26208833" lon="-4.33209167">
        <ele>378.0</ele>
        <time>2018-05-19T09:13:16.881Z</time>
      </trkpt>
      <trkpt lat="43.26208833" lon="-4.33209167">
        <ele>378.0</ele>
        <time>2018-05-19T09:13:17.876Z</time>
      </trkpt>
      <trkpt lat="43.26208333" lon="-4.33205167">
        <ele>379.0</ele>
        <time>2018-05-19T09:13:18.853Z</time>
      </trkpt>
      <trkpt lat="43.26208333" lon="-4.33205167">
        <ele>379.0</ele>
        <time>2018-05-19T09:13:19.881Z</time>
      </trkpt>
      <trkpt lat="43.26208667" lon="-4.332015">
        <ele>380.0</ele>
        <time>2018-05-19T09:13:20.844Z</time>
      </trkpt>
      <trkpt lat="43.26208667" lon="-4.332015">
        <ele>380.0</ele>
        <time>2018-05-19T09:13:21.878Z</time>
      </trkpt>
      <trkpt lat="43.26208333" lon="-4.331975">
        <ele>381.0</ele>
        <time>2018-05-19T09:13:22.844Z</time>
      </trkpt>
      <trkpt lat="43.26208333" lon="-4.331975">
        <ele>381.0</ele>
        <time>2018-05-19T09:13:23.882Z</time>
      </trkpt>
      <trkpt lat="43.26208667" lon="-4.33193833">
        <ele>382.0</ele>
        <time>2018-05-19T09:13:24.853Z</time>
      </trkpt>
      <trkpt lat="43.26208667" lon="-4.33193833">
        <ele>382.0</ele>
        <time>2018-05-19T09:13:25.881Z</time>
      </trkpt>
      <trkpt lat="43.26210167" lon="-4.33190333">
        <ele>382.0</ele>
        <time>2018-05-19T09:13:26.844Z</time>
      </trkpt>
      <trkpt lat="43.26210167" lon="-4.33190333">
        <ele>382.0</ele>
        <time>2018-05-19T09:13:27.882Z</time>
      </trkpt>
      <trkpt lat="43.26210667" lon="-4.33184833">
        <ele>383.0</ele>
        <time>2018-05-19T09:13:28.844Z</time>
      </trkpt>
      <trkpt lat="43.26210667" lon="-4.33184833">
        <ele>383.0</ele>
        <time>2018-05-19T09:13:29.882Z</time>
      </trkpt>
      <trkpt lat="43.262105" lon="-4.3318">
        <ele>384.0</ele>
        <time>2018-05-19T09:13:30.844Z</time>
      </trkpt>
      <trkpt lat="43.262105" lon="-4.3318">
        <ele>384.0</ele>
        <time>2018-05-19T09:13:31.881Z</time>
      </trkpt>
      <trkpt lat="43.26210667" lon="-4.331755">
        <ele>384.0</ele>
        <time>2018-05-19T09:13:32.844Z</time>
      </trkpt>
      <trkpt lat="43.26210667" lon="-4.331755">
        <ele>384.0</ele>
        <time>2018-05-19T09:13:33.881Z</time>
      </trkpt>
      <trkpt lat="43.26211333" lon="-4.331715">
        <ele>385.0</ele>
        <time>2018-05-19T09:13:34.844Z</time>
      </trkpt>
      <trkpt lat="43.26211333" lon="-4.33169833">
        <ele>385.0</ele>
        <time>2018-05-19T09:13:35.844Z</time>
      </trkpt>
      <trkpt lat="43.26211333" lon="-4.33169833">
        <ele>385.0</ele>
        <time>2018-05-19T09:13:36.881Z</time>
      </trkpt>
      <trkpt lat="43.26211333" lon="-4.33166167">
        <ele>386.0</ele>
        <time>2018-05-19T09:13:37.844Z</time>
      </trkpt>
      <trkpt lat="43.26211333" lon="-4.33166167">
        <ele>386.0</ele>
        <time>2018-05-19T09:13:38.881Z</time>
      </trkpt>
      <trkpt lat="43.26211833" lon="-4.33163">
        <ele>386.0</ele>
        <time>2018-05-19T09:13:39.883Z</time>
      </trkpt>
      <trkpt lat="43.26211833" lon="-4.33163">
        <ele>386.0</ele>
        <time>2018-05-19T09:13:40.876Z</time>
      </trkpt>
      <trkpt lat="43.26213333" lon="-4.33160167">
        <ele>387.0</ele>
        <time>2018-05-19T09:13:41.844Z</time>
      </trkpt>
      <trkpt lat="43.26214167" lon="-4.33158667">
        <ele>387.0</ele>
        <time>2018-05-19T09:13:42.844Z</time>
      </trkpt>
      <trkpt lat="43.26214167" lon="-4.33158667">
        <ele>387.0</ele>
        <time>2018-05-19T09:13:43.882Z</time>
      </trkpt>
      <trkpt lat="43.26214833" lon="-4.33155833">
        <ele>387.0</ele>
        <time>2018-05-19T09:13:44.874Z</time>
      </trkpt>
      <trkpt lat="43.26215167" lon="-4.33153667">
        <ele>388.0</ele>
        <time>2018-05-19T09:13:45.858Z</time>
      </trkpt>
      <trkpt lat="43.26215833" lon="-4.33152167">
        <ele>388.0</ele>
        <time>2018-05-19T09:13:46.870Z</time>
      </trkpt>
      <trkpt lat="43.26215833" lon="-4.33152167">
        <ele>388.0</ele>
        <time>2018-05-19T09:13:47.877Z</time>
      </trkpt>
      <trkpt lat="43.26217167" lon="-4.33149167">
        <ele>389.0</ele>
        <time>2018-05-19T09:13:48.883Z</time>
      </trkpt>
      <trkpt lat="43.262175" lon="-4.33147833">
        <ele>389.0</ele>
        <time>2018-05-19T09:13:49.859Z</time>
      </trkpt>
      <trkpt lat="43.26217833" lon="-4.331465">
        <ele>390.0</ele>
        <time>2018-05-19T09:13:50.844Z</time>
      </trkpt>
      <trkpt lat="43.26217833" lon="-4.331465">
        <ele>390.0</ele>
        <time>2018-05-19T09:13:51.882Z</time>
      </trkpt>
      <trkpt lat="43.262185" lon="-4.33143167">
        <ele>390.0</ele>
        <time>2018-05-19T09:13:52.844Z</time>
      </trkpt>
      <trkpt lat="43.262185" lon="-4.33143167">
        <ele>390.0</ele>
        <time>2018-05-19T09:13:53.882Z</time>
      </trkpt>
      <trkpt lat="43.26219333" lon="-4.33140167">
        <ele>391.0</ele>
        <time>2018-05-19T09:13:54.845Z</time>
      </trkpt>
      <trkpt lat="43.26219667" lon="-4.331385">
        <ele>392.0</ele>
        <time>2018-05-19T09:13:55.882Z</time>
      </trkpt>
      <trkpt lat="43.26219667" lon="-4.331385">
        <ele>392.0</ele>
        <time>2018-05-19T09:13:56.881Z</time>
      </trkpt>
      <trkpt lat="43.26222167" lon="-4.33136167">
        <ele>392.0</ele>
        <time>2018-05-19T09:13:57.844Z</time>
      </trkpt>
      <trkpt lat="43.26222833" lon="-4.33134833">
        <ele>393.0</ele>
        <time>2018-05-19T09:13:58.873Z</time>
      </trkpt>
      <trkpt lat="43.26222833" lon="-4.33134833">
        <ele>393.0</ele>
        <time>2018-05-19T09:13:59.858Z</time>
      </trkpt>
      <trkpt lat="43.26222833" lon="-4.33131167">
        <ele>394.0</ele>
        <time>2018-05-19T09:14:00.844Z</time>
      </trkpt>
      <trkpt lat="43.26222833" lon="-4.33131167">
        <ele>394.0</ele>
        <time>2018-05-19T09:14:01.879Z</time>
      </trkpt>
      <trkpt lat="43.26224" lon="-4.33128">
        <ele>395.0</ele>
        <time>2018-05-19T09:14:02.883Z</time>
      </trkpt>
      <trkpt lat="43.26224" lon="-4.33128">
        <ele>395.0</ele>
        <time>2018-05-19T09:14:03.881Z</time>
      </trkpt>
      <trkpt lat="43.26225167" lon="-4.33125">
        <ele>395.0</ele>
        <time>2018-05-19T09:14:04.878Z</time>
      </trkpt>
      <trkpt lat="43.262255" lon="-4.33123833">
        <ele>395.0</ele>
        <time>2018-05-19T09:14:05.850Z</time>
      </trkpt>
      <trkpt lat="43.26226167" lon="-4.33122833">
        <ele>396.0</ele>
        <time>2018-05-19T09:14:06.844Z</time>
      </trkpt>
      <trkpt lat="43.26226167" lon="-4.33122833">
        <ele>396.0</ele>
        <time>2018-05-19T09:14:07.878Z</time>
      </trkpt>
      <trkpt lat="43.26228833" lon="-4.331225">
        <ele>396.0</ele>
        <time>2018-05-19T09:14:08.882Z</time>
      </trkpt>
      <trkpt lat="43.2623" lon="-4.33123333">
        <ele>396.0</ele>
        <time>2018-05-19T09:14:09.883Z</time>
      </trkpt>
      <trkpt lat="43.26231" lon="-4.33124">
        <ele>396.0</ele>
        <time>2018-05-19T09:14:10.845Z</time>
      </trkpt>
      <trkpt lat="43.26231" lon="-4.33124">
        <ele>396.0</ele>
        <time>2018-05-19T09:14:11.876Z</time>
      </trkpt>
      <trkpt lat="43.26232667" lon="-4.33124333">
        <ele>397.0</ele>
        <time>2018-05-19T09:14:12.883Z</time>
      </trkpt>
      <trkpt lat="43.26232667" lon="-4.33124333">
        <ele>397.0</ele>
        <time>2018-05-19T09:14:13.881Z</time>
      </trkpt>
      <trkpt lat="43.26234167" lon="-4.33127">
        <ele>397.0</ele>
        <time>2018-05-19T09:14:14.852Z</time>
      </trkpt>
      <trkpt lat="43.26234167" lon="-4.33127">
        <ele>397.0</ele>
        <time>2018-05-19T09:14:15.879Z</time>
      </trkpt>
      <trkpt lat="43.26234" lon="-4.33131333">
        <ele>397.0</ele>
        <time>2018-05-19T09:14:16.844Z</time>
      </trkpt>
      <trkpt lat="43.26234" lon="-4.33131333">
        <ele>397.0</ele>
        <time>2018-05-19T09:14:17.881Z</time>
      </trkpt>
      <trkpt lat="43.262345" lon="-4.33135167">
        <ele>398.0</ele>
        <time>2018-05-19T09:14:18.844Z</time>
      </trkpt>
      <trkpt lat="43.262345" lon="-4.33135167">
        <ele>398.0</ele>
        <time>2018-05-19T09:14:19.881Z</time>
      </trkpt>
      <trkpt lat="43.262355" lon="-4.33139">
        <ele>398.0</ele>
        <time>2018-05-19T09:14:20.883Z</time>
      </trkpt>
      <trkpt lat="43.26235833" lon="-4.33141167">
        <ele>398.0</ele>
        <time>2018-05-19T09:14:21.883Z</time>
      </trkpt>
      <trkpt lat="43.26235833" lon="-4.33141167">
        <ele>398.0</ele>
        <time>2018-05-19T09:14:22.882Z</time>
      </trkpt>
      <trkpt lat="43.26237" lon="-4.33144833">
        <ele>399.0</ele>
        <time>2018-05-19T09:14:23.844Z</time>
      </trkpt>
      <trkpt lat="43.26237167" lon="-4.33147333">
        <ele>399.0</ele>
        <time>2018-05-19T09:14:24.883Z</time>
      </trkpt>
      <trkpt lat="43.26237167" lon="-4.33147333">
        <ele>399.0</ele>
        <time>2018-05-19T09:14:25.882Z</time>
      </trkpt>
      <trkpt lat="43.26237667" lon="-4.331515">
        <ele>400.0</ele>
        <time>2018-05-19T09:14:26.883Z</time>
      </trkpt>
      <trkpt lat="43.26237667" lon="-4.331515">
        <ele>400.0</ele>
        <time>2018-05-19T09:14:27.880Z</time>
      </trkpt>
      <trkpt lat="43.26238167" lon="-4.33155833">
        <ele>401.0</ele>
        <time>2018-05-19T09:14:28.866Z</time>
      </trkpt>
      <trkpt lat="43.26238167" lon="-4.33155833">
        <ele>401.0</ele>
        <time>2018-05-19T09:14:29.850Z</time>
      </trkpt>
      <trkpt lat="43.26239167" lon="-4.33159833">
        <ele>401.0</ele>
        <time>2018-05-19T09:14:30.883Z</time>
      </trkpt>
      <trkpt lat="43.26239167" lon="-4.33159833">
        <ele>401.0</ele>
        <time>2018-05-19T09:14:31.881Z</time>
      </trkpt>
      <trkpt lat="43.262395" lon="-4.33164">
        <ele>401.0</ele>
        <time>2018-05-19T09:14:32.844Z</time>
      </trkpt>
      <trkpt lat="43.262395" lon="-4.33164">
        <ele>401.0</ele>
        <time>2018-05-19T09:14:33.879Z</time>
      </trkpt>
      <trkpt lat="43.26240167" lon="-4.33168167">
        <ele>401.0</ele>
        <time>2018-05-19T09:14:34.845Z</time>
      </trkpt>
      <trkpt lat="43.26240167" lon="-4.33168167">
        <ele>401.0</ele>
        <time>2018-05-19T09:14:35.882Z</time>
      </trkpt>
      <trkpt lat="43.26241" lon="-4.33171833">
        <ele>402.0</ele>
        <time>2018-05-19T09:14:36.844Z</time>
      </trkpt>
      <trkpt lat="43.26241" lon="-4.33171833">
        <ele>402.0</ele>
        <time>2018-05-19T09:14:37.881Z</time>
      </trkpt>
      <trkpt lat="43.26241667" lon="-4.331755">
        <ele>402.0</ele>
        <time>2018-05-19T09:14:38.883Z</time>
      </trkpt>
      <trkpt lat="43.26241667" lon="-4.331755">
        <ele>402.0</ele>
        <time>2018-05-19T09:14:39.881Z</time>
      </trkpt>
      <trkpt lat="43.26243" lon="-4.33179">
        <ele>402.0</ele>
        <time>2018-05-19T09:14:40.877Z</time>
      </trkpt>
      <trkpt lat="43.26243833" lon="-4.331805">
        <ele>402.0</ele>
        <time>2018-05-19T09:14:41.883Z</time>
      </trkpt>
      <trkpt lat="43.26244667" lon="-4.331825">
        <ele>403.0</ele>
        <time>2018-05-19T09:14:42.844Z</time>
      </trkpt>
      <trkpt lat="43.26244667" lon="-4.331825">
        <ele>403.0</ele>
        <time>2018-05-19T09:14:43.881Z</time>
      </trkpt>
      <trkpt lat="43.26246333" lon="-4.33186">
        <ele>403.0</ele>
        <time>2018-05-19T09:14:44.844Z</time>
      </trkpt>
      <trkpt lat="43.26246333" lon="-4.33186">
        <ele>403.0</ele>
        <time>2018-05-19T09:14:45.865Z</time>
      </trkpt>
      <trkpt lat="43.26248667" lon="-4.33189167">
        <ele>403.0</ele>
        <time>2018-05-19T09:14:46.853Z</time>
      </trkpt>
      <trkpt lat="43.26248667" lon="-4.33189167">
        <ele>403.0</ele>
        <time>2018-05-19T09:14:47.861Z</time>
      </trkpt>
      <trkpt lat="43.26251" lon="-4.33192333">
        <ele>404.0</ele>
        <time>2018-05-19T09:14:48.873Z</time>
      </trkpt>
      <trkpt lat="43.26252333" lon="-4.33193833">
        <ele>404.0</ele>
        <time>2018-05-19T09:14:49.883Z</time>
      </trkpt>
      <trkpt lat="43.262535" lon="-4.33195167">
        <ele>404.0</ele>
        <time>2018-05-19T09:14:50.844Z</time>
      </trkpt>
      <trkpt lat="43.262535" lon="-4.33195167">
        <ele>404.0</ele>
        <time>2018-05-19T09:14:51.850Z</time>
      </trkpt>
      <trkpt lat="43.26256167" lon="-4.33198167">
        <ele>405.0</ele>
        <time>2018-05-19T09:14:52.845Z</time>
      </trkpt>
      <trkpt lat="43.26256167" lon="-4.33198167">
        <ele>405.0</ele>
        <time>2018-05-19T09:14:53.878Z</time>
      </trkpt>
      <trkpt lat="43.26259" lon="-4.33201833">
        <ele>405.0</ele>
        <time>2018-05-19T09:14:54.844Z</time>
      </trkpt>
      <trkpt lat="43.26259" lon="-4.33201833">
        <ele>405.0</ele>
        <time>2018-05-19T09:14:55.881Z</time>
      </trkpt>
      <trkpt lat="43.26261167" lon="-4.33205833">
        <ele>406.0</ele>
        <time>2018-05-19T09:14:56.884Z</time>
      </trkpt>
      <trkpt lat="43.26261167" lon="-4.33205833">
        <ele>406.0</ele>
        <time>2018-05-19T09:14:57.881Z</time>
      </trkpt>
      <trkpt lat="43.26263" lon="-4.33210167">
        <ele>407.0</ele>
        <time>2018-05-19T09:14:58.845Z</time>
      </trkpt>
      <trkpt lat="43.26263" lon="-4.33210167">
        <ele>407.0</ele>
        <time>2018-05-19T09:14:59.881Z</time>
      </trkpt>
      <trkpt lat="43.26264833" lon="-4.33213833">
        <ele>408.0</ele>
        <time>2018-05-19T09:15:00.844Z</time>
      </trkpt>
      <trkpt lat="43.26264833" lon="-4.33213833">
        <ele>408.0</ele>
        <time>2018-05-19T09:15:01.881Z</time>
      </trkpt>
      <trkpt lat="43.26266167" lon="-4.33218">
        <ele>409.0</ele>
        <time>2018-05-19T09:15:02.883Z</time>
      </trkpt>
      <trkpt lat="43.262665" lon="-4.33220333">
        <ele>410.0</ele>
        <time>2018-05-19T09:15:03.844Z</time>
      </trkpt>
      <trkpt lat="43.262665" lon="-4.33220333">
        <ele>410.0</ele>
        <time>2018-05-19T09:15:04.881Z</time>
      </trkpt>
      <trkpt lat="43.26267833" lon="-4.33225333">
        <ele>411.0</ele>
        <time>2018-05-19T09:15:05.883Z</time>
      </trkpt>
      <trkpt lat="43.26268333" lon="-4.33227833">
        <ele>411.0</ele>
        <time>2018-05-19T09:15:06.883Z</time>
      </trkpt>
      <trkpt lat="43.26268333" lon="-4.33227833">
        <ele>411.0</ele>
        <time>2018-05-19T09:15:07.878Z</time>
      </trkpt>
      <trkpt lat="43.26269167" lon="-4.33233167">
        <ele>413.0</ele>
        <time>2018-05-19T09:15:08.844Z</time>
      </trkpt>
      <trkpt lat="43.26269167" lon="-4.33233167">
        <ele>413.0</ele>
        <time>2018-05-19T09:15:09.881Z</time>
      </trkpt>
      <trkpt lat="43.26270167" lon="-4.33238">
        <ele>414.0</ele>
        <time>2018-05-19T09:15:10.882Z</time>
      </trkpt>
      <trkpt lat="43.26270167" lon="-4.33238">
        <ele>414.0</ele>
        <time>2018-05-19T09:15:11.876Z</time>
      </trkpt>
      <trkpt lat="43.26270667" lon="-4.33242167">
        <ele>416.0</ele>
        <time>2018-05-19T09:15:12.858Z</time>
      </trkpt>
      <trkpt lat="43.26270667" lon="-4.33242167">
        <ele>416.0</ele>
        <time>2018-05-19T09:15:13.875Z</time>
      </trkpt>
      <trkpt lat="43.26271333" lon="-4.33247167">
        <ele>417.0</ele>
        <time>2018-05-19T09:15:14.883Z</time>
      </trkpt>
      <trkpt lat="43.26271333" lon="-4.33247167">
        <ele>417.0</ele>
        <time>2018-05-19T09:15:15.878Z</time>
      </trkpt>
      <trkpt lat="43.26273" lon="-4.33252833">
        <ele>418.0</ele>
        <time>2018-05-19T09:15:16.844Z</time>
      </trkpt>
      <trkpt lat="43.26273" lon="-4.33252833">
        <ele>418.0</ele>
        <time>2018-05-19T09:15:17.881Z</time>
      </trkpt>
      <trkpt lat="43.26273667" lon="-4.33258333">
        <ele>418.0</ele>
        <time>2018-05-19T09:15:18.844Z</time>
      </trkpt>
      <trkpt lat="43.26273667" lon="-4.33258333">
        <ele>418.0</ele>
        <time>2018-05-19T09:15:19.881Z</time>
      </trkpt>
      <trkpt lat="43.26274667" lon="-4.33263333">
        <ele>419.0</ele>
        <time>2018-05-19T09:15:20.883Z</time>
      </trkpt>
      <trkpt lat="43.26274667" lon="-4.33263333">
        <ele>419.0</ele>
        <time>2018-05-19T09:15:21.881Z</time>
      </trkpt>
      <trkpt lat="43.26274833" lon="-4.33268167">
        <ele>420.0</ele>
        <time>2018-05-19T09:15:22.845Z</time>
      </trkpt>
      <trkpt lat="43.26274833" lon="-4.33268167">
        <ele>420.0</ele>
        <time>2018-05-19T09:15:23.881Z</time>
      </trkpt>
      <trkpt lat="43.262745" lon="-4.33272">
        <ele>420.0</ele>
        <time>2018-05-19T09:15:24.844Z</time>
      </trkpt>
      <trkpt lat="43.262745" lon="-4.33272">
        <ele>420.0</ele>
        <time>2018-05-19T09:15:25.878Z</time>
      </trkpt>
      <trkpt lat="43.26274167" lon="-4.33276667">
        <ele>421.0</ele>
        <time>2018-05-19T09:15:26.883Z</time>
      </trkpt>
      <trkpt lat="43.26274167" lon="-4.33276667">
        <ele>421.0</ele>
        <time>2018-05-19T09:15:27.881Z</time>
      </trkpt>
      <trkpt lat="43.26275167" lon="-4.33281667">
        <ele>421.0</ele>
        <time>2018-05-19T09:15:28.883Z</time>
      </trkpt>
      <trkpt lat="43.26275167" lon="-4.33284833">
        <ele>421.0</ele>
        <time>2018-05-19T09:15:29.883Z</time>
      </trkpt>
      <trkpt lat="43.26275167" lon="-4.33287333">
        <ele>422.0</ele>
        <time>2018-05-19T09:15:30.883Z</time>
      </trkpt>
      <trkpt lat="43.26275167" lon="-4.33287333">
        <ele>422.0</ele>
        <time>2018-05-19T09:15:31.880Z</time>
      </trkpt>
      <trkpt lat="43.26275667" lon="-4.33292">
        <ele>422.0</ele>
        <time>2018-05-19T09:15:32.883Z</time>
      </trkpt>
      <trkpt lat="43.26275667" lon="-4.33292">
        <ele>422.0</ele>
        <time>2018-05-19T09:15:33.876Z</time>
      </trkpt>
      <trkpt lat="43.26277667" lon="-4.33296">
        <ele>421.0</ele>
        <time>2018-05-19T09:15:34.859Z</time>
      </trkpt>
      <trkpt lat="43.26277667" lon="-4.33296">
        <ele>421.0</ele>
        <time>2018-05-19T09:15:35.864Z</time>
      </trkpt>
      <trkpt lat="43.26280167" lon="-4.33299167">
        <ele>421.0</ele>
        <time>2018-05-19T09:15:36.849Z</time>
      </trkpt>
      <trkpt lat="43.26280167" lon="-4.33299167">
        <ele>421.0</ele>
        <time>2018-05-19T09:15:37.878Z</time>
      </trkpt>
      <trkpt lat="43.26282833" lon="-4.33301667">
        <ele>420.0</ele>
        <time>2018-05-19T09:15:38.883Z</time>
      </trkpt>
      <trkpt lat="43.26282833" lon="-4.33301667">
        <ele>420.0</ele>
        <time>2018-05-19T09:15:39.880Z</time>
      </trkpt>
      <trkpt lat="43.26285667" lon="-4.33304667">
        <ele>420.0</ele>
        <time>2018-05-19T09:15:40.875Z</time>
      </trkpt>
      <trkpt lat="43.26287167" lon="-4.33305833">
        <ele>420.0</ele>
        <time>2018-05-19T09:15:41.858Z</time>
      </trkpt>
      <trkpt lat="43.26288833" lon="-4.33307">
        <ele>421.0</ele>
        <time>2018-05-19T09:15:42.844Z</time>
      </trkpt>
      <trkpt lat="43.26288833" lon="-4.33307">
        <ele>421.0</ele>
        <time>2018-05-19T09:15:43.851Z</time>
      </trkpt>
      <trkpt lat="43.26292333" lon="-4.33308167">
        <ele>421.0</ele>
        <time>2018-05-19T09:15:44.883Z</time>
      </trkpt>
      <trkpt lat="43.26292333" lon="-4.33308167">
        <ele>421.0</ele>
        <time>2018-05-19T09:15:45.867Z</time>
      </trkpt>
      <trkpt lat="43.26295833" lon="-4.33308333">
        <ele>421.0</ele>
        <time>2018-05-19T09:15:46.872Z</time>
      </trkpt>
      <trkpt lat="43.262975" lon="-4.33308667">
        <ele>421.0</ele>
        <time>2018-05-19T09:15:47.880Z</time>
      </trkpt>
      <trkpt lat="43.262975" lon="-4.33308667">
        <ele>421.0</ele>
        <time>2018-05-19T09:15:48.846Z</time>
      </trkpt>
      <trkpt lat="43.263005" lon="-4.33309">
        <ele>421.0</ele>
        <time>2018-05-19T09:15:49.852Z</time>
      </trkpt>
      <trkpt lat="43.263015" lon="-4.33308833">
        <ele>422.0</ele>
        <time>2018-05-19T09:15:50.883Z</time>
      </trkpt>
      <trkpt lat="43.263015" lon="-4.33308833">
        <ele>422.0</ele>
        <time>2018-05-19T09:15:51.856Z</time>
      </trkpt>
      <trkpt lat="43.263045" lon="-4.33308">
        <ele>422.0</ele>
        <time>2018-05-19T09:15:52.844Z</time>
      </trkpt>
      <trkpt lat="43.263045" lon="-4.33308">
        <ele>422.0</ele>
        <time>2018-05-19T09:15:53.880Z</time>
      </trkpt>
      <trkpt lat="43.26307167" lon="-4.33307">
        <ele>423.0</ele>
        <time>2018-05-19T09:15:54.883Z</time>
      </trkpt>
      <trkpt lat="43.26307167" lon="-4.33307">
        <ele>423.0</ele>
        <time>2018-05-19T09:15:55.844Z</time>
      </trkpt>
      <trkpt lat="43.26309333" lon="-4.33308">
        <ele>423.0</ele>
        <time>2018-05-19T09:15:56.882Z</time>
      </trkpt>
      <trkpt lat="43.2631" lon="-4.33307167">
        <ele>423.0</ele>
        <time>2018-05-19T09:15:57.884Z</time>
      </trkpt>
      <trkpt lat="43.2631" lon="-4.33307167">
        <ele>423.0</ele>
        <time>2018-05-19T09:15:58.882Z</time>
      </trkpt>
      <trkpt lat="43.26312" lon="-4.33304667">
        <ele>423.0</ele>
        <time>2018-05-19T09:15:59.883Z</time>
      </trkpt>
      <trkpt lat="43.263135" lon="-4.33303333">
        <ele>423.0</ele>
        <time>2018-05-19T09:16:00.883Z</time>
      </trkpt>
      <trkpt lat="43.263135" lon="-4.33303333">
        <ele>423.0</ele>
        <time>2018-05-19T09:16:01.878Z</time>
      </trkpt>
      <trkpt lat="43.263165" lon="-4.33302667">
        <ele>423.0</ele>
        <time>2018-05-19T09:16:02.882Z</time>
      </trkpt>
      <trkpt lat="43.263175" lon="-4.33302">
        <ele>423.0</ele>
        <time>2018-05-19T09:16:03.883Z</time>
      </trkpt>
      <trkpt lat="43.263175" lon="-4.33302">
        <ele>423.0</ele>
        <time>2018-05-19T09:16:04.882Z</time>
      </trkpt>
      <trkpt lat="43.26319" lon="-4.332995">
        <ele>423.0</ele>
        <time>2018-05-19T09:16:05.883Z</time>
      </trkpt>
      <trkpt lat="43.263195" lon="-4.33298">
        <ele>423.0</ele>
        <time>2018-05-19T09:16:06.883Z</time>
      </trkpt>
      <trkpt lat="43.263195" lon="-4.33298">
        <ele>423.0</ele>
        <time>2018-05-19T09:16:07.880Z</time>
      </trkpt>
      <trkpt lat="43.263215" lon="-4.332955">
        <ele>423.0</ele>
        <time>2018-05-19T09:16:08.883Z</time>
      </trkpt>
      <trkpt lat="43.263215" lon="-4.332955">
        <ele>423.0</ele>
        <time>2018-05-19T09:16:09.880Z</time>
      </trkpt>
      <trkpt lat="43.26323333" lon="-4.33293833">
        <ele>424.0</ele>
        <time>2018-05-19T09:16:10.884Z</time>
      </trkpt>
      <trkpt lat="43.26323333" lon="-4.33293833">
        <ele>424.0</ele>
        <time>2018-05-19T09:16:11.880Z</time>
      </trkpt>
      <trkpt lat="43.26324167" lon="-4.33291167">
        <ele>425.0</ele>
        <time>2018-05-19T09:16:12.883Z</time>
      </trkpt>
      <trkpt lat="43.26324167" lon="-4.33291167">
        <ele>425.0</ele>
        <time>2018-05-19T09:16:13.876Z</time>
      </trkpt>
      <trkpt lat="43.26324667" lon="-4.33288333">
        <ele>425.0</ele>
        <time>2018-05-19T09:16:14.859Z</time>
      </trkpt>
      <trkpt lat="43.26325" lon="-4.33287">
        <ele>425.0</ele>
        <time>2018-05-19T09:16:15.844Z</time>
      </trkpt>
      <trkpt lat="43.263255" lon="-4.332855">
        <ele>426.0</ele>
        <time>2018-05-19T09:16:16.844Z</time>
      </trkpt>
      <trkpt lat="43.263255" lon="-4.332855">
        <ele>426.0</ele>
        <time>2018-05-19T09:16:17.877Z</time>
      </trkpt>
      <trkpt lat="43.263265" lon="-4.332825">
        <ele>427.0</ele>
        <time>2018-05-19T09:16:18.883Z</time>
      </trkpt>
      <trkpt lat="43.263265" lon="-4.332825">
        <ele>427.0</ele>
        <time>2018-05-19T09:16:19.881Z</time>
      </trkpt>
      <trkpt lat="43.26328" lon="-4.33279833">
        <ele>427.0</ele>
        <time>2018-05-19T09:16:20.883Z</time>
      </trkpt>
      <trkpt lat="43.26328" lon="-4.33279833">
        <ele>427.0</ele>
        <time>2018-05-19T09:16:21.881Z</time>
      </trkpt>
      <trkpt lat="43.26328667" lon="-4.33276667">
        <ele>427.0</ele>
        <time>2018-05-19T09:16:22.844Z</time>
      </trkpt>
      <trkpt lat="43.26328667" lon="-4.33276667">
        <ele>427.0</ele>
        <time>2018-05-19T09:16:23.876Z</time>
      </trkpt>
      <trkpt lat="43.26328667" lon="-4.33273333">
        <ele>428.0</ele>
        <time>2018-05-19T09:16:24.882Z</time>
      </trkpt>
      <trkpt lat="43.26328667" lon="-4.33273333">
        <ele>428.0</ele>
        <time>2018-05-19T09:16:25.879Z</time>
      </trkpt>
      <trkpt lat="43.26328833" lon="-4.33270333">
        <ele>429.0</ele>
        <time>2018-05-19T09:16:26.883Z</time>
      </trkpt>
      <trkpt lat="43.26328833" lon="-4.33270333">
        <ele>429.0</ele>
        <time>2018-05-19T09:16:27.881Z</time>
      </trkpt>
      <trkpt lat="43.26329333" lon="-4.332675">
        <ele>429.0</ele>
        <time>2018-05-19T09:16:28.844Z</time>
      </trkpt>
      <trkpt lat="43.26329333" lon="-4.332675">
        <ele>429.0</ele>
        <time>2018-05-19T09:16:29.878Z</time>
      </trkpt>
      <trkpt lat="43.2633" lon="-4.33264667">
        <ele>430.0</ele>
        <time>2018-05-19T09:16:30.844Z</time>
      </trkpt>
      <trkpt lat="43.2633" lon="-4.33264667">
        <ele>430.0</ele>
        <time>2018-05-19T09:16:31.880Z</time>
      </trkpt>
      <trkpt lat="43.26331333" lon="-4.33261833">
        <ele>431.0</ele>
        <time>2018-05-19T09:16:32.883Z</time>
      </trkpt>
      <trkpt lat="43.26331333" lon="-4.33261833">
        <ele>431.0</ele>
        <time>2018-05-19T09:16:33.880Z</time>
      </trkpt>
      <trkpt lat="43.263335" lon="-4.33259833">
        <ele>431.0</ele>
        <time>2018-05-19T09:16:34.844Z</time>
      </trkpt>
      <trkpt lat="43.263335" lon="-4.33259833">
        <ele>431.0</ele>
        <time>2018-05-19T09:16:35.880Z</time>
      </trkpt>
      <trkpt lat="43.26335" lon="-4.332565">
        <ele>432.0</ele>
        <time>2018-05-19T09:16:36.883Z</time>
      </trkpt>
      <trkpt lat="43.26335" lon="-4.332565">
        <ele>432.0</ele>
        <time>2018-05-19T09:16:37.880Z</time>
      </trkpt>
      <trkpt lat="43.26337" lon="-4.33254167">
        <ele>433.0</ele>
        <time>2018-05-19T09:16:38.846Z</time>
      </trkpt>
      <trkpt lat="43.26338" lon="-4.33253167">
        <ele>433.0</ele>
        <time>2018-05-19T09:16:39.883Z</time>
      </trkpt>
      <trkpt lat="43.26338" lon="-4.33253167">
        <ele>433.0</ele>
        <time>2018-05-19T09:16:40.878Z</time>
      </trkpt>
      <trkpt lat="43.26339833" lon="-4.33250833">
        <ele>434.0</ele>
        <time>2018-05-19T09:16:41.883Z</time>
      </trkpt>
      <trkpt lat="43.26339833" lon="-4.33250833">
        <ele>434.0</ele>
        <time>2018-05-19T09:16:42.880Z</time>
      </trkpt>
      <trkpt lat="43.26341" lon="-4.33248">
        <ele>434.0</ele>
        <time>2018-05-19T09:16:43.850Z</time>
      </trkpt>
      <trkpt lat="43.26341" lon="-4.33248">
        <ele>434.0</ele>
        <time>2018-05-19T09:16:44.880Z</time>
      </trkpt>
      <trkpt lat="43.26343667" lon="-4.33246833">
        <ele>435.0</ele>
        <time>2018-05-19T09:16:45.868Z</time>
      </trkpt>
      <trkpt lat="43.26344833" lon="-4.33246167">
        <ele>435.0</ele>
        <time>2018-05-19T09:16:46.873Z</time>
      </trkpt>
      <trkpt lat="43.26346333" lon="-4.33245167">
        <ele>436.0</ele>
        <time>2018-05-19T09:16:47.879Z</time>
      </trkpt>
      <trkpt lat="43.26346333" lon="-4.33245167">
        <ele>436.0</ele>
        <time>2018-05-19T09:16:48.846Z</time>
      </trkpt>
      <trkpt lat="43.26349" lon="-4.332435">
        <ele>436.0</ele>
        <time>2018-05-19T09:16:49.879Z</time>
      </trkpt>
      <trkpt lat="43.26350167" lon="-4.33242667">
        <ele>436.0</ele>
        <time>2018-05-19T09:16:50.883Z</time>
      </trkpt>
      <trkpt lat="43.26350167" lon="-4.33242667">
        <ele>436.0</ele>
        <time>2018-05-19T09:16:51.881Z</time>
      </trkpt>
      <trkpt lat="43.263525" lon="-4.33241">
        <ele>437.0</ele>
        <time>2018-05-19T09:16:52.844Z</time>
      </trkpt>
      <trkpt lat="43.263525" lon="-4.33241">
        <ele>437.0</ele>
        <time>2018-05-19T09:16:53.881Z</time>
      </trkpt>
      <trkpt lat="43.26354333" lon="-4.33239167">
        <ele>438.0</ele>
        <time>2018-05-19T09:16:54.883Z</time>
      </trkpt>
      <trkpt lat="43.26355333" lon="-4.33238833">
        <ele>438.0</ele>
        <time>2018-05-19T09:16:55.883Z</time>
      </trkpt>
      <trkpt lat="43.26355333" lon="-4.33238833">
        <ele>438.0</ele>
        <time>2018-05-19T09:16:56.880Z</time>
      </trkpt>
      <trkpt lat="43.26357167" lon="-4.33239333">
        <ele>439.0</ele>
        <time>2018-05-19T09:16:57.880Z</time>
      </trkpt>
      <trkpt lat="43.26357167" lon="-4.33239333">
        <ele>439.0</ele>
        <time>2018-05-19T09:16:58.879Z</time>
      </trkpt>
      <trkpt lat="43.26360167" lon="-4.33239333">
        <ele>439.0</ele>
        <time>2018-05-19T09:16:59.883Z</time>
      </trkpt>
      <trkpt lat="43.26360167" lon="-4.33239333">
        <ele>439.0</ele>
        <time>2018-05-19T09:17:00.881Z</time>
      </trkpt>
      <trkpt lat="43.26363333" lon="-4.33240167">
        <ele>440.0</ele>
        <time>2018-05-19T09:17:01.883Z</time>
      </trkpt>
      <trkpt lat="43.26363333" lon="-4.33240167">
        <ele>440.0</ele>
        <time>2018-05-19T09:17:02.845Z</time>
      </trkpt>
      <trkpt lat="43.26366667" lon="-4.33240667">
        <ele>440.0</ele>
        <time>2018-05-19T09:17:03.883Z</time>
      </trkpt>
      <trkpt lat="43.26366667" lon="-4.33240667">
        <ele>440.0</ele>
        <time>2018-05-19T09:17:04.881Z</time>
      </trkpt>
      <trkpt lat="43.26369667" lon="-4.33241167">
        <ele>441.0</ele>
        <time>2018-05-19T09:17:05.882Z</time>
      </trkpt>
      <trkpt lat="43.26371" lon="-4.332415">
        <ele>442.0</ele>
        <time>2018-05-19T09:17:06.883Z</time>
      </trkpt>
      <trkpt lat="43.26371" lon="-4.332415">
        <ele>442.0</ele>
        <time>2018-05-19T09:17:07.877Z</time>
      </trkpt>
      <trkpt lat="43.263735" lon="-4.33242667">
        <ele>442.0</ele>
        <time>2018-05-19T09:17:08.882Z</time>
      </trkpt>
      <trkpt lat="43.263735" lon="-4.33242667">
        <ele>442.0</ele>
        <time>2018-05-19T09:17:09.880Z</time>
      </trkpt>
      <trkpt lat="43.26376167" lon="-4.33243333">
        <ele>442.0</ele>
        <time>2018-05-19T09:17:10.844Z</time>
      </trkpt>
      <trkpt lat="43.26376167" lon="-4.33243333">
        <ele>442.0</ele>
        <time>2018-05-19T09:17:11.877Z</time>
      </trkpt>
      <trkpt lat="43.26378167" lon="-4.33244">
        <ele>443.0</ele>
        <time>2018-05-19T09:17:12.882Z</time>
      </trkpt>
      <trkpt lat="43.26378167" lon="-4.33244">
        <ele>443.0</ele>
        <time>2018-05-19T09:17:13.872Z</time>
      </trkpt>
      <trkpt lat="43.26380167" lon="-4.332455">
        <ele>444.0</ele>
        <time>2018-05-19T09:17:14.858Z</time>
      </trkpt>
      <trkpt lat="43.26380167" lon="-4.332455">
        <ele>444.0</ele>
        <time>2018-05-19T09:17:15.855Z</time>
      </trkpt>
      <trkpt lat="43.26382167" lon="-4.33247333">
        <ele>445.0</ele>
        <time>2018-05-19T09:17:16.884Z</time>
      </trkpt>
      <trkpt lat="43.26382167" lon="-4.33247333">
        <ele>445.0</ele>
        <time>2018-05-19T09:17:17.880Z</time>
      </trkpt>
      <trkpt lat="43.26384167" lon="-4.332495">
        <ele>446.0</ele>
        <time>2018-05-19T09:17:18.883Z</time>
      </trkpt>
      <trkpt lat="43.26384167" lon="-4.332495">
        <ele>446.0</ele>
        <time>2018-05-19T09:17:19.878Z</time>
      </trkpt>
      <trkpt lat="43.26386333" lon="-4.33251333">
        <ele>446.0</ele>
        <time>2018-05-19T09:17:20.864Z</time>
      </trkpt>
      <trkpt lat="43.26387333" lon="-4.332525">
        <ele>446.0</ele>
        <time>2018-05-19T09:17:21.848Z</time>
      </trkpt>
      <trkpt lat="43.26387333" lon="-4.332525">
        <ele>446.0</ele>
        <time>2018-05-19T09:17:22.881Z</time>
      </trkpt>
      <trkpt lat="43.26389667" lon="-4.332545">
        <ele>446.0</ele>
        <time>2018-05-19T09:17:23.882Z</time>
      </trkpt>
      <trkpt lat="43.26389667" lon="-4.332545">
        <ele>446.0</ele>
        <time>2018-05-19T09:17:24.878Z</time>
      </trkpt>
      <trkpt lat="43.26393" lon="-4.33255333">
        <ele>446.0</ele>
        <time>2018-05-19T09:17:25.881Z</time>
      </trkpt>
      <trkpt lat="43.26393" lon="-4.33255333">
        <ele>446.0</ele>
        <time>2018-05-19T09:17:26.880Z</time>
      </trkpt>
      <trkpt lat="43.263955" lon="-4.33256333">
        <ele>447.0</ele>
        <time>2018-05-19T09:17:27.879Z</time>
      </trkpt>
      <trkpt lat="43.263955" lon="-4.33256333">
        <ele>447.0</ele>
        <time>2018-05-19T09:17:28.878Z</time>
      </trkpt>
      <trkpt lat="43.26398333" lon="-4.33255667">
        <ele>447.0</ele>
        <time>2018-05-19T09:17:29.882Z</time>
      </trkpt>
      <trkpt lat="43.26398333" lon="-4.33255667">
        <ele>447.0</ele>
        <time>2018-05-19T09:17:30.881Z</time>
      </trkpt>
      <trkpt lat="43.26400833" lon="-4.33255167">
        <ele>448.0</ele>
        <time>2018-05-19T09:17:31.880Z</time>
      </trkpt>
      <trkpt lat="43.26400833" lon="-4.33255167">
        <ele>448.0</ele>
        <time>2018-05-19T09:17:32.878Z</time>
      </trkpt>
      <trkpt lat="43.26403" lon="-4.33252667">
        <ele>448.0</ele>
        <time>2018-05-19T09:17:33.877Z</time>
      </trkpt>
      <trkpt lat="43.26403667" lon="-4.33251333">
        <ele>449.0</ele>
        <time>2018-05-19T09:17:34.883Z</time>
      </trkpt>
      <trkpt lat="43.26404" lon="-4.33249833">
        <ele>449.0</ele>
        <time>2018-05-19T09:17:35.883Z</time>
      </trkpt>
      <trkpt lat="43.26404" lon="-4.33249833">
        <ele>449.0</ele>
        <time>2018-05-19T09:17:36.878Z</time>
      </trkpt>
      <trkpt lat="43.26404" lon="-4.33246333">
        <ele>448.0</ele>
        <time>2018-05-19T09:17:37.883Z</time>
      </trkpt>
      <trkpt lat="43.26404" lon="-4.33246333">
        <ele>448.0</ele>
        <time>2018-05-19T09:17:38.880Z</time>
      </trkpt>
      <trkpt lat="43.26403833" lon="-4.33242667">
        <ele>448.0</ele>
        <time>2018-05-19T09:17:39.883Z</time>
      </trkpt>
      <trkpt lat="43.26403833" lon="-4.33242667">
        <ele>448.0</ele>
        <time>2018-05-19T09:17:40.856Z</time>
      </trkpt>
      <trkpt lat="43.264035" lon="-4.33239333">
        <ele>448.0</ele>
        <time>2018-05-19T09:17:41.883Z</time>
      </trkpt>
      <trkpt lat="43.264035" lon="-4.33239333">
        <ele>448.0</ele>
        <time>2018-05-19T09:17:42.878Z</time>
      </trkpt>
      <trkpt lat="43.26402667" lon="-4.33235833">
        <ele>448.0</ele>
        <time>2018-05-19T09:17:43.844Z</time>
      </trkpt>
      <trkpt lat="43.26402667" lon="-4.33235833">
        <ele>448.0</ele>
        <time>2018-05-19T09:17:44.876Z</time>
      </trkpt>
      <trkpt lat="43.264015" lon="-4.332325">
        <ele>448.0</ele>
        <time>2018-05-19T09:17:45.848Z</time>
      </trkpt>
      <trkpt lat="43.264015" lon="-4.332325">
        <ele>448.0</ele>
        <time>2018-05-19T09:17:46.872Z</time>
      </trkpt>
      <trkpt lat="43.26399833" lon="-4.332295">
        <ele>448.0</ele>
        <time>2018-05-19T09:17:47.878Z</time>
      </trkpt>
      <trkpt lat="43.26399" lon="-4.33228167">
        <ele>449.0</ele>
        <time>2018-05-19T09:17:48.849Z</time>
      </trkpt>
      <trkpt lat="43.26398167" lon="-4.33226833">
        <ele>449.0</ele>
        <time>2018-05-19T09:17:49.882Z</time>
      </trkpt>
      <trkpt lat="43.26397833" lon="-4.332255">
        <ele>449.0</ele>
        <time>2018-05-19T09:17:50.854Z</time>
      </trkpt>
      <trkpt lat="43.26397833" lon="-4.332255">
        <ele>449.0</ele>
        <time>2018-05-19T09:17:51.881Z</time>
      </trkpt>
      <trkpt lat="43.26396833" lon="-4.33222333">
        <ele>450.0</ele>
        <time>2018-05-19T09:17:52.883Z</time>
      </trkpt>
      <trkpt lat="43.26396833" lon="-4.33222333">
        <ele>450.0</ele>
        <time>2018-05-19T09:17:53.870Z</time>
      </trkpt>
      <trkpt lat="43.263955" lon="-4.332195">
        <ele>451.0</ele>
        <time>2018-05-19T09:17:54.859Z</time>
      </trkpt>
      <trkpt lat="43.263955" lon="-4.332195">
        <ele>451.0</ele>
        <time>2018-05-19T09:17:55.883Z</time>
      </trkpt>
      <trkpt lat="43.26395" lon="-4.33216833">
        <ele>452.0</ele>
        <time>2018-05-19T09:17:56.866Z</time>
      </trkpt>
      <trkpt lat="43.26394167" lon="-4.33215167">
        <ele>452.0</ele>
        <time>2018-05-19T09:17:57.851Z</time>
      </trkpt>
      <trkpt lat="43.263935" lon="-4.332135">
        <ele>452.0</ele>
        <time>2018-05-19T09:17:58.883Z</time>
      </trkpt>
      <trkpt lat="43.263935" lon="-4.332135">
        <ele>452.0</ele>
        <time>2018-05-19T09:17:59.845Z</time>
      </trkpt>
      <trkpt lat="43.26393167" lon="-4.33210167">
        <ele>453.0</ele>
        <time>2018-05-19T09:18:00.845Z</time>
      </trkpt>
      <trkpt lat="43.26393333" lon="-4.33208667">
        <ele>454.0</ele>
        <time>2018-05-19T09:18:01.882Z</time>
      </trkpt>
      <trkpt lat="43.26393333" lon="-4.33208667">
        <ele>454.0</ele>
        <time>2018-05-19T09:18:02.880Z</time>
      </trkpt>
      <trkpt lat="43.26393667" lon="-4.33205333">
        <ele>454.0</ele>
        <time>2018-05-19T09:18:03.883Z</time>
      </trkpt>
      <trkpt lat="43.26393667" lon="-4.33205333">
        <ele>454.0</ele>
        <time>2018-05-19T09:18:04.882Z</time>
      </trkpt>
      <trkpt lat="43.26395" lon="-4.332025">
        <ele>455.0</ele>
        <time>2018-05-19T09:18:05.883Z</time>
      </trkpt>
      <trkpt lat="43.26395333" lon="-4.33200833">
        <ele>455.0</ele>
        <time>2018-05-19T09:18:06.847Z</time>
      </trkpt>
      <trkpt lat="43.26395333" lon="-4.33200833">
        <ele>455.0</ele>
        <time>2018-05-19T09:18:07.877Z</time>
      </trkpt>
      <trkpt lat="43.26396" lon="-4.33198">
        <ele>456.0</ele>
        <time>2018-05-19T09:18:08.852Z</time>
      </trkpt>
      <trkpt lat="43.26396" lon="-4.33198">
        <ele>456.0</ele>
        <time>2018-05-19T09:18:09.878Z</time>
      </trkpt>
      <trkpt lat="43.26397333" lon="-4.33195333">
        <ele>456.0</ele>
        <time>2018-05-19T09:18:10.883Z</time>
      </trkpt>
      <trkpt lat="43.26397333" lon="-4.33195333">
        <ele>456.0</ele>
        <time>2018-05-19T09:18:11.879Z</time>
      </trkpt>
      <trkpt lat="43.26399" lon="-4.33193167">
        <ele>457.0</ele>
        <time>2018-05-19T09:18:12.881Z</time>
      </trkpt>
      <trkpt lat="43.26399" lon="-4.33193167">
        <ele>457.0</ele>
        <time>2018-05-19T09:18:13.878Z</time>
      </trkpt>
      <trkpt lat="43.26399833" lon="-4.33190667">
        <ele>458.0</ele>
        <time>2018-05-19T09:18:14.850Z</time>
      </trkpt>
      <trkpt lat="43.26399833" lon="-4.33190667">
        <ele>458.0</ele>
        <time>2018-05-19T09:18:15.880Z</time>
      </trkpt>
      <trkpt lat="43.26401333" lon="-4.33188667">
        <ele>459.0</ele>
        <time>2018-05-19T09:18:16.846Z</time>
      </trkpt>
      <trkpt lat="43.26402333" lon="-4.33187667">
        <ele>459.0</ele>
        <time>2018-05-19T09:18:17.883Z</time>
      </trkpt>
      <trkpt lat="43.26402333" lon="-4.33187667">
        <ele>459.0</ele>
        <time>2018-05-19T09:18:18.877Z</time>
      </trkpt>
      <trkpt lat="43.26403833" lon="-4.33185167">
        <ele>460.0</ele>
        <time>2018-05-19T09:18:19.882Z</time>
      </trkpt>
      <trkpt lat="43.26403833" lon="-4.33185167">
        <ele>460.0</ele>
        <time>2018-05-19T09:18:20.878Z</time>
      </trkpt>
      <trkpt lat="43.26406" lon="-4.331825">
        <ele>461.0</ele>
        <time>2018-05-19T09:18:21.883Z</time>
      </trkpt>
      <trkpt lat="43.26406" lon="-4.331825">
        <ele>461.0</ele>
        <time>2018-05-19T09:18:22.881Z</time>
      </trkpt>
      <trkpt lat="43.26407333" lon="-4.33180667">
        <ele>462.0</ele>
        <time>2018-05-19T09:18:23.883Z</time>
      </trkpt>
      <trkpt lat="43.26407333" lon="-4.33180667">
        <ele>462.0</ele>
        <time>2018-05-19T09:18:24.877Z</time>
      </trkpt>
      <trkpt lat="43.26409" lon="-4.33179833">
        <ele>463.0</ele>
        <time>2018-05-19T09:18:25.882Z</time>
      </trkpt>
      <trkpt lat="43.26409667" lon="-4.331795">
        <ele>464.0</ele>
        <time>2018-05-19T09:18:26.844Z</time>
      </trkpt>
      <trkpt lat="43.26409667" lon="-4.331795">
        <ele>464.0</ele>
        <time>2018-05-19T09:18:27.880Z</time>
      </trkpt>
      <trkpt lat="43.26411833" lon="-4.33177833">
        <ele>465.0</ele>
        <time>2018-05-19T09:18:28.883Z</time>
      </trkpt>
      <trkpt lat="43.26412167" lon="-4.331765">
        <ele>465.0</ele>
        <time>2018-05-19T09:18:29.883Z</time>
      </trkpt>
      <trkpt lat="43.26413333" lon="-4.33176">
        <ele>466.0</ele>
        <time>2018-05-19T09:18:30.882Z</time>
      </trkpt>
      <trkpt lat="43.26413333" lon="-4.33176">
        <ele>466.0</ele>
        <time>2018-05-19T09:18:31.880Z</time>
      </trkpt>
      <trkpt lat="43.26415" lon="-4.33174167">
        <ele>466.0</ele>
        <time>2018-05-19T09:18:32.882Z</time>
      </trkpt>
      <trkpt lat="43.26415" lon="-4.33174167">
        <ele>466.0</ele>
        <time>2018-05-19T09:18:33.883Z</time>
      </trkpt>
      <trkpt lat="43.264165" lon="-4.331725">
        <ele>467.0</ele>
        <time>2018-05-19T09:18:34.883Z</time>
      </trkpt>
      <trkpt lat="43.264165" lon="-4.331725">
        <ele>467.0</ele>
        <time>2018-05-19T09:18:35.879Z</time>
      </trkpt>
      <trkpt lat="43.26417833" lon="-4.33170667">
        <ele>468.0</ele>
        <time>2018-05-19T09:18:36.881Z</time>
      </trkpt>
      <trkpt lat="43.264185" lon="-4.33169667">
        <ele>468.0</ele>
        <time>2018-05-19T09:18:37.882Z</time>
      </trkpt>
      <trkpt lat="43.264185" lon="-4.33169667">
        <ele>468.0</ele>
        <time>2018-05-19T09:18:38.877Z</time>
      </trkpt>
      <trkpt lat="43.26421167" lon="-4.33168">
        <ele>468.0</ele>
        <time>2018-05-19T09:18:39.881Z</time>
      </trkpt>
      <trkpt lat="43.26422833" lon="-4.33167167">
        <ele>468.0</ele>
        <time>2018-05-19T09:18:40.847Z</time>
      </trkpt>
      <trkpt lat="43.264245" lon="-4.33166167">
        <ele>468.0</ele>
        <time>2018-05-19T09:18:41.882Z</time>
      </trkpt>
      <trkpt lat="43.264245" lon="-4.33166167">
        <ele>468.0</ele>
        <time>2018-05-19T09:18:42.877Z</time>
      </trkpt>
      <trkpt lat="43.26426167" lon="-4.33163667">
        <ele>469.0</ele>
        <time>2018-05-19T09:18:43.876Z</time>
      </trkpt>
      <trkpt lat="43.26427333" lon="-4.33161667">
        <ele>469.0</ele>
        <time>2018-05-19T09:18:44.856Z</time>
      </trkpt>
      <trkpt lat="43.26427333" lon="-4.33161667">
        <ele>469.0</ele>
        <time>2018-05-19T09:18:45.864Z</time>
      </trkpt>
      <trkpt lat="43.26429167" lon="-4.33159">
        <ele>468.0</ele>
        <time>2018-05-19T09:18:46.871Z</time>
      </trkpt>
      <trkpt lat="43.26429667" lon="-4.33157833">
        <ele>468.0</ele>
        <time>2018-05-19T09:18:47.877Z</time>
      </trkpt>
      <trkpt lat="43.26430167" lon="-4.33156667">
        <ele>469.0</ele>
        <time>2018-05-19T09:18:48.844Z</time>
      </trkpt>
      <trkpt lat="43.26430167" lon="-4.33156667">
        <ele>469.0</ele>
        <time>2018-05-19T09:18:49.845Z</time>
      </trkpt>
      <trkpt lat="43.26431833" lon="-4.33154">
        <ele>469.0</ele>
        <time>2018-05-19T09:18:50.881Z</time>
      </trkpt>
      <trkpt lat="43.26433333" lon="-4.33152167">
        <ele>469.0</ele>
        <time>2018-05-19T09:18:51.883Z</time>
      </trkpt>
      <trkpt lat="43.26433333" lon="-4.33152167">
        <ele>469.0</ele>
        <time>2018-05-19T09:18:52.878Z</time>
      </trkpt>
      <trkpt lat="43.264355" lon="-4.33150167">
        <ele>470.0</ele>
        <time>2018-05-19T09:18:53.882Z</time>
      </trkpt>
      <trkpt lat="43.26436333" lon="-4.33149333">
        <ele>470.0</ele>
        <time>2018-05-19T09:18:54.883Z</time>
      </trkpt>
      <trkpt lat="43.26436333" lon="-4.33149333">
        <ele>470.0</ele>
        <time>2018-05-19T09:18:55.881Z</time>
      </trkpt>
      <trkpt lat="43.26439167" lon="-4.33147667">
        <ele>471.0</ele>
        <time>2018-05-19T09:18:56.880Z</time>
      </trkpt>
      <trkpt lat="43.26439167" lon="-4.33147667">
        <ele>471.0</ele>
        <time>2018-05-19T09:18:57.877Z</time>
      </trkpt>
      <trkpt lat="43.26442167" lon="-4.33146333">
        <ele>471.0</ele>
        <time>2018-05-19T09:18:58.883Z</time>
      </trkpt>
      <trkpt lat="43.26443833" lon="-4.33145833">
        <ele>472.0</ele>
        <time>2018-05-19T09:18:59.883Z</time>
      </trkpt>
      <trkpt lat="43.26443833" lon="-4.33145833">
        <ele>472.0</ele>
        <time>2018-05-19T09:19:00.877Z</time>
      </trkpt>
      <trkpt lat="43.264465" lon="-4.33144167">
        <ele>472.0</ele>
        <time>2018-05-19T09:19:01.881Z</time>
      </trkpt>
      <trkpt lat="43.264475" lon="-4.33143667">
        <ele>472.0</ele>
        <time>2018-05-19T09:19:02.882Z</time>
      </trkpt>
      <trkpt lat="43.264475" lon="-4.33143667">
        <ele>472.0</ele>
        <time>2018-05-19T09:19:03.877Z</time>
      </trkpt>
      <trkpt lat="43.2645" lon="-4.33143">
        <ele>472.0</ele>
        <time>2018-05-19T09:19:04.883Z</time>
      </trkpt>
      <trkpt lat="43.2645" lon="-4.33143">
        <ele>472.0</ele>
        <time>2018-05-19T09:19:05.879Z</time>
      </trkpt>
      <trkpt lat="43.26452667" lon="-4.33142333">
        <ele>473.0</ele>
        <time>2018-05-19T09:19:06.882Z</time>
      </trkpt>
      <trkpt lat="43.26452667" lon="-4.33142333">
        <ele>473.0</ele>
        <time>2018-05-19T09:19:07.881Z</time>
      </trkpt>
      <trkpt lat="43.26455" lon="-4.33142333">
        <ele>474.0</ele>
        <time>2018-05-19T09:19:08.882Z</time>
      </trkpt>
      <trkpt lat="43.26455" lon="-4.33142333">
        <ele>474.0</ele>
        <time>2018-05-19T09:19:09.881Z</time>
      </trkpt>
      <trkpt lat="43.264575" lon="-4.33141667">
        <ele>474.0</ele>
        <time>2018-05-19T09:19:10.882Z</time>
      </trkpt>
      <trkpt lat="43.26458667" lon="-4.33141167">
        <ele>474.0</ele>
        <time>2018-05-19T09:19:11.882Z</time>
      </trkpt>
      <trkpt lat="43.26458667" lon="-4.33141167">
        <ele>474.0</ele>
        <time>2018-05-19T09:19:12.880Z</time>
      </trkpt>
      <trkpt lat="43.26461667" lon="-4.33141333">
        <ele>475.0</ele>
        <time>2018-05-19T09:19:13.883Z</time>
      </trkpt>
      <trkpt lat="43.26461667" lon="-4.33141333">
        <ele>475.0</ele>
        <time>2018-05-19T09:19:14.879Z</time>
      </trkpt>
      <trkpt lat="43.26464833" lon="-4.331405">
        <ele>475.0</ele>
        <time>2018-05-19T09:19:15.879Z</time>
      </trkpt>
      <trkpt lat="43.26466333" lon="-4.33140167">
        <ele>475.0</ele>
        <time>2018-05-19T09:19:16.883Z</time>
      </trkpt>
      <trkpt lat="43.26466333" lon="-4.33140167">
        <ele>475.0</ele>
        <time>2018-05-19T09:19:17.876Z</time>
      </trkpt>
      <trkpt lat="43.26468667" lon="-4.3314">
        <ele>476.0</ele>
        <time>2018-05-19T09:19:18.882Z</time>
      </trkpt>
      <trkpt lat="43.26469833" lon="-4.33139667">
        <ele>476.0</ele>
        <time>2018-05-19T09:19:19.883Z</time>
      </trkpt>
      <trkpt lat="43.26470833" lon="-4.33139833">
        <ele>477.0</ele>
        <time>2018-05-19T09:19:20.883Z</time>
      </trkpt>
      <trkpt lat="43.26470833" lon="-4.33139833">
        <ele>477.0</ele>
        <time>2018-05-19T09:19:21.881Z</time>
      </trkpt>
      <trkpt lat="43.26473333" lon="-4.33139667">
        <ele>477.0</ele>
        <time>2018-05-19T09:19:22.883Z</time>
      </trkpt>
      <trkpt lat="43.26473333" lon="-4.33139667">
        <ele>477.0</ele>
        <time>2018-05-19T09:19:23.873Z</time>
      </trkpt>
      <trkpt lat="43.26476333" lon="-4.33138333">
        <ele>477.0</ele>
        <time>2018-05-19T09:19:24.882Z</time>
      </trkpt>
      <trkpt lat="43.26476333" lon="-4.33138333">
        <ele>477.0</ele>
        <time>2018-05-19T09:19:25.880Z</time>
      </trkpt>
      <trkpt lat="43.26479" lon="-4.331365">
        <ele>477.0</ele>
        <time>2018-05-19T09:19:26.883Z</time>
      </trkpt>
      <trkpt lat="43.26479" lon="-4.331365">
        <ele>477.0</ele>
        <time>2018-05-19T09:19:27.880Z</time>
      </trkpt>
      <trkpt lat="43.264805" lon="-4.33134333">
        <ele>477.0</ele>
        <time>2018-05-19T09:19:28.883Z</time>
      </trkpt>
      <trkpt lat="43.26481167" lon="-4.33133333">
        <ele>478.0</ele>
        <time>2018-05-19T09:19:29.883Z</time>
      </trkpt>
      <trkpt lat="43.26481167" lon="-4.33133333">
        <ele>478.0</ele>
        <time>2018-05-19T09:19:30.880Z</time>
      </trkpt>
      <trkpt lat="43.26483" lon="-4.33130667">
        <ele>478.0</ele>
        <time>2018-05-19T09:19:31.882Z</time>
      </trkpt>
      <trkpt lat="43.26484" lon="-4.33129667">
        <ele>478.0</ele>
        <time>2018-05-19T09:19:32.879Z</time>
      </trkpt>
      <trkpt lat="43.26484667" lon="-4.33128333">
        <ele>478.0</ele>
        <time>2018-05-19T09:19:33.883Z</time>
      </trkpt>
      <trkpt lat="43.26484667" lon="-4.33128333">
        <ele>478.0</ele>
        <time>2018-05-19T09:19:34.882Z</time>
      </trkpt>
      <trkpt lat="43.26486333" lon="-4.33124833">
        <ele>478.0</ele>
        <time>2018-05-19T09:19:35.844Z</time>
      </trkpt>
      <trkpt lat="43.26487167" lon="-4.33123333">
        <ele>478.0</ele>
        <time>2018-05-19T09:19:36.879Z</time>
      </trkpt>
      <trkpt lat="43.26487167" lon="-4.33123333">
        <ele>478.0</ele>
        <time>2018-05-19T09:19:37.873Z</time>
      </trkpt>
      <trkpt lat="43.26488" lon="-4.33119833">
        <ele>479.0</ele>
        <time>2018-05-19T09:19:38.859Z</time>
      </trkpt>
      <trkpt lat="43.26488333" lon="-4.33117833">
        <ele>479.0</ele>
        <time>2018-05-19T09:19:39.844Z</time>
      </trkpt>
      <trkpt lat="43.26488333" lon="-4.33117833">
        <ele>479.0</ele>
        <time>2018-05-19T09:19:40.876Z</time>
      </trkpt>
      <trkpt lat="43.26488667" lon="-4.331135">
        <ele>479.0</ele>
        <time>2018-05-19T09:19:41.881Z</time>
      </trkpt>
      <trkpt lat="43.26489167" lon="-4.33111167">
        <ele>479.0</ele>
        <time>2018-05-19T09:19:42.882Z</time>
      </trkpt>
      <trkpt lat="43.26489167" lon="-4.33111167">
        <ele>479.0</ele>
        <time>2018-05-19T09:19:43.876Z</time>
      </trkpt>
      <trkpt lat="43.26489833" lon="-4.33106167">
        <ele>480.0</ele>
        <time>2018-05-19T09:19:44.877Z</time>
      </trkpt>
      <trkpt lat="43.26489833" lon="-4.33106167">
        <ele>480.0</ele>
        <time>2018-05-19T09:19:45.854Z</time>
      </trkpt>
      <trkpt lat="43.26491833" lon="-4.33100833">
        <ele>480.0</ele>
        <time>2018-05-19T09:19:46.872Z</time>
      </trkpt>
      <trkpt lat="43.26491833" lon="-4.33100833">
        <ele>480.0</ele>
        <time>2018-05-19T09:19:47.878Z</time>
      </trkpt>
      <trkpt lat="43.26491667" lon="-4.33096333">
        <ele>481.0</ele>
        <time>2018-05-19T09:19:48.883Z</time>
      </trkpt>
      <trkpt lat="43.26491667" lon="-4.33096333">
        <ele>481.0</ele>
        <time>2018-05-19T09:19:49.880Z</time>
      </trkpt>
      <trkpt lat="43.264895" lon="-4.33092">
        <ele>481.0</ele>
        <time>2018-05-19T09:19:50.882Z</time>
      </trkpt>
      <trkpt lat="43.264895" lon="-4.33092">
        <ele>481.0</ele>
        <time>2018-05-19T09:19:51.878Z</time>
      </trkpt>
      <trkpt lat="43.26488833" lon="-4.33088167">
        <ele>482.0</ele>
        <time>2018-05-19T09:19:52.883Z</time>
      </trkpt>
      <trkpt lat="43.26488833" lon="-4.33088167">
        <ele>482.0</ele>
        <time>2018-05-19T09:19:53.880Z</time>
      </trkpt>
      <trkpt lat="43.26487" lon="-4.33084167">
        <ele>482.0</ele>
        <time>2018-05-19T09:19:54.882Z</time>
      </trkpt>
      <trkpt lat="43.26486167" lon="-4.33082">
        <ele>482.0</ele>
        <time>2018-05-19T09:19:55.882Z</time>
      </trkpt>
      <trkpt lat="43.26486167" lon="-4.33082">
        <ele>482.0</ele>
        <time>2018-05-19T09:19:56.876Z</time>
      </trkpt>
      <trkpt lat="43.26484833" lon="-4.33077667">
        <ele>483.0</ele>
        <time>2018-05-19T09:19:57.845Z</time>
      </trkpt>
      <trkpt lat="43.26484167" lon="-4.33075667">
        <ele>483.0</ele>
        <time>2018-05-19T09:19:58.884Z</time>
      </trkpt>
      <trkpt lat="43.26483" lon="-4.33072667">
        <ele>483.0</ele>
        <time>2018-05-19T09:19:59.883Z</time>
      </trkpt>
      <trkpt lat="43.26482" lon="-4.33070167">
        <ele>484.0</ele>
        <time>2018-05-19T09:20:00.883Z</time>
      </trkpt>
      <trkpt lat="43.26482" lon="-4.33070167">
        <ele>484.0</ele>
        <time>2018-05-19T09:20:01.877Z</time>
      </trkpt>
      <trkpt lat="43.264805" lon="-4.33065">
        <ele>484.0</ele>
        <time>2018-05-19T09:20:02.883Z</time>
      </trkpt>
      <trkpt lat="43.264805" lon="-4.33065">
        <ele>484.0</ele>
        <time>2018-05-19T09:20:03.878Z</time>
      </trkpt>
      <trkpt lat="43.26478167" lon="-4.33058167">
        <ele>484.0</ele>
        <time>2018-05-19T09:20:04.880Z</time>
      </trkpt>
      <trkpt lat="43.26478167" lon="-4.33058167">
        <ele>484.0</ele>
        <time>2018-05-19T09:20:05.879Z</time>
      </trkpt>
      <trkpt lat="43.26475833" lon="-4.33051">
        <ele>484.0</ele>
        <time>2018-05-19T09:20:06.881Z</time>
      </trkpt>
      <trkpt lat="43.26475833" lon="-4.33051">
        <ele>484.0</ele>
        <time>2018-05-19T09:20:07.851Z</time>
      </trkpt>
      <trkpt lat="43.26474667" lon="-4.33043667">
        <ele>484.0</ele>
        <time>2018-05-19T09:20:08.882Z</time>
      </trkpt>
      <trkpt lat="43.26474667" lon="-4.33043667">
        <ele>484.0</ele>
        <time>2018-05-19T09:20:09.879Z</time>
      </trkpt>
      <trkpt lat="43.26474" lon="-4.330365">
        <ele>484.0</ele>
        <time>2018-05-19T09:20:10.844Z</time>
      </trkpt>
      <trkpt lat="43.26473333" lon="-4.33032833">
        <ele>484.0</ele>
        <time>2018-05-19T09:20:11.882Z</time>
      </trkpt>
      <trkpt lat="43.26473" lon="-4.33029167">
        <ele>484.0</ele>
        <time>2018-05-19T09:20:12.882Z</time>
      </trkpt>
      <trkpt lat="43.26473" lon="-4.33029167">
        <ele>484.0</ele>
        <time>2018-05-19T09:20:13.877Z</time>
      </trkpt>
      <trkpt lat="43.26472333" lon="-4.33022167">
        <ele>484.0</ele>
        <time>2018-05-19T09:20:14.881Z</time>
      </trkpt>
      <trkpt lat="43.26472" lon="-4.330185">
        <ele>484.0</ele>
        <time>2018-05-19T09:20:15.854Z</time>
      </trkpt>
      <trkpt lat="43.26472" lon="-4.330185">
        <ele>484.0</ele>
        <time>2018-05-19T09:20:16.881Z</time>
      </trkpt>
      <trkpt lat="43.26470667" lon="-4.33010833">
        <ele>484.0</ele>
        <time>2018-05-19T09:20:17.848Z</time>
      </trkpt>
      <trkpt lat="43.26470333" lon="-4.33007">
        <ele>484.0</ele>
        <time>2018-05-19T09:20:18.883Z</time>
      </trkpt>
      <trkpt lat="43.26469833" lon="-4.330035">
        <ele>484.0</ele>
        <time>2018-05-19T09:20:19.881Z</time>
      </trkpt>
      <trkpt lat="43.26469833" lon="-4.330035">
        <ele>484.0</ele>
        <time>2018-05-19T09:20:20.880Z</time>
      </trkpt>
      <trkpt lat="43.26469667" lon="-4.32996">
        <ele>484.0</ele>
        <time>2018-05-19T09:20:21.883Z</time>
      </trkpt>
      <trkpt lat="43.26469667" lon="-4.32996">
        <ele>484.0</ele>
        <time>2018-05-19T09:20:22.871Z</time>
      </trkpt>
      <trkpt lat="43.264695" lon="-4.32988833">
        <ele>484.0</ele>
        <time>2018-05-19T09:20:23.857Z</time>
      </trkpt>
      <trkpt lat="43.26469667" lon="-4.329855">
        <ele>484.0</ele>
        <time>2018-05-19T09:20:24.883Z</time>
      </trkpt>
      <trkpt lat="43.26469833" lon="-4.32982">
        <ele>484.0</ele>
        <time>2018-05-19T09:20:25.844Z</time>
      </trkpt>
      <trkpt lat="43.26469833" lon="-4.32982">
        <ele>484.0</ele>
        <time>2018-05-19T09:20:26.879Z</time>
      </trkpt>
      <trkpt lat="43.26470833" lon="-4.329755">
        <ele>483.0</ele>
        <time>2018-05-19T09:20:27.848Z</time>
      </trkpt>
      <trkpt lat="43.26470833" lon="-4.329755">
        <ele>483.0</ele>
        <time>2018-05-19T09:20:28.880Z</time>
      </trkpt>
      <trkpt lat="43.26473167" lon="-4.329695">
        <ele>483.0</ele>
        <time>2018-05-19T09:20:29.882Z</time>
      </trkpt>
      <trkpt lat="43.264745" lon="-4.32966667">
        <ele>483.0</ele>
        <time>2018-05-19T09:20:30.882Z</time>
      </trkpt>
      <trkpt lat="43.264745" lon="-4.32966667">
        <ele>483.0</ele>
        <time>2018-05-19T09:20:31.879Z</time>
      </trkpt>
      <trkpt lat="43.26477333" lon="-4.32962">
        <ele>483.0</ele>
        <time>2018-05-19T09:20:32.882Z</time>
      </trkpt>
      <trkpt lat="43.26477333" lon="-4.32962">
        <ele>483.0</ele>
        <time>2018-05-19T09:20:33.877Z</time>
      </trkpt>
      <trkpt lat="43.26479333" lon="-4.32957">
        <ele>484.0</ele>
        <time>2018-05-19T09:20:34.883Z</time>
      </trkpt>
      <trkpt lat="43.26479333" lon="-4.32957">
        <ele>484.0</ele>
        <time>2018-05-19T09:20:35.879Z</time>
      </trkpt>
      <trkpt lat="43.26481667" lon="-4.32952333">
        <ele>484.0</ele>
        <time>2018-05-19T09:20:36.881Z</time>
      </trkpt>
      <trkpt lat="43.26481667" lon="-4.32952333">
        <ele>484.0</ele>
        <time>2018-05-19T09:20:37.845Z</time>
      </trkpt>
      <trkpt lat="43.264835" lon="-4.32948">
        <ele>484.0</ele>
        <time>2018-05-19T09:20:38.879Z</time>
      </trkpt>
      <trkpt lat="43.264835" lon="-4.32948">
        <ele>484.0</ele>
        <time>2018-05-19T09:20:39.878Z</time>
      </trkpt>
      <trkpt lat="43.26485" lon="-4.32944667">
        <ele>484.0</ele>
        <time>2018-05-19T09:20:40.870Z</time>
      </trkpt>
      <trkpt lat="43.26485833" lon="-4.32943167">
        <ele>484.0</ele>
        <time>2018-05-19T09:20:41.854Z</time>
      </trkpt>
      <trkpt lat="43.26486667" lon="-4.329415">
        <ele>485.0</ele>
        <time>2018-05-19T09:20:42.881Z</time>
      </trkpt>
      <trkpt lat="43.26487333" lon="-4.32939833">
        <ele>485.0</ele>
        <time>2018-05-19T09:20:43.844Z</time>
      </trkpt>
      <trkpt lat="43.26487333" lon="-4.32939833">
        <ele>485.0</ele>
        <time>2018-05-19T09:20:44.876Z</time>
      </trkpt>
      <trkpt lat="43.26489167" lon="-4.329365">
        <ele>485.0</ele>
        <time>2018-05-19T09:20:45.879Z</time>
      </trkpt>
      <trkpt lat="43.26489167" lon="-4.329365">
        <ele>485.0</ele>
        <time>2018-05-19T09:20:46.851Z</time>
      </trkpt>
      <trkpt lat="43.26489833" lon="-4.32934">
        <ele>486.0</ele>
        <time>2018-05-19T09:20:47.857Z</time>
      </trkpt>
      <trkpt lat="43.26491333" lon="-4.329315">
        <ele>486.0</ele>
        <time>2018-05-19T09:20:48.856Z</time>
      </trkpt>
      <trkpt lat="43.264925" lon="-4.32930167">
        <ele>486.0</ele>
        <time>2018-05-19T09:20:49.882Z</time>
      </trkpt>
      <trkpt lat="43.264925" lon="-4.32930167">
        <ele>486.0</ele>
        <time>2018-05-19T09:20:50.851Z</time>
      </trkpt>
      <trkpt lat="43.264945" lon="-4.329275">
        <ele>487.0</ele>
        <time>2018-05-19T09:20:51.882Z</time>
      </trkpt>
      <trkpt lat="43.26495167" lon="-4.329265">
        <ele>487.0</ele>
        <time>2018-05-19T09:20:52.883Z</time>
      </trkpt>
      <trkpt lat="43.26495167" lon="-4.329265">
        <ele>487.0</ele>
        <time>2018-05-19T09:20:53.876Z</time>
      </trkpt>
      <trkpt lat="43.264975" lon="-4.32924167">
        <ele>487.0</ele>
        <time>2018-05-19T09:20:54.879Z</time>
      </trkpt>
      <trkpt lat="43.264975" lon="-4.32924167">
        <ele>487.0</ele>
        <time>2018-05-19T09:20:55.873Z</time>
      </trkpt>
      <trkpt lat="43.265" lon="-4.32921167">
        <ele>488.0</ele>
        <time>2018-05-19T09:20:56.863Z</time>
      </trkpt>
      <trkpt lat="43.265" lon="-4.32921167">
        <ele>488.0</ele>
        <time>2018-05-19T09:20:57.848Z</time>
      </trkpt>
      <trkpt lat="43.26501333" lon="-4.32917333">
        <ele>488.0</ele>
        <time>2018-05-19T09:20:58.883Z</time>
      </trkpt>
      <trkpt lat="43.26501333" lon="-4.32917333">
        <ele>488.0</ele>
        <time>2018-05-19T09:20:59.874Z</time>
      </trkpt>
      <trkpt lat="43.26501833" lon="-4.32913">
        <ele>488.0</ele>
        <time>2018-05-19T09:21:00.858Z</time>
      </trkpt>
      <trkpt lat="43.26501833" lon="-4.32913">
        <ele>488.0</ele>
        <time>2018-05-19T09:21:01.882Z</time>
      </trkpt>
      <trkpt lat="43.26500833" lon="-4.32908667">
        <ele>489.0</ele>
        <time>2018-05-19T09:21:02.881Z</time>
      </trkpt>
      <trkpt lat="43.26500667" lon="-4.32906">
        <ele>489.0</ele>
        <time>2018-05-19T09:21:03.881Z</time>
      </trkpt>
      <trkpt lat="43.26500167" lon="-4.32904">
        <ele>489.0</ele>
        <time>2018-05-19T09:21:04.883Z</time>
      </trkpt>
      <trkpt lat="43.26500167" lon="-4.32904">
        <ele>489.0</ele>
        <time>2018-05-19T09:21:05.878Z</time>
      </trkpt>
      <trkpt lat="43.26498333" lon="-4.32899833">
        <ele>490.0</ele>
        <time>2018-05-19T09:21:06.882Z</time>
      </trkpt>
      <trkpt lat="43.26498333" lon="-4.32899833">
        <ele>490.0</ele>
        <time>2018-05-19T09:21:07.878Z</time>
      </trkpt>
      <trkpt lat="43.26495833" lon="-4.32896167">
        <ele>491.0</ele>
        <time>2018-05-19T09:21:08.881Z</time>
      </trkpt>
      <trkpt lat="43.26495333" lon="-4.32894667">
        <ele>491.0</ele>
        <time>2018-05-19T09:21:09.883Z</time>
      </trkpt>
      <trkpt lat="43.26495333" lon="-4.32894667">
        <ele>491.0</ele>
        <time>2018-05-19T09:21:10.881Z</time>
      </trkpt>
      <trkpt lat="43.26493667" lon="-4.328915">
        <ele>492.0</ele>
        <time>2018-05-19T09:21:11.882Z</time>
      </trkpt>
      <trkpt lat="43.26492333" lon="-4.32890333">
        <ele>492.0</ele>
        <time>2018-05-19T09:21:12.881Z</time>
      </trkpt>
      <trkpt lat="43.26492333" lon="-4.32890333">
        <ele>492.0</ele>
        <time>2018-05-19T09:21:13.876Z</time>
      </trkpt>
      <trkpt lat="43.264895" lon="-4.32887833">
        <ele>493.0</ele>
        <time>2018-05-19T09:21:14.881Z</time>
      </trkpt>
      <trkpt lat="43.26488167" lon="-4.32886333">
        <ele>493.0</ele>
        <time>2018-05-19T09:21:15.875Z</time>
      </trkpt>
      <trkpt lat="43.26487" lon="-4.32884667">
        <ele>494.0</ele>
        <time>2018-05-19T09:21:16.882Z</time>
      </trkpt>
      <trkpt lat="43.26487" lon="-4.32884667">
        <ele>494.0</ele>
        <time>2018-05-19T09:21:17.876Z</time>
      </trkpt>
      <trkpt lat="43.26485" lon="-4.32881167">
        <ele>494.0</ele>
        <time>2018-05-19T09:21:18.881Z</time>
      </trkpt>
      <trkpt lat="43.26485" lon="-4.32881167">
        <ele>494.0</ele>
        <time>2018-05-19T09:21:19.879Z</time>
      </trkpt>
      <trkpt lat="43.26484" lon="-4.328775">
        <ele>494.0</ele>
        <time>2018-05-19T09:21:20.883Z</time>
      </trkpt>
      <trkpt lat="43.26483167" lon="-4.32875333">
        <ele>494.0</ele>
        <time>2018-05-19T09:21:21.881Z</time>
      </trkpt>
      <trkpt lat="43.26482333" lon="-4.32873">
        <ele>494.0</ele>
        <time>2018-05-19T09:21:22.882Z</time>
      </trkpt>
      <trkpt lat="43.26482333" lon="-4.32873">
        <ele>494.0</ele>
        <time>2018-05-19T09:21:23.878Z</time>
      </trkpt>
      <trkpt lat="43.26480833" lon="-4.32868833">
        <ele>495.0</ele>
        <time>2018-05-19T09:21:24.881Z</time>
      </trkpt>
      <trkpt lat="43.26480833" lon="-4.32868833">
        <ele>495.0</ele>
        <time>2018-05-19T09:21:25.876Z</time>
      </trkpt>
      <trkpt lat="43.26479667" lon="-4.32864333">
        <ele>495.0</ele>
        <time>2018-05-19T09:21:26.880Z</time>
      </trkpt>
      <trkpt lat="43.26479333" lon="-4.32862667">
        <ele>496.0</ele>
        <time>2018-05-19T09:21:27.882Z</time>
      </trkpt>
      <trkpt lat="43.26479333" lon="-4.32862667">
        <ele>496.0</ele>
        <time>2018-05-19T09:21:28.846Z</time>
      </trkpt>
      <trkpt lat="43.26478833" lon="-4.32858833">
        <ele>496.0</ele>
        <time>2018-05-19T09:21:29.881Z</time>
      </trkpt>
      <trkpt lat="43.26478833" lon="-4.32856833">
        <ele>496.0</ele>
        <time>2018-05-19T09:21:30.881Z</time>
      </trkpt>
      <trkpt lat="43.26478833" lon="-4.32856833">
        <ele>496.0</ele>
        <time>2018-05-19T09:21:31.879Z</time>
      </trkpt>
      <trkpt lat="43.26479167" lon="-4.32853">
        <ele>496.0</ele>
        <time>2018-05-19T09:21:32.882Z</time>
      </trkpt>
      <trkpt lat="43.26479333" lon="-4.32850833">
        <ele>496.0</ele>
        <time>2018-05-19T09:21:33.882Z</time>
      </trkpt>
      <trkpt lat="43.26479333" lon="-4.32850833">
        <ele>496.0</ele>
        <time>2018-05-19T09:21:34.877Z</time>
      </trkpt>
      <trkpt lat="43.26480333" lon="-4.328465">
        <ele>496.0</ele>
        <time>2018-05-19T09:21:35.880Z</time>
      </trkpt>
      <trkpt lat="43.26480833" lon="-4.32844333">
        <ele>496.0</ele>
        <time>2018-05-19T09:21:36.881Z</time>
      </trkpt>
      <trkpt lat="43.26480833" lon="-4.32844333">
        <ele>496.0</ele>
        <time>2018-05-19T09:21:37.876Z</time>
      </trkpt>
      <trkpt lat="43.26481667" lon="-4.328395">
        <ele>497.0</ele>
        <time>2018-05-19T09:21:38.872Z</time>
      </trkpt>
      <trkpt lat="43.264825" lon="-4.32837167">
        <ele>497.0</ele>
        <time>2018-05-19T09:21:39.857Z</time>
      </trkpt>
      <trkpt lat="43.264825" lon="-4.32837167">
        <ele>497.0</ele>
        <time>2018-05-19T09:21:40.844Z</time>
      </trkpt>
      <trkpt lat="43.26484333" lon="-4.32832833">
        <ele>497.0</ele>
        <time>2018-05-19T09:21:41.880Z</time>
      </trkpt>
      <trkpt lat="43.26485" lon="-4.32830667">
        <ele>497.0</ele>
        <time>2018-05-19T09:21:42.881Z</time>
      </trkpt>
      <trkpt lat="43.26485" lon="-4.32830667">
        <ele>497.0</ele>
        <time>2018-05-19T09:21:43.872Z</time>
      </trkpt>
      <trkpt lat="43.26486333" lon="-4.32826">
        <ele>497.0</ele>
        <time>2018-05-19T09:21:44.855Z</time>
      </trkpt>
      <trkpt lat="43.26486333" lon="-4.32826">
        <ele>497.0</ele>
        <time>2018-05-19T09:21:45.845Z</time>
      </trkpt>
      <trkpt lat="43.26487667" lon="-4.32821167">
        <ele>498.0</ele>
        <time>2018-05-19T09:21:46.883Z</time>
      </trkpt>
      <trkpt lat="43.26488" lon="-4.32818667">
        <ele>498.0</ele>
        <time>2018-05-19T09:21:47.850Z</time>
      </trkpt>
      <trkpt lat="43.26488" lon="-4.32818667">
        <ele>498.0</ele>
        <time>2018-05-19T09:21:48.856Z</time>
      </trkpt>
      <trkpt lat="43.26488667" lon="-4.32813667">
        <ele>498.0</ele>
        <time>2018-05-19T09:21:49.859Z</time>
      </trkpt>
      <trkpt lat="43.26488667" lon="-4.32813667">
        <ele>498.0</ele>
        <time>2018-05-19T09:21:50.846Z</time>
      </trkpt>
      <trkpt lat="43.26489333" lon="-4.32808167">
        <ele>498.0</ele>
        <time>2018-05-19T09:21:51.882Z</time>
      </trkpt>
      <trkpt lat="43.264895" lon="-4.32805833">
        <ele>498.0</ele>
        <time>2018-05-19T09:21:52.883Z</time>
      </trkpt>
      <trkpt lat="43.264895" lon="-4.32805833">
        <ele>498.0</ele>
        <time>2018-05-19T09:21:53.879Z</time>
      </trkpt>
      <trkpt lat="43.26489667" lon="-4.32802167">
        <ele>498.0</ele>
        <time>2018-05-19T09:21:54.882Z</time>
      </trkpt>
      <trkpt lat="43.26489667" lon="-4.32802167">
        <ele>498.0</ele>
        <time>2018-05-19T09:21:55.876Z</time>
      </trkpt>
      <trkpt lat="43.26489333" lon="-4.327985">
        <ele>499.0</ele>
        <time>2018-05-19T09:21:56.880Z</time>
      </trkpt>
      <trkpt lat="43.26488833" lon="-4.32796333">
        <ele>499.0</ele>
        <time>2018-05-19T09:21:57.882Z</time>
      </trkpt>
      <trkpt lat="43.26488833" lon="-4.32796333">
        <ele>499.0</ele>
        <time>2018-05-19T09:21:58.880Z</time>
      </trkpt>
      <trkpt lat="43.26488833" lon="-4.32791">
        <ele>499.0</ele>
        <time>2018-05-19T09:21:59.880Z</time>
      </trkpt>
      <trkpt lat="43.26489" lon="-4.32789167">
        <ele>499.0</ele>
        <time>2018-05-19T09:22:00.881Z</time>
      </trkpt>
      <trkpt lat="43.26489" lon="-4.32789167">
        <ele>499.0</ele>
        <time>2018-05-19T09:22:01.873Z</time>
      </trkpt>
      <trkpt lat="43.264885" lon="-4.327855">
        <ele>500.0</ele>
        <time>2018-05-19T09:22:02.857Z</time>
      </trkpt>
      <trkpt lat="43.264885" lon="-4.327855">
        <ele>500.0</ele>
        <time>2018-05-19T09:22:03.880Z</time>
      </trkpt>
      <trkpt lat="43.26488333" lon="-4.32781833">
        <ele>501.0</ele>
        <time>2018-05-19T09:22:04.882Z</time>
      </trkpt>
      <trkpt lat="43.26488333" lon="-4.32781833">
        <ele>501.0</ele>
        <time>2018-05-19T09:22:05.878Z</time>
      </trkpt>
      <trkpt lat="43.26489167" lon="-4.32777667">
        <ele>501.0</ele>
        <time>2018-05-19T09:22:06.881Z</time>
      </trkpt>
      <trkpt lat="43.26489167" lon="-4.32777667">
        <ele>501.0</ele>
        <time>2018-05-19T09:22:07.872Z</time>
      </trkpt>
      <trkpt lat="43.26490333" lon="-4.32773167">
        <ele>502.0</ele>
        <time>2018-05-19T09:22:08.881Z</time>
      </trkpt>
      <trkpt lat="43.26490833" lon="-4.32771">
        <ele>502.0</ele>
        <time>2018-05-19T09:22:09.881Z</time>
      </trkpt>
      <trkpt lat="43.26490833" lon="-4.32771">
        <ele>502.0</ele>
        <time>2018-05-19T09:22:10.844Z</time>
      </trkpt>
      <trkpt lat="43.26492167" lon="-4.32766167">
        <ele>502.0</ele>
        <time>2018-05-19T09:22:11.881Z</time>
      </trkpt>
      <trkpt lat="43.26493167" lon="-4.32764">
        <ele>502.0</ele>
        <time>2018-05-19T09:22:12.881Z</time>
      </trkpt>
      <trkpt lat="43.26493167" lon="-4.32764">
        <ele>502.0</ele>
        <time>2018-05-19T09:22:13.876Z</time>
      </trkpt>
      <trkpt lat="43.26495667" lon="-4.32759667">
        <ele>503.0</ele>
        <time>2018-05-19T09:22:14.881Z</time>
      </trkpt>
      <trkpt lat="43.26495667" lon="-4.32759667">
        <ele>503.0</ele>
        <time>2018-05-19T09:22:15.866Z</time>
      </trkpt>
      <trkpt lat="43.26497833" lon="-4.32755333">
        <ele>503.0</ele>
        <time>2018-05-19T09:22:16.851Z</time>
      </trkpt>
      <trkpt lat="43.26497833" lon="-4.32755333">
        <ele>503.0</ele>
        <time>2018-05-19T09:22:17.876Z</time>
      </trkpt>
      <trkpt lat="43.265" lon="-4.32750333">
        <ele>503.0</ele>
        <time>2018-05-19T09:22:18.881Z</time>
      </trkpt>
      <trkpt lat="43.265" lon="-4.32750333">
        <ele>503.0</ele>
        <time>2018-05-19T09:22:19.876Z</time>
      </trkpt>
      <trkpt lat="43.265005" lon="-4.32744833">
        <ele>503.0</ele>
        <time>2018-05-19T09:22:20.882Z</time>
      </trkpt>
      <trkpt lat="43.26499833" lon="-4.32742167">
        <ele>504.0</ele>
        <time>2018-05-19T09:22:21.881Z</time>
      </trkpt>
      <trkpt lat="43.26498667" lon="-4.3274">
        <ele>504.0</ele>
        <time>2018-05-19T09:22:22.883Z</time>
      </trkpt>
      <trkpt lat="43.26497167" lon="-4.32738833">
        <ele>504.0</ele>
        <time>2018-05-19T09:22:23.882Z</time>
      </trkpt>
      <trkpt lat="43.26497167" lon="-4.32738833">
        <ele>504.0</ele>
        <time>2018-05-19T09:22:24.882Z</time>
      </trkpt>
      <trkpt lat="43.26493833" lon="-4.32736833">
        <ele>504.0</ele>
        <time>2018-05-19T09:22:25.880Z</time>
      </trkpt>
      <trkpt lat="43.26493833" lon="-4.32736833">
        <ele>504.0</ele>
        <time>2018-05-19T09:22:26.875Z</time>
      </trkpt>
      <trkpt lat="43.26490167" lon="-4.32734833">
        <ele>505.0</ele>
        <time>2018-05-19T09:22:27.881Z</time>
      </trkpt>
      <trkpt lat="43.26490167" lon="-4.32734833">
        <ele>505.0</ele>
        <time>2018-05-19T09:22:28.878Z</time>
      </trkpt>
      <trkpt lat="43.264865" lon="-4.32733">
        <ele>505.0</ele>
        <time>2018-05-19T09:22:29.880Z</time>
      </trkpt>
      <trkpt lat="43.26484667" lon="-4.327315">
        <ele>505.0</ele>
        <time>2018-05-19T09:22:30.881Z</time>
      </trkpt>
      <trkpt lat="43.26484667" lon="-4.327315">
        <ele>505.0</ele>
        <time>2018-05-19T09:22:31.876Z</time>
      </trkpt>
      <trkpt lat="43.264805" lon="-4.32729167">
        <ele>505.0</ele>
        <time>2018-05-19T09:22:32.879Z</time>
      </trkpt>
      <trkpt lat="43.264785" lon="-4.32728">
        <ele>506.0</ele>
        <time>2018-05-19T09:22:33.880Z</time>
      </trkpt>
      <trkpt lat="43.26476333" lon="-4.32727">
        <ele>506.0</ele>
        <time>2018-05-19T09:22:34.881Z</time>
      </trkpt>
      <trkpt lat="43.26476333" lon="-4.32727">
        <ele>506.0</ele>
        <time>2018-05-19T09:22:35.876Z</time>
      </trkpt>
      <trkpt lat="43.26471667" lon="-4.32725333">
        <ele>506.0</ele>
        <time>2018-05-19T09:22:36.858Z</time>
      </trkpt>
      <trkpt lat="43.26471667" lon="-4.32725333">
        <ele>506.0</ele>
        <time>2018-05-19T09:22:37.881Z</time>
      </trkpt>
      <trkpt lat="43.26467333" lon="-4.32723667">
        <ele>506.0</ele>
        <time>2018-05-19T09:22:38.880Z</time>
      </trkpt>
      <trkpt lat="43.26467333" lon="-4.32723667">
        <ele>506.0</ele>
        <time>2018-05-19T09:22:39.876Z</time>
      </trkpt>
      <trkpt lat="43.26463667" lon="-4.32722167">
        <ele>507.0</ele>
        <time>2018-05-19T09:22:40.869Z</time>
      </trkpt>
      <trkpt lat="43.26463667" lon="-4.32722167">
        <ele>507.0</ele>
        <time>2018-05-19T09:22:41.854Z</time>
      </trkpt>
      <trkpt lat="43.264595" lon="-4.32721">
        <ele>507.0</ele>
        <time>2018-05-19T09:22:42.881Z</time>
      </trkpt>
      <trkpt lat="43.26457167" lon="-4.32720833">
        <ele>507.0</ele>
        <time>2018-05-19T09:22:43.879Z</time>
      </trkpt>
      <trkpt lat="43.26457167" lon="-4.32720833">
        <ele>507.0</ele>
        <time>2018-05-19T09:22:44.876Z</time>
      </trkpt>
      <trkpt lat="43.26452667" lon="-4.32719667">
        <ele>508.0</ele>
        <time>2018-05-19T09:22:45.882Z</time>
      </trkpt>
      <trkpt lat="43.264505" lon="-4.32718833">
        <ele>508.0</ele>
        <time>2018-05-19T09:22:46.855Z</time>
      </trkpt>
      <trkpt lat="43.26448167" lon="-4.32717667">
        <ele>508.0</ele>
        <time>2018-05-19T09:22:47.870Z</time>
      </trkpt>
      <trkpt lat="43.26446" lon="-4.32717">
        <ele>508.0</ele>
        <time>2018-05-19T09:22:48.844Z</time>
      </trkpt>
      <trkpt lat="43.26446" lon="-4.32717">
        <ele>508.0</ele>
        <time>2018-05-19T09:22:49.874Z</time>
      </trkpt>
      <trkpt lat="43.264415" lon="-4.32715667">
        <ele>508.0</ele>
        <time>2018-05-19T09:22:50.874Z</time>
      </trkpt>
      <trkpt lat="43.264415" lon="-4.32715667">
        <ele>508.0</ele>
        <time>2018-05-19T09:22:51.857Z</time>
      </trkpt>
      <trkpt lat="43.26437167" lon="-4.32714833">
        <ele>509.0</ele>
        <time>2018-05-19T09:22:52.849Z</time>
      </trkpt>
      <trkpt lat="43.26437167" lon="-4.32714833">
        <ele>509.0</ele>
        <time>2018-05-19T09:22:53.878Z</time>
      </trkpt>
      <trkpt lat="43.264325" lon="-4.32713833">
        <ele>509.0</ele>
        <time>2018-05-19T09:22:54.882Z</time>
      </trkpt>
      <trkpt lat="43.264305" lon="-4.32713667">
        <ele>509.0</ele>
        <time>2018-05-19T09:22:55.873Z</time>
      </trkpt>
      <trkpt lat="43.264305" lon="-4.32713667">
        <ele>509.0</ele>
        <time>2018-05-19T09:22:56.858Z</time>
      </trkpt>
      <trkpt lat="43.26426333" lon="-4.327125">
        <ele>509.0</ele>
        <time>2018-05-19T09:22:57.844Z</time>
      </trkpt>
      <trkpt lat="43.26426333" lon="-4.327125">
        <ele>509.0</ele>
        <time>2018-05-19T09:22:58.848Z</time>
      </trkpt>
      <trkpt lat="43.26422333" lon="-4.327115">
        <ele>509.0</ele>
        <time>2018-05-19T09:22:59.882Z</time>
      </trkpt>
      <trkpt lat="43.26420167" lon="-4.32710833">
        <ele>509.0</ele>
        <time>2018-05-19T09:23:00.851Z</time>
      </trkpt>
      <trkpt lat="43.26420167" lon="-4.32710833">
        <ele>509.0</ele>
        <time>2018-05-19T09:23:01.880Z</time>
      </trkpt>
      <trkpt lat="43.26416167" lon="-4.327095">
        <ele>510.0</ele>
        <time>2018-05-19T09:23:02.882Z</time>
      </trkpt>
      <trkpt lat="43.26416167" lon="-4.327095">
        <ele>510.0</ele>
        <time>2018-05-19T09:23:03.873Z</time>
      </trkpt>
      <trkpt lat="43.26412" lon="-4.32708">
        <ele>510.0</ele>
        <time>2018-05-19T09:23:04.857Z</time>
      </trkpt>
      <trkpt lat="43.26412" lon="-4.32708">
        <ele>510.0</ele>
        <time>2018-05-19T09:23:05.881Z</time>
      </trkpt>
      <trkpt lat="43.26408167" lon="-4.32706167">
        <ele>510.0</ele>
        <time>2018-05-19T09:23:06.882Z</time>
      </trkpt>
      <trkpt lat="43.26408167" lon="-4.32706167">
        <ele>510.0</ele>
        <time>2018-05-19T09:23:07.876Z</time>
      </trkpt>
      <trkpt lat="43.264035" lon="-4.32704167">
        <ele>510.0</ele>
        <time>2018-05-19T09:23:08.844Z</time>
      </trkpt>
      <trkpt lat="43.264035" lon="-4.32704167">
        <ele>510.0</ele>
        <time>2018-05-19T09:23:09.877Z</time>
      </trkpt>
      <trkpt lat="43.26399667" lon="-4.32701667">
        <ele>510.0</ele>
        <time>2018-05-19T09:23:10.883Z</time>
      </trkpt>
      <trkpt lat="43.26399667" lon="-4.32701667">
        <ele>510.0</ele>
        <time>2018-05-19T09:23:11.876Z</time>
      </trkpt>
      <trkpt lat="43.263955" lon="-4.326995">
        <ele>510.0</ele>
        <time>2018-05-19T09:23:12.881Z</time>
      </trkpt>
      <trkpt lat="43.263955" lon="-4.326995">
        <ele>510.0</ele>
        <time>2018-05-19T09:23:13.872Z</time>
      </trkpt>
      <trkpt lat="43.263915" lon="-4.32697167">
        <ele>511.0</ele>
        <time>2018-05-19T09:23:14.855Z</time>
      </trkpt>
      <trkpt lat="43.263915" lon="-4.32697167">
        <ele>511.0</ele>
        <time>2018-05-19T09:23:15.879Z</time>
      </trkpt>
      <trkpt lat="43.26387333" lon="-4.32695333">
        <ele>511.0</ele>
        <time>2018-05-19T09:23:16.846Z</time>
      </trkpt>
      <trkpt lat="43.26385333" lon="-4.32694833">
        <ele>511.0</ele>
        <time>2018-05-19T09:23:17.883Z</time>
      </trkpt>
      <trkpt lat="43.26383167" lon="-4.32694333">
        <ele>511.0</ele>
        <time>2018-05-19T09:23:18.844Z</time>
      </trkpt>
      <trkpt lat="43.26383167" lon="-4.32694333">
        <ele>511.0</ele>
        <time>2018-05-19T09:23:19.880Z</time>
      </trkpt>
      <trkpt lat="43.26378667" lon="-4.32693333">
        <ele>512.0</ele>
        <time>2018-05-19T09:23:20.879Z</time>
      </trkpt>
      <trkpt lat="43.26378667" lon="-4.32693333">
        <ele>512.0</ele>
        <time>2018-05-19T09:23:21.866Z</time>
      </trkpt>
      <trkpt lat="43.26374333" lon="-4.32693">
        <ele>512.0</ele>
        <time>2018-05-19T09:23:22.854Z</time>
      </trkpt>
      <trkpt lat="43.26374333" lon="-4.32693">
        <ele>512.0</ele>
        <time>2018-05-19T09:23:23.879Z</time>
      </trkpt>
      <trkpt lat="43.26369667" lon="-4.32693167">
        <ele>512.0</ele>
        <time>2018-05-19T09:23:24.881Z</time>
      </trkpt>
      <trkpt lat="43.26369667" lon="-4.32693167">
        <ele>512.0</ele>
        <time>2018-05-19T09:23:25.877Z</time>
      </trkpt>
      <trkpt lat="43.26365667" lon="-4.32694">
        <ele>513.0</ele>
        <time>2018-05-19T09:23:26.883Z</time>
      </trkpt>
      <trkpt lat="43.26365667" lon="-4.32694">
        <ele>513.0</ele>
        <time>2018-05-19T09:23:27.878Z</time>
      </trkpt>
      <trkpt lat="43.26361333" lon="-4.32694">
        <ele>513.0</ele>
        <time>2018-05-19T09:23:28.882Z</time>
      </trkpt>
      <trkpt lat="43.26361333" lon="-4.32694">
        <ele>513.0</ele>
        <time>2018-05-19T09:23:29.872Z</time>
      </trkpt>
      <trkpt lat="43.26357" lon="-4.326935">
        <ele>514.0</ele>
        <time>2018-05-19T09:23:30.858Z</time>
      </trkpt>
      <trkpt lat="43.26357" lon="-4.326935">
        <ele>514.0</ele>
        <time>2018-05-19T09:23:31.882Z</time>
      </trkpt>
      <trkpt lat="43.263525" lon="-4.326925">
        <ele>515.0</ele>
        <time>2018-05-19T09:23:32.882Z</time>
      </trkpt>
      <trkpt lat="43.263525" lon="-4.326925">
        <ele>515.0</ele>
        <time>2018-05-19T09:23:33.873Z</time>
      </trkpt>
      <trkpt lat="43.26347667" lon="-4.32692">
        <ele>515.0</ele>
        <time>2018-05-19T09:23:34.857Z</time>
      </trkpt>
      <trkpt lat="43.26347667" lon="-4.32692">
        <ele>515.0</ele>
        <time>2018-05-19T09:23:35.882Z</time>
      </trkpt>
      <trkpt lat="43.26342833" lon="-4.32691167">
        <ele>515.0</ele>
        <time>2018-05-19T09:23:36.881Z</time>
      </trkpt>
      <trkpt lat="43.26342833" lon="-4.32691167">
        <ele>515.0</ele>
        <time>2018-05-19T09:23:37.878Z</time>
      </trkpt>
      <trkpt lat="43.26338" lon="-4.32689833">
        <ele>516.0</ele>
        <time>2018-05-19T09:23:38.881Z</time>
      </trkpt>
      <trkpt lat="43.26338" lon="-4.32689833">
        <ele>516.0</ele>
        <time>2018-05-19T09:23:39.880Z</time>
      </trkpt>
      <trkpt lat="43.263335" lon="-4.32688333">
        <ele>516.0</ele>
        <time>2018-05-19T09:23:40.874Z</time>
      </trkpt>
      <trkpt lat="43.26331167" lon="-4.32687833">
        <ele>516.0</ele>
        <time>2018-05-19T09:23:41.881Z</time>
      </trkpt>
      <trkpt lat="43.26331167" lon="-4.32687833">
        <ele>516.0</ele>
        <time>2018-05-19T09:23:42.877Z</time>
      </trkpt>
      <trkpt lat="43.26326333" lon="-4.32687167">
        <ele>516.0</ele>
        <time>2018-05-19T09:23:43.874Z</time>
      </trkpt>
      <trkpt lat="43.26326333" lon="-4.32687167">
        <ele>516.0</ele>
        <time>2018-05-19T09:23:44.875Z</time>
      </trkpt>
      <trkpt lat="43.26321333" lon="-4.32686667">
        <ele>516.0</ele>
        <time>2018-05-19T09:23:45.859Z</time>
      </trkpt>
      <trkpt lat="43.26321333" lon="-4.32686667">
        <ele>516.0</ele>
        <time>2018-05-19T09:23:46.870Z</time>
      </trkpt>
      <trkpt lat="43.263165" lon="-4.32686">
        <ele>517.0</ele>
        <time>2018-05-19T09:23:47.877Z</time>
      </trkpt>
      <trkpt lat="43.263165" lon="-4.32686">
        <ele>517.0</ele>
        <time>2018-05-19T09:23:48.883Z</time>
      </trkpt>
      <trkpt lat="43.26311667" lon="-4.32685">
        <ele>517.0</ele>
        <time>2018-05-19T09:23:49.882Z</time>
      </trkpt>
      <trkpt lat="43.26311667" lon="-4.32685">
        <ele>517.0</ele>
        <time>2018-05-19T09:23:50.870Z</time>
      </trkpt>
      <trkpt lat="43.26306833" lon="-4.32684333">
        <ele>517.0</ele>
        <time>2018-05-19T09:23:51.855Z</time>
      </trkpt>
      <trkpt lat="43.263045" lon="-4.32684333">
        <ele>517.0</ele>
        <time>2018-05-19T09:23:52.881Z</time>
      </trkpt>
      <trkpt lat="43.263045" lon="-4.32684333">
        <ele>517.0</ele>
        <time>2018-05-19T09:23:53.872Z</time>
      </trkpt>
      <trkpt lat="43.26300167" lon="-4.32684167">
        <ele>517.0</ele>
        <time>2018-05-19T09:23:54.881Z</time>
      </trkpt>
      <trkpt lat="43.26300167" lon="-4.32684167">
        <ele>517.0</ele>
        <time>2018-05-19T09:23:55.879Z</time>
      </trkpt>
      <trkpt lat="43.26295667" lon="-4.32684">
        <ele>518.0</ele>
        <time>2018-05-19T09:23:56.881Z</time>
      </trkpt>
      <trkpt lat="43.26295667" lon="-4.32684">
        <ele>518.0</ele>
        <time>2018-05-19T09:23:57.879Z</time>
      </trkpt>
      <trkpt lat="43.26290833" lon="-4.326845">
        <ele>518.0</ele>
        <time>2018-05-19T09:23:58.882Z</time>
      </trkpt>
      <trkpt lat="43.26290833" lon="-4.326845">
        <ele>518.0</ele>
        <time>2018-05-19T09:23:59.845Z</time>
      </trkpt>
      <trkpt lat="43.262865" lon="-4.32685333">
        <ele>519.0</ele>
        <time>2018-05-19T09:24:00.865Z</time>
      </trkpt>
      <trkpt lat="43.262865" lon="-4.32685333">
        <ele>519.0</ele>
        <time>2018-05-19T09:24:01.847Z</time>
      </trkpt>
      <trkpt lat="43.26282" lon="-4.32685667">
        <ele>519.0</ele>
        <time>2018-05-19T09:24:02.880Z</time>
      </trkpt>
      <trkpt lat="43.26282" lon="-4.32685667">
        <ele>519.0</ele>
        <time>2018-05-19T09:24:03.872Z</time>
      </trkpt>
      <trkpt lat="43.26277833" lon="-4.32686167">
        <ele>519.0</ele>
        <time>2018-05-19T09:24:04.858Z</time>
      </trkpt>
      <trkpt lat="43.26277833" lon="-4.32686167">
        <ele>519.0</ele>
        <time>2018-05-19T09:24:05.844Z</time>
      </trkpt>
      <trkpt lat="43.26273833" lon="-4.326865">
        <ele>520.0</ele>
        <time>2018-05-19T09:24:06.882Z</time>
      </trkpt>
      <trkpt lat="43.26273833" lon="-4.326865">
        <ele>520.0</ele>
        <time>2018-05-19T09:24:07.876Z</time>
      </trkpt>
      <trkpt lat="43.262695" lon="-4.32687167">
        <ele>520.0</ele>
        <time>2018-05-19T09:24:08.882Z</time>
      </trkpt>
      <trkpt lat="43.262695" lon="-4.32687167">
        <ele>520.0</ele>
        <time>2018-05-19T09:24:09.845Z</time>
      </trkpt>
      <trkpt lat="43.262655" lon="-4.32687333">
        <ele>521.0</ele>
        <time>2018-05-19T09:24:10.880Z</time>
      </trkpt>
      <trkpt lat="43.262655" lon="-4.32687333">
        <ele>521.0</ele>
        <time>2018-05-19T09:24:11.877Z</time>
      </trkpt>
      <trkpt lat="43.262615" lon="-4.32687667">
        <ele>521.0</ele>
        <time>2018-05-19T09:24:12.881Z</time>
      </trkpt>
      <trkpt lat="43.262615" lon="-4.32687667">
        <ele>521.0</ele>
        <time>2018-05-19T09:24:13.872Z</time>
      </trkpt>
      <trkpt lat="43.26256833" lon="-4.32688">
        <ele>521.0</ele>
        <time>2018-05-19T09:24:14.861Z</time>
      </trkpt>
      <trkpt lat="43.26256833" lon="-4.32688">
        <ele>521.0</ele>
        <time>2018-05-19T09:24:15.846Z</time>
      </trkpt>
      <trkpt lat="43.26252" lon="-4.32687667">
        <ele>521.0</ele>
        <time>2018-05-19T09:24:16.882Z</time>
      </trkpt>
      <trkpt lat="43.26252" lon="-4.32687667">
        <ele>521.0</ele>
        <time>2018-05-19T09:24:17.876Z</time>
      </trkpt>
      <trkpt lat="43.26247333" lon="-4.32687333">
        <ele>521.0</ele>
        <time>2018-05-19T09:24:18.882Z</time>
      </trkpt>
      <trkpt lat="43.26247333" lon="-4.32687333">
        <ele>521.0</ele>
        <time>2018-05-19T09:24:19.879Z</time>
      </trkpt>
      <trkpt lat="43.26242833" lon="-4.32686167">
        <ele>522.0</ele>
        <time>2018-05-19T09:24:20.881Z</time>
      </trkpt>
      <trkpt lat="43.26240667" lon="-4.32685667">
        <ele>522.0</ele>
        <time>2018-05-19T09:24:21.882Z</time>
      </trkpt>
      <trkpt lat="43.26240667" lon="-4.32685667">
        <ele>522.0</ele>
        <time>2018-05-19T09:24:22.880Z</time>
      </trkpt>
      <trkpt lat="43.26236333" lon="-4.32683667">
        <ele>522.0</ele>
        <time>2018-05-19T09:24:23.874Z</time>
      </trkpt>
      <trkpt lat="43.26234333" lon="-4.326825">
        <ele>523.0</ele>
        <time>2018-05-19T09:24:24.879Z</time>
      </trkpt>
      <trkpt lat="43.26234333" lon="-4.326825">
        <ele>523.0</ele>
        <time>2018-05-19T09:24:25.877Z</time>
      </trkpt>
      <trkpt lat="43.2623" lon="-4.3268">
        <ele>523.0</ele>
        <time>2018-05-19T09:24:26.882Z</time>
      </trkpt>
      <trkpt lat="43.2623" lon="-4.3268">
        <ele>523.0</ele>
        <time>2018-05-19T09:24:27.877Z</time>
      </trkpt>
      <trkpt lat="43.26225833" lon="-4.326775">
        <ele>523.0</ele>
        <time>2018-05-19T09:24:28.879Z</time>
      </trkpt>
      <trkpt lat="43.26225833" lon="-4.326775">
        <ele>523.0</ele>
        <time>2018-05-19T09:24:29.877Z</time>
      </trkpt>
      <trkpt lat="43.26221833" lon="-4.326755">
        <ele>523.0</ele>
        <time>2018-05-19T09:24:30.881Z</time>
      </trkpt>
      <trkpt lat="43.26221833" lon="-4.326755">
        <ele>523.0</ele>
        <time>2018-05-19T09:24:31.875Z</time>
      </trkpt>
      <trkpt lat="43.26218" lon="-4.32673667">
        <ele>524.0</ele>
        <time>2018-05-19T09:24:32.880Z</time>
      </trkpt>
      <trkpt lat="43.26218" lon="-4.32673667">
        <ele>524.0</ele>
        <time>2018-05-19T09:24:33.871Z</time>
      </trkpt>
      <trkpt lat="43.26213833" lon="-4.32672667">
        <ele>524.0</ele>
        <time>2018-05-19T09:24:34.857Z</time>
      </trkpt>
      <trkpt lat="43.26213833" lon="-4.32672667">
        <ele>524.0</ele>
        <time>2018-05-19T09:24:35.883Z</time>
      </trkpt>
      <trkpt lat="43.26209333" lon="-4.32671667">
        <ele>524.0</ele>
        <time>2018-05-19T09:24:36.881Z</time>
      </trkpt>
      <trkpt lat="43.26209333" lon="-4.32671667">
        <ele>524.0</ele>
        <time>2018-05-19T09:24:37.876Z</time>
      </trkpt>
      <trkpt lat="43.26205" lon="-4.32670833">
        <ele>524.0</ele>
        <time>2018-05-19T09:24:38.880Z</time>
      </trkpt>
      <trkpt lat="43.262025" lon="-4.32670833">
        <ele>524.0</ele>
        <time>2018-05-19T09:24:39.846Z</time>
      </trkpt>
      <trkpt lat="43.262025" lon="-4.32670833">
        <ele>524.0</ele>
        <time>2018-05-19T09:24:40.869Z</time>
      </trkpt>
      <trkpt lat="43.26197833" lon="-4.32670667">
        <ele>525.0</ele>
        <time>2018-05-19T09:24:41.854Z</time>
      </trkpt>
      <trkpt lat="43.26195833" lon="-4.32670833">
        <ele>525.0</ele>
        <time>2018-05-19T09:24:42.878Z</time>
      </trkpt>
      <trkpt lat="43.26195833" lon="-4.32670833">
        <ele>525.0</ele>
        <time>2018-05-19T09:24:43.871Z</time>
      </trkpt>
      <trkpt lat="43.26191333" lon="-4.32670833">
        <ele>525.0</ele>
        <time>2018-05-19T09:24:44.855Z</time>
      </trkpt>
      <trkpt lat="43.26191333" lon="-4.32670833">
        <ele>525.0</ele>
        <time>2018-05-19T09:24:45.846Z</time>
      </trkpt>
      <trkpt lat="43.26186833" lon="-4.32670333">
        <ele>526.0</ele>
        <time>2018-05-19T09:24:46.879Z</time>
      </trkpt>
      <trkpt lat="43.26184667" lon="-4.32669833">
        <ele>526.0</ele>
        <time>2018-05-19T09:24:47.845Z</time>
      </trkpt>
      <trkpt lat="43.261825" lon="-4.32669">
        <ele>526.0</ele>
        <time>2018-05-19T09:24:48.850Z</time>
      </trkpt>
      <trkpt lat="43.261825" lon="-4.32669">
        <ele>526.0</ele>
        <time>2018-05-19T09:24:49.883Z</time>
      </trkpt>
      <trkpt lat="43.26177667" lon="-4.32667833">
        <ele>526.0</ele>
        <time>2018-05-19T09:24:50.882Z</time>
      </trkpt>
      <trkpt lat="43.26177667" lon="-4.32667833">
        <ele>526.0</ele>
        <time>2018-05-19T09:24:51.878Z</time>
      </trkpt>
      <trkpt lat="43.26173333" lon="-4.32667">
        <ele>527.0</ele>
        <time>2018-05-19T09:24:52.882Z</time>
      </trkpt>
      <trkpt lat="43.26173333" lon="-4.32667">
        <ele>527.0</ele>
        <time>2018-05-19T09:24:53.872Z</time>
      </trkpt>
      <trkpt lat="43.26169167" lon="-4.32664667">
        <ele>527.0</ele>
        <time>2018-05-19T09:24:54.882Z</time>
      </trkpt>
      <trkpt lat="43.26169167" lon="-4.32664667">
        <ele>527.0</ele>
        <time>2018-05-19T09:24:55.878Z</time>
      </trkpt>
      <trkpt lat="43.26164833" lon="-4.32662333">
        <ele>528.0</ele>
        <time>2018-05-19T09:24:56.880Z</time>
      </trkpt>
      <trkpt lat="43.26163" lon="-4.32661">
        <ele>528.0</ele>
        <time>2018-05-19T09:24:57.882Z</time>
      </trkpt>
      <trkpt lat="43.26163" lon="-4.32661">
        <ele>528.0</ele>
        <time>2018-05-19T09:24:58.880Z</time>
      </trkpt>
      <trkpt lat="43.26159" lon="-4.32658333">
        <ele>528.0</ele>
        <time>2018-05-19T09:24:59.846Z</time>
      </trkpt>
      <trkpt lat="43.26157" lon="-4.32657167">
        <ele>528.0</ele>
        <time>2018-05-19T09:25:00.881Z</time>
      </trkpt>
      <trkpt lat="43.26157" lon="-4.32657167">
        <ele>528.0</ele>
        <time>2018-05-19T09:25:01.876Z</time>
      </trkpt>
      <trkpt lat="43.261525" lon="-4.32656">
        <ele>529.0</ele>
        <time>2018-05-19T09:25:02.880Z</time>
      </trkpt>
      <trkpt lat="43.26150167" lon="-4.32655667">
        <ele>529.0</ele>
        <time>2018-05-19T09:25:03.873Z</time>
      </trkpt>
      <trkpt lat="43.26150167" lon="-4.32655667">
        <ele>529.0</ele>
        <time>2018-05-19T09:25:04.876Z</time>
      </trkpt>
      <trkpt lat="43.261455" lon="-4.32654333">
        <ele>529.0</ele>
        <time>2018-05-19T09:25:05.880Z</time>
      </trkpt>
      <trkpt lat="43.26143333" lon="-4.326535">
        <ele>530.0</ele>
        <time>2018-05-19T09:25:06.882Z</time>
      </trkpt>
      <trkpt lat="43.26143333" lon="-4.326535">
        <ele>530.0</ele>
        <time>2018-05-19T09:25:07.878Z</time>
      </trkpt>
      <trkpt lat="43.26139" lon="-4.32652667">
        <ele>531.0</ele>
        <time>2018-05-19T09:25:08.880Z</time>
      </trkpt>
      <trkpt lat="43.26139" lon="-4.32652667">
        <ele>531.0</ele>
        <time>2018-05-19T09:25:09.884Z</time>
      </trkpt>
      <trkpt lat="43.261345" lon="-4.32652167">
        <ele>531.0</ele>
        <time>2018-05-19T09:25:10.883Z</time>
      </trkpt>
      <trkpt lat="43.26132" lon="-4.32651833">
        <ele>531.0</ele>
        <time>2018-05-19T09:25:11.882Z</time>
      </trkpt>
      <trkpt lat="43.26129833" lon="-4.32651667">
        <ele>531.0</ele>
        <time>2018-05-19T09:25:12.881Z</time>
      </trkpt>
      <trkpt lat="43.26129833" lon="-4.32651667">
        <ele>531.0</ele>
        <time>2018-05-19T09:25:13.871Z</time>
      </trkpt>
      <trkpt lat="43.26124833" lon="-4.32651333">
        <ele>531.0</ele>
        <time>2018-05-19T09:25:14.856Z</time>
      </trkpt>
      <trkpt lat="43.26124833" lon="-4.32651333">
        <ele>531.0</ele>
        <time>2018-05-19T09:25:15.881Z</time>
      </trkpt>
      <trkpt lat="43.26120333" lon="-4.32650667">
        <ele>532.0</ele>
        <time>2018-05-19T09:25:16.880Z</time>
      </trkpt>
      <trkpt lat="43.26120333" lon="-4.32650667">
        <ele>532.0</ele>
        <time>2018-05-19T09:25:17.873Z</time>
      </trkpt>
      <trkpt lat="43.26116167" lon="-4.32650667">
        <ele>532.0</ele>
        <time>2018-05-19T09:25:18.879Z</time>
      </trkpt>
      <trkpt lat="43.26116167" lon="-4.32650667">
        <ele>532.0</ele>
        <time>2018-05-19T09:25:19.877Z</time>
      </trkpt>
      <trkpt lat="43.26111333" lon="-4.32650167">
        <ele>532.0</ele>
        <time>2018-05-19T09:25:20.877Z</time>
      </trkpt>
      <trkpt lat="43.26109167" lon="-4.3265">
        <ele>532.0</ele>
        <time>2018-05-19T09:25:21.881Z</time>
      </trkpt>
      <trkpt lat="43.26107" lon="-4.32649833">
        <ele>532.0</ele>
        <time>2018-05-19T09:25:22.881Z</time>
      </trkpt>
      <trkpt lat="43.26107" lon="-4.32649833">
        <ele>532.0</ele>
        <time>2018-05-19T09:25:23.871Z</time>
      </trkpt>
      <trkpt lat="43.26103167" lon="-4.326495">
        <ele>533.0</ele>
        <time>2018-05-19T09:25:24.856Z</time>
      </trkpt>
      <trkpt lat="43.26103167" lon="-4.326495">
        <ele>533.0</ele>
        <time>2018-05-19T09:25:25.851Z</time>
      </trkpt>
      <trkpt lat="43.26099333" lon="-4.32649167">
        <ele>534.0</ele>
        <time>2018-05-19T09:25:26.881Z</time>
      </trkpt>
      <trkpt lat="43.26099333" lon="-4.32649167">
        <ele>534.0</ele>
        <time>2018-05-19T09:25:27.876Z</time>
      </trkpt>
      <trkpt lat="43.26094833" lon="-4.32649">
        <ele>534.0</ele>
        <time>2018-05-19T09:25:28.881Z</time>
      </trkpt>
      <trkpt lat="43.26094833" lon="-4.32649">
        <ele>534.0</ele>
        <time>2018-05-19T09:25:29.876Z</time>
      </trkpt>
      <trkpt lat="43.26090333" lon="-4.326485">
        <ele>534.0</ele>
        <time>2018-05-19T09:25:30.873Z</time>
      </trkpt>
      <trkpt lat="43.260885" lon="-4.32648">
        <ele>534.0</ele>
        <time>2018-05-19T09:25:31.880Z</time>
      </trkpt>
      <trkpt lat="43.260885" lon="-4.32648">
        <ele>534.0</ele>
        <time>2018-05-19T09:25:32.875Z</time>
      </trkpt>
      <trkpt lat="43.26084333" lon="-4.32646667">
        <ele>535.0</ele>
        <time>2018-05-19T09:25:33.873Z</time>
      </trkpt>
      <trkpt lat="43.26082167" lon="-4.32646">
        <ele>535.0</ele>
        <time>2018-05-19T09:25:34.881Z</time>
      </trkpt>
      <trkpt lat="43.2608" lon="-4.326455">
        <ele>535.0</ele>
        <time>2018-05-19T09:25:35.850Z</time>
      </trkpt>
      <trkpt lat="43.26077833" lon="-4.32644667">
        <ele>535.0</ele>
        <time>2018-05-19T09:25:36.880Z</time>
      </trkpt>
      <trkpt lat="43.26075833" lon="-4.32644">
        <ele>535.0</ele>
        <time>2018-05-19T09:25:37.883Z</time>
      </trkpt>
      <trkpt lat="43.26075833" lon="-4.32644">
        <ele>535.0</ele>
        <time>2018-05-19T09:25:38.873Z</time>
      </trkpt>
      <trkpt lat="43.26071167" lon="-4.32643333">
        <ele>535.0</ele>
        <time>2018-05-19T09:25:39.856Z</time>
      </trkpt>
      <trkpt lat="43.26071167" lon="-4.32643333">
        <ele>535.0</ele>
        <time>2018-05-19T09:25:40.852Z</time>
      </trkpt>
      <trkpt lat="43.26067" lon="-4.32642167">
        <ele>536.0</ele>
        <time>2018-05-19T09:25:41.881Z</time>
      </trkpt>
      <trkpt lat="43.26067" lon="-4.32642167">
        <ele>536.0</ele>
        <time>2018-05-19T09:25:42.875Z</time>
      </trkpt>
      <trkpt lat="43.260625" lon="-4.32641167">
        <ele>536.0</ele>
        <time>2018-05-19T09:25:43.873Z</time>
      </trkpt>
      <trkpt lat="43.26060667" lon="-4.3264">
        <ele>536.0</ele>
        <time>2018-05-19T09:25:44.851Z</time>
      </trkpt>
      <trkpt lat="43.26060667" lon="-4.3264">
        <ele>536.0</ele>
        <time>2018-05-19T09:25:45.855Z</time>
      </trkpt>
      <trkpt lat="43.26056" lon="-4.32637833">
        <ele>536.0</ele>
        <time>2018-05-19T09:25:46.849Z</time>
      </trkpt>
      <trkpt lat="43.26056" lon="-4.32637833">
        <ele>536.0</ele>
        <time>2018-05-19T09:25:47.855Z</time>
      </trkpt>
      <trkpt lat="43.26052" lon="-4.326365">
        <ele>536.0</ele>
        <time>2018-05-19T09:25:48.863Z</time>
      </trkpt>
      <trkpt lat="43.26050167" lon="-4.32635333">
        <ele>537.0</ele>
        <time>2018-05-19T09:25:49.849Z</time>
      </trkpt>
      <trkpt lat="43.26050167" lon="-4.32635333">
        <ele>537.0</ele>
        <time>2018-05-19T09:25:50.876Z</time>
      </trkpt>
      <trkpt lat="43.26046167" lon="-4.32633">
        <ele>537.0</ele>
        <time>2018-05-19T09:25:51.881Z</time>
      </trkpt>
      <trkpt lat="43.26043833" lon="-4.32632">
        <ele>537.0</ele>
        <time>2018-05-19T09:25:52.882Z</time>
      </trkpt>
      <trkpt lat="43.26043833" lon="-4.32632">
        <ele>537.0</ele>
        <time>2018-05-19T09:25:53.869Z</time>
      </trkpt>
      <trkpt lat="43.26039667" lon="-4.3263">
        <ele>537.0</ele>
        <time>2018-05-19T09:25:54.853Z</time>
      </trkpt>
      <trkpt lat="43.26039667" lon="-4.3263">
        <ele>537.0</ele>
        <time>2018-05-19T09:25:55.880Z</time>
      </trkpt>
      <trkpt lat="43.260355" lon="-4.32627333">
        <ele>537.0</ele>
        <time>2018-05-19T09:25:56.881Z</time>
      </trkpt>
      <trkpt lat="43.260355" lon="-4.32627333">
        <ele>537.0</ele>
        <time>2018-05-19T09:25:57.875Z</time>
      </trkpt>
      <trkpt lat="43.260315" lon="-4.32624667">
        <ele>538.0</ele>
        <time>2018-05-19T09:25:58.881Z</time>
      </trkpt>
      <trkpt lat="43.260315" lon="-4.32624667">
        <ele>538.0</ele>
        <time>2018-05-19T09:25:59.877Z</time>
      </trkpt>
      <trkpt lat="43.260275" lon="-4.326225">
        <ele>538.0</ele>
        <time>2018-05-19T09:26:00.881Z</time>
      </trkpt>
      <trkpt lat="43.260275" lon="-4.326225">
        <ele>538.0</ele>
        <time>2018-05-19T09:26:01.876Z</time>
      </trkpt>
      <trkpt lat="43.26023333" lon="-4.3262">
        <ele>538.0</ele>
        <time>2018-05-19T09:26:02.880Z</time>
      </trkpt>
      <trkpt lat="43.26023333" lon="-4.3262">
        <ele>538.0</ele>
        <time>2018-05-19T09:26:03.870Z</time>
      </trkpt>
      <trkpt lat="43.26019667" lon="-4.32618167">
        <ele>539.0</ele>
        <time>2018-05-19T09:26:04.856Z</time>
      </trkpt>
      <trkpt lat="43.26019667" lon="-4.32618167">
        <ele>539.0</ele>
        <time>2018-05-19T09:26:05.882Z</time>
      </trkpt>
      <trkpt lat="43.26016" lon="-4.32616">
        <ele>539.0</ele>
        <time>2018-05-19T09:26:06.880Z</time>
      </trkpt>
      <trkpt lat="43.26016" lon="-4.32616">
        <ele>539.0</ele>
        <time>2018-05-19T09:26:07.873Z</time>
      </trkpt>
      <trkpt lat="43.26012" lon="-4.32614167">
        <ele>540.0</ele>
        <time>2018-05-19T09:26:08.882Z</time>
      </trkpt>
      <trkpt lat="43.26012" lon="-4.32614167">
        <ele>540.0</ele>
        <time>2018-05-19T09:26:09.873Z</time>
      </trkpt>
      <trkpt lat="43.260085" lon="-4.32612667">
        <ele>540.0</ele>
        <time>2018-05-19T09:26:10.881Z</time>
      </trkpt>
      <trkpt lat="43.260085" lon="-4.32612667">
        <ele>540.0</ele>
        <time>2018-05-19T09:26:11.876Z</time>
      </trkpt>
      <trkpt lat="43.26004833" lon="-4.32611">
        <ele>540.0</ele>
        <time>2018-05-19T09:26:12.882Z</time>
      </trkpt>
      <trkpt lat="43.26004833" lon="-4.32611">
        <ele>540.0</ele>
        <time>2018-05-19T09:26:13.876Z</time>
      </trkpt>
      <trkpt lat="43.26001333" lon="-4.32609167">
        <ele>541.0</ele>
        <time>2018-05-19T09:26:14.879Z</time>
      </trkpt>
      <trkpt lat="43.26001333" lon="-4.32609167">
        <ele>541.0</ele>
        <time>2018-05-19T09:26:15.845Z</time>
      </trkpt>
      <trkpt lat="43.25997833" lon="-4.32606833">
        <ele>541.0</ele>
        <time>2018-05-19T09:26:16.882Z</time>
      </trkpt>
      <trkpt lat="43.25997833" lon="-4.32606833">
        <ele>541.0</ele>
        <time>2018-05-19T09:26:17.875Z</time>
      </trkpt>
      <trkpt lat="43.259945" lon="-4.326045">
        <ele>542.0</ele>
        <time>2018-05-19T09:26:18.881Z</time>
      </trkpt>
      <trkpt lat="43.259945" lon="-4.326045">
        <ele>542.0</ele>
        <time>2018-05-19T09:26:19.872Z</time>
      </trkpt>
      <trkpt lat="43.25991167" lon="-4.326025">
        <ele>542.0</ele>
        <time>2018-05-19T09:26:20.881Z</time>
      </trkpt>
      <trkpt lat="43.259895" lon="-4.326015">
        <ele>542.0</ele>
        <time>2018-05-19T09:26:21.881Z</time>
      </trkpt>
      <trkpt lat="43.25987667" lon="-4.326005">
        <ele>542.0</ele>
        <time>2018-05-19T09:26:22.878Z</time>
      </trkpt>
      <trkpt lat="43.25987667" lon="-4.326005">
        <ele>542.0</ele>
        <time>2018-05-19T09:26:23.871Z</time>
      </trkpt>
      <trkpt lat="43.25984167" lon="-4.32598167">
        <ele>543.0</ele>
        <time>2018-05-19T09:26:24.880Z</time>
      </trkpt>
      <trkpt lat="43.25984167" lon="-4.32598167">
        <ele>543.0</ele>
        <time>2018-05-19T09:26:25.874Z</time>
      </trkpt>
      <trkpt lat="43.25981333" lon="-4.32596667">
        <ele>543.0</ele>
        <time>2018-05-19T09:26:26.879Z</time>
      </trkpt>
      <trkpt lat="43.25979833" lon="-4.32595833">
        <ele>543.0</ele>
        <time>2018-05-19T09:26:27.880Z</time>
      </trkpt>
      <trkpt lat="43.259785" lon="-4.32595167">
        <ele>543.0</ele>
        <time>2018-05-19T09:26:28.881Z</time>
      </trkpt>
      <trkpt lat="43.259785" lon="-4.32595167">
        <ele>543.0</ele>
        <time>2018-05-19T09:26:29.878Z</time>
      </trkpt>
      <trkpt lat="43.25976667" lon="-4.32594167">
        <ele>543.0</ele>
        <time>2018-05-19T09:26:30.880Z</time>
      </trkpt>
      <trkpt lat="43.25976667" lon="-4.32594167">
        <ele>543.0</ele>
        <time>2018-05-19T09:26:31.876Z</time>
      </trkpt>
      <trkpt lat="43.25974667" lon="-4.32592167">
        <ele>543.0</ele>
        <time>2018-05-19T09:26:32.880Z</time>
      </trkpt>
      <trkpt lat="43.25974667" lon="-4.32592167">
        <ele>543.0</ele>
        <time>2018-05-19T09:26:33.870Z</time>
      </trkpt>
      <trkpt lat="43.25973" lon="-4.32588333">
        <ele>544.0</ele>
        <time>2018-05-19T09:26:34.855Z</time>
      </trkpt>
      <trkpt lat="43.25973" lon="-4.32588333">
        <ele>544.0</ele>
        <time>2018-05-19T09:26:35.881Z</time>
      </trkpt>
      <trkpt lat="43.259735" lon="-4.32583167">
        <ele>544.0</ele>
        <time>2018-05-19T09:26:36.881Z</time>
      </trkpt>
      <trkpt lat="43.259735" lon="-4.32583167">
        <ele>544.0</ele>
        <time>2018-05-19T09:26:37.878Z</time>
      </trkpt>
      <trkpt lat="43.25975833" lon="-4.32578667">
        <ele>545.0</ele>
        <time>2018-05-19T09:26:38.878Z</time>
      </trkpt>
      <trkpt lat="43.25977667" lon="-4.32577667">
        <ele>545.0</ele>
        <time>2018-05-19T09:26:39.880Z</time>
      </trkpt>
      <trkpt lat="43.25977667" lon="-4.32577667">
        <ele>545.0</ele>
        <time>2018-05-19T09:26:40.870Z</time>
      </trkpt>
      <trkpt lat="43.25981833" lon="-4.32578667">
        <ele>545.0</ele>
        <time>2018-05-19T09:26:41.857Z</time>
      </trkpt>
      <trkpt lat="43.25983667" lon="-4.325795">
        <ele>545.0</ele>
        <time>2018-05-19T09:26:42.855Z</time>
      </trkpt>
      <trkpt lat="43.25983667" lon="-4.325795">
        <ele>545.0</ele>
        <time>2018-05-19T09:26:43.880Z</time>
      </trkpt>
      <trkpt lat="43.25987333" lon="-4.325815">
        <ele>545.0</ele>
        <time>2018-05-19T09:26:44.879Z</time>
      </trkpt>
      <trkpt lat="43.25987333" lon="-4.325815">
        <ele>545.0</ele>
        <time>2018-05-19T09:26:45.846Z</time>
      </trkpt>
      <trkpt lat="43.25991333" lon="-4.32583833">
        <ele>545.0</ele>
        <time>2018-05-19T09:26:46.879Z</time>
      </trkpt>
      <trkpt lat="43.25993333" lon="-4.32584667">
        <ele>545.0</ele>
        <time>2018-05-19T09:26:47.845Z</time>
      </trkpt>
      <trkpt lat="43.25993333" lon="-4.32584667">
        <ele>545.0</ele>
        <time>2018-05-19T09:26:48.851Z</time>
      </trkpt>
      <trkpt lat="43.259975" lon="-4.32585667">
        <ele>546.0</ele>
        <time>2018-05-19T09:26:49.859Z</time>
      </trkpt>
      <trkpt lat="43.259975" lon="-4.32585667">
        <ele>546.0</ele>
        <time>2018-05-19T09:26:50.846Z</time>
      </trkpt>
      <trkpt lat="43.26002" lon="-4.32586333">
        <ele>546.0</ele>
        <time>2018-05-19T09:26:51.880Z</time>
      </trkpt>
      <trkpt lat="43.26004167" lon="-4.325865">
        <ele>546.0</ele>
        <time>2018-05-19T09:26:52.881Z</time>
      </trkpt>
      <trkpt lat="43.26004167" lon="-4.325865">
        <ele>546.0</ele>
        <time>2018-05-19T09:26:53.871Z</time>
      </trkpt>
      <trkpt lat="43.26008833" lon="-4.32586667">
        <ele>547.0</ele>
        <time>2018-05-19T09:26:54.855Z</time>
      </trkpt>
      <trkpt lat="43.26008833" lon="-4.32586667">
        <ele>547.0</ele>
        <time>2018-05-19T09:26:55.880Z</time>
      </trkpt>
      <trkpt lat="43.26013333" lon="-4.32586667">
        <ele>547.0</ele>
        <time>2018-05-19T09:26:56.880Z</time>
      </trkpt>
      <trkpt lat="43.26015333" lon="-4.32586667">
        <ele>547.0</ele>
        <time>2018-05-19T09:26:57.880Z</time>
      </trkpt>
      <trkpt lat="43.26015333" lon="-4.32586667">
        <ele>547.0</ele>
        <time>2018-05-19T09:26:58.876Z</time>
      </trkpt>
      <trkpt lat="43.26019333" lon="-4.32586833">
        <ele>548.0</ele>
        <time>2018-05-19T09:26:59.880Z</time>
      </trkpt>
      <trkpt lat="43.26021333" lon="-4.32586667">
        <ele>548.0</ele>
        <time>2018-05-19T09:27:00.880Z</time>
      </trkpt>
      <trkpt lat="43.26021333" lon="-4.32586667">
        <ele>548.0</ele>
        <time>2018-05-19T09:27:01.874Z</time>
      </trkpt>
      <trkpt lat="43.26025667" lon="-4.325865">
        <ele>548.0</ele>
        <time>2018-05-19T09:27:02.880Z</time>
      </trkpt>
      <trkpt lat="43.26025667" lon="-4.325865">
        <ele>548.0</ele>
        <time>2018-05-19T09:27:03.870Z</time>
      </trkpt>
      <trkpt lat="43.26030167" lon="-4.32587">
        <ele>549.0</ele>
        <time>2018-05-19T09:27:04.854Z</time>
      </trkpt>
      <trkpt lat="43.26030167" lon="-4.32587">
        <ele>549.0</ele>
        <time>2018-05-19T09:27:05.877Z</time>
      </trkpt>
      <trkpt lat="43.26034667" lon="-4.32587">
        <ele>549.0</ele>
        <time>2018-05-19T09:27:06.880Z</time>
      </trkpt>
      <trkpt lat="43.26034667" lon="-4.32587">
        <ele>549.0</ele>
        <time>2018-05-19T09:27:07.875Z</time>
      </trkpt>
      <trkpt lat="43.26039167" lon="-4.32587333">
        <ele>549.0</ele>
        <time>2018-05-19T09:27:08.877Z</time>
      </trkpt>
      <trkpt lat="43.260415" lon="-4.32587667">
        <ele>549.0</ele>
        <time>2018-05-19T09:27:09.880Z</time>
      </trkpt>
      <trkpt lat="43.26043833" lon="-4.32588167">
        <ele>550.0</ele>
        <time>2018-05-19T09:27:10.881Z</time>
      </trkpt>
      <trkpt lat="43.26046167" lon="-4.325885">
        <ele>550.0</ele>
        <time>2018-05-19T09:27:11.881Z</time>
      </trkpt>
      <trkpt lat="43.26046167" lon="-4.325885">
        <ele>550.0</ele>
        <time>2018-05-19T09:27:12.875Z</time>
      </trkpt>
      <trkpt lat="43.26050667" lon="-4.32589333">
        <ele>550.0</ele>
        <time>2018-05-19T09:27:13.869Z</time>
      </trkpt>
      <trkpt lat="43.26053" lon="-4.325895">
        <ele>550.0</ele>
        <time>2018-05-19T09:27:14.854Z</time>
      </trkpt>
      <trkpt lat="43.26055167" lon="-4.32589667">
        <ele>550.0</ele>
        <time>2018-05-19T09:27:15.872Z</time>
      </trkpt>
      <trkpt lat="43.26055167" lon="-4.32589667">
        <ele>550.0</ele>
        <time>2018-05-19T09:27:16.875Z</time>
      </trkpt>
      <trkpt lat="43.26059833" lon="-4.32589667">
        <ele>551.0</ele>
        <time>2018-05-19T09:27:17.880Z</time>
      </trkpt>
      <trkpt lat="43.26062167" lon="-4.325895">
        <ele>551.0</ele>
        <time>2018-05-19T09:27:18.880Z</time>
      </trkpt>
      <trkpt lat="43.26062167" lon="-4.325895">
        <ele>551.0</ele>
        <time>2018-05-19T09:27:19.875Z</time>
      </trkpt>
      <trkpt lat="43.26067" lon="-4.32588833">
        <ele>551.0</ele>
        <time>2018-05-19T09:27:20.882Z</time>
      </trkpt>
      <trkpt lat="43.260695" lon="-4.32588333">
        <ele>551.0</ele>
        <time>2018-05-19T09:27:21.844Z</time>
      </trkpt>
      <trkpt lat="43.260695" lon="-4.32588333">
        <ele>551.0</ele>
        <time>2018-05-19T09:27:22.878Z</time>
      </trkpt>
      <trkpt lat="43.26074" lon="-4.32587333">
        <ele>552.0</ele>
        <time>2018-05-19T09:27:23.878Z</time>
      </trkpt>
      <trkpt lat="43.26076333" lon="-4.32586667">
        <ele>552.0</ele>
        <time>2018-05-19T09:27:24.880Z</time>
      </trkpt>
      <trkpt lat="43.26076333" lon="-4.32586667">
        <ele>552.0</ele>
        <time>2018-05-19T09:27:25.876Z</time>
      </trkpt>
      <trkpt lat="43.26080667" lon="-4.32585">
        <ele>552.0</ele>
        <time>2018-05-19T09:27:26.879Z</time>
      </trkpt>
      <trkpt lat="43.26083" lon="-4.32584167">
        <ele>552.0</ele>
        <time>2018-05-19T09:27:27.879Z</time>
      </trkpt>
      <trkpt lat="43.26085" lon="-4.32583167">
        <ele>552.0</ele>
        <time>2018-05-19T09:27:28.880Z</time>
      </trkpt>
      <trkpt lat="43.26085" lon="-4.32583167">
        <ele>552.0</ele>
        <time>2018-05-19T09:27:29.872Z</time>
      </trkpt>
      <trkpt lat="43.26089167" lon="-4.32581">
        <ele>553.0</ele>
        <time>2018-05-19T09:27:30.880Z</time>
      </trkpt>
      <trkpt lat="43.26089167" lon="-4.32581">
        <ele>553.0</ele>
        <time>2018-05-19T09:27:31.877Z</time>
      </trkpt>
      <trkpt lat="43.26093" lon="-4.32579">
        <ele>553.0</ele>
        <time>2018-05-19T09:27:32.879Z</time>
      </trkpt>
      <trkpt lat="43.26093" lon="-4.32579">
        <ele>553.0</ele>
        <time>2018-05-19T09:27:33.870Z</time>
      </trkpt>
      <trkpt lat="43.26096833" lon="-4.32575833">
        <ele>554.0</ele>
        <time>2018-05-19T09:27:34.853Z</time>
      </trkpt>
      <trkpt lat="43.26096833" lon="-4.32575833">
        <ele>554.0</ele>
        <time>2018-05-19T09:27:35.881Z</time>
      </trkpt>
      <trkpt lat="43.26101167" lon="-4.32572833">
        <ele>554.0</ele>
        <time>2018-05-19T09:27:36.879Z</time>
      </trkpt>
      <trkpt lat="43.26101167" lon="-4.32572833">
        <ele>554.0</ele>
        <time>2018-05-19T09:27:37.875Z</time>
      </trkpt>
      <trkpt lat="43.26105333" lon="-4.32569833">
        <ele>554.0</ele>
        <time>2018-05-19T09:27:38.880Z</time>
      </trkpt>
      <trkpt lat="43.26105333" lon="-4.32569833">
        <ele>554.0</ele>
        <time>2018-05-19T09:27:39.873Z</time>
      </trkpt>
      <trkpt lat="43.26109333" lon="-4.32567667">
        <ele>555.0</ele>
        <time>2018-05-19T09:27:40.872Z</time>
      </trkpt>
      <trkpt lat="43.26109333" lon="-4.32567667">
        <ele>555.0</ele>
        <time>2018-05-19T09:27:41.873Z</time>
      </trkpt>
      <trkpt lat="43.26113167" lon="-4.325655">
        <ele>555.0</ele>
        <time>2018-05-19T09:27:42.880Z</time>
      </trkpt>
      <trkpt lat="43.26113167" lon="-4.325655">
        <ele>555.0</ele>
        <time>2018-05-19T09:27:43.870Z</time>
      </trkpt>
      <trkpt lat="43.26117333" lon="-4.32564">
        <ele>555.0</ele>
        <time>2018-05-19T09:27:44.855Z</time>
      </trkpt>
      <trkpt lat="43.26117333" lon="-4.32564">
        <ele>555.0</ele>
        <time>2018-05-19T09:27:45.857Z</time>
      </trkpt>
      <trkpt lat="43.26121667" lon="-4.325625">
        <ele>555.0</ele>
        <time>2018-05-19T09:27:46.872Z</time>
      </trkpt>
      <trkpt lat="43.26121667" lon="-4.325625">
        <ele>555.0</ele>
        <time>2018-05-19T09:27:47.878Z</time>
      </trkpt>
      <trkpt lat="43.261255" lon="-4.32561167">
        <ele>555.0</ele>
        <time>2018-05-19T09:27:48.844Z</time>
      </trkpt>
      <trkpt lat="43.261275" lon="-4.32560667">
        <ele>555.0</ele>
        <time>2018-05-19T09:27:49.879Z</time>
      </trkpt>
      <trkpt lat="43.261275" lon="-4.32560667">
        <ele>555.0</ele>
        <time>2018-05-19T09:27:50.870Z</time>
      </trkpt>
      <trkpt lat="43.26131667" lon="-4.32559667">
        <ele>556.0</ele>
        <time>2018-05-19T09:27:51.879Z</time>
      </trkpt>
      <trkpt lat="43.26133833" lon="-4.32559333">
        <ele>556.0</ele>
        <time>2018-05-19T09:27:52.881Z</time>
      </trkpt>
      <trkpt lat="43.26133833" lon="-4.32559333">
        <ele>556.0</ele>
        <time>2018-05-19T09:27:53.870Z</time>
      </trkpt>
      <trkpt lat="43.26138" lon="-4.325585">
        <ele>556.0</ele>
        <time>2018-05-19T09:27:54.853Z</time>
      </trkpt>
      <trkpt lat="43.26138" lon="-4.325585">
        <ele>556.0</ele>
        <time>2018-05-19T09:27:55.879Z</time>
      </trkpt>
      <trkpt lat="43.26142167" lon="-4.32557833">
        <ele>556.0</ele>
        <time>2018-05-19T09:27:56.880Z</time>
      </trkpt>
      <trkpt lat="43.26142167" lon="-4.32557833">
        <ele>556.0</ele>
        <time>2018-05-19T09:27:57.875Z</time>
      </trkpt>
      <trkpt lat="43.26146167" lon="-4.32556833">
        <ele>557.0</ele>
        <time>2018-05-19T09:27:58.880Z</time>
      </trkpt>
      <trkpt lat="43.26146167" lon="-4.32556833">
        <ele>557.0</ele>
        <time>2018-05-19T09:27:59.874Z</time>
      </trkpt>
      <trkpt lat="43.26150167" lon="-4.32556">
        <ele>557.0</ele>
        <time>2018-05-19T09:28:00.859Z</time>
      </trkpt>
      <trkpt lat="43.26150167" lon="-4.32556">
        <ele>557.0</ele>
        <time>2018-05-19T09:28:01.853Z</time>
      </trkpt>
      <trkpt lat="43.261545" lon="-4.32554833">
        <ele>557.0</ele>
        <time>2018-05-19T09:28:02.880Z</time>
      </trkpt>
      <trkpt lat="43.261545" lon="-4.32554833">
        <ele>557.0</ele>
        <time>2018-05-19T09:28:03.870Z</time>
      </trkpt>
      <trkpt lat="43.26158833" lon="-4.325535">
        <ele>557.0</ele>
        <time>2018-05-19T09:28:04.856Z</time>
      </trkpt>
      <trkpt lat="43.26158833" lon="-4.325535">
        <ele>557.0</ele>
        <time>2018-05-19T09:28:05.881Z</time>
      </trkpt>
      <trkpt lat="43.26162667" lon="-4.32552167">
        <ele>557.0</ele>
        <time>2018-05-19T09:28:06.878Z</time>
      </trkpt>
      <trkpt lat="43.26162667" lon="-4.32552167">
        <ele>557.0</ele>
        <time>2018-05-19T09:28:07.874Z</time>
      </trkpt>
      <trkpt lat="43.26166667" lon="-4.32551">
        <ele>558.0</ele>
        <time>2018-05-19T09:28:08.879Z</time>
      </trkpt>
      <trkpt lat="43.261685" lon="-4.32550333">
        <ele>558.0</ele>
        <time>2018-05-19T09:28:09.880Z</time>
      </trkpt>
      <trkpt lat="43.261705" lon="-4.32549667">
        <ele>558.0</ele>
        <time>2018-05-19T09:28:10.880Z</time>
      </trkpt>
      <trkpt lat="43.261705" lon="-4.32549667">
        <ele>558.0</ele>
        <time>2018-05-19T09:28:11.874Z</time>
      </trkpt>
      <trkpt lat="43.26174333" lon="-4.32547833">
        <ele>558.0</ele>
        <time>2018-05-19T09:28:12.856Z</time>
      </trkpt>
      <trkpt lat="43.26174333" lon="-4.32547833">
        <ele>558.0</ele>
        <time>2018-05-19T09:28:13.881Z</time>
      </trkpt>
      <trkpt lat="43.261785" lon="-4.32546333">
        <ele>558.0</ele>
        <time>2018-05-19T09:28:14.880Z</time>
      </trkpt>
      <trkpt lat="43.261785" lon="-4.32546333">
        <ele>558.0</ele>
        <time>2018-05-19T09:28:15.874Z</time>
      </trkpt>
      <trkpt lat="43.26182833" lon="-4.32544167">
        <ele>559.0</ele>
        <time>2018-05-19T09:28:16.881Z</time>
      </trkpt>
      <trkpt lat="43.26182833" lon="-4.32544167">
        <ele>559.0</ele>
        <time>2018-05-19T09:28:17.880Z</time>
      </trkpt>
      <trkpt lat="43.26186833" lon="-4.32541667">
        <ele>559.0</ele>
        <time>2018-05-19T09:28:18.845Z</time>
      </trkpt>
      <trkpt lat="43.26186833" lon="-4.32541667">
        <ele>559.0</ele>
        <time>2018-05-19T09:28:19.875Z</time>
      </trkpt>
      <trkpt lat="43.26190833" lon="-4.325395">
        <ele>559.0</ele>
        <time>2018-05-19T09:28:20.880Z</time>
      </trkpt>
      <trkpt lat="43.26190833" lon="-4.325395">
        <ele>559.0</ele>
        <time>2018-05-19T09:28:21.875Z</time>
      </trkpt>
      <trkpt lat="43.26194833" lon="-4.32537333">
        <ele>559.0</ele>
        <time>2018-05-19T09:28:22.880Z</time>
      </trkpt>
      <trkpt lat="43.26194833" lon="-4.32537333">
        <ele>559.0</ele>
        <time>2018-05-19T09:28:23.873Z</time>
      </trkpt>
      <trkpt lat="43.26199" lon="-4.32535333">
        <ele>560.0</ele>
        <time>2018-05-19T09:28:24.880Z</time>
      </trkpt>
      <trkpt lat="43.26199" lon="-4.32535333">
        <ele>560.0</ele>
        <time>2018-05-19T09:28:25.875Z</time>
      </trkpt>
      <trkpt lat="43.26203167" lon="-4.32533667">
        <ele>560.0</ele>
        <time>2018-05-19T09:28:26.876Z</time>
      </trkpt>
      <trkpt lat="43.26205167" lon="-4.32532833">
        <ele>560.0</ele>
        <time>2018-05-19T09:28:27.880Z</time>
      </trkpt>
      <trkpt lat="43.26207167" lon="-4.32531833">
        <ele>560.0</ele>
        <time>2018-05-19T09:28:28.878Z</time>
      </trkpt>
      <trkpt lat="43.26207167" lon="-4.32531833">
        <ele>560.0</ele>
        <time>2018-05-19T09:28:29.874Z</time>
      </trkpt>
      <trkpt lat="43.262115" lon="-4.32530333">
        <ele>560.0</ele>
        <time>2018-05-19T09:28:30.879Z</time>
      </trkpt>
      <trkpt lat="43.262115" lon="-4.32530333">
        <ele>560.0</ele>
        <time>2018-05-19T09:28:31.874Z</time>
      </trkpt>
      <trkpt lat="43.26215833" lon="-4.325295">
        <ele>561.0</ele>
        <time>2018-05-19T09:28:32.879Z</time>
      </trkpt>
      <trkpt lat="43.26215833" lon="-4.325295">
        <ele>561.0</ele>
        <time>2018-05-19T09:28:33.869Z</time>
      </trkpt>
      <trkpt lat="43.26220167" lon="-4.32527833">
        <ele>561.0</ele>
        <time>2018-05-19T09:28:34.851Z</time>
      </trkpt>
      <trkpt lat="43.26220167" lon="-4.32527833">
        <ele>561.0</ele>
        <time>2018-05-19T09:28:35.878Z</time>
      </trkpt>
      <trkpt lat="43.262245" lon="-4.32526333">
        <ele>561.0</ele>
        <time>2018-05-19T09:28:36.880Z</time>
      </trkpt>
      <trkpt lat="43.262245" lon="-4.32526333">
        <ele>561.0</ele>
        <time>2018-05-19T09:28:37.875Z</time>
      </trkpt>
      <trkpt lat="43.26228667" lon="-4.325245">
        <ele>561.0</ele>
        <time>2018-05-19T09:28:38.880Z</time>
      </trkpt>
      <trkpt lat="43.26228667" lon="-4.325245">
        <ele>561.0</ele>
        <time>2018-05-19T09:28:39.874Z</time>
      </trkpt>
      <trkpt lat="43.26232833" lon="-4.325225">
        <ele>562.0</ele>
        <time>2018-05-19T09:28:40.859Z</time>
      </trkpt>
      <trkpt lat="43.26235" lon="-4.325215">
        <ele>562.0</ele>
        <time>2018-05-19T09:28:41.848Z</time>
      </trkpt>
      <trkpt lat="43.26237167" lon="-4.325205">
        <ele>562.0</ele>
        <time>2018-05-19T09:28:42.879Z</time>
      </trkpt>
      <trkpt lat="43.26237167" lon="-4.325205">
        <ele>562.0</ele>
        <time>2018-05-19T09:28:43.855Z</time>
      </trkpt>
      <trkpt lat="43.26241333" lon="-4.32517833">
        <ele>563.0</ele>
        <time>2018-05-19T09:28:44.881Z</time>
      </trkpt>
      <trkpt lat="43.26241333" lon="-4.32517833">
        <ele>563.0</ele>
        <time>2018-05-19T09:28:45.855Z</time>
      </trkpt>
      <trkpt lat="43.262455" lon="-4.325155">
        <ele>563.0</ele>
        <time>2018-05-19T09:28:46.863Z</time>
      </trkpt>
      <trkpt lat="43.262475" lon="-4.32513833">
        <ele>563.0</ele>
        <time>2018-05-19T09:28:47.869Z</time>
      </trkpt>
      <trkpt lat="43.262495" lon="-4.32512333">
        <ele>563.0</ele>
        <time>2018-05-19T09:28:48.876Z</time>
      </trkpt>
      <trkpt lat="43.262495" lon="-4.32512333">
        <ele>563.0</ele>
        <time>2018-05-19T09:28:49.847Z</time>
      </trkpt>
      <trkpt lat="43.26253667" lon="-4.32509333">
        <ele>563.0</ele>
        <time>2018-05-19T09:28:50.881Z</time>
      </trkpt>
      <trkpt lat="43.26253667" lon="-4.32509333">
        <ele>563.0</ele>
        <time>2018-05-19T09:28:51.874Z</time>
      </trkpt>
      <trkpt lat="43.26257333" lon="-4.32506333">
        <ele>564.0</ele>
        <time>2018-05-19T09:28:52.881Z</time>
      </trkpt>
      <trkpt lat="43.26257333" lon="-4.32506333">
        <ele>564.0</ele>
        <time>2018-05-19T09:28:53.874Z</time>
      </trkpt>
      <trkpt lat="43.26261167" lon="-4.32503">
        <ele>564.0</ele>
        <time>2018-05-19T09:28:54.880Z</time>
      </trkpt>
      <trkpt lat="43.26261167" lon="-4.32503">
        <ele>564.0</ele>
        <time>2018-05-19T09:28:55.874Z</time>
      </trkpt>
      <trkpt lat="43.26264833" lon="-4.325">
        <ele>564.0</ele>
        <time>2018-05-19T09:28:56.879Z</time>
      </trkpt>
      <trkpt lat="43.26266667" lon="-4.32498333">
        <ele>565.0</ele>
        <time>2018-05-19T09:28:57.879Z</time>
      </trkpt>
      <trkpt lat="43.26269" lon="-4.32496833">
        <ele>565.0</ele>
        <time>2018-05-19T09:28:58.881Z</time>
      </trkpt>
      <trkpt lat="43.26269" lon="-4.32496833">
        <ele>565.0</ele>
        <time>2018-05-19T09:28:59.875Z</time>
      </trkpt>
      <trkpt lat="43.26273" lon="-4.32494167">
        <ele>565.0</ele>
        <time>2018-05-19T09:29:00.880Z</time>
      </trkpt>
      <trkpt lat="43.26273" lon="-4.32494167">
        <ele>565.0</ele>
        <time>2018-05-19T09:29:01.877Z</time>
      </trkpt>
      <trkpt lat="43.26276167" lon="-4.32491167">
        <ele>566.0</ele>
        <time>2018-05-19T09:29:02.879Z</time>
      </trkpt>
      <trkpt lat="43.26276167" lon="-4.32491167">
        <ele>566.0</ele>
        <time>2018-05-19T09:29:03.870Z</time>
      </trkpt>
      <trkpt lat="43.26279833" lon="-4.32488333">
        <ele>566.0</ele>
        <time>2018-05-19T09:29:04.854Z</time>
      </trkpt>
      <trkpt lat="43.26279833" lon="-4.32488333">
        <ele>566.0</ele>
        <time>2018-05-19T09:29:05.879Z</time>
      </trkpt>
      <trkpt lat="43.262835" lon="-4.324855">
        <ele>566.0</ele>
        <time>2018-05-19T09:29:06.880Z</time>
      </trkpt>
      <trkpt lat="43.262835" lon="-4.324855">
        <ele>566.0</ele>
        <time>2018-05-19T09:29:07.874Z</time>
      </trkpt>
      <trkpt lat="43.26287167" lon="-4.32482667">
        <ele>567.0</ele>
        <time>2018-05-19T09:29:08.880Z</time>
      </trkpt>
      <trkpt lat="43.26287167" lon="-4.32482667">
        <ele>567.0</ele>
        <time>2018-05-19T09:29:09.874Z</time>
      </trkpt>
      <trkpt lat="43.262905" lon="-4.32479667">
        <ele>567.0</ele>
        <time>2018-05-19T09:29:10.880Z</time>
      </trkpt>
      <trkpt lat="43.262905" lon="-4.32479667">
        <ele>567.0</ele>
        <time>2018-05-19T09:29:11.875Z</time>
      </trkpt>
      <trkpt lat="43.26293667" lon="-4.324765">
        <ele>568.0</ele>
        <time>2018-05-19T09:29:12.859Z</time>
      </trkpt>
      <trkpt lat="43.26293667" lon="-4.324765">
        <ele>568.0</ele>
        <time>2018-05-19T09:29:13.882Z</time>
      </trkpt>
      <trkpt lat="43.26297" lon="-4.32473">
        <ele>568.0</ele>
        <time>2018-05-19T09:29:14.879Z</time>
      </trkpt>
      <trkpt lat="43.26297" lon="-4.32473">
        <ele>568.0</ele>
        <time>2018-05-19T09:29:15.874Z</time>
      </trkpt>
      <trkpt lat="43.26300667" lon="-4.32469667">
        <ele>568.0</ele>
        <time>2018-05-19T09:29:16.876Z</time>
      </trkpt>
      <trkpt lat="43.26302333" lon="-4.32467833">
        <ele>568.0</ele>
        <time>2018-05-19T09:29:17.880Z</time>
      </trkpt>
      <trkpt lat="43.26302333" lon="-4.32467833">
        <ele>568.0</ele>
        <time>2018-05-19T09:29:18.877Z</time>
      </trkpt>
      <trkpt lat="43.26305833" lon="-4.32464">
        <ele>569.0</ele>
        <time>2018-05-19T09:29:19.880Z</time>
      </trkpt>
      <trkpt lat="43.26305833" lon="-4.32464">
        <ele>569.0</ele>
        <time>2018-05-19T09:29:20.875Z</time>
      </trkpt>
      <trkpt lat="43.26309" lon="-4.32460333">
        <ele>569.0</ele>
        <time>2018-05-19T09:29:21.859Z</time>
      </trkpt>
      <trkpt lat="43.26309" lon="-4.32460333">
        <ele>569.0</ele>
        <time>2018-05-19T09:29:22.881Z</time>
      </trkpt>
      <trkpt lat="43.26312333" lon="-4.32456667">
        <ele>569.0</ele>
        <time>2018-05-19T09:29:23.872Z</time>
      </trkpt>
      <trkpt lat="43.26313833" lon="-4.32455">
        <ele>570.0</ele>
        <time>2018-05-19T09:29:24.880Z</time>
      </trkpt>
      <trkpt lat="43.26313833" lon="-4.32455">
        <ele>570.0</ele>
        <time>2018-05-19T09:29:25.874Z</time>
      </trkpt>
      <trkpt lat="43.26316667" lon="-4.32451167">
        <ele>570.0</ele>
        <time>2018-05-19T09:29:26.879Z</time>
      </trkpt>
      <trkpt lat="43.26316667" lon="-4.32451167">
        <ele>570.0</ele>
        <time>2018-05-19T09:29:27.866Z</time>
      </trkpt>
      <trkpt lat="43.26319167" lon="-4.32447333">
        <ele>570.0</ele>
        <time>2018-05-19T09:29:28.850Z</time>
      </trkpt>
      <trkpt lat="43.26319167" lon="-4.32447333">
        <ele>570.0</ele>
        <time>2018-05-19T09:29:29.847Z</time>
      </trkpt>
      <trkpt lat="43.263225" lon="-4.32444">
        <ele>571.0</ele>
        <time>2018-05-19T09:29:30.879Z</time>
      </trkpt>
      <trkpt lat="43.263225" lon="-4.32444">
        <ele>571.0</ele>
        <time>2018-05-19T09:29:31.874Z</time>
      </trkpt>
      <trkpt lat="43.263255" lon="-4.32440167">
        <ele>571.0</ele>
        <time>2018-05-19T09:29:32.859Z</time>
      </trkpt>
      <trkpt lat="43.263255" lon="-4.32440167">
        <ele>571.0</ele>
        <time>2018-05-19T09:29:33.846Z</time>
      </trkpt>
      <trkpt lat="43.26328333" lon="-4.32435167">
        <ele>571.0</ele>
        <time>2018-05-19T09:29:34.881Z</time>
      </trkpt>
      <trkpt lat="43.26328333" lon="-4.32435167">
        <ele>571.0</ele>
        <time>2018-05-19T09:29:35.874Z</time>
      </trkpt>
      <trkpt lat="43.26331333" lon="-4.32430167">
        <ele>572.0</ele>
        <time>2018-05-19T09:29:36.880Z</time>
      </trkpt>
      <trkpt lat="43.26331333" lon="-4.32430167">
        <ele>572.0</ele>
        <time>2018-05-19T09:29:37.874Z</time>
      </trkpt>
      <trkpt lat="43.26334333" lon="-4.32425">
        <ele>572.0</ele>
        <time>2018-05-19T09:29:38.879Z</time>
      </trkpt>
      <trkpt lat="43.26334333" lon="-4.32425">
        <ele>572.0</ele>
        <time>2018-05-19T09:29:39.874Z</time>
      </trkpt>
      <trkpt lat="43.26337333" lon="-4.32419667">
        <ele>572.0</ele>
        <time>2018-05-19T09:29:40.862Z</time>
      </trkpt>
      <trkpt lat="43.26338833" lon="-4.32416833">
        <ele>572.0</ele>
        <time>2018-05-19T09:29:41.847Z</time>
      </trkpt>
      <trkpt lat="43.26340167" lon="-4.32413833">
        <ele>572.0</ele>
        <time>2018-05-19T09:29:42.880Z</time>
      </trkpt>
      <trkpt lat="43.26340167" lon="-4.32413833">
        <ele>572.0</ele>
        <time>2018-05-19T09:29:43.869Z</time>
      </trkpt>
      <trkpt lat="43.26343167" lon="-4.32407833">
        <ele>573.0</ele>
        <time>2018-05-19T09:29:44.853Z</time>
      </trkpt>
      <trkpt lat="43.26343167" lon="-4.32407833">
        <ele>573.0</ele>
        <time>2018-05-19T09:29:45.846Z</time>
      </trkpt>
      <trkpt lat="43.26345833" lon="-4.32400833">
        <ele>573.0</ele>
        <time>2018-05-19T09:29:46.873Z</time>
      </trkpt>
      <trkpt lat="43.26345833" lon="-4.32400833">
        <ele>573.0</ele>
        <time>2018-05-19T09:29:47.880Z</time>
      </trkpt>
      <trkpt lat="43.26348833" lon="-4.32393833">
        <ele>573.0</ele>
        <time>2018-05-19T09:29:48.846Z</time>
      </trkpt>
      <trkpt lat="43.26350667" lon="-4.323905">
        <ele>573.0</ele>
        <time>2018-05-19T09:29:49.863Z</time>
      </trkpt>
      <trkpt lat="43.26350667" lon="-4.323905">
        <ele>573.0</ele>
        <time>2018-05-19T09:29:50.848Z</time>
      </trkpt>
      <trkpt lat="43.263535" lon="-4.323835">
        <ele>573.0</ele>
        <time>2018-05-19T09:29:51.881Z</time>
      </trkpt>
      <trkpt lat="43.26354833" lon="-4.32380167">
        <ele>573.0</ele>
        <time>2018-05-19T09:29:52.881Z</time>
      </trkpt>
      <trkpt lat="43.26354833" lon="-4.32380167">
        <ele>573.0</ele>
        <time>2018-05-19T09:29:53.870Z</time>
      </trkpt>
      <trkpt lat="43.26356667" lon="-4.32373667">
        <ele>573.0</ele>
        <time>2018-05-19T09:29:54.880Z</time>
      </trkpt>
      <trkpt lat="43.26356667" lon="-4.32373667">
        <ele>573.0</ele>
        <time>2018-05-19T09:29:55.873Z</time>
      </trkpt>
      <trkpt lat="43.26359333" lon="-4.32366667">
        <ele>573.0</ele>
        <time>2018-05-19T09:29:56.881Z</time>
      </trkpt>
      <trkpt lat="43.26360333" lon="-4.32362833">
        <ele>573.0</ele>
        <time>2018-05-19T09:29:57.879Z</time>
      </trkpt>
      <trkpt lat="43.26360333" lon="-4.32362833">
        <ele>573.0</ele>
        <time>2018-05-19T09:29:58.875Z</time>
      </trkpt>
      <trkpt lat="43.26363" lon="-4.32354833">
        <ele>573.0</ele>
        <time>2018-05-19T09:29:59.876Z</time>
      </trkpt>
      <trkpt lat="43.263645" lon="-4.32350667">
        <ele>573.0</ele>
        <time>2018-05-19T09:30:00.880Z</time>
      </trkpt>
      <trkpt lat="43.263645" lon="-4.32350667">
        <ele>573.0</ele>
        <time>2018-05-19T09:30:01.874Z</time>
      </trkpt>
      <trkpt lat="43.26368667" lon="-4.32341167">
        <ele>573.0</ele>
        <time>2018-05-19T09:30:02.880Z</time>
      </trkpt>
      <trkpt lat="43.26368667" lon="-4.32341167">
        <ele>573.0</ele>
        <time>2018-05-19T09:30:03.870Z</time>
      </trkpt>
      <trkpt lat="43.26376667" lon="-4.323325">
        <ele>573.0</ele>
        <time>2018-05-19T09:30:04.857Z</time>
      </trkpt>
      <trkpt lat="43.26376667" lon="-4.323325">
        <ele>573.0</ele>
        <time>2018-05-19T09:30:05.882Z</time>
      </trkpt>
      <trkpt lat="43.26388333" lon="-4.3233">
        <ele>572.0</ele>
        <time>2018-05-19T09:30:06.879Z</time>
      </trkpt>
      <trkpt lat="43.26388333" lon="-4.3233">
        <ele>572.0</ele>
        <time>2018-05-19T09:30:07.874Z</time>
      </trkpt>
      <trkpt lat="43.264015" lon="-4.32335667">
        <ele>571.0</ele>
        <time>2018-05-19T09:30:08.876Z</time>
      </trkpt>
      <trkpt lat="43.264015" lon="-4.32335667">
        <ele>571.0</ele>
        <time>2018-05-19T09:30:09.873Z</time>
      </trkpt>
      <trkpt lat="43.26417167" lon="-4.32342333">
        <ele>569.0</ele>
        <time>2018-05-19T09:30:10.879Z</time>
      </trkpt>
      <trkpt lat="43.26417167" lon="-4.32342333">
        <ele>569.0</ele>
        <time>2018-05-19T09:30:11.873Z</time>
      </trkpt>
      <trkpt lat="43.26435" lon="-4.32347667">
        <ele>566.0</ele>
        <time>2018-05-19T09:30:12.855Z</time>
      </trkpt>
      <trkpt lat="43.26435" lon="-4.32347667">
        <ele>566.0</ele>
        <time>2018-05-19T09:30:13.878Z</time>
      </trkpt>
      <trkpt lat="43.26454333" lon="-4.32347833">
        <ele>565.0</ele>
        <time>2018-05-19T09:30:14.881Z</time>
      </trkpt>
      <trkpt lat="43.26454333" lon="-4.32347833">
        <ele>565.0</ele>
        <time>2018-05-19T09:30:15.876Z</time>
      </trkpt>
      <trkpt lat="43.26470167" lon="-4.32348667">
        <ele>566.0</ele>
        <time>2018-05-19T09:30:16.880Z</time>
      </trkpt>
      <trkpt lat="43.26470167" lon="-4.32348667">
        <ele>566.0</ele>
        <time>2018-05-19T09:30:17.880Z</time>
      </trkpt>
      <trkpt lat="43.26482333" lon="-4.32357">
        <ele>565.0</ele>
        <time>2018-05-19T09:30:18.879Z</time>
      </trkpt>
      <trkpt lat="43.26482333" lon="-4.32357">
        <ele>565.0</ele>
        <time>2018-05-19T09:30:19.873Z</time>
      </trkpt>
      <trkpt lat="43.26493167" lon="-4.32371333">
        <ele>565.0</ele>
        <time>2018-05-19T09:30:20.876Z</time>
      </trkpt>
      <trkpt lat="43.26493167" lon="-4.32371333">
        <ele>565.0</ele>
        <time>2018-05-19T09:30:21.876Z</time>
      </trkpt>
      <trkpt lat="43.26506" lon="-4.32383">
        <ele>564.0</ele>
        <time>2018-05-19T09:30:22.880Z</time>
      </trkpt>
      <trkpt lat="43.26506" lon="-4.32383">
        <ele>564.0</ele>
        <time>2018-05-19T09:30:23.869Z</time>
      </trkpt>
      <trkpt lat="43.26521167" lon="-4.32385167">
        <ele>563.0</ele>
        <time>2018-05-19T09:30:24.854Z</time>
      </trkpt>
      <trkpt lat="43.26521167" lon="-4.32385167">
        <ele>563.0</ele>
        <time>2018-05-19T09:30:25.880Z</time>
      </trkpt>
      <trkpt lat="43.26534667" lon="-4.32379333">
        <ele>563.0</ele>
        <time>2018-05-19T09:30:26.880Z</time>
      </trkpt>
      <trkpt lat="43.26534667" lon="-4.32379333">
        <ele>563.0</ele>
        <time>2018-05-19T09:30:27.874Z</time>
      </trkpt>
      <trkpt lat="43.265465" lon="-4.323725">
        <ele>563.0</ele>
        <time>2018-05-19T09:30:28.879Z</time>
      </trkpt>
      <trkpt lat="43.265465" lon="-4.323725">
        <ele>563.0</ele>
        <time>2018-05-19T09:30:29.875Z</time>
      </trkpt>
      <trkpt lat="43.26558" lon="-4.32365667">
        <ele>563.0</ele>
        <time>2018-05-19T09:30:30.879Z</time>
      </trkpt>
      <trkpt lat="43.26558" lon="-4.32365667">
        <ele>563.0</ele>
        <time>2018-05-19T09:30:31.871Z</time>
      </trkpt>
      <trkpt lat="43.26570333" lon="-4.32361">
        <ele>563.0</ele>
        <time>2018-05-19T09:30:32.875Z</time>
      </trkpt>
      <trkpt lat="43.26570333" lon="-4.32361">
        <ele>563.0</ele>
        <time>2018-05-19T09:30:33.883Z</time>
      </trkpt>
      <trkpt lat="43.26582" lon="-4.32355333">
        <ele>563.0</ele>
        <time>2018-05-19T09:30:34.881Z</time>
      </trkpt>
      <trkpt lat="43.26587667" lon="-4.32352667">
        <ele>563.0</ele>
        <time>2018-05-19T09:30:35.878Z</time>
      </trkpt>
      <trkpt lat="43.26593333" lon="-4.32350167">
        <ele>562.0</ele>
        <time>2018-05-19T09:30:36.879Z</time>
      </trkpt>
      <trkpt lat="43.26593333" lon="-4.32350167">
        <ele>562.0</ele>
        <time>2018-05-19T09:30:37.873Z</time>
      </trkpt>
      <trkpt lat="43.26604333" lon="-4.32346">
        <ele>562.0</ele>
        <time>2018-05-19T09:30:38.876Z</time>
      </trkpt>
      <trkpt lat="43.26604333" lon="-4.32346">
        <ele>562.0</ele>
        <time>2018-05-19T09:30:39.874Z</time>
      </trkpt>
      <trkpt lat="43.26615167" lon="-4.32342">
        <ele>561.0</ele>
        <time>2018-05-19T09:30:40.872Z</time>
      </trkpt>
      <trkpt lat="43.26615167" lon="-4.32342">
        <ele>561.0</ele>
        <time>2018-05-19T09:30:41.874Z</time>
      </trkpt>
      <trkpt lat="43.26625" lon="-4.32334333">
        <ele>561.0</ele>
        <time>2018-05-19T09:30:42.880Z</time>
      </trkpt>
      <trkpt lat="43.26625" lon="-4.32334333">
        <ele>561.0</ele>
        <time>2018-05-19T09:30:43.844Z</time>
      </trkpt>
      <trkpt lat="43.26632833" lon="-4.323225">
        <ele>561.0</ele>
        <time>2018-05-19T09:30:44.880Z</time>
      </trkpt>
      <trkpt lat="43.26632833" lon="-4.323225">
        <ele>561.0</ele>
        <time>2018-05-19T09:30:45.877Z</time>
      </trkpt>
      <trkpt lat="43.26640333" lon="-4.32309833">
        <ele>561.0</ele>
        <time>2018-05-19T09:30:46.849Z</time>
      </trkpt>
      <trkpt lat="43.26640333" lon="-4.32309833">
        <ele>561.0</ele>
        <time>2018-05-19T09:30:47.855Z</time>
      </trkpt>
      <trkpt lat="43.266475" lon="-4.32295333">
        <ele>561.0</ele>
        <time>2018-05-19T09:30:48.870Z</time>
      </trkpt>
      <trkpt lat="43.26650833" lon="-4.32287667">
        <ele>561.0</ele>
        <time>2018-05-19T09:30:49.875Z</time>
      </trkpt>
      <trkpt lat="43.26653833" lon="-4.3228">
        <ele>561.0</ele>
        <time>2018-05-19T09:30:50.876Z</time>
      </trkpt>
      <trkpt lat="43.26653833" lon="-4.3228">
        <ele>561.0</ele>
        <time>2018-05-19T09:30:51.874Z</time>
      </trkpt>
      <trkpt lat="43.26659167" lon="-4.32264333">
        <ele>561.0</ele>
        <time>2018-05-19T09:30:52.881Z</time>
      </trkpt>
      <trkpt lat="43.26659167" lon="-4.32264333">
        <ele>561.0</ele>
        <time>2018-05-19T09:30:53.869Z</time>
      </trkpt>
      <trkpt lat="43.26664333" lon="-4.32247667">
        <ele>561.0</ele>
        <time>2018-05-19T09:30:54.876Z</time>
      </trkpt>
      <trkpt lat="43.26664333" lon="-4.32247667">
        <ele>561.0</ele>
        <time>2018-05-19T09:30:55.874Z</time>
      </trkpt>
      <trkpt lat="43.26670333" lon="-4.32230667">
        <ele>561.0</ele>
        <time>2018-05-19T09:30:56.875Z</time>
      </trkpt>
      <trkpt lat="43.26670333" lon="-4.32230667">
        <ele>561.0</ele>
        <time>2018-05-19T09:30:57.874Z</time>
      </trkpt>
      <trkpt lat="43.26676667" lon="-4.32213833">
        <ele>561.0</ele>
        <time>2018-05-19T09:30:58.860Z</time>
      </trkpt>
      <trkpt lat="43.26676667" lon="-4.32213833">
        <ele>561.0</ele>
        <time>2018-05-19T09:30:59.844Z</time>
      </trkpt>
      <trkpt lat="43.26682833" lon="-4.32197">
        <ele>561.0</ele>
        <time>2018-05-19T09:31:00.879Z</time>
      </trkpt>
      <trkpt lat="43.26682833" lon="-4.32197">
        <ele>561.0</ele>
        <time>2018-05-19T09:31:01.873Z</time>
      </trkpt>
      <trkpt lat="43.26687833" lon="-4.32179667">
        <ele>561.0</ele>
        <time>2018-05-19T09:31:02.876Z</time>
      </trkpt>
      <trkpt lat="43.266905" lon="-4.32170833">
        <ele>561.0</ele>
        <time>2018-05-19T09:31:03.881Z</time>
      </trkpt>
      <trkpt lat="43.26693" lon="-4.32162">
        <ele>561.0</ele>
        <time>2018-05-19T09:31:04.881Z</time>
      </trkpt>
      <trkpt lat="43.26693" lon="-4.32162">
        <ele>561.0</ele>
        <time>2018-05-19T09:31:05.845Z</time>
      </trkpt>
      <trkpt lat="43.26698667" lon="-4.32145">
        <ele>561.0</ele>
        <time>2018-05-19T09:31:06.879Z</time>
      </trkpt>
      <trkpt lat="43.26698667" lon="-4.32145">
        <ele>561.0</ele>
        <time>2018-05-19T09:31:07.876Z</time>
      </trkpt>
      <trkpt lat="43.26706333" lon="-4.32128167">
        <ele>561.0</ele>
        <time>2018-05-19T09:31:08.878Z</time>
      </trkpt>
      <trkpt lat="43.26710833" lon="-4.321205">
        <ele>561.0</ele>
        <time>2018-05-19T09:31:09.881Z</time>
      </trkpt>
      <trkpt lat="43.26710833" lon="-4.321205">
        <ele>561.0</ele>
        <time>2018-05-19T09:31:10.879Z</time>
      </trkpt>
      <trkpt lat="43.2672" lon="-4.32105167">
        <ele>561.0</ele>
        <time>2018-05-19T09:31:11.875Z</time>
      </trkpt>
      <trkpt lat="43.267225" lon="-4.320965">
        <ele>561.0</ele>
        <time>2018-05-19T09:31:12.880Z</time>
      </trkpt>
      <trkpt lat="43.267225" lon="-4.320965">
        <ele>561.0</ele>
        <time>2018-05-19T09:31:13.877Z</time>
      </trkpt>
      <trkpt lat="43.26723" lon="-4.32078167">
        <ele>561.0</ele>
        <time>2018-05-19T09:31:14.879Z</time>
      </trkpt>
      <trkpt lat="43.26723" lon="-4.32078167">
        <ele>561.0</ele>
        <time>2018-05-19T09:31:15.882Z</time>
      </trkpt>
      <trkpt lat="43.26726167" lon="-4.32060833">
        <ele>561.0</ele>
        <time>2018-05-19T09:31:16.881Z</time>
      </trkpt>
      <trkpt lat="43.26726167" lon="-4.32060833">
        <ele>561.0</ele>
        <time>2018-05-19T09:31:17.874Z</time>
      </trkpt>
      <trkpt lat="43.26730333" lon="-4.32043">
        <ele>561.0</ele>
        <time>2018-05-19T09:31:18.878Z</time>
      </trkpt>
      <trkpt lat="43.26730333" lon="-4.32043">
        <ele>561.0</ele>
        <time>2018-05-19T09:31:19.873Z</time>
      </trkpt>
      <trkpt lat="43.26736" lon="-4.320255">
        <ele>561.0</ele>
        <time>2018-05-19T09:31:20.875Z</time>
      </trkpt>
      <trkpt lat="43.26736" lon="-4.320255">
        <ele>561.0</ele>
        <time>2018-05-19T09:31:21.875Z</time>
      </trkpt>
      <trkpt lat="43.26742" lon="-4.32007333">
        <ele>562.0</ele>
        <time>2018-05-19T09:31:22.880Z</time>
      </trkpt>
      <trkpt lat="43.26742" lon="-4.32007333">
        <ele>562.0</ele>
        <time>2018-05-19T09:31:23.869Z</time>
      </trkpt>
      <trkpt lat="43.26749667" lon="-4.31990167">
        <ele>561.0</ele>
        <time>2018-05-19T09:31:24.851Z</time>
      </trkpt>
      <trkpt lat="43.26749667" lon="-4.31990167">
        <ele>561.0</ele>
        <time>2018-05-19T09:31:25.856Z</time>
      </trkpt>
      <trkpt lat="43.26758" lon="-4.31973833">
        <ele>561.0</ele>
        <time>2018-05-19T09:31:26.845Z</time>
      </trkpt>
      <trkpt lat="43.26758" lon="-4.31973833">
        <ele>561.0</ele>
        <time>2018-05-19T09:31:27.872Z</time>
      </trkpt>
      <trkpt lat="43.26765167" lon="-4.319575">
        <ele>561.0</ele>
        <time>2018-05-19T09:31:28.876Z</time>
      </trkpt>
      <trkpt lat="43.26765167" lon="-4.319575">
        <ele>561.0</ele>
        <time>2018-05-19T09:31:29.875Z</time>
      </trkpt>
      <trkpt lat="43.26773833" lon="-4.319425">
        <ele>561.0</ele>
        <time>2018-05-19T09:31:30.858Z</time>
      </trkpt>
      <trkpt lat="43.26779333" lon="-4.31936667">
        <ele>561.0</ele>
        <time>2018-05-19T09:31:31.857Z</time>
      </trkpt>
      <trkpt lat="43.26779333" lon="-4.31936667">
        <ele>561.0</ele>
        <time>2018-05-19T09:31:32.879Z</time>
      </trkpt>
      <trkpt lat="43.26791333" lon="-4.31928">
        <ele>561.0</ele>
        <time>2018-05-19T09:31:33.877Z</time>
      </trkpt>
      <trkpt lat="43.26796833" lon="-4.31922">
        <ele>561.0</ele>
        <time>2018-05-19T09:31:34.881Z</time>
      </trkpt>
      <trkpt lat="43.26796833" lon="-4.31922">
        <ele>561.0</ele>
        <time>2018-05-19T09:31:35.873Z</time>
      </trkpt>
      <trkpt lat="43.26804667" lon="-4.319055">
        <ele>561.0</ele>
        <time>2018-05-19T09:31:36.878Z</time>
      </trkpt>
      <trkpt lat="43.26804667" lon="-4.319055">
        <ele>561.0</ele>
        <time>2018-05-19T09:31:37.876Z</time>
      </trkpt>
      <trkpt lat="43.26810667" lon="-4.31886167">
        <ele>560.0</ele>
        <time>2018-05-19T09:31:38.880Z</time>
      </trkpt>
      <trkpt lat="43.26810667" lon="-4.31886167">
        <ele>560.0</ele>
        <time>2018-05-19T09:31:39.872Z</time>
      </trkpt>
      <trkpt lat="43.26817" lon="-4.31865833">
        <ele>560.0</ele>
        <time>2018-05-19T09:31:40.859Z</time>
      </trkpt>
      <trkpt lat="43.26819" lon="-4.31855667">
        <ele>561.0</ele>
        <time>2018-05-19T09:31:41.845Z</time>
      </trkpt>
      <trkpt lat="43.26821" lon="-4.31845333">
        <ele>561.0</ele>
        <time>2018-05-19T09:31:42.879Z</time>
      </trkpt>
      <trkpt lat="43.26821" lon="-4.31845333">
        <ele>561.0</ele>
        <time>2018-05-19T09:31:43.868Z</time>
      </trkpt>
      <trkpt lat="43.26825833" lon="-4.31825">
        <ele>560.0</ele>
        <time>2018-05-19T09:31:44.854Z</time>
      </trkpt>
      <trkpt lat="43.26825833" lon="-4.31825">
        <ele>560.0</ele>
        <time>2018-05-19T09:31:45.876Z</time>
      </trkpt>
      <trkpt lat="43.26830333" lon="-4.31805667">
        <ele>560.0</ele>
        <time>2018-05-19T09:31:46.872Z</time>
      </trkpt>
      <trkpt lat="43.26830333" lon="-4.31805667">
        <ele>560.0</ele>
        <time>2018-05-19T09:31:47.878Z</time>
      </trkpt>
      <trkpt lat="43.26832" lon="-4.31785167">
        <ele>560.0</ele>
        <time>2018-05-19T09:31:48.844Z</time>
      </trkpt>
      <trkpt lat="43.26832667" lon="-4.31775167">
        <ele>560.0</ele>
        <time>2018-05-19T09:31:49.879Z</time>
      </trkpt>
      <trkpt lat="43.26832667" lon="-4.31775167">
        <ele>560.0</ele>
        <time>2018-05-19T09:31:50.871Z</time>
      </trkpt>
      <trkpt lat="43.26833167" lon="-4.31756">
        <ele>560.0</ele>
        <time>2018-05-19T09:31:51.853Z</time>
      </trkpt>
      <trkpt lat="43.26834833" lon="-4.317465">
        <ele>560.0</ele>
        <time>2018-05-19T09:31:52.881Z</time>
      </trkpt>
      <trkpt lat="43.26834833" lon="-4.317465">
        <ele>560.0</ele>
        <time>2018-05-19T09:31:53.871Z</time>
      </trkpt>
      <trkpt lat="43.26839667" lon="-4.31727833">
        <ele>560.0</ele>
        <time>2018-05-19T09:31:54.879Z</time>
      </trkpt>
      <trkpt lat="43.26839667" lon="-4.31727833">
        <ele>560.0</ele>
        <time>2018-05-19T09:31:55.876Z</time>
      </trkpt>
      <trkpt lat="43.26846" lon="-4.31710167">
        <ele>560.0</ele>
        <time>2018-05-19T09:31:56.878Z</time>
      </trkpt>
      <trkpt lat="43.26850333" lon="-4.317015">
        <ele>560.0</ele>
        <time>2018-05-19T09:31:57.876Z</time>
      </trkpt>
      <trkpt lat="43.26853833" lon="-4.31692">
        <ele>560.0</ele>
        <time>2018-05-19T09:31:58.880Z</time>
      </trkpt>
      <trkpt lat="43.26853833" lon="-4.31692">
        <ele>560.0</ele>
        <time>2018-05-19T09:31:59.873Z</time>
      </trkpt>
      <trkpt lat="43.26854833" lon="-4.31672">
        <ele>560.0</ele>
        <time>2018-05-19T09:32:00.879Z</time>
      </trkpt>
      <trkpt lat="43.26854833" lon="-4.31672">
        <ele>560.0</ele>
        <time>2018-05-19T09:32:01.875Z</time>
      </trkpt>
      <trkpt lat="43.26853167" lon="-4.31651833">
        <ele>560.0</ele>
        <time>2018-05-19T09:32:02.875Z</time>
      </trkpt>
      <trkpt lat="43.26853167" lon="-4.31651833">
        <ele>560.0</ele>
        <time>2018-05-19T09:32:03.868Z</time>
      </trkpt>
      <trkpt lat="43.26855" lon="-4.31632333">
        <ele>559.0</ele>
        <time>2018-05-19T09:32:04.853Z</time>
      </trkpt>
      <trkpt lat="43.26855" lon="-4.31632333">
        <ele>559.0</ele>
        <time>2018-05-19T09:32:05.879Z</time>
      </trkpt>
      <trkpt lat="43.26860333" lon="-4.31613333">
        <ele>559.0</ele>
        <time>2018-05-19T09:32:06.880Z</time>
      </trkpt>
      <trkpt lat="43.26865333" lon="-4.316055">
        <ele>558.0</ele>
        <time>2018-05-19T09:32:07.878Z</time>
      </trkpt>
      <trkpt lat="43.26865333" lon="-4.316055">
        <ele>558.0</ele>
        <time>2018-05-19T09:32:08.875Z</time>
      </trkpt>
      <trkpt lat="43.26875667" lon="-4.31593333">
        <ele>557.0</ele>
        <time>2018-05-19T09:32:09.878Z</time>
      </trkpt>
      <trkpt lat="43.26880667" lon="-4.315865">
        <ele>557.0</ele>
        <time>2018-05-19T09:32:10.877Z</time>
      </trkpt>
      <trkpt lat="43.26880667" lon="-4.315865">
        <ele>557.0</ele>
        <time>2018-05-19T09:32:11.873Z</time>
      </trkpt>
      <trkpt lat="43.26887333" lon="-4.31567833">
        <ele>557.0</ele>
        <time>2018-05-19T09:32:12.878Z</time>
      </trkpt>
      <trkpt lat="43.26887333" lon="-4.31567833">
        <ele>557.0</ele>
        <time>2018-05-19T09:32:13.868Z</time>
      </trkpt>
      <trkpt lat="43.26887" lon="-4.31547">
        <ele>556.0</ele>
        <time>2018-05-19T09:32:14.854Z</time>
      </trkpt>
      <trkpt lat="43.26887" lon="-4.31547">
        <ele>556.0</ele>
        <time>2018-05-19T09:32:15.879Z</time>
      </trkpt>
      <trkpt lat="43.26887" lon="-4.31526">
        <ele>555.0</ele>
        <time>2018-05-19T09:32:16.881Z</time>
      </trkpt>
      <trkpt lat="43.26887" lon="-4.31526">
        <ele>555.0</ele>
        <time>2018-05-19T09:32:17.875Z</time>
      </trkpt>
      <trkpt lat="43.268895" lon="-4.31505667">
        <ele>555.0</ele>
        <time>2018-05-19T09:32:18.878Z</time>
      </trkpt>
      <trkpt lat="43.268895" lon="-4.31505667">
        <ele>555.0</ele>
        <time>2018-05-19T09:32:19.873Z</time>
      </trkpt>
      <trkpt lat="43.26891167" lon="-4.31485">
        <ele>555.0</ele>
        <time>2018-05-19T09:32:20.880Z</time>
      </trkpt>
      <trkpt lat="43.26891833" lon="-4.31474833">
        <ele>554.0</ele>
        <time>2018-05-19T09:32:21.876Z</time>
      </trkpt>
      <trkpt lat="43.26892" lon="-4.31464333">
        <ele>554.0</ele>
        <time>2018-05-19T09:32:22.881Z</time>
      </trkpt>
      <trkpt lat="43.26892" lon="-4.31464333">
        <ele>554.0</ele>
        <time>2018-05-19T09:32:23.869Z</time>
      </trkpt>
      <trkpt lat="43.26893" lon="-4.31443667">
        <ele>554.0</ele>
        <time>2018-05-19T09:32:24.878Z</time>
      </trkpt>
      <trkpt lat="43.26893" lon="-4.31443667">
        <ele>554.0</ele>
        <time>2018-05-19T09:32:25.875Z</time>
      </trkpt>
      <trkpt lat="43.268955" lon="-4.31423">
        <ele>554.0</ele>
        <time>2018-05-19T09:32:26.876Z</time>
      </trkpt>
      <trkpt lat="43.268955" lon="-4.31423">
        <ele>554.0</ele>
        <time>2018-05-19T09:32:27.875Z</time>
      </trkpt>
      <trkpt lat="43.26901" lon="-4.31403167">
        <ele>553.0</ele>
        <time>2018-05-19T09:32:28.876Z</time>
      </trkpt>
      <trkpt lat="43.26901" lon="-4.31403167">
        <ele>553.0</ele>
        <time>2018-05-19T09:32:29.873Z</time>
      </trkpt>
      <trkpt lat="43.26905333" lon="-4.31383333">
        <ele>553.0</ele>
        <time>2018-05-19T09:32:30.878Z</time>
      </trkpt>
      <trkpt lat="43.26905333" lon="-4.31383333">
        <ele>553.0</ele>
        <time>2018-05-19T09:32:31.874Z</time>
      </trkpt>
      <trkpt lat="43.26911333" lon="-4.31364667">
        <ele>552.0</ele>
        <time>2018-05-19T09:32:32.878Z</time>
      </trkpt>
      <trkpt lat="43.26911333" lon="-4.31364667">
        <ele>552.0</ele>
        <time>2018-05-19T09:32:33.869Z</time>
      </trkpt>
      <trkpt lat="43.26912667" lon="-4.313445">
        <ele>552.0</ele>
        <time>2018-05-19T09:32:34.847Z</time>
      </trkpt>
      <trkpt lat="43.26912667" lon="-4.313445">
        <ele>552.0</ele>
        <time>2018-05-19T09:32:35.874Z</time>
      </trkpt>
      <trkpt lat="43.26906167" lon="-4.31325833">
        <ele>551.0</ele>
        <time>2018-05-19T09:32:36.876Z</time>
      </trkpt>
      <trkpt lat="43.26906167" lon="-4.31325833">
        <ele>551.0</ele>
        <time>2018-05-19T09:32:37.866Z</time>
      </trkpt>
      <trkpt lat="43.26904833" lon="-4.31302833">
        <ele>550.0</ele>
        <time>2018-05-19T09:32:38.850Z</time>
      </trkpt>
      <trkpt lat="43.26904833" lon="-4.31302833">
        <ele>550.0</ele>
        <time>2018-05-19T09:32:39.877Z</time>
      </trkpt>
      <trkpt lat="43.26905833" lon="-4.31278333">
        <ele>549.0</ele>
        <time>2018-05-19T09:32:40.872Z</time>
      </trkpt>
      <trkpt lat="43.26905" lon="-4.31265667">
        <ele>549.0</ele>
        <time>2018-05-19T09:32:41.877Z</time>
      </trkpt>
      <trkpt lat="43.26904333" lon="-4.31253">
        <ele>548.0</ele>
        <time>2018-05-19T09:32:42.878Z</time>
      </trkpt>
      <trkpt lat="43.26904333" lon="-4.31253">
        <ele>548.0</ele>
        <time>2018-05-19T09:32:43.871Z</time>
      </trkpt>
      <trkpt lat="43.26901167" lon="-4.31228333">
        <ele>547.0</ele>
        <time>2018-05-19T09:32:44.849Z</time>
      </trkpt>
      <trkpt lat="43.26901167" lon="-4.31228333">
        <ele>547.0</ele>
        <time>2018-05-19T09:32:45.845Z</time>
      </trkpt>
      <trkpt lat="43.26897333" lon="-4.31204">
        <ele>546.0</ele>
        <time>2018-05-19T09:32:46.870Z</time>
      </trkpt>
      <trkpt lat="43.26896167" lon="-4.31191">
        <ele>545.0</ele>
        <time>2018-05-19T09:32:47.876Z</time>
      </trkpt>
      <trkpt lat="43.26896167" lon="-4.31191">
        <ele>545.0</ele>
        <time>2018-05-19T09:32:48.882Z</time>
      </trkpt>
      <trkpt lat="43.268955" lon="-4.31164333">
        <ele>544.0</ele>
        <time>2018-05-19T09:32:49.867Z</time>
      </trkpt>
      <trkpt lat="43.268955" lon="-4.31164333">
        <ele>544.0</ele>
        <time>2018-05-19T09:32:50.850Z</time>
      </trkpt>
      <trkpt lat="43.26897333" lon="-4.311375">
        <ele>543.0</ele>
        <time>2018-05-19T09:32:51.879Z</time>
      </trkpt>
      <trkpt lat="43.26898167" lon="-4.31124167">
        <ele>543.0</ele>
        <time>2018-05-19T09:32:52.879Z</time>
      </trkpt>
      <trkpt lat="43.26898167" lon="-4.31124167">
        <ele>543.0</ele>
        <time>2018-05-19T09:32:53.867Z</time>
      </trkpt>
      <trkpt lat="43.26898333" lon="-4.310975">
        <ele>542.0</ele>
        <time>2018-05-19T09:32:54.879Z</time>
      </trkpt>
      <trkpt lat="43.26898333" lon="-4.310975">
        <ele>542.0</ele>
        <time>2018-05-19T09:32:55.875Z</time>
      </trkpt>
      <trkpt lat="43.26899167" lon="-4.31070833">
        <ele>541.0</ele>
        <time>2018-05-19T09:32:56.878Z</time>
      </trkpt>
      <trkpt lat="43.269" lon="-4.31057833">
        <ele>541.0</ele>
        <time>2018-05-19T09:32:57.879Z</time>
      </trkpt>
      <trkpt lat="43.269" lon="-4.31057833">
        <ele>541.0</ele>
        <time>2018-05-19T09:32:58.867Z</time>
      </trkpt>
      <trkpt lat="43.26901667" lon="-4.31031667">
        <ele>540.0</ele>
        <time>2018-05-19T09:32:59.849Z</time>
      </trkpt>
      <trkpt lat="43.26902667" lon="-4.31018667">
        <ele>540.0</ele>
        <time>2018-05-19T09:33:00.879Z</time>
      </trkpt>
      <trkpt lat="43.26902667" lon="-4.31018667">
        <ele>540.0</ele>
        <time>2018-05-19T09:33:01.873Z</time>
      </trkpt>
      <trkpt lat="43.269055" lon="-4.30992667">
        <ele>539.0</ele>
        <time>2018-05-19T09:33:02.879Z</time>
      </trkpt>
      <trkpt lat="43.269055" lon="-4.30992667">
        <ele>539.0</ele>
        <time>2018-05-19T09:33:03.868Z</time>
      </trkpt>
      <trkpt lat="43.26908833" lon="-4.30968167">
        <ele>538.0</ele>
        <time>2018-05-19T09:33:04.853Z</time>
      </trkpt>
      <trkpt lat="43.269095" lon="-4.30955333">
        <ele>537.0</ele>
        <time>2018-05-19T09:33:05.879Z</time>
      </trkpt>
      <trkpt lat="43.26909" lon="-4.30942833">
        <ele>537.0</ele>
        <time>2018-05-19T09:33:06.879Z</time>
      </trkpt>
      <trkpt lat="43.26909" lon="-4.30942833">
        <ele>537.0</ele>
        <time>2018-05-19T09:33:07.874Z</time>
      </trkpt>
      <trkpt lat="43.26907333" lon="-4.30917333">
        <ele>536.0</ele>
        <time>2018-05-19T09:33:08.878Z</time>
      </trkpt>
      <trkpt lat="43.269075" lon="-4.30904167">
        <ele>535.0</ele>
        <time>2018-05-19T09:33:09.880Z</time>
      </trkpt>
      <trkpt lat="43.269075" lon="-4.30904167">
        <ele>535.0</ele>
        <time>2018-05-19T09:33:10.872Z</time>
      </trkpt>
      <trkpt lat="43.26909167" lon="-4.308785">
        <ele>534.0</ele>
        <time>2018-05-19T09:33:11.876Z</time>
      </trkpt>
      <trkpt lat="43.26908667" lon="-4.308665">
        <ele>533.0</ele>
        <time>2018-05-19T09:33:12.878Z</time>
      </trkpt>
      <trkpt lat="43.26908667" lon="-4.308665">
        <ele>533.0</ele>
        <time>2018-05-19T09:33:13.868Z</time>
      </trkpt>
      <trkpt lat="43.26904167" lon="-4.308445">
        <ele>532.0</ele>
        <time>2018-05-19T09:33:14.865Z</time>
      </trkpt>
      <trkpt lat="43.26900833" lon="-4.308355">
        <ele>532.0</ele>
        <time>2018-05-19T09:33:15.847Z</time>
      </trkpt>
      <trkpt lat="43.26900833" lon="-4.308355">
        <ele>532.0</ele>
        <time>2018-05-19T09:33:16.875Z</time>
      </trkpt>
      <trkpt lat="43.26893667" lon="-4.30818333">
        <ele>531.0</ele>
        <time>2018-05-19T09:33:17.876Z</time>
      </trkpt>
      <trkpt lat="43.2689" lon="-4.30807833">
        <ele>530.0</ele>
        <time>2018-05-19T09:33:18.878Z</time>
      </trkpt>
      <trkpt lat="43.2689" lon="-4.30807833">
        <ele>530.0</ele>
        <time>2018-05-19T09:33:19.875Z</time>
      </trkpt>
      <trkpt lat="43.26885" lon="-4.30784">
        <ele>529.0</ele>
        <time>2018-05-19T09:33:20.876Z</time>
      </trkpt>
      <trkpt lat="43.26885" lon="-4.30784">
        <ele>529.0</ele>
        <time>2018-05-19T09:33:21.875Z</time>
      </trkpt>
      <trkpt lat="43.26877333" lon="-4.30759167">
        <ele>527.0</ele>
        <time>2018-05-19T09:33:22.880Z</time>
      </trkpt>
      <trkpt lat="43.26877333" lon="-4.30759167">
        <ele>527.0</ele>
        <time>2018-05-19T09:33:23.868Z</time>
      </trkpt>
      <trkpt lat="43.26869833" lon="-4.30734667">
        <ele>526.0</ele>
        <time>2018-05-19T09:33:24.879Z</time>
      </trkpt>
      <trkpt lat="43.26869833" lon="-4.30734667">
        <ele>526.0</ele>
        <time>2018-05-19T09:33:25.875Z</time>
      </trkpt>
      <trkpt lat="43.26861" lon="-4.30707167">
        <ele>525.0</ele>
        <time>2018-05-19T09:33:26.876Z</time>
      </trkpt>
      <trkpt lat="43.26861" lon="-4.30707167">
        <ele>525.0</ele>
        <time>2018-05-19T09:33:27.872Z</time>
      </trkpt>
      <trkpt lat="43.26852" lon="-4.30679667">
        <ele>524.0</ele>
        <time>2018-05-19T09:33:28.877Z</time>
      </trkpt>
      <trkpt lat="43.26852" lon="-4.30679667">
        <ele>524.0</ele>
        <time>2018-05-19T09:33:29.874Z</time>
      </trkpt>
      <trkpt lat="43.26846833" lon="-4.30652167">
        <ele>522.0</ele>
        <time>2018-05-19T09:33:30.878Z</time>
      </trkpt>
      <trkpt lat="43.26846833" lon="-4.30652167">
        <ele>522.0</ele>
        <time>2018-05-19T09:33:31.873Z</time>
      </trkpt>
      <trkpt lat="43.26847167" lon="-4.30626667">
        <ele>521.0</ele>
        <time>2018-05-19T09:33:32.876Z</time>
      </trkpt>
      <trkpt lat="43.26847167" lon="-4.30626667">
        <ele>521.0</ele>
        <time>2018-05-19T09:33:33.868Z</time>
      </trkpt>
      <trkpt lat="43.26847" lon="-4.30599333">
        <ele>520.0</ele>
        <time>2018-05-19T09:33:34.854Z</time>
      </trkpt>
      <trkpt lat="43.26847" lon="-4.30599333">
        <ele>520.0</ele>
        <time>2018-05-19T09:33:35.877Z</time>
      </trkpt>
      <trkpt lat="43.268485" lon="-4.30571">
        <ele>518.0</ele>
        <time>2018-05-19T09:33:36.878Z</time>
      </trkpt>
      <trkpt lat="43.268485" lon="-4.30571">
        <ele>518.0</ele>
        <time>2018-05-19T09:33:37.874Z</time>
      </trkpt>
      <trkpt lat="43.268475" lon="-4.30543667">
        <ele>517.0</ele>
        <time>2018-05-19T09:33:38.878Z</time>
      </trkpt>
      <trkpt lat="43.268475" lon="-4.30543667">
        <ele>517.0</ele>
        <time>2018-05-19T09:33:39.874Z</time>
      </trkpt>
      <trkpt lat="43.26842833" lon="-4.30517833">
        <ele>515.0</ele>
        <time>2018-05-19T09:33:40.878Z</time>
      </trkpt>
      <trkpt lat="43.26841667" lon="-4.30503167">
        <ele>514.0</ele>
        <time>2018-05-19T09:33:41.877Z</time>
      </trkpt>
      <trkpt lat="43.26841333" lon="-4.304885">
        <ele>513.0</ele>
        <time>2018-05-19T09:33:42.878Z</time>
      </trkpt>
      <trkpt lat="43.26841333" lon="-4.304885">
        <ele>513.0</ele>
        <time>2018-05-19T09:33:43.868Z</time>
      </trkpt>
      <trkpt lat="43.2684" lon="-4.30458833">
        <ele>512.0</ele>
        <time>2018-05-19T09:33:44.860Z</time>
      </trkpt>
      <trkpt lat="43.2684" lon="-4.30458833">
        <ele>512.0</ele>
        <time>2018-05-19T09:33:45.848Z</time>
      </trkpt>
      <trkpt lat="43.26838667" lon="-4.30429167">
        <ele>510.0</ele>
        <time>2018-05-19T09:33:46.859Z</time>
      </trkpt>
      <trkpt lat="43.26838667" lon="-4.30429167">
        <ele>510.0</ele>
        <time>2018-05-19T09:33:47.865Z</time>
      </trkpt>
      <trkpt lat="43.26833" lon="-4.30401167">
        <ele>508.0</ele>
        <time>2018-05-19T09:33:48.851Z</time>
      </trkpt>
      <trkpt lat="43.26833" lon="-4.30401167">
        <ele>508.0</ele>
        <time>2018-05-19T09:33:49.877Z</time>
      </trkpt>
      <trkpt lat="43.268285" lon="-4.303745">
        <ele>506.0</ele>
        <time>2018-05-19T09:33:50.878Z</time>
      </trkpt>
      <trkpt lat="43.26826667" lon="-4.30362">
        <ele>505.0</ele>
        <time>2018-05-19T09:33:51.878Z</time>
      </trkpt>
      <trkpt lat="43.26825833" lon="-4.30349667">
        <ele>504.0</ele>
        <time>2018-05-19T09:33:52.880Z</time>
      </trkpt>
      <trkpt lat="43.26825833" lon="-4.30349667">
        <ele>504.0</ele>
        <time>2018-05-19T09:33:53.871Z</time>
      </trkpt>
      <trkpt lat="43.26829333" lon="-4.30325333">
        <ele>502.0</ele>
        <time>2018-05-19T09:33:54.847Z</time>
      </trkpt>
      <trkpt lat="43.26829333" lon="-4.30325333">
        <ele>502.0</ele>
        <time>2018-05-19T09:33:55.876Z</time>
      </trkpt>
      <trkpt lat="43.26838" lon="-4.30300833">
        <ele>500.0</ele>
        <time>2018-05-19T09:33:56.875Z</time>
      </trkpt>
      <trkpt lat="43.26838" lon="-4.30300833">
        <ele>500.0</ele>
        <time>2018-05-19T09:33:57.875Z</time>
      </trkpt>
      <trkpt lat="43.268435" lon="-4.30276667">
        <ele>498.0</ele>
        <time>2018-05-19T09:33:58.875Z</time>
      </trkpt>
      <trkpt lat="43.268435" lon="-4.30276667">
        <ele>498.0</ele>
        <time>2018-05-19T09:33:59.871Z</time>
      </trkpt>
      <trkpt lat="43.26842333" lon="-4.30253">
        <ele>497.0</ele>
        <time>2018-05-19T09:34:00.875Z</time>
      </trkpt>
      <trkpt lat="43.26842333" lon="-4.30253">
        <ele>497.0</ele>
        <time>2018-05-19T09:34:01.874Z</time>
      </trkpt>
      <trkpt lat="43.26835" lon="-4.30229667">
        <ele>495.0</ele>
        <time>2018-05-19T09:34:02.876Z</time>
      </trkpt>
      <trkpt lat="43.26835" lon="-4.30229667">
        <ele>495.0</ele>
        <time>2018-05-19T09:34:03.868Z</time>
      </trkpt>
      <trkpt lat="43.26828833" lon="-4.30204833">
        <ele>493.0</ele>
        <time>2018-05-19T09:34:04.857Z</time>
      </trkpt>
      <trkpt lat="43.26828833" lon="-4.30204833">
        <ele>493.0</ele>
        <time>2018-05-19T09:34:05.875Z</time>
      </trkpt>
      <trkpt lat="43.26823333" lon="-4.30178667">
        <ele>490.0</ele>
        <time>2018-05-19T09:34:06.878Z</time>
      </trkpt>
      <trkpt lat="43.26823333" lon="-4.30178667">
        <ele>490.0</ele>
        <time>2018-05-19T09:34:07.873Z</time>
      </trkpt>
      <trkpt lat="43.2682" lon="-4.30152">
        <ele>488.0</ele>
        <time>2018-05-19T09:34:08.879Z</time>
      </trkpt>
      <trkpt lat="43.2682" lon="-4.30152">
        <ele>488.0</ele>
        <time>2018-05-19T09:34:09.872Z</time>
      </trkpt>
      <trkpt lat="43.26814167" lon="-4.30124333">
        <ele>486.0</ele>
        <time>2018-05-19T09:34:10.876Z</time>
      </trkpt>
      <trkpt lat="43.26814167" lon="-4.30124333">
        <ele>486.0</ele>
        <time>2018-05-19T09:34:11.874Z</time>
      </trkpt>
      <trkpt lat="43.268085" lon="-4.30096667">
        <ele>484.0</ele>
        <time>2018-05-19T09:34:12.876Z</time>
      </trkpt>
      <trkpt lat="43.268085" lon="-4.30096667">
        <ele>484.0</ele>
        <time>2018-05-19T09:34:13.867Z</time>
      </trkpt>
      <trkpt lat="43.26804167" lon="-4.30066833">
        <ele>482.0</ele>
        <time>2018-05-19T09:34:14.850Z</time>
      </trkpt>
      <trkpt lat="43.26804167" lon="-4.30066833">
        <ele>482.0</ele>
        <time>2018-05-19T09:34:15.876Z</time>
      </trkpt>
      <trkpt lat="43.26801667" lon="-4.30036167">
        <ele>480.0</ele>
        <time>2018-05-19T09:34:16.884Z</time>
      </trkpt>
      <trkpt lat="43.26801667" lon="-4.30036167">
        <ele>480.0</ele>
        <time>2018-05-19T09:34:17.875Z</time>
      </trkpt>
      <trkpt lat="43.268005" lon="-4.30008">
        <ele>478.0</ele>
        <time>2018-05-19T09:34:18.878Z</time>
      </trkpt>
      <trkpt lat="43.268005" lon="-4.30008">
        <ele>478.0</ele>
        <time>2018-05-19T09:34:19.874Z</time>
      </trkpt>
      <trkpt lat="43.26803" lon="-4.29982">
        <ele>475.0</ele>
        <time>2018-05-19T09:34:20.874Z</time>
      </trkpt>
      <trkpt lat="43.26803" lon="-4.29982">
        <ele>475.0</ele>
        <time>2018-05-19T09:34:21.875Z</time>
      </trkpt>
      <trkpt lat="43.268105" lon="-4.29957333">
        <ele>473.0</ele>
        <time>2018-05-19T09:34:22.879Z</time>
      </trkpt>
      <trkpt lat="43.268105" lon="-4.29957333">
        <ele>473.0</ele>
        <time>2018-05-19T09:34:23.868Z</time>
      </trkpt>
      <trkpt lat="43.26821333" lon="-4.29933167">
        <ele>471.0</ele>
        <time>2018-05-19T09:34:24.883Z</time>
      </trkpt>
      <trkpt lat="43.26821333" lon="-4.29933167">
        <ele>471.0</ele>
        <time>2018-05-19T09:34:25.869Z</time>
      </trkpt>
      <trkpt lat="43.268275" lon="-4.2991">
        <ele>469.0</ele>
        <time>2018-05-19T09:34:26.876Z</time>
      </trkpt>
      <trkpt lat="43.26829667" lon="-4.29899">
        <ele>468.0</ele>
        <time>2018-05-19T09:34:27.878Z</time>
      </trkpt>
      <trkpt lat="43.26829" lon="-4.29888833">
        <ele>467.0</ele>
        <time>2018-05-19T09:34:28.878Z</time>
      </trkpt>
      <trkpt lat="43.26829" lon="-4.29888833">
        <ele>467.0</ele>
        <time>2018-05-19T09:34:29.874Z</time>
      </trkpt>
      <trkpt lat="43.268215" lon="-4.29872833">
        <ele>465.0</ele>
        <time>2018-05-19T09:34:30.878Z</time>
      </trkpt>
      <trkpt lat="43.268215" lon="-4.29872833">
        <ele>465.0</ele>
        <time>2018-05-19T09:34:31.874Z</time>
      </trkpt>
      <trkpt lat="43.268115" lon="-4.29867">
        <ele>463.0</ele>
        <time>2018-05-19T09:34:32.877Z</time>
      </trkpt>
      <trkpt lat="43.268115" lon="-4.29867">
        <ele>463.0</ele>
        <time>2018-05-19T09:34:33.871Z</time>
      </trkpt>
      <trkpt lat="43.26804" lon="-4.29873667">
        <ele>461.0</ele>
        <time>2018-05-19T09:34:34.854Z</time>
      </trkpt>
      <trkpt lat="43.26804" lon="-4.29873667">
        <ele>461.0</ele>
        <time>2018-05-19T09:34:35.874Z</time>
      </trkpt>
      <trkpt lat="43.26797333" lon="-4.29886">
        <ele>459.0</ele>
        <time>2018-05-19T09:34:36.877Z</time>
      </trkpt>
      <trkpt lat="43.26797333" lon="-4.29886">
        <ele>459.0</ele>
        <time>2018-05-19T09:34:37.872Z</time>
      </trkpt>
      <trkpt lat="43.26793" lon="-4.29904833">
        <ele>457.0</ele>
        <time>2018-05-19T09:34:38.876Z</time>
      </trkpt>
      <trkpt lat="43.267915" lon="-4.29915667">
        <ele>456.0</ele>
        <time>2018-05-19T09:34:39.876Z</time>
      </trkpt>
      <trkpt lat="43.267915" lon="-4.29915667">
        <ele>456.0</ele>
        <time>2018-05-19T09:34:40.870Z</time>
      </trkpt>
      <trkpt lat="43.26784333" lon="-4.29936333">
        <ele>454.0</ele>
        <time>2018-05-19T09:34:41.877Z</time>
      </trkpt>
      <trkpt lat="43.26778167" lon="-4.29944833">
        <ele>453.0</ele>
        <time>2018-05-19T09:34:42.878Z</time>
      </trkpt>
      <trkpt lat="43.26778167" lon="-4.29944833">
        <ele>453.0</ele>
        <time>2018-05-19T09:34:43.867Z</time>
      </trkpt>
      <trkpt lat="43.26764333" lon="-4.29959">
        <ele>451.0</ele>
        <time>2018-05-19T09:34:44.851Z</time>
      </trkpt>
      <trkpt lat="43.26764333" lon="-4.29959">
        <ele>451.0</ele>
        <time>2018-05-19T09:34:45.870Z</time>
      </trkpt>
      <trkpt lat="43.267515" lon="-4.29974167">
        <ele>448.0</ele>
        <time>2018-05-19T09:34:46.863Z</time>
      </trkpt>
      <trkpt lat="43.267515" lon="-4.29974167">
        <ele>448.0</ele>
        <time>2018-05-19T09:34:47.870Z</time>
      </trkpt>
      <trkpt lat="43.26742167" lon="-4.29996">
        <ele>446.0</ele>
        <time>2018-05-19T09:34:48.875Z</time>
      </trkpt>
      <trkpt lat="43.267385" lon="-4.30007667">
        <ele>445.0</ele>
        <time>2018-05-19T09:34:49.876Z</time>
      </trkpt>
      <trkpt lat="43.267385" lon="-4.30007667">
        <ele>445.0</ele>
        <time>2018-05-19T09:34:50.873Z</time>
      </trkpt>
      <trkpt lat="43.26732333" lon="-4.30030333">
        <ele>442.0</ele>
        <time>2018-05-19T09:34:51.878Z</time>
      </trkpt>
      <trkpt lat="43.26727667" lon="-4.30041">
        <ele>441.0</ele>
        <time>2018-05-19T09:34:52.852Z</time>
      </trkpt>
      <trkpt lat="43.26727667" lon="-4.30041">
        <ele>441.0</ele>
        <time>2018-05-19T09:34:53.877Z</time>
      </trkpt>
      <trkpt lat="43.267185" lon="-4.30063">
        <ele>440.0</ele>
        <time>2018-05-19T09:34:54.878Z</time>
      </trkpt>
      <trkpt lat="43.267185" lon="-4.30063">
        <ele>440.0</ele>
        <time>2018-05-19T09:34:55.875Z</time>
      </trkpt>
      <trkpt lat="43.26712167" lon="-4.30088333">
        <ele>438.0</ele>
        <time>2018-05-19T09:34:56.873Z</time>
      </trkpt>
      <trkpt lat="43.26712167" lon="-4.30088333">
        <ele>438.0</ele>
        <time>2018-05-19T09:34:57.874Z</time>
      </trkpt>
      <trkpt lat="43.26710167" lon="-4.30115667">
        <ele>436.0</ele>
        <time>2018-05-19T09:34:58.879Z</time>
      </trkpt>
      <trkpt lat="43.26710167" lon="-4.30115667">
        <ele>436.0</ele>
        <time>2018-05-19T09:34:59.874Z</time>
      </trkpt>
      <trkpt lat="43.267105" lon="-4.30142">
        <ele>434.0</ele>
        <time>2018-05-19T09:35:00.878Z</time>
      </trkpt>
      <trkpt lat="43.267105" lon="-4.30142">
        <ele>434.0</ele>
        <time>2018-05-19T09:35:01.872Z</time>
      </trkpt>
      <trkpt lat="43.26713833" lon="-4.30164167">
        <ele>432.0</ele>
        <time>2018-05-19T09:35:02.876Z</time>
      </trkpt>
      <trkpt lat="43.26713833" lon="-4.30164167">
        <ele>432.0</ele>
        <time>2018-05-19T09:35:03.868Z</time>
      </trkpt>
      <trkpt lat="43.26715667" lon="-4.30185">
        <ele>430.0</ele>
        <time>2018-05-19T09:35:04.853Z</time>
      </trkpt>
      <trkpt lat="43.26715667" lon="-4.30185">
        <ele>430.0</ele>
        <time>2018-05-19T09:35:05.879Z</time>
      </trkpt>
      <trkpt lat="43.26710167" lon="-4.302045">
        <ele>428.0</ele>
        <time>2018-05-19T09:35:06.878Z</time>
      </trkpt>
      <trkpt lat="43.26710167" lon="-4.302045">
        <ele>428.0</ele>
        <time>2018-05-19T09:35:07.875Z</time>
      </trkpt>
      <trkpt lat="43.26695" lon="-4.30217167">
        <ele>426.0</ele>
        <time>2018-05-19T09:35:08.877Z</time>
      </trkpt>
      <trkpt lat="43.26695" lon="-4.30217167">
        <ele>426.0</ele>
        <time>2018-05-19T09:35:09.874Z</time>
      </trkpt>
      <trkpt lat="43.26681333" lon="-4.30233167">
        <ele>423.0</ele>
        <time>2018-05-19T09:35:10.878Z</time>
      </trkpt>
      <trkpt lat="43.26681333" lon="-4.30233167">
        <ele>423.0</ele>
        <time>2018-05-19T09:35:11.874Z</time>
      </trkpt>
      <trkpt lat="43.26672833" lon="-4.30251667">
        <ele>421.0</ele>
        <time>2018-05-19T09:35:12.879Z</time>
      </trkpt>
      <trkpt lat="43.26672833" lon="-4.30251667">
        <ele>421.0</ele>
        <time>2018-05-19T09:35:13.873Z</time>
      </trkpt>
      <trkpt lat="43.26665667" lon="-4.30273833">
        <ele>419.0</ele>
        <time>2018-05-19T09:35:14.879Z</time>
      </trkpt>
      <trkpt lat="43.26665667" lon="-4.30273833">
        <ele>419.0</ele>
        <time>2018-05-19T09:35:15.874Z</time>
      </trkpt>
      <trkpt lat="43.266605" lon="-4.302975">
        <ele>417.0</ele>
        <time>2018-05-19T09:35:16.877Z</time>
      </trkpt>
      <trkpt lat="43.26659667" lon="-4.303095">
        <ele>416.0</ele>
        <time>2018-05-19T09:35:17.875Z</time>
      </trkpt>
      <trkpt lat="43.266585" lon="-4.30320833">
        <ele>415.0</ele>
        <time>2018-05-19T09:35:18.877Z</time>
      </trkpt>
      <trkpt lat="43.266585" lon="-4.30320833">
        <ele>415.0</ele>
        <time>2018-05-19T09:35:19.876Z</time>
      </trkpt>
      <trkpt lat="43.26656333" lon="-4.30343333">
        <ele>413.0</ele>
        <time>2018-05-19T09:35:20.875Z</time>
      </trkpt>
      <trkpt lat="43.26656333" lon="-4.30343333">
        <ele>413.0</ele>
        <time>2018-05-19T09:35:21.869Z</time>
      </trkpt>
      <trkpt lat="43.26654833" lon="-4.30365167">
        <ele>411.0</ele>
        <time>2018-05-19T09:35:22.854Z</time>
      </trkpt>
      <trkpt lat="43.26654833" lon="-4.30365167">
        <ele>411.0</ele>
        <time>2018-05-19T09:35:23.877Z</time>
      </trkpt>
      <trkpt lat="43.26654667" lon="-4.303875">
        <ele>410.0</ele>
        <time>2018-05-19T09:35:24.878Z</time>
      </trkpt>
      <trkpt lat="43.26654667" lon="-4.303875">
        <ele>410.0</ele>
        <time>2018-05-19T09:35:25.876Z</time>
      </trkpt>
      <trkpt lat="43.266485" lon="-4.30408333">
        <ele>408.0</ele>
        <time>2018-05-19T09:35:26.878Z</time>
      </trkpt>
      <trkpt lat="43.266445" lon="-4.30419">
        <ele>407.0</ele>
        <time>2018-05-19T09:35:27.875Z</time>
      </trkpt>
      <trkpt lat="43.26639667" lon="-4.30429667">
        <ele>406.0</ele>
        <time>2018-05-19T09:35:28.879Z</time>
      </trkpt>
      <trkpt lat="43.26639667" lon="-4.30429667">
        <ele>406.0</ele>
        <time>2018-05-19T09:35:29.873Z</time>
      </trkpt>
      <trkpt lat="43.26631667" lon="-4.30451333">
        <ele>404.0</ele>
        <time>2018-05-19T09:35:30.878Z</time>
      </trkpt>
      <trkpt lat="43.26631667" lon="-4.30451333">
        <ele>404.0</ele>
        <time>2018-05-19T09:35:31.874Z</time>
      </trkpt>
      <trkpt lat="43.2662" lon="-4.30469667">
        <ele>402.0</ele>
        <time>2018-05-19T09:35:32.878Z</time>
      </trkpt>
      <trkpt lat="43.2662" lon="-4.30469667">
        <ele>402.0</ele>
        <time>2018-05-19T09:35:33.868Z</time>
      </trkpt>
      <trkpt lat="43.26607167" lon="-4.30485">
        <ele>400.0</ele>
        <time>2018-05-19T09:35:34.854Z</time>
      </trkpt>
      <trkpt lat="43.26607167" lon="-4.30485">
        <ele>400.0</ele>
        <time>2018-05-19T09:35:35.877Z</time>
      </trkpt>
      <trkpt lat="43.26598" lon="-4.305">
        <ele>399.0</ele>
        <time>2018-05-19T09:35:36.879Z</time>
      </trkpt>
      <trkpt lat="43.26598" lon="-4.305">
        <ele>399.0</ele>
        <time>2018-05-19T09:35:37.874Z</time>
      </trkpt>
      <trkpt lat="43.26594" lon="-4.305225">
        <ele>398.0</ele>
        <time>2018-05-19T09:35:38.877Z</time>
      </trkpt>
      <trkpt lat="43.26594" lon="-4.305225">
        <ele>398.0</ele>
        <time>2018-05-19T09:35:39.874Z</time>
      </trkpt>
      <trkpt lat="43.26592833" lon="-4.30548167">
        <ele>396.0</ele>
        <time>2018-05-19T09:35:40.875Z</time>
      </trkpt>
      <trkpt lat="43.26592833" lon="-4.30548167">
        <ele>396.0</ele>
        <time>2018-05-19T09:35:41.873Z</time>
      </trkpt>
      <trkpt lat="43.26594167" lon="-4.30571333">
        <ele>395.0</ele>
        <time>2018-05-19T09:35:42.878Z</time>
      </trkpt>
      <trkpt lat="43.26594167" lon="-4.30571333">
        <ele>395.0</ele>
        <time>2018-05-19T09:35:43.869Z</time>
      </trkpt>
      <trkpt lat="43.26597333" lon="-4.305925">
        <ele>393.0</ele>
        <time>2018-05-19T09:35:44.878Z</time>
      </trkpt>
      <trkpt lat="43.26597333" lon="-4.305925">
        <ele>393.0</ele>
        <time>2018-05-19T09:35:45.874Z</time>
      </trkpt>
      <trkpt lat="43.265965" lon="-4.30615333">
        <ele>392.0</ele>
        <time>2018-05-19T09:35:46.852Z</time>
      </trkpt>
      <trkpt lat="43.26594333" lon="-4.30625667">
        <ele>391.0</ele>
        <time>2018-05-19T09:35:47.860Z</time>
      </trkpt>
      <trkpt lat="43.26594333" lon="-4.30625667">
        <ele>391.0</ele>
        <time>2018-05-19T09:35:48.867Z</time>
      </trkpt>
      <trkpt lat="43.26589167" lon="-4.30651833">
        <ele>390.0</ele>
        <time>2018-05-19T09:35:49.855Z</time>
      </trkpt>
      <trkpt lat="43.26589167" lon="-4.30651833">
        <ele>390.0</ele>
        <time>2018-05-19T09:35:50.879Z</time>
      </trkpt>
      <trkpt lat="43.26581167" lon="-4.30677833">
        <ele>388.0</ele>
        <time>2018-05-19T09:35:51.875Z</time>
      </trkpt>
      <trkpt lat="43.265755" lon="-4.30689667">
        <ele>388.0</ele>
        <time>2018-05-19T09:35:52.879Z</time>
      </trkpt>
      <trkpt lat="43.265755" lon="-4.30689667">
        <ele>388.0</ele>
        <time>2018-05-19T09:35:53.869Z</time>
      </trkpt>
      <trkpt lat="43.26567333" lon="-4.30716">
        <ele>386.0</ele>
        <time>2018-05-19T09:35:54.879Z</time>
      </trkpt>
      <trkpt lat="43.26567333" lon="-4.30716">
        <ele>386.0</ele>
        <time>2018-05-19T09:35:55.873Z</time>
      </trkpt>
      <trkpt lat="43.265595" lon="-4.30743167">
        <ele>384.0</ele>
        <time>2018-05-19T09:35:56.877Z</time>
      </trkpt>
      <trkpt lat="43.265595" lon="-4.30743167">
        <ele>384.0</ele>
        <time>2018-05-19T09:35:57.873Z</time>
      </trkpt>
      <trkpt lat="43.26552833" lon="-4.30772">
        <ele>382.0</ele>
        <time>2018-05-19T09:35:58.875Z</time>
      </trkpt>
      <trkpt lat="43.26552833" lon="-4.30772">
        <ele>382.0</ele>
        <time>2018-05-19T09:35:59.871Z</time>
      </trkpt>
      <trkpt lat="43.26546167" lon="-4.307985">
        <ele>380.0</ele>
        <time>2018-05-19T09:36:00.879Z</time>
      </trkpt>
      <trkpt lat="43.26546167" lon="-4.307985">
        <ele>380.0</ele>
        <time>2018-05-19T09:36:01.876Z</time>
      </trkpt>
      <trkpt lat="43.26539833" lon="-4.30821667">
        <ele>378.0</ele>
        <time>2018-05-19T09:36:02.876Z</time>
      </trkpt>
      <trkpt lat="43.26539833" lon="-4.30821667">
        <ele>378.0</ele>
        <time>2018-05-19T09:36:03.868Z</time>
      </trkpt>
      <trkpt lat="43.265335" lon="-4.30843">
        <ele>376.0</ele>
        <time>2018-05-19T09:36:04.853Z</time>
      </trkpt>
      <trkpt lat="43.265335" lon="-4.30843">
        <ele>376.0</ele>
        <time>2018-05-19T09:36:05.877Z</time>
      </trkpt>
      <trkpt lat="43.265295" lon="-4.30862667">
        <ele>374.0</ele>
        <time>2018-05-19T09:36:06.883Z</time>
      </trkpt>
      <trkpt lat="43.265295" lon="-4.30862667">
        <ele>374.0</ele>
        <time>2018-05-19T09:36:07.874Z</time>
      </trkpt>
      <trkpt lat="43.26526333" lon="-4.30880333">
        <ele>373.0</ele>
        <time>2018-05-19T09:36:08.877Z</time>
      </trkpt>
      <trkpt lat="43.26526333" lon="-4.30880333">
        <ele>373.0</ele>
        <time>2018-05-19T09:36:09.874Z</time>
      </trkpt>
      <trkpt lat="43.26521" lon="-4.30892667">
        <ele>371.0</ele>
        <time>2018-05-19T09:36:10.879Z</time>
      </trkpt>
      <trkpt lat="43.26521" lon="-4.30892667">
        <ele>371.0</ele>
        <time>2018-05-19T09:36:11.875Z</time>
      </trkpt>
      <trkpt lat="43.26509333" lon="-4.30894667">
        <ele>370.0</ele>
        <time>2018-05-19T09:36:12.878Z</time>
      </trkpt>
      <trkpt lat="43.26509333" lon="-4.30894667">
        <ele>370.0</ele>
        <time>2018-05-19T09:36:13.876Z</time>
      </trkpt>
      <trkpt lat="43.26500833" lon="-4.308845">
        <ele>368.0</ele>
        <time>2018-05-19T09:36:14.878Z</time>
      </trkpt>
      <trkpt lat="43.26500833" lon="-4.308845">
        <ele>368.0</ele>
        <time>2018-05-19T09:36:15.875Z</time>
      </trkpt>
      <trkpt lat="43.265" lon="-4.30865167">
        <ele>366.0</ele>
        <time>2018-05-19T09:36:16.849Z</time>
      </trkpt>
      <trkpt lat="43.265" lon="-4.30865167">
        <ele>366.0</ele>
        <time>2018-05-19T09:36:17.875Z</time>
      </trkpt>
      <trkpt lat="43.26504" lon="-4.30846">
        <ele>365.0</ele>
        <time>2018-05-19T09:36:18.878Z</time>
      </trkpt>
      <trkpt lat="43.26504" lon="-4.30846">
        <ele>365.0</ele>
        <time>2018-05-19T09:36:19.873Z</time>
      </trkpt>
      <trkpt lat="43.26508167" lon="-4.308245">
        <ele>364.0</ele>
        <time>2018-05-19T09:36:20.877Z</time>
      </trkpt>
      <trkpt lat="43.26508167" lon="-4.308245">
        <ele>364.0</ele>
        <time>2018-05-19T09:36:21.882Z</time>
      </trkpt>
      <trkpt lat="43.265095" lon="-4.30802833">
        <ele>363.0</ele>
        <time>2018-05-19T09:36:22.881Z</time>
      </trkpt>
      <trkpt lat="43.265095" lon="-4.30802833">
        <ele>363.0</ele>
        <time>2018-05-19T09:36:23.876Z</time>
      </trkpt>
      <trkpt lat="43.26502667" lon="-4.30784833">
        <ele>362.0</ele>
        <time>2018-05-19T09:36:24.876Z</time>
      </trkpt>
      <trkpt lat="43.26502667" lon="-4.30784833">
        <ele>362.0</ele>
        <time>2018-05-19T09:36:25.873Z</time>
      </trkpt>
      <trkpt lat="43.26493333" lon="-4.30768667">
        <ele>360.0</ele>
        <time>2018-05-19T09:36:26.851Z</time>
      </trkpt>
      <trkpt lat="43.26493333" lon="-4.30768667">
        <ele>360.0</ele>
        <time>2018-05-19T09:36:27.877Z</time>
      </trkpt>
      <trkpt lat="43.26481833" lon="-4.30751833">
        <ele>360.0</ele>
        <time>2018-05-19T09:36:28.875Z</time>
      </trkpt>
      <trkpt lat="43.26481833" lon="-4.30751833">
        <ele>360.0</ele>
        <time>2018-05-19T09:36:29.874Z</time>
      </trkpt>
      <trkpt lat="43.2647" lon="-4.307345">
        <ele>360.0</ele>
        <time>2018-05-19T09:36:30.877Z</time>
      </trkpt>
      <trkpt lat="43.2647" lon="-4.307345">
        <ele>360.0</ele>
        <time>2018-05-19T09:36:31.876Z</time>
      </trkpt>
      <trkpt lat="43.26461" lon="-4.30713833">
        <ele>359.0</ele>
        <time>2018-05-19T09:36:32.877Z</time>
      </trkpt>
      <trkpt lat="43.26461" lon="-4.30713833">
        <ele>359.0</ele>
        <time>2018-05-19T09:36:33.872Z</time>
      </trkpt>
      <trkpt lat="43.26454167" lon="-4.30691333">
        <ele>358.0</ele>
        <time>2018-05-19T09:36:34.878Z</time>
      </trkpt>
      <trkpt lat="43.26454167" lon="-4.30691333">
        <ele>358.0</ele>
        <time>2018-05-19T09:36:35.875Z</time>
      </trkpt>
      <trkpt lat="43.26449167" lon="-4.30665833">
        <ele>357.0</ele>
        <time>2018-05-19T09:36:36.845Z</time>
      </trkpt>
      <trkpt lat="43.26449167" lon="-4.30665833">
        <ele>357.0</ele>
        <time>2018-05-19T09:36:37.873Z</time>
      </trkpt>
      <trkpt lat="43.26445333" lon="-4.306395">
        <ele>356.0</ele>
        <time>2018-05-19T09:36:38.876Z</time>
      </trkpt>
      <trkpt lat="43.26443" lon="-4.30626833">
        <ele>356.0</ele>
        <time>2018-05-19T09:36:39.876Z</time>
      </trkpt>
      <trkpt lat="43.26443" lon="-4.30626833">
        <ele>356.0</ele>
        <time>2018-05-19T09:36:40.876Z</time>
      </trkpt>
      <trkpt lat="43.26436833" lon="-4.30603167">
        <ele>355.0</ele>
        <time>2018-05-19T09:36:41.874Z</time>
      </trkpt>
      <trkpt lat="43.26436833" lon="-4.30603167">
        <ele>355.0</ele>
        <time>2018-05-19T09:36:42.871Z</time>
      </trkpt>
      <trkpt lat="43.26429833" lon="-4.30582">
        <ele>354.0</ele>
        <time>2018-05-19T09:36:43.870Z</time>
      </trkpt>
      <trkpt lat="43.26426333" lon="-4.30573667">
        <ele>353.0</ele>
        <time>2018-05-19T09:36:44.876Z</time>
      </trkpt>
      <trkpt lat="43.26426333" lon="-4.30573667">
        <ele>353.0</ele>
        <time>2018-05-19T09:36:45.862Z</time>
      </trkpt>
      <trkpt lat="43.26420333" lon="-4.30559833">
        <ele>352.0</ele>
        <time>2018-05-19T09:36:46.844Z</time>
      </trkpt>
      <trkpt lat="43.264155" lon="-4.30553667">
        <ele>351.0</ele>
        <time>2018-05-19T09:36:47.850Z</time>
      </trkpt>
      <trkpt lat="43.264155" lon="-4.30553667">
        <ele>351.0</ele>
        <time>2018-05-19T09:36:48.856Z</time>
      </trkpt>
      <trkpt lat="43.264055" lon="-4.30548167">
        <ele>350.0</ele>
        <time>2018-05-19T09:36:49.870Z</time>
      </trkpt>
      <trkpt lat="43.26401" lon="-4.30550667">
        <ele>350.0</ele>
        <time>2018-05-19T09:36:50.877Z</time>
      </trkpt>
      <trkpt lat="43.26398167" lon="-4.30555333">
        <ele>350.0</ele>
        <time>2018-05-19T09:36:51.879Z</time>
      </trkpt>
      <trkpt lat="43.26397" lon="-4.30561667">
        <ele>349.0</ele>
        <time>2018-05-19T09:36:52.879Z</time>
      </trkpt>
      <trkpt lat="43.26397" lon="-4.30561667">
        <ele>349.0</ele>
        <time>2018-05-19T09:36:53.876Z</time>
      </trkpt>
      <trkpt lat="43.26395167" lon="-4.30577667">
        <ele>348.0</ele>
        <time>2018-05-19T09:36:54.879Z</time>
      </trkpt>
      <trkpt lat="43.26395167" lon="-4.30577667">
        <ele>348.0</ele>
        <time>2018-05-19T09:36:55.875Z</time>
      </trkpt>
      <trkpt lat="43.26389833" lon="-4.30592667">
        <ele>346.0</ele>
        <time>2018-05-19T09:36:56.848Z</time>
      </trkpt>
      <trkpt lat="43.26384" lon="-4.30595833">
        <ele>345.0</ele>
        <time>2018-05-19T09:36:57.878Z</time>
      </trkpt>
      <trkpt lat="43.263775" lon="-4.30595833">
        <ele>344.0</ele>
        <time>2018-05-19T09:36:58.877Z</time>
      </trkpt>
      <trkpt lat="43.263775" lon="-4.30595833">
        <ele>344.0</ele>
        <time>2018-05-19T09:36:59.877Z</time>
      </trkpt>
      <trkpt lat="43.26365833" lon="-4.30586167">
        <ele>343.0</ele>
        <time>2018-05-19T09:37:00.878Z</time>
      </trkpt>
      <trkpt lat="43.26365833" lon="-4.30586167">
        <ele>343.0</ele>
        <time>2018-05-19T09:37:01.873Z</time>
      </trkpt>
      <trkpt lat="43.263545" lon="-4.305755">
        <ele>341.0</ele>
        <time>2018-05-19T09:37:02.876Z</time>
      </trkpt>
      <trkpt lat="43.263545" lon="-4.305755">
        <ele>341.0</ele>
        <time>2018-05-19T09:37:03.871Z</time>
      </trkpt>
      <trkpt lat="43.263425" lon="-4.30575667">
        <ele>340.0</ele>
        <time>2018-05-19T09:37:04.880Z</time>
      </trkpt>
      <trkpt lat="43.263425" lon="-4.30575667">
        <ele>340.0</ele>
        <time>2018-05-19T09:37:05.875Z</time>
      </trkpt>
      <trkpt lat="43.26334833" lon="-4.30588333">
        <ele>339.0</ele>
        <time>2018-05-19T09:37:06.881Z</time>
      </trkpt>
      <trkpt lat="43.26333667" lon="-4.30597">
        <ele>338.0</ele>
        <time>2018-05-19T09:37:07.846Z</time>
      </trkpt>
      <trkpt lat="43.26333667" lon="-4.30597">
        <ele>338.0</ele>
        <time>2018-05-19T09:37:08.872Z</time>
      </trkpt>
      <trkpt lat="43.2633" lon="-4.30616167">
        <ele>337.0</ele>
        <time>2018-05-19T09:37:09.877Z</time>
      </trkpt>
      <trkpt lat="43.26325167" lon="-4.30624167">
        <ele>336.0</ele>
        <time>2018-05-19T09:37:10.877Z</time>
      </trkpt>
      <trkpt lat="43.26325167" lon="-4.30624167">
        <ele>336.0</ele>
        <time>2018-05-19T09:37:11.875Z</time>
      </trkpt>
      <trkpt lat="43.26313" lon="-4.30640333">
        <ele>335.0</ele>
        <time>2018-05-19T09:37:12.878Z</time>
      </trkpt>
      <trkpt lat="43.26313" lon="-4.30640333">
        <ele>335.0</ele>
        <time>2018-05-19T09:37:13.868Z</time>
      </trkpt>
      <trkpt lat="43.26308667" lon="-4.30655833">
        <ele>333.0</ele>
        <time>2018-05-19T09:37:14.863Z</time>
      </trkpt>
      <trkpt lat="43.26308667" lon="-4.30655833">
        <ele>333.0</ele>
        <time>2018-05-19T09:37:15.847Z</time>
      </trkpt>
      <trkpt lat="43.26314667" lon="-4.30673">
        <ele>332.0</ele>
        <time>2018-05-19T09:37:16.881Z</time>
      </trkpt>
      <trkpt lat="43.26314667" lon="-4.30673">
        <ele>332.0</ele>
        <time>2018-05-19T09:37:17.872Z</time>
      </trkpt>
      <trkpt lat="43.263235" lon="-4.30690167">
        <ele>331.0</ele>
        <time>2018-05-19T09:37:18.878Z</time>
      </trkpt>
      <trkpt lat="43.263235" lon="-4.30690167">
        <ele>331.0</ele>
        <time>2018-05-19T09:37:19.876Z</time>
      </trkpt>
      <trkpt lat="43.26325167" lon="-4.307095">
        <ele>329.0</ele>
        <time>2018-05-19T09:37:20.877Z</time>
      </trkpt>
      <trkpt lat="43.26324167" lon="-4.307175">
        <ele>328.0</ele>
        <time>2018-05-19T09:37:21.877Z</time>
      </trkpt>
      <trkpt lat="43.26319333" lon="-4.30723833">
        <ele>327.0</ele>
        <time>2018-05-19T09:37:22.879Z</time>
      </trkpt>
      <trkpt lat="43.26319333" lon="-4.30723833">
        <ele>327.0</ele>
        <time>2018-05-19T09:37:23.876Z</time>
      </trkpt>
      <trkpt lat="43.26308667" lon="-4.307285">
        <ele>325.0</ele>
        <time>2018-05-19T09:37:24.878Z</time>
      </trkpt>
      <trkpt lat="43.26308667" lon="-4.307285">
        <ele>325.0</ele>
        <time>2018-05-19T09:37:25.875Z</time>
      </trkpt>
      <trkpt lat="43.262985" lon="-4.30722">
        <ele>323.0</ele>
        <time>2018-05-19T09:37:26.880Z</time>
      </trkpt>
      <trkpt lat="43.26295" lon="-4.30713">
        <ele>322.0</ele>
        <time>2018-05-19T09:37:27.875Z</time>
      </trkpt>
      <trkpt lat="43.26295" lon="-4.30713">
        <ele>322.0</ele>
        <time>2018-05-19T09:37:28.872Z</time>
      </trkpt>
      <trkpt lat="43.2629" lon="-4.30694">
        <ele>321.0</ele>
        <time>2018-05-19T09:37:29.879Z</time>
      </trkpt>
      <trkpt lat="43.26288167" lon="-4.30683167">
        <ele>320.0</ele>
        <time>2018-05-19T09:37:30.877Z</time>
      </trkpt>
      <trkpt lat="43.26288167" lon="-4.30683167">
        <ele>320.0</ele>
        <time>2018-05-19T09:37:31.872Z</time>
      </trkpt>
      <trkpt lat="43.26286" lon="-4.306605">
        <ele>318.0</ele>
        <time>2018-05-19T09:37:32.876Z</time>
      </trkpt>
      <trkpt lat="43.26286" lon="-4.306605">
        <ele>318.0</ele>
        <time>2018-05-19T09:37:33.868Z</time>
      </trkpt>
      <trkpt lat="43.26283" lon="-4.30635333">
        <ele>317.0</ele>
        <time>2018-05-19T09:37:34.854Z</time>
      </trkpt>
      <trkpt lat="43.26283" lon="-4.30635333">
        <ele>317.0</ele>
        <time>2018-05-19T09:37:35.880Z</time>
      </trkpt>
      <trkpt lat="43.26281333" lon="-4.30609333">
        <ele>316.0</ele>
        <time>2018-05-19T09:37:36.846Z</time>
      </trkpt>
      <trkpt lat="43.26281333" lon="-4.30609333">
        <ele>316.0</ele>
        <time>2018-05-19T09:37:37.874Z</time>
      </trkpt>
      <trkpt lat="43.26283833" lon="-4.305845">
        <ele>314.0</ele>
        <time>2018-05-19T09:37:38.876Z</time>
      </trkpt>
      <trkpt lat="43.26285167" lon="-4.30572833">
        <ele>314.0</ele>
        <time>2018-05-19T09:37:39.877Z</time>
      </trkpt>
      <trkpt lat="43.26285167" lon="-4.30572833">
        <ele>314.0</ele>
        <time>2018-05-19T09:37:40.870Z</time>
      </trkpt>
      <trkpt lat="43.262855" lon="-4.30548833">
        <ele>312.0</ele>
        <time>2018-05-19T09:37:41.877Z</time>
      </trkpt>
      <trkpt lat="43.26283833" lon="-4.30538333">
        <ele>311.0</ele>
        <time>2018-05-19T09:37:42.879Z</time>
      </trkpt>
      <trkpt lat="43.26283833" lon="-4.30538333">
        <ele>311.0</ele>
        <time>2018-05-19T09:37:43.846Z</time>
      </trkpt>
      <trkpt lat="43.26274333" lon="-4.30521167">
        <ele>309.0</ele>
        <time>2018-05-19T09:37:44.877Z</time>
      </trkpt>
      <trkpt lat="43.26274333" lon="-4.30521167">
        <ele>309.0</ele>
        <time>2018-05-19T09:37:45.869Z</time>
      </trkpt>
      <trkpt lat="43.26258167" lon="-4.30512">
        <ele>308.0</ele>
        <time>2018-05-19T09:37:46.857Z</time>
      </trkpt>
      <trkpt lat="43.26249167" lon="-4.30510667">
        <ele>307.0</ele>
        <time>2018-05-19T09:37:47.865Z</time>
      </trkpt>
      <trkpt lat="43.26249167" lon="-4.30510667">
        <ele>307.0</ele>
        <time>2018-05-19T09:37:48.871Z</time>
      </trkpt>
      <trkpt lat="43.26234667" lon="-4.305075">
        <ele>305.0</ele>
        <time>2018-05-19T09:37:49.877Z</time>
      </trkpt>
      <trkpt lat="43.262285" lon="-4.30502167">
        <ele>305.0</ele>
        <time>2018-05-19T09:37:50.878Z</time>
      </trkpt>
      <trkpt lat="43.262285" lon="-4.30502167">
        <ele>305.0</ele>
        <time>2018-05-19T09:37:51.875Z</time>
      </trkpt>
      <trkpt lat="43.26222167" lon="-4.30483833">
        <ele>303.0</ele>
        <time>2018-05-19T09:37:52.876Z</time>
      </trkpt>
      <trkpt lat="43.26222167" lon="-4.30483833">
        <ele>303.0</ele>
        <time>2018-05-19T09:37:53.868Z</time>
      </trkpt>
      <trkpt lat="43.2622" lon="-4.30460833">
        <ele>302.0</ele>
        <time>2018-05-19T09:37:54.877Z</time>
      </trkpt>
      <trkpt lat="43.2622" lon="-4.30460833">
        <ele>302.0</ele>
        <time>2018-05-19T09:37:55.875Z</time>
      </trkpt>
      <trkpt lat="43.26219333" lon="-4.30435333">
        <ele>300.0</ele>
        <time>2018-05-19T09:37:56.876Z</time>
      </trkpt>
      <trkpt lat="43.26219333" lon="-4.30435333">
        <ele>300.0</ele>
        <time>2018-05-19T09:37:57.874Z</time>
      </trkpt>
      <trkpt lat="43.26217" lon="-4.30409333">
        <ele>299.0</ele>
        <time>2018-05-19T09:37:58.880Z</time>
      </trkpt>
      <trkpt lat="43.26217" lon="-4.30409333">
        <ele>299.0</ele>
        <time>2018-05-19T09:37:59.874Z</time>
      </trkpt>
      <trkpt lat="43.26210333" lon="-4.30387333">
        <ele>297.0</ele>
        <time>2018-05-19T09:38:00.879Z</time>
      </trkpt>
      <trkpt lat="43.26210333" lon="-4.30387333">
        <ele>297.0</ele>
        <time>2018-05-19T09:38:01.875Z</time>
      </trkpt>
      <trkpt lat="43.26206333" lon="-4.30367167">
        <ele>296.0</ele>
        <time>2018-05-19T09:38:02.877Z</time>
      </trkpt>
      <trkpt lat="43.26206333" lon="-4.30367167">
        <ele>296.0</ele>
        <time>2018-05-19T09:38:03.876Z</time>
      </trkpt>
      <trkpt lat="43.262075" lon="-4.30349167">
        <ele>295.0</ele>
        <time>2018-05-19T09:38:04.876Z</time>
      </trkpt>
      <trkpt lat="43.262075" lon="-4.30349167">
        <ele>295.0</ele>
        <time>2018-05-19T09:38:05.875Z</time>
      </trkpt>
      <trkpt lat="43.26213" lon="-4.30328667">
        <ele>294.0</ele>
        <time>2018-05-19T09:38:06.878Z</time>
      </trkpt>
      <trkpt lat="43.26216167" lon="-4.30317667">
        <ele>293.0</ele>
        <time>2018-05-19T09:38:07.878Z</time>
      </trkpt>
      <trkpt lat="43.26216167" lon="-4.30317667">
        <ele>293.0</ele>
        <time>2018-05-19T09:38:08.874Z</time>
      </trkpt>
      <trkpt lat="43.26216667" lon="-4.30293333">
        <ele>291.0</ele>
        <time>2018-05-19T09:38:09.877Z</time>
      </trkpt>
      <trkpt lat="43.26216667" lon="-4.30293333">
        <ele>291.0</ele>
        <time>2018-05-19T09:38:10.872Z</time>
      </trkpt>
      <trkpt lat="43.26215" lon="-4.30267">
        <ele>290.0</ele>
        <time>2018-05-19T09:38:11.877Z</time>
      </trkpt>
      <trkpt lat="43.262145" lon="-4.30253667">
        <ele>290.0</ele>
        <time>2018-05-19T09:38:12.848Z</time>
      </trkpt>
      <trkpt lat="43.262145" lon="-4.30253667">
        <ele>290.0</ele>
        <time>2018-05-19T09:38:13.873Z</time>
      </trkpt>
      <trkpt lat="43.26216667" lon="-4.302265">
        <ele>289.0</ele>
        <time>2018-05-19T09:38:14.877Z</time>
      </trkpt>
      <trkpt lat="43.26216667" lon="-4.302265">
        <ele>289.0</ele>
        <time>2018-05-19T09:38:15.872Z</time>
      </trkpt>
      <trkpt lat="43.26221333" lon="-4.30200833">
        <ele>288.0</ele>
        <time>2018-05-19T09:38:16.873Z</time>
      </trkpt>
      <trkpt lat="43.26221333" lon="-4.30200833">
        <ele>288.0</ele>
        <time>2018-05-19T09:38:17.881Z</time>
      </trkpt>
      <trkpt lat="43.26227833" lon="-4.30178333">
        <ele>286.0</ele>
        <time>2018-05-19T09:38:18.878Z</time>
      </trkpt>
      <trkpt lat="43.26227833" lon="-4.30178333">
        <ele>286.0</ele>
        <time>2018-05-19T09:38:19.874Z</time>
      </trkpt>
      <trkpt lat="43.26234167" lon="-4.30156667">
        <ele>285.0</ele>
        <time>2018-05-19T09:38:20.877Z</time>
      </trkpt>
      <trkpt lat="43.262355" lon="-4.30143833">
        <ele>284.0</ele>
        <time>2018-05-19T09:38:21.877Z</time>
      </trkpt>
      <trkpt lat="43.26236833" lon="-4.30129667">
        <ele>284.0</ele>
        <time>2018-05-19T09:38:22.876Z</time>
      </trkpt>
      <trkpt lat="43.26236833" lon="-4.30129667">
        <ele>284.0</ele>
        <time>2018-05-19T09:38:23.868Z</time>
      </trkpt>
      <trkpt lat="43.262405" lon="-4.30105">
        <ele>282.0</ele>
        <time>2018-05-19T09:38:24.877Z</time>
      </trkpt>
      <trkpt lat="43.262405" lon="-4.30105">
        <ele>282.0</ele>
        <time>2018-05-19T09:38:25.874Z</time>
      </trkpt>
      <trkpt lat="43.2624" lon="-4.300835">
        <ele>281.0</ele>
        <time>2018-05-19T09:38:26.877Z</time>
      </trkpt>
      <trkpt lat="43.26238167" lon="-4.30074">
        <ele>281.0</ele>
        <time>2018-05-19T09:38:27.878Z</time>
      </trkpt>
      <trkpt lat="43.26238167" lon="-4.30074">
        <ele>281.0</ele>
        <time>2018-05-19T09:38:28.873Z</time>
      </trkpt>
      <trkpt lat="43.26231" lon="-4.30058167">
        <ele>279.0</ele>
        <time>2018-05-19T09:38:29.879Z</time>
      </trkpt>
      <trkpt lat="43.26231" lon="-4.30058167">
        <ele>279.0</ele>
        <time>2018-05-19T09:38:30.875Z</time>
      </trkpt>
      <trkpt lat="43.26223333" lon="-4.300405">
        <ele>278.0</ele>
        <time>2018-05-19T09:38:31.877Z</time>
      </trkpt>
      <trkpt lat="43.26223333" lon="-4.300405">
        <ele>278.0</ele>
        <time>2018-05-19T09:38:32.875Z</time>
      </trkpt>
      <trkpt lat="43.26216333" lon="-4.30021167">
        <ele>277.0</ele>
        <time>2018-05-19T09:38:33.870Z</time>
      </trkpt>
      <trkpt lat="43.26213" lon="-4.30011667">
        <ele>277.0</ele>
        <time>2018-05-19T09:38:34.877Z</time>
      </trkpt>
      <trkpt lat="43.26213" lon="-4.30011667">
        <ele>277.0</ele>
        <time>2018-05-19T09:38:35.873Z</time>
      </trkpt>
      <trkpt lat="43.26207833" lon="-4.2999">
        <ele>276.0</ele>
        <time>2018-05-19T09:38:36.877Z</time>
      </trkpt>
      <trkpt lat="43.26207833" lon="-4.2999">
        <ele>276.0</ele>
        <time>2018-05-19T09:38:37.871Z</time>
      </trkpt>
      <trkpt lat="43.262045" lon="-4.29964833">
        <ele>274.0</ele>
        <time>2018-05-19T09:38:38.876Z</time>
      </trkpt>
      <trkpt lat="43.262045" lon="-4.29964833">
        <ele>274.0</ele>
        <time>2018-05-19T09:38:39.874Z</time>
      </trkpt>
      <trkpt lat="43.26201833" lon="-4.29938833">
        <ele>273.0</ele>
        <time>2018-05-19T09:38:40.868Z</time>
      </trkpt>
      <trkpt lat="43.26202167" lon="-4.29925667">
        <ele>272.0</ele>
        <time>2018-05-19T09:38:41.876Z</time>
      </trkpt>
      <trkpt lat="43.26202167" lon="-4.29925667">
        <ele>272.0</ele>
        <time>2018-05-19T09:38:42.871Z</time>
      </trkpt>
      <trkpt lat="43.26205167" lon="-4.29900167">
        <ele>271.0</ele>
        <time>2018-05-19T09:38:43.869Z</time>
      </trkpt>
      <trkpt lat="43.262065" lon="-4.29887333">
        <ele>270.0</ele>
        <time>2018-05-19T09:38:44.876Z</time>
      </trkpt>
      <trkpt lat="43.262065" lon="-4.29887333">
        <ele>270.0</ele>
        <time>2018-05-19T09:38:45.872Z</time>
      </trkpt>
      <trkpt lat="43.26206833" lon="-4.29862667">
        <ele>269.0</ele>
        <time>2018-05-19T09:38:46.878Z</time>
      </trkpt>
      <trkpt lat="43.26206833" lon="-4.29862667">
        <ele>269.0</ele>
        <time>2018-05-19T09:38:47.844Z</time>
      </trkpt>
      <trkpt lat="43.26204167" lon="-4.29839333">
        <ele>268.0</ele>
        <time>2018-05-19T09:38:48.850Z</time>
      </trkpt>
      <trkpt lat="43.26202667" lon="-4.298275">
        <ele>267.0</ele>
        <time>2018-05-19T09:38:49.878Z</time>
      </trkpt>
      <trkpt lat="43.26202667" lon="-4.298275">
        <ele>267.0</ele>
        <time>2018-05-19T09:38:50.876Z</time>
      </trkpt>
      <trkpt lat="43.26196667" lon="-4.29804333">
        <ele>267.0</ele>
        <time>2018-05-19T09:38:51.879Z</time>
      </trkpt>
      <trkpt lat="43.26194833" lon="-4.29792167">
        <ele>267.0</ele>
        <time>2018-05-19T09:38:52.879Z</time>
      </trkpt>
      <trkpt lat="43.26194833" lon="-4.29792167">
        <ele>267.0</ele>
        <time>2018-05-19T09:38:53.883Z</time>
      </trkpt>
      <trkpt lat="43.261935" lon="-4.29767167">
        <ele>266.0</ele>
        <time>2018-05-19T09:38:54.877Z</time>
      </trkpt>
      <trkpt lat="43.261935" lon="-4.29767167">
        <ele>266.0</ele>
        <time>2018-05-19T09:38:55.874Z</time>
      </trkpt>
      <trkpt lat="43.26193" lon="-4.297425">
        <ele>265.0</ele>
        <time>2018-05-19T09:38:56.875Z</time>
      </trkpt>
      <trkpt lat="43.261935" lon="-4.29730333">
        <ele>265.0</ele>
        <time>2018-05-19T09:38:57.876Z</time>
      </trkpt>
      <trkpt lat="43.26194167" lon="-4.29718167">
        <ele>264.0</ele>
        <time>2018-05-19T09:38:58.876Z</time>
      </trkpt>
      <trkpt lat="43.26194167" lon="-4.29718167">
        <ele>264.0</ele>
        <time>2018-05-19T09:38:59.873Z</time>
      </trkpt>
      <trkpt lat="43.26198167" lon="-4.29694667">
        <ele>263.0</ele>
        <time>2018-05-19T09:39:00.875Z</time>
      </trkpt>
      <trkpt lat="43.26198167" lon="-4.29694667">
        <ele>263.0</ele>
        <time>2018-05-19T09:39:01.872Z</time>
      </trkpt>
      <trkpt lat="43.262085" lon="-4.29674167">
        <ele>262.0</ele>
        <time>2018-05-19T09:39:02.876Z</time>
      </trkpt>
      <trkpt lat="43.262085" lon="-4.29674167">
        <ele>262.0</ele>
        <time>2018-05-19T09:39:03.873Z</time>
      </trkpt>
      <trkpt lat="43.26222333" lon="-4.29662333">
        <ele>262.0</ele>
        <time>2018-05-19T09:39:04.877Z</time>
      </trkpt>
      <trkpt lat="43.26222333" lon="-4.29662333">
        <ele>262.0</ele>
        <time>2018-05-19T09:39:05.870Z</time>
      </trkpt>
      <trkpt lat="43.26235833" lon="-4.29655667">
        <ele>261.0</ele>
        <time>2018-05-19T09:39:06.872Z</time>
      </trkpt>
      <trkpt lat="43.26235833" lon="-4.29655667">
        <ele>261.0</ele>
        <time>2018-05-19T09:39:07.873Z</time>
      </trkpt>
      <trkpt lat="43.26244167" lon="-4.29644333">
        <ele>260.0</ele>
        <time>2018-05-19T09:39:08.875Z</time>
      </trkpt>
      <trkpt lat="43.26246667" lon="-4.29636667">
        <ele>259.0</ele>
        <time>2018-05-19T09:39:09.873Z</time>
      </trkpt>
      <trkpt lat="43.26247833" lon="-4.29628">
        <ele>259.0</ele>
        <time>2018-05-19T09:39:10.878Z</time>
      </trkpt>
      <trkpt lat="43.26247833" lon="-4.29628">
        <ele>259.0</ele>
        <time>2018-05-19T09:39:11.874Z</time>
      </trkpt>
      <trkpt lat="43.26250333" lon="-4.29607333">
        <ele>258.0</ele>
        <time>2018-05-19T09:39:12.876Z</time>
      </trkpt>
      <trkpt lat="43.26250333" lon="-4.29607333">
        <ele>258.0</ele>
        <time>2018-05-19T09:39:13.866Z</time>
      </trkpt>
      <trkpt lat="43.262515" lon="-4.29585">
        <ele>258.0</ele>
        <time>2018-05-19T09:39:14.851Z</time>
      </trkpt>
      <trkpt lat="43.26250833" lon="-4.29573333">
        <ele>257.0</ele>
        <time>2018-05-19T09:39:15.850Z</time>
      </trkpt>
      <trkpt lat="43.26250833" lon="-4.29573333">
        <ele>257.0</ele>
        <time>2018-05-19T09:39:16.875Z</time>
      </trkpt>
      <trkpt lat="43.26253" lon="-4.29548333">
        <ele>257.0</ele>
        <time>2018-05-19T09:39:17.844Z</time>
      </trkpt>
      <trkpt lat="43.26255" lon="-4.29535667">
        <ele>257.0</ele>
        <time>2018-05-19T09:39:18.877Z</time>
      </trkpt>
      <trkpt lat="43.26255" lon="-4.29535667">
        <ele>257.0</ele>
        <time>2018-05-19T09:39:19.871Z</time>
      </trkpt>
      <trkpt lat="43.26260833" lon="-4.29509667">
        <ele>256.0</ele>
        <time>2018-05-19T09:39:20.875Z</time>
      </trkpt>
      <trkpt lat="43.26265667" lon="-4.294975">
        <ele>256.0</ele>
        <time>2018-05-19T09:39:21.876Z</time>
      </trkpt>
      <trkpt lat="43.26271" lon="-4.29485667">
        <ele>255.0</ele>
        <time>2018-05-19T09:39:22.883Z</time>
      </trkpt>
      <trkpt lat="43.26271" lon="-4.29485667">
        <ele>255.0</ele>
        <time>2018-05-19T09:39:23.868Z</time>
      </trkpt>
      <trkpt lat="43.262815" lon="-4.29464667">
        <ele>254.0</ele>
        <time>2018-05-19T09:39:24.876Z</time>
      </trkpt>
      <trkpt lat="43.262815" lon="-4.29464667">
        <ele>254.0</ele>
        <time>2018-05-19T09:39:25.873Z</time>
      </trkpt>
      <trkpt lat="43.26293333" lon="-4.29446">
        <ele>254.0</ele>
        <time>2018-05-19T09:39:26.876Z</time>
      </trkpt>
      <trkpt lat="43.26293333" lon="-4.29446">
        <ele>254.0</ele>
        <time>2018-05-19T09:39:27.872Z</time>
      </trkpt>
      <trkpt lat="43.26305667" lon="-4.29427167">
        <ele>253.0</ele>
        <time>2018-05-19T09:39:28.875Z</time>
      </trkpt>
      <trkpt lat="43.26305667" lon="-4.29427167">
        <ele>253.0</ele>
        <time>2018-05-19T09:39:29.873Z</time>
      </trkpt>
      <trkpt lat="43.26316167" lon="-4.29407667">
        <ele>252.0</ele>
        <time>2018-05-19T09:39:30.873Z</time>
      </trkpt>
      <trkpt lat="43.26316167" lon="-4.29407667">
        <ele>252.0</ele>
        <time>2018-05-19T09:39:31.873Z</time>
      </trkpt>
      <trkpt lat="43.26322667" lon="-4.29387167">
        <ele>252.0</ele>
        <time>2018-05-19T09:39:32.878Z</time>
      </trkpt>
      <trkpt lat="43.26322667" lon="-4.29387167">
        <ele>252.0</ele>
        <time>2018-05-19T09:39:33.876Z</time>
      </trkpt>
      <trkpt lat="43.263255" lon="-4.29365333">
        <ele>251.0</ele>
        <time>2018-05-19T09:39:34.878Z</time>
      </trkpt>
      <trkpt lat="43.263255" lon="-4.29365333">
        <ele>251.0</ele>
        <time>2018-05-19T09:39:35.874Z</time>
      </trkpt>
      <trkpt lat="43.26325333" lon="-4.29342667">
        <ele>251.0</ele>
        <time>2018-05-19T09:39:36.876Z</time>
      </trkpt>
      <trkpt lat="43.26325333" lon="-4.29342667">
        <ele>251.0</ele>
        <time>2018-05-19T09:39:37.868Z</time>
      </trkpt>
      <trkpt lat="43.26325" lon="-4.2932">
        <ele>251.0</ele>
        <time>2018-05-19T09:39:38.852Z</time>
      </trkpt>
      <trkpt lat="43.26325" lon="-4.2932">
        <ele>251.0</ele>
        <time>2018-05-19T09:39:39.875Z</time>
      </trkpt>
      <trkpt lat="43.26324333" lon="-4.29299833">
        <ele>250.0</ele>
        <time>2018-05-19T09:39:40.868Z</time>
      </trkpt>
      <trkpt lat="43.26324333" lon="-4.29299833">
        <ele>250.0</ele>
        <time>2018-05-19T09:39:41.873Z</time>
      </trkpt>
      <trkpt lat="43.26323333" lon="-4.29281333">
        <ele>250.0</ele>
        <time>2018-05-19T09:39:42.875Z</time>
      </trkpt>
      <trkpt lat="43.26323333" lon="-4.29281333">
        <ele>250.0</ele>
        <time>2018-05-19T09:39:43.866Z</time>
      </trkpt>
      <trkpt lat="43.26321667" lon="-4.29264333">
        <ele>249.0</ele>
        <time>2018-05-19T09:39:44.874Z</time>
      </trkpt>
      <trkpt lat="43.26321" lon="-4.29255833">
        <ele>249.0</ele>
        <time>2018-05-19T09:39:45.853Z</time>
      </trkpt>
      <trkpt lat="43.26321" lon="-4.29255833">
        <ele>249.0</ele>
        <time>2018-05-19T09:39:46.880Z</time>
      </trkpt>
      <trkpt lat="43.26322167" lon="-4.29237833">
        <ele>249.0</ele>
        <time>2018-05-19T09:39:47.846Z</time>
      </trkpt>
      <trkpt lat="43.26322167" lon="-4.29237833">
        <ele>249.0</ele>
        <time>2018-05-19T09:39:48.852Z</time>
      </trkpt>
      <trkpt lat="43.26326167" lon="-4.29220167">
        <ele>248.0</ele>
        <time>2018-05-19T09:39:49.877Z</time>
      </trkpt>
      <trkpt lat="43.26326167" lon="-4.29220167">
        <ele>248.0</ele>
        <time>2018-05-19T09:39:50.866Z</time>
      </trkpt>
      <trkpt lat="43.26329333" lon="-4.29202833">
        <ele>248.0</ele>
        <time>2018-05-19T09:39:51.852Z</time>
      </trkpt>
      <trkpt lat="43.26329333" lon="-4.29202833">
        <ele>248.0</ele>
        <time>2018-05-19T09:39:52.878Z</time>
      </trkpt>
      <trkpt lat="43.263315" lon="-4.29183833">
        <ele>248.0</ele>
        <time>2018-05-19T09:39:53.878Z</time>
      </trkpt>
      <trkpt lat="43.26331833" lon="-4.291735">
        <ele>248.0</ele>
        <time>2018-05-19T09:39:54.878Z</time>
      </trkpt>
      <trkpt lat="43.26331833" lon="-4.291735">
        <ele>248.0</ele>
        <time>2018-05-19T09:39:55.874Z</time>
      </trkpt>
      <trkpt lat="43.26330333" lon="-4.29152167">
        <ele>247.0</ele>
        <time>2018-05-19T09:39:56.878Z</time>
      </trkpt>
      <trkpt lat="43.26330333" lon="-4.29152167">
        <ele>247.0</ele>
        <time>2018-05-19T09:39:57.873Z</time>
      </trkpt>
      <trkpt lat="43.26324833" lon="-4.291305">
        <ele>246.0</ele>
        <time>2018-05-19T09:39:58.852Z</time>
      </trkpt>
      <trkpt lat="43.26324833" lon="-4.291305">
        <ele>246.0</ele>
        <time>2018-05-19T09:39:59.882Z</time>
      </trkpt>
      <trkpt lat="43.263175" lon="-4.29109333">
        <ele>245.0</ele>
        <time>2018-05-19T09:40:00.876Z</time>
      </trkpt>
      <trkpt lat="43.263175" lon="-4.29109333">
        <ele>245.0</ele>
        <time>2018-05-19T09:40:01.868Z</time>
      </trkpt>
      <trkpt lat="43.263085" lon="-4.290885">
        <ele>245.0</ele>
        <time>2018-05-19T09:40:02.875Z</time>
      </trkpt>
      <trkpt lat="43.263085" lon="-4.290885">
        <ele>245.0</ele>
        <time>2018-05-19T09:40:03.866Z</time>
      </trkpt>
      <trkpt lat="43.26298167" lon="-4.29068167">
        <ele>244.0</ele>
        <time>2018-05-19T09:40:04.852Z</time>
      </trkpt>
      <trkpt lat="43.26298167" lon="-4.29068167">
        <ele>244.0</ele>
        <time>2018-05-19T09:40:05.879Z</time>
      </trkpt>
      <trkpt lat="43.26288" lon="-4.29046">
        <ele>243.0</ele>
        <time>2018-05-19T09:40:06.873Z</time>
      </trkpt>
      <trkpt lat="43.26288" lon="-4.29046">
        <ele>243.0</ele>
        <time>2018-05-19T09:40:07.873Z</time>
      </trkpt>
      <trkpt lat="43.26277667" lon="-4.29022667">
        <ele>242.0</ele>
        <time>2018-05-19T09:40:08.876Z</time>
      </trkpt>
      <trkpt lat="43.26277667" lon="-4.29022667">
        <ele>242.0</ele>
        <time>2018-05-19T09:40:09.873Z</time>
      </trkpt>
      <trkpt lat="43.26267167" lon="-4.28999">
        <ele>240.0</ele>
        <time>2018-05-19T09:40:10.876Z</time>
      </trkpt>
      <trkpt lat="43.26267167" lon="-4.28999">
        <ele>240.0</ele>
        <time>2018-05-19T09:40:11.872Z</time>
      </trkpt>
      <trkpt lat="43.26256333" lon="-4.289745">
        <ele>239.0</ele>
        <time>2018-05-19T09:40:12.873Z</time>
      </trkpt>
      <trkpt lat="43.26256333" lon="-4.289745">
        <ele>239.0</ele>
        <time>2018-05-19T09:40:13.865Z</time>
      </trkpt>
      <trkpt lat="43.26246" lon="-4.289495">
        <ele>238.0</ele>
        <time>2018-05-19T09:40:14.851Z</time>
      </trkpt>
      <trkpt lat="43.26246" lon="-4.289495">
        <ele>238.0</ele>
        <time>2018-05-19T09:40:15.875Z</time>
      </trkpt>
      <trkpt lat="43.26239" lon="-4.28924">
        <ele>237.0</ele>
        <time>2018-05-19T09:40:16.878Z</time>
      </trkpt>
      <trkpt lat="43.26239" lon="-4.28924">
        <ele>237.0</ele>
        <time>2018-05-19T09:40:17.849Z</time>
      </trkpt>
      <trkpt lat="43.26234667" lon="-4.288985">
        <ele>236.0</ele>
        <time>2018-05-19T09:40:18.847Z</time>
      </trkpt>
      <trkpt lat="43.26231833" lon="-4.28886">
        <ele>236.0</ele>
        <time>2018-05-19T09:40:19.878Z</time>
      </trkpt>
      <trkpt lat="43.26231833" lon="-4.28886">
        <ele>236.0</ele>
        <time>2018-05-19T09:40:20.874Z</time>
      </trkpt>
      <trkpt lat="43.26227" lon="-4.28861333">
        <ele>235.0</ele>
        <time>2018-05-19T09:40:21.875Z</time>
      </trkpt>
      <trkpt lat="43.262255" lon="-4.28848833">
        <ele>234.0</ele>
        <time>2018-05-19T09:40:22.879Z</time>
      </trkpt>
      <trkpt lat="43.262255" lon="-4.28848833">
        <ele>234.0</ele>
        <time>2018-05-19T09:40:23.876Z</time>
      </trkpt>
      <trkpt lat="43.26226" lon="-4.28823667">
        <ele>233.0</ele>
        <time>2018-05-19T09:40:24.873Z</time>
      </trkpt>
      <trkpt lat="43.26226" lon="-4.28823667">
        <ele>233.0</ele>
        <time>2018-05-19T09:40:25.873Z</time>
      </trkpt>
      <trkpt lat="43.26230667" lon="-4.28800833">
        <ele>232.0</ele>
        <time>2018-05-19T09:40:26.882Z</time>
      </trkpt>
      <trkpt lat="43.26230667" lon="-4.28800833">
        <ele>232.0</ele>
        <time>2018-05-19T09:40:27.869Z</time>
      </trkpt>
      <trkpt lat="43.26237667" lon="-4.28780167">
        <ele>231.0</ele>
        <time>2018-05-19T09:40:28.858Z</time>
      </trkpt>
      <trkpt lat="43.26237667" lon="-4.28780167">
        <ele>231.0</ele>
        <time>2018-05-19T09:40:29.856Z</time>
      </trkpt>
      <trkpt lat="43.26245333" lon="-4.287595">
        <ele>231.0</ele>
        <time>2018-05-19T09:40:30.880Z</time>
      </trkpt>
      <trkpt lat="43.26245333" lon="-4.287595">
        <ele>231.0</ele>
        <time>2018-05-19T09:40:31.872Z</time>
      </trkpt>
      <trkpt lat="43.26251667" lon="-4.28739333">
        <ele>230.0</ele>
        <time>2018-05-19T09:40:32.876Z</time>
      </trkpt>
      <trkpt lat="43.26251667" lon="-4.28739333">
        <ele>230.0</ele>
        <time>2018-05-19T09:40:33.875Z</time>
      </trkpt>
      <trkpt lat="43.26254833" lon="-4.28718833">
        <ele>230.0</ele>
        <time>2018-05-19T09:40:34.877Z</time>
      </trkpt>
      <trkpt lat="43.26254833" lon="-4.28718833">
        <ele>230.0</ele>
        <time>2018-05-19T09:40:35.873Z</time>
      </trkpt>
      <trkpt lat="43.262575" lon="-4.286985">
        <ele>230.0</ele>
        <time>2018-05-19T09:40:36.875Z</time>
      </trkpt>
      <trkpt lat="43.262575" lon="-4.286985">
        <ele>230.0</ele>
        <time>2018-05-19T09:40:37.873Z</time>
      </trkpt>
      <trkpt lat="43.262595" lon="-4.28677833">
        <ele>229.0</ele>
        <time>2018-05-19T09:40:38.868Z</time>
      </trkpt>
      <trkpt lat="43.26260167" lon="-4.286675">
        <ele>229.0</ele>
        <time>2018-05-19T09:40:39.875Z</time>
      </trkpt>
      <trkpt lat="43.26260167" lon="-4.286675">
        <ele>229.0</ele>
        <time>2018-05-19T09:40:40.863Z</time>
      </trkpt>
      <trkpt lat="43.26262" lon="-4.28647">
        <ele>228.0</ele>
        <time>2018-05-19T09:40:41.853Z</time>
      </trkpt>
      <trkpt lat="43.26262" lon="-4.28647">
        <ele>228.0</ele>
        <time>2018-05-19T09:40:42.878Z</time>
      </trkpt>
      <trkpt lat="43.26264" lon="-4.28626">
        <ele>227.0</ele>
        <time>2018-05-19T09:40:43.875Z</time>
      </trkpt>
      <trkpt lat="43.26264667" lon="-4.28615333">
        <ele>227.0</ele>
        <time>2018-05-19T09:40:44.876Z</time>
      </trkpt>
      <trkpt lat="43.26264667" lon="-4.28615333">
        <ele>227.0</ele>
        <time>2018-05-19T09:40:45.875Z</time>
      </trkpt>
      <trkpt lat="43.26265667" lon="-4.28592833">
        <ele>227.0</ele>
        <time>2018-05-19T09:40:46.848Z</time>
      </trkpt>
      <trkpt lat="43.26266667" lon="-4.28581833">
        <ele>226.0</ele>
        <time>2018-05-19T09:40:47.854Z</time>
      </trkpt>
      <trkpt lat="43.26266667" lon="-4.28581833">
        <ele>226.0</ele>
        <time>2018-05-19T09:40:48.868Z</time>
      </trkpt>
      <trkpt lat="43.26268667" lon="-4.28559833">
        <ele>226.0</ele>
        <time>2018-05-19T09:40:49.856Z</time>
      </trkpt>
      <trkpt lat="43.26268667" lon="-4.28559833">
        <ele>226.0</ele>
        <time>2018-05-19T09:40:50.880Z</time>
      </trkpt>
      <trkpt lat="43.26269333" lon="-4.28538">
        <ele>226.0</ele>
        <time>2018-05-19T09:40:51.876Z</time>
      </trkpt>
      <trkpt lat="43.26270167" lon="-4.28527167">
        <ele>225.0</ele>
        <time>2018-05-19T09:40:52.879Z</time>
      </trkpt>
      <trkpt lat="43.26270167" lon="-4.28527167">
        <ele>225.0</ele>
        <time>2018-05-19T09:40:53.866Z</time>
      </trkpt>
      <trkpt lat="43.26272167" lon="-4.28506833">
        <ele>225.0</ele>
        <time>2018-05-19T09:40:54.852Z</time>
      </trkpt>
      <trkpt lat="43.26272167" lon="-4.28506833">
        <ele>225.0</ele>
        <time>2018-05-19T09:40:55.878Z</time>
      </trkpt>
      <trkpt lat="43.26274333" lon="-4.28486833">
        <ele>225.0</ele>
        <time>2018-05-19T09:40:56.875Z</time>
      </trkpt>
      <trkpt lat="43.26274333" lon="-4.28486833">
        <ele>225.0</ele>
        <time>2018-05-19T09:40:57.873Z</time>
      </trkpt>
      <trkpt lat="43.262765" lon="-4.28467">
        <ele>226.0</ele>
        <time>2018-05-19T09:40:58.878Z</time>
      </trkpt>
      <trkpt lat="43.262765" lon="-4.28467">
        <ele>226.0</ele>
        <time>2018-05-19T09:40:59.870Z</time>
      </trkpt>
      <trkpt lat="43.26279333" lon="-4.284455">
        <ele>225.0</ele>
        <time>2018-05-19T09:41:00.876Z</time>
      </trkpt>
      <trkpt lat="43.26279333" lon="-4.284455">
        <ele>225.0</ele>
        <time>2018-05-19T09:41:01.872Z</time>
      </trkpt>
      <trkpt lat="43.26283667" lon="-4.28422833">
        <ele>225.0</ele>
        <time>2018-05-19T09:41:02.874Z</time>
      </trkpt>
      <trkpt lat="43.26283667" lon="-4.28422833">
        <ele>225.0</ele>
        <time>2018-05-19T09:41:03.867Z</time>
      </trkpt>
      <trkpt lat="43.26291" lon="-4.28399333">
        <ele>225.0</ele>
        <time>2018-05-19T09:41:04.878Z</time>
      </trkpt>
      <trkpt lat="43.26291" lon="-4.28399333">
        <ele>225.0</ele>
        <time>2018-05-19T09:41:05.873Z</time>
      </trkpt>
      <trkpt lat="43.26299833" lon="-4.283755">
        <ele>224.0</ele>
        <time>2018-05-19T09:41:06.875Z</time>
      </trkpt>
      <trkpt lat="43.26299833" lon="-4.283755">
        <ele>224.0</ele>
        <time>2018-05-19T09:41:07.871Z</time>
      </trkpt>
      <trkpt lat="43.26307833" lon="-4.28353167">
        <ele>224.0</ele>
        <time>2018-05-19T09:41:08.875Z</time>
      </trkpt>
      <trkpt lat="43.26311833" lon="-4.28342167">
        <ele>223.0</ele>
        <time>2018-05-19T09:41:09.875Z</time>
      </trkpt>
      <trkpt lat="43.26311833" lon="-4.28342167">
        <ele>223.0</ele>
        <time>2018-05-19T09:41:10.874Z</time>
      </trkpt>
      <trkpt lat="43.263205" lon="-4.28320667">
        <ele>223.0</ele>
        <time>2018-05-19T09:41:11.874Z</time>
      </trkpt>
      <trkpt lat="43.26325167" lon="-4.28310667">
        <ele>222.0</ele>
        <time>2018-05-19T09:41:12.875Z</time>
      </trkpt>
      <trkpt lat="43.26325167" lon="-4.28310667">
        <ele>222.0</ele>
        <time>2018-05-19T09:41:13.865Z</time>
      </trkpt>
      <trkpt lat="43.26335167" lon="-4.28291333">
        <ele>222.0</ele>
        <time>2018-05-19T09:41:14.849Z</time>
      </trkpt>
      <trkpt lat="43.26335167" lon="-4.28291333">
        <ele>222.0</ele>
        <time>2018-05-19T09:41:15.873Z</time>
      </trkpt>
      <trkpt lat="43.26345167" lon="-4.28272667">
        <ele>221.0</ele>
        <time>2018-05-19T09:41:16.880Z</time>
      </trkpt>
      <trkpt lat="43.26349333" lon="-4.28263833">
        <ele>221.0</ele>
        <time>2018-05-19T09:41:17.875Z</time>
      </trkpt>
      <trkpt lat="43.26349333" lon="-4.28263833">
        <ele>221.0</ele>
        <time>2018-05-19T09:41:18.874Z</time>
      </trkpt>
      <trkpt lat="43.263575" lon="-4.28246667">
        <ele>221.0</ele>
        <time>2018-05-19T09:41:19.875Z</time>
      </trkpt>
      <trkpt lat="43.263575" lon="-4.28246667">
        <ele>221.0</ele>
        <time>2018-05-19T09:41:20.872Z</time>
      </trkpt>
      <trkpt lat="43.263625" lon="-4.28230333">
        <ele>221.0</ele>
        <time>2018-05-19T09:41:21.875Z</time>
      </trkpt>
      <trkpt lat="43.26364167" lon="-4.28222333">
        <ele>222.0</ele>
        <time>2018-05-19T09:41:22.876Z</time>
      </trkpt>
      <trkpt lat="43.26364167" lon="-4.28222333">
        <ele>222.0</ele>
        <time>2018-05-19T09:41:23.866Z</time>
      </trkpt>
      <trkpt lat="43.263675" lon="-4.282065">
        <ele>222.0</ele>
        <time>2018-05-19T09:41:24.873Z</time>
      </trkpt>
      <trkpt lat="43.263675" lon="-4.282065">
        <ele>222.0</ele>
        <time>2018-05-19T09:41:25.870Z</time>
      </trkpt>
      <trkpt lat="43.26369333" lon="-4.28191833">
        <ele>223.0</ele>
        <time>2018-05-19T09:41:26.875Z</time>
      </trkpt>
      <trkpt lat="43.26369333" lon="-4.28191833">
        <ele>223.0</ele>
        <time>2018-05-19T09:41:27.872Z</time>
      </trkpt>
      <trkpt lat="43.26370333" lon="-4.28177">
        <ele>223.0</ele>
        <time>2018-05-19T09:41:28.873Z</time>
      </trkpt>
      <trkpt lat="43.26370333" lon="-4.28177">
        <ele>223.0</ele>
        <time>2018-05-19T09:41:29.870Z</time>
      </trkpt>
      <trkpt lat="43.26370333" lon="-4.28162">
        <ele>224.0</ele>
        <time>2018-05-19T09:41:30.873Z</time>
      </trkpt>
      <trkpt lat="43.26370333" lon="-4.28162">
        <ele>224.0</ele>
        <time>2018-05-19T09:41:31.873Z</time>
      </trkpt>
      <trkpt lat="43.263675" lon="-4.28147">
        <ele>224.0</ele>
        <time>2018-05-19T09:41:32.875Z</time>
      </trkpt>
      <trkpt lat="43.263675" lon="-4.28147">
        <ele>224.0</ele>
        <time>2018-05-19T09:41:33.866Z</time>
      </trkpt>
      <trkpt lat="43.26363333" lon="-4.28133">
        <ele>224.0</ele>
        <time>2018-05-19T09:41:34.846Z</time>
      </trkpt>
      <trkpt lat="43.26363333" lon="-4.28133">
        <ele>224.0</ele>
        <time>2018-05-19T09:41:35.874Z</time>
      </trkpt>
      <trkpt lat="43.26358333" lon="-4.28121167">
        <ele>224.0</ele>
        <time>2018-05-19T09:41:36.873Z</time>
      </trkpt>
      <trkpt lat="43.26358333" lon="-4.28121167">
        <ele>224.0</ele>
        <time>2018-05-19T09:41:37.873Z</time>
      </trkpt>
      <trkpt lat="43.263535" lon="-4.28111167">
        <ele>224.0</ele>
        <time>2018-05-19T09:41:38.874Z</time>
      </trkpt>
      <trkpt lat="43.263535" lon="-4.28111167">
        <ele>224.0</ele>
        <time>2018-05-19T09:41:39.873Z</time>
      </trkpt>
      <trkpt lat="43.26348833" lon="-4.28100833">
        <ele>224.0</ele>
        <time>2018-05-19T09:41:40.869Z</time>
      </trkpt>
      <trkpt lat="43.26348833" lon="-4.28100833">
        <ele>224.0</ele>
        <time>2018-05-19T09:41:41.872Z</time>
      </trkpt>
      <trkpt lat="43.26343833" lon="-4.28090833">
        <ele>225.0</ele>
        <time>2018-05-19T09:41:42.875Z</time>
      </trkpt>
      <trkpt lat="43.26343833" lon="-4.28090833">
        <ele>225.0</ele>
        <time>2018-05-19T09:41:43.866Z</time>
      </trkpt>
      <trkpt lat="43.26339" lon="-4.28080667">
        <ele>225.0</ele>
        <time>2018-05-19T09:41:44.851Z</time>
      </trkpt>
      <trkpt lat="43.26339" lon="-4.28080667">
        <ele>225.0</ele>
        <time>2018-05-19T09:41:45.854Z</time>
      </trkpt>
      <trkpt lat="43.26332667" lon="-4.28069167">
        <ele>225.0</ele>
        <time>2018-05-19T09:41:46.849Z</time>
      </trkpt>
      <trkpt lat="43.26329" lon="-4.28062833">
        <ele>224.0</ele>
        <time>2018-05-19T09:41:47.862Z</time>
      </trkpt>
      <trkpt lat="43.26325" lon="-4.28056">
        <ele>224.0</ele>
        <time>2018-05-19T09:41:48.875Z</time>
      </trkpt>
      <trkpt lat="43.26325" lon="-4.28056">
        <ele>224.0</ele>
        <time>2018-05-19T09:41:49.869Z</time>
      </trkpt>
      <trkpt lat="43.26317167" lon="-4.280405">
        <ele>222.0</ele>
        <time>2018-05-19T09:41:50.875Z</time>
      </trkpt>
      <trkpt lat="43.26317167" lon="-4.280405">
        <ele>222.0</ele>
        <time>2018-05-19T09:41:51.880Z</time>
      </trkpt>
      <trkpt lat="43.26309" lon="-4.28023167">
        <ele>221.0</ele>
        <time>2018-05-19T09:41:52.878Z</time>
      </trkpt>
      <trkpt lat="43.26309" lon="-4.28023167">
        <ele>221.0</ele>
        <time>2018-05-19T09:41:53.876Z</time>
      </trkpt>
      <trkpt lat="43.263015" lon="-4.28005333">
        <ele>220.0</ele>
        <time>2018-05-19T09:41:54.873Z</time>
      </trkpt>
      <trkpt lat="43.263015" lon="-4.28005333">
        <ele>220.0</ele>
        <time>2018-05-19T09:41:55.873Z</time>
      </trkpt>
      <trkpt lat="43.26297167" lon="-4.27985333">
        <ele>219.0</ele>
        <time>2018-05-19T09:41:56.875Z</time>
      </trkpt>
      <trkpt lat="43.262955" lon="-4.27974833">
        <ele>219.0</ele>
        <time>2018-05-19T09:41:57.873Z</time>
      </trkpt>
      <trkpt lat="43.26294333" lon="-4.27963833">
        <ele>219.0</ele>
        <time>2018-05-19T09:41:58.875Z</time>
      </trkpt>
      <trkpt lat="43.26294333" lon="-4.27963833">
        <ele>219.0</ele>
        <time>2018-05-19T09:41:59.871Z</time>
      </trkpt>
      <trkpt lat="43.26291333" lon="-4.279415">
        <ele>218.0</ele>
        <time>2018-05-19T09:42:00.875Z</time>
      </trkpt>
      <trkpt lat="43.26291333" lon="-4.279415">
        <ele>218.0</ele>
        <time>2018-05-19T09:42:01.872Z</time>
      </trkpt>
      <trkpt lat="43.262845" lon="-4.27920333">
        <ele>217.0</ele>
        <time>2018-05-19T09:42:02.874Z</time>
      </trkpt>
      <trkpt lat="43.262845" lon="-4.27920333">
        <ele>217.0</ele>
        <time>2018-05-19T09:42:03.873Z</time>
      </trkpt>
      <trkpt lat="43.26270833" lon="-4.27906">
        <ele>215.0</ele>
        <time>2018-05-19T09:42:04.876Z</time>
      </trkpt>
      <trkpt lat="43.26270833" lon="-4.27906">
        <ele>215.0</ele>
        <time>2018-05-19T09:42:05.869Z</time>
      </trkpt>
      <trkpt lat="43.26254833" lon="-4.27899">
        <ele>214.0</ele>
        <time>2018-05-19T09:42:06.872Z</time>
      </trkpt>
      <trkpt lat="43.26254833" lon="-4.27899">
        <ele>214.0</ele>
        <time>2018-05-19T09:42:07.870Z</time>
      </trkpt>
      <trkpt lat="43.262395" lon="-4.27888">
        <ele>213.0</ele>
        <time>2018-05-19T09:42:08.875Z</time>
      </trkpt>
      <trkpt lat="43.262395" lon="-4.27888">
        <ele>213.0</ele>
        <time>2018-05-19T09:42:09.872Z</time>
      </trkpt>
      <trkpt lat="43.26224167" lon="-4.278745">
        <ele>212.0</ele>
        <time>2018-05-19T09:42:10.877Z</time>
      </trkpt>
      <trkpt lat="43.26224167" lon="-4.278745">
        <ele>212.0</ele>
        <time>2018-05-19T09:42:11.873Z</time>
      </trkpt>
      <trkpt lat="43.26207333" lon="-4.27860667">
        <ele>211.0</ele>
        <time>2018-05-19T09:42:12.872Z</time>
      </trkpt>
      <trkpt lat="43.26207333" lon="-4.27860667">
        <ele>211.0</ele>
        <time>2018-05-19T09:42:13.865Z</time>
      </trkpt>
      <trkpt lat="43.26189667" lon="-4.27848333">
        <ele>210.0</ele>
        <time>2018-05-19T09:42:14.874Z</time>
      </trkpt>
      <trkpt lat="43.26189667" lon="-4.27848333">
        <ele>210.0</ele>
        <time>2018-05-19T09:42:15.869Z</time>
      </trkpt>
      <trkpt lat="43.261715" lon="-4.27834333">
        <ele>209.0</ele>
        <time>2018-05-19T09:42:16.849Z</time>
      </trkpt>
      <trkpt lat="43.261715" lon="-4.27834333">
        <ele>209.0</ele>
        <time>2018-05-19T09:42:17.874Z</time>
      </trkpt>
      <trkpt lat="43.26152667" lon="-4.278185">
        <ele>208.0</ele>
        <time>2018-05-19T09:42:18.876Z</time>
      </trkpt>
      <trkpt lat="43.26152667" lon="-4.278185">
        <ele>208.0</ele>
        <time>2018-05-19T09:42:19.869Z</time>
      </trkpt>
      <trkpt lat="43.261345" lon="-4.27803333">
        <ele>206.0</ele>
        <time>2018-05-19T09:42:20.856Z</time>
      </trkpt>
      <trkpt lat="43.261345" lon="-4.27803333">
        <ele>206.0</ele>
        <time>2018-05-19T09:42:21.853Z</time>
      </trkpt>
      <trkpt lat="43.26116333" lon="-4.27788667">
        <ele>205.0</ele>
        <time>2018-05-19T09:42:22.877Z</time>
      </trkpt>
      <trkpt lat="43.26116333" lon="-4.27788667">
        <ele>205.0</ele>
        <time>2018-05-19T09:42:23.866Z</time>
      </trkpt>
      <trkpt lat="43.26100167" lon="-4.27772667">
        <ele>204.0</ele>
        <time>2018-05-19T09:42:24.873Z</time>
      </trkpt>
      <trkpt lat="43.26100167" lon="-4.27772667">
        <ele>204.0</ele>
        <time>2018-05-19T09:42:25.871Z</time>
      </trkpt>
      <trkpt lat="43.26086833" lon="-4.27754">
        <ele>202.0</ele>
        <time>2018-05-19T09:42:26.876Z</time>
      </trkpt>
      <trkpt lat="43.26086833" lon="-4.27754">
        <ele>202.0</ele>
        <time>2018-05-19T09:42:27.872Z</time>
      </trkpt>
      <trkpt lat="43.26075833" lon="-4.27733667">
        <ele>201.0</ele>
        <time>2018-05-19T09:42:28.876Z</time>
      </trkpt>
      <trkpt lat="43.26075833" lon="-4.27733667">
        <ele>201.0</ele>
        <time>2018-05-19T09:42:29.868Z</time>
      </trkpt>
      <trkpt lat="43.26066667" lon="-4.27712667">
        <ele>201.0</ele>
        <time>2018-05-19T09:42:30.851Z</time>
      </trkpt>
      <trkpt lat="43.26066667" lon="-4.27712667">
        <ele>201.0</ele>
        <time>2018-05-19T09:42:31.876Z</time>
      </trkpt>
      <trkpt lat="43.26058167" lon="-4.27691833">
        <ele>200.0</ele>
        <time>2018-05-19T09:42:32.875Z</time>
      </trkpt>
      <trkpt lat="43.26058167" lon="-4.27691833">
        <ele>200.0</ele>
        <time>2018-05-19T09:42:33.865Z</time>
      </trkpt>
      <trkpt lat="43.26049833" lon="-4.27670667">
        <ele>199.0</ele>
        <time>2018-05-19T09:42:34.851Z</time>
      </trkpt>
      <trkpt lat="43.26049833" lon="-4.27670667">
        <ele>199.0</ele>
        <time>2018-05-19T09:42:35.874Z</time>
      </trkpt>
      <trkpt lat="43.26042" lon="-4.27649667">
        <ele>199.0</ele>
        <time>2018-05-19T09:42:36.875Z</time>
      </trkpt>
      <trkpt lat="43.26042" lon="-4.27649667">
        <ele>199.0</ele>
        <time>2018-05-19T09:42:37.867Z</time>
      </trkpt>
      <trkpt lat="43.26035" lon="-4.27627667">
        <ele>198.0</ele>
        <time>2018-05-19T09:42:38.875Z</time>
      </trkpt>
      <trkpt lat="43.26035" lon="-4.27627667">
        <ele>198.0</ele>
        <time>2018-05-19T09:42:39.873Z</time>
      </trkpt>
      <trkpt lat="43.2603" lon="-4.276035">
        <ele>198.0</ele>
        <time>2018-05-19T09:42:40.871Z</time>
      </trkpt>
      <trkpt lat="43.26027667" lon="-4.27591167">
        <ele>198.0</ele>
        <time>2018-05-19T09:42:41.875Z</time>
      </trkpt>
      <trkpt lat="43.26026167" lon="-4.27578333">
        <ele>197.0</ele>
        <time>2018-05-19T09:42:42.845Z</time>
      </trkpt>
      <trkpt lat="43.26026167" lon="-4.27578333">
        <ele>197.0</ele>
        <time>2018-05-19T09:42:43.876Z</time>
      </trkpt>
      <trkpt lat="43.26025" lon="-4.275525">
        <ele>197.0</ele>
        <time>2018-05-19T09:42:44.874Z</time>
      </trkpt>
      <trkpt lat="43.26025" lon="-4.275525">
        <ele>197.0</ele>
        <time>2018-05-19T09:42:45.856Z</time>
      </trkpt>
      <trkpt lat="43.26024833" lon="-4.27527">
        <ele>197.0</ele>
        <time>2018-05-19T09:42:46.879Z</time>
      </trkpt>
      <trkpt lat="43.26025" lon="-4.275145">
        <ele>197.0</ele>
        <time>2018-05-19T09:42:47.845Z</time>
      </trkpt>
      <trkpt lat="43.26025" lon="-4.275145">
        <ele>197.0</ele>
        <time>2018-05-19T09:42:48.851Z</time>
      </trkpt>
      <trkpt lat="43.26025667" lon="-4.27489667">
        <ele>197.0</ele>
        <time>2018-05-19T09:42:49.876Z</time>
      </trkpt>
      <trkpt lat="43.26025667" lon="-4.27489667">
        <ele>197.0</ele>
        <time>2018-05-19T09:42:50.873Z</time>
      </trkpt>
      <trkpt lat="43.260265" lon="-4.27465667">
        <ele>197.0</ele>
        <time>2018-05-19T09:42:51.849Z</time>
      </trkpt>
      <trkpt lat="43.26027167" lon="-4.27453333">
        <ele>197.0</ele>
        <time>2018-05-19T09:42:52.876Z</time>
      </trkpt>
      <trkpt lat="43.26027167" lon="-4.27453333">
        <ele>197.0</ele>
        <time>2018-05-19T09:42:53.866Z</time>
      </trkpt>
      <trkpt lat="43.2603" lon="-4.27429167">
        <ele>197.0</ele>
        <time>2018-05-19T09:42:54.873Z</time>
      </trkpt>
      <trkpt lat="43.2603" lon="-4.27429167">
        <ele>197.0</ele>
        <time>2018-05-19T09:42:55.871Z</time>
      </trkpt>
      <trkpt lat="43.26035" lon="-4.27406">
        <ele>197.0</ele>
        <time>2018-05-19T09:42:56.875Z</time>
      </trkpt>
      <trkpt lat="43.26035" lon="-4.27406">
        <ele>197.0</ele>
        <time>2018-05-19T09:42:57.867Z</time>
      </trkpt>
      <trkpt lat="43.26039667" lon="-4.27384333">
        <ele>196.0</ele>
        <time>2018-05-19T09:42:58.875Z</time>
      </trkpt>
      <trkpt lat="43.26039667" lon="-4.27384333">
        <ele>196.0</ele>
        <time>2018-05-19T09:42:59.872Z</time>
      </trkpt>
      <trkpt lat="43.26044833" lon="-4.27362667">
        <ele>196.0</ele>
        <time>2018-05-19T09:43:00.875Z</time>
      </trkpt>
      <trkpt lat="43.26044833" lon="-4.27362667">
        <ele>196.0</ele>
        <time>2018-05-19T09:43:01.869Z</time>
      </trkpt>
      <trkpt lat="43.26046167" lon="-4.27340667">
        <ele>196.0</ele>
        <time>2018-05-19T09:43:02.875Z</time>
      </trkpt>
      <trkpt lat="43.26046167" lon="-4.27340667">
        <ele>196.0</ele>
        <time>2018-05-19T09:43:03.866Z</time>
      </trkpt>
      <trkpt lat="43.26041667" lon="-4.27322333">
        <ele>196.0</ele>
        <time>2018-05-19T09:43:04.875Z</time>
      </trkpt>
      <trkpt lat="43.26041667" lon="-4.27322333">
        <ele>196.0</ele>
        <time>2018-05-19T09:43:05.871Z</time>
      </trkpt>
      <trkpt lat="43.260315" lon="-4.273065">
        <ele>195.0</ele>
        <time>2018-05-19T09:43:06.874Z</time>
      </trkpt>
      <trkpt lat="43.260315" lon="-4.273065">
        <ele>195.0</ele>
        <time>2018-05-19T09:43:07.871Z</time>
      </trkpt>
      <trkpt lat="43.26019667" lon="-4.272895">
        <ele>195.0</ele>
        <time>2018-05-19T09:43:08.875Z</time>
      </trkpt>
      <trkpt lat="43.26019667" lon="-4.272895">
        <ele>195.0</ele>
        <time>2018-05-19T09:43:09.872Z</time>
      </trkpt>
      <trkpt lat="43.26012167" lon="-4.27269">
        <ele>193.0</ele>
        <time>2018-05-19T09:43:10.876Z</time>
      </trkpt>
      <trkpt lat="43.26012167" lon="-4.27269">
        <ele>193.0</ele>
        <time>2018-05-19T09:43:11.872Z</time>
      </trkpt>
      <trkpt lat="43.26008333" lon="-4.27246">
        <ele>193.0</ele>
        <time>2018-05-19T09:43:12.872Z</time>
      </trkpt>
      <trkpt lat="43.26008333" lon="-4.27246">
        <ele>193.0</ele>
        <time>2018-05-19T09:43:13.865Z</time>
      </trkpt>
      <trkpt lat="43.26004667" lon="-4.27223167">
        <ele>192.0</ele>
        <time>2018-05-19T09:43:14.851Z</time>
      </trkpt>
      <trkpt lat="43.26004667" lon="-4.27223167">
        <ele>192.0</ele>
        <time>2018-05-19T09:43:15.875Z</time>
      </trkpt>
      <trkpt lat="43.25999167" lon="-4.272015">
        <ele>192.0</ele>
        <time>2018-05-19T09:43:16.876Z</time>
      </trkpt>
      <trkpt lat="43.25999167" lon="-4.272015">
        <ele>192.0</ele>
        <time>2018-05-19T09:43:17.873Z</time>
      </trkpt>
      <trkpt lat="43.25989" lon="-4.27185167">
        <ele>192.0</ele>
        <time>2018-05-19T09:43:18.874Z</time>
      </trkpt>
      <trkpt lat="43.25989" lon="-4.27185167">
        <ele>192.0</ele>
        <time>2018-05-19T09:43:19.870Z</time>
      </trkpt>
      <trkpt lat="43.25974833" lon="-4.27177833">
        <ele>193.0</ele>
        <time>2018-05-19T09:43:20.874Z</time>
      </trkpt>
      <trkpt lat="43.25974833" lon="-4.27177833">
        <ele>193.0</ele>
        <time>2018-05-19T09:43:21.872Z</time>
      </trkpt>
      <trkpt lat="43.25960833" lon="-4.271795">
        <ele>193.0</ele>
        <time>2018-05-19T09:43:22.875Z</time>
      </trkpt>
      <trkpt lat="43.25960833" lon="-4.271795">
        <ele>193.0</ele>
        <time>2018-05-19T09:43:23.876Z</time>
      </trkpt>
      <trkpt lat="43.25946833" lon="-4.27182333">
        <ele>192.0</ele>
        <time>2018-05-19T09:43:24.878Z</time>
      </trkpt>
      <trkpt lat="43.25946833" lon="-4.27182333">
        <ele>192.0</ele>
        <time>2018-05-19T09:43:25.871Z</time>
      </trkpt>
      <trkpt lat="43.25933167" lon="-4.271785">
        <ele>193.0</ele>
        <time>2018-05-19T09:43:26.874Z</time>
      </trkpt>
      <trkpt lat="43.25933167" lon="-4.271785">
        <ele>193.0</ele>
        <time>2018-05-19T09:43:27.872Z</time>
      </trkpt>
      <trkpt lat="43.25920667" lon="-4.271685">
        <ele>193.0</ele>
        <time>2018-05-19T09:43:28.876Z</time>
      </trkpt>
      <trkpt lat="43.25920667" lon="-4.271685">
        <ele>193.0</ele>
        <time>2018-05-19T09:43:29.871Z</time>
      </trkpt>
      <trkpt lat="43.25909333" lon="-4.27157167">
        <ele>193.0</ele>
        <time>2018-05-19T09:43:30.875Z</time>
      </trkpt>
      <trkpt lat="43.25909333" lon="-4.27157167">
        <ele>193.0</ele>
        <time>2018-05-19T09:43:31.872Z</time>
      </trkpt>
      <trkpt lat="43.25898" lon="-4.27145833">
        <ele>192.0</ele>
        <time>2018-05-19T09:43:32.873Z</time>
      </trkpt>
      <trkpt lat="43.258925" lon="-4.27140167">
        <ele>192.0</ele>
        <time>2018-05-19T09:43:33.867Z</time>
      </trkpt>
      <trkpt lat="43.25886833" lon="-4.271345">
        <ele>192.0</ele>
        <time>2018-05-19T09:43:34.851Z</time>
      </trkpt>
      <trkpt lat="43.25886833" lon="-4.271345">
        <ele>192.0</ele>
        <time>2018-05-19T09:43:35.876Z</time>
      </trkpt>
      <trkpt lat="43.25875333" lon="-4.27123333">
        <ele>192.0</ele>
        <time>2018-05-19T09:43:36.875Z</time>
      </trkpt>
      <trkpt lat="43.25875333" lon="-4.27123333">
        <ele>192.0</ele>
        <time>2018-05-19T09:43:37.866Z</time>
      </trkpt>
      <trkpt lat="43.25862333" lon="-4.27115167">
        <ele>191.0</ele>
        <time>2018-05-19T09:43:38.875Z</time>
      </trkpt>
      <trkpt lat="43.25862333" lon="-4.27115167">
        <ele>191.0</ele>
        <time>2018-05-19T09:43:39.872Z</time>
      </trkpt>
      <trkpt lat="43.25848167" lon="-4.27110833">
        <ele>191.0</ele>
        <time>2018-05-19T09:43:40.867Z</time>
      </trkpt>
      <trkpt lat="43.25848167" lon="-4.27110833">
        <ele>191.0</ele>
        <time>2018-05-19T09:43:41.854Z</time>
      </trkpt>
      <trkpt lat="43.25833667" lon="-4.27108167">
        <ele>191.0</ele>
        <time>2018-05-19T09:43:42.879Z</time>
      </trkpt>
      <trkpt lat="43.25826333" lon="-4.27108">
        <ele>191.0</ele>
        <time>2018-05-19T09:43:43.876Z</time>
      </trkpt>
      <trkpt lat="43.25826333" lon="-4.27108">
        <ele>191.0</ele>
        <time>2018-05-19T09:43:44.872Z</time>
      </trkpt>
      <trkpt lat="43.25812167" lon="-4.27110167">
        <ele>191.0</ele>
        <time>2018-05-19T09:43:45.855Z</time>
      </trkpt>
      <trkpt lat="43.25805167" lon="-4.27112667">
        <ele>191.0</ele>
        <time>2018-05-19T09:43:46.850Z</time>
      </trkpt>
      <trkpt lat="43.25805167" lon="-4.27112667">
        <ele>191.0</ele>
        <time>2018-05-19T09:43:47.860Z</time>
      </trkpt>
      <trkpt lat="43.25792167" lon="-4.27119">
        <ele>191.0</ele>
        <time>2018-05-19T09:43:48.875Z</time>
      </trkpt>
      <trkpt lat="43.25792167" lon="-4.27119">
        <ele>191.0</ele>
        <time>2018-05-19T09:43:49.872Z</time>
      </trkpt>
      <trkpt lat="43.25779667" lon="-4.27125667">
        <ele>191.0</ele>
        <time>2018-05-19T09:43:50.875Z</time>
      </trkpt>
      <trkpt lat="43.25779667" lon="-4.27125667">
        <ele>191.0</ele>
        <time>2018-05-19T09:43:51.872Z</time>
      </trkpt>
      <trkpt lat="43.25767667" lon="-4.27131333">
        <ele>191.0</ele>
        <time>2018-05-19T09:43:52.878Z</time>
      </trkpt>
      <trkpt lat="43.25767667" lon="-4.27131333">
        <ele>191.0</ele>
        <time>2018-05-19T09:43:53.878Z</time>
      </trkpt>
      <trkpt lat="43.25755333" lon="-4.27134333">
        <ele>191.0</ele>
        <time>2018-05-19T09:43:54.874Z</time>
      </trkpt>
      <trkpt lat="43.25755333" lon="-4.27134333">
        <ele>191.0</ele>
        <time>2018-05-19T09:43:55.869Z</time>
      </trkpt>
      <trkpt lat="43.257435" lon="-4.27134667">
        <ele>191.0</ele>
        <time>2018-05-19T09:43:56.875Z</time>
      </trkpt>
      <trkpt lat="43.257435" lon="-4.27134667">
        <ele>191.0</ele>
        <time>2018-05-19T09:43:57.876Z</time>
      </trkpt>
      <trkpt lat="43.257325" lon="-4.27130333">
        <ele>191.0</ele>
        <time>2018-05-19T09:43:58.876Z</time>
      </trkpt>
      <trkpt lat="43.257325" lon="-4.27130333">
        <ele>191.0</ele>
        <time>2018-05-19T09:43:59.879Z</time>
      </trkpt>
      <trkpt lat="43.25724" lon="-4.27122">
        <ele>192.0</ele>
        <time>2018-05-19T09:44:00.874Z</time>
      </trkpt>
      <trkpt lat="43.25724" lon="-4.27122">
        <ele>192.0</ele>
        <time>2018-05-19T09:44:01.872Z</time>
      </trkpt>
      <trkpt lat="43.25717667" lon="-4.27111167">
        <ele>192.0</ele>
        <time>2018-05-19T09:44:02.874Z</time>
      </trkpt>
      <trkpt lat="43.25715" lon="-4.27105667">
        <ele>193.0</ele>
        <time>2018-05-19T09:44:03.867Z</time>
      </trkpt>
      <trkpt lat="43.25715" lon="-4.27105667">
        <ele>193.0</ele>
        <time>2018-05-19T09:44:04.870Z</time>
      </trkpt>
      <trkpt lat="43.25710167" lon="-4.27094833">
        <ele>193.0</ele>
        <time>2018-05-19T09:44:05.874Z</time>
      </trkpt>
      <trkpt lat="43.25708" lon="-4.27089167">
        <ele>193.0</ele>
        <time>2018-05-19T09:44:06.875Z</time>
      </trkpt>
      <trkpt lat="43.25708" lon="-4.27089167">
        <ele>193.0</ele>
        <time>2018-05-19T09:44:07.871Z</time>
      </trkpt>
      <trkpt lat="43.25704167" lon="-4.270775">
        <ele>193.0</ele>
        <time>2018-05-19T09:44:08.871Z</time>
      </trkpt>
      <trkpt lat="43.25704167" lon="-4.270775">
        <ele>193.0</ele>
        <time>2018-05-19T09:44:09.873Z</time>
      </trkpt>
      <trkpt lat="43.25700333" lon="-4.270655">
        <ele>193.0</ele>
        <time>2018-05-19T09:44:10.875Z</time>
      </trkpt>
      <trkpt lat="43.25700333" lon="-4.270655">
        <ele>193.0</ele>
        <time>2018-05-19T09:44:11.871Z</time>
      </trkpt>
      <trkpt lat="43.256965" lon="-4.27053333">
        <ele>193.0</ele>
        <time>2018-05-19T09:44:12.875Z</time>
      </trkpt>
      <trkpt lat="43.256965" lon="-4.27053333">
        <ele>193.0</ele>
        <time>2018-05-19T09:44:13.865Z</time>
      </trkpt>
      <trkpt lat="43.256935" lon="-4.27041167">
        <ele>193.0</ele>
        <time>2018-05-19T09:44:14.850Z</time>
      </trkpt>
      <trkpt lat="43.256935" lon="-4.27041167">
        <ele>193.0</ele>
        <time>2018-05-19T09:44:15.879Z</time>
      </trkpt>
      <trkpt lat="43.25694667" lon="-4.27029333">
        <ele>193.0</ele>
        <time>2018-05-19T09:44:16.862Z</time>
      </trkpt>
      <trkpt lat="43.256975" lon="-4.270235">
        <ele>192.0</ele>
        <time>2018-05-19T09:44:17.848Z</time>
      </trkpt>
      <trkpt lat="43.25701333" lon="-4.27017667">
        <ele>192.0</ele>
        <time>2018-05-19T09:44:18.875Z</time>
      </trkpt>
      <trkpt lat="43.25701333" lon="-4.27017667">
        <ele>192.0</ele>
        <time>2018-05-19T09:44:19.873Z</time>
      </trkpt>
      <trkpt lat="43.25711333" lon="-4.27006833">
        <ele>191.0</ele>
        <time>2018-05-19T09:44:20.874Z</time>
      </trkpt>
      <trkpt lat="43.25716833" lon="-4.27001333">
        <ele>191.0</ele>
        <time>2018-05-19T09:44:21.872Z</time>
      </trkpt>
      <trkpt lat="43.257225" lon="-4.26995667">
        <ele>191.0</ele>
        <time>2018-05-19T09:44:22.874Z</time>
      </trkpt>
      <trkpt lat="43.257225" lon="-4.26995667">
        <ele>191.0</ele>
        <time>2018-05-19T09:44:23.866Z</time>
      </trkpt>
      <trkpt lat="43.257345" lon="-4.26984">
        <ele>190.0</ele>
        <time>2018-05-19T09:44:24.848Z</time>
      </trkpt>
      <trkpt lat="43.257345" lon="-4.26984">
        <ele>190.0</ele>
        <time>2018-05-19T09:44:25.875Z</time>
      </trkpt>
      <trkpt lat="43.25746167" lon="-4.26971667">
        <ele>190.0</ele>
        <time>2018-05-19T09:44:26.873Z</time>
      </trkpt>
      <trkpt lat="43.25751667" lon="-4.26965">
        <ele>189.0</ele>
        <time>2018-05-19T09:44:27.874Z</time>
      </trkpt>
      <trkpt lat="43.25751667" lon="-4.26965">
        <ele>189.0</ele>
        <time>2018-05-19T09:44:28.873Z</time>
      </trkpt>
      <trkpt lat="43.25763167" lon="-4.269515">
        <ele>189.0</ele>
        <time>2018-05-19T09:44:29.873Z</time>
      </trkpt>
      <trkpt lat="43.25763167" lon="-4.269515">
        <ele>189.0</ele>
        <time>2018-05-19T09:44:30.872Z</time>
      </trkpt>
      <trkpt lat="43.25774667" lon="-4.26938333">
        <ele>189.0</ele>
        <time>2018-05-19T09:44:31.874Z</time>
      </trkpt>
      <trkpt lat="43.25774667" lon="-4.26938333">
        <ele>189.0</ele>
        <time>2018-05-19T09:44:32.875Z</time>
      </trkpt>
      <trkpt lat="43.25785667" lon="-4.269245">
        <ele>188.0</ele>
        <time>2018-05-19T09:44:33.867Z</time>
      </trkpt>
      <trkpt lat="43.25785667" lon="-4.269245">
        <ele>188.0</ele>
        <time>2018-05-19T09:44:34.873Z</time>
      </trkpt>
      <trkpt lat="43.257965" lon="-4.26910333">
        <ele>188.0</ele>
        <time>2018-05-19T09:44:35.844Z</time>
      </trkpt>
      <trkpt lat="43.257965" lon="-4.26910333">
        <ele>188.0</ele>
        <time>2018-05-19T09:44:36.872Z</time>
      </trkpt>
      <trkpt lat="43.25807167" lon="-4.26896333">
        <ele>188.0</ele>
        <time>2018-05-19T09:44:37.873Z</time>
      </trkpt>
      <trkpt lat="43.25807167" lon="-4.26896333">
        <ele>188.0</ele>
        <time>2018-05-19T09:44:38.871Z</time>
      </trkpt>
      <trkpt lat="43.258175" lon="-4.26882167">
        <ele>188.0</ele>
        <time>2018-05-19T09:44:39.874Z</time>
      </trkpt>
      <trkpt lat="43.258175" lon="-4.26882167">
        <ele>188.0</ele>
        <time>2018-05-19T09:44:40.874Z</time>
      </trkpt>
      <trkpt lat="43.25826667" lon="-4.26867667">
        <ele>188.0</ele>
        <time>2018-05-19T09:44:41.871Z</time>
      </trkpt>
      <trkpt lat="43.25831333" lon="-4.26860667">
        <ele>188.0</ele>
        <time>2018-05-19T09:44:42.873Z</time>
      </trkpt>
      <trkpt lat="43.25831333" lon="-4.26860667">
        <ele>188.0</ele>
        <time>2018-05-19T09:44:43.865Z</time>
      </trkpt>
      <trkpt lat="43.2584" lon="-4.26846667">
        <ele>188.0</ele>
        <time>2018-05-19T09:44:44.853Z</time>
      </trkpt>
      <trkpt lat="43.2584" lon="-4.26846667">
        <ele>188.0</ele>
        <time>2018-05-19T09:44:45.874Z</time>
      </trkpt>
      <trkpt lat="43.25848667" lon="-4.26831333">
        <ele>187.0</ele>
        <time>2018-05-19T09:44:46.864Z</time>
      </trkpt>
      <trkpt lat="43.25852833" lon="-4.26823167">
        <ele>187.0</ele>
        <time>2018-05-19T09:44:47.869Z</time>
      </trkpt>
      <trkpt lat="43.25852833" lon="-4.26823167">
        <ele>187.0</ele>
        <time>2018-05-19T09:44:48.875Z</time>
      </trkpt>
      <trkpt lat="43.258615" lon="-4.26807">
        <ele>187.0</ele>
        <time>2018-05-19T09:44:49.877Z</time>
      </trkpt>
      <trkpt lat="43.25865833" lon="-4.26799333">
        <ele>187.0</ele>
        <time>2018-05-19T09:44:50.875Z</time>
      </trkpt>
      <trkpt lat="43.25865833" lon="-4.26799333">
        <ele>187.0</ele>
        <time>2018-05-19T09:44:51.869Z</time>
      </trkpt>
      <trkpt lat="43.258745" lon="-4.26784">
        <ele>187.0</ele>
        <time>2018-05-19T09:44:52.876Z</time>
      </trkpt>
      <trkpt lat="43.258745" lon="-4.26784">
        <ele>187.0</ele>
        <time>2018-05-19T09:44:53.865Z</time>
      </trkpt>
      <trkpt lat="43.258835" lon="-4.26769167">
        <ele>187.0</ele>
        <time>2018-05-19T09:44:54.876Z</time>
      </trkpt>
      <trkpt lat="43.258835" lon="-4.26769167">
        <ele>187.0</ele>
        <time>2018-05-19T09:44:55.868Z</time>
      </trkpt>
      <trkpt lat="43.258925" lon="-4.26754167">
        <ele>187.0</ele>
        <time>2018-05-19T09:44:56.874Z</time>
      </trkpt>
      <trkpt lat="43.258925" lon="-4.26754167">
        <ele>187.0</ele>
        <time>2018-05-19T09:44:57.872Z</time>
      </trkpt>
      <trkpt lat="43.25901333" lon="-4.26739167">
        <ele>186.0</ele>
        <time>2018-05-19T09:44:58.875Z</time>
      </trkpt>
      <trkpt lat="43.25901333" lon="-4.26739167">
        <ele>186.0</ele>
        <time>2018-05-19T09:44:59.870Z</time>
      </trkpt>
      <trkpt lat="43.2591" lon="-4.26724833">
        <ele>186.0</ele>
        <time>2018-05-19T09:45:00.876Z</time>
      </trkpt>
      <trkpt lat="43.2591" lon="-4.26724833">
        <ele>186.0</ele>
        <time>2018-05-19T09:45:01.872Z</time>
      </trkpt>
      <trkpt lat="43.25918833" lon="-4.26710667">
        <ele>186.0</ele>
        <time>2018-05-19T09:45:02.875Z</time>
      </trkpt>
      <trkpt lat="43.25918833" lon="-4.26710667">
        <ele>186.0</ele>
        <time>2018-05-19T09:45:03.866Z</time>
      </trkpt>
      <trkpt lat="43.25926833" lon="-4.26696167">
        <ele>186.0</ele>
        <time>2018-05-19T09:45:04.851Z</time>
      </trkpt>
      <trkpt lat="43.25926833" lon="-4.26696167">
        <ele>186.0</ele>
        <time>2018-05-19T09:45:05.876Z</time>
      </trkpt>
      <trkpt lat="43.25933667" lon="-4.26682667">
        <ele>186.0</ele>
        <time>2018-05-19T09:45:06.876Z</time>
      </trkpt>
      <trkpt lat="43.25933667" lon="-4.26682667">
        <ele>186.0</ele>
        <time>2018-05-19T09:45:07.873Z</time>
      </trkpt>
      <trkpt lat="43.25939167" lon="-4.26671833">
        <ele>186.0</ele>
        <time>2018-05-19T09:45:08.875Z</time>
      </trkpt>
      <trkpt lat="43.25939167" lon="-4.26671833">
        <ele>186.0</ele>
        <time>2018-05-19T09:45:09.872Z</time>
      </trkpt>
      <trkpt lat="43.25944667" lon="-4.266625">
        <ele>186.0</ele>
        <time>2018-05-19T09:45:10.876Z</time>
      </trkpt>
      <trkpt lat="43.25944667" lon="-4.266625">
        <ele>186.0</ele>
        <time>2018-05-19T09:45:11.872Z</time>
      </trkpt>
      <trkpt lat="43.2595" lon="-4.26653">
        <ele>186.0</ele>
        <time>2018-05-19T09:45:12.879Z</time>
      </trkpt>
      <trkpt lat="43.2595" lon="-4.26653">
        <ele>186.0</ele>
        <time>2018-05-19T09:45:13.865Z</time>
      </trkpt>
      <trkpt lat="43.25955667" lon="-4.26642833">
        <ele>186.0</ele>
        <time>2018-05-19T09:45:14.850Z</time>
      </trkpt>
      <trkpt lat="43.25955667" lon="-4.26642833">
        <ele>186.0</ele>
        <time>2018-05-19T09:45:15.874Z</time>
      </trkpt>
      <trkpt lat="43.25960667" lon="-4.26630833">
        <ele>186.0</ele>
        <time>2018-05-19T09:45:16.874Z</time>
      </trkpt>
      <trkpt lat="43.25960667" lon="-4.26630833">
        <ele>186.0</ele>
        <time>2018-05-19T09:45:17.846Z</time>
      </trkpt>
      <trkpt lat="43.25965333" lon="-4.26616333">
        <ele>185.0</ele>
        <time>2018-05-19T09:45:18.875Z</time>
      </trkpt>
      <trkpt lat="43.25965333" lon="-4.26616333">
        <ele>185.0</ele>
        <time>2018-05-19T09:45:19.871Z</time>
      </trkpt>
      <trkpt lat="43.25971" lon="-4.26602833">
        <ele>185.0</ele>
        <time>2018-05-19T09:45:20.878Z</time>
      </trkpt>
      <trkpt lat="43.25972" lon="-4.265955">
        <ele>185.0</ele>
        <time>2018-05-19T09:45:21.878Z</time>
      </trkpt>
      <trkpt lat="43.25970833" lon="-4.26588333">
        <ele>186.0</ele>
        <time>2018-05-19T09:45:22.874Z</time>
      </trkpt>
      <trkpt lat="43.25970833" lon="-4.26588333">
        <ele>186.0</ele>
        <time>2018-05-19T09:45:23.871Z</time>
      </trkpt>
      <trkpt lat="43.25965667" lon="-4.26575667">
        <ele>186.0</ele>
        <time>2018-05-19T09:45:24.876Z</time>
      </trkpt>
      <trkpt lat="43.25965667" lon="-4.26575667">
        <ele>186.0</ele>
        <time>2018-05-19T09:45:25.870Z</time>
      </trkpt>
      <trkpt lat="43.25966" lon="-4.26562667">
        <ele>186.0</ele>
        <time>2018-05-19T09:45:26.875Z</time>
      </trkpt>
      <trkpt lat="43.25967667" lon="-4.26556333">
        <ele>186.0</ele>
        <time>2018-05-19T09:45:27.875Z</time>
      </trkpt>
      <trkpt lat="43.25968667" lon="-4.26549833">
        <ele>187.0</ele>
        <time>2018-05-19T09:45:28.876Z</time>
      </trkpt>
      <trkpt lat="43.25968667" lon="-4.26549833">
        <ele>187.0</ele>
        <time>2018-05-19T09:45:29.869Z</time>
      </trkpt>
      <trkpt lat="43.25969833" lon="-4.26535833">
        <ele>188.0</ele>
        <time>2018-05-19T09:45:30.873Z</time>
      </trkpt>
      <trkpt lat="43.25969833" lon="-4.26535833">
        <ele>188.0</ele>
        <time>2018-05-19T09:45:31.872Z</time>
      </trkpt>
      <trkpt lat="43.25968833" lon="-4.265215">
        <ele>188.0</ele>
        <time>2018-05-19T09:45:32.874Z</time>
      </trkpt>
      <trkpt lat="43.25968833" lon="-4.265215">
        <ele>188.0</ele>
        <time>2018-05-19T09:45:33.865Z</time>
      </trkpt>
      <trkpt lat="43.25968833" lon="-4.26506833">
        <ele>188.0</ele>
        <time>2018-05-19T09:45:34.851Z</time>
      </trkpt>
      <trkpt lat="43.25968833" lon="-4.26506833">
        <ele>188.0</ele>
        <time>2018-05-19T09:45:35.875Z</time>
      </trkpt>
      <trkpt lat="43.25973" lon="-4.26493167">
        <ele>188.0</ele>
        <time>2018-05-19T09:45:36.874Z</time>
      </trkpt>
      <trkpt lat="43.25973" lon="-4.26493167">
        <ele>188.0</ele>
        <time>2018-05-19T09:45:37.872Z</time>
      </trkpt>
      <trkpt lat="43.25978" lon="-4.26479167">
        <ele>189.0</ele>
        <time>2018-05-19T09:45:38.873Z</time>
      </trkpt>
      <trkpt lat="43.25980167" lon="-4.26471833">
        <ele>189.0</ele>
        <time>2018-05-19T09:45:39.874Z</time>
      </trkpt>
      <trkpt lat="43.25980167" lon="-4.26471833">
        <ele>189.0</ele>
        <time>2018-05-19T09:45:40.866Z</time>
      </trkpt>
      <trkpt lat="43.259835" lon="-4.264575">
        <ele>189.0</ele>
        <time>2018-05-19T09:45:41.847Z</time>
      </trkpt>
      <trkpt lat="43.259835" lon="-4.264575">
        <ele>189.0</ele>
        <time>2018-05-19T09:45:42.871Z</time>
      </trkpt>
      <trkpt lat="43.25986333" lon="-4.26442667">
        <ele>189.0</ele>
        <time>2018-05-19T09:45:43.867Z</time>
      </trkpt>
      <trkpt lat="43.25986333" lon="-4.26442667">
        <ele>189.0</ele>
        <time>2018-05-19T09:45:44.868Z</time>
      </trkpt>
      <trkpt lat="43.25989333" lon="-4.26427833">
        <ele>190.0</ele>
        <time>2018-05-19T09:45:45.846Z</time>
      </trkpt>
      <trkpt lat="43.25990667" lon="-4.26420167">
        <ele>190.0</ele>
        <time>2018-05-19T09:45:46.877Z</time>
      </trkpt>
      <trkpt lat="43.25992167" lon="-4.26411667">
        <ele>189.0</ele>
        <time>2018-05-19T09:45:47.884Z</time>
      </trkpt>
      <trkpt lat="43.25992167" lon="-4.26411667">
        <ele>189.0</ele>
        <time>2018-05-19T09:45:48.850Z</time>
      </trkpt>
      <trkpt lat="43.25995167" lon="-4.26395">
        <ele>189.0</ele>
        <time>2018-05-19T09:45:49.878Z</time>
      </trkpt>
      <trkpt lat="43.25995167" lon="-4.26395">
        <ele>189.0</ele>
        <time>2018-05-19T09:45:50.844Z</time>
      </trkpt>
      <trkpt lat="43.25997833" lon="-4.26377667">
        <ele>189.0</ele>
        <time>2018-05-19T09:45:51.874Z</time>
      </trkpt>
      <trkpt lat="43.25997833" lon="-4.26377667">
        <ele>189.0</ele>
        <time>2018-05-19T09:45:52.872Z</time>
      </trkpt>
      <trkpt lat="43.26001" lon="-4.26360167">
        <ele>189.0</ele>
        <time>2018-05-19T09:45:53.866Z</time>
      </trkpt>
      <trkpt lat="43.26002833" lon="-4.26351333">
        <ele>189.0</ele>
        <time>2018-05-19T09:45:54.874Z</time>
      </trkpt>
      <trkpt lat="43.26002833" lon="-4.26351333">
        <ele>189.0</ele>
        <time>2018-05-19T09:45:55.873Z</time>
      </trkpt>
      <trkpt lat="43.26006" lon="-4.263345">
        <ele>189.0</ele>
        <time>2018-05-19T09:45:56.873Z</time>
      </trkpt>
      <trkpt lat="43.260075" lon="-4.26326667">
        <ele>189.0</ele>
        <time>2018-05-19T09:45:57.871Z</time>
      </trkpt>
      <trkpt lat="43.260075" lon="-4.26326667">
        <ele>189.0</ele>
        <time>2018-05-19T09:45:58.870Z</time>
      </trkpt>
      <trkpt lat="43.26009833" lon="-4.26312">
        <ele>190.0</ele>
        <time>2018-05-19T09:45:59.874Z</time>
      </trkpt>
      <trkpt lat="43.26009833" lon="-4.26312">
        <ele>190.0</ele>
        <time>2018-05-19T09:46:00.844Z</time>
      </trkpt>
      <trkpt lat="43.26011833" lon="-4.26299">
        <ele>191.0</ele>
        <time>2018-05-19T09:46:01.881Z</time>
      </trkpt>
      <trkpt lat="43.26011833" lon="-4.26299">
        <ele>191.0</ele>
        <time>2018-05-19T09:46:02.868Z</time>
      </trkpt>
      <trkpt lat="43.26013667" lon="-4.26286333">
        <ele>192.0</ele>
        <time>2018-05-19T09:46:03.866Z</time>
      </trkpt>
      <trkpt lat="43.26014" lon="-4.26279333">
        <ele>192.0</ele>
        <time>2018-05-19T09:46:04.850Z</time>
      </trkpt>
      <trkpt lat="43.26014" lon="-4.26279333">
        <ele>192.0</ele>
        <time>2018-05-19T09:46:05.875Z</time>
      </trkpt>
      <trkpt lat="43.260135" lon="-4.26265">
        <ele>192.0</ele>
        <time>2018-05-19T09:46:06.875Z</time>
      </trkpt>
      <trkpt lat="43.260135" lon="-4.26265">
        <ele>192.0</ele>
        <time>2018-05-19T09:46:07.869Z</time>
      </trkpt>
      <trkpt lat="43.26011833" lon="-4.26250333">
        <ele>192.0</ele>
        <time>2018-05-19T09:46:08.849Z</time>
      </trkpt>
      <trkpt lat="43.26011833" lon="-4.26250333">
        <ele>192.0</ele>
        <time>2018-05-19T09:46:09.873Z</time>
      </trkpt>
      <trkpt lat="43.2601" lon="-4.262355">
        <ele>192.0</ele>
        <time>2018-05-19T09:46:10.874Z</time>
      </trkpt>
      <trkpt lat="43.2601" lon="-4.262355">
        <ele>192.0</ele>
        <time>2018-05-19T09:46:11.846Z</time>
      </trkpt>
      <trkpt lat="43.26009" lon="-4.262195">
        <ele>191.0</ele>
        <time>2018-05-19T09:46:12.874Z</time>
      </trkpt>
      <trkpt lat="43.26009" lon="-4.262195">
        <ele>191.0</ele>
        <time>2018-05-19T09:46:13.870Z</time>
      </trkpt>
      <trkpt lat="43.2601" lon="-4.26201833">
        <ele>191.0</ele>
        <time>2018-05-19T09:46:14.874Z</time>
      </trkpt>
      <trkpt lat="43.2601" lon="-4.26201833">
        <ele>191.0</ele>
        <time>2018-05-19T09:46:15.871Z</time>
      </trkpt>
      <trkpt lat="43.260135" lon="-4.26183333">
        <ele>191.0</ele>
        <time>2018-05-19T09:46:16.873Z</time>
      </trkpt>
      <trkpt lat="43.260135" lon="-4.26183333">
        <ele>191.0</ele>
        <time>2018-05-19T09:46:17.875Z</time>
      </trkpt>
      <trkpt lat="43.26015" lon="-4.26164833">
        <ele>191.0</ele>
        <time>2018-05-19T09:46:18.875Z</time>
      </trkpt>
      <trkpt lat="43.26015" lon="-4.26164833">
        <ele>191.0</ele>
        <time>2018-05-19T09:46:19.872Z</time>
      </trkpt>
      <trkpt lat="43.26013667" lon="-4.26147">
        <ele>190.0</ele>
        <time>2018-05-19T09:46:20.876Z</time>
      </trkpt>
      <trkpt lat="43.26013667" lon="-4.26147">
        <ele>190.0</ele>
        <time>2018-05-19T09:46:21.866Z</time>
      </trkpt>
      <trkpt lat="43.260115" lon="-4.26129333">
        <ele>190.0</ele>
        <time>2018-05-19T09:46:22.849Z</time>
      </trkpt>
      <trkpt lat="43.260115" lon="-4.26129333">
        <ele>190.0</ele>
        <time>2018-05-19T09:46:23.845Z</time>
      </trkpt>
      <trkpt lat="43.26007167" lon="-4.26112333">
        <ele>191.0</ele>
        <time>2018-05-19T09:46:24.871Z</time>
      </trkpt>
      <trkpt lat="43.26007167" lon="-4.26112333">
        <ele>191.0</ele>
        <time>2018-05-19T09:46:25.868Z</time>
      </trkpt>
      <trkpt lat="43.26003" lon="-4.260955">
        <ele>190.0</ele>
        <time>2018-05-19T09:46:26.874Z</time>
      </trkpt>
      <trkpt lat="43.26003" lon="-4.260955">
        <ele>190.0</ele>
        <time>2018-05-19T09:46:27.871Z</time>
      </trkpt>
      <trkpt lat="43.25998833" lon="-4.26078333">
        <ele>190.0</ele>
        <time>2018-05-19T09:46:28.872Z</time>
      </trkpt>
      <trkpt lat="43.25998833" lon="-4.26078333">
        <ele>190.0</ele>
        <time>2018-05-19T09:46:29.869Z</time>
      </trkpt>
      <trkpt lat="43.25995" lon="-4.26061833">
        <ele>190.0</ele>
        <time>2018-05-19T09:46:30.874Z</time>
      </trkpt>
      <trkpt lat="43.259935" lon="-4.260535">
        <ele>190.0</ele>
        <time>2018-05-19T09:46:31.875Z</time>
      </trkpt>
      <trkpt lat="43.259935" lon="-4.260535">
        <ele>190.0</ele>
        <time>2018-05-19T09:46:32.872Z</time>
      </trkpt>
      <trkpt lat="43.259905" lon="-4.26037167">
        <ele>190.0</ele>
        <time>2018-05-19T09:46:33.875Z</time>
      </trkpt>
      <trkpt lat="43.25989333" lon="-4.260285">
        <ele>190.0</ele>
        <time>2018-05-19T09:46:34.874Z</time>
      </trkpt>
      <trkpt lat="43.25989333" lon="-4.260285">
        <ele>190.0</ele>
        <time>2018-05-19T09:46:35.871Z</time>
      </trkpt>
      <trkpt lat="43.25987667" lon="-4.260105">
        <ele>190.0</ele>
        <time>2018-05-19T09:46:36.870Z</time>
      </trkpt>
      <trkpt lat="43.25987333" lon="-4.260015">
        <ele>190.0</ele>
        <time>2018-05-19T09:46:37.874Z</time>
      </trkpt>
      <trkpt lat="43.25987333" lon="-4.260015">
        <ele>190.0</ele>
        <time>2018-05-19T09:46:38.872Z</time>
      </trkpt>
      <trkpt lat="43.25986833" lon="-4.25984333">
        <ele>190.0</ele>
        <time>2018-05-19T09:46:39.881Z</time>
      </trkpt>
      <trkpt lat="43.25986833" lon="-4.25984333">
        <ele>190.0</ele>
        <time>2018-05-19T09:46:40.869Z</time>
      </trkpt>
      <trkpt lat="43.259885" lon="-4.259675">
        <ele>190.0</ele>
        <time>2018-05-19T09:46:41.876Z</time>
      </trkpt>
      <trkpt lat="43.259885" lon="-4.259675">
        <ele>190.0</ele>
        <time>2018-05-19T09:46:42.855Z</time>
      </trkpt>
      <trkpt lat="43.25993333" lon="-4.25950833">
        <ele>190.0</ele>
        <time>2018-05-19T09:46:43.882Z</time>
      </trkpt>
      <trkpt lat="43.25996167" lon="-4.259425">
        <ele>190.0</ele>
        <time>2018-05-19T09:46:44.874Z</time>
      </trkpt>
      <trkpt lat="43.25996167" lon="-4.259425">
        <ele>190.0</ele>
        <time>2018-05-19T09:46:45.856Z</time>
      </trkpt>
      <trkpt lat="43.26001" lon="-4.259255">
        <ele>190.0</ele>
        <time>2018-05-19T09:46:46.852Z</time>
      </trkpt>
      <trkpt lat="43.26001" lon="-4.259255">
        <ele>190.0</ele>
        <time>2018-05-19T09:46:47.859Z</time>
      </trkpt>
      <trkpt lat="43.26004333" lon="-4.25908167">
        <ele>190.0</ele>
        <time>2018-05-19T09:46:48.873Z</time>
      </trkpt>
      <trkpt lat="43.26004333" lon="-4.25908167">
        <ele>190.0</ele>
        <time>2018-05-19T09:46:49.870Z</time>
      </trkpt>
      <trkpt lat="43.26006167" lon="-4.258905">
        <ele>190.0</ele>
        <time>2018-05-19T09:46:50.874Z</time>
      </trkpt>
      <trkpt lat="43.26006167" lon="-4.258905">
        <ele>190.0</ele>
        <time>2018-05-19T09:46:51.866Z</time>
      </trkpt>
      <trkpt lat="43.26006167" lon="-4.258735">
        <ele>190.0</ele>
        <time>2018-05-19T09:46:52.874Z</time>
      </trkpt>
      <trkpt lat="43.26006167" lon="-4.258735">
        <ele>190.0</ele>
        <time>2018-05-19T09:46:53.873Z</time>
      </trkpt>
      <trkpt lat="43.26004333" lon="-4.258575">
        <ele>191.0</ele>
        <time>2018-05-19T09:46:54.874Z</time>
      </trkpt>
      <trkpt lat="43.26002667" lon="-4.25849833">
        <ele>191.0</ele>
        <time>2018-05-19T09:46:55.874Z</time>
      </trkpt>
      <trkpt lat="43.26002667" lon="-4.25849833">
        <ele>191.0</ele>
        <time>2018-05-19T09:46:56.871Z</time>
      </trkpt>
      <trkpt lat="43.25998833" lon="-4.25834667">
        <ele>191.0</ele>
        <time>2018-05-19T09:46:57.874Z</time>
      </trkpt>
      <trkpt lat="43.259965" lon="-4.25827333">
        <ele>191.0</ele>
        <time>2018-05-19T09:46:58.875Z</time>
      </trkpt>
      <trkpt lat="43.259965" lon="-4.25827333">
        <ele>191.0</ele>
        <time>2018-05-19T09:46:59.872Z</time>
      </trkpt>
      <trkpt lat="43.25991833" lon="-4.25814">
        <ele>192.0</ele>
        <time>2018-05-19T09:47:00.872Z</time>
      </trkpt>
      <trkpt lat="43.259895" lon="-4.258065">
        <ele>191.0</ele>
        <time>2018-05-19T09:47:01.873Z</time>
      </trkpt>
      <trkpt lat="43.25987" lon="-4.257985">
        <ele>191.0</ele>
        <time>2018-05-19T09:47:02.872Z</time>
      </trkpt>
      <trkpt lat="43.25987" lon="-4.257985">
        <ele>191.0</ele>
        <time>2018-05-19T09:47:03.865Z</time>
      </trkpt>
      <trkpt lat="43.25982833" lon="-4.25781667">
        <ele>191.0</ele>
        <time>2018-05-19T09:47:04.850Z</time>
      </trkpt>
      <trkpt lat="43.25981" lon="-4.25773167">
        <ele>191.0</ele>
        <time>2018-05-19T09:47:05.875Z</time>
      </trkpt>
      <trkpt lat="43.25981" lon="-4.25773167">
        <ele>191.0</ele>
        <time>2018-05-19T09:47:06.871Z</time>
      </trkpt>
      <trkpt lat="43.25978167" lon="-4.257575">
        <ele>191.0</ele>
        <time>2018-05-19T09:47:07.873Z</time>
      </trkpt>
      <trkpt lat="43.25976833" lon="-4.257495">
        <ele>191.0</ele>
        <time>2018-05-19T09:47:08.876Z</time>
      </trkpt>
      <trkpt lat="43.25976833" lon="-4.257495">
        <ele>191.0</ele>
        <time>2018-05-19T09:47:09.872Z</time>
      </trkpt>
      <trkpt lat="43.25974167" lon="-4.257335">
        <ele>191.0</ele>
        <time>2018-05-19T09:47:10.847Z</time>
      </trkpt>
      <trkpt lat="43.25974167" lon="-4.257335">
        <ele>191.0</ele>
        <time>2018-05-19T09:47:11.872Z</time>
      </trkpt>
      <trkpt lat="43.25971667" lon="-4.25717167">
        <ele>191.0</ele>
        <time>2018-05-19T09:47:12.874Z</time>
      </trkpt>
      <trkpt lat="43.25971667" lon="-4.25717167">
        <ele>191.0</ele>
        <time>2018-05-19T09:47:13.864Z</time>
      </trkpt>
      <trkpt lat="43.25969333" lon="-4.25701167">
        <ele>191.0</ele>
        <time>2018-05-19T09:47:14.847Z</time>
      </trkpt>
      <trkpt lat="43.25969333" lon="-4.25701167">
        <ele>191.0</ele>
        <time>2018-05-19T09:47:15.870Z</time>
      </trkpt>
      <trkpt lat="43.25969" lon="-4.25685833">
        <ele>191.0</ele>
        <time>2018-05-19T09:47:16.846Z</time>
      </trkpt>
      <trkpt lat="43.25970167" lon="-4.25678667">
        <ele>191.0</ele>
        <time>2018-05-19T09:47:17.874Z</time>
      </trkpt>
      <trkpt lat="43.25970167" lon="-4.25678667">
        <ele>191.0</ele>
        <time>2018-05-19T09:47:18.872Z</time>
      </trkpt>
      <trkpt lat="43.25975167" lon="-4.25664833">
        <ele>192.0</ele>
        <time>2018-05-19T09:47:19.873Z</time>
      </trkpt>
      <trkpt lat="43.25975167" lon="-4.25664833">
        <ele>192.0</ele>
        <time>2018-05-19T09:47:20.870Z</time>
      </trkpt>
      <trkpt lat="43.25982" lon="-4.25655333">
        <ele>192.0</ele>
        <time>2018-05-19T09:47:21.862Z</time>
      </trkpt>
      <trkpt lat="43.25986833" lon="-4.25652333">
        <ele>192.0</ele>
        <time>2018-05-19T09:47:22.847Z</time>
      </trkpt>
      <trkpt lat="43.25986833" lon="-4.25652333">
        <ele>192.0</ele>
        <time>2018-05-19T09:47:23.872Z</time>
      </trkpt>
      <trkpt lat="43.25997167" lon="-4.25648833">
        <ele>192.0</ele>
        <time>2018-05-19T09:47:24.874Z</time>
      </trkpt>
      <trkpt lat="43.25997167" lon="-4.25648833">
        <ele>192.0</ele>
        <time>2018-05-19T09:47:25.869Z</time>
      </trkpt>
      <trkpt lat="43.26006333" lon="-4.25647167">
        <ele>192.0</ele>
        <time>2018-05-19T09:47:26.874Z</time>
      </trkpt>
      <trkpt lat="43.26006333" lon="-4.25647167">
        <ele>192.0</ele>
        <time>2018-05-19T09:47:27.872Z</time>
      </trkpt>
      <trkpt lat="43.26015833" lon="-4.25645333">
        <ele>193.0</ele>
        <time>2018-05-19T09:47:28.874Z</time>
      </trkpt>
      <trkpt lat="43.26015833" lon="-4.25645333">
        <ele>193.0</ele>
        <time>2018-05-19T09:47:29.876Z</time>
      </trkpt>
      <trkpt lat="43.26025167" lon="-4.25641167">
        <ele>192.0</ele>
        <time>2018-05-19T09:47:30.874Z</time>
      </trkpt>
      <trkpt lat="43.26025167" lon="-4.25641167">
        <ele>192.0</ele>
        <time>2018-05-19T09:47:31.871Z</time>
      </trkpt>
      <trkpt lat="43.26033833" lon="-4.25635667">
        <ele>193.0</ele>
        <time>2018-05-19T09:47:32.873Z</time>
      </trkpt>
      <trkpt lat="43.26033833" lon="-4.25635667">
        <ele>193.0</ele>
        <time>2018-05-19T09:47:33.864Z</time>
      </trkpt>
      <trkpt lat="43.26041" lon="-4.25628833">
        <ele>193.0</ele>
        <time>2018-05-19T09:47:34.847Z</time>
      </trkpt>
      <trkpt lat="43.26044" lon="-4.256245">
        <ele>193.0</ele>
        <time>2018-05-19T09:47:35.873Z</time>
      </trkpt>
      <trkpt lat="43.26044" lon="-4.256245">
        <ele>193.0</ele>
        <time>2018-05-19T09:47:36.869Z</time>
      </trkpt>
      <trkpt lat="43.26048833" lon="-4.25615">
        <ele>194.0</ele>
        <time>2018-05-19T09:47:37.873Z</time>
      </trkpt>
      <trkpt lat="43.26048833" lon="-4.25615">
        <ele>194.0</ele>
        <time>2018-05-19T09:47:38.869Z</time>
      </trkpt>
      <trkpt lat="43.26051" lon="-4.25604667">
        <ele>195.0</ele>
        <time>2018-05-19T09:47:39.873Z</time>
      </trkpt>
      <trkpt lat="43.26051" lon="-4.25604667">
        <ele>195.0</ele>
        <time>2018-05-19T09:47:40.862Z</time>
      </trkpt>
      <trkpt lat="43.260515" lon="-4.25595">
        <ele>196.0</ele>
        <time>2018-05-19T09:47:41.848Z</time>
      </trkpt>
      <trkpt lat="43.26052" lon="-4.25590667">
        <ele>196.0</ele>
        <time>2018-05-19T09:47:42.873Z</time>
      </trkpt>
      <trkpt lat="43.26052" lon="-4.25590667">
        <ele>196.0</ele>
        <time>2018-05-19T09:47:43.864Z</time>
      </trkpt>
      <trkpt lat="43.26051833" lon="-4.25582167">
        <ele>197.0</ele>
        <time>2018-05-19T09:47:44.872Z</time>
      </trkpt>
      <trkpt lat="43.26051833" lon="-4.25582167">
        <ele>197.0</ele>
        <time>2018-05-19T09:47:45.876Z</time>
      </trkpt>
      <trkpt lat="43.26049667" lon="-4.25574">
        <ele>199.0</ele>
        <time>2018-05-19T09:47:46.872Z</time>
      </trkpt>
      <trkpt lat="43.26049667" lon="-4.25574">
        <ele>199.0</ele>
        <time>2018-05-19T09:47:47.880Z</time>
      </trkpt>
      <trkpt lat="43.260485" lon="-4.25567">
        <ele>200.0</ele>
        <time>2018-05-19T09:47:48.846Z</time>
      </trkpt>
      <trkpt lat="43.260485" lon="-4.255645">
        <ele>201.0</ele>
        <time>2018-05-19T09:47:49.873Z</time>
      </trkpt>
      <trkpt lat="43.26048833" lon="-4.25559333">
        <ele>201.0</ele>
        <time>2018-05-19T09:47:50.874Z</time>
      </trkpt>
      <trkpt lat="43.26048833" lon="-4.25559333">
        <ele>201.0</ele>
        <time>2018-05-19T09:47:51.877Z</time>
      </trkpt>
      <trkpt lat="43.26052333" lon="-4.25549667">
        <ele>203.0</ele>
        <time>2018-05-19T09:47:52.875Z</time>
      </trkpt>
      <trkpt lat="43.26052333" lon="-4.25549667">
        <ele>203.0</ele>
        <time>2018-05-19T09:47:53.872Z</time>
      </trkpt>
      <trkpt lat="43.260545" lon="-4.25540333">
        <ele>204.0</ele>
        <time>2018-05-19T09:47:54.875Z</time>
      </trkpt>
      <trkpt lat="43.26055333" lon="-4.25535333">
        <ele>204.0</ele>
        <time>2018-05-19T09:47:55.879Z</time>
      </trkpt>
      <trkpt lat="43.26055333" lon="-4.25535333">
        <ele>204.0</ele>
        <time>2018-05-19T09:47:56.871Z</time>
      </trkpt>
      <trkpt lat="43.26056667" lon="-4.25526333">
        <ele>205.0</ele>
        <time>2018-05-19T09:47:57.872Z</time>
      </trkpt>
      <trkpt lat="43.26057667" lon="-4.25522">
        <ele>205.0</ele>
        <time>2018-05-19T09:47:58.876Z</time>
      </trkpt>
      <trkpt lat="43.26057667" lon="-4.25522">
        <ele>205.0</ele>
        <time>2018-05-19T09:47:59.871Z</time>
      </trkpt>
      <trkpt lat="43.2606" lon="-4.25513833">
        <ele>206.0</ele>
        <time>2018-05-19T09:48:00.873Z</time>
      </trkpt>
      <trkpt lat="43.2606" lon="-4.25513833">
        <ele>206.0</ele>
        <time>2018-05-19T09:48:01.872Z</time>
      </trkpt>
      <trkpt lat="43.26062" lon="-4.25505">
        <ele>207.0</ele>
        <time>2018-05-19T09:48:02.848Z</time>
      </trkpt>
      <trkpt lat="43.26062" lon="-4.25505">
        <ele>207.0</ele>
        <time>2018-05-19T09:48:03.874Z</time>
      </trkpt>
      <trkpt lat="43.26064667" lon="-4.25496167">
        <ele>208.0</ele>
        <time>2018-05-19T09:48:04.874Z</time>
      </trkpt>
      <trkpt lat="43.26064667" lon="-4.25496167">
        <ele>208.0</ele>
        <time>2018-05-19T09:48:05.872Z</time>
      </trkpt>
      <trkpt lat="43.26067667" lon="-4.25486833">
        <ele>210.0</ele>
        <time>2018-05-19T09:48:06.873Z</time>
      </trkpt>
      <trkpt lat="43.26067667" lon="-4.25486833">
        <ele>210.0</ele>
        <time>2018-05-19T09:48:07.870Z</time>
      </trkpt>
      <trkpt lat="43.26070333" lon="-4.254785">
        <ele>211.0</ele>
        <time>2018-05-19T09:48:08.873Z</time>
      </trkpt>
      <trkpt lat="43.26070333" lon="-4.254785">
        <ele>211.0</ele>
        <time>2018-05-19T09:48:09.871Z</time>
      </trkpt>
      <trkpt lat="43.260735" lon="-4.25471333">
        <ele>212.0</ele>
        <time>2018-05-19T09:48:10.876Z</time>
      </trkpt>
      <trkpt lat="43.26074833" lon="-4.25468333">
        <ele>213.0</ele>
        <time>2018-05-19T09:48:11.859Z</time>
      </trkpt>
      <trkpt lat="43.26074833" lon="-4.25468333">
        <ele>213.0</ele>
        <time>2018-05-19T09:48:12.865Z</time>
      </trkpt>
      <trkpt lat="43.26076333" lon="-4.25463833">
        <ele>214.0</ele>
        <time>2018-05-19T09:48:13.870Z</time>
      </trkpt>
      <trkpt lat="43.26076667" lon="-4.25461667">
        <ele>215.0</ele>
        <time>2018-05-19T09:48:14.878Z</time>
      </trkpt>
      <trkpt lat="43.26076667" lon="-4.25461667">
        <ele>215.0</ele>
        <time>2018-05-19T09:48:15.883Z</time>
      </trkpt>
      <trkpt lat="43.26079667" lon="-4.25457">
        <ele>216.0</ele>
        <time>2018-05-19T09:48:16.849Z</time>
      </trkpt>
      <trkpt lat="43.26079667" lon="-4.25457">
        <ele>216.0</ele>
        <time>2018-05-19T09:48:17.873Z</time>
      </trkpt>
      <trkpt lat="43.26082667" lon="-4.25453167">
        <ele>217.0</ele>
        <time>2018-05-19T09:48:18.873Z</time>
      </trkpt>
      <trkpt lat="43.26082667" lon="-4.25453167">
        <ele>217.0</ele>
        <time>2018-05-19T09:48:19.868Z</time>
      </trkpt>
      <trkpt lat="43.26087833" lon="-4.25447167">
        <ele>218.0</ele>
        <time>2018-05-19T09:48:20.873Z</time>
      </trkpt>
      <trkpt lat="43.26087833" lon="-4.25447167">
        <ele>218.0</ele>
        <time>2018-05-19T09:48:21.874Z</time>
      </trkpt>
      <trkpt lat="43.26092667" lon="-4.25440833">
        <ele>219.0</ele>
        <time>2018-05-19T09:48:22.883Z</time>
      </trkpt>
      <trkpt lat="43.26092667" lon="-4.25440833">
        <ele>219.0</ele>
        <time>2018-05-19T09:48:23.876Z</time>
      </trkpt>
      <trkpt lat="43.26096667" lon="-4.25435833">
        <ele>219.0</ele>
        <time>2018-05-19T09:48:24.873Z</time>
      </trkpt>
      <trkpt lat="43.26096667" lon="-4.25435833">
        <ele>219.0</ele>
        <time>2018-05-19T09:48:25.872Z</time>
      </trkpt>
      <trkpt lat="43.261015" lon="-4.25430167">
        <ele>220.0</ele>
        <time>2018-05-19T09:48:26.873Z</time>
      </trkpt>
      <trkpt lat="43.26103667" lon="-4.25427">
        <ele>221.0</ele>
        <time>2018-05-19T09:48:27.874Z</time>
      </trkpt>
      <trkpt lat="43.26103667" lon="-4.25427">
        <ele>221.0</ele>
        <time>2018-05-19T09:48:28.868Z</time>
      </trkpt>
      <trkpt lat="43.26107833" lon="-4.25420833">
        <ele>221.0</ele>
        <time>2018-05-19T09:48:29.874Z</time>
      </trkpt>
      <trkpt lat="43.26109333" lon="-4.25418667">
        <ele>222.0</ele>
        <time>2018-05-19T09:48:30.875Z</time>
      </trkpt>
      <trkpt lat="43.26109333" lon="-4.25418667">
        <ele>222.0</ele>
        <time>2018-05-19T09:48:31.872Z</time>
      </trkpt>
      <trkpt lat="43.26113333" lon="-4.25413167">
        <ele>222.0</ele>
        <time>2018-05-19T09:48:32.870Z</time>
      </trkpt>
      <trkpt lat="43.26113333" lon="-4.25413167">
        <ele>222.0</ele>
        <time>2018-05-19T09:48:33.864Z</time>
      </trkpt>
      <trkpt lat="43.26117667" lon="-4.25407667">
        <ele>222.0</ele>
        <time>2018-05-19T09:48:34.854Z</time>
      </trkpt>
      <trkpt lat="43.26117667" lon="-4.25407667">
        <ele>222.0</ele>
        <time>2018-05-19T09:48:35.877Z</time>
      </trkpt>
      <trkpt lat="43.26121833" lon="-4.25402167">
        <ele>221.0</ele>
        <time>2018-05-19T09:48:36.873Z</time>
      </trkpt>
      <trkpt lat="43.26121833" lon="-4.25402167">
        <ele>221.0</ele>
        <time>2018-05-19T09:48:37.868Z</time>
      </trkpt>
      <trkpt lat="43.261265" lon="-4.25396667">
        <ele>221.0</ele>
        <time>2018-05-19T09:48:38.874Z</time>
      </trkpt>
      <trkpt lat="43.261265" lon="-4.25396667">
        <ele>221.0</ele>
        <time>2018-05-19T09:48:39.873Z</time>
      </trkpt>
      <trkpt lat="43.26130333" lon="-4.2539">
        <ele>221.0</ele>
        <time>2018-05-19T09:48:40.867Z</time>
      </trkpt>
      <trkpt lat="43.26130333" lon="-4.2539">
        <ele>221.0</ele>
        <time>2018-05-19T09:48:41.870Z</time>
      </trkpt>
      <trkpt lat="43.261325" lon="-4.25383167">
        <ele>221.0</ele>
        <time>2018-05-19T09:48:42.873Z</time>
      </trkpt>
      <trkpt lat="43.261325" lon="-4.25383167">
        <ele>221.0</ele>
        <time>2018-05-19T09:48:43.864Z</time>
      </trkpt>
      <trkpt lat="43.261355" lon="-4.25375167">
        <ele>220.0</ele>
        <time>2018-05-19T09:48:44.847Z</time>
      </trkpt>
      <trkpt lat="43.261355" lon="-4.25375167">
        <ele>220.0</ele>
        <time>2018-05-19T09:48:45.877Z</time>
      </trkpt>
      <trkpt lat="43.26138167" lon="-4.25366333">
        <ele>219.0</ele>
        <time>2018-05-19T09:48:46.850Z</time>
      </trkpt>
      <trkpt lat="43.26138167" lon="-4.25366333">
        <ele>219.0</ele>
        <time>2018-05-19T09:48:47.861Z</time>
      </trkpt>
      <trkpt lat="43.26141667" lon="-4.25358333">
        <ele>218.0</ele>
        <time>2018-05-19T09:48:48.867Z</time>
      </trkpt>
      <trkpt lat="43.261425" lon="-4.25354167">
        <ele>218.0</ele>
        <time>2018-05-19T09:48:49.874Z</time>
      </trkpt>
      <trkpt lat="43.261425" lon="-4.25354167">
        <ele>218.0</ele>
        <time>2018-05-19T09:48:50.872Z</time>
      </trkpt>
      <trkpt lat="43.26143333" lon="-4.25345833">
        <ele>217.0</ele>
        <time>2018-05-19T09:48:51.848Z</time>
      </trkpt>
      <trkpt lat="43.26145333" lon="-4.25341">
        <ele>217.0</ele>
        <time>2018-05-19T09:48:52.875Z</time>
      </trkpt>
      <trkpt lat="43.26145333" lon="-4.25341">
        <ele>217.0</ele>
        <time>2018-05-19T09:48:53.864Z</time>
      </trkpt>
      <trkpt lat="43.26147" lon="-4.25330333">
        <ele>216.0</ele>
        <time>2018-05-19T09:48:54.847Z</time>
      </trkpt>
      <trkpt lat="43.26147" lon="-4.25330333">
        <ele>216.0</ele>
        <time>2018-05-19T09:48:55.872Z</time>
      </trkpt>
      <trkpt lat="43.26147667" lon="-4.253205">
        <ele>215.0</ele>
        <time>2018-05-19T09:48:56.873Z</time>
      </trkpt>
      <trkpt lat="43.26147667" lon="-4.253205">
        <ele>215.0</ele>
        <time>2018-05-19T09:48:57.868Z</time>
      </trkpt>
      <trkpt lat="43.261475" lon="-4.25308">
        <ele>215.0</ele>
        <time>2018-05-19T09:48:58.879Z</time>
      </trkpt>
      <trkpt lat="43.26147167" lon="-4.25300833">
        <ele>214.0</ele>
        <time>2018-05-19T09:48:59.873Z</time>
      </trkpt>
      <trkpt lat="43.26147167" lon="-4.25300833">
        <ele>214.0</ele>
        <time>2018-05-19T09:49:00.871Z</time>
      </trkpt>
      <trkpt lat="43.26147167" lon="-4.25287167">
        <ele>214.0</ele>
        <time>2018-05-19T09:49:01.871Z</time>
      </trkpt>
      <trkpt lat="43.26147167" lon="-4.2528">
        <ele>214.0</ele>
        <time>2018-05-19T09:49:02.881Z</time>
      </trkpt>
      <trkpt lat="43.26147167" lon="-4.2528">
        <ele>214.0</ele>
        <time>2018-05-19T09:49:03.884Z</time>
      </trkpt>
      <trkpt lat="43.26147167" lon="-4.252655">
        <ele>213.0</ele>
        <time>2018-05-19T09:49:04.873Z</time>
      </trkpt>
      <trkpt lat="43.26147167" lon="-4.252655">
        <ele>213.0</ele>
        <time>2018-05-19T09:49:05.871Z</time>
      </trkpt>
      <trkpt lat="43.26145833" lon="-4.25250333">
        <ele>213.0</ele>
        <time>2018-05-19T09:49:06.874Z</time>
      </trkpt>
      <trkpt lat="43.26145833" lon="-4.25250333">
        <ele>213.0</ele>
        <time>2018-05-19T09:49:07.870Z</time>
      </trkpt>
      <trkpt lat="43.261455" lon="-4.252355">
        <ele>213.0</ele>
        <time>2018-05-19T09:49:08.872Z</time>
      </trkpt>
      <trkpt lat="43.261455" lon="-4.252355">
        <ele>213.0</ele>
        <time>2018-05-19T09:49:09.871Z</time>
      </trkpt>
      <trkpt lat="43.26146167" lon="-4.25220167">
        <ele>213.0</ele>
        <time>2018-05-19T09:49:10.874Z</time>
      </trkpt>
      <trkpt lat="43.26146167" lon="-4.25220167">
        <ele>213.0</ele>
        <time>2018-05-19T09:49:11.870Z</time>
      </trkpt>
      <trkpt lat="43.26148667" lon="-4.25205167">
        <ele>213.0</ele>
        <time>2018-05-19T09:49:12.875Z</time>
      </trkpt>
      <trkpt lat="43.26148667" lon="-4.25205167">
        <ele>213.0</ele>
        <time>2018-05-19T09:49:13.864Z</time>
      </trkpt>
      <trkpt lat="43.26153333" lon="-4.25192">
        <ele>213.0</ele>
        <time>2018-05-19T09:49:14.873Z</time>
      </trkpt>
      <trkpt lat="43.26153333" lon="-4.25192">
        <ele>213.0</ele>
        <time>2018-05-19T09:49:15.868Z</time>
      </trkpt>
      <trkpt lat="43.26159833" lon="-4.251815">
        <ele>213.0</ele>
        <time>2018-05-19T09:49:16.873Z</time>
      </trkpt>
      <trkpt lat="43.26159833" lon="-4.251815">
        <ele>213.0</ele>
        <time>2018-05-19T09:49:17.870Z</time>
      </trkpt>
      <trkpt lat="43.261675" lon="-4.25172833">
        <ele>213.0</ele>
        <time>2018-05-19T09:49:18.873Z</time>
      </trkpt>
      <trkpt lat="43.261675" lon="-4.25172833">
        <ele>213.0</ele>
        <time>2018-05-19T09:49:19.868Z</time>
      </trkpt>
      <trkpt lat="43.26175667" lon="-4.25166667">
        <ele>213.0</ele>
        <time>2018-05-19T09:49:20.871Z</time>
      </trkpt>
      <trkpt lat="43.26180667" lon="-4.25163167">
        <ele>213.0</ele>
        <time>2018-05-19T09:49:21.873Z</time>
      </trkpt>
      <trkpt lat="43.261855" lon="-4.25159167">
        <ele>213.0</ele>
        <time>2018-05-19T09:49:22.874Z</time>
      </trkpt>
      <trkpt lat="43.261855" lon="-4.25159167">
        <ele>213.0</ele>
        <time>2018-05-19T09:49:23.866Z</time>
      </trkpt>
      <trkpt lat="43.26195167" lon="-4.25149167">
        <ele>212.0</ele>
        <time>2018-05-19T09:49:24.873Z</time>
      </trkpt>
      <trkpt lat="43.26199" lon="-4.25143167">
        <ele>212.0</ele>
        <time>2018-05-19T09:49:25.875Z</time>
      </trkpt>
      <trkpt lat="43.26199" lon="-4.25143167">
        <ele>212.0</ele>
        <time>2018-05-19T09:49:26.879Z</time>
      </trkpt>
      <trkpt lat="43.26204833" lon="-4.251285">
        <ele>212.0</ele>
        <time>2018-05-19T09:49:27.872Z</time>
      </trkpt>
      <trkpt lat="43.26204833" lon="-4.251285">
        <ele>212.0</ele>
        <time>2018-05-19T09:49:28.870Z</time>
      </trkpt>
      <trkpt lat="43.262095" lon="-4.25113333">
        <ele>212.0</ele>
        <time>2018-05-19T09:49:29.854Z</time>
      </trkpt>
      <trkpt lat="43.262095" lon="-4.25113333">
        <ele>212.0</ele>
        <time>2018-05-19T09:49:30.878Z</time>
      </trkpt>
      <trkpt lat="43.262145" lon="-4.25097833">
        <ele>211.0</ele>
        <time>2018-05-19T09:49:31.872Z</time>
      </trkpt>
      <trkpt lat="43.262175" lon="-4.25089667">
        <ele>211.0</ele>
        <time>2018-05-19T09:49:32.878Z</time>
      </trkpt>
      <trkpt lat="43.262175" lon="-4.25089667">
        <ele>211.0</ele>
        <time>2018-05-19T09:49:33.863Z</time>
      </trkpt>
      <trkpt lat="43.26225" lon="-4.25075">
        <ele>210.0</ele>
        <time>2018-05-19T09:49:34.850Z</time>
      </trkpt>
      <trkpt lat="43.26225" lon="-4.25075">
        <ele>210.0</ele>
        <time>2018-05-19T09:49:35.875Z</time>
      </trkpt>
      <trkpt lat="43.26233667" lon="-4.25060833">
        <ele>210.0</ele>
        <time>2018-05-19T09:49:36.874Z</time>
      </trkpt>
      <trkpt lat="43.26238" lon="-4.25053667">
        <ele>210.0</ele>
        <time>2018-05-19T09:49:37.873Z</time>
      </trkpt>
      <trkpt lat="43.26238" lon="-4.25053667">
        <ele>210.0</ele>
        <time>2018-05-19T09:49:38.871Z</time>
      </trkpt>
      <trkpt lat="43.26246" lon="-4.25038">
        <ele>209.0</ele>
        <time>2018-05-19T09:49:39.873Z</time>
      </trkpt>
      <trkpt lat="43.26246" lon="-4.25038">
        <ele>209.0</ele>
        <time>2018-05-19T09:49:40.864Z</time>
      </trkpt>
      <trkpt lat="43.26249833" lon="-4.25020667">
        <ele>209.0</ele>
        <time>2018-05-19T09:49:41.853Z</time>
      </trkpt>
      <trkpt lat="43.26249833" lon="-4.25020667">
        <ele>209.0</ele>
        <time>2018-05-19T09:49:42.844Z</time>
      </trkpt>
      <trkpt lat="43.26246333" lon="-4.25004333">
        <ele>208.0</ele>
        <time>2018-05-19T09:49:43.866Z</time>
      </trkpt>
      <trkpt lat="43.26243833" lon="-4.24997167">
        <ele>208.0</ele>
        <time>2018-05-19T09:49:44.873Z</time>
      </trkpt>
      <trkpt lat="43.26243833" lon="-4.24997167">
        <ele>208.0</ele>
        <time>2018-05-19T09:49:45.867Z</time>
      </trkpt>
      <trkpt lat="43.26238833" lon="-4.24983">
        <ele>208.0</ele>
        <time>2018-05-19T09:49:46.862Z</time>
      </trkpt>
      <trkpt lat="43.262365" lon="-4.24976">
        <ele>208.0</ele>
        <time>2018-05-19T09:49:47.869Z</time>
      </trkpt>
      <trkpt lat="43.26233833" lon="-4.24968667">
        <ele>208.0</ele>
        <time>2018-05-19T09:49:48.879Z</time>
      </trkpt>
      <trkpt lat="43.26233833" lon="-4.24968667">
        <ele>208.0</ele>
        <time>2018-05-19T09:49:49.871Z</time>
      </trkpt>
      <trkpt lat="43.26227" lon="-4.24951667">
        <ele>207.0</ele>
        <time>2018-05-19T09:49:50.873Z</time>
      </trkpt>
      <trkpt lat="43.26227" lon="-4.24951667">
        <ele>207.0</ele>
        <time>2018-05-19T09:49:51.868Z</time>
      </trkpt>
      <trkpt lat="43.26217667" lon="-4.24932667">
        <ele>206.0</ele>
        <time>2018-05-19T09:49:52.874Z</time>
      </trkpt>
      <trkpt lat="43.26217667" lon="-4.24932667">
        <ele>206.0</ele>
        <time>2018-05-19T09:49:53.867Z</time>
      </trkpt>
      <trkpt lat="43.26204833" lon="-4.24915667">
        <ele>206.0</ele>
        <time>2018-05-19T09:49:54.873Z</time>
      </trkpt>
      <trkpt lat="43.26197167" lon="-4.24908667">
        <ele>206.0</ele>
        <time>2018-05-19T09:49:55.873Z</time>
      </trkpt>
      <trkpt lat="43.26197167" lon="-4.24908667">
        <ele>206.0</ele>
        <time>2018-05-19T09:49:56.871Z</time>
      </trkpt>
      <trkpt lat="43.26181333" lon="-4.24898667">
        <ele>205.0</ele>
        <time>2018-05-19T09:49:57.873Z</time>
      </trkpt>
      <trkpt lat="43.26181333" lon="-4.24898667">
        <ele>205.0</ele>
        <time>2018-05-19T09:49:58.871Z</time>
      </trkpt>
      <trkpt lat="43.261655" lon="-4.248905">
        <ele>205.0</ele>
        <time>2018-05-19T09:49:59.872Z</time>
      </trkpt>
      <trkpt lat="43.261655" lon="-4.248905">
        <ele>205.0</ele>
        <time>2018-05-19T09:50:00.878Z</time>
      </trkpt>
      <trkpt lat="43.261505" lon="-4.24879">
        <ele>204.0</ele>
        <time>2018-05-19T09:50:01.873Z</time>
      </trkpt>
      <trkpt lat="43.261505" lon="-4.24879">
        <ele>204.0</ele>
        <time>2018-05-19T09:50:02.870Z</time>
      </trkpt>
      <trkpt lat="43.26135" lon="-4.24867">
        <ele>203.0</ele>
        <time>2018-05-19T09:50:03.866Z</time>
      </trkpt>
      <trkpt lat="43.26127667" lon="-4.24859667">
        <ele>203.0</ele>
        <time>2018-05-19T09:50:04.873Z</time>
      </trkpt>
      <trkpt lat="43.26120333" lon="-4.24852167">
        <ele>203.0</ele>
        <time>2018-05-19T09:50:05.873Z</time>
      </trkpt>
      <trkpt lat="43.26120333" lon="-4.24852167">
        <ele>203.0</ele>
        <time>2018-05-19T09:50:06.870Z</time>
      </trkpt>
      <trkpt lat="43.26105667" lon="-4.24838333">
        <ele>203.0</ele>
        <time>2018-05-19T09:50:07.872Z</time>
      </trkpt>
      <trkpt lat="43.26105667" lon="-4.24838333">
        <ele>203.0</ele>
        <time>2018-05-19T09:50:08.870Z</time>
      </trkpt>
      <trkpt lat="43.26090333" lon="-4.24824167">
        <ele>202.0</ele>
        <time>2018-05-19T09:50:09.872Z</time>
      </trkpt>
      <trkpt lat="43.260825" lon="-4.248175">
        <ele>202.0</ele>
        <time>2018-05-19T09:50:10.874Z</time>
      </trkpt>
      <trkpt lat="43.260825" lon="-4.248175">
        <ele>202.0</ele>
        <time>2018-05-19T09:50:11.870Z</time>
      </trkpt>
      <trkpt lat="43.26066" lon="-4.24805667">
        <ele>201.0</ele>
        <time>2018-05-19T09:50:12.870Z</time>
      </trkpt>
      <trkpt lat="43.26066" lon="-4.24805667">
        <ele>201.0</ele>
        <time>2018-05-19T09:50:13.867Z</time>
      </trkpt>
      <trkpt lat="43.26050167" lon="-4.24793833">
        <ele>200.0</ele>
        <time>2018-05-19T09:50:14.871Z</time>
      </trkpt>
      <trkpt lat="43.26050167" lon="-4.24793833">
        <ele>200.0</ele>
        <time>2018-05-19T09:50:15.870Z</time>
      </trkpt>
      <trkpt lat="43.26033833" lon="-4.24783833">
        <ele>199.0</ele>
        <time>2018-05-19T09:50:16.882Z</time>
      </trkpt>
      <trkpt lat="43.26033833" lon="-4.24783833">
        <ele>199.0</ele>
        <time>2018-05-19T09:50:17.881Z</time>
      </trkpt>
      <trkpt lat="43.26016833" lon="-4.24774667">
        <ele>198.0</ele>
        <time>2018-05-19T09:50:18.873Z</time>
      </trkpt>
      <trkpt lat="43.26016833" lon="-4.24774667">
        <ele>198.0</ele>
        <time>2018-05-19T09:50:19.871Z</time>
      </trkpt>
      <trkpt lat="43.260015" lon="-4.24766333">
        <ele>198.0</ele>
        <time>2018-05-19T09:50:20.872Z</time>
      </trkpt>
      <trkpt lat="43.260015" lon="-4.24766333">
        <ele>198.0</ele>
        <time>2018-05-19T09:50:21.870Z</time>
      </trkpt>
      <trkpt lat="43.25988167" lon="-4.24754667">
        <ele>197.0</ele>
        <time>2018-05-19T09:50:22.873Z</time>
      </trkpt>
      <trkpt lat="43.25988167" lon="-4.24754667">
        <ele>197.0</ele>
        <time>2018-05-19T09:50:23.863Z</time>
      </trkpt>
      <trkpt lat="43.25975833" lon="-4.24741">
        <ele>196.0</ele>
        <time>2018-05-19T09:50:24.849Z</time>
      </trkpt>
      <trkpt lat="43.25975833" lon="-4.24741">
        <ele>196.0</ele>
        <time>2018-05-19T09:50:25.874Z</time>
      </trkpt>
      <trkpt lat="43.259625" lon="-4.24726833">
        <ele>196.0</ele>
        <time>2018-05-19T09:50:26.870Z</time>
      </trkpt>
      <trkpt lat="43.259625" lon="-4.24726833">
        <ele>196.0</ele>
        <time>2018-05-19T09:50:27.868Z</time>
      </trkpt>
      <trkpt lat="43.259465" lon="-4.24715">
        <ele>195.0</ele>
        <time>2018-05-19T09:50:28.873Z</time>
      </trkpt>
      <trkpt lat="43.259465" lon="-4.24715">
        <ele>195.0</ele>
        <time>2018-05-19T09:50:29.871Z</time>
      </trkpt>
      <trkpt lat="43.2593" lon="-4.24704667">
        <ele>195.0</ele>
        <time>2018-05-19T09:50:30.876Z</time>
      </trkpt>
      <trkpt lat="43.2593" lon="-4.24704667">
        <ele>195.0</ele>
        <time>2018-05-19T09:50:31.868Z</time>
      </trkpt>
      <trkpt lat="43.259145" lon="-4.24695833">
        <ele>195.0</ele>
        <time>2018-05-19T09:50:32.873Z</time>
      </trkpt>
      <trkpt lat="43.259145" lon="-4.24695833">
        <ele>195.0</ele>
        <time>2018-05-19T09:50:33.860Z</time>
      </trkpt>
      <trkpt lat="43.259" lon="-4.24685667">
        <ele>195.0</ele>
        <time>2018-05-19T09:50:34.846Z</time>
      </trkpt>
      <trkpt lat="43.259" lon="-4.24685667">
        <ele>195.0</ele>
        <time>2018-05-19T09:50:35.876Z</time>
      </trkpt>
      <trkpt lat="43.25885667" lon="-4.24676">
        <ele>194.0</ele>
        <time>2018-05-19T09:50:36.873Z</time>
      </trkpt>
      <trkpt lat="43.25885667" lon="-4.24676">
        <ele>194.0</ele>
        <time>2018-05-19T09:50:37.870Z</time>
      </trkpt>
      <trkpt lat="43.25872" lon="-4.24668333">
        <ele>194.0</ele>
        <time>2018-05-19T09:50:38.872Z</time>
      </trkpt>
      <trkpt lat="43.25865167" lon="-4.246655">
        <ele>194.0</ele>
        <time>2018-05-19T09:50:39.872Z</time>
      </trkpt>
      <trkpt lat="43.25865167" lon="-4.246655">
        <ele>194.0</ele>
        <time>2018-05-19T09:50:40.867Z</time>
      </trkpt>
      <trkpt lat="43.25852167" lon="-4.24661">
        <ele>194.0</ele>
        <time>2018-05-19T09:50:41.867Z</time>
      </trkpt>
      <trkpt lat="43.25852167" lon="-4.24661">
        <ele>194.0</ele>
        <time>2018-05-19T09:50:42.867Z</time>
      </trkpt>
      <trkpt lat="43.25839833" lon="-4.246535">
        <ele>194.0</ele>
        <time>2018-05-19T09:50:43.865Z</time>
      </trkpt>
      <trkpt lat="43.25834333" lon="-4.24648167">
        <ele>194.0</ele>
        <time>2018-05-19T09:50:44.874Z</time>
      </trkpt>
      <trkpt lat="43.25834333" lon="-4.24648167">
        <ele>194.0</ele>
        <time>2018-05-19T09:50:45.862Z</time>
      </trkpt>
      <trkpt lat="43.25822333" lon="-4.24641333">
        <ele>194.0</ele>
        <time>2018-05-19T09:50:46.850Z</time>
      </trkpt>
      <trkpt lat="43.25822333" lon="-4.24641333">
        <ele>194.0</ele>
        <time>2018-05-19T09:50:47.857Z</time>
      </trkpt>
      <trkpt lat="43.25809833" lon="-4.24640833">
        <ele>193.0</ele>
        <time>2018-05-19T09:50:48.864Z</time>
      </trkpt>
      <trkpt lat="43.25803167" lon="-4.246395">
        <ele>194.0</ele>
        <time>2018-05-19T09:50:49.872Z</time>
      </trkpt>
      <trkpt lat="43.257965" lon="-4.24637833">
        <ele>194.0</ele>
        <time>2018-05-19T09:50:50.873Z</time>
      </trkpt>
      <trkpt lat="43.257965" lon="-4.24637833">
        <ele>194.0</ele>
        <time>2018-05-19T09:50:51.870Z</time>
      </trkpt>
      <trkpt lat="43.25784833" lon="-4.24639833">
        <ele>194.0</ele>
        <time>2018-05-19T09:50:52.873Z</time>
      </trkpt>
      <trkpt lat="43.25784833" lon="-4.24639833">
        <ele>194.0</ele>
        <time>2018-05-19T09:50:53.864Z</time>
      </trkpt>
      <trkpt lat="43.25775" lon="-4.24648">
        <ele>194.0</ele>
        <time>2018-05-19T09:50:54.847Z</time>
      </trkpt>
      <trkpt lat="43.25770667" lon="-4.24651667">
        <ele>194.0</ele>
        <time>2018-05-19T09:50:55.873Z</time>
      </trkpt>
      <trkpt lat="43.25770667" lon="-4.24651667">
        <ele>194.0</ele>
        <time>2018-05-19T09:50:56.870Z</time>
      </trkpt>
      <trkpt lat="43.25760667" lon="-4.24655667">
        <ele>194.0</ele>
        <time>2018-05-19T09:50:57.873Z</time>
      </trkpt>
      <trkpt lat="43.25760667" lon="-4.24655667">
        <ele>194.0</ele>
        <time>2018-05-19T09:50:58.869Z</time>
      </trkpt>
      <trkpt lat="43.25748" lon="-4.24656">
        <ele>195.0</ele>
        <time>2018-05-19T09:50:59.872Z</time>
      </trkpt>
      <trkpt lat="43.25748" lon="-4.24656">
        <ele>195.0</ele>
        <time>2018-05-19T09:51:00.870Z</time>
      </trkpt>
      <trkpt lat="43.25735333" lon="-4.24655667">
        <ele>195.0</ele>
        <time>2018-05-19T09:51:01.873Z</time>
      </trkpt>
      <trkpt lat="43.25729167" lon="-4.24654833">
        <ele>195.0</ele>
        <time>2018-05-19T09:51:02.873Z</time>
      </trkpt>
      <trkpt lat="43.25729167" lon="-4.24654833">
        <ele>195.0</ele>
        <time>2018-05-19T09:51:03.863Z</time>
      </trkpt>
      <trkpt lat="43.25716833" lon="-4.24652667">
        <ele>195.0</ele>
        <time>2018-05-19T09:51:04.847Z</time>
      </trkpt>
      <trkpt lat="43.25716833" lon="-4.24652667">
        <ele>195.0</ele>
        <time>2018-05-19T09:51:05.871Z</time>
      </trkpt>
      <trkpt lat="43.25704" lon="-4.24651667">
        <ele>195.0</ele>
        <time>2018-05-19T09:51:06.872Z</time>
      </trkpt>
      <trkpt lat="43.25704" lon="-4.24651667">
        <ele>195.0</ele>
        <time>2018-05-19T09:51:07.870Z</time>
      </trkpt>
      <trkpt lat="43.25691667" lon="-4.24652667">
        <ele>195.0</ele>
        <time>2018-05-19T09:51:08.869Z</time>
      </trkpt>
      <trkpt lat="43.25685833" lon="-4.24654333">
        <ele>195.0</ele>
        <time>2018-05-19T09:51:09.873Z</time>
      </trkpt>
      <trkpt lat="43.25685833" lon="-4.24654333">
        <ele>195.0</ele>
        <time>2018-05-19T09:51:10.870Z</time>
      </trkpt>
      <trkpt lat="43.25674" lon="-4.24659833">
        <ele>195.0</ele>
        <time>2018-05-19T09:51:11.871Z</time>
      </trkpt>
      <trkpt lat="43.25674" lon="-4.24659833">
        <ele>195.0</ele>
        <time>2018-05-19T09:51:12.867Z</time>
      </trkpt>
      <trkpt lat="43.25662333" lon="-4.246645">
        <ele>195.0</ele>
        <time>2018-05-19T09:51:13.865Z</time>
      </trkpt>
      <trkpt lat="43.256565" lon="-4.24665833">
        <ele>195.0</ele>
        <time>2018-05-19T09:51:14.847Z</time>
      </trkpt>
      <trkpt lat="43.256565" lon="-4.24665833">
        <ele>195.0</ele>
        <time>2018-05-19T09:51:15.873Z</time>
      </trkpt>
      <trkpt lat="43.25645333" lon="-4.24666167">
        <ele>195.0</ele>
        <time>2018-05-19T09:51:16.845Z</time>
      </trkpt>
      <trkpt lat="43.25639833" lon="-4.24664833">
        <ele>195.0</ele>
        <time>2018-05-19T09:51:17.873Z</time>
      </trkpt>
      <trkpt lat="43.25634167" lon="-4.24662667">
        <ele>195.0</ele>
        <time>2018-05-19T09:51:18.873Z</time>
      </trkpt>
      <trkpt lat="43.25634167" lon="-4.24662667">
        <ele>195.0</ele>
        <time>2018-05-19T09:51:19.870Z</time>
      </trkpt>
      <trkpt lat="43.25623833" lon="-4.24657">
        <ele>195.0</ele>
        <time>2018-05-19T09:51:20.874Z</time>
      </trkpt>
      <trkpt lat="43.25623833" lon="-4.24657">
        <ele>195.0</ele>
        <time>2018-05-19T09:51:21.867Z</time>
      </trkpt>
      <trkpt lat="43.25613333" lon="-4.24652333">
        <ele>195.0</ele>
        <time>2018-05-19T09:51:22.873Z</time>
      </trkpt>
      <trkpt lat="43.25613333" lon="-4.24652333">
        <ele>195.0</ele>
        <time>2018-05-19T09:51:23.864Z</time>
      </trkpt>
      <trkpt lat="43.25604" lon="-4.246485">
        <ele>196.0</ele>
        <time>2018-05-19T09:51:24.847Z</time>
      </trkpt>
      <trkpt lat="43.25604" lon="-4.246485">
        <ele>196.0</ele>
        <time>2018-05-19T09:51:25.871Z</time>
      </trkpt>
      <trkpt lat="43.25593667" lon="-4.246465">
        <ele>196.0</ele>
        <time>2018-05-19T09:51:26.872Z</time>
      </trkpt>
      <trkpt lat="43.25593667" lon="-4.246465">
        <ele>196.0</ele>
        <time>2018-05-19T09:51:27.882Z</time>
      </trkpt>
      <trkpt lat="43.25584333" lon="-4.24643667">
        <ele>197.0</ele>
        <time>2018-05-19T09:51:28.873Z</time>
      </trkpt>
      <trkpt lat="43.25584333" lon="-4.24643667">
        <ele>197.0</ele>
        <time>2018-05-19T09:51:29.869Z</time>
      </trkpt>
      <trkpt lat="43.25575333" lon="-4.24641">
        <ele>198.0</ele>
        <time>2018-05-19T09:51:30.872Z</time>
      </trkpt>
      <trkpt lat="43.25575333" lon="-4.24641">
        <ele>198.0</ele>
        <time>2018-05-19T09:51:31.866Z</time>
      </trkpt>
      <trkpt lat="43.25566833" lon="-4.246395">
        <ele>199.0</ele>
        <time>2018-05-19T09:51:32.870Z</time>
      </trkpt>
      <trkpt lat="43.25566833" lon="-4.246395">
        <ele>199.0</ele>
        <time>2018-05-19T09:51:33.863Z</time>
      </trkpt>
      <trkpt lat="43.255585" lon="-4.24639">
        <ele>199.0</ele>
        <time>2018-05-19T09:51:34.883Z</time>
      </trkpt>
      <trkpt lat="43.255545" lon="-4.24639">
        <ele>200.0</ele>
        <time>2018-05-19T09:51:35.857Z</time>
      </trkpt>
      <trkpt lat="43.255545" lon="-4.24639">
        <ele>200.0</ele>
        <time>2018-05-19T09:51:36.864Z</time>
      </trkpt>
      <trkpt lat="43.25547" lon="-4.24638">
        <ele>200.0</ele>
        <time>2018-05-19T09:51:37.879Z</time>
      </trkpt>
      <trkpt lat="43.25543333" lon="-4.24637667">
        <ele>201.0</ele>
        <time>2018-05-19T09:51:38.846Z</time>
      </trkpt>
      <trkpt lat="43.25539667" lon="-4.24637667">
        <ele>201.0</ele>
        <time>2018-05-19T09:51:39.874Z</time>
      </trkpt>
      <trkpt lat="43.25539667" lon="-4.24637667">
        <ele>201.0</ele>
        <time>2018-05-19T09:51:40.875Z</time>
      </trkpt>
      <trkpt lat="43.25532833" lon="-4.24639">
        <ele>202.0</ele>
        <time>2018-05-19T09:51:41.871Z</time>
      </trkpt>
      <trkpt lat="43.25529333" lon="-4.24640167">
        <ele>202.0</ele>
        <time>2018-05-19T09:51:42.872Z</time>
      </trkpt>
      <trkpt lat="43.25529333" lon="-4.24640167">
        <ele>202.0</ele>
        <time>2018-05-19T09:51:43.863Z</time>
      </trkpt>
      <trkpt lat="43.25522667" lon="-4.24643333">
        <ele>202.0</ele>
        <time>2018-05-19T09:51:44.883Z</time>
      </trkpt>
      <trkpt lat="43.25522667" lon="-4.24643333">
        <ele>202.0</ele>
        <time>2018-05-19T09:51:45.862Z</time>
      </trkpt>
      <trkpt lat="43.25516167" lon="-4.246465">
        <ele>203.0</ele>
        <time>2018-05-19T09:51:46.870Z</time>
      </trkpt>
      <trkpt lat="43.25513333" lon="-4.24648">
        <ele>203.0</ele>
        <time>2018-05-19T09:51:47.876Z</time>
      </trkpt>
      <trkpt lat="43.25510333" lon="-4.24649667">
        <ele>203.0</ele>
        <time>2018-05-19T09:51:48.883Z</time>
      </trkpt>
      <trkpt lat="43.25510333" lon="-4.24649667">
        <ele>203.0</ele>
        <time>2018-05-19T09:51:49.870Z</time>
      </trkpt>
      <trkpt lat="43.25504667" lon="-4.24653167">
        <ele>204.0</ele>
        <time>2018-05-19T09:51:50.872Z</time>
      </trkpt>
      <trkpt lat="43.25504667" lon="-4.24653167">
        <ele>204.0</ele>
        <time>2018-05-19T09:51:51.866Z</time>
      </trkpt>
      <trkpt lat="43.25498833" lon="-4.24656833">
        <ele>204.0</ele>
        <time>2018-05-19T09:51:52.873Z</time>
      </trkpt>
      <trkpt lat="43.25498833" lon="-4.24656833">
        <ele>204.0</ele>
        <time>2018-05-19T09:51:53.874Z</time>
      </trkpt>
      <trkpt lat="43.25492667" lon="-4.2466">
        <ele>204.0</ele>
        <time>2018-05-19T09:51:54.869Z</time>
      </trkpt>
      <trkpt lat="43.25489333" lon="-4.24661333">
        <ele>204.0</ele>
        <time>2018-05-19T09:51:55.873Z</time>
      </trkpt>
      <trkpt lat="43.25489333" lon="-4.24661333">
        <ele>204.0</ele>
        <time>2018-05-19T09:51:56.869Z</time>
      </trkpt>
      <trkpt lat="43.25482333" lon="-4.24663167">
        <ele>205.0</ele>
        <time>2018-05-19T09:51:57.872Z</time>
      </trkpt>
      <trkpt lat="43.254785" lon="-4.24663667">
        <ele>205.0</ele>
        <time>2018-05-19T09:51:58.870Z</time>
      </trkpt>
      <trkpt lat="43.254785" lon="-4.24663667">
        <ele>205.0</ele>
        <time>2018-05-19T09:51:59.868Z</time>
      </trkpt>
      <trkpt lat="43.25470167" lon="-4.24663">
        <ele>205.0</ele>
        <time>2018-05-19T09:52:00.872Z</time>
      </trkpt>
      <trkpt lat="43.25470167" lon="-4.24663">
        <ele>205.0</ele>
        <time>2018-05-19T09:52:01.869Z</time>
      </trkpt>
      <trkpt lat="43.25461833" lon="-4.24658833">
        <ele>205.0</ele>
        <time>2018-05-19T09:52:02.873Z</time>
      </trkpt>
      <trkpt lat="43.25461833" lon="-4.24658833">
        <ele>205.0</ele>
        <time>2018-05-19T09:52:03.863Z</time>
      </trkpt>
      <trkpt lat="43.25455167" lon="-4.2465">
        <ele>205.0</ele>
        <time>2018-05-19T09:52:04.873Z</time>
      </trkpt>
      <trkpt lat="43.25452333" lon="-4.24644167">
        <ele>204.0</ele>
        <time>2018-05-19T09:52:05.874Z</time>
      </trkpt>
      <trkpt lat="43.25452333" lon="-4.24644167">
        <ele>204.0</ele>
        <time>2018-05-19T09:52:06.870Z</time>
      </trkpt>
      <trkpt lat="43.25446333" lon="-4.24631667">
        <ele>205.0</ele>
        <time>2018-05-19T09:52:07.872Z</time>
      </trkpt>
      <trkpt lat="43.254435" lon="-4.24625">
        <ele>205.0</ele>
        <time>2018-05-19T09:52:08.872Z</time>
      </trkpt>
      <trkpt lat="43.254435" lon="-4.24625">
        <ele>205.0</ele>
        <time>2018-05-19T09:52:09.869Z</time>
      </trkpt>
      <trkpt lat="43.25437667" lon="-4.24611333">
        <ele>205.0</ele>
        <time>2018-05-19T09:52:10.873Z</time>
      </trkpt>
      <trkpt lat="43.25437667" lon="-4.24611333">
        <ele>205.0</ele>
        <time>2018-05-19T09:52:11.869Z</time>
      </trkpt>
      <trkpt lat="43.25430667" lon="-4.24597667">
        <ele>205.0</ele>
        <time>2018-05-19T09:52:12.871Z</time>
      </trkpt>
      <trkpt lat="43.25430667" lon="-4.24597667">
        <ele>205.0</ele>
        <time>2018-05-19T09:52:13.863Z</time>
      </trkpt>
      <trkpt lat="43.254235" lon="-4.24584">
        <ele>206.0</ele>
        <time>2018-05-19T09:52:14.848Z</time>
      </trkpt>
      <trkpt lat="43.254235" lon="-4.24584">
        <ele>206.0</ele>
        <time>2018-05-19T09:52:15.873Z</time>
      </trkpt>
      <trkpt lat="43.25415667" lon="-4.24570333">
        <ele>206.0</ele>
        <time>2018-05-19T09:52:16.873Z</time>
      </trkpt>
      <trkpt lat="43.25415667" lon="-4.24570333">
        <ele>206.0</ele>
        <time>2018-05-19T09:52:17.878Z</time>
      </trkpt>
      <trkpt lat="43.25408" lon="-4.24556">
        <ele>206.0</ele>
        <time>2018-05-19T09:52:18.873Z</time>
      </trkpt>
      <trkpt lat="43.25408" lon="-4.24556">
        <ele>206.0</ele>
        <time>2018-05-19T09:52:19.868Z</time>
      </trkpt>
      <trkpt lat="43.25399333" lon="-4.245425">
        <ele>206.0</ele>
        <time>2018-05-19T09:52:20.873Z</time>
      </trkpt>
      <trkpt lat="43.25399333" lon="-4.245425">
        <ele>206.0</ele>
        <time>2018-05-19T09:52:21.868Z</time>
      </trkpt>
      <trkpt lat="43.25389167" lon="-4.24529833">
        <ele>207.0</ele>
        <time>2018-05-19T09:52:22.867Z</time>
      </trkpt>
      <trkpt lat="43.25389167" lon="-4.24529833">
        <ele>207.0</ele>
        <time>2018-05-19T09:52:23.863Z</time>
      </trkpt>
      <trkpt lat="43.25379" lon="-4.24519333">
        <ele>207.0</ele>
        <time>2018-05-19T09:52:24.863Z</time>
      </trkpt>
      <trkpt lat="43.253735" lon="-4.245155">
        <ele>207.0</ele>
        <time>2018-05-19T09:52:25.847Z</time>
      </trkpt>
      <trkpt lat="43.253735" lon="-4.245155">
        <ele>207.0</ele>
        <time>2018-05-19T09:52:26.873Z</time>
      </trkpt>
      <trkpt lat="43.25361167" lon="-4.24509667">
        <ele>207.0</ele>
        <time>2018-05-19T09:52:27.872Z</time>
      </trkpt>
      <trkpt lat="43.25354167" lon="-4.24507">
        <ele>207.0</ele>
        <time>2018-05-19T09:52:28.874Z</time>
      </trkpt>
      <trkpt lat="43.25354167" lon="-4.24507">
        <ele>207.0</ele>
        <time>2018-05-19T09:52:29.869Z</time>
      </trkpt>
      <trkpt lat="43.253405" lon="-4.24502">
        <ele>207.0</ele>
        <time>2018-05-19T09:52:30.871Z</time>
      </trkpt>
      <trkpt lat="43.253405" lon="-4.24502">
        <ele>207.0</ele>
        <time>2018-05-19T09:52:31.866Z</time>
      </trkpt>
      <trkpt lat="43.25326333" lon="-4.24499333">
        <ele>207.0</ele>
        <time>2018-05-19T09:52:32.872Z</time>
      </trkpt>
      <trkpt lat="43.25326333" lon="-4.24499333">
        <ele>207.0</ele>
        <time>2018-05-19T09:52:33.863Z</time>
      </trkpt>
      <trkpt lat="43.25313333" lon="-4.24497333">
        <ele>207.0</ele>
        <time>2018-05-19T09:52:34.849Z</time>
      </trkpt>
      <trkpt lat="43.25313333" lon="-4.24497333">
        <ele>207.0</ele>
        <time>2018-05-19T09:52:35.874Z</time>
      </trkpt>
      <trkpt lat="43.25301833" lon="-4.24496667">
        <ele>207.0</ele>
        <time>2018-05-19T09:52:36.872Z</time>
      </trkpt>
      <trkpt lat="43.25301833" lon="-4.24496667">
        <ele>207.0</ele>
        <time>2018-05-19T09:52:37.869Z</time>
      </trkpt>
      <trkpt lat="43.25290667" lon="-4.24498667">
        <ele>207.0</ele>
        <time>2018-05-19T09:52:38.871Z</time>
      </trkpt>
      <trkpt lat="43.25290667" lon="-4.24498667">
        <ele>207.0</ele>
        <time>2018-05-19T09:52:39.868Z</time>
      </trkpt>
      <trkpt lat="43.25279333" lon="-4.24500667">
        <ele>207.0</ele>
        <time>2018-05-19T09:52:40.864Z</time>
      </trkpt>
      <trkpt lat="43.25279333" lon="-4.24500667">
        <ele>207.0</ele>
        <time>2018-05-19T09:52:41.868Z</time>
      </trkpt>
      <trkpt lat="43.25267333" lon="-4.24501333">
        <ele>207.0</ele>
        <time>2018-05-19T09:52:42.872Z</time>
      </trkpt>
      <trkpt lat="43.25267333" lon="-4.24501333">
        <ele>207.0</ele>
        <time>2018-05-19T09:52:43.862Z</time>
      </trkpt>
      <trkpt lat="43.252555" lon="-4.24501333">
        <ele>207.0</ele>
        <time>2018-05-19T09:52:44.851Z</time>
      </trkpt>
      <trkpt lat="43.252555" lon="-4.24501333">
        <ele>207.0</ele>
        <time>2018-05-19T09:52:45.865Z</time>
      </trkpt>
      <trkpt lat="43.252435" lon="-4.24500667">
        <ele>207.0</ele>
        <time>2018-05-19T09:52:46.878Z</time>
      </trkpt>
      <trkpt lat="43.252435" lon="-4.24500667">
        <ele>207.0</ele>
        <time>2018-05-19T09:52:47.844Z</time>
      </trkpt>
      <trkpt lat="43.25231667" lon="-4.24500833">
        <ele>207.0</ele>
        <time>2018-05-19T09:52:48.850Z</time>
      </trkpt>
      <trkpt lat="43.25225833" lon="-4.24501333">
        <ele>207.0</ele>
        <time>2018-05-19T09:52:49.873Z</time>
      </trkpt>
      <trkpt lat="43.25220167" lon="-4.24502">
        <ele>207.0</ele>
        <time>2018-05-19T09:52:50.874Z</time>
      </trkpt>
      <trkpt lat="43.25220167" lon="-4.24502">
        <ele>207.0</ele>
        <time>2018-05-19T09:52:51.876Z</time>
      </trkpt>
      <trkpt lat="43.25208667" lon="-4.24503667">
        <ele>207.0</ele>
        <time>2018-05-19T09:52:52.873Z</time>
      </trkpt>
      <trkpt lat="43.25208667" lon="-4.24503667">
        <ele>207.0</ele>
        <time>2018-05-19T09:52:53.863Z</time>
      </trkpt>
      <trkpt lat="43.25197333" lon="-4.24504667">
        <ele>208.0</ele>
        <time>2018-05-19T09:52:54.846Z</time>
      </trkpt>
      <trkpt lat="43.25197333" lon="-4.24504667">
        <ele>208.0</ele>
        <time>2018-05-19T09:52:55.871Z</time>
      </trkpt>
      <trkpt lat="43.25186167" lon="-4.24505667">
        <ele>208.0</ele>
        <time>2018-05-19T09:52:56.872Z</time>
      </trkpt>
      <trkpt lat="43.25186167" lon="-4.24505667">
        <ele>208.0</ele>
        <time>2018-05-19T09:52:57.869Z</time>
      </trkpt>
      <trkpt lat="43.25174667" lon="-4.24506833">
        <ele>208.0</ele>
        <time>2018-05-19T09:52:58.882Z</time>
      </trkpt>
      <trkpt lat="43.25174667" lon="-4.24506833">
        <ele>208.0</ele>
        <time>2018-05-19T09:52:59.870Z</time>
      </trkpt>
      <trkpt lat="43.25164" lon="-4.24507667">
        <ele>209.0</ele>
        <time>2018-05-19T09:53:00.872Z</time>
      </trkpt>
      <trkpt lat="43.25164" lon="-4.24507667">
        <ele>209.0</ele>
        <time>2018-05-19T09:53:01.866Z</time>
      </trkpt>
      <trkpt lat="43.25153833" lon="-4.24507167">
        <ele>209.0</ele>
        <time>2018-05-19T09:53:02.871Z</time>
      </trkpt>
      <trkpt lat="43.25153833" lon="-4.24507167">
        <ele>209.0</ele>
        <time>2018-05-19T09:53:03.860Z</time>
      </trkpt>
      <trkpt lat="43.25144333" lon="-4.24505167">
        <ele>210.0</ele>
        <time>2018-05-19T09:53:04.848Z</time>
      </trkpt>
      <trkpt lat="43.25144333" lon="-4.24505167">
        <ele>210.0</ele>
        <time>2018-05-19T09:53:05.873Z</time>
      </trkpt>
      <trkpt lat="43.25135167" lon="-4.24500333">
        <ele>211.0</ele>
        <time>2018-05-19T09:53:06.873Z</time>
      </trkpt>
      <trkpt lat="43.25135167" lon="-4.24500333">
        <ele>211.0</ele>
        <time>2018-05-19T09:53:07.868Z</time>
      </trkpt>
      <trkpt lat="43.25127167" lon="-4.24492667">
        <ele>211.0</ele>
        <time>2018-05-19T09:53:08.872Z</time>
      </trkpt>
      <trkpt lat="43.25127167" lon="-4.24492667">
        <ele>211.0</ele>
        <time>2018-05-19T09:53:09.867Z</time>
      </trkpt>
      <trkpt lat="43.251205" lon="-4.24483167">
        <ele>212.0</ele>
        <time>2018-05-19T09:53:10.872Z</time>
      </trkpt>
      <trkpt lat="43.251205" lon="-4.24483167">
        <ele>212.0</ele>
        <time>2018-05-19T09:53:11.869Z</time>
      </trkpt>
      <trkpt lat="43.25113833" lon="-4.24473">
        <ele>213.0</ele>
        <time>2018-05-19T09:53:12.872Z</time>
      </trkpt>
      <trkpt lat="43.25113833" lon="-4.24473">
        <ele>213.0</ele>
        <time>2018-05-19T09:53:13.859Z</time>
      </trkpt>
      <trkpt lat="43.25108" lon="-4.24461667">
        <ele>213.0</ele>
        <time>2018-05-19T09:53:14.845Z</time>
      </trkpt>
      <trkpt lat="43.25105" lon="-4.24455833">
        <ele>214.0</ele>
        <time>2018-05-19T09:53:15.873Z</time>
      </trkpt>
      <trkpt lat="43.25105" lon="-4.24455833">
        <ele>214.0</ele>
        <time>2018-05-19T09:53:16.867Z</time>
      </trkpt>
      <trkpt lat="43.25097667" lon="-4.24443667">
        <ele>214.0</ele>
        <time>2018-05-19T09:53:17.872Z</time>
      </trkpt>
      <trkpt lat="43.25094" lon="-4.24437333">
        <ele>214.0</ele>
        <time>2018-05-19T09:53:18.869Z</time>
      </trkpt>
      <trkpt lat="43.25094" lon="-4.24437333">
        <ele>214.0</ele>
        <time>2018-05-19T09:53:19.869Z</time>
      </trkpt>
      <trkpt lat="43.25086" lon="-4.24423667">
        <ele>215.0</ele>
        <time>2018-05-19T09:53:20.845Z</time>
      </trkpt>
      <trkpt lat="43.25086" lon="-4.24423667">
        <ele>215.0</ele>
        <time>2018-05-19T09:53:21.870Z</time>
      </trkpt>
      <trkpt lat="43.25077333" lon="-4.24409833">
        <ele>215.0</ele>
        <time>2018-05-19T09:53:22.873Z</time>
      </trkpt>
      <trkpt lat="43.25077333" lon="-4.24409833">
        <ele>215.0</ele>
        <time>2018-05-19T09:53:23.862Z</time>
      </trkpt>
      <trkpt lat="43.25068" lon="-4.24395167">
        <ele>215.0</ele>
        <time>2018-05-19T09:53:24.846Z</time>
      </trkpt>
      <trkpt lat="43.25068" lon="-4.24395167">
        <ele>215.0</ele>
        <time>2018-05-19T09:53:25.868Z</time>
      </trkpt>
      <trkpt lat="43.25056" lon="-4.24379833">
        <ele>215.0</ele>
        <time>2018-05-19T09:53:26.870Z</time>
      </trkpt>
      <trkpt lat="43.25056" lon="-4.24379833">
        <ele>215.0</ele>
        <time>2018-05-19T09:53:27.865Z</time>
      </trkpt>
      <trkpt lat="43.25042333" lon="-4.24365333">
        <ele>215.0</ele>
        <time>2018-05-19T09:53:28.872Z</time>
      </trkpt>
      <trkpt lat="43.25042333" lon="-4.24365333">
        <ele>215.0</ele>
        <time>2018-05-19T09:53:29.869Z</time>
      </trkpt>
      <trkpt lat="43.25028167" lon="-4.24351833">
        <ele>215.0</ele>
        <time>2018-05-19T09:53:30.847Z</time>
      </trkpt>
      <trkpt lat="43.25028167" lon="-4.24351833">
        <ele>215.0</ele>
        <time>2018-05-19T09:53:31.872Z</time>
      </trkpt>
      <trkpt lat="43.25014333" lon="-4.243385">
        <ele>216.0</ele>
        <time>2018-05-19T09:53:32.873Z</time>
      </trkpt>
      <trkpt lat="43.25014333" lon="-4.243385">
        <ele>216.0</ele>
        <time>2018-05-19T09:53:33.862Z</time>
      </trkpt>
      <trkpt lat="43.24999667" lon="-4.24328333">
        <ele>216.0</ele>
        <time>2018-05-19T09:53:34.846Z</time>
      </trkpt>
      <trkpt lat="43.24999667" lon="-4.24328333">
        <ele>216.0</ele>
        <time>2018-05-19T09:53:35.875Z</time>
      </trkpt>
      <trkpt lat="43.24983833" lon="-4.24322">
        <ele>217.0</ele>
        <time>2018-05-19T09:53:36.872Z</time>
      </trkpt>
      <trkpt lat="43.24983833" lon="-4.24322">
        <ele>217.0</ele>
        <time>2018-05-19T09:53:37.869Z</time>
      </trkpt>
      <trkpt lat="43.24968333" lon="-4.24316333">
        <ele>216.0</ele>
        <time>2018-05-19T09:53:38.871Z</time>
      </trkpt>
      <trkpt lat="43.24968333" lon="-4.24316333">
        <ele>216.0</ele>
        <time>2018-05-19T09:53:39.870Z</time>
      </trkpt>
      <trkpt lat="43.249545" lon="-4.24307167">
        <ele>216.0</ele>
        <time>2018-05-19T09:53:40.865Z</time>
      </trkpt>
      <trkpt lat="43.249545" lon="-4.24307167">
        <ele>216.0</ele>
        <time>2018-05-19T09:53:41.869Z</time>
      </trkpt>
      <trkpt lat="43.24941833" lon="-4.24296167">
        <ele>216.0</ele>
        <time>2018-05-19T09:53:42.871Z</time>
      </trkpt>
      <trkpt lat="43.24936167" lon="-4.24290667">
        <ele>216.0</ele>
        <time>2018-05-19T09:53:43.864Z</time>
      </trkpt>
      <trkpt lat="43.24936167" lon="-4.24290667">
        <ele>216.0</ele>
        <time>2018-05-19T09:53:44.847Z</time>
      </trkpt>
      <trkpt lat="43.24925" lon="-4.24279833">
        <ele>216.0</ele>
        <time>2018-05-19T09:53:45.875Z</time>
      </trkpt>
      <trkpt lat="43.24919" lon="-4.24274333">
        <ele>216.0</ele>
        <time>2018-05-19T09:53:46.873Z</time>
      </trkpt>
      <trkpt lat="43.24919" lon="-4.24274333">
        <ele>216.0</ele>
        <time>2018-05-19T09:53:47.880Z</time>
      </trkpt>
      <trkpt lat="43.24906833" lon="-4.242635">
        <ele>216.0</ele>
        <time>2018-05-19T09:53:48.846Z</time>
      </trkpt>
      <trkpt lat="43.24901333" lon="-4.24256833">
        <ele>216.0</ele>
        <time>2018-05-19T09:53:49.872Z</time>
      </trkpt>
      <trkpt lat="43.24896" lon="-4.2425">
        <ele>216.0</ele>
        <time>2018-05-19T09:53:50.872Z</time>
      </trkpt>
      <trkpt lat="43.24896" lon="-4.2425">
        <ele>216.0</ele>
        <time>2018-05-19T09:53:51.869Z</time>
      </trkpt>
      <trkpt lat="43.24885333" lon="-4.24236">
        <ele>216.0</ele>
        <time>2018-05-19T09:53:52.846Z</time>
      </trkpt>
      <trkpt lat="43.24885333" lon="-4.24236">
        <ele>216.0</ele>
        <time>2018-05-19T09:53:53.874Z</time>
      </trkpt>
      <trkpt lat="43.248745" lon="-4.24221333">
        <ele>216.0</ele>
        <time>2018-05-19T09:53:54.872Z</time>
      </trkpt>
      <trkpt lat="43.24869833" lon="-4.24213833">
        <ele>216.0</ele>
        <time>2018-05-19T09:53:55.874Z</time>
      </trkpt>
      <trkpt lat="43.24869833" lon="-4.24213833">
        <ele>216.0</ele>
        <time>2018-05-19T09:53:56.866Z</time>
      </trkpt>
      <trkpt lat="43.24859833" lon="-4.24199833">
        <ele>217.0</ele>
        <time>2018-05-19T09:53:57.872Z</time>
      </trkpt>
      <trkpt lat="43.24854" lon="-4.24194667">
        <ele>217.0</ele>
        <time>2018-05-19T09:53:58.873Z</time>
      </trkpt>
      <trkpt lat="43.24854" lon="-4.24194667">
        <ele>217.0</ele>
        <time>2018-05-19T09:53:59.869Z</time>
      </trkpt>
      <trkpt lat="43.248425" lon="-4.24185333">
        <ele>217.0</ele>
        <time>2018-05-19T09:54:00.872Z</time>
      </trkpt>
      <trkpt lat="43.248425" lon="-4.24185333">
        <ele>217.0</ele>
        <time>2018-05-19T09:54:01.866Z</time>
      </trkpt>
      <trkpt lat="43.24830333" lon="-4.24176667">
        <ele>216.0</ele>
        <time>2018-05-19T09:54:02.871Z</time>
      </trkpt>
      <trkpt lat="43.24830333" lon="-4.24176667">
        <ele>216.0</ele>
        <time>2018-05-19T09:54:03.862Z</time>
      </trkpt>
      <trkpt lat="43.248195" lon="-4.24166667">
        <ele>216.0</ele>
        <time>2018-05-19T09:54:04.873Z</time>
      </trkpt>
      <trkpt lat="43.248195" lon="-4.24166667">
        <ele>216.0</ele>
        <time>2018-05-19T09:54:05.864Z</time>
      </trkpt>
      <trkpt lat="43.248095" lon="-4.24156833">
        <ele>217.0</ele>
        <time>2018-05-19T09:54:06.847Z</time>
      </trkpt>
      <trkpt lat="43.248095" lon="-4.24156833">
        <ele>217.0</ele>
        <time>2018-05-19T09:54:07.872Z</time>
      </trkpt>
      <trkpt lat="43.248015" lon="-4.24146">
        <ele>217.0</ele>
        <time>2018-05-19T09:54:08.872Z</time>
      </trkpt>
      <trkpt lat="43.248015" lon="-4.24146">
        <ele>217.0</ele>
        <time>2018-05-19T09:54:09.869Z</time>
      </trkpt>
      <trkpt lat="43.247955" lon="-4.241345">
        <ele>217.0</ele>
        <time>2018-05-19T09:54:10.872Z</time>
      </trkpt>
      <trkpt lat="43.247955" lon="-4.241345">
        <ele>217.0</ele>
        <time>2018-05-19T09:54:11.868Z</time>
      </trkpt>
      <trkpt lat="43.24790167" lon="-4.24121333">
        <ele>217.0</ele>
        <time>2018-05-19T09:54:12.868Z</time>
      </trkpt>
      <trkpt lat="43.24790167" lon="-4.24121333">
        <ele>217.0</ele>
        <time>2018-05-19T09:54:13.863Z</time>
      </trkpt>
      <trkpt lat="43.24787833" lon="-4.241035">
        <ele>218.0</ele>
        <time>2018-05-19T09:54:14.847Z</time>
      </trkpt>
      <trkpt lat="43.24787667" lon="-4.24094667">
        <ele>218.0</ele>
        <time>2018-05-19T09:54:15.883Z</time>
      </trkpt>
      <trkpt lat="43.24787667" lon="-4.24094667">
        <ele>218.0</ele>
        <time>2018-05-19T09:54:16.846Z</time>
      </trkpt>
      <trkpt lat="43.24787333" lon="-4.24077">
        <ele>218.0</ele>
        <time>2018-05-19T09:54:17.872Z</time>
      </trkpt>
      <trkpt lat="43.24786833" lon="-4.24068">
        <ele>219.0</ele>
        <time>2018-05-19T09:54:18.872Z</time>
      </trkpt>
      <trkpt lat="43.24786833" lon="-4.24068">
        <ele>219.0</ele>
        <time>2018-05-19T09:54:19.867Z</time>
      </trkpt>
      <trkpt lat="43.247845" lon="-4.24049667">
        <ele>219.0</ele>
        <time>2018-05-19T09:54:20.871Z</time>
      </trkpt>
      <trkpt lat="43.247845" lon="-4.24049667">
        <ele>219.0</ele>
        <time>2018-05-19T09:54:21.859Z</time>
      </trkpt>
      <trkpt lat="43.24777333" lon="-4.24031333">
        <ele>219.0</ele>
        <time>2018-05-19T09:54:22.844Z</time>
      </trkpt>
      <trkpt lat="43.24777333" lon="-4.24031333">
        <ele>219.0</ele>
        <time>2018-05-19T09:54:23.877Z</time>
      </trkpt>
      <trkpt lat="43.24766833" lon="-4.24018667">
        <ele>219.0</ele>
        <time>2018-05-19T09:54:24.871Z</time>
      </trkpt>
      <trkpt lat="43.24766833" lon="-4.24018667">
        <ele>219.0</ele>
        <time>2018-05-19T09:54:25.870Z</time>
      </trkpt>
      <trkpt lat="43.24755" lon="-4.240095">
        <ele>220.0</ele>
        <time>2018-05-19T09:54:26.872Z</time>
      </trkpt>
      <trkpt lat="43.24755" lon="-4.240095">
        <ele>220.0</ele>
        <time>2018-05-19T09:54:27.869Z</time>
      </trkpt>
      <trkpt lat="43.247445" lon="-4.23999833">
        <ele>220.0</ele>
        <time>2018-05-19T09:54:28.872Z</time>
      </trkpt>
      <trkpt lat="43.247445" lon="-4.23999833">
        <ele>220.0</ele>
        <time>2018-05-19T09:54:29.868Z</time>
      </trkpt>
      <trkpt lat="43.24734167" lon="-4.23990333">
        <ele>220.0</ele>
        <time>2018-05-19T09:54:30.872Z</time>
      </trkpt>
      <trkpt lat="43.24734167" lon="-4.23990333">
        <ele>220.0</ele>
        <time>2018-05-19T09:54:31.868Z</time>
      </trkpt>
      <trkpt lat="43.247235" lon="-4.23982">
        <ele>221.0</ele>
        <time>2018-05-19T09:54:32.871Z</time>
      </trkpt>
      <trkpt lat="43.247235" lon="-4.23982">
        <ele>221.0</ele>
        <time>2018-05-19T09:54:33.859Z</time>
      </trkpt>
      <trkpt lat="43.24712167" lon="-4.23974167">
        <ele>221.0</ele>
        <time>2018-05-19T09:54:34.844Z</time>
      </trkpt>
      <trkpt lat="43.24712167" lon="-4.23974167">
        <ele>221.0</ele>
        <time>2018-05-19T09:54:35.877Z</time>
      </trkpt>
      <trkpt lat="43.246995" lon="-4.23968167">
        <ele>221.0</ele>
        <time>2018-05-19T09:54:36.869Z</time>
      </trkpt>
      <trkpt lat="43.246995" lon="-4.23968167">
        <ele>221.0</ele>
        <time>2018-05-19T09:54:37.866Z</time>
      </trkpt>
      <trkpt lat="43.246875" lon="-4.23963333">
        <ele>220.0</ele>
        <time>2018-05-19T09:54:38.871Z</time>
      </trkpt>
      <trkpt lat="43.246875" lon="-4.23963333">
        <ele>220.0</ele>
        <time>2018-05-19T09:54:39.866Z</time>
      </trkpt>
      <trkpt lat="43.24675333" lon="-4.23957333">
        <ele>219.0</ele>
        <time>2018-05-19T09:54:40.865Z</time>
      </trkpt>
      <trkpt lat="43.24669167" lon="-4.239545">
        <ele>219.0</ele>
        <time>2018-05-19T09:54:41.868Z</time>
      </trkpt>
      <trkpt lat="43.24669167" lon="-4.239545">
        <ele>219.0</ele>
        <time>2018-05-19T09:54:42.862Z</time>
      </trkpt>
      <trkpt lat="43.24657833" lon="-4.23947667">
        <ele>219.0</ele>
        <time>2018-05-19T09:54:43.847Z</time>
      </trkpt>
      <trkpt lat="43.246525" lon="-4.23943333">
        <ele>219.0</ele>
        <time>2018-05-19T09:54:44.872Z</time>
      </trkpt>
      <trkpt lat="43.246525" lon="-4.23943333">
        <ele>219.0</ele>
        <time>2018-05-19T09:54:45.866Z</time>
      </trkpt>
      <trkpt lat="43.24642667" lon="-4.23933667">
        <ele>219.0</ele>
        <time>2018-05-19T09:54:46.883Z</time>
      </trkpt>
      <trkpt lat="43.24637833" lon="-4.239285">
        <ele>219.0</ele>
        <time>2018-05-19T09:54:47.849Z</time>
      </trkpt>
      <trkpt lat="43.24637833" lon="-4.239285">
        <ele>219.0</ele>
        <time>2018-05-19T09:54:48.861Z</time>
      </trkpt>
      <trkpt lat="43.24628" lon="-4.239185">
        <ele>219.0</ele>
        <time>2018-05-19T09:54:49.846Z</time>
      </trkpt>
      <trkpt lat="43.24628" lon="-4.239185">
        <ele>219.0</ele>
        <time>2018-05-19T09:54:50.872Z</time>
      </trkpt>
      <trkpt lat="43.24617833" lon="-4.23909167">
        <ele>218.0</ele>
        <time>2018-05-19T09:54:51.847Z</time>
      </trkpt>
      <trkpt lat="43.24612167" lon="-4.23904833">
        <ele>218.0</ele>
        <time>2018-05-19T09:54:52.873Z</time>
      </trkpt>
      <trkpt lat="43.24612167" lon="-4.23904833">
        <ele>218.0</ele>
        <time>2018-05-19T09:54:53.862Z</time>
      </trkpt>
      <trkpt lat="43.24601" lon="-4.238975">
        <ele>218.0</ele>
        <time>2018-05-19T09:54:54.871Z</time>
      </trkpt>
      <trkpt lat="43.24601" lon="-4.238975">
        <ele>218.0</ele>
        <time>2018-05-19T09:54:55.875Z</time>
      </trkpt>
      <trkpt lat="43.24590333" lon="-4.23891833">
        <ele>218.0</ele>
        <time>2018-05-19T09:54:56.869Z</time>
      </trkpt>
      <trkpt lat="43.24590333" lon="-4.23891833">
        <ele>218.0</ele>
        <time>2018-05-19T09:54:57.866Z</time>
      </trkpt>
      <trkpt lat="43.24579667" lon="-4.23888667">
        <ele>218.0</ele>
        <time>2018-05-19T09:54:58.872Z</time>
      </trkpt>
      <trkpt lat="43.24579667" lon="-4.23888667">
        <ele>218.0</ele>
        <time>2018-05-19T09:54:59.866Z</time>
      </trkpt>
      <trkpt lat="43.24569333" lon="-4.23887667">
        <ele>218.0</ele>
        <time>2018-05-19T09:55:00.849Z</time>
      </trkpt>
      <trkpt lat="43.24569333" lon="-4.23887667">
        <ele>218.0</ele>
        <time>2018-05-19T09:55:01.874Z</time>
      </trkpt>
      <trkpt lat="43.245585" lon="-4.23888">
        <ele>218.0</ele>
        <time>2018-05-19T09:55:02.871Z</time>
      </trkpt>
      <trkpt lat="43.24553167" lon="-4.23888833">
        <ele>217.0</ele>
        <time>2018-05-19T09:55:03.871Z</time>
      </trkpt>
      <trkpt lat="43.24553167" lon="-4.23888833">
        <ele>217.0</ele>
        <time>2018-05-19T09:55:04.868Z</time>
      </trkpt>
      <trkpt lat="43.245425" lon="-4.23890833">
        <ele>217.0</ele>
        <time>2018-05-19T09:55:05.870Z</time>
      </trkpt>
      <trkpt lat="43.24537" lon="-4.23891833">
        <ele>217.0</ele>
        <time>2018-05-19T09:55:06.871Z</time>
      </trkpt>
      <trkpt lat="43.24537" lon="-4.23891833">
        <ele>217.0</ele>
        <time>2018-05-19T09:55:07.869Z</time>
      </trkpt>
      <trkpt lat="43.24526833" lon="-4.23892167">
        <ele>217.0</ele>
        <time>2018-05-19T09:55:08.872Z</time>
      </trkpt>
      <trkpt lat="43.24526833" lon="-4.23892167">
        <ele>217.0</ele>
        <time>2018-05-19T09:55:09.866Z</time>
      </trkpt>
      <trkpt lat="43.24517" lon="-4.23890333">
        <ele>217.0</ele>
        <time>2018-05-19T09:55:10.872Z</time>
      </trkpt>
      <trkpt lat="43.24517" lon="-4.23890333">
        <ele>217.0</ele>
        <time>2018-05-19T09:55:11.870Z</time>
      </trkpt>
      <trkpt lat="43.24506667" lon="-4.23887">
        <ele>217.0</ele>
        <time>2018-05-19T09:55:12.868Z</time>
      </trkpt>
      <trkpt lat="43.24506667" lon="-4.23887">
        <ele>217.0</ele>
        <time>2018-05-19T09:55:13.862Z</time>
      </trkpt>
      <trkpt lat="43.24497" lon="-4.23881833">
        <ele>218.0</ele>
        <time>2018-05-19T09:55:14.848Z</time>
      </trkpt>
      <trkpt lat="43.24497" lon="-4.23881833">
        <ele>218.0</ele>
        <time>2018-05-19T09:55:15.860Z</time>
      </trkpt>
      <trkpt lat="43.24488333" lon="-4.23874167">
        <ele>218.0</ele>
        <time>2018-05-19T09:55:16.844Z</time>
      </trkpt>
      <trkpt lat="43.24488333" lon="-4.23874167">
        <ele>218.0</ele>
        <time>2018-05-19T09:55:17.869Z</time>
      </trkpt>
      <trkpt lat="43.244805" lon="-4.23864667">
        <ele>219.0</ele>
        <time>2018-05-19T09:55:18.871Z</time>
      </trkpt>
      <trkpt lat="43.244805" lon="-4.23864667">
        <ele>219.0</ele>
        <time>2018-05-19T09:55:19.870Z</time>
      </trkpt>
      <trkpt lat="43.24473" lon="-4.23855">
        <ele>219.0</ele>
        <time>2018-05-19T09:55:20.863Z</time>
      </trkpt>
      <trkpt lat="43.24473" lon="-4.23855">
        <ele>219.0</ele>
        <time>2018-05-19T09:55:21.866Z</time>
      </trkpt>
      <trkpt lat="43.244665" lon="-4.23843167">
        <ele>219.0</ele>
        <time>2018-05-19T09:55:22.868Z</time>
      </trkpt>
      <trkpt lat="43.244665" lon="-4.23843167">
        <ele>219.0</ele>
        <time>2018-05-19T09:55:23.862Z</time>
      </trkpt>
      <trkpt lat="43.24461667" lon="-4.238295">
        <ele>220.0</ele>
        <time>2018-05-19T09:55:24.847Z</time>
      </trkpt>
      <trkpt lat="43.24461667" lon="-4.238295">
        <ele>220.0</ele>
        <time>2018-05-19T09:55:25.876Z</time>
      </trkpt>
      <trkpt lat="43.24457" lon="-4.23815167">
        <ele>220.0</ele>
        <time>2018-05-19T09:55:26.871Z</time>
      </trkpt>
      <trkpt lat="43.24457" lon="-4.23815167">
        <ele>220.0</ele>
        <time>2018-05-19T09:55:27.866Z</time>
      </trkpt>
      <trkpt lat="43.244495" lon="-4.238025">
        <ele>221.0</ele>
        <time>2018-05-19T09:55:28.871Z</time>
      </trkpt>
      <trkpt lat="43.244495" lon="-4.238025">
        <ele>221.0</ele>
        <time>2018-05-19T09:55:29.868Z</time>
      </trkpt>
      <trkpt lat="43.24442333" lon="-4.2379">
        <ele>221.0</ele>
        <time>2018-05-19T09:55:30.871Z</time>
      </trkpt>
      <trkpt lat="43.24442333" lon="-4.2379">
        <ele>221.0</ele>
        <time>2018-05-19T09:55:31.859Z</time>
      </trkpt>
      <trkpt lat="43.24433833" lon="-4.23778833">
        <ele>221.0</ele>
        <time>2018-05-19T09:55:32.845Z</time>
      </trkpt>
      <trkpt lat="43.24433833" lon="-4.23778833">
        <ele>221.0</ele>
        <time>2018-05-19T09:55:33.882Z</time>
      </trkpt>
      <trkpt lat="43.24426" lon="-4.23766833">
        <ele>221.0</ele>
        <time>2018-05-19T09:55:34.872Z</time>
      </trkpt>
      <trkpt lat="43.24426" lon="-4.23766833">
        <ele>221.0</ele>
        <time>2018-05-19T09:55:35.874Z</time>
      </trkpt>
      <trkpt lat="43.24417667" lon="-4.237565">
        <ele>221.0</ele>
        <time>2018-05-19T09:55:36.882Z</time>
      </trkpt>
      <trkpt lat="43.24417667" lon="-4.237565">
        <ele>221.0</ele>
        <time>2018-05-19T09:55:37.868Z</time>
      </trkpt>
      <trkpt lat="43.24408333" lon="-4.237465">
        <ele>221.0</ele>
        <time>2018-05-19T09:55:38.870Z</time>
      </trkpt>
      <trkpt lat="43.24408333" lon="-4.237465">
        <ele>221.0</ele>
        <time>2018-05-19T09:55:39.869Z</time>
      </trkpt>
      <trkpt lat="43.24399" lon="-4.23738">
        <ele>221.0</ele>
        <time>2018-05-19T09:55:40.868Z</time>
      </trkpt>
      <trkpt lat="43.24394667" lon="-4.23734667">
        <ele>221.0</ele>
        <time>2018-05-19T09:55:41.871Z</time>
      </trkpt>
      <trkpt lat="43.24390667" lon="-4.23731667">
        <ele>222.0</ele>
        <time>2018-05-19T09:55:42.870Z</time>
      </trkpt>
      <trkpt lat="43.24390667" lon="-4.23731667">
        <ele>222.0</ele>
        <time>2018-05-19T09:55:43.861Z</time>
      </trkpt>
      <trkpt lat="43.24382167" lon="-4.23725667">
        <ele>222.0</ele>
        <time>2018-05-19T09:55:44.846Z</time>
      </trkpt>
      <trkpt lat="43.24382167" lon="-4.23725667">
        <ele>222.0</ele>
        <time>2018-05-19T09:55:45.847Z</time>
      </trkpt>
      <trkpt lat="43.24374167" lon="-4.23719167">
        <ele>222.0</ele>
        <time>2018-05-19T09:55:46.867Z</time>
      </trkpt>
      <trkpt lat="43.24374167" lon="-4.23719167">
        <ele>222.0</ele>
        <time>2018-05-19T09:55:47.873Z</time>
      </trkpt>
      <trkpt lat="43.24368" lon="-4.23713167">
        <ele>222.0</ele>
        <time>2018-05-19T09:55:48.880Z</time>
      </trkpt>
      <trkpt lat="43.243645" lon="-4.23709333">
        <ele>222.0</ele>
        <time>2018-05-19T09:55:49.870Z</time>
      </trkpt>
      <trkpt lat="43.243645" lon="-4.23709333">
        <ele>222.0</ele>
        <time>2018-05-19T09:55:50.873Z</time>
      </trkpt>
      <trkpt lat="43.24358667" lon="-4.23702167">
        <ele>223.0</ele>
        <time>2018-05-19T09:55:51.846Z</time>
      </trkpt>
      <trkpt lat="43.24356" lon="-4.23699">
        <ele>223.0</ele>
        <time>2018-05-19T09:55:52.873Z</time>
      </trkpt>
      <trkpt lat="43.24356" lon="-4.23699">
        <ele>223.0</ele>
        <time>2018-05-19T09:55:53.862Z</time>
      </trkpt>
      <trkpt lat="43.24350667" lon="-4.23691833">
        <ele>223.0</ele>
        <time>2018-05-19T09:55:54.846Z</time>
      </trkpt>
      <trkpt lat="43.24350667" lon="-4.23691833">
        <ele>223.0</ele>
        <time>2018-05-19T09:55:55.871Z</time>
      </trkpt>
      <trkpt lat="43.243455" lon="-4.236845">
        <ele>224.0</ele>
        <time>2018-05-19T09:55:56.863Z</time>
      </trkpt>
      <trkpt lat="43.24342667" lon="-4.23681">
        <ele>224.0</ele>
        <time>2018-05-19T09:55:57.847Z</time>
      </trkpt>
      <trkpt lat="43.24342667" lon="-4.23681">
        <ele>224.0</ele>
        <time>2018-05-19T09:55:58.872Z</time>
      </trkpt>
      <trkpt lat="43.24338" lon="-4.23674667">
        <ele>224.0</ele>
        <time>2018-05-19T09:55:59.871Z</time>
      </trkpt>
      <trkpt lat="43.24335167" lon="-4.23671667">
        <ele>225.0</ele>
        <time>2018-05-19T09:56:00.870Z</time>
      </trkpt>
      <trkpt lat="43.24335167" lon="-4.23671667">
        <ele>225.0</ele>
        <time>2018-05-19T09:56:01.866Z</time>
      </trkpt>
      <trkpt lat="43.24327167" lon="-4.23665">
        <ele>225.0</ele>
        <time>2018-05-19T09:56:02.872Z</time>
      </trkpt>
      <trkpt lat="43.24323667" lon="-4.23661333">
        <ele>225.0</ele>
        <time>2018-05-19T09:56:03.866Z</time>
      </trkpt>
      <trkpt lat="43.24323667" lon="-4.23661333">
        <ele>225.0</ele>
        <time>2018-05-19T09:56:04.869Z</time>
      </trkpt>
      <trkpt lat="43.24316" lon="-4.236545">
        <ele>225.0</ele>
        <time>2018-05-19T09:56:05.868Z</time>
      </trkpt>
      <trkpt lat="43.24316" lon="-4.236545">
        <ele>225.0</ele>
        <time>2018-05-19T09:56:06.851Z</time>
      </trkpt>
      <trkpt lat="43.24307833" lon="-4.23648833">
        <ele>226.0</ele>
        <time>2018-05-19T09:56:07.873Z</time>
      </trkpt>
      <trkpt lat="43.24307833" lon="-4.23648833">
        <ele>226.0</ele>
        <time>2018-05-19T09:56:08.862Z</time>
      </trkpt>
      <trkpt lat="43.24300167" lon="-4.23645167">
        <ele>226.0</ele>
        <time>2018-05-19T09:56:09.854Z</time>
      </trkpt>
      <trkpt lat="43.24296833" lon="-4.23643167">
        <ele>226.0</ele>
        <time>2018-05-19T09:56:10.847Z</time>
      </trkpt>
      <trkpt lat="43.24296833" lon="-4.23643167">
        <ele>226.0</ele>
        <time>2018-05-19T09:56:11.872Z</time>
      </trkpt>
      <trkpt lat="43.24289833" lon="-4.23638667">
        <ele>227.0</ele>
        <time>2018-05-19T09:56:12.868Z</time>
      </trkpt>
      <trkpt lat="43.24289833" lon="-4.23638667">
        <ele>227.0</ele>
        <time>2018-05-19T09:56:13.876Z</time>
      </trkpt>
      <trkpt lat="43.24284667" lon="-4.236335">
        <ele>227.0</ele>
        <time>2018-05-19T09:56:14.870Z</time>
      </trkpt>
      <trkpt lat="43.24284667" lon="-4.236335">
        <ele>227.0</ele>
        <time>2018-05-19T09:56:15.865Z</time>
      </trkpt>
      <trkpt lat="43.24279" lon="-4.23629167">
        <ele>228.0</ele>
        <time>2018-05-19T09:56:16.869Z</time>
      </trkpt>
      <trkpt lat="43.24279" lon="-4.23629167">
        <ele>228.0</ele>
        <time>2018-05-19T09:56:17.865Z</time>
      </trkpt>
      <trkpt lat="43.24270833" lon="-4.23625667">
        <ele>228.0</ele>
        <time>2018-05-19T09:56:18.868Z</time>
      </trkpt>
      <trkpt lat="43.24270833" lon="-4.23625667">
        <ele>228.0</ele>
        <time>2018-05-19T09:56:19.871Z</time>
      </trkpt>
      <trkpt lat="43.24262667" lon="-4.23623667">
        <ele>229.0</ele>
        <time>2018-05-19T09:56:20.871Z</time>
      </trkpt>
      <trkpt lat="43.24262667" lon="-4.23623667">
        <ele>229.0</ele>
        <time>2018-05-19T09:56:21.866Z</time>
      </trkpt>
      <trkpt lat="43.24254667" lon="-4.23621833">
        <ele>229.0</ele>
        <time>2018-05-19T09:56:22.872Z</time>
      </trkpt>
      <trkpt lat="43.24254667" lon="-4.23621833">
        <ele>229.0</ele>
        <time>2018-05-19T09:56:23.862Z</time>
      </trkpt>
      <trkpt lat="43.24246667" lon="-4.23620167">
        <ele>229.0</ele>
        <time>2018-05-19T09:56:24.846Z</time>
      </trkpt>
      <trkpt lat="43.24246667" lon="-4.23620167">
        <ele>229.0</ele>
        <time>2018-05-19T09:56:25.872Z</time>
      </trkpt>
      <trkpt lat="43.242385" lon="-4.23617667">
        <ele>230.0</ele>
        <time>2018-05-19T09:56:26.871Z</time>
      </trkpt>
      <trkpt lat="43.242385" lon="-4.23617667">
        <ele>230.0</ele>
        <time>2018-05-19T09:56:27.863Z</time>
      </trkpt>
      <trkpt lat="43.24230167" lon="-4.23615167">
        <ele>231.0</ele>
        <time>2018-05-19T09:56:28.847Z</time>
      </trkpt>
      <trkpt lat="43.24230167" lon="-4.23615167">
        <ele>231.0</ele>
        <time>2018-05-19T09:56:29.873Z</time>
      </trkpt>
      <trkpt lat="43.24221333" lon="-4.236125">
        <ele>231.0</ele>
        <time>2018-05-19T09:56:30.870Z</time>
      </trkpt>
      <trkpt lat="43.24221333" lon="-4.236125">
        <ele>231.0</ele>
        <time>2018-05-19T09:56:31.865Z</time>
      </trkpt>
      <trkpt lat="43.24215" lon="-4.23607">
        <ele>232.0</ele>
        <time>2018-05-19T09:56:32.872Z</time>
      </trkpt>
      <trkpt lat="43.24215" lon="-4.23607">
        <ele>232.0</ele>
        <time>2018-05-19T09:56:33.861Z</time>
      </trkpt>
      <trkpt lat="43.24205333" lon="-4.23601667">
        <ele>232.0</ele>
        <time>2018-05-19T09:56:34.871Z</time>
      </trkpt>
      <trkpt lat="43.24205333" lon="-4.23601667">
        <ele>232.0</ele>
        <time>2018-05-19T09:56:35.866Z</time>
      </trkpt>
      <trkpt lat="43.24195667" lon="-4.235965">
        <ele>233.0</ele>
        <time>2018-05-19T09:56:36.870Z</time>
      </trkpt>
      <trkpt lat="43.24195667" lon="-4.235965">
        <ele>233.0</ele>
        <time>2018-05-19T09:56:37.865Z</time>
      </trkpt>
      <trkpt lat="43.24183167" lon="-4.23591667">
        <ele>233.0</ele>
        <time>2018-05-19T09:56:38.871Z</time>
      </trkpt>
      <trkpt lat="43.24183167" lon="-4.23591667">
        <ele>233.0</ele>
        <time>2018-05-19T09:56:39.868Z</time>
      </trkpt>
      <trkpt lat="43.24172333" lon="-4.235845">
        <ele>233.0</ele>
        <time>2018-05-19T09:56:40.864Z</time>
      </trkpt>
      <trkpt lat="43.24172333" lon="-4.235845">
        <ele>233.0</ele>
        <time>2018-05-19T09:56:41.865Z</time>
      </trkpt>
      <trkpt lat="43.24162333" lon="-4.23575833">
        <ele>234.0</ele>
        <time>2018-05-19T09:56:42.871Z</time>
      </trkpt>
      <trkpt lat="43.24162333" lon="-4.23575833">
        <ele>234.0</ele>
        <time>2018-05-19T09:56:43.861Z</time>
      </trkpt>
      <trkpt lat="43.24153167" lon="-4.23565167">
        <ele>234.0</ele>
        <time>2018-05-19T09:56:44.846Z</time>
      </trkpt>
      <trkpt lat="43.24153167" lon="-4.23565167">
        <ele>234.0</ele>
        <time>2018-05-19T09:56:45.865Z</time>
      </trkpt>
      <trkpt lat="43.24145833" lon="-4.23552667">
        <ele>235.0</ele>
        <time>2018-05-19T09:56:46.856Z</time>
      </trkpt>
      <trkpt lat="43.241425" lon="-4.23546">
        <ele>235.0</ele>
        <time>2018-05-19T09:56:47.863Z</time>
      </trkpt>
      <trkpt lat="43.241425" lon="-4.23546">
        <ele>235.0</ele>
        <time>2018-05-19T09:56:48.869Z</time>
      </trkpt>
      <trkpt lat="43.241355" lon="-4.23533333">
        <ele>236.0</ele>
        <time>2018-05-19T09:56:49.847Z</time>
      </trkpt>
      <trkpt lat="43.241355" lon="-4.23533333">
        <ele>236.0</ele>
        <time>2018-05-19T09:56:50.872Z</time>
      </trkpt>
      <trkpt lat="43.241295" lon="-4.23522">
        <ele>236.0</ele>
        <time>2018-05-19T09:56:51.868Z</time>
      </trkpt>
      <trkpt lat="43.24126833" lon="-4.23516">
        <ele>237.0</ele>
        <time>2018-05-19T09:56:52.872Z</time>
      </trkpt>
      <trkpt lat="43.24126833" lon="-4.23516">
        <ele>237.0</ele>
        <time>2018-05-19T09:56:53.862Z</time>
      </trkpt>
      <trkpt lat="43.24123167" lon="-4.23502333">
        <ele>237.0</ele>
        <time>2018-05-19T09:56:54.871Z</time>
      </trkpt>
      <trkpt lat="43.24123167" lon="-4.23502333">
        <ele>237.0</ele>
        <time>2018-05-19T09:56:55.867Z</time>
      </trkpt>
      <trkpt lat="43.241215" lon="-4.23488667">
        <ele>238.0</ele>
        <time>2018-05-19T09:56:56.869Z</time>
      </trkpt>
      <trkpt lat="43.241215" lon="-4.23488667">
        <ele>238.0</ele>
        <time>2018-05-19T09:56:57.868Z</time>
      </trkpt>
      <trkpt lat="43.24120667" lon="-4.234765">
        <ele>239.0</ele>
        <time>2018-05-19T09:56:58.872Z</time>
      </trkpt>
      <trkpt lat="43.24120667" lon="-4.234765">
        <ele>239.0</ele>
        <time>2018-05-19T09:56:59.869Z</time>
      </trkpt>
      <trkpt lat="43.2412" lon="-4.23463667">
        <ele>240.0</ele>
        <time>2018-05-19T09:57:00.871Z</time>
      </trkpt>
      <trkpt lat="43.2412" lon="-4.23463667">
        <ele>240.0</ele>
        <time>2018-05-19T09:57:01.868Z</time>
      </trkpt>
      <trkpt lat="43.24120333" lon="-4.23449667">
        <ele>240.0</ele>
        <time>2018-05-19T09:57:02.871Z</time>
      </trkpt>
      <trkpt lat="43.24120333" lon="-4.23449667">
        <ele>240.0</ele>
        <time>2018-05-19T09:57:03.860Z</time>
      </trkpt>
      <trkpt lat="43.24116667" lon="-4.234345">
        <ele>241.0</ele>
        <time>2018-05-19T09:57:04.847Z</time>
      </trkpt>
      <trkpt lat="43.24115167" lon="-4.23427333">
        <ele>241.0</ele>
        <time>2018-05-19T09:57:05.874Z</time>
      </trkpt>
      <trkpt lat="43.24115167" lon="-4.23427333">
        <ele>241.0</ele>
        <time>2018-05-19T09:57:06.868Z</time>
      </trkpt>
      <trkpt lat="43.24114833" lon="-4.23413">
        <ele>242.0</ele>
        <time>2018-05-19T09:57:07.871Z</time>
      </trkpt>
      <trkpt lat="43.24113333" lon="-4.23405667">
        <ele>242.0</ele>
        <time>2018-05-19T09:57:08.871Z</time>
      </trkpt>
      <trkpt lat="43.24113333" lon="-4.23405667">
        <ele>242.0</ele>
        <time>2018-05-19T09:57:09.866Z</time>
      </trkpt>
      <trkpt lat="43.24112833" lon="-4.23391833">
        <ele>243.0</ele>
        <time>2018-05-19T09:57:10.883Z</time>
      </trkpt>
      <trkpt lat="43.24112833" lon="-4.23391833">
        <ele>243.0</ele>
        <time>2018-05-19T09:57:11.868Z</time>
      </trkpt>
      <trkpt lat="43.24111667" lon="-4.23378167">
        <ele>243.0</ele>
        <time>2018-05-19T09:57:12.871Z</time>
      </trkpt>
      <trkpt lat="43.24111667" lon="-4.23378167">
        <ele>243.0</ele>
        <time>2018-05-19T09:57:13.862Z</time>
      </trkpt>
      <trkpt lat="43.24110167" lon="-4.23363333">
        <ele>244.0</ele>
        <time>2018-05-19T09:57:14.868Z</time>
      </trkpt>
      <trkpt lat="43.24110333" lon="-4.23356333">
        <ele>244.0</ele>
        <time>2018-05-19T09:57:15.872Z</time>
      </trkpt>
      <trkpt lat="43.241085" lon="-4.233485">
        <ele>244.0</ele>
        <time>2018-05-19T09:57:16.846Z</time>
      </trkpt>
      <trkpt lat="43.241085" lon="-4.233485">
        <ele>244.0</ele>
        <time>2018-05-19T09:57:17.868Z</time>
      </trkpt>
      <trkpt lat="43.24106333" lon="-4.233335">
        <ele>245.0</ele>
        <time>2018-05-19T09:57:18.846Z</time>
      </trkpt>
      <trkpt lat="43.24106333" lon="-4.233335">
        <ele>245.0</ele>
        <time>2018-05-19T09:57:19.871Z</time>
      </trkpt>
      <trkpt lat="43.241065" lon="-4.23319">
        <ele>246.0</ele>
        <time>2018-05-19T09:57:20.872Z</time>
      </trkpt>
      <trkpt lat="43.241065" lon="-4.23319">
        <ele>246.0</ele>
        <time>2018-05-19T09:57:21.875Z</time>
      </trkpt>
      <trkpt lat="43.24106833" lon="-4.23304167">
        <ele>247.0</ele>
        <time>2018-05-19T09:57:22.873Z</time>
      </trkpt>
      <trkpt lat="43.24106833" lon="-4.23304167">
        <ele>247.0</ele>
        <time>2018-05-19T09:57:23.866Z</time>
      </trkpt>
      <trkpt lat="43.24108333" lon="-4.232885">
        <ele>248.0</ele>
        <time>2018-05-19T09:57:24.872Z</time>
      </trkpt>
      <trkpt lat="43.24108333" lon="-4.232885">
        <ele>248.0</ele>
        <time>2018-05-19T09:57:25.869Z</time>
      </trkpt>
      <trkpt lat="43.24108833" lon="-4.23273333">
        <ele>248.0</ele>
        <time>2018-05-19T09:57:26.871Z</time>
      </trkpt>
      <trkpt lat="43.24108833" lon="-4.23273333">
        <ele>248.0</ele>
        <time>2018-05-19T09:57:27.866Z</time>
      </trkpt>
      <trkpt lat="43.24106667" lon="-4.23257">
        <ele>249.0</ele>
        <time>2018-05-19T09:57:28.869Z</time>
      </trkpt>
      <trkpt lat="43.24106667" lon="-4.23257">
        <ele>249.0</ele>
        <time>2018-05-19T09:57:29.868Z</time>
      </trkpt>
      <trkpt lat="43.241045" lon="-4.23241667">
        <ele>249.0</ele>
        <time>2018-05-19T09:57:30.871Z</time>
      </trkpt>
      <trkpt lat="43.241045" lon="-4.23241667">
        <ele>249.0</ele>
        <time>2018-05-19T09:57:31.865Z</time>
      </trkpt>
      <trkpt lat="43.24100667" lon="-4.23226333">
        <ele>249.0</ele>
        <time>2018-05-19T09:57:32.874Z</time>
      </trkpt>
      <trkpt lat="43.24100667" lon="-4.23226333">
        <ele>249.0</ele>
        <time>2018-05-19T09:57:33.862Z</time>
      </trkpt>
      <trkpt lat="43.24091333" lon="-4.23215167">
        <ele>250.0</ele>
        <time>2018-05-19T09:57:34.872Z</time>
      </trkpt>
      <trkpt lat="43.24091333" lon="-4.23215167">
        <ele>250.0</ele>
        <time>2018-05-19T09:57:35.865Z</time>
      </trkpt>
      <trkpt lat="43.24080333" lon="-4.232075">
        <ele>250.0</ele>
        <time>2018-05-19T09:57:36.868Z</time>
      </trkpt>
      <trkpt lat="43.24080333" lon="-4.232075">
        <ele>250.0</ele>
        <time>2018-05-19T09:57:37.868Z</time>
      </trkpt>
      <trkpt lat="43.24069833" lon="-4.23201167">
        <ele>251.0</ele>
        <time>2018-05-19T09:57:38.870Z</time>
      </trkpt>
      <trkpt lat="43.24069833" lon="-4.23201167">
        <ele>251.0</ele>
        <time>2018-05-19T09:57:39.865Z</time>
      </trkpt>
      <trkpt lat="43.24060667" lon="-4.23195333">
        <ele>251.0</ele>
        <time>2018-05-19T09:57:40.862Z</time>
      </trkpt>
      <trkpt lat="43.24060667" lon="-4.23195333">
        <ele>251.0</ele>
        <time>2018-05-19T09:57:41.865Z</time>
      </trkpt>
      <trkpt lat="43.24052167" lon="-4.23189833">
        <ele>252.0</ele>
        <time>2018-05-19T09:57:42.866Z</time>
      </trkpt>
      <trkpt lat="43.24052167" lon="-4.23189833">
        <ele>252.0</ele>
        <time>2018-05-19T09:57:43.860Z</time>
      </trkpt>
      <trkpt lat="43.24042833" lon="-4.23184833">
        <ele>252.0</ele>
        <time>2018-05-19T09:57:44.870Z</time>
      </trkpt>
      <trkpt lat="43.24042833" lon="-4.23184833">
        <ele>252.0</ele>
        <time>2018-05-19T09:57:45.867Z</time>
      </trkpt>
      <trkpt lat="43.24032833" lon="-4.23180333">
        <ele>253.0</ele>
        <time>2018-05-19T09:57:46.880Z</time>
      </trkpt>
      <trkpt lat="43.24032833" lon="-4.23180333">
        <ele>253.0</ele>
        <time>2018-05-19T09:57:47.846Z</time>
      </trkpt>
      <trkpt lat="43.24022833" lon="-4.23176167">
        <ele>253.0</ele>
        <time>2018-05-19T09:57:48.861Z</time>
      </trkpt>
      <trkpt lat="43.24018167" lon="-4.23174167">
        <ele>254.0</ele>
        <time>2018-05-19T09:57:49.854Z</time>
      </trkpt>
      <trkpt lat="43.24013667" lon="-4.23173">
        <ele>254.0</ele>
        <time>2018-05-19T09:57:50.881Z</time>
      </trkpt>
      <trkpt lat="43.24013667" lon="-4.23173">
        <ele>254.0</ele>
        <time>2018-05-19T09:57:51.867Z</time>
      </trkpt>
      <trkpt lat="43.24004667" lon="-4.23171833">
        <ele>254.0</ele>
        <time>2018-05-19T09:57:52.872Z</time>
      </trkpt>
      <trkpt lat="43.24004667" lon="-4.23171833">
        <ele>254.0</ele>
        <time>2018-05-19T09:57:53.862Z</time>
      </trkpt>
      <trkpt lat="43.23995833" lon="-4.23173333">
        <ele>255.0</ele>
        <time>2018-05-19T09:57:54.869Z</time>
      </trkpt>
      <trkpt lat="43.23995833" lon="-4.23173333">
        <ele>255.0</ele>
        <time>2018-05-19T09:57:55.875Z</time>
      </trkpt>
      <trkpt lat="43.239865" lon="-4.23175333">
        <ele>255.0</ele>
        <time>2018-05-19T09:57:56.868Z</time>
      </trkpt>
      <trkpt lat="43.239865" lon="-4.23175333">
        <ele>255.0</ele>
        <time>2018-05-19T09:57:57.870Z</time>
      </trkpt>
      <trkpt lat="43.23977833" lon="-4.23178">
        <ele>256.0</ele>
        <time>2018-05-19T09:57:58.872Z</time>
      </trkpt>
      <trkpt lat="43.23977833" lon="-4.23178">
        <ele>256.0</ele>
        <time>2018-05-19T09:57:59.868Z</time>
      </trkpt>
      <trkpt lat="43.2397" lon="-4.23180667">
        <ele>257.0</ele>
        <time>2018-05-19T09:58:00.868Z</time>
      </trkpt>
      <trkpt lat="43.2397" lon="-4.23180667">
        <ele>257.0</ele>
        <time>2018-05-19T09:58:01.866Z</time>
      </trkpt>
      <trkpt lat="43.23960833" lon="-4.23183">
        <ele>257.0</ele>
        <time>2018-05-19T09:58:02.870Z</time>
      </trkpt>
      <trkpt lat="43.23960833" lon="-4.23183">
        <ele>257.0</ele>
        <time>2018-05-19T09:58:03.858Z</time>
      </trkpt>
      <trkpt lat="43.23952667" lon="-4.23182333">
        <ele>258.0</ele>
        <time>2018-05-19T09:58:04.844Z</time>
      </trkpt>
      <trkpt lat="43.23952667" lon="-4.23182333">
        <ele>258.0</ele>
        <time>2018-05-19T09:58:05.867Z</time>
      </trkpt>
      <trkpt lat="43.23944333" lon="-4.2318">
        <ele>258.0</ele>
        <time>2018-05-19T09:58:06.871Z</time>
      </trkpt>
      <trkpt lat="43.23944333" lon="-4.2318">
        <ele>258.0</ele>
        <time>2018-05-19T09:58:07.866Z</time>
      </trkpt>
      <trkpt lat="43.23936333" lon="-4.23175333">
        <ele>258.0</ele>
        <time>2018-05-19T09:58:08.868Z</time>
      </trkpt>
      <trkpt lat="43.23932667" lon="-4.231725">
        <ele>259.0</ele>
        <time>2018-05-19T09:58:09.871Z</time>
      </trkpt>
      <trkpt lat="43.23932667" lon="-4.231725">
        <ele>259.0</ele>
        <time>2018-05-19T09:58:10.869Z</time>
      </trkpt>
      <trkpt lat="43.23927333" lon="-4.23164">
        <ele>259.0</ele>
        <time>2018-05-19T09:58:11.871Z</time>
      </trkpt>
      <trkpt lat="43.23925667" lon="-4.23158667">
        <ele>259.0</ele>
        <time>2018-05-19T09:58:12.868Z</time>
      </trkpt>
      <trkpt lat="43.23925667" lon="-4.23158667">
        <ele>259.0</ele>
        <time>2018-05-19T09:58:13.861Z</time>
      </trkpt>
      <trkpt lat="43.2392" lon="-4.23146333">
        <ele>259.0</ele>
        <time>2018-05-19T09:58:14.871Z</time>
      </trkpt>
      <trkpt lat="43.23918333" lon="-4.231405">
        <ele>260.0</ele>
        <time>2018-05-19T09:58:15.869Z</time>
      </trkpt>
      <trkpt lat="43.23918333" lon="-4.231405">
        <ele>260.0</ele>
        <time>2018-05-19T09:58:16.858Z</time>
      </trkpt>
      <trkpt lat="43.23917333" lon="-4.23127333">
        <ele>260.0</ele>
        <time>2018-05-19T09:58:17.868Z</time>
      </trkpt>
      <trkpt lat="43.23916833" lon="-4.23120333">
        <ele>260.0</ele>
        <time>2018-05-19T09:58:18.871Z</time>
      </trkpt>
      <trkpt lat="43.23916833" lon="-4.23120333">
        <ele>260.0</ele>
        <time>2018-05-19T09:58:19.868Z</time>
      </trkpt>
      <trkpt lat="43.23914833" lon="-4.23105667">
        <ele>260.0</ele>
        <time>2018-05-19T09:58:20.872Z</time>
      </trkpt>
      <trkpt lat="43.23915333" lon="-4.23098333">
        <ele>260.0</ele>
        <time>2018-05-19T09:58:21.857Z</time>
      </trkpt>
      <trkpt lat="43.23915333" lon="-4.23098333">
        <ele>260.0</ele>
        <time>2018-05-19T09:58:22.844Z</time>
      </trkpt>
      <trkpt lat="43.23913833" lon="-4.23083833">
        <ele>261.0</ele>
        <time>2018-05-19T09:58:23.874Z</time>
      </trkpt>
      <trkpt lat="43.239145" lon="-4.23075833">
        <ele>261.0</ele>
        <time>2018-05-19T09:58:24.870Z</time>
      </trkpt>
      <trkpt lat="43.239145" lon="-4.23075833">
        <ele>261.0</ele>
        <time>2018-05-19T09:58:25.865Z</time>
      </trkpt>
      <trkpt lat="43.23915667" lon="-4.23060167">
        <ele>261.0</ele>
        <time>2018-05-19T09:58:26.870Z</time>
      </trkpt>
      <trkpt lat="43.23915667" lon="-4.23060167">
        <ele>261.0</ele>
        <time>2018-05-19T09:58:27.865Z</time>
      </trkpt>
      <trkpt lat="43.23911833" lon="-4.23044333">
        <ele>261.0</ele>
        <time>2018-05-19T09:58:28.872Z</time>
      </trkpt>
      <trkpt lat="43.23911833" lon="-4.23044333">
        <ele>261.0</ele>
        <time>2018-05-19T09:58:29.866Z</time>
      </trkpt>
      <trkpt lat="43.2391" lon="-4.23029">
        <ele>261.0</ele>
        <time>2018-05-19T09:58:30.869Z</time>
      </trkpt>
      <trkpt lat="43.2391" lon="-4.23029">
        <ele>261.0</ele>
        <time>2018-05-19T09:58:31.868Z</time>
      </trkpt>
      <trkpt lat="43.23906667" lon="-4.23015">
        <ele>261.0</ele>
        <time>2018-05-19T09:58:32.871Z</time>
      </trkpt>
      <trkpt lat="43.23906667" lon="-4.23015">
        <ele>261.0</ele>
        <time>2018-05-19T09:58:33.860Z</time>
      </trkpt>
      <trkpt lat="43.23903167" lon="-4.23001667">
        <ele>262.0</ele>
        <time>2018-05-19T09:58:34.872Z</time>
      </trkpt>
      <trkpt lat="43.23902667" lon="-4.22993667">
        <ele>262.0</ele>
        <time>2018-05-19T09:58:35.870Z</time>
      </trkpt>
      <trkpt lat="43.23902667" lon="-4.22993667">
        <ele>262.0</ele>
        <time>2018-05-19T09:58:36.868Z</time>
      </trkpt>
      <trkpt lat="43.23901333" lon="-4.22978667">
        <ele>262.0</ele>
        <time>2018-05-19T09:58:37.868Z</time>
      </trkpt>
      <trkpt lat="43.23901333" lon="-4.22978667">
        <ele>262.0</ele>
        <time>2018-05-19T09:58:38.865Z</time>
      </trkpt>
      <trkpt lat="43.23898667" lon="-4.22966167">
        <ele>262.0</ele>
        <time>2018-05-19T09:58:39.868Z</time>
      </trkpt>
      <trkpt lat="43.23898667" lon="-4.22966167">
        <ele>262.0</ele>
        <time>2018-05-19T09:58:40.858Z</time>
      </trkpt>
      <trkpt lat="43.23894667" lon="-4.22952">
        <ele>262.0</ele>
        <time>2018-05-19T09:58:41.844Z</time>
      </trkpt>
      <trkpt lat="43.23894" lon="-4.22945667">
        <ele>262.0</ele>
        <time>2018-05-19T09:58:42.872Z</time>
      </trkpt>
      <trkpt lat="43.23894" lon="-4.22945667">
        <ele>262.0</ele>
        <time>2018-05-19T09:58:43.860Z</time>
      </trkpt>
      <trkpt lat="43.23892167" lon="-4.22933333">
        <ele>262.0</ele>
        <time>2018-05-19T09:58:44.871Z</time>
      </trkpt>
      <trkpt lat="43.23892167" lon="-4.22933333">
        <ele>262.0</ele>
        <time>2018-05-19T09:58:45.847Z</time>
      </trkpt>
      <trkpt lat="43.23891167" lon="-4.22922167">
        <ele>262.0</ele>
        <time>2018-05-19T09:58:46.882Z</time>
      </trkpt>
      <trkpt lat="43.23891167" lon="-4.22922167">
        <ele>262.0</ele>
        <time>2018-05-19T09:58:47.848Z</time>
      </trkpt>
      <trkpt lat="43.23887" lon="-4.22910167">
        <ele>262.0</ele>
        <time>2018-05-19T09:58:48.858Z</time>
      </trkpt>
      <trkpt lat="43.23886333" lon="-4.22904667">
        <ele>262.0</ele>
        <time>2018-05-19T09:58:49.847Z</time>
      </trkpt>
      <trkpt lat="43.23886333" lon="-4.22904667">
        <ele>262.0</ele>
        <time>2018-05-19T09:58:50.872Z</time>
      </trkpt>
      <trkpt lat="43.23880333" lon="-4.22893833">
        <ele>263.0</ele>
        <time>2018-05-19T09:58:51.870Z</time>
      </trkpt>
      <trkpt lat="43.23880333" lon="-4.22893833">
        <ele>263.0</ele>
        <time>2018-05-19T09:58:52.866Z</time>
      </trkpt>
      <trkpt lat="43.23877833" lon="-4.22880833">
        <ele>263.0</ele>
        <time>2018-05-19T09:58:53.862Z</time>
      </trkpt>
      <trkpt lat="43.23876" lon="-4.22875167">
        <ele>263.0</ele>
        <time>2018-05-19T09:58:54.871Z</time>
      </trkpt>
      <trkpt lat="43.23876" lon="-4.22875167">
        <ele>263.0</ele>
        <time>2018-05-19T09:58:55.870Z</time>
      </trkpt>
      <trkpt lat="43.23875667" lon="-4.228575">
        <ele>263.0</ele>
        <time>2018-05-19T09:58:56.868Z</time>
      </trkpt>
      <trkpt lat="43.23875667" lon="-4.228575">
        <ele>263.0</ele>
        <time>2018-05-19T09:58:57.874Z</time>
      </trkpt>
      <trkpt lat="43.23875833" lon="-4.228405">
        <ele>263.0</ele>
        <time>2018-05-19T09:58:58.872Z</time>
      </trkpt>
      <trkpt lat="43.23875833" lon="-4.228405">
        <ele>263.0</ele>
        <time>2018-05-19T09:58:59.866Z</time>
      </trkpt>
      <trkpt lat="43.23878333" lon="-4.228245">
        <ele>264.0</ele>
        <time>2018-05-19T09:59:00.870Z</time>
      </trkpt>
      <trkpt lat="43.23878333" lon="-4.228245">
        <ele>264.0</ele>
        <time>2018-05-19T09:59:01.868Z</time>
      </trkpt>
      <trkpt lat="43.23881333" lon="-4.22810833">
        <ele>264.0</ele>
        <time>2018-05-19T09:59:02.871Z</time>
      </trkpt>
      <trkpt lat="43.23881333" lon="-4.22810833">
        <ele>264.0</ele>
        <time>2018-05-19T09:59:03.861Z</time>
      </trkpt>
      <trkpt lat="43.23882667" lon="-4.22799667">
        <ele>264.0</ele>
        <time>2018-05-19T09:59:04.847Z</time>
      </trkpt>
      <trkpt lat="43.23882667" lon="-4.22799667">
        <ele>264.0</ele>
        <time>2018-05-19T09:59:05.872Z</time>
      </trkpt>
      <trkpt lat="43.238805" lon="-4.22787333">
        <ele>264.0</ele>
        <time>2018-05-19T09:59:06.871Z</time>
      </trkpt>
      <trkpt lat="43.238805" lon="-4.22787333">
        <ele>264.0</ele>
        <time>2018-05-19T09:59:07.874Z</time>
      </trkpt>
      <trkpt lat="43.23879167" lon="-4.227735">
        <ele>264.0</ele>
        <time>2018-05-19T09:59:08.869Z</time>
      </trkpt>
      <trkpt lat="43.23879167" lon="-4.227735">
        <ele>264.0</ele>
        <time>2018-05-19T09:59:09.865Z</time>
      </trkpt>
      <trkpt lat="43.23874333" lon="-4.22762667">
        <ele>264.0</ele>
        <time>2018-05-19T09:59:10.873Z</time>
      </trkpt>
      <trkpt lat="43.23874333" lon="-4.22762667">
        <ele>264.0</ele>
        <time>2018-05-19T09:59:11.866Z</time>
      </trkpt>
      <trkpt lat="43.23869333" lon="-4.22753833">
        <ele>265.0</ele>
        <time>2018-05-19T09:59:12.868Z</time>
      </trkpt>
      <trkpt lat="43.23869333" lon="-4.22753833">
        <ele>265.0</ele>
        <time>2018-05-19T09:59:13.861Z</time>
      </trkpt>
      <trkpt lat="43.23865" lon="-4.22743333">
        <ele>265.0</ele>
        <time>2018-05-19T09:59:14.846Z</time>
      </trkpt>
      <trkpt lat="43.23865" lon="-4.22743333">
        <ele>265.0</ele>
        <time>2018-05-19T09:59:15.871Z</time>
      </trkpt>
      <trkpt lat="43.238565" lon="-4.22731833">
        <ele>265.0</ele>
        <time>2018-05-19T09:59:16.869Z</time>
      </trkpt>
      <trkpt lat="43.238565" lon="-4.22731833">
        <ele>265.0</ele>
        <time>2018-05-19T09:59:17.854Z</time>
      </trkpt>
      <trkpt lat="43.23847833" lon="-4.22722">
        <ele>266.0</ele>
        <time>2018-05-19T09:59:18.880Z</time>
      </trkpt>
      <trkpt lat="43.23847833" lon="-4.22722">
        <ele>266.0</ele>
        <time>2018-05-19T09:59:19.866Z</time>
      </trkpt>
      <trkpt lat="43.23838833" lon="-4.22712167">
        <ele>266.0</ele>
        <time>2018-05-19T09:59:20.873Z</time>
      </trkpt>
      <trkpt lat="43.23838833" lon="-4.22712167">
        <ele>266.0</ele>
        <time>2018-05-19T09:59:21.865Z</time>
      </trkpt>
      <trkpt lat="43.2383" lon="-4.22700667">
        <ele>266.0</ele>
        <time>2018-05-19T09:59:22.872Z</time>
      </trkpt>
      <trkpt lat="43.2383" lon="-4.22700667">
        <ele>266.0</ele>
        <time>2018-05-19T09:59:23.866Z</time>
      </trkpt>
      <trkpt lat="43.23823" lon="-4.22691833">
        <ele>267.0</ele>
        <time>2018-05-19T09:59:24.869Z</time>
      </trkpt>
      <trkpt lat="43.23823" lon="-4.22691833">
        <ele>267.0</ele>
        <time>2018-05-19T09:59:25.863Z</time>
      </trkpt>
      <trkpt lat="43.23817333" lon="-4.22682167">
        <ele>267.0</ele>
        <time>2018-05-19T09:59:26.871Z</time>
      </trkpt>
      <trkpt lat="43.23815667" lon="-4.22677333">
        <ele>267.0</ele>
        <time>2018-05-19T09:59:27.874Z</time>
      </trkpt>
      <trkpt lat="43.23812" lon="-4.22672167">
        <ele>267.0</ele>
        <time>2018-05-19T09:59:28.870Z</time>
      </trkpt>
      <trkpt lat="43.23812" lon="-4.22672167">
        <ele>267.0</ele>
        <time>2018-05-19T09:59:29.866Z</time>
      </trkpt>
      <trkpt lat="43.23804333" lon="-4.22665">
        <ele>268.0</ele>
        <time>2018-05-19T09:59:30.868Z</time>
      </trkpt>
      <trkpt lat="43.23804333" lon="-4.22665">
        <ele>268.0</ele>
        <time>2018-05-19T09:59:31.862Z</time>
      </trkpt>
      <trkpt lat="43.23799" lon="-4.226565">
        <ele>268.0</ele>
        <time>2018-05-19T09:59:32.871Z</time>
      </trkpt>
      <trkpt lat="43.23799" lon="-4.226565">
        <ele>268.0</ele>
        <time>2018-05-19T09:59:33.861Z</time>
      </trkpt>
      <trkpt lat="43.23791833" lon="-4.22647167">
        <ele>268.0</ele>
        <time>2018-05-19T09:59:34.846Z</time>
      </trkpt>
      <trkpt lat="43.23791833" lon="-4.22647167">
        <ele>268.0</ele>
        <time>2018-05-19T09:59:35.844Z</time>
      </trkpt>
      <trkpt lat="43.23784667" lon="-4.226395">
        <ele>268.0</ele>
        <time>2018-05-19T09:59:36.868Z</time>
      </trkpt>
      <trkpt lat="43.23784667" lon="-4.226395">
        <ele>268.0</ele>
        <time>2018-05-19T09:59:37.864Z</time>
      </trkpt>
      <trkpt lat="43.23777" lon="-4.22631">
        <ele>268.0</ele>
        <time>2018-05-19T09:59:38.871Z</time>
      </trkpt>
      <trkpt lat="43.23773333" lon="-4.22627333">
        <ele>268.0</ele>
        <time>2018-05-19T09:59:39.869Z</time>
      </trkpt>
      <trkpt lat="43.23773333" lon="-4.22627333">
        <ele>268.0</ele>
        <time>2018-05-19T09:59:40.866Z</time>
      </trkpt>
      <trkpt lat="43.23767333" lon="-4.226195">
        <ele>269.0</ele>
        <time>2018-05-19T09:59:41.872Z</time>
      </trkpt>
      <trkpt lat="43.23767333" lon="-4.226195">
        <ele>269.0</ele>
        <time>2018-05-19T09:59:42.868Z</time>
      </trkpt>
      <trkpt lat="43.23759833" lon="-4.22614167">
        <ele>269.0</ele>
        <time>2018-05-19T09:59:43.862Z</time>
      </trkpt>
      <trkpt lat="43.23759833" lon="-4.22614167">
        <ele>269.0</ele>
        <time>2018-05-19T09:59:44.865Z</time>
      </trkpt>
      <trkpt lat="43.237545" lon="-4.22609167">
        <ele>269.0</ele>
        <time>2018-05-19T09:59:45.876Z</time>
      </trkpt>
      <trkpt lat="43.23751167" lon="-4.22606333">
        <ele>269.0</ele>
        <time>2018-05-19T09:59:46.878Z</time>
      </trkpt>
      <trkpt lat="43.23751167" lon="-4.22606333">
        <ele>269.0</ele>
        <time>2018-05-19T09:59:47.844Z</time>
      </trkpt>
      <trkpt lat="43.23744667" lon="-4.226">
        <ele>270.0</ele>
        <time>2018-05-19T09:59:48.866Z</time>
      </trkpt>
      <trkpt lat="43.23741" lon="-4.22597333">
        <ele>270.0</ele>
        <time>2018-05-19T09:59:49.868Z</time>
      </trkpt>
      <trkpt lat="43.23741" lon="-4.22597333">
        <ele>270.0</ele>
        <time>2018-05-19T09:59:50.865Z</time>
      </trkpt>
      <trkpt lat="43.23731" lon="-4.22594167">
        <ele>269.0</ele>
        <time>2018-05-19T09:59:51.871Z</time>
      </trkpt>
      <trkpt lat="43.237265" lon="-4.22592167">
        <ele>269.0</ele>
        <time>2018-05-19T09:59:52.872Z</time>
      </trkpt>
      <trkpt lat="43.237265" lon="-4.22592167">
        <ele>269.0</ele>
        <time>2018-05-19T09:59:53.860Z</time>
      </trkpt>
      <trkpt lat="43.237175" lon="-4.22589333">
        <ele>269.0</ele>
        <time>2018-05-19T09:59:54.868Z</time>
      </trkpt>
      <trkpt lat="43.23712333" lon="-4.22589">
        <ele>269.0</ele>
        <time>2018-05-19T09:59:55.870Z</time>
      </trkpt>
      <trkpt lat="43.23712333" lon="-4.22589">
        <ele>269.0</ele>
        <time>2018-05-19T09:59:56.865Z</time>
      </trkpt>
      <trkpt lat="43.23702667" lon="-4.22586167">
        <ele>269.0</ele>
        <time>2018-05-19T09:59:57.868Z</time>
      </trkpt>
      <trkpt lat="43.23702667" lon="-4.22586167">
        <ele>269.0</ele>
        <time>2018-05-19T09:59:58.866Z</time>
      </trkpt>
      <trkpt lat="43.236935" lon="-4.22582667">
        <ele>269.0</ele>
        <time>2018-05-19T09:59:59.870Z</time>
      </trkpt>
      <trkpt lat="43.23689333" lon="-4.22581667">
        <ele>269.0</ele>
        <time>2018-05-19T10:00:00.871Z</time>
      </trkpt>
      <trkpt lat="43.23689333" lon="-4.22581667">
        <ele>269.0</ele>
        <time>2018-05-19T10:00:01.865Z</time>
      </trkpt>
      <trkpt lat="43.23681" lon="-4.22579">
        <ele>269.0</ele>
        <time>2018-05-19T10:00:02.869Z</time>
      </trkpt>
      <trkpt lat="43.23681" lon="-4.22579">
        <ele>269.0</ele>
        <time>2018-05-19T10:00:03.860Z</time>
      </trkpt>
      <trkpt lat="43.23672833" lon="-4.225765">
        <ele>269.0</ele>
        <time>2018-05-19T10:00:04.847Z</time>
      </trkpt>
      <trkpt lat="43.23672833" lon="-4.225765">
        <ele>269.0</ele>
        <time>2018-05-19T10:00:05.872Z</time>
      </trkpt>
      <trkpt lat="43.23664833" lon="-4.225745">
        <ele>269.0</ele>
        <time>2018-05-19T10:00:06.870Z</time>
      </trkpt>
      <trkpt lat="43.23664833" lon="-4.225745">
        <ele>269.0</ele>
        <time>2018-05-19T10:00:07.876Z</time>
      </trkpt>
      <trkpt lat="43.23655667" lon="-4.22573167">
        <ele>269.0</ele>
        <time>2018-05-19T10:00:08.871Z</time>
      </trkpt>
      <trkpt lat="43.23650833" lon="-4.22572167">
        <ele>269.0</ele>
        <time>2018-05-19T10:00:09.870Z</time>
      </trkpt>
      <trkpt lat="43.23650833" lon="-4.22572167">
        <ele>269.0</ele>
        <time>2018-05-19T10:00:10.869Z</time>
      </trkpt>
      <trkpt lat="43.23641667" lon="-4.22570167">
        <ele>269.0</ele>
        <time>2018-05-19T10:00:11.868Z</time>
      </trkpt>
      <trkpt lat="43.23637" lon="-4.22568833">
        <ele>269.0</ele>
        <time>2018-05-19T10:00:12.871Z</time>
      </trkpt>
      <trkpt lat="43.23637" lon="-4.22568833">
        <ele>269.0</ele>
        <time>2018-05-19T10:00:13.859Z</time>
      </trkpt>
      <trkpt lat="43.23625667" lon="-4.22564833">
        <ele>269.0</ele>
        <time>2018-05-19T10:00:14.848Z</time>
      </trkpt>
      <trkpt lat="43.23625667" lon="-4.22564833">
        <ele>269.0</ele>
        <time>2018-05-19T10:00:15.875Z</time>
      </trkpt>
      <trkpt lat="43.23613667" lon="-4.22557333">
        <ele>269.0</ele>
        <time>2018-05-19T10:00:16.868Z</time>
      </trkpt>
      <trkpt lat="43.23613667" lon="-4.22557333">
        <ele>269.0</ele>
        <time>2018-05-19T10:00:17.865Z</time>
      </trkpt>
      <trkpt lat="43.23605667" lon="-4.225445">
        <ele>268.0</ele>
        <time>2018-05-19T10:00:18.870Z</time>
      </trkpt>
      <trkpt lat="43.23605667" lon="-4.225445">
        <ele>268.0</ele>
        <time>2018-05-19T10:00:19.865Z</time>
      </trkpt>
      <trkpt lat="43.23603667" lon="-4.22527">
        <ele>268.0</ele>
        <time>2018-05-19T10:00:20.871Z</time>
      </trkpt>
      <trkpt lat="43.23603667" lon="-4.22527">
        <ele>268.0</ele>
        <time>2018-05-19T10:00:21.864Z</time>
      </trkpt>
      <trkpt lat="43.23602" lon="-4.22507667">
        <ele>268.0</ele>
        <time>2018-05-19T10:00:22.871Z</time>
      </trkpt>
      <trkpt lat="43.23602" lon="-4.22507667">
        <ele>268.0</ele>
        <time>2018-05-19T10:00:23.860Z</time>
      </trkpt>
      <trkpt lat="43.236045" lon="-4.22486">
        <ele>267.0</ele>
        <time>2018-05-19T10:00:24.871Z</time>
      </trkpt>
      <trkpt lat="43.236045" lon="-4.22486">
        <ele>267.0</ele>
        <time>2018-05-19T10:00:25.856Z</time>
      </trkpt>
      <trkpt lat="43.23606833" lon="-4.22465">
        <ele>267.0</ele>
        <time>2018-05-19T10:00:26.881Z</time>
      </trkpt>
      <trkpt lat="43.23606833" lon="-4.22465">
        <ele>267.0</ele>
        <time>2018-05-19T10:00:27.867Z</time>
      </trkpt>
      <trkpt lat="43.23609167" lon="-4.22445167">
        <ele>267.0</ele>
        <time>2018-05-19T10:00:28.872Z</time>
      </trkpt>
      <trkpt lat="43.23609167" lon="-4.22445167">
        <ele>267.0</ele>
        <time>2018-05-19T10:00:29.862Z</time>
      </trkpt>
      <trkpt lat="43.23611333" lon="-4.22424833">
        <ele>267.0</ele>
        <time>2018-05-19T10:00:30.868Z</time>
      </trkpt>
      <trkpt lat="43.23611333" lon="-4.22424833">
        <ele>267.0</ele>
        <time>2018-05-19T10:00:31.865Z</time>
      </trkpt>
      <trkpt lat="43.23613" lon="-4.22404333">
        <ele>267.0</ele>
        <time>2018-05-19T10:00:32.868Z</time>
      </trkpt>
      <trkpt lat="43.23613" lon="-4.22404333">
        <ele>267.0</ele>
        <time>2018-05-19T10:00:33.861Z</time>
      </trkpt>
      <trkpt lat="43.23613833" lon="-4.22384167">
        <ele>267.0</ele>
        <time>2018-05-19T10:00:34.868Z</time>
      </trkpt>
      <trkpt lat="43.23613833" lon="-4.22384167">
        <ele>267.0</ele>
        <time>2018-05-19T10:00:35.865Z</time>
      </trkpt>
      <trkpt lat="43.23613167" lon="-4.22365833">
        <ele>267.0</ele>
        <time>2018-05-19T10:00:36.870Z</time>
      </trkpt>
      <trkpt lat="43.23613167" lon="-4.22365833">
        <ele>267.0</ele>
        <time>2018-05-19T10:00:37.864Z</time>
      </trkpt>
      <trkpt lat="43.236105" lon="-4.22350167">
        <ele>267.0</ele>
        <time>2018-05-19T10:00:38.870Z</time>
      </trkpt>
      <trkpt lat="43.236105" lon="-4.22350167">
        <ele>267.0</ele>
        <time>2018-05-19T10:00:39.869Z</time>
      </trkpt>
      <trkpt lat="43.23607333" lon="-4.22334333">
        <ele>267.0</ele>
        <time>2018-05-19T10:00:40.856Z</time>
      </trkpt>
      <trkpt lat="43.23605667" lon="-4.22325833">
        <ele>267.0</ele>
        <time>2018-05-19T10:00:41.880Z</time>
      </trkpt>
      <trkpt lat="43.23604" lon="-4.223185">
        <ele>267.0</ele>
        <time>2018-05-19T10:00:42.871Z</time>
      </trkpt>
      <trkpt lat="43.23604" lon="-4.223185">
        <ele>267.0</ele>
        <time>2018-05-19T10:00:43.867Z</time>
      </trkpt>
      <trkpt lat="43.23601333" lon="-4.22303167">
        <ele>267.0</ele>
        <time>2018-05-19T10:00:44.872Z</time>
      </trkpt>
      <trkpt lat="43.23601333" lon="-4.22303167">
        <ele>267.0</ele>
        <time>2018-05-19T10:00:45.855Z</time>
      </trkpt>
      <trkpt lat="43.23601" lon="-4.22289333">
        <ele>266.0</ele>
        <time>2018-05-19T10:00:46.848Z</time>
      </trkpt>
      <trkpt lat="43.23601167" lon="-4.22281333">
        <ele>266.0</ele>
        <time>2018-05-19T10:00:47.854Z</time>
      </trkpt>
      <trkpt lat="43.23601167" lon="-4.22281333">
        <ele>266.0</ele>
        <time>2018-05-19T10:00:48.860Z</time>
      </trkpt>
      <trkpt lat="43.23598" lon="-4.22267833">
        <ele>266.0</ele>
        <time>2018-05-19T10:00:49.847Z</time>
      </trkpt>
      <trkpt lat="43.23598" lon="-4.22267833">
        <ele>266.0</ele>
        <time>2018-05-19T10:00:50.876Z</time>
      </trkpt>
      <trkpt lat="43.23594667" lon="-4.22253333">
        <ele>266.0</ele>
        <time>2018-05-19T10:00:51.871Z</time>
      </trkpt>
      <trkpt lat="43.235915" lon="-4.22244667">
        <ele>266.0</ele>
        <time>2018-05-19T10:00:52.872Z</time>
      </trkpt>
      <trkpt lat="43.235915" lon="-4.22244667">
        <ele>266.0</ele>
        <time>2018-05-19T10:00:53.868Z</time>
      </trkpt>
      <trkpt lat="43.23589" lon="-4.222315">
        <ele>266.0</ele>
        <time>2018-05-19T10:00:54.870Z</time>
      </trkpt>
      <trkpt lat="43.23589" lon="-4.222315">
        <ele>266.0</ele>
        <time>2018-05-19T10:00:55.866Z</time>
      </trkpt>
      <trkpt lat="43.23588667" lon="-4.22218333">
        <ele>265.0</ele>
        <time>2018-05-19T10:00:56.872Z</time>
      </trkpt>
      <trkpt lat="43.23588667" lon="-4.22218333">
        <ele>265.0</ele>
        <time>2018-05-19T10:00:57.867Z</time>
      </trkpt>
      <trkpt lat="43.23589167" lon="-4.22206">
        <ele>266.0</ele>
        <time>2018-05-19T10:00:58.875Z</time>
      </trkpt>
      <trkpt lat="43.23589167" lon="-4.22206">
        <ele>266.0</ele>
        <time>2018-05-19T10:00:59.866Z</time>
      </trkpt>
      <trkpt lat="43.23587167" lon="-4.221915">
        <ele>266.0</ele>
        <time>2018-05-19T10:01:00.871Z</time>
      </trkpt>
      <trkpt lat="43.23587167" lon="-4.221915">
        <ele>266.0</ele>
        <time>2018-05-19T10:01:01.865Z</time>
      </trkpt>
      <trkpt lat="43.23585333" lon="-4.22178667">
        <ele>266.0</ele>
        <time>2018-05-19T10:01:02.870Z</time>
      </trkpt>
      <trkpt lat="43.23585333" lon="-4.22178667">
        <ele>266.0</ele>
        <time>2018-05-19T10:01:03.866Z</time>
      </trkpt>
      <trkpt lat="43.23582167" lon="-4.22162167">
        <ele>266.0</ele>
        <time>2018-05-19T10:01:04.872Z</time>
      </trkpt>
      <trkpt lat="43.23582167" lon="-4.22162167">
        <ele>266.0</ele>
        <time>2018-05-19T10:01:05.866Z</time>
      </trkpt>
      <trkpt lat="43.23580333" lon="-4.22144167">
        <ele>266.0</ele>
        <time>2018-05-19T10:01:06.871Z</time>
      </trkpt>
      <trkpt lat="43.23580333" lon="-4.22144167">
        <ele>266.0</ele>
        <time>2018-05-19T10:01:07.866Z</time>
      </trkpt>
      <trkpt lat="43.23579333" lon="-4.22126333">
        <ele>266.0</ele>
        <time>2018-05-19T10:01:08.872Z</time>
      </trkpt>
      <trkpt lat="43.23579333" lon="-4.22126333">
        <ele>266.0</ele>
        <time>2018-05-19T10:01:09.867Z</time>
      </trkpt>
      <trkpt lat="43.23579333" lon="-4.22109333">
        <ele>266.0</ele>
        <time>2018-05-19T10:01:10.872Z</time>
      </trkpt>
      <trkpt lat="43.23579333" lon="-4.22109333">
        <ele>266.0</ele>
        <time>2018-05-19T10:01:11.865Z</time>
      </trkpt>
      <trkpt lat="43.235785" lon="-4.22092333">
        <ele>267.0</ele>
        <time>2018-05-19T10:01:12.871Z</time>
      </trkpt>
      <trkpt lat="43.235785" lon="-4.22092333">
        <ele>267.0</ele>
        <time>2018-05-19T10:01:13.867Z</time>
      </trkpt>
      <trkpt lat="43.23578" lon="-4.22075833">
        <ele>267.0</ele>
        <time>2018-05-19T10:01:14.853Z</time>
      </trkpt>
      <trkpt lat="43.23576667" lon="-4.220675">
        <ele>267.0</ele>
        <time>2018-05-19T10:01:15.856Z</time>
      </trkpt>
      <trkpt lat="43.23576667" lon="-4.220675">
        <ele>267.0</ele>
        <time>2018-05-19T10:01:16.881Z</time>
      </trkpt>
      <trkpt lat="43.23574333" lon="-4.22051333">
        <ele>267.0</ele>
        <time>2018-05-19T10:01:17.871Z</time>
      </trkpt>
      <trkpt lat="43.235735" lon="-4.22043">
        <ele>267.0</ele>
        <time>2018-05-19T10:01:18.871Z</time>
      </trkpt>
      <trkpt lat="43.235735" lon="-4.22043">
        <ele>267.0</ele>
        <time>2018-05-19T10:01:19.878Z</time>
      </trkpt>
      <trkpt lat="43.235735" lon="-4.22029667">
        <ele>267.0</ele>
        <time>2018-05-19T10:01:20.844Z</time>
      </trkpt>
      <trkpt lat="43.235735" lon="-4.22029667">
        <ele>267.0</ele>
        <time>2018-05-19T10:01:21.869Z</time>
      </trkpt>
      <trkpt lat="43.235745" lon="-4.22017667">
        <ele>267.0</ele>
        <time>2018-05-19T10:01:22.872Z</time>
      </trkpt>
      <trkpt lat="43.235745" lon="-4.22017667">
        <ele>267.0</ele>
        <time>2018-05-19T10:01:23.869Z</time>
      </trkpt>
      <trkpt lat="43.23573167" lon="-4.22004667">
        <ele>267.0</ele>
        <time>2018-05-19T10:01:24.873Z</time>
      </trkpt>
      <trkpt lat="43.23573167" lon="-4.22004667">
        <ele>267.0</ele>
        <time>2018-05-19T10:01:25.871Z</time>
      </trkpt>
      <trkpt lat="43.23574333" lon="-4.21992667">
        <ele>267.0</ele>
        <time>2018-05-19T10:01:26.871Z</time>
      </trkpt>
      <trkpt lat="43.23573667" lon="-4.21987333">
        <ele>267.0</ele>
        <time>2018-05-19T10:01:27.876Z</time>
      </trkpt>
      <trkpt lat="43.23573833" lon="-4.21983333">
        <ele>267.0</ele>
        <time>2018-05-19T10:01:28.874Z</time>
      </trkpt>
      <trkpt lat="43.23573833" lon="-4.21983333">
        <ele>267.0</ele>
        <time>2018-05-19T10:01:29.871Z</time>
      </trkpt>
      <trkpt lat="43.23574333" lon="-4.21979167">
        <ele>267.0</ele>
        <time>2018-05-19T10:01:30.872Z</time>
      </trkpt>
      <trkpt lat="43.23574333" lon="-4.21979167">
        <ele>267.0</ele>
        <time>2018-05-19T10:01:31.868Z</time>
      </trkpt>
      <trkpt lat="43.23574333" lon="-4.21976">
        <ele>267.0</ele>
        <time>2018-05-19T10:01:32.873Z</time>
      </trkpt>
      <trkpt lat="43.23574333" lon="-4.21976">
        <ele>267.0</ele>
        <time>2018-05-19T10:01:33.867Z</time>
      </trkpt>
      <trkpt lat="43.23570833" lon="-4.219685">
        <ele>269.0</ele>
        <time>2018-05-19T10:01:34.850Z</time>
      </trkpt>
      <trkpt lat="43.23570833" lon="-4.219685">
        <ele>269.0</ele>
        <time>2018-05-19T10:01:35.876Z</time>
      </trkpt>
      <trkpt lat="43.23570333" lon="-4.21967333">
        <ele>269.0</ele>
        <time>2018-05-19T10:01:36.883Z</time>
      </trkpt>
      <trkpt lat="43.235705" lon="-4.21967167">
        <ele>269.0</ele>
        <time>2018-05-19T10:01:37.851Z</time>
      </trkpt>
      <trkpt lat="43.235705" lon="-4.21967167">
        <ele>269.0</ele>
        <time>2018-05-19T10:01:38.881Z</time>
      </trkpt>
      <trkpt lat="43.23567333" lon="-4.21964">
        <ele>270.0</ele>
        <time>2018-05-19T10:01:39.870Z</time>
      </trkpt>
      <trkpt lat="43.23566833" lon="-4.219635">
        <ele>270.0</ele>
        <time>2018-05-19T10:01:40.862Z</time>
      </trkpt>
      <trkpt lat="43.23566833" lon="-4.21963167">
        <ele>270.0</ele>
        <time>2018-05-19T10:01:41.867Z</time>
      </trkpt>
      <trkpt lat="43.23566833" lon="-4.21963167">
        <ele>270.0</ele>
        <time>2018-05-19T10:01:42.857Z</time>
      </trkpt>
      <trkpt lat="43.23567" lon="-4.21963167">
        <ele>270.0</ele>
        <time>2018-05-19T10:01:43.882Z</time>
      </trkpt>
      <trkpt lat="43.23568167" lon="-4.219605">
        <ele>270.0</ele>
        <time>2018-05-19T10:01:44.871Z</time>
      </trkpt>
      <trkpt lat="43.23567833" lon="-4.21956833">
        <ele>269.0</ele>
        <time>2018-05-19T10:01:45.861Z</time>
      </trkpt>
      <trkpt lat="43.23568" lon="-4.21956">
        <ele>269.0</ele>
        <time>2018-05-19T10:01:46.881Z</time>
      </trkpt>
      <trkpt lat="43.23568" lon="-4.21956">
        <ele>269.0</ele>
        <time>2018-05-19T10:01:47.847Z</time>
      </trkpt>
      <trkpt lat="43.235685" lon="-4.21955167">
        <ele>269.0</ele>
        <time>2018-05-19T10:01:48.854Z</time>
      </trkpt>
      <trkpt lat="43.23568667" lon="-4.219545">
        <ele>269.0</ele>
        <time>2018-05-19T10:01:49.855Z</time>
      </trkpt>
      <trkpt lat="43.23568667" lon="-4.219545">
        <ele>269.0</ele>
        <time>2018-05-19T10:01:50.854Z</time>
      </trkpt>
      <trkpt lat="43.23566333" lon="-4.21953">
        <ele>269.0</ele>
        <time>2018-05-19T10:01:51.852Z</time>
      </trkpt>
      <trkpt lat="43.23566333" lon="-4.21953">
        <ele>269.0</ele>
        <time>2018-05-19T10:01:52.849Z</time>
      </trkpt>
      <trkpt lat="43.23566167" lon="-4.219505">
        <ele>269.0</ele>
        <time>2018-05-19T10:01:53.851Z</time>
      </trkpt>
      <trkpt lat="43.23566167" lon="-4.219505">
        <ele>269.0</ele>
        <time>2018-05-19T10:01:54.849Z</time>
      </trkpt>
      <trkpt lat="43.23566167" lon="-4.219485">
        <ele>269.0</ele>
        <time>2018-05-19T10:01:55.851Z</time>
      </trkpt>
      <trkpt lat="43.235665" lon="-4.21947667">
        <ele>269.0</ele>
        <time>2018-05-19T10:01:56.856Z</time>
      </trkpt>
      <trkpt lat="43.235665" lon="-4.21947667">
        <ele>269.0</ele>
        <time>2018-05-19T10:01:57.883Z</time>
      </trkpt>
      <trkpt lat="43.23567333" lon="-4.219445">
        <ele>269.0</ele>
        <time>2018-05-19T10:01:58.853Z</time>
      </trkpt>
      <trkpt lat="43.23567333" lon="-4.219445">
        <ele>269.0</ele>
        <time>2018-05-19T10:01:59.883Z</time>
      </trkpt>
      <trkpt lat="43.23567167" lon="-4.21941667">
        <ele>269.0</ele>
        <time>2018-05-19T10:02:00.853Z</time>
      </trkpt>
      <trkpt lat="43.23567167" lon="-4.21941667">
        <ele>269.0</ele>
        <time>2018-05-19T10:02:01.846Z</time>
      </trkpt>
      <trkpt lat="43.23564833" lon="-4.21939">
        <ele>269.0</ele>
        <time>2018-05-19T10:02:02.852Z</time>
      </trkpt>
      <trkpt lat="43.23564167" lon="-4.21937">
        <ele>269.0</ele>
        <time>2018-05-19T10:02:03.854Z</time>
      </trkpt>
      <trkpt lat="43.23564167" lon="-4.21937">
        <ele>269.0</ele>
        <time>2018-05-19T10:02:04.856Z</time>
      </trkpt>
      <trkpt lat="43.23564333" lon="-4.21934333">
        <ele>269.0</ele>
        <time>2018-05-19T10:02:05.853Z</time>
      </trkpt>
      <trkpt lat="43.23564333" lon="-4.21933167">
        <ele>269.0</ele>
        <time>2018-05-19T10:02:06.855Z</time>
      </trkpt>
      <trkpt lat="43.23564333" lon="-4.21933167">
        <ele>269.0</ele>
        <time>2018-05-19T10:02:07.847Z</time>
      </trkpt>
      <trkpt lat="43.23564333" lon="-4.21931667">
        <ele>270.0</ele>
        <time>2018-05-19T10:02:08.859Z</time>
      </trkpt>
      <trkpt lat="43.23564333" lon="-4.21931667">
        <ele>270.0</ele>
        <time>2018-05-19T10:02:09.852Z</time>
      </trkpt>
      <trkpt lat="43.23564333" lon="-4.219305">
        <ele>270.0</ele>
        <time>2018-05-19T10:02:10.858Z</time>
      </trkpt>
      <trkpt lat="43.23564333" lon="-4.2193">
        <ele>270.0</ele>
        <time>2018-05-19T10:02:11.883Z</time>
      </trkpt>
      <trkpt lat="43.23566333" lon="-4.21935">
        <ele>265.0</ele>
        <time>2018-05-19T10:02:12.852Z</time>
      </trkpt>
      <trkpt lat="43.23566333" lon="-4.21935">
        <ele>265.0</ele>
        <time>2018-05-19T10:02:13.844Z</time>
      </trkpt>
      <trkpt lat="43.23565667" lon="-4.21934">
        <ele>265.0</ele>
        <time>2018-05-19T10:02:14.851Z</time>
      </trkpt>
      <trkpt lat="43.23565833" lon="-4.21933667">
        <ele>265.0</ele>
        <time>2018-05-19T10:02:15.847Z</time>
      </trkpt>
      <trkpt lat="43.23565833" lon="-4.21933667">
        <ele>265.0</ele>
        <time>2018-05-19T10:02:16.845Z</time>
      </trkpt>
      <trkpt lat="43.23565833" lon="-4.21933667">
        <ele>265.0</ele>
        <time>2018-05-19T10:02:17.863Z</time>
      </trkpt>
      <trkpt lat="43.235705" lon="-4.21934">
        <ele>265.0</ele>
        <time>2018-05-19T10:02:18.868Z</time>
      </trkpt>
      <trkpt lat="43.23572167" lon="-4.21932667">
        <ele>266.0</ele>
        <time>2018-05-19T10:02:19.858Z</time>
      </trkpt>
      <trkpt lat="43.23573333" lon="-4.21930833">
        <ele>266.0</ele>
        <time>2018-05-19T10:02:20.851Z</time>
      </trkpt>
      <trkpt lat="43.23573333" lon="-4.21930833">
        <ele>266.0</ele>
        <time>2018-05-19T10:02:21.851Z</time>
      </trkpt>
      <trkpt lat="43.23575167" lon="-4.219245">
        <ele>265.0</ele>
        <time>2018-05-19T10:02:22.860Z</time>
      </trkpt>
      <trkpt lat="43.23575167" lon="-4.219245">
        <ele>265.0</ele>
        <time>2018-05-19T10:02:23.847Z</time>
      </trkpt>
      <trkpt lat="43.23576" lon="-4.219175">
        <ele>265.0</ele>
        <time>2018-05-19T10:02:24.858Z</time>
      </trkpt>
      <trkpt lat="43.23576" lon="-4.219175">
        <ele>265.0</ele>
        <time>2018-05-19T10:02:25.851Z</time>
      </trkpt>
      <trkpt lat="43.23576" lon="-4.21911">
        <ele>265.0</ele>
        <time>2018-05-19T10:02:26.854Z</time>
      </trkpt>
      <trkpt lat="43.23575667" lon="-4.21907333">
        <ele>265.0</ele>
        <time>2018-05-19T10:02:27.849Z</time>
      </trkpt>
      <trkpt lat="43.23575667" lon="-4.21907333">
        <ele>265.0</ele>
        <time>2018-05-19T10:02:28.851Z</time>
      </trkpt>
      <trkpt lat="43.23575" lon="-4.21899667">
        <ele>265.0</ele>
        <time>2018-05-19T10:02:29.854Z</time>
      </trkpt>
      <trkpt lat="43.23574167" lon="-4.21896167">
        <ele>265.0</ele>
        <time>2018-05-19T10:02:30.848Z</time>
      </trkpt>
      <trkpt lat="43.23574167" lon="-4.21896167">
        <ele>265.0</ele>
        <time>2018-05-19T10:02:31.849Z</time>
      </trkpt>
      <trkpt lat="43.23572833" lon="-4.21889333">
        <ele>265.0</ele>
        <time>2018-05-19T10:02:32.855Z</time>
      </trkpt>
      <trkpt lat="43.23572833" lon="-4.21889333">
        <ele>265.0</ele>
        <time>2018-05-19T10:02:33.851Z</time>
      </trkpt>
      <trkpt lat="43.23571167" lon="-4.21882167">
        <ele>265.0</ele>
        <time>2018-05-19T10:02:34.856Z</time>
      </trkpt>
      <trkpt lat="43.23571167" lon="-4.21882167">
        <ele>265.0</ele>
        <time>2018-05-19T10:02:35.851Z</time>
      </trkpt>
      <trkpt lat="43.23571167" lon="-4.21875333">
        <ele>265.0</ele>
        <time>2018-05-19T10:02:36.856Z</time>
      </trkpt>
      <trkpt lat="43.23571167" lon="-4.21875333">
        <ele>265.0</ele>
        <time>2018-05-19T10:02:37.853Z</time>
      </trkpt>
      <trkpt lat="43.23571" lon="-4.21867833">
        <ele>265.0</ele>
        <time>2018-05-19T10:02:38.853Z</time>
      </trkpt>
      <trkpt lat="43.23571" lon="-4.21867833">
        <ele>265.0</ele>
        <time>2018-05-19T10:02:39.863Z</time>
      </trkpt>
      <trkpt lat="43.235675" lon="-4.21860333">
        <ele>265.0</ele>
        <time>2018-05-19T10:02:40.871Z</time>
      </trkpt>
      <trkpt lat="43.235675" lon="-4.21860333">
        <ele>265.0</ele>
        <time>2018-05-19T10:02:41.854Z</time>
      </trkpt>
      <trkpt lat="43.23563" lon="-4.21852167">
        <ele>265.0</ele>
        <time>2018-05-19T10:02:42.854Z</time>
      </trkpt>
      <trkpt lat="43.23563" lon="-4.21852167">
        <ele>265.0</ele>
        <time>2018-05-19T10:02:43.877Z</time>
      </trkpt>
      <trkpt lat="43.23560167" lon="-4.21844667">
        <ele>265.0</ele>
        <time>2018-05-19T10:02:44.864Z</time>
      </trkpt>
      <trkpt lat="43.23560167" lon="-4.21844667">
        <ele>265.0</ele>
        <time>2018-05-19T10:02:45.870Z</time>
      </trkpt>
      <trkpt lat="43.23557167" lon="-4.21836833">
        <ele>265.0</ele>
        <time>2018-05-19T10:02:46.855Z</time>
      </trkpt>
      <trkpt lat="43.23555833" lon="-4.218325">
        <ele>265.0</ele>
        <time>2018-05-19T10:02:47.861Z</time>
      </trkpt>
      <trkpt lat="43.23555833" lon="-4.218325">
        <ele>265.0</ele>
        <time>2018-05-19T10:02:48.867Z</time>
      </trkpt>
      <trkpt lat="43.23553333" lon="-4.21824667">
        <ele>265.0</ele>
        <time>2018-05-19T10:02:49.845Z</time>
      </trkpt>
      <trkpt lat="43.23551667" lon="-4.21820833">
        <ele>265.0</ele>
        <time>2018-05-19T10:02:50.852Z</time>
      </trkpt>
      <trkpt lat="43.23551667" lon="-4.21820833">
        <ele>265.0</ele>
        <time>2018-05-19T10:02:51.858Z</time>
      </trkpt>
      <trkpt lat="43.23548833" lon="-4.21813">
        <ele>265.0</ele>
        <time>2018-05-19T10:02:52.855Z</time>
      </trkpt>
      <trkpt lat="43.23548833" lon="-4.21813">
        <ele>265.0</ele>
        <time>2018-05-19T10:02:53.883Z</time>
      </trkpt>
      <trkpt lat="43.23546167" lon="-4.21805">
        <ele>265.0</ele>
        <time>2018-05-19T10:02:54.869Z</time>
      </trkpt>
      <trkpt lat="43.23546167" lon="-4.21805">
        <ele>265.0</ele>
        <time>2018-05-19T10:02:55.853Z</time>
      </trkpt>
      <trkpt lat="43.23542333" lon="-4.217975">
        <ele>265.0</ele>
        <time>2018-05-19T10:02:56.855Z</time>
      </trkpt>
      <trkpt lat="43.23542333" lon="-4.217975">
        <ele>265.0</ele>
        <time>2018-05-19T10:02:57.853Z</time>
      </trkpt>
      <trkpt lat="43.23537167" lon="-4.21791333">
        <ele>264.0</ele>
        <time>2018-05-19T10:02:58.855Z</time>
      </trkpt>
      <trkpt lat="43.23537167" lon="-4.21791333">
        <ele>264.0</ele>
        <time>2018-05-19T10:02:59.883Z</time>
      </trkpt>
      <trkpt lat="43.23531833" lon="-4.21784">
        <ele>264.0</ele>
        <time>2018-05-19T10:03:00.879Z</time>
      </trkpt>
      <trkpt lat="43.23531833" lon="-4.21784">
        <ele>264.0</ele>
        <time>2018-05-19T10:03:01.863Z</time>
      </trkpt>
      <trkpt lat="43.23526167" lon="-4.21778833">
        <ele>264.0</ele>
        <time>2018-05-19T10:03:02.854Z</time>
      </trkpt>
      <trkpt lat="43.23526167" lon="-4.21778833">
        <ele>264.0</ele>
        <time>2018-05-19T10:03:03.853Z</time>
      </trkpt>
      <trkpt lat="43.23519667" lon="-4.21774333">
        <ele>265.0</ele>
        <time>2018-05-19T10:03:04.855Z</time>
      </trkpt>
      <trkpt lat="43.23519667" lon="-4.21774333">
        <ele>265.0</ele>
        <time>2018-05-19T10:03:05.852Z</time>
      </trkpt>
      <trkpt lat="43.23513" lon="-4.21769833">
        <ele>265.0</ele>
        <time>2018-05-19T10:03:06.851Z</time>
      </trkpt>
      <trkpt lat="43.23513" lon="-4.21769833">
        <ele>265.0</ele>
        <time>2018-05-19T10:03:07.851Z</time>
      </trkpt>
      <trkpt lat="43.235055" lon="-4.21765667">
        <ele>265.0</ele>
        <time>2018-05-19T10:03:08.855Z</time>
      </trkpt>
      <trkpt lat="43.235055" lon="-4.21765667">
        <ele>265.0</ele>
        <time>2018-05-19T10:03:09.851Z</time>
      </trkpt>
      <trkpt lat="43.23498667" lon="-4.217605">
        <ele>265.0</ele>
        <time>2018-05-19T10:03:10.855Z</time>
      </trkpt>
      <trkpt lat="43.23498667" lon="-4.217605">
        <ele>265.0</ele>
        <time>2018-05-19T10:03:11.852Z</time>
      </trkpt>
      <trkpt lat="43.23489667" lon="-4.21755333">
        <ele>265.0</ele>
        <time>2018-05-19T10:03:12.854Z</time>
      </trkpt>
      <trkpt lat="43.23489667" lon="-4.21755333">
        <ele>265.0</ele>
        <time>2018-05-19T10:03:13.853Z</time>
      </trkpt>
      <trkpt lat="43.23482" lon="-4.21750833">
        <ele>265.0</ele>
        <time>2018-05-19T10:03:14.853Z</time>
      </trkpt>
      <trkpt lat="43.23482" lon="-4.21750833">
        <ele>265.0</ele>
        <time>2018-05-19T10:03:15.851Z</time>
      </trkpt>
      <trkpt lat="43.23473833" lon="-4.21747">
        <ele>265.0</ele>
        <time>2018-05-19T10:03:16.851Z</time>
      </trkpt>
      <trkpt lat="43.23473833" lon="-4.21747">
        <ele>265.0</ele>
        <time>2018-05-19T10:03:17.883Z</time>
      </trkpt>
      <trkpt lat="43.23466167" lon="-4.217435">
        <ele>265.0</ele>
        <time>2018-05-19T10:03:18.883Z</time>
      </trkpt>
      <trkpt lat="43.23462167" lon="-4.21741833">
        <ele>265.0</ele>
        <time>2018-05-19T10:03:19.866Z</time>
      </trkpt>
      <trkpt lat="43.23462167" lon="-4.21741833">
        <ele>265.0</ele>
        <time>2018-05-19T10:03:20.851Z</time>
      </trkpt>
      <trkpt lat="43.23453333" lon="-4.21738667">
        <ele>265.0</ele>
        <time>2018-05-19T10:03:21.859Z</time>
      </trkpt>
      <trkpt lat="43.23449167" lon="-4.21737167">
        <ele>265.0</ele>
        <time>2018-05-19T10:03:22.855Z</time>
      </trkpt>
      <trkpt lat="43.23449167" lon="-4.21737167">
        <ele>265.0</ele>
        <time>2018-05-19T10:03:23.855Z</time>
      </trkpt>
      <trkpt lat="43.23441333" lon="-4.21733333">
        <ele>266.0</ele>
        <time>2018-05-19T10:03:24.854Z</time>
      </trkpt>
      <trkpt lat="43.23441333" lon="-4.21733333">
        <ele>266.0</ele>
        <time>2018-05-19T10:03:25.851Z</time>
      </trkpt>
      <trkpt lat="43.23435" lon="-4.21728">
        <ele>266.0</ele>
        <time>2018-05-19T10:03:26.858Z</time>
      </trkpt>
      <trkpt lat="43.23435" lon="-4.21728">
        <ele>266.0</ele>
        <time>2018-05-19T10:03:27.851Z</time>
      </trkpt>
      <trkpt lat="43.23429333" lon="-4.21721167">
        <ele>266.0</ele>
        <time>2018-05-19T10:03:28.854Z</time>
      </trkpt>
      <trkpt lat="43.23429333" lon="-4.21721167">
        <ele>266.0</ele>
        <time>2018-05-19T10:03:29.851Z</time>
      </trkpt>
      <trkpt lat="43.23426" lon="-4.21711">
        <ele>267.0</ele>
        <time>2018-05-19T10:03:30.853Z</time>
      </trkpt>
      <trkpt lat="43.23426" lon="-4.21711">
        <ele>267.0</ele>
        <time>2018-05-19T10:03:31.850Z</time>
      </trkpt>
      <trkpt lat="43.23422833" lon="-4.21701833">
        <ele>267.0</ele>
        <time>2018-05-19T10:03:32.853Z</time>
      </trkpt>
      <trkpt lat="43.23422833" lon="-4.21701833">
        <ele>267.0</ele>
        <time>2018-05-19T10:03:33.851Z</time>
      </trkpt>
      <trkpt lat="43.23423333" lon="-4.21690667">
        <ele>267.0</ele>
        <time>2018-05-19T10:03:34.851Z</time>
      </trkpt>
      <trkpt lat="43.23424" lon="-4.21685167">
        <ele>268.0</ele>
        <time>2018-05-19T10:03:35.854Z</time>
      </trkpt>
      <trkpt lat="43.23425333" lon="-4.21679">
        <ele>268.0</ele>
        <time>2018-05-19T10:03:36.851Z</time>
      </trkpt>
      <trkpt lat="43.23425333" lon="-4.21679">
        <ele>268.0</ele>
        <time>2018-05-19T10:03:37.849Z</time>
      </trkpt>
      <trkpt lat="43.23428333" lon="-4.21667167">
        <ele>268.0</ele>
        <time>2018-05-19T10:03:38.853Z</time>
      </trkpt>
      <trkpt lat="43.23428333" lon="-4.21661167">
        <ele>268.0</ele>
        <time>2018-05-19T10:03:39.853Z</time>
      </trkpt>
      <trkpt lat="43.23428333" lon="-4.21661167">
        <ele>268.0</ele>
        <time>2018-05-19T10:03:40.851Z</time>
      </trkpt>
      <trkpt lat="43.234265" lon="-4.21649167">
        <ele>268.0</ele>
        <time>2018-05-19T10:03:41.851Z</time>
      </trkpt>
      <trkpt lat="43.23425" lon="-4.21643333">
        <ele>268.0</ele>
        <time>2018-05-19T10:03:42.856Z</time>
      </trkpt>
      <trkpt lat="43.23425" lon="-4.21643333">
        <ele>268.0</ele>
        <time>2018-05-19T10:03:43.882Z</time>
      </trkpt>
      <trkpt lat="43.23421" lon="-4.21631833">
        <ele>268.0</ele>
        <time>2018-05-19T10:03:44.867Z</time>
      </trkpt>
      <trkpt lat="43.23421" lon="-4.21631833">
        <ele>268.0</ele>
        <time>2018-05-19T10:03:45.853Z</time>
      </trkpt>
      <trkpt lat="43.23417833" lon="-4.2162">
        <ele>269.0</ele>
        <time>2018-05-19T10:03:46.863Z</time>
      </trkpt>
      <trkpt lat="43.23417833" lon="-4.2162">
        <ele>269.0</ele>
        <time>2018-05-19T10:03:47.869Z</time>
      </trkpt>
      <trkpt lat="43.23415333" lon="-4.21608667">
        <ele>269.0</ele>
        <time>2018-05-19T10:03:48.876Z</time>
      </trkpt>
      <trkpt lat="43.23414167" lon="-4.21603167">
        <ele>269.0</ele>
        <time>2018-05-19T10:03:49.848Z</time>
      </trkpt>
      <trkpt lat="43.23414167" lon="-4.21603167">
        <ele>269.0</ele>
        <time>2018-05-19T10:03:50.851Z</time>
      </trkpt>
      <trkpt lat="43.234115" lon="-4.215925">
        <ele>269.0</ele>
        <time>2018-05-19T10:03:51.862Z</time>
      </trkpt>
      <trkpt lat="43.23410333" lon="-4.21588167">
        <ele>269.0</ele>
        <time>2018-05-19T10:03:52.854Z</time>
      </trkpt>
      <trkpt lat="43.23410333" lon="-4.21588167">
        <ele>269.0</ele>
        <time>2018-05-19T10:03:53.851Z</time>
      </trkpt>
      <trkpt lat="43.23408333" lon="-4.21577833">
        <ele>269.0</ele>
        <time>2018-05-19T10:03:54.856Z</time>
      </trkpt>
      <trkpt lat="43.23408333" lon="-4.21577833">
        <ele>269.0</ele>
        <time>2018-05-19T10:03:55.851Z</time>
      </trkpt>
      <trkpt lat="43.23407167" lon="-4.215665">
        <ele>269.0</ele>
        <time>2018-05-19T10:03:56.853Z</time>
      </trkpt>
      <trkpt lat="43.23405833" lon="-4.21561167">
        <ele>269.0</ele>
        <time>2018-05-19T10:03:57.852Z</time>
      </trkpt>
      <trkpt lat="43.23404667" lon="-4.21555">
        <ele>269.0</ele>
        <time>2018-05-19T10:03:58.854Z</time>
      </trkpt>
      <trkpt lat="43.23404667" lon="-4.21555">
        <ele>269.0</ele>
        <time>2018-05-19T10:03:59.853Z</time>
      </trkpt>
      <trkpt lat="43.23403833" lon="-4.21543">
        <ele>269.0</ele>
        <time>2018-05-19T10:04:00.853Z</time>
      </trkpt>
      <trkpt lat="43.23403833" lon="-4.21543">
        <ele>269.0</ele>
        <time>2018-05-19T10:04:01.851Z</time>
      </trkpt>
      <trkpt lat="43.23404" lon="-4.21531333">
        <ele>270.0</ele>
        <time>2018-05-19T10:04:02.854Z</time>
      </trkpt>
      <trkpt lat="43.23404" lon="-4.21531333">
        <ele>270.0</ele>
        <time>2018-05-19T10:04:03.883Z</time>
      </trkpt>
      <trkpt lat="43.234045" lon="-4.21520167">
        <ele>270.0</ele>
        <time>2018-05-19T10:04:04.869Z</time>
      </trkpt>
      <trkpt lat="43.234045" lon="-4.21520167">
        <ele>270.0</ele>
        <time>2018-05-19T10:04:05.854Z</time>
      </trkpt>
      <trkpt lat="43.23406333" lon="-4.21508833">
        <ele>270.0</ele>
        <time>2018-05-19T10:04:06.854Z</time>
      </trkpt>
      <trkpt lat="43.23406333" lon="-4.21508833">
        <ele>270.0</ele>
        <time>2018-05-19T10:04:07.849Z</time>
      </trkpt>
      <trkpt lat="43.23404667" lon="-4.21498">
        <ele>270.0</ele>
        <time>2018-05-19T10:04:08.854Z</time>
      </trkpt>
      <trkpt lat="43.23402667" lon="-4.21493167">
        <ele>270.0</ele>
        <time>2018-05-19T10:04:09.855Z</time>
      </trkpt>
      <trkpt lat="43.23400667" lon="-4.21488167">
        <ele>270.0</ele>
        <time>2018-05-19T10:04:10.855Z</time>
      </trkpt>
      <trkpt lat="43.23400667" lon="-4.21488167">
        <ele>270.0</ele>
        <time>2018-05-19T10:04:11.848Z</time>
      </trkpt>
      <trkpt lat="43.233955" lon="-4.2148">
        <ele>270.0</ele>
        <time>2018-05-19T10:04:12.854Z</time>
      </trkpt>
      <trkpt lat="43.233955" lon="-4.2148">
        <ele>270.0</ele>
        <time>2018-05-19T10:04:13.844Z</time>
      </trkpt>
      <trkpt lat="43.23387833" lon="-4.21468167">
        <ele>270.0</ele>
        <time>2018-05-19T10:04:14.853Z</time>
      </trkpt>
      <trkpt lat="43.23387833" lon="-4.21468167">
        <ele>270.0</ele>
        <time>2018-05-19T10:04:15.852Z</time>
      </trkpt>
      <trkpt lat="43.23379167" lon="-4.21459">
        <ele>270.0</ele>
        <time>2018-05-19T10:04:16.856Z</time>
      </trkpt>
      <trkpt lat="43.23379167" lon="-4.21459">
        <ele>270.0</ele>
        <time>2018-05-19T10:04:17.850Z</time>
      </trkpt>
      <trkpt lat="43.23369833" lon="-4.21450667">
        <ele>270.0</ele>
        <time>2018-05-19T10:04:18.853Z</time>
      </trkpt>
      <trkpt lat="43.23369833" lon="-4.21450667">
        <ele>270.0</ele>
        <time>2018-05-19T10:04:19.850Z</time>
      </trkpt>
      <trkpt lat="43.23362" lon="-4.21442">
        <ele>270.0</ele>
        <time>2018-05-19T10:04:20.853Z</time>
      </trkpt>
      <trkpt lat="43.23362" lon="-4.21442">
        <ele>270.0</ele>
        <time>2018-05-19T10:04:21.851Z</time>
      </trkpt>
      <trkpt lat="43.23355667" lon="-4.21432667">
        <ele>270.0</ele>
        <time>2018-05-19T10:04:22.851Z</time>
      </trkpt>
      <trkpt lat="43.23355667" lon="-4.21432667">
        <ele>270.0</ele>
        <time>2018-05-19T10:04:23.882Z</time>
      </trkpt>
      <trkpt lat="43.23349833" lon="-4.21424333">
        <ele>270.0</ele>
        <time>2018-05-19T10:04:24.867Z</time>
      </trkpt>
      <trkpt lat="43.23349833" lon="-4.21424333">
        <ele>270.0</ele>
        <time>2018-05-19T10:04:25.851Z</time>
      </trkpt>
      <trkpt lat="43.23344667" lon="-4.214155">
        <ele>270.0</ele>
        <time>2018-05-19T10:04:26.852Z</time>
      </trkpt>
      <trkpt lat="43.23344667" lon="-4.214155">
        <ele>270.0</ele>
        <time>2018-05-19T10:04:27.851Z</time>
      </trkpt>
      <trkpt lat="43.23340833" lon="-4.21406333">
        <ele>271.0</ele>
        <time>2018-05-19T10:04:28.853Z</time>
      </trkpt>
      <trkpt lat="43.23340833" lon="-4.21406333">
        <ele>271.0</ele>
        <time>2018-05-19T10:04:29.849Z</time>
      </trkpt>
      <trkpt lat="43.23337" lon="-4.21397333">
        <ele>271.0</ele>
        <time>2018-05-19T10:04:30.844Z</time>
      </trkpt>
      <trkpt lat="43.23337" lon="-4.21397333">
        <ele>271.0</ele>
        <time>2018-05-19T10:04:31.852Z</time>
      </trkpt>
      <trkpt lat="43.23336" lon="-4.21387333">
        <ele>271.0</ele>
        <time>2018-05-19T10:04:32.855Z</time>
      </trkpt>
      <trkpt lat="43.23336" lon="-4.21387333">
        <ele>271.0</ele>
        <time>2018-05-19T10:04:33.850Z</time>
      </trkpt>
      <trkpt lat="43.23334667" lon="-4.21377333">
        <ele>272.0</ele>
        <time>2018-05-19T10:04:34.854Z</time>
      </trkpt>
      <trkpt lat="43.23334667" lon="-4.21377333">
        <ele>272.0</ele>
        <time>2018-05-19T10:04:35.850Z</time>
      </trkpt>
      <trkpt lat="43.23332833" lon="-4.21366333">
        <ele>272.0</ele>
        <time>2018-05-19T10:04:36.853Z</time>
      </trkpt>
      <trkpt lat="43.23332833" lon="-4.21366333">
        <ele>272.0</ele>
        <time>2018-05-19T10:04:37.852Z</time>
      </trkpt>
      <trkpt lat="43.23332167" lon="-4.21357">
        <ele>273.0</ele>
        <time>2018-05-19T10:04:38.854Z</time>
      </trkpt>
      <trkpt lat="43.23331" lon="-4.21352667">
        <ele>273.0</ele>
        <time>2018-05-19T10:04:39.854Z</time>
      </trkpt>
      <trkpt lat="43.23331" lon="-4.21352667">
        <ele>273.0</ele>
        <time>2018-05-19T10:04:40.849Z</time>
      </trkpt>
      <trkpt lat="43.23328833" lon="-4.21343333">
        <ele>274.0</ele>
        <time>2018-05-19T10:04:41.851Z</time>
      </trkpt>
      <trkpt lat="43.23328667" lon="-4.21338">
        <ele>274.0</ele>
        <time>2018-05-19T10:04:42.853Z</time>
      </trkpt>
      <trkpt lat="43.23328667" lon="-4.21338">
        <ele>274.0</ele>
        <time>2018-05-19T10:04:43.847Z</time>
      </trkpt>
      <trkpt lat="43.23325333" lon="-4.213255">
        <ele>275.0</ele>
        <time>2018-05-19T10:04:44.866Z</time>
      </trkpt>
      <trkpt lat="43.23325333" lon="-4.213255">
        <ele>275.0</ele>
        <time>2018-05-19T10:04:45.877Z</time>
      </trkpt>
      <trkpt lat="43.23322667" lon="-4.21315333">
        <ele>275.0</ele>
        <time>2018-05-19T10:04:46.877Z</time>
      </trkpt>
      <trkpt lat="43.23321167" lon="-4.21309333">
        <ele>276.0</ele>
        <time>2018-05-19T10:04:47.845Z</time>
      </trkpt>
      <trkpt lat="43.23320833" lon="-4.213035">
        <ele>276.0</ele>
        <time>2018-05-19T10:04:48.854Z</time>
      </trkpt>
      <trkpt lat="43.23320833" lon="-4.213035">
        <ele>276.0</ele>
        <time>2018-05-19T10:04:49.849Z</time>
      </trkpt>
      <trkpt lat="43.23315833" lon="-4.21292667">
        <ele>277.0</ele>
        <time>2018-05-19T10:04:50.852Z</time>
      </trkpt>
      <trkpt lat="43.23315833" lon="-4.21292667">
        <ele>277.0</ele>
        <time>2018-05-19T10:04:51.859Z</time>
      </trkpt>
      <trkpt lat="43.23310167" lon="-4.212805">
        <ele>277.0</ele>
        <time>2018-05-19T10:04:52.850Z</time>
      </trkpt>
      <trkpt lat="43.23307333" lon="-4.21275333">
        <ele>277.0</ele>
        <time>2018-05-19T10:04:53.857Z</time>
      </trkpt>
      <trkpt lat="43.23307333" lon="-4.21275333">
        <ele>277.0</ele>
        <time>2018-05-19T10:04:54.859Z</time>
      </trkpt>
      <trkpt lat="43.23302" lon="-4.21264667">
        <ele>278.0</ele>
        <time>2018-05-19T10:04:55.852Z</time>
      </trkpt>
      <trkpt lat="43.23302" lon="-4.21264667">
        <ele>278.0</ele>
        <time>2018-05-19T10:04:56.849Z</time>
      </trkpt>
      <trkpt lat="43.23295167" lon="-4.21256833">
        <ele>278.0</ele>
        <time>2018-05-19T10:04:57.852Z</time>
      </trkpt>
      <trkpt lat="43.23295167" lon="-4.21256833">
        <ele>278.0</ele>
        <time>2018-05-19T10:04:58.849Z</time>
      </trkpt>
      <trkpt lat="43.23286667" lon="-4.21251">
        <ele>278.0</ele>
        <time>2018-05-19T10:04:59.852Z</time>
      </trkpt>
      <trkpt lat="43.23283" lon="-4.21252">
        <ele>278.0</ele>
        <time>2018-05-19T10:05:00.849Z</time>
      </trkpt>
      <trkpt lat="43.23283" lon="-4.21252">
        <ele>278.0</ele>
        <time>2018-05-19T10:05:01.847Z</time>
      </trkpt>
      <trkpt lat="43.23275667" lon="-4.21253">
        <ele>279.0</ele>
        <time>2018-05-19T10:05:02.851Z</time>
      </trkpt>
      <trkpt lat="43.23275667" lon="-4.21253">
        <ele>279.0</ele>
        <time>2018-05-19T10:05:03.883Z</time>
      </trkpt>
      <trkpt lat="43.23268167" lon="-4.21248">
        <ele>279.0</ele>
        <time>2018-05-19T10:05:04.864Z</time>
      </trkpt>
      <trkpt lat="43.232645" lon="-4.21245">
        <ele>279.0</ele>
        <time>2018-05-19T10:05:05.852Z</time>
      </trkpt>
      <trkpt lat="43.23261167" lon="-4.21242667">
        <ele>279.0</ele>
        <time>2018-05-19T10:05:06.852Z</time>
      </trkpt>
      <trkpt lat="43.23261167" lon="-4.21242667">
        <ele>279.0</ele>
        <time>2018-05-19T10:05:07.848Z</time>
      </trkpt>
      <trkpt lat="43.23254333" lon="-4.21239">
        <ele>279.0</ele>
        <time>2018-05-19T10:05:08.851Z</time>
      </trkpt>
      <trkpt lat="43.23254333" lon="-4.21239">
        <ele>279.0</ele>
        <time>2018-05-19T10:05:09.849Z</time>
      </trkpt>
      <trkpt lat="43.23248333" lon="-4.21236333">
        <ele>280.0</ele>
        <time>2018-05-19T10:05:10.850Z</time>
      </trkpt>
      <trkpt lat="43.23248333" lon="-4.21236333">
        <ele>280.0</ele>
        <time>2018-05-19T10:05:11.849Z</time>
      </trkpt>
      <trkpt lat="43.23241667" lon="-4.21237">
        <ele>280.0</ele>
        <time>2018-05-19T10:05:12.852Z</time>
      </trkpt>
      <trkpt lat="43.23241667" lon="-4.21237">
        <ele>280.0</ele>
        <time>2018-05-19T10:05:13.848Z</time>
      </trkpt>
      <trkpt lat="43.23235833" lon="-4.21239833">
        <ele>280.0</ele>
        <time>2018-05-19T10:05:14.855Z</time>
      </trkpt>
      <trkpt lat="43.23235833" lon="-4.21239833">
        <ele>280.0</ele>
        <time>2018-05-19T10:05:15.851Z</time>
      </trkpt>
      <trkpt lat="43.232245" lon="-4.21243833">
        <ele>281.0</ele>
        <time>2018-05-19T10:05:16.852Z</time>
      </trkpt>
      <trkpt lat="43.232245" lon="-4.21243833">
        <ele>281.0</ele>
        <time>2018-05-19T10:05:17.854Z</time>
      </trkpt>
      <trkpt lat="43.23217" lon="-4.21250333">
        <ele>281.0</ele>
        <time>2018-05-19T10:05:18.853Z</time>
      </trkpt>
      <trkpt lat="43.23217" lon="-4.21250333">
        <ele>281.0</ele>
        <time>2018-05-19T10:05:19.847Z</time>
      </trkpt>
      <trkpt lat="43.23211833" lon="-4.21258167">
        <ele>282.0</ele>
        <time>2018-05-19T10:05:20.852Z</time>
      </trkpt>
      <trkpt lat="43.23209833" lon="-4.21261667">
        <ele>282.0</ele>
        <time>2018-05-19T10:05:21.852Z</time>
      </trkpt>
      <trkpt lat="43.23209833" lon="-4.21261667">
        <ele>282.0</ele>
        <time>2018-05-19T10:05:22.852Z</time>
      </trkpt>
      <trkpt lat="43.23206" lon="-4.21265833">
        <ele>283.0</ele>
        <time>2018-05-19T10:05:23.849Z</time>
      </trkpt>
      <trkpt lat="43.23204167" lon="-4.21268833">
        <ele>283.0</ele>
        <time>2018-05-19T10:05:24.852Z</time>
      </trkpt>
      <trkpt lat="43.23204167" lon="-4.21268833">
        <ele>283.0</ele>
        <time>2018-05-19T10:05:25.850Z</time>
      </trkpt>
      <trkpt lat="43.232005" lon="-4.21274167">
        <ele>283.0</ele>
        <time>2018-05-19T10:05:26.852Z</time>
      </trkpt>
      <trkpt lat="43.232005" lon="-4.21274167">
        <ele>283.0</ele>
        <time>2018-05-19T10:05:27.849Z</time>
      </trkpt>
      <trkpt lat="43.23197833" lon="-4.21278833">
        <ele>284.0</ele>
        <time>2018-05-19T10:05:28.851Z</time>
      </trkpt>
      <trkpt lat="43.23197833" lon="-4.21278833">
        <ele>284.0</ele>
        <time>2018-05-19T10:05:29.848Z</time>
      </trkpt>
      <trkpt lat="43.23195" lon="-4.21283333">
        <ele>284.0</ele>
        <time>2018-05-19T10:05:30.849Z</time>
      </trkpt>
      <trkpt lat="43.23195" lon="-4.21283333">
        <ele>284.0</ele>
        <time>2018-05-19T10:05:31.849Z</time>
      </trkpt>
      <trkpt lat="43.23192" lon="-4.212875">
        <ele>285.0</ele>
        <time>2018-05-19T10:05:32.858Z</time>
      </trkpt>
      <trkpt lat="43.23192" lon="-4.212875">
        <ele>285.0</ele>
        <time>2018-05-19T10:05:33.883Z</time>
      </trkpt>
      <trkpt lat="43.23189" lon="-4.21292167">
        <ele>285.0</ele>
        <time>2018-05-19T10:05:34.871Z</time>
      </trkpt>
      <trkpt lat="43.23189" lon="-4.21292167">
        <ele>285.0</ele>
        <time>2018-05-19T10:05:35.856Z</time>
      </trkpt>
      <trkpt lat="43.23186167" lon="-4.21296">
        <ele>286.0</ele>
        <time>2018-05-19T10:05:36.853Z</time>
      </trkpt>
      <trkpt lat="43.23186167" lon="-4.21296">
        <ele>286.0</ele>
        <time>2018-05-19T10:05:37.848Z</time>
      </trkpt>
      <trkpt lat="43.231815" lon="-4.21301667">
        <ele>286.0</ele>
        <time>2018-05-19T10:05:38.852Z</time>
      </trkpt>
      <trkpt lat="43.231815" lon="-4.21301667">
        <ele>286.0</ele>
        <time>2018-05-19T10:05:39.849Z</time>
      </trkpt>
      <trkpt lat="43.23177667" lon="-4.21306167">
        <ele>287.0</ele>
        <time>2018-05-19T10:05:40.874Z</time>
      </trkpt>
      <trkpt lat="43.23174833" lon="-4.21308833">
        <ele>288.0</ele>
        <time>2018-05-19T10:05:41.861Z</time>
      </trkpt>
      <trkpt lat="43.23174833" lon="-4.21308833">
        <ele>288.0</ele>
        <time>2018-05-19T10:05:42.847Z</time>
      </trkpt>
      <trkpt lat="43.23168833" lon="-4.21315333">
        <ele>288.0</ele>
        <time>2018-05-19T10:05:43.865Z</time>
      </trkpt>
      <trkpt lat="43.23166" lon="-4.21317833">
        <ele>288.0</ele>
        <time>2018-05-19T10:05:44.855Z</time>
      </trkpt>
      <trkpt lat="43.23166" lon="-4.21317833">
        <ele>288.0</ele>
        <time>2018-05-19T10:05:45.861Z</time>
      </trkpt>
      <trkpt lat="43.23159" lon="-4.21323167">
        <ele>289.0</ele>
        <time>2018-05-19T10:05:46.856Z</time>
      </trkpt>
      <trkpt lat="43.23156333" lon="-4.21324833">
        <ele>289.0</ele>
        <time>2018-05-19T10:05:47.862Z</time>
      </trkpt>
      <trkpt lat="43.23156333" lon="-4.21324833">
        <ele>289.0</ele>
        <time>2018-05-19T10:05:48.868Z</time>
      </trkpt>
      <trkpt lat="43.23150833" lon="-4.21327833">
        <ele>289.0</ele>
        <time>2018-05-19T10:05:49.874Z</time>
      </trkpt>
      <trkpt lat="43.23150833" lon="-4.21327833">
        <ele>289.0</ele>
        <time>2018-05-19T10:05:50.852Z</time>
      </trkpt>
      <trkpt lat="43.23146167" lon="-4.21330833">
        <ele>290.0</ele>
        <time>2018-05-19T10:05:51.866Z</time>
      </trkpt>
      <trkpt lat="43.23143667" lon="-4.21332">
        <ele>290.0</ele>
        <time>2018-05-19T10:05:52.852Z</time>
      </trkpt>
      <trkpt lat="43.23143667" lon="-4.21332">
        <ele>290.0</ele>
        <time>2018-05-19T10:05:53.883Z</time>
      </trkpt>
      <trkpt lat="43.23137833" lon="-4.21334">
        <ele>290.0</ele>
        <time>2018-05-19T10:05:54.851Z</time>
      </trkpt>
      <trkpt lat="43.23137833" lon="-4.21334">
        <ele>290.0</ele>
        <time>2018-05-19T10:05:55.849Z</time>
      </trkpt>
      <trkpt lat="43.231325" lon="-4.21335">
        <ele>291.0</ele>
        <time>2018-05-19T10:05:56.852Z</time>
      </trkpt>
      <trkpt lat="43.23130333" lon="-4.213355">
        <ele>291.0</ele>
        <time>2018-05-19T10:05:57.851Z</time>
      </trkpt>
      <trkpt lat="43.23130333" lon="-4.213355">
        <ele>291.0</ele>
        <time>2018-05-19T10:05:58.849Z</time>
      </trkpt>
      <trkpt lat="43.231255" lon="-4.21336167">
        <ele>291.0</ele>
        <time>2018-05-19T10:05:59.851Z</time>
      </trkpt>
      <trkpt lat="43.23123" lon="-4.213365">
        <ele>291.0</ele>
        <time>2018-05-19T10:06:00.853Z</time>
      </trkpt>
      <trkpt lat="43.23123" lon="-4.213365">
        <ele>291.0</ele>
        <time>2018-05-19T10:06:01.846Z</time>
      </trkpt>
      <trkpt lat="43.23117833" lon="-4.21337333">
        <ele>291.0</ele>
        <time>2018-05-19T10:06:02.851Z</time>
      </trkpt>
      <trkpt lat="43.23117833" lon="-4.21337333">
        <ele>291.0</ele>
        <time>2018-05-19T10:06:03.882Z</time>
      </trkpt>
      <trkpt lat="43.23114" lon="-4.213385">
        <ele>292.0</ele>
        <time>2018-05-19T10:06:04.875Z</time>
      </trkpt>
      <trkpt lat="43.23114" lon="-4.213385">
        <ele>292.0</ele>
        <time>2018-05-19T10:06:05.862Z</time>
      </trkpt>
      <trkpt lat="43.23109833" lon="-4.21340333">
        <ele>292.0</ele>
        <time>2018-05-19T10:06:06.852Z</time>
      </trkpt>
      <trkpt lat="43.23109833" lon="-4.21340333">
        <ele>292.0</ele>
        <time>2018-05-19T10:06:07.849Z</time>
      </trkpt>
      <trkpt lat="43.23105333" lon="-4.21342333">
        <ele>292.0</ele>
        <time>2018-05-19T10:06:08.851Z</time>
      </trkpt>
      <trkpt lat="43.23105333" lon="-4.21342333">
        <ele>292.0</ele>
        <time>2018-05-19T10:06:09.846Z</time>
      </trkpt>
      <trkpt lat="43.23101" lon="-4.21345333">
        <ele>293.0</ele>
        <time>2018-05-19T10:06:10.853Z</time>
      </trkpt>
      <trkpt lat="43.23101" lon="-4.21345333">
        <ele>293.0</ele>
        <time>2018-05-19T10:06:11.849Z</time>
      </trkpt>
      <trkpt lat="43.23096667" lon="-4.213485">
        <ele>293.0</ele>
        <time>2018-05-19T10:06:12.852Z</time>
      </trkpt>
      <trkpt lat="43.23096667" lon="-4.213485">
        <ele>293.0</ele>
        <time>2018-05-19T10:06:13.848Z</time>
      </trkpt>
      <trkpt lat="43.230925" lon="-4.21350833">
        <ele>293.0</ele>
        <time>2018-05-19T10:06:14.853Z</time>
      </trkpt>
      <trkpt lat="43.230925" lon="-4.21350833">
        <ele>293.0</ele>
        <time>2018-05-19T10:06:15.849Z</time>
      </trkpt>
      <trkpt lat="43.23089333" lon="-4.21353167">
        <ele>293.0</ele>
        <time>2018-05-19T10:06:16.852Z</time>
      </trkpt>
      <trkpt lat="43.23089333" lon="-4.21353167">
        <ele>293.0</ele>
        <time>2018-05-19T10:06:17.882Z</time>
      </trkpt>
      <trkpt lat="43.230855" lon="-4.21355833">
        <ele>293.0</ele>
        <time>2018-05-19T10:06:18.867Z</time>
      </trkpt>
      <trkpt lat="43.23083833" lon="-4.21357">
        <ele>293.0</ele>
        <time>2018-05-19T10:06:19.853Z</time>
      </trkpt>
      <trkpt lat="43.23083833" lon="-4.21357">
        <ele>293.0</ele>
        <time>2018-05-19T10:06:20.850Z</time>
      </trkpt>
      <trkpt lat="43.23080333" lon="-4.21360167">
        <ele>294.0</ele>
        <time>2018-05-19T10:06:21.852Z</time>
      </trkpt>
      <trkpt lat="43.23080333" lon="-4.21360167">
        <ele>294.0</ele>
        <time>2018-05-19T10:06:22.848Z</time>
      </trkpt>
      <trkpt lat="43.23077" lon="-4.21362">
        <ele>294.0</ele>
        <time>2018-05-19T10:06:23.845Z</time>
      </trkpt>
      <trkpt lat="43.230745" lon="-4.213635">
        <ele>294.0</ele>
        <time>2018-05-19T10:06:24.854Z</time>
      </trkpt>
      <trkpt lat="43.230745" lon="-4.213635">
        <ele>294.0</ele>
        <time>2018-05-19T10:06:25.851Z</time>
      </trkpt>
      <trkpt lat="43.2307" lon="-4.21366167">
        <ele>295.0</ele>
        <time>2018-05-19T10:06:26.851Z</time>
      </trkpt>
      <trkpt lat="43.2307" lon="-4.21366167">
        <ele>295.0</ele>
        <time>2018-05-19T10:06:27.846Z</time>
      </trkpt>
      <trkpt lat="43.230665" lon="-4.21368667">
        <ele>296.0</ele>
        <time>2018-05-19T10:06:28.852Z</time>
      </trkpt>
      <trkpt lat="43.230665" lon="-4.21368667">
        <ele>296.0</ele>
        <time>2018-05-19T10:06:29.849Z</time>
      </trkpt>
      <trkpt lat="43.23063333" lon="-4.21371333">
        <ele>297.0</ele>
        <time>2018-05-19T10:06:30.849Z</time>
      </trkpt>
      <trkpt lat="43.23063333" lon="-4.21371333">
        <ele>297.0</ele>
        <time>2018-05-19T10:06:31.848Z</time>
      </trkpt>
      <trkpt lat="43.2306" lon="-4.21373833">
        <ele>297.0</ele>
        <time>2018-05-19T10:06:32.851Z</time>
      </trkpt>
      <trkpt lat="43.2306" lon="-4.21373833">
        <ele>297.0</ele>
        <time>2018-05-19T10:06:33.882Z</time>
      </trkpt>
      <trkpt lat="43.230565" lon="-4.21376333">
        <ele>298.0</ele>
        <time>2018-05-19T10:06:34.876Z</time>
      </trkpt>
      <trkpt lat="43.230565" lon="-4.21376333">
        <ele>298.0</ele>
        <time>2018-05-19T10:06:35.861Z</time>
      </trkpt>
      <trkpt lat="43.23053" lon="-4.21378">
        <ele>298.0</ele>
        <time>2018-05-19T10:06:36.849Z</time>
      </trkpt>
      <trkpt lat="43.23053" lon="-4.21378">
        <ele>298.0</ele>
        <time>2018-05-19T10:06:37.849Z</time>
      </trkpt>
      <trkpt lat="43.23049167" lon="-4.2138">
        <ele>299.0</ele>
        <time>2018-05-19T10:06:38.851Z</time>
      </trkpt>
      <trkpt lat="43.23047333" lon="-4.21380833">
        <ele>299.0</ele>
        <time>2018-05-19T10:06:39.862Z</time>
      </trkpt>
      <trkpt lat="43.23047333" lon="-4.21380833">
        <ele>299.0</ele>
        <time>2018-05-19T10:06:40.858Z</time>
      </trkpt>
      <trkpt lat="43.230435" lon="-4.21382833">
        <ele>299.0</ele>
        <time>2018-05-19T10:06:41.852Z</time>
      </trkpt>
      <trkpt lat="43.230435" lon="-4.21382833">
        <ele>299.0</ele>
        <time>2018-05-19T10:06:42.846Z</time>
      </trkpt>
      <trkpt lat="43.23039333" lon="-4.21384333">
        <ele>300.0</ele>
        <time>2018-05-19T10:06:43.875Z</time>
      </trkpt>
      <trkpt lat="43.23037167" lon="-4.21385333">
        <ele>300.0</ele>
        <time>2018-05-19T10:06:44.867Z</time>
      </trkpt>
      <trkpt lat="43.23037167" lon="-4.21385333">
        <ele>300.0</ele>
        <time>2018-05-19T10:06:45.852Z</time>
      </trkpt>
      <trkpt lat="43.23034" lon="-4.21387167">
        <ele>300.0</ele>
        <time>2018-05-19T10:06:46.856Z</time>
      </trkpt>
      <trkpt lat="43.23032167" lon="-4.21388">
        <ele>300.0</ele>
        <time>2018-05-19T10:06:47.863Z</time>
      </trkpt>
      <trkpt lat="43.23032167" lon="-4.21388">
        <ele>300.0</ele>
        <time>2018-05-19T10:06:48.871Z</time>
      </trkpt>
      <trkpt lat="43.23028" lon="-4.21391833">
        <ele>300.0</ele>
        <time>2018-05-19T10:06:49.857Z</time>
      </trkpt>
      <trkpt lat="43.23028" lon="-4.21391833">
        <ele>300.0</ele>
        <time>2018-05-19T10:06:50.848Z</time>
      </trkpt>
      <trkpt lat="43.23024667" lon="-4.21395">
        <ele>301.0</ele>
        <time>2018-05-19T10:06:51.849Z</time>
      </trkpt>
      <trkpt lat="43.23024667" lon="-4.21395">
        <ele>301.0</ele>
        <time>2018-05-19T10:06:52.848Z</time>
      </trkpt>
      <trkpt lat="43.23021167" lon="-4.21396">
        <ele>301.0</ele>
        <time>2018-05-19T10:06:53.844Z</time>
      </trkpt>
      <trkpt lat="43.23018667" lon="-4.213965">
        <ele>302.0</ele>
        <time>2018-05-19T10:06:54.853Z</time>
      </trkpt>
      <trkpt lat="43.23018667" lon="-4.213965">
        <ele>302.0</ele>
        <time>2018-05-19T10:06:55.862Z</time>
      </trkpt>
      <trkpt lat="43.23014167" lon="-4.213975">
        <ele>302.0</ele>
        <time>2018-05-19T10:06:56.851Z</time>
      </trkpt>
      <trkpt lat="43.23014167" lon="-4.213975">
        <ele>302.0</ele>
        <time>2018-05-19T10:06:57.848Z</time>
      </trkpt>
      <trkpt lat="43.2301" lon="-4.21397">
        <ele>303.0</ele>
        <time>2018-05-19T10:06:58.852Z</time>
      </trkpt>
      <trkpt lat="43.2301" lon="-4.21397">
        <ele>303.0</ele>
        <time>2018-05-19T10:06:59.852Z</time>
      </trkpt>
      <trkpt lat="43.230065" lon="-4.21395833">
        <ele>303.0</ele>
        <time>2018-05-19T10:07:00.851Z</time>
      </trkpt>
      <trkpt lat="43.230065" lon="-4.21395833">
        <ele>303.0</ele>
        <time>2018-05-19T10:07:01.847Z</time>
      </trkpt>
      <trkpt lat="43.23003" lon="-4.21394167">
        <ele>304.0</ele>
        <time>2018-05-19T10:07:02.851Z</time>
      </trkpt>
      <trkpt lat="43.23003" lon="-4.21394167">
        <ele>304.0</ele>
        <time>2018-05-19T10:07:03.848Z</time>
      </trkpt>
      <trkpt lat="43.22999167" lon="-4.21392833">
        <ele>305.0</ele>
        <time>2018-05-19T10:07:04.850Z</time>
      </trkpt>
      <trkpt lat="43.22999167" lon="-4.21392833">
        <ele>305.0</ele>
        <time>2018-05-19T10:07:05.857Z</time>
      </trkpt>
      <trkpt lat="43.22995333" lon="-4.21391167">
        <ele>305.0</ele>
        <time>2018-05-19T10:07:06.854Z</time>
      </trkpt>
      <trkpt lat="43.22995333" lon="-4.21391167">
        <ele>305.0</ele>
        <time>2018-05-19T10:07:07.848Z</time>
      </trkpt>
      <trkpt lat="43.22992" lon="-4.21388667">
        <ele>305.0</ele>
        <time>2018-05-19T10:07:08.848Z</time>
      </trkpt>
      <trkpt lat="43.22992" lon="-4.21388667">
        <ele>305.0</ele>
        <time>2018-05-19T10:07:09.846Z</time>
      </trkpt>
      <trkpt lat="43.22988833" lon="-4.213865">
        <ele>306.0</ele>
        <time>2018-05-19T10:07:10.851Z</time>
      </trkpt>
      <trkpt lat="43.22988833" lon="-4.213865">
        <ele>306.0</ele>
        <time>2018-05-19T10:07:11.847Z</time>
      </trkpt>
      <trkpt lat="43.22985667" lon="-4.213855">
        <ele>307.0</ele>
        <time>2018-05-19T10:07:12.852Z</time>
      </trkpt>
      <trkpt lat="43.22985667" lon="-4.213855">
        <ele>307.0</ele>
        <time>2018-05-19T10:07:13.844Z</time>
      </trkpt>
      <trkpt lat="43.22982333" lon="-4.213855">
        <ele>307.0</ele>
        <time>2018-05-19T10:07:14.851Z</time>
      </trkpt>
      <trkpt lat="43.22982333" lon="-4.213855">
        <ele>307.0</ele>
        <time>2018-05-19T10:07:15.849Z</time>
      </trkpt>
      <trkpt lat="43.22979333" lon="-4.21387">
        <ele>308.0</ele>
        <time>2018-05-19T10:07:16.849Z</time>
      </trkpt>
      <trkpt lat="43.22979333" lon="-4.21387">
        <ele>308.0</ele>
        <time>2018-05-19T10:07:17.847Z</time>
      </trkpt>
      <trkpt lat="43.22977167" lon="-4.21389667">
        <ele>308.0</ele>
        <time>2018-05-19T10:07:18.865Z</time>
      </trkpt>
      <trkpt lat="43.22977167" lon="-4.21389667">
        <ele>308.0</ele>
        <time>2018-05-19T10:07:19.850Z</time>
      </trkpt>
      <trkpt lat="43.22974833" lon="-4.213935">
        <ele>309.0</ele>
        <time>2018-05-19T10:07:20.851Z</time>
      </trkpt>
      <trkpt lat="43.22974833" lon="-4.213935">
        <ele>309.0</ele>
        <time>2018-05-19T10:07:21.849Z</time>
      </trkpt>
      <trkpt lat="43.22971167" lon="-4.21398833">
        <ele>310.0</ele>
        <time>2018-05-19T10:07:22.852Z</time>
      </trkpt>
      <trkpt lat="43.22971167" lon="-4.21398833">
        <ele>310.0</ele>
        <time>2018-05-19T10:07:23.881Z</time>
      </trkpt>
      <trkpt lat="43.22970167" lon="-4.21403">
        <ele>310.0</ele>
        <time>2018-05-19T10:07:24.865Z</time>
      </trkpt>
      <trkpt lat="43.22970167" lon="-4.21403">
        <ele>310.0</ele>
        <time>2018-05-19T10:07:25.863Z</time>
      </trkpt>
      <trkpt lat="43.22968333" lon="-4.21408167">
        <ele>311.0</ele>
        <time>2018-05-19T10:07:26.852Z</time>
      </trkpt>
      <trkpt lat="43.22968333" lon="-4.21408167">
        <ele>311.0</ele>
        <time>2018-05-19T10:07:27.846Z</time>
      </trkpt>
      <trkpt lat="43.22967833" lon="-4.21412833">
        <ele>312.0</ele>
        <time>2018-05-19T10:07:28.852Z</time>
      </trkpt>
      <trkpt lat="43.22967833" lon="-4.21412833">
        <ele>312.0</ele>
        <time>2018-05-19T10:07:29.849Z</time>
      </trkpt>
      <trkpt lat="43.229675" lon="-4.21417833">
        <ele>312.0</ele>
        <time>2018-05-19T10:07:30.852Z</time>
      </trkpt>
      <trkpt lat="43.229675" lon="-4.21417833">
        <ele>312.0</ele>
        <time>2018-05-19T10:07:31.845Z</time>
      </trkpt>
      <trkpt lat="43.22967167" lon="-4.21422833">
        <ele>313.0</ele>
        <time>2018-05-19T10:07:32.851Z</time>
      </trkpt>
      <trkpt lat="43.22967167" lon="-4.21422833">
        <ele>313.0</ele>
        <time>2018-05-19T10:07:33.845Z</time>
      </trkpt>
      <trkpt lat="43.22965667" lon="-4.21428">
        <ele>314.0</ele>
        <time>2018-05-19T10:07:34.868Z</time>
      </trkpt>
      <trkpt lat="43.22965667" lon="-4.21428">
        <ele>314.0</ele>
        <time>2018-05-19T10:07:35.853Z</time>
      </trkpt>
      <trkpt lat="43.22964333" lon="-4.21432833">
        <ele>314.0</ele>
        <time>2018-05-19T10:07:36.851Z</time>
      </trkpt>
      <trkpt lat="43.22964333" lon="-4.21432833">
        <ele>314.0</ele>
        <time>2018-05-19T10:07:37.847Z</time>
      </trkpt>
      <trkpt lat="43.22962667" lon="-4.21437">
        <ele>314.0</ele>
        <time>2018-05-19T10:07:38.848Z</time>
      </trkpt>
      <trkpt lat="43.229615" lon="-4.21439">
        <ele>315.0</ele>
        <time>2018-05-19T10:07:39.851Z</time>
      </trkpt>
      <trkpt lat="43.229615" lon="-4.21439">
        <ele>315.0</ele>
        <time>2018-05-19T10:07:40.875Z</time>
      </trkpt>
      <trkpt lat="43.22959167" lon="-4.21442">
        <ele>315.0</ele>
        <time>2018-05-19T10:07:41.864Z</time>
      </trkpt>
      <trkpt lat="43.22958" lon="-4.21443">
        <ele>315.0</ele>
        <time>2018-05-19T10:07:42.852Z</time>
      </trkpt>
      <trkpt lat="43.22958" lon="-4.21443">
        <ele>315.0</ele>
        <time>2018-05-19T10:07:43.845Z</time>
      </trkpt>
      <trkpt lat="43.229545" lon="-4.21444833">
        <ele>315.0</ele>
        <time>2018-05-19T10:07:44.851Z</time>
      </trkpt>
      <trkpt lat="43.229545" lon="-4.21444833">
        <ele>315.0</ele>
        <time>2018-05-19T10:07:45.879Z</time>
      </trkpt>
      <trkpt lat="43.22951333" lon="-4.21444833">
        <ele>315.0</ele>
        <time>2018-05-19T10:07:46.869Z</time>
      </trkpt>
      <trkpt lat="43.22949167" lon="-4.21445333">
        <ele>316.0</ele>
        <time>2018-05-19T10:07:47.881Z</time>
      </trkpt>
      <trkpt lat="43.22946667" lon="-4.21445667">
        <ele>316.0</ele>
        <time>2018-05-19T10:07:48.849Z</time>
      </trkpt>
      <trkpt lat="43.22946667" lon="-4.21445667">
        <ele>316.0</ele>
        <time>2018-05-19T10:07:49.850Z</time>
      </trkpt>
      <trkpt lat="43.22942167" lon="-4.21445833">
        <ele>317.0</ele>
        <time>2018-05-19T10:07:50.848Z</time>
      </trkpt>
      <trkpt lat="43.229405" lon="-4.21446">
        <ele>318.0</ele>
        <time>2018-05-19T10:07:51.851Z</time>
      </trkpt>
      <trkpt lat="43.229405" lon="-4.21446">
        <ele>318.0</ele>
        <time>2018-05-19T10:07:52.855Z</time>
      </trkpt>
      <trkpt lat="43.22936333" lon="-4.21447667">
        <ele>318.0</ele>
        <time>2018-05-19T10:07:53.851Z</time>
      </trkpt>
      <trkpt lat="43.229345" lon="-4.21447833">
        <ele>319.0</ele>
        <time>2018-05-19T10:07:54.850Z</time>
      </trkpt>
      <trkpt lat="43.229345" lon="-4.21447833">
        <ele>319.0</ele>
        <time>2018-05-19T10:07:55.881Z</time>
      </trkpt>
      <trkpt lat="43.22930833" lon="-4.21449167">
        <ele>320.0</ele>
        <time>2018-05-19T10:07:56.864Z</time>
      </trkpt>
      <trkpt lat="43.22929333" lon="-4.2145">
        <ele>320.0</ele>
        <time>2018-05-19T10:07:57.851Z</time>
      </trkpt>
      <trkpt lat="43.22929333" lon="-4.2145">
        <ele>320.0</ele>
        <time>2018-05-19T10:07:58.849Z</time>
      </trkpt>
      <trkpt lat="43.229265" lon="-4.21451333">
        <ele>320.0</ele>
        <time>2018-05-19T10:07:59.847Z</time>
      </trkpt>
      <trkpt lat="43.22925167" lon="-4.21452">
        <ele>320.0</ele>
        <time>2018-05-19T10:08:00.852Z</time>
      </trkpt>
      <trkpt lat="43.22925167" lon="-4.21452">
        <ele>320.0</ele>
        <time>2018-05-19T10:08:01.848Z</time>
      </trkpt>
      <trkpt lat="43.22922167" lon="-4.21453667">
        <ele>321.0</ele>
        <time>2018-05-19T10:08:02.851Z</time>
      </trkpt>
      <trkpt lat="43.22922167" lon="-4.21453667">
        <ele>321.0</ele>
        <time>2018-05-19T10:08:03.880Z</time>
      </trkpt>
      <trkpt lat="43.22918833" lon="-4.21454333">
        <ele>321.0</ele>
        <time>2018-05-19T10:08:04.867Z</time>
      </trkpt>
      <trkpt lat="43.22918833" lon="-4.21454333">
        <ele>321.0</ele>
        <time>2018-05-19T10:08:05.853Z</time>
      </trkpt>
      <trkpt lat="43.22915667" lon="-4.21454333">
        <ele>321.0</ele>
        <time>2018-05-19T10:08:06.850Z</time>
      </trkpt>
      <trkpt lat="43.22915667" lon="-4.21454333">
        <ele>321.0</ele>
        <time>2018-05-19T10:08:07.847Z</time>
      </trkpt>
      <trkpt lat="43.22912667" lon="-4.21454">
        <ele>322.0</ele>
        <time>2018-05-19T10:08:08.851Z</time>
      </trkpt>
      <trkpt lat="43.22910833" lon="-4.21453167">
        <ele>322.0</ele>
        <time>2018-05-19T10:08:09.851Z</time>
      </trkpt>
      <trkpt lat="43.22910833" lon="-4.21453167">
        <ele>322.0</ele>
        <time>2018-05-19T10:08:10.848Z</time>
      </trkpt>
      <trkpt lat="43.22907833" lon="-4.21451833">
        <ele>322.0</ele>
        <time>2018-05-19T10:08:11.850Z</time>
      </trkpt>
      <trkpt lat="43.22907833" lon="-4.21451833">
        <ele>322.0</ele>
        <time>2018-05-19T10:08:12.883Z</time>
      </trkpt>
      <trkpt lat="43.22904167" lon="-4.21451">
        <ele>323.0</ele>
        <time>2018-05-19T10:08:13.882Z</time>
      </trkpt>
      <trkpt lat="43.22902167" lon="-4.214505">
        <ele>323.0</ele>
        <time>2018-05-19T10:08:14.866Z</time>
      </trkpt>
      <trkpt lat="43.22902167" lon="-4.214505">
        <ele>323.0</ele>
        <time>2018-05-19T10:08:15.850Z</time>
      </trkpt>
      <trkpt lat="43.22899" lon="-4.21450167">
        <ele>323.0</ele>
        <time>2018-05-19T10:08:16.872Z</time>
      </trkpt>
      <trkpt lat="43.22899" lon="-4.21450167">
        <ele>323.0</ele>
        <time>2018-05-19T10:08:17.858Z</time>
      </trkpt>
      <trkpt lat="43.22895667" lon="-4.21450333">
        <ele>323.0</ele>
        <time>2018-05-19T10:08:18.852Z</time>
      </trkpt>
      <trkpt lat="43.22895667" lon="-4.21450333">
        <ele>323.0</ele>
        <time>2018-05-19T10:08:19.846Z</time>
      </trkpt>
      <trkpt lat="43.22891" lon="-4.21450667">
        <ele>324.0</ele>
        <time>2018-05-19T10:08:20.852Z</time>
      </trkpt>
      <trkpt lat="43.22891" lon="-4.21450667">
        <ele>324.0</ele>
        <time>2018-05-19T10:08:21.848Z</time>
      </trkpt>
      <trkpt lat="43.22886333" lon="-4.21450667">
        <ele>324.0</ele>
        <time>2018-05-19T10:08:22.850Z</time>
      </trkpt>
      <trkpt lat="43.22886333" lon="-4.21450667">
        <ele>324.0</ele>
        <time>2018-05-19T10:08:23.844Z</time>
      </trkpt>
      <trkpt lat="43.22882333" lon="-4.21450833">
        <ele>324.0</ele>
        <time>2018-05-19T10:08:24.849Z</time>
      </trkpt>
      <trkpt lat="43.22882333" lon="-4.21450833">
        <ele>324.0</ele>
        <time>2018-05-19T10:08:25.849Z</time>
      </trkpt>
      <trkpt lat="43.22878333" lon="-4.21451167">
        <ele>324.0</ele>
        <time>2018-05-19T10:08:26.848Z</time>
      </trkpt>
      <trkpt lat="43.22876667" lon="-4.214515">
        <ele>325.0</ele>
        <time>2018-05-19T10:08:27.851Z</time>
      </trkpt>
      <trkpt lat="43.22876667" lon="-4.214515">
        <ele>325.0</ele>
        <time>2018-05-19T10:08:28.849Z</time>
      </trkpt>
      <trkpt lat="43.22874167" lon="-4.2145">
        <ele>325.0</ele>
        <time>2018-05-19T10:08:29.850Z</time>
      </trkpt>
      <trkpt lat="43.22872167" lon="-4.21449167">
        <ele>325.0</ele>
        <time>2018-05-19T10:08:30.852Z</time>
      </trkpt>
      <trkpt lat="43.22872167" lon="-4.21449167">
        <ele>325.0</ele>
        <time>2018-05-19T10:08:31.881Z</time>
      </trkpt>
      <trkpt lat="43.22868" lon="-4.21447667">
        <ele>325.0</ele>
        <time>2018-05-19T10:08:32.864Z</time>
      </trkpt>
      <trkpt lat="43.22868" lon="-4.21447667">
        <ele>325.0</ele>
        <time>2018-05-19T10:08:33.849Z</time>
      </trkpt>
      <trkpt lat="43.22864" lon="-4.21446833">
        <ele>326.0</ele>
        <time>2018-05-19T10:08:34.851Z</time>
      </trkpt>
      <trkpt lat="43.22864" lon="-4.21446833">
        <ele>326.0</ele>
        <time>2018-05-19T10:08:35.845Z</time>
      </trkpt>
      <trkpt lat="43.228595" lon="-4.214465">
        <ele>326.0</ele>
        <time>2018-05-19T10:08:36.847Z</time>
      </trkpt>
      <trkpt lat="43.22857167" lon="-4.21446667">
        <ele>326.0</ele>
        <time>2018-05-19T10:08:37.851Z</time>
      </trkpt>
      <trkpt lat="43.22857167" lon="-4.21446667">
        <ele>326.0</ele>
        <time>2018-05-19T10:08:38.847Z</time>
      </trkpt>
      <trkpt lat="43.22853" lon="-4.21445833">
        <ele>327.0</ele>
        <time>2018-05-19T10:08:39.850Z</time>
      </trkpt>
      <trkpt lat="43.22853" lon="-4.21445833">
        <ele>327.0</ele>
        <time>2018-05-19T10:08:40.882Z</time>
      </trkpt>
      <trkpt lat="43.22849167" lon="-4.21444833">
        <ele>327.0</ele>
        <time>2018-05-19T10:08:41.867Z</time>
      </trkpt>
      <trkpt lat="43.22849167" lon="-4.21444833">
        <ele>327.0</ele>
        <time>2018-05-19T10:08:42.852Z</time>
      </trkpt>
      <trkpt lat="43.22845667" lon="-4.214435">
        <ele>327.0</ele>
        <time>2018-05-19T10:08:43.864Z</time>
      </trkpt>
      <trkpt lat="43.22843667" lon="-4.21442833">
        <ele>328.0</ele>
        <time>2018-05-19T10:08:44.851Z</time>
      </trkpt>
      <trkpt lat="43.22843667" lon="-4.21442833">
        <ele>328.0</ele>
        <time>2018-05-19T10:08:45.868Z</time>
      </trkpt>
      <trkpt lat="43.22841" lon="-4.21441833">
        <ele>328.0</ele>
        <time>2018-05-19T10:08:46.847Z</time>
      </trkpt>
      <trkpt lat="43.22841" lon="-4.21441833">
        <ele>328.0</ele>
        <time>2018-05-19T10:08:47.853Z</time>
      </trkpt>
      <trkpt lat="43.228385" lon="-4.21441333">
        <ele>329.0</ele>
        <time>2018-05-19T10:08:48.859Z</time>
      </trkpt>
      <trkpt lat="43.22837833" lon="-4.21441">
        <ele>330.0</ele>
        <time>2018-05-19T10:08:49.865Z</time>
      </trkpt>
      <trkpt lat="43.22836833" lon="-4.21440833">
        <ele>330.0</ele>
        <time>2018-05-19T10:08:50.882Z</time>
      </trkpt>
      <trkpt lat="43.228355" lon="-4.21440833">
        <ele>330.0</ele>
        <time>2018-05-19T10:08:51.868Z</time>
      </trkpt>
      <trkpt lat="43.228355" lon="-4.21440833">
        <ele>330.0</ele>
        <time>2018-05-19T10:08:52.851Z</time>
      </trkpt>
      <trkpt lat="43.22831667" lon="-4.21439833">
        <ele>331.0</ele>
        <time>2018-05-19T10:08:53.850Z</time>
      </trkpt>
      <trkpt lat="43.22829667" lon="-4.21439667">
        <ele>331.0</ele>
        <time>2018-05-19T10:08:54.852Z</time>
      </trkpt>
      <trkpt lat="43.22829667" lon="-4.21439667">
        <ele>331.0</ele>
        <time>2018-05-19T10:08:55.854Z</time>
      </trkpt>
      <trkpt lat="43.228245" lon="-4.214395">
        <ele>331.0</ele>
        <time>2018-05-19T10:08:56.866Z</time>
      </trkpt>
      <trkpt lat="43.22822833" lon="-4.21439833">
        <ele>331.0</ele>
        <time>2018-05-19T10:08:57.851Z</time>
      </trkpt>
      <trkpt lat="43.22820833" lon="-4.2144">
        <ele>331.0</ele>
        <time>2018-05-19T10:08:58.851Z</time>
      </trkpt>
      <trkpt lat="43.22820833" lon="-4.2144">
        <ele>331.0</ele>
        <time>2018-05-19T10:08:59.845Z</time>
      </trkpt>
      <trkpt lat="43.22816333" lon="-4.214405">
        <ele>332.0</ele>
        <time>2018-05-19T10:09:00.850Z</time>
      </trkpt>
      <trkpt lat="43.22816333" lon="-4.214405">
        <ele>332.0</ele>
        <time>2018-05-19T10:09:01.846Z</time>
      </trkpt>
      <trkpt lat="43.22812167" lon="-4.21441">
        <ele>332.0</ele>
        <time>2018-05-19T10:09:02.850Z</time>
      </trkpt>
      <trkpt lat="43.22812167" lon="-4.21441">
        <ele>332.0</ele>
        <time>2018-05-19T10:09:03.848Z</time>
      </trkpt>
      <trkpt lat="43.228095" lon="-4.21442167">
        <ele>333.0</ele>
        <time>2018-05-19T10:09:04.852Z</time>
      </trkpt>
      <trkpt lat="43.228095" lon="-4.21442167">
        <ele>333.0</ele>
        <time>2018-05-19T10:09:05.848Z</time>
      </trkpt>
      <trkpt lat="43.22806" lon="-4.21441667">
        <ele>333.0</ele>
        <time>2018-05-19T10:09:06.851Z</time>
      </trkpt>
      <trkpt lat="43.22806" lon="-4.21441667">
        <ele>333.0</ele>
        <time>2018-05-19T10:09:07.848Z</time>
      </trkpt>
      <trkpt lat="43.22802667" lon="-4.21441667">
        <ele>333.0</ele>
        <time>2018-05-19T10:09:08.847Z</time>
      </trkpt>
      <trkpt lat="43.22801167" lon="-4.21441833">
        <ele>333.0</ele>
        <time>2018-05-19T10:09:09.851Z</time>
      </trkpt>
      <trkpt lat="43.22801167" lon="-4.21441833">
        <ele>333.0</ele>
        <time>2018-05-19T10:09:10.849Z</time>
      </trkpt>
      <trkpt lat="43.22797833" lon="-4.21441667">
        <ele>334.0</ele>
        <time>2018-05-19T10:09:11.850Z</time>
      </trkpt>
      <trkpt lat="43.22796167" lon="-4.21441833">
        <ele>334.0</ele>
        <time>2018-05-19T10:09:12.851Z</time>
      </trkpt>
      <trkpt lat="43.22796167" lon="-4.21441833">
        <ele>334.0</ele>
        <time>2018-05-19T10:09:13.844Z</time>
      </trkpt>
      <trkpt lat="43.22793" lon="-4.21442167">
        <ele>334.0</ele>
        <time>2018-05-19T10:09:14.851Z</time>
      </trkpt>
      <trkpt lat="43.22793" lon="-4.21442167">
        <ele>334.0</ele>
        <time>2018-05-19T10:09:15.848Z</time>
      </trkpt>
      <trkpt lat="43.22789333" lon="-4.214435">
        <ele>334.0</ele>
        <time>2018-05-19T10:09:16.850Z</time>
      </trkpt>
      <trkpt lat="43.22789333" lon="-4.214435">
        <ele>334.0</ele>
        <time>2018-05-19T10:09:17.882Z</time>
      </trkpt>
      <trkpt lat="43.22786" lon="-4.214455">
        <ele>335.0</ele>
        <time>2018-05-19T10:09:18.867Z</time>
      </trkpt>
      <trkpt lat="43.22786" lon="-4.214455">
        <ele>335.0</ele>
        <time>2018-05-19T10:09:19.851Z</time>
      </trkpt>
      <trkpt lat="43.22782333" lon="-4.21446833">
        <ele>335.0</ele>
        <time>2018-05-19T10:09:20.850Z</time>
      </trkpt>
      <trkpt lat="43.22782333" lon="-4.21446833">
        <ele>335.0</ele>
        <time>2018-05-19T10:09:21.848Z</time>
      </trkpt>
      <trkpt lat="43.22779167" lon="-4.21448167">
        <ele>336.0</ele>
        <time>2018-05-19T10:09:22.851Z</time>
      </trkpt>
      <trkpt lat="43.22779167" lon="-4.21448167">
        <ele>336.0</ele>
        <time>2018-05-19T10:09:23.847Z</time>
      </trkpt>
      <trkpt lat="43.227765" lon="-4.214495">
        <ele>336.0</ele>
        <time>2018-05-19T10:09:24.852Z</time>
      </trkpt>
      <trkpt lat="43.227765" lon="-4.214495">
        <ele>336.0</ele>
        <time>2018-05-19T10:09:25.846Z</time>
      </trkpt>
      <trkpt lat="43.22772833" lon="-4.214515">
        <ele>336.0</ele>
        <time>2018-05-19T10:09:26.851Z</time>
      </trkpt>
      <trkpt lat="43.22772833" lon="-4.214515">
        <ele>336.0</ele>
        <time>2018-05-19T10:09:27.848Z</time>
      </trkpt>
      <trkpt lat="43.22768833" lon="-4.21454">
        <ele>336.0</ele>
        <time>2018-05-19T10:09:28.851Z</time>
      </trkpt>
      <trkpt lat="43.22768833" lon="-4.21454">
        <ele>336.0</ele>
        <time>2018-05-19T10:09:29.845Z</time>
      </trkpt>
      <trkpt lat="43.227655" lon="-4.214565">
        <ele>337.0</ele>
        <time>2018-05-19T10:09:30.851Z</time>
      </trkpt>
      <trkpt lat="43.227655" lon="-4.214565">
        <ele>337.0</ele>
        <time>2018-05-19T10:09:31.848Z</time>
      </trkpt>
      <trkpt lat="43.22761333" lon="-4.21458167">
        <ele>338.0</ele>
        <time>2018-05-19T10:09:32.850Z</time>
      </trkpt>
      <trkpt lat="43.22761333" lon="-4.21458167">
        <ele>338.0</ele>
        <time>2018-05-19T10:09:33.847Z</time>
      </trkpt>
      <trkpt lat="43.22757167" lon="-4.21458333">
        <ele>338.0</ele>
        <time>2018-05-19T10:09:34.851Z</time>
      </trkpt>
      <trkpt lat="43.22757167" lon="-4.21458333">
        <ele>338.0</ele>
        <time>2018-05-19T10:09:35.847Z</time>
      </trkpt>
      <trkpt lat="43.22753333" lon="-4.21457833">
        <ele>338.0</ele>
        <time>2018-05-19T10:09:36.850Z</time>
      </trkpt>
      <trkpt lat="43.22753333" lon="-4.21457833">
        <ele>338.0</ele>
        <time>2018-05-19T10:09:37.848Z</time>
      </trkpt>
      <trkpt lat="43.2275" lon="-4.21457167">
        <ele>339.0</ele>
        <time>2018-05-19T10:09:38.850Z</time>
      </trkpt>
      <trkpt lat="43.2275" lon="-4.21457167">
        <ele>339.0</ele>
        <time>2018-05-19T10:09:39.847Z</time>
      </trkpt>
      <trkpt lat="43.22746667" lon="-4.21456667">
        <ele>339.0</ele>
        <time>2018-05-19T10:09:40.853Z</time>
      </trkpt>
      <trkpt lat="43.22746667" lon="-4.21456667">
        <ele>339.0</ele>
        <time>2018-05-19T10:09:41.848Z</time>
      </trkpt>
      <trkpt lat="43.22743333" lon="-4.21456">
        <ele>339.0</ele>
        <time>2018-05-19T10:09:42.850Z</time>
      </trkpt>
      <trkpt lat="43.22743333" lon="-4.21456">
        <ele>339.0</ele>
        <time>2018-05-19T10:09:43.882Z</time>
      </trkpt>
      <trkpt lat="43.22739333" lon="-4.214555">
        <ele>340.0</ele>
        <time>2018-05-19T10:09:44.864Z</time>
      </trkpt>
      <trkpt lat="43.22739333" lon="-4.214555">
        <ele>340.0</ele>
        <time>2018-05-19T10:09:45.852Z</time>
      </trkpt>
      <trkpt lat="43.22735333" lon="-4.214555">
        <ele>340.0</ele>
        <time>2018-05-19T10:09:46.862Z</time>
      </trkpt>
      <trkpt lat="43.22735333" lon="-4.214555">
        <ele>340.0</ele>
        <time>2018-05-19T10:09:47.868Z</time>
      </trkpt>
      <trkpt lat="43.22732167" lon="-4.21456167">
        <ele>341.0</ele>
        <time>2018-05-19T10:09:48.875Z</time>
      </trkpt>
      <trkpt lat="43.22732167" lon="-4.21456167">
        <ele>341.0</ele>
        <time>2018-05-19T10:09:49.845Z</time>
      </trkpt>
      <trkpt lat="43.22729" lon="-4.21456667">
        <ele>341.0</ele>
        <time>2018-05-19T10:09:50.851Z</time>
      </trkpt>
      <trkpt lat="43.22729" lon="-4.21456667">
        <ele>341.0</ele>
        <time>2018-05-19T10:09:51.880Z</time>
      </trkpt>
      <trkpt lat="43.22725167" lon="-4.214565">
        <ele>341.0</ele>
        <time>2018-05-19T10:09:52.863Z</time>
      </trkpt>
      <trkpt lat="43.22725167" lon="-4.214565">
        <ele>341.0</ele>
        <time>2018-05-19T10:09:53.849Z</time>
      </trkpt>
      <trkpt lat="43.22721667" lon="-4.21456667">
        <ele>342.0</ele>
        <time>2018-05-19T10:09:54.848Z</time>
      </trkpt>
      <trkpt lat="43.22721667" lon="-4.21456667">
        <ele>342.0</ele>
        <time>2018-05-19T10:09:55.845Z</time>
      </trkpt>
      <trkpt lat="43.22718167" lon="-4.21457667">
        <ele>342.0</ele>
        <time>2018-05-19T10:09:56.851Z</time>
      </trkpt>
      <trkpt lat="43.22718167" lon="-4.21457667">
        <ele>342.0</ele>
        <time>2018-05-19T10:09:57.853Z</time>
      </trkpt>
      <trkpt lat="43.22713833" lon="-4.214575">
        <ele>342.0</ele>
        <time>2018-05-19T10:09:58.862Z</time>
      </trkpt>
      <trkpt lat="43.22713833" lon="-4.214575">
        <ele>342.0</ele>
        <time>2018-05-19T10:09:59.847Z</time>
      </trkpt>
      <trkpt lat="43.22709167" lon="-4.21458167">
        <ele>343.0</ele>
        <time>2018-05-19T10:10:00.851Z</time>
      </trkpt>
      <trkpt lat="43.22709167" lon="-4.21458167">
        <ele>343.0</ele>
        <time>2018-05-19T10:10:01.847Z</time>
      </trkpt>
      <trkpt lat="43.22706" lon="-4.21459167">
        <ele>343.0</ele>
        <time>2018-05-19T10:10:02.850Z</time>
      </trkpt>
      <trkpt lat="43.22706" lon="-4.21459167">
        <ele>343.0</ele>
        <time>2018-05-19T10:10:03.848Z</time>
      </trkpt>
      <trkpt lat="43.22703167" lon="-4.21460167">
        <ele>343.0</ele>
        <time>2018-05-19T10:10:04.852Z</time>
      </trkpt>
      <trkpt lat="43.22703167" lon="-4.21460167">
        <ele>343.0</ele>
        <time>2018-05-19T10:10:05.845Z</time>
      </trkpt>
      <trkpt lat="43.22699833" lon="-4.21462">
        <ele>344.0</ele>
        <time>2018-05-19T10:10:06.851Z</time>
      </trkpt>
      <trkpt lat="43.22699833" lon="-4.21462">
        <ele>344.0</ele>
        <time>2018-05-19T10:10:07.848Z</time>
      </trkpt>
      <trkpt lat="43.22695" lon="-4.21463167">
        <ele>344.0</ele>
        <time>2018-05-19T10:10:08.847Z</time>
      </trkpt>
      <trkpt lat="43.22695" lon="-4.21463167">
        <ele>344.0</ele>
        <time>2018-05-19T10:10:09.845Z</time>
      </trkpt>
      <trkpt lat="43.22691167" lon="-4.214635">
        <ele>345.0</ele>
        <time>2018-05-19T10:10:10.868Z</time>
      </trkpt>
      <trkpt lat="43.22691167" lon="-4.214635">
        <ele>345.0</ele>
        <time>2018-05-19T10:10:11.854Z</time>
      </trkpt>
      <trkpt lat="43.226875" lon="-4.21464333">
        <ele>345.0</ele>
        <time>2018-05-19T10:10:12.851Z</time>
      </trkpt>
      <trkpt lat="43.226875" lon="-4.21464333">
        <ele>345.0</ele>
        <time>2018-05-19T10:10:13.845Z</time>
      </trkpt>
      <trkpt lat="43.22683667" lon="-4.21463333">
        <ele>346.0</ele>
        <time>2018-05-19T10:10:14.850Z</time>
      </trkpt>
      <trkpt lat="43.22683667" lon="-4.21463333">
        <ele>346.0</ele>
        <time>2018-05-19T10:10:15.849Z</time>
      </trkpt>
      <trkpt lat="43.22680167" lon="-4.21462333">
        <ele>346.0</ele>
        <time>2018-05-19T10:10:16.851Z</time>
      </trkpt>
      <trkpt lat="43.22680167" lon="-4.21462333">
        <ele>346.0</ele>
        <time>2018-05-19T10:10:17.847Z</time>
      </trkpt>
      <trkpt lat="43.22677" lon="-4.21461167">
        <ele>346.0</ele>
        <time>2018-05-19T10:10:18.850Z</time>
      </trkpt>
      <trkpt lat="43.22677" lon="-4.21461167">
        <ele>346.0</ele>
        <time>2018-05-19T10:10:19.845Z</time>
      </trkpt>
      <trkpt lat="43.22674" lon="-4.21461">
        <ele>347.0</ele>
        <time>2018-05-19T10:10:20.850Z</time>
      </trkpt>
      <trkpt lat="43.22674" lon="-4.21461">
        <ele>347.0</ele>
        <time>2018-05-19T10:10:21.848Z</time>
      </trkpt>
      <trkpt lat="43.22670167" lon="-4.21460833">
        <ele>347.0</ele>
        <time>2018-05-19T10:10:22.852Z</time>
      </trkpt>
      <trkpt lat="43.22670167" lon="-4.21460833">
        <ele>347.0</ele>
        <time>2018-05-19T10:10:23.881Z</time>
      </trkpt>
      <trkpt lat="43.226665" lon="-4.21461333">
        <ele>348.0</ele>
        <time>2018-05-19T10:10:24.864Z</time>
      </trkpt>
      <trkpt lat="43.226665" lon="-4.21461333">
        <ele>348.0</ele>
        <time>2018-05-19T10:10:25.849Z</time>
      </trkpt>
      <trkpt lat="43.226625" lon="-4.21461167">
        <ele>348.0</ele>
        <time>2018-05-19T10:10:26.847Z</time>
      </trkpt>
      <trkpt lat="43.226625" lon="-4.21461167">
        <ele>348.0</ele>
        <time>2018-05-19T10:10:27.865Z</time>
      </trkpt>
      <trkpt lat="43.22659833" lon="-4.21461667">
        <ele>349.0</ele>
        <time>2018-05-19T10:10:28.851Z</time>
      </trkpt>
      <trkpt lat="43.22659833" lon="-4.21461667">
        <ele>349.0</ele>
        <time>2018-05-19T10:10:29.845Z</time>
      </trkpt>
      <trkpt lat="43.22655833" lon="-4.21462167">
        <ele>349.0</ele>
        <time>2018-05-19T10:10:30.850Z</time>
      </trkpt>
      <trkpt lat="43.22655833" lon="-4.21462167">
        <ele>349.0</ele>
        <time>2018-05-19T10:10:31.852Z</time>
      </trkpt>
      <trkpt lat="43.22651833" lon="-4.21462667">
        <ele>350.0</ele>
        <time>2018-05-19T10:10:32.850Z</time>
      </trkpt>
      <trkpt lat="43.22649667" lon="-4.21463">
        <ele>350.0</ele>
        <time>2018-05-19T10:10:33.845Z</time>
      </trkpt>
      <trkpt lat="43.22649667" lon="-4.21463">
        <ele>350.0</ele>
        <time>2018-05-19T10:10:34.849Z</time>
      </trkpt>
      <trkpt lat="43.22645" lon="-4.21463833">
        <ele>350.0</ele>
        <time>2018-05-19T10:10:35.847Z</time>
      </trkpt>
      <trkpt lat="43.22643167" lon="-4.21464">
        <ele>350.0</ele>
        <time>2018-05-19T10:10:36.850Z</time>
      </trkpt>
      <trkpt lat="43.22643167" lon="-4.21464">
        <ele>350.0</ele>
        <time>2018-05-19T10:10:37.863Z</time>
      </trkpt>
      <trkpt lat="43.22639333" lon="-4.21464167">
        <ele>350.0</ele>
        <time>2018-05-19T10:10:38.850Z</time>
      </trkpt>
      <trkpt lat="43.22639333" lon="-4.21464167">
        <ele>350.0</ele>
        <time>2018-05-19T10:10:39.844Z</time>
      </trkpt>
      <trkpt lat="43.22635833" lon="-4.21462667">
        <ele>351.0</ele>
        <time>2018-05-19T10:10:40.871Z</time>
      </trkpt>
      <trkpt lat="43.22635833" lon="-4.21462667">
        <ele>351.0</ele>
        <time>2018-05-19T10:10:41.853Z</time>
      </trkpt>
      <trkpt lat="43.226325" lon="-4.21461167">
        <ele>351.0</ele>
        <time>2018-05-19T10:10:42.851Z</time>
      </trkpt>
      <trkpt lat="43.226325" lon="-4.21461167">
        <ele>351.0</ele>
        <time>2018-05-19T10:10:43.846Z</time>
      </trkpt>
      <trkpt lat="43.22629333" lon="-4.214595">
        <ele>352.0</ele>
        <time>2018-05-19T10:10:44.844Z</time>
      </trkpt>
      <trkpt lat="43.22629333" lon="-4.214595">
        <ele>352.0</ele>
        <time>2018-05-19T10:10:45.851Z</time>
      </trkpt>
      <trkpt lat="43.226265" lon="-4.21457167">
        <ele>352.0</ele>
        <time>2018-05-19T10:10:46.863Z</time>
      </trkpt>
      <trkpt lat="43.22625" lon="-4.21456">
        <ele>353.0</ele>
        <time>2018-05-19T10:10:47.870Z</time>
      </trkpt>
      <trkpt lat="43.226235" lon="-4.214545">
        <ele>353.0</ele>
        <time>2018-05-19T10:10:48.858Z</time>
      </trkpt>
      <trkpt lat="43.226235" lon="-4.214545">
        <ele>353.0</ele>
        <time>2018-05-19T10:10:49.847Z</time>
      </trkpt>
      <trkpt lat="43.22621167" lon="-4.21451833">
        <ele>354.0</ele>
        <time>2018-05-19T10:10:50.850Z</time>
      </trkpt>
      <trkpt lat="43.22621167" lon="-4.21451833">
        <ele>354.0</ele>
        <time>2018-05-19T10:10:51.845Z</time>
      </trkpt>
      <trkpt lat="43.22619" lon="-4.21448667">
        <ele>354.0</ele>
        <time>2018-05-19T10:10:52.852Z</time>
      </trkpt>
      <trkpt lat="43.22619" lon="-4.21448667">
        <ele>354.0</ele>
        <time>2018-05-19T10:10:53.847Z</time>
      </trkpt>
      <trkpt lat="43.22617" lon="-4.21446">
        <ele>355.0</ele>
        <time>2018-05-19T10:10:54.851Z</time>
      </trkpt>
      <trkpt lat="43.22617" lon="-4.21446">
        <ele>355.0</ele>
        <time>2018-05-19T10:10:55.880Z</time>
      </trkpt>
      <trkpt lat="43.22614333" lon="-4.21443667">
        <ele>355.0</ele>
        <time>2018-05-19T10:10:56.863Z</time>
      </trkpt>
      <trkpt lat="43.22614333" lon="-4.21443667">
        <ele>355.0</ele>
        <time>2018-05-19T10:10:57.853Z</time>
      </trkpt>
      <trkpt lat="43.22611167" lon="-4.21441833">
        <ele>355.0</ele>
        <time>2018-05-19T10:10:58.848Z</time>
      </trkpt>
      <trkpt lat="43.22611167" lon="-4.21441833">
        <ele>355.0</ele>
        <time>2018-05-19T10:10:59.880Z</time>
      </trkpt>
      <trkpt lat="43.22604667" lon="-4.21440833">
        <ele>356.0</ele>
        <time>2018-05-19T10:11:00.868Z</time>
      </trkpt>
      <trkpt lat="43.22604667" lon="-4.21440833">
        <ele>356.0</ele>
        <time>2018-05-19T10:11:01.859Z</time>
      </trkpt>
      <trkpt lat="43.22599833" lon="-4.21440167">
        <ele>356.0</ele>
        <time>2018-05-19T10:11:02.850Z</time>
      </trkpt>
      <trkpt lat="43.22599833" lon="-4.21440167">
        <ele>356.0</ele>
        <time>2018-05-19T10:11:03.845Z</time>
      </trkpt>
      <trkpt lat="43.22596333" lon="-4.21441">
        <ele>357.0</ele>
        <time>2018-05-19T10:11:04.851Z</time>
      </trkpt>
      <trkpt lat="43.22596333" lon="-4.21441">
        <ele>357.0</ele>
        <time>2018-05-19T10:11:05.851Z</time>
      </trkpt>
      <trkpt lat="43.22594" lon="-4.21444167">
        <ele>357.0</ele>
        <time>2018-05-19T10:11:06.851Z</time>
      </trkpt>
      <trkpt lat="43.22594" lon="-4.21444167">
        <ele>357.0</ele>
        <time>2018-05-19T10:11:07.854Z</time>
      </trkpt>
      <trkpt lat="43.225925" lon="-4.21449167">
        <ele>358.0</ele>
        <time>2018-05-19T10:11:08.851Z</time>
      </trkpt>
      <trkpt lat="43.225925" lon="-4.21449167">
        <ele>358.0</ele>
        <time>2018-05-19T10:11:09.845Z</time>
      </trkpt>
      <trkpt lat="43.22593" lon="-4.21454167">
        <ele>358.0</ele>
        <time>2018-05-19T10:11:10.851Z</time>
      </trkpt>
      <trkpt lat="43.22593" lon="-4.21454167">
        <ele>358.0</ele>
        <time>2018-05-19T10:11:11.847Z</time>
      </trkpt>
      <trkpt lat="43.22596" lon="-4.21458667">
        <ele>358.0</ele>
        <time>2018-05-19T10:11:12.850Z</time>
      </trkpt>
      <trkpt lat="43.22596" lon="-4.21458667">
        <ele>358.0</ele>
        <time>2018-05-19T10:11:13.881Z</time>
      </trkpt>
      <trkpt lat="43.225995" lon="-4.21463">
        <ele>359.0</ele>
        <time>2018-05-19T10:11:14.864Z</time>
      </trkpt>
      <trkpt lat="43.225995" lon="-4.21463">
        <ele>359.0</ele>
        <time>2018-05-19T10:11:15.846Z</time>
      </trkpt>
      <trkpt lat="43.226035" lon="-4.21466333">
        <ele>359.0</ele>
        <time>2018-05-19T10:11:16.847Z</time>
      </trkpt>
      <trkpt lat="43.226035" lon="-4.21466333">
        <ele>359.0</ele>
        <time>2018-05-19T10:11:17.882Z</time>
      </trkpt>
      <trkpt lat="43.22607333" lon="-4.21469">
        <ele>360.0</ele>
        <time>2018-05-19T10:11:18.869Z</time>
      </trkpt>
      <trkpt lat="43.22607333" lon="-4.21469">
        <ele>360.0</ele>
        <time>2018-05-19T10:11:19.862Z</time>
      </trkpt>
      <trkpt lat="43.22611167" lon="-4.21472">
        <ele>361.0</ele>
        <time>2018-05-19T10:11:20.850Z</time>
      </trkpt>
      <trkpt lat="43.22611167" lon="-4.21472">
        <ele>361.0</ele>
        <time>2018-05-19T10:11:21.880Z</time>
      </trkpt>
      <trkpt lat="43.22616" lon="-4.21475167">
        <ele>362.0</ele>
        <time>2018-05-19T10:11:22.863Z</time>
      </trkpt>
      <trkpt lat="43.22616" lon="-4.21475167">
        <ele>362.0</ele>
        <time>2018-05-19T10:11:23.872Z</time>
      </trkpt>
      <trkpt lat="43.226205" lon="-4.21478833">
        <ele>363.0</ele>
        <time>2018-05-19T10:11:24.857Z</time>
      </trkpt>
      <trkpt lat="43.226205" lon="-4.21478833">
        <ele>363.0</ele>
        <time>2018-05-19T10:11:25.847Z</time>
      </trkpt>
      <trkpt lat="43.22624833" lon="-4.21482167">
        <ele>364.0</ele>
        <time>2018-05-19T10:11:26.850Z</time>
      </trkpt>
      <trkpt lat="43.22624833" lon="-4.21482167">
        <ele>364.0</ele>
        <time>2018-05-19T10:11:27.851Z</time>
      </trkpt>
      <trkpt lat="43.22629833" lon="-4.21485">
        <ele>365.0</ele>
        <time>2018-05-19T10:11:28.848Z</time>
      </trkpt>
      <trkpt lat="43.22629833" lon="-4.21485">
        <ele>365.0</ele>
        <time>2018-05-19T10:11:29.880Z</time>
      </trkpt>
      <trkpt lat="43.22635" lon="-4.21487667">
        <ele>365.0</ele>
        <time>2018-05-19T10:11:30.864Z</time>
      </trkpt>
      <trkpt lat="43.22635" lon="-4.21487667">
        <ele>365.0</ele>
        <time>2018-05-19T10:11:31.848Z</time>
      </trkpt>
      <trkpt lat="43.22638667" lon="-4.21489833">
        <ele>366.0</ele>
        <time>2018-05-19T10:11:32.850Z</time>
      </trkpt>
      <trkpt lat="43.22638667" lon="-4.21489833">
        <ele>366.0</ele>
        <time>2018-05-19T10:11:33.844Z</time>
      </trkpt>
      <trkpt lat="43.22642667" lon="-4.21490333">
        <ele>367.0</ele>
        <time>2018-05-19T10:11:34.851Z</time>
      </trkpt>
      <trkpt lat="43.22642667" lon="-4.21490333">
        <ele>367.0</ele>
        <time>2018-05-19T10:11:35.851Z</time>
      </trkpt>
      <trkpt lat="43.22647667" lon="-4.21490667">
        <ele>368.0</ele>
        <time>2018-05-19T10:11:36.850Z</time>
      </trkpt>
      <trkpt lat="43.22647667" lon="-4.21490667">
        <ele>368.0</ele>
        <time>2018-05-19T10:11:37.857Z</time>
      </trkpt>
      <trkpt lat="43.22652" lon="-4.21491">
        <ele>369.0</ele>
        <time>2018-05-19T10:11:38.851Z</time>
      </trkpt>
      <trkpt lat="43.22652" lon="-4.21491">
        <ele>369.0</ele>
        <time>2018-05-19T10:11:39.884Z</time>
      </trkpt>
      <trkpt lat="43.22655667" lon="-4.21492">
        <ele>370.0</ele>
        <time>2018-05-19T10:11:40.847Z</time>
      </trkpt>
      <trkpt lat="43.22655667" lon="-4.21492">
        <ele>370.0</ele>
        <time>2018-05-19T10:11:41.845Z</time>
      </trkpt>
      <trkpt lat="43.22659333" lon="-4.21493333">
        <ele>370.0</ele>
        <time>2018-05-19T10:11:42.850Z</time>
      </trkpt>
      <trkpt lat="43.22659333" lon="-4.21493333">
        <ele>370.0</ele>
        <time>2018-05-19T10:11:43.865Z</time>
      </trkpt>
      <trkpt lat="43.22664" lon="-4.21494">
        <ele>371.0</ele>
        <time>2018-05-19T10:11:44.850Z</time>
      </trkpt>
      <trkpt lat="43.22664" lon="-4.21494">
        <ele>371.0</ele>
        <time>2018-05-19T10:11:45.877Z</time>
      </trkpt>
      <trkpt lat="43.22667833" lon="-4.21496167">
        <ele>371.0</ele>
        <time>2018-05-19T10:11:46.859Z</time>
      </trkpt>
      <trkpt lat="43.22669833" lon="-4.21497167">
        <ele>372.0</ele>
        <time>2018-05-19T10:11:47.865Z</time>
      </trkpt>
      <trkpt lat="43.22669833" lon="-4.21497167">
        <ele>372.0</ele>
        <time>2018-05-19T10:11:48.874Z</time>
      </trkpt>
      <trkpt lat="43.22673667" lon="-4.214985">
        <ele>372.0</ele>
        <time>2018-05-19T10:11:49.850Z</time>
      </trkpt>
      <trkpt lat="43.22673667" lon="-4.214985">
        <ele>372.0</ele>
        <time>2018-05-19T10:11:50.847Z</time>
      </trkpt>
      <trkpt lat="43.22677" lon="-4.21500833">
        <ele>373.0</ele>
        <time>2018-05-19T10:11:51.848Z</time>
      </trkpt>
      <trkpt lat="43.226785" lon="-4.21503">
        <ele>373.0</ele>
        <time>2018-05-19T10:11:52.852Z</time>
      </trkpt>
      <trkpt lat="43.226785" lon="-4.21503">
        <ele>373.0</ele>
        <time>2018-05-19T10:11:53.845Z</time>
      </trkpt>
      <trkpt lat="43.22679" lon="-4.21508667">
        <ele>374.0</ele>
        <time>2018-05-19T10:11:54.849Z</time>
      </trkpt>
      <trkpt lat="43.22679" lon="-4.21508667">
        <ele>374.0</ele>
        <time>2018-05-19T10:11:55.846Z</time>
      </trkpt>
      <trkpt lat="43.22676833" lon="-4.21512833">
        <ele>375.0</ele>
        <time>2018-05-19T10:11:56.850Z</time>
      </trkpt>
      <trkpt lat="43.22676833" lon="-4.21512833">
        <ele>375.0</ele>
        <time>2018-05-19T10:11:57.850Z</time>
      </trkpt>
      <trkpt lat="43.22672667" lon="-4.21514167">
        <ele>375.0</ele>
        <time>2018-05-19T10:11:58.851Z</time>
      </trkpt>
      <trkpt lat="43.22672667" lon="-4.21514167">
        <ele>375.0</ele>
        <time>2018-05-19T10:11:59.847Z</time>
      </trkpt>
      <trkpt lat="43.22668167" lon="-4.21514167">
        <ele>375.0</ele>
        <time>2018-05-19T10:12:00.851Z</time>
      </trkpt>
      <trkpt lat="43.22668167" lon="-4.21514167">
        <ele>375.0</ele>
        <time>2018-05-19T10:12:01.880Z</time>
      </trkpt>
      <trkpt lat="43.22663167" lon="-4.21512833">
        <ele>375.0</ele>
        <time>2018-05-19T10:12:02.865Z</time>
      </trkpt>
      <trkpt lat="43.22663167" lon="-4.21512833">
        <ele>375.0</ele>
        <time>2018-05-19T10:12:03.850Z</time>
      </trkpt>
      <trkpt lat="43.22658167" lon="-4.21513">
        <ele>375.0</ele>
        <time>2018-05-19T10:12:04.851Z</time>
      </trkpt>
      <trkpt lat="43.22658167" lon="-4.21513">
        <ele>375.0</ele>
        <time>2018-05-19T10:12:05.880Z</time>
      </trkpt>
      <trkpt lat="43.226535" lon="-4.21513167">
        <ele>374.0</ele>
        <time>2018-05-19T10:12:06.863Z</time>
      </trkpt>
      <trkpt lat="43.226535" lon="-4.21513167">
        <ele>374.0</ele>
        <time>2018-05-19T10:12:07.853Z</time>
      </trkpt>
      <trkpt lat="43.22648667" lon="-4.21513667">
        <ele>375.0</ele>
        <time>2018-05-19T10:12:08.849Z</time>
      </trkpt>
      <trkpt lat="43.22648667" lon="-4.21513667">
        <ele>375.0</ele>
        <time>2018-05-19T10:12:09.884Z</time>
      </trkpt>
      <trkpt lat="43.22643833" lon="-4.21515333">
        <ele>375.0</ele>
        <time>2018-05-19T10:12:10.846Z</time>
      </trkpt>
      <trkpt lat="43.22643833" lon="-4.21515333">
        <ele>375.0</ele>
        <time>2018-05-19T10:12:11.845Z</time>
      </trkpt>
      <trkpt lat="43.22639333" lon="-4.21517333">
        <ele>375.0</ele>
        <time>2018-05-19T10:12:12.850Z</time>
      </trkpt>
      <trkpt lat="43.22639333" lon="-4.21517333">
        <ele>375.0</ele>
        <time>2018-05-19T10:12:13.846Z</time>
      </trkpt>
      <trkpt lat="43.22635167" lon="-4.21519833">
        <ele>375.0</ele>
        <time>2018-05-19T10:12:14.849Z</time>
      </trkpt>
      <trkpt lat="43.22635167" lon="-4.21519833">
        <ele>375.0</ele>
        <time>2018-05-19T10:12:15.845Z</time>
      </trkpt>
      <trkpt lat="43.22630833" lon="-4.21522333">
        <ele>375.0</ele>
        <time>2018-05-19T10:12:16.844Z</time>
      </trkpt>
      <trkpt lat="43.22630833" lon="-4.21522333">
        <ele>375.0</ele>
        <time>2018-05-19T10:12:17.850Z</time>
      </trkpt>
      <trkpt lat="43.226265" lon="-4.21524667">
        <ele>375.0</ele>
        <time>2018-05-19T10:12:18.850Z</time>
      </trkpt>
      <trkpt lat="43.226265" lon="-4.21524667">
        <ele>375.0</ele>
        <time>2018-05-19T10:12:19.878Z</time>
      </trkpt>
      <trkpt lat="43.22622" lon="-4.21527">
        <ele>376.0</ele>
        <time>2018-05-19T10:12:20.864Z</time>
      </trkpt>
      <trkpt lat="43.22622" lon="-4.21527">
        <ele>376.0</ele>
        <time>2018-05-19T10:12:21.851Z</time>
      </trkpt>
      <trkpt lat="43.22618167" lon="-4.2153">
        <ele>376.0</ele>
        <time>2018-05-19T10:12:22.847Z</time>
      </trkpt>
      <trkpt lat="43.22618167" lon="-4.2153">
        <ele>376.0</ele>
        <time>2018-05-19T10:12:23.880Z</time>
      </trkpt>
      <trkpt lat="43.22614" lon="-4.21533167">
        <ele>376.0</ele>
        <time>2018-05-19T10:12:24.864Z</time>
      </trkpt>
      <trkpt lat="43.22614" lon="-4.21533167">
        <ele>376.0</ele>
        <time>2018-05-19T10:12:25.848Z</time>
      </trkpt>
      <trkpt lat="43.22610167" lon="-4.21535833">
        <ele>376.0</ele>
        <time>2018-05-19T10:12:26.851Z</time>
      </trkpt>
      <trkpt lat="43.22610167" lon="-4.21535833">
        <ele>376.0</ele>
        <time>2018-05-19T10:12:27.850Z</time>
      </trkpt>
      <trkpt lat="43.22606333" lon="-4.21539">
        <ele>376.0</ele>
        <time>2018-05-19T10:12:28.849Z</time>
      </trkpt>
      <trkpt lat="43.22606333" lon="-4.21539">
        <ele>376.0</ele>
        <time>2018-05-19T10:12:29.846Z</time>
      </trkpt>
      <trkpt lat="43.22602833" lon="-4.21543167">
        <ele>377.0</ele>
        <time>2018-05-19T10:12:30.850Z</time>
      </trkpt>
      <trkpt lat="43.22602833" lon="-4.21543167">
        <ele>377.0</ele>
        <time>2018-05-19T10:12:31.844Z</time>
      </trkpt>
      <trkpt lat="43.225985" lon="-4.21547">
        <ele>377.0</ele>
        <time>2018-05-19T10:12:32.850Z</time>
      </trkpt>
      <trkpt lat="43.225985" lon="-4.21547">
        <ele>377.0</ele>
        <time>2018-05-19T10:12:33.882Z</time>
      </trkpt>
      <trkpt lat="43.22594833" lon="-4.21550667">
        <ele>377.0</ele>
        <time>2018-05-19T10:12:34.851Z</time>
      </trkpt>
      <trkpt lat="43.22594833" lon="-4.21550667">
        <ele>377.0</ele>
        <time>2018-05-19T10:12:35.846Z</time>
      </trkpt>
      <trkpt lat="43.22591" lon="-4.215545">
        <ele>377.0</ele>
        <time>2018-05-19T10:12:36.851Z</time>
      </trkpt>
      <trkpt lat="43.22591" lon="-4.215545">
        <ele>377.0</ele>
        <time>2018-05-19T10:12:37.845Z</time>
      </trkpt>
      <trkpt lat="43.22587167" lon="-4.21557833">
        <ele>378.0</ele>
        <time>2018-05-19T10:12:38.883Z</time>
      </trkpt>
      <trkpt lat="43.22587167" lon="-4.21557833">
        <ele>378.0</ele>
        <time>2018-05-19T10:12:39.845Z</time>
      </trkpt>
      <trkpt lat="43.22583167" lon="-4.2156">
        <ele>378.0</ele>
        <time>2018-05-19T10:12:40.877Z</time>
      </trkpt>
      <trkpt lat="43.22583167" lon="-4.2156">
        <ele>378.0</ele>
        <time>2018-05-19T10:12:41.862Z</time>
      </trkpt>
      <trkpt lat="43.22579167" lon="-4.21561667">
        <ele>378.0</ele>
        <time>2018-05-19T10:12:42.851Z</time>
      </trkpt>
      <trkpt lat="43.22579167" lon="-4.21561667">
        <ele>378.0</ele>
        <time>2018-05-19T10:12:43.880Z</time>
      </trkpt>
      <trkpt lat="43.22575333" lon="-4.21563833">
        <ele>378.0</ele>
        <time>2018-05-19T10:12:44.864Z</time>
      </trkpt>
      <trkpt lat="43.22575333" lon="-4.21563833">
        <ele>378.0</ele>
        <time>2018-05-19T10:12:45.857Z</time>
      </trkpt>
      <trkpt lat="43.22571" lon="-4.21564333">
        <ele>378.0</ele>
        <time>2018-05-19T10:12:46.870Z</time>
      </trkpt>
      <trkpt lat="43.22568833" lon="-4.21564667">
        <ele>379.0</ele>
        <time>2018-05-19T10:12:47.878Z</time>
      </trkpt>
      <trkpt lat="43.22566667" lon="-4.21564833">
        <ele>379.0</ele>
        <time>2018-05-19T10:12:48.861Z</time>
      </trkpt>
      <trkpt lat="43.22564333" lon="-4.21565333">
        <ele>379.0</ele>
        <time>2018-05-19T10:12:49.850Z</time>
      </trkpt>
      <trkpt lat="43.22564333" lon="-4.21565333">
        <ele>379.0</ele>
        <time>2018-05-19T10:12:50.848Z</time>
      </trkpt>
      <trkpt lat="43.22560167" lon="-4.21566333">
        <ele>379.0</ele>
        <time>2018-05-19T10:12:51.849Z</time>
      </trkpt>
      <trkpt lat="43.22558" lon="-4.21566667">
        <ele>379.0</ele>
        <time>2018-05-19T10:12:52.854Z</time>
      </trkpt>
      <trkpt lat="43.22558" lon="-4.21566667">
        <ele>379.0</ele>
        <time>2018-05-19T10:12:53.848Z</time>
      </trkpt>
      <trkpt lat="43.22554167" lon="-4.21567333">
        <ele>379.0</ele>
        <time>2018-05-19T10:12:54.851Z</time>
      </trkpt>
      <trkpt lat="43.22554167" lon="-4.21567333">
        <ele>379.0</ele>
        <time>2018-05-19T10:12:55.848Z</time>
      </trkpt>
      <trkpt lat="43.22550333" lon="-4.21566833">
        <ele>379.0</ele>
        <time>2018-05-19T10:12:56.849Z</time>
      </trkpt>
      <trkpt lat="43.225485" lon="-4.21567">
        <ele>379.0</ele>
        <time>2018-05-19T10:12:57.851Z</time>
      </trkpt>
      <trkpt lat="43.225485" lon="-4.21567">
        <ele>379.0</ele>
        <time>2018-05-19T10:12:58.852Z</time>
      </trkpt>
      <trkpt lat="43.22545" lon="-4.21568333">
        <ele>380.0</ele>
        <time>2018-05-19T10:12:59.850Z</time>
      </trkpt>
      <trkpt lat="43.22543" lon="-4.21569167">
        <ele>380.0</ele>
        <time>2018-05-19T10:13:00.850Z</time>
      </trkpt>
      <trkpt lat="43.22543" lon="-4.21569167">
        <ele>380.0</ele>
        <time>2018-05-19T10:13:01.845Z</time>
      </trkpt>
      <trkpt lat="43.22539333" lon="-4.21571167">
        <ele>380.0</ele>
        <time>2018-05-19T10:13:02.849Z</time>
      </trkpt>
      <trkpt lat="43.22539333" lon="-4.21571167">
        <ele>380.0</ele>
        <time>2018-05-19T10:13:03.882Z</time>
      </trkpt>
      <trkpt lat="43.225355" lon="-4.21573167">
        <ele>380.0</ele>
        <time>2018-05-19T10:13:04.867Z</time>
      </trkpt>
      <trkpt lat="43.225355" lon="-4.21573167">
        <ele>380.0</ele>
        <time>2018-05-19T10:13:05.852Z</time>
      </trkpt>
      <trkpt lat="43.22531833" lon="-4.215755">
        <ele>380.0</ele>
        <time>2018-05-19T10:13:06.850Z</time>
      </trkpt>
      <trkpt lat="43.22531833" lon="-4.215755">
        <ele>380.0</ele>
        <time>2018-05-19T10:13:07.847Z</time>
      </trkpt>
      <trkpt lat="43.22528833" lon="-4.21578">
        <ele>380.0</ele>
        <time>2018-05-19T10:13:08.854Z</time>
      </trkpt>
      <trkpt lat="43.22527333" lon="-4.21579667">
        <ele>380.0</ele>
        <time>2018-05-19T10:13:09.850Z</time>
      </trkpt>
      <trkpt lat="43.22527333" lon="-4.21579667">
        <ele>380.0</ele>
        <time>2018-05-19T10:13:10.847Z</time>
      </trkpt>
      <trkpt lat="43.22524167" lon="-4.21584">
        <ele>380.0</ele>
        <time>2018-05-19T10:13:11.850Z</time>
      </trkpt>
      <trkpt lat="43.22521833" lon="-4.21586167">
        <ele>381.0</ele>
        <time>2018-05-19T10:13:12.850Z</time>
      </trkpt>
      <trkpt lat="43.22521833" lon="-4.21586167">
        <ele>381.0</ele>
        <time>2018-05-19T10:13:13.847Z</time>
      </trkpt>
      <trkpt lat="43.22517833" lon="-4.21591">
        <ele>381.0</ele>
        <time>2018-05-19T10:13:14.849Z</time>
      </trkpt>
      <trkpt lat="43.22517833" lon="-4.21591">
        <ele>381.0</ele>
        <time>2018-05-19T10:13:15.848Z</time>
      </trkpt>
      <trkpt lat="43.22514333" lon="-4.215945">
        <ele>381.0</ele>
        <time>2018-05-19T10:13:16.856Z</time>
      </trkpt>
      <trkpt lat="43.22514333" lon="-4.215945">
        <ele>381.0</ele>
        <time>2018-05-19T10:13:17.862Z</time>
      </trkpt>
      <trkpt lat="43.225095" lon="-4.21596333">
        <ele>382.0</ele>
        <time>2018-05-19T10:13:18.854Z</time>
      </trkpt>
      <trkpt lat="43.225095" lon="-4.21596333">
        <ele>382.0</ele>
        <time>2018-05-19T10:13:19.847Z</time>
      </trkpt>
      <trkpt lat="43.22505333" lon="-4.21597">
        <ele>383.0</ele>
        <time>2018-05-19T10:13:20.850Z</time>
      </trkpt>
      <trkpt lat="43.22505333" lon="-4.21597">
        <ele>383.0</ele>
        <time>2018-05-19T10:13:21.844Z</time>
      </trkpt>
      <trkpt lat="43.22501667" lon="-4.21597167">
        <ele>383.0</ele>
        <time>2018-05-19T10:13:22.851Z</time>
      </trkpt>
      <trkpt lat="43.22501667" lon="-4.21597167">
        <ele>383.0</ele>
        <time>2018-05-19T10:13:23.883Z</time>
      </trkpt>
      <trkpt lat="43.22498167" lon="-4.21597667">
        <ele>384.0</ele>
        <time>2018-05-19T10:13:24.869Z</time>
      </trkpt>
      <trkpt lat="43.22498167" lon="-4.21597667">
        <ele>384.0</ele>
        <time>2018-05-19T10:13:25.853Z</time>
      </trkpt>
      <trkpt lat="43.22494667" lon="-4.21598333">
        <ele>384.0</ele>
        <time>2018-05-19T10:13:26.850Z</time>
      </trkpt>
      <trkpt lat="43.22494667" lon="-4.21598333">
        <ele>384.0</ele>
        <time>2018-05-19T10:13:27.847Z</time>
      </trkpt>
      <trkpt lat="43.22491167" lon="-4.216">
        <ele>384.0</ele>
        <time>2018-05-19T10:13:28.853Z</time>
      </trkpt>
      <trkpt lat="43.22491167" lon="-4.216">
        <ele>384.0</ele>
        <time>2018-05-19T10:13:29.850Z</time>
      </trkpt>
      <trkpt lat="43.22487" lon="-4.21601333">
        <ele>384.0</ele>
        <time>2018-05-19T10:13:30.850Z</time>
      </trkpt>
      <trkpt lat="43.22487" lon="-4.21601333">
        <ele>384.0</ele>
        <time>2018-05-19T10:13:31.848Z</time>
      </trkpt>
      <trkpt lat="43.22482833" lon="-4.21602167">
        <ele>385.0</ele>
        <time>2018-05-19T10:13:32.850Z</time>
      </trkpt>
      <trkpt lat="43.22482833" lon="-4.21602167">
        <ele>385.0</ele>
        <time>2018-05-19T10:13:33.847Z</time>
      </trkpt>
      <trkpt lat="43.22479167" lon="-4.21603333">
        <ele>385.0</ele>
        <time>2018-05-19T10:13:34.847Z</time>
      </trkpt>
      <trkpt lat="43.22477333" lon="-4.21603667">
        <ele>385.0</ele>
        <time>2018-05-19T10:13:35.850Z</time>
      </trkpt>
      <trkpt lat="43.22477333" lon="-4.21603667">
        <ele>385.0</ele>
        <time>2018-05-19T10:13:36.848Z</time>
      </trkpt>
      <trkpt lat="43.22473333" lon="-4.216045">
        <ele>386.0</ele>
        <time>2018-05-19T10:13:37.849Z</time>
      </trkpt>
      <trkpt lat="43.22473333" lon="-4.216045">
        <ele>386.0</ele>
        <time>2018-05-19T10:13:38.851Z</time>
      </trkpt>
      <trkpt lat="43.22469167" lon="-4.21605167">
        <ele>386.0</ele>
        <time>2018-05-19T10:13:39.850Z</time>
      </trkpt>
      <trkpt lat="43.22469167" lon="-4.21605167">
        <ele>386.0</ele>
        <time>2018-05-19T10:13:40.881Z</time>
      </trkpt>
      <trkpt lat="43.22465167" lon="-4.21606">
        <ele>386.0</ele>
        <time>2018-05-19T10:13:41.859Z</time>
      </trkpt>
      <trkpt lat="43.22465167" lon="-4.21606">
        <ele>386.0</ele>
        <time>2018-05-19T10:13:42.865Z</time>
      </trkpt>
      <trkpt lat="43.22461333" lon="-4.21607667">
        <ele>386.0</ele>
        <time>2018-05-19T10:13:43.880Z</time>
      </trkpt>
      <trkpt lat="43.22461333" lon="-4.21607667">
        <ele>386.0</ele>
        <time>2018-05-19T10:13:44.846Z</time>
      </trkpt>
      <trkpt lat="43.22457" lon="-4.21609833">
        <ele>386.0</ele>
        <time>2018-05-19T10:13:45.878Z</time>
      </trkpt>
      <trkpt lat="43.22454833" lon="-4.21610167">
        <ele>386.0</ele>
        <time>2018-05-19T10:13:46.858Z</time>
      </trkpt>
      <trkpt lat="43.22452833" lon="-4.21610667">
        <ele>387.0</ele>
        <time>2018-05-19T10:13:47.873Z</time>
      </trkpt>
      <trkpt lat="43.22452833" lon="-4.21610667">
        <ele>387.0</ele>
        <time>2018-05-19T10:13:48.849Z</time>
      </trkpt>
      <trkpt lat="43.224495" lon="-4.21611167">
        <ele>387.0</ele>
        <time>2018-05-19T10:13:49.856Z</time>
      </trkpt>
      <trkpt lat="43.224495" lon="-4.21611167">
        <ele>387.0</ele>
        <time>2018-05-19T10:13:50.855Z</time>
      </trkpt>
      <trkpt lat="43.22446333" lon="-4.21612833">
        <ele>388.0</ele>
        <time>2018-05-19T10:13:51.854Z</time>
      </trkpt>
      <trkpt lat="43.22445" lon="-4.21614333">
        <ele>388.0</ele>
        <time>2018-05-19T10:13:52.849Z</time>
      </trkpt>
      <trkpt lat="43.22445" lon="-4.21614333">
        <ele>388.0</ele>
        <time>2018-05-19T10:13:53.852Z</time>
      </trkpt>
      <trkpt lat="43.22442833" lon="-4.21618167">
        <ele>389.0</ele>
        <time>2018-05-19T10:13:54.852Z</time>
      </trkpt>
      <trkpt lat="43.22441167" lon="-4.21620333">
        <ele>389.0</ele>
        <time>2018-05-19T10:13:55.859Z</time>
      </trkpt>
      <trkpt lat="43.22441167" lon="-4.21620333">
        <ele>389.0</ele>
        <time>2018-05-19T10:13:56.847Z</time>
      </trkpt>
      <trkpt lat="43.22438167" lon="-4.21623833">
        <ele>390.0</ele>
        <time>2018-05-19T10:13:57.882Z</time>
      </trkpt>
      <trkpt lat="43.22438167" lon="-4.21623833">
        <ele>390.0</ele>
        <time>2018-05-19T10:13:58.856Z</time>
      </trkpt>
      <trkpt lat="43.22434" lon="-4.21626333">
        <ele>390.0</ele>
        <time>2018-05-19T10:13:59.852Z</time>
      </trkpt>
      <trkpt lat="43.22431833" lon="-4.21627833">
        <ele>390.0</ele>
        <time>2018-05-19T10:14:00.852Z</time>
      </trkpt>
      <trkpt lat="43.22431833" lon="-4.21627833">
        <ele>390.0</ele>
        <time>2018-05-19T10:14:01.845Z</time>
      </trkpt>
      <trkpt lat="43.22427" lon="-4.21631">
        <ele>390.0</ele>
        <time>2018-05-19T10:14:02.850Z</time>
      </trkpt>
      <trkpt lat="43.224245" lon="-4.21632667">
        <ele>390.0</ele>
        <time>2018-05-19T10:14:03.844Z</time>
      </trkpt>
      <trkpt lat="43.224245" lon="-4.21632667">
        <ele>390.0</ele>
        <time>2018-05-19T10:14:04.846Z</time>
      </trkpt>
      <trkpt lat="43.22419833" lon="-4.21636">
        <ele>390.0</ele>
        <time>2018-05-19T10:14:05.850Z</time>
      </trkpt>
      <trkpt lat="43.22417667" lon="-4.21637833">
        <ele>390.0</ele>
        <time>2018-05-19T10:14:06.852Z</time>
      </trkpt>
      <trkpt lat="43.22417667" lon="-4.21637833">
        <ele>390.0</ele>
        <time>2018-05-19T10:14:07.883Z</time>
      </trkpt>
      <trkpt lat="43.22414" lon="-4.21640833">
        <ele>390.0</ele>
        <time>2018-05-19T10:14:08.856Z</time>
      </trkpt>
      <trkpt lat="43.22414" lon="-4.21640833">
        <ele>390.0</ele>
        <time>2018-05-19T10:14:09.847Z</time>
      </trkpt>
      <trkpt lat="43.2241" lon="-4.216435">
        <ele>390.0</ele>
        <time>2018-05-19T10:14:10.853Z</time>
      </trkpt>
      <trkpt lat="43.2241" lon="-4.216435">
        <ele>390.0</ele>
        <time>2018-05-19T10:14:11.845Z</time>
      </trkpt>
      <trkpt lat="43.22405333" lon="-4.21646167">
        <ele>390.0</ele>
        <time>2018-05-19T10:14:12.852Z</time>
      </trkpt>
      <trkpt lat="43.22405333" lon="-4.21646167">
        <ele>390.0</ele>
        <time>2018-05-19T10:14:13.850Z</time>
      </trkpt>
      <trkpt lat="43.22401333" lon="-4.21649667">
        <ele>390.0</ele>
        <time>2018-05-19T10:14:14.852Z</time>
      </trkpt>
      <trkpt lat="43.22399333" lon="-4.21651667">
        <ele>390.0</ele>
        <time>2018-05-19T10:14:15.877Z</time>
      </trkpt>
      <trkpt lat="43.22399333" lon="-4.21651667">
        <ele>390.0</ele>
        <time>2018-05-19T10:14:16.879Z</time>
      </trkpt>
      <trkpt lat="43.22395" lon="-4.21655">
        <ele>390.0</ele>
        <time>2018-05-19T10:14:17.845Z</time>
      </trkpt>
      <trkpt lat="43.22393167" lon="-4.21656667">
        <ele>390.0</ele>
        <time>2018-05-19T10:14:18.857Z</time>
      </trkpt>
      <trkpt lat="43.22393167" lon="-4.21656667">
        <ele>390.0</ele>
        <time>2018-05-19T10:14:19.846Z</time>
      </trkpt>
      <trkpt lat="43.223895" lon="-4.216585">
        <ele>390.0</ele>
        <time>2018-05-19T10:14:20.846Z</time>
      </trkpt>
      <trkpt lat="43.22387667" lon="-4.216595">
        <ele>391.0</ele>
        <time>2018-05-19T10:14:21.847Z</time>
      </trkpt>
      <trkpt lat="43.22387667" lon="-4.216595">
        <ele>391.0</ele>
        <time>2018-05-19T10:14:22.882Z</time>
      </trkpt>
      <trkpt lat="43.22384167" lon="-4.21661333">
        <ele>391.0</ele>
        <time>2018-05-19T10:14:23.880Z</time>
      </trkpt>
      <trkpt lat="43.22384167" lon="-4.21661333">
        <ele>391.0</ele>
        <time>2018-05-19T10:14:24.865Z</time>
      </trkpt>
      <trkpt lat="43.22380833" lon="-4.21663667">
        <ele>391.0</ele>
        <time>2018-05-19T10:14:25.851Z</time>
      </trkpt>
      <trkpt lat="43.22380833" lon="-4.21663667">
        <ele>391.0</ele>
        <time>2018-05-19T10:14:26.845Z</time>
      </trkpt>
      <trkpt lat="43.223775" lon="-4.21666167">
        <ele>391.0</ele>
        <time>2018-05-19T10:14:27.849Z</time>
      </trkpt>
      <trkpt lat="43.22375833" lon="-4.216675">
        <ele>391.0</ele>
        <time>2018-05-19T10:14:28.860Z</time>
      </trkpt>
      <trkpt lat="43.22375833" lon="-4.216675">
        <ele>391.0</ele>
        <time>2018-05-19T10:14:29.846Z</time>
      </trkpt>
      <trkpt lat="43.22372333" lon="-4.21669167">
        <ele>392.0</ele>
        <time>2018-05-19T10:14:30.852Z</time>
      </trkpt>
      <trkpt lat="43.22372333" lon="-4.21669167">
        <ele>392.0</ele>
        <time>2018-05-19T10:14:31.846Z</time>
      </trkpt>
      <trkpt lat="43.22368667" lon="-4.21671">
        <ele>392.0</ele>
        <time>2018-05-19T10:14:32.849Z</time>
      </trkpt>
      <trkpt lat="43.22368667" lon="-4.21671">
        <ele>392.0</ele>
        <time>2018-05-19T10:14:33.847Z</time>
      </trkpt>
      <trkpt lat="43.22365333" lon="-4.21673667">
        <ele>392.0</ele>
        <time>2018-05-19T10:14:34.850Z</time>
      </trkpt>
      <trkpt lat="43.22365333" lon="-4.21673667">
        <ele>392.0</ele>
        <time>2018-05-19T10:14:35.850Z</time>
      </trkpt>
      <trkpt lat="43.22362" lon="-4.21676833">
        <ele>393.0</ele>
        <time>2018-05-19T10:14:36.850Z</time>
      </trkpt>
      <trkpt lat="43.22362" lon="-4.21676833">
        <ele>393.0</ele>
        <time>2018-05-19T10:14:37.846Z</time>
      </trkpt>
      <trkpt lat="43.223585" lon="-4.21679833">
        <ele>393.0</ele>
        <time>2018-05-19T10:14:38.849Z</time>
      </trkpt>
      <trkpt lat="43.22356833" lon="-4.21681333">
        <ele>393.0</ele>
        <time>2018-05-19T10:14:39.859Z</time>
      </trkpt>
      <trkpt lat="43.22356833" lon="-4.21681333">
        <ele>393.0</ele>
        <time>2018-05-19T10:14:40.858Z</time>
      </trkpt>
      <trkpt lat="43.22353167" lon="-4.216845">
        <ele>394.0</ele>
        <time>2018-05-19T10:14:41.849Z</time>
      </trkpt>
      <trkpt lat="43.22351333" lon="-4.21686167">
        <ele>394.0</ele>
        <time>2018-05-19T10:14:42.850Z</time>
      </trkpt>
      <trkpt lat="43.22351333" lon="-4.21686167">
        <ele>394.0</ele>
        <time>2018-05-19T10:14:43.851Z</time>
      </trkpt>
      <trkpt lat="43.22346833" lon="-4.21688">
        <ele>395.0</ele>
        <time>2018-05-19T10:14:44.850Z</time>
      </trkpt>
      <trkpt lat="43.22346833" lon="-4.21688">
        <ele>395.0</ele>
        <time>2018-05-19T10:14:45.882Z</time>
      </trkpt>
      <trkpt lat="43.22342667" lon="-4.21690167">
        <ele>395.0</ele>
        <time>2018-05-19T10:14:46.866Z</time>
      </trkpt>
      <trkpt lat="43.22340833" lon="-4.21691833">
        <ele>395.0</ele>
        <time>2018-05-19T10:14:47.873Z</time>
      </trkpt>
      <trkpt lat="43.22340833" lon="-4.21691833">
        <ele>395.0</ele>
        <time>2018-05-19T10:14:48.880Z</time>
      </trkpt>
      <trkpt lat="43.22336833" lon="-4.21693167">
        <ele>395.0</ele>
        <time>2018-05-19T10:14:49.879Z</time>
      </trkpt>
      <trkpt lat="43.22335333" lon="-4.216945">
        <ele>396.0</ele>
        <time>2018-05-19T10:14:50.853Z</time>
      </trkpt>
      <trkpt lat="43.22335333" lon="-4.216945">
        <ele>396.0</ele>
        <time>2018-05-19T10:14:51.851Z</time>
      </trkpt>
      <trkpt lat="43.22331833" lon="-4.21697333">
        <ele>396.0</ele>
        <time>2018-05-19T10:14:52.852Z</time>
      </trkpt>
      <trkpt lat="43.22331833" lon="-4.21697333">
        <ele>396.0</ele>
        <time>2018-05-19T10:14:53.882Z</time>
      </trkpt>
      <trkpt lat="43.22328167" lon="-4.21698833">
        <ele>396.0</ele>
        <time>2018-05-19T10:14:54.879Z</time>
      </trkpt>
      <trkpt lat="43.22326333" lon="-4.21700167">
        <ele>396.0</ele>
        <time>2018-05-19T10:14:55.845Z</time>
      </trkpt>
      <trkpt lat="43.22324667" lon="-4.217015">
        <ele>396.0</ele>
        <time>2018-05-19T10:14:56.849Z</time>
      </trkpt>
      <trkpt lat="43.22322833" lon="-4.21702833">
        <ele>396.0</ele>
        <time>2018-05-19T10:14:57.849Z</time>
      </trkpt>
      <trkpt lat="43.22322833" lon="-4.21702833">
        <ele>396.0</ele>
        <time>2018-05-19T10:14:58.880Z</time>
      </trkpt>
      <trkpt lat="43.22319167" lon="-4.21704333">
        <ele>396.0</ele>
        <time>2018-05-19T10:14:59.849Z</time>
      </trkpt>
      <trkpt lat="43.22317" lon="-4.21705">
        <ele>396.0</ele>
        <time>2018-05-19T10:15:00.850Z</time>
      </trkpt>
      <trkpt lat="43.22317" lon="-4.21705">
        <ele>396.0</ele>
        <time>2018-05-19T10:15:01.844Z</time>
      </trkpt>
      <trkpt lat="43.22312833" lon="-4.21706">
        <ele>397.0</ele>
        <time>2018-05-19T10:15:02.846Z</time>
      </trkpt>
      <trkpt lat="43.22312833" lon="-4.21706">
        <ele>397.0</ele>
        <time>2018-05-19T10:15:03.879Z</time>
      </trkpt>
      <trkpt lat="43.22309" lon="-4.21706667">
        <ele>397.0</ele>
        <time>2018-05-19T10:15:04.865Z</time>
      </trkpt>
      <trkpt lat="43.22309" lon="-4.21706667">
        <ele>397.0</ele>
        <time>2018-05-19T10:15:05.850Z</time>
      </trkpt>
      <trkpt lat="43.22305" lon="-4.21708">
        <ele>397.0</ele>
        <time>2018-05-19T10:15:06.850Z</time>
      </trkpt>
      <trkpt lat="43.22305" lon="-4.21708">
        <ele>397.0</ele>
        <time>2018-05-19T10:15:07.845Z</time>
      </trkpt>
      <trkpt lat="43.22300667" lon="-4.217095">
        <ele>398.0</ele>
        <time>2018-05-19T10:15:08.848Z</time>
      </trkpt>
      <trkpt lat="43.22300667" lon="-4.217095">
        <ele>398.0</ele>
        <time>2018-05-19T10:15:09.847Z</time>
      </trkpt>
      <trkpt lat="43.222965" lon="-4.21710333">
        <ele>398.0</ele>
        <time>2018-05-19T10:15:10.850Z</time>
      </trkpt>
      <trkpt lat="43.222965" lon="-4.21710333">
        <ele>398.0</ele>
        <time>2018-05-19T10:15:11.845Z</time>
      </trkpt>
      <trkpt lat="43.22292333" lon="-4.21711333">
        <ele>398.0</ele>
        <time>2018-05-19T10:15:12.850Z</time>
      </trkpt>
      <trkpt lat="43.22292333" lon="-4.21711333">
        <ele>398.0</ele>
        <time>2018-05-19T10:15:13.851Z</time>
      </trkpt>
      <trkpt lat="43.22288333" lon="-4.21712333">
        <ele>399.0</ele>
        <time>2018-05-19T10:15:14.849Z</time>
      </trkpt>
      <trkpt lat="43.22288333" lon="-4.21712333">
        <ele>399.0</ele>
        <time>2018-05-19T10:15:15.879Z</time>
      </trkpt>
      <trkpt lat="43.222845" lon="-4.21712833">
        <ele>399.0</ele>
        <time>2018-05-19T10:15:16.864Z</time>
      </trkpt>
      <trkpt lat="43.222845" lon="-4.21712833">
        <ele>399.0</ele>
        <time>2018-05-19T10:15:17.847Z</time>
      </trkpt>
      <trkpt lat="43.222805" lon="-4.21713167">
        <ele>400.0</ele>
        <time>2018-05-19T10:15:18.867Z</time>
      </trkpt>
      <trkpt lat="43.222785" lon="-4.217135">
        <ele>400.0</ele>
        <time>2018-05-19T10:15:19.853Z</time>
      </trkpt>
      <trkpt lat="43.222785" lon="-4.217135">
        <ele>400.0</ele>
        <time>2018-05-19T10:15:20.846Z</time>
      </trkpt>
      <trkpt lat="43.22274333" lon="-4.21714167">
        <ele>401.0</ele>
        <time>2018-05-19T10:15:21.849Z</time>
      </trkpt>
      <trkpt lat="43.22274333" lon="-4.21714167">
        <ele>401.0</ele>
        <time>2018-05-19T10:15:22.848Z</time>
      </trkpt>
      <trkpt lat="43.22270833" lon="-4.21715667">
        <ele>402.0</ele>
        <time>2018-05-19T10:15:23.879Z</time>
      </trkpt>
      <trkpt lat="43.22268833" lon="-4.21716667">
        <ele>402.0</ele>
        <time>2018-05-19T10:15:24.863Z</time>
      </trkpt>
      <trkpt lat="43.22268833" lon="-4.21716667">
        <ele>402.0</ele>
        <time>2018-05-19T10:15:25.850Z</time>
      </trkpt>
      <trkpt lat="43.22265" lon="-4.21717833">
        <ele>403.0</ele>
        <time>2018-05-19T10:15:26.848Z</time>
      </trkpt>
      <trkpt lat="43.22263" lon="-4.21718167">
        <ele>403.0</ele>
        <time>2018-05-19T10:15:27.847Z</time>
      </trkpt>
      <trkpt lat="43.22263" lon="-4.21718167">
        <ele>403.0</ele>
        <time>2018-05-19T10:15:28.880Z</time>
      </trkpt>
      <trkpt lat="43.22259" lon="-4.21718667">
        <ele>403.0</ele>
        <time>2018-05-19T10:15:29.863Z</time>
      </trkpt>
      <trkpt lat="43.22257" lon="-4.21718667">
        <ele>404.0</ele>
        <time>2018-05-19T10:15:30.849Z</time>
      </trkpt>
      <trkpt lat="43.22257" lon="-4.21718667">
        <ele>404.0</ele>
        <time>2018-05-19T10:15:31.846Z</time>
      </trkpt>
      <trkpt lat="43.222535" lon="-4.21719167">
        <ele>404.0</ele>
        <time>2018-05-19T10:15:32.871Z</time>
      </trkpt>
      <trkpt lat="43.222535" lon="-4.21719167">
        <ele>404.0</ele>
        <time>2018-05-19T10:15:33.854Z</time>
      </trkpt>
      <trkpt lat="43.22249833" lon="-4.21719833">
        <ele>405.0</ele>
        <time>2018-05-19T10:15:34.850Z</time>
      </trkpt>
      <trkpt lat="43.22248" lon="-4.21720333">
        <ele>405.0</ele>
        <time>2018-05-19T10:15:35.849Z</time>
      </trkpt>
      <trkpt lat="43.22246" lon="-4.21720833">
        <ele>405.0</ele>
        <time>2018-05-19T10:15:36.849Z</time>
      </trkpt>
      <trkpt lat="43.22246" lon="-4.21720833">
        <ele>405.0</ele>
        <time>2018-05-19T10:15:37.852Z</time>
      </trkpt>
      <trkpt lat="43.22242167" lon="-4.21724167">
        <ele>406.0</ele>
        <time>2018-05-19T10:15:38.848Z</time>
      </trkpt>
      <trkpt lat="43.22242167" lon="-4.21724167">
        <ele>406.0</ele>
        <time>2018-05-19T10:15:39.845Z</time>
      </trkpt>
      <trkpt lat="43.22239833" lon="-4.21729">
        <ele>406.0</ele>
        <time>2018-05-19T10:15:40.871Z</time>
      </trkpt>
      <trkpt lat="43.22239167" lon="-4.21731333">
        <ele>407.0</ele>
        <time>2018-05-19T10:15:41.859Z</time>
      </trkpt>
      <trkpt lat="43.22237667" lon="-4.217335">
        <ele>407.0</ele>
        <time>2018-05-19T10:15:42.847Z</time>
      </trkpt>
      <trkpt lat="43.22237667" lon="-4.217335">
        <ele>407.0</ele>
        <time>2018-05-19T10:15:43.878Z</time>
      </trkpt>
      <trkpt lat="43.22234167" lon="-4.21738">
        <ele>408.0</ele>
        <time>2018-05-19T10:15:44.866Z</time>
      </trkpt>
      <trkpt lat="43.22234167" lon="-4.21738">
        <ele>408.0</ele>
        <time>2018-05-19T10:15:45.856Z</time>
      </trkpt>
      <trkpt lat="43.22230667" lon="-4.21741667">
        <ele>408.0</ele>
        <time>2018-05-19T10:15:46.867Z</time>
      </trkpt>
      <trkpt lat="43.22228333" lon="-4.21743167">
        <ele>408.0</ele>
        <time>2018-05-19T10:15:47.874Z</time>
      </trkpt>
      <trkpt lat="43.22228333" lon="-4.21743167">
        <ele>408.0</ele>
        <time>2018-05-19T10:15:48.880Z</time>
      </trkpt>
      <trkpt lat="43.22223667" lon="-4.21747667">
        <ele>409.0</ele>
        <time>2018-05-19T10:15:49.851Z</time>
      </trkpt>
      <trkpt lat="43.222215" lon="-4.21749667">
        <ele>410.0</ele>
        <time>2018-05-19T10:15:50.849Z</time>
      </trkpt>
      <trkpt lat="43.222215" lon="-4.21749667">
        <ele>410.0</ele>
        <time>2018-05-19T10:15:51.845Z</time>
      </trkpt>
      <trkpt lat="43.22217833" lon="-4.21752667">
        <ele>410.0</ele>
        <time>2018-05-19T10:15:52.849Z</time>
      </trkpt>
      <trkpt lat="43.22217833" lon="-4.21752667">
        <ele>410.0</ele>
        <time>2018-05-19T10:15:53.879Z</time>
      </trkpt>
      <trkpt lat="43.22215333" lon="-4.21755667">
        <ele>411.0</ele>
        <time>2018-05-19T10:15:54.848Z</time>
      </trkpt>
      <trkpt lat="43.22214" lon="-4.21757">
        <ele>411.0</ele>
        <time>2018-05-19T10:15:55.849Z</time>
      </trkpt>
      <trkpt lat="43.22214" lon="-4.21757">
        <ele>411.0</ele>
        <time>2018-05-19T10:15:56.844Z</time>
      </trkpt>
      <trkpt lat="43.22211333" lon="-4.21759333">
        <ele>412.0</ele>
        <time>2018-05-19T10:15:57.848Z</time>
      </trkpt>
      <trkpt lat="43.22211333" lon="-4.21759333">
        <ele>412.0</ele>
        <time>2018-05-19T10:15:58.862Z</time>
      </trkpt>
      <trkpt lat="43.22207333" lon="-4.217625">
        <ele>413.0</ele>
        <time>2018-05-19T10:15:59.850Z</time>
      </trkpt>
      <trkpt lat="43.22207333" lon="-4.217625">
        <ele>413.0</ele>
        <time>2018-05-19T10:16:00.845Z</time>
      </trkpt>
      <trkpt lat="43.22203167" lon="-4.21765833">
        <ele>414.0</ele>
        <time>2018-05-19T10:16:01.849Z</time>
      </trkpt>
      <trkpt lat="43.22201" lon="-4.21766333">
        <ele>414.0</ele>
        <time>2018-05-19T10:16:02.847Z</time>
      </trkpt>
      <trkpt lat="43.22201" lon="-4.21766333">
        <ele>414.0</ele>
        <time>2018-05-19T10:16:03.848Z</time>
      </trkpt>
      <trkpt lat="43.22197333" lon="-4.21768167">
        <ele>415.0</ele>
        <time>2018-05-19T10:16:04.849Z</time>
      </trkpt>
      <trkpt lat="43.22197333" lon="-4.21768167">
        <ele>415.0</ele>
        <time>2018-05-19T10:16:05.845Z</time>
      </trkpt>
      <trkpt lat="43.22193667" lon="-4.21769167">
        <ele>415.0</ele>
        <time>2018-05-19T10:16:06.846Z</time>
      </trkpt>
      <trkpt lat="43.22193667" lon="-4.21769167">
        <ele>415.0</ele>
        <time>2018-05-19T10:16:07.846Z</time>
      </trkpt>
      <trkpt lat="43.22189167" lon="-4.21769167">
        <ele>416.0</ele>
        <time>2018-05-19T10:16:08.849Z</time>
      </trkpt>
      <trkpt lat="43.22187" lon="-4.217695">
        <ele>416.0</ele>
        <time>2018-05-19T10:16:09.860Z</time>
      </trkpt>
      <trkpt lat="43.22187" lon="-4.217695">
        <ele>416.0</ele>
        <time>2018-05-19T10:16:10.858Z</time>
      </trkpt>
      <trkpt lat="43.221825" lon="-4.21770333">
        <ele>416.0</ele>
        <time>2018-05-19T10:16:11.846Z</time>
      </trkpt>
      <trkpt lat="43.22180333" lon="-4.217705">
        <ele>416.0</ele>
        <time>2018-05-19T10:16:12.847Z</time>
      </trkpt>
      <trkpt lat="43.22180333" lon="-4.217705">
        <ele>416.0</ele>
        <time>2018-05-19T10:16:13.880Z</time>
      </trkpt>
      <trkpt lat="43.22176167" lon="-4.21771667">
        <ele>416.0</ele>
        <time>2018-05-19T10:16:14.882Z</time>
      </trkpt>
      <trkpt lat="43.22176167" lon="-4.21771667">
        <ele>416.0</ele>
        <time>2018-05-19T10:16:15.878Z</time>
      </trkpt>
      <trkpt lat="43.22171833" lon="-4.21772667">
        <ele>416.0</ele>
        <time>2018-05-19T10:16:16.864Z</time>
      </trkpt>
      <trkpt lat="43.22171833" lon="-4.21772667">
        <ele>416.0</ele>
        <time>2018-05-19T10:16:17.847Z</time>
      </trkpt>
      <trkpt lat="43.22167167" lon="-4.21773667">
        <ele>416.0</ele>
        <time>2018-05-19T10:16:18.846Z</time>
      </trkpt>
      <trkpt lat="43.22167167" lon="-4.21773667">
        <ele>416.0</ele>
        <time>2018-05-19T10:16:19.883Z</time>
      </trkpt>
      <trkpt lat="43.22163167" lon="-4.21775333">
        <ele>416.0</ele>
        <time>2018-05-19T10:16:20.848Z</time>
      </trkpt>
      <trkpt lat="43.22161" lon="-4.21776">
        <ele>416.0</ele>
        <time>2018-05-19T10:16:21.847Z</time>
      </trkpt>
      <trkpt lat="43.22159" lon="-4.21776667">
        <ele>416.0</ele>
        <time>2018-05-19T10:16:22.849Z</time>
      </trkpt>
      <trkpt lat="43.22159" lon="-4.21776667">
        <ele>416.0</ele>
        <time>2018-05-19T10:16:23.880Z</time>
      </trkpt>
      <trkpt lat="43.22154833" lon="-4.21778167">
        <ele>416.0</ele>
        <time>2018-05-19T10:16:24.865Z</time>
      </trkpt>
      <trkpt lat="43.22154833" lon="-4.21778167">
        <ele>416.0</ele>
        <time>2018-05-19T10:16:25.850Z</time>
      </trkpt>
      <trkpt lat="43.221505" lon="-4.21778833">
        <ele>416.0</ele>
        <time>2018-05-19T10:16:26.849Z</time>
      </trkpt>
      <trkpt lat="43.221505" lon="-4.21778833">
        <ele>416.0</ele>
        <time>2018-05-19T10:16:27.847Z</time>
      </trkpt>
      <trkpt lat="43.22146667" lon="-4.21779167">
        <ele>416.0</ele>
        <time>2018-05-19T10:16:28.882Z</time>
      </trkpt>
      <trkpt lat="43.22144667" lon="-4.21779167">
        <ele>416.0</ele>
        <time>2018-05-19T10:16:29.845Z</time>
      </trkpt>
      <trkpt lat="43.22144667" lon="-4.21779167">
        <ele>416.0</ele>
        <time>2018-05-19T10:16:30.845Z</time>
      </trkpt>
      <trkpt lat="43.22140833" lon="-4.217785">
        <ele>416.0</ele>
        <time>2018-05-19T10:16:31.872Z</time>
      </trkpt>
      <trkpt lat="43.22138833" lon="-4.21778667">
        <ele>416.0</ele>
        <time>2018-05-19T10:16:32.859Z</time>
      </trkpt>
      <trkpt lat="43.22138833" lon="-4.21778667">
        <ele>416.0</ele>
        <time>2018-05-19T10:16:33.852Z</time>
      </trkpt>
      <trkpt lat="43.22134833" lon="-4.21778667">
        <ele>416.0</ele>
        <time>2018-05-19T10:16:34.864Z</time>
      </trkpt>
      <trkpt lat="43.22132833" lon="-4.21778833">
        <ele>416.0</ele>
        <time>2018-05-19T10:16:35.849Z</time>
      </trkpt>
      <trkpt lat="43.22131" lon="-4.21779167">
        <ele>417.0</ele>
        <time>2018-05-19T10:16:36.846Z</time>
      </trkpt>
      <trkpt lat="43.22129" lon="-4.217795">
        <ele>417.0</ele>
        <time>2018-05-19T10:16:37.849Z</time>
      </trkpt>
      <trkpt lat="43.22129" lon="-4.217795">
        <ele>417.0</ele>
        <time>2018-05-19T10:16:38.845Z</time>
      </trkpt>
      <trkpt lat="43.22125167" lon="-4.2178">
        <ele>417.0</ele>
        <time>2018-05-19T10:16:39.853Z</time>
      </trkpt>
      <trkpt lat="43.22125167" lon="-4.2178">
        <ele>417.0</ele>
        <time>2018-05-19T10:16:40.857Z</time>
      </trkpt>
      <trkpt lat="43.22121" lon="-4.217805">
        <ele>417.0</ele>
        <time>2018-05-19T10:16:41.852Z</time>
      </trkpt>
      <trkpt lat="43.22119" lon="-4.21780667">
        <ele>417.0</ele>
        <time>2018-05-19T10:16:42.846Z</time>
      </trkpt>
      <trkpt lat="43.22119" lon="-4.21780667">
        <ele>417.0</ele>
        <time>2018-05-19T10:16:43.879Z</time>
      </trkpt>
      <trkpt lat="43.22115167" lon="-4.21780667">
        <ele>418.0</ele>
        <time>2018-05-19T10:16:44.865Z</time>
      </trkpt>
      <trkpt lat="43.22115167" lon="-4.21780667">
        <ele>418.0</ele>
        <time>2018-05-19T10:16:45.865Z</time>
      </trkpt>
      <trkpt lat="43.22111333" lon="-4.21780833">
        <ele>418.0</ele>
        <time>2018-05-19T10:16:46.862Z</time>
      </trkpt>
      <trkpt lat="43.22109167" lon="-4.21781">
        <ele>418.0</ele>
        <time>2018-05-19T10:16:47.869Z</time>
      </trkpt>
      <trkpt lat="43.22109167" lon="-4.21781">
        <ele>418.0</ele>
        <time>2018-05-19T10:16:48.877Z</time>
      </trkpt>
      <trkpt lat="43.22105333" lon="-4.21781333">
        <ele>419.0</ele>
        <time>2018-05-19T10:16:49.884Z</time>
      </trkpt>
      <trkpt lat="43.221035" lon="-4.21781167">
        <ele>419.0</ele>
        <time>2018-05-19T10:16:50.852Z</time>
      </trkpt>
      <trkpt lat="43.221015" lon="-4.21780833">
        <ele>419.0</ele>
        <time>2018-05-19T10:16:51.866Z</time>
      </trkpt>
      <trkpt lat="43.22099667" lon="-4.21780833">
        <ele>419.0</ele>
        <time>2018-05-19T10:16:52.852Z</time>
      </trkpt>
      <trkpt lat="43.22099667" lon="-4.21780833">
        <ele>419.0</ele>
        <time>2018-05-19T10:16:53.845Z</time>
      </trkpt>
      <trkpt lat="43.22095667" lon="-4.217815">
        <ele>419.0</ele>
        <time>2018-05-19T10:16:54.850Z</time>
      </trkpt>
      <trkpt lat="43.22095667" lon="-4.217815">
        <ele>419.0</ele>
        <time>2018-05-19T10:16:55.846Z</time>
      </trkpt>
      <trkpt lat="43.22091667" lon="-4.21781167">
        <ele>420.0</ele>
        <time>2018-05-19T10:16:56.849Z</time>
      </trkpt>
      <trkpt lat="43.22091667" lon="-4.21781167">
        <ele>420.0</ele>
        <time>2018-05-19T10:16:57.844Z</time>
      </trkpt>
      <trkpt lat="43.220875" lon="-4.21780667">
        <ele>420.0</ele>
        <time>2018-05-19T10:16:58.848Z</time>
      </trkpt>
      <trkpt lat="43.220875" lon="-4.21780667">
        <ele>420.0</ele>
        <time>2018-05-19T10:16:59.846Z</time>
      </trkpt>
      <trkpt lat="43.22083" lon="-4.21779833">
        <ele>420.0</ele>
        <time>2018-05-19T10:17:00.853Z</time>
      </trkpt>
      <trkpt lat="43.22083" lon="-4.21779833">
        <ele>420.0</ele>
        <time>2018-05-19T10:17:01.844Z</time>
      </trkpt>
      <trkpt lat="43.22078" lon="-4.217785">
        <ele>421.0</ele>
        <time>2018-05-19T10:17:02.848Z</time>
      </trkpt>
      <trkpt lat="43.22078" lon="-4.217785">
        <ele>421.0</ele>
        <time>2018-05-19T10:17:03.879Z</time>
      </trkpt>
      <trkpt lat="43.22073167" lon="-4.21776">
        <ele>421.0</ele>
        <time>2018-05-19T10:17:04.849Z</time>
      </trkpt>
      <trkpt lat="43.22073167" lon="-4.21776">
        <ele>421.0</ele>
        <time>2018-05-19T10:17:05.846Z</time>
      </trkpt>
      <trkpt lat="43.22068667" lon="-4.21773167">
        <ele>421.0</ele>
        <time>2018-05-19T10:17:06.849Z</time>
      </trkpt>
      <trkpt lat="43.22068667" lon="-4.21773167">
        <ele>421.0</ele>
        <time>2018-05-19T10:17:07.847Z</time>
      </trkpt>
      <trkpt lat="43.22064333" lon="-4.21771333">
        <ele>422.0</ele>
        <time>2018-05-19T10:17:08.849Z</time>
      </trkpt>
      <trkpt lat="43.22064333" lon="-4.21771333">
        <ele>422.0</ele>
        <time>2018-05-19T10:17:09.846Z</time>
      </trkpt>
      <trkpt lat="43.22059833" lon="-4.21769333">
        <ele>422.0</ele>
        <time>2018-05-19T10:17:10.850Z</time>
      </trkpt>
      <trkpt lat="43.22059833" lon="-4.21769333">
        <ele>422.0</ele>
        <time>2018-05-19T10:17:11.844Z</time>
      </trkpt>
      <trkpt lat="43.22055" lon="-4.217675">
        <ele>423.0</ele>
        <time>2018-05-19T10:17:12.847Z</time>
      </trkpt>
      <trkpt lat="43.22055" lon="-4.217675">
        <ele>423.0</ele>
        <time>2018-05-19T10:17:13.878Z</time>
      </trkpt>
      <trkpt lat="43.2205" lon="-4.217665">
        <ele>423.0</ele>
        <time>2018-05-19T10:17:14.866Z</time>
      </trkpt>
      <trkpt lat="43.220475" lon="-4.21766167">
        <ele>423.0</ele>
        <time>2018-05-19T10:17:15.851Z</time>
      </trkpt>
      <trkpt lat="43.220475" lon="-4.21766167">
        <ele>423.0</ele>
        <time>2018-05-19T10:17:16.848Z</time>
      </trkpt>
      <trkpt lat="43.22042667" lon="-4.21766333">
        <ele>423.0</ele>
        <time>2018-05-19T10:17:17.868Z</time>
      </trkpt>
      <trkpt lat="43.22042667" lon="-4.21766333">
        <ele>423.0</ele>
        <time>2018-05-19T10:17:18.853Z</time>
      </trkpt>
      <trkpt lat="43.22037667" lon="-4.21767833">
        <ele>423.0</ele>
        <time>2018-05-19T10:17:19.849Z</time>
      </trkpt>
      <trkpt lat="43.22037667" lon="-4.21767833">
        <ele>423.0</ele>
        <time>2018-05-19T10:17:20.861Z</time>
      </trkpt>
      <trkpt lat="43.220335" lon="-4.217685">
        <ele>423.0</ele>
        <time>2018-05-19T10:17:21.849Z</time>
      </trkpt>
      <trkpt lat="43.220335" lon="-4.217685">
        <ele>423.0</ele>
        <time>2018-05-19T10:17:22.847Z</time>
      </trkpt>
      <trkpt lat="43.22029167" lon="-4.21769167">
        <ele>423.0</ele>
        <time>2018-05-19T10:17:23.850Z</time>
      </trkpt>
      <trkpt lat="43.22026833" lon="-4.21769333">
        <ele>423.0</ele>
        <time>2018-05-19T10:17:24.849Z</time>
      </trkpt>
      <trkpt lat="43.22026833" lon="-4.21769333">
        <ele>423.0</ele>
        <time>2018-05-19T10:17:25.847Z</time>
      </trkpt>
      <trkpt lat="43.220225" lon="-4.21769333">
        <ele>423.0</ele>
        <time>2018-05-19T10:17:26.849Z</time>
      </trkpt>
      <trkpt lat="43.220225" lon="-4.21769333">
        <ele>423.0</ele>
        <time>2018-05-19T10:17:27.846Z</time>
      </trkpt>
      <trkpt lat="43.22018333" lon="-4.21770333">
        <ele>423.0</ele>
        <time>2018-05-19T10:17:28.846Z</time>
      </trkpt>
      <trkpt lat="43.22016167" lon="-4.217705">
        <ele>423.0</ele>
        <time>2018-05-19T10:17:29.850Z</time>
      </trkpt>
      <trkpt lat="43.22016167" lon="-4.217705">
        <ele>423.0</ele>
        <time>2018-05-19T10:17:30.854Z</time>
      </trkpt>
      <trkpt lat="43.22011667" lon="-4.21770333">
        <ele>423.0</ele>
        <time>2018-05-19T10:17:31.849Z</time>
      </trkpt>
      <trkpt lat="43.22011667" lon="-4.21770333">
        <ele>423.0</ele>
        <time>2018-05-19T10:17:32.847Z</time>
      </trkpt>
      <trkpt lat="43.22007333" lon="-4.21769833">
        <ele>424.0</ele>
        <time>2018-05-19T10:17:33.882Z</time>
      </trkpt>
      <trkpt lat="43.22005167" lon="-4.21769333">
        <ele>424.0</ele>
        <time>2018-05-19T10:17:34.849Z</time>
      </trkpt>
      <trkpt lat="43.22005167" lon="-4.21769333">
        <ele>424.0</ele>
        <time>2018-05-19T10:17:35.847Z</time>
      </trkpt>
      <trkpt lat="43.22001167" lon="-4.21768167">
        <ele>424.0</ele>
        <time>2018-05-19T10:17:36.849Z</time>
      </trkpt>
      <trkpt lat="43.22001167" lon="-4.21768167">
        <ele>424.0</ele>
        <time>2018-05-19T10:17:37.846Z</time>
      </trkpt>
      <trkpt lat="43.21997" lon="-4.21768">
        <ele>424.0</ele>
        <time>2018-05-19T10:17:38.866Z</time>
      </trkpt>
      <trkpt lat="43.21997" lon="-4.21768">
        <ele>424.0</ele>
        <time>2018-05-19T10:17:39.861Z</time>
      </trkpt>
      <trkpt lat="43.21992833" lon="-4.217675">
        <ele>425.0</ele>
        <time>2018-05-19T10:17:40.864Z</time>
      </trkpt>
      <trkpt lat="43.219905" lon="-4.21767167">
        <ele>425.0</ele>
        <time>2018-05-19T10:17:41.849Z</time>
      </trkpt>
      <trkpt lat="43.219905" lon="-4.21767167">
        <ele>425.0</ele>
        <time>2018-05-19T10:17:42.883Z</time>
      </trkpt>
      <trkpt lat="43.21986333" lon="-4.21766667">
        <ele>425.0</ele>
        <time>2018-05-19T10:17:43.876Z</time>
      </trkpt>
      <trkpt lat="43.21986333" lon="-4.21766667">
        <ele>425.0</ele>
        <time>2018-05-19T10:17:44.861Z</time>
      </trkpt>
      <trkpt lat="43.21982167" lon="-4.21765167">
        <ele>425.0</ele>
        <time>2018-05-19T10:17:45.867Z</time>
      </trkpt>
      <trkpt lat="43.2198" lon="-4.217645">
        <ele>426.0</ele>
        <time>2018-05-19T10:17:46.847Z</time>
      </trkpt>
      <trkpt lat="43.21978" lon="-4.21763833">
        <ele>426.0</ele>
        <time>2018-05-19T10:17:47.854Z</time>
      </trkpt>
      <trkpt lat="43.21976" lon="-4.21763167">
        <ele>426.0</ele>
        <time>2018-05-19T10:17:48.861Z</time>
      </trkpt>
      <trkpt lat="43.21976" lon="-4.21763167">
        <ele>426.0</ele>
        <time>2018-05-19T10:17:49.847Z</time>
      </trkpt>
      <trkpt lat="43.21972" lon="-4.21761667">
        <ele>427.0</ele>
        <time>2018-05-19T10:17:50.849Z</time>
      </trkpt>
      <trkpt lat="43.2197" lon="-4.21760833">
        <ele>427.0</ele>
        <time>2018-05-19T10:17:51.849Z</time>
      </trkpt>
      <trkpt lat="43.2197" lon="-4.21760833">
        <ele>427.0</ele>
        <time>2018-05-19T10:17:52.844Z</time>
      </trkpt>
      <trkpt lat="43.21966" lon="-4.21759167">
        <ele>427.0</ele>
        <time>2018-05-19T10:17:53.880Z</time>
      </trkpt>
      <trkpt lat="43.21964" lon="-4.21758167">
        <ele>428.0</ele>
        <time>2018-05-19T10:17:54.864Z</time>
      </trkpt>
      <trkpt lat="43.21964" lon="-4.21758167">
        <ele>428.0</ele>
        <time>2018-05-19T10:17:55.848Z</time>
      </trkpt>
      <trkpt lat="43.21960333" lon="-4.21756667">
        <ele>428.0</ele>
        <time>2018-05-19T10:17:56.846Z</time>
      </trkpt>
      <trkpt lat="43.21960333" lon="-4.21756667">
        <ele>428.0</ele>
        <time>2018-05-19T10:17:57.845Z</time>
      </trkpt>
      <trkpt lat="43.21957" lon="-4.21754833">
        <ele>428.0</ele>
        <time>2018-05-19T10:17:58.849Z</time>
      </trkpt>
      <trkpt lat="43.21957" lon="-4.21754833">
        <ele>428.0</ele>
        <time>2018-05-19T10:17:59.883Z</time>
      </trkpt>
      <trkpt lat="43.21953333" lon="-4.21753167">
        <ele>428.0</ele>
        <time>2018-05-19T10:18:00.849Z</time>
      </trkpt>
      <trkpt lat="43.21953333" lon="-4.21753167">
        <ele>428.0</ele>
        <time>2018-05-19T10:18:01.852Z</time>
      </trkpt>
      <trkpt lat="43.21949667" lon="-4.21751333">
        <ele>429.0</ele>
        <time>2018-05-19T10:18:02.848Z</time>
      </trkpt>
      <trkpt lat="43.21949667" lon="-4.21751333">
        <ele>429.0</ele>
        <time>2018-05-19T10:18:03.879Z</time>
      </trkpt>
      <trkpt lat="43.21946" lon="-4.21749333">
        <ele>429.0</ele>
        <time>2018-05-19T10:18:04.862Z</time>
      </trkpt>
      <trkpt lat="43.21946" lon="-4.21749333">
        <ele>429.0</ele>
        <time>2018-05-19T10:18:05.846Z</time>
      </trkpt>
      <trkpt lat="43.219425" lon="-4.21748">
        <ele>429.0</ele>
        <time>2018-05-19T10:18:06.848Z</time>
      </trkpt>
      <trkpt lat="43.219425" lon="-4.21748">
        <ele>429.0</ele>
        <time>2018-05-19T10:18:07.846Z</time>
      </trkpt>
      <trkpt lat="43.219385" lon="-4.21746833">
        <ele>430.0</ele>
        <time>2018-05-19T10:18:08.849Z</time>
      </trkpt>
      <trkpt lat="43.219385" lon="-4.21746833">
        <ele>430.0</ele>
        <time>2018-05-19T10:18:09.846Z</time>
      </trkpt>
      <trkpt lat="43.21934667" lon="-4.21744833">
        <ele>430.0</ele>
        <time>2018-05-19T10:18:10.849Z</time>
      </trkpt>
      <trkpt lat="43.21934667" lon="-4.21744833">
        <ele>430.0</ele>
        <time>2018-05-19T10:18:11.879Z</time>
      </trkpt>
      <trkpt lat="43.21930667" lon="-4.21743333">
        <ele>430.0</ele>
        <time>2018-05-19T10:18:12.864Z</time>
      </trkpt>
      <trkpt lat="43.21930667" lon="-4.21743333">
        <ele>430.0</ele>
        <time>2018-05-19T10:18:13.847Z</time>
      </trkpt>
      <trkpt lat="43.21927" lon="-4.21742167">
        <ele>430.0</ele>
        <time>2018-05-19T10:18:14.848Z</time>
      </trkpt>
      <trkpt lat="43.21925" lon="-4.217415">
        <ele>431.0</ele>
        <time>2018-05-19T10:18:15.849Z</time>
      </trkpt>
      <trkpt lat="43.21925" lon="-4.217415">
        <ele>431.0</ele>
        <time>2018-05-19T10:18:16.883Z</time>
      </trkpt>
      <trkpt lat="43.21921167" lon="-4.21739667">
        <ele>432.0</ele>
        <time>2018-05-19T10:18:17.874Z</time>
      </trkpt>
      <trkpt lat="43.21921167" lon="-4.21739667">
        <ele>432.0</ele>
        <time>2018-05-19T10:18:18.881Z</time>
      </trkpt>
      <trkpt lat="43.219175" lon="-4.21737833">
        <ele>432.0</ele>
        <time>2018-05-19T10:18:19.847Z</time>
      </trkpt>
      <trkpt lat="43.219175" lon="-4.21737833">
        <ele>432.0</ele>
        <time>2018-05-19T10:18:20.855Z</time>
      </trkpt>
      <trkpt lat="43.21914" lon="-4.21735167">
        <ele>433.0</ele>
        <time>2018-05-19T10:18:21.848Z</time>
      </trkpt>
      <trkpt lat="43.219125" lon="-4.21733833">
        <ele>433.0</ele>
        <time>2018-05-19T10:18:22.849Z</time>
      </trkpt>
      <trkpt lat="43.219125" lon="-4.21733833">
        <ele>433.0</ele>
        <time>2018-05-19T10:18:23.848Z</time>
      </trkpt>
      <trkpt lat="43.219095" lon="-4.21730833">
        <ele>434.0</ele>
        <time>2018-05-19T10:18:24.849Z</time>
      </trkpt>
      <trkpt lat="43.219095" lon="-4.21730833">
        <ele>434.0</ele>
        <time>2018-05-19T10:18:25.846Z</time>
      </trkpt>
      <trkpt lat="43.219065" lon="-4.21728">
        <ele>434.0</ele>
        <time>2018-05-19T10:18:26.859Z</time>
      </trkpt>
      <trkpt lat="43.219065" lon="-4.21728">
        <ele>434.0</ele>
        <time>2018-05-19T10:18:27.883Z</time>
      </trkpt>
      <trkpt lat="43.21903" lon="-4.21725333">
        <ele>434.0</ele>
        <time>2018-05-19T10:18:28.850Z</time>
      </trkpt>
      <trkpt lat="43.21903" lon="-4.21725333">
        <ele>434.0</ele>
        <time>2018-05-19T10:18:29.883Z</time>
      </trkpt>
      <trkpt lat="43.218995" lon="-4.217225">
        <ele>435.0</ele>
        <time>2018-05-19T10:18:30.883Z</time>
      </trkpt>
      <trkpt lat="43.218995" lon="-4.217225">
        <ele>435.0</ele>
        <time>2018-05-19T10:18:31.880Z</time>
      </trkpt>
      <trkpt lat="43.21896167" lon="-4.21719333">
        <ele>435.0</ele>
        <time>2018-05-19T10:18:32.880Z</time>
      </trkpt>
      <trkpt lat="43.21896167" lon="-4.21719333">
        <ele>435.0</ele>
        <time>2018-05-19T10:18:33.869Z</time>
      </trkpt>
      <trkpt lat="43.21893" lon="-4.21716167">
        <ele>436.0</ele>
        <time>2018-05-19T10:18:34.858Z</time>
      </trkpt>
      <trkpt lat="43.21893" lon="-4.21716167">
        <ele>436.0</ele>
        <time>2018-05-19T10:18:35.883Z</time>
      </trkpt>
      <trkpt lat="43.21889833" lon="-4.21713">
        <ele>436.0</ele>
        <time>2018-05-19T10:18:36.849Z</time>
      </trkpt>
      <trkpt lat="43.21889833" lon="-4.21713">
        <ele>436.0</ele>
        <time>2018-05-19T10:18:37.883Z</time>
      </trkpt>
      <trkpt lat="43.21886667" lon="-4.21710333">
        <ele>436.0</ele>
        <time>2018-05-19T10:18:38.848Z</time>
      </trkpt>
      <trkpt lat="43.21886667" lon="-4.21710333">
        <ele>436.0</ele>
        <time>2018-05-19T10:18:39.884Z</time>
      </trkpt>
      <trkpt lat="43.218835" lon="-4.217075">
        <ele>436.0</ele>
        <time>2018-05-19T10:18:40.853Z</time>
      </trkpt>
      <trkpt lat="43.21881833" lon="-4.21705833">
        <ele>436.0</ele>
        <time>2018-05-19T10:18:41.852Z</time>
      </trkpt>
      <trkpt lat="43.21880167" lon="-4.21704333">
        <ele>436.0</ele>
        <time>2018-05-19T10:18:42.848Z</time>
      </trkpt>
      <trkpt lat="43.21880167" lon="-4.21704333">
        <ele>436.0</ele>
        <time>2018-05-19T10:18:43.852Z</time>
      </trkpt>
      <trkpt lat="43.21877" lon="-4.21701333">
        <ele>437.0</ele>
        <time>2018-05-19T10:18:44.848Z</time>
      </trkpt>
      <trkpt lat="43.21877" lon="-4.21701333">
        <ele>437.0</ele>
        <time>2018-05-19T10:18:45.851Z</time>
      </trkpt>
      <trkpt lat="43.21874167" lon="-4.216985">
        <ele>437.0</ele>
        <time>2018-05-19T10:18:46.867Z</time>
      </trkpt>
      <trkpt lat="43.21872667" lon="-4.21697">
        <ele>437.0</ele>
        <time>2018-05-19T10:18:47.874Z</time>
      </trkpt>
      <trkpt lat="43.21872667" lon="-4.21697">
        <ele>437.0</ele>
        <time>2018-05-19T10:18:48.882Z</time>
      </trkpt>
      <trkpt lat="43.21869833" lon="-4.21694167">
        <ele>438.0</ele>
        <time>2018-05-19T10:18:49.849Z</time>
      </trkpt>
      <trkpt lat="43.21869833" lon="-4.21694167">
        <ele>438.0</ele>
        <time>2018-05-19T10:18:50.878Z</time>
      </trkpt>
      <trkpt lat="43.21867333" lon="-4.21690667">
        <ele>438.0</ele>
        <time>2018-05-19T10:18:51.863Z</time>
      </trkpt>
      <trkpt lat="43.21865667" lon="-4.216895">
        <ele>439.0</ele>
        <time>2018-05-19T10:18:52.852Z</time>
      </trkpt>
      <trkpt lat="43.21865667" lon="-4.216895">
        <ele>439.0</ele>
        <time>2018-05-19T10:18:53.878Z</time>
      </trkpt>
      <trkpt lat="43.21862" lon="-4.21687333">
        <ele>439.0</ele>
        <time>2018-05-19T10:18:54.863Z</time>
      </trkpt>
      <trkpt lat="43.21862" lon="-4.21687333">
        <ele>439.0</ele>
        <time>2018-05-19T10:18:55.861Z</time>
      </trkpt>
      <trkpt lat="43.218595" lon="-4.21684833">
        <ele>439.0</ele>
        <time>2018-05-19T10:18:56.849Z</time>
      </trkpt>
      <trkpt lat="43.218595" lon="-4.21684833">
        <ele>439.0</ele>
        <time>2018-05-19T10:18:57.878Z</time>
      </trkpt>
      <trkpt lat="43.21856667" lon="-4.216815">
        <ele>439.0</ele>
        <time>2018-05-19T10:18:58.863Z</time>
      </trkpt>
      <trkpt lat="43.21855" lon="-4.21679833">
        <ele>440.0</ele>
        <time>2018-05-19T10:18:59.851Z</time>
      </trkpt>
      <trkpt lat="43.21855" lon="-4.21679833">
        <ele>440.0</ele>
        <time>2018-05-19T10:19:00.845Z</time>
      </trkpt>
      <trkpt lat="43.21852167" lon="-4.21676333">
        <ele>440.0</ele>
        <time>2018-05-19T10:19:01.844Z</time>
      </trkpt>
      <trkpt lat="43.218505" lon="-4.21674667">
        <ele>440.0</ele>
        <time>2018-05-19T10:19:02.845Z</time>
      </trkpt>
      <trkpt lat="43.218505" lon="-4.21674667">
        <ele>440.0</ele>
        <time>2018-05-19T10:19:03.878Z</time>
      </trkpt>
      <trkpt lat="43.21847" lon="-4.21671333">
        <ele>441.0</ele>
        <time>2018-05-19T10:19:04.860Z</time>
      </trkpt>
      <trkpt lat="43.21847" lon="-4.21671333">
        <ele>441.0</ele>
        <time>2018-05-19T10:19:05.883Z</time>
      </trkpt>
      <trkpt lat="43.21843833" lon="-4.21668833">
        <ele>441.0</ele>
        <time>2018-05-19T10:19:06.847Z</time>
      </trkpt>
      <trkpt lat="43.21843833" lon="-4.21668833">
        <ele>441.0</ele>
        <time>2018-05-19T10:19:07.878Z</time>
      </trkpt>
      <trkpt lat="43.218405" lon="-4.21666167">
        <ele>442.0</ele>
        <time>2018-05-19T10:19:08.862Z</time>
      </trkpt>
      <trkpt lat="43.218405" lon="-4.21666167">
        <ele>442.0</ele>
        <time>2018-05-19T10:19:09.844Z</time>
      </trkpt>
      <trkpt lat="43.21837333" lon="-4.21663333">
        <ele>442.0</ele>
        <time>2018-05-19T10:19:10.850Z</time>
      </trkpt>
      <trkpt lat="43.21835667" lon="-4.21661667">
        <ele>442.0</ele>
        <time>2018-05-19T10:19:11.848Z</time>
      </trkpt>
      <trkpt lat="43.21835667" lon="-4.21661667">
        <ele>442.0</ele>
        <time>2018-05-19T10:19:12.878Z</time>
      </trkpt>
      <trkpt lat="43.21832833" lon="-4.216585">
        <ele>442.0</ele>
        <time>2018-05-19T10:19:13.868Z</time>
      </trkpt>
      <trkpt lat="43.21832833" lon="-4.216585">
        <ele>442.0</ele>
        <time>2018-05-19T10:19:14.853Z</time>
      </trkpt>
      <trkpt lat="43.21829833" lon="-4.21655833">
        <ele>443.0</ele>
        <time>2018-05-19T10:19:15.845Z</time>
      </trkpt>
      <trkpt lat="43.218285" lon="-4.21654167">
        <ele>443.0</ele>
        <time>2018-05-19T10:19:16.848Z</time>
      </trkpt>
      <trkpt lat="43.218285" lon="-4.21654167">
        <ele>443.0</ele>
        <time>2018-05-19T10:19:17.877Z</time>
      </trkpt>
      <trkpt lat="43.21825667" lon="-4.216505">
        <ele>443.0</ele>
        <time>2018-05-19T10:19:18.874Z</time>
      </trkpt>
      <trkpt lat="43.21824167" lon="-4.21648833">
        <ele>443.0</ele>
        <time>2018-05-19T10:19:19.860Z</time>
      </trkpt>
      <trkpt lat="43.21824167" lon="-4.21648833">
        <ele>443.0</ele>
        <time>2018-05-19T10:19:20.844Z</time>
      </trkpt>
      <trkpt lat="43.21820667" lon="-4.216465">
        <ele>444.0</ele>
        <time>2018-05-19T10:19:21.847Z</time>
      </trkpt>
      <trkpt lat="43.21819167" lon="-4.21645">
        <ele>445.0</ele>
        <time>2018-05-19T10:19:22.846Z</time>
      </trkpt>
      <trkpt lat="43.21819167" lon="-4.21645">
        <ele>445.0</ele>
        <time>2018-05-19T10:19:23.878Z</time>
      </trkpt>
      <trkpt lat="43.21816167" lon="-4.21642167">
        <ele>445.0</ele>
        <time>2018-05-19T10:19:24.864Z</time>
      </trkpt>
      <trkpt lat="43.21816167" lon="-4.21642167">
        <ele>445.0</ele>
        <time>2018-05-19T10:19:25.852Z</time>
      </trkpt>
      <trkpt lat="43.21812833" lon="-4.216395">
        <ele>445.0</ele>
        <time>2018-05-19T10:19:26.846Z</time>
      </trkpt>
      <trkpt lat="43.21812833" lon="-4.216395">
        <ele>445.0</ele>
        <time>2018-05-19T10:19:27.878Z</time>
      </trkpt>
      <trkpt lat="43.21809833" lon="-4.21636667">
        <ele>446.0</ele>
        <time>2018-05-19T10:19:28.863Z</time>
      </trkpt>
      <trkpt lat="43.21809833" lon="-4.21636667">
        <ele>446.0</ele>
        <time>2018-05-19T10:19:29.849Z</time>
      </trkpt>
      <trkpt lat="43.21806833" lon="-4.21633167">
        <ele>446.0</ele>
        <time>2018-05-19T10:19:30.848Z</time>
      </trkpt>
      <trkpt lat="43.21806833" lon="-4.21633167">
        <ele>446.0</ele>
        <time>2018-05-19T10:19:31.883Z</time>
      </trkpt>
      <trkpt lat="43.21804" lon="-4.216295">
        <ele>447.0</ele>
        <time>2018-05-19T10:19:32.876Z</time>
      </trkpt>
      <trkpt lat="43.21804" lon="-4.216295">
        <ele>447.0</ele>
        <time>2018-05-19T10:19:33.877Z</time>
      </trkpt>
      <trkpt lat="43.21800833" lon="-4.21626">
        <ele>447.0</ele>
        <time>2018-05-19T10:19:34.864Z</time>
      </trkpt>
      <trkpt lat="43.21800833" lon="-4.21626">
        <ele>447.0</ele>
        <time>2018-05-19T10:19:35.852Z</time>
      </trkpt>
      <trkpt lat="43.217975" lon="-4.21622">
        <ele>447.0</ele>
        <time>2018-05-19T10:19:36.881Z</time>
      </trkpt>
      <trkpt lat="43.217975" lon="-4.21622">
        <ele>447.0</ele>
        <time>2018-05-19T10:19:37.876Z</time>
      </trkpt>
      <trkpt lat="43.217945" lon="-4.21617833">
        <ele>447.0</ele>
        <time>2018-05-19T10:19:38.862Z</time>
      </trkpt>
      <trkpt lat="43.217945" lon="-4.21617833">
        <ele>447.0</ele>
        <time>2018-05-19T10:19:39.846Z</time>
      </trkpt>
      <trkpt lat="43.21791333" lon="-4.216135">
        <ele>448.0</ele>
        <time>2018-05-19T10:19:40.883Z</time>
      </trkpt>
      <trkpt lat="43.21791333" lon="-4.216135">
        <ele>448.0</ele>
        <time>2018-05-19T10:19:41.877Z</time>
      </trkpt>
      <trkpt lat="43.21788667" lon="-4.21609667">
        <ele>448.0</ele>
        <time>2018-05-19T10:19:42.859Z</time>
      </trkpt>
      <trkpt lat="43.21788667" lon="-4.21609667">
        <ele>448.0</ele>
        <time>2018-05-19T10:19:43.844Z</time>
      </trkpt>
      <trkpt lat="43.21786167" lon="-4.216055">
        <ele>448.0</ele>
        <time>2018-05-19T10:19:44.847Z</time>
      </trkpt>
      <trkpt lat="43.21786167" lon="-4.216055">
        <ele>448.0</ele>
        <time>2018-05-19T10:19:45.858Z</time>
      </trkpt>
      <trkpt lat="43.21783333" lon="-4.21601333">
        <ele>448.0</ele>
        <time>2018-05-19T10:19:46.855Z</time>
      </trkpt>
      <trkpt lat="43.21782167" lon="-4.21599">
        <ele>448.0</ele>
        <time>2018-05-19T10:19:47.861Z</time>
      </trkpt>
      <trkpt lat="43.21782167" lon="-4.21599">
        <ele>448.0</ele>
        <time>2018-05-19T10:19:48.867Z</time>
      </trkpt>
      <trkpt lat="43.21779167" lon="-4.21594333">
        <ele>449.0</ele>
        <time>2018-05-19T10:19:49.875Z</time>
      </trkpt>
      <trkpt lat="43.21779167" lon="-4.21594333">
        <ele>449.0</ele>
        <time>2018-05-19T10:19:50.860Z</time>
      </trkpt>
      <trkpt lat="43.21776167" lon="-4.215895">
        <ele>449.0</ele>
        <time>2018-05-19T10:19:51.864Z</time>
      </trkpt>
      <trkpt lat="43.21774333" lon="-4.21587">
        <ele>449.0</ele>
        <time>2018-05-19T10:19:52.852Z</time>
      </trkpt>
      <trkpt lat="43.21774333" lon="-4.21587">
        <ele>449.0</ele>
        <time>2018-05-19T10:19:53.845Z</time>
      </trkpt>
      <trkpt lat="43.21771833" lon="-4.215825">
        <ele>449.0</ele>
        <time>2018-05-19T10:19:54.848Z</time>
      </trkpt>
      <trkpt lat="43.21771833" lon="-4.215825">
        <ele>449.0</ele>
        <time>2018-05-19T10:19:55.883Z</time>
      </trkpt>
      <trkpt lat="43.21769333" lon="-4.21578333">
        <ele>449.0</ele>
        <time>2018-05-19T10:19:56.880Z</time>
      </trkpt>
      <trkpt lat="43.21768" lon="-4.21575833">
        <ele>449.0</ele>
        <time>2018-05-19T10:19:57.864Z</time>
      </trkpt>
      <trkpt lat="43.21766667" lon="-4.21573667">
        <ele>449.0</ele>
        <time>2018-05-19T10:19:58.849Z</time>
      </trkpt>
      <trkpt lat="43.21766667" lon="-4.21573667">
        <ele>449.0</ele>
        <time>2018-05-19T10:19:59.878Z</time>
      </trkpt>
      <trkpt lat="43.21764" lon="-4.21569">
        <ele>450.0</ele>
        <time>2018-05-19T10:20:00.864Z</time>
      </trkpt>
      <trkpt lat="43.217625" lon="-4.21567">
        <ele>450.0</ele>
        <time>2018-05-19T10:20:01.865Z</time>
      </trkpt>
      <trkpt lat="43.217625" lon="-4.21567">
        <ele>450.0</ele>
        <time>2018-05-19T10:20:02.883Z</time>
      </trkpt>
      <trkpt lat="43.21759667" lon="-4.21563">
        <ele>450.0</ele>
        <time>2018-05-19T10:20:03.881Z</time>
      </trkpt>
      <trkpt lat="43.21758333" lon="-4.21560667">
        <ele>451.0</ele>
        <time>2018-05-19T10:20:04.883Z</time>
      </trkpt>
      <trkpt lat="43.21758333" lon="-4.21560667">
        <ele>451.0</ele>
        <time>2018-05-19T10:20:05.878Z</time>
      </trkpt>
      <trkpt lat="43.21755833" lon="-4.21556333">
        <ele>451.0</ele>
        <time>2018-05-19T10:20:06.864Z</time>
      </trkpt>
      <trkpt lat="43.21755833" lon="-4.21556333">
        <ele>451.0</ele>
        <time>2018-05-19T10:20:07.849Z</time>
      </trkpt>
      <trkpt lat="43.21753" lon="-4.21551833">
        <ele>452.0</ele>
        <time>2018-05-19T10:20:08.846Z</time>
      </trkpt>
      <trkpt lat="43.21753" lon="-4.21551833">
        <ele>452.0</ele>
        <time>2018-05-19T10:20:09.876Z</time>
      </trkpt>
      <trkpt lat="43.217505" lon="-4.21547667">
        <ele>452.0</ele>
        <time>2018-05-19T10:20:10.863Z</time>
      </trkpt>
      <trkpt lat="43.217505" lon="-4.21547667">
        <ele>452.0</ele>
        <time>2018-05-19T10:20:11.848Z</time>
      </trkpt>
      <trkpt lat="43.21748" lon="-4.215435">
        <ele>453.0</ele>
        <time>2018-05-19T10:20:12.854Z</time>
      </trkpt>
      <trkpt lat="43.21746667" lon="-4.215415">
        <ele>453.0</ele>
        <time>2018-05-19T10:20:13.861Z</time>
      </trkpt>
      <trkpt lat="43.21745" lon="-4.215395">
        <ele>453.0</ele>
        <time>2018-05-19T10:20:14.848Z</time>
      </trkpt>
      <trkpt lat="43.21745" lon="-4.215395">
        <ele>453.0</ele>
        <time>2018-05-19T10:20:15.876Z</time>
      </trkpt>
      <trkpt lat="43.21742167" lon="-4.21535667">
        <ele>454.0</ele>
        <time>2018-05-19T10:20:16.860Z</time>
      </trkpt>
      <trkpt lat="43.21742167" lon="-4.21535667">
        <ele>454.0</ele>
        <time>2018-05-19T10:20:17.846Z</time>
      </trkpt>
      <trkpt lat="43.21739667" lon="-4.21531333">
        <ele>454.0</ele>
        <time>2018-05-19T10:20:18.845Z</time>
      </trkpt>
      <trkpt lat="43.21739667" lon="-4.21531333">
        <ele>454.0</ele>
        <time>2018-05-19T10:20:19.878Z</time>
      </trkpt>
      <trkpt lat="43.217375" lon="-4.21527">
        <ele>455.0</ele>
        <time>2018-05-19T10:20:20.861Z</time>
      </trkpt>
      <trkpt lat="43.217375" lon="-4.21527">
        <ele>455.0</ele>
        <time>2018-05-19T10:20:21.847Z</time>
      </trkpt>
      <trkpt lat="43.21735167" lon="-4.21523">
        <ele>455.0</ele>
        <time>2018-05-19T10:20:22.871Z</time>
      </trkpt>
      <trkpt lat="43.21735167" lon="-4.21523">
        <ele>455.0</ele>
        <time>2018-05-19T10:20:23.857Z</time>
      </trkpt>
      <trkpt lat="43.217325" lon="-4.21519333">
        <ele>456.0</ele>
        <time>2018-05-19T10:20:24.847Z</time>
      </trkpt>
      <trkpt lat="43.217325" lon="-4.21519333">
        <ele>456.0</ele>
        <time>2018-05-19T10:20:25.879Z</time>
      </trkpt>
      <trkpt lat="43.21729833" lon="-4.21516">
        <ele>457.0</ele>
        <time>2018-05-19T10:20:26.864Z</time>
      </trkpt>
      <trkpt lat="43.21728333" lon="-4.21514667">
        <ele>457.0</ele>
        <time>2018-05-19T10:20:27.850Z</time>
      </trkpt>
      <trkpt lat="43.21726833" lon="-4.21513167">
        <ele>457.0</ele>
        <time>2018-05-19T10:20:28.849Z</time>
      </trkpt>
      <trkpt lat="43.21726833" lon="-4.21513167">
        <ele>457.0</ele>
        <time>2018-05-19T10:20:29.877Z</time>
      </trkpt>
      <trkpt lat="43.217245" lon="-4.215085">
        <ele>457.0</ele>
        <time>2018-05-19T10:20:30.845Z</time>
      </trkpt>
      <trkpt lat="43.217245" lon="-4.215085">
        <ele>457.0</ele>
        <time>2018-05-19T10:20:31.882Z</time>
      </trkpt>
      <trkpt lat="43.21721667" lon="-4.21505">
        <ele>458.0</ele>
        <time>2018-05-19T10:20:32.882Z</time>
      </trkpt>
      <trkpt lat="43.21721667" lon="-4.21505">
        <ele>458.0</ele>
        <time>2018-05-19T10:20:33.880Z</time>
      </trkpt>
      <trkpt lat="43.21718833" lon="-4.215015">
        <ele>458.0</ele>
        <time>2018-05-19T10:20:34.849Z</time>
      </trkpt>
      <trkpt lat="43.21718833" lon="-4.215015">
        <ele>458.0</ele>
        <time>2018-05-19T10:20:35.882Z</time>
      </trkpt>
      <trkpt lat="43.21716167" lon="-4.21498167">
        <ele>459.0</ele>
        <time>2018-05-19T10:20:36.847Z</time>
      </trkpt>
      <trkpt lat="43.21716167" lon="-4.21498167">
        <ele>459.0</ele>
        <time>2018-05-19T10:20:37.877Z</time>
      </trkpt>
      <trkpt lat="43.21713667" lon="-4.21494333">
        <ele>459.0</ele>
        <time>2018-05-19T10:20:38.860Z</time>
      </trkpt>
      <trkpt lat="43.21713667" lon="-4.21494333">
        <ele>459.0</ele>
        <time>2018-05-19T10:20:39.845Z</time>
      </trkpt>
      <trkpt lat="43.21710833" lon="-4.21490833">
        <ele>460.0</ele>
        <time>2018-05-19T10:20:40.875Z</time>
      </trkpt>
      <trkpt lat="43.217095" lon="-4.21489167">
        <ele>460.0</ele>
        <time>2018-05-19T10:20:41.858Z</time>
      </trkpt>
      <trkpt lat="43.217095" lon="-4.21489167">
        <ele>460.0</ele>
        <time>2018-05-19T10:20:42.849Z</time>
      </trkpt>
      <trkpt lat="43.21706667" lon="-4.21485833">
        <ele>460.0</ele>
        <time>2018-05-19T10:20:43.882Z</time>
      </trkpt>
      <trkpt lat="43.21706667" lon="-4.21485833">
        <ele>460.0</ele>
        <time>2018-05-19T10:20:44.882Z</time>
      </trkpt>
      <trkpt lat="43.21704167" lon="-4.214825">
        <ele>460.0</ele>
        <time>2018-05-19T10:20:45.882Z</time>
      </trkpt>
      <trkpt lat="43.21703" lon="-4.21480667">
        <ele>460.0</ele>
        <time>2018-05-19T10:20:46.859Z</time>
      </trkpt>
      <trkpt lat="43.21701667" lon="-4.21479">
        <ele>460.0</ele>
        <time>2018-05-19T10:20:47.865Z</time>
      </trkpt>
      <trkpt lat="43.217005" lon="-4.214775">
        <ele>460.0</ele>
        <time>2018-05-19T10:20:48.851Z</time>
      </trkpt>
      <trkpt lat="43.217005" lon="-4.214775">
        <ele>460.0</ele>
        <time>2018-05-19T10:20:49.882Z</time>
      </trkpt>
      <trkpt lat="43.21698" lon="-4.21474167">
        <ele>460.0</ele>
        <time>2018-05-19T10:20:50.848Z</time>
      </trkpt>
      <trkpt lat="43.21698" lon="-4.21474167">
        <ele>460.0</ele>
        <time>2018-05-19T10:20:51.883Z</time>
      </trkpt>
      <trkpt lat="43.216955" lon="-4.21471">
        <ele>461.0</ele>
        <time>2018-05-19T10:20:52.882Z</time>
      </trkpt>
      <trkpt lat="43.21694333" lon="-4.21469333">
        <ele>461.0</ele>
        <time>2018-05-19T10:20:53.847Z</time>
      </trkpt>
      <trkpt lat="43.21693" lon="-4.21467167">
        <ele>461.0</ele>
        <time>2018-05-19T10:20:54.848Z</time>
      </trkpt>
      <trkpt lat="43.21693" lon="-4.21467167">
        <ele>461.0</ele>
        <time>2018-05-19T10:20:55.883Z</time>
      </trkpt>
      <trkpt lat="43.216905" lon="-4.21463667">
        <ele>461.0</ele>
        <time>2018-05-19T10:20:56.845Z</time>
      </trkpt>
      <trkpt lat="43.216905" lon="-4.21463667">
        <ele>461.0</ele>
        <time>2018-05-19T10:20:57.877Z</time>
      </trkpt>
      <trkpt lat="43.21687833" lon="-4.21460333">
        <ele>461.0</ele>
        <time>2018-05-19T10:20:58.862Z</time>
      </trkpt>
      <trkpt lat="43.21687833" lon="-4.21460333">
        <ele>461.0</ele>
        <time>2018-05-19T10:20:59.847Z</time>
      </trkpt>
      <trkpt lat="43.21685" lon="-4.21457167">
        <ele>462.0</ele>
        <time>2018-05-19T10:21:00.848Z</time>
      </trkpt>
      <trkpt lat="43.21683833" lon="-4.21455833">
        <ele>462.0</ele>
        <time>2018-05-19T10:21:01.848Z</time>
      </trkpt>
      <trkpt lat="43.21683833" lon="-4.21455833">
        <ele>462.0</ele>
        <time>2018-05-19T10:21:02.882Z</time>
      </trkpt>
      <trkpt lat="43.21681667" lon="-4.21452833">
        <ele>463.0</ele>
        <time>2018-05-19T10:21:03.882Z</time>
      </trkpt>
      <trkpt lat="43.21680333" lon="-4.21451333">
        <ele>463.0</ele>
        <time>2018-05-19T10:21:04.883Z</time>
      </trkpt>
      <trkpt lat="43.21680333" lon="-4.21451333">
        <ele>463.0</ele>
        <time>2018-05-19T10:21:05.882Z</time>
      </trkpt>
      <trkpt lat="43.21678" lon="-4.21448167">
        <ele>463.0</ele>
        <time>2018-05-19T10:21:06.845Z</time>
      </trkpt>
      <trkpt lat="43.21678" lon="-4.21448167">
        <ele>463.0</ele>
        <time>2018-05-19T10:21:07.877Z</time>
      </trkpt>
      <trkpt lat="43.21675667" lon="-4.21445">
        <ele>464.0</ele>
        <time>2018-05-19T10:21:08.862Z</time>
      </trkpt>
      <trkpt lat="43.21675667" lon="-4.21445">
        <ele>464.0</ele>
        <time>2018-05-19T10:21:09.847Z</time>
      </trkpt>
      <trkpt lat="43.21673833" lon="-4.21442">
        <ele>464.0</ele>
        <time>2018-05-19T10:21:10.859Z</time>
      </trkpt>
      <trkpt lat="43.21673833" lon="-4.21442">
        <ele>464.0</ele>
        <time>2018-05-19T10:21:11.844Z</time>
      </trkpt>
      <trkpt lat="43.21671167" lon="-4.21439167">
        <ele>464.0</ele>
        <time>2018-05-19T10:21:12.844Z</time>
      </trkpt>
      <trkpt lat="43.21671167" lon="-4.21439167">
        <ele>464.0</ele>
        <time>2018-05-19T10:21:13.883Z</time>
      </trkpt>
      <trkpt lat="43.21669167" lon="-4.21436167">
        <ele>464.0</ele>
        <time>2018-05-19T10:21:14.845Z</time>
      </trkpt>
      <trkpt lat="43.21669167" lon="-4.21436167">
        <ele>464.0</ele>
        <time>2018-05-19T10:21:15.882Z</time>
      </trkpt>
      <trkpt lat="43.21667" lon="-4.21432833">
        <ele>465.0</ele>
        <time>2018-05-19T10:21:16.848Z</time>
      </trkpt>
      <trkpt lat="43.21667" lon="-4.21432833">
        <ele>465.0</ele>
        <time>2018-05-19T10:21:17.882Z</time>
      </trkpt>
      <trkpt lat="43.21664667" lon="-4.21430167">
        <ele>466.0</ele>
        <time>2018-05-19T10:21:18.872Z</time>
      </trkpt>
      <trkpt lat="43.21664667" lon="-4.21430167">
        <ele>466.0</ele>
        <time>2018-05-19T10:21:19.860Z</time>
      </trkpt>
      <trkpt lat="43.21661833" lon="-4.21428">
        <ele>466.0</ele>
        <time>2018-05-19T10:21:20.845Z</time>
      </trkpt>
      <trkpt lat="43.21661833" lon="-4.21428">
        <ele>466.0</ele>
        <time>2018-05-19T10:21:21.878Z</time>
      </trkpt>
      <trkpt lat="43.21659333" lon="-4.21425833">
        <ele>467.0</ele>
        <time>2018-05-19T10:21:22.864Z</time>
      </trkpt>
      <trkpt lat="43.21659333" lon="-4.21425833">
        <ele>467.0</ele>
        <time>2018-05-19T10:21:23.850Z</time>
      </trkpt>
      <trkpt lat="43.21656167" lon="-4.21423667">
        <ele>467.0</ele>
        <time>2018-05-19T10:21:24.848Z</time>
      </trkpt>
      <trkpt lat="43.21656167" lon="-4.21423667">
        <ele>467.0</ele>
        <time>2018-05-19T10:21:25.882Z</time>
      </trkpt>
      <trkpt lat="43.216515" lon="-4.21420833">
        <ele>468.0</ele>
        <time>2018-05-19T10:21:26.845Z</time>
      </trkpt>
      <trkpt lat="43.216515" lon="-4.21420833">
        <ele>468.0</ele>
        <time>2018-05-19T10:21:27.878Z</time>
      </trkpt>
      <trkpt lat="43.21647167" lon="-4.21417667">
        <ele>468.0</ele>
        <time>2018-05-19T10:21:28.864Z</time>
      </trkpt>
      <trkpt lat="43.21647167" lon="-4.21417667">
        <ele>468.0</ele>
        <time>2018-05-19T10:21:29.847Z</time>
      </trkpt>
      <trkpt lat="43.21642833" lon="-4.21416333">
        <ele>469.0</ele>
        <time>2018-05-19T10:21:30.847Z</time>
      </trkpt>
      <trkpt lat="43.21640667" lon="-4.214155">
        <ele>469.0</ele>
        <time>2018-05-19T10:21:31.847Z</time>
      </trkpt>
      <trkpt lat="43.216385" lon="-4.21414833">
        <ele>469.0</ele>
        <time>2018-05-19T10:21:32.848Z</time>
      </trkpt>
      <trkpt lat="43.216385" lon="-4.21414833">
        <ele>469.0</ele>
        <time>2018-05-19T10:21:33.846Z</time>
      </trkpt>
      <trkpt lat="43.21634333" lon="-4.21413167">
        <ele>469.0</ele>
        <time>2018-05-19T10:21:34.845Z</time>
      </trkpt>
      <trkpt lat="43.21634333" lon="-4.21413167">
        <ele>469.0</ele>
        <time>2018-05-19T10:21:35.879Z</time>
      </trkpt>
      <trkpt lat="43.21630333" lon="-4.214125">
        <ele>470.0</ele>
        <time>2018-05-19T10:21:36.864Z</time>
      </trkpt>
      <trkpt lat="43.21630333" lon="-4.214125">
        <ele>470.0</ele>
        <time>2018-05-19T10:21:37.846Z</time>
      </trkpt>
      <trkpt lat="43.216265" lon="-4.21412833">
        <ele>470.0</ele>
        <time>2018-05-19T10:21:38.845Z</time>
      </trkpt>
      <trkpt lat="43.216265" lon="-4.21412833">
        <ele>470.0</ele>
        <time>2018-05-19T10:21:39.884Z</time>
      </trkpt>
      <trkpt lat="43.216225" lon="-4.21411667">
        <ele>471.0</ele>
        <time>2018-05-19T10:21:40.882Z</time>
      </trkpt>
      <trkpt lat="43.216225" lon="-4.21411667">
        <ele>471.0</ele>
        <time>2018-05-19T10:21:41.872Z</time>
      </trkpt>
      <trkpt lat="43.216195" lon="-4.21410167">
        <ele>471.0</ele>
        <time>2018-05-19T10:21:42.859Z</time>
      </trkpt>
      <trkpt lat="43.216195" lon="-4.21410167">
        <ele>471.0</ele>
        <time>2018-05-19T10:21:43.883Z</time>
      </trkpt>
      <trkpt lat="43.21616" lon="-4.21408833">
        <ele>471.0</ele>
        <time>2018-05-19T10:21:44.875Z</time>
      </trkpt>
      <trkpt lat="43.21616" lon="-4.21408833">
        <ele>471.0</ele>
        <time>2018-05-19T10:21:45.882Z</time>
      </trkpt>
      <trkpt lat="43.21612333" lon="-4.214075">
        <ele>472.0</ele>
        <time>2018-05-19T10:21:46.866Z</time>
      </trkpt>
      <trkpt lat="43.21610167" lon="-4.21406667">
        <ele>472.0</ele>
        <time>2018-05-19T10:21:47.873Z</time>
      </trkpt>
      <trkpt lat="43.21608333" lon="-4.21405833">
        <ele>472.0</ele>
        <time>2018-05-19T10:21:48.860Z</time>
      </trkpt>
      <trkpt lat="43.21608333" lon="-4.21405833">
        <ele>472.0</ele>
        <time>2018-05-19T10:21:49.862Z</time>
      </trkpt>
      <trkpt lat="43.21604667" lon="-4.214045">
        <ele>472.0</ele>
        <time>2018-05-19T10:21:50.849Z</time>
      </trkpt>
      <trkpt lat="43.21604667" lon="-4.214045">
        <ele>472.0</ele>
        <time>2018-05-19T10:21:51.877Z</time>
      </trkpt>
      <trkpt lat="43.21601167" lon="-4.214035">
        <ele>473.0</ele>
        <time>2018-05-19T10:21:52.861Z</time>
      </trkpt>
      <trkpt lat="43.21601167" lon="-4.214035">
        <ele>473.0</ele>
        <time>2018-05-19T10:21:53.879Z</time>
      </trkpt>
      <trkpt lat="43.21598333" lon="-4.21402333">
        <ele>473.0</ele>
        <time>2018-05-19T10:21:54.865Z</time>
      </trkpt>
      <trkpt lat="43.21596833" lon="-4.21401667">
        <ele>473.0</ele>
        <time>2018-05-19T10:21:55.868Z</time>
      </trkpt>
      <trkpt lat="43.21596833" lon="-4.21401667">
        <ele>473.0</ele>
        <time>2018-05-19T10:21:56.853Z</time>
      </trkpt>
      <trkpt lat="43.21593167" lon="-4.213995">
        <ele>474.0</ele>
        <time>2018-05-19T10:21:57.882Z</time>
      </trkpt>
      <trkpt lat="43.21591667" lon="-4.21399">
        <ele>474.0</ele>
        <time>2018-05-19T10:21:58.881Z</time>
      </trkpt>
      <trkpt lat="43.21591667" lon="-4.21399">
        <ele>474.0</ele>
        <time>2018-05-19T10:21:59.863Z</time>
      </trkpt>
      <trkpt lat="43.21589333" lon="-4.21398">
        <ele>475.0</ele>
        <time>2018-05-19T10:22:00.864Z</time>
      </trkpt>
      <trkpt lat="43.21589333" lon="-4.21398">
        <ele>475.0</ele>
        <time>2018-05-19T10:22:01.846Z</time>
      </trkpt>
      <trkpt lat="43.21586833" lon="-4.21397">
        <ele>475.0</ele>
        <time>2018-05-19T10:22:02.879Z</time>
      </trkpt>
      <trkpt lat="43.21586833" lon="-4.21397">
        <ele>475.0</ele>
        <time>2018-05-19T10:22:03.876Z</time>
      </trkpt>
      <trkpt lat="43.21583167" lon="-4.21396333">
        <ele>476.0</ele>
        <time>2018-05-19T10:22:04.861Z</time>
      </trkpt>
      <trkpt lat="43.21583167" lon="-4.21396333">
        <ele>476.0</ele>
        <time>2018-05-19T10:22:05.851Z</time>
      </trkpt>
      <trkpt lat="43.21580167" lon="-4.21396667">
        <ele>478.0</ele>
        <time>2018-05-19T10:22:06.847Z</time>
      </trkpt>
      <trkpt lat="43.21580167" lon="-4.21396667">
        <ele>478.0</ele>
        <time>2018-05-19T10:22:07.877Z</time>
      </trkpt>
      <trkpt lat="43.21577667" lon="-4.21396333">
        <ele>478.0</ele>
        <time>2018-05-19T10:22:08.863Z</time>
      </trkpt>
      <trkpt lat="43.21576" lon="-4.21396">
        <ele>479.0</ele>
        <time>2018-05-19T10:22:09.849Z</time>
      </trkpt>
      <trkpt lat="43.21576" lon="-4.21396">
        <ele>479.0</ele>
        <time>2018-05-19T10:22:10.846Z</time>
      </trkpt>
      <trkpt lat="43.21572833" lon="-4.21394833">
        <ele>479.0</ele>
        <time>2018-05-19T10:22:11.846Z</time>
      </trkpt>
      <trkpt lat="43.21572833" lon="-4.21394833">
        <ele>479.0</ele>
        <time>2018-05-19T10:22:12.877Z</time>
      </trkpt>
      <trkpt lat="43.21569" lon="-4.21394167">
        <ele>480.0</ele>
        <time>2018-05-19T10:22:13.865Z</time>
      </trkpt>
      <trkpt lat="43.21567167" lon="-4.21393667">
        <ele>480.0</ele>
        <time>2018-05-19T10:22:14.849Z</time>
      </trkpt>
      <trkpt lat="43.21567167" lon="-4.21393667">
        <ele>480.0</ele>
        <time>2018-05-19T10:22:15.877Z</time>
      </trkpt>
      <trkpt lat="43.21564" lon="-4.21393833">
        <ele>481.0</ele>
        <time>2018-05-19T10:22:16.861Z</time>
      </trkpt>
      <trkpt lat="43.21564" lon="-4.21393833">
        <ele>481.0</ele>
        <time>2018-05-19T10:22:17.884Z</time>
      </trkpt>
      <trkpt lat="43.21560333" lon="-4.21392333">
        <ele>482.0</ele>
        <time>2018-05-19T10:22:18.868Z</time>
      </trkpt>
      <trkpt lat="43.21560333" lon="-4.21392333">
        <ele>482.0</ele>
        <time>2018-05-19T10:22:19.854Z</time>
      </trkpt>
      <trkpt lat="43.21557333" lon="-4.213915">
        <ele>483.0</ele>
        <time>2018-05-19T10:22:20.847Z</time>
      </trkpt>
      <trkpt lat="43.21557333" lon="-4.213915">
        <ele>483.0</ele>
        <time>2018-05-19T10:22:21.844Z</time>
      </trkpt>
      <trkpt lat="43.21553333" lon="-4.21390167">
        <ele>483.0</ele>
        <time>2018-05-19T10:22:22.846Z</time>
      </trkpt>
      <trkpt lat="43.21553333" lon="-4.21390167">
        <ele>483.0</ele>
        <time>2018-05-19T10:22:23.880Z</time>
      </trkpt>
      <trkpt lat="43.21549333" lon="-4.21389833">
        <ele>484.0</ele>
        <time>2018-05-19T10:22:24.848Z</time>
      </trkpt>
      <trkpt lat="43.21549333" lon="-4.21389833">
        <ele>484.0</ele>
        <time>2018-05-19T10:22:25.855Z</time>
      </trkpt>
      <trkpt lat="43.215455" lon="-4.21389167">
        <ele>484.0</ele>
        <time>2018-05-19T10:22:26.848Z</time>
      </trkpt>
      <trkpt lat="43.215455" lon="-4.21389167">
        <ele>484.0</ele>
        <time>2018-05-19T10:22:27.844Z</time>
      </trkpt>
      <trkpt lat="43.21540333" lon="-4.21388833">
        <ele>484.0</ele>
        <time>2018-05-19T10:22:28.847Z</time>
      </trkpt>
      <trkpt lat="43.21540333" lon="-4.21388833">
        <ele>484.0</ele>
        <time>2018-05-19T10:22:29.878Z</time>
      </trkpt>
      <trkpt lat="43.21536167" lon="-4.21387833">
        <ele>485.0</ele>
        <time>2018-05-19T10:22:30.863Z</time>
      </trkpt>
      <trkpt lat="43.21536167" lon="-4.21387833">
        <ele>485.0</ele>
        <time>2018-05-19T10:22:31.849Z</time>
      </trkpt>
      <trkpt lat="43.21532833" lon="-4.21387667">
        <ele>485.0</ele>
        <time>2018-05-19T10:22:32.845Z</time>
      </trkpt>
      <trkpt lat="43.21532833" lon="-4.21387667">
        <ele>485.0</ele>
        <time>2018-05-19T10:22:33.877Z</time>
      </trkpt>
      <trkpt lat="43.21529833" lon="-4.21387333">
        <ele>486.0</ele>
        <time>2018-05-19T10:22:34.863Z</time>
      </trkpt>
      <trkpt lat="43.21529833" lon="-4.21387333">
        <ele>486.0</ele>
        <time>2018-05-19T10:22:35.849Z</time>
      </trkpt>
      <trkpt lat="43.21526333" lon="-4.21386667">
        <ele>486.0</ele>
        <time>2018-05-19T10:22:36.847Z</time>
      </trkpt>
      <trkpt lat="43.21526333" lon="-4.21386667">
        <ele>486.0</ele>
        <time>2018-05-19T10:22:37.877Z</time>
      </trkpt>
      <trkpt lat="43.21522833" lon="-4.21385667">
        <ele>487.0</ele>
        <time>2018-05-19T10:22:38.862Z</time>
      </trkpt>
      <trkpt lat="43.21522833" lon="-4.21385667">
        <ele>487.0</ele>
        <time>2018-05-19T10:22:39.847Z</time>
      </trkpt>
      <trkpt lat="43.215195" lon="-4.21385">
        <ele>487.0</ele>
        <time>2018-05-19T10:22:40.878Z</time>
      </trkpt>
      <trkpt lat="43.21518333" lon="-4.21384667">
        <ele>487.0</ele>
        <time>2018-05-19T10:22:41.846Z</time>
      </trkpt>
      <trkpt lat="43.21516833" lon="-4.21384333">
        <ele>487.0</ele>
        <time>2018-05-19T10:22:42.847Z</time>
      </trkpt>
      <trkpt lat="43.21516833" lon="-4.21384333">
        <ele>487.0</ele>
        <time>2018-05-19T10:22:43.883Z</time>
      </trkpt>
      <trkpt lat="43.215135" lon="-4.213835">
        <ele>488.0</ele>
        <time>2018-05-19T10:22:44.879Z</time>
      </trkpt>
      <trkpt lat="43.215135" lon="-4.213835">
        <ele>488.0</ele>
        <time>2018-05-19T10:22:45.848Z</time>
      </trkpt>
      <trkpt lat="43.21510167" lon="-4.213825">
        <ele>488.0</ele>
        <time>2018-05-19T10:22:46.851Z</time>
      </trkpt>
      <trkpt lat="43.21507667" lon="-4.21381833">
        <ele>489.0</ele>
        <time>2018-05-19T10:22:47.858Z</time>
      </trkpt>
      <trkpt lat="43.21507667" lon="-4.21381833">
        <ele>489.0</ele>
        <time>2018-05-19T10:22:48.864Z</time>
      </trkpt>
      <trkpt lat="43.21502333" lon="-4.21380667">
        <ele>489.0</ele>
        <time>2018-05-19T10:22:49.879Z</time>
      </trkpt>
      <trkpt lat="43.21499833" lon="-4.2138">
        <ele>489.0</ele>
        <time>2018-05-19T10:22:50.867Z</time>
      </trkpt>
      <trkpt lat="43.214975" lon="-4.213795">
        <ele>489.0</ele>
        <time>2018-05-19T10:22:51.853Z</time>
      </trkpt>
      <trkpt lat="43.214975" lon="-4.213795">
        <ele>489.0</ele>
        <time>2018-05-19T10:22:52.881Z</time>
      </trkpt>
      <trkpt lat="43.21493667" lon="-4.21378667">
        <ele>489.0</ele>
        <time>2018-05-19T10:22:53.880Z</time>
      </trkpt>
      <trkpt lat="43.21492" lon="-4.21378833">
        <ele>489.0</ele>
        <time>2018-05-19T10:22:54.845Z</time>
      </trkpt>
      <trkpt lat="43.21492" lon="-4.21378833">
        <ele>489.0</ele>
        <time>2018-05-19T10:22:55.876Z</time>
      </trkpt>
      <trkpt lat="43.21488" lon="-4.21378833">
        <ele>490.0</ele>
        <time>2018-05-19T10:22:56.861Z</time>
      </trkpt>
      <trkpt lat="43.21488" lon="-4.21378833">
        <ele>490.0</ele>
        <time>2018-05-19T10:22:57.884Z</time>
      </trkpt>
      <trkpt lat="43.21483667" lon="-4.21378833">
        <ele>490.0</ele>
        <time>2018-05-19T10:22:58.847Z</time>
      </trkpt>
      <trkpt lat="43.21481833" lon="-4.21378667">
        <ele>490.0</ele>
        <time>2018-05-19T10:22:59.844Z</time>
      </trkpt>
      <trkpt lat="43.21481833" lon="-4.21378667">
        <ele>490.0</ele>
        <time>2018-05-19T10:23:00.845Z</time>
      </trkpt>
      <trkpt lat="43.214785" lon="-4.21378167">
        <ele>491.0</ele>
        <time>2018-05-19T10:23:01.883Z</time>
      </trkpt>
      <trkpt lat="43.214765" lon="-4.21377667">
        <ele>491.0</ele>
        <time>2018-05-19T10:23:02.879Z</time>
      </trkpt>
      <trkpt lat="43.214745" lon="-4.21377">
        <ele>491.0</ele>
        <time>2018-05-19T10:23:03.853Z</time>
      </trkpt>
      <trkpt lat="43.214745" lon="-4.21377">
        <ele>491.0</ele>
        <time>2018-05-19T10:23:04.852Z</time>
      </trkpt>
      <trkpt lat="43.21470833" lon="-4.21376333">
        <ele>492.0</ele>
        <time>2018-05-19T10:23:05.846Z</time>
      </trkpt>
      <trkpt lat="43.21469333" lon="-4.213755">
        <ele>492.0</ele>
        <time>2018-05-19T10:23:06.845Z</time>
      </trkpt>
      <trkpt lat="43.21469333" lon="-4.213755">
        <ele>492.0</ele>
        <time>2018-05-19T10:23:07.876Z</time>
      </trkpt>
      <trkpt lat="43.21467667" lon="-4.213715">
        <ele>493.0</ele>
        <time>2018-05-19T10:23:08.861Z</time>
      </trkpt>
      <trkpt lat="43.21467667" lon="-4.213715">
        <ele>493.0</ele>
        <time>2018-05-19T10:23:09.847Z</time>
      </trkpt>
      <trkpt lat="43.21466833" lon="-4.21366">
        <ele>493.0</ele>
        <time>2018-05-19T10:23:10.845Z</time>
      </trkpt>
      <trkpt lat="43.21466833" lon="-4.21366">
        <ele>493.0</ele>
        <time>2018-05-19T10:23:11.877Z</time>
      </trkpt>
      <trkpt lat="43.21467" lon="-4.213605">
        <ele>493.0</ele>
        <time>2018-05-19T10:23:12.862Z</time>
      </trkpt>
      <trkpt lat="43.21467" lon="-4.213605">
        <ele>493.0</ele>
        <time>2018-05-19T10:23:13.844Z</time>
      </trkpt>
      <trkpt lat="43.21467" lon="-4.21354667">
        <ele>494.0</ele>
        <time>2018-05-19T10:23:14.858Z</time>
      </trkpt>
      <trkpt lat="43.21467333" lon="-4.21351667">
        <ele>494.0</ele>
        <time>2018-05-19T10:23:15.847Z</time>
      </trkpt>
      <trkpt lat="43.21467167" lon="-4.21349">
        <ele>494.0</ele>
        <time>2018-05-19T10:23:16.845Z</time>
      </trkpt>
      <trkpt lat="43.21467167" lon="-4.21349">
        <ele>494.0</ele>
        <time>2018-05-19T10:23:17.876Z</time>
      </trkpt>
      <trkpt lat="43.21467167" lon="-4.21343333">
        <ele>494.0</ele>
        <time>2018-05-19T10:23:18.858Z</time>
      </trkpt>
      <trkpt lat="43.21467167" lon="-4.21343333">
        <ele>494.0</ele>
        <time>2018-05-19T10:23:19.844Z</time>
      </trkpt>
      <trkpt lat="43.21466333" lon="-4.21338167">
        <ele>494.0</ele>
        <time>2018-05-19T10:23:20.846Z</time>
      </trkpt>
      <trkpt lat="43.21466333" lon="-4.21338167">
        <ele>494.0</ele>
        <time>2018-05-19T10:23:21.876Z</time>
      </trkpt>
      <trkpt lat="43.21464333" lon="-4.21333833">
        <ele>494.0</ele>
        <time>2018-05-19T10:23:22.860Z</time>
      </trkpt>
      <trkpt lat="43.21464333" lon="-4.21333833">
        <ele>494.0</ele>
        <time>2018-05-19T10:23:23.847Z</time>
      </trkpt>
      <trkpt lat="43.21462333" lon="-4.21329167">
        <ele>494.0</ele>
        <time>2018-05-19T10:23:24.847Z</time>
      </trkpt>
      <trkpt lat="43.21462333" lon="-4.21329167">
        <ele>494.0</ele>
        <time>2018-05-19T10:23:25.882Z</time>
      </trkpt>
      <trkpt lat="43.21459333" lon="-4.21326">
        <ele>494.0</ele>
        <time>2018-05-19T10:23:26.879Z</time>
      </trkpt>
      <trkpt lat="43.21459333" lon="-4.21326">
        <ele>494.0</ele>
        <time>2018-05-19T10:23:27.876Z</time>
      </trkpt>
      <trkpt lat="43.21455833" lon="-4.21323667">
        <ele>494.0</ele>
        <time>2018-05-19T10:23:28.861Z</time>
      </trkpt>
      <trkpt lat="43.21453833" lon="-4.21322833">
        <ele>494.0</ele>
        <time>2018-05-19T10:23:29.847Z</time>
      </trkpt>
      <trkpt lat="43.21453833" lon="-4.21322833">
        <ele>494.0</ele>
        <time>2018-05-19T10:23:30.844Z</time>
      </trkpt>
      <trkpt lat="43.21450333" lon="-4.21320667">
        <ele>494.0</ele>
        <time>2018-05-19T10:23:31.879Z</time>
      </trkpt>
      <trkpt lat="43.21450333" lon="-4.21320667">
        <ele>494.0</ele>
        <time>2018-05-19T10:23:32.876Z</time>
      </trkpt>
      <trkpt lat="43.21446833" lon="-4.21318833">
        <ele>493.0</ele>
        <time>2018-05-19T10:23:33.878Z</time>
      </trkpt>
      <trkpt lat="43.21445167" lon="-4.21318">
        <ele>493.0</ele>
        <time>2018-05-19T10:23:34.864Z</time>
      </trkpt>
      <trkpt lat="43.21445167" lon="-4.21318">
        <ele>493.0</ele>
        <time>2018-05-19T10:23:35.849Z</time>
      </trkpt>
      <trkpt lat="43.21442" lon="-4.21317167">
        <ele>493.0</ele>
        <time>2018-05-19T10:23:36.846Z</time>
      </trkpt>
      <trkpt lat="43.21442" lon="-4.21317167">
        <ele>493.0</ele>
        <time>2018-05-19T10:23:37.876Z</time>
      </trkpt>
      <trkpt lat="43.214385" lon="-4.21316333">
        <ele>494.0</ele>
        <time>2018-05-19T10:23:38.862Z</time>
      </trkpt>
      <trkpt lat="43.214385" lon="-4.21316333">
        <ele>494.0</ele>
        <time>2018-05-19T10:23:39.846Z</time>
      </trkpt>
      <trkpt lat="43.214355" lon="-4.21315167">
        <ele>494.0</ele>
        <time>2018-05-19T10:23:40.881Z</time>
      </trkpt>
      <trkpt lat="43.21434167" lon="-4.21314833">
        <ele>494.0</ele>
        <time>2018-05-19T10:23:41.845Z</time>
      </trkpt>
      <trkpt lat="43.21434167" lon="-4.21314833">
        <ele>494.0</ele>
        <time>2018-05-19T10:23:42.878Z</time>
      </trkpt>
      <trkpt lat="43.2143" lon="-4.213135">
        <ele>495.0</ele>
        <time>2018-05-19T10:23:43.882Z</time>
      </trkpt>
      <trkpt lat="43.2143" lon="-4.213135">
        <ele>495.0</ele>
        <time>2018-05-19T10:23:44.875Z</time>
      </trkpt>
      <trkpt lat="43.214255" lon="-4.21312">
        <ele>495.0</ele>
        <time>2018-05-19T10:23:45.875Z</time>
      </trkpt>
      <trkpt lat="43.21423833" lon="-4.21311">
        <ele>496.0</ele>
        <time>2018-05-19T10:23:46.851Z</time>
      </trkpt>
      <trkpt lat="43.21422" lon="-4.21310333">
        <ele>496.0</ele>
        <time>2018-05-19T10:23:47.857Z</time>
      </trkpt>
      <trkpt lat="43.21420167" lon="-4.21309833">
        <ele>496.0</ele>
        <time>2018-05-19T10:23:48.847Z</time>
      </trkpt>
      <trkpt lat="43.21420167" lon="-4.21309833">
        <ele>496.0</ele>
        <time>2018-05-19T10:23:49.876Z</time>
      </trkpt>
      <trkpt lat="43.21416167" lon="-4.21308">
        <ele>497.0</ele>
        <time>2018-05-19T10:23:50.861Z</time>
      </trkpt>
      <trkpt lat="43.21416167" lon="-4.21308">
        <ele>497.0</ele>
        <time>2018-05-19T10:23:51.847Z</time>
      </trkpt>
      <trkpt lat="43.21412667" lon="-4.21306167">
        <ele>497.0</ele>
        <time>2018-05-19T10:23:52.847Z</time>
      </trkpt>
      <trkpt lat="43.21412667" lon="-4.21306167">
        <ele>497.0</ele>
        <time>2018-05-19T10:23:53.883Z</time>
      </trkpt>
      <trkpt lat="43.21409333" lon="-4.21304333">
        <ele>498.0</ele>
        <time>2018-05-19T10:23:54.880Z</time>
      </trkpt>
      <trkpt lat="43.21407" lon="-4.21303667">
        <ele>498.0</ele>
        <time>2018-05-19T10:23:55.879Z</time>
      </trkpt>
      <trkpt lat="43.21407" lon="-4.21303667">
        <ele>498.0</ele>
        <time>2018-05-19T10:23:56.876Z</time>
      </trkpt>
      <trkpt lat="43.21403" lon="-4.213025">
        <ele>498.0</ele>
        <time>2018-05-19T10:23:57.862Z</time>
      </trkpt>
      <trkpt lat="43.21401" lon="-4.21301667">
        <ele>498.0</ele>
        <time>2018-05-19T10:23:58.849Z</time>
      </trkpt>
      <trkpt lat="43.21401" lon="-4.21301667">
        <ele>498.0</ele>
        <time>2018-05-19T10:23:59.877Z</time>
      </trkpt>
      <trkpt lat="43.21398333" lon="-4.21299167">
        <ele>499.0</ele>
        <time>2018-05-19T10:24:00.862Z</time>
      </trkpt>
      <trkpt lat="43.21398333" lon="-4.21299167">
        <ele>499.0</ele>
        <time>2018-05-19T10:24:01.847Z</time>
      </trkpt>
      <trkpt lat="43.21396333" lon="-4.212965">
        <ele>499.0</ele>
        <time>2018-05-19T10:24:02.844Z</time>
      </trkpt>
      <trkpt lat="43.21396333" lon="-4.212965">
        <ele>499.0</ele>
        <time>2018-05-19T10:24:03.877Z</time>
      </trkpt>
      <trkpt lat="43.21393333" lon="-4.212945">
        <ele>499.0</ele>
        <time>2018-05-19T10:24:04.864Z</time>
      </trkpt>
      <trkpt lat="43.21391667" lon="-4.21293167">
        <ele>500.0</ele>
        <time>2018-05-19T10:24:05.849Z</time>
      </trkpt>
      <trkpt lat="43.21389167" lon="-4.21292">
        <ele>500.0</ele>
        <time>2018-05-19T10:24:06.846Z</time>
      </trkpt>
      <trkpt lat="43.21389167" lon="-4.21292">
        <ele>500.0</ele>
        <time>2018-05-19T10:24:07.876Z</time>
      </trkpt>
      <trkpt lat="43.21385" lon="-4.21289167">
        <ele>500.0</ele>
        <time>2018-05-19T10:24:08.870Z</time>
      </trkpt>
      <trkpt lat="43.21385" lon="-4.21289167">
        <ele>500.0</ele>
        <time>2018-05-19T10:24:09.862Z</time>
      </trkpt>
      <trkpt lat="43.21380833" lon="-4.21287">
        <ele>500.0</ele>
        <time>2018-05-19T10:24:10.854Z</time>
      </trkpt>
      <trkpt lat="43.21378167" lon="-4.21285667">
        <ele>500.0</ele>
        <time>2018-05-19T10:24:11.846Z</time>
      </trkpt>
      <trkpt lat="43.21378167" lon="-4.21285667">
        <ele>500.0</ele>
        <time>2018-05-19T10:24:12.844Z</time>
      </trkpt>
      <trkpt lat="43.21373833" lon="-4.21284333">
        <ele>501.0</ele>
        <time>2018-05-19T10:24:13.845Z</time>
      </trkpt>
      <trkpt lat="43.21373833" lon="-4.21284333">
        <ele>501.0</ele>
        <time>2018-05-19T10:24:14.876Z</time>
      </trkpt>
      <trkpt lat="43.2137" lon="-4.212845">
        <ele>502.0</ele>
        <time>2018-05-19T10:24:15.846Z</time>
      </trkpt>
      <trkpt lat="43.213685" lon="-4.21285167">
        <ele>502.0</ele>
        <time>2018-05-19T10:24:16.845Z</time>
      </trkpt>
      <trkpt lat="43.213685" lon="-4.21285167">
        <ele>502.0</ele>
        <time>2018-05-19T10:24:17.876Z</time>
      </trkpt>
      <trkpt lat="43.213655" lon="-4.21287167">
        <ele>503.0</ele>
        <time>2018-05-19T10:24:18.878Z</time>
      </trkpt>
      <trkpt lat="43.213655" lon="-4.21287167">
        <ele>503.0</ele>
        <time>2018-05-19T10:24:19.879Z</time>
      </trkpt>
      <trkpt lat="43.213635" lon="-4.21291667">
        <ele>503.0</ele>
        <time>2018-05-19T10:24:20.857Z</time>
      </trkpt>
      <trkpt lat="43.213635" lon="-4.21291667">
        <ele>503.0</ele>
        <time>2018-05-19T10:24:21.883Z</time>
      </trkpt>
      <trkpt lat="43.21362667" lon="-4.21296667">
        <ele>504.0</ele>
        <time>2018-05-19T10:24:22.848Z</time>
      </trkpt>
      <trkpt lat="43.21362667" lon="-4.21296667">
        <ele>504.0</ele>
        <time>2018-05-19T10:24:23.882Z</time>
      </trkpt>
      <trkpt lat="43.21363667" lon="-4.21301667">
        <ele>505.0</ele>
        <time>2018-05-19T10:24:24.881Z</time>
      </trkpt>
      <trkpt lat="43.21363667" lon="-4.21301667">
        <ele>505.0</ele>
        <time>2018-05-19T10:24:25.879Z</time>
      </trkpt>
      <trkpt lat="43.21365167" lon="-4.21306333">
        <ele>505.0</ele>
        <time>2018-05-19T10:24:26.878Z</time>
      </trkpt>
      <trkpt lat="43.21365167" lon="-4.21306333">
        <ele>505.0</ele>
        <time>2018-05-19T10:24:27.874Z</time>
      </trkpt>
      <trkpt lat="43.213675" lon="-4.21309667">
        <ele>506.0</ele>
        <time>2018-05-19T10:24:28.860Z</time>
      </trkpt>
      <trkpt lat="43.213675" lon="-4.21309667">
        <ele>506.0</ele>
        <time>2018-05-19T10:24:29.845Z</time>
      </trkpt>
      <trkpt lat="43.21370167" lon="-4.213145">
        <ele>506.0</ele>
        <time>2018-05-19T10:24:30.847Z</time>
      </trkpt>
      <trkpt lat="43.21370167" lon="-4.213145">
        <ele>506.0</ele>
        <time>2018-05-19T10:24:31.879Z</time>
      </trkpt>
      <trkpt lat="43.21371167" lon="-4.21318833">
        <ele>507.0</ele>
        <time>2018-05-19T10:24:32.879Z</time>
      </trkpt>
      <trkpt lat="43.21371167" lon="-4.21318833">
        <ele>507.0</ele>
        <time>2018-05-19T10:24:33.875Z</time>
      </trkpt>
      <trkpt lat="43.21371833" lon="-4.21323833">
        <ele>508.0</ele>
        <time>2018-05-19T10:24:34.860Z</time>
      </trkpt>
      <trkpt lat="43.21371833" lon="-4.21323833">
        <ele>508.0</ele>
        <time>2018-05-19T10:24:35.883Z</time>
      </trkpt>
      <trkpt lat="43.21372833" lon="-4.21329167">
        <ele>509.0</ele>
        <time>2018-05-19T10:24:36.883Z</time>
      </trkpt>
      <trkpt lat="43.21372833" lon="-4.21329167">
        <ele>509.0</ele>
        <time>2018-05-19T10:24:37.879Z</time>
      </trkpt>
      <trkpt lat="43.21373" lon="-4.213345">
        <ele>509.0</ele>
        <time>2018-05-19T10:24:38.879Z</time>
      </trkpt>
      <trkpt lat="43.21373" lon="-4.213345">
        <ele>509.0</ele>
        <time>2018-05-19T10:24:39.862Z</time>
      </trkpt>
      <trkpt lat="43.21373" lon="-4.21339333">
        <ele>510.0</ele>
        <time>2018-05-19T10:24:40.867Z</time>
      </trkpt>
      <trkpt lat="43.21373" lon="-4.21339333">
        <ele>510.0</ele>
        <time>2018-05-19T10:24:41.851Z</time>
      </trkpt>
      <trkpt lat="43.213725" lon="-4.21345167">
        <ele>511.0</ele>
        <time>2018-05-19T10:24:42.846Z</time>
      </trkpt>
      <trkpt lat="43.213725" lon="-4.21345167">
        <ele>511.0</ele>
        <time>2018-05-19T10:24:43.876Z</time>
      </trkpt>
      <trkpt lat="43.21372" lon="-4.21350167">
        <ele>511.0</ele>
        <time>2018-05-19T10:24:44.860Z</time>
      </trkpt>
      <trkpt lat="43.21372" lon="-4.21350167">
        <ele>511.0</ele>
        <time>2018-05-19T10:24:45.873Z</time>
      </trkpt>
      <trkpt lat="43.21371167" lon="-4.21355167">
        <ele>512.0</ele>
        <time>2018-05-19T10:24:46.868Z</time>
      </trkpt>
      <trkpt lat="43.21370333" lon="-4.213575">
        <ele>512.0</ele>
        <time>2018-05-19T10:24:47.878Z</time>
      </trkpt>
      <trkpt lat="43.21369333" lon="-4.21359833">
        <ele>512.0</ele>
        <time>2018-05-19T10:24:48.844Z</time>
      </trkpt>
      <trkpt lat="43.21369333" lon="-4.21359833">
        <ele>512.0</ele>
        <time>2018-05-19T10:24:49.879Z</time>
      </trkpt>
      <trkpt lat="43.21367" lon="-4.21364167">
        <ele>512.0</ele>
        <time>2018-05-19T10:24:50.878Z</time>
      </trkpt>
      <trkpt lat="43.21367" lon="-4.21364167">
        <ele>512.0</ele>
        <time>2018-05-19T10:24:51.876Z</time>
      </trkpt>
      <trkpt lat="43.21364333" lon="-4.21367833">
        <ele>512.0</ele>
        <time>2018-05-19T10:24:52.861Z</time>
      </trkpt>
      <trkpt lat="43.21364333" lon="-4.21367833">
        <ele>512.0</ele>
        <time>2018-05-19T10:24:53.851Z</time>
      </trkpt>
      <trkpt lat="43.21361833" lon="-4.21371">
        <ele>513.0</ele>
        <time>2018-05-19T10:24:54.851Z</time>
      </trkpt>
      <trkpt lat="43.21361833" lon="-4.21371">
        <ele>513.0</ele>
        <time>2018-05-19T10:24:55.877Z</time>
      </trkpt>
      <trkpt lat="43.21359" lon="-4.21374">
        <ele>513.0</ele>
        <time>2018-05-19T10:24:56.883Z</time>
      </trkpt>
      <trkpt lat="43.21357667" lon="-4.21375333">
        <ele>513.0</ele>
        <time>2018-05-19T10:24:57.879Z</time>
      </trkpt>
      <trkpt lat="43.21357667" lon="-4.21375333">
        <ele>513.0</ele>
        <time>2018-05-19T10:24:58.876Z</time>
      </trkpt>
      <trkpt lat="43.21354833" lon="-4.21377833">
        <ele>513.0</ele>
        <time>2018-05-19T10:24:59.859Z</time>
      </trkpt>
      <trkpt lat="43.21353333" lon="-4.21379167">
        <ele>514.0</ele>
        <time>2018-05-19T10:25:00.847Z</time>
      </trkpt>
      <trkpt lat="43.21353333" lon="-4.21379167">
        <ele>514.0</ele>
        <time>2018-05-19T10:25:01.879Z</time>
      </trkpt>
      <trkpt lat="43.2135" lon="-4.21380833">
        <ele>514.0</ele>
        <time>2018-05-19T10:25:02.883Z</time>
      </trkpt>
      <trkpt lat="43.2135" lon="-4.21380833">
        <ele>514.0</ele>
        <time>2018-05-19T10:25:03.880Z</time>
      </trkpt>
      <trkpt lat="43.21347" lon="-4.21383333">
        <ele>515.0</ele>
        <time>2018-05-19T10:25:04.851Z</time>
      </trkpt>
      <trkpt lat="43.21347" lon="-4.21383333">
        <ele>515.0</ele>
        <time>2018-05-19T10:25:05.879Z</time>
      </trkpt>
      <trkpt lat="43.21344" lon="-4.21386167">
        <ele>515.0</ele>
        <time>2018-05-19T10:25:06.845Z</time>
      </trkpt>
      <trkpt lat="43.21344" lon="-4.21386167">
        <ele>515.0</ele>
        <time>2018-05-19T10:25:07.879Z</time>
      </trkpt>
      <trkpt lat="43.21341167" lon="-4.21388667">
        <ele>515.0</ele>
        <time>2018-05-19T10:25:08.879Z</time>
      </trkpt>
      <trkpt lat="43.21341167" lon="-4.21388667">
        <ele>515.0</ele>
        <time>2018-05-19T10:25:09.878Z</time>
      </trkpt>
      <trkpt lat="43.21338" lon="-4.21391667">
        <ele>515.0</ele>
        <time>2018-05-19T10:25:10.862Z</time>
      </trkpt>
      <trkpt lat="43.21338" lon="-4.21391667">
        <ele>515.0</ele>
        <time>2018-05-19T10:25:11.847Z</time>
      </trkpt>
      <trkpt lat="43.21335667" lon="-4.21395167">
        <ele>516.0</ele>
        <time>2018-05-19T10:25:12.884Z</time>
      </trkpt>
      <trkpt lat="43.21335" lon="-4.213975">
        <ele>516.0</ele>
        <time>2018-05-19T10:25:13.880Z</time>
      </trkpt>
      <trkpt lat="43.21335" lon="-4.213975">
        <ele>516.0</ele>
        <time>2018-05-19T10:25:14.882Z</time>
      </trkpt>
      <trkpt lat="43.21334" lon="-4.21401">
        <ele>517.0</ele>
        <time>2018-05-19T10:25:15.850Z</time>
      </trkpt>
      <trkpt lat="43.213335" lon="-4.21403">
        <ele>517.0</ele>
        <time>2018-05-19T10:25:16.845Z</time>
      </trkpt>
      <trkpt lat="43.213335" lon="-4.21403">
        <ele>517.0</ele>
        <time>2018-05-19T10:25:17.878Z</time>
      </trkpt>
      <trkpt lat="43.21332167" lon="-4.21407167">
        <ele>518.0</ele>
        <time>2018-05-19T10:25:18.871Z</time>
      </trkpt>
      <trkpt lat="43.21331667" lon="-4.21409333">
        <ele>518.0</ele>
        <time>2018-05-19T10:25:19.857Z</time>
      </trkpt>
      <trkpt lat="43.21331667" lon="-4.21409333">
        <ele>518.0</ele>
        <time>2018-05-19T10:25:20.854Z</time>
      </trkpt>
      <trkpt lat="43.213305" lon="-4.21413333">
        <ele>519.0</ele>
        <time>2018-05-19T10:25:21.844Z</time>
      </trkpt>
      <trkpt lat="43.21330167" lon="-4.214155">
        <ele>519.0</ele>
        <time>2018-05-19T10:25:22.845Z</time>
      </trkpt>
      <trkpt lat="43.21330167" lon="-4.214155">
        <ele>519.0</ele>
        <time>2018-05-19T10:25:23.844Z</time>
      </trkpt>
      <trkpt lat="43.21329833" lon="-4.21420167">
        <ele>520.0</ele>
        <time>2018-05-19T10:25:24.850Z</time>
      </trkpt>
      <trkpt lat="43.21329833" lon="-4.21420167">
        <ele>520.0</ele>
        <time>2018-05-19T10:25:25.879Z</time>
      </trkpt>
      <trkpt lat="43.21329167" lon="-4.21423833">
        <ele>520.0</ele>
        <time>2018-05-19T10:25:26.848Z</time>
      </trkpt>
      <trkpt lat="43.21329167" lon="-4.21423833">
        <ele>520.0</ele>
        <time>2018-05-19T10:25:27.881Z</time>
      </trkpt>
      <trkpt lat="43.21328" lon="-4.21428167">
        <ele>521.0</ele>
        <time>2018-05-19T10:25:28.880Z</time>
      </trkpt>
      <trkpt lat="43.21328" lon="-4.21428167">
        <ele>521.0</ele>
        <time>2018-05-19T10:25:29.879Z</time>
      </trkpt>
      <trkpt lat="43.21326167" lon="-4.21432">
        <ele>521.0</ele>
        <time>2018-05-19T10:25:30.848Z</time>
      </trkpt>
      <trkpt lat="43.21326167" lon="-4.21432">
        <ele>521.0</ele>
        <time>2018-05-19T10:25:31.882Z</time>
      </trkpt>
      <trkpt lat="43.21324833" lon="-4.21435667">
        <ele>522.0</ele>
        <time>2018-05-19T10:25:32.879Z</time>
      </trkpt>
      <trkpt lat="43.21324167" lon="-4.21437667">
        <ele>522.0</ele>
        <time>2018-05-19T10:25:33.846Z</time>
      </trkpt>
      <trkpt lat="43.21324167" lon="-4.21437667">
        <ele>522.0</ele>
        <time>2018-05-19T10:25:34.845Z</time>
      </trkpt>
      <trkpt lat="43.21322333" lon="-4.21442">
        <ele>523.0</ele>
        <time>2018-05-19T10:25:35.883Z</time>
      </trkpt>
      <trkpt lat="43.21321333" lon="-4.214445">
        <ele>523.0</ele>
        <time>2018-05-19T10:25:36.879Z</time>
      </trkpt>
      <trkpt lat="43.21321333" lon="-4.214445">
        <ele>523.0</ele>
        <time>2018-05-19T10:25:37.875Z</time>
      </trkpt>
      <trkpt lat="43.21318833" lon="-4.214495">
        <ele>523.0</ele>
        <time>2018-05-19T10:25:38.860Z</time>
      </trkpt>
      <trkpt lat="43.21318" lon="-4.21451833">
        <ele>524.0</ele>
        <time>2018-05-19T10:25:39.846Z</time>
      </trkpt>
      <trkpt lat="43.21318" lon="-4.21451833">
        <ele>524.0</ele>
        <time>2018-05-19T10:25:40.878Z</time>
      </trkpt>
      <trkpt lat="43.21317" lon="-4.214565">
        <ele>524.0</ele>
        <time>2018-05-19T10:25:41.861Z</time>
      </trkpt>
      <trkpt lat="43.21316667" lon="-4.21458667">
        <ele>525.0</ele>
        <time>2018-05-19T10:25:42.846Z</time>
      </trkpt>
      <trkpt lat="43.21316667" lon="-4.21458667">
        <ele>525.0</ele>
        <time>2018-05-19T10:25:43.845Z</time>
      </trkpt>
      <trkpt lat="43.21314667" lon="-4.214635">
        <ele>525.0</ele>
        <time>2018-05-19T10:25:44.850Z</time>
      </trkpt>
      <trkpt lat="43.21314667" lon="-4.214635">
        <ele>525.0</ele>
        <time>2018-05-19T10:25:45.856Z</time>
      </trkpt>
      <trkpt lat="43.21313833" lon="-4.21468333">
        <ele>525.0</ele>
        <time>2018-05-19T10:25:46.868Z</time>
      </trkpt>
      <trkpt lat="43.21313833" lon="-4.21468333">
        <ele>525.0</ele>
        <time>2018-05-19T10:25:47.875Z</time>
      </trkpt>
      <trkpt lat="43.21313167" lon="-4.21473">
        <ele>526.0</ele>
        <time>2018-05-19T10:25:48.881Z</time>
      </trkpt>
      <trkpt lat="43.21313333" lon="-4.21475333">
        <ele>526.0</ele>
        <time>2018-05-19T10:25:49.847Z</time>
      </trkpt>
      <trkpt lat="43.213135" lon="-4.214775">
        <ele>526.0</ele>
        <time>2018-05-19T10:25:50.878Z</time>
      </trkpt>
      <trkpt lat="43.213135" lon="-4.214775">
        <ele>526.0</ele>
        <time>2018-05-19T10:25:51.877Z</time>
      </trkpt>
      <trkpt lat="43.21314167" lon="-4.214815">
        <ele>527.0</ele>
        <time>2018-05-19T10:25:52.879Z</time>
      </trkpt>
      <trkpt lat="43.21314167" lon="-4.214815">
        <ele>527.0</ele>
        <time>2018-05-19T10:25:53.875Z</time>
      </trkpt>
      <trkpt lat="43.21315333" lon="-4.21486167">
        <ele>527.0</ele>
        <time>2018-05-19T10:25:54.855Z</time>
      </trkpt>
      <trkpt lat="43.21315333" lon="-4.21486167">
        <ele>527.0</ele>
        <time>2018-05-19T10:25:55.881Z</time>
      </trkpt>
      <trkpt lat="43.21317333" lon="-4.21489667">
        <ele>528.0</ele>
        <time>2018-05-19T10:25:56.879Z</time>
      </trkpt>
      <trkpt lat="43.21317333" lon="-4.21489667">
        <ele>528.0</ele>
        <time>2018-05-19T10:25:57.879Z</time>
      </trkpt>
      <trkpt lat="43.213185" lon="-4.214935">
        <ele>528.0</ele>
        <time>2018-05-19T10:25:58.879Z</time>
      </trkpt>
      <trkpt lat="43.213185" lon="-4.214935">
        <ele>528.0</ele>
        <time>2018-05-19T10:25:59.860Z</time>
      </trkpt>
      <trkpt lat="43.21320333" lon="-4.21497">
        <ele>529.0</ele>
        <time>2018-05-19T10:26:00.845Z</time>
      </trkpt>
      <trkpt lat="43.21320333" lon="-4.21497">
        <ele>529.0</ele>
        <time>2018-05-19T10:26:01.880Z</time>
      </trkpt>
      <trkpt lat="43.21322333" lon="-4.21500333">
        <ele>530.0</ele>
        <time>2018-05-19T10:26:02.878Z</time>
      </trkpt>
      <trkpt lat="43.21322333" lon="-4.21500333">
        <ele>530.0</ele>
        <time>2018-05-19T10:26:03.847Z</time>
      </trkpt>
      <trkpt lat="43.21324833" lon="-4.21501667">
        <ele>530.0</ele>
        <time>2018-05-19T10:26:04.844Z</time>
      </trkpt>
      <trkpt lat="43.21324833" lon="-4.21501667">
        <ele>530.0</ele>
        <time>2018-05-19T10:26:05.876Z</time>
      </trkpt>
      <trkpt lat="43.21328333" lon="-4.215035">
        <ele>531.0</ele>
        <time>2018-05-19T10:26:06.861Z</time>
      </trkpt>
      <trkpt lat="43.21328333" lon="-4.215035">
        <ele>531.0</ele>
        <time>2018-05-19T10:26:07.883Z</time>
      </trkpt>
      <trkpt lat="43.21331" lon="-4.21504167">
        <ele>532.0</ele>
        <time>2018-05-19T10:26:08.882Z</time>
      </trkpt>
      <trkpt lat="43.21332167" lon="-4.21504667">
        <ele>533.0</ele>
        <time>2018-05-19T10:26:09.877Z</time>
      </trkpt>
      <trkpt lat="43.21332167" lon="-4.21504667">
        <ele>533.0</ele>
        <time>2018-05-19T10:26:10.862Z</time>
      </trkpt>
      <trkpt lat="43.213355" lon="-4.21505667">
        <ele>534.0</ele>
        <time>2018-05-19T10:26:11.846Z</time>
      </trkpt>
      <trkpt lat="43.21337333" lon="-4.21506167">
        <ele>534.0</ele>
        <time>2018-05-19T10:26:12.845Z</time>
      </trkpt>
      <trkpt lat="43.21337333" lon="-4.21506167">
        <ele>534.0</ele>
        <time>2018-05-19T10:26:13.882Z</time>
      </trkpt>
      <trkpt lat="43.21341167" lon="-4.21507833">
        <ele>535.0</ele>
        <time>2018-05-19T10:26:14.877Z</time>
      </trkpt>
      <trkpt lat="43.21341167" lon="-4.21507833">
        <ele>535.0</ele>
        <time>2018-05-19T10:26:15.879Z</time>
      </trkpt>
      <trkpt lat="43.21344833" lon="-4.21511167">
        <ele>536.0</ele>
        <time>2018-05-19T10:26:16.879Z</time>
      </trkpt>
      <trkpt lat="43.21344833" lon="-4.21511167">
        <ele>536.0</ele>
        <time>2018-05-19T10:26:17.879Z</time>
      </trkpt>
      <trkpt lat="43.21349167" lon="-4.215135">
        <ele>536.0</ele>
        <time>2018-05-19T10:26:18.881Z</time>
      </trkpt>
      <trkpt lat="43.21349167" lon="-4.215135">
        <ele>536.0</ele>
        <time>2018-05-19T10:26:19.876Z</time>
      </trkpt>
      <trkpt lat="43.21353167" lon="-4.21516333">
        <ele>536.0</ele>
        <time>2018-05-19T10:26:20.871Z</time>
      </trkpt>
      <trkpt lat="43.21353167" lon="-4.21516333">
        <ele>536.0</ele>
        <time>2018-05-19T10:26:21.853Z</time>
      </trkpt>
      <trkpt lat="43.21357333" lon="-4.21519667">
        <ele>536.0</ele>
        <time>2018-05-19T10:26:22.879Z</time>
      </trkpt>
      <trkpt lat="43.21357333" lon="-4.21519667">
        <ele>536.0</ele>
        <time>2018-05-19T10:26:23.875Z</time>
      </trkpt>
      <trkpt lat="43.21360333" lon="-4.21524">
        <ele>536.0</ele>
        <time>2018-05-19T10:26:24.859Z</time>
      </trkpt>
      <trkpt lat="43.21360333" lon="-4.21524">
        <ele>536.0</ele>
        <time>2018-05-19T10:26:25.848Z</time>
      </trkpt>
      <trkpt lat="43.213625" lon="-4.21528333">
        <ele>536.0</ele>
        <time>2018-05-19T10:26:26.882Z</time>
      </trkpt>
      <trkpt lat="43.213625" lon="-4.21528333">
        <ele>536.0</ele>
        <time>2018-05-19T10:26:27.879Z</time>
      </trkpt>
      <trkpt lat="43.21364167" lon="-4.21532667">
        <ele>536.0</ele>
        <time>2018-05-19T10:26:28.861Z</time>
      </trkpt>
      <trkpt lat="43.21364167" lon="-4.21532667">
        <ele>536.0</ele>
        <time>2018-05-19T10:26:29.883Z</time>
      </trkpt>
      <trkpt lat="43.21365667" lon="-4.21536333">
        <ele>536.0</ele>
        <time>2018-05-19T10:26:30.875Z</time>
      </trkpt>
      <trkpt lat="43.21365667" lon="-4.21536333">
        <ele>536.0</ele>
        <time>2018-05-19T10:26:31.862Z</time>
      </trkpt>
      <trkpt lat="43.21367833" lon="-4.21541">
        <ele>537.0</ele>
        <time>2018-05-19T10:26:32.848Z</time>
      </trkpt>
      <trkpt lat="43.21367833" lon="-4.21541">
        <ele>537.0</ele>
        <time>2018-05-19T10:26:33.876Z</time>
      </trkpt>
      <trkpt lat="43.213695" lon="-4.21545667">
        <ele>537.0</ele>
        <time>2018-05-19T10:26:34.859Z</time>
      </trkpt>
      <trkpt lat="43.213695" lon="-4.21545667">
        <ele>537.0</ele>
        <time>2018-05-19T10:26:35.845Z</time>
      </trkpt>
      <trkpt lat="43.213715" lon="-4.21550167">
        <ele>538.0</ele>
        <time>2018-05-19T10:26:36.844Z</time>
      </trkpt>
      <trkpt lat="43.213715" lon="-4.21550167">
        <ele>538.0</ele>
        <time>2018-05-19T10:26:37.883Z</time>
      </trkpt>
      <trkpt lat="43.21373833" lon="-4.21554667">
        <ele>538.0</ele>
        <time>2018-05-19T10:26:38.845Z</time>
      </trkpt>
      <trkpt lat="43.21373833" lon="-4.21554667">
        <ele>538.0</ele>
        <time>2018-05-19T10:26:39.883Z</time>
      </trkpt>
      <trkpt lat="43.213755" lon="-4.21559667">
        <ele>538.0</ele>
        <time>2018-05-19T10:26:40.880Z</time>
      </trkpt>
      <trkpt lat="43.213755" lon="-4.21559667">
        <ele>538.0</ele>
        <time>2018-05-19T10:26:41.877Z</time>
      </trkpt>
      <trkpt lat="43.21377" lon="-4.215645">
        <ele>538.0</ele>
        <time>2018-05-19T10:26:42.862Z</time>
      </trkpt>
      <trkpt lat="43.21377" lon="-4.215645">
        <ele>538.0</ele>
        <time>2018-05-19T10:26:43.846Z</time>
      </trkpt>
      <trkpt lat="43.21379" lon="-4.215685">
        <ele>537.0</ele>
        <time>2018-05-19T10:26:44.882Z</time>
      </trkpt>
      <trkpt lat="43.21379" lon="-4.215685">
        <ele>537.0</ele>
        <time>2018-05-19T10:26:45.871Z</time>
      </trkpt>
      <trkpt lat="43.21379167" lon="-4.215725">
        <ele>537.0</ele>
        <time>2018-05-19T10:26:46.882Z</time>
      </trkpt>
      <trkpt lat="43.21379" lon="-4.21574833">
        <ele>537.0</ele>
        <time>2018-05-19T10:26:47.848Z</time>
      </trkpt>
      <trkpt lat="43.21379" lon="-4.21574833">
        <ele>537.0</ele>
        <time>2018-05-19T10:26:48.854Z</time>
      </trkpt>
      <trkpt lat="43.21378667" lon="-4.215795">
        <ele>538.0</ele>
        <time>2018-05-19T10:26:49.845Z</time>
      </trkpt>
      <trkpt lat="43.21378667" lon="-4.215795">
        <ele>538.0</ele>
        <time>2018-05-19T10:26:50.879Z</time>
      </trkpt>
      <trkpt lat="43.21378" lon="-4.21585333">
        <ele>538.0</ele>
        <time>2018-05-19T10:26:51.881Z</time>
      </trkpt>
      <trkpt lat="43.21377667" lon="-4.21588">
        <ele>539.0</ele>
        <time>2018-05-19T10:26:52.844Z</time>
      </trkpt>
      <trkpt lat="43.21377667" lon="-4.21588">
        <ele>539.0</ele>
        <time>2018-05-19T10:26:53.880Z</time>
      </trkpt>
      <trkpt lat="43.21377" lon="-4.215935">
        <ele>539.0</ele>
        <time>2018-05-19T10:26:54.877Z</time>
      </trkpt>
      <trkpt lat="43.21377" lon="-4.215935">
        <ele>539.0</ele>
        <time>2018-05-19T10:26:55.878Z</time>
      </trkpt>
      <trkpt lat="43.21375667" lon="-4.21598833">
        <ele>539.0</ele>
        <time>2018-05-19T10:26:56.878Z</time>
      </trkpt>
      <trkpt lat="43.21375667" lon="-4.21598833">
        <ele>539.0</ele>
        <time>2018-05-19T10:26:57.879Z</time>
      </trkpt>
      <trkpt lat="43.21374333" lon="-4.21603833">
        <ele>539.0</ele>
        <time>2018-05-19T10:26:58.884Z</time>
      </trkpt>
      <trkpt lat="43.21374333" lon="-4.21603833">
        <ele>539.0</ele>
        <time>2018-05-19T10:26:59.876Z</time>
      </trkpt>
      <trkpt lat="43.21372667" lon="-4.21608833">
        <ele>539.0</ele>
        <time>2018-05-19T10:27:00.862Z</time>
      </trkpt>
      <trkpt lat="43.21372667" lon="-4.21608833">
        <ele>539.0</ele>
        <time>2018-05-19T10:27:01.859Z</time>
      </trkpt>
      <trkpt lat="43.21370667" lon="-4.21613167">
        <ele>539.0</ele>
        <time>2018-05-19T10:27:02.846Z</time>
      </trkpt>
      <trkpt lat="43.21370667" lon="-4.21613167">
        <ele>539.0</ele>
        <time>2018-05-19T10:27:03.876Z</time>
      </trkpt>
      <trkpt lat="43.21368333" lon="-4.21617333">
        <ele>539.0</ele>
        <time>2018-05-19T10:27:04.861Z</time>
      </trkpt>
      <trkpt lat="43.21368333" lon="-4.21617333">
        <ele>539.0</ele>
        <time>2018-05-19T10:27:05.883Z</time>
      </trkpt>
      <trkpt lat="43.21365833" lon="-4.21620833">
        <ele>539.0</ele>
        <time>2018-05-19T10:27:06.878Z</time>
      </trkpt>
      <trkpt lat="43.21365833" lon="-4.21620833">
        <ele>539.0</ele>
        <time>2018-05-19T10:27:07.879Z</time>
      </trkpt>
      <trkpt lat="43.21363" lon="-4.21623833">
        <ele>540.0</ele>
        <time>2018-05-19T10:27:08.882Z</time>
      </trkpt>
      <trkpt lat="43.21363" lon="-4.21623833">
        <ele>540.0</ele>
        <time>2018-05-19T10:27:09.881Z</time>
      </trkpt>
      <trkpt lat="43.21360167" lon="-4.216265">
        <ele>540.0</ele>
        <time>2018-05-19T10:27:10.879Z</time>
      </trkpt>
      <trkpt lat="43.21360167" lon="-4.216265">
        <ele>540.0</ele>
        <time>2018-05-19T10:27:11.860Z</time>
      </trkpt>
      <trkpt lat="43.21356833" lon="-4.21628">
        <ele>541.0</ele>
        <time>2018-05-19T10:27:12.846Z</time>
      </trkpt>
      <trkpt lat="43.21356833" lon="-4.21628">
        <ele>541.0</ele>
        <time>2018-05-19T10:27:13.845Z</time>
      </trkpt>
      <trkpt lat="43.21353333" lon="-4.216295">
        <ele>541.0</ele>
        <time>2018-05-19T10:27:14.882Z</time>
      </trkpt>
      <trkpt lat="43.21353333" lon="-4.216295">
        <ele>541.0</ele>
        <time>2018-05-19T10:27:15.879Z</time>
      </trkpt>
      <trkpt lat="43.21349667" lon="-4.21630833">
        <ele>542.0</ele>
        <time>2018-05-19T10:27:16.882Z</time>
      </trkpt>
      <trkpt lat="43.21347667" lon="-4.21631667">
        <ele>542.0</ele>
        <time>2018-05-19T10:27:17.866Z</time>
      </trkpt>
      <trkpt lat="43.21347667" lon="-4.21631667">
        <ele>542.0</ele>
        <time>2018-05-19T10:27:18.873Z</time>
      </trkpt>
      <trkpt lat="43.21344" lon="-4.216335">
        <ele>542.0</ele>
        <time>2018-05-19T10:27:19.881Z</time>
      </trkpt>
      <trkpt lat="43.21342167" lon="-4.21634167">
        <ele>542.0</ele>
        <time>2018-05-19T10:27:20.847Z</time>
      </trkpt>
      <trkpt lat="43.21342167" lon="-4.21634167">
        <ele>542.0</ele>
        <time>2018-05-19T10:27:21.881Z</time>
      </trkpt>
      <trkpt lat="43.21338333" lon="-4.216355">
        <ele>542.0</ele>
        <time>2018-05-19T10:27:22.879Z</time>
      </trkpt>
      <trkpt lat="43.21338333" lon="-4.216355">
        <ele>542.0</ele>
        <time>2018-05-19T10:27:23.876Z</time>
      </trkpt>
      <trkpt lat="43.21334667" lon="-4.216365">
        <ele>542.0</ele>
        <time>2018-05-19T10:27:24.861Z</time>
      </trkpt>
      <trkpt lat="43.21334667" lon="-4.216365">
        <ele>542.0</ele>
        <time>2018-05-19T10:27:25.852Z</time>
      </trkpt>
      <trkpt lat="43.21331167" lon="-4.216375">
        <ele>542.0</ele>
        <time>2018-05-19T10:27:26.882Z</time>
      </trkpt>
      <trkpt lat="43.21331167" lon="-4.216375">
        <ele>542.0</ele>
        <time>2018-05-19T10:27:27.878Z</time>
      </trkpt>
      <trkpt lat="43.213275" lon="-4.21638">
        <ele>542.0</ele>
        <time>2018-05-19T10:27:28.879Z</time>
      </trkpt>
      <trkpt lat="43.213275" lon="-4.21638">
        <ele>542.0</ele>
        <time>2018-05-19T10:27:29.879Z</time>
      </trkpt>
      <trkpt lat="43.21324167" lon="-4.21639">
        <ele>543.0</ele>
        <time>2018-05-19T10:27:30.867Z</time>
      </trkpt>
      <trkpt lat="43.21324167" lon="-4.21639">
        <ele>543.0</ele>
        <time>2018-05-19T10:27:31.862Z</time>
      </trkpt>
      <trkpt lat="43.21320833" lon="-4.216395">
        <ele>543.0</ele>
        <time>2018-05-19T10:27:32.849Z</time>
      </trkpt>
      <trkpt lat="43.21320833" lon="-4.216395">
        <ele>543.0</ele>
        <time>2018-05-19T10:27:33.876Z</time>
      </trkpt>
      <trkpt lat="43.213175" lon="-4.216405">
        <ele>543.0</ele>
        <time>2018-05-19T10:27:34.858Z</time>
      </trkpt>
      <trkpt lat="43.213175" lon="-4.216405">
        <ele>543.0</ele>
        <time>2018-05-19T10:27:35.881Z</time>
      </trkpt>
      <trkpt lat="43.21314" lon="-4.21640833">
        <ele>543.0</ele>
        <time>2018-05-19T10:27:36.859Z</time>
      </trkpt>
      <trkpt lat="43.21312167" lon="-4.21641167">
        <ele>543.0</ele>
        <time>2018-05-19T10:27:37.845Z</time>
      </trkpt>
      <trkpt lat="43.21312167" lon="-4.21641167">
        <ele>543.0</ele>
        <time>2018-05-19T10:27:38.879Z</time>
      </trkpt>
      <trkpt lat="43.21308833" lon="-4.216415">
        <ele>544.0</ele>
        <time>2018-05-19T10:27:39.885Z</time>
      </trkpt>
      <trkpt lat="43.21307167" lon="-4.216415">
        <ele>544.0</ele>
        <time>2018-05-19T10:27:40.883Z</time>
      </trkpt>
      <trkpt lat="43.21307167" lon="-4.216415">
        <ele>544.0</ele>
        <time>2018-05-19T10:27:41.879Z</time>
      </trkpt>
      <trkpt lat="43.21303667" lon="-4.21641167">
        <ele>544.0</ele>
        <time>2018-05-19T10:27:42.844Z</time>
      </trkpt>
      <trkpt lat="43.21303667" lon="-4.21641167">
        <ele>544.0</ele>
        <time>2018-05-19T10:27:43.882Z</time>
      </trkpt>
      <trkpt lat="43.213005" lon="-4.21641667">
        <ele>544.0</ele>
        <time>2018-05-19T10:27:44.881Z</time>
      </trkpt>
      <trkpt lat="43.213005" lon="-4.21641667">
        <ele>544.0</ele>
        <time>2018-05-19T10:27:45.882Z</time>
      </trkpt>
      <trkpt lat="43.212975" lon="-4.21642167">
        <ele>545.0</ele>
        <time>2018-05-19T10:27:46.860Z</time>
      </trkpt>
      <trkpt lat="43.21295833" lon="-4.21642167">
        <ele>545.0</ele>
        <time>2018-05-19T10:27:47.866Z</time>
      </trkpt>
      <trkpt lat="43.21294333" lon="-4.21642167">
        <ele>545.0</ele>
        <time>2018-05-19T10:27:48.846Z</time>
      </trkpt>
      <trkpt lat="43.21294333" lon="-4.21642167">
        <ele>545.0</ele>
        <time>2018-05-19T10:27:49.844Z</time>
      </trkpt>
      <trkpt lat="43.21291" lon="-4.21643167">
        <ele>545.0</ele>
        <time>2018-05-19T10:27:50.845Z</time>
      </trkpt>
      <trkpt lat="43.212895" lon="-4.216435">
        <ele>545.0</ele>
        <time>2018-05-19T10:27:51.882Z</time>
      </trkpt>
      <trkpt lat="43.21288" lon="-4.21643667">
        <ele>546.0</ele>
        <time>2018-05-19T10:27:52.845Z</time>
      </trkpt>
      <trkpt lat="43.21288" lon="-4.21643667">
        <ele>546.0</ele>
        <time>2018-05-19T10:27:53.879Z</time>
      </trkpt>
      <trkpt lat="43.21284833" lon="-4.216445">
        <ele>546.0</ele>
        <time>2018-05-19T10:27:54.844Z</time>
      </trkpt>
      <trkpt lat="43.21284833" lon="-4.216445">
        <ele>546.0</ele>
        <time>2018-05-19T10:27:55.881Z</time>
      </trkpt>
      <trkpt lat="43.21282" lon="-4.21645">
        <ele>546.0</ele>
        <time>2018-05-19T10:27:56.865Z</time>
      </trkpt>
      <trkpt lat="43.21280667" lon="-4.21645333">
        <ele>546.0</ele>
        <time>2018-05-19T10:27:57.850Z</time>
      </trkpt>
      <trkpt lat="43.21280667" lon="-4.21645333">
        <ele>546.0</ele>
        <time>2018-05-19T10:27:58.880Z</time>
      </trkpt>
      <trkpt lat="43.212775" lon="-4.21646667">
        <ele>546.0</ele>
        <time>2018-05-19T10:27:59.881Z</time>
      </trkpt>
      <trkpt lat="43.21275833" lon="-4.21647167">
        <ele>547.0</ele>
        <time>2018-05-19T10:28:00.884Z</time>
      </trkpt>
      <trkpt lat="43.21275833" lon="-4.21647167">
        <ele>547.0</ele>
        <time>2018-05-19T10:28:01.872Z</time>
      </trkpt>
      <trkpt lat="43.21272833" lon="-4.21647833">
        <ele>547.0</ele>
        <time>2018-05-19T10:28:02.857Z</time>
      </trkpt>
      <trkpt lat="43.21272833" lon="-4.21647833">
        <ele>547.0</ele>
        <time>2018-05-19T10:28:03.882Z</time>
      </trkpt>
      <trkpt lat="43.21269333" lon="-4.21648667">
        <ele>547.0</ele>
        <time>2018-05-19T10:28:04.883Z</time>
      </trkpt>
      <trkpt lat="43.21269333" lon="-4.21648667">
        <ele>547.0</ele>
        <time>2018-05-19T10:28:05.878Z</time>
      </trkpt>
      <trkpt lat="43.21266" lon="-4.2165">
        <ele>548.0</ele>
        <time>2018-05-19T10:28:06.846Z</time>
      </trkpt>
      <trkpt lat="43.21266" lon="-4.2165">
        <ele>548.0</ele>
        <time>2018-05-19T10:28:07.878Z</time>
      </trkpt>
      <trkpt lat="43.21263" lon="-4.21651333">
        <ele>548.0</ele>
        <time>2018-05-19T10:28:08.881Z</time>
      </trkpt>
      <trkpt lat="43.21263" lon="-4.21651333">
        <ele>548.0</ele>
        <time>2018-05-19T10:28:09.881Z</time>
      </trkpt>
      <trkpt lat="43.21259833" lon="-4.21653167">
        <ele>548.0</ele>
        <time>2018-05-19T10:28:10.846Z</time>
      </trkpt>
      <trkpt lat="43.21259833" lon="-4.21653167">
        <ele>548.0</ele>
        <time>2018-05-19T10:28:11.872Z</time>
      </trkpt>
      <trkpt lat="43.21256167" lon="-4.21654">
        <ele>549.0</ele>
        <time>2018-05-19T10:28:12.856Z</time>
      </trkpt>
      <trkpt lat="43.21256167" lon="-4.21654">
        <ele>549.0</ele>
        <time>2018-05-19T10:28:13.879Z</time>
      </trkpt>
      <trkpt lat="43.21252833" lon="-4.21655333">
        <ele>549.0</ele>
        <time>2018-05-19T10:28:14.877Z</time>
      </trkpt>
      <trkpt lat="43.21252833" lon="-4.21655333">
        <ele>549.0</ele>
        <time>2018-05-19T10:28:15.875Z</time>
      </trkpt>
      <trkpt lat="43.212495" lon="-4.21656333">
        <ele>550.0</ele>
        <time>2018-05-19T10:28:16.859Z</time>
      </trkpt>
      <trkpt lat="43.212495" lon="-4.21656333">
        <ele>550.0</ele>
        <time>2018-05-19T10:28:17.860Z</time>
      </trkpt>
      <trkpt lat="43.21246333" lon="-4.21657667">
        <ele>550.0</ele>
        <time>2018-05-19T10:28:18.847Z</time>
      </trkpt>
      <trkpt lat="43.21246333" lon="-4.21657667">
        <ele>550.0</ele>
        <time>2018-05-19T10:28:19.874Z</time>
      </trkpt>
      <trkpt lat="43.21243333" lon="-4.21659">
        <ele>551.0</ele>
        <time>2018-05-19T10:28:20.860Z</time>
      </trkpt>
      <trkpt lat="43.21243333" lon="-4.21659">
        <ele>551.0</ele>
        <time>2018-05-19T10:28:21.883Z</time>
      </trkpt>
      <trkpt lat="43.21240333" lon="-4.216605">
        <ele>551.0</ele>
        <time>2018-05-19T10:28:22.844Z</time>
      </trkpt>
      <trkpt lat="43.21240333" lon="-4.216605">
        <ele>551.0</ele>
        <time>2018-05-19T10:28:23.844Z</time>
      </trkpt>
      <trkpt lat="43.21237" lon="-4.21661167">
        <ele>551.0</ele>
        <time>2018-05-19T10:28:24.882Z</time>
      </trkpt>
      <trkpt lat="43.21237" lon="-4.21661167">
        <ele>551.0</ele>
        <time>2018-05-19T10:28:25.879Z</time>
      </trkpt>
      <trkpt lat="43.21233833" lon="-4.21661167">
        <ele>552.0</ele>
        <time>2018-05-19T10:28:26.881Z</time>
      </trkpt>
      <trkpt lat="43.21233833" lon="-4.21661167">
        <ele>552.0</ele>
        <time>2018-05-19T10:28:27.881Z</time>
      </trkpt>
      <trkpt lat="43.21230333" lon="-4.21662167">
        <ele>552.0</ele>
        <time>2018-05-19T10:28:28.878Z</time>
      </trkpt>
      <trkpt lat="43.21230333" lon="-4.21662167">
        <ele>552.0</ele>
        <time>2018-05-19T10:28:29.861Z</time>
      </trkpt>
      <trkpt lat="43.21227333" lon="-4.21663">
        <ele>553.0</ele>
        <time>2018-05-19T10:28:30.847Z</time>
      </trkpt>
      <trkpt lat="43.21227333" lon="-4.21663">
        <ele>553.0</ele>
        <time>2018-05-19T10:28:31.881Z</time>
      </trkpt>
      <trkpt lat="43.21224" lon="-4.21663333">
        <ele>553.0</ele>
        <time>2018-05-19T10:28:32.844Z</time>
      </trkpt>
      <trkpt lat="43.21222333" lon="-4.216635">
        <ele>553.0</ele>
        <time>2018-05-19T10:28:33.845Z</time>
      </trkpt>
      <trkpt lat="43.21222333" lon="-4.216635">
        <ele>553.0</ele>
        <time>2018-05-19T10:28:34.880Z</time>
      </trkpt>
      <trkpt lat="43.21219167" lon="-4.21664">
        <ele>553.0</ele>
        <time>2018-05-19T10:28:35.845Z</time>
      </trkpt>
      <trkpt lat="43.212175" lon="-4.21664333">
        <ele>553.0</ele>
        <time>2018-05-19T10:28:36.847Z</time>
      </trkpt>
      <trkpt lat="43.212175" lon="-4.21664333">
        <ele>553.0</ele>
        <time>2018-05-19T10:28:37.878Z</time>
      </trkpt>
      <trkpt lat="43.21214167" lon="-4.21665">
        <ele>553.0</ele>
        <time>2018-05-19T10:28:38.881Z</time>
      </trkpt>
      <trkpt lat="43.21214167" lon="-4.21665">
        <ele>553.0</ele>
        <time>2018-05-19T10:28:39.884Z</time>
      </trkpt>
      <trkpt lat="43.21210667" lon="-4.216655">
        <ele>553.0</ele>
        <time>2018-05-19T10:28:40.853Z</time>
      </trkpt>
      <trkpt lat="43.21210667" lon="-4.216655">
        <ele>553.0</ele>
        <time>2018-05-19T10:28:41.881Z</time>
      </trkpt>
      <trkpt lat="43.21207167" lon="-4.21666667">
        <ele>553.0</ele>
        <time>2018-05-19T10:28:42.844Z</time>
      </trkpt>
      <trkpt lat="43.21207167" lon="-4.21666667">
        <ele>553.0</ele>
        <time>2018-05-19T10:28:43.878Z</time>
      </trkpt>
      <trkpt lat="43.212035" lon="-4.21667">
        <ele>554.0</ele>
        <time>2018-05-19T10:28:44.881Z</time>
      </trkpt>
      <trkpt lat="43.212035" lon="-4.21667">
        <ele>554.0</ele>
        <time>2018-05-19T10:28:45.877Z</time>
      </trkpt>
      <trkpt lat="43.21199667" lon="-4.21667333">
        <ele>554.0</ele>
        <time>2018-05-19T10:28:46.868Z</time>
      </trkpt>
      <trkpt lat="43.21198" lon="-4.21667333">
        <ele>554.0</ele>
        <time>2018-05-19T10:28:47.879Z</time>
      </trkpt>
      <trkpt lat="43.21198" lon="-4.21667333">
        <ele>554.0</ele>
        <time>2018-05-19T10:28:48.846Z</time>
      </trkpt>
      <trkpt lat="43.21194667" lon="-4.21667167">
        <ele>554.0</ele>
        <time>2018-05-19T10:28:49.867Z</time>
      </trkpt>
      <trkpt lat="43.21194667" lon="-4.21667167">
        <ele>554.0</ele>
        <time>2018-05-19T10:28:50.852Z</time>
      </trkpt>
      <trkpt lat="43.21191167" lon="-4.21667">
        <ele>554.0</ele>
        <time>2018-05-19T10:28:51.844Z</time>
      </trkpt>
      <trkpt lat="43.21189" lon="-4.21667167">
        <ele>554.0</ele>
        <time>2018-05-19T10:28:52.845Z</time>
      </trkpt>
      <trkpt lat="43.21189" lon="-4.21667167">
        <ele>554.0</ele>
        <time>2018-05-19T10:28:53.875Z</time>
      </trkpt>
      <trkpt lat="43.21185667" lon="-4.21667333">
        <ele>555.0</ele>
        <time>2018-05-19T10:28:54.861Z</time>
      </trkpt>
      <trkpt lat="43.21185667" lon="-4.21667333">
        <ele>555.0</ele>
        <time>2018-05-19T10:28:55.847Z</time>
      </trkpt>
      <trkpt lat="43.21182" lon="-4.21668167">
        <ele>555.0</ele>
        <time>2018-05-19T10:28:56.882Z</time>
      </trkpt>
      <trkpt lat="43.21182" lon="-4.21668167">
        <ele>555.0</ele>
        <time>2018-05-19T10:28:57.881Z</time>
      </trkpt>
      <trkpt lat="43.211785" lon="-4.21668667">
        <ele>556.0</ele>
        <time>2018-05-19T10:28:58.883Z</time>
      </trkpt>
      <trkpt lat="43.211785" lon="-4.21668667">
        <ele>556.0</ele>
        <time>2018-05-19T10:28:59.878Z</time>
      </trkpt>
      <trkpt lat="43.21175333" lon="-4.21669">
        <ele>556.0</ele>
        <time>2018-05-19T10:29:00.878Z</time>
      </trkpt>
      <trkpt lat="43.21175333" lon="-4.21669">
        <ele>556.0</ele>
        <time>2018-05-19T10:29:01.862Z</time>
      </trkpt>
      <trkpt lat="43.21172167" lon="-4.21669">
        <ele>556.0</ele>
        <time>2018-05-19T10:29:02.850Z</time>
      </trkpt>
      <trkpt lat="43.21172167" lon="-4.21669">
        <ele>556.0</ele>
        <time>2018-05-19T10:29:03.876Z</time>
      </trkpt>
      <trkpt lat="43.21168167" lon="-4.21668833">
        <ele>557.0</ele>
        <time>2018-05-19T10:29:04.861Z</time>
      </trkpt>
      <trkpt lat="43.21168167" lon="-4.21668833">
        <ele>557.0</ele>
        <time>2018-05-19T10:29:05.883Z</time>
      </trkpt>
      <trkpt lat="43.211645" lon="-4.21669">
        <ele>557.0</ele>
        <time>2018-05-19T10:29:06.878Z</time>
      </trkpt>
      <trkpt lat="43.211645" lon="-4.21669">
        <ele>557.0</ele>
        <time>2018-05-19T10:29:07.881Z</time>
      </trkpt>
      <trkpt lat="43.21160833" lon="-4.21669167">
        <ele>558.0</ele>
        <time>2018-05-19T10:29:08.881Z</time>
      </trkpt>
      <trkpt lat="43.21159" lon="-4.21669333">
        <ele>558.0</ele>
        <time>2018-05-19T10:29:09.878Z</time>
      </trkpt>
      <trkpt lat="43.21159" lon="-4.21669333">
        <ele>558.0</ele>
        <time>2018-05-19T10:29:10.859Z</time>
      </trkpt>
      <trkpt lat="43.21155167" lon="-4.21669833">
        <ele>558.0</ele>
        <time>2018-05-19T10:29:11.845Z</time>
      </trkpt>
      <trkpt lat="43.21153333" lon="-4.21670167">
        <ele>558.0</ele>
        <time>2018-05-19T10:29:12.846Z</time>
      </trkpt>
      <trkpt lat="43.21153333" lon="-4.21670167">
        <ele>558.0</ele>
        <time>2018-05-19T10:29:13.882Z</time>
      </trkpt>
      <trkpt lat="43.21150167" lon="-4.21671">
        <ele>559.0</ele>
        <time>2018-05-19T10:29:14.844Z</time>
      </trkpt>
      <trkpt lat="43.21150167" lon="-4.21671">
        <ele>559.0</ele>
        <time>2018-05-19T10:29:15.880Z</time>
      </trkpt>
      <trkpt lat="43.21147" lon="-4.21673">
        <ele>559.0</ele>
        <time>2018-05-19T10:29:16.882Z</time>
      </trkpt>
      <trkpt lat="43.21147" lon="-4.21673">
        <ele>559.0</ele>
        <time>2018-05-19T10:29:17.878Z</time>
      </trkpt>
      <trkpt lat="43.21143667" lon="-4.21673667">
        <ele>559.0</ele>
        <time>2018-05-19T10:29:18.852Z</time>
      </trkpt>
      <trkpt lat="43.21142" lon="-4.216745">
        <ele>559.0</ele>
        <time>2018-05-19T10:29:19.844Z</time>
      </trkpt>
      <trkpt lat="43.21142" lon="-4.216745">
        <ele>559.0</ele>
        <time>2018-05-19T10:29:20.881Z</time>
      </trkpt>
      <trkpt lat="43.21138333" lon="-4.21675833">
        <ele>560.0</ele>
        <time>2018-05-19T10:29:21.884Z</time>
      </trkpt>
      <trkpt lat="43.21136833" lon="-4.21676167">
        <ele>560.0</ele>
        <time>2018-05-19T10:29:22.845Z</time>
      </trkpt>
      <trkpt lat="43.21136833" lon="-4.21676167">
        <ele>560.0</ele>
        <time>2018-05-19T10:29:23.880Z</time>
      </trkpt>
      <trkpt lat="43.211335" lon="-4.21678167">
        <ele>560.0</ele>
        <time>2018-05-19T10:29:24.847Z</time>
      </trkpt>
      <trkpt lat="43.211335" lon="-4.21678167">
        <ele>560.0</ele>
        <time>2018-05-19T10:29:25.882Z</time>
      </trkpt>
      <trkpt lat="43.2113" lon="-4.21679167">
        <ele>561.0</ele>
        <time>2018-05-19T10:29:26.881Z</time>
      </trkpt>
      <trkpt lat="43.21128333" lon="-4.2168">
        <ele>561.0</ele>
        <time>2018-05-19T10:29:27.861Z</time>
      </trkpt>
      <trkpt lat="43.21128333" lon="-4.2168">
        <ele>561.0</ele>
        <time>2018-05-19T10:29:28.844Z</time>
      </trkpt>
      <trkpt lat="43.21125333" lon="-4.21681667">
        <ele>561.0</ele>
        <time>2018-05-19T10:29:29.884Z</time>
      </trkpt>
      <trkpt lat="43.21125333" lon="-4.21681667">
        <ele>561.0</ele>
        <time>2018-05-19T10:29:30.869Z</time>
      </trkpt>
      <trkpt lat="43.21122" lon="-4.21683">
        <ele>562.0</ele>
        <time>2018-05-19T10:29:31.862Z</time>
      </trkpt>
      <trkpt lat="43.21122" lon="-4.21683">
        <ele>562.0</ele>
        <time>2018-05-19T10:29:32.846Z</time>
      </trkpt>
      <trkpt lat="43.21118333" lon="-4.21684333">
        <ele>563.0</ele>
        <time>2018-05-19T10:29:33.877Z</time>
      </trkpt>
      <trkpt lat="43.21116833" lon="-4.21685">
        <ele>563.0</ele>
        <time>2018-05-19T10:29:34.862Z</time>
      </trkpt>
      <trkpt lat="43.21116833" lon="-4.21685">
        <ele>563.0</ele>
        <time>2018-05-19T10:29:35.847Z</time>
      </trkpt>
      <trkpt lat="43.21114167" lon="-4.21685833">
        <ele>563.0</ele>
        <time>2018-05-19T10:29:36.849Z</time>
      </trkpt>
      <trkpt lat="43.21114167" lon="-4.21685833">
        <ele>563.0</ele>
        <time>2018-05-19T10:29:37.851Z</time>
      </trkpt>
      <trkpt lat="43.211115" lon="-4.21688833">
        <ele>564.0</ele>
        <time>2018-05-19T10:29:38.857Z</time>
      </trkpt>
      <trkpt lat="43.211115" lon="-4.21688833">
        <ele>564.0</ele>
        <time>2018-05-19T10:29:39.885Z</time>
      </trkpt>
      <trkpt lat="43.21108667" lon="-4.21691">
        <ele>564.0</ele>
        <time>2018-05-19T10:29:40.879Z</time>
      </trkpt>
      <trkpt lat="43.21108667" lon="-4.21691">
        <ele>564.0</ele>
        <time>2018-05-19T10:29:41.878Z</time>
      </trkpt>
      <trkpt lat="43.21105333" lon="-4.21692">
        <ele>565.0</ele>
        <time>2018-05-19T10:29:42.878Z</time>
      </trkpt>
      <trkpt lat="43.21103833" lon="-4.21692333">
        <ele>565.0</ele>
        <time>2018-05-19T10:29:43.852Z</time>
      </trkpt>
      <trkpt lat="43.21103833" lon="-4.21692333">
        <ele>565.0</ele>
        <time>2018-05-19T10:29:44.881Z</time>
      </trkpt>
      <trkpt lat="43.211005" lon="-4.216925">
        <ele>566.0</ele>
        <time>2018-05-19T10:29:45.852Z</time>
      </trkpt>
      <trkpt lat="43.21098833" lon="-4.21692667">
        <ele>566.0</ele>
        <time>2018-05-19T10:29:46.878Z</time>
      </trkpt>
      <trkpt lat="43.21098833" lon="-4.21692667">
        <ele>566.0</ele>
        <time>2018-05-19T10:29:47.848Z</time>
      </trkpt>
      <trkpt lat="43.210955" lon="-4.21694">
        <ele>567.0</ele>
        <time>2018-05-19T10:29:48.855Z</time>
      </trkpt>
      <trkpt lat="43.210955" lon="-4.21694">
        <ele>567.0</ele>
        <time>2018-05-19T10:29:49.882Z</time>
      </trkpt>
      <trkpt lat="43.21092" lon="-4.21694333">
        <ele>568.0</ele>
        <time>2018-05-19T10:29:50.881Z</time>
      </trkpt>
      <trkpt lat="43.21090167" lon="-4.21693833">
        <ele>568.0</ele>
        <time>2018-05-19T10:29:51.877Z</time>
      </trkpt>
      <trkpt lat="43.21090167" lon="-4.21693833">
        <ele>568.0</ele>
        <time>2018-05-19T10:29:52.860Z</time>
      </trkpt>
      <trkpt lat="43.21087167" lon="-4.216925">
        <ele>569.0</ele>
        <time>2018-05-19T10:29:53.852Z</time>
      </trkpt>
      <trkpt lat="43.21085833" lon="-4.21691333">
        <ele>569.0</ele>
        <time>2018-05-19T10:29:54.880Z</time>
      </trkpt>
      <trkpt lat="43.21085833" lon="-4.21691333">
        <ele>569.0</ele>
        <time>2018-05-19T10:29:55.870Z</time>
      </trkpt>
      <trkpt lat="43.21084" lon="-4.21688167">
        <ele>570.0</ele>
        <time>2018-05-19T10:29:56.854Z</time>
      </trkpt>
      <trkpt lat="43.21084" lon="-4.21688167">
        <ele>570.0</ele>
        <time>2018-05-19T10:29:57.852Z</time>
      </trkpt>
      <trkpt lat="43.21083667" lon="-4.21685167">
        <ele>571.0</ele>
        <time>2018-05-19T10:29:58.879Z</time>
      </trkpt>
      <trkpt lat="43.21083667" lon="-4.21685167">
        <ele>571.0</ele>
        <time>2018-05-19T10:29:59.878Z</time>
      </trkpt>
      <trkpt lat="43.21082167" lon="-4.216805">
        <ele>571.0</ele>
        <time>2018-05-19T10:30:00.878Z</time>
      </trkpt>
      <trkpt lat="43.21082167" lon="-4.216805">
        <ele>571.0</ele>
        <time>2018-05-19T10:30:01.862Z</time>
      </trkpt>
      <trkpt lat="43.210815" lon="-4.21675333">
        <ele>572.0</ele>
        <time>2018-05-19T10:30:02.849Z</time>
      </trkpt>
      <trkpt lat="43.210815" lon="-4.21672833">
        <ele>572.0</ele>
        <time>2018-05-19T10:30:03.845Z</time>
      </trkpt>
      <trkpt lat="43.210815" lon="-4.21672833">
        <ele>572.0</ele>
        <time>2018-05-19T10:30:04.879Z</time>
      </trkpt>
      <trkpt lat="43.21081667" lon="-4.21667833">
        <ele>572.0</ele>
        <time>2018-05-19T10:30:05.857Z</time>
      </trkpt>
      <trkpt lat="43.21081833" lon="-4.21665333">
        <ele>572.0</ele>
        <time>2018-05-19T10:30:06.883Z</time>
      </trkpt>
      <trkpt lat="43.21081833" lon="-4.21665333">
        <ele>572.0</ele>
        <time>2018-05-19T10:30:07.882Z</time>
      </trkpt>
      <trkpt lat="43.21082167" lon="-4.21660167">
        <ele>572.0</ele>
        <time>2018-05-19T10:30:08.881Z</time>
      </trkpt>
      <trkpt lat="43.21082167" lon="-4.21660167">
        <ele>572.0</ele>
        <time>2018-05-19T10:30:09.881Z</time>
      </trkpt>
      <trkpt lat="43.21083" lon="-4.21655333">
        <ele>573.0</ele>
        <time>2018-05-19T10:30:10.883Z</time>
      </trkpt>
      <trkpt lat="43.21083" lon="-4.21655333">
        <ele>573.0</ele>
        <time>2018-05-19T10:30:11.880Z</time>
      </trkpt>
      <trkpt lat="43.21084" lon="-4.21650667">
        <ele>573.0</ele>
        <time>2018-05-19T10:30:12.883Z</time>
      </trkpt>
      <trkpt lat="43.21084" lon="-4.21650667">
        <ele>573.0</ele>
        <time>2018-05-19T10:30:13.880Z</time>
      </trkpt>
      <trkpt lat="43.21084667" lon="-4.21646">
        <ele>573.0</ele>
        <time>2018-05-19T10:30:14.883Z</time>
      </trkpt>
      <trkpt lat="43.21084667" lon="-4.21646">
        <ele>573.0</ele>
        <time>2018-05-19T10:30:15.881Z</time>
      </trkpt>
      <trkpt lat="43.21084833" lon="-4.21641333">
        <ele>573.0</ele>
        <time>2018-05-19T10:30:16.883Z</time>
      </trkpt>
      <trkpt lat="43.21084833" lon="-4.21641333">
        <ele>573.0</ele>
        <time>2018-05-19T10:30:17.856Z</time>
      </trkpt>
      <trkpt lat="43.210845" lon="-4.21636667">
        <ele>573.0</ele>
        <time>2018-05-19T10:30:18.848Z</time>
      </trkpt>
      <trkpt lat="43.210845" lon="-4.21636667">
        <ele>573.0</ele>
        <time>2018-05-19T10:30:19.847Z</time>
      </trkpt>
      <trkpt lat="43.21084" lon="-4.21632">
        <ele>573.0</ele>
        <time>2018-05-19T10:30:20.881Z</time>
      </trkpt>
      <trkpt lat="43.21083667" lon="-4.21629667">
        <ele>573.0</ele>
        <time>2018-05-19T10:30:21.882Z</time>
      </trkpt>
      <trkpt lat="43.21083667" lon="-4.21629667">
        <ele>573.0</ele>
        <time>2018-05-19T10:30:22.879Z</time>
      </trkpt>
      <trkpt lat="43.21083" lon="-4.21624833">
        <ele>574.0</ele>
        <time>2018-05-19T10:30:23.881Z</time>
      </trkpt>
      <trkpt lat="43.21083" lon="-4.21624833">
        <ele>574.0</ele>
        <time>2018-05-19T10:30:24.874Z</time>
      </trkpt>
      <trkpt lat="43.21082833" lon="-4.21619667">
        <ele>575.0</ele>
        <time>2018-05-19T10:30:25.876Z</time>
      </trkpt>
      <trkpt lat="43.21082833" lon="-4.21619667">
        <ele>575.0</ele>
        <time>2018-05-19T10:30:26.881Z</time>
      </trkpt>
      <trkpt lat="43.21082833" lon="-4.21614333">
        <ele>575.0</ele>
        <time>2018-05-19T10:30:27.846Z</time>
      </trkpt>
      <trkpt lat="43.210825" lon="-4.21611833">
        <ele>575.0</ele>
        <time>2018-05-19T10:30:28.882Z</time>
      </trkpt>
      <trkpt lat="43.210825" lon="-4.21611833">
        <ele>575.0</ele>
        <time>2018-05-19T10:30:29.877Z</time>
      </trkpt>
      <trkpt lat="43.21082" lon="-4.21606333">
        <ele>575.0</ele>
        <time>2018-05-19T10:30:30.864Z</time>
      </trkpt>
      <trkpt lat="43.21081833" lon="-4.216035">
        <ele>575.0</ele>
        <time>2018-05-19T10:30:31.853Z</time>
      </trkpt>
      <trkpt lat="43.21081833" lon="-4.216035">
        <ele>575.0</ele>
        <time>2018-05-19T10:30:32.878Z</time>
      </trkpt>
      <trkpt lat="43.21081333" lon="-4.21597667">
        <ele>576.0</ele>
        <time>2018-05-19T10:30:33.883Z</time>
      </trkpt>
      <trkpt lat="43.21080667" lon="-4.21594833">
        <ele>576.0</ele>
        <time>2018-05-19T10:30:34.878Z</time>
      </trkpt>
      <trkpt lat="43.21080667" lon="-4.21594833">
        <ele>576.0</ele>
        <time>2018-05-19T10:30:35.882Z</time>
      </trkpt>
      <trkpt lat="43.21079" lon="-4.2159">
        <ele>577.0</ele>
        <time>2018-05-19T10:30:36.877Z</time>
      </trkpt>
      <trkpt lat="43.21079" lon="-4.2159">
        <ele>577.0</ele>
        <time>2018-05-19T10:30:37.881Z</time>
      </trkpt>
      <trkpt lat="43.210775" lon="-4.21585167">
        <ele>577.0</ele>
        <time>2018-05-19T10:30:38.881Z</time>
      </trkpt>
      <trkpt lat="43.21076833" lon="-4.21582833">
        <ele>577.0</ele>
        <time>2018-05-19T10:30:39.884Z</time>
      </trkpt>
      <trkpt lat="43.21076833" lon="-4.21582833">
        <ele>577.0</ele>
        <time>2018-05-19T10:30:40.882Z</time>
      </trkpt>
      <trkpt lat="43.21074667" lon="-4.21578333">
        <ele>578.0</ele>
        <time>2018-05-19T10:30:41.844Z</time>
      </trkpt>
      <trkpt lat="43.210735" lon="-4.21576333">
        <ele>578.0</ele>
        <time>2018-05-19T10:30:42.844Z</time>
      </trkpt>
      <trkpt lat="43.210735" lon="-4.21576333">
        <ele>578.0</ele>
        <time>2018-05-19T10:30:43.875Z</time>
      </trkpt>
      <trkpt lat="43.21071333" lon="-4.21571667">
        <ele>579.0</ele>
        <time>2018-05-19T10:30:44.860Z</time>
      </trkpt>
      <trkpt lat="43.21071333" lon="-4.21571667">
        <ele>579.0</ele>
        <time>2018-05-19T10:30:45.862Z</time>
      </trkpt>
      <trkpt lat="43.21069333" lon="-4.21566833">
        <ele>579.0</ele>
        <time>2018-05-19T10:30:46.845Z</time>
      </trkpt>
      <trkpt lat="43.21068167" lon="-4.215645">
        <ele>579.0</ele>
        <time>2018-05-19T10:30:47.852Z</time>
      </trkpt>
      <trkpt lat="43.21067" lon="-4.21562167">
        <ele>579.0</ele>
        <time>2018-05-19T10:30:48.857Z</time>
      </trkpt>
      <trkpt lat="43.21067" lon="-4.21562167">
        <ele>579.0</ele>
        <time>2018-05-19T10:30:49.883Z</time>
      </trkpt>
      <trkpt lat="43.21065" lon="-4.21558">
        <ele>579.0</ele>
        <time>2018-05-19T10:30:50.882Z</time>
      </trkpt>
      <trkpt lat="43.21065" lon="-4.21558">
        <ele>579.0</ele>
        <time>2018-05-19T10:30:51.879Z</time>
      </trkpt>
      <trkpt lat="43.21063" lon="-4.21553833">
        <ele>580.0</ele>
        <time>2018-05-19T10:30:52.882Z</time>
      </trkpt>
      <trkpt lat="43.21063" lon="-4.21553833">
        <ele>580.0</ele>
        <time>2018-05-19T10:30:53.879Z</time>
      </trkpt>
      <trkpt lat="43.21060667" lon="-4.21550167">
        <ele>580.0</ele>
        <time>2018-05-19T10:30:54.882Z</time>
      </trkpt>
      <trkpt lat="43.21060667" lon="-4.21550167">
        <ele>580.0</ele>
        <time>2018-05-19T10:30:55.881Z</time>
      </trkpt>
      <trkpt lat="43.21058333" lon="-4.21546667">
        <ele>580.0</ele>
        <time>2018-05-19T10:30:56.883Z</time>
      </trkpt>
      <trkpt lat="43.21057167" lon="-4.21545">
        <ele>580.0</ele>
        <time>2018-05-19T10:30:57.851Z</time>
      </trkpt>
      <trkpt lat="43.21057167" lon="-4.21545">
        <ele>580.0</ele>
        <time>2018-05-19T10:30:58.879Z</time>
      </trkpt>
      <trkpt lat="43.21055167" lon="-4.21542">
        <ele>580.0</ele>
        <time>2018-05-19T10:30:59.884Z</time>
      </trkpt>
      <trkpt lat="43.21055167" lon="-4.21542">
        <ele>580.0</ele>
        <time>2018-05-19T10:31:00.862Z</time>
      </trkpt>
      <trkpt lat="43.21052333" lon="-4.21538833">
        <ele>581.0</ele>
        <time>2018-05-19T10:31:01.849Z</time>
      </trkpt>
      <trkpt lat="43.21051333" lon="-4.21537333">
        <ele>581.0</ele>
        <time>2018-05-19T10:31:02.882Z</time>
      </trkpt>
      <trkpt lat="43.21051333" lon="-4.21537333">
        <ele>581.0</ele>
        <time>2018-05-19T10:31:03.874Z</time>
      </trkpt>
      <trkpt lat="43.21049167" lon="-4.215335">
        <ele>582.0</ele>
        <time>2018-05-19T10:31:04.857Z</time>
      </trkpt>
      <trkpt lat="43.21049167" lon="-4.215335">
        <ele>582.0</ele>
        <time>2018-05-19T10:31:05.846Z</time>
      </trkpt>
      <trkpt lat="43.21047" lon="-4.21529333">
        <ele>583.0</ele>
        <time>2018-05-19T10:31:06.882Z</time>
      </trkpt>
      <trkpt lat="43.21047" lon="-4.21529333">
        <ele>583.0</ele>
        <time>2018-05-19T10:31:07.883Z</time>
      </trkpt>
      <trkpt lat="43.21045333" lon="-4.21525833">
        <ele>584.0</ele>
        <time>2018-05-19T10:31:08.883Z</time>
      </trkpt>
      <trkpt lat="43.21045333" lon="-4.21525833">
        <ele>584.0</ele>
        <time>2018-05-19T10:31:09.881Z</time>
      </trkpt>
      <trkpt lat="43.21042667" lon="-4.215225">
        <ele>585.0</ele>
        <time>2018-05-19T10:31:10.882Z</time>
      </trkpt>
      <trkpt lat="43.21042667" lon="-4.215225">
        <ele>585.0</ele>
        <time>2018-05-19T10:31:11.875Z</time>
      </trkpt>
      <trkpt lat="43.210405" lon="-4.21518333">
        <ele>585.0</ele>
        <time>2018-05-19T10:31:12.860Z</time>
      </trkpt>
      <trkpt lat="43.210405" lon="-4.21518333">
        <ele>585.0</ele>
        <time>2018-05-19T10:31:13.846Z</time>
      </trkpt>
      <trkpt lat="43.21038" lon="-4.21514333">
        <ele>585.0</ele>
        <time>2018-05-19T10:31:14.883Z</time>
      </trkpt>
      <trkpt lat="43.21038" lon="-4.21514333">
        <ele>585.0</ele>
        <time>2018-05-19T10:31:15.872Z</time>
      </trkpt>
      <trkpt lat="43.21035667" lon="-4.21509167">
        <ele>585.0</ele>
        <time>2018-05-19T10:31:16.857Z</time>
      </trkpt>
      <trkpt lat="43.21035667" lon="-4.21509167">
        <ele>585.0</ele>
        <time>2018-05-19T10:31:17.848Z</time>
      </trkpt>
      <trkpt lat="43.210335" lon="-4.215055">
        <ele>585.0</ele>
        <time>2018-05-19T10:31:18.844Z</time>
      </trkpt>
      <trkpt lat="43.210335" lon="-4.215055">
        <ele>585.0</ele>
        <time>2018-05-19T10:31:19.877Z</time>
      </trkpt>
      <trkpt lat="43.21032333" lon="-4.21501833">
        <ele>585.0</ele>
        <time>2018-05-19T10:31:20.864Z</time>
      </trkpt>
      <trkpt lat="43.21032333" lon="-4.21501833">
        <ele>585.0</ele>
        <time>2018-05-19T10:31:21.851Z</time>
      </trkpt>
      <trkpt lat="43.21030167" lon="-4.21498833">
        <ele>586.0</ele>
        <time>2018-05-19T10:31:22.882Z</time>
      </trkpt>
      <trkpt lat="43.21030167" lon="-4.21498833">
        <ele>586.0</ele>
        <time>2018-05-19T10:31:23.877Z</time>
      </trkpt>
      <trkpt lat="43.21027333" lon="-4.214965">
        <ele>586.0</ele>
        <time>2018-05-19T10:31:24.881Z</time>
      </trkpt>
      <trkpt lat="43.21027333" lon="-4.214965">
        <ele>586.0</ele>
        <time>2018-05-19T10:31:25.882Z</time>
      </trkpt>
      <trkpt lat="43.21024667" lon="-4.21493833">
        <ele>586.0</ele>
        <time>2018-05-19T10:31:26.844Z</time>
      </trkpt>
      <trkpt lat="43.21024667" lon="-4.21493833">
        <ele>586.0</ele>
        <time>2018-05-19T10:31:27.856Z</time>
      </trkpt>
      <trkpt lat="43.21021833" lon="-4.21491333">
        <ele>586.0</ele>
        <time>2018-05-19T10:31:28.851Z</time>
      </trkpt>
      <trkpt lat="43.21020167" lon="-4.214905">
        <ele>587.0</ele>
        <time>2018-05-19T10:31:29.882Z</time>
      </trkpt>
      <trkpt lat="43.21020167" lon="-4.214905">
        <ele>587.0</ele>
        <time>2018-05-19T10:31:30.876Z</time>
      </trkpt>
      <trkpt lat="43.21017333" lon="-4.21487333">
        <ele>587.0</ele>
        <time>2018-05-19T10:31:31.883Z</time>
      </trkpt>
      <trkpt lat="43.21017333" lon="-4.21487333">
        <ele>587.0</ele>
        <time>2018-05-19T10:31:32.880Z</time>
      </trkpt>
      <trkpt lat="43.21014667" lon="-4.21484">
        <ele>587.0</ele>
        <time>2018-05-19T10:31:33.876Z</time>
      </trkpt>
      <trkpt lat="43.21013167" lon="-4.21483">
        <ele>588.0</ele>
        <time>2018-05-19T10:31:34.849Z</time>
      </trkpt>
      <trkpt lat="43.21013167" lon="-4.21483">
        <ele>588.0</ele>
        <time>2018-05-19T10:31:35.880Z</time>
      </trkpt>
      <trkpt lat="43.21010333" lon="-4.21479833">
        <ele>588.0</ele>
        <time>2018-05-19T10:31:36.845Z</time>
      </trkpt>
      <trkpt lat="43.21010333" lon="-4.21479833">
        <ele>588.0</ele>
        <time>2018-05-19T10:31:37.880Z</time>
      </trkpt>
      <trkpt lat="43.21009167" lon="-4.214765">
        <ele>588.0</ele>
        <time>2018-05-19T10:31:38.861Z</time>
      </trkpt>
      <trkpt lat="43.21008667" lon="-4.21474667">
        <ele>588.0</ele>
        <time>2018-05-19T10:31:39.853Z</time>
      </trkpt>
      <trkpt lat="43.21008667" lon="-4.21474667">
        <ele>588.0</ele>
        <time>2018-05-19T10:31:40.850Z</time>
      </trkpt>
      <trkpt lat="43.21006667" lon="-4.214715">
        <ele>588.0</ele>
        <time>2018-05-19T10:31:41.881Z</time>
      </trkpt>
      <trkpt lat="43.210055" lon="-4.21469833">
        <ele>588.0</ele>
        <time>2018-05-19T10:31:42.882Z</time>
      </trkpt>
      <trkpt lat="43.210055" lon="-4.21469833">
        <ele>588.0</ele>
        <time>2018-05-19T10:31:43.880Z</time>
      </trkpt>
      <trkpt lat="43.21003167" lon="-4.21466667">
        <ele>588.0</ele>
        <time>2018-05-19T10:31:44.896Z</time>
      </trkpt>
      <trkpt lat="43.21003167" lon="-4.21466667">
        <ele>588.0</ele>
        <time>2018-05-19T10:31:45.872Z</time>
      </trkpt>
      <trkpt lat="43.20999667" lon="-4.21463167">
        <ele>588.0</ele>
        <time>2018-05-19T10:31:46.847Z</time>
      </trkpt>
      <trkpt lat="43.20999667" lon="-4.21463167">
        <ele>588.0</ele>
        <time>2018-05-19T10:31:47.854Z</time>
      </trkpt>
      <trkpt lat="43.20996167" lon="-4.21460333">
        <ele>588.0</ele>
        <time>2018-05-19T10:31:48.861Z</time>
      </trkpt>
      <trkpt lat="43.20996167" lon="-4.21460333">
        <ele>588.0</ele>
        <time>2018-05-19T10:31:49.873Z</time>
      </trkpt>
      <trkpt lat="43.20992667" lon="-4.21458">
        <ele>588.0</ele>
        <time>2018-05-19T10:31:50.859Z</time>
      </trkpt>
      <trkpt lat="43.20992667" lon="-4.21458">
        <ele>588.0</ele>
        <time>2018-05-19T10:31:51.853Z</time>
      </trkpt>
      <trkpt lat="43.2099" lon="-4.21455333">
        <ele>588.0</ele>
        <time>2018-05-19T10:31:52.881Z</time>
      </trkpt>
      <trkpt lat="43.2099" lon="-4.21455333">
        <ele>588.0</ele>
        <time>2018-05-19T10:31:53.863Z</time>
      </trkpt>
      <trkpt lat="43.20987667" lon="-4.214525">
        <ele>588.0</ele>
        <time>2018-05-19T10:31:54.847Z</time>
      </trkpt>
      <trkpt lat="43.20987667" lon="-4.214525">
        <ele>588.0</ele>
        <time>2018-05-19T10:31:55.880Z</time>
      </trkpt>
      <trkpt lat="43.20983833" lon="-4.21450167">
        <ele>589.0</ele>
        <time>2018-05-19T10:31:56.883Z</time>
      </trkpt>
      <trkpt lat="43.20982333" lon="-4.214485">
        <ele>589.0</ele>
        <time>2018-05-19T10:31:57.880Z</time>
      </trkpt>
      <trkpt lat="43.20980833" lon="-4.21447167">
        <ele>589.0</ele>
        <time>2018-05-19T10:31:58.878Z</time>
      </trkpt>
      <trkpt lat="43.20980833" lon="-4.21447167">
        <ele>589.0</ele>
        <time>2018-05-19T10:31:59.877Z</time>
      </trkpt>
      <trkpt lat="43.20978" lon="-4.21444667">
        <ele>589.0</ele>
        <time>2018-05-19T10:32:00.878Z</time>
      </trkpt>
      <trkpt lat="43.20978" lon="-4.21444667">
        <ele>589.0</ele>
        <time>2018-05-19T10:32:01.880Z</time>
      </trkpt>
      <trkpt lat="43.20975333" lon="-4.21442833">
        <ele>589.0</ele>
        <time>2018-05-19T10:32:02.875Z</time>
      </trkpt>
      <trkpt lat="43.20974167" lon="-4.21442">
        <ele>589.0</ele>
        <time>2018-05-19T10:32:03.864Z</time>
      </trkpt>
      <trkpt lat="43.20974167" lon="-4.21442">
        <ele>589.0</ele>
        <time>2018-05-19T10:32:04.849Z</time>
      </trkpt>
      <trkpt lat="43.20971333" lon="-4.214395">
        <ele>589.0</ele>
        <time>2018-05-19T10:32:05.882Z</time>
      </trkpt>
      <trkpt lat="43.20969167" lon="-4.21439333">
        <ele>590.0</ele>
        <time>2018-05-19T10:32:06.877Z</time>
      </trkpt>
      <trkpt lat="43.20969167" lon="-4.21439333">
        <ele>590.0</ele>
        <time>2018-05-19T10:32:07.877Z</time>
      </trkpt>
      <trkpt lat="43.20965333" lon="-4.21438667">
        <ele>592.0</ele>
        <time>2018-05-19T10:32:08.883Z</time>
      </trkpt>
      <trkpt lat="43.20965333" lon="-4.21438667">
        <ele>592.0</ele>
        <time>2018-05-19T10:32:09.872Z</time>
      </trkpt>
      <trkpt lat="43.20962" lon="-4.21437167">
        <ele>593.0</ele>
        <time>2018-05-19T10:32:10.860Z</time>
      </trkpt>
      <trkpt lat="43.20962" lon="-4.21437167">
        <ele>593.0</ele>
        <time>2018-05-19T10:32:11.883Z</time>
      </trkpt>
      <trkpt lat="43.209595" lon="-4.21434833">
        <ele>593.0</ele>
        <time>2018-05-19T10:32:12.877Z</time>
      </trkpt>
      <trkpt lat="43.209595" lon="-4.21434833">
        <ele>593.0</ele>
        <time>2018-05-19T10:32:13.880Z</time>
      </trkpt>
      <trkpt lat="43.20956667" lon="-4.21432">
        <ele>594.0</ele>
        <time>2018-05-19T10:32:14.882Z</time>
      </trkpt>
      <trkpt lat="43.20956667" lon="-4.21432">
        <ele>594.0</ele>
        <time>2018-05-19T10:32:15.880Z</time>
      </trkpt>
      <trkpt lat="43.20953833" lon="-4.21429167">
        <ele>594.0</ele>
        <time>2018-05-19T10:32:16.878Z</time>
      </trkpt>
      <trkpt lat="43.20953833" lon="-4.21429167">
        <ele>594.0</ele>
        <time>2018-05-19T10:32:17.880Z</time>
      </trkpt>
      <trkpt lat="43.20951" lon="-4.214245">
        <ele>595.0</ele>
        <time>2018-05-19T10:32:18.845Z</time>
      </trkpt>
      <trkpt lat="43.20951" lon="-4.214245">
        <ele>595.0</ele>
        <time>2018-05-19T10:32:19.880Z</time>
      </trkpt>
      <trkpt lat="43.20949333" lon="-4.21420833">
        <ele>595.0</ele>
        <time>2018-05-19T10:32:20.881Z</time>
      </trkpt>
      <trkpt lat="43.20948" lon="-4.21419167">
        <ele>596.0</ele>
        <time>2018-05-19T10:32:21.882Z</time>
      </trkpt>
      <trkpt lat="43.20948" lon="-4.21419167">
        <ele>596.0</ele>
        <time>2018-05-19T10:32:22.881Z</time>
      </trkpt>
      <trkpt lat="43.20944333" lon="-4.21416167">
        <ele>596.0</ele>
        <time>2018-05-19T10:32:23.876Z</time>
      </trkpt>
      <trkpt lat="43.20944333" lon="-4.21416167">
        <ele>596.0</ele>
        <time>2018-05-19T10:32:24.873Z</time>
      </trkpt>
      <trkpt lat="43.20939833" lon="-4.21414167">
        <ele>597.0</ele>
        <time>2018-05-19T10:32:25.862Z</time>
      </trkpt>
      <trkpt lat="43.20939833" lon="-4.21414167">
        <ele>597.0</ele>
        <time>2018-05-19T10:32:26.847Z</time>
      </trkpt>
      <trkpt lat="43.20936333" lon="-4.21413167">
        <ele>597.0</ele>
        <time>2018-05-19T10:32:27.882Z</time>
      </trkpt>
      <trkpt lat="43.20934833" lon="-4.21412833">
        <ele>598.0</ele>
        <time>2018-05-19T10:32:28.882Z</time>
      </trkpt>
      <trkpt lat="43.20934833" lon="-4.21412833">
        <ele>598.0</ele>
        <time>2018-05-19T10:32:29.880Z</time>
      </trkpt>
      <trkpt lat="43.20931167" lon="-4.214125">
        <ele>599.0</ele>
        <time>2018-05-19T10:32:30.883Z</time>
      </trkpt>
      <trkpt lat="43.20931167" lon="-4.214125">
        <ele>599.0</ele>
        <time>2018-05-19T10:32:31.879Z</time>
      </trkpt>
      <trkpt lat="43.20928" lon="-4.21413667">
        <ele>600.0</ele>
        <time>2018-05-19T10:32:32.880Z</time>
      </trkpt>
      <trkpt lat="43.209265" lon="-4.21415">
        <ele>600.0</ele>
        <time>2018-05-19T10:32:33.844Z</time>
      </trkpt>
      <trkpt lat="43.209265" lon="-4.21415">
        <ele>600.0</ele>
        <time>2018-05-19T10:32:34.880Z</time>
      </trkpt>
      <trkpt lat="43.20924167" lon="-4.214185">
        <ele>601.0</ele>
        <time>2018-05-19T10:32:35.881Z</time>
      </trkpt>
      <trkpt lat="43.20924167" lon="-4.214185">
        <ele>601.0</ele>
        <time>2018-05-19T10:32:36.882Z</time>
      </trkpt>
      <trkpt lat="43.209235" lon="-4.21423167">
        <ele>601.0</ele>
        <time>2018-05-19T10:32:37.876Z</time>
      </trkpt>
      <trkpt lat="43.209235" lon="-4.21423167">
        <ele>601.0</ele>
        <time>2018-05-19T10:32:38.880Z</time>
      </trkpt>
      <trkpt lat="43.20924" lon="-4.214275">
        <ele>602.0</ele>
        <time>2018-05-19T10:32:39.885Z</time>
      </trkpt>
      <trkpt lat="43.20924" lon="-4.214275">
        <ele>602.0</ele>
        <time>2018-05-19T10:32:40.883Z</time>
      </trkpt>
      <trkpt lat="43.20925833" lon="-4.21431667">
        <ele>602.0</ele>
        <time>2018-05-19T10:32:41.844Z</time>
      </trkpt>
      <trkpt lat="43.20927167" lon="-4.21433333">
        <ele>603.0</ele>
        <time>2018-05-19T10:32:42.880Z</time>
      </trkpt>
      <trkpt lat="43.20927167" lon="-4.21433333">
        <ele>603.0</ele>
        <time>2018-05-19T10:32:43.865Z</time>
      </trkpt>
      <trkpt lat="43.20929333" lon="-4.21436833">
        <ele>603.0</ele>
        <time>2018-05-19T10:32:44.850Z</time>
      </trkpt>
      <trkpt lat="43.20929333" lon="-4.21436833">
        <ele>603.0</ele>
        <time>2018-05-19T10:32:45.869Z</time>
      </trkpt>
      <trkpt lat="43.20931167" lon="-4.2144">
        <ele>604.0</ele>
        <time>2018-05-19T10:32:46.879Z</time>
      </trkpt>
      <trkpt lat="43.20931167" lon="-4.2144">
        <ele>604.0</ele>
        <time>2018-05-19T10:32:47.846Z</time>
      </trkpt>
      <trkpt lat="43.20933167" lon="-4.21444">
        <ele>604.0</ele>
        <time>2018-05-19T10:32:48.852Z</time>
      </trkpt>
      <trkpt lat="43.20934" lon="-4.21446167">
        <ele>604.0</ele>
        <time>2018-05-19T10:32:49.883Z</time>
      </trkpt>
      <trkpt lat="43.20934" lon="-4.21446167">
        <ele>604.0</ele>
        <time>2018-05-19T10:32:50.880Z</time>
      </trkpt>
      <trkpt lat="43.20935167" lon="-4.21449667">
        <ele>604.0</ele>
        <time>2018-05-19T10:32:51.883Z</time>
      </trkpt>
      <trkpt lat="43.20936167" lon="-4.21451667">
        <ele>604.0</ele>
        <time>2018-05-19T10:32:52.882Z</time>
      </trkpt>
      <trkpt lat="43.20936167" lon="-4.21451667">
        <ele>604.0</ele>
        <time>2018-05-19T10:32:53.882Z</time>
      </trkpt>
      <trkpt lat="43.20937" lon="-4.21455833">
        <ele>605.0</ele>
        <time>2018-05-19T10:32:54.877Z</time>
      </trkpt>
      <trkpt lat="43.20937" lon="-4.21455833">
        <ele>605.0</ele>
        <time>2018-05-19T10:32:55.878Z</time>
      </trkpt>
      <trkpt lat="43.20938167" lon="-4.21460167">
        <ele>606.0</ele>
        <time>2018-05-19T10:32:56.875Z</time>
      </trkpt>
      <trkpt lat="43.20938167" lon="-4.21460167">
        <ele>606.0</ele>
        <time>2018-05-19T10:32:57.874Z</time>
      </trkpt>
      <trkpt lat="43.209385" lon="-4.21464833">
        <ele>607.0</ele>
        <time>2018-05-19T10:32:58.860Z</time>
      </trkpt>
      <trkpt lat="43.209385" lon="-4.21464833">
        <ele>607.0</ele>
        <time>2018-05-19T10:32:59.883Z</time>
      </trkpt>
      <trkpt lat="43.20939" lon="-4.21469833">
        <ele>607.0</ele>
        <time>2018-05-19T10:33:00.884Z</time>
      </trkpt>
      <trkpt lat="43.20938833" lon="-4.214725">
        <ele>608.0</ele>
        <time>2018-05-19T10:33:01.850Z</time>
      </trkpt>
      <trkpt lat="43.20938833" lon="-4.214725">
        <ele>608.0</ele>
        <time>2018-05-19T10:33:02.876Z</time>
      </trkpt>
      <trkpt lat="43.20939167" lon="-4.214775">
        <ele>609.0</ele>
        <time>2018-05-19T10:33:03.860Z</time>
      </trkpt>
      <trkpt lat="43.20939167" lon="-4.214775">
        <ele>609.0</ele>
        <time>2018-05-19T10:33:04.845Z</time>
      </trkpt>
      <trkpt lat="43.2094" lon="-4.21482167">
        <ele>610.0</ele>
        <time>2018-05-19T10:33:05.883Z</time>
      </trkpt>
      <trkpt lat="43.2094" lon="-4.21482167">
        <ele>610.0</ele>
        <time>2018-05-19T10:33:06.872Z</time>
      </trkpt>
      <trkpt lat="43.20940333" lon="-4.214865">
        <ele>610.0</ele>
        <time>2018-05-19T10:33:07.858Z</time>
      </trkpt>
      <trkpt lat="43.20940333" lon="-4.214865">
        <ele>610.0</ele>
        <time>2018-05-19T10:33:08.882Z</time>
      </trkpt>
      <trkpt lat="43.20941" lon="-4.21491333">
        <ele>611.0</ele>
        <time>2018-05-19T10:33:09.882Z</time>
      </trkpt>
      <trkpt lat="43.20941167" lon="-4.21494">
        <ele>611.0</ele>
        <time>2018-05-19T10:33:10.882Z</time>
      </trkpt>
      <trkpt lat="43.20941167" lon="-4.21494">
        <ele>611.0</ele>
        <time>2018-05-19T10:33:11.872Z</time>
      </trkpt>
      <trkpt lat="43.20941833" lon="-4.21499333">
        <ele>611.0</ele>
        <time>2018-05-19T10:33:12.862Z</time>
      </trkpt>
      <trkpt lat="43.20941833" lon="-4.21499333">
        <ele>611.0</ele>
        <time>2018-05-19T10:33:13.848Z</time>
      </trkpt>
      <trkpt lat="43.209415" lon="-4.21504167">
        <ele>612.0</ele>
        <time>2018-05-19T10:33:14.883Z</time>
      </trkpt>
      <trkpt lat="43.209415" lon="-4.21504167">
        <ele>612.0</ele>
        <time>2018-05-19T10:33:15.874Z</time>
      </trkpt>
      <trkpt lat="43.209415" lon="-4.21508667">
        <ele>612.0</ele>
        <time>2018-05-19T10:33:16.860Z</time>
      </trkpt>
      <trkpt lat="43.209415" lon="-4.21508667">
        <ele>612.0</ele>
        <time>2018-05-19T10:33:17.883Z</time>
      </trkpt>
      <trkpt lat="43.20941333" lon="-4.215135">
        <ele>613.0</ele>
        <time>2018-05-19T10:33:18.844Z</time>
      </trkpt>
      <trkpt lat="43.20941333" lon="-4.215135">
        <ele>613.0</ele>
        <time>2018-05-19T10:33:19.876Z</time>
      </trkpt>
      <trkpt lat="43.20939667" lon="-4.21518">
        <ele>613.0</ele>
        <time>2018-05-19T10:33:20.871Z</time>
      </trkpt>
      <trkpt lat="43.20939667" lon="-4.21518">
        <ele>613.0</ele>
        <time>2018-05-19T10:33:21.853Z</time>
      </trkpt>
      <trkpt lat="43.20938833" lon="-4.215225">
        <ele>613.0</ele>
        <time>2018-05-19T10:33:22.844Z</time>
      </trkpt>
      <trkpt lat="43.20938833" lon="-4.215225">
        <ele>613.0</ele>
        <time>2018-05-19T10:33:23.877Z</time>
      </trkpt>
      <trkpt lat="43.20938333" lon="-4.21527833">
        <ele>614.0</ele>
        <time>2018-05-19T10:33:24.880Z</time>
      </trkpt>
      <trkpt lat="43.20938333" lon="-4.21527833">
        <ele>614.0</ele>
        <time>2018-05-19T10:33:25.875Z</time>
      </trkpt>
      <trkpt lat="43.20937167" lon="-4.21533667">
        <ele>613.0</ele>
        <time>2018-05-19T10:33:26.857Z</time>
      </trkpt>
      <trkpt lat="43.20937167" lon="-4.21533667">
        <ele>613.0</ele>
        <time>2018-05-19T10:33:27.880Z</time>
      </trkpt>
      <trkpt lat="43.20936333" lon="-4.21538833">
        <ele>613.0</ele>
        <time>2018-05-19T10:33:28.877Z</time>
      </trkpt>
      <trkpt lat="43.20936333" lon="-4.21538833">
        <ele>613.0</ele>
        <time>2018-05-19T10:33:29.883Z</time>
      </trkpt>
      <trkpt lat="43.20936167" lon="-4.215435">
        <ele>613.0</ele>
        <time>2018-05-19T10:33:30.871Z</time>
      </trkpt>
      <trkpt lat="43.20936" lon="-4.21545833">
        <ele>614.0</ele>
        <time>2018-05-19T10:33:31.870Z</time>
      </trkpt>
      <trkpt lat="43.20936" lon="-4.21545833">
        <ele>614.0</ele>
        <time>2018-05-19T10:33:32.852Z</time>
      </trkpt>
      <trkpt lat="43.20935333" lon="-4.21550333">
        <ele>614.0</ele>
        <time>2018-05-19T10:33:33.854Z</time>
      </trkpt>
      <trkpt lat="43.20935333" lon="-4.21550333">
        <ele>614.0</ele>
        <time>2018-05-19T10:33:34.881Z</time>
      </trkpt>
      <trkpt lat="43.20934667" lon="-4.21555">
        <ele>615.0</ele>
        <time>2018-05-19T10:33:35.882Z</time>
      </trkpt>
      <trkpt lat="43.20934167" lon="-4.21557167">
        <ele>615.0</ele>
        <time>2018-05-19T10:33:36.881Z</time>
      </trkpt>
      <trkpt lat="43.20934167" lon="-4.21557167">
        <ele>615.0</ele>
        <time>2018-05-19T10:33:37.879Z</time>
      </trkpt>
      <trkpt lat="43.20933333" lon="-4.215615">
        <ele>616.0</ele>
        <time>2018-05-19T10:33:38.883Z</time>
      </trkpt>
      <trkpt lat="43.20933333" lon="-4.215615">
        <ele>616.0</ele>
        <time>2018-05-19T10:33:39.885Z</time>
      </trkpt>
      <trkpt lat="43.20932667" lon="-4.21566333">
        <ele>616.0</ele>
        <time>2018-05-19T10:33:40.844Z</time>
      </trkpt>
      <trkpt lat="43.20932667" lon="-4.21566333">
        <ele>616.0</ele>
        <time>2018-05-19T10:33:41.878Z</time>
      </trkpt>
      <trkpt lat="43.20931833" lon="-4.21571">
        <ele>616.0</ele>
        <time>2018-05-19T10:33:42.877Z</time>
      </trkpt>
      <trkpt lat="43.20931833" lon="-4.21571">
        <ele>616.0</ele>
        <time>2018-05-19T10:33:43.862Z</time>
      </trkpt>
      <trkpt lat="43.20930333" lon="-4.215755">
        <ele>616.0</ele>
        <time>2018-05-19T10:33:44.848Z</time>
      </trkpt>
      <trkpt lat="43.20930333" lon="-4.215755">
        <ele>616.0</ele>
        <time>2018-05-19T10:33:45.855Z</time>
      </trkpt>
      <trkpt lat="43.20928667" lon="-4.2158">
        <ele>616.0</ele>
        <time>2018-05-19T10:33:46.855Z</time>
      </trkpt>
      <trkpt lat="43.20927833" lon="-4.21582">
        <ele>616.0</ele>
        <time>2018-05-19T10:33:47.862Z</time>
      </trkpt>
      <trkpt lat="43.20927833" lon="-4.21582">
        <ele>616.0</ele>
        <time>2018-05-19T10:33:48.871Z</time>
      </trkpt>
      <trkpt lat="43.209255" lon="-4.21585">
        <ele>616.0</ele>
        <time>2018-05-19T10:33:49.880Z</time>
      </trkpt>
      <trkpt lat="43.20924167" lon="-4.21586">
        <ele>616.0</ele>
        <time>2018-05-19T10:33:50.882Z</time>
      </trkpt>
      <trkpt lat="43.20924167" lon="-4.21586">
        <ele>616.0</ele>
        <time>2018-05-19T10:33:51.879Z</time>
      </trkpt>
      <trkpt lat="43.20921" lon="-4.21588667">
        <ele>616.0</ele>
        <time>2018-05-19T10:33:52.881Z</time>
      </trkpt>
      <trkpt lat="43.20919667" lon="-4.21589833">
        <ele>616.0</ele>
        <time>2018-05-19T10:33:53.865Z</time>
      </trkpt>
      <trkpt lat="43.20918" lon="-4.21590833">
        <ele>617.0</ele>
        <time>2018-05-19T10:33:54.858Z</time>
      </trkpt>
      <trkpt lat="43.20918" lon="-4.21590833">
        <ele>617.0</ele>
        <time>2018-05-19T10:33:55.844Z</time>
      </trkpt>
      <trkpt lat="43.20914333" lon="-4.21591">
        <ele>618.0</ele>
        <time>2018-05-19T10:33:56.883Z</time>
      </trkpt>
      <trkpt lat="43.20914333" lon="-4.21591">
        <ele>618.0</ele>
        <time>2018-05-19T10:33:57.879Z</time>
      </trkpt>
      <trkpt lat="43.20911167" lon="-4.215895">
        <ele>618.0</ele>
        <time>2018-05-19T10:33:58.883Z</time>
      </trkpt>
      <trkpt lat="43.20911167" lon="-4.215895">
        <ele>618.0</ele>
        <time>2018-05-19T10:33:59.880Z</time>
      </trkpt>
      <trkpt lat="43.20908" lon="-4.21587">
        <ele>619.0</ele>
        <time>2018-05-19T10:34:00.876Z</time>
      </trkpt>
      <trkpt lat="43.20908" lon="-4.21587">
        <ele>619.0</ele>
        <time>2018-05-19T10:34:01.872Z</time>
      </trkpt>
      <trkpt lat="43.20905" lon="-4.21583833">
        <ele>620.0</ele>
        <time>2018-05-19T10:34:02.857Z</time>
      </trkpt>
      <trkpt lat="43.20905" lon="-4.21583833">
        <ele>620.0</ele>
        <time>2018-05-19T10:34:03.879Z</time>
      </trkpt>
      <trkpt lat="43.209035" lon="-4.21579833">
        <ele>620.0</ele>
        <time>2018-05-19T10:34:04.881Z</time>
      </trkpt>
      <trkpt lat="43.209035" lon="-4.21579833">
        <ele>620.0</ele>
        <time>2018-05-19T10:34:05.874Z</time>
      </trkpt>
      <trkpt lat="43.209015" lon="-4.21576">
        <ele>620.0</ele>
        <time>2018-05-19T10:34:06.859Z</time>
      </trkpt>
      <trkpt lat="43.209015" lon="-4.21576">
        <ele>620.0</ele>
        <time>2018-05-19T10:34:07.882Z</time>
      </trkpt>
      <trkpt lat="43.209" lon="-4.21572333">
        <ele>620.0</ele>
        <time>2018-05-19T10:34:08.883Z</time>
      </trkpt>
      <trkpt lat="43.209" lon="-4.21572333">
        <ele>620.0</ele>
        <time>2018-05-19T10:34:09.875Z</time>
      </trkpt>
      <trkpt lat="43.20898833" lon="-4.21568">
        <ele>621.0</ele>
        <time>2018-05-19T10:34:10.846Z</time>
      </trkpt>
      <trkpt lat="43.20898833" lon="-4.21568">
        <ele>621.0</ele>
        <time>2018-05-19T10:34:11.878Z</time>
      </trkpt>
      <trkpt lat="43.20897833" lon="-4.21563167">
        <ele>621.0</ele>
        <time>2018-05-19T10:34:12.883Z</time>
      </trkpt>
      <trkpt lat="43.20897333" lon="-4.21560667">
        <ele>621.0</ele>
        <time>2018-05-19T10:34:13.881Z</time>
      </trkpt>
      <trkpt lat="43.20897333" lon="-4.21560667">
        <ele>621.0</ele>
        <time>2018-05-19T10:34:14.872Z</time>
      </trkpt>
      <trkpt lat="43.20896167" lon="-4.215565">
        <ele>621.0</ele>
        <time>2018-05-19T10:34:15.857Z</time>
      </trkpt>
      <trkpt lat="43.20895833" lon="-4.21554333">
        <ele>621.0</ele>
        <time>2018-05-19T10:34:16.857Z</time>
      </trkpt>
      <trkpt lat="43.20895833" lon="-4.21554333">
        <ele>621.0</ele>
        <time>2018-05-19T10:34:17.883Z</time>
      </trkpt>
      <trkpt lat="43.20894833" lon="-4.21549667">
        <ele>621.0</ele>
        <time>2018-05-19T10:34:18.871Z</time>
      </trkpt>
      <trkpt lat="43.20894833" lon="-4.21549667">
        <ele>621.0</ele>
        <time>2018-05-19T10:34:19.853Z</time>
      </trkpt>
      <trkpt lat="43.20893167" lon="-4.21545333">
        <ele>621.0</ele>
        <time>2018-05-19T10:34:20.882Z</time>
      </trkpt>
      <trkpt lat="43.20892167" lon="-4.21543667">
        <ele>622.0</ele>
        <time>2018-05-19T10:34:21.882Z</time>
      </trkpt>
      <trkpt lat="43.208915" lon="-4.215415">
        <ele>622.0</ele>
        <time>2018-05-19T10:34:22.881Z</time>
      </trkpt>
      <trkpt lat="43.208915" lon="-4.215415">
        <ele>622.0</ele>
        <time>2018-05-19T10:34:23.874Z</time>
      </trkpt>
      <trkpt lat="43.20891333" lon="-4.21536167">
        <ele>623.0</ele>
        <time>2018-05-19T10:34:24.859Z</time>
      </trkpt>
      <trkpt lat="43.20891333" lon="-4.21536167">
        <ele>623.0</ele>
        <time>2018-05-19T10:34:25.882Z</time>
      </trkpt>
      <trkpt lat="43.20889667" lon="-4.21531833">
        <ele>623.0</ele>
        <time>2018-05-19T10:34:26.883Z</time>
      </trkpt>
      <trkpt lat="43.20889667" lon="-4.21531833">
        <ele>623.0</ele>
        <time>2018-05-19T10:34:27.870Z</time>
      </trkpt>
      <trkpt lat="43.20888" lon="-4.21527833">
        <ele>624.0</ele>
        <time>2018-05-19T10:34:28.854Z</time>
      </trkpt>
      <trkpt lat="43.20888" lon="-4.21527833">
        <ele>624.0</ele>
        <time>2018-05-19T10:34:29.879Z</time>
      </trkpt>
      <trkpt lat="43.20886167" lon="-4.21523833">
        <ele>624.0</ele>
        <time>2018-05-19T10:34:30.880Z</time>
      </trkpt>
      <trkpt lat="43.20886167" lon="-4.21523833">
        <ele>624.0</ele>
        <time>2018-05-19T10:34:31.880Z</time>
      </trkpt>
      <trkpt lat="43.208835" lon="-4.21520333">
        <ele>624.0</ele>
        <time>2018-05-19T10:34:32.883Z</time>
      </trkpt>
      <trkpt lat="43.20882167" lon="-4.21518833">
        <ele>625.0</ele>
        <time>2018-05-19T10:34:33.854Z</time>
      </trkpt>
      <trkpt lat="43.20882167" lon="-4.21518833">
        <ele>625.0</ele>
        <time>2018-05-19T10:34:34.880Z</time>
      </trkpt>
      <trkpt lat="43.20879667" lon="-4.21515667">
        <ele>625.0</ele>
        <time>2018-05-19T10:34:35.879Z</time>
      </trkpt>
      <trkpt lat="43.208785" lon="-4.21514">
        <ele>625.0</ele>
        <time>2018-05-19T10:34:36.879Z</time>
      </trkpt>
      <trkpt lat="43.208785" lon="-4.21514">
        <ele>625.0</ele>
        <time>2018-05-19T10:34:37.878Z</time>
      </trkpt>
      <trkpt lat="43.20876" lon="-4.21511167">
        <ele>625.0</ele>
        <time>2018-05-19T10:34:38.883Z</time>
      </trkpt>
      <trkpt lat="43.20874667" lon="-4.21509667">
        <ele>625.0</ele>
        <time>2018-05-19T10:34:39.886Z</time>
      </trkpt>
      <trkpt lat="43.20874667" lon="-4.21509667">
        <ele>625.0</ele>
        <time>2018-05-19T10:34:40.881Z</time>
      </trkpt>
      <trkpt lat="43.20871667" lon="-4.215075">
        <ele>626.0</ele>
        <time>2018-05-19T10:34:41.879Z</time>
      </trkpt>
      <trkpt lat="43.2087" lon="-4.21506167">
        <ele>626.0</ele>
        <time>2018-05-19T10:34:42.876Z</time>
      </trkpt>
      <trkpt lat="43.2087" lon="-4.21506167">
        <ele>626.0</ele>
        <time>2018-05-19T10:34:43.858Z</time>
      </trkpt>
      <trkpt lat="43.20867167" lon="-4.21503333">
        <ele>626.0</ele>
        <time>2018-05-19T10:34:44.858Z</time>
      </trkpt>
      <trkpt lat="43.20867167" lon="-4.21503333">
        <ele>626.0</ele>
        <time>2018-05-19T10:34:45.872Z</time>
      </trkpt>
      <trkpt lat="43.20863833" lon="-4.215005">
        <ele>626.0</ele>
        <time>2018-05-19T10:34:46.844Z</time>
      </trkpt>
      <trkpt lat="43.20862" lon="-4.21499167">
        <ele>626.0</ele>
        <time>2018-05-19T10:34:47.850Z</time>
      </trkpt>
      <trkpt lat="43.20862" lon="-4.21499167">
        <ele>626.0</ele>
        <time>2018-05-19T10:34:48.856Z</time>
      </trkpt>
      <trkpt lat="43.20859" lon="-4.214965">
        <ele>626.0</ele>
        <time>2018-05-19T10:34:49.862Z</time>
      </trkpt>
      <trkpt lat="43.20859" lon="-4.214965">
        <ele>626.0</ele>
        <time>2018-05-19T10:34:50.883Z</time>
      </trkpt>
      <trkpt lat="43.20856" lon="-4.21494333">
        <ele>626.0</ele>
        <time>2018-05-19T10:34:51.844Z</time>
      </trkpt>
      <trkpt lat="43.20854" lon="-4.214935">
        <ele>626.0</ele>
        <time>2018-05-19T10:34:52.860Z</time>
      </trkpt>
      <trkpt lat="43.20852333" lon="-4.21492333">
        <ele>626.0</ele>
        <time>2018-05-19T10:34:53.846Z</time>
      </trkpt>
      <trkpt lat="43.20850833" lon="-4.21491167">
        <ele>627.0</ele>
        <time>2018-05-19T10:34:54.880Z</time>
      </trkpt>
      <trkpt lat="43.20850833" lon="-4.21491167">
        <ele>627.0</ele>
        <time>2018-05-19T10:34:55.875Z</time>
      </trkpt>
      <trkpt lat="43.20847833" lon="-4.21489">
        <ele>627.0</ele>
        <time>2018-05-19T10:34:56.880Z</time>
      </trkpt>
      <trkpt lat="43.20847833" lon="-4.21489">
        <ele>627.0</ele>
        <time>2018-05-19T10:34:57.882Z</time>
      </trkpt>
      <trkpt lat="43.20844833" lon="-4.21487167">
        <ele>627.0</ele>
        <time>2018-05-19T10:34:58.844Z</time>
      </trkpt>
      <trkpt lat="43.20844833" lon="-4.21487167">
        <ele>627.0</ele>
        <time>2018-05-19T10:34:59.879Z</time>
      </trkpt>
      <trkpt lat="43.20842167" lon="-4.21485333">
        <ele>627.0</ele>
        <time>2018-05-19T10:35:00.877Z</time>
      </trkpt>
      <trkpt lat="43.20842167" lon="-4.21485333">
        <ele>627.0</ele>
        <time>2018-05-19T10:35:01.877Z</time>
      </trkpt>
      <trkpt lat="43.20838833" lon="-4.214835">
        <ele>627.0</ele>
        <time>2018-05-19T10:35:02.881Z</time>
      </trkpt>
      <trkpt lat="43.20837333" lon="-4.214825">
        <ele>627.0</ele>
        <time>2018-05-19T10:35:03.863Z</time>
      </trkpt>
      <trkpt lat="43.20837333" lon="-4.214825">
        <ele>627.0</ele>
        <time>2018-05-19T10:35:04.848Z</time>
      </trkpt>
      <trkpt lat="43.20834167" lon="-4.214805">
        <ele>627.0</ele>
        <time>2018-05-19T10:35:05.882Z</time>
      </trkpt>
      <trkpt lat="43.20832667" lon="-4.21479667">
        <ele>627.0</ele>
        <time>2018-05-19T10:35:06.880Z</time>
      </trkpt>
      <trkpt lat="43.20832667" lon="-4.21479667">
        <ele>627.0</ele>
        <time>2018-05-19T10:35:07.878Z</time>
      </trkpt>
      <trkpt lat="43.20829167" lon="-4.21478">
        <ele>628.0</ele>
        <time>2018-05-19T10:35:08.883Z</time>
      </trkpt>
      <trkpt lat="43.20829167" lon="-4.21478">
        <ele>628.0</ele>
        <time>2018-05-19T10:35:09.875Z</time>
      </trkpt>
      <trkpt lat="43.20825667" lon="-4.214765">
        <ele>628.0</ele>
        <time>2018-05-19T10:35:10.854Z</time>
      </trkpt>
      <trkpt lat="43.20825667" lon="-4.214765">
        <ele>628.0</ele>
        <time>2018-05-19T10:35:11.879Z</time>
      </trkpt>
      <trkpt lat="43.20822167" lon="-4.21475167">
        <ele>629.0</ele>
        <time>2018-05-19T10:35:12.852Z</time>
      </trkpt>
      <trkpt lat="43.20822167" lon="-4.21475167">
        <ele>629.0</ele>
        <time>2018-05-19T10:35:13.878Z</time>
      </trkpt>
      <trkpt lat="43.20819167" lon="-4.21473167">
        <ele>629.0</ele>
        <time>2018-05-19T10:35:14.858Z</time>
      </trkpt>
      <trkpt lat="43.208175" lon="-4.21472333">
        <ele>629.0</ele>
        <time>2018-05-19T10:35:15.868Z</time>
      </trkpt>
      <trkpt lat="43.208175" lon="-4.21472333">
        <ele>629.0</ele>
        <time>2018-05-19T10:35:16.853Z</time>
      </trkpt>
      <trkpt lat="43.20814167" lon="-4.21470833">
        <ele>629.0</ele>
        <time>2018-05-19T10:35:17.845Z</time>
      </trkpt>
      <trkpt lat="43.208125" lon="-4.21470167">
        <ele>629.0</ele>
        <time>2018-05-19T10:35:18.880Z</time>
      </trkpt>
      <trkpt lat="43.208125" lon="-4.21470167">
        <ele>629.0</ele>
        <time>2018-05-19T10:35:19.869Z</time>
      </trkpt>
      <trkpt lat="43.20809167" lon="-4.21468833">
        <ele>629.0</ele>
        <time>2018-05-19T10:35:20.844Z</time>
      </trkpt>
      <trkpt lat="43.208075" lon="-4.21468333">
        <ele>630.0</ele>
        <time>2018-05-19T10:35:21.844Z</time>
      </trkpt>
      <trkpt lat="43.20805833" lon="-4.21467667">
        <ele>630.0</ele>
        <time>2018-05-19T10:35:22.881Z</time>
      </trkpt>
      <trkpt lat="43.20804167" lon="-4.21467">
        <ele>630.0</ele>
        <time>2018-05-19T10:35:23.844Z</time>
      </trkpt>
      <trkpt lat="43.20804167" lon="-4.21467">
        <ele>630.0</ele>
        <time>2018-05-19T10:35:24.877Z</time>
      </trkpt>
      <trkpt lat="43.208005" lon="-4.21465667">
        <ele>631.0</ele>
        <time>2018-05-19T10:35:25.883Z</time>
      </trkpt>
      <trkpt lat="43.208005" lon="-4.21465667">
        <ele>631.0</ele>
        <time>2018-05-19T10:35:26.878Z</time>
      </trkpt>
      <trkpt lat="43.20797" lon="-4.21464833">
        <ele>631.0</ele>
        <time>2018-05-19T10:35:27.883Z</time>
      </trkpt>
      <trkpt lat="43.20795333" lon="-4.21464333">
        <ele>631.0</ele>
        <time>2018-05-19T10:35:28.883Z</time>
      </trkpt>
      <trkpt lat="43.20795333" lon="-4.21464333">
        <ele>631.0</ele>
        <time>2018-05-19T10:35:29.877Z</time>
      </trkpt>
      <trkpt lat="43.20791667" lon="-4.21463833">
        <ele>631.0</ele>
        <time>2018-05-19T10:35:30.846Z</time>
      </trkpt>
      <trkpt lat="43.20791667" lon="-4.21463833">
        <ele>631.0</ele>
        <time>2018-05-19T10:35:31.876Z</time>
      </trkpt>
      <trkpt lat="43.20787833" lon="-4.21463">
        <ele>632.0</ele>
        <time>2018-05-19T10:35:32.870Z</time>
      </trkpt>
      <trkpt lat="43.20787833" lon="-4.21463">
        <ele>632.0</ele>
        <time>2018-05-19T10:35:33.862Z</time>
      </trkpt>
      <trkpt lat="43.20784167" lon="-4.21462">
        <ele>632.0</ele>
        <time>2018-05-19T10:35:34.848Z</time>
      </trkpt>
      <trkpt lat="43.20784167" lon="-4.21462">
        <ele>632.0</ele>
        <time>2018-05-19T10:35:35.874Z</time>
      </trkpt>
      <trkpt lat="43.20780667" lon="-4.214615">
        <ele>633.0</ele>
        <time>2018-05-19T10:35:36.858Z</time>
      </trkpt>
      <trkpt lat="43.20780667" lon="-4.214615">
        <ele>633.0</ele>
        <time>2018-05-19T10:35:37.880Z</time>
      </trkpt>
      <trkpt lat="43.20777333" lon="-4.21461167">
        <ele>634.0</ele>
        <time>2018-05-19T10:35:38.882Z</time>
      </trkpt>
      <trkpt lat="43.20777333" lon="-4.21461167">
        <ele>634.0</ele>
        <time>2018-05-19T10:35:39.885Z</time>
      </trkpt>
      <trkpt lat="43.20774" lon="-4.21460833">
        <ele>634.0</ele>
        <time>2018-05-19T10:35:40.848Z</time>
      </trkpt>
      <trkpt lat="43.20774" lon="-4.21460833">
        <ele>634.0</ele>
        <time>2018-05-19T10:35:41.877Z</time>
      </trkpt>
      <trkpt lat="43.20770833" lon="-4.214605">
        <ele>635.0</ele>
        <time>2018-05-19T10:35:42.882Z</time>
      </trkpt>
      <trkpt lat="43.20769167" lon="-4.21460333">
        <ele>635.0</ele>
        <time>2018-05-19T10:35:43.864Z</time>
      </trkpt>
      <trkpt lat="43.20769167" lon="-4.21460333">
        <ele>635.0</ele>
        <time>2018-05-19T10:35:44.849Z</time>
      </trkpt>
      <trkpt lat="43.20765833" lon="-4.2146">
        <ele>636.0</ele>
        <time>2018-05-19T10:35:45.881Z</time>
      </trkpt>
      <trkpt lat="43.20764333" lon="-4.2146">
        <ele>636.0</ele>
        <time>2018-05-19T10:35:46.864Z</time>
      </trkpt>
      <trkpt lat="43.20762667" lon="-4.21460333">
        <ele>636.0</ele>
        <time>2018-05-19T10:35:47.870Z</time>
      </trkpt>
      <trkpt lat="43.20762667" lon="-4.21460333">
        <ele>636.0</ele>
        <time>2018-05-19T10:35:48.876Z</time>
      </trkpt>
      <trkpt lat="43.20759333" lon="-4.21461333">
        <ele>636.0</ele>
        <time>2018-05-19T10:35:49.881Z</time>
      </trkpt>
      <trkpt lat="43.20759333" lon="-4.21461333">
        <ele>636.0</ele>
        <time>2018-05-19T10:35:50.845Z</time>
      </trkpt>
      <trkpt lat="43.20756167" lon="-4.214625">
        <ele>637.0</ele>
        <time>2018-05-19T10:35:51.880Z</time>
      </trkpt>
      <trkpt lat="43.20756167" lon="-4.214625">
        <ele>637.0</ele>
        <time>2018-05-19T10:35:52.880Z</time>
      </trkpt>
      <trkpt lat="43.20752833" lon="-4.21463167">
        <ele>637.0</ele>
        <time>2018-05-19T10:35:53.863Z</time>
      </trkpt>
      <trkpt lat="43.20751333" lon="-4.21464167">
        <ele>637.0</ele>
        <time>2018-05-19T10:35:54.860Z</time>
      </trkpt>
      <trkpt lat="43.20751333" lon="-4.21464167">
        <ele>637.0</ele>
        <time>2018-05-19T10:35:55.883Z</time>
      </trkpt>
      <trkpt lat="43.20747833" lon="-4.21466333">
        <ele>637.0</ele>
        <time>2018-05-19T10:35:56.881Z</time>
      </trkpt>
      <trkpt lat="43.20747833" lon="-4.21466333">
        <ele>637.0</ele>
        <time>2018-05-19T10:35:57.878Z</time>
      </trkpt>
      <trkpt lat="43.20744" lon="-4.214685">
        <ele>637.0</ele>
        <time>2018-05-19T10:35:58.883Z</time>
      </trkpt>
      <trkpt lat="43.20744" lon="-4.214685">
        <ele>637.0</ele>
        <time>2018-05-19T10:35:59.846Z</time>
      </trkpt>
      <trkpt lat="43.207405" lon="-4.21471">
        <ele>637.0</ele>
        <time>2018-05-19T10:36:00.844Z</time>
      </trkpt>
      <trkpt lat="43.207405" lon="-4.21471">
        <ele>637.0</ele>
        <time>2018-05-19T10:36:01.879Z</time>
      </trkpt>
      <trkpt lat="43.20736833" lon="-4.21473333">
        <ele>638.0</ele>
        <time>2018-05-19T10:36:02.881Z</time>
      </trkpt>
      <trkpt lat="43.20735" lon="-4.21474333">
        <ele>638.0</ele>
        <time>2018-05-19T10:36:03.872Z</time>
      </trkpt>
      <trkpt lat="43.20735" lon="-4.21474333">
        <ele>638.0</ele>
        <time>2018-05-19T10:36:04.860Z</time>
      </trkpt>
      <trkpt lat="43.20731333" lon="-4.21476333">
        <ele>638.0</ele>
        <time>2018-05-19T10:36:05.862Z</time>
      </trkpt>
      <trkpt lat="43.20729667" lon="-4.21477167">
        <ele>638.0</ele>
        <time>2018-05-19T10:36:06.849Z</time>
      </trkpt>
      <trkpt lat="43.20729667" lon="-4.21477167">
        <ele>638.0</ele>
        <time>2018-05-19T10:36:07.874Z</time>
      </trkpt>
      <trkpt lat="43.20725667" lon="-4.21477833">
        <ele>638.0</ele>
        <time>2018-05-19T10:36:08.881Z</time>
      </trkpt>
      <trkpt lat="43.20725667" lon="-4.21477833">
        <ele>638.0</ele>
        <time>2018-05-19T10:36:09.876Z</time>
      </trkpt>
      <trkpt lat="43.207215" lon="-4.21478833">
        <ele>639.0</ele>
        <time>2018-05-19T10:36:10.846Z</time>
      </trkpt>
      <trkpt lat="43.207215" lon="-4.21478833">
        <ele>639.0</ele>
        <time>2018-05-19T10:36:11.878Z</time>
      </trkpt>
      <trkpt lat="43.20717" lon="-4.214795">
        <ele>639.0</ele>
        <time>2018-05-19T10:36:12.879Z</time>
      </trkpt>
      <trkpt lat="43.20717" lon="-4.214795">
        <ele>639.0</ele>
        <time>2018-05-19T10:36:13.880Z</time>
      </trkpt>
      <trkpt lat="43.20713167" lon="-4.21479667">
        <ele>639.0</ele>
        <time>2018-05-19T10:36:14.881Z</time>
      </trkpt>
      <trkpt lat="43.20713167" lon="-4.21479667">
        <ele>639.0</ele>
        <time>2018-05-19T10:36:15.879Z</time>
      </trkpt>
      <trkpt lat="43.207095" lon="-4.214805">
        <ele>640.0</ele>
        <time>2018-05-19T10:36:16.847Z</time>
      </trkpt>
      <trkpt lat="43.207095" lon="-4.214805">
        <ele>640.0</ele>
        <time>2018-05-19T10:36:17.878Z</time>
      </trkpt>
      <trkpt lat="43.20705833" lon="-4.21481167">
        <ele>640.0</ele>
        <time>2018-05-19T10:36:18.883Z</time>
      </trkpt>
      <trkpt lat="43.20705833" lon="-4.21481167">
        <ele>640.0</ele>
        <time>2018-05-19T10:36:19.847Z</time>
      </trkpt>
      <trkpt lat="43.20702" lon="-4.21481333">
        <ele>640.0</ele>
        <time>2018-05-19T10:36:20.881Z</time>
      </trkpt>
      <trkpt lat="43.20702" lon="-4.21481333">
        <ele>640.0</ele>
        <time>2018-05-19T10:36:21.876Z</time>
      </trkpt>
      <trkpt lat="43.20698" lon="-4.21481833">
        <ele>640.0</ele>
        <time>2018-05-19T10:36:22.859Z</time>
      </trkpt>
      <trkpt lat="43.20696" lon="-4.214815">
        <ele>640.0</ele>
        <time>2018-05-19T10:36:23.856Z</time>
      </trkpt>
      <trkpt lat="43.20696" lon="-4.214815">
        <ele>640.0</ele>
        <time>2018-05-19T10:36:24.850Z</time>
      </trkpt>
      <trkpt lat="43.20692333" lon="-4.21481667">
        <ele>640.0</ele>
        <time>2018-05-19T10:36:25.878Z</time>
      </trkpt>
      <trkpt lat="43.20692333" lon="-4.21481667">
        <ele>640.0</ele>
        <time>2018-05-19T10:36:26.877Z</time>
      </trkpt>
      <trkpt lat="43.20688333" lon="-4.21482333">
        <ele>641.0</ele>
        <time>2018-05-19T10:36:27.881Z</time>
      </trkpt>
      <trkpt lat="43.20686333" lon="-4.21483333">
        <ele>641.0</ele>
        <time>2018-05-19T10:36:28.883Z</time>
      </trkpt>
      <trkpt lat="43.20686333" lon="-4.21483333">
        <ele>641.0</ele>
        <time>2018-05-19T10:36:29.878Z</time>
      </trkpt>
      <trkpt lat="43.20682333" lon="-4.21484167">
        <ele>640.0</ele>
        <time>2018-05-19T10:36:30.846Z</time>
      </trkpt>
      <trkpt lat="43.20682333" lon="-4.21484167">
        <ele>640.0</ele>
        <time>2018-05-19T10:36:31.872Z</time>
      </trkpt>
      <trkpt lat="43.20678167" lon="-4.214835">
        <ele>641.0</ele>
        <time>2018-05-19T10:36:32.855Z</time>
      </trkpt>
      <trkpt lat="43.20676" lon="-4.21482833">
        <ele>641.0</ele>
        <time>2018-05-19T10:36:33.845Z</time>
      </trkpt>
      <trkpt lat="43.20676" lon="-4.21482833">
        <ele>641.0</ele>
        <time>2018-05-19T10:36:34.880Z</time>
      </trkpt>
      <trkpt lat="43.20671167" lon="-4.21482167">
        <ele>642.0</ele>
        <time>2018-05-19T10:36:35.882Z</time>
      </trkpt>
      <trkpt lat="43.20669" lon="-4.214815">
        <ele>642.0</ele>
        <time>2018-05-19T10:36:36.879Z</time>
      </trkpt>
      <trkpt lat="43.20669" lon="-4.214815">
        <ele>642.0</ele>
        <time>2018-05-19T10:36:37.876Z</time>
      </trkpt>
      <trkpt lat="43.20665333" lon="-4.21480333">
        <ele>643.0</ele>
        <time>2018-05-19T10:36:38.879Z</time>
      </trkpt>
      <trkpt lat="43.20665333" lon="-4.21480333">
        <ele>643.0</ele>
        <time>2018-05-19T10:36:39.885Z</time>
      </trkpt>
      <trkpt lat="43.20661833" lon="-4.21479667">
        <ele>643.0</ele>
        <time>2018-05-19T10:36:40.849Z</time>
      </trkpt>
      <trkpt lat="43.20661833" lon="-4.21479667">
        <ele>643.0</ele>
        <time>2018-05-19T10:36:41.879Z</time>
      </trkpt>
      <trkpt lat="43.20658167" lon="-4.214785">
        <ele>644.0</ele>
        <time>2018-05-19T10:36:42.879Z</time>
      </trkpt>
      <trkpt lat="43.20658167" lon="-4.214785">
        <ele>644.0</ele>
        <time>2018-05-19T10:36:43.881Z</time>
      </trkpt>
      <trkpt lat="43.206545" lon="-4.21477">
        <ele>644.0</ele>
        <time>2018-05-19T10:36:44.874Z</time>
      </trkpt>
      <trkpt lat="43.206545" lon="-4.21477">
        <ele>644.0</ele>
        <time>2018-05-19T10:36:45.862Z</time>
      </trkpt>
      <trkpt lat="43.20650333" lon="-4.21476">
        <ele>646.0</ele>
        <time>2018-05-19T10:36:46.879Z</time>
      </trkpt>
      <trkpt lat="43.20650333" lon="-4.21476">
        <ele>646.0</ele>
        <time>2018-05-19T10:36:47.846Z</time>
      </trkpt>
      <trkpt lat="43.20646667" lon="-4.214755">
        <ele>647.0</ele>
        <time>2018-05-19T10:36:48.852Z</time>
      </trkpt>
      <trkpt lat="43.20644833" lon="-4.21475">
        <ele>647.0</ele>
        <time>2018-05-19T10:36:49.881Z</time>
      </trkpt>
      <trkpt lat="43.20644833" lon="-4.21475">
        <ele>647.0</ele>
        <time>2018-05-19T10:36:50.881Z</time>
      </trkpt>
      <trkpt lat="43.20641333" lon="-4.21474">
        <ele>647.0</ele>
        <time>2018-05-19T10:36:51.881Z</time>
      </trkpt>
      <trkpt lat="43.20639667" lon="-4.214735">
        <ele>648.0</ele>
        <time>2018-05-19T10:36:52.880Z</time>
      </trkpt>
      <trkpt lat="43.20637833" lon="-4.21473167">
        <ele>648.0</ele>
        <time>2018-05-19T10:36:53.853Z</time>
      </trkpt>
      <trkpt lat="43.20637833" lon="-4.21473167">
        <ele>648.0</ele>
        <time>2018-05-19T10:36:54.879Z</time>
      </trkpt>
      <trkpt lat="43.20634333" lon="-4.214725">
        <ele>648.0</ele>
        <time>2018-05-19T10:36:55.844Z</time>
      </trkpt>
      <trkpt lat="43.20634333" lon="-4.214725">
        <ele>648.0</ele>
        <time>2018-05-19T10:36:56.878Z</time>
      </trkpt>
      <trkpt lat="43.20630833" lon="-4.21471333">
        <ele>649.0</ele>
        <time>2018-05-19T10:36:57.879Z</time>
      </trkpt>
      <trkpt lat="43.20629167" lon="-4.21470833">
        <ele>649.0</ele>
        <time>2018-05-19T10:36:58.880Z</time>
      </trkpt>
      <trkpt lat="43.20629167" lon="-4.21470833">
        <ele>649.0</ele>
        <time>2018-05-19T10:36:59.878Z</time>
      </trkpt>
      <trkpt lat="43.20625667" lon="-4.214705">
        <ele>649.0</ele>
        <time>2018-05-19T10:37:00.883Z</time>
      </trkpt>
      <trkpt lat="43.20625667" lon="-4.214705">
        <ele>649.0</ele>
        <time>2018-05-19T10:37:01.875Z</time>
      </trkpt>
      <trkpt lat="43.20622333" lon="-4.21470167">
        <ele>650.0</ele>
        <time>2018-05-19T10:37:02.881Z</time>
      </trkpt>
      <trkpt lat="43.20620833" lon="-4.214695">
        <ele>650.0</ele>
        <time>2018-05-19T10:37:03.883Z</time>
      </trkpt>
      <trkpt lat="43.20620833" lon="-4.214695">
        <ele>650.0</ele>
        <time>2018-05-19T10:37:04.872Z</time>
      </trkpt>
      <trkpt lat="43.206175" lon="-4.21469">
        <ele>650.0</ele>
        <time>2018-05-19T10:37:05.866Z</time>
      </trkpt>
      <trkpt lat="43.20615667" lon="-4.21469">
        <ele>650.0</ele>
        <time>2018-05-19T10:37:06.852Z</time>
      </trkpt>
      <trkpt lat="43.20614" lon="-4.21468833">
        <ele>651.0</ele>
        <time>2018-05-19T10:37:07.882Z</time>
      </trkpt>
      <trkpt lat="43.20614" lon="-4.21468833">
        <ele>651.0</ele>
        <time>2018-05-19T10:37:08.878Z</time>
      </trkpt>
      <trkpt lat="43.206105" lon="-4.214685">
        <ele>651.0</ele>
        <time>2018-05-19T10:37:09.881Z</time>
      </trkpt>
      <trkpt lat="43.20608667" lon="-4.21468167">
        <ele>651.0</ele>
        <time>2018-05-19T10:37:10.870Z</time>
      </trkpt>
      <trkpt lat="43.20608667" lon="-4.21468167">
        <ele>651.0</ele>
        <time>2018-05-19T10:37:11.846Z</time>
      </trkpt>
      <trkpt lat="43.20605167" lon="-4.21468">
        <ele>651.0</ele>
        <time>2018-05-19T10:37:12.879Z</time>
      </trkpt>
      <trkpt lat="43.20605167" lon="-4.21468">
        <ele>651.0</ele>
        <time>2018-05-19T10:37:13.881Z</time>
      </trkpt>
      <trkpt lat="43.20601833" lon="-4.21467833">
        <ele>651.0</ele>
        <time>2018-05-19T10:37:14.844Z</time>
      </trkpt>
      <trkpt lat="43.20600167" lon="-4.21467833">
        <ele>651.0</ele>
        <time>2018-05-19T10:37:15.879Z</time>
      </trkpt>
      <trkpt lat="43.205985" lon="-4.21468">
        <ele>652.0</ele>
        <time>2018-05-19T10:37:16.844Z</time>
      </trkpt>
      <trkpt lat="43.205985" lon="-4.21468">
        <ele>652.0</ele>
        <time>2018-05-19T10:37:17.879Z</time>
      </trkpt>
      <trkpt lat="43.20595167" lon="-4.21468167">
        <ele>652.0</ele>
        <time>2018-05-19T10:37:18.879Z</time>
      </trkpt>
      <trkpt lat="43.20595167" lon="-4.21468167">
        <ele>652.0</ele>
        <time>2018-05-19T10:37:19.851Z</time>
      </trkpt>
      <trkpt lat="43.20591667" lon="-4.21468333">
        <ele>652.0</ele>
        <time>2018-05-19T10:37:20.882Z</time>
      </trkpt>
      <trkpt lat="43.20591667" lon="-4.21468333">
        <ele>652.0</ele>
        <time>2018-05-19T10:37:21.882Z</time>
      </trkpt>
      <trkpt lat="43.20588167" lon="-4.21468667">
        <ele>653.0</ele>
        <time>2018-05-19T10:37:22.883Z</time>
      </trkpt>
      <trkpt lat="43.205865" lon="-4.21468833">
        <ele>653.0</ele>
        <time>2018-05-19T10:37:23.883Z</time>
      </trkpt>
      <trkpt lat="43.205845" lon="-4.21469167">
        <ele>653.0</ele>
        <time>2018-05-19T10:37:24.883Z</time>
      </trkpt>
      <trkpt lat="43.20582667" lon="-4.21469333">
        <ele>653.0</ele>
        <time>2018-05-19T10:37:25.854Z</time>
      </trkpt>
      <trkpt lat="43.20582667" lon="-4.21469333">
        <ele>653.0</ele>
        <time>2018-05-19T10:37:26.879Z</time>
      </trkpt>
      <trkpt lat="43.20579" lon="-4.2147">
        <ele>653.0</ele>
        <time>2018-05-19T10:37:27.881Z</time>
      </trkpt>
      <trkpt lat="43.20577167" lon="-4.214705">
        <ele>653.0</ele>
        <time>2018-05-19T10:37:28.882Z</time>
      </trkpt>
      <trkpt lat="43.20577167" lon="-4.214705">
        <ele>653.0</ele>
        <time>2018-05-19T10:37:29.875Z</time>
      </trkpt>
      <trkpt lat="43.20573333" lon="-4.21471333">
        <ele>654.0</ele>
        <time>2018-05-19T10:37:30.879Z</time>
      </trkpt>
      <trkpt lat="43.20573333" lon="-4.21471333">
        <ele>654.0</ele>
        <time>2018-05-19T10:37:31.883Z</time>
      </trkpt>
      <trkpt lat="43.20569833" lon="-4.214715">
        <ele>654.0</ele>
        <time>2018-05-19T10:37:32.844Z</time>
      </trkpt>
      <trkpt lat="43.20569833" lon="-4.214715">
        <ele>654.0</ele>
        <time>2018-05-19T10:37:33.847Z</time>
      </trkpt>
      <trkpt lat="43.205665" lon="-4.21471833">
        <ele>654.0</ele>
        <time>2018-05-19T10:37:34.844Z</time>
      </trkpt>
      <trkpt lat="43.205665" lon="-4.21471833">
        <ele>654.0</ele>
        <time>2018-05-19T10:37:35.878Z</time>
      </trkpt>
      <trkpt lat="43.20563" lon="-4.21472">
        <ele>654.0</ele>
        <time>2018-05-19T10:37:36.882Z</time>
      </trkpt>
      <trkpt lat="43.20563" lon="-4.21472">
        <ele>654.0</ele>
        <time>2018-05-19T10:37:37.874Z</time>
      </trkpt>
      <trkpt lat="43.20559333" lon="-4.21471667">
        <ele>655.0</ele>
        <time>2018-05-19T10:37:38.880Z</time>
      </trkpt>
      <trkpt lat="43.20559333" lon="-4.21471667">
        <ele>655.0</ele>
        <time>2018-05-19T10:37:39.884Z</time>
      </trkpt>
      <trkpt lat="43.20556" lon="-4.21471667">
        <ele>655.0</ele>
        <time>2018-05-19T10:37:40.852Z</time>
      </trkpt>
      <trkpt lat="43.20556" lon="-4.21471667">
        <ele>655.0</ele>
        <time>2018-05-19T10:37:41.844Z</time>
      </trkpt>
      <trkpt lat="43.205525" lon="-4.21471333">
        <ele>655.0</ele>
        <time>2018-05-19T10:37:42.879Z</time>
      </trkpt>
      <trkpt lat="43.205525" lon="-4.21471333">
        <ele>655.0</ele>
        <time>2018-05-19T10:37:43.878Z</time>
      </trkpt>
      <trkpt lat="43.20548667" lon="-4.21471167">
        <ele>655.0</ele>
        <time>2018-05-19T10:37:44.891Z</time>
      </trkpt>
      <trkpt lat="43.20548667" lon="-4.21471167">
        <ele>655.0</ele>
        <time>2018-05-19T10:37:45.850Z</time>
      </trkpt>
      <trkpt lat="43.20544667" lon="-4.21469833">
        <ele>655.0</ele>
        <time>2018-05-19T10:37:46.851Z</time>
      </trkpt>
      <trkpt lat="43.20544667" lon="-4.21469833">
        <ele>655.0</ele>
        <time>2018-05-19T10:37:47.857Z</time>
      </trkpt>
      <trkpt lat="43.20540833" lon="-4.21468167">
        <ele>656.0</ele>
        <time>2018-05-19T10:37:48.869Z</time>
      </trkpt>
      <trkpt lat="43.20540833" lon="-4.21468167">
        <ele>656.0</ele>
        <time>2018-05-19T10:37:49.875Z</time>
      </trkpt>
      <trkpt lat="43.205375" lon="-4.21466667">
        <ele>656.0</ele>
        <time>2018-05-19T10:37:50.858Z</time>
      </trkpt>
      <trkpt lat="43.20535833" lon="-4.21465667">
        <ele>656.0</ele>
        <time>2018-05-19T10:37:51.857Z</time>
      </trkpt>
      <trkpt lat="43.20534167" lon="-4.21464833">
        <ele>656.0</ele>
        <time>2018-05-19T10:37:52.883Z</time>
      </trkpt>
      <trkpt lat="43.20534167" lon="-4.21464833">
        <ele>656.0</ele>
        <time>2018-05-19T10:37:53.845Z</time>
      </trkpt>
      <trkpt lat="43.20531167" lon="-4.21463667">
        <ele>656.0</ele>
        <time>2018-05-19T10:37:54.879Z</time>
      </trkpt>
      <trkpt lat="43.20531167" lon="-4.21463667">
        <ele>656.0</ele>
        <time>2018-05-19T10:37:55.877Z</time>
      </trkpt>
      <trkpt lat="43.20527833" lon="-4.21462667">
        <ele>657.0</ele>
        <time>2018-05-19T10:37:56.878Z</time>
      </trkpt>
      <trkpt lat="43.20526" lon="-4.21462167">
        <ele>657.0</ele>
        <time>2018-05-19T10:37:57.882Z</time>
      </trkpt>
      <trkpt lat="43.20526" lon="-4.21462167">
        <ele>657.0</ele>
        <time>2018-05-19T10:37:58.877Z</time>
      </trkpt>
      <trkpt lat="43.20522333" lon="-4.21461">
        <ele>657.0</ele>
        <time>2018-05-19T10:37:59.881Z</time>
      </trkpt>
      <trkpt lat="43.20520667" lon="-4.214605">
        <ele>657.0</ele>
        <time>2018-05-19T10:38:00.880Z</time>
      </trkpt>
      <trkpt lat="43.20520667" lon="-4.214605">
        <ele>657.0</ele>
        <time>2018-05-19T10:38:01.871Z</time>
      </trkpt>
      <trkpt lat="43.20517333" lon="-4.21459167">
        <ele>658.0</ele>
        <time>2018-05-19T10:38:02.861Z</time>
      </trkpt>
      <trkpt lat="43.20515667" lon="-4.21458667">
        <ele>658.0</ele>
        <time>2018-05-19T10:38:03.847Z</time>
      </trkpt>
      <trkpt lat="43.20515667" lon="-4.21458667">
        <ele>658.0</ele>
        <time>2018-05-19T10:38:04.880Z</time>
      </trkpt>
      <trkpt lat="43.20512" lon="-4.21457667">
        <ele>658.0</ele>
        <time>2018-05-19T10:38:05.878Z</time>
      </trkpt>
      <trkpt lat="43.20510333" lon="-4.21457">
        <ele>658.0</ele>
        <time>2018-05-19T10:38:06.879Z</time>
      </trkpt>
      <trkpt lat="43.20510333" lon="-4.21457">
        <ele>658.0</ele>
        <time>2018-05-19T10:38:07.876Z</time>
      </trkpt>
      <trkpt lat="43.20506833" lon="-4.21456">
        <ele>658.0</ele>
        <time>2018-05-19T10:38:08.847Z</time>
      </trkpt>
      <trkpt lat="43.20506833" lon="-4.21456">
        <ele>658.0</ele>
        <time>2018-05-19T10:38:09.878Z</time>
      </trkpt>
      <trkpt lat="43.20503333" lon="-4.21454667">
        <ele>659.0</ele>
        <time>2018-05-19T10:38:10.880Z</time>
      </trkpt>
      <trkpt lat="43.20503333" lon="-4.21454667">
        <ele>659.0</ele>
        <time>2018-05-19T10:38:11.872Z</time>
      </trkpt>
      <trkpt lat="43.205" lon="-4.214535">
        <ele>659.0</ele>
        <time>2018-05-19T10:38:12.855Z</time>
      </trkpt>
      <trkpt lat="43.205" lon="-4.214535">
        <ele>659.0</ele>
        <time>2018-05-19T10:38:13.882Z</time>
      </trkpt>
      <trkpt lat="43.20496833" lon="-4.21452333">
        <ele>659.0</ele>
        <time>2018-05-19T10:38:14.877Z</time>
      </trkpt>
      <trkpt lat="43.20496833" lon="-4.21452333">
        <ele>659.0</ele>
        <time>2018-05-19T10:38:15.871Z</time>
      </trkpt>
      <trkpt lat="43.204935" lon="-4.21451333">
        <ele>659.0</ele>
        <time>2018-05-19T10:38:16.853Z</time>
      </trkpt>
      <trkpt lat="43.204935" lon="-4.21451333">
        <ele>659.0</ele>
        <time>2018-05-19T10:38:17.878Z</time>
      </trkpt>
      <trkpt lat="43.20490333" lon="-4.21450167">
        <ele>660.0</ele>
        <time>2018-05-19T10:38:18.879Z</time>
      </trkpt>
      <trkpt lat="43.20490333" lon="-4.21450167">
        <ele>660.0</ele>
        <time>2018-05-19T10:38:19.866Z</time>
      </trkpt>
      <trkpt lat="43.204875" lon="-4.21448167">
        <ele>660.0</ele>
        <time>2018-05-19T10:38:20.851Z</time>
      </trkpt>
      <trkpt lat="43.204875" lon="-4.21448167">
        <ele>660.0</ele>
        <time>2018-05-19T10:38:21.879Z</time>
      </trkpt>
      <trkpt lat="43.204845" lon="-4.214465">
        <ele>660.0</ele>
        <time>2018-05-19T10:38:22.844Z</time>
      </trkpt>
      <trkpt lat="43.204845" lon="-4.214465">
        <ele>660.0</ele>
        <time>2018-05-19T10:38:23.879Z</time>
      </trkpt>
      <trkpt lat="43.204815" lon="-4.21444667">
        <ele>660.0</ele>
        <time>2018-05-19T10:38:24.845Z</time>
      </trkpt>
      <trkpt lat="43.204815" lon="-4.21444667">
        <ele>660.0</ele>
        <time>2018-05-19T10:38:25.878Z</time>
      </trkpt>
      <trkpt lat="43.20478667" lon="-4.21442667">
        <ele>661.0</ele>
        <time>2018-05-19T10:38:26.881Z</time>
      </trkpt>
      <trkpt lat="43.20478667" lon="-4.21442667">
        <ele>661.0</ele>
        <time>2018-05-19T10:38:27.878Z</time>
      </trkpt>
      <trkpt lat="43.204755" lon="-4.21441">
        <ele>661.0</ele>
        <time>2018-05-19T10:38:28.881Z</time>
      </trkpt>
      <trkpt lat="43.204755" lon="-4.21441">
        <ele>661.0</ele>
        <time>2018-05-19T10:38:29.875Z</time>
      </trkpt>
      <trkpt lat="43.204725" lon="-4.21439167">
        <ele>661.0</ele>
        <time>2018-05-19T10:38:30.879Z</time>
      </trkpt>
      <trkpt lat="43.204725" lon="-4.21439167">
        <ele>661.0</ele>
        <time>2018-05-19T10:38:31.877Z</time>
      </trkpt>
      <trkpt lat="43.20468667" lon="-4.21437167">
        <ele>661.0</ele>
        <time>2018-05-19T10:38:32.878Z</time>
      </trkpt>
      <trkpt lat="43.20466667" lon="-4.21436167">
        <ele>661.0</ele>
        <time>2018-05-19T10:38:33.851Z</time>
      </trkpt>
      <trkpt lat="43.20466667" lon="-4.21436167">
        <ele>661.0</ele>
        <time>2018-05-19T10:38:34.880Z</time>
      </trkpt>
      <trkpt lat="43.20463" lon="-4.21434667">
        <ele>662.0</ele>
        <time>2018-05-19T10:38:35.878Z</time>
      </trkpt>
      <trkpt lat="43.20463" lon="-4.21434667">
        <ele>662.0</ele>
        <time>2018-05-19T10:38:36.878Z</time>
      </trkpt>
      <trkpt lat="43.20459667" lon="-4.21433667">
        <ele>662.0</ele>
        <time>2018-05-19T10:38:37.877Z</time>
      </trkpt>
      <trkpt lat="43.20459667" lon="-4.21433667">
        <ele>662.0</ele>
        <time>2018-05-19T10:38:38.875Z</time>
      </trkpt>
      <trkpt lat="43.20456333" lon="-4.21432833">
        <ele>662.0</ele>
        <time>2018-05-19T10:38:39.890Z</time>
      </trkpt>
      <trkpt lat="43.20456333" lon="-4.21432833">
        <ele>662.0</ele>
        <time>2018-05-19T10:38:40.845Z</time>
      </trkpt>
      <trkpt lat="43.20452667" lon="-4.21432667">
        <ele>662.0</ele>
        <time>2018-05-19T10:38:41.881Z</time>
      </trkpt>
      <trkpt lat="43.20451" lon="-4.214325">
        <ele>662.0</ele>
        <time>2018-05-19T10:38:42.881Z</time>
      </trkpt>
      <trkpt lat="43.20451" lon="-4.214325">
        <ele>662.0</ele>
        <time>2018-05-19T10:38:43.880Z</time>
      </trkpt>
      <trkpt lat="43.20447333" lon="-4.21433167">
        <ele>663.0</ele>
        <time>2018-05-19T10:38:44.881Z</time>
      </trkpt>
      <trkpt lat="43.20447333" lon="-4.21433167">
        <ele>663.0</ele>
        <time>2018-05-19T10:38:45.863Z</time>
      </trkpt>
      <trkpt lat="43.20443833" lon="-4.21434333">
        <ele>663.0</ele>
        <time>2018-05-19T10:38:46.881Z</time>
      </trkpt>
      <trkpt lat="43.20442167" lon="-4.21435167">
        <ele>663.0</ele>
        <time>2018-05-19T10:38:47.847Z</time>
      </trkpt>
      <trkpt lat="43.20440333" lon="-4.21436167">
        <ele>663.0</ele>
        <time>2018-05-19T10:38:48.853Z</time>
      </trkpt>
      <trkpt lat="43.20440333" lon="-4.21436167">
        <ele>663.0</ele>
        <time>2018-05-19T10:38:49.862Z</time>
      </trkpt>
      <trkpt lat="43.20436667" lon="-4.21437833">
        <ele>663.0</ele>
        <time>2018-05-19T10:38:50.849Z</time>
      </trkpt>
      <trkpt lat="43.20436667" lon="-4.21437833">
        <ele>663.0</ele>
        <time>2018-05-19T10:38:51.878Z</time>
      </trkpt>
      <trkpt lat="43.20433" lon="-4.21438833">
        <ele>663.0</ele>
        <time>2018-05-19T10:38:52.857Z</time>
      </trkpt>
      <trkpt lat="43.20433" lon="-4.21438833">
        <ele>663.0</ele>
        <time>2018-05-19T10:38:53.882Z</time>
      </trkpt>
      <trkpt lat="43.20429333" lon="-4.21440167">
        <ele>664.0</ele>
        <time>2018-05-19T10:38:54.881Z</time>
      </trkpt>
      <trkpt lat="43.20429333" lon="-4.21440167">
        <ele>664.0</ele>
        <time>2018-05-19T10:38:55.876Z</time>
      </trkpt>
      <trkpt lat="43.204255" lon="-4.21441333">
        <ele>664.0</ele>
        <time>2018-05-19T10:38:56.874Z</time>
      </trkpt>
      <trkpt lat="43.204255" lon="-4.21441333">
        <ele>664.0</ele>
        <time>2018-05-19T10:38:57.875Z</time>
      </trkpt>
      <trkpt lat="43.20421667" lon="-4.21442333">
        <ele>664.0</ele>
        <time>2018-05-19T10:38:58.881Z</time>
      </trkpt>
      <trkpt lat="43.20421667" lon="-4.21442333">
        <ele>664.0</ele>
        <time>2018-05-19T10:38:59.875Z</time>
      </trkpt>
      <trkpt lat="43.20417833" lon="-4.21443667">
        <ele>664.0</ele>
        <time>2018-05-19T10:39:00.874Z</time>
      </trkpt>
      <trkpt lat="43.20417833" lon="-4.21443667">
        <ele>664.0</ele>
        <time>2018-05-19T10:39:01.870Z</time>
      </trkpt>
      <trkpt lat="43.20413833" lon="-4.21445">
        <ele>664.0</ele>
        <time>2018-05-19T10:39:02.873Z</time>
      </trkpt>
      <trkpt lat="43.20413833" lon="-4.21445">
        <ele>664.0</ele>
        <time>2018-05-19T10:39:03.861Z</time>
      </trkpt>
      <trkpt lat="43.20410167" lon="-4.21446333">
        <ele>665.0</ele>
        <time>2018-05-19T10:39:04.848Z</time>
      </trkpt>
      <trkpt lat="43.20410167" lon="-4.21446333">
        <ele>665.0</ele>
        <time>2018-05-19T10:39:05.875Z</time>
      </trkpt>
      <trkpt lat="43.204065" lon="-4.21448">
        <ele>665.0</ele>
        <time>2018-05-19T10:39:06.879Z</time>
      </trkpt>
      <trkpt lat="43.204065" lon="-4.21448">
        <ele>665.0</ele>
        <time>2018-05-19T10:39:07.875Z</time>
      </trkpt>
      <trkpt lat="43.20403" lon="-4.21449667">
        <ele>665.0</ele>
        <time>2018-05-19T10:39:08.877Z</time>
      </trkpt>
      <trkpt lat="43.20403" lon="-4.21449667">
        <ele>665.0</ele>
        <time>2018-05-19T10:39:09.877Z</time>
      </trkpt>
      <trkpt lat="43.20399333" lon="-4.21451167">
        <ele>665.0</ele>
        <time>2018-05-19T10:39:10.862Z</time>
      </trkpt>
      <trkpt lat="43.20399333" lon="-4.21451167">
        <ele>665.0</ele>
        <time>2018-05-19T10:39:11.847Z</time>
      </trkpt>
      <trkpt lat="43.20396167" lon="-4.21453">
        <ele>666.0</ele>
        <time>2018-05-19T10:39:12.846Z</time>
      </trkpt>
      <trkpt lat="43.20394833" lon="-4.21454167">
        <ele>666.0</ele>
        <time>2018-05-19T10:39:13.881Z</time>
      </trkpt>
      <trkpt lat="43.20393167" lon="-4.21455333">
        <ele>666.0</ele>
        <time>2018-05-19T10:39:14.877Z</time>
      </trkpt>
      <trkpt lat="43.203915" lon="-4.21456667">
        <ele>666.0</ele>
        <time>2018-05-19T10:39:15.858Z</time>
      </trkpt>
      <trkpt lat="43.203915" lon="-4.21456667">
        <ele>666.0</ele>
        <time>2018-05-19T10:39:16.882Z</time>
      </trkpt>
      <trkpt lat="43.20388167" lon="-4.214595">
        <ele>666.0</ele>
        <time>2018-05-19T10:39:17.880Z</time>
      </trkpt>
      <trkpt lat="43.20386333" lon="-4.21460833">
        <ele>666.0</ele>
        <time>2018-05-19T10:39:18.883Z</time>
      </trkpt>
      <trkpt lat="43.20386333" lon="-4.21460833">
        <ele>666.0</ele>
        <time>2018-05-19T10:39:19.872Z</time>
      </trkpt>
      <trkpt lat="43.20382833" lon="-4.21463833">
        <ele>666.0</ele>
        <time>2018-05-19T10:39:20.857Z</time>
      </trkpt>
      <trkpt lat="43.20382833" lon="-4.21463833">
        <ele>666.0</ele>
        <time>2018-05-19T10:39:21.880Z</time>
      </trkpt>
      <trkpt lat="43.203795" lon="-4.21467">
        <ele>666.0</ele>
        <time>2018-05-19T10:39:22.882Z</time>
      </trkpt>
      <trkpt lat="43.20377667" lon="-4.21468667">
        <ele>666.0</ele>
        <time>2018-05-19T10:39:23.881Z</time>
      </trkpt>
      <trkpt lat="43.20375833" lon="-4.21470167">
        <ele>666.0</ele>
        <time>2018-05-19T10:39:24.879Z</time>
      </trkpt>
      <trkpt lat="43.20375833" lon="-4.21470167">
        <ele>666.0</ele>
        <time>2018-05-19T10:39:25.875Z</time>
      </trkpt>
      <trkpt lat="43.20372333" lon="-4.214735">
        <ele>666.0</ele>
        <time>2018-05-19T10:39:26.877Z</time>
      </trkpt>
      <trkpt lat="43.20372333" lon="-4.214735">
        <ele>666.0</ele>
        <time>2018-05-19T10:39:27.877Z</time>
      </trkpt>
      <trkpt lat="43.20369" lon="-4.21476833">
        <ele>667.0</ele>
        <time>2018-05-19T10:39:28.874Z</time>
      </trkpt>
      <trkpt lat="43.20369" lon="-4.21476833">
        <ele>667.0</ele>
        <time>2018-05-19T10:39:29.882Z</time>
      </trkpt>
      <trkpt lat="43.203655" lon="-4.21480333">
        <ele>667.0</ele>
        <time>2018-05-19T10:39:30.877Z</time>
      </trkpt>
      <trkpt lat="43.20363833" lon="-4.21482167">
        <ele>667.0</ele>
        <time>2018-05-19T10:39:31.879Z</time>
      </trkpt>
      <trkpt lat="43.20363833" lon="-4.21482167">
        <ele>667.0</ele>
        <time>2018-05-19T10:39:32.872Z</time>
      </trkpt>
      <trkpt lat="43.20360833" lon="-4.21486">
        <ele>667.0</ele>
        <time>2018-05-19T10:39:33.859Z</time>
      </trkpt>
      <trkpt lat="43.20360833" lon="-4.21486">
        <ele>667.0</ele>
        <time>2018-05-19T10:39:34.882Z</time>
      </trkpt>
      <trkpt lat="43.20357667" lon="-4.21489333">
        <ele>668.0</ele>
        <time>2018-05-19T10:39:35.882Z</time>
      </trkpt>
      <trkpt lat="43.20356167" lon="-4.21491">
        <ele>668.0</ele>
        <time>2018-05-19T10:39:36.844Z</time>
      </trkpt>
      <trkpt lat="43.20356167" lon="-4.21491">
        <ele>668.0</ele>
        <time>2018-05-19T10:39:37.873Z</time>
      </trkpt>
      <trkpt lat="43.203525" lon="-4.21493833">
        <ele>668.0</ele>
        <time>2018-05-19T10:39:38.877Z</time>
      </trkpt>
      <trkpt lat="43.203525" lon="-4.21493833">
        <ele>668.0</ele>
        <time>2018-05-19T10:39:39.884Z</time>
      </trkpt>
      <trkpt lat="43.20348833" lon="-4.21496333">
        <ele>668.0</ele>
        <time>2018-05-19T10:39:40.845Z</time>
      </trkpt>
      <trkpt lat="43.20348833" lon="-4.21496333">
        <ele>668.0</ele>
        <time>2018-05-19T10:39:41.877Z</time>
      </trkpt>
      <trkpt lat="43.20345333" lon="-4.21498333">
        <ele>669.0</ele>
        <time>2018-05-19T10:39:42.878Z</time>
      </trkpt>
      <trkpt lat="43.20345333" lon="-4.21498333">
        <ele>669.0</ele>
        <time>2018-05-19T10:39:43.853Z</time>
      </trkpt>
      <trkpt lat="43.20342" lon="-4.215005">
        <ele>670.0</ele>
        <time>2018-05-19T10:39:44.854Z</time>
      </trkpt>
      <trkpt lat="43.20342" lon="-4.215005">
        <ele>670.0</ele>
        <time>2018-05-19T10:39:45.862Z</time>
      </trkpt>
      <trkpt lat="43.20338" lon="-4.215025">
        <ele>670.0</ele>
        <time>2018-05-19T10:39:46.863Z</time>
      </trkpt>
      <trkpt lat="43.20336333" lon="-4.21502667">
        <ele>670.0</ele>
        <time>2018-05-19T10:39:47.871Z</time>
      </trkpt>
      <trkpt lat="43.203345" lon="-4.21502833">
        <ele>670.0</ele>
        <time>2018-05-19T10:39:48.857Z</time>
      </trkpt>
      <trkpt lat="43.203345" lon="-4.21502833">
        <ele>670.0</ele>
        <time>2018-05-19T10:39:49.880Z</time>
      </trkpt>
      <trkpt lat="43.2033" lon="-4.21503">
        <ele>671.0</ele>
        <time>2018-05-19T10:39:50.878Z</time>
      </trkpt>
      <trkpt lat="43.2033" lon="-4.21503">
        <ele>671.0</ele>
        <time>2018-05-19T10:39:51.868Z</time>
      </trkpt>
      <trkpt lat="43.20325833" lon="-4.21501667">
        <ele>671.0</ele>
        <time>2018-05-19T10:39:52.853Z</time>
      </trkpt>
      <trkpt lat="43.20325833" lon="-4.21501667">
        <ele>671.0</ele>
        <time>2018-05-19T10:39:53.880Z</time>
      </trkpt>
      <trkpt lat="43.203225" lon="-4.21498833">
        <ele>672.0</ele>
        <time>2018-05-19T10:39:54.849Z</time>
      </trkpt>
      <trkpt lat="43.203225" lon="-4.21498833">
        <ele>672.0</ele>
        <time>2018-05-19T10:39:55.878Z</time>
      </trkpt>
      <trkpt lat="43.20319333" lon="-4.21495667">
        <ele>673.0</ele>
        <time>2018-05-19T10:39:56.873Z</time>
      </trkpt>
      <trkpt lat="43.20319333" lon="-4.21495667">
        <ele>673.0</ele>
        <time>2018-05-19T10:39:57.875Z</time>
      </trkpt>
      <trkpt lat="43.203165" lon="-4.214915">
        <ele>673.0</ele>
        <time>2018-05-19T10:39:58.881Z</time>
      </trkpt>
      <trkpt lat="43.203165" lon="-4.214915">
        <ele>673.0</ele>
        <time>2018-05-19T10:39:59.877Z</time>
      </trkpt>
      <trkpt lat="43.20314" lon="-4.21486667">
        <ele>674.0</ele>
        <time>2018-05-19T10:40:00.883Z</time>
      </trkpt>
      <trkpt lat="43.20314" lon="-4.21486667">
        <ele>674.0</ele>
        <time>2018-05-19T10:40:01.869Z</time>
      </trkpt>
      <trkpt lat="43.203115" lon="-4.21482">
        <ele>675.0</ele>
        <time>2018-05-19T10:40:02.855Z</time>
      </trkpt>
      <trkpt lat="43.203115" lon="-4.21482">
        <ele>675.0</ele>
        <time>2018-05-19T10:40:03.878Z</time>
      </trkpt>
      <trkpt lat="43.20308667" lon="-4.21477667">
        <ele>676.0</ele>
        <time>2018-05-19T10:40:04.876Z</time>
      </trkpt>
      <trkpt lat="43.20308667" lon="-4.21477667">
        <ele>676.0</ele>
        <time>2018-05-19T10:40:05.870Z</time>
      </trkpt>
      <trkpt lat="43.20305833" lon="-4.21473167">
        <ele>676.0</ele>
        <time>2018-05-19T10:40:06.853Z</time>
      </trkpt>
      <trkpt lat="43.20305833" lon="-4.21473167">
        <ele>676.0</ele>
        <time>2018-05-19T10:40:07.878Z</time>
      </trkpt>
      <trkpt lat="43.20302333" lon="-4.21469">
        <ele>677.0</ele>
        <time>2018-05-19T10:40:08.880Z</time>
      </trkpt>
      <trkpt lat="43.20302333" lon="-4.21469">
        <ele>677.0</ele>
        <time>2018-05-19T10:40:09.874Z</time>
      </trkpt>
      <trkpt lat="43.20299" lon="-4.21464833">
        <ele>678.0</ele>
        <time>2018-05-19T10:40:10.881Z</time>
      </trkpt>
      <trkpt lat="43.20299" lon="-4.21464833">
        <ele>678.0</ele>
        <time>2018-05-19T10:40:11.875Z</time>
      </trkpt>
      <trkpt lat="43.20296167" lon="-4.21460833">
        <ele>678.0</ele>
        <time>2018-05-19T10:40:12.880Z</time>
      </trkpt>
      <trkpt lat="43.20296167" lon="-4.21460833">
        <ele>678.0</ele>
        <time>2018-05-19T10:40:13.879Z</time>
      </trkpt>
      <trkpt lat="43.20293333" lon="-4.21456667">
        <ele>679.0</ele>
        <time>2018-05-19T10:40:14.873Z</time>
      </trkpt>
      <trkpt lat="43.20293333" lon="-4.21456667">
        <ele>679.0</ele>
        <time>2018-05-19T10:40:15.857Z</time>
      </trkpt>
      <trkpt lat="43.202905" lon="-4.214525">
        <ele>679.0</ele>
        <time>2018-05-19T10:40:16.881Z</time>
      </trkpt>
      <trkpt lat="43.202905" lon="-4.214525">
        <ele>679.0</ele>
        <time>2018-05-19T10:40:17.876Z</time>
      </trkpt>
      <trkpt lat="43.20287667" lon="-4.21448167">
        <ele>680.0</ele>
        <time>2018-05-19T10:40:18.879Z</time>
      </trkpt>
      <trkpt lat="43.20287667" lon="-4.21448167">
        <ele>680.0</ele>
        <time>2018-05-19T10:40:19.868Z</time>
      </trkpt>
      <trkpt lat="43.20284833" lon="-4.21443833">
        <ele>680.0</ele>
        <time>2018-05-19T10:40:20.881Z</time>
      </trkpt>
      <trkpt lat="43.20283333" lon="-4.21441667">
        <ele>680.0</ele>
        <time>2018-05-19T10:40:21.880Z</time>
      </trkpt>
      <trkpt lat="43.20282167" lon="-4.21439333">
        <ele>680.0</ele>
        <time>2018-05-19T10:40:22.881Z</time>
      </trkpt>
      <trkpt lat="43.20282167" lon="-4.21439333">
        <ele>680.0</ele>
        <time>2018-05-19T10:40:23.860Z</time>
      </trkpt>
      <trkpt lat="43.20279167" lon="-4.21434667">
        <ele>680.0</ele>
        <time>2018-05-19T10:40:24.847Z</time>
      </trkpt>
      <trkpt lat="43.20279167" lon="-4.21434667">
        <ele>680.0</ele>
        <time>2018-05-19T10:40:25.880Z</time>
      </trkpt>
      <trkpt lat="43.20276167" lon="-4.21430167">
        <ele>681.0</ele>
        <time>2018-05-19T10:40:26.880Z</time>
      </trkpt>
      <trkpt lat="43.20276167" lon="-4.21430167">
        <ele>681.0</ele>
        <time>2018-05-19T10:40:27.875Z</time>
      </trkpt>
      <trkpt lat="43.20273333" lon="-4.21425333">
        <ele>681.0</ele>
        <time>2018-05-19T10:40:28.881Z</time>
      </trkpt>
      <trkpt lat="43.20273333" lon="-4.21425333">
        <ele>681.0</ele>
        <time>2018-05-19T10:40:29.875Z</time>
      </trkpt>
      <trkpt lat="43.2027" lon="-4.21420833">
        <ele>682.0</ele>
        <time>2018-05-19T10:40:30.882Z</time>
      </trkpt>
      <trkpt lat="43.2027" lon="-4.21420833">
        <ele>682.0</ele>
        <time>2018-05-19T10:40:31.876Z</time>
      </trkpt>
      <trkpt lat="43.20266333" lon="-4.214165">
        <ele>682.0</ele>
        <time>2018-05-19T10:40:32.881Z</time>
      </trkpt>
      <trkpt lat="43.20264333" lon="-4.21414667">
        <ele>682.0</ele>
        <time>2018-05-19T10:40:33.883Z</time>
      </trkpt>
      <trkpt lat="43.20264333" lon="-4.21414667">
        <ele>682.0</ele>
        <time>2018-05-19T10:40:34.873Z</time>
      </trkpt>
      <trkpt lat="43.20260333" lon="-4.21410833">
        <ele>682.0</ele>
        <time>2018-05-19T10:40:35.880Z</time>
      </trkpt>
      <trkpt lat="43.20258333" lon="-4.21409">
        <ele>682.0</ele>
        <time>2018-05-19T10:40:36.882Z</time>
      </trkpt>
      <trkpt lat="43.20258333" lon="-4.21409">
        <ele>682.0</ele>
        <time>2018-05-19T10:40:37.869Z</time>
      </trkpt>
      <trkpt lat="43.20254" lon="-4.214055">
        <ele>683.0</ele>
        <time>2018-05-19T10:40:38.853Z</time>
      </trkpt>
      <trkpt lat="43.20254" lon="-4.214055">
        <ele>683.0</ele>
        <time>2018-05-19T10:40:39.885Z</time>
      </trkpt>
      <trkpt lat="43.202495" lon="-4.21402167">
        <ele>683.0</ele>
        <time>2018-05-19T10:40:40.882Z</time>
      </trkpt>
      <trkpt lat="43.202495" lon="-4.21402167">
        <ele>683.0</ele>
        <time>2018-05-19T10:40:41.875Z</time>
      </trkpt>
      <trkpt lat="43.20245" lon="-4.213985">
        <ele>683.0</ele>
        <time>2018-05-19T10:40:42.874Z</time>
      </trkpt>
      <trkpt lat="43.20245" lon="-4.213985">
        <ele>683.0</ele>
        <time>2018-05-19T10:40:43.862Z</time>
      </trkpt>
      <trkpt lat="43.20240167" lon="-4.21395833">
        <ele>683.0</ele>
        <time>2018-05-19T10:40:44.851Z</time>
      </trkpt>
      <trkpt lat="43.20240167" lon="-4.21395833">
        <ele>683.0</ele>
        <time>2018-05-19T10:40:45.849Z</time>
      </trkpt>
      <trkpt lat="43.20235333" lon="-4.213935">
        <ele>683.0</ele>
        <time>2018-05-19T10:40:46.875Z</time>
      </trkpt>
      <trkpt lat="43.20233" lon="-4.21392333">
        <ele>683.0</ele>
        <time>2018-05-19T10:40:47.881Z</time>
      </trkpt>
      <trkpt lat="43.20233" lon="-4.21392333">
        <ele>683.0</ele>
        <time>2018-05-19T10:40:48.847Z</time>
      </trkpt>
      <trkpt lat="43.20228" lon="-4.21389833">
        <ele>683.0</ele>
        <time>2018-05-19T10:40:49.880Z</time>
      </trkpt>
      <trkpt lat="43.20228" lon="-4.21389833">
        <ele>683.0</ele>
        <time>2018-05-19T10:40:50.848Z</time>
      </trkpt>
      <trkpt lat="43.202235" lon="-4.21386833">
        <ele>683.0</ele>
        <time>2018-05-19T10:40:51.876Z</time>
      </trkpt>
      <trkpt lat="43.202215" lon="-4.21385333">
        <ele>683.0</ele>
        <time>2018-05-19T10:40:52.860Z</time>
      </trkpt>
      <trkpt lat="43.202215" lon="-4.21385333">
        <ele>683.0</ele>
        <time>2018-05-19T10:40:53.875Z</time>
      </trkpt>
      <trkpt lat="43.202175" lon="-4.21382333">
        <ele>684.0</ele>
        <time>2018-05-19T10:40:54.878Z</time>
      </trkpt>
      <trkpt lat="43.202175" lon="-4.21382333">
        <ele>684.0</ele>
        <time>2018-05-19T10:40:55.872Z</time>
      </trkpt>
      <trkpt lat="43.20214167" lon="-4.21378667">
        <ele>684.0</ele>
        <time>2018-05-19T10:40:56.882Z</time>
      </trkpt>
      <trkpt lat="43.20214167" lon="-4.21378667">
        <ele>684.0</ele>
        <time>2018-05-19T10:40:57.875Z</time>
      </trkpt>
      <trkpt lat="43.20210167" lon="-4.21375">
        <ele>684.0</ele>
        <time>2018-05-19T10:40:58.881Z</time>
      </trkpt>
      <trkpt lat="43.20210167" lon="-4.21375">
        <ele>684.0</ele>
        <time>2018-05-19T10:40:59.877Z</time>
      </trkpt>
      <trkpt lat="43.202065" lon="-4.21371333">
        <ele>684.0</ele>
        <time>2018-05-19T10:41:00.881Z</time>
      </trkpt>
      <trkpt lat="43.202065" lon="-4.21371333">
        <ele>684.0</ele>
        <time>2018-05-19T10:41:01.875Z</time>
      </trkpt>
      <trkpt lat="43.20203" lon="-4.213675">
        <ele>684.0</ele>
        <time>2018-05-19T10:41:02.880Z</time>
      </trkpt>
      <trkpt lat="43.20203" lon="-4.213675">
        <ele>684.0</ele>
        <time>2018-05-19T10:41:03.872Z</time>
      </trkpt>
      <trkpt lat="43.20200167" lon="-4.21362">
        <ele>685.0</ele>
        <time>2018-05-19T10:41:04.857Z</time>
      </trkpt>
      <trkpt lat="43.20200167" lon="-4.21362">
        <ele>685.0</ele>
        <time>2018-05-19T10:41:05.882Z</time>
      </trkpt>
      <trkpt lat="43.201975" lon="-4.21355833">
        <ele>685.0</ele>
        <time>2018-05-19T10:41:06.881Z</time>
      </trkpt>
      <trkpt lat="43.201975" lon="-4.21355833">
        <ele>685.0</ele>
        <time>2018-05-19T10:41:07.876Z</time>
      </trkpt>
      <trkpt lat="43.20195667" lon="-4.213495">
        <ele>685.0</ele>
        <time>2018-05-19T10:41:08.877Z</time>
      </trkpt>
      <trkpt lat="43.20195" lon="-4.21346333">
        <ele>685.0</ele>
        <time>2018-05-19T10:41:09.881Z</time>
      </trkpt>
      <trkpt lat="43.20195" lon="-4.21346333">
        <ele>685.0</ele>
        <time>2018-05-19T10:41:10.874Z</time>
      </trkpt>
      <trkpt lat="43.20194" lon="-4.21339833">
        <ele>685.0</ele>
        <time>2018-05-19T10:41:11.879Z</time>
      </trkpt>
      <trkpt lat="43.201935" lon="-4.213365">
        <ele>685.0</ele>
        <time>2018-05-19T10:41:12.873Z</time>
      </trkpt>
      <trkpt lat="43.201935" lon="-4.213365">
        <ele>685.0</ele>
        <time>2018-05-19T10:41:13.871Z</time>
      </trkpt>
      <trkpt lat="43.20192833" lon="-4.21329667">
        <ele>686.0</ele>
        <time>2018-05-19T10:41:14.853Z</time>
      </trkpt>
      <trkpt lat="43.20192833" lon="-4.21329667">
        <ele>686.0</ele>
        <time>2018-05-19T10:41:15.878Z</time>
      </trkpt>
      <trkpt lat="43.20192" lon="-4.21322833">
        <ele>686.0</ele>
        <time>2018-05-19T10:41:16.881Z</time>
      </trkpt>
      <trkpt lat="43.20192" lon="-4.21322833">
        <ele>686.0</ele>
        <time>2018-05-19T10:41:17.874Z</time>
      </trkpt>
      <trkpt lat="43.20190667" lon="-4.21315833">
        <ele>686.0</ele>
        <time>2018-05-19T10:41:18.880Z</time>
      </trkpt>
      <trkpt lat="43.20190667" lon="-4.21315833">
        <ele>686.0</ele>
        <time>2018-05-19T10:41:19.862Z</time>
      </trkpt>
      <trkpt lat="43.20189167" lon="-4.213085">
        <ele>686.0</ele>
        <time>2018-05-19T10:41:20.849Z</time>
      </trkpt>
      <trkpt lat="43.20189167" lon="-4.213085">
        <ele>686.0</ele>
        <time>2018-05-19T10:41:21.877Z</time>
      </trkpt>
      <trkpt lat="43.20187333" lon="-4.21301">
        <ele>687.0</ele>
        <time>2018-05-19T10:41:22.873Z</time>
      </trkpt>
      <trkpt lat="43.20187333" lon="-4.21301">
        <ele>687.0</ele>
        <time>2018-05-19T10:41:23.861Z</time>
      </trkpt>
      <trkpt lat="43.20185333" lon="-4.21293667">
        <ele>687.0</ele>
        <time>2018-05-19T10:41:24.853Z</time>
      </trkpt>
      <trkpt lat="43.20185333" lon="-4.21293667">
        <ele>687.0</ele>
        <time>2018-05-19T10:41:25.878Z</time>
      </trkpt>
      <trkpt lat="43.20183" lon="-4.21286333">
        <ele>688.0</ele>
        <time>2018-05-19T10:41:26.877Z</time>
      </trkpt>
      <trkpt lat="43.20181667" lon="-4.21282833">
        <ele>687.0</ele>
        <time>2018-05-19T10:41:27.881Z</time>
      </trkpt>
      <trkpt lat="43.20181667" lon="-4.21282833">
        <ele>687.0</ele>
        <time>2018-05-19T10:41:28.878Z</time>
      </trkpt>
      <trkpt lat="43.20178667" lon="-4.21276333">
        <ele>688.0</ele>
        <time>2018-05-19T10:41:29.880Z</time>
      </trkpt>
      <trkpt lat="43.20176833" lon="-4.21273167">
        <ele>688.0</ele>
        <time>2018-05-19T10:41:30.874Z</time>
      </trkpt>
      <trkpt lat="43.20176833" lon="-4.21273167">
        <ele>688.0</ele>
        <time>2018-05-19T10:41:31.872Z</time>
      </trkpt>
      <trkpt lat="43.20173" lon="-4.21268">
        <ele>688.0</ele>
        <time>2018-05-19T10:41:32.873Z</time>
      </trkpt>
      <trkpt lat="43.20173" lon="-4.21268">
        <ele>688.0</ele>
        <time>2018-05-19T10:41:33.866Z</time>
      </trkpt>
      <trkpt lat="43.20168833" lon="-4.212635">
        <ele>689.0</ele>
        <time>2018-05-19T10:41:34.851Z</time>
      </trkpt>
      <trkpt lat="43.20168833" lon="-4.212635">
        <ele>689.0</ele>
        <time>2018-05-19T10:41:35.879Z</time>
      </trkpt>
      <trkpt lat="43.20164167" lon="-4.21259333">
        <ele>689.0</ele>
        <time>2018-05-19T10:41:36.881Z</time>
      </trkpt>
      <trkpt lat="43.20164167" lon="-4.21259333">
        <ele>689.0</ele>
        <time>2018-05-19T10:41:37.875Z</time>
      </trkpt>
      <trkpt lat="43.20160333" lon="-4.21255667">
        <ele>689.0</ele>
        <time>2018-05-19T10:41:38.879Z</time>
      </trkpt>
      <trkpt lat="43.20160333" lon="-4.21255667">
        <ele>689.0</ele>
        <time>2018-05-19T10:41:39.889Z</time>
      </trkpt>
      <trkpt lat="43.20156" lon="-4.21252">
        <ele>690.0</ele>
        <time>2018-05-19T10:41:40.855Z</time>
      </trkpt>
      <trkpt lat="43.20156" lon="-4.21252">
        <ele>690.0</ele>
        <time>2018-05-19T10:41:41.881Z</time>
      </trkpt>
      <trkpt lat="43.20151833" lon="-4.21248167">
        <ele>691.0</ele>
        <time>2018-05-19T10:41:42.878Z</time>
      </trkpt>
      <trkpt lat="43.20151833" lon="-4.21248167">
        <ele>691.0</ele>
        <time>2018-05-19T10:41:43.881Z</time>
      </trkpt>
      <trkpt lat="43.20148" lon="-4.21244333">
        <ele>691.0</ele>
        <time>2018-05-19T10:41:44.879Z</time>
      </trkpt>
      <trkpt lat="43.20148" lon="-4.21244333">
        <ele>691.0</ele>
        <time>2018-05-19T10:41:45.862Z</time>
      </trkpt>
      <trkpt lat="43.20144833" lon="-4.21239167">
        <ele>691.0</ele>
        <time>2018-05-19T10:41:46.867Z</time>
      </trkpt>
      <trkpt lat="43.20143667" lon="-4.21236333">
        <ele>691.0</ele>
        <time>2018-05-19T10:41:47.877Z</time>
      </trkpt>
      <trkpt lat="43.20143667" lon="-4.21236333">
        <ele>691.0</ele>
        <time>2018-05-19T10:41:48.844Z</time>
      </trkpt>
      <trkpt lat="43.20142333" lon="-4.212305">
        <ele>692.0</ele>
        <time>2018-05-19T10:41:49.880Z</time>
      </trkpt>
      <trkpt lat="43.20142333" lon="-4.212305">
        <ele>692.0</ele>
        <time>2018-05-19T10:41:50.878Z</time>
      </trkpt>
      <trkpt lat="43.201415" lon="-4.21225167">
        <ele>692.0</ele>
        <time>2018-05-19T10:41:51.877Z</time>
      </trkpt>
      <trkpt lat="43.20141333" lon="-4.21222667">
        <ele>692.0</ele>
        <time>2018-05-19T10:41:52.880Z</time>
      </trkpt>
      <trkpt lat="43.20141333" lon="-4.21222667">
        <ele>692.0</ele>
        <time>2018-05-19T10:41:53.847Z</time>
      </trkpt>
      <trkpt lat="43.20141167" lon="-4.21217167">
        <ele>693.0</ele>
        <time>2018-05-19T10:41:54.880Z</time>
      </trkpt>
      <trkpt lat="43.20141167" lon="-4.21217167">
        <ele>693.0</ele>
        <time>2018-05-19T10:41:55.877Z</time>
      </trkpt>
      <trkpt lat="43.20141167" lon="-4.21211833">
        <ele>694.0</ele>
        <time>2018-05-19T10:41:56.881Z</time>
      </trkpt>
      <trkpt lat="43.20141167" lon="-4.21211833">
        <ele>694.0</ele>
        <time>2018-05-19T10:41:57.875Z</time>
      </trkpt>
      <trkpt lat="43.20141" lon="-4.21206167">
        <ele>694.0</ele>
        <time>2018-05-19T10:41:58.880Z</time>
      </trkpt>
      <trkpt lat="43.20141" lon="-4.21206167">
        <ele>694.0</ele>
        <time>2018-05-19T10:41:59.881Z</time>
      </trkpt>
      <trkpt lat="43.20140667" lon="-4.21200167">
        <ele>695.0</ele>
        <time>2018-05-19T10:42:00.881Z</time>
      </trkpt>
      <trkpt lat="43.20140667" lon="-4.21200167">
        <ele>695.0</ele>
        <time>2018-05-19T10:42:01.875Z</time>
      </trkpt>
      <trkpt lat="43.201405" lon="-4.21194">
        <ele>695.0</ele>
        <time>2018-05-19T10:42:02.880Z</time>
      </trkpt>
      <trkpt lat="43.20140333" lon="-4.21191">
        <ele>695.0</ele>
        <time>2018-05-19T10:42:03.860Z</time>
      </trkpt>
      <trkpt lat="43.20140333" lon="-4.21191">
        <ele>695.0</ele>
        <time>2018-05-19T10:42:04.881Z</time>
      </trkpt>
      <trkpt lat="43.20139833" lon="-4.211855">
        <ele>696.0</ele>
        <time>2018-05-19T10:42:05.880Z</time>
      </trkpt>
      <trkpt lat="43.201395" lon="-4.21182333">
        <ele>696.0</ele>
        <time>2018-05-19T10:42:06.880Z</time>
      </trkpt>
      <trkpt lat="43.201395" lon="-4.21182333">
        <ele>696.0</ele>
        <time>2018-05-19T10:42:07.874Z</time>
      </trkpt>
      <trkpt lat="43.20139833" lon="-4.21176167">
        <ele>696.0</ele>
        <time>2018-05-19T10:42:08.879Z</time>
      </trkpt>
      <trkpt lat="43.20139833" lon="-4.21176167">
        <ele>696.0</ele>
        <time>2018-05-19T10:42:09.869Z</time>
      </trkpt>
      <trkpt lat="43.2014" lon="-4.21170167">
        <ele>696.0</ele>
        <time>2018-05-19T10:42:10.856Z</time>
      </trkpt>
      <trkpt lat="43.2014" lon="-4.21170167">
        <ele>696.0</ele>
        <time>2018-05-19T10:42:11.879Z</time>
      </trkpt>
      <trkpt lat="43.20139667" lon="-4.21164333">
        <ele>697.0</ele>
        <time>2018-05-19T10:42:12.878Z</time>
      </trkpt>
      <trkpt lat="43.20139667" lon="-4.21164333">
        <ele>697.0</ele>
        <time>2018-05-19T10:42:13.880Z</time>
      </trkpt>
      <trkpt lat="43.201395" lon="-4.21158667">
        <ele>697.0</ele>
        <time>2018-05-19T10:42:14.880Z</time>
      </trkpt>
      <trkpt lat="43.201395" lon="-4.21158667">
        <ele>697.0</ele>
        <time>2018-05-19T10:42:15.872Z</time>
      </trkpt>
      <trkpt lat="43.20139" lon="-4.21152167">
        <ele>697.0</ele>
        <time>2018-05-19T10:42:16.857Z</time>
      </trkpt>
      <trkpt lat="43.20139" lon="-4.21152167">
        <ele>697.0</ele>
        <time>2018-05-19T10:42:17.882Z</time>
      </trkpt>
      <trkpt lat="43.20138667" lon="-4.21145167">
        <ele>698.0</ele>
        <time>2018-05-19T10:42:18.862Z</time>
      </trkpt>
      <trkpt lat="43.20138667" lon="-4.21145167">
        <ele>698.0</ele>
        <time>2018-05-19T10:42:19.862Z</time>
      </trkpt>
      <trkpt lat="43.20138833" lon="-4.21138833">
        <ele>698.0</ele>
        <time>2018-05-19T10:42:20.851Z</time>
      </trkpt>
      <trkpt lat="43.20138833" lon="-4.21138833">
        <ele>698.0</ele>
        <time>2018-05-19T10:42:21.877Z</time>
      </trkpt>
      <trkpt lat="43.20139167" lon="-4.21132333">
        <ele>698.0</ele>
        <time>2018-05-19T10:42:22.877Z</time>
      </trkpt>
      <trkpt lat="43.20139167" lon="-4.21132333">
        <ele>698.0</ele>
        <time>2018-05-19T10:42:23.849Z</time>
      </trkpt>
      <trkpt lat="43.20139667" lon="-4.21125667">
        <ele>699.0</ele>
        <time>2018-05-19T10:42:24.881Z</time>
      </trkpt>
      <trkpt lat="43.20139667" lon="-4.21125667">
        <ele>699.0</ele>
        <time>2018-05-19T10:42:25.875Z</time>
      </trkpt>
      <trkpt lat="43.20139833" lon="-4.21119">
        <ele>699.0</ele>
        <time>2018-05-19T10:42:26.879Z</time>
      </trkpt>
      <trkpt lat="43.20139833" lon="-4.21119">
        <ele>699.0</ele>
        <time>2018-05-19T10:42:27.869Z</time>
      </trkpt>
      <trkpt lat="43.201405" lon="-4.21112167">
        <ele>699.0</ele>
        <time>2018-05-19T10:42:28.853Z</time>
      </trkpt>
      <trkpt lat="43.201405" lon="-4.21112167">
        <ele>699.0</ele>
        <time>2018-05-19T10:42:29.878Z</time>
      </trkpt>
      <trkpt lat="43.20141667" lon="-4.211055">
        <ele>699.0</ele>
        <time>2018-05-19T10:42:30.869Z</time>
      </trkpt>
      <trkpt lat="43.20142167" lon="-4.21102167">
        <ele>699.0</ele>
        <time>2018-05-19T10:42:31.856Z</time>
      </trkpt>
      <trkpt lat="43.20142833" lon="-4.21098833">
        <ele>699.0</ele>
        <time>2018-05-19T10:42:32.882Z</time>
      </trkpt>
      <trkpt lat="43.20142833" lon="-4.21098833">
        <ele>699.0</ele>
        <time>2018-05-19T10:42:33.851Z</time>
      </trkpt>
      <trkpt lat="43.20144167" lon="-4.21092">
        <ele>699.0</ele>
        <time>2018-05-19T10:42:34.881Z</time>
      </trkpt>
      <trkpt lat="43.20144667" lon="-4.210885">
        <ele>699.0</ele>
        <time>2018-05-19T10:42:35.878Z</time>
      </trkpt>
      <trkpt lat="43.20144667" lon="-4.210885">
        <ele>699.0</ele>
        <time>2018-05-19T10:42:36.880Z</time>
      </trkpt>
      <trkpt lat="43.201455" lon="-4.210815">
        <ele>699.0</ele>
        <time>2018-05-19T10:42:37.879Z</time>
      </trkpt>
      <trkpt lat="43.201455" lon="-4.210815">
        <ele>699.0</ele>
        <time>2018-05-19T10:42:38.875Z</time>
      </trkpt>
      <trkpt lat="43.20146667" lon="-4.21073667">
        <ele>700.0</ele>
        <time>2018-05-19T10:42:39.884Z</time>
      </trkpt>
      <trkpt lat="43.20146667" lon="-4.21073667">
        <ele>700.0</ele>
        <time>2018-05-19T10:42:40.877Z</time>
      </trkpt>
      <trkpt lat="43.20147833" lon="-4.21065333">
        <ele>700.0</ele>
        <time>2018-05-19T10:42:41.880Z</time>
      </trkpt>
      <trkpt lat="43.201485" lon="-4.21061167">
        <ele>700.0</ele>
        <time>2018-05-19T10:42:42.880Z</time>
      </trkpt>
      <trkpt lat="43.201485" lon="-4.21061167">
        <ele>700.0</ele>
        <time>2018-05-19T10:42:43.890Z</time>
      </trkpt>
      <trkpt lat="43.201495" lon="-4.21053167">
        <ele>700.0</ele>
        <time>2018-05-19T10:42:44.882Z</time>
      </trkpt>
      <trkpt lat="43.201495" lon="-4.21053167">
        <ele>700.0</ele>
        <time>2018-05-19T10:42:45.861Z</time>
      </trkpt>
      <trkpt lat="43.20150833" lon="-4.21045167">
        <ele>700.0</ele>
        <time>2018-05-19T10:42:46.878Z</time>
      </trkpt>
      <trkpt lat="43.20151167" lon="-4.21041">
        <ele>700.0</ele>
        <time>2018-05-19T10:42:47.844Z</time>
      </trkpt>
      <trkpt lat="43.20151167" lon="-4.21041">
        <ele>700.0</ele>
        <time>2018-05-19T10:42:48.851Z</time>
      </trkpt>
      <trkpt lat="43.20151833" lon="-4.21032">
        <ele>700.0</ele>
        <time>2018-05-19T10:42:49.849Z</time>
      </trkpt>
      <trkpt lat="43.20151833" lon="-4.21032">
        <ele>700.0</ele>
        <time>2018-05-19T10:42:50.877Z</time>
      </trkpt>
      <trkpt lat="43.20152667" lon="-4.21023167">
        <ele>700.0</ele>
        <time>2018-05-19T10:42:51.877Z</time>
      </trkpt>
      <trkpt lat="43.20152833" lon="-4.21018833">
        <ele>701.0</ele>
        <time>2018-05-19T10:42:52.877Z</time>
      </trkpt>
      <trkpt lat="43.20152833" lon="-4.21018833">
        <ele>701.0</ele>
        <time>2018-05-19T10:42:53.882Z</time>
      </trkpt>
      <trkpt lat="43.20152667" lon="-4.2101">
        <ele>701.0</ele>
        <time>2018-05-19T10:42:54.864Z</time>
      </trkpt>
      <trkpt lat="43.20152667" lon="-4.2101">
        <ele>701.0</ele>
        <time>2018-05-19T10:42:55.848Z</time>
      </trkpt>
      <trkpt lat="43.20152333" lon="-4.21001167">
        <ele>701.0</ele>
        <time>2018-05-19T10:42:56.880Z</time>
      </trkpt>
      <trkpt lat="43.20152333" lon="-4.21001167">
        <ele>701.0</ele>
        <time>2018-05-19T10:42:57.875Z</time>
      </trkpt>
      <trkpt lat="43.20152667" lon="-4.20992333">
        <ele>701.0</ele>
        <time>2018-05-19T10:42:58.856Z</time>
      </trkpt>
      <trkpt lat="43.20152667" lon="-4.20992333">
        <ele>701.0</ele>
        <time>2018-05-19T10:42:59.882Z</time>
      </trkpt>
      <trkpt lat="43.20153167" lon="-4.20983333">
        <ele>701.0</ele>
        <time>2018-05-19T10:43:00.880Z</time>
      </trkpt>
      <trkpt lat="43.20153167" lon="-4.20983333">
        <ele>701.0</ele>
        <time>2018-05-19T10:43:01.877Z</time>
      </trkpt>
      <trkpt lat="43.20152833" lon="-4.20975">
        <ele>701.0</ele>
        <time>2018-05-19T10:43:02.879Z</time>
      </trkpt>
      <trkpt lat="43.20152833" lon="-4.20970667">
        <ele>702.0</ele>
        <time>2018-05-19T10:43:03.845Z</time>
      </trkpt>
      <trkpt lat="43.20152833" lon="-4.20970667">
        <ele>702.0</ele>
        <time>2018-05-19T10:43:04.874Z</time>
      </trkpt>
      <trkpt lat="43.20152667" lon="-4.20962333">
        <ele>702.0</ele>
        <time>2018-05-19T10:43:05.877Z</time>
      </trkpt>
      <trkpt lat="43.20152333" lon="-4.20958333">
        <ele>702.0</ele>
        <time>2018-05-19T10:43:06.880Z</time>
      </trkpt>
      <trkpt lat="43.20152333" lon="-4.20958333">
        <ele>702.0</ele>
        <time>2018-05-19T10:43:07.875Z</time>
      </trkpt>
      <trkpt lat="43.20151667" lon="-4.20950333">
        <ele>702.0</ele>
        <time>2018-05-19T10:43:08.879Z</time>
      </trkpt>
      <trkpt lat="43.20151667" lon="-4.20950333">
        <ele>702.0</ele>
        <time>2018-05-19T10:43:09.877Z</time>
      </trkpt>
      <trkpt lat="43.20151" lon="-4.20942333">
        <ele>702.0</ele>
        <time>2018-05-19T10:43:10.874Z</time>
      </trkpt>
      <trkpt lat="43.20151" lon="-4.20942333">
        <ele>702.0</ele>
        <time>2018-05-19T10:43:11.875Z</time>
      </trkpt>
      <trkpt lat="43.2015" lon="-4.209345">
        <ele>702.0</ele>
        <time>2018-05-19T10:43:12.879Z</time>
      </trkpt>
      <trkpt lat="43.2015" lon="-4.209345">
        <ele>702.0</ele>
        <time>2018-05-19T10:43:13.849Z</time>
      </trkpt>
      <trkpt lat="43.20148667" lon="-4.20926667">
        <ele>702.0</ele>
        <time>2018-05-19T10:43:14.880Z</time>
      </trkpt>
      <trkpt lat="43.20148667" lon="-4.20926667">
        <ele>702.0</ele>
        <time>2018-05-19T10:43:15.875Z</time>
      </trkpt>
      <trkpt lat="43.20147333" lon="-4.20919333">
        <ele>702.0</ele>
        <time>2018-05-19T10:43:16.881Z</time>
      </trkpt>
      <trkpt lat="43.20147333" lon="-4.20919333">
        <ele>702.0</ele>
        <time>2018-05-19T10:43:17.875Z</time>
      </trkpt>
      <trkpt lat="43.20145667" lon="-4.209115">
        <ele>702.0</ele>
        <time>2018-05-19T10:43:18.863Z</time>
      </trkpt>
      <trkpt lat="43.20145667" lon="-4.209115">
        <ele>702.0</ele>
        <time>2018-05-19T10:43:19.849Z</time>
      </trkpt>
      <trkpt lat="43.20143833" lon="-4.20902667">
        <ele>703.0</ele>
        <time>2018-05-19T10:43:20.879Z</time>
      </trkpt>
      <trkpt lat="43.20143833" lon="-4.20902667">
        <ele>703.0</ele>
        <time>2018-05-19T10:43:21.874Z</time>
      </trkpt>
      <trkpt lat="43.20141833" lon="-4.208945">
        <ele>703.0</ele>
        <time>2018-05-19T10:43:22.882Z</time>
      </trkpt>
      <trkpt lat="43.20141167" lon="-4.20890667">
        <ele>703.0</ele>
        <time>2018-05-19T10:43:23.844Z</time>
      </trkpt>
      <trkpt lat="43.20140167" lon="-4.20887">
        <ele>703.0</ele>
        <time>2018-05-19T10:43:24.881Z</time>
      </trkpt>
      <trkpt lat="43.20140167" lon="-4.20887">
        <ele>703.0</ele>
        <time>2018-05-19T10:43:25.874Z</time>
      </trkpt>
      <trkpt lat="43.20138" lon="-4.20879667">
        <ele>704.0</ele>
        <time>2018-05-19T10:43:26.879Z</time>
      </trkpt>
      <trkpt lat="43.20138" lon="-4.20879667">
        <ele>704.0</ele>
        <time>2018-05-19T10:43:27.869Z</time>
      </trkpt>
      <trkpt lat="43.20136667" lon="-4.208715">
        <ele>704.0</ele>
        <time>2018-05-19T10:43:28.853Z</time>
      </trkpt>
      <trkpt lat="43.20136667" lon="-4.208715">
        <ele>704.0</ele>
        <time>2018-05-19T10:43:29.878Z</time>
      </trkpt>
      <trkpt lat="43.20135333" lon="-4.20863">
        <ele>705.0</ele>
        <time>2018-05-19T10:43:30.873Z</time>
      </trkpt>
      <trkpt lat="43.20135333" lon="-4.20863">
        <ele>705.0</ele>
        <time>2018-05-19T10:43:31.872Z</time>
      </trkpt>
      <trkpt lat="43.20134" lon="-4.208555">
        <ele>705.0</ele>
        <time>2018-05-19T10:43:32.879Z</time>
      </trkpt>
      <trkpt lat="43.20133167" lon="-4.20851667">
        <ele>705.0</ele>
        <time>2018-05-19T10:43:33.849Z</time>
      </trkpt>
      <trkpt lat="43.20133167" lon="-4.20851667">
        <ele>705.0</ele>
        <time>2018-05-19T10:43:34.877Z</time>
      </trkpt>
      <trkpt lat="43.20131833" lon="-4.20843667">
        <ele>706.0</ele>
        <time>2018-05-19T10:43:35.876Z</time>
      </trkpt>
      <trkpt lat="43.20131333" lon="-4.20839667">
        <ele>706.0</ele>
        <time>2018-05-19T10:43:36.880Z</time>
      </trkpt>
      <trkpt lat="43.20131333" lon="-4.20839667">
        <ele>706.0</ele>
        <time>2018-05-19T10:43:37.875Z</time>
      </trkpt>
      <trkpt lat="43.20129833" lon="-4.20831833">
        <ele>706.0</ele>
        <time>2018-05-19T10:43:38.879Z</time>
      </trkpt>
      <trkpt lat="43.20129833" lon="-4.20831833">
        <ele>706.0</ele>
        <time>2018-05-19T10:43:39.872Z</time>
      </trkpt>
      <trkpt lat="43.20128333" lon="-4.20824">
        <ele>707.0</ele>
        <time>2018-05-19T10:43:40.882Z</time>
      </trkpt>
      <trkpt lat="43.20128333" lon="-4.20824">
        <ele>707.0</ele>
        <time>2018-05-19T10:43:41.874Z</time>
      </trkpt>
      <trkpt lat="43.20126667" lon="-4.208165">
        <ele>707.0</ele>
        <time>2018-05-19T10:43:42.880Z</time>
      </trkpt>
      <trkpt lat="43.20126667" lon="-4.208165">
        <ele>707.0</ele>
        <time>2018-05-19T10:43:43.880Z</time>
      </trkpt>
      <trkpt lat="43.20125" lon="-4.208085">
        <ele>707.0</ele>
        <time>2018-05-19T10:43:44.879Z</time>
      </trkpt>
      <trkpt lat="43.20125" lon="-4.208085">
        <ele>707.0</ele>
        <time>2018-05-19T10:43:45.879Z</time>
      </trkpt>
      <trkpt lat="43.201235" lon="-4.208005">
        <ele>708.0</ele>
        <time>2018-05-19T10:43:46.854Z</time>
      </trkpt>
      <trkpt lat="43.20122833" lon="-4.20796333">
        <ele>708.0</ele>
        <time>2018-05-19T10:43:47.860Z</time>
      </trkpt>
      <trkpt lat="43.20122833" lon="-4.20796333">
        <ele>708.0</ele>
        <time>2018-05-19T10:43:48.867Z</time>
      </trkpt>
      <trkpt lat="43.201215" lon="-4.20787833">
        <ele>708.0</ele>
        <time>2018-05-19T10:43:49.879Z</time>
      </trkpt>
      <trkpt lat="43.201215" lon="-4.20787833">
        <ele>708.0</ele>
        <time>2018-05-19T10:43:50.865Z</time>
      </trkpt>
      <trkpt lat="43.20121333" lon="-4.20779167">
        <ele>709.0</ele>
        <time>2018-05-19T10:43:51.851Z</time>
      </trkpt>
      <trkpt lat="43.20121167" lon="-4.20775">
        <ele>709.0</ele>
        <time>2018-05-19T10:43:52.880Z</time>
      </trkpt>
      <trkpt lat="43.20121333" lon="-4.20771">
        <ele>709.0</ele>
        <time>2018-05-19T10:43:53.845Z</time>
      </trkpt>
      <trkpt lat="43.20121333" lon="-4.20767">
        <ele>709.0</ele>
        <time>2018-05-19T10:43:54.877Z</time>
      </trkpt>
      <trkpt lat="43.20121333" lon="-4.20767">
        <ele>709.0</ele>
        <time>2018-05-19T10:43:55.874Z</time>
      </trkpt>
      <trkpt lat="43.20121833" lon="-4.20759">
        <ele>710.0</ele>
        <time>2018-05-19T10:43:56.882Z</time>
      </trkpt>
      <trkpt lat="43.20121833" lon="-4.20759">
        <ele>710.0</ele>
        <time>2018-05-19T10:43:57.870Z</time>
      </trkpt>
      <trkpt lat="43.20122167" lon="-4.20751333">
        <ele>710.0</ele>
        <time>2018-05-19T10:43:58.852Z</time>
      </trkpt>
      <trkpt lat="43.20122167" lon="-4.20751333">
        <ele>710.0</ele>
        <time>2018-05-19T10:43:59.877Z</time>
      </trkpt>
      <trkpt lat="43.20122167" lon="-4.20744">
        <ele>710.0</ele>
        <time>2018-05-19T10:44:00.881Z</time>
      </trkpt>
      <trkpt lat="43.20122167" lon="-4.20744">
        <ele>710.0</ele>
        <time>2018-05-19T10:44:01.875Z</time>
      </trkpt>
      <trkpt lat="43.201225" lon="-4.20736333">
        <ele>710.0</ele>
        <time>2018-05-19T10:44:02.879Z</time>
      </trkpt>
      <trkpt lat="43.201225" lon="-4.207325">
        <ele>710.0</ele>
        <time>2018-05-19T10:44:03.882Z</time>
      </trkpt>
      <trkpt lat="43.201225" lon="-4.207325">
        <ele>710.0</ele>
        <time>2018-05-19T10:44:04.873Z</time>
      </trkpt>
      <trkpt lat="43.20122" lon="-4.207245">
        <ele>711.0</ele>
        <time>2018-05-19T10:44:05.879Z</time>
      </trkpt>
      <trkpt lat="43.20121667" lon="-4.207205">
        <ele>711.0</ele>
        <time>2018-05-19T10:44:06.879Z</time>
      </trkpt>
      <trkpt lat="43.20121667" lon="-4.207205">
        <ele>711.0</ele>
        <time>2018-05-19T10:44:07.875Z</time>
      </trkpt>
      <trkpt lat="43.201215" lon="-4.20713167">
        <ele>711.0</ele>
        <time>2018-05-19T10:44:08.879Z</time>
      </trkpt>
      <trkpt lat="43.201215" lon="-4.20713167">
        <ele>711.0</ele>
        <time>2018-05-19T10:44:09.869Z</time>
      </trkpt>
      <trkpt lat="43.20120333" lon="-4.20705667">
        <ele>713.0</ele>
        <time>2018-05-19T10:44:10.853Z</time>
      </trkpt>
      <trkpt lat="43.20120333" lon="-4.20705667">
        <ele>713.0</ele>
        <time>2018-05-19T10:44:11.878Z</time>
      </trkpt>
      <trkpt lat="43.201175" lon="-4.20698667">
        <ele>713.0</ele>
        <time>2018-05-19T10:44:12.877Z</time>
      </trkpt>
      <trkpt lat="43.20116" lon="-4.20695">
        <ele>713.0</ele>
        <time>2018-05-19T10:44:13.862Z</time>
      </trkpt>
      <trkpt lat="43.20116" lon="-4.20695">
        <ele>713.0</ele>
        <time>2018-05-19T10:44:14.847Z</time>
      </trkpt>
      <trkpt lat="43.20112833" lon="-4.20687833">
        <ele>713.0</ele>
        <time>2018-05-19T10:44:15.880Z</time>
      </trkpt>
      <trkpt lat="43.20112833" lon="-4.20687833">
        <ele>713.0</ele>
        <time>2018-05-19T10:44:16.873Z</time>
      </trkpt>
      <trkpt lat="43.20109667" lon="-4.20680333">
        <ele>714.0</ele>
        <time>2018-05-19T10:44:17.871Z</time>
      </trkpt>
      <trkpt lat="43.20109667" lon="-4.20680333">
        <ele>714.0</ele>
        <time>2018-05-19T10:44:18.882Z</time>
      </trkpt>
      <trkpt lat="43.20107" lon="-4.206725">
        <ele>714.0</ele>
        <time>2018-05-19T10:44:19.879Z</time>
      </trkpt>
      <trkpt lat="43.20107" lon="-4.206725">
        <ele>714.0</ele>
        <time>2018-05-19T10:44:20.875Z</time>
      </trkpt>
      <trkpt lat="43.20104833" lon="-4.20664">
        <ele>715.0</ele>
        <time>2018-05-19T10:44:21.872Z</time>
      </trkpt>
      <trkpt lat="43.20104833" lon="-4.20664">
        <ele>715.0</ele>
        <time>2018-05-19T10:44:22.857Z</time>
      </trkpt>
      <trkpt lat="43.201045" lon="-4.206555">
        <ele>716.0</ele>
        <time>2018-05-19T10:44:23.852Z</time>
      </trkpt>
      <trkpt lat="43.201045" lon="-4.206555">
        <ele>716.0</ele>
        <time>2018-05-19T10:44:24.877Z</time>
      </trkpt>
      <trkpt lat="43.20105167" lon="-4.20647167">
        <ele>716.0</ele>
        <time>2018-05-19T10:44:25.870Z</time>
      </trkpt>
      <trkpt lat="43.20105167" lon="-4.20647167">
        <ele>716.0</ele>
        <time>2018-05-19T10:44:26.853Z</time>
      </trkpt>
      <trkpt lat="43.20105667" lon="-4.206385">
        <ele>717.0</ele>
        <time>2018-05-19T10:44:27.879Z</time>
      </trkpt>
      <trkpt lat="43.20106" lon="-4.20634167">
        <ele>717.0</ele>
        <time>2018-05-19T10:44:28.879Z</time>
      </trkpt>
      <trkpt lat="43.20106" lon="-4.20634167">
        <ele>717.0</ele>
        <time>2018-05-19T10:44:29.875Z</time>
      </trkpt>
      <trkpt lat="43.20106333" lon="-4.20625667">
        <ele>717.0</ele>
        <time>2018-05-19T10:44:30.869Z</time>
      </trkpt>
      <trkpt lat="43.20106333" lon="-4.20625667">
        <ele>717.0</ele>
        <time>2018-05-19T10:44:31.853Z</time>
      </trkpt>
      <trkpt lat="43.201065" lon="-4.20617">
        <ele>717.0</ele>
        <time>2018-05-19T10:44:32.879Z</time>
      </trkpt>
      <trkpt lat="43.20106667" lon="-4.20612667">
        <ele>717.0</ele>
        <time>2018-05-19T10:44:33.879Z</time>
      </trkpt>
      <trkpt lat="43.20106667" lon="-4.20612667">
        <ele>717.0</ele>
        <time>2018-05-19T10:44:34.872Z</time>
      </trkpt>
      <trkpt lat="43.20107167" lon="-4.20603833">
        <ele>717.0</ele>
        <time>2018-05-19T10:44:35.845Z</time>
      </trkpt>
      <trkpt lat="43.20107167" lon="-4.20599667">
        <ele>717.0</ele>
        <time>2018-05-19T10:44:36.880Z</time>
      </trkpt>
      <trkpt lat="43.20107167" lon="-4.20599667">
        <ele>717.0</ele>
        <time>2018-05-19T10:44:37.874Z</time>
      </trkpt>
      <trkpt lat="43.20107833" lon="-4.20591333">
        <ele>718.0</ele>
        <time>2018-05-19T10:44:38.878Z</time>
      </trkpt>
      <trkpt lat="43.20107833" lon="-4.20591333">
        <ele>718.0</ele>
        <time>2018-05-19T10:44:39.868Z</time>
      </trkpt>
      <trkpt lat="43.20108167" lon="-4.20582833">
        <ele>718.0</ele>
        <time>2018-05-19T10:44:40.846Z</time>
      </trkpt>
      <trkpt lat="43.20108167" lon="-4.20582833">
        <ele>718.0</ele>
        <time>2018-05-19T10:44:41.874Z</time>
      </trkpt>
      <trkpt lat="43.201085" lon="-4.20574333">
        <ele>718.0</ele>
        <time>2018-05-19T10:44:42.878Z</time>
      </trkpt>
      <trkpt lat="43.201085" lon="-4.20574333">
        <ele>718.0</ele>
        <time>2018-05-19T10:44:43.860Z</time>
      </trkpt>
      <trkpt lat="43.20108833" lon="-4.20565833">
        <ele>718.0</ele>
        <time>2018-05-19T10:44:44.846Z</time>
      </trkpt>
      <trkpt lat="43.20108833" lon="-4.20565833">
        <ele>718.0</ele>
        <time>2018-05-19T10:44:45.862Z</time>
      </trkpt>
      <trkpt lat="43.20108833" lon="-4.20557333">
        <ele>719.0</ele>
        <time>2018-05-19T10:44:46.876Z</time>
      </trkpt>
      <trkpt lat="43.20108833" lon="-4.20553">
        <ele>719.0</ele>
        <time>2018-05-19T10:44:47.882Z</time>
      </trkpt>
      <trkpt lat="43.20108833" lon="-4.20553">
        <ele>719.0</ele>
        <time>2018-05-19T10:44:48.848Z</time>
      </trkpt>
      <trkpt lat="43.201085" lon="-4.20544333">
        <ele>719.0</ele>
        <time>2018-05-19T10:44:49.854Z</time>
      </trkpt>
      <trkpt lat="43.20108" lon="-4.2054">
        <ele>719.0</ele>
        <time>2018-05-19T10:44:50.880Z</time>
      </trkpt>
      <trkpt lat="43.20108" lon="-4.2054">
        <ele>719.0</ele>
        <time>2018-05-19T10:44:51.875Z</time>
      </trkpt>
      <trkpt lat="43.201075" lon="-4.20531">
        <ele>720.0</ele>
        <time>2018-05-19T10:44:52.879Z</time>
      </trkpt>
      <trkpt lat="43.20107833" lon="-4.20525833">
        <ele>720.0</ele>
        <time>2018-05-19T10:44:53.879Z</time>
      </trkpt>
      <trkpt lat="43.20107833" lon="-4.20525833">
        <ele>720.0</ele>
        <time>2018-05-19T10:44:54.853Z</time>
      </trkpt>
      <trkpt lat="43.20109167" lon="-4.20516333">
        <ele>720.0</ele>
        <time>2018-05-19T10:44:55.882Z</time>
      </trkpt>
      <trkpt lat="43.20109167" lon="-4.20516333">
        <ele>720.0</ele>
        <time>2018-05-19T10:44:56.873Z</time>
      </trkpt>
      <trkpt lat="43.20111333" lon="-4.20507667">
        <ele>720.0</ele>
        <time>2018-05-19T10:44:57.876Z</time>
      </trkpt>
      <trkpt lat="43.20112333" lon="-4.205035">
        <ele>721.0</ele>
        <time>2018-05-19T10:44:58.880Z</time>
      </trkpt>
      <trkpt lat="43.20112333" lon="-4.205035">
        <ele>721.0</ele>
        <time>2018-05-19T10:44:59.875Z</time>
      </trkpt>
      <trkpt lat="43.20115167" lon="-4.20495333">
        <ele>721.0</ele>
        <time>2018-05-19T10:45:00.879Z</time>
      </trkpt>
      <trkpt lat="43.20115167" lon="-4.20495333">
        <ele>721.0</ele>
        <time>2018-05-19T10:45:01.876Z</time>
      </trkpt>
      <trkpt lat="43.20118333" lon="-4.20488167">
        <ele>720.0</ele>
        <time>2018-05-19T10:45:02.882Z</time>
      </trkpt>
      <trkpt lat="43.20118333" lon="-4.20488167">
        <ele>720.0</ele>
        <time>2018-05-19T10:45:03.883Z</time>
      </trkpt>
      <trkpt lat="43.20121667" lon="-4.20480833">
        <ele>720.0</ele>
        <time>2018-05-19T10:45:04.880Z</time>
      </trkpt>
      <trkpt lat="43.20121667" lon="-4.20480833">
        <ele>720.0</ele>
        <time>2018-05-19T10:45:05.883Z</time>
      </trkpt>
      <trkpt lat="43.20125833" lon="-4.20473833">
        <ele>721.0</ele>
        <time>2018-05-19T10:45:06.878Z</time>
      </trkpt>
      <trkpt lat="43.20125833" lon="-4.20473833">
        <ele>721.0</ele>
        <time>2018-05-19T10:45:07.877Z</time>
      </trkpt>
      <trkpt lat="43.201305" lon="-4.20467333">
        <ele>721.0</ele>
        <time>2018-05-19T10:45:08.878Z</time>
      </trkpt>
      <trkpt lat="43.201305" lon="-4.20467333">
        <ele>721.0</ele>
        <time>2018-05-19T10:45:09.873Z</time>
      </trkpt>
      <trkpt lat="43.20135833" lon="-4.20461667">
        <ele>720.0</ele>
        <time>2018-05-19T10:45:10.872Z</time>
      </trkpt>
      <trkpt lat="43.20135833" lon="-4.20461667">
        <ele>720.0</ele>
        <time>2018-05-19T10:45:11.868Z</time>
      </trkpt>
      <trkpt lat="43.20140833" lon="-4.20456667">
        <ele>721.0</ele>
        <time>2018-05-19T10:45:12.853Z</time>
      </trkpt>
      <trkpt lat="43.20140833" lon="-4.20456667">
        <ele>721.0</ele>
        <time>2018-05-19T10:45:13.883Z</time>
      </trkpt>
      <trkpt lat="43.20145833" lon="-4.20451833">
        <ele>721.0</ele>
        <time>2018-05-19T10:45:14.879Z</time>
      </trkpt>
      <trkpt lat="43.20145833" lon="-4.20451833">
        <ele>721.0</ele>
        <time>2018-05-19T10:45:15.881Z</time>
      </trkpt>
      <trkpt lat="43.20150833" lon="-4.20446333">
        <ele>721.0</ele>
        <time>2018-05-19T10:45:16.879Z</time>
      </trkpt>
      <trkpt lat="43.20150833" lon="-4.20446333">
        <ele>721.0</ele>
        <time>2018-05-19T10:45:17.875Z</time>
      </trkpt>
      <trkpt lat="43.20156" lon="-4.20441">
        <ele>721.0</ele>
        <time>2018-05-19T10:45:18.852Z</time>
      </trkpt>
      <trkpt lat="43.20158333" lon="-4.20438167">
        <ele>721.0</ele>
        <time>2018-05-19T10:45:19.881Z</time>
      </trkpt>
      <trkpt lat="43.20158333" lon="-4.20438167">
        <ele>721.0</ele>
        <time>2018-05-19T10:45:20.869Z</time>
      </trkpt>
      <trkpt lat="43.20163167" lon="-4.20433167">
        <ele>722.0</ele>
        <time>2018-05-19T10:45:21.853Z</time>
      </trkpt>
      <trkpt lat="43.20165667" lon="-4.20430667">
        <ele>722.0</ele>
        <time>2018-05-19T10:45:22.881Z</time>
      </trkpt>
      <trkpt lat="43.20165667" lon="-4.20430667">
        <ele>722.0</ele>
        <time>2018-05-19T10:45:23.877Z</time>
      </trkpt>
      <trkpt lat="43.20170167" lon="-4.204255">
        <ele>722.0</ele>
        <time>2018-05-19T10:45:24.878Z</time>
      </trkpt>
      <trkpt lat="43.20170167" lon="-4.204255">
        <ele>722.0</ele>
        <time>2018-05-19T10:45:25.879Z</time>
      </trkpt>
      <trkpt lat="43.20175167" lon="-4.20421667">
        <ele>722.0</ele>
        <time>2018-05-19T10:45:26.879Z</time>
      </trkpt>
      <trkpt lat="43.20175167" lon="-4.20421667">
        <ele>722.0</ele>
        <time>2018-05-19T10:45:27.874Z</time>
      </trkpt>
      <trkpt lat="43.2018" lon="-4.204165">
        <ele>722.0</ele>
        <time>2018-05-19T10:45:28.879Z</time>
      </trkpt>
      <trkpt lat="43.2018" lon="-4.204165">
        <ele>722.0</ele>
        <time>2018-05-19T10:45:29.868Z</time>
      </trkpt>
      <trkpt lat="43.20184333" lon="-4.20411167">
        <ele>722.0</ele>
        <time>2018-05-19T10:45:30.853Z</time>
      </trkpt>
      <trkpt lat="43.20184333" lon="-4.20411167">
        <ele>722.0</ele>
        <time>2018-05-19T10:45:31.878Z</time>
      </trkpt>
      <trkpt lat="43.20189167" lon="-4.204065">
        <ele>723.0</ele>
        <time>2018-05-19T10:45:32.879Z</time>
      </trkpt>
      <trkpt lat="43.20189167" lon="-4.204065">
        <ele>723.0</ele>
        <time>2018-05-19T10:45:33.878Z</time>
      </trkpt>
      <trkpt lat="43.20193333" lon="-4.20402">
        <ele>723.0</ele>
        <time>2018-05-19T10:45:34.846Z</time>
      </trkpt>
      <trkpt lat="43.20193333" lon="-4.20402">
        <ele>723.0</ele>
        <time>2018-05-19T10:45:35.881Z</time>
      </trkpt>
      <trkpt lat="43.20197167" lon="-4.203975">
        <ele>723.0</ele>
        <time>2018-05-19T10:45:36.879Z</time>
      </trkpt>
      <trkpt lat="43.20197167" lon="-4.203975">
        <ele>723.0</ele>
        <time>2018-05-19T10:45:37.876Z</time>
      </trkpt>
      <trkpt lat="43.20201" lon="-4.20392833">
        <ele>724.0</ele>
        <time>2018-05-19T10:45:38.879Z</time>
      </trkpt>
      <trkpt lat="43.20201" lon="-4.20392833">
        <ele>724.0</ele>
        <time>2018-05-19T10:45:39.884Z</time>
      </trkpt>
      <trkpt lat="43.20205" lon="-4.20386833">
        <ele>724.0</ele>
        <time>2018-05-19T10:45:40.880Z</time>
      </trkpt>
      <trkpt lat="43.20207" lon="-4.20383667">
        <ele>724.0</ele>
        <time>2018-05-19T10:45:41.878Z</time>
      </trkpt>
      <trkpt lat="43.20209" lon="-4.203805">
        <ele>724.0</ele>
        <time>2018-05-19T10:45:42.879Z</time>
      </trkpt>
      <trkpt lat="43.20209" lon="-4.203805">
        <ele>724.0</ele>
        <time>2018-05-19T10:45:43.871Z</time>
      </trkpt>
      <trkpt lat="43.20212667" lon="-4.20374">
        <ele>725.0</ele>
        <time>2018-05-19T10:45:44.853Z</time>
      </trkpt>
      <trkpt lat="43.20212667" lon="-4.20374">
        <ele>725.0</ele>
        <time>2018-05-19T10:45:45.867Z</time>
      </trkpt>
      <trkpt lat="43.20215667" lon="-4.20367">
        <ele>725.0</ele>
        <time>2018-05-19T10:45:46.884Z</time>
      </trkpt>
      <trkpt lat="43.20216833" lon="-4.203635">
        <ele>725.0</ele>
        <time>2018-05-19T10:45:47.850Z</time>
      </trkpt>
      <trkpt lat="43.20216833" lon="-4.203635">
        <ele>725.0</ele>
        <time>2018-05-19T10:45:48.856Z</time>
      </trkpt>
      <trkpt lat="43.20219" lon="-4.203565">
        <ele>725.0</ele>
        <time>2018-05-19T10:45:49.879Z</time>
      </trkpt>
      <trkpt lat="43.2022" lon="-4.20353">
        <ele>725.0</ele>
        <time>2018-05-19T10:45:50.879Z</time>
      </trkpt>
      <trkpt lat="43.2022" lon="-4.20353">
        <ele>725.0</ele>
        <time>2018-05-19T10:45:51.867Z</time>
      </trkpt>
      <trkpt lat="43.20221667" lon="-4.20346167">
        <ele>726.0</ele>
        <time>2018-05-19T10:45:52.852Z</time>
      </trkpt>
      <trkpt lat="43.20221667" lon="-4.20346167">
        <ele>726.0</ele>
        <time>2018-05-19T10:45:53.883Z</time>
      </trkpt>
      <trkpt lat="43.20222833" lon="-4.203395">
        <ele>726.0</ele>
        <time>2018-05-19T10:45:54.877Z</time>
      </trkpt>
      <trkpt lat="43.20222833" lon="-4.203395">
        <ele>726.0</ele>
        <time>2018-05-19T10:45:55.875Z</time>
      </trkpt>
      <trkpt lat="43.20224333" lon="-4.203335">
        <ele>727.0</ele>
        <time>2018-05-19T10:45:56.877Z</time>
      </trkpt>
      <trkpt lat="43.20224833" lon="-4.203305">
        <ele>727.0</ele>
        <time>2018-05-19T10:45:57.878Z</time>
      </trkpt>
      <trkpt lat="43.20224833" lon="-4.203305">
        <ele>727.0</ele>
        <time>2018-05-19T10:45:58.872Z</time>
      </trkpt>
      <trkpt lat="43.20225667" lon="-4.203245">
        <ele>727.0</ele>
        <time>2018-05-19T10:45:59.867Z</time>
      </trkpt>
      <trkpt lat="43.20226167" lon="-4.203215">
        <ele>728.0</ele>
        <time>2018-05-19T10:46:00.854Z</time>
      </trkpt>
      <trkpt lat="43.20226167" lon="-4.203215">
        <ele>728.0</ele>
        <time>2018-05-19T10:46:01.881Z</time>
      </trkpt>
      <trkpt lat="43.20227167" lon="-4.203155">
        <ele>728.0</ele>
        <time>2018-05-19T10:46:02.877Z</time>
      </trkpt>
      <trkpt lat="43.20227167" lon="-4.203155">
        <ele>728.0</ele>
        <time>2018-05-19T10:46:03.882Z</time>
      </trkpt>
      <trkpt lat="43.20228167" lon="-4.20309667">
        <ele>729.0</ele>
        <time>2018-05-19T10:46:04.879Z</time>
      </trkpt>
      <trkpt lat="43.20228167" lon="-4.20309667">
        <ele>729.0</ele>
        <time>2018-05-19T10:46:05.868Z</time>
      </trkpt>
      <trkpt lat="43.20229167" lon="-4.20304">
        <ele>729.0</ele>
        <time>2018-05-19T10:46:06.847Z</time>
      </trkpt>
      <trkpt lat="43.20229167" lon="-4.20304">
        <ele>729.0</ele>
        <time>2018-05-19T10:46:07.872Z</time>
      </trkpt>
      <trkpt lat="43.2023" lon="-4.20298333">
        <ele>730.0</ele>
        <time>2018-05-19T10:46:08.878Z</time>
      </trkpt>
      <trkpt lat="43.2023" lon="-4.20298333">
        <ele>730.0</ele>
        <time>2018-05-19T10:46:09.876Z</time>
      </trkpt>
      <trkpt lat="43.20230667" lon="-4.20293">
        <ele>730.0</ele>
        <time>2018-05-19T10:46:10.879Z</time>
      </trkpt>
      <trkpt lat="43.20230667" lon="-4.20293">
        <ele>730.0</ele>
        <time>2018-05-19T10:46:11.872Z</time>
      </trkpt>
      <trkpt lat="43.202315" lon="-4.20287667">
        <ele>730.0</ele>
        <time>2018-05-19T10:46:12.882Z</time>
      </trkpt>
      <trkpt lat="43.202315" lon="-4.20287667">
        <ele>730.0</ele>
        <time>2018-05-19T10:46:13.872Z</time>
      </trkpt>
      <trkpt lat="43.20231833" lon="-4.20282">
        <ele>730.0</ele>
        <time>2018-05-19T10:46:14.877Z</time>
      </trkpt>
      <trkpt lat="43.20231833" lon="-4.20282">
        <ele>730.0</ele>
        <time>2018-05-19T10:46:15.876Z</time>
      </trkpt>
      <trkpt lat="43.20231833" lon="-4.202765">
        <ele>731.0</ele>
        <time>2018-05-19T10:46:16.872Z</time>
      </trkpt>
      <trkpt lat="43.20232167" lon="-4.20273833">
        <ele>731.0</ele>
        <time>2018-05-19T10:46:17.861Z</time>
      </trkpt>
      <trkpt lat="43.20232333" lon="-4.20271167">
        <ele>731.0</ele>
        <time>2018-05-19T10:46:18.849Z</time>
      </trkpt>
      <trkpt lat="43.20232333" lon="-4.20271167">
        <ele>731.0</ele>
        <time>2018-05-19T10:46:19.875Z</time>
      </trkpt>
      <trkpt lat="43.20232333" lon="-4.202645">
        <ele>731.0</ele>
        <time>2018-05-19T10:46:20.875Z</time>
      </trkpt>
      <trkpt lat="43.20232333" lon="-4.202645">
        <ele>731.0</ele>
        <time>2018-05-19T10:46:21.866Z</time>
      </trkpt>
      <trkpt lat="43.20231833" lon="-4.20258667">
        <ele>731.0</ele>
        <time>2018-05-19T10:46:22.852Z</time>
      </trkpt>
      <trkpt lat="43.20231833" lon="-4.20258667">
        <ele>731.0</ele>
        <time>2018-05-19T10:46:23.882Z</time>
      </trkpt>
      <trkpt lat="43.20231333" lon="-4.202525">
        <ele>732.0</ele>
        <time>2018-05-19T10:46:24.872Z</time>
      </trkpt>
      <trkpt lat="43.20231333" lon="-4.202525">
        <ele>732.0</ele>
        <time>2018-05-19T10:46:25.868Z</time>
      </trkpt>
      <trkpt lat="43.20230833" lon="-4.20246667">
        <ele>732.0</ele>
        <time>2018-05-19T10:46:26.854Z</time>
      </trkpt>
      <trkpt lat="43.20230833" lon="-4.20246667">
        <ele>732.0</ele>
        <time>2018-05-19T10:46:27.847Z</time>
      </trkpt>
      <trkpt lat="43.20229333" lon="-4.20241">
        <ele>732.0</ele>
        <time>2018-05-19T10:46:28.879Z</time>
      </trkpt>
      <trkpt lat="43.20229333" lon="-4.20241">
        <ele>732.0</ele>
        <time>2018-05-19T10:46:29.872Z</time>
      </trkpt>
      <trkpt lat="43.20228" lon="-4.202355">
        <ele>732.0</ele>
        <time>2018-05-19T10:46:30.879Z</time>
      </trkpt>
      <trkpt lat="43.20228" lon="-4.202355">
        <ele>732.0</ele>
        <time>2018-05-19T10:46:31.873Z</time>
      </trkpt>
      <trkpt lat="43.20226833" lon="-4.20229833">
        <ele>732.0</ele>
        <time>2018-05-19T10:46:32.878Z</time>
      </trkpt>
      <trkpt lat="43.20226833" lon="-4.20229833">
        <ele>732.0</ele>
        <time>2018-05-19T10:46:33.873Z</time>
      </trkpt>
      <trkpt lat="43.20225333" lon="-4.202245">
        <ele>733.0</ele>
        <time>2018-05-19T10:46:34.867Z</time>
      </trkpt>
      <trkpt lat="43.20225333" lon="-4.202245">
        <ele>733.0</ele>
        <time>2018-05-19T10:46:35.852Z</time>
      </trkpt>
      <trkpt lat="43.20223667" lon="-4.20219167">
        <ele>733.0</ele>
        <time>2018-05-19T10:46:36.879Z</time>
      </trkpt>
      <trkpt lat="43.20223667" lon="-4.20219167">
        <ele>733.0</ele>
        <time>2018-05-19T10:46:37.872Z</time>
      </trkpt>
      <trkpt lat="43.20222" lon="-4.20213667">
        <ele>733.0</ele>
        <time>2018-05-19T10:46:38.877Z</time>
      </trkpt>
      <trkpt lat="43.20221333" lon="-4.20211167">
        <ele>734.0</ele>
        <time>2018-05-19T10:46:39.885Z</time>
      </trkpt>
      <trkpt lat="43.20221333" lon="-4.20211167">
        <ele>734.0</ele>
        <time>2018-05-19T10:46:40.845Z</time>
      </trkpt>
      <trkpt lat="43.202195" lon="-4.20205667">
        <ele>734.0</ele>
        <time>2018-05-19T10:46:41.878Z</time>
      </trkpt>
      <trkpt lat="43.20218667" lon="-4.20203">
        <ele>735.0</ele>
        <time>2018-05-19T10:46:42.878Z</time>
      </trkpt>
      <trkpt lat="43.20218667" lon="-4.20203">
        <ele>735.0</ele>
        <time>2018-05-19T10:46:43.869Z</time>
      </trkpt>
      <trkpt lat="43.20216833" lon="-4.20197833">
        <ele>735.0</ele>
        <time>2018-05-19T10:46:44.854Z</time>
      </trkpt>
      <trkpt lat="43.20216833" lon="-4.20197833">
        <ele>735.0</ele>
        <time>2018-05-19T10:46:45.846Z</time>
      </trkpt>
      <trkpt lat="43.20215" lon="-4.201925">
        <ele>735.0</ele>
        <time>2018-05-19T10:46:46.879Z</time>
      </trkpt>
      <trkpt lat="43.20214" lon="-4.2019">
        <ele>735.0</ele>
        <time>2018-05-19T10:46:47.845Z</time>
      </trkpt>
      <trkpt lat="43.20213167" lon="-4.20187333">
        <ele>736.0</ele>
        <time>2018-05-19T10:46:48.851Z</time>
      </trkpt>
      <trkpt lat="43.20213167" lon="-4.20187333">
        <ele>736.0</ele>
        <time>2018-05-19T10:46:49.877Z</time>
      </trkpt>
      <trkpt lat="43.20211667" lon="-4.20182">
        <ele>736.0</ele>
        <time>2018-05-19T10:46:50.879Z</time>
      </trkpt>
      <trkpt lat="43.20211667" lon="-4.20182">
        <ele>736.0</ele>
        <time>2018-05-19T10:46:51.844Z</time>
      </trkpt>
      <trkpt lat="43.20210167" lon="-4.201765">
        <ele>736.0</ele>
        <time>2018-05-19T10:46:52.879Z</time>
      </trkpt>
      <trkpt lat="43.20210167" lon="-4.201765">
        <ele>736.0</ele>
        <time>2018-05-19T10:46:53.873Z</time>
      </trkpt>
      <trkpt lat="43.202085" lon="-4.20171333">
        <ele>737.0</ele>
        <time>2018-05-19T10:46:54.878Z</time>
      </trkpt>
      <trkpt lat="43.202085" lon="-4.20171333">
        <ele>737.0</ele>
        <time>2018-05-19T10:46:55.845Z</time>
      </trkpt>
      <trkpt lat="43.20207167" lon="-4.20167167">
        <ele>737.0</ele>
        <time>2018-05-19T10:46:56.881Z</time>
      </trkpt>
      <trkpt lat="43.20207167" lon="-4.20167167">
        <ele>737.0</ele>
        <time>2018-05-19T10:46:57.874Z</time>
      </trkpt>
      <trkpt lat="43.20206333" lon="-4.201625">
        <ele>738.0</ele>
        <time>2018-05-19T10:46:58.871Z</time>
      </trkpt>
      <trkpt lat="43.20205667" lon="-4.2016">
        <ele>738.0</ele>
        <time>2018-05-19T10:46:59.853Z</time>
      </trkpt>
      <trkpt lat="43.20205667" lon="-4.2016">
        <ele>738.0</ele>
        <time>2018-05-19T10:47:00.845Z</time>
      </trkpt>
      <trkpt lat="43.20203667" lon="-4.20155167">
        <ele>739.0</ele>
        <time>2018-05-19T10:47:01.877Z</time>
      </trkpt>
      <trkpt lat="43.20203167" lon="-4.20152667">
        <ele>739.0</ele>
        <time>2018-05-19T10:47:02.876Z</time>
      </trkpt>
      <trkpt lat="43.20203167" lon="-4.20152667">
        <ele>739.0</ele>
        <time>2018-05-19T10:47:03.858Z</time>
      </trkpt>
      <trkpt lat="43.202025" lon="-4.20148">
        <ele>739.0</ele>
        <time>2018-05-19T10:47:04.846Z</time>
      </trkpt>
      <trkpt lat="43.202025" lon="-4.20148">
        <ele>739.0</ele>
        <time>2018-05-19T10:47:05.879Z</time>
      </trkpt>
      <trkpt lat="43.20201167" lon="-4.201435">
        <ele>740.0</ele>
        <time>2018-05-19T10:47:06.844Z</time>
      </trkpt>
      <trkpt lat="43.20201167" lon="-4.201435">
        <ele>740.0</ele>
        <time>2018-05-19T10:47:07.871Z</time>
      </trkpt>
      <trkpt lat="43.20199833" lon="-4.20139333">
        <ele>740.0</ele>
        <time>2018-05-19T10:47:08.853Z</time>
      </trkpt>
      <trkpt lat="43.20199833" lon="-4.20139333">
        <ele>740.0</ele>
        <time>2018-05-19T10:47:09.878Z</time>
      </trkpt>
      <trkpt lat="43.20199" lon="-4.20135">
        <ele>740.0</ele>
        <time>2018-05-19T10:47:10.878Z</time>
      </trkpt>
      <trkpt lat="43.20199" lon="-4.20135">
        <ele>740.0</ele>
        <time>2018-05-19T10:47:11.872Z</time>
      </trkpt>
      <trkpt lat="43.20198" lon="-4.201305">
        <ele>740.0</ele>
        <time>2018-05-19T10:47:12.866Z</time>
      </trkpt>
      <trkpt lat="43.20197667" lon="-4.20128333">
        <ele>740.0</ele>
        <time>2018-05-19T10:47:13.853Z</time>
      </trkpt>
      <trkpt lat="43.20197667" lon="-4.20128333">
        <ele>740.0</ele>
        <time>2018-05-19T10:47:14.876Z</time>
      </trkpt>
      <trkpt lat="43.20196667" lon="-4.20123833">
        <ele>741.0</ele>
        <time>2018-05-19T10:47:15.878Z</time>
      </trkpt>
      <trkpt lat="43.20196" lon="-4.20121667">
        <ele>741.0</ele>
        <time>2018-05-19T10:47:16.871Z</time>
      </trkpt>
      <trkpt lat="43.20196" lon="-4.20121667">
        <ele>741.0</ele>
        <time>2018-05-19T10:47:17.853Z</time>
      </trkpt>
      <trkpt lat="43.20195" lon="-4.20117167">
        <ele>741.0</ele>
        <time>2018-05-19T10:47:18.847Z</time>
      </trkpt>
      <trkpt lat="43.20195" lon="-4.20117167">
        <ele>741.0</ele>
        <time>2018-05-19T10:47:19.875Z</time>
      </trkpt>
      <trkpt lat="43.20193833" lon="-4.20113167">
        <ele>742.0</ele>
        <time>2018-05-19T10:47:20.882Z</time>
      </trkpt>
      <trkpt lat="43.20193833" lon="-4.20113167">
        <ele>742.0</ele>
        <time>2018-05-19T10:47:21.868Z</time>
      </trkpt>
      <trkpt lat="43.20193" lon="-4.20109167">
        <ele>742.0</ele>
        <time>2018-05-19T10:47:22.853Z</time>
      </trkpt>
      <trkpt lat="43.20193" lon="-4.20109167">
        <ele>742.0</ele>
        <time>2018-05-19T10:47:23.882Z</time>
      </trkpt>
      <trkpt lat="43.20192" lon="-4.20104833">
        <ele>742.0</ele>
        <time>2018-05-19T10:47:24.879Z</time>
      </trkpt>
      <trkpt lat="43.20192" lon="-4.20104833">
        <ele>742.0</ele>
        <time>2018-05-19T10:47:25.876Z</time>
      </trkpt>
      <trkpt lat="43.20191167" lon="-4.20100667">
        <ele>742.0</ele>
        <time>2018-05-19T10:47:26.882Z</time>
      </trkpt>
      <trkpt lat="43.20191167" lon="-4.20100667">
        <ele>742.0</ele>
        <time>2018-05-19T10:47:27.872Z</time>
      </trkpt>
      <trkpt lat="43.20190167" lon="-4.20096167">
        <ele>743.0</ele>
        <time>2018-05-19T10:47:28.878Z</time>
      </trkpt>
      <trkpt lat="43.20190167" lon="-4.20096167">
        <ele>743.0</ele>
        <time>2018-05-19T10:47:29.875Z</time>
      </trkpt>
      <trkpt lat="43.20189167" lon="-4.20091333">
        <ele>743.0</ele>
        <time>2018-05-19T10:47:30.878Z</time>
      </trkpt>
      <trkpt lat="43.20189167" lon="-4.20091333">
        <ele>743.0</ele>
        <time>2018-05-19T10:47:31.872Z</time>
      </trkpt>
      <trkpt lat="43.20188" lon="-4.20086833">
        <ele>743.0</ele>
        <time>2018-05-19T10:47:32.877Z</time>
      </trkpt>
      <trkpt lat="43.20188" lon="-4.20086833">
        <ele>743.0</ele>
        <time>2018-05-19T10:47:33.880Z</time>
      </trkpt>
      <trkpt lat="43.201865" lon="-4.20082">
        <ele>743.0</ele>
        <time>2018-05-19T10:47:34.879Z</time>
      </trkpt>
      <trkpt lat="43.201865" lon="-4.20082">
        <ele>743.0</ele>
        <time>2018-05-19T10:47:35.876Z</time>
      </trkpt>
      <trkpt lat="43.20185" lon="-4.20077333">
        <ele>744.0</ele>
        <time>2018-05-19T10:47:36.880Z</time>
      </trkpt>
      <trkpt lat="43.20185" lon="-4.20077333">
        <ele>744.0</ele>
        <time>2018-05-19T10:47:37.872Z</time>
      </trkpt>
      <trkpt lat="43.201835" lon="-4.20072833">
        <ele>744.0</ele>
        <time>2018-05-19T10:47:38.877Z</time>
      </trkpt>
      <trkpt lat="43.201835" lon="-4.20072833">
        <ele>744.0</ele>
        <time>2018-05-19T10:47:39.884Z</time>
      </trkpt>
      <trkpt lat="43.20182" lon="-4.20068">
        <ele>744.0</ele>
        <time>2018-05-19T10:47:40.852Z</time>
      </trkpt>
      <trkpt lat="43.20181167" lon="-4.200655">
        <ele>745.0</ele>
        <time>2018-05-19T10:47:41.877Z</time>
      </trkpt>
      <trkpt lat="43.20180333" lon="-4.20063">
        <ele>745.0</ele>
        <time>2018-05-19T10:47:42.878Z</time>
      </trkpt>
      <trkpt lat="43.20180333" lon="-4.20063">
        <ele>745.0</ele>
        <time>2018-05-19T10:47:43.873Z</time>
      </trkpt>
      <trkpt lat="43.20178667" lon="-4.20058167">
        <ele>745.0</ele>
        <time>2018-05-19T10:47:44.867Z</time>
      </trkpt>
      <trkpt lat="43.20178667" lon="-4.20058167">
        <ele>745.0</ele>
        <time>2018-05-19T10:47:45.862Z</time>
      </trkpt>
      <trkpt lat="43.20176667" lon="-4.20053333">
        <ele>745.0</ele>
        <time>2018-05-19T10:47:46.877Z</time>
      </trkpt>
      <trkpt lat="43.20176667" lon="-4.20053333">
        <ele>745.0</ele>
        <time>2018-05-19T10:47:47.883Z</time>
      </trkpt>
      <trkpt lat="43.20175" lon="-4.200485">
        <ele>746.0</ele>
        <time>2018-05-19T10:47:48.849Z</time>
      </trkpt>
      <trkpt lat="43.20175" lon="-4.200485">
        <ele>746.0</ele>
        <time>2018-05-19T10:47:49.855Z</time>
      </trkpt>
      <trkpt lat="43.20173" lon="-4.20043833">
        <ele>746.0</ele>
        <time>2018-05-19T10:47:50.879Z</time>
      </trkpt>
      <trkpt lat="43.20173" lon="-4.20043833">
        <ele>746.0</ele>
        <time>2018-05-19T10:47:51.875Z</time>
      </trkpt>
      <trkpt lat="43.20171167" lon="-4.20039333">
        <ele>747.0</ele>
        <time>2018-05-19T10:47:52.876Z</time>
      </trkpt>
      <trkpt lat="43.20171167" lon="-4.20039333">
        <ele>747.0</ele>
        <time>2018-05-19T10:47:53.858Z</time>
      </trkpt>
      <trkpt lat="43.20169" lon="-4.20034833">
        <ele>747.0</ele>
        <time>2018-05-19T10:47:54.846Z</time>
      </trkpt>
      <trkpt lat="43.20169" lon="-4.20034833">
        <ele>747.0</ele>
        <time>2018-05-19T10:47:55.844Z</time>
      </trkpt>
      <trkpt lat="43.20167333" lon="-4.200305">
        <ele>747.0</ele>
        <time>2018-05-19T10:47:56.878Z</time>
      </trkpt>
      <trkpt lat="43.20167333" lon="-4.200305">
        <ele>747.0</ele>
        <time>2018-05-19T10:47:57.871Z</time>
      </trkpt>
      <trkpt lat="43.20165167" lon="-4.200265">
        <ele>748.0</ele>
        <time>2018-05-19T10:47:58.853Z</time>
      </trkpt>
      <trkpt lat="43.20165167" lon="-4.200265">
        <ele>748.0</ele>
        <time>2018-05-19T10:47:59.878Z</time>
      </trkpt>
      <trkpt lat="43.20163" lon="-4.200225">
        <ele>748.0</ele>
        <time>2018-05-19T10:48:00.878Z</time>
      </trkpt>
      <trkpt lat="43.20163" lon="-4.200225">
        <ele>748.0</ele>
        <time>2018-05-19T10:48:01.875Z</time>
      </trkpt>
      <trkpt lat="43.201605" lon="-4.20018667">
        <ele>748.0</ele>
        <time>2018-05-19T10:48:02.870Z</time>
      </trkpt>
      <trkpt lat="43.20159167" lon="-4.20016833">
        <ele>748.0</ele>
        <time>2018-05-19T10:48:03.853Z</time>
      </trkpt>
      <trkpt lat="43.20158" lon="-4.20014833">
        <ele>749.0</ele>
        <time>2018-05-19T10:48:04.878Z</time>
      </trkpt>
      <trkpt lat="43.20158" lon="-4.20014833">
        <ele>749.0</ele>
        <time>2018-05-19T10:48:05.872Z</time>
      </trkpt>
      <trkpt lat="43.20155667" lon="-4.20011">
        <ele>749.0</ele>
        <time>2018-05-19T10:48:06.878Z</time>
      </trkpt>
      <trkpt lat="43.20155667" lon="-4.20011">
        <ele>749.0</ele>
        <time>2018-05-19T10:48:07.872Z</time>
      </trkpt>
      <trkpt lat="43.20153167" lon="-4.20007167">
        <ele>749.0</ele>
        <time>2018-05-19T10:48:08.877Z</time>
      </trkpt>
      <trkpt lat="43.20151833" lon="-4.20005167">
        <ele>750.0</ele>
        <time>2018-05-19T10:48:09.874Z</time>
      </trkpt>
      <trkpt lat="43.20150667" lon="-4.20003333">
        <ele>750.0</ele>
        <time>2018-05-19T10:48:10.875Z</time>
      </trkpt>
      <trkpt lat="43.20150667" lon="-4.20003333">
        <ele>750.0</ele>
        <time>2018-05-19T10:48:11.866Z</time>
      </trkpt>
      <trkpt lat="43.20148167" lon="-4.199995">
        <ele>750.0</ele>
        <time>2018-05-19T10:48:12.851Z</time>
      </trkpt>
      <trkpt lat="43.20148167" lon="-4.199995">
        <ele>750.0</ele>
        <time>2018-05-19T10:48:13.853Z</time>
      </trkpt>
      <trkpt lat="43.20145333" lon="-4.19996167">
        <ele>751.0</ele>
        <time>2018-05-19T10:48:14.878Z</time>
      </trkpt>
      <trkpt lat="43.20143833" lon="-4.199945">
        <ele>751.0</ele>
        <time>2018-05-19T10:48:15.883Z</time>
      </trkpt>
      <trkpt lat="43.20143833" lon="-4.199945">
        <ele>751.0</ele>
        <time>2018-05-19T10:48:16.875Z</time>
      </trkpt>
      <trkpt lat="43.20141" lon="-4.19991333">
        <ele>751.0</ele>
        <time>2018-05-19T10:48:17.881Z</time>
      </trkpt>
      <trkpt lat="43.20139333" lon="-4.19989833">
        <ele>752.0</ele>
        <time>2018-05-19T10:48:18.878Z</time>
      </trkpt>
      <trkpt lat="43.20139333" lon="-4.19989833">
        <ele>752.0</ele>
        <time>2018-05-19T10:48:19.872Z</time>
      </trkpt>
      <trkpt lat="43.201365" lon="-4.19986333">
        <ele>752.0</ele>
        <time>2018-05-19T10:48:20.870Z</time>
      </trkpt>
      <trkpt lat="43.20135167" lon="-4.199845">
        <ele>752.0</ele>
        <time>2018-05-19T10:48:21.853Z</time>
      </trkpt>
      <trkpt lat="43.20135167" lon="-4.199845">
        <ele>752.0</ele>
        <time>2018-05-19T10:48:22.880Z</time>
      </trkpt>
      <trkpt lat="43.20131833" lon="-4.19981">
        <ele>753.0</ele>
        <time>2018-05-19T10:48:23.876Z</time>
      </trkpt>
      <trkpt lat="43.2013" lon="-4.19979333">
        <ele>753.0</ele>
        <time>2018-05-19T10:48:24.878Z</time>
      </trkpt>
      <trkpt lat="43.2013" lon="-4.19979333">
        <ele>753.0</ele>
        <time>2018-05-19T10:48:25.872Z</time>
      </trkpt>
      <trkpt lat="43.20126333" lon="-4.19975833">
        <ele>753.0</ele>
        <time>2018-05-19T10:48:26.877Z</time>
      </trkpt>
      <trkpt lat="43.20126333" lon="-4.19975833">
        <ele>753.0</ele>
        <time>2018-05-19T10:48:27.872Z</time>
      </trkpt>
      <trkpt lat="43.20122667" lon="-4.19972167">
        <ele>754.0</ele>
        <time>2018-05-19T10:48:28.876Z</time>
      </trkpt>
      <trkpt lat="43.20122667" lon="-4.19972167">
        <ele>754.0</ele>
        <time>2018-05-19T10:48:29.866Z</time>
      </trkpt>
      <trkpt lat="43.20119" lon="-4.199685">
        <ele>754.0</ele>
        <time>2018-05-19T10:48:30.852Z</time>
      </trkpt>
      <trkpt lat="43.20119" lon="-4.199685">
        <ele>754.0</ele>
        <time>2018-05-19T10:48:31.876Z</time>
      </trkpt>
      <trkpt lat="43.201155" lon="-4.19964667">
        <ele>754.0</ele>
        <time>2018-05-19T10:48:32.877Z</time>
      </trkpt>
      <trkpt lat="43.201155" lon="-4.19964667">
        <ele>754.0</ele>
        <time>2018-05-19T10:48:33.871Z</time>
      </trkpt>
      <trkpt lat="43.20112167" lon="-4.19961167">
        <ele>755.0</ele>
        <time>2018-05-19T10:48:34.853Z</time>
      </trkpt>
      <trkpt lat="43.20112167" lon="-4.19961167">
        <ele>755.0</ele>
        <time>2018-05-19T10:48:35.878Z</time>
      </trkpt>
      <trkpt lat="43.20109333" lon="-4.199575">
        <ele>755.0</ele>
        <time>2018-05-19T10:48:36.878Z</time>
      </trkpt>
      <trkpt lat="43.20109333" lon="-4.199575">
        <ele>755.0</ele>
        <time>2018-05-19T10:48:37.875Z</time>
      </trkpt>
      <trkpt lat="43.20106667" lon="-4.19953667">
        <ele>755.0</ele>
        <time>2018-05-19T10:48:38.869Z</time>
      </trkpt>
      <trkpt lat="43.20106667" lon="-4.19953667">
        <ele>755.0</ele>
        <time>2018-05-19T10:48:39.853Z</time>
      </trkpt>
      <trkpt lat="43.20104167" lon="-4.19949667">
        <ele>755.0</ele>
        <time>2018-05-19T10:48:40.883Z</time>
      </trkpt>
      <trkpt lat="43.20103" lon="-4.19947833">
        <ele>755.0</ele>
        <time>2018-05-19T10:48:41.877Z</time>
      </trkpt>
      <trkpt lat="43.20101833" lon="-4.19946">
        <ele>755.0</ele>
        <time>2018-05-19T10:48:42.878Z</time>
      </trkpt>
      <trkpt lat="43.20101833" lon="-4.19946">
        <ele>755.0</ele>
        <time>2018-05-19T10:48:43.876Z</time>
      </trkpt>
      <trkpt lat="43.20099" lon="-4.199415">
        <ele>755.0</ele>
        <time>2018-05-19T10:48:44.875Z</time>
      </trkpt>
      <trkpt lat="43.20099" lon="-4.199415">
        <ele>755.0</ele>
        <time>2018-05-19T10:48:45.863Z</time>
      </trkpt>
      <trkpt lat="43.200965" lon="-4.19937833">
        <ele>756.0</ele>
        <time>2018-05-19T10:48:46.881Z</time>
      </trkpt>
      <trkpt lat="43.200965" lon="-4.19937833">
        <ele>756.0</ele>
        <time>2018-05-19T10:48:47.847Z</time>
      </trkpt>
      <trkpt lat="43.20094167" lon="-4.199345">
        <ele>758.0</ele>
        <time>2018-05-19T10:48:48.853Z</time>
      </trkpt>
      <trkpt lat="43.20092833" lon="-4.19932833">
        <ele>758.0</ele>
        <time>2018-05-19T10:48:49.879Z</time>
      </trkpt>
      <trkpt lat="43.20091833" lon="-4.19931167">
        <ele>758.0</ele>
        <time>2018-05-19T10:48:50.878Z</time>
      </trkpt>
      <trkpt lat="43.20091833" lon="-4.19931167">
        <ele>758.0</ele>
        <time>2018-05-19T10:48:51.871Z</time>
      </trkpt>
      <trkpt lat="43.20089833" lon="-4.19927">
        <ele>759.0</ele>
        <time>2018-05-19T10:48:52.878Z</time>
      </trkpt>
      <trkpt lat="43.20089833" lon="-4.19927">
        <ele>759.0</ele>
        <time>2018-05-19T10:48:53.877Z</time>
      </trkpt>
      <trkpt lat="43.200875" lon="-4.19923">
        <ele>759.0</ele>
        <time>2018-05-19T10:48:54.877Z</time>
      </trkpt>
      <trkpt lat="43.200875" lon="-4.19923">
        <ele>759.0</ele>
        <time>2018-05-19T10:48:55.874Z</time>
      </trkpt>
      <trkpt lat="43.20085333" lon="-4.19919167">
        <ele>760.0</ele>
        <time>2018-05-19T10:48:56.878Z</time>
      </trkpt>
      <trkpt lat="43.20085333" lon="-4.19919167">
        <ele>760.0</ele>
        <time>2018-05-19T10:48:57.868Z</time>
      </trkpt>
      <trkpt lat="43.20082833" lon="-4.19915333">
        <ele>760.0</ele>
        <time>2018-05-19T10:48:58.853Z</time>
      </trkpt>
      <trkpt lat="43.20082833" lon="-4.19915333">
        <ele>760.0</ele>
        <time>2018-05-19T10:48:59.876Z</time>
      </trkpt>
      <trkpt lat="43.20080667" lon="-4.19911333">
        <ele>761.0</ele>
        <time>2018-05-19T10:49:00.864Z</time>
      </trkpt>
      <trkpt lat="43.20080667" lon="-4.19911333">
        <ele>761.0</ele>
        <time>2018-05-19T10:49:01.853Z</time>
      </trkpt>
      <trkpt lat="43.20078667" lon="-4.19907667">
        <ele>761.0</ele>
        <time>2018-05-19T10:49:02.878Z</time>
      </trkpt>
      <trkpt lat="43.20078667" lon="-4.19907667">
        <ele>761.0</ele>
        <time>2018-05-19T10:49:03.871Z</time>
      </trkpt>
      <trkpt lat="43.20076333" lon="-4.19903833">
        <ele>762.0</ele>
        <time>2018-05-19T10:49:04.878Z</time>
      </trkpt>
      <trkpt lat="43.20076333" lon="-4.19903833">
        <ele>762.0</ele>
        <time>2018-05-19T10:49:05.865Z</time>
      </trkpt>
      <trkpt lat="43.20074167" lon="-4.199">
        <ele>762.0</ele>
        <time>2018-05-19T10:49:06.849Z</time>
      </trkpt>
      <trkpt lat="43.20074167" lon="-4.199">
        <ele>762.0</ele>
        <time>2018-05-19T10:49:07.874Z</time>
      </trkpt>
      <trkpt lat="43.20071833" lon="-4.19896167">
        <ele>762.0</ele>
        <time>2018-05-19T10:49:08.877Z</time>
      </trkpt>
      <trkpt lat="43.20071833" lon="-4.19896167">
        <ele>762.0</ele>
        <time>2018-05-19T10:49:09.870Z</time>
      </trkpt>
      <trkpt lat="43.20069833" lon="-4.19892167">
        <ele>763.0</ele>
        <time>2018-05-19T10:49:10.854Z</time>
      </trkpt>
      <trkpt lat="43.20069833" lon="-4.19892167">
        <ele>763.0</ele>
        <time>2018-05-19T10:49:11.879Z</time>
      </trkpt>
      <trkpt lat="43.20068" lon="-4.198885">
        <ele>763.0</ele>
        <time>2018-05-19T10:49:12.878Z</time>
      </trkpt>
      <trkpt lat="43.20068" lon="-4.198885">
        <ele>763.0</ele>
        <time>2018-05-19T10:49:13.869Z</time>
      </trkpt>
      <trkpt lat="43.20065833" lon="-4.198845">
        <ele>763.0</ele>
        <time>2018-05-19T10:49:14.854Z</time>
      </trkpt>
      <trkpt lat="43.20065833" lon="-4.198845">
        <ele>763.0</ele>
        <time>2018-05-19T10:49:15.879Z</time>
      </trkpt>
      <trkpt lat="43.20063667" lon="-4.198805">
        <ele>763.0</ele>
        <time>2018-05-19T10:49:16.878Z</time>
      </trkpt>
      <trkpt lat="43.20063667" lon="-4.198805">
        <ele>763.0</ele>
        <time>2018-05-19T10:49:17.871Z</time>
      </trkpt>
      <trkpt lat="43.20061667" lon="-4.19876833">
        <ele>764.0</ele>
        <time>2018-05-19T10:49:18.875Z</time>
      </trkpt>
      <trkpt lat="43.20061667" lon="-4.19876833">
        <ele>764.0</ele>
        <time>2018-05-19T10:49:19.882Z</time>
      </trkpt>
      <trkpt lat="43.20059667" lon="-4.19873">
        <ele>764.0</ele>
        <time>2018-05-19T10:49:20.878Z</time>
      </trkpt>
      <trkpt lat="43.20059667" lon="-4.19873">
        <ele>764.0</ele>
        <time>2018-05-19T10:49:21.872Z</time>
      </trkpt>
      <trkpt lat="43.200575" lon="-4.19869">
        <ele>765.0</ele>
        <time>2018-05-19T10:49:22.874Z</time>
      </trkpt>
      <trkpt lat="43.200575" lon="-4.19869">
        <ele>765.0</ele>
        <time>2018-05-19T10:49:23.873Z</time>
      </trkpt>
      <trkpt lat="43.200555" lon="-4.19864667">
        <ele>765.0</ele>
        <time>2018-05-19T10:49:24.878Z</time>
      </trkpt>
      <trkpt lat="43.200555" lon="-4.19864667">
        <ele>765.0</ele>
        <time>2018-05-19T10:49:25.874Z</time>
      </trkpt>
      <trkpt lat="43.20053667" lon="-4.19860833">
        <ele>766.0</ele>
        <time>2018-05-19T10:49:26.869Z</time>
      </trkpt>
      <trkpt lat="43.20053667" lon="-4.19860833">
        <ele>766.0</ele>
        <time>2018-05-19T10:49:27.874Z</time>
      </trkpt>
      <trkpt lat="43.20052" lon="-4.19857">
        <ele>766.0</ele>
        <time>2018-05-19T10:49:28.870Z</time>
      </trkpt>
      <trkpt lat="43.20051" lon="-4.19855167">
        <ele>766.0</ele>
        <time>2018-05-19T10:49:29.854Z</time>
      </trkpt>
      <trkpt lat="43.20051" lon="-4.19855167">
        <ele>766.0</ele>
        <time>2018-05-19T10:49:30.878Z</time>
      </trkpt>
      <trkpt lat="43.20049167" lon="-4.19851667">
        <ele>766.0</ele>
        <time>2018-05-19T10:49:31.877Z</time>
      </trkpt>
      <trkpt lat="43.20049167" lon="-4.19851667">
        <ele>766.0</ele>
        <time>2018-05-19T10:49:32.866Z</time>
      </trkpt>
      <trkpt lat="43.20047333" lon="-4.19847833">
        <ele>767.0</ele>
        <time>2018-05-19T10:49:33.852Z</time>
      </trkpt>
      <trkpt lat="43.20046333" lon="-4.19846">
        <ele>767.0</ele>
        <time>2018-05-19T10:49:34.878Z</time>
      </trkpt>
      <trkpt lat="43.20046333" lon="-4.19846">
        <ele>767.0</ele>
        <time>2018-05-19T10:49:35.867Z</time>
      </trkpt>
      <trkpt lat="43.20044333" lon="-4.19842167">
        <ele>767.0</ele>
        <time>2018-05-19T10:49:36.878Z</time>
      </trkpt>
      <trkpt lat="43.20044333" lon="-4.19842167">
        <ele>767.0</ele>
        <time>2018-05-19T10:49:37.864Z</time>
      </trkpt>
      <trkpt lat="43.200425" lon="-4.19838167">
        <ele>768.0</ele>
        <time>2018-05-19T10:49:38.881Z</time>
      </trkpt>
      <trkpt lat="43.200425" lon="-4.19838167">
        <ele>768.0</ele>
        <time>2018-05-19T10:49:39.872Z</time>
      </trkpt>
      <trkpt lat="43.200405" lon="-4.19834333">
        <ele>768.0</ele>
        <time>2018-05-19T10:49:40.850Z</time>
      </trkpt>
      <trkpt lat="43.200405" lon="-4.19834333">
        <ele>768.0</ele>
        <time>2018-05-19T10:49:41.874Z</time>
      </trkpt>
      <trkpt lat="43.200385" lon="-4.19830333">
        <ele>768.0</ele>
        <time>2018-05-19T10:49:42.878Z</time>
      </trkpt>
      <trkpt lat="43.200385" lon="-4.19830333">
        <ele>768.0</ele>
        <time>2018-05-19T10:49:43.872Z</time>
      </trkpt>
      <trkpt lat="43.20036333" lon="-4.19826667">
        <ele>769.0</ele>
        <time>2018-05-19T10:49:44.869Z</time>
      </trkpt>
      <trkpt lat="43.20036333" lon="-4.19826667">
        <ele>769.0</ele>
        <time>2018-05-19T10:49:45.881Z</time>
      </trkpt>
      <trkpt lat="43.20034167" lon="-4.19822667">
        <ele>769.0</ele>
        <time>2018-05-19T10:49:46.858Z</time>
      </trkpt>
      <trkpt lat="43.20033167" lon="-4.198205">
        <ele>769.0</ele>
        <time>2018-05-19T10:49:47.868Z</time>
      </trkpt>
      <trkpt lat="43.200325" lon="-4.198185">
        <ele>769.0</ele>
        <time>2018-05-19T10:49:48.853Z</time>
      </trkpt>
      <trkpt lat="43.200325" lon="-4.198185">
        <ele>769.0</ele>
        <time>2018-05-19T10:49:49.851Z</time>
      </trkpt>
      <trkpt lat="43.20030833" lon="-4.19814167">
        <ele>770.0</ele>
        <time>2018-05-19T10:49:50.879Z</time>
      </trkpt>
      <trkpt lat="43.20030833" lon="-4.19814167">
        <ele>770.0</ele>
        <time>2018-05-19T10:49:51.866Z</time>
      </trkpt>
      <trkpt lat="43.20028833" lon="-4.198105">
        <ele>770.0</ele>
        <time>2018-05-19T10:49:52.852Z</time>
      </trkpt>
      <trkpt lat="43.20028833" lon="-4.198105">
        <ele>770.0</ele>
        <time>2018-05-19T10:49:53.844Z</time>
      </trkpt>
      <trkpt lat="43.20026833" lon="-4.19806667">
        <ele>771.0</ele>
        <time>2018-05-19T10:49:54.878Z</time>
      </trkpt>
      <trkpt lat="43.20026833" lon="-4.19806667">
        <ele>771.0</ele>
        <time>2018-05-19T10:49:55.873Z</time>
      </trkpt>
      <trkpt lat="43.20024833" lon="-4.19802833">
        <ele>771.0</ele>
        <time>2018-05-19T10:49:56.878Z</time>
      </trkpt>
      <trkpt lat="43.20024833" lon="-4.19802833">
        <ele>771.0</ele>
        <time>2018-05-19T10:49:57.867Z</time>
      </trkpt>
      <trkpt lat="43.20022667" lon="-4.19798833">
        <ele>771.0</ele>
        <time>2018-05-19T10:49:58.847Z</time>
      </trkpt>
      <trkpt lat="43.20022667" lon="-4.19798833">
        <ele>771.0</ele>
        <time>2018-05-19T10:49:59.874Z</time>
      </trkpt>
      <trkpt lat="43.20020667" lon="-4.19794667">
        <ele>772.0</ele>
        <time>2018-05-19T10:50:00.878Z</time>
      </trkpt>
      <trkpt lat="43.20020667" lon="-4.19794667">
        <ele>772.0</ele>
        <time>2018-05-19T10:50:01.872Z</time>
      </trkpt>
      <trkpt lat="43.200185" lon="-4.19791167">
        <ele>772.0</ele>
        <time>2018-05-19T10:50:02.869Z</time>
      </trkpt>
      <trkpt lat="43.200185" lon="-4.19791167">
        <ele>772.0</ele>
        <time>2018-05-19T10:50:03.853Z</time>
      </trkpt>
      <trkpt lat="43.200165" lon="-4.19787667">
        <ele>772.0</ele>
        <time>2018-05-19T10:50:04.878Z</time>
      </trkpt>
      <trkpt lat="43.200165" lon="-4.19787667">
        <ele>772.0</ele>
        <time>2018-05-19T10:50:05.866Z</time>
      </trkpt>
      <trkpt lat="43.20014667" lon="-4.19783833">
        <ele>772.0</ele>
        <time>2018-05-19T10:50:06.852Z</time>
      </trkpt>
      <trkpt lat="43.20014667" lon="-4.19783833">
        <ele>772.0</ele>
        <time>2018-05-19T10:50:07.874Z</time>
      </trkpt>
      <trkpt lat="43.20012667" lon="-4.19780333">
        <ele>773.0</ele>
        <time>2018-05-19T10:50:08.847Z</time>
      </trkpt>
      <trkpt lat="43.20011667" lon="-4.197785">
        <ele>773.0</ele>
        <time>2018-05-19T10:50:09.877Z</time>
      </trkpt>
      <trkpt lat="43.20010833" lon="-4.197765">
        <ele>773.0</ele>
        <time>2018-05-19T10:50:10.876Z</time>
      </trkpt>
      <trkpt lat="43.20010833" lon="-4.197765">
        <ele>773.0</ele>
        <time>2018-05-19T10:50:11.866Z</time>
      </trkpt>
      <trkpt lat="43.20009" lon="-4.19772333">
        <ele>773.0</ele>
        <time>2018-05-19T10:50:12.850Z</time>
      </trkpt>
      <trkpt lat="43.20009" lon="-4.19772333">
        <ele>773.0</ele>
        <time>2018-05-19T10:50:13.858Z</time>
      </trkpt>
      <trkpt lat="43.20006833" lon="-4.19768833">
        <ele>774.0</ele>
        <time>2018-05-19T10:50:14.846Z</time>
      </trkpt>
      <trkpt lat="43.20005833" lon="-4.19767">
        <ele>774.0</ele>
        <time>2018-05-19T10:50:15.876Z</time>
      </trkpt>
      <trkpt lat="43.20005833" lon="-4.19767">
        <ele>774.0</ele>
        <time>2018-05-19T10:50:16.874Z</time>
      </trkpt>
      <trkpt lat="43.20003833" lon="-4.19763333">
        <ele>774.0</ele>
        <time>2018-05-19T10:50:17.877Z</time>
      </trkpt>
      <trkpt lat="43.20003" lon="-4.19761167">
        <ele>774.0</ele>
        <time>2018-05-19T10:50:18.856Z</time>
      </trkpt>
      <trkpt lat="43.20003" lon="-4.19761167">
        <ele>774.0</ele>
        <time>2018-05-19T10:50:19.852Z</time>
      </trkpt>
      <trkpt lat="43.20000833" lon="-4.19757667">
        <ele>774.0</ele>
        <time>2018-05-19T10:50:20.878Z</time>
      </trkpt>
      <trkpt lat="43.20000833" lon="-4.19757667">
        <ele>774.0</ele>
        <time>2018-05-19T10:50:21.874Z</time>
      </trkpt>
      <trkpt lat="43.19999333" lon="-4.19753833">
        <ele>774.0</ele>
        <time>2018-05-19T10:50:22.878Z</time>
      </trkpt>
      <trkpt lat="43.19999333" lon="-4.19753833">
        <ele>774.0</ele>
        <time>2018-05-19T10:50:23.847Z</time>
      </trkpt>
      <trkpt lat="43.19997333" lon="-4.19750333">
        <ele>774.0</ele>
        <time>2018-05-19T10:50:24.877Z</time>
      </trkpt>
      <trkpt lat="43.19997333" lon="-4.19750333">
        <ele>774.0</ele>
        <time>2018-05-19T10:50:25.870Z</time>
      </trkpt>
      <trkpt lat="43.19995333" lon="-4.19747">
        <ele>774.0</ele>
        <time>2018-05-19T10:50:26.853Z</time>
      </trkpt>
      <trkpt lat="43.19994333" lon="-4.197455">
        <ele>774.0</ele>
        <time>2018-05-19T10:50:27.883Z</time>
      </trkpt>
      <trkpt lat="43.19994333" lon="-4.197455">
        <ele>774.0</ele>
        <time>2018-05-19T10:50:28.875Z</time>
      </trkpt>
      <trkpt lat="43.19992333" lon="-4.19742167">
        <ele>774.0</ele>
        <time>2018-05-19T10:50:29.876Z</time>
      </trkpt>
      <trkpt lat="43.19991333" lon="-4.19740333">
        <ele>775.0</ele>
        <time>2018-05-19T10:50:30.870Z</time>
      </trkpt>
      <trkpt lat="43.19991333" lon="-4.19740333">
        <ele>775.0</ele>
        <time>2018-05-19T10:50:31.859Z</time>
      </trkpt>
      <trkpt lat="43.19989167" lon="-4.19737333">
        <ele>775.0</ele>
        <time>2018-05-19T10:50:32.846Z</time>
      </trkpt>
      <trkpt lat="43.19989167" lon="-4.19737333">
        <ele>775.0</ele>
        <time>2018-05-19T10:50:33.844Z</time>
      </trkpt>
      <trkpt lat="43.19986667" lon="-4.19734">
        <ele>776.0</ele>
        <time>2018-05-19T10:50:34.877Z</time>
      </trkpt>
      <trkpt lat="43.19986667" lon="-4.19734">
        <ele>776.0</ele>
        <time>2018-05-19T10:50:35.866Z</time>
      </trkpt>
      <trkpt lat="43.199845" lon="-4.19730667">
        <ele>776.0</ele>
        <time>2018-05-19T10:50:36.851Z</time>
      </trkpt>
      <trkpt lat="43.199845" lon="-4.19730667">
        <ele>776.0</ele>
        <time>2018-05-19T10:50:37.874Z</time>
      </trkpt>
      <trkpt lat="43.19982167" lon="-4.19727167">
        <ele>777.0</ele>
        <time>2018-05-19T10:50:38.869Z</time>
      </trkpt>
      <trkpt lat="43.19982167" lon="-4.19727167">
        <ele>777.0</ele>
        <time>2018-05-19T10:50:39.853Z</time>
      </trkpt>
      <trkpt lat="43.19979833" lon="-4.19724167">
        <ele>778.0</ele>
        <time>2018-05-19T10:50:40.849Z</time>
      </trkpt>
      <trkpt lat="43.19979833" lon="-4.19724167">
        <ele>778.0</ele>
        <time>2018-05-19T10:50:41.871Z</time>
      </trkpt>
      <trkpt lat="43.19977333" lon="-4.19721167">
        <ele>778.0</ele>
        <time>2018-05-19T10:50:42.853Z</time>
      </trkpt>
      <trkpt lat="43.19976" lon="-4.19719667">
        <ele>779.0</ele>
        <time>2018-05-19T10:50:43.867Z</time>
      </trkpt>
      <trkpt lat="43.19976" lon="-4.19719667">
        <ele>779.0</ele>
        <time>2018-05-19T10:50:44.854Z</time>
      </trkpt>
      <trkpt lat="43.19973167" lon="-4.19716667">
        <ele>779.0</ele>
        <time>2018-05-19T10:50:45.871Z</time>
      </trkpt>
      <trkpt lat="43.19972" lon="-4.19715167">
        <ele>779.0</ele>
        <time>2018-05-19T10:50:46.866Z</time>
      </trkpt>
      <trkpt lat="43.19970667" lon="-4.19713667">
        <ele>780.0</ele>
        <time>2018-05-19T10:50:47.873Z</time>
      </trkpt>
      <trkpt lat="43.19970667" lon="-4.19713667">
        <ele>780.0</ele>
        <time>2018-05-19T10:50:48.857Z</time>
      </trkpt>
      <trkpt lat="43.19968167" lon="-4.197105">
        <ele>780.0</ele>
        <time>2018-05-19T10:50:49.886Z</time>
      </trkpt>
      <trkpt lat="43.19966667" lon="-4.19709333">
        <ele>780.0</ele>
        <time>2018-05-19T10:50:50.878Z</time>
      </trkpt>
      <trkpt lat="43.19966667" lon="-4.19709333">
        <ele>780.0</ele>
        <time>2018-05-19T10:50:51.872Z</time>
      </trkpt>
      <trkpt lat="43.19964" lon="-4.197065">
        <ele>781.0</ele>
        <time>2018-05-19T10:50:52.878Z</time>
      </trkpt>
      <trkpt lat="43.19964" lon="-4.197065">
        <ele>781.0</ele>
        <time>2018-05-19T10:50:53.874Z</time>
      </trkpt>
      <trkpt lat="43.19961167" lon="-4.19704833">
        <ele>781.0</ele>
        <time>2018-05-19T10:50:54.871Z</time>
      </trkpt>
      <trkpt lat="43.19961167" lon="-4.19704833">
        <ele>781.0</ele>
        <time>2018-05-19T10:50:55.853Z</time>
      </trkpt>
      <trkpt lat="43.19958333" lon="-4.19702833">
        <ele>781.0</ele>
        <time>2018-05-19T10:50:56.879Z</time>
      </trkpt>
      <trkpt lat="43.19958333" lon="-4.19702833">
        <ele>781.0</ele>
        <time>2018-05-19T10:50:57.866Z</time>
      </trkpt>
      <trkpt lat="43.19955167" lon="-4.19700667">
        <ele>781.0</ele>
        <time>2018-05-19T10:50:58.860Z</time>
      </trkpt>
      <trkpt lat="43.19955167" lon="-4.19700667">
        <ele>781.0</ele>
        <time>2018-05-19T10:50:59.883Z</time>
      </trkpt>
      <trkpt lat="43.19952167" lon="-4.19698833">
        <ele>782.0</ele>
        <time>2018-05-19T10:51:00.877Z</time>
      </trkpt>
      <trkpt lat="43.19952167" lon="-4.19698833">
        <ele>782.0</ele>
        <time>2018-05-19T10:51:01.866Z</time>
      </trkpt>
      <trkpt lat="43.19948833" lon="-4.196965">
        <ele>782.0</ele>
        <time>2018-05-19T10:51:02.848Z</time>
      </trkpt>
      <trkpt lat="43.19948833" lon="-4.196965">
        <ele>782.0</ele>
        <time>2018-05-19T10:51:03.874Z</time>
      </trkpt>
      <trkpt lat="43.19945333" lon="-4.19694333">
        <ele>782.0</ele>
        <time>2018-05-19T10:51:04.878Z</time>
      </trkpt>
      <trkpt lat="43.19945333" lon="-4.19694333">
        <ele>782.0</ele>
        <time>2018-05-19T10:51:05.866Z</time>
      </trkpt>
      <trkpt lat="43.19941833" lon="-4.19692833">
        <ele>783.0</ele>
        <time>2018-05-19T10:51:06.849Z</time>
      </trkpt>
      <trkpt lat="43.19941833" lon="-4.19692833">
        <ele>783.0</ele>
        <time>2018-05-19T10:51:07.871Z</time>
      </trkpt>
      <trkpt lat="43.199385" lon="-4.19691833">
        <ele>783.0</ele>
        <time>2018-05-19T10:51:08.854Z</time>
      </trkpt>
      <trkpt lat="43.199365" lon="-4.19691667">
        <ele>783.0</ele>
        <time>2018-05-19T10:51:09.880Z</time>
      </trkpt>
      <trkpt lat="43.19934667" lon="-4.19691833">
        <ele>783.0</ele>
        <time>2018-05-19T10:51:10.877Z</time>
      </trkpt>
      <trkpt lat="43.19934667" lon="-4.19691833">
        <ele>783.0</ele>
        <time>2018-05-19T10:51:11.866Z</time>
      </trkpt>
      <trkpt lat="43.19930667" lon="-4.19692167">
        <ele>784.0</ele>
        <time>2018-05-19T10:51:12.851Z</time>
      </trkpt>
      <trkpt lat="43.19930667" lon="-4.19692167">
        <ele>784.0</ele>
        <time>2018-05-19T10:51:13.845Z</time>
      </trkpt>
      <trkpt lat="43.19926833" lon="-4.19693">
        <ele>784.0</ele>
        <time>2018-05-19T10:51:14.874Z</time>
      </trkpt>
      <trkpt lat="43.19925167" lon="-4.19693167">
        <ele>785.0</ele>
        <time>2018-05-19T10:51:15.869Z</time>
      </trkpt>
      <trkpt lat="43.19925167" lon="-4.19693167">
        <ele>785.0</ele>
        <time>2018-05-19T10:51:16.853Z</time>
      </trkpt>
      <trkpt lat="43.19921667" lon="-4.19692833">
        <ele>785.0</ele>
        <time>2018-05-19T10:51:17.879Z</time>
      </trkpt>
      <trkpt lat="43.19921667" lon="-4.19692833">
        <ele>785.0</ele>
        <time>2018-05-19T10:51:18.855Z</time>
      </trkpt>
      <trkpt lat="43.19918" lon="-4.196935">
        <ele>785.0</ele>
        <time>2018-05-19T10:51:19.882Z</time>
      </trkpt>
      <trkpt lat="43.19916333" lon="-4.19693667">
        <ele>785.0</ele>
        <time>2018-05-19T10:51:20.877Z</time>
      </trkpt>
      <trkpt lat="43.19916333" lon="-4.19693667">
        <ele>785.0</ele>
        <time>2018-05-19T10:51:21.862Z</time>
      </trkpt>
      <trkpt lat="43.19912833" lon="-4.19693833">
        <ele>786.0</ele>
        <time>2018-05-19T10:51:22.848Z</time>
      </trkpt>
      <trkpt lat="43.19912833" lon="-4.19693833">
        <ele>786.0</ele>
        <time>2018-05-19T10:51:23.847Z</time>
      </trkpt>
      <trkpt lat="43.19909167" lon="-4.196945">
        <ele>786.0</ele>
        <time>2018-05-19T10:51:24.877Z</time>
      </trkpt>
      <trkpt lat="43.19909167" lon="-4.196945">
        <ele>786.0</ele>
        <time>2018-05-19T10:51:25.868Z</time>
      </trkpt>
      <trkpt lat="43.19905667" lon="-4.19695333">
        <ele>786.0</ele>
        <time>2018-05-19T10:51:26.853Z</time>
      </trkpt>
      <trkpt lat="43.19904" lon="-4.19695667">
        <ele>786.0</ele>
        <time>2018-05-19T10:51:27.881Z</time>
      </trkpt>
      <trkpt lat="43.19904" lon="-4.19695667">
        <ele>786.0</ele>
        <time>2018-05-19T10:51:28.877Z</time>
      </trkpt>
      <trkpt lat="43.19900667" lon="-4.19695333">
        <ele>787.0</ele>
        <time>2018-05-19T10:51:29.869Z</time>
      </trkpt>
      <trkpt lat="43.19899167" lon="-4.19695667">
        <ele>787.0</ele>
        <time>2018-05-19T10:51:30.855Z</time>
      </trkpt>
      <trkpt lat="43.19899167" lon="-4.19695667">
        <ele>787.0</ele>
        <time>2018-05-19T10:51:31.882Z</time>
      </trkpt>
      <trkpt lat="43.19895833" lon="-4.196965">
        <ele>788.0</ele>
        <time>2018-05-19T10:51:32.869Z</time>
      </trkpt>
      <trkpt lat="43.19895833" lon="-4.196965">
        <ele>788.0</ele>
        <time>2018-05-19T10:51:33.857Z</time>
      </trkpt>
      <trkpt lat="43.19892333" lon="-4.19696">
        <ele>788.0</ele>
        <time>2018-05-19T10:51:34.847Z</time>
      </trkpt>
      <trkpt lat="43.19892333" lon="-4.19696">
        <ele>788.0</ele>
        <time>2018-05-19T10:51:35.874Z</time>
      </trkpt>
      <trkpt lat="43.19888667" lon="-4.19696167">
        <ele>788.0</ele>
        <time>2018-05-19T10:51:36.876Z</time>
      </trkpt>
      <trkpt lat="43.19888667" lon="-4.19696167">
        <ele>788.0</ele>
        <time>2018-05-19T10:51:37.866Z</time>
      </trkpt>
      <trkpt lat="43.198855" lon="-4.19696167">
        <ele>789.0</ele>
        <time>2018-05-19T10:51:38.850Z</time>
      </trkpt>
      <trkpt lat="43.198855" lon="-4.19696167">
        <ele>789.0</ele>
        <time>2018-05-19T10:51:39.868Z</time>
      </trkpt>
      <trkpt lat="43.19881833" lon="-4.19696833">
        <ele>789.0</ele>
        <time>2018-05-19T10:51:40.846Z</time>
      </trkpt>
      <trkpt lat="43.19881833" lon="-4.19696833">
        <ele>789.0</ele>
        <time>2018-05-19T10:51:41.869Z</time>
      </trkpt>
      <trkpt lat="43.19878" lon="-4.19697333">
        <ele>789.0</ele>
        <time>2018-05-19T10:51:42.876Z</time>
      </trkpt>
      <trkpt lat="43.19878" lon="-4.19697333">
        <ele>789.0</ele>
        <time>2018-05-19T10:51:43.877Z</time>
      </trkpt>
      <trkpt lat="43.19874833" lon="-4.19696667">
        <ele>789.0</ele>
        <time>2018-05-19T10:51:44.873Z</time>
      </trkpt>
      <trkpt lat="43.19874833" lon="-4.19696667">
        <ele>789.0</ele>
        <time>2018-05-19T10:51:45.882Z</time>
      </trkpt>
      <trkpt lat="43.19872333" lon="-4.19696667">
        <ele>790.0</ele>
        <time>2018-05-19T10:51:46.848Z</time>
      </trkpt>
      <trkpt lat="43.198705" lon="-4.19697">
        <ele>790.0</ele>
        <time>2018-05-19T10:51:47.855Z</time>
      </trkpt>
      <trkpt lat="43.198705" lon="-4.19697">
        <ele>790.0</ele>
        <time>2018-05-19T10:51:48.861Z</time>
      </trkpt>
      <trkpt lat="43.198665" lon="-4.196965">
        <ele>790.0</ele>
        <time>2018-05-19T10:51:49.868Z</time>
      </trkpt>
      <trkpt lat="43.198645" lon="-4.196965">
        <ele>790.0</ele>
        <time>2018-05-19T10:51:50.868Z</time>
      </trkpt>
      <trkpt lat="43.198625" lon="-4.19696667">
        <ele>790.0</ele>
        <time>2018-05-19T10:51:51.868Z</time>
      </trkpt>
      <trkpt lat="43.198605" lon="-4.19696667">
        <ele>790.0</ele>
        <time>2018-05-19T10:51:52.877Z</time>
      </trkpt>
      <trkpt lat="43.198605" lon="-4.19696667">
        <ele>790.0</ele>
        <time>2018-05-19T10:51:53.879Z</time>
      </trkpt>
      <trkpt lat="43.198565" lon="-4.196965">
        <ele>791.0</ele>
        <time>2018-05-19T10:51:54.878Z</time>
      </trkpt>
      <trkpt lat="43.198545" lon="-4.196965">
        <ele>791.0</ele>
        <time>2018-05-19T10:51:55.875Z</time>
      </trkpt>
      <trkpt lat="43.198545" lon="-4.196965">
        <ele>791.0</ele>
        <time>2018-05-19T10:51:56.869Z</time>
      </trkpt>
      <trkpt lat="43.198505" lon="-4.19696">
        <ele>791.0</ele>
        <time>2018-05-19T10:51:57.872Z</time>
      </trkpt>
      <trkpt lat="43.19848333" lon="-4.19696">
        <ele>791.0</ele>
        <time>2018-05-19T10:51:58.877Z</time>
      </trkpt>
      <trkpt lat="43.19848333" lon="-4.19696">
        <ele>791.0</ele>
        <time>2018-05-19T10:51:59.874Z</time>
      </trkpt>
      <trkpt lat="43.19844" lon="-4.19696167">
        <ele>791.0</ele>
        <time>2018-05-19T10:52:00.875Z</time>
      </trkpt>
      <trkpt lat="43.19844" lon="-4.19696167">
        <ele>791.0</ele>
        <time>2018-05-19T10:52:01.869Z</time>
      </trkpt>
      <trkpt lat="43.19839833" lon="-4.19695833">
        <ele>791.0</ele>
        <time>2018-05-19T10:52:02.872Z</time>
      </trkpt>
      <trkpt lat="43.19839833" lon="-4.19695833">
        <ele>791.0</ele>
        <time>2018-05-19T10:52:03.875Z</time>
      </trkpt>
      <trkpt lat="43.19835833" lon="-4.19695667">
        <ele>792.0</ele>
        <time>2018-05-19T10:52:04.877Z</time>
      </trkpt>
      <trkpt lat="43.19835833" lon="-4.19695667">
        <ele>792.0</ele>
        <time>2018-05-19T10:52:05.872Z</time>
      </trkpt>
      <trkpt lat="43.19831667" lon="-4.19695833">
        <ele>792.0</ele>
        <time>2018-05-19T10:52:06.876Z</time>
      </trkpt>
      <trkpt lat="43.19831667" lon="-4.19695833">
        <ele>792.0</ele>
        <time>2018-05-19T10:52:07.867Z</time>
      </trkpt>
      <trkpt lat="43.19827667" lon="-4.19695667">
        <ele>793.0</ele>
        <time>2018-05-19T10:52:08.874Z</time>
      </trkpt>
      <trkpt lat="43.19827667" lon="-4.19695667">
        <ele>793.0</ele>
        <time>2018-05-19T10:52:09.869Z</time>
      </trkpt>
      <trkpt lat="43.198235" lon="-4.19695833">
        <ele>793.0</ele>
        <time>2018-05-19T10:52:10.865Z</time>
      </trkpt>
      <trkpt lat="43.198235" lon="-4.19695833">
        <ele>793.0</ele>
        <time>2018-05-19T10:52:11.852Z</time>
      </trkpt>
      <trkpt lat="43.19819167" lon="-4.196955">
        <ele>793.0</ele>
        <time>2018-05-19T10:52:12.877Z</time>
      </trkpt>
      <trkpt lat="43.19819167" lon="-4.196955">
        <ele>793.0</ele>
        <time>2018-05-19T10:52:13.879Z</time>
      </trkpt>
      <trkpt lat="43.19815" lon="-4.196955">
        <ele>794.0</ele>
        <time>2018-05-19T10:52:14.868Z</time>
      </trkpt>
      <trkpt lat="43.19815" lon="-4.196955">
        <ele>794.0</ele>
        <time>2018-05-19T10:52:15.850Z</time>
      </trkpt>
      <trkpt lat="43.19810833" lon="-4.19696333">
        <ele>794.0</ele>
        <time>2018-05-19T10:52:16.877Z</time>
      </trkpt>
      <trkpt lat="43.19810833" lon="-4.19696333">
        <ele>794.0</ele>
        <time>2018-05-19T10:52:17.868Z</time>
      </trkpt>
      <trkpt lat="43.19806667" lon="-4.196965">
        <ele>794.0</ele>
        <time>2018-05-19T10:52:18.874Z</time>
      </trkpt>
      <trkpt lat="43.19806667" lon="-4.196965">
        <ele>794.0</ele>
        <time>2018-05-19T10:52:19.883Z</time>
      </trkpt>
      <trkpt lat="43.19802833" lon="-4.19697">
        <ele>795.0</ele>
        <time>2018-05-19T10:52:20.872Z</time>
      </trkpt>
      <trkpt lat="43.19802833" lon="-4.19697">
        <ele>795.0</ele>
        <time>2018-05-19T10:52:21.869Z</time>
      </trkpt>
      <trkpt lat="43.19798667" lon="-4.19698">
        <ele>795.0</ele>
        <time>2018-05-19T10:52:22.854Z</time>
      </trkpt>
      <trkpt lat="43.19798667" lon="-4.19698">
        <ele>795.0</ele>
        <time>2018-05-19T10:52:23.854Z</time>
      </trkpt>
      <trkpt lat="43.19794667" lon="-4.19698833">
        <ele>795.0</ele>
        <time>2018-05-19T10:52:24.849Z</time>
      </trkpt>
      <trkpt lat="43.19794667" lon="-4.19698833">
        <ele>795.0</ele>
        <time>2018-05-19T10:52:25.873Z</time>
      </trkpt>
      <trkpt lat="43.19790833" lon="-4.19699667">
        <ele>795.0</ele>
        <time>2018-05-19T10:52:26.869Z</time>
      </trkpt>
      <trkpt lat="43.19790833" lon="-4.19699667">
        <ele>795.0</ele>
        <time>2018-05-19T10:52:27.864Z</time>
      </trkpt>
      <trkpt lat="43.19787" lon="-4.19700333">
        <ele>795.0</ele>
        <time>2018-05-19T10:52:28.850Z</time>
      </trkpt>
      <trkpt lat="43.19787" lon="-4.19700333">
        <ele>795.0</ele>
        <time>2018-05-19T10:52:29.874Z</time>
      </trkpt>
      <trkpt lat="43.197835" lon="-4.19701167">
        <ele>796.0</ele>
        <time>2018-05-19T10:52:30.873Z</time>
      </trkpt>
      <trkpt lat="43.197835" lon="-4.19701167">
        <ele>796.0</ele>
        <time>2018-05-19T10:52:31.869Z</time>
      </trkpt>
      <trkpt lat="43.1978" lon="-4.19702">
        <ele>796.0</ele>
        <time>2018-05-19T10:52:32.875Z</time>
      </trkpt>
      <trkpt lat="43.1978" lon="-4.19702">
        <ele>796.0</ele>
        <time>2018-05-19T10:52:33.878Z</time>
      </trkpt>
      <trkpt lat="43.19776167" lon="-4.19702833">
        <ele>796.0</ele>
        <time>2018-05-19T10:52:34.876Z</time>
      </trkpt>
      <trkpt lat="43.19776167" lon="-4.19702833">
        <ele>796.0</ele>
        <time>2018-05-19T10:52:35.868Z</time>
      </trkpt>
      <trkpt lat="43.19772333" lon="-4.197035">
        <ele>797.0</ele>
        <time>2018-05-19T10:52:36.875Z</time>
      </trkpt>
      <trkpt lat="43.19772333" lon="-4.197035">
        <ele>797.0</ele>
        <time>2018-05-19T10:52:37.868Z</time>
      </trkpt>
      <trkpt lat="43.19768833" lon="-4.19704167">
        <ele>797.0</ele>
        <time>2018-05-19T10:52:38.872Z</time>
      </trkpt>
      <trkpt lat="43.19768833" lon="-4.19704167">
        <ele>797.0</ele>
        <time>2018-05-19T10:52:39.868Z</time>
      </trkpt>
      <trkpt lat="43.19765167" lon="-4.197045">
        <ele>797.0</ele>
        <time>2018-05-19T10:52:40.877Z</time>
      </trkpt>
      <trkpt lat="43.19765167" lon="-4.197045">
        <ele>797.0</ele>
        <time>2018-05-19T10:52:41.867Z</time>
      </trkpt>
      <trkpt lat="43.197615" lon="-4.19705667">
        <ele>797.0</ele>
        <time>2018-05-19T10:52:42.874Z</time>
      </trkpt>
      <trkpt lat="43.197615" lon="-4.19705667">
        <ele>797.0</ele>
        <time>2018-05-19T10:52:43.873Z</time>
      </trkpt>
      <trkpt lat="43.19757833" lon="-4.197065">
        <ele>797.0</ele>
        <time>2018-05-19T10:52:44.875Z</time>
      </trkpt>
      <trkpt lat="43.19757833" lon="-4.197065">
        <ele>797.0</ele>
        <time>2018-05-19T10:52:45.861Z</time>
      </trkpt>
      <trkpt lat="43.19754167" lon="-4.19706833">
        <ele>798.0</ele>
        <time>2018-05-19T10:52:46.857Z</time>
      </trkpt>
      <trkpt lat="43.19752333" lon="-4.19707333">
        <ele>798.0</ele>
        <time>2018-05-19T10:52:47.867Z</time>
      </trkpt>
      <trkpt lat="43.19752333" lon="-4.19707333">
        <ele>798.0</ele>
        <time>2018-05-19T10:52:48.874Z</time>
      </trkpt>
      <trkpt lat="43.19748667" lon="-4.19707667">
        <ele>799.0</ele>
        <time>2018-05-19T10:52:49.880Z</time>
      </trkpt>
      <trkpt lat="43.19748667" lon="-4.19707667">
        <ele>799.0</ele>
        <time>2018-05-19T10:52:50.869Z</time>
      </trkpt>
      <trkpt lat="43.19745" lon="-4.19707833">
        <ele>799.0</ele>
        <time>2018-05-19T10:52:51.872Z</time>
      </trkpt>
      <trkpt lat="43.19743167" lon="-4.19708167">
        <ele>799.0</ele>
        <time>2018-05-19T10:52:52.877Z</time>
      </trkpt>
      <trkpt lat="43.19743167" lon="-4.19708167">
        <ele>799.0</ele>
        <time>2018-05-19T10:52:53.879Z</time>
      </trkpt>
      <trkpt lat="43.19739333" lon="-4.19708833">
        <ele>799.0</ele>
        <time>2018-05-19T10:52:54.845Z</time>
      </trkpt>
      <trkpt lat="43.19739333" lon="-4.19708833">
        <ele>799.0</ele>
        <time>2018-05-19T10:52:55.869Z</time>
      </trkpt>
      <trkpt lat="43.19735667" lon="-4.197095">
        <ele>799.0</ele>
        <time>2018-05-19T10:52:56.867Z</time>
      </trkpt>
      <trkpt lat="43.19735667" lon="-4.197095">
        <ele>799.0</ele>
        <time>2018-05-19T10:52:57.872Z</time>
      </trkpt>
      <trkpt lat="43.19731833" lon="-4.197095">
        <ele>799.0</ele>
        <time>2018-05-19T10:52:58.877Z</time>
      </trkpt>
      <trkpt lat="43.19731833" lon="-4.197095">
        <ele>799.0</ele>
        <time>2018-05-19T10:52:59.871Z</time>
      </trkpt>
      <trkpt lat="43.19728" lon="-4.19710167">
        <ele>799.0</ele>
        <time>2018-05-19T10:53:00.874Z</time>
      </trkpt>
      <trkpt lat="43.19728" lon="-4.19710167">
        <ele>799.0</ele>
        <time>2018-05-19T10:53:01.865Z</time>
      </trkpt>
      <trkpt lat="43.197245" lon="-4.19710667">
        <ele>800.0</ele>
        <time>2018-05-19T10:53:02.852Z</time>
      </trkpt>
      <trkpt lat="43.197245" lon="-4.19710667">
        <ele>800.0</ele>
        <time>2018-05-19T10:53:03.845Z</time>
      </trkpt>
      <trkpt lat="43.19721" lon="-4.19711">
        <ele>800.0</ele>
        <time>2018-05-19T10:53:04.877Z</time>
      </trkpt>
      <trkpt lat="43.19721" lon="-4.19711">
        <ele>800.0</ele>
        <time>2018-05-19T10:53:05.869Z</time>
      </trkpt>
      <trkpt lat="43.197175" lon="-4.197115">
        <ele>800.0</ele>
        <time>2018-05-19T10:53:06.868Z</time>
      </trkpt>
      <trkpt lat="43.197175" lon="-4.197115">
        <ele>800.0</ele>
        <time>2018-05-19T10:53:07.869Z</time>
      </trkpt>
      <trkpt lat="43.19714" lon="-4.19711833">
        <ele>801.0</ele>
        <time>2018-05-19T10:53:08.872Z</time>
      </trkpt>
      <trkpt lat="43.19714" lon="-4.19711833">
        <ele>801.0</ele>
        <time>2018-05-19T10:53:09.869Z</time>
      </trkpt>
      <trkpt lat="43.197105" lon="-4.19712333">
        <ele>801.0</ele>
        <time>2018-05-19T10:53:10.854Z</time>
      </trkpt>
      <trkpt lat="43.197105" lon="-4.19712333">
        <ele>801.0</ele>
        <time>2018-05-19T10:53:11.855Z</time>
      </trkpt>
      <trkpt lat="43.19706667" lon="-4.19712167">
        <ele>802.0</ele>
        <time>2018-05-19T10:53:12.882Z</time>
      </trkpt>
      <trkpt lat="43.19706667" lon="-4.19712167">
        <ele>802.0</ele>
        <time>2018-05-19T10:53:13.882Z</time>
      </trkpt>
      <trkpt lat="43.19703167" lon="-4.19712667">
        <ele>803.0</ele>
        <time>2018-05-19T10:53:14.872Z</time>
      </trkpt>
      <trkpt lat="43.19703167" lon="-4.19712667">
        <ele>803.0</ele>
        <time>2018-05-19T10:53:15.868Z</time>
      </trkpt>
      <trkpt lat="43.19699333" lon="-4.19712667">
        <ele>803.0</ele>
        <time>2018-05-19T10:53:16.853Z</time>
      </trkpt>
      <trkpt lat="43.19699333" lon="-4.19712667">
        <ele>803.0</ele>
        <time>2018-05-19T10:53:17.851Z</time>
      </trkpt>
      <trkpt lat="43.196955" lon="-4.19712333">
        <ele>803.0</ele>
        <time>2018-05-19T10:53:18.876Z</time>
      </trkpt>
      <trkpt lat="43.196955" lon="-4.19712333">
        <ele>803.0</ele>
        <time>2018-05-19T10:53:19.882Z</time>
      </trkpt>
      <trkpt lat="43.19691833" lon="-4.19712">
        <ele>804.0</ele>
        <time>2018-05-19T10:53:20.872Z</time>
      </trkpt>
      <trkpt lat="43.19691833" lon="-4.19712">
        <ele>804.0</ele>
        <time>2018-05-19T10:53:21.868Z</time>
      </trkpt>
      <trkpt lat="43.19688167" lon="-4.197115">
        <ele>804.0</ele>
        <time>2018-05-19T10:53:22.853Z</time>
      </trkpt>
      <trkpt lat="43.19688167" lon="-4.197115">
        <ele>804.0</ele>
        <time>2018-05-19T10:53:23.851Z</time>
      </trkpt>
      <trkpt lat="43.19684667" lon="-4.19711167">
        <ele>804.0</ele>
        <time>2018-05-19T10:53:24.879Z</time>
      </trkpt>
      <trkpt lat="43.19684667" lon="-4.19711167">
        <ele>804.0</ele>
        <time>2018-05-19T10:53:25.868Z</time>
      </trkpt>
      <trkpt lat="43.19681" lon="-4.19710333">
        <ele>804.0</ele>
        <time>2018-05-19T10:53:26.872Z</time>
      </trkpt>
      <trkpt lat="43.19681" lon="-4.19710333">
        <ele>804.0</ele>
        <time>2018-05-19T10:53:27.869Z</time>
      </trkpt>
      <trkpt lat="43.19677333" lon="-4.19708833">
        <ele>805.0</ele>
        <time>2018-05-19T10:53:28.869Z</time>
      </trkpt>
      <trkpt lat="43.19677333" lon="-4.19708833">
        <ele>805.0</ele>
        <time>2018-05-19T10:53:29.869Z</time>
      </trkpt>
      <trkpt lat="43.19673" lon="-4.197075">
        <ele>804.0</ele>
        <time>2018-05-19T10:53:30.863Z</time>
      </trkpt>
      <trkpt lat="43.19671" lon="-4.19706667">
        <ele>804.0</ele>
        <time>2018-05-19T10:53:31.849Z</time>
      </trkpt>
      <trkpt lat="43.19671" lon="-4.19706667">
        <ele>804.0</ele>
        <time>2018-05-19T10:53:32.873Z</time>
      </trkpt>
      <trkpt lat="43.19667167" lon="-4.197055">
        <ele>804.0</ele>
        <time>2018-05-19T10:53:33.882Z</time>
      </trkpt>
      <trkpt lat="43.19665333" lon="-4.19705">
        <ele>804.0</ele>
        <time>2018-05-19T10:53:34.869Z</time>
      </trkpt>
      <trkpt lat="43.19665333" lon="-4.19705">
        <ele>804.0</ele>
        <time>2018-05-19T10:53:35.869Z</time>
      </trkpt>
      <trkpt lat="43.19661667" lon="-4.19704333">
        <ele>804.0</ele>
        <time>2018-05-19T10:53:36.874Z</time>
      </trkpt>
      <trkpt lat="43.19661667" lon="-4.19704333">
        <ele>804.0</ele>
        <time>2018-05-19T10:53:37.869Z</time>
      </trkpt>
      <trkpt lat="43.19658" lon="-4.19703167">
        <ele>805.0</ele>
        <time>2018-05-19T10:53:38.871Z</time>
      </trkpt>
      <trkpt lat="43.19658" lon="-4.19703167">
        <ele>805.0</ele>
        <time>2018-05-19T10:53:39.863Z</time>
      </trkpt>
      <trkpt lat="43.196545" lon="-4.197025">
        <ele>805.0</ele>
        <time>2018-05-19T10:53:40.850Z</time>
      </trkpt>
      <trkpt lat="43.196545" lon="-4.197025">
        <ele>805.0</ele>
        <time>2018-05-19T10:53:41.873Z</time>
      </trkpt>
      <trkpt lat="43.19650833" lon="-4.19701833">
        <ele>805.0</ele>
        <time>2018-05-19T10:53:42.875Z</time>
      </trkpt>
      <trkpt lat="43.19650833" lon="-4.19701833">
        <ele>805.0</ele>
        <time>2018-05-19T10:53:43.873Z</time>
      </trkpt>
      <trkpt lat="43.19647167" lon="-4.19700667">
        <ele>805.0</ele>
        <time>2018-05-19T10:53:44.872Z</time>
      </trkpt>
      <trkpt lat="43.19647167" lon="-4.19700667">
        <ele>805.0</ele>
        <time>2018-05-19T10:53:45.862Z</time>
      </trkpt>
      <trkpt lat="43.196435" lon="-4.197">
        <ele>805.0</ele>
        <time>2018-05-19T10:53:46.872Z</time>
      </trkpt>
      <trkpt lat="43.196435" lon="-4.197">
        <ele>805.0</ele>
        <time>2018-05-19T10:53:47.846Z</time>
      </trkpt>
      <trkpt lat="43.19639667" lon="-4.19699333">
        <ele>806.0</ele>
        <time>2018-05-19T10:53:48.852Z</time>
      </trkpt>
      <trkpt lat="43.19637833" lon="-4.19698833">
        <ele>806.0</ele>
        <time>2018-05-19T10:53:49.872Z</time>
      </trkpt>
      <trkpt lat="43.19637833" lon="-4.19698833">
        <ele>806.0</ele>
        <time>2018-05-19T10:53:50.881Z</time>
      </trkpt>
      <trkpt lat="43.196345" lon="-4.19697667">
        <ele>806.0</ele>
        <time>2018-05-19T10:53:51.872Z</time>
      </trkpt>
      <trkpt lat="43.19632667" lon="-4.19696833">
        <ele>806.0</ele>
        <time>2018-05-19T10:53:52.869Z</time>
      </trkpt>
      <trkpt lat="43.19632667" lon="-4.19696833">
        <ele>806.0</ele>
        <time>2018-05-19T10:53:53.855Z</time>
      </trkpt>
      <trkpt lat="43.19628833" lon="-4.19695167">
        <ele>806.0</ele>
        <time>2018-05-19T10:53:54.845Z</time>
      </trkpt>
      <trkpt lat="43.19628833" lon="-4.19695167">
        <ele>806.0</ele>
        <time>2018-05-19T10:53:55.874Z</time>
      </trkpt>
      <trkpt lat="43.19625" lon="-4.19693833">
        <ele>806.0</ele>
        <time>2018-05-19T10:53:56.874Z</time>
      </trkpt>
      <trkpt lat="43.19625" lon="-4.19693833">
        <ele>806.0</ele>
        <time>2018-05-19T10:53:57.867Z</time>
      </trkpt>
      <trkpt lat="43.19621" lon="-4.196925">
        <ele>806.0</ele>
        <time>2018-05-19T10:53:58.852Z</time>
      </trkpt>
      <trkpt lat="43.19621" lon="-4.196925">
        <ele>806.0</ele>
        <time>2018-05-19T10:53:59.877Z</time>
      </trkpt>
      <trkpt lat="43.19617167" lon="-4.19691333">
        <ele>806.0</ele>
        <time>2018-05-19T10:54:00.868Z</time>
      </trkpt>
      <trkpt lat="43.19617167" lon="-4.19691333">
        <ele>806.0</ele>
        <time>2018-05-19T10:54:01.868Z</time>
      </trkpt>
      <trkpt lat="43.19613167" lon="-4.19690167">
        <ele>807.0</ele>
        <time>2018-05-19T10:54:02.872Z</time>
      </trkpt>
      <trkpt lat="43.19613167" lon="-4.19690167">
        <ele>807.0</ele>
        <time>2018-05-19T10:54:03.880Z</time>
      </trkpt>
      <trkpt lat="43.19609167" lon="-4.19689667">
        <ele>807.0</ele>
        <time>2018-05-19T10:54:04.869Z</time>
      </trkpt>
      <trkpt lat="43.19609167" lon="-4.19689667">
        <ele>807.0</ele>
        <time>2018-05-19T10:54:05.869Z</time>
      </trkpt>
      <trkpt lat="43.19605167" lon="-4.19689">
        <ele>808.0</ele>
        <time>2018-05-19T10:54:06.849Z</time>
      </trkpt>
      <trkpt lat="43.19605167" lon="-4.19689">
        <ele>808.0</ele>
        <time>2018-05-19T10:54:07.873Z</time>
      </trkpt>
      <trkpt lat="43.196015" lon="-4.19688167">
        <ele>808.0</ele>
        <time>2018-05-19T10:54:08.867Z</time>
      </trkpt>
      <trkpt lat="43.196015" lon="-4.19688167">
        <ele>808.0</ele>
        <time>2018-05-19T10:54:09.868Z</time>
      </trkpt>
      <trkpt lat="43.19597667" lon="-4.19687167">
        <ele>809.0</ele>
        <time>2018-05-19T10:54:10.869Z</time>
      </trkpt>
      <trkpt lat="43.19597667" lon="-4.19687167">
        <ele>809.0</ele>
        <time>2018-05-19T10:54:11.872Z</time>
      </trkpt>
      <trkpt lat="43.19594" lon="-4.19686167">
        <ele>810.0</ele>
        <time>2018-05-19T10:54:12.874Z</time>
      </trkpt>
      <trkpt lat="43.19594" lon="-4.19686167">
        <ele>810.0</ele>
        <time>2018-05-19T10:54:13.876Z</time>
      </trkpt>
      <trkpt lat="43.19590333" lon="-4.19685167">
        <ele>810.0</ele>
        <time>2018-05-19T10:54:14.875Z</time>
      </trkpt>
      <trkpt lat="43.195885" lon="-4.196845">
        <ele>811.0</ele>
        <time>2018-05-19T10:54:15.874Z</time>
      </trkpt>
      <trkpt lat="43.195885" lon="-4.196845">
        <ele>811.0</ele>
        <time>2018-05-19T10:54:16.866Z</time>
      </trkpt>
      <trkpt lat="43.19584833" lon="-4.19682833">
        <ele>811.0</ele>
        <time>2018-05-19T10:54:17.862Z</time>
      </trkpt>
      <trkpt lat="43.19583" lon="-4.19682">
        <ele>811.0</ele>
        <time>2018-05-19T10:54:18.847Z</time>
      </trkpt>
      <trkpt lat="43.19583" lon="-4.19682">
        <ele>811.0</ele>
        <time>2018-05-19T10:54:19.871Z</time>
      </trkpt>
      <trkpt lat="43.19579333" lon="-4.196805">
        <ele>812.0</ele>
        <time>2018-05-19T10:54:20.873Z</time>
      </trkpt>
      <trkpt lat="43.19577333" lon="-4.19679833">
        <ele>812.0</ele>
        <time>2018-05-19T10:54:21.872Z</time>
      </trkpt>
      <trkpt lat="43.19575333" lon="-4.19679167">
        <ele>812.0</ele>
        <time>2018-05-19T10:54:22.869Z</time>
      </trkpt>
      <trkpt lat="43.19575333" lon="-4.19679167">
        <ele>812.0</ele>
        <time>2018-05-19T10:54:23.854Z</time>
      </trkpt>
      <trkpt lat="43.19571333" lon="-4.196775">
        <ele>812.0</ele>
        <time>2018-05-19T10:54:24.881Z</time>
      </trkpt>
      <trkpt lat="43.19569333" lon="-4.19677167">
        <ele>812.0</ele>
        <time>2018-05-19T10:54:25.872Z</time>
      </trkpt>
      <trkpt lat="43.19569333" lon="-4.19677167">
        <ele>812.0</ele>
        <time>2018-05-19T10:54:26.864Z</time>
      </trkpt>
      <trkpt lat="43.19565167" lon="-4.19676">
        <ele>812.0</ele>
        <time>2018-05-19T10:54:27.850Z</time>
      </trkpt>
      <trkpt lat="43.19563167" lon="-4.19675167">
        <ele>812.0</ele>
        <time>2018-05-19T10:54:28.877Z</time>
      </trkpt>
      <trkpt lat="43.19563167" lon="-4.19675167">
        <ele>812.0</ele>
        <time>2018-05-19T10:54:29.867Z</time>
      </trkpt>
      <trkpt lat="43.19559167" lon="-4.196735">
        <ele>812.0</ele>
        <time>2018-05-19T10:54:30.862Z</time>
      </trkpt>
      <trkpt lat="43.19559167" lon="-4.196735">
        <ele>812.0</ele>
        <time>2018-05-19T10:54:31.847Z</time>
      </trkpt>
      <trkpt lat="43.19555" lon="-4.196725">
        <ele>812.0</ele>
        <time>2018-05-19T10:54:32.874Z</time>
      </trkpt>
      <trkpt lat="43.19555" lon="-4.196725">
        <ele>812.0</ele>
        <time>2018-05-19T10:54:33.881Z</time>
      </trkpt>
      <trkpt lat="43.19551" lon="-4.19671">
        <ele>813.0</ele>
        <time>2018-05-19T10:54:34.869Z</time>
      </trkpt>
      <trkpt lat="43.19551" lon="-4.19671">
        <ele>813.0</ele>
        <time>2018-05-19T10:54:35.864Z</time>
      </trkpt>
      <trkpt lat="43.19547167" lon="-4.19669167">
        <ele>813.0</ele>
        <time>2018-05-19T10:54:36.849Z</time>
      </trkpt>
      <trkpt lat="43.19547167" lon="-4.19669167">
        <ele>813.0</ele>
        <time>2018-05-19T10:54:37.873Z</time>
      </trkpt>
      <trkpt lat="43.19543333" lon="-4.196675">
        <ele>813.0</ele>
        <time>2018-05-19T10:54:38.872Z</time>
      </trkpt>
      <trkpt lat="43.195415" lon="-4.19666833">
        <ele>814.0</ele>
        <time>2018-05-19T10:54:39.871Z</time>
      </trkpt>
      <trkpt lat="43.195415" lon="-4.19666833">
        <ele>814.0</ele>
        <time>2018-05-19T10:54:40.883Z</time>
      </trkpt>
      <trkpt lat="43.19537667" lon="-4.19665167">
        <ele>814.0</ele>
        <time>2018-05-19T10:54:41.875Z</time>
      </trkpt>
      <trkpt lat="43.19535667" lon="-4.19664333">
        <ele>814.0</ele>
        <time>2018-05-19T10:54:42.875Z</time>
      </trkpt>
      <trkpt lat="43.19535667" lon="-4.19664333">
        <ele>814.0</ele>
        <time>2018-05-19T10:54:43.846Z</time>
      </trkpt>
      <trkpt lat="43.195315" lon="-4.19662833">
        <ele>814.0</ele>
        <time>2018-05-19T10:54:44.871Z</time>
      </trkpt>
      <trkpt lat="43.195315" lon="-4.19662833">
        <ele>814.0</ele>
        <time>2018-05-19T10:54:45.853Z</time>
      </trkpt>
      <trkpt lat="43.19527333" lon="-4.19661333">
        <ele>814.0</ele>
        <time>2018-05-19T10:54:46.846Z</time>
      </trkpt>
      <trkpt lat="43.19527333" lon="-4.19661333">
        <ele>814.0</ele>
        <time>2018-05-19T10:54:47.852Z</time>
      </trkpt>
      <trkpt lat="43.19523167" lon="-4.19659667">
        <ele>814.0</ele>
        <time>2018-05-19T10:54:48.858Z</time>
      </trkpt>
      <trkpt lat="43.19521167" lon="-4.19658833">
        <ele>814.0</ele>
        <time>2018-05-19T10:54:49.847Z</time>
      </trkpt>
      <trkpt lat="43.19521167" lon="-4.19658833">
        <ele>814.0</ele>
        <time>2018-05-19T10:54:50.873Z</time>
      </trkpt>
      <trkpt lat="43.19517" lon="-4.19657167">
        <ele>814.0</ele>
        <time>2018-05-19T10:54:51.875Z</time>
      </trkpt>
      <trkpt lat="43.19515" lon="-4.196565">
        <ele>814.0</ele>
        <time>2018-05-19T10:54:52.868Z</time>
      </trkpt>
      <trkpt lat="43.19515" lon="-4.196565">
        <ele>814.0</ele>
        <time>2018-05-19T10:54:53.855Z</time>
      </trkpt>
      <trkpt lat="43.19511" lon="-4.19655167">
        <ele>815.0</ele>
        <time>2018-05-19T10:54:54.879Z</time>
      </trkpt>
      <trkpt lat="43.19509" lon="-4.19654333">
        <ele>815.0</ele>
        <time>2018-05-19T10:54:55.871Z</time>
      </trkpt>
      <trkpt lat="43.19509" lon="-4.19654333">
        <ele>815.0</ele>
        <time>2018-05-19T10:54:56.868Z</time>
      </trkpt>
      <trkpt lat="43.19504833" lon="-4.19653">
        <ele>815.0</ele>
        <time>2018-05-19T10:54:57.872Z</time>
      </trkpt>
      <trkpt lat="43.19502667" lon="-4.19652333">
        <ele>815.0</ele>
        <time>2018-05-19T10:54:58.877Z</time>
      </trkpt>
      <trkpt lat="43.19502667" lon="-4.19652333">
        <ele>815.0</ele>
        <time>2018-05-19T10:54:59.868Z</time>
      </trkpt>
      <trkpt lat="43.19498667" lon="-4.19651">
        <ele>816.0</ele>
        <time>2018-05-19T10:55:00.875Z</time>
      </trkpt>
      <trkpt lat="43.19498667" lon="-4.19651">
        <ele>816.0</ele>
        <time>2018-05-19T10:55:01.869Z</time>
      </trkpt>
      <trkpt lat="43.19494667" lon="-4.19649833">
        <ele>816.0</ele>
        <time>2018-05-19T10:55:02.873Z</time>
      </trkpt>
      <trkpt lat="43.19494667" lon="-4.19649833">
        <ele>816.0</ele>
        <time>2018-05-19T10:55:03.860Z</time>
      </trkpt>
      <trkpt lat="43.19490833" lon="-4.19648833">
        <ele>816.0</ele>
        <time>2018-05-19T10:55:04.846Z</time>
      </trkpt>
      <trkpt lat="43.19490833" lon="-4.19648833">
        <ele>816.0</ele>
        <time>2018-05-19T10:55:05.871Z</time>
      </trkpt>
      <trkpt lat="43.19486833" lon="-4.19648">
        <ele>816.0</ele>
        <time>2018-05-19T10:55:06.872Z</time>
      </trkpt>
      <trkpt lat="43.19486833" lon="-4.19648">
        <ele>816.0</ele>
        <time>2018-05-19T10:55:07.867Z</time>
      </trkpt>
      <trkpt lat="43.19482833" lon="-4.19647333">
        <ele>816.0</ele>
        <time>2018-05-19T10:55:08.867Z</time>
      </trkpt>
      <trkpt lat="43.19482833" lon="-4.19647333">
        <ele>816.0</ele>
        <time>2018-05-19T10:55:09.857Z</time>
      </trkpt>
      <trkpt lat="43.19479" lon="-4.19646333">
        <ele>817.0</ele>
        <time>2018-05-19T10:55:10.846Z</time>
      </trkpt>
      <trkpt lat="43.19479" lon="-4.19646333">
        <ele>817.0</ele>
        <time>2018-05-19T10:55:11.870Z</time>
      </trkpt>
      <trkpt lat="43.19475" lon="-4.196455">
        <ele>817.0</ele>
        <time>2018-05-19T10:55:12.875Z</time>
      </trkpt>
      <trkpt lat="43.19475" lon="-4.196455">
        <ele>817.0</ele>
        <time>2018-05-19T10:55:13.879Z</time>
      </trkpt>
      <trkpt lat="43.19471167" lon="-4.196445">
        <ele>817.0</ele>
        <time>2018-05-19T10:55:14.871Z</time>
      </trkpt>
      <trkpt lat="43.19471167" lon="-4.196445">
        <ele>817.0</ele>
        <time>2018-05-19T10:55:15.847Z</time>
      </trkpt>
      <trkpt lat="43.19467" lon="-4.19643333">
        <ele>817.0</ele>
        <time>2018-05-19T10:55:16.878Z</time>
      </trkpt>
      <trkpt lat="43.19467" lon="-4.19643333">
        <ele>817.0</ele>
        <time>2018-05-19T10:55:17.868Z</time>
      </trkpt>
      <trkpt lat="43.19463333" lon="-4.19642667">
        <ele>818.0</ele>
        <time>2018-05-19T10:55:18.875Z</time>
      </trkpt>
      <trkpt lat="43.19463333" lon="-4.19642667">
        <ele>818.0</ele>
        <time>2018-05-19T10:55:19.852Z</time>
      </trkpt>
      <trkpt lat="43.19459333" lon="-4.19642">
        <ele>818.0</ele>
        <time>2018-05-19T10:55:20.851Z</time>
      </trkpt>
      <trkpt lat="43.19459333" lon="-4.19642">
        <ele>818.0</ele>
        <time>2018-05-19T10:55:21.873Z</time>
      </trkpt>
      <trkpt lat="43.194555" lon="-4.19641167">
        <ele>818.0</ele>
        <time>2018-05-19T10:55:22.868Z</time>
      </trkpt>
      <trkpt lat="43.194555" lon="-4.19641167">
        <ele>818.0</ele>
        <time>2018-05-19T10:55:23.855Z</time>
      </trkpt>
      <trkpt lat="43.19451667" lon="-4.196405">
        <ele>819.0</ele>
        <time>2018-05-19T10:55:24.883Z</time>
      </trkpt>
      <trkpt lat="43.19451667" lon="-4.196405">
        <ele>819.0</ele>
        <time>2018-05-19T10:55:25.869Z</time>
      </trkpt>
      <trkpt lat="43.19448" lon="-4.19639667">
        <ele>819.0</ele>
        <time>2018-05-19T10:55:26.875Z</time>
      </trkpt>
      <trkpt lat="43.19448" lon="-4.19639667">
        <ele>819.0</ele>
        <time>2018-05-19T10:55:27.869Z</time>
      </trkpt>
      <trkpt lat="43.19444167" lon="-4.19638833">
        <ele>819.0</ele>
        <time>2018-05-19T10:55:28.868Z</time>
      </trkpt>
      <trkpt lat="43.19444167" lon="-4.19638833">
        <ele>819.0</ele>
        <time>2018-05-19T10:55:29.863Z</time>
      </trkpt>
      <trkpt lat="43.194405" lon="-4.19638167">
        <ele>819.0</ele>
        <time>2018-05-19T10:55:30.848Z</time>
      </trkpt>
      <trkpt lat="43.194405" lon="-4.19638167">
        <ele>819.0</ele>
        <time>2018-05-19T10:55:31.875Z</time>
      </trkpt>
      <trkpt lat="43.19436833" lon="-4.19637667">
        <ele>820.0</ele>
        <time>2018-05-19T10:55:32.871Z</time>
      </trkpt>
      <trkpt lat="43.19436833" lon="-4.19637667">
        <ele>820.0</ele>
        <time>2018-05-19T10:55:33.848Z</time>
      </trkpt>
      <trkpt lat="43.19432833" lon="-4.19637167">
        <ele>820.0</ele>
        <time>2018-05-19T10:55:34.874Z</time>
      </trkpt>
      <trkpt lat="43.19432833" lon="-4.19637167">
        <ele>820.0</ele>
        <time>2018-05-19T10:55:35.871Z</time>
      </trkpt>
      <trkpt lat="43.19429167" lon="-4.19636833">
        <ele>820.0</ele>
        <time>2018-05-19T10:55:36.874Z</time>
      </trkpt>
      <trkpt lat="43.19429167" lon="-4.19636833">
        <ele>820.0</ele>
        <time>2018-05-19T10:55:37.868Z</time>
      </trkpt>
      <trkpt lat="43.194255" lon="-4.19636167">
        <ele>820.0</ele>
        <time>2018-05-19T10:55:38.873Z</time>
      </trkpt>
      <trkpt lat="43.194255" lon="-4.19636167">
        <ele>820.0</ele>
        <time>2018-05-19T10:55:39.864Z</time>
      </trkpt>
      <trkpt lat="43.19422" lon="-4.19635333">
        <ele>821.0</ele>
        <time>2018-05-19T10:55:40.879Z</time>
      </trkpt>
      <trkpt lat="43.19422" lon="-4.19635333">
        <ele>821.0</ele>
        <time>2018-05-19T10:55:41.845Z</time>
      </trkpt>
      <trkpt lat="43.19418333" lon="-4.19634167">
        <ele>821.0</ele>
        <time>2018-05-19T10:55:42.874Z</time>
      </trkpt>
      <trkpt lat="43.19418333" lon="-4.19634167">
        <ele>821.0</ele>
        <time>2018-05-19T10:55:43.879Z</time>
      </trkpt>
      <trkpt lat="43.19414833" lon="-4.19633333">
        <ele>821.0</ele>
        <time>2018-05-19T10:55:44.872Z</time>
      </trkpt>
      <trkpt lat="43.19414833" lon="-4.19633333">
        <ele>821.0</ele>
        <time>2018-05-19T10:55:45.862Z</time>
      </trkpt>
      <trkpt lat="43.19411167" lon="-4.19632833">
        <ele>821.0</ele>
        <time>2018-05-19T10:55:46.845Z</time>
      </trkpt>
      <trkpt lat="43.19411167" lon="-4.19632833">
        <ele>821.0</ele>
        <time>2018-05-19T10:55:47.851Z</time>
      </trkpt>
      <trkpt lat="43.19407667" lon="-4.19632667">
        <ele>822.0</ele>
        <time>2018-05-19T10:55:48.861Z</time>
      </trkpt>
      <trkpt lat="43.19406" lon="-4.19632667">
        <ele>822.0</ele>
        <time>2018-05-19T10:55:49.867Z</time>
      </trkpt>
      <trkpt lat="43.19406" lon="-4.19632667">
        <ele>822.0</ele>
        <time>2018-05-19T10:55:50.863Z</time>
      </trkpt>
      <trkpt lat="43.194025" lon="-4.196325">
        <ele>822.0</ele>
        <time>2018-05-19T10:55:51.861Z</time>
      </trkpt>
      <trkpt lat="43.19400667" lon="-4.19632333">
        <ele>823.0</ele>
        <time>2018-05-19T10:55:52.847Z</time>
      </trkpt>
      <trkpt lat="43.19400667" lon="-4.19632333">
        <ele>823.0</ele>
        <time>2018-05-19T10:55:53.881Z</time>
      </trkpt>
      <trkpt lat="43.19397" lon="-4.19631833">
        <ele>823.0</ele>
        <time>2018-05-19T10:55:54.876Z</time>
      </trkpt>
      <trkpt lat="43.19397" lon="-4.19631833">
        <ele>823.0</ele>
        <time>2018-05-19T10:55:55.873Z</time>
      </trkpt>
      <trkpt lat="43.19393333" lon="-4.196315">
        <ele>823.0</ele>
        <time>2018-05-19T10:55:56.873Z</time>
      </trkpt>
      <trkpt lat="43.19393333" lon="-4.196315">
        <ele>823.0</ele>
        <time>2018-05-19T10:55:57.871Z</time>
      </trkpt>
      <trkpt lat="43.19389667" lon="-4.19631333">
        <ele>824.0</ele>
        <time>2018-05-19T10:55:58.868Z</time>
      </trkpt>
      <trkpt lat="43.19387667" lon="-4.196315">
        <ele>824.0</ele>
        <time>2018-05-19T10:55:59.866Z</time>
      </trkpt>
      <trkpt lat="43.19387667" lon="-4.196315">
        <ele>824.0</ele>
        <time>2018-05-19T10:56:00.870Z</time>
      </trkpt>
      <trkpt lat="43.19383833" lon="-4.19631">
        <ele>824.0</ele>
        <time>2018-05-19T10:56:01.875Z</time>
      </trkpt>
      <trkpt lat="43.19383833" lon="-4.19631">
        <ele>824.0</ele>
        <time>2018-05-19T10:56:02.870Z</time>
      </trkpt>
      <trkpt lat="43.1938" lon="-4.19630667">
        <ele>825.0</ele>
        <time>2018-05-19T10:56:03.854Z</time>
      </trkpt>
      <trkpt lat="43.19378167" lon="-4.19630667">
        <ele>825.0</ele>
        <time>2018-05-19T10:56:04.880Z</time>
      </trkpt>
      <trkpt lat="43.19378167" lon="-4.19630667">
        <ele>825.0</ele>
        <time>2018-05-19T10:56:05.873Z</time>
      </trkpt>
      <trkpt lat="43.19374167" lon="-4.196305">
        <ele>825.0</ele>
        <time>2018-05-19T10:56:06.872Z</time>
      </trkpt>
      <trkpt lat="43.19374167" lon="-4.196305">
        <ele>825.0</ele>
        <time>2018-05-19T10:56:07.868Z</time>
      </trkpt>
      <trkpt lat="43.19370167" lon="-4.19629667">
        <ele>826.0</ele>
        <time>2018-05-19T10:56:08.863Z</time>
      </trkpt>
      <trkpt lat="43.19370167" lon="-4.19629667">
        <ele>826.0</ele>
        <time>2018-05-19T10:56:09.846Z</time>
      </trkpt>
      <trkpt lat="43.193665" lon="-4.1963">
        <ele>826.0</ele>
        <time>2018-05-19T10:56:10.880Z</time>
      </trkpt>
      <trkpt lat="43.193665" lon="-4.1963">
        <ele>826.0</ele>
        <time>2018-05-19T10:56:11.874Z</time>
      </trkpt>
      <trkpt lat="43.19362667" lon="-4.19630667">
        <ele>827.0</ele>
        <time>2018-05-19T10:56:12.863Z</time>
      </trkpt>
      <trkpt lat="43.19362667" lon="-4.19630667">
        <ele>827.0</ele>
        <time>2018-05-19T10:56:13.852Z</time>
      </trkpt>
      <trkpt lat="43.19358667" lon="-4.196315">
        <ele>828.0</ele>
        <time>2018-05-19T10:56:14.880Z</time>
      </trkpt>
      <trkpt lat="43.19358667" lon="-4.196315">
        <ele>828.0</ele>
        <time>2018-05-19T10:56:15.869Z</time>
      </trkpt>
      <trkpt lat="43.19354167" lon="-4.196325">
        <ele>828.0</ele>
        <time>2018-05-19T10:56:16.868Z</time>
      </trkpt>
      <trkpt lat="43.19354167" lon="-4.196325">
        <ele>828.0</ele>
        <time>2018-05-19T10:56:17.868Z</time>
      </trkpt>
      <trkpt lat="43.19349833" lon="-4.19632167">
        <ele>829.0</ele>
        <time>2018-05-19T10:56:18.879Z</time>
      </trkpt>
      <trkpt lat="43.19349833" lon="-4.19632167">
        <ele>829.0</ele>
        <time>2018-05-19T10:56:19.871Z</time>
      </trkpt>
      <trkpt lat="43.193455" lon="-4.19632833">
        <ele>829.0</ele>
        <time>2018-05-19T10:56:20.867Z</time>
      </trkpt>
      <trkpt lat="43.193455" lon="-4.19632833">
        <ele>829.0</ele>
        <time>2018-05-19T10:56:21.873Z</time>
      </trkpt>
      <trkpt lat="43.19341" lon="-4.19633167">
        <ele>830.0</ele>
        <time>2018-05-19T10:56:22.876Z</time>
      </trkpt>
      <trkpt lat="43.19341" lon="-4.19633167">
        <ele>830.0</ele>
        <time>2018-05-19T10:56:23.882Z</time>
      </trkpt>
      <trkpt lat="43.19337" lon="-4.19633167">
        <ele>830.0</ele>
        <time>2018-05-19T10:56:24.875Z</time>
      </trkpt>
      <trkpt lat="43.19337" lon="-4.19633167">
        <ele>830.0</ele>
        <time>2018-05-19T10:56:25.871Z</time>
      </trkpt>
      <trkpt lat="43.19333" lon="-4.19633">
        <ele>830.0</ele>
        <time>2018-05-19T10:56:26.874Z</time>
      </trkpt>
      <trkpt lat="43.19333" lon="-4.19633">
        <ele>830.0</ele>
        <time>2018-05-19T10:56:27.868Z</time>
      </trkpt>
      <trkpt lat="43.19329" lon="-4.19632833">
        <ele>831.0</ele>
        <time>2018-05-19T10:56:28.868Z</time>
      </trkpt>
      <trkpt lat="43.19329" lon="-4.19632833">
        <ele>831.0</ele>
        <time>2018-05-19T10:56:29.865Z</time>
      </trkpt>
      <trkpt lat="43.19324833" lon="-4.19632667">
        <ele>831.0</ele>
        <time>2018-05-19T10:56:30.851Z</time>
      </trkpt>
      <trkpt lat="43.19324833" lon="-4.19632667">
        <ele>831.0</ele>
        <time>2018-05-19T10:56:31.877Z</time>
      </trkpt>
      <trkpt lat="43.19320833" lon="-4.19632167">
        <ele>831.0</ele>
        <time>2018-05-19T10:56:32.873Z</time>
      </trkpt>
      <trkpt lat="43.19320833" lon="-4.19632167">
        <ele>831.0</ele>
        <time>2018-05-19T10:56:33.878Z</time>
      </trkpt>
      <trkpt lat="43.19317" lon="-4.19631833">
        <ele>832.0</ele>
        <time>2018-05-19T10:56:34.868Z</time>
      </trkpt>
      <trkpt lat="43.19317" lon="-4.19631833">
        <ele>832.0</ele>
        <time>2018-05-19T10:56:35.869Z</time>
      </trkpt>
      <trkpt lat="43.19313333" lon="-4.19631667">
        <ele>832.0</ele>
        <time>2018-05-19T10:56:36.874Z</time>
      </trkpt>
      <trkpt lat="43.19313333" lon="-4.19631667">
        <ele>832.0</ele>
        <time>2018-05-19T10:56:37.871Z</time>
      </trkpt>
      <trkpt lat="43.19309333" lon="-4.19631">
        <ele>832.0</ele>
        <time>2018-05-19T10:56:38.866Z</time>
      </trkpt>
      <trkpt lat="43.19309333" lon="-4.19631">
        <ele>832.0</ele>
        <time>2018-05-19T10:56:39.870Z</time>
      </trkpt>
      <trkpt lat="43.19305333" lon="-4.19630833">
        <ele>832.0</ele>
        <time>2018-05-19T10:56:40.878Z</time>
      </trkpt>
      <trkpt lat="43.19305333" lon="-4.19630833">
        <ele>832.0</ele>
        <time>2018-05-19T10:56:41.873Z</time>
      </trkpt>
      <trkpt lat="43.19301667" lon="-4.19630833">
        <ele>833.0</ele>
        <time>2018-05-19T10:56:42.874Z</time>
      </trkpt>
      <trkpt lat="43.19301667" lon="-4.19630833">
        <ele>833.0</ele>
        <time>2018-05-19T10:56:43.874Z</time>
      </trkpt>
      <trkpt lat="43.19297833" lon="-4.19631">
        <ele>833.0</ele>
        <time>2018-05-19T10:56:44.866Z</time>
      </trkpt>
      <trkpt lat="43.19297833" lon="-4.19631">
        <ele>833.0</ele>
        <time>2018-05-19T10:56:45.856Z</time>
      </trkpt>
      <trkpt lat="43.192935" lon="-4.19631167">
        <ele>833.0</ele>
        <time>2018-05-19T10:56:46.848Z</time>
      </trkpt>
      <trkpt lat="43.192935" lon="-4.19631167">
        <ele>833.0</ele>
        <time>2018-05-19T10:56:47.855Z</time>
      </trkpt>
      <trkpt lat="43.19289667" lon="-4.196325">
        <ele>834.0</ele>
        <time>2018-05-19T10:56:48.861Z</time>
      </trkpt>
      <trkpt lat="43.19289667" lon="-4.196325">
        <ele>834.0</ele>
        <time>2018-05-19T10:56:49.847Z</time>
      </trkpt>
      <trkpt lat="43.19286167" lon="-4.19634667">
        <ele>834.0</ele>
        <time>2018-05-19T10:56:50.874Z</time>
      </trkpt>
      <trkpt lat="43.19286167" lon="-4.19634667">
        <ele>834.0</ele>
        <time>2018-05-19T10:56:51.876Z</time>
      </trkpt>
      <trkpt lat="43.19283833" lon="-4.196385">
        <ele>834.0</ele>
        <time>2018-05-19T10:56:52.873Z</time>
      </trkpt>
      <trkpt lat="43.19283833" lon="-4.196385">
        <ele>834.0</ele>
        <time>2018-05-19T10:56:53.877Z</time>
      </trkpt>
      <trkpt lat="43.19283" lon="-4.19644167">
        <ele>835.0</ele>
        <time>2018-05-19T10:56:54.871Z</time>
      </trkpt>
      <trkpt lat="43.19283" lon="-4.19644167">
        <ele>835.0</ele>
        <time>2018-05-19T10:56:55.864Z</time>
      </trkpt>
      <trkpt lat="43.19282667" lon="-4.19649333">
        <ele>836.0</ele>
        <time>2018-05-19T10:56:56.874Z</time>
      </trkpt>
      <trkpt lat="43.19282667" lon="-4.19649333">
        <ele>836.0</ele>
        <time>2018-05-19T10:56:57.871Z</time>
      </trkpt>
      <trkpt lat="43.19283333" lon="-4.19655167">
        <ele>837.0</ele>
        <time>2018-05-19T10:56:58.875Z</time>
      </trkpt>
      <trkpt lat="43.19283333" lon="-4.19655167">
        <ele>837.0</ele>
        <time>2018-05-19T10:56:59.870Z</time>
      </trkpt>
      <trkpt lat="43.192845" lon="-4.19660833">
        <ele>838.0</ele>
        <time>2018-05-19T10:57:00.874Z</time>
      </trkpt>
      <trkpt lat="43.192845" lon="-4.19660833">
        <ele>838.0</ele>
        <time>2018-05-19T10:57:01.870Z</time>
      </trkpt>
      <trkpt lat="43.19286167" lon="-4.19666">
        <ele>838.0</ele>
        <time>2018-05-19T10:57:02.871Z</time>
      </trkpt>
      <trkpt lat="43.19287167" lon="-4.19668833">
        <ele>838.0</ele>
        <time>2018-05-19T10:57:03.863Z</time>
      </trkpt>
      <trkpt lat="43.19287167" lon="-4.19668833">
        <ele>838.0</ele>
        <time>2018-05-19T10:57:04.848Z</time>
      </trkpt>
      <trkpt lat="43.19288667" lon="-4.196745">
        <ele>839.0</ele>
        <time>2018-05-19T10:57:05.873Z</time>
      </trkpt>
      <trkpt lat="43.192895" lon="-4.19677333">
        <ele>840.0</ele>
        <time>2018-05-19T10:57:06.867Z</time>
      </trkpt>
      <trkpt lat="43.192895" lon="-4.19677333">
        <ele>840.0</ele>
        <time>2018-05-19T10:57:07.863Z</time>
      </trkpt>
      <trkpt lat="43.19290667" lon="-4.196825">
        <ele>840.0</ele>
        <time>2018-05-19T10:57:08.848Z</time>
      </trkpt>
      <trkpt lat="43.19290667" lon="-4.196825">
        <ele>840.0</ele>
        <time>2018-05-19T10:57:09.872Z</time>
      </trkpt>
      <trkpt lat="43.19291" lon="-4.19688167">
        <ele>841.0</ele>
        <time>2018-05-19T10:57:10.876Z</time>
      </trkpt>
      <trkpt lat="43.19291" lon="-4.19688167">
        <ele>841.0</ele>
        <time>2018-05-19T10:57:11.866Z</time>
      </trkpt>
      <trkpt lat="43.19291667" lon="-4.19693167">
        <ele>841.0</ele>
        <time>2018-05-19T10:57:12.874Z</time>
      </trkpt>
      <trkpt lat="43.19291667" lon="-4.19693167">
        <ele>841.0</ele>
        <time>2018-05-19T10:57:13.875Z</time>
      </trkpt>
      <trkpt lat="43.19293167" lon="-4.19698167">
        <ele>842.0</ele>
        <time>2018-05-19T10:57:14.870Z</time>
      </trkpt>
      <trkpt lat="43.19293167" lon="-4.19698167">
        <ele>842.0</ele>
        <time>2018-05-19T10:57:15.870Z</time>
      </trkpt>
      <trkpt lat="43.19295167" lon="-4.19702667">
        <ele>842.0</ele>
        <time>2018-05-19T10:57:16.873Z</time>
      </trkpt>
      <trkpt lat="43.19295167" lon="-4.19702667">
        <ele>842.0</ele>
        <time>2018-05-19T10:57:17.870Z</time>
      </trkpt>
      <trkpt lat="43.19297667" lon="-4.19707">
        <ele>843.0</ele>
        <time>2018-05-19T10:57:18.852Z</time>
      </trkpt>
      <trkpt lat="43.19297667" lon="-4.19707">
        <ele>843.0</ele>
        <time>2018-05-19T10:57:19.877Z</time>
      </trkpt>
      <trkpt lat="43.193" lon="-4.19711333">
        <ele>843.0</ele>
        <time>2018-05-19T10:57:20.866Z</time>
      </trkpt>
      <trkpt lat="43.193" lon="-4.19711333">
        <ele>843.0</ele>
        <time>2018-05-19T10:57:21.869Z</time>
      </trkpt>
      <trkpt lat="43.19302" lon="-4.19716167">
        <ele>844.0</ele>
        <time>2018-05-19T10:57:22.848Z</time>
      </trkpt>
      <trkpt lat="43.19302" lon="-4.19716167">
        <ele>844.0</ele>
        <time>2018-05-19T10:57:23.882Z</time>
      </trkpt>
      <trkpt lat="43.19304" lon="-4.19720667">
        <ele>845.0</ele>
        <time>2018-05-19T10:57:24.875Z</time>
      </trkpt>
      <trkpt lat="43.19304" lon="-4.19720667">
        <ele>845.0</ele>
        <time>2018-05-19T10:57:25.863Z</time>
      </trkpt>
      <trkpt lat="43.19305833" lon="-4.19725667">
        <ele>845.0</ele>
        <time>2018-05-19T10:57:26.848Z</time>
      </trkpt>
      <trkpt lat="43.19305833" lon="-4.19725667">
        <ele>845.0</ele>
        <time>2018-05-19T10:57:27.872Z</time>
      </trkpt>
      <trkpt lat="43.193075" lon="-4.19731">
        <ele>846.0</ele>
        <time>2018-05-19T10:57:28.873Z</time>
      </trkpt>
      <trkpt lat="43.193075" lon="-4.19731">
        <ele>846.0</ele>
        <time>2018-05-19T10:57:29.865Z</time>
      </trkpt>
      <trkpt lat="43.19309833" lon="-4.197365">
        <ele>846.0</ele>
        <time>2018-05-19T10:57:30.867Z</time>
      </trkpt>
      <trkpt lat="43.19309833" lon="-4.197365">
        <ele>846.0</ele>
        <time>2018-05-19T10:57:31.868Z</time>
      </trkpt>
      <trkpt lat="43.19312167" lon="-4.197425">
        <ele>846.0</ele>
        <time>2018-05-19T10:57:32.884Z</time>
      </trkpt>
      <trkpt lat="43.19312167" lon="-4.197425">
        <ele>846.0</ele>
        <time>2018-05-19T10:57:33.870Z</time>
      </trkpt>
      <trkpt lat="43.193145" lon="-4.19748667">
        <ele>847.0</ele>
        <time>2018-05-19T10:57:34.872Z</time>
      </trkpt>
      <trkpt lat="43.193145" lon="-4.19748667">
        <ele>847.0</ele>
        <time>2018-05-19T10:57:35.871Z</time>
      </trkpt>
      <trkpt lat="43.19316833" lon="-4.19754833">
        <ele>847.0</ele>
        <time>2018-05-19T10:57:36.867Z</time>
      </trkpt>
      <trkpt lat="43.19316833" lon="-4.19754833">
        <ele>847.0</ele>
        <time>2018-05-19T10:57:37.871Z</time>
      </trkpt>
      <trkpt lat="43.19319333" lon="-4.19760667">
        <ele>847.0</ele>
        <time>2018-05-19T10:57:38.866Z</time>
      </trkpt>
      <trkpt lat="43.19320333" lon="-4.19763667">
        <ele>847.0</ele>
        <time>2018-05-19T10:57:39.873Z</time>
      </trkpt>
      <trkpt lat="43.19321333" lon="-4.197665">
        <ele>847.0</ele>
        <time>2018-05-19T10:57:40.855Z</time>
      </trkpt>
      <trkpt lat="43.19321333" lon="-4.197665">
        <ele>847.0</ele>
        <time>2018-05-19T10:57:41.881Z</time>
      </trkpt>
      <trkpt lat="43.193235" lon="-4.19772333">
        <ele>847.0</ele>
        <time>2018-05-19T10:57:42.874Z</time>
      </trkpt>
      <trkpt lat="43.193235" lon="-4.19772333">
        <ele>847.0</ele>
        <time>2018-05-19T10:57:43.882Z</time>
      </trkpt>
      <trkpt lat="43.19325333" lon="-4.197785">
        <ele>848.0</ele>
        <time>2018-05-19T10:57:44.872Z</time>
      </trkpt>
      <trkpt lat="43.19325333" lon="-4.197785">
        <ele>848.0</ele>
        <time>2018-05-19T10:57:45.853Z</time>
      </trkpt>
      <trkpt lat="43.19327" lon="-4.19784833">
        <ele>847.0</ele>
        <time>2018-05-19T10:57:46.880Z</time>
      </trkpt>
      <trkpt lat="43.19328" lon="-4.19787833">
        <ele>847.0</ele>
        <time>2018-05-19T10:57:47.847Z</time>
      </trkpt>
      <trkpt lat="43.19328" lon="-4.19787833">
        <ele>847.0</ele>
        <time>2018-05-19T10:57:48.853Z</time>
      </trkpt>
      <trkpt lat="43.19330333" lon="-4.19794">
        <ele>848.0</ele>
        <time>2018-05-19T10:57:49.870Z</time>
      </trkpt>
      <trkpt lat="43.19331167" lon="-4.19797">
        <ele>848.0</ele>
        <time>2018-05-19T10:57:50.873Z</time>
      </trkpt>
      <trkpt lat="43.19331167" lon="-4.19797">
        <ele>848.0</ele>
        <time>2018-05-19T10:57:51.871Z</time>
      </trkpt>
      <trkpt lat="43.19332833" lon="-4.19802833">
        <ele>848.0</ele>
        <time>2018-05-19T10:57:52.880Z</time>
      </trkpt>
      <trkpt lat="43.19332833" lon="-4.19802833">
        <ele>848.0</ele>
        <time>2018-05-19T10:57:53.878Z</time>
      </trkpt>
      <trkpt lat="43.19334167" lon="-4.19809167">
        <ele>849.0</ele>
        <time>2018-05-19T10:57:54.867Z</time>
      </trkpt>
      <trkpt lat="43.19334167" lon="-4.19809167">
        <ele>849.0</ele>
        <time>2018-05-19T10:57:55.850Z</time>
      </trkpt>
      <trkpt lat="43.19334833" lon="-4.19816167">
        <ele>850.0</ele>
        <time>2018-05-19T10:57:56.874Z</time>
      </trkpt>
      <trkpt lat="43.19334833" lon="-4.19816167">
        <ele>850.0</ele>
        <time>2018-05-19T10:57:57.869Z</time>
      </trkpt>
      <trkpt lat="43.19335167" lon="-4.19823">
        <ele>851.0</ele>
        <time>2018-05-19T10:57:58.864Z</time>
      </trkpt>
      <trkpt lat="43.19335167" lon="-4.19823">
        <ele>851.0</ele>
        <time>2018-05-19T10:57:59.849Z</time>
      </trkpt>
      <trkpt lat="43.19335" lon="-4.19830333">
        <ele>851.0</ele>
        <time>2018-05-19T10:58:00.874Z</time>
      </trkpt>
      <trkpt lat="43.19335" lon="-4.19830333">
        <ele>851.0</ele>
        <time>2018-05-19T10:58:01.867Z</time>
      </trkpt>
      <trkpt lat="43.19333833" lon="-4.19837">
        <ele>852.0</ele>
        <time>2018-05-19T10:58:02.875Z</time>
      </trkpt>
      <trkpt lat="43.19333833" lon="-4.19837">
        <ele>852.0</ele>
        <time>2018-05-19T10:58:03.872Z</time>
      </trkpt>
      <trkpt lat="43.19331833" lon="-4.19843333">
        <ele>852.0</ele>
        <time>2018-05-19T10:58:04.873Z</time>
      </trkpt>
      <trkpt lat="43.19331833" lon="-4.19843333">
        <ele>852.0</ele>
        <time>2018-05-19T10:58:05.871Z</time>
      </trkpt>
      <trkpt lat="43.19329333" lon="-4.19848833">
        <ele>853.0</ele>
        <time>2018-05-19T10:58:06.867Z</time>
      </trkpt>
      <trkpt lat="43.19329333" lon="-4.19848833">
        <ele>853.0</ele>
        <time>2018-05-19T10:58:07.870Z</time>
      </trkpt>
      <trkpt lat="43.19326333" lon="-4.198535">
        <ele>853.0</ele>
        <time>2018-05-19T10:58:08.872Z</time>
      </trkpt>
      <trkpt lat="43.19326333" lon="-4.198535">
        <ele>853.0</ele>
        <time>2018-05-19T10:58:09.869Z</time>
      </trkpt>
      <trkpt lat="43.19322833" lon="-4.198575">
        <ele>853.0</ele>
        <time>2018-05-19T10:58:10.867Z</time>
      </trkpt>
      <trkpt lat="43.19322833" lon="-4.198575">
        <ele>853.0</ele>
        <time>2018-05-19T10:58:11.870Z</time>
      </trkpt>
      <trkpt lat="43.19319667" lon="-4.198605">
        <ele>854.0</ele>
        <time>2018-05-19T10:58:12.871Z</time>
      </trkpt>
      <trkpt lat="43.19319667" lon="-4.198605">
        <ele>854.0</ele>
        <time>2018-05-19T10:58:13.853Z</time>
      </trkpt>
      <trkpt lat="43.193165" lon="-4.19863333">
        <ele>854.0</ele>
        <time>2018-05-19T10:58:14.878Z</time>
      </trkpt>
      <trkpt lat="43.193165" lon="-4.19863333">
        <ele>854.0</ele>
        <time>2018-05-19T10:58:15.866Z</time>
      </trkpt>
      <trkpt lat="43.19312833" lon="-4.19864667">
        <ele>855.0</ele>
        <time>2018-05-19T10:58:16.850Z</time>
      </trkpt>
      <trkpt lat="43.19312833" lon="-4.19864667">
        <ele>855.0</ele>
        <time>2018-05-19T10:58:17.872Z</time>
      </trkpt>
      <trkpt lat="43.193095" lon="-4.19866167">
        <ele>856.0</ele>
        <time>2018-05-19T10:58:18.862Z</time>
      </trkpt>
      <trkpt lat="43.19307833" lon="-4.19866833">
        <ele>856.0</ele>
        <time>2018-05-19T10:58:19.848Z</time>
      </trkpt>
      <trkpt lat="43.19306167" lon="-4.19867333">
        <ele>856.0</ele>
        <time>2018-05-19T10:58:20.879Z</time>
      </trkpt>
      <trkpt lat="43.19306167" lon="-4.19867333">
        <ele>856.0</ele>
        <time>2018-05-19T10:58:21.868Z</time>
      </trkpt>
      <trkpt lat="43.19302667" lon="-4.19868167">
        <ele>857.0</ele>
        <time>2018-05-19T10:58:22.877Z</time>
      </trkpt>
      <trkpt lat="43.19302667" lon="-4.19868167">
        <ele>857.0</ele>
        <time>2018-05-19T10:58:23.882Z</time>
      </trkpt>
      <trkpt lat="43.19299333" lon="-4.198685">
        <ele>857.0</ele>
        <time>2018-05-19T10:58:24.866Z</time>
      </trkpt>
      <trkpt lat="43.19299333" lon="-4.198685">
        <ele>857.0</ele>
        <time>2018-05-19T10:58:25.869Z</time>
      </trkpt>
      <trkpt lat="43.19296" lon="-4.19868667">
        <ele>858.0</ele>
        <time>2018-05-19T10:58:26.874Z</time>
      </trkpt>
      <trkpt lat="43.19296" lon="-4.19868667">
        <ele>858.0</ele>
        <time>2018-05-19T10:58:27.864Z</time>
      </trkpt>
      <trkpt lat="43.19292833" lon="-4.19868833">
        <ele>858.0</ele>
        <time>2018-05-19T10:58:28.850Z</time>
      </trkpt>
      <trkpt lat="43.19292833" lon="-4.19868833">
        <ele>858.0</ele>
        <time>2018-05-19T10:58:29.873Z</time>
      </trkpt>
      <trkpt lat="43.19289667" lon="-4.198695">
        <ele>859.0</ele>
        <time>2018-05-19T10:58:30.869Z</time>
      </trkpt>
      <trkpt lat="43.19289667" lon="-4.198695">
        <ele>859.0</ele>
        <time>2018-05-19T10:58:31.867Z</time>
      </trkpt>
      <trkpt lat="43.19286333" lon="-4.198695">
        <ele>859.0</ele>
        <time>2018-05-19T10:58:32.877Z</time>
      </trkpt>
      <trkpt lat="43.19286333" lon="-4.198695">
        <ele>859.0</ele>
        <time>2018-05-19T10:58:33.874Z</time>
      </trkpt>
      <trkpt lat="43.19283167" lon="-4.198695">
        <ele>860.0</ele>
        <time>2018-05-19T10:58:34.873Z</time>
      </trkpt>
      <trkpt lat="43.19283167" lon="-4.198695">
        <ele>860.0</ele>
        <time>2018-05-19T10:58:35.870Z</time>
      </trkpt>
      <trkpt lat="43.1928" lon="-4.19869167">
        <ele>860.0</ele>
        <time>2018-05-19T10:58:36.866Z</time>
      </trkpt>
      <trkpt lat="43.1928" lon="-4.19869167">
        <ele>860.0</ele>
        <time>2018-05-19T10:58:37.869Z</time>
      </trkpt>
      <trkpt lat="43.19276833" lon="-4.19868833">
        <ele>860.0</ele>
        <time>2018-05-19T10:58:38.872Z</time>
      </trkpt>
      <trkpt lat="43.19276833" lon="-4.19868833">
        <ele>860.0</ele>
        <time>2018-05-19T10:58:39.869Z</time>
      </trkpt>
      <trkpt lat="43.19273667" lon="-4.19868167">
        <ele>861.0</ele>
        <time>2018-05-19T10:58:40.854Z</time>
      </trkpt>
      <trkpt lat="43.19273667" lon="-4.19868167">
        <ele>861.0</ele>
        <time>2018-05-19T10:58:41.878Z</time>
      </trkpt>
      <trkpt lat="43.192705" lon="-4.19867833">
        <ele>861.0</ele>
        <time>2018-05-19T10:58:42.844Z</time>
      </trkpt>
      <trkpt lat="43.192705" lon="-4.19867833">
        <ele>861.0</ele>
        <time>2018-05-19T10:58:43.880Z</time>
      </trkpt>
      <trkpt lat="43.19267167" lon="-4.19867">
        <ele>861.0</ele>
        <time>2018-05-19T10:58:44.873Z</time>
      </trkpt>
      <trkpt lat="43.19267167" lon="-4.19867">
        <ele>861.0</ele>
        <time>2018-05-19T10:58:45.862Z</time>
      </trkpt>
      <trkpt lat="43.19263667" lon="-4.198655">
        <ele>861.0</ele>
        <time>2018-05-19T10:58:46.845Z</time>
      </trkpt>
      <trkpt lat="43.19263667" lon="-4.198655">
        <ele>861.0</ele>
        <time>2018-05-19T10:58:47.850Z</time>
      </trkpt>
      <trkpt lat="43.19260167" lon="-4.19864333">
        <ele>862.0</ele>
        <time>2018-05-19T10:58:48.860Z</time>
      </trkpt>
      <trkpt lat="43.19260167" lon="-4.19864333">
        <ele>862.0</ele>
        <time>2018-05-19T10:58:49.866Z</time>
      </trkpt>
      <trkpt lat="43.19256833" lon="-4.19863167">
        <ele>862.0</ele>
        <time>2018-05-19T10:58:50.873Z</time>
      </trkpt>
      <trkpt lat="43.19256833" lon="-4.19863167">
        <ele>862.0</ele>
        <time>2018-05-19T10:58:51.876Z</time>
      </trkpt>
      <trkpt lat="43.19253667" lon="-4.19861333">
        <ele>862.0</ele>
        <time>2018-05-19T10:58:52.872Z</time>
      </trkpt>
      <trkpt lat="43.19253667" lon="-4.19861333">
        <ele>862.0</ele>
        <time>2018-05-19T10:58:53.874Z</time>
      </trkpt>
      <trkpt lat="43.19250333" lon="-4.19859833">
        <ele>863.0</ele>
        <time>2018-05-19T10:58:54.867Z</time>
      </trkpt>
      <trkpt lat="43.19250333" lon="-4.19859833">
        <ele>863.0</ele>
        <time>2018-05-19T10:58:55.871Z</time>
      </trkpt>
      <trkpt lat="43.19247167" lon="-4.198585">
        <ele>863.0</ele>
        <time>2018-05-19T10:58:56.865Z</time>
      </trkpt>
      <trkpt lat="43.19247167" lon="-4.198585">
        <ele>863.0</ele>
        <time>2018-05-19T10:58:57.870Z</time>
      </trkpt>
      <trkpt lat="43.19244" lon="-4.19857">
        <ele>863.0</ele>
        <time>2018-05-19T10:58:58.871Z</time>
      </trkpt>
      <trkpt lat="43.19244" lon="-4.19857">
        <ele>863.0</ele>
        <time>2018-05-19T10:58:59.870Z</time>
      </trkpt>
      <trkpt lat="43.19241167" lon="-4.19855333">
        <ele>863.0</ele>
        <time>2018-05-19T10:59:00.873Z</time>
      </trkpt>
      <trkpt lat="43.19241167" lon="-4.19855333">
        <ele>863.0</ele>
        <time>2018-05-19T10:59:01.861Z</time>
      </trkpt>
      <trkpt lat="43.19238333" lon="-4.19853833">
        <ele>864.0</ele>
        <time>2018-05-19T10:59:02.884Z</time>
      </trkpt>
      <trkpt lat="43.19238333" lon="-4.19853833">
        <ele>864.0</ele>
        <time>2018-05-19T10:59:03.857Z</time>
      </trkpt>
      <trkpt lat="43.19235167" lon="-4.19852167">
        <ele>864.0</ele>
        <time>2018-05-19T10:59:04.844Z</time>
      </trkpt>
      <trkpt lat="43.19235167" lon="-4.19852167">
        <ele>864.0</ele>
        <time>2018-05-19T10:59:05.870Z</time>
      </trkpt>
      <trkpt lat="43.19232167" lon="-4.19850333">
        <ele>864.0</ele>
        <time>2018-05-19T10:59:06.873Z</time>
      </trkpt>
      <trkpt lat="43.19232167" lon="-4.19850333">
        <ele>864.0</ele>
        <time>2018-05-19T10:59:07.869Z</time>
      </trkpt>
      <trkpt lat="43.19229" lon="-4.19848333">
        <ele>864.0</ele>
        <time>2018-05-19T10:59:08.872Z</time>
      </trkpt>
      <trkpt lat="43.19229" lon="-4.19848333">
        <ele>864.0</ele>
        <time>2018-05-19T10:59:09.869Z</time>
      </trkpt>
      <trkpt lat="43.19225667" lon="-4.19846333">
        <ele>864.0</ele>
        <time>2018-05-19T10:59:10.871Z</time>
      </trkpt>
      <trkpt lat="43.19225667" lon="-4.19846333">
        <ele>864.0</ele>
        <time>2018-05-19T10:59:11.869Z</time>
      </trkpt>
      <trkpt lat="43.19222333" lon="-4.198435">
        <ele>865.0</ele>
        <time>2018-05-19T10:59:12.873Z</time>
      </trkpt>
      <trkpt lat="43.19222333" lon="-4.198435">
        <ele>865.0</ele>
        <time>2018-05-19T10:59:13.853Z</time>
      </trkpt>
      <trkpt lat="43.19219" lon="-4.19841167">
        <ele>865.0</ele>
        <time>2018-05-19T10:59:14.879Z</time>
      </trkpt>
      <trkpt lat="43.19219" lon="-4.19841167">
        <ele>865.0</ele>
        <time>2018-05-19T10:59:15.869Z</time>
      </trkpt>
      <trkpt lat="43.192155" lon="-4.19838833">
        <ele>865.0</ele>
        <time>2018-05-19T10:59:16.871Z</time>
      </trkpt>
      <trkpt lat="43.192155" lon="-4.19838833">
        <ele>865.0</ele>
        <time>2018-05-19T10:59:17.866Z</time>
      </trkpt>
      <trkpt lat="43.19211833" lon="-4.198355">
        <ele>866.0</ele>
        <time>2018-05-19T10:59:18.873Z</time>
      </trkpt>
      <trkpt lat="43.19211833" lon="-4.198355">
        <ele>866.0</ele>
        <time>2018-05-19T10:59:19.863Z</time>
      </trkpt>
      <trkpt lat="43.19208167" lon="-4.19832333">
        <ele>866.0</ele>
        <time>2018-05-19T10:59:20.848Z</time>
      </trkpt>
      <trkpt lat="43.19208167" lon="-4.19832333">
        <ele>866.0</ele>
        <time>2018-05-19T10:59:21.871Z</time>
      </trkpt>
      <trkpt lat="43.19205" lon="-4.19829167">
        <ele>866.0</ele>
        <time>2018-05-19T10:59:22.871Z</time>
      </trkpt>
      <trkpt lat="43.19205" lon="-4.19829167">
        <ele>866.0</ele>
        <time>2018-05-19T10:59:23.873Z</time>
      </trkpt>
      <trkpt lat="43.19201667" lon="-4.19826">
        <ele>866.0</ele>
        <time>2018-05-19T10:59:24.873Z</time>
      </trkpt>
      <trkpt lat="43.19201667" lon="-4.19826">
        <ele>866.0</ele>
        <time>2018-05-19T10:59:25.872Z</time>
      </trkpt>
      <trkpt lat="43.19198333" lon="-4.19823">
        <ele>866.0</ele>
        <time>2018-05-19T10:59:26.873Z</time>
      </trkpt>
      <trkpt lat="43.19196667" lon="-4.198215">
        <ele>866.0</ele>
        <time>2018-05-19T10:59:27.870Z</time>
      </trkpt>
      <trkpt lat="43.19195167" lon="-4.19820167">
        <ele>866.0</ele>
        <time>2018-05-19T10:59:28.871Z</time>
      </trkpt>
      <trkpt lat="43.19195167" lon="-4.19820167">
        <ele>866.0</ele>
        <time>2018-05-19T10:59:29.868Z</time>
      </trkpt>
      <trkpt lat="43.19191833" lon="-4.19817333">
        <ele>867.0</ele>
        <time>2018-05-19T10:59:30.866Z</time>
      </trkpt>
      <trkpt lat="43.19191833" lon="-4.19817333">
        <ele>867.0</ele>
        <time>2018-05-19T10:59:31.869Z</time>
      </trkpt>
      <trkpt lat="43.191885" lon="-4.19814833">
        <ele>867.0</ele>
        <time>2018-05-19T10:59:32.872Z</time>
      </trkpt>
      <trkpt lat="43.19187" lon="-4.19813833">
        <ele>867.0</ele>
        <time>2018-05-19T10:59:33.845Z</time>
      </trkpt>
      <trkpt lat="43.19185167" lon="-4.19812833">
        <ele>867.0</ele>
        <time>2018-05-19T10:59:34.871Z</time>
      </trkpt>
      <trkpt lat="43.19185167" lon="-4.19812833">
        <ele>867.0</ele>
        <time>2018-05-19T10:59:35.867Z</time>
      </trkpt>
      <trkpt lat="43.19181333" lon="-4.19810833">
        <ele>867.0</ele>
        <time>2018-05-19T10:59:36.859Z</time>
      </trkpt>
      <trkpt lat="43.19181333" lon="-4.19810833">
        <ele>867.0</ele>
        <time>2018-05-19T10:59:37.845Z</time>
      </trkpt>
      <trkpt lat="43.19177833" lon="-4.19808167">
        <ele>867.0</ele>
        <time>2018-05-19T10:59:38.872Z</time>
      </trkpt>
      <trkpt lat="43.19177833" lon="-4.19808167">
        <ele>867.0</ele>
        <time>2018-05-19T10:59:39.868Z</time>
      </trkpt>
      <trkpt lat="43.19174167" lon="-4.19805667">
        <ele>868.0</ele>
        <time>2018-05-19T10:59:40.876Z</time>
      </trkpt>
      <trkpt lat="43.19174167" lon="-4.19805667">
        <ele>868.0</ele>
        <time>2018-05-19T10:59:41.870Z</time>
      </trkpt>
      <trkpt lat="43.191705" lon="-4.19803333">
        <ele>868.0</ele>
        <time>2018-05-19T10:59:42.874Z</time>
      </trkpt>
      <trkpt lat="43.191705" lon="-4.19803333">
        <ele>868.0</ele>
        <time>2018-05-19T10:59:43.875Z</time>
      </trkpt>
      <trkpt lat="43.191665" lon="-4.19801333">
        <ele>868.0</ele>
        <time>2018-05-19T10:59:44.872Z</time>
      </trkpt>
      <trkpt lat="43.191665" lon="-4.19801333">
        <ele>868.0</ele>
        <time>2018-05-19T10:59:45.851Z</time>
      </trkpt>
      <trkpt lat="43.19163" lon="-4.19799167">
        <ele>868.0</ele>
        <time>2018-05-19T10:59:46.874Z</time>
      </trkpt>
      <trkpt lat="43.19163" lon="-4.19799167">
        <ele>868.0</ele>
        <time>2018-05-19T10:59:47.880Z</time>
      </trkpt>
      <trkpt lat="43.19159667" lon="-4.19797167">
        <ele>868.0</ele>
        <time>2018-05-19T10:59:48.846Z</time>
      </trkpt>
      <trkpt lat="43.19159667" lon="-4.19797167">
        <ele>868.0</ele>
        <time>2018-05-19T10:59:49.852Z</time>
      </trkpt>
      <trkpt lat="43.19156167" lon="-4.19794833">
        <ele>869.0</ele>
        <time>2018-05-19T10:59:50.879Z</time>
      </trkpt>
      <trkpt lat="43.19156167" lon="-4.19794833">
        <ele>869.0</ele>
        <time>2018-05-19T10:59:51.879Z</time>
      </trkpt>
      <trkpt lat="43.19152" lon="-4.19792833">
        <ele>869.0</ele>
        <time>2018-05-19T10:59:52.875Z</time>
      </trkpt>
      <trkpt lat="43.19152" lon="-4.19792833">
        <ele>869.0</ele>
        <time>2018-05-19T10:59:53.852Z</time>
      </trkpt>
      <trkpt lat="43.19148167" lon="-4.19790833">
        <ele>869.0</ele>
        <time>2018-05-19T10:59:54.881Z</time>
      </trkpt>
      <trkpt lat="43.19148167" lon="-4.19790833">
        <ele>869.0</ele>
        <time>2018-05-19T10:59:55.867Z</time>
      </trkpt>
      <trkpt lat="43.19144667" lon="-4.197885">
        <ele>869.0</ele>
        <time>2018-05-19T10:59:56.872Z</time>
      </trkpt>
      <trkpt lat="43.19144667" lon="-4.197885">
        <ele>869.0</ele>
        <time>2018-05-19T10:59:57.870Z</time>
      </trkpt>
      <trkpt lat="43.19141" lon="-4.19786333">
        <ele>870.0</ele>
        <time>2018-05-19T10:59:58.872Z</time>
      </trkpt>
      <trkpt lat="43.19141" lon="-4.19786333">
        <ele>870.0</ele>
        <time>2018-05-19T10:59:59.866Z</time>
      </trkpt>
      <trkpt lat="43.191375" lon="-4.19784167">
        <ele>870.0</ele>
        <time>2018-05-19T11:00:00.866Z</time>
      </trkpt>
      <trkpt lat="43.191375" lon="-4.19784167">
        <ele>870.0</ele>
        <time>2018-05-19T11:00:01.848Z</time>
      </trkpt>
      <trkpt lat="43.19134167" lon="-4.19781667">
        <ele>870.0</ele>
        <time>2018-05-19T11:00:02.872Z</time>
      </trkpt>
      <trkpt lat="43.19134167" lon="-4.19781667">
        <ele>870.0</ele>
        <time>2018-05-19T11:00:03.851Z</time>
      </trkpt>
      <trkpt lat="43.19130333" lon="-4.197805">
        <ele>870.0</ele>
        <time>2018-05-19T11:00:04.874Z</time>
      </trkpt>
      <trkpt lat="43.19130333" lon="-4.197805">
        <ele>870.0</ele>
        <time>2018-05-19T11:00:05.870Z</time>
      </trkpt>
      <trkpt lat="43.19126667" lon="-4.19778833">
        <ele>870.0</ele>
        <time>2018-05-19T11:00:06.870Z</time>
      </trkpt>
      <trkpt lat="43.19126667" lon="-4.19778833">
        <ele>870.0</ele>
        <time>2018-05-19T11:00:07.867Z</time>
      </trkpt>
      <trkpt lat="43.19123333" lon="-4.197765">
        <ele>871.0</ele>
        <time>2018-05-19T11:00:08.869Z</time>
      </trkpt>
      <trkpt lat="43.19121667" lon="-4.19775333">
        <ele>871.0</ele>
        <time>2018-05-19T11:00:09.877Z</time>
      </trkpt>
      <trkpt lat="43.1912" lon="-4.19774">
        <ele>871.0</ele>
        <time>2018-05-19T11:00:10.871Z</time>
      </trkpt>
      <trkpt lat="43.1912" lon="-4.19774">
        <ele>871.0</ele>
        <time>2018-05-19T11:00:11.869Z</time>
      </trkpt>
      <trkpt lat="43.191165" lon="-4.19772">
        <ele>871.0</ele>
        <time>2018-05-19T11:00:12.873Z</time>
      </trkpt>
      <trkpt lat="43.191165" lon="-4.19772">
        <ele>871.0</ele>
        <time>2018-05-19T11:00:13.850Z</time>
      </trkpt>
      <trkpt lat="43.19113333" lon="-4.197695">
        <ele>871.0</ele>
        <time>2018-05-19T11:00:14.874Z</time>
      </trkpt>
      <trkpt lat="43.19113333" lon="-4.197695">
        <ele>871.0</ele>
        <time>2018-05-19T11:00:15.869Z</time>
      </trkpt>
      <trkpt lat="43.19110167" lon="-4.19766833">
        <ele>871.0</ele>
        <time>2018-05-19T11:00:16.871Z</time>
      </trkpt>
      <trkpt lat="43.19110167" lon="-4.19766833">
        <ele>871.0</ele>
        <time>2018-05-19T11:00:17.864Z</time>
      </trkpt>
      <trkpt lat="43.19106833" lon="-4.19764667">
        <ele>872.0</ele>
        <time>2018-05-19T11:00:18.848Z</time>
      </trkpt>
      <trkpt lat="43.19106833" lon="-4.19764667">
        <ele>872.0</ele>
        <time>2018-05-19T11:00:19.873Z</time>
      </trkpt>
      <trkpt lat="43.19103333" lon="-4.19763">
        <ele>872.0</ele>
        <time>2018-05-19T11:00:20.845Z</time>
      </trkpt>
      <trkpt lat="43.19103333" lon="-4.19763">
        <ele>872.0</ele>
        <time>2018-05-19T11:00:21.871Z</time>
      </trkpt>
      <trkpt lat="43.19099667" lon="-4.19761333">
        <ele>872.0</ele>
        <time>2018-05-19T11:00:22.872Z</time>
      </trkpt>
      <trkpt lat="43.19099667" lon="-4.19761333">
        <ele>872.0</ele>
        <time>2018-05-19T11:00:23.881Z</time>
      </trkpt>
      <trkpt lat="43.19096167" lon="-4.19760333">
        <ele>873.0</ele>
        <time>2018-05-19T11:00:24.870Z</time>
      </trkpt>
      <trkpt lat="43.19096167" lon="-4.19760333">
        <ele>873.0</ele>
        <time>2018-05-19T11:00:25.868Z</time>
      </trkpt>
      <trkpt lat="43.19092667" lon="-4.19759667">
        <ele>873.0</ele>
        <time>2018-05-19T11:00:26.870Z</time>
      </trkpt>
      <trkpt lat="43.19092667" lon="-4.19759667">
        <ele>873.0</ele>
        <time>2018-05-19T11:00:27.869Z</time>
      </trkpt>
      <trkpt lat="43.19089333" lon="-4.19759">
        <ele>873.0</ele>
        <time>2018-05-19T11:00:28.871Z</time>
      </trkpt>
      <trkpt lat="43.19089333" lon="-4.19759">
        <ele>873.0</ele>
        <time>2018-05-19T11:00:29.866Z</time>
      </trkpt>
      <trkpt lat="43.19086" lon="-4.19757333">
        <ele>873.0</ele>
        <time>2018-05-19T11:00:30.875Z</time>
      </trkpt>
      <trkpt lat="43.19086" lon="-4.19757333">
        <ele>873.0</ele>
        <time>2018-05-19T11:00:31.862Z</time>
      </trkpt>
      <trkpt lat="43.19083" lon="-4.19755667">
        <ele>874.0</ele>
        <time>2018-05-19T11:00:32.847Z</time>
      </trkpt>
      <trkpt lat="43.19083" lon="-4.19755667">
        <ele>874.0</ele>
        <time>2018-05-19T11:00:33.861Z</time>
      </trkpt>
      <trkpt lat="43.19079667" lon="-4.197545">
        <ele>874.0</ele>
        <time>2018-05-19T11:00:34.847Z</time>
      </trkpt>
      <trkpt lat="43.19079667" lon="-4.197545">
        <ele>874.0</ele>
        <time>2018-05-19T11:00:35.872Z</time>
      </trkpt>
      <trkpt lat="43.190765" lon="-4.19752667">
        <ele>874.0</ele>
        <time>2018-05-19T11:00:36.870Z</time>
      </trkpt>
      <trkpt lat="43.190765" lon="-4.19752667">
        <ele>874.0</ele>
        <time>2018-05-19T11:00:37.868Z</time>
      </trkpt>
      <trkpt lat="43.19073167" lon="-4.19751333">
        <ele>874.0</ele>
        <time>2018-05-19T11:00:38.872Z</time>
      </trkpt>
      <trkpt lat="43.19073167" lon="-4.19751333">
        <ele>874.0</ele>
        <time>2018-05-19T11:00:39.869Z</time>
      </trkpt>
      <trkpt lat="43.19069833" lon="-4.19750167">
        <ele>875.0</ele>
        <time>2018-05-19T11:00:40.845Z</time>
      </trkpt>
      <trkpt lat="43.19069833" lon="-4.19750167">
        <ele>875.0</ele>
        <time>2018-05-19T11:00:41.870Z</time>
      </trkpt>
      <trkpt lat="43.190665" lon="-4.19749">
        <ele>875.0</ele>
        <time>2018-05-19T11:00:42.870Z</time>
      </trkpt>
      <trkpt lat="43.190665" lon="-4.19749">
        <ele>875.0</ele>
        <time>2018-05-19T11:00:43.850Z</time>
      </trkpt>
      <trkpt lat="43.19063167" lon="-4.197475">
        <ele>875.0</ele>
        <time>2018-05-19T11:00:44.873Z</time>
      </trkpt>
      <trkpt lat="43.19063167" lon="-4.197475">
        <ele>875.0</ele>
        <time>2018-05-19T11:00:45.871Z</time>
      </trkpt>
      <trkpt lat="43.19059833" lon="-4.19746">
        <ele>875.0</ele>
        <time>2018-05-19T11:00:46.848Z</time>
      </trkpt>
      <trkpt lat="43.19058167" lon="-4.19745167">
        <ele>875.0</ele>
        <time>2018-05-19T11:00:47.863Z</time>
      </trkpt>
      <trkpt lat="43.19058167" lon="-4.19745167">
        <ele>875.0</ele>
        <time>2018-05-19T11:00:48.868Z</time>
      </trkpt>
      <trkpt lat="43.19054667" lon="-4.197435">
        <ele>875.0</ele>
        <time>2018-05-19T11:00:49.854Z</time>
      </trkpt>
      <trkpt lat="43.19054667" lon="-4.197435">
        <ele>875.0</ele>
        <time>2018-05-19T11:00:50.880Z</time>
      </trkpt>
      <trkpt lat="43.19051" lon="-4.19742">
        <ele>876.0</ele>
        <time>2018-05-19T11:00:51.847Z</time>
      </trkpt>
      <trkpt lat="43.19049333" lon="-4.197415">
        <ele>876.0</ele>
        <time>2018-05-19T11:00:52.873Z</time>
      </trkpt>
      <trkpt lat="43.19049333" lon="-4.197415">
        <ele>876.0</ele>
        <time>2018-05-19T11:00:53.883Z</time>
      </trkpt>
      <trkpt lat="43.190455" lon="-4.197405">
        <ele>876.0</ele>
        <time>2018-05-19T11:00:54.872Z</time>
      </trkpt>
      <trkpt lat="43.19043667" lon="-4.19739833">
        <ele>876.0</ele>
        <time>2018-05-19T11:00:55.869Z</time>
      </trkpt>
      <trkpt lat="43.19041667" lon="-4.19738833">
        <ele>876.0</ele>
        <time>2018-05-19T11:00:56.870Z</time>
      </trkpt>
      <trkpt lat="43.19041667" lon="-4.19738833">
        <ele>876.0</ele>
        <time>2018-05-19T11:00:57.868Z</time>
      </trkpt>
      <trkpt lat="43.19038" lon="-4.197375">
        <ele>876.0</ele>
        <time>2018-05-19T11:00:58.873Z</time>
      </trkpt>
      <trkpt lat="43.19038" lon="-4.197375">
        <ele>876.0</ele>
        <time>2018-05-19T11:00:59.862Z</time>
      </trkpt>
      <trkpt lat="43.19034167" lon="-4.19736333">
        <ele>877.0</ele>
        <time>2018-05-19T11:01:00.848Z</time>
      </trkpt>
      <trkpt lat="43.19034167" lon="-4.19736333">
        <ele>877.0</ele>
        <time>2018-05-19T11:01:01.873Z</time>
      </trkpt>
      <trkpt lat="43.190305" lon="-4.19734667">
        <ele>877.0</ele>
        <time>2018-05-19T11:01:02.873Z</time>
      </trkpt>
      <trkpt lat="43.190305" lon="-4.19734667">
        <ele>877.0</ele>
        <time>2018-05-19T11:01:03.845Z</time>
      </trkpt>
      <trkpt lat="43.19026667" lon="-4.19732833">
        <ele>877.0</ele>
        <time>2018-05-19T11:01:04.867Z</time>
      </trkpt>
      <trkpt lat="43.19024667" lon="-4.19731833">
        <ele>877.0</ele>
        <time>2018-05-19T11:01:05.870Z</time>
      </trkpt>
      <trkpt lat="43.19024667" lon="-4.19731833">
        <ele>877.0</ele>
        <time>2018-05-19T11:01:06.867Z</time>
      </trkpt>
      <trkpt lat="43.19021" lon="-4.19729667">
        <ele>877.0</ele>
        <time>2018-05-19T11:01:07.872Z</time>
      </trkpt>
      <trkpt lat="43.19021" lon="-4.19729667">
        <ele>877.0</ele>
        <time>2018-05-19T11:01:08.869Z</time>
      </trkpt>
      <trkpt lat="43.19017333" lon="-4.197275">
        <ele>878.0</ele>
        <time>2018-05-19T11:01:09.846Z</time>
      </trkpt>
      <trkpt lat="43.190155" lon="-4.19726333">
        <ele>878.0</ele>
        <time>2018-05-19T11:01:10.881Z</time>
      </trkpt>
      <trkpt lat="43.190155" lon="-4.19726333">
        <ele>878.0</ele>
        <time>2018-05-19T11:01:11.868Z</time>
      </trkpt>
      <trkpt lat="43.19011833" lon="-4.19724333">
        <ele>878.0</ele>
        <time>2018-05-19T11:01:12.870Z</time>
      </trkpt>
      <trkpt lat="43.19011833" lon="-4.19724333">
        <ele>878.0</ele>
        <time>2018-05-19T11:01:13.853Z</time>
      </trkpt>
      <trkpt lat="43.190075" lon="-4.19722833">
        <ele>878.0</ele>
        <time>2018-05-19T11:01:14.847Z</time>
      </trkpt>
      <trkpt lat="43.190055" lon="-4.19722">
        <ele>879.0</ele>
        <time>2018-05-19T11:01:15.873Z</time>
      </trkpt>
      <trkpt lat="43.19003333" lon="-4.19721333">
        <ele>879.0</ele>
        <time>2018-05-19T11:01:16.871Z</time>
      </trkpt>
      <trkpt lat="43.19003333" lon="-4.19721333">
        <ele>879.0</ele>
        <time>2018-05-19T11:01:17.868Z</time>
      </trkpt>
      <trkpt lat="43.18999333" lon="-4.197195">
        <ele>879.0</ele>
        <time>2018-05-19T11:01:18.848Z</time>
      </trkpt>
      <trkpt lat="43.18999333" lon="-4.197195">
        <ele>879.0</ele>
        <time>2018-05-19T11:01:19.873Z</time>
      </trkpt>
      <trkpt lat="43.18995" lon="-4.197175">
        <ele>879.0</ele>
        <time>2018-05-19T11:01:20.871Z</time>
      </trkpt>
      <trkpt lat="43.18995" lon="-4.197175">
        <ele>879.0</ele>
        <time>2018-05-19T11:01:21.868Z</time>
      </trkpt>
      <trkpt lat="43.189905" lon="-4.19716">
        <ele>880.0</ele>
        <time>2018-05-19T11:01:22.866Z</time>
      </trkpt>
      <trkpt lat="43.189905" lon="-4.19716">
        <ele>880.0</ele>
        <time>2018-05-19T11:01:23.862Z</time>
      </trkpt>
      <trkpt lat="43.18986" lon="-4.19714333">
        <ele>880.0</ele>
        <time>2018-05-19T11:01:24.849Z</time>
      </trkpt>
      <trkpt lat="43.18983833" lon="-4.197135">
        <ele>880.0</ele>
        <time>2018-05-19T11:01:25.882Z</time>
      </trkpt>
      <trkpt lat="43.18983833" lon="-4.197135">
        <ele>880.0</ele>
        <time>2018-05-19T11:01:26.869Z</time>
      </trkpt>
      <trkpt lat="43.18979667" lon="-4.19712">
        <ele>880.0</ele>
        <time>2018-05-19T11:01:27.872Z</time>
      </trkpt>
      <trkpt lat="43.18977667" lon="-4.19711333">
        <ele>881.0</ele>
        <time>2018-05-19T11:01:28.873Z</time>
      </trkpt>
      <trkpt lat="43.18977667" lon="-4.19711333">
        <ele>881.0</ele>
        <time>2018-05-19T11:01:29.868Z</time>
      </trkpt>
      <trkpt lat="43.18973833" lon="-4.1971">
        <ele>881.0</ele>
        <time>2018-05-19T11:01:30.870Z</time>
      </trkpt>
      <trkpt lat="43.18973833" lon="-4.1971">
        <ele>881.0</ele>
        <time>2018-05-19T11:01:31.865Z</time>
      </trkpt>
      <trkpt lat="43.1897" lon="-4.19708667">
        <ele>882.0</ele>
        <time>2018-05-19T11:01:32.870Z</time>
      </trkpt>
      <trkpt lat="43.1897" lon="-4.19708667">
        <ele>882.0</ele>
        <time>2018-05-19T11:01:33.853Z</time>
      </trkpt>
      <trkpt lat="43.189665" lon="-4.19707333">
        <ele>882.0</ele>
        <time>2018-05-19T11:01:34.880Z</time>
      </trkpt>
      <trkpt lat="43.189665" lon="-4.19707333">
        <ele>882.0</ele>
        <time>2018-05-19T11:01:35.868Z</time>
      </trkpt>
      <trkpt lat="43.18962833" lon="-4.197055">
        <ele>882.0</ele>
        <time>2018-05-19T11:01:36.870Z</time>
      </trkpt>
      <trkpt lat="43.18962833" lon="-4.197055">
        <ele>882.0</ele>
        <time>2018-05-19T11:01:37.872Z</time>
      </trkpt>
      <trkpt lat="43.18958833" lon="-4.19702333">
        <ele>883.0</ele>
        <time>2018-05-19T11:01:38.871Z</time>
      </trkpt>
      <trkpt lat="43.18958833" lon="-4.19702333">
        <ele>883.0</ele>
        <time>2018-05-19T11:01:39.867Z</time>
      </trkpt>
      <trkpt lat="43.189545" lon="-4.19700167">
        <ele>883.0</ele>
        <time>2018-05-19T11:01:40.844Z</time>
      </trkpt>
      <trkpt lat="43.189545" lon="-4.19700167">
        <ele>883.0</ele>
        <time>2018-05-19T11:01:41.868Z</time>
      </trkpt>
      <trkpt lat="43.18950667" lon="-4.19698167">
        <ele>883.0</ele>
        <time>2018-05-19T11:01:42.873Z</time>
      </trkpt>
      <trkpt lat="43.18948833" lon="-4.19697">
        <ele>883.0</ele>
        <time>2018-05-19T11:01:43.864Z</time>
      </trkpt>
      <trkpt lat="43.18948833" lon="-4.19697">
        <ele>883.0</ele>
        <time>2018-05-19T11:01:44.869Z</time>
      </trkpt>
      <trkpt lat="43.18945" lon="-4.19695">
        <ele>884.0</ele>
        <time>2018-05-19T11:01:45.878Z</time>
      </trkpt>
      <trkpt lat="43.18943" lon="-4.19694333">
        <ele>884.0</ele>
        <time>2018-05-19T11:01:46.880Z</time>
      </trkpt>
      <trkpt lat="43.18943" lon="-4.19694333">
        <ele>884.0</ele>
        <time>2018-05-19T11:01:47.846Z</time>
      </trkpt>
      <trkpt lat="43.18938833" lon="-4.19692833">
        <ele>884.0</ele>
        <time>2018-05-19T11:01:48.873Z</time>
      </trkpt>
      <trkpt lat="43.18938833" lon="-4.19692833">
        <ele>884.0</ele>
        <time>2018-05-19T11:01:49.868Z</time>
      </trkpt>
      <trkpt lat="43.18935" lon="-4.19691333">
        <ele>884.0</ele>
        <time>2018-05-19T11:01:50.868Z</time>
      </trkpt>
      <trkpt lat="43.18935" lon="-4.19691333">
        <ele>884.0</ele>
        <time>2018-05-19T11:01:51.869Z</time>
      </trkpt>
      <trkpt lat="43.18931167" lon="-4.196895">
        <ele>885.0</ele>
        <time>2018-05-19T11:01:52.873Z</time>
      </trkpt>
      <trkpt lat="43.18931167" lon="-4.196895">
        <ele>885.0</ele>
        <time>2018-05-19T11:01:53.874Z</time>
      </trkpt>
      <trkpt lat="43.18927333" lon="-4.19687833">
        <ele>885.0</ele>
        <time>2018-05-19T11:01:54.876Z</time>
      </trkpt>
      <trkpt lat="43.18927333" lon="-4.19687833">
        <ele>885.0</ele>
        <time>2018-05-19T11:01:55.862Z</time>
      </trkpt>
      <trkpt lat="43.189235" lon="-4.196865">
        <ele>885.0</ele>
        <time>2018-05-19T11:01:56.847Z</time>
      </trkpt>
      <trkpt lat="43.189235" lon="-4.196865">
        <ele>885.0</ele>
        <time>2018-05-19T11:01:57.870Z</time>
      </trkpt>
      <trkpt lat="43.1892" lon="-4.19685167">
        <ele>886.0</ele>
        <time>2018-05-19T11:01:58.870Z</time>
      </trkpt>
      <trkpt lat="43.1892" lon="-4.19685167">
        <ele>886.0</ele>
        <time>2018-05-19T11:01:59.865Z</time>
      </trkpt>
      <trkpt lat="43.18916167" lon="-4.19684167">
        <ele>886.0</ele>
        <time>2018-05-19T11:02:00.871Z</time>
      </trkpt>
      <trkpt lat="43.18916167" lon="-4.19684167">
        <ele>886.0</ele>
        <time>2018-05-19T11:02:01.868Z</time>
      </trkpt>
      <trkpt lat="43.18912" lon="-4.19682833">
        <ele>886.0</ele>
        <time>2018-05-19T11:02:02.864Z</time>
      </trkpt>
      <trkpt lat="43.18912" lon="-4.19682833">
        <ele>886.0</ele>
        <time>2018-05-19T11:02:03.856Z</time>
      </trkpt>
      <trkpt lat="43.18907833" lon="-4.19681667">
        <ele>887.0</ele>
        <time>2018-05-19T11:02:04.852Z</time>
      </trkpt>
      <trkpt lat="43.18907833" lon="-4.19681667">
        <ele>887.0</ele>
        <time>2018-05-19T11:02:05.878Z</time>
      </trkpt>
      <trkpt lat="43.18904" lon="-4.19679833">
        <ele>887.0</ele>
        <time>2018-05-19T11:02:06.852Z</time>
      </trkpt>
      <trkpt lat="43.18904" lon="-4.19679833">
        <ele>887.0</ele>
        <time>2018-05-19T11:02:07.883Z</time>
      </trkpt>
      <trkpt lat="43.18900333" lon="-4.19678167">
        <ele>887.0</ele>
        <time>2018-05-19T11:02:08.871Z</time>
      </trkpt>
      <trkpt lat="43.18900333" lon="-4.19678167">
        <ele>887.0</ele>
        <time>2018-05-19T11:02:09.868Z</time>
      </trkpt>
      <trkpt lat="43.18896167" lon="-4.19677167">
        <ele>888.0</ele>
        <time>2018-05-19T11:02:10.872Z</time>
      </trkpt>
      <trkpt lat="43.18896167" lon="-4.19677167">
        <ele>888.0</ele>
        <time>2018-05-19T11:02:11.872Z</time>
      </trkpt>
      <trkpt lat="43.18892333" lon="-4.19675333">
        <ele>888.0</ele>
        <time>2018-05-19T11:02:12.869Z</time>
      </trkpt>
      <trkpt lat="43.18892333" lon="-4.19675333">
        <ele>888.0</ele>
        <time>2018-05-19T11:02:13.856Z</time>
      </trkpt>
      <trkpt lat="43.18888833" lon="-4.19673">
        <ele>888.0</ele>
        <time>2018-05-19T11:02:14.854Z</time>
      </trkpt>
      <trkpt lat="43.18888833" lon="-4.19673">
        <ele>888.0</ele>
        <time>2018-05-19T11:02:15.879Z</time>
      </trkpt>
      <trkpt lat="43.18884833" lon="-4.19670667">
        <ele>889.0</ele>
        <time>2018-05-19T11:02:16.872Z</time>
      </trkpt>
      <trkpt lat="43.18884833" lon="-4.19670667">
        <ele>889.0</ele>
        <time>2018-05-19T11:02:17.868Z</time>
      </trkpt>
      <trkpt lat="43.18881333" lon="-4.196685">
        <ele>889.0</ele>
        <time>2018-05-19T11:02:18.869Z</time>
      </trkpt>
      <trkpt lat="43.18881333" lon="-4.196685">
        <ele>889.0</ele>
        <time>2018-05-19T11:02:19.868Z</time>
      </trkpt>
      <trkpt lat="43.18878" lon="-4.19666167">
        <ele>890.0</ele>
        <time>2018-05-19T11:02:20.852Z</time>
      </trkpt>
      <trkpt lat="43.18876167" lon="-4.19665">
        <ele>890.0</ele>
        <time>2018-05-19T11:02:21.878Z</time>
      </trkpt>
      <trkpt lat="43.18874167" lon="-4.19664">
        <ele>890.0</ele>
        <time>2018-05-19T11:02:22.874Z</time>
      </trkpt>
      <trkpt lat="43.18874167" lon="-4.19664">
        <ele>890.0</ele>
        <time>2018-05-19T11:02:23.874Z</time>
      </trkpt>
      <trkpt lat="43.18871167" lon="-4.196615">
        <ele>891.0</ele>
        <time>2018-05-19T11:02:24.873Z</time>
      </trkpt>
      <trkpt lat="43.18871167" lon="-4.196615">
        <ele>891.0</ele>
        <time>2018-05-19T11:02:25.862Z</time>
      </trkpt>
      <trkpt lat="43.18868167" lon="-4.19657333">
        <ele>891.0</ele>
        <time>2018-05-19T11:02:26.847Z</time>
      </trkpt>
      <trkpt lat="43.18868167" lon="-4.19657333">
        <ele>891.0</ele>
        <time>2018-05-19T11:02:27.870Z</time>
      </trkpt>
      <trkpt lat="43.18865333" lon="-4.19653333">
        <ele>892.0</ele>
        <time>2018-05-19T11:02:28.872Z</time>
      </trkpt>
      <trkpt lat="43.18865333" lon="-4.19653333">
        <ele>892.0</ele>
        <time>2018-05-19T11:02:29.865Z</time>
      </trkpt>
      <trkpt lat="43.18862833" lon="-4.19649">
        <ele>892.0</ele>
        <time>2018-05-19T11:02:30.852Z</time>
      </trkpt>
      <trkpt lat="43.18862833" lon="-4.19649">
        <ele>892.0</ele>
        <time>2018-05-19T11:02:31.852Z</time>
      </trkpt>
      <trkpt lat="43.188605" lon="-4.196445">
        <ele>892.0</ele>
        <time>2018-05-19T11:02:32.880Z</time>
      </trkpt>
      <trkpt lat="43.188605" lon="-4.196445">
        <ele>892.0</ele>
        <time>2018-05-19T11:02:33.875Z</time>
      </trkpt>
      <trkpt lat="43.18858667" lon="-4.19639667">
        <ele>893.0</ele>
        <time>2018-05-19T11:02:34.880Z</time>
      </trkpt>
      <trkpt lat="43.18858667" lon="-4.19639667">
        <ele>893.0</ele>
        <time>2018-05-19T11:02:35.868Z</time>
      </trkpt>
      <trkpt lat="43.18857667" lon="-4.19634667">
        <ele>893.0</ele>
        <time>2018-05-19T11:02:36.869Z</time>
      </trkpt>
      <trkpt lat="43.18857667" lon="-4.19634667">
        <ele>893.0</ele>
        <time>2018-05-19T11:02:37.868Z</time>
      </trkpt>
      <trkpt lat="43.18856333" lon="-4.19629667">
        <ele>893.0</ele>
        <time>2018-05-19T11:02:38.868Z</time>
      </trkpt>
      <trkpt lat="43.18855833" lon="-4.19627167">
        <ele>893.0</ele>
        <time>2018-05-19T11:02:39.871Z</time>
      </trkpt>
      <trkpt lat="43.18855833" lon="-4.19627167">
        <ele>893.0</ele>
        <time>2018-05-19T11:02:40.873Z</time>
      </trkpt>
      <trkpt lat="43.18855333" lon="-4.19621667">
        <ele>894.0</ele>
        <time>2018-05-19T11:02:41.871Z</time>
      </trkpt>
      <trkpt lat="43.18855" lon="-4.19618833">
        <ele>894.0</ele>
        <time>2018-05-19T11:02:42.874Z</time>
      </trkpt>
      <trkpt lat="43.18855" lon="-4.19618833">
        <ele>894.0</ele>
        <time>2018-05-19T11:02:43.874Z</time>
      </trkpt>
      <trkpt lat="43.18855" lon="-4.19613">
        <ele>894.0</ele>
        <time>2018-05-19T11:02:44.873Z</time>
      </trkpt>
      <trkpt lat="43.18855" lon="-4.19613">
        <ele>894.0</ele>
        <time>2018-05-19T11:02:45.875Z</time>
      </trkpt>
      <trkpt lat="43.18855333" lon="-4.19606833">
        <ele>895.0</ele>
        <time>2018-05-19T11:02:46.859Z</time>
      </trkpt>
      <trkpt lat="43.18855333" lon="-4.19606833">
        <ele>895.0</ele>
        <time>2018-05-19T11:02:47.865Z</time>
      </trkpt>
      <trkpt lat="43.18856" lon="-4.19600833">
        <ele>895.0</ele>
        <time>2018-05-19T11:02:48.871Z</time>
      </trkpt>
      <trkpt lat="43.18856" lon="-4.19600833">
        <ele>895.0</ele>
        <time>2018-05-19T11:02:49.864Z</time>
      </trkpt>
      <trkpt lat="43.18856833" lon="-4.19594667">
        <ele>896.0</ele>
        <time>2018-05-19T11:02:50.859Z</time>
      </trkpt>
      <trkpt lat="43.18857333" lon="-4.19591667">
        <ele>896.0</ele>
        <time>2018-05-19T11:02:51.844Z</time>
      </trkpt>
      <trkpt lat="43.18858" lon="-4.195885">
        <ele>896.0</ele>
        <time>2018-05-19T11:02:52.873Z</time>
      </trkpt>
      <trkpt lat="43.18858" lon="-4.195885">
        <ele>896.0</ele>
        <time>2018-05-19T11:02:53.880Z</time>
      </trkpt>
      <trkpt lat="43.188595" lon="-4.19582667">
        <ele>896.0</ele>
        <time>2018-05-19T11:02:54.869Z</time>
      </trkpt>
      <trkpt lat="43.188595" lon="-4.19582667">
        <ele>896.0</ele>
        <time>2018-05-19T11:02:55.864Z</time>
      </trkpt>
      <trkpt lat="43.18861" lon="-4.19577167">
        <ele>897.0</ele>
        <time>2018-05-19T11:02:56.873Z</time>
      </trkpt>
      <trkpt lat="43.18861" lon="-4.19577167">
        <ele>897.0</ele>
        <time>2018-05-19T11:02:57.869Z</time>
      </trkpt>
      <trkpt lat="43.18862167" lon="-4.19571333">
        <ele>897.0</ele>
        <time>2018-05-19T11:02:58.875Z</time>
      </trkpt>
      <trkpt lat="43.18862167" lon="-4.19571333">
        <ele>897.0</ele>
        <time>2018-05-19T11:02:59.869Z</time>
      </trkpt>
      <trkpt lat="43.18863167" lon="-4.19565833">
        <ele>898.0</ele>
        <time>2018-05-19T11:03:00.866Z</time>
      </trkpt>
      <trkpt lat="43.18863167" lon="-4.19565833">
        <ele>898.0</ele>
        <time>2018-05-19T11:03:01.870Z</time>
      </trkpt>
      <trkpt lat="43.18864667" lon="-4.19560667">
        <ele>898.0</ele>
        <time>2018-05-19T11:03:02.870Z</time>
      </trkpt>
      <trkpt lat="43.188655" lon="-4.19558167">
        <ele>899.0</ele>
        <time>2018-05-19T11:03:03.855Z</time>
      </trkpt>
      <trkpt lat="43.188655" lon="-4.19558167">
        <ele>899.0</ele>
        <time>2018-05-19T11:03:04.880Z</time>
      </trkpt>
      <trkpt lat="43.18867333" lon="-4.19553333">
        <ele>899.0</ele>
        <time>2018-05-19T11:03:05.867Z</time>
      </trkpt>
      <trkpt lat="43.18868167" lon="-4.19551">
        <ele>899.0</ele>
        <time>2018-05-19T11:03:06.874Z</time>
      </trkpt>
      <trkpt lat="43.18868167" lon="-4.19551">
        <ele>899.0</ele>
        <time>2018-05-19T11:03:07.862Z</time>
      </trkpt>
      <trkpt lat="43.18869833" lon="-4.19546333">
        <ele>900.0</ele>
        <time>2018-05-19T11:03:08.847Z</time>
      </trkpt>
      <trkpt lat="43.18869833" lon="-4.19546333">
        <ele>900.0</ele>
        <time>2018-05-19T11:03:09.871Z</time>
      </trkpt>
      <trkpt lat="43.18871833" lon="-4.19541833">
        <ele>900.0</ele>
        <time>2018-05-19T11:03:10.870Z</time>
      </trkpt>
      <trkpt lat="43.18871833" lon="-4.19541833">
        <ele>900.0</ele>
        <time>2018-05-19T11:03:11.864Z</time>
      </trkpt>
      <trkpt lat="43.18874" lon="-4.19537167">
        <ele>901.0</ele>
        <time>2018-05-19T11:03:12.849Z</time>
      </trkpt>
      <trkpt lat="43.18874" lon="-4.19537167">
        <ele>901.0</ele>
        <time>2018-05-19T11:03:13.874Z</time>
      </trkpt>
      <trkpt lat="43.188765" lon="-4.195325">
        <ele>901.0</ele>
        <time>2018-05-19T11:03:14.868Z</time>
      </trkpt>
      <trkpt lat="43.188765" lon="-4.195325">
        <ele>901.0</ele>
        <time>2018-05-19T11:03:15.844Z</time>
      </trkpt>
      <trkpt lat="43.18879" lon="-4.195275">
        <ele>901.0</ele>
        <time>2018-05-19T11:03:16.877Z</time>
      </trkpt>
      <trkpt lat="43.18879" lon="-4.195275">
        <ele>901.0</ele>
        <time>2018-05-19T11:03:17.869Z</time>
      </trkpt>
      <trkpt lat="43.188815" lon="-4.19522667">
        <ele>902.0</ele>
        <time>2018-05-19T11:03:18.847Z</time>
      </trkpt>
      <trkpt lat="43.188815" lon="-4.19522667">
        <ele>902.0</ele>
        <time>2018-05-19T11:03:19.882Z</time>
      </trkpt>
      <trkpt lat="43.18884167" lon="-4.19517833">
        <ele>902.0</ele>
        <time>2018-05-19T11:03:20.873Z</time>
      </trkpt>
      <trkpt lat="43.18885667" lon="-4.195155">
        <ele>902.0</ele>
        <time>2018-05-19T11:03:21.870Z</time>
      </trkpt>
      <trkpt lat="43.18885667" lon="-4.195155">
        <ele>902.0</ele>
        <time>2018-05-19T11:03:22.871Z</time>
      </trkpt>
      <trkpt lat="43.18888667" lon="-4.19510833">
        <ele>902.0</ele>
        <time>2018-05-19T11:03:23.855Z</time>
      </trkpt>
      <trkpt lat="43.18888667" lon="-4.19510833">
        <ele>902.0</ele>
        <time>2018-05-19T11:03:24.881Z</time>
      </trkpt>
      <trkpt lat="43.18891833" lon="-4.19505833">
        <ele>902.0</ele>
        <time>2018-05-19T11:03:25.881Z</time>
      </trkpt>
      <trkpt lat="43.18891833" lon="-4.19505833">
        <ele>902.0</ele>
        <time>2018-05-19T11:03:26.869Z</time>
      </trkpt>
      <trkpt lat="43.18895167" lon="-4.19500667">
        <ele>903.0</ele>
        <time>2018-05-19T11:03:27.874Z</time>
      </trkpt>
      <trkpt lat="43.18896833" lon="-4.19498167">
        <ele>903.0</ele>
        <time>2018-05-19T11:03:28.874Z</time>
      </trkpt>
      <trkpt lat="43.18896833" lon="-4.19498167">
        <ele>903.0</ele>
        <time>2018-05-19T11:03:29.864Z</time>
      </trkpt>
      <trkpt lat="43.18899667" lon="-4.19492833">
        <ele>903.0</ele>
        <time>2018-05-19T11:03:30.868Z</time>
      </trkpt>
      <trkpt lat="43.18899667" lon="-4.19492833">
        <ele>903.0</ele>
        <time>2018-05-19T11:03:31.868Z</time>
      </trkpt>
      <trkpt lat="43.18903333" lon="-4.19487833">
        <ele>903.0</ele>
        <time>2018-05-19T11:03:32.873Z</time>
      </trkpt>
      <trkpt lat="43.18903333" lon="-4.19487833">
        <ele>903.0</ele>
        <time>2018-05-19T11:03:33.880Z</time>
      </trkpt>
      <trkpt lat="43.18905833" lon="-4.19482167">
        <ele>903.0</ele>
        <time>2018-05-19T11:03:34.866Z</time>
      </trkpt>
      <trkpt lat="43.18905833" lon="-4.19482167">
        <ele>903.0</ele>
        <time>2018-05-19T11:03:35.869Z</time>
      </trkpt>
      <trkpt lat="43.18909167" lon="-4.19476333">
        <ele>904.0</ele>
        <time>2018-05-19T11:03:36.864Z</time>
      </trkpt>
      <trkpt lat="43.18909167" lon="-4.19476333">
        <ele>904.0</ele>
        <time>2018-05-19T11:03:37.870Z</time>
      </trkpt>
      <trkpt lat="43.189125" lon="-4.19471167">
        <ele>904.0</ele>
        <time>2018-05-19T11:03:38.873Z</time>
      </trkpt>
      <trkpt lat="43.18914" lon="-4.19468667">
        <ele>904.0</ele>
        <time>2018-05-19T11:03:39.871Z</time>
      </trkpt>
      <trkpt lat="43.18914" lon="-4.19468667">
        <ele>904.0</ele>
        <time>2018-05-19T11:03:40.850Z</time>
      </trkpt>
      <trkpt lat="43.18917" lon="-4.19463333">
        <ele>905.0</ele>
        <time>2018-05-19T11:03:41.874Z</time>
      </trkpt>
      <trkpt lat="43.18917" lon="-4.19463333">
        <ele>905.0</ele>
        <time>2018-05-19T11:03:42.865Z</time>
      </trkpt>
      <trkpt lat="43.18920167" lon="-4.19458333">
        <ele>905.0</ele>
        <time>2018-05-19T11:03:43.862Z</time>
      </trkpt>
      <trkpt lat="43.18921667" lon="-4.19455833">
        <ele>906.0</ele>
        <time>2018-05-19T11:03:44.847Z</time>
      </trkpt>
      <trkpt lat="43.18921667" lon="-4.19455833">
        <ele>906.0</ele>
        <time>2018-05-19T11:03:45.862Z</time>
      </trkpt>
      <trkpt lat="43.18924833" lon="-4.19450667">
        <ele>906.0</ele>
        <time>2018-05-19T11:03:46.880Z</time>
      </trkpt>
      <trkpt lat="43.189265" lon="-4.19448167">
        <ele>906.0</ele>
        <time>2018-05-19T11:03:47.846Z</time>
      </trkpt>
      <trkpt lat="43.189265" lon="-4.19448167">
        <ele>906.0</ele>
        <time>2018-05-19T11:03:48.852Z</time>
      </trkpt>
      <trkpt lat="43.1893" lon="-4.19443167">
        <ele>906.0</ele>
        <time>2018-05-19T11:03:49.863Z</time>
      </trkpt>
      <trkpt lat="43.18931833" lon="-4.19440833">
        <ele>906.0</ele>
        <time>2018-05-19T11:03:50.848Z</time>
      </trkpt>
      <trkpt lat="43.18931833" lon="-4.19440833">
        <ele>906.0</ele>
        <time>2018-05-19T11:03:51.873Z</time>
      </trkpt>
      <trkpt lat="43.18934833" lon="-4.19435667">
        <ele>907.0</ele>
        <time>2018-05-19T11:03:52.871Z</time>
      </trkpt>
      <trkpt lat="43.18934833" lon="-4.19435667">
        <ele>907.0</ele>
        <time>2018-05-19T11:03:53.853Z</time>
      </trkpt>
      <trkpt lat="43.18937833" lon="-4.19430167">
        <ele>907.0</ele>
        <time>2018-05-19T11:03:54.846Z</time>
      </trkpt>
      <trkpt lat="43.18937833" lon="-4.19430167">
        <ele>907.0</ele>
        <time>2018-05-19T11:03:55.872Z</time>
      </trkpt>
      <trkpt lat="43.18941" lon="-4.19424667">
        <ele>907.0</ele>
        <time>2018-05-19T11:03:56.863Z</time>
      </trkpt>
      <trkpt lat="43.18942667" lon="-4.19422167">
        <ele>907.0</ele>
        <time>2018-05-19T11:03:57.870Z</time>
      </trkpt>
      <trkpt lat="43.189445" lon="-4.19419667">
        <ele>908.0</ele>
        <time>2018-05-19T11:03:58.874Z</time>
      </trkpt>
      <trkpt lat="43.189445" lon="-4.19419667">
        <ele>908.0</ele>
        <time>2018-05-19T11:03:59.869Z</time>
      </trkpt>
      <trkpt lat="43.18947667" lon="-4.194145">
        <ele>908.0</ele>
        <time>2018-05-19T11:04:00.871Z</time>
      </trkpt>
      <trkpt lat="43.18947667" lon="-4.194145">
        <ele>908.0</ele>
        <time>2018-05-19T11:04:01.869Z</time>
      </trkpt>
      <trkpt lat="43.18950833" lon="-4.194095">
        <ele>908.0</ele>
        <time>2018-05-19T11:04:02.865Z</time>
      </trkpt>
      <trkpt lat="43.18950833" lon="-4.194095">
        <ele>908.0</ele>
        <time>2018-05-19T11:04:03.852Z</time>
      </trkpt>
      <trkpt lat="43.189535" lon="-4.19404667">
        <ele>909.0</ele>
        <time>2018-05-19T11:04:04.879Z</time>
      </trkpt>
      <trkpt lat="43.189535" lon="-4.19404667">
        <ele>909.0</ele>
        <time>2018-05-19T11:04:05.864Z</time>
      </trkpt>
      <trkpt lat="43.18956167" lon="-4.194">
        <ele>909.0</ele>
        <time>2018-05-19T11:04:06.860Z</time>
      </trkpt>
      <trkpt lat="43.18956167" lon="-4.194">
        <ele>909.0</ele>
        <time>2018-05-19T11:04:07.845Z</time>
      </trkpt>
      <trkpt lat="43.18959167" lon="-4.19395167">
        <ele>909.0</ele>
        <time>2018-05-19T11:04:08.873Z</time>
      </trkpt>
      <trkpt lat="43.18960333" lon="-4.193925">
        <ele>909.0</ele>
        <time>2018-05-19T11:04:09.865Z</time>
      </trkpt>
      <trkpt lat="43.18961833" lon="-4.19389667">
        <ele>910.0</ele>
        <time>2018-05-19T11:04:10.867Z</time>
      </trkpt>
      <trkpt lat="43.18961833" lon="-4.19389667">
        <ele>910.0</ele>
        <time>2018-05-19T11:04:11.862Z</time>
      </trkpt>
      <trkpt lat="43.18964833" lon="-4.193845">
        <ele>910.0</ele>
        <time>2018-05-19T11:04:12.846Z</time>
      </trkpt>
      <trkpt lat="43.18964833" lon="-4.193845">
        <ele>910.0</ele>
        <time>2018-05-19T11:04:13.882Z</time>
      </trkpt>
      <trkpt lat="43.18967667" lon="-4.193795">
        <ele>910.0</ele>
        <time>2018-05-19T11:04:14.872Z</time>
      </trkpt>
      <trkpt lat="43.18967667" lon="-4.193795">
        <ele>910.0</ele>
        <time>2018-05-19T11:04:15.865Z</time>
      </trkpt>
      <trkpt lat="43.18970167" lon="-4.19374833">
        <ele>911.0</ele>
        <time>2018-05-19T11:04:16.850Z</time>
      </trkpt>
      <trkpt lat="43.18970167" lon="-4.19374833">
        <ele>911.0</ele>
        <time>2018-05-19T11:04:17.862Z</time>
      </trkpt>
      <trkpt lat="43.18972333" lon="-4.19369833">
        <ele>911.0</ele>
        <time>2018-05-19T11:04:18.844Z</time>
      </trkpt>
      <trkpt lat="43.18972333" lon="-4.19369833">
        <ele>911.0</ele>
        <time>2018-05-19T11:04:19.869Z</time>
      </trkpt>
      <trkpt lat="43.18974667" lon="-4.19364833">
        <ele>911.0</ele>
        <time>2018-05-19T11:04:20.871Z</time>
      </trkpt>
      <trkpt lat="43.18975833" lon="-4.19362167">
        <ele>911.0</ele>
        <time>2018-05-19T11:04:21.872Z</time>
      </trkpt>
      <trkpt lat="43.18976667" lon="-4.19359667">
        <ele>911.0</ele>
        <time>2018-05-19T11:04:22.882Z</time>
      </trkpt>
      <trkpt lat="43.18976667" lon="-4.19359667">
        <ele>911.0</ele>
        <time>2018-05-19T11:04:23.855Z</time>
      </trkpt>
      <trkpt lat="43.18978833" lon="-4.19354667">
        <ele>912.0</ele>
        <time>2018-05-19T11:04:24.879Z</time>
      </trkpt>
      <trkpt lat="43.1898" lon="-4.19352167">
        <ele>912.0</ele>
        <time>2018-05-19T11:04:25.871Z</time>
      </trkpt>
      <trkpt lat="43.1898" lon="-4.19352167">
        <ele>912.0</ele>
        <time>2018-05-19T11:04:26.867Z</time>
      </trkpt>
      <trkpt lat="43.18982167" lon="-4.19347">
        <ele>912.0</ele>
        <time>2018-05-19T11:04:27.871Z</time>
      </trkpt>
      <trkpt lat="43.18983167" lon="-4.19344333">
        <ele>912.0</ele>
        <time>2018-05-19T11:04:28.871Z</time>
      </trkpt>
      <trkpt lat="43.18983167" lon="-4.19344333">
        <ele>912.0</ele>
        <time>2018-05-19T11:04:29.858Z</time>
      </trkpt>
      <trkpt lat="43.18985" lon="-4.19338833">
        <ele>912.0</ele>
        <time>2018-05-19T11:04:30.845Z</time>
      </trkpt>
      <trkpt lat="43.18985" lon="-4.19338833">
        <ele>912.0</ele>
        <time>2018-05-19T11:04:31.870Z</time>
      </trkpt>
      <trkpt lat="43.18987333" lon="-4.193335">
        <ele>913.0</ele>
        <time>2018-05-19T11:04:32.871Z</time>
      </trkpt>
      <trkpt lat="43.18987333" lon="-4.193335">
        <ele>913.0</ele>
        <time>2018-05-19T11:04:33.853Z</time>
      </trkpt>
      <trkpt lat="43.18989667" lon="-4.19327833">
        <ele>913.0</ele>
        <time>2018-05-19T11:04:34.880Z</time>
      </trkpt>
      <trkpt lat="43.18989667" lon="-4.19327833">
        <ele>913.0</ele>
        <time>2018-05-19T11:04:35.869Z</time>
      </trkpt>
      <trkpt lat="43.18992" lon="-4.19322667">
        <ele>913.0</ele>
        <time>2018-05-19T11:04:36.870Z</time>
      </trkpt>
      <trkpt lat="43.18992" lon="-4.19322667">
        <ele>913.0</ele>
        <time>2018-05-19T11:04:37.860Z</time>
      </trkpt>
      <trkpt lat="43.18994333" lon="-4.19317667">
        <ele>913.0</ele>
        <time>2018-05-19T11:04:38.844Z</time>
      </trkpt>
      <trkpt lat="43.18994333" lon="-4.19317667">
        <ele>913.0</ele>
        <time>2018-05-19T11:04:39.872Z</time>
      </trkpt>
      <trkpt lat="43.18996167" lon="-4.19312">
        <ele>913.0</ele>
        <time>2018-05-19T11:04:40.848Z</time>
      </trkpt>
      <trkpt lat="43.18996167" lon="-4.19312">
        <ele>913.0</ele>
        <time>2018-05-19T11:04:41.873Z</time>
      </trkpt>
      <trkpt lat="43.18998167" lon="-4.19306167">
        <ele>914.0</ele>
        <time>2018-05-19T11:04:42.870Z</time>
      </trkpt>
      <trkpt lat="43.18998167" lon="-4.19306167">
        <ele>914.0</ele>
        <time>2018-05-19T11:04:43.853Z</time>
      </trkpt>
      <trkpt lat="43.19" lon="-4.19300333">
        <ele>914.0</ele>
        <time>2018-05-19T11:04:44.879Z</time>
      </trkpt>
      <trkpt lat="43.19" lon="-4.19300333">
        <ele>914.0</ele>
        <time>2018-05-19T11:04:45.860Z</time>
      </trkpt>
      <trkpt lat="43.19002" lon="-4.192945">
        <ele>914.0</ele>
        <time>2018-05-19T11:04:46.881Z</time>
      </trkpt>
      <trkpt lat="43.19002833" lon="-4.19291333">
        <ele>914.0</ele>
        <time>2018-05-19T11:04:47.847Z</time>
      </trkpt>
      <trkpt lat="43.19002833" lon="-4.19291333">
        <ele>914.0</ele>
        <time>2018-05-19T11:04:48.854Z</time>
      </trkpt>
      <trkpt lat="43.190045" lon="-4.19285333">
        <ele>915.0</ele>
        <time>2018-05-19T11:04:49.862Z</time>
      </trkpt>
      <trkpt lat="43.190045" lon="-4.19285333">
        <ele>915.0</ele>
        <time>2018-05-19T11:04:50.868Z</time>
      </trkpt>
      <trkpt lat="43.19006333" lon="-4.19279667">
        <ele>915.0</ele>
        <time>2018-05-19T11:04:51.876Z</time>
      </trkpt>
      <trkpt lat="43.19006333" lon="-4.19279667">
        <ele>915.0</ele>
        <time>2018-05-19T11:04:52.870Z</time>
      </trkpt>
      <trkpt lat="43.19008333" lon="-4.19274167">
        <ele>915.0</ele>
        <time>2018-05-19T11:04:53.879Z</time>
      </trkpt>
      <trkpt lat="43.19009333" lon="-4.19271333">
        <ele>915.0</ele>
        <time>2018-05-19T11:04:54.847Z</time>
      </trkpt>
      <trkpt lat="43.19009333" lon="-4.19271333">
        <ele>915.0</ele>
        <time>2018-05-19T11:04:55.878Z</time>
      </trkpt>
      <trkpt lat="43.19012" lon="-4.19265667">
        <ele>915.0</ele>
        <time>2018-05-19T11:04:56.865Z</time>
      </trkpt>
      <trkpt lat="43.19012" lon="-4.19265667">
        <ele>915.0</ele>
        <time>2018-05-19T11:04:57.864Z</time>
      </trkpt>
      <trkpt lat="43.19014333" lon="-4.19260167">
        <ele>915.0</ele>
        <time>2018-05-19T11:04:58.873Z</time>
      </trkpt>
      <trkpt lat="43.19014333" lon="-4.19260167">
        <ele>915.0</ele>
        <time>2018-05-19T11:04:59.870Z</time>
      </trkpt>
      <trkpt lat="43.19016667" lon="-4.19252667">
        <ele>916.0</ele>
        <time>2018-05-19T11:05:00.870Z</time>
      </trkpt>
      <trkpt lat="43.19016667" lon="-4.19252667">
        <ele>916.0</ele>
        <time>2018-05-19T11:05:01.868Z</time>
      </trkpt>
      <trkpt lat="43.190185" lon="-4.192455">
        <ele>916.0</ele>
        <time>2018-05-19T11:05:02.865Z</time>
      </trkpt>
      <trkpt lat="43.190185" lon="-4.192455">
        <ele>916.0</ele>
        <time>2018-05-19T11:05:03.852Z</time>
      </trkpt>
      <trkpt lat="43.19020333" lon="-4.19239167">
        <ele>916.0</ele>
        <time>2018-05-19T11:05:04.879Z</time>
      </trkpt>
      <trkpt lat="43.19020333" lon="-4.19239167">
        <ele>916.0</ele>
        <time>2018-05-19T11:05:05.870Z</time>
      </trkpt>
      <trkpt lat="43.19022333" lon="-4.19233">
        <ele>917.0</ele>
        <time>2018-05-19T11:05:06.845Z</time>
      </trkpt>
      <trkpt lat="43.19022333" lon="-4.19233">
        <ele>917.0</ele>
        <time>2018-05-19T11:05:07.870Z</time>
      </trkpt>
      <trkpt lat="43.19024167" lon="-4.19226833">
        <ele>917.0</ele>
        <time>2018-05-19T11:05:08.871Z</time>
      </trkpt>
      <trkpt lat="43.19024167" lon="-4.19226833">
        <ele>917.0</ele>
        <time>2018-05-19T11:05:09.866Z</time>
      </trkpt>
      <trkpt lat="43.19026" lon="-4.192205">
        <ele>917.0</ele>
        <time>2018-05-19T11:05:10.871Z</time>
      </trkpt>
      <trkpt lat="43.19026" lon="-4.192205">
        <ele>917.0</ele>
        <time>2018-05-19T11:05:11.862Z</time>
      </trkpt>
      <trkpt lat="43.19028333" lon="-4.19214">
        <ele>918.0</ele>
        <time>2018-05-19T11:05:12.847Z</time>
      </trkpt>
      <trkpt lat="43.19028333" lon="-4.19214">
        <ele>918.0</ele>
        <time>2018-05-19T11:05:13.845Z</time>
      </trkpt>
      <trkpt lat="43.190305" lon="-4.192075">
        <ele>918.0</ele>
        <time>2018-05-19T11:05:14.871Z</time>
      </trkpt>
      <trkpt lat="43.19031833" lon="-4.19204333">
        <ele>918.0</ele>
        <time>2018-05-19T11:05:15.868Z</time>
      </trkpt>
      <trkpt lat="43.19033" lon="-4.19201333">
        <ele>918.0</ele>
        <time>2018-05-19T11:05:16.874Z</time>
      </trkpt>
      <trkpt lat="43.19033" lon="-4.19201333">
        <ele>918.0</ele>
        <time>2018-05-19T11:05:17.867Z</time>
      </trkpt>
      <trkpt lat="43.19034833" lon="-4.19194667">
        <ele>919.0</ele>
        <time>2018-05-19T11:05:18.870Z</time>
      </trkpt>
      <trkpt lat="43.19034833" lon="-4.19194667">
        <ele>919.0</ele>
        <time>2018-05-19T11:05:19.868Z</time>
      </trkpt>
      <trkpt lat="43.19037167" lon="-4.19188333">
        <ele>919.0</ele>
        <time>2018-05-19T11:05:20.851Z</time>
      </trkpt>
      <trkpt lat="43.19038167" lon="-4.19185167">
        <ele>919.0</ele>
        <time>2018-05-19T11:05:21.874Z</time>
      </trkpt>
      <trkpt lat="43.19039167" lon="-4.19182">
        <ele>920.0</ele>
        <time>2018-05-19T11:05:22.873Z</time>
      </trkpt>
      <trkpt lat="43.19039167" lon="-4.19182">
        <ele>920.0</ele>
        <time>2018-05-19T11:05:23.849Z</time>
      </trkpt>
      <trkpt lat="43.190415" lon="-4.19176167">
        <ele>920.0</ele>
        <time>2018-05-19T11:05:24.873Z</time>
      </trkpt>
      <trkpt lat="43.190415" lon="-4.19176167">
        <ele>920.0</ele>
        <time>2018-05-19T11:05:25.882Z</time>
      </trkpt>
      <trkpt lat="43.19043333" lon="-4.19169833">
        <ele>920.0</ele>
        <time>2018-05-19T11:05:26.876Z</time>
      </trkpt>
      <trkpt lat="43.19043333" lon="-4.19169833">
        <ele>920.0</ele>
        <time>2018-05-19T11:05:27.867Z</time>
      </trkpt>
      <trkpt lat="43.19045" lon="-4.19163167">
        <ele>921.0</ele>
        <time>2018-05-19T11:05:28.870Z</time>
      </trkpt>
      <trkpt lat="43.19045" lon="-4.19163167">
        <ele>921.0</ele>
        <time>2018-05-19T11:05:29.862Z</time>
      </trkpt>
      <trkpt lat="43.19046667" lon="-4.191565">
        <ele>921.0</ele>
        <time>2018-05-19T11:05:30.856Z</time>
      </trkpt>
      <trkpt lat="43.19046667" lon="-4.191565">
        <ele>921.0</ele>
        <time>2018-05-19T11:05:31.882Z</time>
      </trkpt>
      <trkpt lat="43.19048333" lon="-4.19149833">
        <ele>922.0</ele>
        <time>2018-05-19T11:05:32.872Z</time>
      </trkpt>
      <trkpt lat="43.19048333" lon="-4.19149833">
        <ele>922.0</ele>
        <time>2018-05-19T11:05:33.878Z</time>
      </trkpt>
      <trkpt lat="43.19050333" lon="-4.19143333">
        <ele>922.0</ele>
        <time>2018-05-19T11:05:34.873Z</time>
      </trkpt>
      <trkpt lat="43.19050333" lon="-4.19143333">
        <ele>922.0</ele>
        <time>2018-05-19T11:05:35.872Z</time>
      </trkpt>
      <trkpt lat="43.19051833" lon="-4.19135833">
        <ele>922.0</ele>
        <time>2018-05-19T11:05:36.871Z</time>
      </trkpt>
      <trkpt lat="43.19051833" lon="-4.19135833">
        <ele>922.0</ele>
        <time>2018-05-19T11:05:37.867Z</time>
      </trkpt>
      <trkpt lat="43.19053333" lon="-4.19128833">
        <ele>923.0</ele>
        <time>2018-05-19T11:05:38.871Z</time>
      </trkpt>
      <trkpt lat="43.19053833" lon="-4.19125333">
        <ele>923.0</ele>
        <time>2018-05-19T11:05:39.872Z</time>
      </trkpt>
      <trkpt lat="43.19053833" lon="-4.19125333">
        <ele>923.0</ele>
        <time>2018-05-19T11:05:40.883Z</time>
      </trkpt>
      <trkpt lat="43.19054833" lon="-4.191185">
        <ele>923.0</ele>
        <time>2018-05-19T11:05:41.872Z</time>
      </trkpt>
      <trkpt lat="43.19055333" lon="-4.19115">
        <ele>923.0</ele>
        <time>2018-05-19T11:05:42.874Z</time>
      </trkpt>
      <trkpt lat="43.19055333" lon="-4.19115">
        <ele>923.0</ele>
        <time>2018-05-19T11:05:43.875Z</time>
      </trkpt>
      <trkpt lat="43.19056167" lon="-4.19107667">
        <ele>923.0</ele>
        <time>2018-05-19T11:05:44.872Z</time>
      </trkpt>
      <trkpt lat="43.19056167" lon="-4.19107667">
        <ele>923.0</ele>
        <time>2018-05-19T11:05:45.874Z</time>
      </trkpt>
      <trkpt lat="43.19056667" lon="-4.191">
        <ele>923.0</ele>
        <time>2018-05-19T11:05:46.851Z</time>
      </trkpt>
      <trkpt lat="43.19056667" lon="-4.191">
        <ele>923.0</ele>
        <time>2018-05-19T11:05:47.857Z</time>
      </trkpt>
      <trkpt lat="43.19057167" lon="-4.19092167">
        <ele>924.0</ele>
        <time>2018-05-19T11:05:48.863Z</time>
      </trkpt>
      <trkpt lat="43.19057167" lon="-4.19092167">
        <ele>924.0</ele>
        <time>2018-05-19T11:05:49.869Z</time>
      </trkpt>
      <trkpt lat="43.19057667" lon="-4.19084">
        <ele>924.0</ele>
        <time>2018-05-19T11:05:50.844Z</time>
      </trkpt>
      <trkpt lat="43.19057667" lon="-4.19084">
        <ele>924.0</ele>
        <time>2018-05-19T11:05:51.869Z</time>
      </trkpt>
      <trkpt lat="43.19058333" lon="-4.190755">
        <ele>924.0</ele>
        <time>2018-05-19T11:05:52.866Z</time>
      </trkpt>
      <trkpt lat="43.19058333" lon="-4.190755">
        <ele>924.0</ele>
        <time>2018-05-19T11:05:53.862Z</time>
      </trkpt>
      <trkpt lat="43.190585" lon="-4.19066667">
        <ele>924.0</ele>
        <time>2018-05-19T11:05:54.862Z</time>
      </trkpt>
      <trkpt lat="43.190585" lon="-4.19066667">
        <ele>924.0</ele>
        <time>2018-05-19T11:05:55.846Z</time>
      </trkpt>
      <trkpt lat="43.19058833" lon="-4.19056">
        <ele>924.0</ele>
        <time>2018-05-19T11:05:56.871Z</time>
      </trkpt>
      <trkpt lat="43.19058833" lon="-4.19056">
        <ele>924.0</ele>
        <time>2018-05-19T11:05:57.864Z</time>
      </trkpt>
      <trkpt lat="43.190595" lon="-4.19046">
        <ele>924.0</ele>
        <time>2018-05-19T11:05:58.873Z</time>
      </trkpt>
      <trkpt lat="43.190595" lon="-4.19046">
        <ele>924.0</ele>
        <time>2018-05-19T11:05:59.868Z</time>
      </trkpt>
      <trkpt lat="43.190595" lon="-4.190365">
        <ele>924.0</ele>
        <time>2018-05-19T11:06:00.871Z</time>
      </trkpt>
      <trkpt lat="43.190595" lon="-4.190365">
        <ele>924.0</ele>
        <time>2018-05-19T11:06:01.868Z</time>
      </trkpt>
      <trkpt lat="43.1906" lon="-4.19027333">
        <ele>924.0</ele>
        <time>2018-05-19T11:06:02.872Z</time>
      </trkpt>
      <trkpt lat="43.1906" lon="-4.19027333">
        <ele>924.0</ele>
        <time>2018-05-19T11:06:03.876Z</time>
      </trkpt>
      <trkpt lat="43.19059667" lon="-4.19017667">
        <ele>924.0</ele>
        <time>2018-05-19T11:06:04.865Z</time>
      </trkpt>
      <trkpt lat="43.19059667" lon="-4.19017667">
        <ele>924.0</ele>
        <time>2018-05-19T11:06:05.867Z</time>
      </trkpt>
      <trkpt lat="43.19058333" lon="-4.19007">
        <ele>924.0</ele>
        <time>2018-05-19T11:06:06.870Z</time>
      </trkpt>
      <trkpt lat="43.19058333" lon="-4.19007">
        <ele>924.0</ele>
        <time>2018-05-19T11:06:07.868Z</time>
      </trkpt>
      <trkpt lat="43.19057" lon="-4.18995833">
        <ele>923.0</ele>
        <time>2018-05-19T11:06:08.865Z</time>
      </trkpt>
      <trkpt lat="43.19057" lon="-4.18995833">
        <ele>923.0</ele>
        <time>2018-05-19T11:06:09.860Z</time>
      </trkpt>
      <trkpt lat="43.19054667" lon="-4.18984">
        <ele>923.0</ele>
        <time>2018-05-19T11:06:10.847Z</time>
      </trkpt>
      <trkpt lat="43.19054667" lon="-4.18984">
        <ele>923.0</ele>
        <time>2018-05-19T11:06:11.873Z</time>
      </trkpt>
      <trkpt lat="43.19052167" lon="-4.18971">
        <ele>922.0</ele>
        <time>2018-05-19T11:06:12.872Z</time>
      </trkpt>
      <trkpt lat="43.19052167" lon="-4.18971">
        <ele>922.0</ele>
        <time>2018-05-19T11:06:13.875Z</time>
      </trkpt>
      <trkpt lat="43.19049667" lon="-4.189565">
        <ele>921.0</ele>
        <time>2018-05-19T11:06:14.871Z</time>
      </trkpt>
      <trkpt lat="43.19049667" lon="-4.189565">
        <ele>921.0</ele>
        <time>2018-05-19T11:06:15.854Z</time>
      </trkpt>
      <trkpt lat="43.19047333" lon="-4.189405">
        <ele>921.0</ele>
        <time>2018-05-19T11:06:16.882Z</time>
      </trkpt>
      <trkpt lat="43.19047333" lon="-4.189405">
        <ele>921.0</ele>
        <time>2018-05-19T11:06:17.868Z</time>
      </trkpt>
      <trkpt lat="43.19044667" lon="-4.189235">
        <ele>920.0</ele>
        <time>2018-05-19T11:06:18.869Z</time>
      </trkpt>
      <trkpt lat="43.19044667" lon="-4.189235">
        <ele>920.0</ele>
        <time>2018-05-19T11:06:19.867Z</time>
      </trkpt>
      <trkpt lat="43.19040833" lon="-4.18905833">
        <ele>919.0</ele>
        <time>2018-05-19T11:06:20.871Z</time>
      </trkpt>
      <trkpt lat="43.19038" lon="-4.18896667">
        <ele>919.0</ele>
        <time>2018-05-19T11:06:21.870Z</time>
      </trkpt>
      <trkpt lat="43.19038" lon="-4.18896667">
        <ele>919.0</ele>
        <time>2018-05-19T11:06:22.860Z</time>
      </trkpt>
      <trkpt lat="43.19032167" lon="-4.18878333">
        <ele>918.0</ele>
        <time>2018-05-19T11:06:23.864Z</time>
      </trkpt>
      <trkpt lat="43.19029" lon="-4.18869">
        <ele>918.0</ele>
        <time>2018-05-19T11:06:24.869Z</time>
      </trkpt>
      <trkpt lat="43.19029" lon="-4.18869">
        <ele>918.0</ele>
        <time>2018-05-19T11:06:25.867Z</time>
      </trkpt>
      <trkpt lat="43.19022167" lon="-4.18850333">
        <ele>917.0</ele>
        <time>2018-05-19T11:06:26.872Z</time>
      </trkpt>
      <trkpt lat="43.19018833" lon="-4.18840667">
        <ele>916.0</ele>
        <time>2018-05-19T11:06:27.871Z</time>
      </trkpt>
      <trkpt lat="43.19015333" lon="-4.18831">
        <ele>916.0</ele>
        <time>2018-05-19T11:06:28.872Z</time>
      </trkpt>
      <trkpt lat="43.19015333" lon="-4.18831">
        <ele>916.0</ele>
        <time>2018-05-19T11:06:29.868Z</time>
      </trkpt>
      <trkpt lat="43.19007667" lon="-4.18811333">
        <ele>915.0</ele>
        <time>2018-05-19T11:06:30.856Z</time>
      </trkpt>
      <trkpt lat="43.19002667" lon="-4.18802">
        <ele>914.0</ele>
        <time>2018-05-19T11:06:31.844Z</time>
      </trkpt>
      <trkpt lat="43.19002667" lon="-4.18802">
        <ele>914.0</ele>
        <time>2018-05-19T11:06:32.869Z</time>
      </trkpt>
      <trkpt lat="43.18990667" lon="-4.18785">
        <ele>914.0</ele>
        <time>2018-05-19T11:06:33.881Z</time>
      </trkpt>
      <trkpt lat="43.189845" lon="-4.18776833">
        <ele>913.0</ele>
        <time>2018-05-19T11:06:34.873Z</time>
      </trkpt>
      <trkpt lat="43.189845" lon="-4.18776833">
        <ele>913.0</ele>
        <time>2018-05-19T11:06:35.882Z</time>
      </trkpt>
      <trkpt lat="43.18973" lon="-4.18759">
        <ele>912.0</ele>
        <time>2018-05-19T11:06:36.865Z</time>
      </trkpt>
      <trkpt lat="43.189675" lon="-4.18749667">
        <ele>912.0</ele>
        <time>2018-05-19T11:06:37.863Z</time>
      </trkpt>
      <trkpt lat="43.18961833" lon="-4.18740167">
        <ele>911.0</ele>
        <time>2018-05-19T11:06:38.871Z</time>
      </trkpt>
      <trkpt lat="43.18961833" lon="-4.18740167">
        <ele>911.0</ele>
        <time>2018-05-19T11:06:39.868Z</time>
      </trkpt>
      <trkpt lat="43.18950167" lon="-4.18721167">
        <ele>910.0</ele>
        <time>2018-05-19T11:06:40.845Z</time>
      </trkpt>
      <trkpt lat="43.18950167" lon="-4.18721167">
        <ele>910.0</ele>
        <time>2018-05-19T11:06:41.875Z</time>
      </trkpt>
      <trkpt lat="43.18938333" lon="-4.18703167">
        <ele>908.0</ele>
        <time>2018-05-19T11:06:42.871Z</time>
      </trkpt>
      <trkpt lat="43.18938333" lon="-4.18703167">
        <ele>908.0</ele>
        <time>2018-05-19T11:06:43.882Z</time>
      </trkpt>
      <trkpt lat="43.18926833" lon="-4.18685333">
        <ele>907.0</ele>
        <time>2018-05-19T11:06:44.871Z</time>
      </trkpt>
      <trkpt lat="43.18926833" lon="-4.18685333">
        <ele>907.0</ele>
        <time>2018-05-19T11:06:45.865Z</time>
      </trkpt>
      <trkpt lat="43.18917" lon="-4.18667167">
        <ele>905.0</ele>
        <time>2018-05-19T11:06:46.866Z</time>
      </trkpt>
      <trkpt lat="43.18912333" lon="-4.18659">
        <ele>905.0</ele>
        <time>2018-05-19T11:06:47.871Z</time>
      </trkpt>
      <trkpt lat="43.18912333" lon="-4.18659">
        <ele>905.0</ele>
        <time>2018-05-19T11:06:48.877Z</time>
      </trkpt>
      <trkpt lat="43.18901167" lon="-4.18645167">
        <ele>903.0</ele>
        <time>2018-05-19T11:06:49.870Z</time>
      </trkpt>
      <trkpt lat="43.18901167" lon="-4.18645167">
        <ele>903.0</ele>
        <time>2018-05-19T11:06:50.861Z</time>
      </trkpt>
      <trkpt lat="43.18886667" lon="-4.18635833">
        <ele>902.0</ele>
        <time>2018-05-19T11:06:51.847Z</time>
      </trkpt>
      <trkpt lat="43.18879" lon="-4.186325">
        <ele>901.0</ele>
        <time>2018-05-19T11:06:52.872Z</time>
      </trkpt>
      <trkpt lat="43.18879" lon="-4.186325">
        <ele>901.0</ele>
        <time>2018-05-19T11:06:53.879Z</time>
      </trkpt>
      <trkpt lat="43.18863333" lon="-4.18626667">
        <ele>901.0</ele>
        <time>2018-05-19T11:06:54.871Z</time>
      </trkpt>
      <trkpt lat="43.18863333" lon="-4.18626667">
        <ele>901.0</ele>
        <time>2018-05-19T11:06:55.867Z</time>
      </trkpt>
      <trkpt lat="43.18848167" lon="-4.18621333">
        <ele>901.0</ele>
        <time>2018-05-19T11:06:56.870Z</time>
      </trkpt>
      <trkpt lat="43.18848167" lon="-4.18621333">
        <ele>901.0</ele>
        <time>2018-05-19T11:06:57.862Z</time>
      </trkpt>
      <trkpt lat="43.18833333" lon="-4.18616833">
        <ele>901.0</ele>
        <time>2018-05-19T11:06:58.848Z</time>
      </trkpt>
      <trkpt lat="43.18833333" lon="-4.18616833">
        <ele>901.0</ele>
        <time>2018-05-19T11:06:59.874Z</time>
      </trkpt>
      <trkpt lat="43.18819167" lon="-4.18612">
        <ele>901.0</ele>
        <time>2018-05-19T11:07:00.871Z</time>
      </trkpt>
      <trkpt lat="43.18819167" lon="-4.18612">
        <ele>901.0</ele>
        <time>2018-05-19T11:07:01.865Z</time>
      </trkpt>
      <trkpt lat="43.18805" lon="-4.18607333">
        <ele>901.0</ele>
        <time>2018-05-19T11:07:02.869Z</time>
      </trkpt>
      <trkpt lat="43.18805" lon="-4.18607333">
        <ele>901.0</ele>
        <time>2018-05-19T11:07:03.852Z</time>
      </trkpt>
      <trkpt lat="43.187905" lon="-4.18602167">
        <ele>901.0</ele>
        <time>2018-05-19T11:07:04.878Z</time>
      </trkpt>
      <trkpt lat="43.187905" lon="-4.18602167">
        <ele>901.0</ele>
        <time>2018-05-19T11:07:05.866Z</time>
      </trkpt>
      <trkpt lat="43.18776167" lon="-4.18594167">
        <ele>900.0</ele>
        <time>2018-05-19T11:07:06.868Z</time>
      </trkpt>
      <trkpt lat="43.18776167" lon="-4.18594167">
        <ele>900.0</ele>
        <time>2018-05-19T11:07:07.882Z</time>
      </trkpt>
      <trkpt lat="43.18763333" lon="-4.18580333">
        <ele>899.0</ele>
        <time>2018-05-19T11:07:08.871Z</time>
      </trkpt>
      <trkpt lat="43.187575" lon="-4.185715">
        <ele>898.0</ele>
        <time>2018-05-19T11:07:09.870Z</time>
      </trkpt>
      <trkpt lat="43.18752167" lon="-4.18561833">
        <ele>897.0</ele>
        <time>2018-05-19T11:07:10.854Z</time>
      </trkpt>
      <trkpt lat="43.18752167" lon="-4.18561833">
        <ele>897.0</ele>
        <time>2018-05-19T11:07:11.882Z</time>
      </trkpt>
      <trkpt lat="43.18739667" lon="-4.18543">
        <ele>896.0</ele>
        <time>2018-05-19T11:07:12.871Z</time>
      </trkpt>
      <trkpt lat="43.18739667" lon="-4.18543">
        <ele>896.0</ele>
        <time>2018-05-19T11:07:13.874Z</time>
      </trkpt>
      <trkpt lat="43.18724333" lon="-4.18527667">
        <ele>896.0</ele>
        <time>2018-05-19T11:07:14.870Z</time>
      </trkpt>
      <trkpt lat="43.18724333" lon="-4.18527667">
        <ele>896.0</ele>
        <time>2018-05-19T11:07:15.866Z</time>
      </trkpt>
      <trkpt lat="43.18708667" lon="-4.18513167">
        <ele>895.0</ele>
        <time>2018-05-19T11:07:16.873Z</time>
      </trkpt>
      <trkpt lat="43.18708667" lon="-4.18513167">
        <ele>895.0</ele>
        <time>2018-05-19T11:07:17.865Z</time>
      </trkpt>
      <trkpt lat="43.186935" lon="-4.18497833">
        <ele>894.0</ele>
        <time>2018-05-19T11:07:18.882Z</time>
      </trkpt>
      <trkpt lat="43.186935" lon="-4.18497833">
        <ele>894.0</ele>
        <time>2018-05-19T11:07:19.868Z</time>
      </trkpt>
      <trkpt lat="43.18679333" lon="-4.18481833">
        <ele>894.0</ele>
        <time>2018-05-19T11:07:20.867Z</time>
      </trkpt>
      <trkpt lat="43.18679333" lon="-4.18481833">
        <ele>894.0</ele>
        <time>2018-05-19T11:07:21.859Z</time>
      </trkpt>
      <trkpt lat="43.18666333" lon="-4.18465">
        <ele>893.0</ele>
        <time>2018-05-19T11:07:22.845Z</time>
      </trkpt>
      <trkpt lat="43.18666333" lon="-4.18465">
        <ele>893.0</ele>
        <time>2018-05-19T11:07:23.857Z</time>
      </trkpt>
      <trkpt lat="43.18653667" lon="-4.184475">
        <ele>893.0</ele>
        <time>2018-05-19T11:07:24.881Z</time>
      </trkpt>
      <trkpt lat="43.18653667" lon="-4.184475">
        <ele>893.0</ele>
        <time>2018-05-19T11:07:25.864Z</time>
      </trkpt>
      <trkpt lat="43.18640833" lon="-4.18430333">
        <ele>892.0</ele>
        <time>2018-05-19T11:07:26.867Z</time>
      </trkpt>
      <trkpt lat="43.18640833" lon="-4.18430333">
        <ele>892.0</ele>
        <time>2018-05-19T11:07:27.865Z</time>
      </trkpt>
      <trkpt lat="43.18628" lon="-4.18413167">
        <ele>891.0</ele>
        <time>2018-05-19T11:07:28.872Z</time>
      </trkpt>
      <trkpt lat="43.18628" lon="-4.18413167">
        <ele>891.0</ele>
        <time>2018-05-19T11:07:29.866Z</time>
      </trkpt>
      <trkpt lat="43.18615167" lon="-4.183955">
        <ele>890.0</ele>
        <time>2018-05-19T11:07:30.870Z</time>
      </trkpt>
      <trkpt lat="43.18615167" lon="-4.183955">
        <ele>890.0</ele>
        <time>2018-05-19T11:07:31.865Z</time>
      </trkpt>
      <trkpt lat="43.18602667" lon="-4.183765">
        <ele>889.0</ele>
        <time>2018-05-19T11:07:32.870Z</time>
      </trkpt>
      <trkpt lat="43.18602667" lon="-4.183765">
        <ele>889.0</ele>
        <time>2018-05-19T11:07:33.876Z</time>
      </trkpt>
      <trkpt lat="43.185915" lon="-4.18355167">
        <ele>887.0</ele>
        <time>2018-05-19T11:07:34.870Z</time>
      </trkpt>
      <trkpt lat="43.18585667" lon="-4.18344167">
        <ele>887.0</ele>
        <time>2018-05-19T11:07:35.871Z</time>
      </trkpt>
      <trkpt lat="43.18585667" lon="-4.18344167">
        <ele>887.0</ele>
        <time>2018-05-19T11:07:36.865Z</time>
      </trkpt>
      <trkpt lat="43.18573167" lon="-4.183245">
        <ele>886.0</ele>
        <time>2018-05-19T11:07:37.870Z</time>
      </trkpt>
      <trkpt lat="43.18573167" lon="-4.183245">
        <ele>886.0</ele>
        <time>2018-05-19T11:07:38.864Z</time>
      </trkpt>
      <trkpt lat="43.18559" lon="-4.18309">
        <ele>886.0</ele>
        <time>2018-05-19T11:07:39.871Z</time>
      </trkpt>
      <trkpt lat="43.18559" lon="-4.18309">
        <ele>886.0</ele>
        <time>2018-05-19T11:07:40.872Z</time>
      </trkpt>
      <trkpt lat="43.18544333" lon="-4.18298833">
        <ele>887.0</ele>
        <time>2018-05-19T11:07:41.871Z</time>
      </trkpt>
      <trkpt lat="43.18537333" lon="-4.18295">
        <ele>887.0</ele>
        <time>2018-05-19T11:07:42.871Z</time>
      </trkpt>
      <trkpt lat="43.18537333" lon="-4.18295">
        <ele>887.0</ele>
        <time>2018-05-19T11:07:43.874Z</time>
      </trkpt>
      <trkpt lat="43.18524333" lon="-4.18288667">
        <ele>888.0</ele>
        <time>2018-05-19T11:07:44.879Z</time>
      </trkpt>
      <trkpt lat="43.18524333" lon="-4.18288667">
        <ele>888.0</ele>
        <time>2018-05-19T11:07:45.849Z</time>
      </trkpt>
      <trkpt lat="43.18513" lon="-4.182845">
        <ele>889.0</ele>
        <time>2018-05-19T11:07:46.871Z</time>
      </trkpt>
      <trkpt lat="43.18513" lon="-4.182845">
        <ele>889.0</ele>
        <time>2018-05-19T11:07:47.878Z</time>
      </trkpt>
      <trkpt lat="43.18503333" lon="-4.18282167">
        <ele>890.0</ele>
        <time>2018-05-19T11:07:48.844Z</time>
      </trkpt>
      <trkpt lat="43.18503333" lon="-4.18282167">
        <ele>890.0</ele>
        <time>2018-05-19T11:07:49.871Z</time>
      </trkpt>
      <trkpt lat="43.18495333" lon="-4.18279833">
        <ele>891.0</ele>
        <time>2018-05-19T11:07:50.871Z</time>
      </trkpt>
      <trkpt lat="43.18495333" lon="-4.18279833">
        <ele>891.0</ele>
        <time>2018-05-19T11:07:51.865Z</time>
      </trkpt>
      <trkpt lat="43.184885" lon="-4.18279333">
        <ele>892.0</ele>
        <time>2018-05-19T11:07:52.873Z</time>
      </trkpt>
      <trkpt lat="43.184885" lon="-4.18279333">
        <ele>892.0</ele>
        <time>2018-05-19T11:07:53.848Z</time>
      </trkpt>
      <trkpt lat="43.18482333" lon="-4.18278667">
        <ele>893.0</ele>
        <time>2018-05-19T11:07:54.874Z</time>
      </trkpt>
      <trkpt lat="43.18482333" lon="-4.18278667">
        <ele>893.0</ele>
        <time>2018-05-19T11:07:55.868Z</time>
      </trkpt>
      <trkpt lat="43.18476333" lon="-4.18277667">
        <ele>893.0</ele>
        <time>2018-05-19T11:07:56.868Z</time>
      </trkpt>
      <trkpt lat="43.18476333" lon="-4.18277667">
        <ele>893.0</ele>
        <time>2018-05-19T11:07:57.869Z</time>
      </trkpt>
      <trkpt lat="43.184705" lon="-4.18277167">
        <ele>894.0</ele>
        <time>2018-05-19T11:07:58.870Z</time>
      </trkpt>
      <trkpt lat="43.184705" lon="-4.18277167">
        <ele>894.0</ele>
        <time>2018-05-19T11:07:59.865Z</time>
      </trkpt>
      <trkpt lat="43.18464667" lon="-4.18276667">
        <ele>894.0</ele>
        <time>2018-05-19T11:08:00.872Z</time>
      </trkpt>
      <trkpt lat="43.18464667" lon="-4.18276667">
        <ele>894.0</ele>
        <time>2018-05-19T11:08:01.862Z</time>
      </trkpt>
      <trkpt lat="43.18459333" lon="-4.18276167">
        <ele>894.0</ele>
        <time>2018-05-19T11:08:02.867Z</time>
      </trkpt>
      <trkpt lat="43.18459333" lon="-4.18276167">
        <ele>894.0</ele>
        <time>2018-05-19T11:08:03.850Z</time>
      </trkpt>
      <trkpt lat="43.18454" lon="-4.182765">
        <ele>895.0</ele>
        <time>2018-05-19T11:08:04.873Z</time>
      </trkpt>
      <trkpt lat="43.18454" lon="-4.182765">
        <ele>895.0</ele>
        <time>2018-05-19T11:08:05.866Z</time>
      </trkpt>
      <trkpt lat="43.18448667" lon="-4.18277">
        <ele>895.0</ele>
        <time>2018-05-19T11:08:06.876Z</time>
      </trkpt>
      <trkpt lat="43.18448667" lon="-4.18277">
        <ele>895.0</ele>
        <time>2018-05-19T11:08:07.876Z</time>
      </trkpt>
      <trkpt lat="43.18443333" lon="-4.18277333">
        <ele>896.0</ele>
        <time>2018-05-19T11:08:08.869Z</time>
      </trkpt>
      <trkpt lat="43.18443333" lon="-4.18277333">
        <ele>896.0</ele>
        <time>2018-05-19T11:08:09.865Z</time>
      </trkpt>
      <trkpt lat="43.18438333" lon="-4.182775">
        <ele>896.0</ele>
        <time>2018-05-19T11:08:10.871Z</time>
      </trkpt>
      <trkpt lat="43.18438333" lon="-4.182775">
        <ele>896.0</ele>
        <time>2018-05-19T11:08:11.864Z</time>
      </trkpt>
      <trkpt lat="43.18433167" lon="-4.18277833">
        <ele>897.0</ele>
        <time>2018-05-19T11:08:12.871Z</time>
      </trkpt>
      <trkpt lat="43.18433167" lon="-4.18277833">
        <ele>897.0</ele>
        <time>2018-05-19T11:08:13.883Z</time>
      </trkpt>
      <trkpt lat="43.18428333" lon="-4.18279">
        <ele>897.0</ele>
        <time>2018-05-19T11:08:14.870Z</time>
      </trkpt>
      <trkpt lat="43.18428333" lon="-4.18279">
        <ele>897.0</ele>
        <time>2018-05-19T11:08:15.859Z</time>
      </trkpt>
      <trkpt lat="43.18423167" lon="-4.182805">
        <ele>897.0</ele>
        <time>2018-05-19T11:08:16.883Z</time>
      </trkpt>
      <trkpt lat="43.18423167" lon="-4.182805">
        <ele>897.0</ele>
        <time>2018-05-19T11:08:17.857Z</time>
      </trkpt>
      <trkpt lat="43.18418167" lon="-4.182825">
        <ele>898.0</ele>
        <time>2018-05-19T11:08:18.879Z</time>
      </trkpt>
      <trkpt lat="43.18418167" lon="-4.182825">
        <ele>898.0</ele>
        <time>2018-05-19T11:08:19.866Z</time>
      </trkpt>
      <trkpt lat="43.18413167" lon="-4.18283833">
        <ele>898.0</ele>
        <time>2018-05-19T11:08:20.866Z</time>
      </trkpt>
      <trkpt lat="43.18413167" lon="-4.18283833">
        <ele>898.0</ele>
        <time>2018-05-19T11:08:21.863Z</time>
      </trkpt>
      <trkpt lat="43.18408" lon="-4.18284833">
        <ele>899.0</ele>
        <time>2018-05-19T11:08:22.849Z</time>
      </trkpt>
      <trkpt lat="43.18408" lon="-4.18284833">
        <ele>899.0</ele>
        <time>2018-05-19T11:08:23.854Z</time>
      </trkpt>
      <trkpt lat="43.18402833" lon="-4.182855">
        <ele>899.0</ele>
        <time>2018-05-19T11:08:24.880Z</time>
      </trkpt>
      <trkpt lat="43.18402833" lon="-4.182855">
        <ele>899.0</ele>
        <time>2018-05-19T11:08:25.865Z</time>
      </trkpt>
      <trkpt lat="43.18397833" lon="-4.18286">
        <ele>900.0</ele>
        <time>2018-05-19T11:08:26.870Z</time>
      </trkpt>
      <trkpt lat="43.18397833" lon="-4.18286">
        <ele>900.0</ele>
        <time>2018-05-19T11:08:27.870Z</time>
      </trkpt>
      <trkpt lat="43.18392667" lon="-4.18287">
        <ele>900.0</ele>
        <time>2018-05-19T11:08:28.872Z</time>
      </trkpt>
      <trkpt lat="43.18390167" lon="-4.18287667">
        <ele>900.0</ele>
        <time>2018-05-19T11:08:29.870Z</time>
      </trkpt>
      <trkpt lat="43.18390167" lon="-4.18287667">
        <ele>900.0</ele>
        <time>2018-05-19T11:08:30.865Z</time>
      </trkpt>
      <trkpt lat="43.18385167" lon="-4.18287833">
        <ele>901.0</ele>
        <time>2018-05-19T11:08:31.870Z</time>
      </trkpt>
      <trkpt lat="43.18385167" lon="-4.18287833">
        <ele>901.0</ele>
        <time>2018-05-19T11:08:32.867Z</time>
      </trkpt>
      <trkpt lat="43.18380167" lon="-4.18287833">
        <ele>901.0</ele>
        <time>2018-05-19T11:08:33.852Z</time>
      </trkpt>
      <trkpt lat="43.18377833" lon="-4.18288">
        <ele>902.0</ele>
        <time>2018-05-19T11:08:34.879Z</time>
      </trkpt>
      <trkpt lat="43.18377833" lon="-4.18288">
        <ele>902.0</ele>
        <time>2018-05-19T11:08:35.866Z</time>
      </trkpt>
      <trkpt lat="43.18373167" lon="-4.182885">
        <ele>902.0</ele>
        <time>2018-05-19T11:08:36.857Z</time>
      </trkpt>
      <trkpt lat="43.18373167" lon="-4.182885">
        <ele>902.0</ele>
        <time>2018-05-19T11:08:37.852Z</time>
      </trkpt>
      <trkpt lat="43.18368167" lon="-4.18289333">
        <ele>902.0</ele>
        <time>2018-05-19T11:08:38.873Z</time>
      </trkpt>
      <trkpt lat="43.18368167" lon="-4.18289333">
        <ele>902.0</ele>
        <time>2018-05-19T11:08:39.865Z</time>
      </trkpt>
      <trkpt lat="43.18363333" lon="-4.18289667">
        <ele>903.0</ele>
        <time>2018-05-19T11:08:40.870Z</time>
      </trkpt>
      <trkpt lat="43.18363333" lon="-4.18289667">
        <ele>903.0</ele>
        <time>2018-05-19T11:08:41.865Z</time>
      </trkpt>
      <trkpt lat="43.18358333" lon="-4.18290167">
        <ele>903.0</ele>
        <time>2018-05-19T11:08:42.870Z</time>
      </trkpt>
      <trkpt lat="43.18358333" lon="-4.18290167">
        <ele>903.0</ele>
        <time>2018-05-19T11:08:43.878Z</time>
      </trkpt>
      <trkpt lat="43.183535" lon="-4.18291167">
        <ele>904.0</ele>
        <time>2018-05-19T11:08:44.871Z</time>
      </trkpt>
      <trkpt lat="43.183535" lon="-4.18291167">
        <ele>904.0</ele>
        <time>2018-05-19T11:08:45.875Z</time>
      </trkpt>
      <trkpt lat="43.183485" lon="-4.18291667">
        <ele>904.0</ele>
        <time>2018-05-19T11:08:46.858Z</time>
      </trkpt>
      <trkpt lat="43.183485" lon="-4.18291667">
        <ele>904.0</ele>
        <time>2018-05-19T11:08:47.865Z</time>
      </trkpt>
      <trkpt lat="43.18343333" lon="-4.18292667">
        <ele>904.0</ele>
        <time>2018-05-19T11:08:48.879Z</time>
      </trkpt>
      <trkpt lat="43.18343333" lon="-4.18292667">
        <ele>904.0</ele>
        <time>2018-05-19T11:08:49.845Z</time>
      </trkpt>
      <trkpt lat="43.18338" lon="-4.18294333">
        <ele>905.0</ele>
        <time>2018-05-19T11:08:50.874Z</time>
      </trkpt>
      <trkpt lat="43.18338" lon="-4.18294333">
        <ele>905.0</ele>
        <time>2018-05-19T11:08:51.858Z</time>
      </trkpt>
      <trkpt lat="43.183325" lon="-4.18295667">
        <ele>905.0</ele>
        <time>2018-05-19T11:08:52.845Z</time>
      </trkpt>
      <trkpt lat="43.183325" lon="-4.18295667">
        <ele>905.0</ele>
        <time>2018-05-19T11:08:53.857Z</time>
      </trkpt>
      <trkpt lat="43.18327333" lon="-4.182965">
        <ele>905.0</ele>
        <time>2018-05-19T11:08:54.844Z</time>
      </trkpt>
      <trkpt lat="43.18327333" lon="-4.182965">
        <ele>905.0</ele>
        <time>2018-05-19T11:08:55.870Z</time>
      </trkpt>
      <trkpt lat="43.18322333" lon="-4.182975">
        <ele>906.0</ele>
        <time>2018-05-19T11:08:56.879Z</time>
      </trkpt>
      <trkpt lat="43.18322333" lon="-4.182975">
        <ele>906.0</ele>
        <time>2018-05-19T11:08:57.863Z</time>
      </trkpt>
      <trkpt lat="43.18317333" lon="-4.18298667">
        <ele>906.0</ele>
        <time>2018-05-19T11:08:58.872Z</time>
      </trkpt>
      <trkpt lat="43.18317333" lon="-4.18298667">
        <ele>906.0</ele>
        <time>2018-05-19T11:08:59.864Z</time>
      </trkpt>
      <trkpt lat="43.18312167" lon="-4.18299833">
        <ele>906.0</ele>
        <time>2018-05-19T11:09:00.872Z</time>
      </trkpt>
      <trkpt lat="43.18312167" lon="-4.18299833">
        <ele>906.0</ele>
        <time>2018-05-19T11:09:01.867Z</time>
      </trkpt>
      <trkpt lat="43.18307" lon="-4.18301167">
        <ele>907.0</ele>
        <time>2018-05-19T11:09:02.862Z</time>
      </trkpt>
      <trkpt lat="43.18307" lon="-4.18301167">
        <ele>907.0</ele>
        <time>2018-05-19T11:09:03.850Z</time>
      </trkpt>
      <trkpt lat="43.183015" lon="-4.18302667">
        <ele>907.0</ele>
        <time>2018-05-19T11:09:04.879Z</time>
      </trkpt>
      <trkpt lat="43.183015" lon="-4.18302667">
        <ele>907.0</ele>
        <time>2018-05-19T11:09:05.867Z</time>
      </trkpt>
      <trkpt lat="43.18296167" lon="-4.18303333">
        <ele>907.0</ele>
        <time>2018-05-19T11:09:06.863Z</time>
      </trkpt>
      <trkpt lat="43.18296167" lon="-4.18303333">
        <ele>907.0</ele>
        <time>2018-05-19T11:09:07.865Z</time>
      </trkpt>
      <trkpt lat="43.18290833" lon="-4.18303667">
        <ele>908.0</ele>
        <time>2018-05-19T11:09:08.874Z</time>
      </trkpt>
      <trkpt lat="43.18290833" lon="-4.18303667">
        <ele>908.0</ele>
        <time>2018-05-19T11:09:09.867Z</time>
      </trkpt>
      <trkpt lat="43.18285167" lon="-4.18303667">
        <ele>908.0</ele>
        <time>2018-05-19T11:09:10.864Z</time>
      </trkpt>
      <trkpt lat="43.18285167" lon="-4.18303667">
        <ele>908.0</ele>
        <time>2018-05-19T11:09:11.858Z</time>
      </trkpt>
      <trkpt lat="43.18279833" lon="-4.183035">
        <ele>908.0</ele>
        <time>2018-05-19T11:09:12.844Z</time>
      </trkpt>
      <trkpt lat="43.18279833" lon="-4.183035">
        <ele>908.0</ele>
        <time>2018-05-19T11:09:13.880Z</time>
      </trkpt>
      <trkpt lat="43.182745" lon="-4.18303167">
        <ele>909.0</ele>
        <time>2018-05-19T11:09:14.869Z</time>
      </trkpt>
      <trkpt lat="43.182745" lon="-4.18303167">
        <ele>909.0</ele>
        <time>2018-05-19T11:09:15.852Z</time>
      </trkpt>
      <trkpt lat="43.18269333" lon="-4.18302333">
        <ele>909.0</ele>
        <time>2018-05-19T11:09:16.878Z</time>
      </trkpt>
      <trkpt lat="43.18269333" lon="-4.18302333">
        <ele>909.0</ele>
        <time>2018-05-19T11:09:17.865Z</time>
      </trkpt>
      <trkpt lat="43.18263833" lon="-4.18302">
        <ele>909.0</ele>
        <time>2018-05-19T11:09:18.871Z</time>
      </trkpt>
      <trkpt lat="43.18263833" lon="-4.18302">
        <ele>909.0</ele>
        <time>2018-05-19T11:09:19.858Z</time>
      </trkpt>
      <trkpt lat="43.18258333" lon="-4.18301667">
        <ele>909.0</ele>
        <time>2018-05-19T11:09:20.882Z</time>
      </trkpt>
      <trkpt lat="43.18258333" lon="-4.18301667">
        <ele>909.0</ele>
        <time>2018-05-19T11:09:21.868Z</time>
      </trkpt>
      <trkpt lat="43.18253" lon="-4.18301333">
        <ele>910.0</ele>
        <time>2018-05-19T11:09:22.871Z</time>
      </trkpt>
      <trkpt lat="43.18253" lon="-4.18301333">
        <ele>910.0</ele>
        <time>2018-05-19T11:09:23.872Z</time>
      </trkpt>
      <trkpt lat="43.18247833" lon="-4.18301333">
        <ele>910.0</ele>
        <time>2018-05-19T11:09:24.871Z</time>
      </trkpt>
      <trkpt lat="43.18247833" lon="-4.18301333">
        <ele>910.0</ele>
        <time>2018-05-19T11:09:25.862Z</time>
      </trkpt>
      <trkpt lat="43.18242667" lon="-4.18302">
        <ele>910.0</ele>
        <time>2018-05-19T11:09:26.870Z</time>
      </trkpt>
      <trkpt lat="43.18242667" lon="-4.18302">
        <ele>910.0</ele>
        <time>2018-05-19T11:09:27.860Z</time>
      </trkpt>
      <trkpt lat="43.18237667" lon="-4.18303333">
        <ele>911.0</ele>
        <time>2018-05-19T11:09:28.846Z</time>
      </trkpt>
      <trkpt lat="43.18237667" lon="-4.18303333">
        <ele>911.0</ele>
        <time>2018-05-19T11:09:29.870Z</time>
      </trkpt>
      <trkpt lat="43.182325" lon="-4.183045">
        <ele>911.0</ele>
        <time>2018-05-19T11:09:30.858Z</time>
      </trkpt>
      <trkpt lat="43.182325" lon="-4.183045">
        <ele>911.0</ele>
        <time>2018-05-19T11:09:31.844Z</time>
      </trkpt>
      <trkpt lat="43.18227167" lon="-4.183055">
        <ele>912.0</ele>
        <time>2018-05-19T11:09:32.871Z</time>
      </trkpt>
      <trkpt lat="43.18227167" lon="-4.183055">
        <ele>912.0</ele>
        <time>2018-05-19T11:09:33.866Z</time>
      </trkpt>
      <trkpt lat="43.18221667" lon="-4.183075">
        <ele>912.0</ele>
        <time>2018-05-19T11:09:34.870Z</time>
      </trkpt>
      <trkpt lat="43.18221667" lon="-4.183075">
        <ele>912.0</ele>
        <time>2018-05-19T11:09:35.856Z</time>
      </trkpt>
      <trkpt lat="43.18216" lon="-4.18309333">
        <ele>912.0</ele>
        <time>2018-05-19T11:09:36.882Z</time>
      </trkpt>
      <trkpt lat="43.18216" lon="-4.18309333">
        <ele>912.0</ele>
        <time>2018-05-19T11:09:37.868Z</time>
      </trkpt>
      <trkpt lat="43.18210167" lon="-4.18311833">
        <ele>912.0</ele>
        <time>2018-05-19T11:09:38.868Z</time>
      </trkpt>
      <trkpt lat="43.18210167" lon="-4.18311833">
        <ele>912.0</ele>
        <time>2018-05-19T11:09:39.860Z</time>
      </trkpt>
      <trkpt lat="43.18204" lon="-4.183145">
        <ele>913.0</ele>
        <time>2018-05-19T11:09:40.872Z</time>
      </trkpt>
      <trkpt lat="43.18204" lon="-4.183145">
        <ele>913.0</ele>
        <time>2018-05-19T11:09:41.863Z</time>
      </trkpt>
      <trkpt lat="43.18197667" lon="-4.18317667">
        <ele>913.0</ele>
        <time>2018-05-19T11:09:42.857Z</time>
      </trkpt>
      <trkpt lat="43.18194833" lon="-4.183195">
        <ele>913.0</ele>
        <time>2018-05-19T11:09:43.846Z</time>
      </trkpt>
      <trkpt lat="43.18194833" lon="-4.183195">
        <ele>913.0</ele>
        <time>2018-05-19T11:09:44.870Z</time>
      </trkpt>
      <trkpt lat="43.18189" lon="-4.18322333">
        <ele>913.0</ele>
        <time>2018-05-19T11:09:45.845Z</time>
      </trkpt>
      <trkpt lat="43.18185833" lon="-4.183235">
        <ele>913.0</ele>
        <time>2018-05-19T11:09:46.847Z</time>
      </trkpt>
      <trkpt lat="43.18185833" lon="-4.183235">
        <ele>913.0</ele>
        <time>2018-05-19T11:09:47.858Z</time>
      </trkpt>
      <trkpt lat="43.18179333" lon="-4.18326">
        <ele>913.0</ele>
        <time>2018-05-19T11:09:48.865Z</time>
      </trkpt>
      <trkpt lat="43.18176333" lon="-4.18327667">
        <ele>914.0</ele>
        <time>2018-05-19T11:09:49.870Z</time>
      </trkpt>
      <trkpt lat="43.18176333" lon="-4.18327667">
        <ele>914.0</ele>
        <time>2018-05-19T11:09:50.864Z</time>
      </trkpt>
      <trkpt lat="43.1817" lon="-4.183315">
        <ele>914.0</ele>
        <time>2018-05-19T11:09:51.866Z</time>
      </trkpt>
      <trkpt lat="43.18166667" lon="-4.18333333">
        <ele>914.0</ele>
        <time>2018-05-19T11:09:52.872Z</time>
      </trkpt>
      <trkpt lat="43.18166667" lon="-4.18333333">
        <ele>914.0</ele>
        <time>2018-05-19T11:09:53.844Z</time>
      </trkpt>
      <trkpt lat="43.18160333" lon="-4.18336833">
        <ele>914.0</ele>
        <time>2018-05-19T11:09:54.871Z</time>
      </trkpt>
      <trkpt lat="43.18160333" lon="-4.18336833">
        <ele>914.0</ele>
        <time>2018-05-19T11:09:55.863Z</time>
      </trkpt>
      <trkpt lat="43.18153667" lon="-4.18341">
        <ele>914.0</ele>
        <time>2018-05-19T11:09:56.862Z</time>
      </trkpt>
      <trkpt lat="43.18150167" lon="-4.18343333">
        <ele>914.0</ele>
        <time>2018-05-19T11:09:57.867Z</time>
      </trkpt>
      <trkpt lat="43.181465" lon="-4.183455">
        <ele>914.0</ele>
        <time>2018-05-19T11:09:58.868Z</time>
      </trkpt>
      <trkpt lat="43.181465" lon="-4.183455">
        <ele>914.0</ele>
        <time>2018-05-19T11:09:59.865Z</time>
      </trkpt>
      <trkpt lat="43.18139" lon="-4.1835">
        <ele>914.0</ele>
        <time>2018-05-19T11:10:00.864Z</time>
      </trkpt>
      <trkpt lat="43.18139" lon="-4.1835">
        <ele>914.0</ele>
        <time>2018-05-19T11:10:01.865Z</time>
      </trkpt>
      <trkpt lat="43.18131333" lon="-4.183545">
        <ele>914.0</ele>
        <time>2018-05-19T11:10:02.870Z</time>
      </trkpt>
      <trkpt lat="43.18131333" lon="-4.183545">
        <ele>914.0</ele>
        <time>2018-05-19T11:10:03.876Z</time>
      </trkpt>
      <trkpt lat="43.18123333" lon="-4.183595">
        <ele>914.0</ele>
        <time>2018-05-19T11:10:04.865Z</time>
      </trkpt>
      <trkpt lat="43.18123333" lon="-4.183595">
        <ele>914.0</ele>
        <time>2018-05-19T11:10:05.882Z</time>
      </trkpt>
      <trkpt lat="43.18115" lon="-4.18364667">
        <ele>914.0</ele>
        <time>2018-05-19T11:10:06.872Z</time>
      </trkpt>
      <trkpt lat="43.18115" lon="-4.18364667">
        <ele>914.0</ele>
        <time>2018-05-19T11:10:07.867Z</time>
      </trkpt>
      <trkpt lat="43.18107167" lon="-4.18371167">
        <ele>914.0</ele>
        <time>2018-05-19T11:10:08.867Z</time>
      </trkpt>
      <trkpt lat="43.18107167" lon="-4.18371167">
        <ele>914.0</ele>
        <time>2018-05-19T11:10:09.859Z</time>
      </trkpt>
      <trkpt lat="43.18098833" lon="-4.18377833">
        <ele>914.0</ele>
        <time>2018-05-19T11:10:10.845Z</time>
      </trkpt>
      <trkpt lat="43.18098833" lon="-4.18377833">
        <ele>914.0</ele>
        <time>2018-05-19T11:10:11.869Z</time>
      </trkpt>
      <trkpt lat="43.180895" lon="-4.18384">
        <ele>914.0</ele>
        <time>2018-05-19T11:10:12.857Z</time>
      </trkpt>
      <trkpt lat="43.180845" lon="-4.18387167">
        <ele>914.0</ele>
        <time>2018-05-19T11:10:13.852Z</time>
      </trkpt>
      <trkpt lat="43.180795" lon="-4.18390333">
        <ele>914.0</ele>
        <time>2018-05-19T11:10:14.878Z</time>
      </trkpt>
      <trkpt lat="43.180795" lon="-4.18390333">
        <ele>914.0</ele>
        <time>2018-05-19T11:10:15.865Z</time>
      </trkpt>
      <trkpt lat="43.18069167" lon="-4.18396">
        <ele>914.0</ele>
        <time>2018-05-19T11:10:16.879Z</time>
      </trkpt>
      <trkpt lat="43.18069167" lon="-4.18396">
        <ele>914.0</ele>
        <time>2018-05-19T11:10:17.872Z</time>
      </trkpt>
      <trkpt lat="43.18058833" lon="-4.18400833">
        <ele>914.0</ele>
        <time>2018-05-19T11:10:18.871Z</time>
      </trkpt>
      <trkpt lat="43.18058833" lon="-4.18400833">
        <ele>914.0</ele>
        <time>2018-05-19T11:10:19.863Z</time>
      </trkpt>
      <trkpt lat="43.18048" lon="-4.18405167">
        <ele>914.0</ele>
        <time>2018-05-19T11:10:20.871Z</time>
      </trkpt>
      <trkpt lat="43.18048" lon="-4.18405167">
        <ele>914.0</ele>
        <time>2018-05-19T11:10:21.869Z</time>
      </trkpt>
      <trkpt lat="43.18036833" lon="-4.184095">
        <ele>914.0</ele>
        <time>2018-05-19T11:10:22.872Z</time>
      </trkpt>
      <trkpt lat="43.180315" lon="-4.18411833">
        <ele>913.0</ele>
        <time>2018-05-19T11:10:23.863Z</time>
      </trkpt>
      <trkpt lat="43.180315" lon="-4.18411833">
        <ele>913.0</ele>
        <time>2018-05-19T11:10:24.845Z</time>
      </trkpt>
      <trkpt lat="43.18020167" lon="-4.18416">
        <ele>913.0</ele>
        <time>2018-05-19T11:10:25.872Z</time>
      </trkpt>
      <trkpt lat="43.18020167" lon="-4.18416">
        <ele>913.0</ele>
        <time>2018-05-19T11:10:26.867Z</time>
      </trkpt>
      <trkpt lat="43.180075" lon="-4.184165">
        <ele>912.0</ele>
        <time>2018-05-19T11:10:27.862Z</time>
      </trkpt>
      <trkpt lat="43.18000667" lon="-4.18415">
        <ele>912.0</ele>
        <time>2018-05-19T11:10:28.847Z</time>
      </trkpt>
      <trkpt lat="43.18000667" lon="-4.18415">
        <ele>912.0</ele>
        <time>2018-05-19T11:10:29.866Z</time>
      </trkpt>
      <trkpt lat="43.17986333" lon="-4.18408">
        <ele>910.0</ele>
        <time>2018-05-19T11:10:30.860Z</time>
      </trkpt>
      <trkpt lat="43.17979667" lon="-4.18402167">
        <ele>910.0</ele>
        <time>2018-05-19T11:10:31.845Z</time>
      </trkpt>
      <trkpt lat="43.17973667" lon="-4.18395">
        <ele>909.0</ele>
        <time>2018-05-19T11:10:32.871Z</time>
      </trkpt>
      <trkpt lat="43.17973667" lon="-4.18395">
        <ele>909.0</ele>
        <time>2018-05-19T11:10:33.876Z</time>
      </trkpt>
      <trkpt lat="43.179645" lon="-4.18376167">
        <ele>909.0</ele>
        <time>2018-05-19T11:10:34.871Z</time>
      </trkpt>
      <trkpt lat="43.179645" lon="-4.18376167">
        <ele>909.0</ele>
        <time>2018-05-19T11:10:35.854Z</time>
      </trkpt>
      <trkpt lat="43.179595" lon="-4.18353667">
        <ele>908.0</ele>
        <time>2018-05-19T11:10:36.879Z</time>
      </trkpt>
      <trkpt lat="43.179595" lon="-4.18353667">
        <ele>908.0</ele>
        <time>2018-05-19T11:10:37.865Z</time>
      </trkpt>
      <trkpt lat="43.17958667" lon="-4.183295">
        <ele>906.0</ele>
        <time>2018-05-19T11:10:38.869Z</time>
      </trkpt>
      <trkpt lat="43.17958667" lon="-4.183295">
        <ele>906.0</ele>
        <time>2018-05-19T11:10:39.863Z</time>
      </trkpt>
      <trkpt lat="43.17959667" lon="-4.18304167">
        <ele>905.0</ele>
        <time>2018-05-19T11:10:40.871Z</time>
      </trkpt>
      <trkpt lat="43.17959667" lon="-4.18304167">
        <ele>905.0</ele>
        <time>2018-05-19T11:10:41.863Z</time>
      </trkpt>
      <trkpt lat="43.179615" lon="-4.1828">
        <ele>904.0</ele>
        <time>2018-05-19T11:10:42.857Z</time>
      </trkpt>
      <trkpt lat="43.179615" lon="-4.1828">
        <ele>904.0</ele>
        <time>2018-05-19T11:10:43.845Z</time>
      </trkpt>
      <trkpt lat="43.17965333" lon="-4.18258333">
        <ele>903.0</ele>
        <time>2018-05-19T11:10:44.870Z</time>
      </trkpt>
      <trkpt lat="43.17965333" lon="-4.18258333">
        <ele>903.0</ele>
        <time>2018-05-19T11:10:45.863Z</time>
      </trkpt>
      <trkpt lat="43.17970833" lon="-4.18238333">
        <ele>901.0</ele>
        <time>2018-05-19T11:10:46.880Z</time>
      </trkpt>
      <trkpt lat="43.17970833" lon="-4.18238333">
        <ele>901.0</ele>
        <time>2018-05-19T11:10:47.846Z</time>
      </trkpt>
      <trkpt lat="43.17969833" lon="-4.18218667">
        <ele>900.0</ele>
        <time>2018-05-19T11:10:48.860Z</time>
      </trkpt>
      <trkpt lat="43.17969833" lon="-4.18218667">
        <ele>900.0</ele>
        <time>2018-05-19T11:10:49.849Z</time>
      </trkpt>
      <trkpt lat="43.17958167" lon="-4.182065">
        <ele>898.0</ele>
        <time>2018-05-19T11:10:50.875Z</time>
      </trkpt>
      <trkpt lat="43.17950167" lon="-4.18204833">
        <ele>897.0</ele>
        <time>2018-05-19T11:10:51.871Z</time>
      </trkpt>
      <trkpt lat="43.17941833" lon="-4.18203833">
        <ele>897.0</ele>
        <time>2018-05-19T11:10:52.872Z</time>
      </trkpt>
      <trkpt lat="43.17941833" lon="-4.18203833">
        <ele>897.0</ele>
        <time>2018-05-19T11:10:53.860Z</time>
      </trkpt>
      <trkpt lat="43.17925167" lon="-4.18197667">
        <ele>896.0</ele>
        <time>2018-05-19T11:10:54.846Z</time>
      </trkpt>
      <trkpt lat="43.17918" lon="-4.18191">
        <ele>895.0</ele>
        <time>2018-05-19T11:10:55.873Z</time>
      </trkpt>
      <trkpt lat="43.17918" lon="-4.18191">
        <ele>895.0</ele>
        <time>2018-05-19T11:10:56.867Z</time>
      </trkpt>
      <trkpt lat="43.17908333" lon="-4.181735">
        <ele>894.0</ele>
        <time>2018-05-19T11:10:57.869Z</time>
      </trkpt>
      <trkpt lat="43.17904833" lon="-4.18164167">
        <ele>894.0</ele>
        <time>2018-05-19T11:10:58.872Z</time>
      </trkpt>
      <trkpt lat="43.17904833" lon="-4.18164167">
        <ele>894.0</ele>
        <time>2018-05-19T11:10:59.872Z</time>
      </trkpt>
      <trkpt lat="43.17898833" lon="-4.181455">
        <ele>896.0</ele>
        <time>2018-05-19T11:11:00.862Z</time>
      </trkpt>
      <trkpt lat="43.17896167" lon="-4.18137">
        <ele>896.0</ele>
        <time>2018-05-19T11:11:01.846Z</time>
      </trkpt>
      <trkpt lat="43.17896167" lon="-4.18137">
        <ele>896.0</ele>
        <time>2018-05-19T11:11:02.872Z</time>
      </trkpt>
      <trkpt lat="43.17890667" lon="-4.18121333">
        <ele>897.0</ele>
        <time>2018-05-19T11:11:03.853Z</time>
      </trkpt>
      <trkpt lat="43.17888" lon="-4.18114167">
        <ele>897.0</ele>
        <time>2018-05-19T11:11:04.879Z</time>
      </trkpt>
      <trkpt lat="43.17888" lon="-4.18114167">
        <ele>897.0</ele>
        <time>2018-05-19T11:11:05.865Z</time>
      </trkpt>
      <trkpt lat="43.17882667" lon="-4.18101333">
        <ele>898.0</ele>
        <time>2018-05-19T11:11:06.878Z</time>
      </trkpt>
      <trkpt lat="43.17882667" lon="-4.18101333">
        <ele>898.0</ele>
        <time>2018-05-19T11:11:07.866Z</time>
      </trkpt>
      <trkpt lat="43.17878167" lon="-4.18089333">
        <ele>898.0</ele>
        <time>2018-05-19T11:11:08.871Z</time>
      </trkpt>
      <trkpt lat="43.17876333" lon="-4.18084">
        <ele>898.0</ele>
        <time>2018-05-19T11:11:09.870Z</time>
      </trkpt>
      <trkpt lat="43.17876333" lon="-4.18084">
        <ele>898.0</ele>
        <time>2018-05-19T11:11:10.868Z</time>
      </trkpt>
      <trkpt lat="43.17872833" lon="-4.18074">
        <ele>899.0</ele>
        <time>2018-05-19T11:11:11.869Z</time>
      </trkpt>
      <trkpt lat="43.17871167" lon="-4.180695">
        <ele>899.0</ele>
        <time>2018-05-19T11:11:12.870Z</time>
      </trkpt>
      <trkpt lat="43.178695" lon="-4.18065333">
        <ele>900.0</ele>
        <time>2018-05-19T11:11:13.883Z</time>
      </trkpt>
      <trkpt lat="43.178695" lon="-4.18065333">
        <ele>900.0</ele>
        <time>2018-05-19T11:11:14.867Z</time>
      </trkpt>
      <trkpt lat="43.17866333" lon="-4.180575">
        <ele>900.0</ele>
        <time>2018-05-19T11:11:15.869Z</time>
      </trkpt>
      <trkpt lat="43.17864667" lon="-4.18053833">
        <ele>900.0</ele>
        <time>2018-05-19T11:11:16.870Z</time>
      </trkpt>
      <trkpt lat="43.17864667" lon="-4.18053833">
        <ele>900.0</ele>
        <time>2018-05-19T11:11:17.864Z</time>
      </trkpt>
      <trkpt lat="43.178615" lon="-4.18046667">
        <ele>901.0</ele>
        <time>2018-05-19T11:11:18.877Z</time>
      </trkpt>
      <trkpt lat="43.178615" lon="-4.18046667">
        <ele>901.0</ele>
        <time>2018-05-19T11:11:19.876Z</time>
      </trkpt>
      <trkpt lat="43.17858667" lon="-4.18039667">
        <ele>901.0</ele>
        <time>2018-05-19T11:11:20.870Z</time>
      </trkpt>
      <trkpt lat="43.17858667" lon="-4.18039667">
        <ele>901.0</ele>
        <time>2018-05-19T11:11:21.866Z</time>
      </trkpt>
      <trkpt lat="43.17855833" lon="-4.18032833">
        <ele>902.0</ele>
        <time>2018-05-19T11:11:22.871Z</time>
      </trkpt>
      <trkpt lat="43.17855833" lon="-4.18032833">
        <ele>902.0</ele>
        <time>2018-05-19T11:11:23.872Z</time>
      </trkpt>
      <trkpt lat="43.17853333" lon="-4.18026667">
        <ele>902.0</ele>
        <time>2018-05-19T11:11:24.870Z</time>
      </trkpt>
      <trkpt lat="43.17853333" lon="-4.18026667">
        <ele>902.0</ele>
        <time>2018-05-19T11:11:25.868Z</time>
      </trkpt>
      <trkpt lat="43.17850833" lon="-4.18021333">
        <ele>903.0</ele>
        <time>2018-05-19T11:11:26.870Z</time>
      </trkpt>
      <trkpt lat="43.17849667" lon="-4.180185">
        <ele>903.0</ele>
        <time>2018-05-19T11:11:27.869Z</time>
      </trkpt>
      <trkpt lat="43.17849667" lon="-4.180185">
        <ele>903.0</ele>
        <time>2018-05-19T11:11:28.868Z</time>
      </trkpt>
      <trkpt lat="43.17847167" lon="-4.18012833">
        <ele>903.0</ele>
        <time>2018-05-19T11:11:29.876Z</time>
      </trkpt>
      <trkpt lat="43.17845833" lon="-4.18010167">
        <ele>903.0</ele>
        <time>2018-05-19T11:11:30.871Z</time>
      </trkpt>
      <trkpt lat="43.17845833" lon="-4.18010167">
        <ele>903.0</ele>
        <time>2018-05-19T11:11:31.867Z</time>
      </trkpt>
      <trkpt lat="43.17843" lon="-4.18005">
        <ele>904.0</ele>
        <time>2018-05-19T11:11:32.869Z</time>
      </trkpt>
      <trkpt lat="43.17843" lon="-4.18005">
        <ele>904.0</ele>
        <time>2018-05-19T11:11:33.879Z</time>
      </trkpt>
      <trkpt lat="43.17839667" lon="-4.18">
        <ele>904.0</ele>
        <time>2018-05-19T11:11:34.868Z</time>
      </trkpt>
      <trkpt lat="43.17839667" lon="-4.18">
        <ele>904.0</ele>
        <time>2018-05-19T11:11:35.865Z</time>
      </trkpt>
      <trkpt lat="43.17836167" lon="-4.179955">
        <ele>905.0</ele>
        <time>2018-05-19T11:11:36.870Z</time>
      </trkpt>
      <trkpt lat="43.17836167" lon="-4.179955">
        <ele>905.0</ele>
        <time>2018-05-19T11:11:37.866Z</time>
      </trkpt>
      <trkpt lat="43.17831833" lon="-4.17992">
        <ele>905.0</ele>
        <time>2018-05-19T11:11:38.870Z</time>
      </trkpt>
      <trkpt lat="43.17829667" lon="-4.17990167">
        <ele>905.0</ele>
        <time>2018-05-19T11:11:39.884Z</time>
      </trkpt>
      <trkpt lat="43.17829667" lon="-4.17990167">
        <ele>905.0</ele>
        <time>2018-05-19T11:11:40.876Z</time>
      </trkpt>
      <trkpt lat="43.17825" lon="-4.17987833">
        <ele>906.0</ele>
        <time>2018-05-19T11:11:41.871Z</time>
      </trkpt>
      <trkpt lat="43.178225" lon="-4.17987333">
        <ele>906.0</ele>
        <time>2018-05-19T11:11:42.869Z</time>
      </trkpt>
      <trkpt lat="43.178225" lon="-4.17987333">
        <ele>906.0</ele>
        <time>2018-05-19T11:11:43.870Z</time>
      </trkpt>
      <trkpt lat="43.17817667" lon="-4.17987167">
        <ele>906.0</ele>
        <time>2018-05-19T11:11:44.871Z</time>
      </trkpt>
      <trkpt lat="43.17817667" lon="-4.17987167">
        <ele>906.0</ele>
        <time>2018-05-19T11:11:45.865Z</time>
      </trkpt>
      <trkpt lat="43.17812833" lon="-4.17987833">
        <ele>907.0</ele>
        <time>2018-05-19T11:11:46.850Z</time>
      </trkpt>
      <trkpt lat="43.17812833" lon="-4.17987833">
        <ele>907.0</ele>
        <time>2018-05-19T11:11:47.857Z</time>
      </trkpt>
      <trkpt lat="43.17808333" lon="-4.17989833">
        <ele>907.0</ele>
        <time>2018-05-19T11:11:48.863Z</time>
      </trkpt>
      <trkpt lat="43.17806" lon="-4.17991167">
        <ele>907.0</ele>
        <time>2018-05-19T11:11:49.870Z</time>
      </trkpt>
      <trkpt lat="43.17806" lon="-4.17991167">
        <ele>907.0</ele>
        <time>2018-05-19T11:11:50.863Z</time>
      </trkpt>
      <trkpt lat="43.17801833" lon="-4.17993833">
        <ele>908.0</ele>
        <time>2018-05-19T11:11:51.868Z</time>
      </trkpt>
      <trkpt lat="43.17799833" lon="-4.17995167">
        <ele>908.0</ele>
        <time>2018-05-19T11:11:52.867Z</time>
      </trkpt>
      <trkpt lat="43.17799833" lon="-4.17995167">
        <ele>908.0</ele>
        <time>2018-05-19T11:11:53.876Z</time>
      </trkpt>
      <trkpt lat="43.17796" lon="-4.17997667">
        <ele>908.0</ele>
        <time>2018-05-19T11:11:54.863Z</time>
      </trkpt>
      <trkpt lat="43.17794167" lon="-4.179995">
        <ele>908.0</ele>
        <time>2018-05-19T11:11:55.874Z</time>
      </trkpt>
      <trkpt lat="43.17794167" lon="-4.179995">
        <ele>908.0</ele>
        <time>2018-05-19T11:11:56.865Z</time>
      </trkpt>
      <trkpt lat="43.1779" lon="-4.18002333">
        <ele>909.0</ele>
        <time>2018-05-19T11:11:57.869Z</time>
      </trkpt>
      <trkpt lat="43.1779" lon="-4.18002333">
        <ele>909.0</ele>
        <time>2018-05-19T11:11:58.867Z</time>
      </trkpt>
      <trkpt lat="43.17785333" lon="-4.18003333">
        <ele>909.0</ele>
        <time>2018-05-19T11:11:59.862Z</time>
      </trkpt>
      <trkpt lat="43.17783167" lon="-4.18003333">
        <ele>910.0</ele>
        <time>2018-05-19T11:12:00.869Z</time>
      </trkpt>
      <trkpt lat="43.17783167" lon="-4.18003333">
        <ele>910.0</ele>
        <time>2018-05-19T11:12:01.864Z</time>
      </trkpt>
      <trkpt lat="43.17778333" lon="-4.18002833">
        <ele>910.0</ele>
        <time>2018-05-19T11:12:02.869Z</time>
      </trkpt>
      <trkpt lat="43.17776" lon="-4.18002167">
        <ele>910.0</ele>
        <time>2018-05-19T11:12:03.845Z</time>
      </trkpt>
      <trkpt lat="43.17776" lon="-4.18002167">
        <ele>910.0</ele>
        <time>2018-05-19T11:12:04.870Z</time>
      </trkpt>
      <trkpt lat="43.17772" lon="-4.17999333">
        <ele>910.0</ele>
        <time>2018-05-19T11:12:05.871Z</time>
      </trkpt>
      <trkpt lat="43.17769833" lon="-4.17997667">
        <ele>910.0</ele>
        <time>2018-05-19T11:12:06.862Z</time>
      </trkpt>
      <trkpt lat="43.17769833" lon="-4.17997667">
        <ele>910.0</ele>
        <time>2018-05-19T11:12:07.858Z</time>
      </trkpt>
      <trkpt lat="43.17766167" lon="-4.17994">
        <ele>911.0</ele>
        <time>2018-05-19T11:12:08.881Z</time>
      </trkpt>
      <trkpt lat="43.17766167" lon="-4.17994">
        <ele>911.0</ele>
        <time>2018-05-19T11:12:09.876Z</time>
      </trkpt>
      <trkpt lat="43.17762833" lon="-4.17990167">
        <ele>911.0</ele>
        <time>2018-05-19T11:12:10.867Z</time>
      </trkpt>
      <trkpt lat="43.17762833" lon="-4.17990167">
        <ele>911.0</ele>
        <time>2018-05-19T11:12:11.857Z</time>
      </trkpt>
      <trkpt lat="43.17759167" lon="-4.17986833">
        <ele>912.0</ele>
        <time>2018-05-19T11:12:12.881Z</time>
      </trkpt>
      <trkpt lat="43.17757333" lon="-4.17985333">
        <ele>912.0</ele>
        <time>2018-05-19T11:12:13.859Z</time>
      </trkpt>
      <trkpt lat="43.17757333" lon="-4.17985333">
        <ele>912.0</ele>
        <time>2018-05-19T11:12:14.882Z</time>
      </trkpt>
      <trkpt lat="43.177535" lon="-4.17982833">
        <ele>912.0</ele>
        <time>2018-05-19T11:12:15.870Z</time>
      </trkpt>
      <trkpt lat="43.17751833" lon="-4.17981667">
        <ele>912.0</ele>
        <time>2018-05-19T11:12:16.867Z</time>
      </trkpt>
      <trkpt lat="43.17751833" lon="-4.17981667">
        <ele>912.0</ele>
        <time>2018-05-19T11:12:17.864Z</time>
      </trkpt>
      <trkpt lat="43.17747833" lon="-4.17979833">
        <ele>913.0</ele>
        <time>2018-05-19T11:12:18.862Z</time>
      </trkpt>
      <trkpt lat="43.17746" lon="-4.17979167">
        <ele>913.0</ele>
        <time>2018-05-19T11:12:19.853Z</time>
      </trkpt>
      <trkpt lat="43.17746" lon="-4.17979167">
        <ele>913.0</ele>
        <time>2018-05-19T11:12:20.845Z</time>
      </trkpt>
      <trkpt lat="43.17742167" lon="-4.17978167">
        <ele>913.0</ele>
        <time>2018-05-19T11:12:21.869Z</time>
      </trkpt>
      <trkpt lat="43.17740167" lon="-4.17977833">
        <ele>914.0</ele>
        <time>2018-05-19T11:12:22.870Z</time>
      </trkpt>
      <trkpt lat="43.17738167" lon="-4.17977667">
        <ele>914.0</ele>
        <time>2018-05-19T11:12:23.848Z</time>
      </trkpt>
      <trkpt lat="43.17738167" lon="-4.17977667">
        <ele>914.0</ele>
        <time>2018-05-19T11:12:24.882Z</time>
      </trkpt>
      <trkpt lat="43.17734" lon="-4.17978667">
        <ele>914.0</ele>
        <time>2018-05-19T11:12:25.869Z</time>
      </trkpt>
      <trkpt lat="43.17734" lon="-4.17978667">
        <ele>914.0</ele>
        <time>2018-05-19T11:12:26.864Z</time>
      </trkpt>
      <trkpt lat="43.17729833" lon="-4.17979833">
        <ele>915.0</ele>
        <time>2018-05-19T11:12:27.869Z</time>
      </trkpt>
      <trkpt lat="43.17728" lon="-4.179805">
        <ele>915.0</ele>
        <time>2018-05-19T11:12:28.871Z</time>
      </trkpt>
      <trkpt lat="43.17728" lon="-4.179805">
        <ele>915.0</ele>
        <time>2018-05-19T11:12:29.865Z</time>
      </trkpt>
      <trkpt lat="43.17724" lon="-4.17981">
        <ele>915.0</ele>
        <time>2018-05-19T11:12:30.870Z</time>
      </trkpt>
      <trkpt lat="43.17724" lon="-4.17981">
        <ele>915.0</ele>
        <time>2018-05-19T11:12:31.865Z</time>
      </trkpt>
      <trkpt lat="43.1772" lon="-4.17981333">
        <ele>916.0</ele>
        <time>2018-05-19T11:12:32.866Z</time>
      </trkpt>
      <trkpt lat="43.17718" lon="-4.17981333">
        <ele>916.0</ele>
        <time>2018-05-19T11:12:33.849Z</time>
      </trkpt>
      <trkpt lat="43.17718" lon="-4.17981333">
        <ele>916.0</ele>
        <time>2018-05-19T11:12:34.873Z</time>
      </trkpt>
      <trkpt lat="43.17714" lon="-4.17981167">
        <ele>917.0</ele>
        <time>2018-05-19T11:12:35.870Z</time>
      </trkpt>
      <trkpt lat="43.17712" lon="-4.17981167">
        <ele>917.0</ele>
        <time>2018-05-19T11:12:36.863Z</time>
      </trkpt>
      <trkpt lat="43.17712" lon="-4.17981167">
        <ele>917.0</ele>
        <time>2018-05-19T11:12:37.859Z</time>
      </trkpt>
      <trkpt lat="43.17708167" lon="-4.17980833">
        <ele>917.0</ele>
        <time>2018-05-19T11:12:38.844Z</time>
      </trkpt>
      <trkpt lat="43.17708167" lon="-4.17980833">
        <ele>917.0</ele>
        <time>2018-05-19T11:12:39.868Z</time>
      </trkpt>
      <trkpt lat="43.17704667" lon="-4.17980167">
        <ele>917.0</ele>
        <time>2018-05-19T11:12:40.848Z</time>
      </trkpt>
      <trkpt lat="43.17704667" lon="-4.17980167">
        <ele>917.0</ele>
        <time>2018-05-19T11:12:41.879Z</time>
      </trkpt>
      <trkpt lat="43.17701167" lon="-4.17978833">
        <ele>918.0</ele>
        <time>2018-05-19T11:12:42.870Z</time>
      </trkpt>
      <trkpt lat="43.17701167" lon="-4.17978833">
        <ele>918.0</ele>
        <time>2018-05-19T11:12:43.866Z</time>
      </trkpt>
      <trkpt lat="43.17698" lon="-4.17977">
        <ele>918.0</ele>
        <time>2018-05-19T11:12:44.868Z</time>
      </trkpt>
      <trkpt lat="43.17698" lon="-4.17977">
        <ele>918.0</ele>
        <time>2018-05-19T11:12:45.867Z</time>
      </trkpt>
      <trkpt lat="43.176945" lon="-4.17975667">
        <ele>918.0</ele>
        <time>2018-05-19T11:12:46.851Z</time>
      </trkpt>
      <trkpt lat="43.176945" lon="-4.17975667">
        <ele>918.0</ele>
        <time>2018-05-19T11:12:47.858Z</time>
      </trkpt>
      <trkpt lat="43.17691" lon="-4.17974">
        <ele>919.0</ele>
        <time>2018-05-19T11:12:48.866Z</time>
      </trkpt>
      <trkpt lat="43.17691" lon="-4.17974">
        <ele>919.0</ele>
        <time>2018-05-19T11:12:49.872Z</time>
      </trkpt>
      <trkpt lat="43.17687667" lon="-4.17971333">
        <ele>919.0</ele>
        <time>2018-05-19T11:12:50.875Z</time>
      </trkpt>
      <trkpt lat="43.17686" lon="-4.17970333">
        <ele>919.0</ele>
        <time>2018-05-19T11:12:51.869Z</time>
      </trkpt>
      <trkpt lat="43.176845" lon="-4.17969167">
        <ele>919.0</ele>
        <time>2018-05-19T11:12:52.863Z</time>
      </trkpt>
      <trkpt lat="43.176845" lon="-4.17969167">
        <ele>919.0</ele>
        <time>2018-05-19T11:12:53.874Z</time>
      </trkpt>
      <trkpt lat="43.176815" lon="-4.179665">
        <ele>920.0</ele>
        <time>2018-05-19T11:12:54.871Z</time>
      </trkpt>
      <trkpt lat="43.176815" lon="-4.179665">
        <ele>920.0</ele>
        <time>2018-05-19T11:12:55.863Z</time>
      </trkpt>
      <trkpt lat="43.176785" lon="-4.17963833">
        <ele>920.0</ele>
        <time>2018-05-19T11:12:56.866Z</time>
      </trkpt>
      <trkpt lat="43.176785" lon="-4.17963833">
        <ele>920.0</ele>
        <time>2018-05-19T11:12:57.859Z</time>
      </trkpt>
      <trkpt lat="43.17675667" lon="-4.17960833">
        <ele>920.0</ele>
        <time>2018-05-19T11:12:58.883Z</time>
      </trkpt>
      <trkpt lat="43.17675667" lon="-4.17960833">
        <ele>920.0</ele>
        <time>2018-05-19T11:12:59.868Z</time>
      </trkpt>
      <trkpt lat="43.17673167" lon="-4.17957833">
        <ele>920.0</ele>
        <time>2018-05-19T11:13:00.862Z</time>
      </trkpt>
      <trkpt lat="43.17673167" lon="-4.17957833">
        <ele>920.0</ele>
        <time>2018-05-19T11:13:01.855Z</time>
      </trkpt>
      <trkpt lat="43.17670667" lon="-4.17954">
        <ele>920.0</ele>
        <time>2018-05-19T11:13:02.880Z</time>
      </trkpt>
      <trkpt lat="43.17669333" lon="-4.17952167">
        <ele>921.0</ele>
        <time>2018-05-19T11:13:03.844Z</time>
      </trkpt>
      <trkpt lat="43.17669333" lon="-4.17952167">
        <ele>921.0</ele>
        <time>2018-05-19T11:13:04.869Z</time>
      </trkpt>
      <trkpt lat="43.17666833" lon="-4.17948833">
        <ele>921.0</ele>
        <time>2018-05-19T11:13:05.869Z</time>
      </trkpt>
      <trkpt lat="43.17665667" lon="-4.17946833">
        <ele>921.0</ele>
        <time>2018-05-19T11:13:06.869Z</time>
      </trkpt>
      <trkpt lat="43.17665667" lon="-4.17946833">
        <ele>921.0</ele>
        <time>2018-05-19T11:13:07.863Z</time>
      </trkpt>
      <trkpt lat="43.17663167" lon="-4.17943">
        <ele>921.0</ele>
        <time>2018-05-19T11:13:08.866Z</time>
      </trkpt>
      <trkpt lat="43.17662" lon="-4.17941333">
        <ele>921.0</ele>
        <time>2018-05-19T11:13:09.869Z</time>
      </trkpt>
      <trkpt lat="43.17662" lon="-4.17941333">
        <ele>921.0</ele>
        <time>2018-05-19T11:13:10.862Z</time>
      </trkpt>
      <trkpt lat="43.17659333" lon="-4.17937667">
        <ele>922.0</ele>
        <time>2018-05-19T11:13:11.877Z</time>
      </trkpt>
      <trkpt lat="43.17658167" lon="-4.17935667">
        <ele>922.0</ele>
        <time>2018-05-19T11:13:12.862Z</time>
      </trkpt>
      <trkpt lat="43.17658167" lon="-4.17935667">
        <ele>922.0</ele>
        <time>2018-05-19T11:13:13.866Z</time>
      </trkpt>
      <trkpt lat="43.17656167" lon="-4.179315">
        <ele>922.0</ele>
        <time>2018-05-19T11:13:14.868Z</time>
      </trkpt>
      <trkpt lat="43.17656167" lon="-4.179315">
        <ele>922.0</ele>
        <time>2018-05-19T11:13:15.856Z</time>
      </trkpt>
      <trkpt lat="43.17654167" lon="-4.17927167">
        <ele>922.0</ele>
        <time>2018-05-19T11:13:16.871Z</time>
      </trkpt>
      <trkpt lat="43.17654167" lon="-4.17927167">
        <ele>922.0</ele>
        <time>2018-05-19T11:13:17.865Z</time>
      </trkpt>
      <trkpt lat="43.17652" lon="-4.17923167">
        <ele>923.0</ele>
        <time>2018-05-19T11:13:18.869Z</time>
      </trkpt>
      <trkpt lat="43.17652" lon="-4.17923167">
        <ele>923.0</ele>
        <time>2018-05-19T11:13:19.863Z</time>
      </trkpt>
      <trkpt lat="43.1765" lon="-4.17919">
        <ele>923.0</ele>
        <time>2018-05-19T11:13:20.866Z</time>
      </trkpt>
      <trkpt lat="43.17649" lon="-4.17917167">
        <ele>923.0</ele>
        <time>2018-05-19T11:13:21.877Z</time>
      </trkpt>
      <trkpt lat="43.17649" lon="-4.17917167">
        <ele>923.0</ele>
        <time>2018-05-19T11:13:22.865Z</time>
      </trkpt>
      <trkpt lat="43.17646833" lon="-4.17913167">
        <ele>923.0</ele>
        <time>2018-05-19T11:13:23.880Z</time>
      </trkpt>
      <trkpt lat="43.17645833" lon="-4.17911167">
        <ele>923.0</ele>
        <time>2018-05-19T11:13:24.863Z</time>
      </trkpt>
      <trkpt lat="43.17645833" lon="-4.17911167">
        <ele>923.0</ele>
        <time>2018-05-19T11:13:25.859Z</time>
      </trkpt>
      <trkpt lat="43.17644" lon="-4.17907167">
        <ele>924.0</ele>
        <time>2018-05-19T11:13:26.844Z</time>
      </trkpt>
      <trkpt lat="43.17644" lon="-4.17907167">
        <ele>924.0</ele>
        <time>2018-05-19T11:13:27.868Z</time>
      </trkpt>
      <trkpt lat="43.17642333" lon="-4.17902833">
        <ele>924.0</ele>
        <time>2018-05-19T11:13:28.870Z</time>
      </trkpt>
      <trkpt lat="43.17641333" lon="-4.17900667">
        <ele>924.0</ele>
        <time>2018-05-19T11:13:29.867Z</time>
      </trkpt>
      <trkpt lat="43.17641333" lon="-4.17900667">
        <ele>924.0</ele>
        <time>2018-05-19T11:13:30.867Z</time>
      </trkpt>
      <trkpt lat="43.17639667" lon="-4.17896333">
        <ele>924.0</ele>
        <time>2018-05-19T11:13:31.869Z</time>
      </trkpt>
      <trkpt lat="43.17639667" lon="-4.17896333">
        <ele>924.0</ele>
        <time>2018-05-19T11:13:32.864Z</time>
      </trkpt>
      <trkpt lat="43.17637667" lon="-4.17892167">
        <ele>924.0</ele>
        <time>2018-05-19T11:13:33.880Z</time>
      </trkpt>
      <trkpt lat="43.17636833" lon="-4.17889833">
        <ele>924.0</ele>
        <time>2018-05-19T11:13:34.870Z</time>
      </trkpt>
      <trkpt lat="43.17636833" lon="-4.17889833">
        <ele>924.0</ele>
        <time>2018-05-19T11:13:35.865Z</time>
      </trkpt>
      <trkpt lat="43.17634833" lon="-4.17885167">
        <ele>924.0</ele>
        <time>2018-05-19T11:13:36.870Z</time>
      </trkpt>
      <trkpt lat="43.17634833" lon="-4.17885167">
        <ele>924.0</ele>
        <time>2018-05-19T11:13:37.864Z</time>
      </trkpt>
      <trkpt lat="43.17633333" lon="-4.17880667">
        <ele>925.0</ele>
        <time>2018-05-19T11:13:38.861Z</time>
      </trkpt>
      <trkpt lat="43.17633333" lon="-4.17880667">
        <ele>925.0</ele>
        <time>2018-05-19T11:13:39.867Z</time>
      </trkpt>
      <trkpt lat="43.17631667" lon="-4.17875833">
        <ele>925.0</ele>
        <time>2018-05-19T11:13:40.873Z</time>
      </trkpt>
      <trkpt lat="43.17631667" lon="-4.17875833">
        <ele>925.0</ele>
        <time>2018-05-19T11:13:41.865Z</time>
      </trkpt>
      <trkpt lat="43.17629667" lon="-4.17870833">
        <ele>925.0</ele>
        <time>2018-05-19T11:13:42.870Z</time>
      </trkpt>
      <trkpt lat="43.17629667" lon="-4.17870833">
        <ele>925.0</ele>
        <time>2018-05-19T11:13:43.848Z</time>
      </trkpt>
      <trkpt lat="43.17628" lon="-4.17866333">
        <ele>926.0</ele>
        <time>2018-05-19T11:13:44.874Z</time>
      </trkpt>
      <trkpt lat="43.17628" lon="-4.17866333">
        <ele>926.0</ele>
        <time>2018-05-19T11:13:45.871Z</time>
      </trkpt>
      <trkpt lat="43.17626167" lon="-4.17862167">
        <ele>926.0</ele>
        <time>2018-05-19T11:13:46.850Z</time>
      </trkpt>
      <trkpt lat="43.17625167" lon="-4.1786">
        <ele>926.0</ele>
        <time>2018-05-19T11:13:47.857Z</time>
      </trkpt>
      <trkpt lat="43.17625167" lon="-4.1786">
        <ele>926.0</ele>
        <time>2018-05-19T11:13:48.863Z</time>
      </trkpt>
      <trkpt lat="43.17623333" lon="-4.17855667">
        <ele>927.0</ele>
        <time>2018-05-19T11:13:49.869Z</time>
      </trkpt>
      <trkpt lat="43.176225" lon="-4.17853667">
        <ele>927.0</ele>
        <time>2018-05-19T11:13:50.871Z</time>
      </trkpt>
      <trkpt lat="43.176225" lon="-4.17853667">
        <ele>927.0</ele>
        <time>2018-05-19T11:13:51.866Z</time>
      </trkpt>
      <trkpt lat="43.17620333" lon="-4.1785">
        <ele>927.0</ele>
        <time>2018-05-19T11:13:52.870Z</time>
      </trkpt>
      <trkpt lat="43.17619" lon="-4.17848167">
        <ele>927.0</ele>
        <time>2018-05-19T11:13:53.846Z</time>
      </trkpt>
      <trkpt lat="43.17619" lon="-4.17848167">
        <ele>927.0</ele>
        <time>2018-05-19T11:13:54.869Z</time>
      </trkpt>
      <trkpt lat="43.176165" lon="-4.17844333">
        <ele>928.0</ele>
        <time>2018-05-19T11:13:55.870Z</time>
      </trkpt>
      <trkpt lat="43.176155" lon="-4.17842333">
        <ele>928.0</ele>
        <time>2018-05-19T11:13:56.866Z</time>
      </trkpt>
      <trkpt lat="43.176145" lon="-4.17840333">
        <ele>928.0</ele>
        <time>2018-05-19T11:13:57.867Z</time>
      </trkpt>
      <trkpt lat="43.176145" lon="-4.17840333">
        <ele>928.0</ele>
        <time>2018-05-19T11:13:58.865Z</time>
      </trkpt>
      <trkpt lat="43.17612" lon="-4.178365">
        <ele>929.0</ele>
        <time>2018-05-19T11:13:59.871Z</time>
      </trkpt>
      <trkpt lat="43.17610667" lon="-4.178345">
        <ele>929.0</ele>
        <time>2018-05-19T11:14:00.869Z</time>
      </trkpt>
      <trkpt lat="43.17609667" lon="-4.17832667">
        <ele>929.0</ele>
        <time>2018-05-19T11:14:01.869Z</time>
      </trkpt>
      <trkpt lat="43.17609667" lon="-4.17832667">
        <ele>929.0</ele>
        <time>2018-05-19T11:14:02.865Z</time>
      </trkpt>
      <trkpt lat="43.17607333" lon="-4.17829">
        <ele>929.0</ele>
        <time>2018-05-19T11:14:03.849Z</time>
      </trkpt>
      <trkpt lat="43.17606167" lon="-4.17827">
        <ele>930.0</ele>
        <time>2018-05-19T11:14:04.876Z</time>
      </trkpt>
      <trkpt lat="43.17606167" lon="-4.17827">
        <ele>930.0</ele>
        <time>2018-05-19T11:14:05.863Z</time>
      </trkpt>
      <trkpt lat="43.17603833" lon="-4.17823">
        <ele>930.0</ele>
        <time>2018-05-19T11:14:06.868Z</time>
      </trkpt>
      <trkpt lat="43.17603833" lon="-4.17823">
        <ele>930.0</ele>
        <time>2018-05-19T11:14:07.866Z</time>
      </trkpt>
      <trkpt lat="43.17601167" lon="-4.17819333">
        <ele>930.0</ele>
        <time>2018-05-19T11:14:08.868Z</time>
      </trkpt>
      <trkpt lat="43.17599667" lon="-4.17817667">
        <ele>931.0</ele>
        <time>2018-05-19T11:14:09.869Z</time>
      </trkpt>
      <trkpt lat="43.17599667" lon="-4.17817667">
        <ele>931.0</ele>
        <time>2018-05-19T11:14:10.846Z</time>
      </trkpt>
      <trkpt lat="43.17597" lon="-4.17814167">
        <ele>931.0</ele>
        <time>2018-05-19T11:14:11.868Z</time>
      </trkpt>
      <trkpt lat="43.17595667" lon="-4.17812333">
        <ele>931.0</ele>
        <time>2018-05-19T11:14:12.878Z</time>
      </trkpt>
      <trkpt lat="43.175945" lon="-4.17810333">
        <ele>931.0</ele>
        <time>2018-05-19T11:14:13.852Z</time>
      </trkpt>
      <trkpt lat="43.175945" lon="-4.17810333">
        <ele>931.0</ele>
        <time>2018-05-19T11:14:14.873Z</time>
      </trkpt>
      <trkpt lat="43.17592167" lon="-4.178065">
        <ele>932.0</ele>
        <time>2018-05-19T11:14:15.856Z</time>
      </trkpt>
      <trkpt lat="43.175905" lon="-4.17804667">
        <ele>932.0</ele>
        <time>2018-05-19T11:14:16.882Z</time>
      </trkpt>
      <trkpt lat="43.175905" lon="-4.17804667">
        <ele>932.0</ele>
        <time>2018-05-19T11:14:17.867Z</time>
      </trkpt>
      <trkpt lat="43.175875" lon="-4.17801">
        <ele>932.0</ele>
        <time>2018-05-19T11:14:18.871Z</time>
      </trkpt>
      <trkpt lat="43.17585833" lon="-4.17799167">
        <ele>932.0</ele>
        <time>2018-05-19T11:14:19.868Z</time>
      </trkpt>
      <trkpt lat="43.17585833" lon="-4.17799167">
        <ele>932.0</ele>
        <time>2018-05-19T11:14:20.874Z</time>
      </trkpt>
      <trkpt lat="43.175825" lon="-4.17796">
        <ele>933.0</ele>
        <time>2018-05-19T11:14:21.869Z</time>
      </trkpt>
      <trkpt lat="43.175825" lon="-4.17796">
        <ele>933.0</ele>
        <time>2018-05-19T11:14:22.867Z</time>
      </trkpt>
      <trkpt lat="43.17578833" lon="-4.17793333">
        <ele>933.0</ele>
        <time>2018-05-19T11:14:23.877Z</time>
      </trkpt>
      <trkpt lat="43.17577333" lon="-4.17792">
        <ele>933.0</ele>
        <time>2018-05-19T11:14:24.871Z</time>
      </trkpt>
      <trkpt lat="43.17577333" lon="-4.17792">
        <ele>933.0</ele>
        <time>2018-05-19T11:14:25.867Z</time>
      </trkpt>
      <trkpt lat="43.17574" lon="-4.17789167">
        <ele>934.0</ele>
        <time>2018-05-19T11:14:26.868Z</time>
      </trkpt>
      <trkpt lat="43.17572167" lon="-4.17787833">
        <ele>934.0</ele>
        <time>2018-05-19T11:14:27.868Z</time>
      </trkpt>
      <trkpt lat="43.17572167" lon="-4.17787833">
        <ele>934.0</ele>
        <time>2018-05-19T11:14:28.865Z</time>
      </trkpt>
      <trkpt lat="43.17568667" lon="-4.17786">
        <ele>934.0</ele>
        <time>2018-05-19T11:14:29.868Z</time>
      </trkpt>
      <trkpt lat="43.17567" lon="-4.17785167">
        <ele>934.0</ele>
        <time>2018-05-19T11:14:30.879Z</time>
      </trkpt>
      <trkpt lat="43.17567" lon="-4.17785167">
        <ele>934.0</ele>
        <time>2018-05-19T11:14:31.859Z</time>
      </trkpt>
      <trkpt lat="43.175635" lon="-4.177835">
        <ele>934.0</ele>
        <time>2018-05-19T11:14:32.883Z</time>
      </trkpt>
      <trkpt lat="43.17562" lon="-4.17782667">
        <ele>935.0</ele>
        <time>2018-05-19T11:14:33.850Z</time>
      </trkpt>
      <trkpt lat="43.17562" lon="-4.17782667">
        <ele>935.0</ele>
        <time>2018-05-19T11:14:34.844Z</time>
      </trkpt>
      <trkpt lat="43.17559167" lon="-4.17780667">
        <ele>935.0</ele>
        <time>2018-05-19T11:14:35.869Z</time>
      </trkpt>
      <trkpt lat="43.17559167" lon="-4.17780667">
        <ele>935.0</ele>
        <time>2018-05-19T11:14:36.867Z</time>
      </trkpt>
      <trkpt lat="43.17555667" lon="-4.177785">
        <ele>935.0</ele>
        <time>2018-05-19T11:14:37.867Z</time>
      </trkpt>
      <trkpt lat="43.17555667" lon="-4.177785">
        <ele>935.0</ele>
        <time>2018-05-19T11:14:38.865Z</time>
      </trkpt>
      <trkpt lat="43.17551833" lon="-4.17776167">
        <ele>935.0</ele>
        <time>2018-05-19T11:14:39.869Z</time>
      </trkpt>
      <trkpt lat="43.17551833" lon="-4.17776167">
        <ele>935.0</ele>
        <time>2018-05-19T11:14:40.884Z</time>
      </trkpt>
      <trkpt lat="43.17548333" lon="-4.17774167">
        <ele>936.0</ele>
        <time>2018-05-19T11:14:41.880Z</time>
      </trkpt>
      <trkpt lat="43.175465" lon="-4.177735">
        <ele>936.0</ele>
        <time>2018-05-19T11:14:42.869Z</time>
      </trkpt>
      <trkpt lat="43.175465" lon="-4.177735">
        <ele>936.0</ele>
        <time>2018-05-19T11:14:43.844Z</time>
      </trkpt>
      <trkpt lat="43.17543167" lon="-4.17772333">
        <ele>937.0</ele>
        <time>2018-05-19T11:14:44.869Z</time>
      </trkpt>
      <trkpt lat="43.17543167" lon="-4.17772333">
        <ele>937.0</ele>
        <time>2018-05-19T11:14:45.862Z</time>
      </trkpt>
      <trkpt lat="43.17539833" lon="-4.177715">
        <ele>937.0</ele>
        <time>2018-05-19T11:14:46.852Z</time>
      </trkpt>
      <trkpt lat="43.17538333" lon="-4.177705">
        <ele>938.0</ele>
        <time>2018-05-19T11:14:47.858Z</time>
      </trkpt>
      <trkpt lat="43.17536833" lon="-4.177695">
        <ele>938.0</ele>
        <time>2018-05-19T11:14:48.865Z</time>
      </trkpt>
      <trkpt lat="43.17536833" lon="-4.177695">
        <ele>938.0</ele>
        <time>2018-05-19T11:14:49.865Z</time>
      </trkpt>
      <trkpt lat="43.17533167" lon="-4.177675">
        <ele>938.0</ele>
        <time>2018-05-19T11:14:50.870Z</time>
      </trkpt>
      <trkpt lat="43.17533167" lon="-4.177675">
        <ele>938.0</ele>
        <time>2018-05-19T11:14:51.867Z</time>
      </trkpt>
      <trkpt lat="43.17529333" lon="-4.17765833">
        <ele>938.0</ele>
        <time>2018-05-19T11:14:52.871Z</time>
      </trkpt>
      <trkpt lat="43.17529333" lon="-4.17765833">
        <ele>938.0</ele>
        <time>2018-05-19T11:14:53.881Z</time>
      </trkpt>
      <trkpt lat="43.17525833" lon="-4.17763667">
        <ele>938.0</ele>
        <time>2018-05-19T11:14:54.865Z</time>
      </trkpt>
      <trkpt lat="43.17523833" lon="-4.17762667">
        <ele>939.0</ele>
        <time>2018-05-19T11:14:55.852Z</time>
      </trkpt>
      <trkpt lat="43.17523833" lon="-4.17762667">
        <ele>939.0</ele>
        <time>2018-05-19T11:14:56.879Z</time>
      </trkpt>
      <trkpt lat="43.17520167" lon="-4.177605">
        <ele>939.0</ele>
        <time>2018-05-19T11:14:57.870Z</time>
      </trkpt>
      <trkpt lat="43.17518167" lon="-4.177595">
        <ele>939.0</ele>
        <time>2018-05-19T11:14:58.870Z</time>
      </trkpt>
      <trkpt lat="43.17518167" lon="-4.177595">
        <ele>939.0</ele>
        <time>2018-05-19T11:14:59.865Z</time>
      </trkpt>
      <trkpt lat="43.17514333" lon="-4.17758167">
        <ele>939.0</ele>
        <time>2018-05-19T11:15:00.872Z</time>
      </trkpt>
      <trkpt lat="43.17514333" lon="-4.17758167">
        <ele>939.0</ele>
        <time>2018-05-19T11:15:01.862Z</time>
      </trkpt>
      <trkpt lat="43.17510667" lon="-4.17756667">
        <ele>939.0</ele>
        <time>2018-05-19T11:15:02.870Z</time>
      </trkpt>
      <trkpt lat="43.17510667" lon="-4.17756667">
        <ele>939.0</ele>
        <time>2018-05-19T11:15:03.879Z</time>
      </trkpt>
      <trkpt lat="43.17507167" lon="-4.17755167">
        <ele>940.0</ele>
        <time>2018-05-19T11:15:04.866Z</time>
      </trkpt>
      <trkpt lat="43.17507167" lon="-4.17755167">
        <ele>940.0</ele>
        <time>2018-05-19T11:15:05.865Z</time>
      </trkpt>
      <trkpt lat="43.175035" lon="-4.17753667">
        <ele>940.0</ele>
        <time>2018-05-19T11:15:06.869Z</time>
      </trkpt>
      <trkpt lat="43.175035" lon="-4.17753667">
        <ele>940.0</ele>
        <time>2018-05-19T11:15:07.863Z</time>
      </trkpt>
      <trkpt lat="43.17500167" lon="-4.177515">
        <ele>940.0</ele>
        <time>2018-05-19T11:15:08.871Z</time>
      </trkpt>
      <trkpt lat="43.17500167" lon="-4.177515">
        <ele>940.0</ele>
        <time>2018-05-19T11:15:09.865Z</time>
      </trkpt>
      <trkpt lat="43.174965" lon="-4.17749667">
        <ele>940.0</ele>
        <time>2018-05-19T11:15:10.871Z</time>
      </trkpt>
      <trkpt lat="43.174965" lon="-4.17749667">
        <ele>940.0</ele>
        <time>2018-05-19T11:15:11.867Z</time>
      </trkpt>
      <trkpt lat="43.17492667" lon="-4.177485">
        <ele>941.0</ele>
        <time>2018-05-19T11:15:12.870Z</time>
      </trkpt>
      <trkpt lat="43.17492667" lon="-4.177485">
        <ele>941.0</ele>
        <time>2018-05-19T11:15:13.883Z</time>
      </trkpt>
      <trkpt lat="43.17488167" lon="-4.17748">
        <ele>941.0</ele>
        <time>2018-05-19T11:15:14.869Z</time>
      </trkpt>
      <trkpt lat="43.17488167" lon="-4.17748">
        <ele>941.0</ele>
        <time>2018-05-19T11:15:15.865Z</time>
      </trkpt>
      <trkpt lat="43.17483667" lon="-4.17747167">
        <ele>941.0</ele>
        <time>2018-05-19T11:15:16.864Z</time>
      </trkpt>
      <trkpt lat="43.17481667" lon="-4.177465">
        <ele>942.0</ele>
        <time>2018-05-19T11:15:17.858Z</time>
      </trkpt>
      <trkpt lat="43.17481667" lon="-4.177465">
        <ele>942.0</ele>
        <time>2018-05-19T11:15:18.883Z</time>
      </trkpt>
      <trkpt lat="43.17477833" lon="-4.17744833">
        <ele>942.0</ele>
        <time>2018-05-19T11:15:19.880Z</time>
      </trkpt>
      <trkpt lat="43.17477833" lon="-4.17744833">
        <ele>942.0</ele>
        <time>2018-05-19T11:15:20.863Z</time>
      </trkpt>
      <trkpt lat="43.17474" lon="-4.17743333">
        <ele>942.0</ele>
        <time>2018-05-19T11:15:21.875Z</time>
      </trkpt>
      <trkpt lat="43.17472167" lon="-4.17743">
        <ele>942.0</ele>
        <time>2018-05-19T11:15:22.872Z</time>
      </trkpt>
      <trkpt lat="43.17470333" lon="-4.177425">
        <ele>943.0</ele>
        <time>2018-05-19T11:15:23.852Z</time>
      </trkpt>
      <trkpt lat="43.17470333" lon="-4.177425">
        <ele>943.0</ele>
        <time>2018-05-19T11:15:24.880Z</time>
      </trkpt>
      <trkpt lat="43.17466667" lon="-4.17741167">
        <ele>943.0</ele>
        <time>2018-05-19T11:15:25.864Z</time>
      </trkpt>
      <trkpt lat="43.17466667" lon="-4.17741167">
        <ele>943.0</ele>
        <time>2018-05-19T11:15:26.856Z</time>
      </trkpt>
      <trkpt lat="43.17462833" lon="-4.17740333">
        <ele>943.0</ele>
        <time>2018-05-19T11:15:27.849Z</time>
      </trkpt>
      <trkpt lat="43.17461" lon="-4.1774">
        <ele>943.0</ele>
        <time>2018-05-19T11:15:28.875Z</time>
      </trkpt>
      <trkpt lat="43.17459167" lon="-4.17739667">
        <ele>944.0</ele>
        <time>2018-05-19T11:15:29.865Z</time>
      </trkpt>
      <trkpt lat="43.17457167" lon="-4.17739333">
        <ele>944.0</ele>
        <time>2018-05-19T11:15:30.845Z</time>
      </trkpt>
      <trkpt lat="43.17457167" lon="-4.17739333">
        <ele>944.0</ele>
        <time>2018-05-19T11:15:31.870Z</time>
      </trkpt>
      <trkpt lat="43.17453167" lon="-4.17738667">
        <ele>944.0</ele>
        <time>2018-05-19T11:15:32.871Z</time>
      </trkpt>
      <trkpt lat="43.17451" lon="-4.17738333">
        <ele>944.0</ele>
        <time>2018-05-19T11:15:33.865Z</time>
      </trkpt>
      <trkpt lat="43.17451" lon="-4.17738333">
        <ele>944.0</ele>
        <time>2018-05-19T11:15:34.858Z</time>
      </trkpt>
      <trkpt lat="43.17446667" lon="-4.17737833">
        <ele>945.0</ele>
        <time>2018-05-19T11:15:35.884Z</time>
      </trkpt>
      <trkpt lat="43.17446667" lon="-4.17737833">
        <ele>945.0</ele>
        <time>2018-05-19T11:15:36.869Z</time>
      </trkpt>
      <trkpt lat="43.17442333" lon="-4.17738167">
        <ele>945.0</ele>
        <time>2018-05-19T11:15:37.869Z</time>
      </trkpt>
      <trkpt lat="43.17440167" lon="-4.177385">
        <ele>945.0</ele>
        <time>2018-05-19T11:15:38.856Z</time>
      </trkpt>
      <trkpt lat="43.17440167" lon="-4.177385">
        <ele>945.0</ele>
        <time>2018-05-19T11:15:39.903Z</time>
      </trkpt>
      <trkpt lat="43.17434667" lon="-4.17739667">
        <ele>945.0</ele>
        <time>2018-05-19T11:15:40.849Z</time>
      </trkpt>
      <trkpt lat="43.17432" lon="-4.177405">
        <ele>945.0</ele>
        <time>2018-05-19T11:15:41.873Z</time>
      </trkpt>
      <trkpt lat="43.17429667" lon="-4.177415">
        <ele>945.0</ele>
        <time>2018-05-19T11:15:42.870Z</time>
      </trkpt>
      <trkpt lat="43.17429667" lon="-4.177415">
        <ele>945.0</ele>
        <time>2018-05-19T11:15:43.874Z</time>
      </trkpt>
      <trkpt lat="43.17425" lon="-4.17742667">
        <ele>946.0</ele>
        <time>2018-05-19T11:15:44.869Z</time>
      </trkpt>
      <trkpt lat="43.17425" lon="-4.17742667">
        <ele>946.0</ele>
        <time>2018-05-19T11:15:45.881Z</time>
      </trkpt>
      <trkpt lat="43.174205" lon="-4.177435">
        <ele>945.0</ele>
        <time>2018-05-19T11:15:46.864Z</time>
      </trkpt>
      <trkpt lat="43.174205" lon="-4.177435">
        <ele>945.0</ele>
        <time>2018-05-19T11:15:47.870Z</time>
      </trkpt>
      <trkpt lat="43.17416167" lon="-4.17744667">
        <ele>946.0</ele>
        <time>2018-05-19T11:15:48.876Z</time>
      </trkpt>
      <trkpt lat="43.17414" lon="-4.17745">
        <ele>946.0</ele>
        <time>2018-05-19T11:15:49.871Z</time>
      </trkpt>
      <trkpt lat="43.17414" lon="-4.17745">
        <ele>946.0</ele>
        <time>2018-05-19T11:15:50.859Z</time>
      </trkpt>
      <trkpt lat="43.17409833" lon="-4.17745833">
        <ele>946.0</ele>
        <time>2018-05-19T11:15:51.844Z</time>
      </trkpt>
      <trkpt lat="43.17407667" lon="-4.17746333">
        <ele>947.0</ele>
        <time>2018-05-19T11:15:52.872Z</time>
      </trkpt>
      <trkpt lat="43.17405333" lon="-4.17746833">
        <ele>947.0</ele>
        <time>2018-05-19T11:15:53.880Z</time>
      </trkpt>
      <trkpt lat="43.17405333" lon="-4.17746833">
        <ele>947.0</ele>
        <time>2018-05-19T11:15:54.864Z</time>
      </trkpt>
      <trkpt lat="43.17401167" lon="-4.177475">
        <ele>947.0</ele>
        <time>2018-05-19T11:15:55.871Z</time>
      </trkpt>
      <trkpt lat="43.17399" lon="-4.17748">
        <ele>948.0</ele>
        <time>2018-05-19T11:15:56.868Z</time>
      </trkpt>
      <trkpt lat="43.17396833" lon="-4.177485">
        <ele>948.0</ele>
        <time>2018-05-19T11:15:57.857Z</time>
      </trkpt>
      <trkpt lat="43.17396833" lon="-4.177485">
        <ele>948.0</ele>
        <time>2018-05-19T11:15:58.881Z</time>
      </trkpt>
      <trkpt lat="43.173925" lon="-4.17749667">
        <ele>948.0</ele>
        <time>2018-05-19T11:15:59.871Z</time>
      </trkpt>
      <trkpt lat="43.173925" lon="-4.17749667">
        <ele>948.0</ele>
        <time>2018-05-19T11:16:00.854Z</time>
      </trkpt>
      <trkpt lat="43.17388167" lon="-4.17750833">
        <ele>949.0</ele>
        <time>2018-05-19T11:16:01.878Z</time>
      </trkpt>
      <trkpt lat="43.17386" lon="-4.17751167">
        <ele>949.0</ele>
        <time>2018-05-19T11:16:02.872Z</time>
      </trkpt>
      <trkpt lat="43.17383833" lon="-4.17751667">
        <ele>949.0</ele>
        <time>2018-05-19T11:16:03.877Z</time>
      </trkpt>
      <trkpt lat="43.17383833" lon="-4.17751667">
        <ele>949.0</ele>
        <time>2018-05-19T11:16:04.865Z</time>
      </trkpt>
      <trkpt lat="43.173795" lon="-4.17753">
        <ele>950.0</ele>
        <time>2018-05-19T11:16:05.857Z</time>
      </trkpt>
      <trkpt lat="43.17377333" lon="-4.177535">
        <ele>950.0</ele>
        <time>2018-05-19T11:16:06.882Z</time>
      </trkpt>
      <trkpt lat="43.17377333" lon="-4.177535">
        <ele>950.0</ele>
        <time>2018-05-19T11:16:07.876Z</time>
      </trkpt>
      <trkpt lat="43.17373167" lon="-4.17753833">
        <ele>951.0</ele>
        <time>2018-05-19T11:16:08.870Z</time>
      </trkpt>
      <trkpt lat="43.17371167" lon="-4.17754">
        <ele>951.0</ele>
        <time>2018-05-19T11:16:09.870Z</time>
      </trkpt>
      <trkpt lat="43.17371167" lon="-4.17754">
        <ele>951.0</ele>
        <time>2018-05-19T11:16:10.866Z</time>
      </trkpt>
      <trkpt lat="43.17367" lon="-4.177545">
        <ele>952.0</ele>
        <time>2018-05-19T11:16:11.870Z</time>
      </trkpt>
      <trkpt lat="43.17364833" lon="-4.17754333">
        <ele>952.0</ele>
        <time>2018-05-19T11:16:12.871Z</time>
      </trkpt>
      <trkpt lat="43.17362833" lon="-4.177545">
        <ele>952.0</ele>
        <time>2018-05-19T11:16:13.850Z</time>
      </trkpt>
      <trkpt lat="43.17362833" lon="-4.177545">
        <ele>952.0</ele>
        <time>2018-05-19T11:16:14.873Z</time>
      </trkpt>
      <trkpt lat="43.17358833" lon="-4.17755">
        <ele>953.0</ele>
        <time>2018-05-19T11:16:15.869Z</time>
      </trkpt>
      <trkpt lat="43.17356667" lon="-4.17755167">
        <ele>953.0</ele>
        <time>2018-05-19T11:16:16.863Z</time>
      </trkpt>
      <trkpt lat="43.17356667" lon="-4.17755167">
        <ele>953.0</ele>
        <time>2018-05-19T11:16:17.864Z</time>
      </trkpt>
      <trkpt lat="43.17352833" lon="-4.177555">
        <ele>954.0</ele>
        <time>2018-05-19T11:16:18.850Z</time>
      </trkpt>
      <trkpt lat="43.17350833" lon="-4.17755667">
        <ele>954.0</ele>
        <time>2018-05-19T11:16:19.873Z</time>
      </trkpt>
      <trkpt lat="43.17348833" lon="-4.17755833">
        <ele>954.0</ele>
        <time>2018-05-19T11:16:20.869Z</time>
      </trkpt>
      <trkpt lat="43.17348833" lon="-4.17755833">
        <ele>954.0</ele>
        <time>2018-05-19T11:16:21.864Z</time>
      </trkpt>
      <trkpt lat="43.17345" lon="-4.17756333">
        <ele>954.0</ele>
        <time>2018-05-19T11:16:22.867Z</time>
      </trkpt>
      <trkpt lat="43.17345" lon="-4.17756333">
        <ele>954.0</ele>
        <time>2018-05-19T11:16:23.882Z</time>
      </trkpt>
      <trkpt lat="43.17341167" lon="-4.17755667">
        <ele>955.0</ele>
        <time>2018-05-19T11:16:24.871Z</time>
      </trkpt>
      <trkpt lat="43.17341167" lon="-4.17755667">
        <ele>955.0</ele>
        <time>2018-05-19T11:16:25.857Z</time>
      </trkpt>
      <trkpt lat="43.17337667" lon="-4.17755167">
        <ele>955.0</ele>
        <time>2018-05-19T11:16:26.880Z</time>
      </trkpt>
      <trkpt lat="43.17337667" lon="-4.17755167">
        <ele>955.0</ele>
        <time>2018-05-19T11:16:27.863Z</time>
      </trkpt>
      <trkpt lat="43.17333667" lon="-4.17755333">
        <ele>955.0</ele>
        <time>2018-05-19T11:16:28.858Z</time>
      </trkpt>
      <trkpt lat="43.17333667" lon="-4.17755333">
        <ele>955.0</ele>
        <time>2018-05-19T11:16:29.846Z</time>
      </trkpt>
      <trkpt lat="43.17329667" lon="-4.177555">
        <ele>956.0</ele>
        <time>2018-05-19T11:16:30.873Z</time>
      </trkpt>
      <trkpt lat="43.17329667" lon="-4.177555">
        <ele>956.0</ele>
        <time>2018-05-19T11:16:31.859Z</time>
      </trkpt>
      <trkpt lat="43.17326" lon="-4.17755">
        <ele>956.0</ele>
        <time>2018-05-19T11:16:32.859Z</time>
      </trkpt>
      <trkpt lat="43.17324333" lon="-4.177545">
        <ele>956.0</ele>
        <time>2018-05-19T11:16:33.874Z</time>
      </trkpt>
      <trkpt lat="43.17324333" lon="-4.177545">
        <ele>956.0</ele>
        <time>2018-05-19T11:16:34.864Z</time>
      </trkpt>
      <trkpt lat="43.17320833" lon="-4.17753333">
        <ele>957.0</ele>
        <time>2018-05-19T11:16:35.857Z</time>
      </trkpt>
      <trkpt lat="43.17319" lon="-4.17752667">
        <ele>957.0</ele>
        <time>2018-05-19T11:16:36.882Z</time>
      </trkpt>
      <trkpt lat="43.17319" lon="-4.17752667">
        <ele>957.0</ele>
        <time>2018-05-19T11:16:37.868Z</time>
      </trkpt>
      <trkpt lat="43.173155" lon="-4.17751667">
        <ele>957.0</ele>
        <time>2018-05-19T11:16:38.862Z</time>
      </trkpt>
      <trkpt lat="43.173155" lon="-4.17751667">
        <ele>957.0</ele>
        <time>2018-05-19T11:16:39.858Z</time>
      </trkpt>
      <trkpt lat="43.17312" lon="-4.17750833">
        <ele>957.0</ele>
        <time>2018-05-19T11:16:40.882Z</time>
      </trkpt>
      <trkpt lat="43.17310167" lon="-4.1775">
        <ele>957.0</ele>
        <time>2018-05-19T11:16:41.867Z</time>
      </trkpt>
      <trkpt lat="43.17310167" lon="-4.1775">
        <ele>957.0</ele>
        <time>2018-05-19T11:16:42.853Z</time>
      </trkpt>
      <trkpt lat="43.17306333" lon="-4.17748">
        <ele>958.0</ele>
        <time>2018-05-19T11:16:43.847Z</time>
      </trkpt>
      <trkpt lat="43.17306333" lon="-4.17748">
        <ele>958.0</ele>
        <time>2018-05-19T11:16:44.870Z</time>
      </trkpt>
      <trkpt lat="43.173025" lon="-4.17746667">
        <ele>958.0</ele>
        <time>2018-05-19T11:16:45.851Z</time>
      </trkpt>
      <trkpt lat="43.173005" lon="-4.17746">
        <ele>958.0</ele>
        <time>2018-05-19T11:16:46.850Z</time>
      </trkpt>
      <trkpt lat="43.17298333" lon="-4.177455">
        <ele>958.0</ele>
        <time>2018-05-19T11:16:47.858Z</time>
      </trkpt>
      <trkpt lat="43.17298333" lon="-4.177455">
        <ele>958.0</ele>
        <time>2018-05-19T11:16:48.864Z</time>
      </trkpt>
      <trkpt lat="43.172945" lon="-4.17743667">
        <ele>959.0</ele>
        <time>2018-05-19T11:16:49.868Z</time>
      </trkpt>
      <trkpt lat="43.172945" lon="-4.17743667">
        <ele>959.0</ele>
        <time>2018-05-19T11:16:50.872Z</time>
      </trkpt>
      <trkpt lat="43.172905" lon="-4.17741667">
        <ele>959.0</ele>
        <time>2018-05-19T11:16:51.868Z</time>
      </trkpt>
      <trkpt lat="43.172885" lon="-4.17740667">
        <ele>959.0</ele>
        <time>2018-05-19T11:16:52.868Z</time>
      </trkpt>
      <trkpt lat="43.172885" lon="-4.17740667">
        <ele>959.0</ele>
        <time>2018-05-19T11:16:53.874Z</time>
      </trkpt>
      <trkpt lat="43.17283833" lon="-4.177385">
        <ele>959.0</ele>
        <time>2018-05-19T11:16:54.870Z</time>
      </trkpt>
      <trkpt lat="43.17283833" lon="-4.177385">
        <ele>959.0</ele>
        <time>2018-05-19T11:16:55.856Z</time>
      </trkpt>
      <trkpt lat="43.17279333" lon="-4.17736">
        <ele>959.0</ele>
        <time>2018-05-19T11:16:56.848Z</time>
      </trkpt>
      <trkpt lat="43.17277333" lon="-4.17735">
        <ele>960.0</ele>
        <time>2018-05-19T11:16:57.872Z</time>
      </trkpt>
      <trkpt lat="43.17277333" lon="-4.17735">
        <ele>960.0</ele>
        <time>2018-05-19T11:16:58.865Z</time>
      </trkpt>
      <trkpt lat="43.17273167" lon="-4.17733">
        <ele>960.0</ele>
        <time>2018-05-19T11:16:59.868Z</time>
      </trkpt>
      <trkpt lat="43.17271333" lon="-4.17731833">
        <ele>960.0</ele>
        <time>2018-05-19T11:17:00.868Z</time>
      </trkpt>
      <trkpt lat="43.17271333" lon="-4.17731833">
        <ele>960.0</ele>
        <time>2018-05-19T11:17:01.862Z</time>
      </trkpt>
      <trkpt lat="43.17267333" lon="-4.17729333">
        <ele>960.0</ele>
        <time>2018-05-19T11:17:02.845Z</time>
      </trkpt>
      <trkpt lat="43.17267333" lon="-4.17729333">
        <ele>960.0</ele>
        <time>2018-05-19T11:17:03.867Z</time>
      </trkpt>
      <trkpt lat="43.172635" lon="-4.17727">
        <ele>961.0</ele>
        <time>2018-05-19T11:17:04.870Z</time>
      </trkpt>
      <trkpt lat="43.172635" lon="-4.17727">
        <ele>961.0</ele>
        <time>2018-05-19T11:17:05.858Z</time>
      </trkpt>
      <trkpt lat="43.17259833" lon="-4.177245">
        <ele>961.0</ele>
        <time>2018-05-19T11:17:06.883Z</time>
      </trkpt>
      <trkpt lat="43.17259833" lon="-4.177245">
        <ele>961.0</ele>
        <time>2018-05-19T11:17:07.868Z</time>
      </trkpt>
      <trkpt lat="43.17256" lon="-4.17722167">
        <ele>961.0</ele>
        <time>2018-05-19T11:17:08.869Z</time>
      </trkpt>
      <trkpt lat="43.17256" lon="-4.17722167">
        <ele>961.0</ele>
        <time>2018-05-19T11:17:09.855Z</time>
      </trkpt>
      <trkpt lat="43.17252167" lon="-4.17719833">
        <ele>962.0</ele>
        <time>2018-05-19T11:17:10.882Z</time>
      </trkpt>
      <trkpt lat="43.17252167" lon="-4.17719833">
        <ele>962.0</ele>
        <time>2018-05-19T11:17:11.866Z</time>
      </trkpt>
      <trkpt lat="43.17248333" lon="-4.177175">
        <ele>962.0</ele>
        <time>2018-05-19T11:17:12.856Z</time>
      </trkpt>
      <trkpt lat="43.17246333" lon="-4.17716333">
        <ele>962.0</ele>
        <time>2018-05-19T11:17:13.874Z</time>
      </trkpt>
      <trkpt lat="43.17246333" lon="-4.17716333">
        <ele>962.0</ele>
        <time>2018-05-19T11:17:14.859Z</time>
      </trkpt>
      <trkpt lat="43.172425" lon="-4.17713833">
        <ele>963.0</ele>
        <time>2018-05-19T11:17:15.883Z</time>
      </trkpt>
      <trkpt lat="43.17240667" lon="-4.17712667">
        <ele>963.0</ele>
        <time>2018-05-19T11:17:16.870Z</time>
      </trkpt>
      <trkpt lat="43.17240667" lon="-4.17712667">
        <ele>963.0</ele>
        <time>2018-05-19T11:17:17.882Z</time>
      </trkpt>
      <trkpt lat="43.17236667" lon="-4.17711167">
        <ele>963.0</ele>
        <time>2018-05-19T11:17:18.882Z</time>
      </trkpt>
      <trkpt lat="43.17234667" lon="-4.17710167">
        <ele>964.0</ele>
        <time>2018-05-19T11:17:19.869Z</time>
      </trkpt>
      <trkpt lat="43.17234667" lon="-4.17710167">
        <ele>964.0</ele>
        <time>2018-05-19T11:17:20.863Z</time>
      </trkpt>
      <trkpt lat="43.17230833" lon="-4.17708167">
        <ele>964.0</ele>
        <time>2018-05-19T11:17:21.862Z</time>
      </trkpt>
      <trkpt lat="43.17229" lon="-4.17707">
        <ele>964.0</ele>
        <time>2018-05-19T11:17:22.870Z</time>
      </trkpt>
      <trkpt lat="43.17227" lon="-4.17706">
        <ele>964.0</ele>
        <time>2018-05-19T11:17:23.846Z</time>
      </trkpt>
      <trkpt lat="43.17225" lon="-4.17704833">
        <ele>964.0</ele>
        <time>2018-05-19T11:17:24.875Z</time>
      </trkpt>
      <trkpt lat="43.17225" lon="-4.17704833">
        <ele>964.0</ele>
        <time>2018-05-19T11:17:25.861Z</time>
      </trkpt>
      <trkpt lat="43.17221" lon="-4.17703">
        <ele>964.0</ele>
        <time>2018-05-19T11:17:26.862Z</time>
      </trkpt>
      <trkpt lat="43.17221" lon="-4.17703">
        <ele>964.0</ele>
        <time>2018-05-19T11:17:27.865Z</time>
      </trkpt>
      <trkpt lat="43.17217" lon="-4.177015">
        <ele>965.0</ele>
        <time>2018-05-19T11:17:28.857Z</time>
      </trkpt>
      <trkpt lat="43.17217" lon="-4.177015">
        <ele>965.0</ele>
        <time>2018-05-19T11:17:29.848Z</time>
      </trkpt>
      <trkpt lat="43.17213" lon="-4.17699667">
        <ele>965.0</ele>
        <time>2018-05-19T11:17:30.874Z</time>
      </trkpt>
      <trkpt lat="43.17213" lon="-4.17699667">
        <ele>965.0</ele>
        <time>2018-05-19T11:17:31.862Z</time>
      </trkpt>
      <trkpt lat="43.17208833" lon="-4.17699">
        <ele>965.0</ele>
        <time>2018-05-19T11:17:32.868Z</time>
      </trkpt>
      <trkpt lat="43.17206667" lon="-4.17698833">
        <ele>965.0</ele>
        <time>2018-05-19T11:17:33.876Z</time>
      </trkpt>
      <trkpt lat="43.17206667" lon="-4.17698833">
        <ele>965.0</ele>
        <time>2018-05-19T11:17:34.863Z</time>
      </trkpt>
      <trkpt lat="43.17202667" lon="-4.176975">
        <ele>966.0</ele>
        <time>2018-05-19T11:17:35.870Z</time>
      </trkpt>
      <trkpt lat="43.17200667" lon="-4.17696833">
        <ele>966.0</ele>
        <time>2018-05-19T11:17:36.856Z</time>
      </trkpt>
      <trkpt lat="43.17200667" lon="-4.17696833">
        <ele>966.0</ele>
        <time>2018-05-19T11:17:37.881Z</time>
      </trkpt>
      <trkpt lat="43.171965" lon="-4.17695833">
        <ele>966.0</ele>
        <time>2018-05-19T11:17:38.863Z</time>
      </trkpt>
      <trkpt lat="43.171945" lon="-4.17695167">
        <ele>966.0</ele>
        <time>2018-05-19T11:17:39.862Z</time>
      </trkpt>
      <trkpt lat="43.171945" lon="-4.17695167">
        <ele>966.0</ele>
        <time>2018-05-19T11:17:40.852Z</time>
      </trkpt>
      <trkpt lat="43.171905" lon="-4.17693667">
        <ele>966.0</ele>
        <time>2018-05-19T11:17:41.877Z</time>
      </trkpt>
      <trkpt lat="43.171905" lon="-4.17693667">
        <ele>966.0</ele>
        <time>2018-05-19T11:17:42.865Z</time>
      </trkpt>
      <trkpt lat="43.17186667" lon="-4.17692">
        <ele>967.0</ele>
        <time>2018-05-19T11:17:43.874Z</time>
      </trkpt>
      <trkpt lat="43.17186667" lon="-4.17692">
        <ele>967.0</ele>
        <time>2018-05-19T11:17:44.860Z</time>
      </trkpt>
      <trkpt lat="43.17183" lon="-4.1769">
        <ele>967.0</ele>
        <time>2018-05-19T11:17:45.849Z</time>
      </trkpt>
      <trkpt lat="43.17181167" lon="-4.17689167">
        <ele>968.0</ele>
        <time>2018-05-19T11:17:46.867Z</time>
      </trkpt>
      <trkpt lat="43.17179167" lon="-4.176885">
        <ele>968.0</ele>
        <time>2018-05-19T11:17:47.873Z</time>
      </trkpt>
      <trkpt lat="43.17177333" lon="-4.17687667">
        <ele>968.0</ele>
        <time>2018-05-19T11:17:48.879Z</time>
      </trkpt>
      <trkpt lat="43.17177333" lon="-4.17687667">
        <ele>968.0</ele>
        <time>2018-05-19T11:17:49.865Z</time>
      </trkpt>
      <trkpt lat="43.171735" lon="-4.17686">
        <ele>968.0</ele>
        <time>2018-05-19T11:17:50.865Z</time>
      </trkpt>
      <trkpt lat="43.171735" lon="-4.17686">
        <ele>968.0</ele>
        <time>2018-05-19T11:17:51.856Z</time>
      </trkpt>
      <trkpt lat="43.17169833" lon="-4.176845">
        <ele>969.0</ele>
        <time>2018-05-19T11:17:52.850Z</time>
      </trkpt>
      <trkpt lat="43.17167833" lon="-4.17684">
        <ele>969.0</ele>
        <time>2018-05-19T11:17:53.848Z</time>
      </trkpt>
      <trkpt lat="43.17167833" lon="-4.17684">
        <ele>969.0</ele>
        <time>2018-05-19T11:17:54.873Z</time>
      </trkpt>
      <trkpt lat="43.17164167" lon="-4.17682667">
        <ele>969.0</ele>
        <time>2018-05-19T11:17:55.868Z</time>
      </trkpt>
      <trkpt lat="43.17164167" lon="-4.17682667">
        <ele>969.0</ele>
        <time>2018-05-19T11:17:56.865Z</time>
      </trkpt>
      <trkpt lat="43.171605" lon="-4.176815">
        <ele>969.0</ele>
        <time>2018-05-19T11:17:57.867Z</time>
      </trkpt>
      <trkpt lat="43.17158667" lon="-4.17680833">
        <ele>970.0</ele>
        <time>2018-05-19T11:17:58.857Z</time>
      </trkpt>
      <trkpt lat="43.17158667" lon="-4.17680833">
        <ele>970.0</ele>
        <time>2018-05-19T11:17:59.846Z</time>
      </trkpt>
      <trkpt lat="43.17154333" lon="-4.17679333">
        <ele>970.0</ele>
        <time>2018-05-19T11:18:00.871Z</time>
      </trkpt>
      <trkpt lat="43.17154333" lon="-4.17679333">
        <ele>970.0</ele>
        <time>2018-05-19T11:18:01.864Z</time>
      </trkpt>
      <trkpt lat="43.17150333" lon="-4.17678333">
        <ele>970.0</ele>
        <time>2018-05-19T11:18:02.876Z</time>
      </trkpt>
      <trkpt lat="43.17148333" lon="-4.17678">
        <ele>971.0</ele>
        <time>2018-05-19T11:18:03.846Z</time>
      </trkpt>
      <trkpt lat="43.17148333" lon="-4.17678">
        <ele>971.0</ele>
        <time>2018-05-19T11:18:04.874Z</time>
      </trkpt>
      <trkpt lat="43.17144167" lon="-4.17676833">
        <ele>971.0</ele>
        <time>2018-05-19T11:18:05.860Z</time>
      </trkpt>
      <trkpt lat="43.17142167" lon="-4.176765">
        <ele>971.0</ele>
        <time>2018-05-19T11:18:06.844Z</time>
      </trkpt>
      <trkpt lat="43.17142167" lon="-4.176765">
        <ele>971.0</ele>
        <time>2018-05-19T11:18:07.869Z</time>
      </trkpt>
      <trkpt lat="43.17138" lon="-4.17676167">
        <ele>971.0</ele>
        <time>2018-05-19T11:18:08.870Z</time>
      </trkpt>
      <trkpt lat="43.17136" lon="-4.176765">
        <ele>971.0</ele>
        <time>2018-05-19T11:18:09.856Z</time>
      </trkpt>
      <trkpt lat="43.17136" lon="-4.176765">
        <ele>971.0</ele>
        <time>2018-05-19T11:18:10.881Z</time>
      </trkpt>
      <trkpt lat="43.171315" lon="-4.17676167">
        <ele>971.0</ele>
        <time>2018-05-19T11:18:11.866Z</time>
      </trkpt>
      <trkpt lat="43.171295" lon="-4.17675833">
        <ele>972.0</ele>
        <time>2018-05-19T11:18:12.864Z</time>
      </trkpt>
      <trkpt lat="43.171295" lon="-4.17675833">
        <ele>972.0</ele>
        <time>2018-05-19T11:18:13.882Z</time>
      </trkpt>
      <trkpt lat="43.17125333" lon="-4.17675">
        <ele>972.0</ele>
        <time>2018-05-19T11:18:14.866Z</time>
      </trkpt>
      <trkpt lat="43.17125333" lon="-4.17675">
        <ele>972.0</ele>
        <time>2018-05-19T11:18:15.856Z</time>
      </trkpt>
      <trkpt lat="43.17121167" lon="-4.17674333">
        <ele>972.0</ele>
        <time>2018-05-19T11:18:16.881Z</time>
      </trkpt>
      <trkpt lat="43.17121167" lon="-4.17674333">
        <ele>972.0</ele>
        <time>2018-05-19T11:18:17.863Z</time>
      </trkpt>
      <trkpt lat="43.17116833" lon="-4.176735">
        <ele>973.0</ele>
        <time>2018-05-19T11:18:18.856Z</time>
      </trkpt>
      <trkpt lat="43.17116833" lon="-4.176735">
        <ele>973.0</ele>
        <time>2018-05-19T11:18:19.871Z</time>
      </trkpt>
      <trkpt lat="43.17112667" lon="-4.17672667">
        <ele>973.0</ele>
        <time>2018-05-19T11:18:20.868Z</time>
      </trkpt>
      <trkpt lat="43.17112667" lon="-4.17672667">
        <ele>973.0</ele>
        <time>2018-05-19T11:18:21.856Z</time>
      </trkpt>
      <trkpt lat="43.17108833" lon="-4.17671667">
        <ele>973.0</ele>
        <time>2018-05-19T11:18:22.852Z</time>
      </trkpt>
      <trkpt lat="43.17108833" lon="-4.17671667">
        <ele>973.0</ele>
        <time>2018-05-19T11:18:23.872Z</time>
      </trkpt>
      <trkpt lat="43.17104833" lon="-4.17671">
        <ele>974.0</ele>
        <time>2018-05-19T11:18:24.881Z</time>
      </trkpt>
      <trkpt lat="43.17104833" lon="-4.17671">
        <ele>974.0</ele>
        <time>2018-05-19T11:18:25.865Z</time>
      </trkpt>
      <trkpt lat="43.17101" lon="-4.17670167">
        <ele>974.0</ele>
        <time>2018-05-19T11:18:26.867Z</time>
      </trkpt>
      <trkpt lat="43.17101" lon="-4.17670167">
        <ele>974.0</ele>
        <time>2018-05-19T11:18:27.858Z</time>
      </trkpt>
      <trkpt lat="43.17097167" lon="-4.17669667">
        <ele>975.0</ele>
        <time>2018-05-19T11:18:28.844Z</time>
      </trkpt>
      <trkpt lat="43.17097167" lon="-4.17669667">
        <ele>975.0</ele>
        <time>2018-05-19T11:18:29.866Z</time>
      </trkpt>
      <trkpt lat="43.17093167" lon="-4.17668833">
        <ele>975.0</ele>
        <time>2018-05-19T11:18:30.872Z</time>
      </trkpt>
      <trkpt lat="43.17093167" lon="-4.17668833">
        <ele>975.0</ele>
        <time>2018-05-19T11:18:31.857Z</time>
      </trkpt>
      <trkpt lat="43.17089333" lon="-4.17668">
        <ele>976.0</ele>
        <time>2018-05-19T11:18:32.847Z</time>
      </trkpt>
      <trkpt lat="43.170875" lon="-4.17667667">
        <ele>976.0</ele>
        <time>2018-05-19T11:18:33.871Z</time>
      </trkpt>
      <trkpt lat="43.170875" lon="-4.17667667">
        <ele>976.0</ele>
        <time>2018-05-19T11:18:34.865Z</time>
      </trkpt>
      <trkpt lat="43.17083833" lon="-4.17666833">
        <ele>977.0</ele>
        <time>2018-05-19T11:18:35.876Z</time>
      </trkpt>
      <trkpt lat="43.17081833" lon="-4.176665">
        <ele>977.0</ele>
        <time>2018-05-19T11:18:36.870Z</time>
      </trkpt>
      <trkpt lat="43.17081833" lon="-4.176665">
        <ele>977.0</ele>
        <time>2018-05-19T11:18:37.853Z</time>
      </trkpt>
      <trkpt lat="43.17077667" lon="-4.17665667">
        <ele>977.0</ele>
        <time>2018-05-19T11:18:38.880Z</time>
      </trkpt>
      <trkpt lat="43.17077667" lon="-4.17665667">
        <ele>977.0</ele>
        <time>2018-05-19T11:18:39.864Z</time>
      </trkpt>
      <trkpt lat="43.17073" lon="-4.176645">
        <ele>978.0</ele>
        <time>2018-05-19T11:18:40.878Z</time>
      </trkpt>
      <trkpt lat="43.17073" lon="-4.176645">
        <ele>978.0</ele>
        <time>2018-05-19T11:18:41.864Z</time>
      </trkpt>
      <trkpt lat="43.17069" lon="-4.17663667">
        <ele>978.0</ele>
        <time>2018-05-19T11:18:42.870Z</time>
      </trkpt>
      <trkpt lat="43.17069" lon="-4.17663667">
        <ele>978.0</ele>
        <time>2018-05-19T11:18:43.882Z</time>
      </trkpt>
      <trkpt lat="43.17065" lon="-4.17662167">
        <ele>979.0</ele>
        <time>2018-05-19T11:18:44.869Z</time>
      </trkpt>
      <trkpt lat="43.17065" lon="-4.17662167">
        <ele>979.0</ele>
        <time>2018-05-19T11:18:45.879Z</time>
      </trkpt>
      <trkpt lat="43.17061333" lon="-4.17660833">
        <ele>979.0</ele>
        <time>2018-05-19T11:18:46.863Z</time>
      </trkpt>
      <trkpt lat="43.17059333" lon="-4.17660833">
        <ele>979.0</ele>
        <time>2018-05-19T11:18:47.869Z</time>
      </trkpt>
      <trkpt lat="43.17059333" lon="-4.17660833">
        <ele>979.0</ele>
        <time>2018-05-19T11:18:48.875Z</time>
      </trkpt>
      <trkpt lat="43.17055333" lon="-4.17660167">
        <ele>980.0</ele>
        <time>2018-05-19T11:18:49.860Z</time>
      </trkpt>
      <trkpt lat="43.17055333" lon="-4.17660167">
        <ele>980.0</ele>
        <time>2018-05-19T11:18:50.844Z</time>
      </trkpt>
      <trkpt lat="43.17051333" lon="-4.176605">
        <ele>980.0</ele>
        <time>2018-05-19T11:18:51.870Z</time>
      </trkpt>
      <trkpt lat="43.17049333" lon="-4.176605">
        <ele>980.0</ele>
        <time>2018-05-19T11:18:52.857Z</time>
      </trkpt>
      <trkpt lat="43.17049333" lon="-4.176605">
        <ele>980.0</ele>
        <time>2018-05-19T11:18:53.872Z</time>
      </trkpt>
      <trkpt lat="43.17045167" lon="-4.17660167">
        <ele>981.0</ele>
        <time>2018-05-19T11:18:54.864Z</time>
      </trkpt>
      <trkpt lat="43.17045167" lon="-4.17660167">
        <ele>981.0</ele>
        <time>2018-05-19T11:18:55.857Z</time>
      </trkpt>
      <trkpt lat="43.1704" lon="-4.176605">
        <ele>981.0</ele>
        <time>2018-05-19T11:18:56.869Z</time>
      </trkpt>
      <trkpt lat="43.1704" lon="-4.176605">
        <ele>981.0</ele>
        <time>2018-05-19T11:18:57.859Z</time>
      </trkpt>
      <trkpt lat="43.17035333" lon="-4.17660833">
        <ele>982.0</ele>
        <time>2018-05-19T11:18:58.844Z</time>
      </trkpt>
      <trkpt lat="43.17032833" lon="-4.17661">
        <ele>982.0</ele>
        <time>2018-05-19T11:18:59.872Z</time>
      </trkpt>
      <trkpt lat="43.170305" lon="-4.17661167">
        <ele>983.0</ele>
        <time>2018-05-19T11:19:00.872Z</time>
      </trkpt>
      <trkpt lat="43.170305" lon="-4.17661167">
        <ele>983.0</ele>
        <time>2018-05-19T11:19:01.860Z</time>
      </trkpt>
      <trkpt lat="43.17026333" lon="-4.17661833">
        <ele>983.0</ele>
        <time>2018-05-19T11:19:02.883Z</time>
      </trkpt>
      <trkpt lat="43.17024" lon="-4.17662167">
        <ele>984.0</ele>
        <time>2018-05-19T11:19:03.853Z</time>
      </trkpt>
      <trkpt lat="43.17021833" lon="-4.17662667">
        <ele>984.0</ele>
        <time>2018-05-19T11:19:04.882Z</time>
      </trkpt>
      <trkpt lat="43.17021833" lon="-4.17662667">
        <ele>984.0</ele>
        <time>2018-05-19T11:19:05.867Z</time>
      </trkpt>
      <trkpt lat="43.170175" lon="-4.17664">
        <ele>985.0</ele>
        <time>2018-05-19T11:19:06.869Z</time>
      </trkpt>
      <trkpt lat="43.170175" lon="-4.17664">
        <ele>985.0</ele>
        <time>2018-05-19T11:19:07.857Z</time>
      </trkpt>
      <trkpt lat="43.17013333" lon="-4.17665167">
        <ele>985.0</ele>
        <time>2018-05-19T11:19:08.882Z</time>
      </trkpt>
      <trkpt lat="43.17013333" lon="-4.17665167">
        <ele>985.0</ele>
        <time>2018-05-19T11:19:09.866Z</time>
      </trkpt>
      <trkpt lat="43.17009333" lon="-4.17666167">
        <ele>986.0</ele>
        <time>2018-05-19T11:19:10.870Z</time>
      </trkpt>
      <trkpt lat="43.17009333" lon="-4.17666167">
        <ele>986.0</ele>
        <time>2018-05-19T11:19:11.857Z</time>
      </trkpt>
      <trkpt lat="43.17005167" lon="-4.17667667">
        <ele>986.0</ele>
        <time>2018-05-19T11:19:12.882Z</time>
      </trkpt>
      <trkpt lat="43.17003167" lon="-4.176685">
        <ele>986.0</ele>
        <time>2018-05-19T11:19:13.857Z</time>
      </trkpt>
      <trkpt lat="43.17003167" lon="-4.176685">
        <ele>986.0</ele>
        <time>2018-05-19T11:19:14.844Z</time>
      </trkpt>
      <trkpt lat="43.16999" lon="-4.17670333">
        <ele>987.0</ele>
        <time>2018-05-19T11:19:15.873Z</time>
      </trkpt>
      <trkpt lat="43.16996833" lon="-4.17671">
        <ele>987.0</ele>
        <time>2018-05-19T11:19:16.870Z</time>
      </trkpt>
      <trkpt lat="43.16996833" lon="-4.17671">
        <ele>987.0</ele>
        <time>2018-05-19T11:19:17.853Z</time>
      </trkpt>
      <trkpt lat="43.169925" lon="-4.176725">
        <ele>987.0</ele>
        <time>2018-05-19T11:19:18.880Z</time>
      </trkpt>
      <trkpt lat="43.169925" lon="-4.176725">
        <ele>987.0</ele>
        <time>2018-05-19T11:19:19.852Z</time>
      </trkpt>
      <trkpt lat="43.16988" lon="-4.17674167">
        <ele>988.0</ele>
        <time>2018-05-19T11:19:20.855Z</time>
      </trkpt>
      <trkpt lat="43.16988" lon="-4.17674167">
        <ele>988.0</ele>
        <time>2018-05-19T11:19:21.881Z</time>
      </trkpt>
      <trkpt lat="43.16984333" lon="-4.17675667">
        <ele>989.0</ele>
        <time>2018-05-19T11:19:22.863Z</time>
      </trkpt>
      <trkpt lat="43.16982333" lon="-4.17676167">
        <ele>989.0</ele>
        <time>2018-05-19T11:19:23.863Z</time>
      </trkpt>
      <trkpt lat="43.169805" lon="-4.17676667">
        <ele>989.0</ele>
        <time>2018-05-19T11:19:24.875Z</time>
      </trkpt>
      <trkpt lat="43.169805" lon="-4.17676667">
        <ele>989.0</ele>
        <time>2018-05-19T11:19:25.862Z</time>
      </trkpt>
      <trkpt lat="43.16976833" lon="-4.17677667">
        <ele>989.0</ele>
        <time>2018-05-19T11:19:26.865Z</time>
      </trkpt>
      <trkpt lat="43.16976833" lon="-4.17677667">
        <ele>989.0</ele>
        <time>2018-05-19T11:19:27.857Z</time>
      </trkpt>
      <trkpt lat="43.169725" lon="-4.17679167">
        <ele>990.0</ele>
        <time>2018-05-19T11:19:28.853Z</time>
      </trkpt>
      <trkpt lat="43.169725" lon="-4.17679167">
        <ele>990.0</ele>
        <time>2018-05-19T11:19:29.878Z</time>
      </trkpt>
      <trkpt lat="43.16968333" lon="-4.1768">
        <ele>991.0</ele>
        <time>2018-05-19T11:19:30.863Z</time>
      </trkpt>
      <trkpt lat="43.16968333" lon="-4.1768">
        <ele>991.0</ele>
        <time>2018-05-19T11:19:31.854Z</time>
      </trkpt>
      <trkpt lat="43.169645" lon="-4.17680833">
        <ele>991.0</ele>
        <time>2018-05-19T11:19:32.880Z</time>
      </trkpt>
      <trkpt lat="43.169645" lon="-4.17680833">
        <ele>991.0</ele>
        <time>2018-05-19T11:19:33.881Z</time>
      </trkpt>
      <trkpt lat="43.16960833" lon="-4.17681667">
        <ele>992.0</ele>
        <time>2018-05-19T11:19:34.863Z</time>
      </trkpt>
      <trkpt lat="43.16960833" lon="-4.17681667">
        <ele>992.0</ele>
        <time>2018-05-19T11:19:35.854Z</time>
      </trkpt>
      <trkpt lat="43.16957" lon="-4.176825">
        <ele>992.0</ele>
        <time>2018-05-19T11:19:36.880Z</time>
      </trkpt>
      <trkpt lat="43.16957" lon="-4.176825">
        <ele>992.0</ele>
        <time>2018-05-19T11:19:37.863Z</time>
      </trkpt>
      <trkpt lat="43.169535" lon="-4.17683167">
        <ele>993.0</ele>
        <time>2018-05-19T11:19:38.869Z</time>
      </trkpt>
      <trkpt lat="43.169535" lon="-4.17683167">
        <ele>993.0</ele>
        <time>2018-05-19T11:19:39.857Z</time>
      </trkpt>
      <trkpt lat="43.16949333" lon="-4.17684167">
        <ele>994.0</ele>
        <time>2018-05-19T11:19:40.871Z</time>
      </trkpt>
      <trkpt lat="43.16949333" lon="-4.17684167">
        <ele>994.0</ele>
        <time>2018-05-19T11:19:41.854Z</time>
      </trkpt>
      <trkpt lat="43.16945167" lon="-4.17684">
        <ele>994.0</ele>
        <time>2018-05-19T11:19:42.882Z</time>
      </trkpt>
      <trkpt lat="43.16945167" lon="-4.17684">
        <ele>994.0</ele>
        <time>2018-05-19T11:19:43.874Z</time>
      </trkpt>
      <trkpt lat="43.16940833" lon="-4.17683">
        <ele>994.0</ele>
        <time>2018-05-19T11:19:44.871Z</time>
      </trkpt>
      <trkpt lat="43.16940833" lon="-4.17683">
        <ele>994.0</ele>
        <time>2018-05-19T11:19:45.882Z</time>
      </trkpt>
      <trkpt lat="43.169365" lon="-4.17681667">
        <ele>995.0</ele>
        <time>2018-05-19T11:19:46.867Z</time>
      </trkpt>
      <trkpt lat="43.16934333" lon="-4.17680833">
        <ele>995.0</ele>
        <time>2018-05-19T11:19:47.873Z</time>
      </trkpt>
      <trkpt lat="43.16934333" lon="-4.17680833">
        <ele>995.0</ele>
        <time>2018-05-19T11:19:48.879Z</time>
      </trkpt>
      <trkpt lat="43.1693" lon="-4.17679167">
        <ele>996.0</ele>
        <time>2018-05-19T11:19:49.864Z</time>
      </trkpt>
      <trkpt lat="43.16927667" lon="-4.176785">
        <ele>996.0</ele>
        <time>2018-05-19T11:19:50.858Z</time>
      </trkpt>
      <trkpt lat="43.16927667" lon="-4.176785">
        <ele>996.0</ele>
        <time>2018-05-19T11:19:51.845Z</time>
      </trkpt>
      <trkpt lat="43.16923667" lon="-4.17677667">
        <ele>996.0</ele>
        <time>2018-05-19T11:19:52.871Z</time>
      </trkpt>
      <trkpt lat="43.16921833" lon="-4.176775">
        <ele>996.0</ele>
        <time>2018-05-19T11:19:53.873Z</time>
      </trkpt>
      <trkpt lat="43.16920333" lon="-4.176775">
        <ele>997.0</ele>
        <time>2018-05-19T11:19:54.867Z</time>
      </trkpt>
      <trkpt lat="43.16920333" lon="-4.176775">
        <ele>997.0</ele>
        <time>2018-05-19T11:19:55.863Z</time>
      </trkpt>
      <trkpt lat="43.16917167" lon="-4.17677">
        <ele>997.0</ele>
        <time>2018-05-19T11:19:56.867Z</time>
      </trkpt>
      <trkpt lat="43.16917167" lon="-4.17677">
        <ele>997.0</ele>
        <time>2018-05-19T11:19:57.858Z</time>
      </trkpt>
      <trkpt lat="43.16913833" lon="-4.17676667">
        <ele>997.0</ele>
        <time>2018-05-19T11:19:58.845Z</time>
      </trkpt>
      <trkpt lat="43.16913833" lon="-4.17676667">
        <ele>997.0</ele>
        <time>2018-05-19T11:19:59.871Z</time>
      </trkpt>
      <trkpt lat="43.16910667" lon="-4.176765">
        <ele>997.0</ele>
        <time>2018-05-19T11:20:00.870Z</time>
      </trkpt>
      <trkpt lat="43.16910667" lon="-4.176765">
        <ele>997.0</ele>
        <time>2018-05-19T11:20:01.858Z</time>
      </trkpt>
      <trkpt lat="43.16909333" lon="-4.17676">
        <ele>996.0</ele>
        <time>2018-05-19T11:20:02.844Z</time>
      </trkpt>
      <trkpt lat="43.16909333" lon="-4.17676">
        <ele>996.0</ele>
        <time>2018-05-19T11:20:03.860Z</time>
      </trkpt>
      <trkpt lat="43.16909333" lon="-4.17676">
        <ele>996.0</ele>
        <time>2018-05-19T11:20:04.844Z</time>
      </trkpt>
      <trkpt lat="43.16909333" lon="-4.17676">
        <ele>997.0</ele>
        <time>2018-05-19T11:20:05.868Z</time>
      </trkpt>
      <trkpt lat="43.16909333" lon="-4.17676">
        <ele>997.0</ele>
        <time>2018-05-19T11:20:06.854Z</time>
      </trkpt>
      <trkpt lat="43.16907333" lon="-4.17676333">
        <ele>997.0</ele>
        <time>2018-05-19T11:20:07.878Z</time>
      </trkpt>
      <trkpt lat="43.16906667" lon="-4.17675667">
        <ele>997.0</ele>
        <time>2018-05-19T11:20:08.864Z</time>
      </trkpt>
      <trkpt lat="43.16906667" lon="-4.17675667">
        <ele>997.0</ele>
        <time>2018-05-19T11:20:09.853Z</time>
      </trkpt>
      <trkpt lat="43.16905667" lon="-4.17674167">
        <ele>996.0</ele>
        <time>2018-05-19T11:20:10.863Z</time>
      </trkpt>
      <trkpt lat="43.16905667" lon="-4.17674167">
        <ele>996.0</ele>
        <time>2018-05-19T11:20:11.851Z</time>
      </trkpt>
      <trkpt lat="43.169055" lon="-4.176735">
        <ele>996.0</ele>
        <time>2018-05-19T11:20:12.877Z</time>
      </trkpt>
      <trkpt lat="43.169055" lon="-4.176735">
        <ele>996.0</ele>
        <time>2018-05-19T11:20:13.862Z</time>
      </trkpt>
      <trkpt lat="43.16905667" lon="-4.176735">
        <ele>996.0</ele>
        <time>2018-05-19T11:20:14.848Z</time>
      </trkpt>
      <trkpt lat="43.16905667" lon="-4.176735">
        <ele>996.0</ele>
        <time>2018-05-19T11:20:15.852Z</time>
      </trkpt>
      <trkpt lat="43.16906833" lon="-4.17673167">
        <ele>1003.0</ele>
        <time>2018-05-19T11:20:16.849Z</time>
      </trkpt>
      <trkpt lat="43.16906833" lon="-4.17673167">
        <ele>1003.0</ele>
        <time>2018-05-19T11:20:17.850Z</time>
      </trkpt>
      <trkpt lat="43.169065" lon="-4.17673">
        <ele>1003.0</ele>
        <time>2018-05-19T11:20:18.851Z</time>
      </trkpt>
      <trkpt lat="43.16901333" lon="-4.17674333">
        <ele>1002.0</ele>
        <time>2018-05-19T11:20:19.877Z</time>
      </trkpt>
      <trkpt lat="43.16901333" lon="-4.17674333">
        <ele>1002.0</ele>
        <time>2018-05-19T11:20:20.876Z</time>
      </trkpt>
      <trkpt lat="43.16896167" lon="-4.17674667">
        <ele>1002.0</ele>
        <time>2018-05-19T11:20:21.880Z</time>
      </trkpt>
      <trkpt lat="43.16896167" lon="-4.17674667">
        <ele>1002.0</ele>
        <time>2018-05-19T11:20:22.874Z</time>
      </trkpt>
      <trkpt lat="43.16889667" lon="-4.17672667">
        <ele>1001.0</ele>
        <time>2018-05-19T11:20:23.881Z</time>
      </trkpt>
      <trkpt lat="43.16889667" lon="-4.17672667">
        <ele>1001.0</ele>
        <time>2018-05-19T11:20:24.872Z</time>
      </trkpt>
      <trkpt lat="43.16882167" lon="-4.17668">
        <ele>1000.0</ele>
        <time>2018-05-19T11:20:25.878Z</time>
      </trkpt>
      <trkpt lat="43.16877833" lon="-4.17664667">
        <ele>999.0</ele>
        <time>2018-05-19T11:20:26.857Z</time>
      </trkpt>
      <trkpt lat="43.16877833" lon="-4.17664667">
        <ele>999.0</ele>
        <time>2018-05-19T11:20:27.881Z</time>
      </trkpt>
      <trkpt lat="43.16868167" lon="-4.17656667">
        <ele>998.0</ele>
        <time>2018-05-19T11:20:28.878Z</time>
      </trkpt>
      <trkpt lat="43.16868167" lon="-4.17656667">
        <ele>998.0</ele>
        <time>2018-05-19T11:20:29.874Z</time>
      </trkpt>
      <trkpt lat="43.16857667" lon="-4.17645333">
        <ele>997.0</ele>
        <time>2018-05-19T11:20:30.877Z</time>
      </trkpt>
      <trkpt lat="43.16852167" lon="-4.17638333">
        <ele>996.0</ele>
        <time>2018-05-19T11:20:31.878Z</time>
      </trkpt>
      <trkpt lat="43.16846333" lon="-4.176315">
        <ele>996.0</ele>
        <time>2018-05-19T11:20:32.880Z</time>
      </trkpt>
      <trkpt lat="43.16846333" lon="-4.176315">
        <ele>996.0</ele>
        <time>2018-05-19T11:20:33.873Z</time>
      </trkpt>
      <trkpt lat="43.16834" lon="-4.17616667">
        <ele>994.0</ele>
        <time>2018-05-19T11:20:34.853Z</time>
      </trkpt>
      <trkpt lat="43.16828" lon="-4.176075">
        <ele>993.0</ele>
        <time>2018-05-19T11:20:35.881Z</time>
      </trkpt>
      <trkpt lat="43.168225" lon="-4.17596833">
        <ele>992.0</ele>
        <time>2018-05-19T11:20:36.861Z</time>
      </trkpt>
      <trkpt lat="43.168225" lon="-4.17596833">
        <ele>992.0</ele>
        <time>2018-05-19T11:20:37.845Z</time>
      </trkpt>
      <trkpt lat="43.16812667" lon="-4.17572667">
        <ele>990.0</ele>
        <time>2018-05-19T11:20:38.878Z</time>
      </trkpt>
      <trkpt lat="43.16812667" lon="-4.17572667">
        <ele>990.0</ele>
        <time>2018-05-19T11:20:39.883Z</time>
      </trkpt>
      <trkpt lat="43.16802833" lon="-4.17546">
        <ele>988.0</ele>
        <time>2018-05-19T11:20:40.878Z</time>
      </trkpt>
      <trkpt lat="43.16798" lon="-4.175325">
        <ele>987.0</ele>
        <time>2018-05-19T11:20:41.879Z</time>
      </trkpt>
      <trkpt lat="43.16798" lon="-4.175325">
        <ele>987.0</ele>
        <time>2018-05-19T11:20:42.874Z</time>
      </trkpt>
      <trkpt lat="43.16788167" lon="-4.17505333">
        <ele>985.0</ele>
        <time>2018-05-19T11:20:43.879Z</time>
      </trkpt>
      <trkpt lat="43.16788167" lon="-4.17505333">
        <ele>985.0</ele>
        <time>2018-05-19T11:20:44.874Z</time>
      </trkpt>
      <trkpt lat="43.16775667" lon="-4.17480833">
        <ele>983.0</ele>
        <time>2018-05-19T11:20:45.867Z</time>
      </trkpt>
      <trkpt lat="43.16768167" lon="-4.17469667">
        <ele>982.0</ele>
        <time>2018-05-19T11:20:46.870Z</time>
      </trkpt>
      <trkpt lat="43.16760167" lon="-4.17458833">
        <ele>981.0</ele>
        <time>2018-05-19T11:20:47.877Z</time>
      </trkpt>
      <trkpt lat="43.16760167" lon="-4.17458833">
        <ele>981.0</ele>
        <time>2018-05-19T11:20:48.883Z</time>
      </trkpt>
      <trkpt lat="43.16743" lon="-4.17437667">
        <ele>979.0</ele>
        <time>2018-05-19T11:20:49.849Z</time>
      </trkpt>
      <trkpt lat="43.16733833" lon="-4.17428">
        <ele>977.0</ele>
        <time>2018-05-19T11:20:50.857Z</time>
      </trkpt>
      <trkpt lat="43.16733833" lon="-4.17428">
        <ele>977.0</ele>
        <time>2018-05-19T11:20:51.880Z</time>
      </trkpt>
      <trkpt lat="43.16714667" lon="-4.17410333">
        <ele>975.0</ele>
        <time>2018-05-19T11:20:52.875Z</time>
      </trkpt>
      <trkpt lat="43.16714667" lon="-4.17410333">
        <ele>975.0</ele>
        <time>2018-05-19T11:20:53.866Z</time>
      </trkpt>
      <trkpt lat="43.16695333" lon="-4.17392667">
        <ele>973.0</ele>
        <time>2018-05-19T11:20:54.852Z</time>
      </trkpt>
      <trkpt lat="43.16685667" lon="-4.173845">
        <ele>972.0</ele>
        <time>2018-05-19T11:20:55.878Z</time>
      </trkpt>
      <trkpt lat="43.16675667" lon="-4.17377333">
        <ele>971.0</ele>
        <time>2018-05-19T11:20:56.854Z</time>
      </trkpt>
      <trkpt lat="43.16675667" lon="-4.17377333">
        <ele>971.0</ele>
        <time>2018-05-19T11:20:57.883Z</time>
      </trkpt>
      <trkpt lat="43.16655333" lon="-4.173645">
        <ele>968.0</ele>
        <time>2018-05-19T11:20:58.876Z</time>
      </trkpt>
      <trkpt lat="43.166455" lon="-4.17357667">
        <ele>967.0</ele>
        <time>2018-05-19T11:20:59.879Z</time>
      </trkpt>
      <trkpt lat="43.166455" lon="-4.17357667">
        <ele>967.0</ele>
        <time>2018-05-19T11:21:00.872Z</time>
      </trkpt>
      <trkpt lat="43.16626" lon="-4.17342">
        <ele>965.0</ele>
        <time>2018-05-19T11:21:01.879Z</time>
      </trkpt>
      <trkpt lat="43.16626" lon="-4.17342">
        <ele>965.0</ele>
        <time>2018-05-19T11:21:02.875Z</time>
      </trkpt>
      <trkpt lat="43.166075" lon="-4.17324333">
        <ele>963.0</ele>
        <time>2018-05-19T11:21:03.876Z</time>
      </trkpt>
      <trkpt lat="43.166075" lon="-4.17324333">
        <ele>963.0</ele>
        <time>2018-05-19T11:21:04.872Z</time>
      </trkpt>
      <trkpt lat="43.16590333" lon="-4.17305667">
        <ele>961.0</ele>
        <time>2018-05-19T11:21:05.878Z</time>
      </trkpt>
      <trkpt lat="43.16582167" lon="-4.17296667">
        <ele>960.0</ele>
        <time>2018-05-19T11:21:06.876Z</time>
      </trkpt>
      <trkpt lat="43.16582167" lon="-4.17296667">
        <ele>960.0</ele>
        <time>2018-05-19T11:21:07.873Z</time>
      </trkpt>
      <trkpt lat="43.16568333" lon="-4.17277667">
        <ele>958.0</ele>
        <time>2018-05-19T11:21:08.874Z</time>
      </trkpt>
      <trkpt lat="43.16562333" lon="-4.17268">
        <ele>957.0</ele>
        <time>2018-05-19T11:21:09.878Z</time>
      </trkpt>
      <trkpt lat="43.16562333" lon="-4.17268">
        <ele>957.0</ele>
        <time>2018-05-19T11:21:10.875Z</time>
      </trkpt>
      <trkpt lat="43.165515" lon="-4.17248167">
        <ele>955.0</ele>
        <time>2018-05-19T11:21:11.878Z</time>
      </trkpt>
      <trkpt lat="43.165515" lon="-4.17248167">
        <ele>955.0</ele>
        <time>2018-05-19T11:21:12.847Z</time>
      </trkpt>
      <trkpt lat="43.16539833" lon="-4.17232">
        <ele>953.0</ele>
        <time>2018-05-19T11:21:13.878Z</time>
      </trkpt>
      <trkpt lat="43.16539833" lon="-4.17232">
        <ele>953.0</ele>
        <time>2018-05-19T11:21:14.873Z</time>
      </trkpt>
      <trkpt lat="43.16526" lon="-4.17220833">
        <ele>952.0</ele>
        <time>2018-05-19T11:21:15.878Z</time>
      </trkpt>
      <trkpt lat="43.16518167" lon="-4.172165">
        <ele>951.0</ele>
        <time>2018-05-19T11:21:16.857Z</time>
      </trkpt>
      <trkpt lat="43.16518167" lon="-4.172165">
        <ele>951.0</ele>
        <time>2018-05-19T11:21:17.880Z</time>
      </trkpt>
      <trkpt lat="43.16502167" lon="-4.17208333">
        <ele>949.0</ele>
        <time>2018-05-19T11:21:18.878Z</time>
      </trkpt>
      <trkpt lat="43.16494167" lon="-4.17204667">
        <ele>948.0</ele>
        <time>2018-05-19T11:21:19.880Z</time>
      </trkpt>
      <trkpt lat="43.16494167" lon="-4.17204667">
        <ele>948.0</ele>
        <time>2018-05-19T11:21:20.874Z</time>
      </trkpt>
      <trkpt lat="43.16477167" lon="-4.17200333">
        <ele>946.0</ele>
        <time>2018-05-19T11:21:21.878Z</time>
      </trkpt>
      <trkpt lat="43.16477167" lon="-4.17200333">
        <ele>946.0</ele>
        <time>2018-05-19T11:21:22.872Z</time>
      </trkpt>
      <trkpt lat="43.16459667" lon="-4.17199">
        <ele>945.0</ele>
        <time>2018-05-19T11:21:23.848Z</time>
      </trkpt>
      <trkpt lat="43.16459667" lon="-4.17199">
        <ele>945.0</ele>
        <time>2018-05-19T11:21:24.876Z</time>
      </trkpt>
      <trkpt lat="43.16441333" lon="-4.17198">
        <ele>943.0</ele>
        <time>2018-05-19T11:21:25.878Z</time>
      </trkpt>
      <trkpt lat="43.16432167" lon="-4.17196333">
        <ele>943.0</ele>
        <time>2018-05-19T11:21:26.858Z</time>
      </trkpt>
      <trkpt lat="43.16432167" lon="-4.17196333">
        <ele>943.0</ele>
        <time>2018-05-19T11:21:27.883Z</time>
      </trkpt>
      <trkpt lat="43.164155" lon="-4.17193167">
        <ele>941.0</ele>
        <time>2018-05-19T11:21:28.876Z</time>
      </trkpt>
      <trkpt lat="43.164075" lon="-4.17191667">
        <ele>940.0</ele>
        <time>2018-05-19T11:21:29.879Z</time>
      </trkpt>
      <trkpt lat="43.164075" lon="-4.17191667">
        <ele>940.0</ele>
        <time>2018-05-19T11:21:30.872Z</time>
      </trkpt>
      <trkpt lat="43.16392" lon="-4.17188">
        <ele>938.0</ele>
        <time>2018-05-19T11:21:31.878Z</time>
      </trkpt>
      <trkpt lat="43.16392" lon="-4.17188">
        <ele>938.0</ele>
        <time>2018-05-19T11:21:32.875Z</time>
      </trkpt>
      <trkpt lat="43.16376333" lon="-4.17179333">
        <ele>937.0</ele>
        <time>2018-05-19T11:21:33.877Z</time>
      </trkpt>
      <trkpt lat="43.16376333" lon="-4.17179333">
        <ele>937.0</ele>
        <time>2018-05-19T11:21:34.874Z</time>
      </trkpt>
      <trkpt lat="43.16361667" lon="-4.17165">
        <ele>936.0</ele>
        <time>2018-05-19T11:21:35.881Z</time>
      </trkpt>
      <trkpt lat="43.16361667" lon="-4.17165">
        <ele>936.0</ele>
        <time>2018-05-19T11:21:36.862Z</time>
      </trkpt>
      <trkpt lat="43.16349" lon="-4.17145333">
        <ele>935.0</ele>
        <time>2018-05-19T11:21:37.848Z</time>
      </trkpt>
      <trkpt lat="43.16349" lon="-4.17145333">
        <ele>935.0</ele>
        <time>2018-05-19T11:21:38.876Z</time>
      </trkpt>
      <trkpt lat="43.16337667" lon="-4.17122833">
        <ele>933.0</ele>
        <time>2018-05-19T11:21:39.876Z</time>
      </trkpt>
      <trkpt lat="43.16332667" lon="-4.17111">
        <ele>933.0</ele>
        <time>2018-05-19T11:21:40.876Z</time>
      </trkpt>
      <trkpt lat="43.16328333" lon="-4.17099">
        <ele>932.0</ele>
        <time>2018-05-19T11:21:41.876Z</time>
      </trkpt>
      <trkpt lat="43.16328333" lon="-4.17099">
        <ele>932.0</ele>
        <time>2018-05-19T11:21:42.868Z</time>
      </trkpt>
      <trkpt lat="43.16321833" lon="-4.17075333">
        <ele>930.0</ele>
        <time>2018-05-19T11:21:43.853Z</time>
      </trkpt>
      <trkpt lat="43.16321833" lon="-4.17075333">
        <ele>930.0</ele>
        <time>2018-05-19T11:21:44.876Z</time>
      </trkpt>
      <trkpt lat="43.16317667" lon="-4.17050833">
        <ele>928.0</ele>
        <time>2018-05-19T11:21:45.872Z</time>
      </trkpt>
      <trkpt lat="43.16316" lon="-4.17038">
        <ele>927.0</ele>
        <time>2018-05-19T11:21:46.879Z</time>
      </trkpt>
      <trkpt lat="43.163145" lon="-4.170245">
        <ele>927.0</ele>
        <time>2018-05-19T11:21:47.845Z</time>
      </trkpt>
      <trkpt lat="43.163145" lon="-4.170245">
        <ele>927.0</ele>
        <time>2018-05-19T11:21:48.855Z</time>
      </trkpt>
      <trkpt lat="43.16310333" lon="-4.169965">
        <ele>925.0</ele>
        <time>2018-05-19T11:21:49.881Z</time>
      </trkpt>
      <trkpt lat="43.16310333" lon="-4.169965">
        <ele>925.0</ele>
        <time>2018-05-19T11:21:50.874Z</time>
      </trkpt>
      <trkpt lat="43.163045" lon="-4.16969333">
        <ele>923.0</ele>
        <time>2018-05-19T11:21:51.878Z</time>
      </trkpt>
      <trkpt lat="43.163045" lon="-4.16969333">
        <ele>923.0</ele>
        <time>2018-05-19T11:21:52.869Z</time>
      </trkpt>
      <trkpt lat="43.16298833" lon="-4.16943333">
        <ele>921.0</ele>
        <time>2018-05-19T11:21:53.844Z</time>
      </trkpt>
      <trkpt lat="43.16296" lon="-4.16930667">
        <ele>920.0</ele>
        <time>2018-05-19T11:21:54.877Z</time>
      </trkpt>
      <trkpt lat="43.16293" lon="-4.16918">
        <ele>919.0</ele>
        <time>2018-05-19T11:21:55.878Z</time>
      </trkpt>
      <trkpt lat="43.16290167" lon="-4.16905167">
        <ele>918.0</ele>
        <time>2018-05-19T11:21:56.857Z</time>
      </trkpt>
      <trkpt lat="43.16290167" lon="-4.16905167">
        <ele>918.0</ele>
        <time>2018-05-19T11:21:57.881Z</time>
      </trkpt>
      <trkpt lat="43.16282167" lon="-4.1688">
        <ele>916.0</ele>
        <time>2018-05-19T11:21:58.880Z</time>
      </trkpt>
      <trkpt lat="43.16282167" lon="-4.1688">
        <ele>916.0</ele>
        <time>2018-05-19T11:21:59.874Z</time>
      </trkpt>
      <trkpt lat="43.16271667" lon="-4.168565">
        <ele>915.0</ele>
        <time>2018-05-19T11:22:00.877Z</time>
      </trkpt>
      <trkpt lat="43.16266" lon="-4.16845">
        <ele>914.0</ele>
        <time>2018-05-19T11:22:01.878Z</time>
      </trkpt>
      <trkpt lat="43.16266" lon="-4.16845">
        <ele>914.0</ele>
        <time>2018-05-19T11:22:02.874Z</time>
      </trkpt>
      <trkpt lat="43.16252833" lon="-4.16823333">
        <ele>912.0</ele>
        <time>2018-05-19T11:22:03.876Z</time>
      </trkpt>
      <trkpt lat="43.16252833" lon="-4.16823333">
        <ele>912.0</ele>
        <time>2018-05-19T11:22:04.874Z</time>
      </trkpt>
      <trkpt lat="43.16237667" lon="-4.16804">
        <ele>911.0</ele>
        <time>2018-05-19T11:22:05.854Z</time>
      </trkpt>
      <trkpt lat="43.162295" lon="-4.16795">
        <ele>910.0</ele>
        <time>2018-05-19T11:22:06.857Z</time>
      </trkpt>
      <trkpt lat="43.162295" lon="-4.16795">
        <ele>910.0</ele>
        <time>2018-05-19T11:22:07.883Z</time>
      </trkpt>
      <trkpt lat="43.16213333" lon="-4.16777167">
        <ele>908.0</ele>
        <time>2018-05-19T11:22:08.877Z</time>
      </trkpt>
      <trkpt lat="43.162055" lon="-4.16767667">
        <ele>907.0</ele>
        <time>2018-05-19T11:22:09.874Z</time>
      </trkpt>
      <trkpt lat="43.162055" lon="-4.16767667">
        <ele>907.0</ele>
        <time>2018-05-19T11:22:10.844Z</time>
      </trkpt>
      <trkpt lat="43.1619" lon="-4.16749">
        <ele>906.0</ele>
        <time>2018-05-19T11:22:11.878Z</time>
      </trkpt>
      <trkpt lat="43.1619" lon="-4.16749">
        <ele>906.0</ele>
        <time>2018-05-19T11:22:12.876Z</time>
      </trkpt>
      <trkpt lat="43.16175167" lon="-4.16731167">
        <ele>904.0</ele>
        <time>2018-05-19T11:22:13.878Z</time>
      </trkpt>
      <trkpt lat="43.16175167" lon="-4.16731167">
        <ele>904.0</ele>
        <time>2018-05-19T11:22:14.871Z</time>
      </trkpt>
      <trkpt lat="43.16162" lon="-4.16712">
        <ele>903.0</ele>
        <time>2018-05-19T11:22:15.876Z</time>
      </trkpt>
      <trkpt lat="43.16156333" lon="-4.167015">
        <ele>902.0</ele>
        <time>2018-05-19T11:22:16.872Z</time>
      </trkpt>
      <trkpt lat="43.16156333" lon="-4.167015">
        <ele>902.0</ele>
        <time>2018-05-19T11:22:17.871Z</time>
      </trkpt>
      <trkpt lat="43.16146167" lon="-4.16679833">
        <ele>900.0</ele>
        <time>2018-05-19T11:22:18.878Z</time>
      </trkpt>
      <trkpt lat="43.16142" lon="-4.16669333">
        <ele>899.0</ele>
        <time>2018-05-19T11:22:19.878Z</time>
      </trkpt>
      <trkpt lat="43.16142" lon="-4.16669333">
        <ele>899.0</ele>
        <time>2018-05-19T11:22:20.871Z</time>
      </trkpt>
      <trkpt lat="43.16133833" lon="-4.16650167">
        <ele>898.0</ele>
        <time>2018-05-19T11:22:21.846Z</time>
      </trkpt>
      <trkpt lat="43.161285" lon="-4.16642167">
        <ele>897.0</ele>
        <time>2018-05-19T11:22:22.882Z</time>
      </trkpt>
      <trkpt lat="43.161285" lon="-4.16642167">
        <ele>897.0</ele>
        <time>2018-05-19T11:22:23.872Z</time>
      </trkpt>
      <trkpt lat="43.16114667" lon="-4.16629333">
        <ele>895.0</ele>
        <time>2018-05-19T11:22:24.878Z</time>
      </trkpt>
      <trkpt lat="43.16106667" lon="-4.16624833">
        <ele>894.0</ele>
        <time>2018-05-19T11:22:25.878Z</time>
      </trkpt>
      <trkpt lat="43.16098167" lon="-4.16621833">
        <ele>893.0</ele>
        <time>2018-05-19T11:22:26.853Z</time>
      </trkpt>
      <trkpt lat="43.16098167" lon="-4.16621833">
        <ele>893.0</ele>
        <time>2018-05-19T11:22:27.880Z</time>
      </trkpt>
      <trkpt lat="43.16079667" lon="-4.166185">
        <ele>891.0</ele>
        <time>2018-05-19T11:22:28.879Z</time>
      </trkpt>
      <trkpt lat="43.160695" lon="-4.16617167">
        <ele>890.0</ele>
        <time>2018-05-19T11:22:29.879Z</time>
      </trkpt>
      <trkpt lat="43.160695" lon="-4.16617167">
        <ele>890.0</ele>
        <time>2018-05-19T11:22:30.874Z</time>
      </trkpt>
      <trkpt lat="43.16048167" lon="-4.16617667">
        <ele>887.0</ele>
        <time>2018-05-19T11:22:31.878Z</time>
      </trkpt>
      <trkpt lat="43.16048167" lon="-4.16617667">
        <ele>887.0</ele>
        <time>2018-05-19T11:22:32.876Z</time>
      </trkpt>
      <trkpt lat="43.16026833" lon="-4.16619667">
        <ele>885.0</ele>
        <time>2018-05-19T11:22:33.877Z</time>
      </trkpt>
      <trkpt lat="43.16026833" lon="-4.16619667">
        <ele>885.0</ele>
        <time>2018-05-19T11:22:34.874Z</time>
      </trkpt>
      <trkpt lat="43.16004667" lon="-4.16623167">
        <ele>883.0</ele>
        <time>2018-05-19T11:22:35.878Z</time>
      </trkpt>
      <trkpt lat="43.159935" lon="-4.166245">
        <ele>882.0</ele>
        <time>2018-05-19T11:22:36.857Z</time>
      </trkpt>
      <trkpt lat="43.159935" lon="-4.166245">
        <ele>882.0</ele>
        <time>2018-05-19T11:22:37.883Z</time>
      </trkpt>
      <trkpt lat="43.15970833" lon="-4.16628333">
        <ele>880.0</ele>
        <time>2018-05-19T11:22:38.878Z</time>
      </trkpt>
      <trkpt lat="43.15970833" lon="-4.16628333">
        <ele>880.0</ele>
        <time>2018-05-19T11:22:39.874Z</time>
      </trkpt>
      <trkpt lat="43.15948333" lon="-4.16637333">
        <ele>877.0</ele>
        <time>2018-05-19T11:22:40.876Z</time>
      </trkpt>
      <trkpt lat="43.15937333" lon="-4.16643833">
        <ele>876.0</ele>
        <time>2018-05-19T11:22:41.879Z</time>
      </trkpt>
      <trkpt lat="43.15937333" lon="-4.16643833">
        <ele>876.0</ele>
        <time>2018-05-19T11:22:42.880Z</time>
      </trkpt>
      <trkpt lat="43.159165" lon="-4.166605">
        <ele>874.0</ele>
        <time>2018-05-19T11:22:43.878Z</time>
      </trkpt>
      <trkpt lat="43.159165" lon="-4.166605">
        <ele>874.0</ele>
        <time>2018-05-19T11:22:44.874Z</time>
      </trkpt>
      <trkpt lat="43.15896333" lon="-4.16676333">
        <ele>872.0</ele>
        <time>2018-05-19T11:22:45.871Z</time>
      </trkpt>
      <trkpt lat="43.15887667" lon="-4.16685">
        <ele>870.0</ele>
        <time>2018-05-19T11:22:46.873Z</time>
      </trkpt>
      <trkpt lat="43.15887667" lon="-4.16685">
        <ele>870.0</ele>
        <time>2018-05-19T11:22:47.879Z</time>
      </trkpt>
      <trkpt lat="43.158745" lon="-4.16708833">
        <ele>868.0</ele>
        <time>2018-05-19T11:22:48.846Z</time>
      </trkpt>
      <trkpt lat="43.158745" lon="-4.16708833">
        <ele>868.0</ele>
        <time>2018-05-19T11:22:49.852Z</time>
      </trkpt>
      <trkpt lat="43.15866167" lon="-4.16737">
        <ele>866.0</ele>
        <time>2018-05-19T11:22:50.864Z</time>
      </trkpt>
      <trkpt lat="43.15866167" lon="-4.16737">
        <ele>866.0</ele>
        <time>2018-05-19T11:22:51.847Z</time>
      </trkpt>
      <trkpt lat="43.15854667" lon="-4.16764667">
        <ele>865.0</ele>
        <time>2018-05-19T11:22:52.880Z</time>
      </trkpt>
      <trkpt lat="43.15854667" lon="-4.16764667">
        <ele>865.0</ele>
        <time>2018-05-19T11:22:53.867Z</time>
      </trkpt>
      <trkpt lat="43.15839" lon="-4.16790167">
        <ele>863.0</ele>
        <time>2018-05-19T11:22:54.876Z</time>
      </trkpt>
      <trkpt lat="43.1583" lon="-4.16803167">
        <ele>861.0</ele>
        <time>2018-05-19T11:22:55.878Z</time>
      </trkpt>
      <trkpt lat="43.15821" lon="-4.16816333">
        <ele>860.0</ele>
        <time>2018-05-19T11:22:56.852Z</time>
      </trkpt>
      <trkpt lat="43.15821" lon="-4.16816333">
        <ele>860.0</ele>
        <time>2018-05-19T11:22:57.854Z</time>
      </trkpt>
      <trkpt lat="43.15803833" lon="-4.16843">
        <ele>858.0</ele>
        <time>2018-05-19T11:22:58.877Z</time>
      </trkpt>
      <trkpt lat="43.15794833" lon="-4.16855833">
        <ele>857.0</ele>
        <time>2018-05-19T11:22:59.878Z</time>
      </trkpt>
      <trkpt lat="43.15785667" lon="-4.16868833">
        <ele>856.0</ele>
        <time>2018-05-19T11:23:00.878Z</time>
      </trkpt>
      <trkpt lat="43.15776167" lon="-4.16881667">
        <ele>854.0</ele>
        <time>2018-05-19T11:23:01.878Z</time>
      </trkpt>
      <trkpt lat="43.15776167" lon="-4.16881667">
        <ele>854.0</ele>
        <time>2018-05-19T11:23:02.878Z</time>
      </trkpt>
      <trkpt lat="43.15756" lon="-4.16906333">
        <ele>852.0</ele>
        <time>2018-05-19T11:23:03.876Z</time>
      </trkpt>
      <trkpt lat="43.15756" lon="-4.16906333">
        <ele>852.0</ele>
        <time>2018-05-19T11:23:04.871Z</time>
      </trkpt>
      <trkpt lat="43.15735667" lon="-4.16929333">
        <ele>850.0</ele>
        <time>2018-05-19T11:23:05.877Z</time>
      </trkpt>
      <trkpt lat="43.15725667" lon="-4.1694">
        <ele>848.0</ele>
        <time>2018-05-19T11:23:06.864Z</time>
      </trkpt>
      <trkpt lat="43.15725667" lon="-4.1694">
        <ele>848.0</ele>
        <time>2018-05-19T11:23:07.850Z</time>
      </trkpt>
      <trkpt lat="43.15706167" lon="-4.16960167">
        <ele>846.0</ele>
        <time>2018-05-19T11:23:08.878Z</time>
      </trkpt>
      <trkpt lat="43.15696833" lon="-4.16970667">
        <ele>845.0</ele>
        <time>2018-05-19T11:23:09.874Z</time>
      </trkpt>
      <trkpt lat="43.15696833" lon="-4.16970667">
        <ele>845.0</ele>
        <time>2018-05-19T11:23:10.874Z</time>
      </trkpt>
      <trkpt lat="43.15677833" lon="-4.16990667">
        <ele>842.0</ele>
        <time>2018-05-19T11:23:11.844Z</time>
      </trkpt>
      <trkpt lat="43.15677833" lon="-4.16990667">
        <ele>842.0</ele>
        <time>2018-05-19T11:23:12.873Z</time>
      </trkpt>
      <trkpt lat="43.1566" lon="-4.170115">
        <ele>840.0</ele>
        <time>2018-05-19T11:23:13.878Z</time>
      </trkpt>
      <trkpt lat="43.1566" lon="-4.170115">
        <ele>840.0</ele>
        <time>2018-05-19T11:23:14.873Z</time>
      </trkpt>
      <trkpt lat="43.15642167" lon="-4.1703">
        <ele>838.0</ele>
        <time>2018-05-19T11:23:15.876Z</time>
      </trkpt>
      <trkpt lat="43.15633333" lon="-4.17039">
        <ele>837.0</ele>
        <time>2018-05-19T11:23:16.857Z</time>
      </trkpt>
      <trkpt lat="43.15633333" lon="-4.17039">
        <ele>837.0</ele>
        <time>2018-05-19T11:23:17.879Z</time>
      </trkpt>
      <trkpt lat="43.15614833" lon="-4.17054333">
        <ele>834.0</ele>
        <time>2018-05-19T11:23:18.876Z</time>
      </trkpt>
      <trkpt lat="43.15604667" lon="-4.170605">
        <ele>833.0</ele>
        <time>2018-05-19T11:23:19.878Z</time>
      </trkpt>
      <trkpt lat="43.15604667" lon="-4.170605">
        <ele>833.0</ele>
        <time>2018-05-19T11:23:20.874Z</time>
      </trkpt>
      <trkpt lat="43.15583833" lon="-4.17070167">
        <ele>831.0</ele>
        <time>2018-05-19T11:23:21.874Z</time>
      </trkpt>
      <trkpt lat="43.15572833" lon="-4.17074167">
        <ele>830.0</ele>
        <time>2018-05-19T11:23:22.878Z</time>
      </trkpt>
      <trkpt lat="43.15572833" lon="-4.17074167">
        <ele>830.0</ele>
        <time>2018-05-19T11:23:23.875Z</time>
      </trkpt>
      <trkpt lat="43.15549833" lon="-4.17080333">
        <ele>828.0</ele>
        <time>2018-05-19T11:23:24.876Z</time>
      </trkpt>
      <trkpt lat="43.15538333" lon="-4.17082833">
        <ele>827.0</ele>
        <time>2018-05-19T11:23:25.878Z</time>
      </trkpt>
      <trkpt lat="43.155275" lon="-4.17085167">
        <ele>826.0</ele>
        <time>2018-05-19T11:23:26.874Z</time>
      </trkpt>
      <trkpt lat="43.155275" lon="-4.17085167">
        <ele>826.0</ele>
        <time>2018-05-19T11:23:27.865Z</time>
      </trkpt>
      <trkpt lat="43.15506167" lon="-4.17087">
        <ele>824.0</ele>
        <time>2018-05-19T11:23:28.848Z</time>
      </trkpt>
      <trkpt lat="43.15495333" lon="-4.17086667">
        <ele>822.0</ele>
        <time>2018-05-19T11:23:29.878Z</time>
      </trkpt>
      <trkpt lat="43.15495333" lon="-4.17086667">
        <ele>822.0</ele>
        <time>2018-05-19T11:23:30.873Z</time>
      </trkpt>
      <trkpt lat="43.15473833" lon="-4.17085333">
        <ele>820.0</ele>
        <time>2018-05-19T11:23:31.874Z</time>
      </trkpt>
      <trkpt lat="43.15473833" lon="-4.17085333">
        <ele>820.0</ele>
        <time>2018-05-19T11:23:32.874Z</time>
      </trkpt>
      <trkpt lat="43.15452" lon="-4.17082833">
        <ele>817.0</ele>
        <time>2018-05-19T11:23:33.876Z</time>
      </trkpt>
      <trkpt lat="43.15452" lon="-4.17082833">
        <ele>817.0</ele>
        <time>2018-05-19T11:23:34.874Z</time>
      </trkpt>
      <trkpt lat="43.15430667" lon="-4.17078667">
        <ele>815.0</ele>
        <time>2018-05-19T11:23:35.878Z</time>
      </trkpt>
      <trkpt lat="43.15420167" lon="-4.17076">
        <ele>813.0</ele>
        <time>2018-05-19T11:23:36.850Z</time>
      </trkpt>
      <trkpt lat="43.15420167" lon="-4.17076">
        <ele>813.0</ele>
        <time>2018-05-19T11:23:37.875Z</time>
      </trkpt>
      <trkpt lat="43.153995" lon="-4.170685">
        <ele>811.0</ele>
        <time>2018-05-19T11:23:38.876Z</time>
      </trkpt>
      <trkpt lat="43.153995" lon="-4.170685">
        <ele>811.0</ele>
        <time>2018-05-19T11:23:39.872Z</time>
      </trkpt>
      <trkpt lat="43.15379667" lon="-4.17059333">
        <ele>809.0</ele>
        <time>2018-05-19T11:23:40.876Z</time>
      </trkpt>
      <trkpt lat="43.15370167" lon="-4.17053833">
        <ele>808.0</ele>
        <time>2018-05-19T11:23:41.878Z</time>
      </trkpt>
      <trkpt lat="43.15370167" lon="-4.17053833">
        <ele>808.0</ele>
        <time>2018-05-19T11:23:42.874Z</time>
      </trkpt>
      <trkpt lat="43.153525" lon="-4.17042333">
        <ele>806.0</ele>
        <time>2018-05-19T11:23:43.873Z</time>
      </trkpt>
      <trkpt lat="43.153445" lon="-4.17036167">
        <ele>805.0</ele>
        <time>2018-05-19T11:23:44.878Z</time>
      </trkpt>
      <trkpt lat="43.153445" lon="-4.17036167">
        <ele>805.0</ele>
        <time>2018-05-19T11:23:45.863Z</time>
      </trkpt>
      <trkpt lat="43.15330833" lon="-4.17022">
        <ele>803.0</ele>
        <time>2018-05-19T11:23:46.870Z</time>
      </trkpt>
      <trkpt lat="43.15325167" lon="-4.17015333">
        <ele>802.0</ele>
        <time>2018-05-19T11:23:47.876Z</time>
      </trkpt>
      <trkpt lat="43.15325167" lon="-4.17015333">
        <ele>802.0</ele>
        <time>2018-05-19T11:23:48.883Z</time>
      </trkpt>
      <trkpt lat="43.15314833" lon="-4.17006667">
        <ele>800.0</ele>
        <time>2018-05-19T11:23:49.849Z</time>
      </trkpt>
      <trkpt lat="43.15309" lon="-4.170065">
        <ele>800.0</ele>
        <time>2018-05-19T11:23:50.855Z</time>
      </trkpt>
      <trkpt lat="43.15309" lon="-4.170065">
        <ele>800.0</ele>
        <time>2018-05-19T11:23:51.879Z</time>
      </trkpt>
      <trkpt lat="43.15301833" lon="-4.17016167">
        <ele>800.0</ele>
        <time>2018-05-19T11:23:52.877Z</time>
      </trkpt>
      <trkpt lat="43.15301833" lon="-4.170235">
        <ele>799.0</ele>
        <time>2018-05-19T11:23:53.845Z</time>
      </trkpt>
      <trkpt lat="43.15301833" lon="-4.170235">
        <ele>799.0</ele>
        <time>2018-05-19T11:23:54.874Z</time>
      </trkpt>
      <trkpt lat="43.15309" lon="-4.170365">
        <ele>796.0</ele>
        <time>2018-05-19T11:23:55.850Z</time>
      </trkpt>
      <trkpt lat="43.15315167" lon="-4.17041167">
        <ele>795.0</ele>
        <time>2018-05-19T11:23:56.851Z</time>
      </trkpt>
      <trkpt lat="43.15315167" lon="-4.17041167">
        <ele>795.0</ele>
        <time>2018-05-19T11:23:57.880Z</time>
      </trkpt>
      <trkpt lat="43.15328" lon="-4.17054333">
        <ele>793.0</ele>
        <time>2018-05-19T11:23:58.876Z</time>
      </trkpt>
      <trkpt lat="43.15333667" lon="-4.17064167">
        <ele>792.0</ele>
        <time>2018-05-19T11:23:59.876Z</time>
      </trkpt>
      <trkpt lat="43.15333667" lon="-4.17064167">
        <ele>792.0</ele>
        <time>2018-05-19T11:24:00.873Z</time>
      </trkpt>
      <trkpt lat="43.15345" lon="-4.17085167">
        <ele>790.0</ele>
        <time>2018-05-19T11:24:01.878Z</time>
      </trkpt>
      <trkpt lat="43.15345" lon="-4.17085167">
        <ele>790.0</ele>
        <time>2018-05-19T11:24:02.874Z</time>
      </trkpt>
      <trkpt lat="43.15358833" lon="-4.171055">
        <ele>788.0</ele>
        <time>2018-05-19T11:24:03.880Z</time>
      </trkpt>
      <trkpt lat="43.15358833" lon="-4.171055">
        <ele>788.0</ele>
        <time>2018-05-19T11:24:04.871Z</time>
      </trkpt>
      <trkpt lat="43.15374333" lon="-4.171255">
        <ele>787.0</ele>
        <time>2018-05-19T11:24:05.877Z</time>
      </trkpt>
      <trkpt lat="43.15382167" lon="-4.17135">
        <ele>786.0</ele>
        <time>2018-05-19T11:24:06.882Z</time>
      </trkpt>
      <trkpt lat="43.15382167" lon="-4.17135">
        <ele>786.0</ele>
        <time>2018-05-19T11:24:07.871Z</time>
      </trkpt>
      <trkpt lat="43.15398" lon="-4.17153833">
        <ele>784.0</ele>
        <time>2018-05-19T11:24:08.878Z</time>
      </trkpt>
      <trkpt lat="43.15405667" lon="-4.17163167">
        <ele>783.0</ele>
        <time>2018-05-19T11:24:09.876Z</time>
      </trkpt>
      <trkpt lat="43.15405667" lon="-4.17163167">
        <ele>783.0</ele>
        <time>2018-05-19T11:24:10.873Z</time>
      </trkpt>
      <trkpt lat="43.15420833" lon="-4.17181833">
        <ele>782.0</ele>
        <time>2018-05-19T11:24:11.876Z</time>
      </trkpt>
      <trkpt lat="43.15420833" lon="-4.17181833">
        <ele>782.0</ele>
        <time>2018-05-19T11:24:12.873Z</time>
      </trkpt>
      <trkpt lat="43.15437" lon="-4.17199667">
        <ele>779.0</ele>
        <time>2018-05-19T11:24:13.883Z</time>
      </trkpt>
      <trkpt lat="43.15445333" lon="-4.17208167">
        <ele>778.0</ele>
        <time>2018-05-19T11:24:14.876Z</time>
      </trkpt>
      <trkpt lat="43.15445333" lon="-4.17208167">
        <ele>778.0</ele>
        <time>2018-05-19T11:24:15.873Z</time>
      </trkpt>
      <trkpt lat="43.154625" lon="-4.17223667">
        <ele>776.0</ele>
        <time>2018-05-19T11:24:16.850Z</time>
      </trkpt>
      <trkpt lat="43.154625" lon="-4.17223667">
        <ele>776.0</ele>
        <time>2018-05-19T11:24:17.878Z</time>
      </trkpt>
      <trkpt lat="43.15479833" lon="-4.17237333">
        <ele>774.0</ele>
        <time>2018-05-19T11:24:18.876Z</time>
      </trkpt>
      <trkpt lat="43.15488833" lon="-4.17243833">
        <ele>772.0</ele>
        <time>2018-05-19T11:24:19.878Z</time>
      </trkpt>
      <trkpt lat="43.15488833" lon="-4.17243833">
        <ele>772.0</ele>
        <time>2018-05-19T11:24:20.874Z</time>
      </trkpt>
      <trkpt lat="43.15507667" lon="-4.17256167">
        <ele>770.0</ele>
        <time>2018-05-19T11:24:21.873Z</time>
      </trkpt>
      <trkpt lat="43.155175" lon="-4.17262">
        <ele>769.0</ele>
        <time>2018-05-19T11:24:22.876Z</time>
      </trkpt>
      <trkpt lat="43.155175" lon="-4.17262">
        <ele>769.0</ele>
        <time>2018-05-19T11:24:23.877Z</time>
      </trkpt>
      <trkpt lat="43.155375" lon="-4.17272">
        <ele>767.0</ele>
        <time>2018-05-19T11:24:24.874Z</time>
      </trkpt>
      <trkpt lat="43.15547667" lon="-4.17276">
        <ele>766.0</ele>
        <time>2018-05-19T11:24:25.876Z</time>
      </trkpt>
      <trkpt lat="43.15558333" lon="-4.172795">
        <ele>766.0</ele>
        <time>2018-05-19T11:24:26.864Z</time>
      </trkpt>
      <trkpt lat="43.15558333" lon="-4.172795">
        <ele>766.0</ele>
        <time>2018-05-19T11:24:27.848Z</time>
      </trkpt>
      <trkpt lat="43.15579667" lon="-4.17284833">
        <ele>764.0</ele>
        <time>2018-05-19T11:24:28.876Z</time>
      </trkpt>
      <trkpt lat="43.15589833" lon="-4.17287333">
        <ele>763.0</ele>
        <time>2018-05-19T11:24:29.850Z</time>
      </trkpt>
      <trkpt lat="43.15589833" lon="-4.17287333">
        <ele>763.0</ele>
        <time>2018-05-19T11:24:30.875Z</time>
      </trkpt>
      <trkpt lat="43.15610167" lon="-4.172935">
        <ele>760.0</ele>
        <time>2018-05-19T11:24:31.876Z</time>
      </trkpt>
      <trkpt lat="43.1562" lon="-4.17296167">
        <ele>759.0</ele>
        <time>2018-05-19T11:24:32.876Z</time>
      </trkpt>
      <trkpt lat="43.1562" lon="-4.17296167">
        <ele>759.0</ele>
        <time>2018-05-19T11:24:33.876Z</time>
      </trkpt>
      <trkpt lat="43.15638" lon="-4.17299833">
        <ele>756.0</ele>
        <time>2018-05-19T11:24:34.877Z</time>
      </trkpt>
      <trkpt lat="43.15638" lon="-4.17299833">
        <ele>756.0</ele>
        <time>2018-05-19T11:24:35.871Z</time>
      </trkpt>
      <trkpt lat="43.15654167" lon="-4.17301833">
        <ele>754.0</ele>
        <time>2018-05-19T11:24:36.857Z</time>
      </trkpt>
      <trkpt lat="43.15654167" lon="-4.17301833">
        <ele>754.0</ele>
        <time>2018-05-19T11:24:37.881Z</time>
      </trkpt>
      <trkpt lat="43.1567" lon="-4.17301667">
        <ele>752.0</ele>
        <time>2018-05-19T11:24:38.878Z</time>
      </trkpt>
      <trkpt lat="43.1567" lon="-4.17301667">
        <ele>752.0</ele>
        <time>2018-05-19T11:24:39.873Z</time>
      </trkpt>
      <trkpt lat="43.15686833" lon="-4.17297167">
        <ele>750.0</ele>
        <time>2018-05-19T11:24:40.876Z</time>
      </trkpt>
      <trkpt lat="43.15695667" lon="-4.17293167">
        <ele>749.0</ele>
        <time>2018-05-19T11:24:41.877Z</time>
      </trkpt>
      <trkpt lat="43.15695667" lon="-4.17293167">
        <ele>749.0</ele>
        <time>2018-05-19T11:24:42.871Z</time>
      </trkpt>
      <trkpt lat="43.157135" lon="-4.17282333">
        <ele>747.0</ele>
        <time>2018-05-19T11:24:43.881Z</time>
      </trkpt>
      <trkpt lat="43.157135" lon="-4.17282333">
        <ele>747.0</ele>
        <time>2018-05-19T11:24:44.876Z</time>
      </trkpt>
      <trkpt lat="43.15729167" lon="-4.17265167">
        <ele>745.0</ele>
        <time>2018-05-19T11:24:45.863Z</time>
      </trkpt>
      <trkpt lat="43.15737833" lon="-4.17256167">
        <ele>744.0</ele>
        <time>2018-05-19T11:24:46.872Z</time>
      </trkpt>
      <trkpt lat="43.15747167" lon="-4.17248">
        <ele>743.0</ele>
        <time>2018-05-19T11:24:47.879Z</time>
      </trkpt>
      <trkpt lat="43.15747167" lon="-4.17248">
        <ele>743.0</ele>
        <time>2018-05-19T11:24:48.874Z</time>
      </trkpt>
      <trkpt lat="43.15768333" lon="-4.17231667">
        <ele>741.0</ele>
        <time>2018-05-19T11:24:49.878Z</time>
      </trkpt>
      <trkpt lat="43.15768333" lon="-4.17231667">
        <ele>741.0</ele>
        <time>2018-05-19T11:24:50.873Z</time>
      </trkpt>
      <trkpt lat="43.15790333" lon="-4.17217667">
        <ele>739.0</ele>
        <time>2018-05-19T11:24:51.876Z</time>
      </trkpt>
      <trkpt lat="43.15790333" lon="-4.17217667">
        <ele>739.0</ele>
        <time>2018-05-19T11:24:52.873Z</time>
      </trkpt>
      <trkpt lat="43.15813" lon="-4.17207333">
        <ele>737.0</ele>
        <time>2018-05-19T11:24:53.872Z</time>
      </trkpt>
      <trkpt lat="43.15824167" lon="-4.17203">
        <ele>736.0</ele>
        <time>2018-05-19T11:24:54.877Z</time>
      </trkpt>
      <trkpt lat="43.158345" lon="-4.17199333">
        <ele>735.0</ele>
        <time>2018-05-19T11:24:55.878Z</time>
      </trkpt>
      <trkpt lat="43.15843333" lon="-4.17194667">
        <ele>735.0</ele>
        <time>2018-05-19T11:24:56.857Z</time>
      </trkpt>
      <trkpt lat="43.15843333" lon="-4.17194667">
        <ele>735.0</ele>
        <time>2018-05-19T11:24:57.881Z</time>
      </trkpt>
      <trkpt lat="43.15858" lon="-4.171825">
        <ele>733.0</ele>
        <time>2018-05-19T11:24:58.876Z</time>
      </trkpt>
      <trkpt lat="43.15858" lon="-4.171825">
        <ele>733.0</ele>
        <time>2018-05-19T11:24:59.875Z</time>
      </trkpt>
      <trkpt lat="43.15868667" lon="-4.17172">
        <ele>731.0</ele>
        <time>2018-05-19T11:25:00.876Z</time>
      </trkpt>
      <trkpt lat="43.15873833" lon="-4.171715">
        <ele>730.0</ele>
        <time>2018-05-19T11:25:01.876Z</time>
      </trkpt>
      <trkpt lat="43.15873833" lon="-4.171715">
        <ele>730.0</ele>
        <time>2018-05-19T11:25:02.870Z</time>
      </trkpt>
      <trkpt lat="43.15881167" lon="-4.17181">
        <ele>729.0</ele>
        <time>2018-05-19T11:25:03.876Z</time>
      </trkpt>
      <trkpt lat="43.15881167" lon="-4.17181">
        <ele>729.0</ele>
        <time>2018-05-19T11:25:04.873Z</time>
      </trkpt>
      <trkpt lat="43.15881" lon="-4.17196833">
        <ele>727.0</ele>
        <time>2018-05-19T11:25:05.877Z</time>
      </trkpt>
      <trkpt lat="43.158785" lon="-4.17204667">
        <ele>727.0</ele>
        <time>2018-05-19T11:25:06.859Z</time>
      </trkpt>
      <trkpt lat="43.158785" lon="-4.17204667">
        <ele>727.0</ele>
        <time>2018-05-19T11:25:07.844Z</time>
      </trkpt>
      <trkpt lat="43.15871833" lon="-4.17219833">
        <ele>726.0</ele>
        <time>2018-05-19T11:25:08.854Z</time>
      </trkpt>
      <trkpt lat="43.15871833" lon="-4.17219833">
        <ele>726.0</ele>
        <time>2018-05-19T11:25:09.880Z</time>
      </trkpt>
      <trkpt lat="43.15865167" lon="-4.17235667">
        <ele>724.0</ele>
        <time>2018-05-19T11:25:10.876Z</time>
      </trkpt>
      <trkpt lat="43.15862" lon="-4.17244167">
        <ele>724.0</ele>
        <time>2018-05-19T11:25:11.878Z</time>
      </trkpt>
      <trkpt lat="43.15862" lon="-4.17244167">
        <ele>724.0</ele>
        <time>2018-05-19T11:25:12.873Z</time>
      </trkpt>
      <trkpt lat="43.15855833" lon="-4.17261833">
        <ele>723.0</ele>
        <time>2018-05-19T11:25:13.876Z</time>
      </trkpt>
      <trkpt lat="43.15855833" lon="-4.17261833">
        <ele>723.0</ele>
        <time>2018-05-19T11:25:14.873Z</time>
      </trkpt>
      <trkpt lat="43.15848333" lon="-4.17280167">
        <ele>722.0</ele>
        <time>2018-05-19T11:25:15.875Z</time>
      </trkpt>
      <trkpt lat="43.158445" lon="-4.1729">
        <ele>721.0</ele>
        <time>2018-05-19T11:25:16.873Z</time>
      </trkpt>
      <trkpt lat="43.158445" lon="-4.1729">
        <ele>721.0</ele>
        <time>2018-05-19T11:25:17.874Z</time>
      </trkpt>
      <trkpt lat="43.15836" lon="-4.17309333">
        <ele>720.0</ele>
        <time>2018-05-19T11:25:18.869Z</time>
      </trkpt>
      <trkpt lat="43.15836" lon="-4.17309333">
        <ele>720.0</ele>
        <time>2018-05-19T11:25:19.871Z</time>
      </trkpt>
      <trkpt lat="43.15827167" lon="-4.1733">
        <ele>719.0</ele>
        <time>2018-05-19T11:25:20.876Z</time>
      </trkpt>
      <trkpt lat="43.15827167" lon="-4.1733">
        <ele>719.0</ele>
        <time>2018-05-19T11:25:21.873Z</time>
      </trkpt>
      <trkpt lat="43.15819167" lon="-4.17351833">
        <ele>718.0</ele>
        <time>2018-05-19T11:25:22.876Z</time>
      </trkpt>
      <trkpt lat="43.15816333" lon="-4.17363">
        <ele>717.0</ele>
        <time>2018-05-19T11:25:23.879Z</time>
      </trkpt>
      <trkpt lat="43.15816333" lon="-4.17363">
        <ele>717.0</ele>
        <time>2018-05-19T11:25:24.871Z</time>
      </trkpt>
      <trkpt lat="43.15810333" lon="-4.17386333">
        <ele>716.0</ele>
        <time>2018-05-19T11:25:25.874Z</time>
      </trkpt>
      <trkpt lat="43.15810333" lon="-4.17386333">
        <ele>716.0</ele>
        <time>2018-05-19T11:25:26.855Z</time>
      </trkpt>
      <trkpt lat="43.15803667" lon="-4.174085">
        <ele>715.0</ele>
        <time>2018-05-19T11:25:27.850Z</time>
      </trkpt>
      <trkpt lat="43.15803667" lon="-4.174085">
        <ele>715.0</ele>
        <time>2018-05-19T11:25:28.875Z</time>
      </trkpt>
      <trkpt lat="43.158" lon="-4.17429333">
        <ele>714.0</ele>
        <time>2018-05-19T11:25:29.879Z</time>
      </trkpt>
      <trkpt lat="43.158" lon="-4.17429333">
        <ele>714.0</ele>
        <time>2018-05-19T11:25:30.873Z</time>
      </trkpt>
      <trkpt lat="43.158045" lon="-4.17452333">
        <ele>713.0</ele>
        <time>2018-05-19T11:25:31.878Z</time>
      </trkpt>
      <trkpt lat="43.158045" lon="-4.17452333">
        <ele>713.0</ele>
        <time>2018-05-19T11:25:32.873Z</time>
      </trkpt>
      <trkpt lat="43.158145" lon="-4.17474167">
        <ele>711.0</ele>
        <time>2018-05-19T11:25:33.876Z</time>
      </trkpt>
      <trkpt lat="43.158145" lon="-4.17474167">
        <ele>711.0</ele>
        <time>2018-05-19T11:25:34.872Z</time>
      </trkpt>
      <trkpt lat="43.15826833" lon="-4.17496833">
        <ele>710.0</ele>
        <time>2018-05-19T11:25:35.878Z</time>
      </trkpt>
      <trkpt lat="43.15826833" lon="-4.17496833">
        <ele>710.0</ele>
        <time>2018-05-19T11:25:36.846Z</time>
      </trkpt>
      <trkpt lat="43.158395" lon="-4.175205">
        <ele>708.0</ele>
        <time>2018-05-19T11:25:37.878Z</time>
      </trkpt>
      <trkpt lat="43.158395" lon="-4.175205">
        <ele>708.0</ele>
        <time>2018-05-19T11:25:38.874Z</time>
      </trkpt>
      <trkpt lat="43.15853" lon="-4.175435">
        <ele>707.0</ele>
        <time>2018-05-19T11:25:39.875Z</time>
      </trkpt>
      <trkpt lat="43.15853" lon="-4.175435">
        <ele>707.0</ele>
        <time>2018-05-19T11:25:40.870Z</time>
      </trkpt>
      <trkpt lat="43.15865167" lon="-4.17567667">
        <ele>706.0</ele>
        <time>2018-05-19T11:25:41.874Z</time>
      </trkpt>
      <trkpt lat="43.15865167" lon="-4.17567667">
        <ele>706.0</ele>
        <time>2018-05-19T11:25:42.873Z</time>
      </trkpt>
      <trkpt lat="43.15877167" lon="-4.17593167">
        <ele>704.0</ele>
        <time>2018-05-19T11:25:43.876Z</time>
      </trkpt>
      <trkpt lat="43.15877167" lon="-4.17593167">
        <ele>704.0</ele>
        <time>2018-05-19T11:25:44.876Z</time>
      </trkpt>
      <trkpt lat="43.15888333" lon="-4.176185">
        <ele>702.0</ele>
        <time>2018-05-19T11:25:45.868Z</time>
      </trkpt>
      <trkpt lat="43.15893167" lon="-4.17631167">
        <ele>701.0</ele>
        <time>2018-05-19T11:25:46.853Z</time>
      </trkpt>
      <trkpt lat="43.15897667" lon="-4.17643833">
        <ele>701.0</ele>
        <time>2018-05-19T11:25:47.865Z</time>
      </trkpt>
      <trkpt lat="43.15897667" lon="-4.17643833">
        <ele>701.0</ele>
        <time>2018-05-19T11:25:48.872Z</time>
      </trkpt>
      <trkpt lat="43.159075" lon="-4.176695">
        <ele>699.0</ele>
        <time>2018-05-19T11:25:49.878Z</time>
      </trkpt>
      <trkpt lat="43.159075" lon="-4.176695">
        <ele>699.0</ele>
        <time>2018-05-19T11:25:50.844Z</time>
      </trkpt>
      <trkpt lat="43.15918333" lon="-4.17696">
        <ele>697.0</ele>
        <time>2018-05-19T11:25:51.875Z</time>
      </trkpt>
      <trkpt lat="43.15918333" lon="-4.17696">
        <ele>697.0</ele>
        <time>2018-05-19T11:25:52.873Z</time>
      </trkpt>
      <trkpt lat="43.15928833" lon="-4.17723">
        <ele>696.0</ele>
        <time>2018-05-19T11:25:53.868Z</time>
      </trkpt>
      <trkpt lat="43.15933833" lon="-4.17736667">
        <ele>695.0</ele>
        <time>2018-05-19T11:25:54.879Z</time>
      </trkpt>
      <trkpt lat="43.15933833" lon="-4.17736667">
        <ele>695.0</ele>
        <time>2018-05-19T11:25:55.871Z</time>
      </trkpt>
      <trkpt lat="43.159435" lon="-4.17764167">
        <ele>693.0</ele>
        <time>2018-05-19T11:25:56.882Z</time>
      </trkpt>
      <trkpt lat="43.159435" lon="-4.17764167">
        <ele>693.0</ele>
        <time>2018-05-19T11:25:57.873Z</time>
      </trkpt>
      <trkpt lat="43.15954" lon="-4.17789667">
        <ele>690.0</ele>
        <time>2018-05-19T11:25:58.874Z</time>
      </trkpt>
      <trkpt lat="43.15959167" lon="-4.17801667">
        <ele>689.0</ele>
        <time>2018-05-19T11:25:59.878Z</time>
      </trkpt>
      <trkpt lat="43.15959167" lon="-4.17801667">
        <ele>689.0</ele>
        <time>2018-05-19T11:26:00.873Z</time>
      </trkpt>
      <trkpt lat="43.159695" lon="-4.17823333">
        <ele>687.0</ele>
        <time>2018-05-19T11:26:01.876Z</time>
      </trkpt>
      <trkpt lat="43.159695" lon="-4.17823333">
        <ele>687.0</ele>
        <time>2018-05-19T11:26:02.873Z</time>
      </trkpt>
      <trkpt lat="43.15981333" lon="-4.17840833">
        <ele>686.0</ele>
        <time>2018-05-19T11:26:03.876Z</time>
      </trkpt>
      <trkpt lat="43.15981333" lon="-4.17840833">
        <ele>686.0</ele>
        <time>2018-05-19T11:26:04.880Z</time>
      </trkpt>
      <trkpt lat="43.15997" lon="-4.17851333">
        <ele>684.0</ele>
        <time>2018-05-19T11:26:05.876Z</time>
      </trkpt>
      <trkpt lat="43.15997" lon="-4.17851333">
        <ele>684.0</ele>
        <time>2018-05-19T11:26:06.847Z</time>
      </trkpt>
      <trkpt lat="43.160145" lon="-4.17855333">
        <ele>682.0</ele>
        <time>2018-05-19T11:26:07.876Z</time>
      </trkpt>
      <trkpt lat="43.160145" lon="-4.17855333">
        <ele>682.0</ele>
        <time>2018-05-19T11:26:08.874Z</time>
      </trkpt>
      <trkpt lat="43.16029333" lon="-4.17859167">
        <ele>680.0</ele>
        <time>2018-05-19T11:26:09.875Z</time>
      </trkpt>
      <trkpt lat="43.16029333" lon="-4.17859167">
        <ele>680.0</ele>
        <time>2018-05-19T11:26:10.872Z</time>
      </trkpt>
      <trkpt lat="43.16039333" lon="-4.17867667">
        <ele>678.0</ele>
        <time>2018-05-19T11:26:11.878Z</time>
      </trkpt>
      <trkpt lat="43.16039333" lon="-4.17867667">
        <ele>678.0</ele>
        <time>2018-05-19T11:26:12.873Z</time>
      </trkpt>
      <trkpt lat="43.16040333" lon="-4.17881167">
        <ele>677.0</ele>
        <time>2018-05-19T11:26:13.877Z</time>
      </trkpt>
      <trkpt lat="43.16040333" lon="-4.17881167">
        <ele>677.0</ele>
        <time>2018-05-19T11:26:14.875Z</time>
      </trkpt>
      <trkpt lat="43.16033" lon="-4.17894333">
        <ele>675.0</ele>
        <time>2018-05-19T11:26:15.875Z</time>
      </trkpt>
      <trkpt lat="43.16033" lon="-4.17894333">
        <ele>675.0</ele>
        <time>2018-05-19T11:26:16.854Z</time>
      </trkpt>
      <trkpt lat="43.16020667" lon="-4.17903">
        <ele>674.0</ele>
        <time>2018-05-19T11:26:17.883Z</time>
      </trkpt>
      <trkpt lat="43.16020667" lon="-4.17903">
        <ele>674.0</ele>
        <time>2018-05-19T11:26:18.872Z</time>
      </trkpt>
      <trkpt lat="43.16008333" lon="-4.17913833">
        <ele>673.0</ele>
        <time>2018-05-19T11:26:19.874Z</time>
      </trkpt>
      <trkpt lat="43.16008333" lon="-4.17913833">
        <ele>673.0</ele>
        <time>2018-05-19T11:26:20.871Z</time>
      </trkpt>
      <trkpt lat="43.16000167" lon="-4.17931667">
        <ele>672.0</ele>
        <time>2018-05-19T11:26:21.878Z</time>
      </trkpt>
      <trkpt lat="43.16000167" lon="-4.17931667">
        <ele>672.0</ele>
        <time>2018-05-19T11:26:22.873Z</time>
      </trkpt>
      <trkpt lat="43.16000333" lon="-4.17954667">
        <ele>671.0</ele>
        <time>2018-05-19T11:26:23.877Z</time>
      </trkpt>
      <trkpt lat="43.16000333" lon="-4.17954667">
        <ele>671.0</ele>
        <time>2018-05-19T11:26:24.848Z</time>
      </trkpt>
      <trkpt lat="43.160065" lon="-4.17979333">
        <ele>670.0</ele>
        <time>2018-05-19T11:26:25.876Z</time>
      </trkpt>
      <trkpt lat="43.160065" lon="-4.17979333">
        <ele>670.0</ele>
        <time>2018-05-19T11:26:26.866Z</time>
      </trkpt>
      <trkpt lat="43.16016667" lon="-4.18003167">
        <ele>668.0</ele>
        <time>2018-05-19T11:26:27.876Z</time>
      </trkpt>
      <trkpt lat="43.16016667" lon="-4.18003167">
        <ele>668.0</ele>
        <time>2018-05-19T11:26:28.875Z</time>
      </trkpt>
      <trkpt lat="43.16024667" lon="-4.18028333">
        <ele>667.0</ele>
        <time>2018-05-19T11:26:29.879Z</time>
      </trkpt>
      <trkpt lat="43.16024667" lon="-4.18028333">
        <ele>667.0</ele>
        <time>2018-05-19T11:26:30.873Z</time>
      </trkpt>
      <trkpt lat="43.1603" lon="-4.18054">
        <ele>665.0</ele>
        <time>2018-05-19T11:26:31.876Z</time>
      </trkpt>
      <trkpt lat="43.1603" lon="-4.18054">
        <ele>665.0</ele>
        <time>2018-05-19T11:26:32.872Z</time>
      </trkpt>
      <trkpt lat="43.16032" lon="-4.18081667">
        <ele>664.0</ele>
        <time>2018-05-19T11:26:33.878Z</time>
      </trkpt>
      <trkpt lat="43.16032" lon="-4.18081667">
        <ele>664.0</ele>
        <time>2018-05-19T11:26:34.873Z</time>
      </trkpt>
      <trkpt lat="43.16030333" lon="-4.18108333">
        <ele>663.0</ele>
        <time>2018-05-19T11:26:35.874Z</time>
      </trkpt>
      <trkpt lat="43.16030333" lon="-4.18108333">
        <ele>663.0</ele>
        <time>2018-05-19T11:26:36.854Z</time>
      </trkpt>
      <trkpt lat="43.16028833" lon="-4.18134833">
        <ele>661.0</ele>
        <time>2018-05-19T11:26:37.844Z</time>
      </trkpt>
      <trkpt lat="43.16028833" lon="-4.18134833">
        <ele>661.0</ele>
        <time>2018-05-19T11:26:38.873Z</time>
      </trkpt>
      <trkpt lat="43.16031167" lon="-4.18163167">
        <ele>659.0</ele>
        <time>2018-05-19T11:26:39.875Z</time>
      </trkpt>
      <trkpt lat="43.16031167" lon="-4.18163167">
        <ele>659.0</ele>
        <time>2018-05-19T11:26:40.872Z</time>
      </trkpt>
      <trkpt lat="43.16032833" lon="-4.18192167">
        <ele>657.0</ele>
        <time>2018-05-19T11:26:41.877Z</time>
      </trkpt>
      <trkpt lat="43.16032833" lon="-4.18192167">
        <ele>657.0</ele>
        <time>2018-05-19T11:26:42.872Z</time>
      </trkpt>
      <trkpt lat="43.16032667" lon="-4.18219">
        <ele>655.0</ele>
        <time>2018-05-19T11:26:43.876Z</time>
      </trkpt>
      <trkpt lat="43.16032667" lon="-4.18219">
        <ele>655.0</ele>
        <time>2018-05-19T11:26:44.872Z</time>
      </trkpt>
      <trkpt lat="43.16034667" lon="-4.18244833">
        <ele>654.0</ele>
        <time>2018-05-19T11:26:45.870Z</time>
      </trkpt>
      <trkpt lat="43.16038" lon="-4.182575">
        <ele>652.0</ele>
        <time>2018-05-19T11:26:46.870Z</time>
      </trkpt>
      <trkpt lat="43.16038" lon="-4.182575">
        <ele>652.0</ele>
        <time>2018-05-19T11:26:47.876Z</time>
      </trkpt>
      <trkpt lat="43.16047833" lon="-4.18283333">
        <ele>651.0</ele>
        <time>2018-05-19T11:26:48.876Z</time>
      </trkpt>
      <trkpt lat="43.16053833" lon="-4.18296667">
        <ele>649.0</ele>
        <time>2018-05-19T11:26:49.876Z</time>
      </trkpt>
      <trkpt lat="43.16053833" lon="-4.18296667">
        <ele>649.0</ele>
        <time>2018-05-19T11:26:50.844Z</time>
      </trkpt>
      <trkpt lat="43.16066833" lon="-4.18322667">
        <ele>647.0</ele>
        <time>2018-05-19T11:26:51.875Z</time>
      </trkpt>
      <trkpt lat="43.16066833" lon="-4.18322667">
        <ele>647.0</ele>
        <time>2018-05-19T11:26:52.872Z</time>
      </trkpt>
      <trkpt lat="43.16081" lon="-4.18346333">
        <ele>645.0</ele>
        <time>2018-05-19T11:26:53.845Z</time>
      </trkpt>
      <trkpt lat="43.16081" lon="-4.18346333">
        <ele>645.0</ele>
        <time>2018-05-19T11:26:54.873Z</time>
      </trkpt>
      <trkpt lat="43.16095667" lon="-4.18364667">
        <ele>643.0</ele>
        <time>2018-05-19T11:26:55.876Z</time>
      </trkpt>
      <trkpt lat="43.16095667" lon="-4.18364667">
        <ele>643.0</ele>
        <time>2018-05-19T11:26:56.871Z</time>
      </trkpt>
      <trkpt lat="43.16107333" lon="-4.1838">
        <ele>642.0</ele>
        <time>2018-05-19T11:26:57.875Z</time>
      </trkpt>
      <trkpt lat="43.16107333" lon="-4.1838">
        <ele>642.0</ele>
        <time>2018-05-19T11:26:58.872Z</time>
      </trkpt>
      <trkpt lat="43.16110167" lon="-4.18399667">
        <ele>640.0</ele>
        <time>2018-05-19T11:26:59.874Z</time>
      </trkpt>
      <trkpt lat="43.16110167" lon="-4.18399667">
        <ele>640.0</ele>
        <time>2018-05-19T11:27:00.872Z</time>
      </trkpt>
      <trkpt lat="43.161075" lon="-4.18421667">
        <ele>638.0</ele>
        <time>2018-05-19T11:27:01.876Z</time>
      </trkpt>
      <trkpt lat="43.161075" lon="-4.18421667">
        <ele>638.0</ele>
        <time>2018-05-19T11:27:02.873Z</time>
      </trkpt>
      <trkpt lat="43.16109" lon="-4.184445">
        <ele>637.0</ele>
        <time>2018-05-19T11:27:03.875Z</time>
      </trkpt>
      <trkpt lat="43.16111" lon="-4.18455833">
        <ele>636.0</ele>
        <time>2018-05-19T11:27:04.882Z</time>
      </trkpt>
      <trkpt lat="43.16111" lon="-4.18455833">
        <ele>636.0</ele>
        <time>2018-05-19T11:27:05.878Z</time>
      </trkpt>
      <trkpt lat="43.16118833" lon="-4.18476833">
        <ele>634.0</ele>
        <time>2018-05-19T11:27:06.861Z</time>
      </trkpt>
      <trkpt lat="43.161245" lon="-4.18485833">
        <ele>633.0</ele>
        <time>2018-05-19T11:27:07.846Z</time>
      </trkpt>
      <trkpt lat="43.161245" lon="-4.18485833">
        <ele>633.0</ele>
        <time>2018-05-19T11:27:08.877Z</time>
      </trkpt>
      <trkpt lat="43.16137167" lon="-4.185045">
        <ele>632.0</ele>
        <time>2018-05-19T11:27:09.873Z</time>
      </trkpt>
      <trkpt lat="43.16137167" lon="-4.185045">
        <ele>632.0</ele>
        <time>2018-05-19T11:27:10.870Z</time>
      </trkpt>
      <trkpt lat="43.16148833" lon="-4.18525667">
        <ele>630.0</ele>
        <time>2018-05-19T11:27:11.875Z</time>
      </trkpt>
      <trkpt lat="43.16148833" lon="-4.18525667">
        <ele>630.0</ele>
        <time>2018-05-19T11:27:12.872Z</time>
      </trkpt>
      <trkpt lat="43.16158667" lon="-4.18548667">
        <ele>629.0</ele>
        <time>2018-05-19T11:27:13.876Z</time>
      </trkpt>
      <trkpt lat="43.16158667" lon="-4.18548667">
        <ele>629.0</ele>
        <time>2018-05-19T11:27:14.869Z</time>
      </trkpt>
      <trkpt lat="43.161685" lon="-4.185715">
        <ele>628.0</ele>
        <time>2018-05-19T11:27:15.875Z</time>
      </trkpt>
      <trkpt lat="43.161685" lon="-4.185715">
        <ele>628.0</ele>
        <time>2018-05-19T11:27:16.883Z</time>
      </trkpt>
      <trkpt lat="43.16179" lon="-4.18593333">
        <ele>627.0</ele>
        <time>2018-05-19T11:27:17.876Z</time>
      </trkpt>
      <trkpt lat="43.16179" lon="-4.18593333">
        <ele>627.0</ele>
        <time>2018-05-19T11:27:18.870Z</time>
      </trkpt>
      <trkpt lat="43.161925" lon="-4.18613">
        <ele>625.0</ele>
        <time>2018-05-19T11:27:19.862Z</time>
      </trkpt>
      <trkpt lat="43.161925" lon="-4.18613">
        <ele>625.0</ele>
        <time>2018-05-19T11:27:20.854Z</time>
      </trkpt>
      <trkpt lat="43.16208" lon="-4.18631">
        <ele>625.0</ele>
        <time>2018-05-19T11:27:21.881Z</time>
      </trkpt>
      <trkpt lat="43.162155" lon="-4.18640667">
        <ele>625.0</ele>
        <time>2018-05-19T11:27:22.875Z</time>
      </trkpt>
      <trkpt lat="43.16222167" lon="-4.18651167">
        <ele>624.0</ele>
        <time>2018-05-19T11:27:23.876Z</time>
      </trkpt>
      <trkpt lat="43.16222167" lon="-4.18651167">
        <ele>624.0</ele>
        <time>2018-05-19T11:27:24.873Z</time>
      </trkpt>
      <trkpt lat="43.16233667" lon="-4.18673">
        <ele>624.0</ele>
        <time>2018-05-19T11:27:25.874Z</time>
      </trkpt>
      <trkpt lat="43.16238" lon="-4.18684833">
        <ele>624.0</ele>
        <time>2018-05-19T11:27:26.875Z</time>
      </trkpt>
      <trkpt lat="43.16240167" lon="-4.18697333">
        <ele>623.0</ele>
        <time>2018-05-19T11:27:27.874Z</time>
      </trkpt>
      <trkpt lat="43.16242167" lon="-4.18709833">
        <ele>623.0</ele>
        <time>2018-05-19T11:27:28.875Z</time>
      </trkpt>
      <trkpt lat="43.16242167" lon="-4.18709833">
        <ele>623.0</ele>
        <time>2018-05-19T11:27:29.873Z</time>
      </trkpt>
      <trkpt lat="43.16249333" lon="-4.18734167">
        <ele>623.0</ele>
        <time>2018-05-19T11:27:30.875Z</time>
      </trkpt>
      <trkpt lat="43.16253833" lon="-4.18745833">
        <ele>623.0</ele>
        <time>2018-05-19T11:27:31.875Z</time>
      </trkpt>
      <trkpt lat="43.16253833" lon="-4.18745833">
        <ele>623.0</ele>
        <time>2018-05-19T11:27:32.869Z</time>
      </trkpt>
      <trkpt lat="43.162625" lon="-4.187695">
        <ele>622.0</ele>
        <time>2018-05-19T11:27:33.877Z</time>
      </trkpt>
      <trkpt lat="43.162625" lon="-4.187695">
        <ele>622.0</ele>
        <time>2018-05-19T11:27:34.872Z</time>
      </trkpt>
      <trkpt lat="43.16270833" lon="-4.18793833">
        <ele>621.0</ele>
        <time>2018-05-19T11:27:35.844Z</time>
      </trkpt>
      <trkpt lat="43.16270833" lon="-4.18793833">
        <ele>621.0</ele>
        <time>2018-05-19T11:27:36.847Z</time>
      </trkpt>
      <trkpt lat="43.16278167" lon="-4.18818833">
        <ele>620.0</ele>
        <time>2018-05-19T11:27:37.877Z</time>
      </trkpt>
      <trkpt lat="43.16278167" lon="-4.18818833">
        <ele>620.0</ele>
        <time>2018-05-19T11:27:38.872Z</time>
      </trkpt>
      <trkpt lat="43.16284667" lon="-4.18844333">
        <ele>619.0</ele>
        <time>2018-05-19T11:27:39.874Z</time>
      </trkpt>
      <trkpt lat="43.16284667" lon="-4.18844333">
        <ele>619.0</ele>
        <time>2018-05-19T11:27:40.869Z</time>
      </trkpt>
      <trkpt lat="43.162905" lon="-4.18869833">
        <ele>618.0</ele>
        <time>2018-05-19T11:27:41.876Z</time>
      </trkpt>
      <trkpt lat="43.162905" lon="-4.18869833">
        <ele>618.0</ele>
        <time>2018-05-19T11:27:42.872Z</time>
      </trkpt>
      <trkpt lat="43.162945" lon="-4.18895167">
        <ele>618.0</ele>
        <time>2018-05-19T11:27:43.876Z</time>
      </trkpt>
      <trkpt lat="43.162945" lon="-4.18895167">
        <ele>618.0</ele>
        <time>2018-05-19T11:27:44.869Z</time>
      </trkpt>
      <trkpt lat="43.162985" lon="-4.18920167">
        <ele>617.0</ele>
        <time>2018-05-19T11:27:45.883Z</time>
      </trkpt>
      <trkpt lat="43.162985" lon="-4.18920167">
        <ele>617.0</ele>
        <time>2018-05-19T11:27:46.855Z</time>
      </trkpt>
      <trkpt lat="43.16303" lon="-4.18944667">
        <ele>617.0</ele>
        <time>2018-05-19T11:27:47.862Z</time>
      </trkpt>
      <trkpt lat="43.16303" lon="-4.18944667">
        <ele>617.0</ele>
        <time>2018-05-19T11:27:48.869Z</time>
      </trkpt>
      <trkpt lat="43.1631" lon="-4.189685">
        <ele>616.0</ele>
        <time>2018-05-19T11:27:49.875Z</time>
      </trkpt>
      <trkpt lat="43.16314" lon="-4.18980167">
        <ele>615.0</ele>
        <time>2018-05-19T11:27:50.881Z</time>
      </trkpt>
      <trkpt lat="43.163185" lon="-4.18991667">
        <ele>615.0</ele>
        <time>2018-05-19T11:27:51.875Z</time>
      </trkpt>
      <trkpt lat="43.163185" lon="-4.18991667">
        <ele>615.0</ele>
        <time>2018-05-19T11:27:52.869Z</time>
      </trkpt>
      <trkpt lat="43.163295" lon="-4.190135">
        <ele>614.0</ele>
        <time>2018-05-19T11:27:53.870Z</time>
      </trkpt>
      <trkpt lat="43.163295" lon="-4.190135">
        <ele>614.0</ele>
        <time>2018-05-19T11:27:54.869Z</time>
      </trkpt>
      <trkpt lat="43.16341" lon="-4.19035833">
        <ele>613.0</ele>
        <time>2018-05-19T11:27:55.876Z</time>
      </trkpt>
      <trkpt lat="43.16341" lon="-4.19035833">
        <ele>613.0</ele>
        <time>2018-05-19T11:27:56.859Z</time>
      </trkpt>
      <trkpt lat="43.163515" lon="-4.19057667">
        <ele>612.0</ele>
        <time>2018-05-19T11:27:57.845Z</time>
      </trkpt>
      <trkpt lat="43.163575" lon="-4.19067167">
        <ele>612.0</ele>
        <time>2018-05-19T11:27:58.875Z</time>
      </trkpt>
      <trkpt lat="43.16363833" lon="-4.19074667">
        <ele>611.0</ele>
        <time>2018-05-19T11:27:59.878Z</time>
      </trkpt>
      <trkpt lat="43.16363833" lon="-4.19074667">
        <ele>611.0</ele>
        <time>2018-05-19T11:28:00.872Z</time>
      </trkpt>
      <trkpt lat="43.163765" lon="-4.19088167">
        <ele>611.0</ele>
        <time>2018-05-19T11:28:01.875Z</time>
      </trkpt>
      <trkpt lat="43.163765" lon="-4.19088167">
        <ele>611.0</ele>
        <time>2018-05-19T11:28:02.872Z</time>
      </trkpt>
      <trkpt lat="43.16384" lon="-4.19107833">
        <ele>611.0</ele>
        <time>2018-05-19T11:28:03.875Z</time>
      </trkpt>
      <trkpt lat="43.16387" lon="-4.19119167">
        <ele>610.0</ele>
        <time>2018-05-19T11:28:04.875Z</time>
      </trkpt>
      <trkpt lat="43.163905" lon="-4.19130667">
        <ele>610.0</ele>
        <time>2018-05-19T11:28:05.876Z</time>
      </trkpt>
      <trkpt lat="43.163905" lon="-4.19130667">
        <ele>610.0</ele>
        <time>2018-05-19T11:28:06.882Z</time>
      </trkpt>
      <trkpt lat="43.16397667" lon="-4.19155333">
        <ele>609.0</ele>
        <time>2018-05-19T11:28:07.876Z</time>
      </trkpt>
      <trkpt lat="43.16397667" lon="-4.19155333">
        <ele>609.0</ele>
        <time>2018-05-19T11:28:08.870Z</time>
      </trkpt>
      <trkpt lat="43.16402333" lon="-4.191835">
        <ele>608.0</ele>
        <time>2018-05-19T11:28:09.875Z</time>
      </trkpt>
      <trkpt lat="43.16402333" lon="-4.191835">
        <ele>608.0</ele>
        <time>2018-05-19T11:28:10.872Z</time>
      </trkpt>
      <trkpt lat="43.164045" lon="-4.19213">
        <ele>606.0</ele>
        <time>2018-05-19T11:28:11.877Z</time>
      </trkpt>
      <trkpt lat="43.164045" lon="-4.19213">
        <ele>606.0</ele>
        <time>2018-05-19T11:28:12.870Z</time>
      </trkpt>
      <trkpt lat="43.164065" lon="-4.19243167">
        <ele>604.0</ele>
        <time>2018-05-19T11:28:13.876Z</time>
      </trkpt>
      <trkpt lat="43.164065" lon="-4.19243167">
        <ele>604.0</ele>
        <time>2018-05-19T11:28:14.872Z</time>
      </trkpt>
      <trkpt lat="43.16409667" lon="-4.19272667">
        <ele>602.0</ele>
        <time>2018-05-19T11:28:15.874Z</time>
      </trkpt>
      <trkpt lat="43.16409667" lon="-4.19272667">
        <ele>602.0</ele>
        <time>2018-05-19T11:28:16.882Z</time>
      </trkpt>
      <trkpt lat="43.16415333" lon="-4.19300167">
        <ele>600.0</ele>
        <time>2018-05-19T11:28:17.875Z</time>
      </trkpt>
      <trkpt lat="43.16415333" lon="-4.19300167">
        <ele>600.0</ele>
        <time>2018-05-19T11:28:18.872Z</time>
      </trkpt>
      <trkpt lat="43.164185" lon="-4.19327833">
        <ele>598.0</ele>
        <time>2018-05-19T11:28:19.875Z</time>
      </trkpt>
      <trkpt lat="43.164185" lon="-4.19327833">
        <ele>598.0</ele>
        <time>2018-05-19T11:28:20.844Z</time>
      </trkpt>
      <trkpt lat="43.16418" lon="-4.193565">
        <ele>597.0</ele>
        <time>2018-05-19T11:28:21.877Z</time>
      </trkpt>
      <trkpt lat="43.16418" lon="-4.193565">
        <ele>597.0</ele>
        <time>2018-05-19T11:28:22.872Z</time>
      </trkpt>
      <trkpt lat="43.16416667" lon="-4.193855">
        <ele>595.0</ele>
        <time>2018-05-19T11:28:23.876Z</time>
      </trkpt>
      <trkpt lat="43.16416667" lon="-4.193855">
        <ele>595.0</ele>
        <time>2018-05-19T11:28:24.872Z</time>
      </trkpt>
      <trkpt lat="43.164195" lon="-4.194165">
        <ele>592.0</ele>
        <time>2018-05-19T11:28:25.875Z</time>
      </trkpt>
      <trkpt lat="43.164195" lon="-4.194165">
        <ele>592.0</ele>
        <time>2018-05-19T11:28:26.861Z</time>
      </trkpt>
      <trkpt lat="43.164265" lon="-4.194475">
        <ele>589.0</ele>
        <time>2018-05-19T11:28:27.845Z</time>
      </trkpt>
      <trkpt lat="43.164265" lon="-4.194475">
        <ele>589.0</ele>
        <time>2018-05-19T11:28:28.873Z</time>
      </trkpt>
      <trkpt lat="43.16433" lon="-4.19477333">
        <ele>587.0</ele>
        <time>2018-05-19T11:28:29.876Z</time>
      </trkpt>
      <trkpt lat="43.16433" lon="-4.19477333">
        <ele>587.0</ele>
        <time>2018-05-19T11:28:30.872Z</time>
      </trkpt>
      <trkpt lat="43.16436833" lon="-4.19509">
        <ele>585.0</ele>
        <time>2018-05-19T11:28:31.846Z</time>
      </trkpt>
      <trkpt lat="43.16436833" lon="-4.19509">
        <ele>585.0</ele>
        <time>2018-05-19T11:28:32.875Z</time>
      </trkpt>
      <trkpt lat="43.1644" lon="-4.19541333">
        <ele>583.0</ele>
        <time>2018-05-19T11:28:33.875Z</time>
      </trkpt>
      <trkpt lat="43.16442667" lon="-4.19557333">
        <ele>582.0</ele>
        <time>2018-05-19T11:28:34.875Z</time>
      </trkpt>
      <trkpt lat="43.16445833" lon="-4.19573">
        <ele>581.0</ele>
        <time>2018-05-19T11:28:35.876Z</time>
      </trkpt>
      <trkpt lat="43.16445833" lon="-4.19573">
        <ele>581.0</ele>
        <time>2018-05-19T11:28:36.854Z</time>
      </trkpt>
      <trkpt lat="43.16451333" lon="-4.19603">
        <ele>579.0</ele>
        <time>2018-05-19T11:28:37.877Z</time>
      </trkpt>
      <trkpt lat="43.16451333" lon="-4.19603">
        <ele>579.0</ele>
        <time>2018-05-19T11:28:38.869Z</time>
      </trkpt>
      <trkpt lat="43.16457167" lon="-4.196295">
        <ele>577.0</ele>
        <time>2018-05-19T11:28:39.875Z</time>
      </trkpt>
      <trkpt lat="43.16457167" lon="-4.196295">
        <ele>577.0</ele>
        <time>2018-05-19T11:28:40.872Z</time>
      </trkpt>
      <trkpt lat="43.16463" lon="-4.196545">
        <ele>575.0</ele>
        <time>2018-05-19T11:28:41.873Z</time>
      </trkpt>
      <trkpt lat="43.16463" lon="-4.196545">
        <ele>575.0</ele>
        <time>2018-05-19T11:28:42.869Z</time>
      </trkpt>
      <trkpt lat="43.16461833" lon="-4.196795">
        <ele>573.0</ele>
        <time>2018-05-19T11:28:43.874Z</time>
      </trkpt>
      <trkpt lat="43.16461833" lon="-4.196795">
        <ele>573.0</ele>
        <time>2018-05-19T11:28:44.872Z</time>
      </trkpt>
      <trkpt lat="43.16455167" lon="-4.19701833">
        <ele>571.0</ele>
        <time>2018-05-19T11:28:45.844Z</time>
      </trkpt>
      <trkpt lat="43.16453" lon="-4.19712667">
        <ele>571.0</ele>
        <time>2018-05-19T11:28:46.866Z</time>
      </trkpt>
      <trkpt lat="43.16451833" lon="-4.19723333">
        <ele>571.0</ele>
        <time>2018-05-19T11:28:47.873Z</time>
      </trkpt>
      <trkpt lat="43.16451833" lon="-4.19723333">
        <ele>571.0</ele>
        <time>2018-05-19T11:28:48.879Z</time>
      </trkpt>
      <trkpt lat="43.16452833" lon="-4.19744667">
        <ele>570.0</ele>
        <time>2018-05-19T11:28:49.872Z</time>
      </trkpt>
      <trkpt lat="43.16452833" lon="-4.19744667">
        <ele>570.0</ele>
        <time>2018-05-19T11:28:50.872Z</time>
      </trkpt>
      <trkpt lat="43.16457333" lon="-4.19765833">
        <ele>569.0</ele>
        <time>2018-05-19T11:28:51.871Z</time>
      </trkpt>
      <trkpt lat="43.16459833" lon="-4.19777">
        <ele>569.0</ele>
        <time>2018-05-19T11:28:52.875Z</time>
      </trkpt>
      <trkpt lat="43.16459833" lon="-4.19777">
        <ele>569.0</ele>
        <time>2018-05-19T11:28:53.865Z</time>
      </trkpt>
      <trkpt lat="43.164635" lon="-4.19800667">
        <ele>568.0</ele>
        <time>2018-05-19T11:28:54.850Z</time>
      </trkpt>
      <trkpt lat="43.164635" lon="-4.19800667">
        <ele>568.0</ele>
        <time>2018-05-19T11:28:55.878Z</time>
      </trkpt>
      <trkpt lat="43.16463833" lon="-4.19825167">
        <ele>567.0</ele>
        <time>2018-05-19T11:28:56.874Z</time>
      </trkpt>
      <trkpt lat="43.16463833" lon="-4.19825167">
        <ele>567.0</ele>
        <time>2018-05-19T11:28:57.872Z</time>
      </trkpt>
      <trkpt lat="43.16459167" lon="-4.19848167">
        <ele>566.0</ele>
        <time>2018-05-19T11:28:58.875Z</time>
      </trkpt>
      <trkpt lat="43.16454167" lon="-4.19858167">
        <ele>565.0</ele>
        <time>2018-05-19T11:28:59.876Z</time>
      </trkpt>
      <trkpt lat="43.16454167" lon="-4.19858167">
        <ele>565.0</ele>
        <time>2018-05-19T11:29:00.872Z</time>
      </trkpt>
      <trkpt lat="43.16442167" lon="-4.19875833">
        <ele>564.0</ele>
        <time>2018-05-19T11:29:01.875Z</time>
      </trkpt>
      <trkpt lat="43.16442167" lon="-4.19875833">
        <ele>564.0</ele>
        <time>2018-05-19T11:29:02.870Z</time>
      </trkpt>
      <trkpt lat="43.16427833" lon="-4.19892">
        <ele>563.0</ele>
        <time>2018-05-19T11:29:03.875Z</time>
      </trkpt>
      <trkpt lat="43.16427833" lon="-4.19892">
        <ele>563.0</ele>
        <time>2018-05-19T11:29:04.872Z</time>
      </trkpt>
      <trkpt lat="43.16413667" lon="-4.19908333">
        <ele>562.0</ele>
        <time>2018-05-19T11:29:05.875Z</time>
      </trkpt>
      <trkpt lat="43.16413667" lon="-4.19908333">
        <ele>562.0</ele>
        <time>2018-05-19T11:29:06.883Z</time>
      </trkpt>
      <trkpt lat="43.16402333" lon="-4.19928167">
        <ele>561.0</ele>
        <time>2018-05-19T11:29:07.876Z</time>
      </trkpt>
      <trkpt lat="43.16402333" lon="-4.19928167">
        <ele>561.0</ele>
        <time>2018-05-19T11:29:08.872Z</time>
      </trkpt>
      <trkpt lat="43.16392833" lon="-4.19949833">
        <ele>560.0</ele>
        <time>2018-05-19T11:29:09.874Z</time>
      </trkpt>
      <trkpt lat="43.16387667" lon="-4.199605">
        <ele>560.0</ele>
        <time>2018-05-19T11:29:10.872Z</time>
      </trkpt>
      <trkpt lat="43.16382167" lon="-4.19970833">
        <ele>559.0</ele>
        <time>2018-05-19T11:29:11.873Z</time>
      </trkpt>
      <trkpt lat="43.16382167" lon="-4.19970833">
        <ele>559.0</ele>
        <time>2018-05-19T11:29:12.872Z</time>
      </trkpt>
      <trkpt lat="43.16372167" lon="-4.19992">
        <ele>558.0</ele>
        <time>2018-05-19T11:29:13.873Z</time>
      </trkpt>
      <trkpt lat="43.16372167" lon="-4.19992">
        <ele>558.0</ele>
        <time>2018-05-19T11:29:14.872Z</time>
      </trkpt>
      <trkpt lat="43.16365667" lon="-4.20015667">
        <ele>556.0</ele>
        <time>2018-05-19T11:29:15.874Z</time>
      </trkpt>
      <trkpt lat="43.16365667" lon="-4.20015667">
        <ele>556.0</ele>
        <time>2018-05-19T11:29:16.874Z</time>
      </trkpt>
      <trkpt lat="43.16363333" lon="-4.20041667">
        <ele>555.0</ele>
        <time>2018-05-19T11:29:17.876Z</time>
      </trkpt>
      <trkpt lat="43.16363333" lon="-4.20041667">
        <ele>555.0</ele>
        <time>2018-05-19T11:29:18.869Z</time>
      </trkpt>
      <trkpt lat="43.16365167" lon="-4.20068">
        <ele>554.0</ele>
        <time>2018-05-19T11:29:19.876Z</time>
      </trkpt>
      <trkpt lat="43.16365167" lon="-4.20068">
        <ele>554.0</ele>
        <time>2018-05-19T11:29:20.872Z</time>
      </trkpt>
      <trkpt lat="43.16365833" lon="-4.20094">
        <ele>553.0</ele>
        <time>2018-05-19T11:29:21.876Z</time>
      </trkpt>
      <trkpt lat="43.16365833" lon="-4.20094">
        <ele>553.0</ele>
        <time>2018-05-19T11:29:22.869Z</time>
      </trkpt>
      <trkpt lat="43.163605" lon="-4.20119667">
        <ele>553.0</ele>
        <time>2018-05-19T11:29:23.878Z</time>
      </trkpt>
      <trkpt lat="43.163605" lon="-4.20119667">
        <ele>553.0</ele>
        <time>2018-05-19T11:29:24.872Z</time>
      </trkpt>
      <trkpt lat="43.16351" lon="-4.20142667">
        <ele>552.0</ele>
        <time>2018-05-19T11:29:25.875Z</time>
      </trkpt>
      <trkpt lat="43.16351" lon="-4.20142667">
        <ele>552.0</ele>
        <time>2018-05-19T11:29:26.873Z</time>
      </trkpt>
      <trkpt lat="43.163395" lon="-4.20163333">
        <ele>550.0</ele>
        <time>2018-05-19T11:29:27.874Z</time>
      </trkpt>
      <trkpt lat="43.163395" lon="-4.20163333">
        <ele>550.0</ele>
        <time>2018-05-19T11:29:28.874Z</time>
      </trkpt>
      <trkpt lat="43.16329333" lon="-4.2018">
        <ele>549.0</ele>
        <time>2018-05-19T11:29:29.876Z</time>
      </trkpt>
      <trkpt lat="43.16329333" lon="-4.2018">
        <ele>549.0</ele>
        <time>2018-05-19T11:29:30.872Z</time>
      </trkpt>
      <trkpt lat="43.16327167" lon="-4.20192667">
        <ele>549.0</ele>
        <time>2018-05-19T11:29:31.872Z</time>
      </trkpt>
      <trkpt lat="43.16327167" lon="-4.20192667">
        <ele>549.0</ele>
        <time>2018-05-19T11:29:32.871Z</time>
      </trkpt>
      <trkpt lat="43.16333833" lon="-4.202045">
        <ele>548.0</ele>
        <time>2018-05-19T11:29:33.874Z</time>
      </trkpt>
      <trkpt lat="43.16333833" lon="-4.202045">
        <ele>548.0</ele>
        <time>2018-05-19T11:29:34.871Z</time>
      </trkpt>
      <trkpt lat="43.16345833" lon="-4.20213333">
        <ele>547.0</ele>
        <time>2018-05-19T11:29:35.875Z</time>
      </trkpt>
      <trkpt lat="43.16345833" lon="-4.20213333">
        <ele>547.0</ele>
        <time>2018-05-19T11:29:36.854Z</time>
      </trkpt>
      <trkpt lat="43.16356" lon="-4.20229667">
        <ele>546.0</ele>
        <time>2018-05-19T11:29:37.880Z</time>
      </trkpt>
      <trkpt lat="43.16356" lon="-4.20229667">
        <ele>546.0</ele>
        <time>2018-05-19T11:29:38.871Z</time>
      </trkpt>
      <trkpt lat="43.16364" lon="-4.2025">
        <ele>545.0</ele>
        <time>2018-05-19T11:29:39.848Z</time>
      </trkpt>
      <trkpt lat="43.16364" lon="-4.2025">
        <ele>545.0</ele>
        <time>2018-05-19T11:29:40.872Z</time>
      </trkpt>
      <trkpt lat="43.16370333" lon="-4.20270833">
        <ele>544.0</ele>
        <time>2018-05-19T11:29:41.874Z</time>
      </trkpt>
      <trkpt lat="43.16370333" lon="-4.20270833">
        <ele>544.0</ele>
        <time>2018-05-19T11:29:42.871Z</time>
      </trkpt>
      <trkpt lat="43.16375" lon="-4.202915">
        <ele>542.0</ele>
        <time>2018-05-19T11:29:43.872Z</time>
      </trkpt>
      <trkpt lat="43.16375" lon="-4.202915">
        <ele>542.0</ele>
        <time>2018-05-19T11:29:44.870Z</time>
      </trkpt>
      <trkpt lat="43.16374" lon="-4.20311">
        <ele>541.0</ele>
        <time>2018-05-19T11:29:45.870Z</time>
      </trkpt>
      <trkpt lat="43.16374" lon="-4.20311">
        <ele>541.0</ele>
        <time>2018-05-19T11:29:46.863Z</time>
      </trkpt>
      <trkpt lat="43.16368333" lon="-4.20327833">
        <ele>540.0</ele>
        <time>2018-05-19T11:29:47.871Z</time>
      </trkpt>
      <trkpt lat="43.16368333" lon="-4.20327833">
        <ele>540.0</ele>
        <time>2018-05-19T11:29:48.878Z</time>
      </trkpt>
      <trkpt lat="43.16358" lon="-4.20342333">
        <ele>539.0</ele>
        <time>2018-05-19T11:29:49.844Z</time>
      </trkpt>
      <trkpt lat="43.16351667" lon="-4.20348667">
        <ele>539.0</ele>
        <time>2018-05-19T11:29:50.844Z</time>
      </trkpt>
      <trkpt lat="43.16351667" lon="-4.20348667">
        <ele>539.0</ele>
        <time>2018-05-19T11:29:51.871Z</time>
      </trkpt>
      <trkpt lat="43.16337667" lon="-4.20358167">
        <ele>538.0</ele>
        <time>2018-05-19T11:29:52.874Z</time>
      </trkpt>
      <trkpt lat="43.16337667" lon="-4.20358167">
        <ele>538.0</ele>
        <time>2018-05-19T11:29:53.866Z</time>
      </trkpt>
      <trkpt lat="43.16330333" lon="-4.20370833">
        <ele>537.0</ele>
        <time>2018-05-19T11:29:54.874Z</time>
      </trkpt>
      <trkpt lat="43.16330667" lon="-4.20379167">
        <ele>537.0</ele>
        <time>2018-05-19T11:29:55.875Z</time>
      </trkpt>
      <trkpt lat="43.16330667" lon="-4.20379167">
        <ele>537.0</ele>
        <time>2018-05-19T11:29:56.846Z</time>
      </trkpt>
      <trkpt lat="43.16338333" lon="-4.20393667">
        <ele>536.0</ele>
        <time>2018-05-19T11:29:57.874Z</time>
      </trkpt>
      <trkpt lat="43.16344" lon="-4.20399333">
        <ele>535.0</ele>
        <time>2018-05-19T11:29:58.874Z</time>
      </trkpt>
      <trkpt lat="43.16344" lon="-4.20399333">
        <ele>535.0</ele>
        <time>2018-05-19T11:29:59.872Z</time>
      </trkpt>
      <trkpt lat="43.163575" lon="-4.20410333">
        <ele>535.0</ele>
        <time>2018-05-19T11:30:00.874Z</time>
      </trkpt>
      <trkpt lat="43.16363833" lon="-4.20417667">
        <ele>534.0</ele>
        <time>2018-05-19T11:30:01.873Z</time>
      </trkpt>
      <trkpt lat="43.16363833" lon="-4.20417667">
        <ele>534.0</ele>
        <time>2018-05-19T11:30:02.871Z</time>
      </trkpt>
      <trkpt lat="43.16372833" lon="-4.204365">
        <ele>534.0</ele>
        <time>2018-05-19T11:30:03.873Z</time>
      </trkpt>
      <trkpt lat="43.16372833" lon="-4.204365">
        <ele>534.0</ele>
        <time>2018-05-19T11:30:04.868Z</time>
      </trkpt>
      <trkpt lat="43.163745" lon="-4.20460667">
        <ele>533.0</ele>
        <time>2018-05-19T11:30:05.875Z</time>
      </trkpt>
      <trkpt lat="43.163745" lon="-4.20460667">
        <ele>533.0</ele>
        <time>2018-05-19T11:30:06.844Z</time>
      </trkpt>
      <trkpt lat="43.16369667" lon="-4.204865">
        <ele>532.0</ele>
        <time>2018-05-19T11:30:07.872Z</time>
      </trkpt>
      <trkpt lat="43.16369667" lon="-4.204865">
        <ele>532.0</ele>
        <time>2018-05-19T11:30:08.872Z</time>
      </trkpt>
      <trkpt lat="43.163575" lon="-4.20509833">
        <ele>531.0</ele>
        <time>2018-05-19T11:30:09.873Z</time>
      </trkpt>
      <trkpt lat="43.163505" lon="-4.20520667">
        <ele>530.0</ele>
        <time>2018-05-19T11:30:10.874Z</time>
      </trkpt>
      <trkpt lat="43.163505" lon="-4.20520667">
        <ele>530.0</ele>
        <time>2018-05-19T11:30:11.869Z</time>
      </trkpt>
      <trkpt lat="43.16335167" lon="-4.20538167">
        <ele>529.0</ele>
        <time>2018-05-19T11:30:12.874Z</time>
      </trkpt>
      <trkpt lat="43.16335167" lon="-4.20538167">
        <ele>529.0</ele>
        <time>2018-05-19T11:30:13.871Z</time>
      </trkpt>
      <trkpt lat="43.16315833" lon="-4.20545667">
        <ele>528.0</ele>
        <time>2018-05-19T11:30:14.874Z</time>
      </trkpt>
      <trkpt lat="43.16315833" lon="-4.20545667">
        <ele>528.0</ele>
        <time>2018-05-19T11:30:15.871Z</time>
      </trkpt>
      <trkpt lat="43.16297" lon="-4.20551">
        <ele>527.0</ele>
        <time>2018-05-19T11:30:16.846Z</time>
      </trkpt>
      <trkpt lat="43.162895" lon="-4.20555333">
        <ele>526.0</ele>
        <time>2018-05-19T11:30:17.876Z</time>
      </trkpt>
      <trkpt lat="43.162895" lon="-4.20555333">
        <ele>526.0</ele>
        <time>2018-05-19T11:30:18.870Z</time>
      </trkpt>
      <trkpt lat="43.16278167" lon="-4.20568333">
        <ele>525.0</ele>
        <time>2018-05-19T11:30:19.875Z</time>
      </trkpt>
      <trkpt lat="43.16278167" lon="-4.20568333">
        <ele>525.0</ele>
        <time>2018-05-19T11:30:20.870Z</time>
      </trkpt>
      <trkpt lat="43.16274167" lon="-4.20587167">
        <ele>524.0</ele>
        <time>2018-05-19T11:30:21.874Z</time>
      </trkpt>
      <trkpt lat="43.16274167" lon="-4.20587167">
        <ele>524.0</ele>
        <time>2018-05-19T11:30:22.872Z</time>
      </trkpt>
      <trkpt lat="43.162815" lon="-4.20607833">
        <ele>522.0</ele>
        <time>2018-05-19T11:30:23.876Z</time>
      </trkpt>
      <trkpt lat="43.162815" lon="-4.20607833">
        <ele>522.0</ele>
        <time>2018-05-19T11:30:24.868Z</time>
      </trkpt>
      <trkpt lat="43.16294" lon="-4.20625667">
        <ele>521.0</ele>
        <time>2018-05-19T11:30:25.872Z</time>
      </trkpt>
      <trkpt lat="43.16294" lon="-4.20625667">
        <ele>521.0</ele>
        <time>2018-05-19T11:30:26.863Z</time>
      </trkpt>
      <trkpt lat="43.16307167" lon="-4.20644833">
        <ele>519.0</ele>
        <time>2018-05-19T11:30:27.874Z</time>
      </trkpt>
      <trkpt lat="43.16307167" lon="-4.20644833">
        <ele>519.0</ele>
        <time>2018-05-19T11:30:28.871Z</time>
      </trkpt>
      <trkpt lat="43.163175" lon="-4.20666833">
        <ele>518.0</ele>
        <time>2018-05-19T11:30:29.875Z</time>
      </trkpt>
      <trkpt lat="43.16320167" lon="-4.20679667">
        <ele>517.0</ele>
        <time>2018-05-19T11:30:30.874Z</time>
      </trkpt>
      <trkpt lat="43.16321167" lon="-4.20692833">
        <ele>516.0</ele>
        <time>2018-05-19T11:30:31.874Z</time>
      </trkpt>
      <trkpt lat="43.16321167" lon="-4.20692833">
        <ele>516.0</ele>
        <time>2018-05-19T11:30:32.872Z</time>
      </trkpt>
      <trkpt lat="43.16319833" lon="-4.20719">
        <ele>515.0</ele>
        <time>2018-05-19T11:30:33.873Z</time>
      </trkpt>
      <trkpt lat="43.16319833" lon="-4.20719">
        <ele>515.0</ele>
        <time>2018-05-19T11:30:34.871Z</time>
      </trkpt>
      <trkpt lat="43.16315167" lon="-4.20746">
        <ele>514.0</ele>
        <time>2018-05-19T11:30:35.875Z</time>
      </trkpt>
      <trkpt lat="43.16315167" lon="-4.20746">
        <ele>514.0</ele>
        <time>2018-05-19T11:30:36.880Z</time>
      </trkpt>
      <trkpt lat="43.16309333" lon="-4.207715">
        <ele>513.0</ele>
        <time>2018-05-19T11:30:37.874Z</time>
      </trkpt>
      <trkpt lat="43.16309333" lon="-4.207715">
        <ele>513.0</ele>
        <time>2018-05-19T11:30:38.869Z</time>
      </trkpt>
      <trkpt lat="43.16300833" lon="-4.20794167">
        <ele>512.0</ele>
        <time>2018-05-19T11:30:39.873Z</time>
      </trkpt>
      <trkpt lat="43.16300833" lon="-4.20794167">
        <ele>512.0</ele>
        <time>2018-05-19T11:30:40.870Z</time>
      </trkpt>
      <trkpt lat="43.16283" lon="-4.208075">
        <ele>510.0</ele>
        <time>2018-05-19T11:30:41.871Z</time>
      </trkpt>
      <trkpt lat="43.16283" lon="-4.208075">
        <ele>510.0</ele>
        <time>2018-05-19T11:30:42.869Z</time>
      </trkpt>
      <trkpt lat="43.16264167" lon="-4.20815333">
        <ele>509.0</ele>
        <time>2018-05-19T11:30:43.874Z</time>
      </trkpt>
      <trkpt lat="43.16264167" lon="-4.20815333">
        <ele>509.0</ele>
        <time>2018-05-19T11:30:44.870Z</time>
      </trkpt>
      <trkpt lat="43.16248167" lon="-4.20824833">
        <ele>508.0</ele>
        <time>2018-05-19T11:30:45.867Z</time>
      </trkpt>
      <trkpt lat="43.16240833" lon="-4.20831667">
        <ele>507.0</ele>
        <time>2018-05-19T11:30:46.863Z</time>
      </trkpt>
      <trkpt lat="43.16234167" lon="-4.208405">
        <ele>507.0</ele>
        <time>2018-05-19T11:30:47.876Z</time>
      </trkpt>
      <trkpt lat="43.16234167" lon="-4.208405">
        <ele>507.0</ele>
        <time>2018-05-19T11:30:48.871Z</time>
      </trkpt>
      <trkpt lat="43.162235" lon="-4.20862667">
        <ele>505.0</ele>
        <time>2018-05-19T11:30:49.875Z</time>
      </trkpt>
      <trkpt lat="43.162235" lon="-4.20862667">
        <ele>505.0</ele>
        <time>2018-05-19T11:30:50.844Z</time>
      </trkpt>
      <trkpt lat="43.16218333" lon="-4.20887333">
        <ele>503.0</ele>
        <time>2018-05-19T11:30:51.875Z</time>
      </trkpt>
      <trkpt lat="43.16218333" lon="-4.20887333">
        <ele>503.0</ele>
        <time>2018-05-19T11:30:52.871Z</time>
      </trkpt>
      <trkpt lat="43.16219667" lon="-4.20913833">
        <ele>502.0</ele>
        <time>2018-05-19T11:30:53.880Z</time>
      </trkpt>
      <trkpt lat="43.16222333" lon="-4.20926333">
        <ele>501.0</ele>
        <time>2018-05-19T11:30:54.874Z</time>
      </trkpt>
      <trkpt lat="43.16226" lon="-4.20938333">
        <ele>500.0</ele>
        <time>2018-05-19T11:30:55.875Z</time>
      </trkpt>
      <trkpt lat="43.16226" lon="-4.20938333">
        <ele>500.0</ele>
        <time>2018-05-19T11:30:56.864Z</time>
      </trkpt>
      <trkpt lat="43.16228833" lon="-4.20962833">
        <ele>499.0</ele>
        <time>2018-05-19T11:30:57.846Z</time>
      </trkpt>
      <trkpt lat="43.16227833" lon="-4.209755">
        <ele>498.0</ele>
        <time>2018-05-19T11:30:58.874Z</time>
      </trkpt>
      <trkpt lat="43.16225833" lon="-4.20988">
        <ele>497.0</ele>
        <time>2018-05-19T11:30:59.875Z</time>
      </trkpt>
      <trkpt lat="43.16225833" lon="-4.20988">
        <ele>497.0</ele>
        <time>2018-05-19T11:31:00.872Z</time>
      </trkpt>
      <trkpt lat="43.16218333" lon="-4.210125">
        <ele>496.0</ele>
        <time>2018-05-19T11:31:01.874Z</time>
      </trkpt>
      <trkpt lat="43.16218333" lon="-4.210125">
        <ele>496.0</ele>
        <time>2018-05-19T11:31:02.871Z</time>
      </trkpt>
      <trkpt lat="43.16203333" lon="-4.21032">
        <ele>494.0</ele>
        <time>2018-05-19T11:31:03.873Z</time>
      </trkpt>
      <trkpt lat="43.16203333" lon="-4.21032">
        <ele>494.0</ele>
        <time>2018-05-19T11:31:04.871Z</time>
      </trkpt>
      <trkpt lat="43.16187167" lon="-4.21048667">
        <ele>492.0</ele>
        <time>2018-05-19T11:31:05.874Z</time>
      </trkpt>
      <trkpt lat="43.16187167" lon="-4.21048667">
        <ele>492.0</ele>
        <time>2018-05-19T11:31:06.879Z</time>
      </trkpt>
      <trkpt lat="43.161725" lon="-4.21061667">
        <ele>490.0</ele>
        <time>2018-05-19T11:31:07.872Z</time>
      </trkpt>
      <trkpt lat="43.16166833" lon="-4.210695">
        <ele>489.0</ele>
        <time>2018-05-19T11:31:08.873Z</time>
      </trkpt>
      <trkpt lat="43.16166833" lon="-4.210695">
        <ele>489.0</ele>
        <time>2018-05-19T11:31:09.871Z</time>
      </trkpt>
      <trkpt lat="43.16158167" lon="-4.21086667">
        <ele>487.0</ele>
        <time>2018-05-19T11:31:10.874Z</time>
      </trkpt>
      <trkpt lat="43.161545" lon="-4.21097">
        <ele>486.0</ele>
        <time>2018-05-19T11:31:11.875Z</time>
      </trkpt>
      <trkpt lat="43.161545" lon="-4.21097">
        <ele>486.0</ele>
        <time>2018-05-19T11:31:12.870Z</time>
      </trkpt>
      <trkpt lat="43.16144833" lon="-4.21113833">
        <ele>485.0</ele>
        <time>2018-05-19T11:31:13.878Z</time>
      </trkpt>
      <trkpt lat="43.161415" lon="-4.21122333">
        <ele>484.0</ele>
        <time>2018-05-19T11:31:14.874Z</time>
      </trkpt>
      <trkpt lat="43.1614" lon="-4.21131833">
        <ele>483.0</ele>
        <time>2018-05-19T11:31:15.874Z</time>
      </trkpt>
      <trkpt lat="43.1614" lon="-4.21131833">
        <ele>483.0</ele>
        <time>2018-05-19T11:31:16.847Z</time>
      </trkpt>
      <trkpt lat="43.16141333" lon="-4.21152167">
        <ele>482.0</ele>
        <time>2018-05-19T11:31:17.875Z</time>
      </trkpt>
      <trkpt lat="43.161435" lon="-4.211625">
        <ele>481.0</ele>
        <time>2018-05-19T11:31:18.874Z</time>
      </trkpt>
      <trkpt lat="43.161435" lon="-4.211625">
        <ele>481.0</ele>
        <time>2018-05-19T11:31:19.872Z</time>
      </trkpt>
      <trkpt lat="43.16149667" lon="-4.21184833">
        <ele>480.0</ele>
        <time>2018-05-19T11:31:20.875Z</time>
      </trkpt>
      <trkpt lat="43.16149667" lon="-4.21184833">
        <ele>480.0</ele>
        <time>2018-05-19T11:31:21.869Z</time>
      </trkpt>
      <trkpt lat="43.16156833" lon="-4.21207667">
        <ele>479.0</ele>
        <time>2018-05-19T11:31:22.874Z</time>
      </trkpt>
      <trkpt lat="43.16156833" lon="-4.21207667">
        <ele>479.0</ele>
        <time>2018-05-19T11:31:23.872Z</time>
      </trkpt>
      <trkpt lat="43.16164167" lon="-4.21231167">
        <ele>478.0</ele>
        <time>2018-05-19T11:31:24.873Z</time>
      </trkpt>
      <trkpt lat="43.16167667" lon="-4.212425">
        <ele>478.0</ele>
        <time>2018-05-19T11:31:25.851Z</time>
      </trkpt>
      <trkpt lat="43.16167667" lon="-4.212425">
        <ele>478.0</ele>
        <time>2018-05-19T11:31:26.881Z</time>
      </trkpt>
      <trkpt lat="43.16174833" lon="-4.21265">
        <ele>476.0</ele>
        <time>2018-05-19T11:31:27.873Z</time>
      </trkpt>
      <trkpt lat="43.16174833" lon="-4.21265">
        <ele>476.0</ele>
        <time>2018-05-19T11:31:28.870Z</time>
      </trkpt>
      <trkpt lat="43.16180833" lon="-4.21287667">
        <ele>475.0</ele>
        <time>2018-05-19T11:31:29.875Z</time>
      </trkpt>
      <trkpt lat="43.16180833" lon="-4.21287667">
        <ele>475.0</ele>
        <time>2018-05-19T11:31:30.872Z</time>
      </trkpt>
      <trkpt lat="43.16181" lon="-4.21310333">
        <ele>474.0</ele>
        <time>2018-05-19T11:31:31.874Z</time>
      </trkpt>
      <trkpt lat="43.16181" lon="-4.21310333">
        <ele>474.0</ele>
        <time>2018-05-19T11:31:32.872Z</time>
      </trkpt>
      <trkpt lat="43.161785" lon="-4.21331167">
        <ele>473.0</ele>
        <time>2018-05-19T11:31:33.873Z</time>
      </trkpt>
      <trkpt lat="43.16177667" lon="-4.21341167">
        <ele>472.0</ele>
        <time>2018-05-19T11:31:34.871Z</time>
      </trkpt>
      <trkpt lat="43.16176333" lon="-4.21351167">
        <ele>472.0</ele>
        <time>2018-05-19T11:31:35.876Z</time>
      </trkpt>
      <trkpt lat="43.16176333" lon="-4.21351167">
        <ele>472.0</ele>
        <time>2018-05-19T11:31:36.865Z</time>
      </trkpt>
      <trkpt lat="43.16170833" lon="-4.21369667">
        <ele>471.0</ele>
        <time>2018-05-19T11:31:37.874Z</time>
      </trkpt>
      <trkpt lat="43.16170833" lon="-4.21369667">
        <ele>471.0</ele>
        <time>2018-05-19T11:31:38.871Z</time>
      </trkpt>
      <trkpt lat="43.16162167" lon="-4.213865">
        <ele>471.0</ele>
        <time>2018-05-19T11:31:39.874Z</time>
      </trkpt>
      <trkpt lat="43.16162167" lon="-4.213865">
        <ele>471.0</ele>
        <time>2018-05-19T11:31:40.870Z</time>
      </trkpt>
      <trkpt lat="43.16149667" lon="-4.21400833">
        <ele>471.0</ele>
        <time>2018-05-19T11:31:41.874Z</time>
      </trkpt>
      <trkpt lat="43.16149667" lon="-4.21400833">
        <ele>471.0</ele>
        <time>2018-05-19T11:31:42.870Z</time>
      </trkpt>
      <trkpt lat="43.16135167" lon="-4.214105">
        <ele>470.0</ele>
        <time>2018-05-19T11:31:43.876Z</time>
      </trkpt>
      <trkpt lat="43.16135167" lon="-4.214105">
        <ele>470.0</ele>
        <time>2018-05-19T11:31:44.871Z</time>
      </trkpt>
      <trkpt lat="43.16122167" lon="-4.214195">
        <ele>470.0</ele>
        <time>2018-05-19T11:31:45.844Z</time>
      </trkpt>
      <trkpt lat="43.16122167" lon="-4.214195">
        <ele>470.0</ele>
        <time>2018-05-19T11:31:46.875Z</time>
      </trkpt>
      <trkpt lat="43.16108667" lon="-4.2143">
        <ele>470.0</ele>
        <time>2018-05-19T11:31:47.882Z</time>
      </trkpt>
      <trkpt lat="43.16108667" lon="-4.2143">
        <ele>470.0</ele>
        <time>2018-05-19T11:31:48.848Z</time>
      </trkpt>
      <trkpt lat="43.16095667" lon="-4.21444167">
        <ele>470.0</ele>
        <time>2018-05-19T11:31:49.861Z</time>
      </trkpt>
      <trkpt lat="43.16095667" lon="-4.21444167">
        <ele>470.0</ele>
        <time>2018-05-19T11:31:50.870Z</time>
      </trkpt>
      <trkpt lat="43.16084333" lon="-4.21461333">
        <ele>469.0</ele>
        <time>2018-05-19T11:31:51.874Z</time>
      </trkpt>
      <trkpt lat="43.16079667" lon="-4.21470833">
        <ele>469.0</ele>
        <time>2018-05-19T11:31:52.874Z</time>
      </trkpt>
      <trkpt lat="43.16079667" lon="-4.21470833">
        <ele>469.0</ele>
        <time>2018-05-19T11:31:53.865Z</time>
      </trkpt>
      <trkpt lat="43.16075" lon="-4.21492333">
        <ele>469.0</ele>
        <time>2018-05-19T11:31:54.850Z</time>
      </trkpt>
      <trkpt lat="43.16074833" lon="-4.21504167">
        <ele>469.0</ele>
        <time>2018-05-19T11:31:55.880Z</time>
      </trkpt>
      <trkpt lat="43.16074833" lon="-4.21504167">
        <ele>469.0</ele>
        <time>2018-05-19T11:31:56.883Z</time>
      </trkpt>
      <trkpt lat="43.16075" lon="-4.215285">
        <ele>468.0</ele>
        <time>2018-05-19T11:31:57.870Z</time>
      </trkpt>
      <trkpt lat="43.16075" lon="-4.215285">
        <ele>468.0</ele>
        <time>2018-05-19T11:31:58.869Z</time>
      </trkpt>
      <trkpt lat="43.16075" lon="-4.21552333">
        <ele>468.0</ele>
        <time>2018-05-19T11:31:59.875Z</time>
      </trkpt>
      <trkpt lat="43.16075" lon="-4.21552333">
        <ele>468.0</ele>
        <time>2018-05-19T11:32:00.870Z</time>
      </trkpt>
      <trkpt lat="43.16075333" lon="-4.21574833">
        <ele>468.0</ele>
        <time>2018-05-19T11:32:01.871Z</time>
      </trkpt>
      <trkpt lat="43.16075333" lon="-4.21574833">
        <ele>468.0</ele>
        <time>2018-05-19T11:32:02.867Z</time>
      </trkpt>
      <trkpt lat="43.16071833" lon="-4.21592">
        <ele>467.0</ele>
        <time>2018-05-19T11:32:03.873Z</time>
      </trkpt>
      <trkpt lat="43.16067667" lon="-4.21598667">
        <ele>467.0</ele>
        <time>2018-05-19T11:32:04.874Z</time>
      </trkpt>
      <trkpt lat="43.16063" lon="-4.216045">
        <ele>467.0</ele>
        <time>2018-05-19T11:32:05.874Z</time>
      </trkpt>
      <trkpt lat="43.16063" lon="-4.216045">
        <ele>467.0</ele>
        <time>2018-05-19T11:32:06.880Z</time>
      </trkpt>
      <trkpt lat="43.16053833" lon="-4.21614167">
        <ele>467.0</ele>
        <time>2018-05-19T11:32:07.852Z</time>
      </trkpt>
      <trkpt lat="43.16053833" lon="-4.21614167">
        <ele>467.0</ele>
        <time>2018-05-19T11:32:08.871Z</time>
      </trkpt>
      <trkpt lat="43.160445" lon="-4.21621667">
        <ele>467.0</ele>
        <time>2018-05-19T11:32:09.873Z</time>
      </trkpt>
      <trkpt lat="43.160445" lon="-4.21621667">
        <ele>467.0</ele>
        <time>2018-05-19T11:32:10.870Z</time>
      </trkpt>
      <trkpt lat="43.16034667" lon="-4.216315">
        <ele>467.0</ele>
        <time>2018-05-19T11:32:11.874Z</time>
      </trkpt>
      <trkpt lat="43.16034667" lon="-4.216315">
        <ele>467.0</ele>
        <time>2018-05-19T11:32:12.872Z</time>
      </trkpt>
      <trkpt lat="43.16024167" lon="-4.21641333">
        <ele>467.0</ele>
        <time>2018-05-19T11:32:13.874Z</time>
      </trkpt>
      <trkpt lat="43.16024167" lon="-4.21641333">
        <ele>467.0</ele>
        <time>2018-05-19T11:32:14.870Z</time>
      </trkpt>
      <trkpt lat="43.16013833" lon="-4.21649833">
        <ele>467.0</ele>
        <time>2018-05-19T11:32:15.870Z</time>
      </trkpt>
      <trkpt lat="43.16008667" lon="-4.21655167">
        <ele>467.0</ele>
        <time>2018-05-19T11:32:16.847Z</time>
      </trkpt>
      <trkpt lat="43.16008667" lon="-4.21655167">
        <ele>467.0</ele>
        <time>2018-05-19T11:32:17.872Z</time>
      </trkpt>
      <trkpt lat="43.16000167" lon="-4.21669667">
        <ele>467.0</ele>
        <time>2018-05-19T11:32:18.873Z</time>
      </trkpt>
      <trkpt lat="43.159965" lon="-4.21679">
        <ele>466.0</ele>
        <time>2018-05-19T11:32:19.874Z</time>
      </trkpt>
      <trkpt lat="43.159965" lon="-4.21679">
        <ele>466.0</ele>
        <time>2018-05-19T11:32:20.880Z</time>
      </trkpt>
      <trkpt lat="43.15990667" lon="-4.21702667">
        <ele>465.0</ele>
        <time>2018-05-19T11:32:21.873Z</time>
      </trkpt>
      <trkpt lat="43.15990667" lon="-4.21702667">
        <ele>465.0</ele>
        <time>2018-05-19T11:32:22.870Z</time>
      </trkpt>
      <trkpt lat="43.15987" lon="-4.21730667">
        <ele>464.0</ele>
        <time>2018-05-19T11:32:23.883Z</time>
      </trkpt>
      <trkpt lat="43.15987" lon="-4.21730667">
        <ele>464.0</ele>
        <time>2018-05-19T11:32:24.867Z</time>
      </trkpt>
      <trkpt lat="43.15986833" lon="-4.21760667">
        <ele>463.0</ele>
        <time>2018-05-19T11:32:25.874Z</time>
      </trkpt>
      <trkpt lat="43.15986833" lon="-4.21760667">
        <ele>463.0</ele>
        <time>2018-05-19T11:32:26.847Z</time>
      </trkpt>
      <trkpt lat="43.15988333" lon="-4.21790333">
        <ele>462.0</ele>
        <time>2018-05-19T11:32:27.876Z</time>
      </trkpt>
      <trkpt lat="43.15988333" lon="-4.21790333">
        <ele>462.0</ele>
        <time>2018-05-19T11:32:28.870Z</time>
      </trkpt>
      <trkpt lat="43.15992333" lon="-4.21819833">
        <ele>461.0</ele>
        <time>2018-05-19T11:32:29.876Z</time>
      </trkpt>
      <trkpt lat="43.15992333" lon="-4.21819833">
        <ele>461.0</ele>
        <time>2018-05-19T11:32:30.870Z</time>
      </trkpt>
      <trkpt lat="43.16000333" lon="-4.218495">
        <ele>460.0</ele>
        <time>2018-05-19T11:32:31.874Z</time>
      </trkpt>
      <trkpt lat="43.16000333" lon="-4.218495">
        <ele>460.0</ele>
        <time>2018-05-19T11:32:32.870Z</time>
      </trkpt>
      <trkpt lat="43.16008167" lon="-4.21879333">
        <ele>459.0</ele>
        <time>2018-05-19T11:32:33.873Z</time>
      </trkpt>
      <trkpt lat="43.16008167" lon="-4.21879333">
        <ele>459.0</ele>
        <time>2018-05-19T11:32:34.870Z</time>
      </trkpt>
      <trkpt lat="43.16013167" lon="-4.219095">
        <ele>458.0</ele>
        <time>2018-05-19T11:32:35.875Z</time>
      </trkpt>
      <trkpt lat="43.16013167" lon="-4.219095">
        <ele>458.0</ele>
        <time>2018-05-19T11:32:36.882Z</time>
      </trkpt>
      <trkpt lat="43.16016" lon="-4.2194">
        <ele>457.0</ele>
        <time>2018-05-19T11:32:37.872Z</time>
      </trkpt>
      <trkpt lat="43.16016" lon="-4.2194">
        <ele>457.0</ele>
        <time>2018-05-19T11:32:38.870Z</time>
      </trkpt>
      <trkpt lat="43.160175" lon="-4.219705">
        <ele>456.0</ele>
        <time>2018-05-19T11:32:39.873Z</time>
      </trkpt>
      <trkpt lat="43.160175" lon="-4.219705">
        <ele>456.0</ele>
        <time>2018-05-19T11:32:40.869Z</time>
      </trkpt>
      <trkpt lat="43.16016667" lon="-4.22000667">
        <ele>454.0</ele>
        <time>2018-05-19T11:32:41.873Z</time>
      </trkpt>
      <trkpt lat="43.16016667" lon="-4.22000667">
        <ele>454.0</ele>
        <time>2018-05-19T11:32:42.868Z</time>
      </trkpt>
      <trkpt lat="43.16011" lon="-4.22029167">
        <ele>453.0</ele>
        <time>2018-05-19T11:32:43.874Z</time>
      </trkpt>
      <trkpt lat="43.16005667" lon="-4.22041167">
        <ele>453.0</ele>
        <time>2018-05-19T11:32:44.874Z</time>
      </trkpt>
      <trkpt lat="43.16005667" lon="-4.22041167">
        <ele>453.0</ele>
        <time>2018-05-19T11:32:45.868Z</time>
      </trkpt>
      <trkpt lat="43.15995667" lon="-4.22063667">
        <ele>452.0</ele>
        <time>2018-05-19T11:32:46.851Z</time>
      </trkpt>
      <trkpt lat="43.15990833" lon="-4.22074">
        <ele>451.0</ele>
        <time>2018-05-19T11:32:47.863Z</time>
      </trkpt>
      <trkpt lat="43.15990833" lon="-4.22074">
        <ele>451.0</ele>
        <time>2018-05-19T11:32:48.870Z</time>
      </trkpt>
      <trkpt lat="43.15984333" lon="-4.22096333">
        <ele>451.0</ele>
        <time>2018-05-19T11:32:49.872Z</time>
      </trkpt>
      <trkpt lat="43.15984333" lon="-4.22096333">
        <ele>451.0</ele>
        <time>2018-05-19T11:32:50.870Z</time>
      </trkpt>
      <trkpt lat="43.159805" lon="-4.221165">
        <ele>450.0</ele>
        <time>2018-05-19T11:32:51.873Z</time>
      </trkpt>
      <trkpt lat="43.159805" lon="-4.221165">
        <ele>450.0</ele>
        <time>2018-05-19T11:32:52.845Z</time>
      </trkpt>
      <trkpt lat="43.15981167" lon="-4.22135833">
        <ele>450.0</ele>
        <time>2018-05-19T11:32:53.851Z</time>
      </trkpt>
      <trkpt lat="43.15983667" lon="-4.22145833">
        <ele>450.0</ele>
        <time>2018-05-19T11:32:54.879Z</time>
      </trkpt>
      <trkpt lat="43.15987167" lon="-4.22154667">
        <ele>450.0</ele>
        <time>2018-05-19T11:32:55.874Z</time>
      </trkpt>
      <trkpt lat="43.15987167" lon="-4.22154667">
        <ele>450.0</ele>
        <time>2018-05-19T11:32:56.882Z</time>
      </trkpt>
      <trkpt lat="43.15995" lon="-4.22171">
        <ele>450.0</ele>
        <time>2018-05-19T11:32:57.873Z</time>
      </trkpt>
      <trkpt lat="43.15999167" lon="-4.22179333">
        <ele>450.0</ele>
        <time>2018-05-19T11:32:58.871Z</time>
      </trkpt>
      <trkpt lat="43.160035" lon="-4.22188">
        <ele>450.0</ele>
        <time>2018-05-19T11:32:59.875Z</time>
      </trkpt>
      <trkpt lat="43.160035" lon="-4.22188">
        <ele>450.0</ele>
        <time>2018-05-19T11:33:00.870Z</time>
      </trkpt>
      <trkpt lat="43.160115" lon="-4.22206833">
        <ele>450.0</ele>
        <time>2018-05-19T11:33:01.874Z</time>
      </trkpt>
      <trkpt lat="43.160115" lon="-4.22206833">
        <ele>450.0</ele>
        <time>2018-05-19T11:33:02.868Z</time>
      </trkpt>
      <trkpt lat="43.16016667" lon="-4.22229333">
        <ele>449.0</ele>
        <time>2018-05-19T11:33:03.872Z</time>
      </trkpt>
      <trkpt lat="43.16016667" lon="-4.22229333">
        <ele>449.0</ele>
        <time>2018-05-19T11:33:04.870Z</time>
      </trkpt>
      <trkpt lat="43.16018333" lon="-4.22253167">
        <ele>449.0</ele>
        <time>2018-05-19T11:33:05.874Z</time>
      </trkpt>
      <trkpt lat="43.16018333" lon="-4.22253167">
        <ele>449.0</ele>
        <time>2018-05-19T11:33:06.879Z</time>
      </trkpt>
      <trkpt lat="43.160145" lon="-4.222765">
        <ele>448.0</ele>
        <time>2018-05-19T11:33:07.873Z</time>
      </trkpt>
      <trkpt lat="43.160145" lon="-4.222765">
        <ele>448.0</ele>
        <time>2018-05-19T11:33:08.872Z</time>
      </trkpt>
      <trkpt lat="43.16005333" lon="-4.22296833">
        <ele>448.0</ele>
        <time>2018-05-19T11:33:09.872Z</time>
      </trkpt>
      <trkpt lat="43.16005333" lon="-4.22296833">
        <ele>448.0</ele>
        <time>2018-05-19T11:33:10.869Z</time>
      </trkpt>
      <trkpt lat="43.15993667" lon="-4.22314167">
        <ele>448.0</ele>
        <time>2018-05-19T11:33:11.874Z</time>
      </trkpt>
      <trkpt lat="43.15993667" lon="-4.22314167">
        <ele>448.0</ele>
        <time>2018-05-19T11:33:12.869Z</time>
      </trkpt>
      <trkpt lat="43.15982667" lon="-4.22331833">
        <ele>447.0</ele>
        <time>2018-05-19T11:33:13.872Z</time>
      </trkpt>
      <trkpt lat="43.15982667" lon="-4.22331833">
        <ele>447.0</ele>
        <time>2018-05-19T11:33:14.870Z</time>
      </trkpt>
      <trkpt lat="43.159705" lon="-4.22348667">
        <ele>447.0</ele>
        <time>2018-05-19T11:33:15.872Z</time>
      </trkpt>
      <trkpt lat="43.159705" lon="-4.22348667">
        <ele>447.0</ele>
        <time>2018-05-19T11:33:16.845Z</time>
      </trkpt>
      <trkpt lat="43.15959333" lon="-4.22367">
        <ele>447.0</ele>
        <time>2018-05-19T11:33:17.873Z</time>
      </trkpt>
      <trkpt lat="43.15959333" lon="-4.22367">
        <ele>447.0</ele>
        <time>2018-05-19T11:33:18.871Z</time>
      </trkpt>
      <trkpt lat="43.159505" lon="-4.22388">
        <ele>447.0</ele>
        <time>2018-05-19T11:33:19.859Z</time>
      </trkpt>
      <trkpt lat="43.159505" lon="-4.22388">
        <ele>447.0</ele>
        <time>2018-05-19T11:33:20.855Z</time>
      </trkpt>
      <trkpt lat="43.15946333" lon="-4.22412167">
        <ele>446.0</ele>
        <time>2018-05-19T11:33:21.883Z</time>
      </trkpt>
      <trkpt lat="43.15946333" lon="-4.22412167">
        <ele>446.0</ele>
        <time>2018-05-19T11:33:22.870Z</time>
      </trkpt>
      <trkpt lat="43.15948833" lon="-4.22439">
        <ele>445.0</ele>
        <time>2018-05-19T11:33:23.873Z</time>
      </trkpt>
      <trkpt lat="43.15948833" lon="-4.22439">
        <ele>445.0</ele>
        <time>2018-05-19T11:33:24.880Z</time>
      </trkpt>
      <trkpt lat="43.159535" lon="-4.224675">
        <ele>444.0</ele>
        <time>2018-05-19T11:33:25.874Z</time>
      </trkpt>
      <trkpt lat="43.159535" lon="-4.224675">
        <ele>444.0</ele>
        <time>2018-05-19T11:33:26.874Z</time>
      </trkpt>
      <trkpt lat="43.15958" lon="-4.22493333">
        <ele>443.0</ele>
        <time>2018-05-19T11:33:27.873Z</time>
      </trkpt>
      <trkpt lat="43.15958" lon="-4.22493333">
        <ele>443.0</ele>
        <time>2018-05-19T11:33:28.868Z</time>
      </trkpt>
      <trkpt lat="43.15967167" lon="-4.22514333">
        <ele>442.0</ele>
        <time>2018-05-19T11:33:29.874Z</time>
      </trkpt>
      <trkpt lat="43.15972" lon="-4.22523667">
        <ele>442.0</ele>
        <time>2018-05-19T11:33:30.854Z</time>
      </trkpt>
      <trkpt lat="43.15976167" lon="-4.22533833">
        <ele>442.0</ele>
        <time>2018-05-19T11:33:31.858Z</time>
      </trkpt>
      <trkpt lat="43.15976167" lon="-4.22533833">
        <ele>442.0</ele>
        <time>2018-05-19T11:33:32.854Z</time>
      </trkpt>
      <trkpt lat="43.15980333" lon="-4.22555667">
        <ele>442.0</ele>
        <time>2018-05-19T11:33:33.882Z</time>
      </trkpt>
      <trkpt lat="43.15980333" lon="-4.22555667">
        <ele>442.0</ele>
        <time>2018-05-19T11:33:34.870Z</time>
      </trkpt>
      <trkpt lat="43.15977667" lon="-4.22578">
        <ele>441.0</ele>
        <time>2018-05-19T11:33:35.873Z</time>
      </trkpt>
      <trkpt lat="43.15977667" lon="-4.22578">
        <ele>441.0</ele>
        <time>2018-05-19T11:33:36.847Z</time>
      </trkpt>
      <trkpt lat="43.15965667" lon="-4.22595667">
        <ele>440.0</ele>
        <time>2018-05-19T11:33:37.879Z</time>
      </trkpt>
      <trkpt lat="43.15965667" lon="-4.22595667">
        <ele>440.0</ele>
        <time>2018-05-19T11:33:38.869Z</time>
      </trkpt>
      <trkpt lat="43.159515" lon="-4.22612667">
        <ele>440.0</ele>
        <time>2018-05-19T11:33:39.872Z</time>
      </trkpt>
      <trkpt lat="43.159515" lon="-4.22612667">
        <ele>440.0</ele>
        <time>2018-05-19T11:33:40.868Z</time>
      </trkpt>
      <trkpt lat="43.15937167" lon="-4.22630167">
        <ele>439.0</ele>
        <time>2018-05-19T11:33:41.872Z</time>
      </trkpt>
      <trkpt lat="43.15937167" lon="-4.22630167">
        <ele>439.0</ele>
        <time>2018-05-19T11:33:42.869Z</time>
      </trkpt>
      <trkpt lat="43.15923" lon="-4.22648333">
        <ele>438.0</ele>
        <time>2018-05-19T11:33:43.874Z</time>
      </trkpt>
      <trkpt lat="43.15923" lon="-4.22648333">
        <ele>438.0</ele>
        <time>2018-05-19T11:33:44.868Z</time>
      </trkpt>
      <trkpt lat="43.15909333" lon="-4.22667">
        <ele>437.0</ele>
        <time>2018-05-19T11:33:45.860Z</time>
      </trkpt>
      <trkpt lat="43.15909333" lon="-4.22667">
        <ele>437.0</ele>
        <time>2018-05-19T11:33:46.874Z</time>
      </trkpt>
      <trkpt lat="43.15895" lon="-4.226835">
        <ele>437.0</ele>
        <time>2018-05-19T11:33:47.881Z</time>
      </trkpt>
      <trkpt lat="43.15895" lon="-4.226835">
        <ele>437.0</ele>
        <time>2018-05-19T11:33:48.847Z</time>
      </trkpt>
      <trkpt lat="43.15881833" lon="-4.22700667">
        <ele>436.0</ele>
        <time>2018-05-19T11:33:49.860Z</time>
      </trkpt>
      <trkpt lat="43.15881833" lon="-4.22700667">
        <ele>436.0</ele>
        <time>2018-05-19T11:33:50.881Z</time>
      </trkpt>
      <trkpt lat="43.15871833" lon="-4.22718667">
        <ele>435.0</ele>
        <time>2018-05-19T11:33:51.873Z</time>
      </trkpt>
      <trkpt lat="43.15871833" lon="-4.22718667">
        <ele>435.0</ele>
        <time>2018-05-19T11:33:52.871Z</time>
      </trkpt>
      <trkpt lat="43.158645" lon="-4.22735833">
        <ele>435.0</ele>
        <time>2018-05-19T11:33:53.866Z</time>
      </trkpt>
      <trkpt lat="43.158645" lon="-4.22735833">
        <ele>435.0</ele>
        <time>2018-05-19T11:33:54.871Z</time>
      </trkpt>
      <trkpt lat="43.15858167" lon="-4.22751167">
        <ele>434.0</ele>
        <time>2018-05-19T11:33:55.874Z</time>
      </trkpt>
      <trkpt lat="43.15858167" lon="-4.22751167">
        <ele>434.0</ele>
        <time>2018-05-19T11:33:56.862Z</time>
      </trkpt>
      <trkpt lat="43.15853833" lon="-4.22765833">
        <ele>434.0</ele>
        <time>2018-05-19T11:33:57.845Z</time>
      </trkpt>
      <trkpt lat="43.15852" lon="-4.227735">
        <ele>434.0</ele>
        <time>2018-05-19T11:33:58.875Z</time>
      </trkpt>
      <trkpt lat="43.15852" lon="-4.227735">
        <ele>434.0</ele>
        <time>2018-05-19T11:33:59.868Z</time>
      </trkpt>
      <trkpt lat="43.15851333" lon="-4.22789167">
        <ele>434.0</ele>
        <time>2018-05-19T11:34:00.874Z</time>
      </trkpt>
      <trkpt lat="43.15851333" lon="-4.22789167">
        <ele>434.0</ele>
        <time>2018-05-19T11:34:01.871Z</time>
      </trkpt>
      <trkpt lat="43.15854" lon="-4.22803667">
        <ele>434.0</ele>
        <time>2018-05-19T11:34:02.872Z</time>
      </trkpt>
      <trkpt lat="43.15856167" lon="-4.22810333">
        <ele>435.0</ele>
        <time>2018-05-19T11:34:03.872Z</time>
      </trkpt>
      <trkpt lat="43.15856167" lon="-4.22810333">
        <ele>435.0</ele>
        <time>2018-05-19T11:34:04.868Z</time>
      </trkpt>
      <trkpt lat="43.15859667" lon="-4.22823833">
        <ele>435.0</ele>
        <time>2018-05-19T11:34:05.874Z</time>
      </trkpt>
      <trkpt lat="43.15859667" lon="-4.22823833">
        <ele>435.0</ele>
        <time>2018-05-19T11:34:06.845Z</time>
      </trkpt>
      <trkpt lat="43.15860833" lon="-4.22837667">
        <ele>435.0</ele>
        <time>2018-05-19T11:34:07.874Z</time>
      </trkpt>
      <trkpt lat="43.15860833" lon="-4.22837667">
        <ele>435.0</ele>
        <time>2018-05-19T11:34:08.867Z</time>
      </trkpt>
      <trkpt lat="43.158595" lon="-4.22851667">
        <ele>435.0</ele>
        <time>2018-05-19T11:34:09.874Z</time>
      </trkpt>
      <trkpt lat="43.158595" lon="-4.22851667">
        <ele>435.0</ele>
        <time>2018-05-19T11:34:10.869Z</time>
      </trkpt>
      <trkpt lat="43.15856" lon="-4.22865333">
        <ele>435.0</ele>
        <time>2018-05-19T11:34:11.873Z</time>
      </trkpt>
      <trkpt lat="43.15856" lon="-4.22865333">
        <ele>435.0</ele>
        <time>2018-05-19T11:34:12.870Z</time>
      </trkpt>
      <trkpt lat="43.158485" lon="-4.22877167">
        <ele>435.0</ele>
        <time>2018-05-19T11:34:13.873Z</time>
      </trkpt>
      <trkpt lat="43.158485" lon="-4.22877167">
        <ele>435.0</ele>
        <time>2018-05-19T11:34:14.872Z</time>
      </trkpt>
      <trkpt lat="43.158415" lon="-4.228905">
        <ele>434.0</ele>
        <time>2018-05-19T11:34:15.872Z</time>
      </trkpt>
      <trkpt lat="43.158415" lon="-4.228905">
        <ele>434.0</ele>
        <time>2018-05-19T11:34:16.882Z</time>
      </trkpt>
      <trkpt lat="43.158345" lon="-4.22905833">
        <ele>434.0</ele>
        <time>2018-05-19T11:34:17.875Z</time>
      </trkpt>
      <trkpt lat="43.158345" lon="-4.22905833">
        <ele>434.0</ele>
        <time>2018-05-19T11:34:18.870Z</time>
      </trkpt>
      <trkpt lat="43.15828333" lon="-4.229235">
        <ele>434.0</ele>
        <time>2018-05-19T11:34:19.873Z</time>
      </trkpt>
      <trkpt lat="43.15828333" lon="-4.229235">
        <ele>434.0</ele>
        <time>2018-05-19T11:34:20.870Z</time>
      </trkpt>
      <trkpt lat="43.158225" lon="-4.22941833">
        <ele>433.0</ele>
        <time>2018-05-19T11:34:21.854Z</time>
      </trkpt>
      <trkpt lat="43.15820167" lon="-4.22951333">
        <ele>433.0</ele>
        <time>2018-05-19T11:34:22.844Z</time>
      </trkpt>
      <trkpt lat="43.15820167" lon="-4.22951333">
        <ele>433.0</ele>
        <time>2018-05-19T11:34:23.872Z</time>
      </trkpt>
      <trkpt lat="43.15816" lon="-4.22971833">
        <ele>433.0</ele>
        <time>2018-05-19T11:34:24.873Z</time>
      </trkpt>
      <trkpt lat="43.15813833" lon="-4.22982667">
        <ele>433.0</ele>
        <time>2018-05-19T11:34:25.873Z</time>
      </trkpt>
      <trkpt lat="43.15813833" lon="-4.22982667">
        <ele>433.0</ele>
        <time>2018-05-19T11:34:26.847Z</time>
      </trkpt>
      <trkpt lat="43.15809167" lon="-4.23004167">
        <ele>432.0</ele>
        <time>2018-05-19T11:34:27.873Z</time>
      </trkpt>
      <trkpt lat="43.15809167" lon="-4.23004167">
        <ele>432.0</ele>
        <time>2018-05-19T11:34:28.870Z</time>
      </trkpt>
      <trkpt lat="43.15804167" lon="-4.23025833">
        <ele>432.0</ele>
        <time>2018-05-19T11:34:29.874Z</time>
      </trkpt>
      <trkpt lat="43.15804167" lon="-4.23025833">
        <ele>432.0</ele>
        <time>2018-05-19T11:34:30.867Z</time>
      </trkpt>
      <trkpt lat="43.15799333" lon="-4.23049167">
        <ele>431.0</ele>
        <time>2018-05-19T11:34:31.874Z</time>
      </trkpt>
      <trkpt lat="43.15799333" lon="-4.23049167">
        <ele>431.0</ele>
        <time>2018-05-19T11:34:32.868Z</time>
      </trkpt>
      <trkpt lat="43.157925" lon="-4.230725">
        <ele>431.0</ele>
        <time>2018-05-19T11:34:33.872Z</time>
      </trkpt>
      <trkpt lat="43.157875" lon="-4.23083">
        <ele>430.0</ele>
        <time>2018-05-19T11:34:34.870Z</time>
      </trkpt>
      <trkpt lat="43.157875" lon="-4.23083">
        <ele>430.0</ele>
        <time>2018-05-19T11:34:35.868Z</time>
      </trkpt>
      <trkpt lat="43.157745" lon="-4.23099667">
        <ele>430.0</ele>
        <time>2018-05-19T11:34:36.848Z</time>
      </trkpt>
      <trkpt lat="43.15768167" lon="-4.23108">
        <ele>430.0</ele>
        <time>2018-05-19T11:34:37.874Z</time>
      </trkpt>
      <trkpt lat="43.15768167" lon="-4.23108">
        <ele>430.0</ele>
        <time>2018-05-19T11:34:38.870Z</time>
      </trkpt>
      <trkpt lat="43.15755" lon="-4.231225">
        <ele>429.0</ele>
        <time>2018-05-19T11:34:39.869Z</time>
      </trkpt>
      <trkpt lat="43.15749" lon="-4.23129167">
        <ele>429.0</ele>
        <time>2018-05-19T11:34:40.873Z</time>
      </trkpt>
      <trkpt lat="43.15749" lon="-4.23129167">
        <ele>429.0</ele>
        <time>2018-05-19T11:34:41.871Z</time>
      </trkpt>
      <trkpt lat="43.15738167" lon="-4.23144667">
        <ele>428.0</ele>
        <time>2018-05-19T11:34:42.872Z</time>
      </trkpt>
      <trkpt lat="43.15733833" lon="-4.23152833">
        <ele>428.0</ele>
        <time>2018-05-19T11:34:43.870Z</time>
      </trkpt>
      <trkpt lat="43.1573" lon="-4.23161667">
        <ele>428.0</ele>
        <time>2018-05-19T11:34:44.848Z</time>
      </trkpt>
      <trkpt lat="43.1573" lon="-4.23161667">
        <ele>428.0</ele>
        <time>2018-05-19T11:34:45.858Z</time>
      </trkpt>
      <trkpt lat="43.157225" lon="-4.23179667">
        <ele>428.0</ele>
        <time>2018-05-19T11:34:46.878Z</time>
      </trkpt>
      <trkpt lat="43.15719" lon="-4.23188833">
        <ele>427.0</ele>
        <time>2018-05-19T11:34:47.844Z</time>
      </trkpt>
      <trkpt lat="43.15719" lon="-4.23188833">
        <ele>427.0</ele>
        <time>2018-05-19T11:34:48.850Z</time>
      </trkpt>
      <trkpt lat="43.15710667" lon="-4.23207833">
        <ele>428.0</ele>
        <time>2018-05-19T11:34:49.865Z</time>
      </trkpt>
      <trkpt lat="43.15710667" lon="-4.23207833">
        <ele>428.0</ele>
        <time>2018-05-19T11:34:50.871Z</time>
      </trkpt>
      <trkpt lat="43.15701833" lon="-4.23225833">
        <ele>427.0</ele>
        <time>2018-05-19T11:34:51.873Z</time>
      </trkpt>
      <trkpt lat="43.15701833" lon="-4.23225833">
        <ele>427.0</ele>
        <time>2018-05-19T11:34:52.870Z</time>
      </trkpt>
      <trkpt lat="43.15690167" lon="-4.23241833">
        <ele>427.0</ele>
        <time>2018-05-19T11:34:53.867Z</time>
      </trkpt>
      <trkpt lat="43.15684167" lon="-4.23249667">
        <ele>427.0</ele>
        <time>2018-05-19T11:34:54.853Z</time>
      </trkpt>
      <trkpt lat="43.15684167" lon="-4.23249667">
        <ele>427.0</ele>
        <time>2018-05-19T11:34:55.878Z</time>
      </trkpt>
      <trkpt lat="43.15673167" lon="-4.232665">
        <ele>426.0</ele>
        <time>2018-05-19T11:34:56.875Z</time>
      </trkpt>
      <trkpt lat="43.15673167" lon="-4.232665">
        <ele>426.0</ele>
        <time>2018-05-19T11:34:57.870Z</time>
      </trkpt>
      <trkpt lat="43.15663" lon="-4.232845">
        <ele>426.0</ele>
        <time>2018-05-19T11:34:58.873Z</time>
      </trkpt>
      <trkpt lat="43.15663" lon="-4.232845">
        <ele>426.0</ele>
        <time>2018-05-19T11:34:59.863Z</time>
      </trkpt>
      <trkpt lat="43.156525" lon="-4.23303667">
        <ele>425.0</ele>
        <time>2018-05-19T11:35:00.847Z</time>
      </trkpt>
      <trkpt lat="43.156525" lon="-4.23303667">
        <ele>425.0</ele>
        <time>2018-05-19T11:35:01.875Z</time>
      </trkpt>
      <trkpt lat="43.15642833" lon="-4.23324">
        <ele>424.0</ele>
        <time>2018-05-19T11:35:02.873Z</time>
      </trkpt>
      <trkpt lat="43.15642833" lon="-4.23324">
        <ele>424.0</ele>
        <time>2018-05-19T11:35:03.870Z</time>
      </trkpt>
      <trkpt lat="43.15633667" lon="-4.23343333">
        <ele>423.0</ele>
        <time>2018-05-19T11:35:04.873Z</time>
      </trkpt>
      <trkpt lat="43.156305" lon="-4.23354">
        <ele>422.0</ele>
        <time>2018-05-19T11:35:05.874Z</time>
      </trkpt>
      <trkpt lat="43.156305" lon="-4.23354">
        <ele>422.0</ele>
        <time>2018-05-19T11:35:06.882Z</time>
      </trkpt>
      <trkpt lat="43.15627833" lon="-4.23376333">
        <ele>421.0</ele>
        <time>2018-05-19T11:35:07.872Z</time>
      </trkpt>
      <trkpt lat="43.15627833" lon="-4.23376333">
        <ele>421.0</ele>
        <time>2018-05-19T11:35:08.863Z</time>
      </trkpt>
      <trkpt lat="43.15627" lon="-4.233985">
        <ele>420.0</ele>
        <time>2018-05-19T11:35:09.854Z</time>
      </trkpt>
      <trkpt lat="43.15627" lon="-4.233985">
        <ele>420.0</ele>
        <time>2018-05-19T11:35:10.878Z</time>
      </trkpt>
      <trkpt lat="43.15626" lon="-4.23417333">
        <ele>419.0</ele>
        <time>2018-05-19T11:35:11.874Z</time>
      </trkpt>
      <trkpt lat="43.15626" lon="-4.23417333">
        <ele>419.0</ele>
        <time>2018-05-19T11:35:12.874Z</time>
      </trkpt>
      <trkpt lat="43.15621833" lon="-4.23434333">
        <ele>418.0</ele>
        <time>2018-05-19T11:35:13.874Z</time>
      </trkpt>
      <trkpt lat="43.15621833" lon="-4.23434333">
        <ele>418.0</ele>
        <time>2018-05-19T11:35:14.870Z</time>
      </trkpt>
      <trkpt lat="43.15616" lon="-4.23451333">
        <ele>417.0</ele>
        <time>2018-05-19T11:35:15.872Z</time>
      </trkpt>
      <trkpt lat="43.15613333" lon="-4.23459167">
        <ele>417.0</ele>
        <time>2018-05-19T11:35:16.848Z</time>
      </trkpt>
      <trkpt lat="43.15613333" lon="-4.23459167">
        <ele>417.0</ele>
        <time>2018-05-19T11:35:17.874Z</time>
      </trkpt>
      <trkpt lat="43.15604333" lon="-4.23466333">
        <ele>416.0</ele>
        <time>2018-05-19T11:35:18.873Z</time>
      </trkpt>
      <trkpt lat="43.15604333" lon="-4.23466333">
        <ele>416.0</ele>
        <time>2018-05-19T11:35:19.874Z</time>
      </trkpt>
      <trkpt lat="43.15592833" lon="-4.23461167">
        <ele>415.0</ele>
        <time>2018-05-19T11:35:20.861Z</time>
      </trkpt>
      <trkpt lat="43.15587" lon="-4.23457">
        <ele>415.0</ele>
        <time>2018-05-19T11:35:21.846Z</time>
      </trkpt>
      <trkpt lat="43.15587" lon="-4.23457">
        <ele>415.0</ele>
        <time>2018-05-19T11:35:22.873Z</time>
      </trkpt>
      <trkpt lat="43.15574333" lon="-4.23449333">
        <ele>414.0</ele>
        <time>2018-05-19T11:35:23.874Z</time>
      </trkpt>
      <trkpt lat="43.15574333" lon="-4.23449333">
        <ele>414.0</ele>
        <time>2018-05-19T11:35:24.870Z</time>
      </trkpt>
      <trkpt lat="43.15561333" lon="-4.23441333">
        <ele>413.0</ele>
        <time>2018-05-19T11:35:25.884Z</time>
      </trkpt>
      <trkpt lat="43.15561333" lon="-4.23441333">
        <ele>413.0</ele>
        <time>2018-05-19T11:35:26.845Z</time>
      </trkpt>
      <trkpt lat="43.15549333" lon="-4.23428667">
        <ele>413.0</ele>
        <time>2018-05-19T11:35:27.873Z</time>
      </trkpt>
      <trkpt lat="43.15549333" lon="-4.23428667">
        <ele>413.0</ele>
        <time>2018-05-19T11:35:28.870Z</time>
      </trkpt>
      <trkpt lat="43.155395" lon="-4.23411333">
        <ele>412.0</ele>
        <time>2018-05-19T11:35:29.879Z</time>
      </trkpt>
      <trkpt lat="43.155395" lon="-4.23411333">
        <ele>412.0</ele>
        <time>2018-05-19T11:35:30.868Z</time>
      </trkpt>
      <trkpt lat="43.15532333" lon="-4.23392333">
        <ele>412.0</ele>
        <time>2018-05-19T11:35:31.874Z</time>
      </trkpt>
      <trkpt lat="43.15532333" lon="-4.23392333">
        <ele>412.0</ele>
        <time>2018-05-19T11:35:32.870Z</time>
      </trkpt>
      <trkpt lat="43.155265" lon="-4.23374167">
        <ele>411.0</ele>
        <time>2018-05-19T11:35:33.873Z</time>
      </trkpt>
      <trkpt lat="43.155265" lon="-4.23374167">
        <ele>411.0</ele>
        <time>2018-05-19T11:35:34.867Z</time>
      </trkpt>
      <trkpt lat="43.15520333" lon="-4.233555">
        <ele>411.0</ele>
        <time>2018-05-19T11:35:35.873Z</time>
      </trkpt>
      <trkpt lat="43.155175" lon="-4.23346167">
        <ele>411.0</ele>
        <time>2018-05-19T11:35:36.873Z</time>
      </trkpt>
      <trkpt lat="43.155175" lon="-4.23346167">
        <ele>411.0</ele>
        <time>2018-05-19T11:35:37.870Z</time>
      </trkpt>
      <trkpt lat="43.15512333" lon="-4.23328333">
        <ele>410.0</ele>
        <time>2018-05-19T11:35:38.873Z</time>
      </trkpt>
      <trkpt lat="43.15509833" lon="-4.233195">
        <ele>410.0</ele>
        <time>2018-05-19T11:35:39.874Z</time>
      </trkpt>
      <trkpt lat="43.15509833" lon="-4.233195">
        <ele>410.0</ele>
        <time>2018-05-19T11:35:40.870Z</time>
      </trkpt>
      <trkpt lat="43.15504833" lon="-4.23301833">
        <ele>410.0</ele>
        <time>2018-05-19T11:35:41.874Z</time>
      </trkpt>
      <trkpt lat="43.15504833" lon="-4.23301833">
        <ele>410.0</ele>
        <time>2018-05-19T11:35:42.870Z</time>
      </trkpt>
      <trkpt lat="43.15500667" lon="-4.232845">
        <ele>410.0</ele>
        <time>2018-05-19T11:35:43.874Z</time>
      </trkpt>
      <trkpt lat="43.15500667" lon="-4.232845">
        <ele>410.0</ele>
        <time>2018-05-19T11:35:44.867Z</time>
      </trkpt>
      <trkpt lat="43.15495833" lon="-4.23267333">
        <ele>411.0</ele>
        <time>2018-05-19T11:35:45.865Z</time>
      </trkpt>
      <trkpt lat="43.15493333" lon="-4.23259667">
        <ele>411.0</ele>
        <time>2018-05-19T11:35:46.882Z</time>
      </trkpt>
      <trkpt lat="43.15493333" lon="-4.23259667">
        <ele>411.0</ele>
        <time>2018-05-19T11:35:47.847Z</time>
      </trkpt>
      <trkpt lat="43.15488667" lon="-4.23243833">
        <ele>411.0</ele>
        <time>2018-05-19T11:35:48.875Z</time>
      </trkpt>
      <trkpt lat="43.15488667" lon="-4.23243833">
        <ele>411.0</ele>
        <time>2018-05-19T11:35:49.883Z</time>
      </trkpt>
      <trkpt lat="43.15483167" lon="-4.23225667">
        <ele>411.0</ele>
        <time>2018-05-19T11:35:50.873Z</time>
      </trkpt>
      <trkpt lat="43.15483167" lon="-4.23225667">
        <ele>411.0</ele>
        <time>2018-05-19T11:35:51.870Z</time>
      </trkpt>
      <trkpt lat="43.15476833" lon="-4.23212667">
        <ele>411.0</ele>
        <time>2018-05-19T11:35:52.872Z</time>
      </trkpt>
      <trkpt lat="43.15476833" lon="-4.23212667">
        <ele>411.0</ele>
        <time>2018-05-19T11:35:53.865Z</time>
      </trkpt>
      <trkpt lat="43.15468333" lon="-4.23202167">
        <ele>411.0</ele>
        <time>2018-05-19T11:35:54.872Z</time>
      </trkpt>
      <trkpt lat="43.15463" lon="-4.23198167">
        <ele>411.0</ele>
        <time>2018-05-19T11:35:55.872Z</time>
      </trkpt>
      <trkpt lat="43.15463" lon="-4.23198167">
        <ele>411.0</ele>
        <time>2018-05-19T11:35:56.847Z</time>
      </trkpt>
      <trkpt lat="43.15452" lon="-4.23192167">
        <ele>412.0</ele>
        <time>2018-05-19T11:35:57.874Z</time>
      </trkpt>
      <trkpt lat="43.15452" lon="-4.23192167">
        <ele>412.0</ele>
        <time>2018-05-19T11:35:58.869Z</time>
      </trkpt>
      <trkpt lat="43.154395" lon="-4.2319">
        <ele>412.0</ele>
        <time>2018-05-19T11:35:59.875Z</time>
      </trkpt>
      <trkpt lat="43.15433333" lon="-4.2319">
        <ele>412.0</ele>
        <time>2018-05-19T11:36:00.879Z</time>
      </trkpt>
      <trkpt lat="43.15433333" lon="-4.2319">
        <ele>412.0</ele>
        <time>2018-05-19T11:36:01.870Z</time>
      </trkpt>
      <trkpt lat="43.15421" lon="-4.23191">
        <ele>412.0</ele>
        <time>2018-05-19T11:36:02.873Z</time>
      </trkpt>
      <trkpt lat="43.15421" lon="-4.23191">
        <ele>412.0</ele>
        <time>2018-05-19T11:36:03.880Z</time>
      </trkpt>
      <trkpt lat="43.15408667" lon="-4.23193">
        <ele>413.0</ele>
        <time>2018-05-19T11:36:04.873Z</time>
      </trkpt>
      <trkpt lat="43.15408667" lon="-4.23193">
        <ele>413.0</ele>
        <time>2018-05-19T11:36:05.869Z</time>
      </trkpt>
      <trkpt lat="43.15396167" lon="-4.23194667">
        <ele>413.0</ele>
        <time>2018-05-19T11:36:06.882Z</time>
      </trkpt>
      <trkpt lat="43.15396167" lon="-4.23194667">
        <ele>413.0</ele>
        <time>2018-05-19T11:36:07.867Z</time>
      </trkpt>
      <trkpt lat="43.15383667" lon="-4.231965">
        <ele>413.0</ele>
        <time>2018-05-19T11:36:08.871Z</time>
      </trkpt>
      <trkpt lat="43.15383667" lon="-4.231965">
        <ele>413.0</ele>
        <time>2018-05-19T11:36:09.867Z</time>
      </trkpt>
      <trkpt lat="43.15371167" lon="-4.231985">
        <ele>413.0</ele>
        <time>2018-05-19T11:36:10.871Z</time>
      </trkpt>
      <trkpt lat="43.15371167" lon="-4.231985">
        <ele>413.0</ele>
        <time>2018-05-19T11:36:11.869Z</time>
      </trkpt>
      <trkpt lat="43.15359" lon="-4.23199167">
        <ele>414.0</ele>
        <time>2018-05-19T11:36:12.871Z</time>
      </trkpt>
      <trkpt lat="43.15359" lon="-4.23199167">
        <ele>414.0</ele>
        <time>2018-05-19T11:36:13.869Z</time>
      </trkpt>
      <trkpt lat="43.15347667" lon="-4.231965">
        <ele>414.0</ele>
        <time>2018-05-19T11:36:14.871Z</time>
      </trkpt>
      <trkpt lat="43.15342167" lon="-4.23194333">
        <ele>414.0</ele>
        <time>2018-05-19T11:36:15.871Z</time>
      </trkpt>
      <trkpt lat="43.15342167" lon="-4.23194333">
        <ele>414.0</ele>
        <time>2018-05-19T11:36:16.876Z</time>
      </trkpt>
      <trkpt lat="43.15332167" lon="-4.23188333">
        <ele>414.0</ele>
        <time>2018-05-19T11:36:17.854Z</time>
      </trkpt>
      <trkpt lat="43.15327667" lon="-4.231845">
        <ele>414.0</ele>
        <time>2018-05-19T11:36:18.882Z</time>
      </trkpt>
      <trkpt lat="43.15327667" lon="-4.231845">
        <ele>414.0</ele>
        <time>2018-05-19T11:36:19.851Z</time>
      </trkpt>
      <trkpt lat="43.15319167" lon="-4.23178167">
        <ele>415.0</ele>
        <time>2018-05-19T11:36:20.845Z</time>
      </trkpt>
      <trkpt lat="43.15319167" lon="-4.23178167">
        <ele>415.0</ele>
        <time>2018-05-19T11:36:21.872Z</time>
      </trkpt>
      <trkpt lat="43.15309833" lon="-4.231715">
        <ele>415.0</ele>
        <time>2018-05-19T11:36:22.874Z</time>
      </trkpt>
      <trkpt lat="43.15309833" lon="-4.231715">
        <ele>415.0</ele>
        <time>2018-05-19T11:36:23.870Z</time>
      </trkpt>
      <trkpt lat="43.153025" lon="-4.23164333">
        <ele>415.0</ele>
        <time>2018-05-19T11:36:24.868Z</time>
      </trkpt>
      <trkpt lat="43.15299167" lon="-4.23160667">
        <ele>415.0</ele>
        <time>2018-05-19T11:36:25.871Z</time>
      </trkpt>
      <trkpt lat="43.15299167" lon="-4.23160667">
        <ele>415.0</ele>
        <time>2018-05-19T11:36:26.883Z</time>
      </trkpt>
      <trkpt lat="43.15292667" lon="-4.231525">
        <ele>416.0</ele>
        <time>2018-05-19T11:36:27.871Z</time>
      </trkpt>
      <trkpt lat="43.15292667" lon="-4.231525">
        <ele>416.0</ele>
        <time>2018-05-19T11:36:28.866Z</time>
      </trkpt>
      <trkpt lat="43.15287" lon="-4.23143833">
        <ele>417.0</ele>
        <time>2018-05-19T11:36:29.872Z</time>
      </trkpt>
      <trkpt lat="43.15287" lon="-4.23143833">
        <ele>417.0</ele>
        <time>2018-05-19T11:36:30.867Z</time>
      </trkpt>
      <trkpt lat="43.15281833" lon="-4.23134333">
        <ele>418.0</ele>
        <time>2018-05-19T11:36:31.872Z</time>
      </trkpt>
      <trkpt lat="43.15281833" lon="-4.23134333">
        <ele>418.0</ele>
        <time>2018-05-19T11:36:32.869Z</time>
      </trkpt>
      <trkpt lat="43.152775" lon="-4.23124167">
        <ele>418.0</ele>
        <time>2018-05-19T11:36:33.870Z</time>
      </trkpt>
      <trkpt lat="43.15275667" lon="-4.23119333">
        <ele>419.0</ele>
        <time>2018-05-19T11:36:34.871Z</time>
      </trkpt>
      <trkpt lat="43.15275667" lon="-4.23119333">
        <ele>419.0</ele>
        <time>2018-05-19T11:36:35.867Z</time>
      </trkpt>
      <trkpt lat="43.15272" lon="-4.23108333">
        <ele>420.0</ele>
        <time>2018-05-19T11:36:36.854Z</time>
      </trkpt>
      <trkpt lat="43.15272" lon="-4.23108333">
        <ele>420.0</ele>
        <time>2018-05-19T11:36:37.878Z</time>
      </trkpt>
      <trkpt lat="43.15269" lon="-4.23097">
        <ele>421.0</ele>
        <time>2018-05-19T11:36:38.871Z</time>
      </trkpt>
      <trkpt lat="43.15269" lon="-4.23097">
        <ele>421.0</ele>
        <time>2018-05-19T11:36:39.868Z</time>
      </trkpt>
      <trkpt lat="43.15266333" lon="-4.23084167">
        <ele>422.0</ele>
        <time>2018-05-19T11:36:40.868Z</time>
      </trkpt>
      <trkpt lat="43.15266333" lon="-4.23084167">
        <ele>422.0</ele>
        <time>2018-05-19T11:36:41.874Z</time>
      </trkpt>
      <trkpt lat="43.15263833" lon="-4.230715">
        <ele>423.0</ele>
        <time>2018-05-19T11:36:42.871Z</time>
      </trkpt>
      <trkpt lat="43.15263833" lon="-4.230715">
        <ele>423.0</ele>
        <time>2018-05-19T11:36:43.869Z</time>
      </trkpt>
      <trkpt lat="43.15262333" lon="-4.23059333">
        <ele>424.0</ele>
        <time>2018-05-19T11:36:44.871Z</time>
      </trkpt>
      <trkpt lat="43.15262333" lon="-4.23059333">
        <ele>424.0</ele>
        <time>2018-05-19T11:36:45.862Z</time>
      </trkpt>
      <trkpt lat="43.15261667" lon="-4.23046333">
        <ele>425.0</ele>
        <time>2018-05-19T11:36:46.875Z</time>
      </trkpt>
      <trkpt lat="43.15261667" lon="-4.2304">
        <ele>426.0</ele>
        <time>2018-05-19T11:36:47.882Z</time>
      </trkpt>
      <trkpt lat="43.15261667" lon="-4.2304">
        <ele>426.0</ele>
        <time>2018-05-19T11:36:48.848Z</time>
      </trkpt>
      <trkpt lat="43.15262" lon="-4.23027">
        <ele>427.0</ele>
        <time>2018-05-19T11:36:49.857Z</time>
      </trkpt>
      <trkpt lat="43.15262" lon="-4.23027">
        <ele>427.0</ele>
        <time>2018-05-19T11:36:50.863Z</time>
      </trkpt>
      <trkpt lat="43.15263167" lon="-4.23015">
        <ele>428.0</ele>
        <time>2018-05-19T11:36:51.847Z</time>
      </trkpt>
      <trkpt lat="43.15263167" lon="-4.23015">
        <ele>428.0</ele>
        <time>2018-05-19T11:36:52.873Z</time>
      </trkpt>
      <trkpt lat="43.152645" lon="-4.23001667">
        <ele>429.0</ele>
        <time>2018-05-19T11:36:53.878Z</time>
      </trkpt>
      <trkpt lat="43.15266" lon="-4.229955">
        <ele>430.0</ele>
        <time>2018-05-19T11:36:54.848Z</time>
      </trkpt>
      <trkpt lat="43.15266" lon="-4.229955">
        <ele>430.0</ele>
        <time>2018-05-19T11:36:55.875Z</time>
      </trkpt>
      <trkpt lat="43.15267833" lon="-4.22984">
        <ele>431.0</ele>
        <time>2018-05-19T11:36:56.883Z</time>
      </trkpt>
      <trkpt lat="43.15269167" lon="-4.22978">
        <ele>432.0</ele>
        <time>2018-05-19T11:36:57.872Z</time>
      </trkpt>
      <trkpt lat="43.15269167" lon="-4.22978">
        <ele>432.0</ele>
        <time>2018-05-19T11:36:58.867Z</time>
      </trkpt>
      <trkpt lat="43.152725" lon="-4.22965">
        <ele>433.0</ele>
        <time>2018-05-19T11:36:59.872Z</time>
      </trkpt>
      <trkpt lat="43.152725" lon="-4.22965">
        <ele>433.0</ele>
        <time>2018-05-19T11:37:00.866Z</time>
      </trkpt>
      <trkpt lat="43.15276" lon="-4.22953333">
        <ele>434.0</ele>
        <time>2018-05-19T11:37:01.872Z</time>
      </trkpt>
      <trkpt lat="43.152775" lon="-4.22946667">
        <ele>434.0</ele>
        <time>2018-05-19T11:37:02.871Z</time>
      </trkpt>
      <trkpt lat="43.152775" lon="-4.22946667">
        <ele>434.0</ele>
        <time>2018-05-19T11:37:03.869Z</time>
      </trkpt>
      <trkpt lat="43.15281667" lon="-4.22932667">
        <ele>434.0</ele>
        <time>2018-05-19T11:37:04.871Z</time>
      </trkpt>
      <trkpt lat="43.15281667" lon="-4.22932667">
        <ele>434.0</ele>
        <time>2018-05-19T11:37:05.869Z</time>
      </trkpt>
      <trkpt lat="43.15285833" lon="-4.229185">
        <ele>435.0</ele>
        <time>2018-05-19T11:37:06.868Z</time>
      </trkpt>
      <trkpt lat="43.15288" lon="-4.22911833">
        <ele>435.0</ele>
        <time>2018-05-19T11:37:07.871Z</time>
      </trkpt>
      <trkpt lat="43.15288" lon="-4.22911833">
        <ele>435.0</ele>
        <time>2018-05-19T11:37:08.868Z</time>
      </trkpt>
      <trkpt lat="43.152925" lon="-4.22899167">
        <ele>435.0</ele>
        <time>2018-05-19T11:37:09.871Z</time>
      </trkpt>
      <trkpt lat="43.152925" lon="-4.22899167">
        <ele>435.0</ele>
        <time>2018-05-19T11:37:10.866Z</time>
      </trkpt>
      <trkpt lat="43.15297" lon="-4.22886">
        <ele>436.0</ele>
        <time>2018-05-19T11:37:11.872Z</time>
      </trkpt>
      <trkpt lat="43.152995" lon="-4.22879667">
        <ele>436.0</ele>
        <time>2018-05-19T11:37:12.871Z</time>
      </trkpt>
      <trkpt lat="43.152995" lon="-4.22879667">
        <ele>436.0</ele>
        <time>2018-05-19T11:37:13.865Z</time>
      </trkpt>
      <trkpt lat="43.15302833" lon="-4.22867167">
        <ele>437.0</ele>
        <time>2018-05-19T11:37:14.871Z</time>
      </trkpt>
      <trkpt lat="43.15302833" lon="-4.22867167">
        <ele>437.0</ele>
        <time>2018-05-19T11:37:15.867Z</time>
      </trkpt>
      <trkpt lat="43.153065" lon="-4.22855167">
        <ele>437.0</ele>
        <time>2018-05-19T11:37:16.883Z</time>
      </trkpt>
      <trkpt lat="43.153065" lon="-4.22855167">
        <ele>437.0</ele>
        <time>2018-05-19T11:37:17.869Z</time>
      </trkpt>
      <trkpt lat="43.15309167" lon="-4.22843">
        <ele>438.0</ele>
        <time>2018-05-19T11:37:18.870Z</time>
      </trkpt>
      <trkpt lat="43.15309167" lon="-4.22843">
        <ele>438.0</ele>
        <time>2018-05-19T11:37:19.869Z</time>
      </trkpt>
      <trkpt lat="43.15311833" lon="-4.22830333">
        <ele>439.0</ele>
        <time>2018-05-19T11:37:20.882Z</time>
      </trkpt>
      <trkpt lat="43.15312833" lon="-4.228235">
        <ele>439.0</ele>
        <time>2018-05-19T11:37:21.871Z</time>
      </trkpt>
      <trkpt lat="43.15314" lon="-4.22816667">
        <ele>439.0</ele>
        <time>2018-05-19T11:37:22.871Z</time>
      </trkpt>
      <trkpt lat="43.15314" lon="-4.22816667">
        <ele>439.0</ele>
        <time>2018-05-19T11:37:23.867Z</time>
      </trkpt>
      <trkpt lat="43.15316" lon="-4.22801167">
        <ele>439.0</ele>
        <time>2018-05-19T11:37:24.849Z</time>
      </trkpt>
      <trkpt lat="43.15316" lon="-4.22801167">
        <ele>439.0</ele>
        <time>2018-05-19T11:37:25.883Z</time>
      </trkpt>
      <trkpt lat="43.15317333" lon="-4.22787333">
        <ele>439.0</ele>
        <time>2018-05-19T11:37:26.883Z</time>
      </trkpt>
      <trkpt lat="43.15317333" lon="-4.22787333">
        <ele>439.0</ele>
        <time>2018-05-19T11:37:27.866Z</time>
      </trkpt>
      <trkpt lat="43.15318167" lon="-4.22773833">
        <ele>439.0</ele>
        <time>2018-05-19T11:37:28.870Z</time>
      </trkpt>
      <trkpt lat="43.15318167" lon="-4.22773833">
        <ele>439.0</ele>
        <time>2018-05-19T11:37:29.870Z</time>
      </trkpt>
      <trkpt lat="43.15318667" lon="-4.22759667">
        <ele>439.0</ele>
        <time>2018-05-19T11:37:30.870Z</time>
      </trkpt>
      <trkpt lat="43.15319" lon="-4.22752833">
        <ele>439.0</ele>
        <time>2018-05-19T11:37:31.871Z</time>
      </trkpt>
      <trkpt lat="43.15319" lon="-4.22752833">
        <ele>439.0</ele>
        <time>2018-05-19T11:37:32.865Z</time>
      </trkpt>
      <trkpt lat="43.153195" lon="-4.227395">
        <ele>439.0</ele>
        <time>2018-05-19T11:37:33.871Z</time>
      </trkpt>
      <trkpt lat="43.153195" lon="-4.227395">
        <ele>439.0</ele>
        <time>2018-05-19T11:37:34.868Z</time>
      </trkpt>
      <trkpt lat="43.153195" lon="-4.22725667">
        <ele>439.0</ele>
        <time>2018-05-19T11:37:35.872Z</time>
      </trkpt>
      <trkpt lat="43.15319667" lon="-4.22718833">
        <ele>439.0</ele>
        <time>2018-05-19T11:37:36.844Z</time>
      </trkpt>
      <trkpt lat="43.15319667" lon="-4.22718833">
        <ele>439.0</ele>
        <time>2018-05-19T11:37:37.869Z</time>
      </trkpt>
      <trkpt lat="43.153195" lon="-4.22705333">
        <ele>440.0</ele>
        <time>2018-05-19T11:37:38.871Z</time>
      </trkpt>
      <trkpt lat="43.153195" lon="-4.22705333">
        <ele>440.0</ele>
        <time>2018-05-19T11:37:39.869Z</time>
      </trkpt>
      <trkpt lat="43.15319333" lon="-4.22692">
        <ele>440.0</ele>
        <time>2018-05-19T11:37:40.870Z</time>
      </trkpt>
      <trkpt lat="43.15319167" lon="-4.226855">
        <ele>440.0</ele>
        <time>2018-05-19T11:37:41.871Z</time>
      </trkpt>
      <trkpt lat="43.15319167" lon="-4.226855">
        <ele>440.0</ele>
        <time>2018-05-19T11:37:42.868Z</time>
      </trkpt>
      <trkpt lat="43.15318833" lon="-4.226725">
        <ele>441.0</ele>
        <time>2018-05-19T11:37:43.871Z</time>
      </trkpt>
      <trkpt lat="43.15318833" lon="-4.226725">
        <ele>441.0</ele>
        <time>2018-05-19T11:37:44.868Z</time>
      </trkpt>
      <trkpt lat="43.15318333" lon="-4.22659333">
        <ele>442.0</ele>
        <time>2018-05-19T11:37:45.879Z</time>
      </trkpt>
      <trkpt lat="43.15317833" lon="-4.22652667">
        <ele>442.0</ele>
        <time>2018-05-19T11:37:46.862Z</time>
      </trkpt>
      <trkpt lat="43.15317833" lon="-4.22652667">
        <ele>442.0</ele>
        <time>2018-05-19T11:37:47.868Z</time>
      </trkpt>
      <trkpt lat="43.15316667" lon="-4.22639333">
        <ele>443.0</ele>
        <time>2018-05-19T11:37:48.877Z</time>
      </trkpt>
      <trkpt lat="43.15316" lon="-4.22632833">
        <ele>443.0</ele>
        <time>2018-05-19T11:37:49.868Z</time>
      </trkpt>
      <trkpt lat="43.15316" lon="-4.22632833">
        <ele>443.0</ele>
        <time>2018-05-19T11:37:50.865Z</time>
      </trkpt>
      <trkpt lat="43.15314333" lon="-4.226195">
        <ele>444.0</ele>
        <time>2018-05-19T11:37:51.871Z</time>
      </trkpt>
      <trkpt lat="43.153135" lon="-4.22612833">
        <ele>445.0</ele>
        <time>2018-05-19T11:37:52.871Z</time>
      </trkpt>
      <trkpt lat="43.153135" lon="-4.22612833">
        <ele>445.0</ele>
        <time>2018-05-19T11:37:53.863Z</time>
      </trkpt>
      <trkpt lat="43.153115" lon="-4.22599833">
        <ele>445.0</ele>
        <time>2018-05-19T11:37:54.880Z</time>
      </trkpt>
      <trkpt lat="43.15310167" lon="-4.225935">
        <ele>446.0</ele>
        <time>2018-05-19T11:37:55.871Z</time>
      </trkpt>
      <trkpt lat="43.15310167" lon="-4.225935">
        <ele>446.0</ele>
        <time>2018-05-19T11:37:56.877Z</time>
      </trkpt>
      <trkpt lat="43.15307667" lon="-4.225815">
        <ele>447.0</ele>
        <time>2018-05-19T11:37:57.871Z</time>
      </trkpt>
      <trkpt lat="43.15307667" lon="-4.225815">
        <ele>447.0</ele>
        <time>2018-05-19T11:37:58.865Z</time>
      </trkpt>
      <trkpt lat="43.15305" lon="-4.22569667">
        <ele>448.0</ele>
        <time>2018-05-19T11:37:59.873Z</time>
      </trkpt>
      <trkpt lat="43.15305" lon="-4.22569667">
        <ele>448.0</ele>
        <time>2018-05-19T11:38:00.866Z</time>
      </trkpt>
      <trkpt lat="43.15301667" lon="-4.22555167">
        <ele>449.0</ele>
        <time>2018-05-19T11:38:01.871Z</time>
      </trkpt>
      <trkpt lat="43.15301667" lon="-4.22555167">
        <ele>449.0</ele>
        <time>2018-05-19T11:38:02.865Z</time>
      </trkpt>
      <trkpt lat="43.15298667" lon="-4.22541833">
        <ele>450.0</ele>
        <time>2018-05-19T11:38:03.872Z</time>
      </trkpt>
      <trkpt lat="43.15298667" lon="-4.22541833">
        <ele>450.0</ele>
        <time>2018-05-19T11:38:04.874Z</time>
      </trkpt>
      <trkpt lat="43.15295667" lon="-4.22528">
        <ele>451.0</ele>
        <time>2018-05-19T11:38:05.872Z</time>
      </trkpt>
      <trkpt lat="43.15293667" lon="-4.225205">
        <ele>451.0</ele>
        <time>2018-05-19T11:38:06.847Z</time>
      </trkpt>
      <trkpt lat="43.15293667" lon="-4.225205">
        <ele>451.0</ele>
        <time>2018-05-19T11:38:07.872Z</time>
      </trkpt>
      <trkpt lat="43.15289667" lon="-4.22505833">
        <ele>453.0</ele>
        <time>2018-05-19T11:38:08.870Z</time>
      </trkpt>
      <trkpt lat="43.15289667" lon="-4.22505833">
        <ele>453.0</ele>
        <time>2018-05-19T11:38:09.867Z</time>
      </trkpt>
      <trkpt lat="43.15285333" lon="-4.22489667">
        <ele>454.0</ele>
        <time>2018-05-19T11:38:10.870Z</time>
      </trkpt>
      <trkpt lat="43.15282833" lon="-4.22481667">
        <ele>454.0</ele>
        <time>2018-05-19T11:38:11.871Z</time>
      </trkpt>
      <trkpt lat="43.15282833" lon="-4.22481667">
        <ele>454.0</ele>
        <time>2018-05-19T11:38:12.868Z</time>
      </trkpt>
      <trkpt lat="43.15276667" lon="-4.22463667">
        <ele>454.0</ele>
        <time>2018-05-19T11:38:13.868Z</time>
      </trkpt>
      <trkpt lat="43.15276667" lon="-4.22463667">
        <ele>454.0</ele>
        <time>2018-05-19T11:38:14.866Z</time>
      </trkpt>
      <trkpt lat="43.15271167" lon="-4.22446333">
        <ele>455.0</ele>
        <time>2018-05-19T11:38:15.871Z</time>
      </trkpt>
      <trkpt lat="43.15271167" lon="-4.22446333">
        <ele>455.0</ele>
        <time>2018-05-19T11:38:16.881Z</time>
      </trkpt>
      <trkpt lat="43.15265667" lon="-4.224285">
        <ele>456.0</ele>
        <time>2018-05-19T11:38:17.872Z</time>
      </trkpt>
      <trkpt lat="43.15265667" lon="-4.224285">
        <ele>456.0</ele>
        <time>2018-05-19T11:38:18.869Z</time>
      </trkpt>
      <trkpt lat="43.15259833" lon="-4.22411">
        <ele>457.0</ele>
        <time>2018-05-19T11:38:19.871Z</time>
      </trkpt>
      <trkpt lat="43.15259833" lon="-4.22411">
        <ele>457.0</ele>
        <time>2018-05-19T11:38:20.865Z</time>
      </trkpt>
      <trkpt lat="43.15254" lon="-4.22393333">
        <ele>457.0</ele>
        <time>2018-05-19T11:38:21.870Z</time>
      </trkpt>
      <trkpt lat="43.15251" lon="-4.22384167">
        <ele>458.0</ele>
        <time>2018-05-19T11:38:22.870Z</time>
      </trkpt>
      <trkpt lat="43.15247833" lon="-4.22375167">
        <ele>458.0</ele>
        <time>2018-05-19T11:38:23.871Z</time>
      </trkpt>
      <trkpt lat="43.15247833" lon="-4.22375167">
        <ele>458.0</ele>
        <time>2018-05-19T11:38:24.868Z</time>
      </trkpt>
      <trkpt lat="43.152405" lon="-4.223565">
        <ele>459.0</ele>
        <time>2018-05-19T11:38:25.871Z</time>
      </trkpt>
      <trkpt lat="43.152405" lon="-4.223565">
        <ele>459.0</ele>
        <time>2018-05-19T11:38:26.873Z</time>
      </trkpt>
      <trkpt lat="43.15233833" lon="-4.2234">
        <ele>460.0</ele>
        <time>2018-05-19T11:38:27.870Z</time>
      </trkpt>
      <trkpt lat="43.15233833" lon="-4.2234">
        <ele>460.0</ele>
        <time>2018-05-19T11:38:28.865Z</time>
      </trkpt>
      <trkpt lat="43.15228333" lon="-4.22324">
        <ele>461.0</ele>
        <time>2018-05-19T11:38:29.846Z</time>
      </trkpt>
      <trkpt lat="43.15228333" lon="-4.22324">
        <ele>461.0</ele>
        <time>2018-05-19T11:38:30.853Z</time>
      </trkpt>
      <trkpt lat="43.15222333" lon="-4.22307833">
        <ele>462.0</ele>
        <time>2018-05-19T11:38:31.878Z</time>
      </trkpt>
      <trkpt lat="43.15222333" lon="-4.22307833">
        <ele>462.0</ele>
        <time>2018-05-19T11:38:32.865Z</time>
      </trkpt>
      <trkpt lat="43.15216167" lon="-4.22292167">
        <ele>463.0</ele>
        <time>2018-05-19T11:38:33.850Z</time>
      </trkpt>
      <trkpt lat="43.15212833" lon="-4.22284167">
        <ele>464.0</ele>
        <time>2018-05-19T11:38:34.852Z</time>
      </trkpt>
      <trkpt lat="43.152095" lon="-4.22275833">
        <ele>465.0</ele>
        <time>2018-05-19T11:38:35.848Z</time>
      </trkpt>
      <trkpt lat="43.152095" lon="-4.22275833">
        <ele>465.0</ele>
        <time>2018-05-19T11:38:36.879Z</time>
      </trkpt>
      <trkpt lat="43.15203" lon="-4.22260167">
        <ele>466.0</ele>
        <time>2018-05-19T11:38:37.872Z</time>
      </trkpt>
      <trkpt lat="43.15203" lon="-4.22260167">
        <ele>466.0</ele>
        <time>2018-05-19T11:38:38.865Z</time>
      </trkpt>
      <trkpt lat="43.15196667" lon="-4.22244">
        <ele>467.0</ele>
        <time>2018-05-19T11:38:39.871Z</time>
      </trkpt>
      <trkpt lat="43.15196667" lon="-4.22244">
        <ele>467.0</ele>
        <time>2018-05-19T11:38:40.865Z</time>
      </trkpt>
      <trkpt lat="43.15190833" lon="-4.222285">
        <ele>468.0</ele>
        <time>2018-05-19T11:38:41.864Z</time>
      </trkpt>
      <trkpt lat="43.15188333" lon="-4.22221833">
        <ele>468.0</ele>
        <time>2018-05-19T11:38:42.870Z</time>
      </trkpt>
      <trkpt lat="43.15185333" lon="-4.222145">
        <ele>469.0</ele>
        <time>2018-05-19T11:38:43.871Z</time>
      </trkpt>
      <trkpt lat="43.15185333" lon="-4.222145">
        <ele>469.0</ele>
        <time>2018-05-19T11:38:44.865Z</time>
      </trkpt>
      <trkpt lat="43.15179833" lon="-4.222005">
        <ele>469.0</ele>
        <time>2018-05-19T11:38:45.864Z</time>
      </trkpt>
      <trkpt lat="43.15177" lon="-4.22193333">
        <ele>470.0</ele>
        <time>2018-05-19T11:38:46.865Z</time>
      </trkpt>
      <trkpt lat="43.15177" lon="-4.22193333">
        <ele>470.0</ele>
        <time>2018-05-19T11:38:47.871Z</time>
      </trkpt>
      <trkpt lat="43.15172167" lon="-4.2218">
        <ele>471.0</ele>
        <time>2018-05-19T11:38:48.870Z</time>
      </trkpt>
      <trkpt lat="43.15169333" lon="-4.22173">
        <ele>472.0</ele>
        <time>2018-05-19T11:38:49.871Z</time>
      </trkpt>
      <trkpt lat="43.15166833" lon="-4.22166833">
        <ele>472.0</ele>
        <time>2018-05-19T11:38:50.872Z</time>
      </trkpt>
      <trkpt lat="43.15166833" lon="-4.22166833">
        <ele>472.0</ele>
        <time>2018-05-19T11:38:51.869Z</time>
      </trkpt>
      <trkpt lat="43.15161667" lon="-4.22153333">
        <ele>473.0</ele>
        <time>2018-05-19T11:38:52.871Z</time>
      </trkpt>
      <trkpt lat="43.15161667" lon="-4.22153333">
        <ele>473.0</ele>
        <time>2018-05-19T11:38:53.864Z</time>
      </trkpt>
      <trkpt lat="43.15156667" lon="-4.22140167">
        <ele>474.0</ele>
        <time>2018-05-19T11:38:54.870Z</time>
      </trkpt>
      <trkpt lat="43.15154333" lon="-4.22134167">
        <ele>474.0</ele>
        <time>2018-05-19T11:38:55.871Z</time>
      </trkpt>
      <trkpt lat="43.15154333" lon="-4.22134167">
        <ele>474.0</ele>
        <time>2018-05-19T11:38:56.876Z</time>
      </trkpt>
      <trkpt lat="43.15148667" lon="-4.22118833">
        <ele>475.0</ele>
        <time>2018-05-19T11:38:57.871Z</time>
      </trkpt>
      <trkpt lat="43.15146" lon="-4.22111333">
        <ele>475.0</ele>
        <time>2018-05-19T11:38:58.871Z</time>
      </trkpt>
      <trkpt lat="43.15146" lon="-4.22111333">
        <ele>475.0</ele>
        <time>2018-05-19T11:38:59.869Z</time>
      </trkpt>
      <trkpt lat="43.15141833" lon="-4.22097833">
        <ele>475.0</ele>
        <time>2018-05-19T11:39:00.870Z</time>
      </trkpt>
      <trkpt lat="43.1514" lon="-4.22091667">
        <ele>476.0</ele>
        <time>2018-05-19T11:39:01.872Z</time>
      </trkpt>
      <trkpt lat="43.1514" lon="-4.22091667">
        <ele>476.0</ele>
        <time>2018-05-19T11:39:02.865Z</time>
      </trkpt>
      <trkpt lat="43.15137167" lon="-4.22078">
        <ele>476.0</ele>
        <time>2018-05-19T11:39:03.870Z</time>
      </trkpt>
      <trkpt lat="43.15137167" lon="-4.22078">
        <ele>476.0</ele>
        <time>2018-05-19T11:39:04.865Z</time>
      </trkpt>
      <trkpt lat="43.151355" lon="-4.22063333">
        <ele>476.0</ele>
        <time>2018-05-19T11:39:05.868Z</time>
      </trkpt>
      <trkpt lat="43.151355" lon="-4.22063333">
        <ele>476.0</ele>
        <time>2018-05-19T11:39:06.872Z</time>
      </trkpt>
      <trkpt lat="43.151345" lon="-4.22047167">
        <ele>475.0</ele>
        <time>2018-05-19T11:39:07.870Z</time>
      </trkpt>
      <trkpt lat="43.151345" lon="-4.22047167">
        <ele>475.0</ele>
        <time>2018-05-19T11:39:08.868Z</time>
      </trkpt>
      <trkpt lat="43.15134667" lon="-4.22032">
        <ele>474.0</ele>
        <time>2018-05-19T11:39:09.870Z</time>
      </trkpt>
      <trkpt lat="43.15134667" lon="-4.22032">
        <ele>474.0</ele>
        <time>2018-05-19T11:39:10.874Z</time>
      </trkpt>
      <trkpt lat="43.15135167" lon="-4.22017333">
        <ele>474.0</ele>
        <time>2018-05-19T11:39:11.874Z</time>
      </trkpt>
      <trkpt lat="43.15135167" lon="-4.22017333">
        <ele>474.0</ele>
        <time>2018-05-19T11:39:12.865Z</time>
      </trkpt>
      <trkpt lat="43.151355" lon="-4.22004333">
        <ele>474.0</ele>
        <time>2018-05-19T11:39:13.870Z</time>
      </trkpt>
      <trkpt lat="43.15135833" lon="-4.21997833">
        <ele>475.0</ele>
        <time>2018-05-19T11:39:14.871Z</time>
      </trkpt>
      <trkpt lat="43.15135833" lon="-4.21997833">
        <ele>475.0</ele>
        <time>2018-05-19T11:39:15.868Z</time>
      </trkpt>
      <trkpt lat="43.15136167" lon="-4.21984833">
        <ele>475.0</ele>
        <time>2018-05-19T11:39:16.867Z</time>
      </trkpt>
      <trkpt lat="43.15136333" lon="-4.219785">
        <ele>475.0</ele>
        <time>2018-05-19T11:39:17.872Z</time>
      </trkpt>
      <trkpt lat="43.15136333" lon="-4.219785">
        <ele>475.0</ele>
        <time>2018-05-19T11:39:18.865Z</time>
      </trkpt>
      <trkpt lat="43.151365" lon="-4.21966333">
        <ele>476.0</ele>
        <time>2018-05-19T11:39:19.871Z</time>
      </trkpt>
      <trkpt lat="43.151365" lon="-4.21966333">
        <ele>476.0</ele>
        <time>2018-05-19T11:39:20.865Z</time>
      </trkpt>
      <trkpt lat="43.15135333" lon="-4.21955333">
        <ele>476.0</ele>
        <time>2018-05-19T11:39:21.874Z</time>
      </trkpt>
      <trkpt lat="43.15135333" lon="-4.21955333">
        <ele>476.0</ele>
        <time>2018-05-19T11:39:22.864Z</time>
      </trkpt>
      <trkpt lat="43.15134167" lon="-4.21946167">
        <ele>477.0</ele>
        <time>2018-05-19T11:39:23.871Z</time>
      </trkpt>
      <trkpt lat="43.15133333" lon="-4.219415">
        <ele>478.0</ele>
        <time>2018-05-19T11:39:24.871Z</time>
      </trkpt>
      <trkpt lat="43.15131833" lon="-4.219365">
        <ele>478.0</ele>
        <time>2018-05-19T11:39:25.870Z</time>
      </trkpt>
      <trkpt lat="43.15131833" lon="-4.219365">
        <ele>478.0</ele>
        <time>2018-05-19T11:39:26.876Z</time>
      </trkpt>
      <trkpt lat="43.15128833" lon="-4.21927167">
        <ele>478.0</ele>
        <time>2018-05-19T11:39:27.870Z</time>
      </trkpt>
      <trkpt lat="43.15125667" lon="-4.21920667">
        <ele>478.0</ele>
        <time>2018-05-19T11:39:28.871Z</time>
      </trkpt>
      <trkpt lat="43.15122167" lon="-4.21913833">
        <ele>477.0</ele>
        <time>2018-05-19T11:39:29.871Z</time>
      </trkpt>
      <trkpt lat="43.15122167" lon="-4.21913833">
        <ele>477.0</ele>
        <time>2018-05-19T11:39:30.865Z</time>
      </trkpt>
      <trkpt lat="43.15115667" lon="-4.21904">
        <ele>474.0</ele>
        <time>2018-05-19T11:39:31.881Z</time>
      </trkpt>
      <trkpt lat="43.151125" lon="-4.21899333">
        <ele>473.0</ele>
        <time>2018-05-19T11:39:32.882Z</time>
      </trkpt>
      <trkpt lat="43.151125" lon="-4.21899333">
        <ele>473.0</ele>
        <time>2018-05-19T11:39:33.884Z</time>
      </trkpt>
      <trkpt lat="43.15106" lon="-4.2189">
        <ele>471.0</ele>
        <time>2018-05-19T11:39:34.870Z</time>
      </trkpt>
      <trkpt lat="43.15103167" lon="-4.21885667">
        <ele>470.0</ele>
        <time>2018-05-19T11:39:35.871Z</time>
      </trkpt>
      <trkpt lat="43.15103167" lon="-4.21885667">
        <ele>470.0</ele>
        <time>2018-05-19T11:39:36.872Z</time>
      </trkpt>
      <trkpt lat="43.15097333" lon="-4.21876667">
        <ele>469.0</ele>
        <time>2018-05-19T11:39:37.869Z</time>
      </trkpt>
      <trkpt lat="43.15097333" lon="-4.21876667">
        <ele>469.0</ele>
        <time>2018-05-19T11:39:38.866Z</time>
      </trkpt>
      <trkpt lat="43.15091" lon="-4.218685">
        <ele>467.0</ele>
        <time>2018-05-19T11:39:39.869Z</time>
      </trkpt>
      <trkpt lat="43.15091" lon="-4.218685">
        <ele>467.0</ele>
        <time>2018-05-19T11:39:40.865Z</time>
      </trkpt>
      <trkpt lat="43.15084167" lon="-4.21860667">
        <ele>466.0</ele>
        <time>2018-05-19T11:39:41.873Z</time>
      </trkpt>
      <trkpt lat="43.150805" lon="-4.21856833">
        <ele>466.0</ele>
        <time>2018-05-19T11:39:42.871Z</time>
      </trkpt>
      <trkpt lat="43.150805" lon="-4.21856833">
        <ele>466.0</ele>
        <time>2018-05-19T11:39:43.868Z</time>
      </trkpt>
      <trkpt lat="43.15073" lon="-4.21849">
        <ele>465.0</ele>
        <time>2018-05-19T11:39:44.869Z</time>
      </trkpt>
      <trkpt lat="43.15073" lon="-4.21849">
        <ele>465.0</ele>
        <time>2018-05-19T11:39:45.874Z</time>
      </trkpt>
      <trkpt lat="43.15064833" lon="-4.218405">
        <ele>464.0</ele>
        <time>2018-05-19T11:39:46.864Z</time>
      </trkpt>
      <trkpt lat="43.15061" lon="-4.21835833">
        <ele>464.0</ele>
        <time>2018-05-19T11:39:47.870Z</time>
      </trkpt>
      <trkpt lat="43.15061" lon="-4.21835833">
        <ele>464.0</ele>
        <time>2018-05-19T11:39:48.877Z</time>
      </trkpt>
      <trkpt lat="43.15052667" lon="-4.21827">
        <ele>463.0</ele>
        <time>2018-05-19T11:39:49.870Z</time>
      </trkpt>
      <trkpt lat="43.15048333" lon="-4.218225">
        <ele>463.0</ele>
        <time>2018-05-19T11:39:50.869Z</time>
      </trkpt>
      <trkpt lat="43.15048333" lon="-4.218225">
        <ele>463.0</ele>
        <time>2018-05-19T11:39:51.875Z</time>
      </trkpt>
      <trkpt lat="43.15040167" lon="-4.21813">
        <ele>462.0</ele>
        <time>2018-05-19T11:39:52.871Z</time>
      </trkpt>
      <trkpt lat="43.15040167" lon="-4.21813">
        <ele>462.0</ele>
        <time>2018-05-19T11:39:53.867Z</time>
      </trkpt>
      <trkpt lat="43.15031833" lon="-4.21803833">
        <ele>462.0</ele>
        <time>2018-05-19T11:39:54.869Z</time>
      </trkpt>
      <trkpt lat="43.15027667" lon="-4.21799167">
        <ele>461.0</ele>
        <time>2018-05-19T11:39:55.870Z</time>
      </trkpt>
      <trkpt lat="43.15027667" lon="-4.21799167">
        <ele>461.0</ele>
        <time>2018-05-19T11:39:56.871Z</time>
      </trkpt>
      <trkpt lat="43.15019167" lon="-4.21789333">
        <ele>461.0</ele>
        <time>2018-05-19T11:39:57.870Z</time>
      </trkpt>
      <trkpt lat="43.15019167" lon="-4.21789333">
        <ele>461.0</ele>
        <time>2018-05-19T11:39:58.864Z</time>
      </trkpt>
      <trkpt lat="43.15010333" lon="-4.21779333">
        <ele>460.0</ele>
        <time>2018-05-19T11:39:59.846Z</time>
      </trkpt>
      <trkpt lat="43.15010333" lon="-4.21779333">
        <ele>460.0</ele>
        <time>2018-05-19T11:40:00.872Z</time>
      </trkpt>
      <trkpt lat="43.15001667" lon="-4.21768833">
        <ele>460.0</ele>
        <time>2018-05-19T11:40:01.871Z</time>
      </trkpt>
      <trkpt lat="43.15001667" lon="-4.21768833">
        <ele>460.0</ele>
        <time>2018-05-19T11:40:02.864Z</time>
      </trkpt>
      <trkpt lat="43.14993" lon="-4.21758333">
        <ele>459.0</ele>
        <time>2018-05-19T11:40:03.869Z</time>
      </trkpt>
      <trkpt lat="43.14988833" lon="-4.21752667">
        <ele>459.0</ele>
        <time>2018-05-19T11:40:04.870Z</time>
      </trkpt>
      <trkpt lat="43.14984667" lon="-4.21747167">
        <ele>458.0</ele>
        <time>2018-05-19T11:40:05.872Z</time>
      </trkpt>
      <trkpt lat="43.14984667" lon="-4.21747167">
        <ele>458.0</ele>
        <time>2018-05-19T11:40:06.874Z</time>
      </trkpt>
      <trkpt lat="43.149765" lon="-4.217355">
        <ele>458.0</ele>
        <time>2018-05-19T11:40:07.869Z</time>
      </trkpt>
      <trkpt lat="43.149765" lon="-4.217355">
        <ele>458.0</ele>
        <time>2018-05-19T11:40:08.864Z</time>
      </trkpt>
      <trkpt lat="43.14968667" lon="-4.217235">
        <ele>457.0</ele>
        <time>2018-05-19T11:40:09.869Z</time>
      </trkpt>
      <trkpt lat="43.14965" lon="-4.21717333">
        <ele>457.0</ele>
        <time>2018-05-19T11:40:10.870Z</time>
      </trkpt>
      <trkpt lat="43.14965" lon="-4.21717333">
        <ele>457.0</ele>
        <time>2018-05-19T11:40:11.869Z</time>
      </trkpt>
      <trkpt lat="43.14957833" lon="-4.21705167">
        <ele>456.0</ele>
        <time>2018-05-19T11:40:12.870Z</time>
      </trkpt>
      <trkpt lat="43.14957833" lon="-4.21705167">
        <ele>456.0</ele>
        <time>2018-05-19T11:40:13.865Z</time>
      </trkpt>
      <trkpt lat="43.14951167" lon="-4.216925">
        <ele>456.0</ele>
        <time>2018-05-19T11:40:14.869Z</time>
      </trkpt>
      <trkpt lat="43.14951167" lon="-4.216925">
        <ele>456.0</ele>
        <time>2018-05-19T11:40:15.863Z</time>
      </trkpt>
      <trkpt lat="43.149445" lon="-4.21679833">
        <ele>456.0</ele>
        <time>2018-05-19T11:40:16.884Z</time>
      </trkpt>
      <trkpt lat="43.14941333" lon="-4.216735">
        <ele>456.0</ele>
        <time>2018-05-19T11:40:17.872Z</time>
      </trkpt>
      <trkpt lat="43.14941333" lon="-4.216735">
        <ele>456.0</ele>
        <time>2018-05-19T11:40:18.863Z</time>
      </trkpt>
      <trkpt lat="43.14935667" lon="-4.21661">
        <ele>456.0</ele>
        <time>2018-05-19T11:40:19.869Z</time>
      </trkpt>
      <trkpt lat="43.14935667" lon="-4.21661">
        <ele>456.0</ele>
        <time>2018-05-19T11:40:20.864Z</time>
      </trkpt>
      <trkpt lat="43.1493" lon="-4.21648833">
        <ele>457.0</ele>
        <time>2018-05-19T11:40:21.869Z</time>
      </trkpt>
      <trkpt lat="43.1493" lon="-4.21648833">
        <ele>457.0</ele>
        <time>2018-05-19T11:40:22.864Z</time>
      </trkpt>
      <trkpt lat="43.14924667" lon="-4.216375">
        <ele>457.0</ele>
        <time>2018-05-19T11:40:23.871Z</time>
      </trkpt>
      <trkpt lat="43.14924667" lon="-4.216375">
        <ele>457.0</ele>
        <time>2018-05-19T11:40:24.864Z</time>
      </trkpt>
      <trkpt lat="43.14919333" lon="-4.21626333">
        <ele>457.0</ele>
        <time>2018-05-19T11:40:25.869Z</time>
      </trkpt>
      <trkpt lat="43.14919333" lon="-4.21626333">
        <ele>457.0</ele>
        <time>2018-05-19T11:40:26.853Z</time>
      </trkpt>
      <trkpt lat="43.14914167" lon="-4.21615333">
        <ele>458.0</ele>
        <time>2018-05-19T11:40:27.880Z</time>
      </trkpt>
      <trkpt lat="43.14914167" lon="-4.21615333">
        <ele>458.0</ele>
        <time>2018-05-19T11:40:28.864Z</time>
      </trkpt>
      <trkpt lat="43.149095" lon="-4.216045">
        <ele>459.0</ele>
        <time>2018-05-19T11:40:29.871Z</time>
      </trkpt>
      <trkpt lat="43.149095" lon="-4.216045">
        <ele>459.0</ele>
        <time>2018-05-19T11:40:30.864Z</time>
      </trkpt>
      <trkpt lat="43.14904333" lon="-4.21593">
        <ele>459.0</ele>
        <time>2018-05-19T11:40:31.869Z</time>
      </trkpt>
      <trkpt lat="43.14904333" lon="-4.21593">
        <ele>459.0</ele>
        <time>2018-05-19T11:40:32.863Z</time>
      </trkpt>
      <trkpt lat="43.148995" lon="-4.21581333">
        <ele>460.0</ele>
        <time>2018-05-19T11:40:33.869Z</time>
      </trkpt>
      <trkpt lat="43.148995" lon="-4.21581333">
        <ele>460.0</ele>
        <time>2018-05-19T11:40:34.866Z</time>
      </trkpt>
      <trkpt lat="43.14894" lon="-4.2157">
        <ele>461.0</ele>
        <time>2018-05-19T11:40:35.871Z</time>
      </trkpt>
      <trkpt lat="43.14894" lon="-4.2157">
        <ele>461.0</ele>
        <time>2018-05-19T11:40:36.877Z</time>
      </trkpt>
      <trkpt lat="43.148885" lon="-4.21559167">
        <ele>461.0</ele>
        <time>2018-05-19T11:40:37.869Z</time>
      </trkpt>
      <trkpt lat="43.148885" lon="-4.21559167">
        <ele>461.0</ele>
        <time>2018-05-19T11:40:38.864Z</time>
      </trkpt>
      <trkpt lat="43.14883333" lon="-4.21548">
        <ele>462.0</ele>
        <time>2018-05-19T11:40:39.869Z</time>
      </trkpt>
      <trkpt lat="43.14883333" lon="-4.21548">
        <ele>462.0</ele>
        <time>2018-05-19T11:40:40.881Z</time>
      </trkpt>
      <trkpt lat="43.14878167" lon="-4.215365">
        <ele>463.0</ele>
        <time>2018-05-19T11:40:41.871Z</time>
      </trkpt>
      <trkpt lat="43.14878167" lon="-4.215365">
        <ele>463.0</ele>
        <time>2018-05-19T11:40:42.867Z</time>
      </trkpt>
      <trkpt lat="43.14872833" lon="-4.215255">
        <ele>464.0</ele>
        <time>2018-05-19T11:40:43.868Z</time>
      </trkpt>
      <trkpt lat="43.14872833" lon="-4.215255">
        <ele>464.0</ele>
        <time>2018-05-19T11:40:44.866Z</time>
      </trkpt>
      <trkpt lat="43.14868" lon="-4.21515">
        <ele>464.0</ele>
        <time>2018-05-19T11:40:45.862Z</time>
      </trkpt>
      <trkpt lat="43.148655" lon="-4.21509667">
        <ele>465.0</ele>
        <time>2018-05-19T11:40:46.864Z</time>
      </trkpt>
      <trkpt lat="43.14863" lon="-4.21504167">
        <ele>465.0</ele>
        <time>2018-05-19T11:40:47.870Z</time>
      </trkpt>
      <trkpt lat="43.14860333" lon="-4.21498667">
        <ele>465.0</ele>
        <time>2018-05-19T11:40:48.870Z</time>
      </trkpt>
      <trkpt lat="43.14860333" lon="-4.21498667">
        <ele>465.0</ele>
        <time>2018-05-19T11:40:49.867Z</time>
      </trkpt>
      <trkpt lat="43.14855167" lon="-4.214875">
        <ele>466.0</ele>
        <time>2018-05-19T11:40:50.881Z</time>
      </trkpt>
      <trkpt lat="43.148525" lon="-4.21481833">
        <ele>466.0</ele>
        <time>2018-05-19T11:40:51.869Z</time>
      </trkpt>
      <trkpt lat="43.14850167" lon="-4.214765">
        <ele>467.0</ele>
        <time>2018-05-19T11:40:52.870Z</time>
      </trkpt>
      <trkpt lat="43.14850167" lon="-4.214765">
        <ele>467.0</ele>
        <time>2018-05-19T11:40:53.861Z</time>
      </trkpt>
      <trkpt lat="43.14845167" lon="-4.21465667">
        <ele>467.0</ele>
        <time>2018-05-19T11:40:54.846Z</time>
      </trkpt>
      <trkpt lat="43.14845167" lon="-4.21465667">
        <ele>467.0</ele>
        <time>2018-05-19T11:40:55.875Z</time>
      </trkpt>
      <trkpt lat="43.14840333" lon="-4.214545">
        <ele>468.0</ele>
        <time>2018-05-19T11:40:56.880Z</time>
      </trkpt>
      <trkpt lat="43.14840333" lon="-4.214545">
        <ele>468.0</ele>
        <time>2018-05-19T11:40:57.866Z</time>
      </trkpt>
      <trkpt lat="43.14835" lon="-4.214435">
        <ele>468.0</ele>
        <time>2018-05-19T11:40:58.870Z</time>
      </trkpt>
      <trkpt lat="43.14835" lon="-4.214435">
        <ele>468.0</ele>
        <time>2018-05-19T11:40:59.869Z</time>
      </trkpt>
      <trkpt lat="43.14829333" lon="-4.21431833">
        <ele>469.0</ele>
        <time>2018-05-19T11:41:00.870Z</time>
      </trkpt>
      <trkpt lat="43.148265" lon="-4.214265">
        <ele>469.0</ele>
        <time>2018-05-19T11:41:01.875Z</time>
      </trkpt>
      <trkpt lat="43.148265" lon="-4.214265">
        <ele>469.0</ele>
        <time>2018-05-19T11:41:02.868Z</time>
      </trkpt>
      <trkpt lat="43.148215" lon="-4.21416">
        <ele>470.0</ele>
        <time>2018-05-19T11:41:03.872Z</time>
      </trkpt>
      <trkpt lat="43.148215" lon="-4.21416">
        <ele>470.0</ele>
        <time>2018-05-19T11:41:04.868Z</time>
      </trkpt>
      <trkpt lat="43.14816667" lon="-4.21405333">
        <ele>471.0</ele>
        <time>2018-05-19T11:41:05.871Z</time>
      </trkpt>
      <trkpt lat="43.14814167" lon="-4.214">
        <ele>471.0</ele>
        <time>2018-05-19T11:41:06.845Z</time>
      </trkpt>
      <trkpt lat="43.14814167" lon="-4.214">
        <ele>471.0</ele>
        <time>2018-05-19T11:41:07.871Z</time>
      </trkpt>
      <trkpt lat="43.14810167" lon="-4.21389">
        <ele>472.0</ele>
        <time>2018-05-19T11:41:08.869Z</time>
      </trkpt>
      <trkpt lat="43.14808333" lon="-4.21383">
        <ele>472.0</ele>
        <time>2018-05-19T11:41:09.868Z</time>
      </trkpt>
      <trkpt lat="43.14808333" lon="-4.21383">
        <ele>472.0</ele>
        <time>2018-05-19T11:41:10.866Z</time>
      </trkpt>
      <trkpt lat="43.148045" lon="-4.21370833">
        <ele>472.0</ele>
        <time>2018-05-19T11:41:11.870Z</time>
      </trkpt>
      <trkpt lat="43.148045" lon="-4.21370833">
        <ele>472.0</ele>
        <time>2018-05-19T11:41:12.865Z</time>
      </trkpt>
      <trkpt lat="43.14801333" lon="-4.21358">
        <ele>473.0</ele>
        <time>2018-05-19T11:41:13.870Z</time>
      </trkpt>
      <trkpt lat="43.14801333" lon="-4.21358">
        <ele>473.0</ele>
        <time>2018-05-19T11:41:14.865Z</time>
      </trkpt>
      <trkpt lat="43.14799" lon="-4.21344833">
        <ele>474.0</ele>
        <time>2018-05-19T11:41:15.869Z</time>
      </trkpt>
      <trkpt lat="43.147975" lon="-4.21337833">
        <ele>474.0</ele>
        <time>2018-05-19T11:41:16.882Z</time>
      </trkpt>
      <trkpt lat="43.147975" lon="-4.21337833">
        <ele>474.0</ele>
        <time>2018-05-19T11:41:17.868Z</time>
      </trkpt>
      <trkpt lat="43.14794833" lon="-4.21323">
        <ele>474.0</ele>
        <time>2018-05-19T11:41:18.861Z</time>
      </trkpt>
      <trkpt lat="43.14794833" lon="-4.21323">
        <ele>474.0</ele>
        <time>2018-05-19T11:41:19.846Z</time>
      </trkpt>
      <trkpt lat="43.147925" lon="-4.21308833">
        <ele>474.0</ele>
        <time>2018-05-19T11:41:20.872Z</time>
      </trkpt>
      <trkpt lat="43.14791167" lon="-4.21301333">
        <ele>474.0</ele>
        <time>2018-05-19T11:41:21.871Z</time>
      </trkpt>
      <trkpt lat="43.14791167" lon="-4.21301333">
        <ele>474.0</ele>
        <time>2018-05-19T11:41:22.868Z</time>
      </trkpt>
      <trkpt lat="43.14788667" lon="-4.21285">
        <ele>472.0</ele>
        <time>2018-05-19T11:41:23.874Z</time>
      </trkpt>
      <trkpt lat="43.147875" lon="-4.21277">
        <ele>471.0</ele>
        <time>2018-05-19T11:41:24.870Z</time>
      </trkpt>
      <trkpt lat="43.147875" lon="-4.21277">
        <ele>471.0</ele>
        <time>2018-05-19T11:41:25.870Z</time>
      </trkpt>
      <trkpt lat="43.14785167" lon="-4.212615">
        <ele>469.0</ele>
        <time>2018-05-19T11:41:26.853Z</time>
      </trkpt>
      <trkpt lat="43.14785167" lon="-4.212615">
        <ele>469.0</ele>
        <time>2018-05-19T11:41:27.880Z</time>
      </trkpt>
      <trkpt lat="43.14783167" lon="-4.21246667">
        <ele>469.0</ele>
        <time>2018-05-19T11:41:28.871Z</time>
      </trkpt>
      <trkpt lat="43.14783167" lon="-4.21246667">
        <ele>469.0</ele>
        <time>2018-05-19T11:41:29.868Z</time>
      </trkpt>
      <trkpt lat="43.14781667" lon="-4.21232167">
        <ele>468.0</ele>
        <time>2018-05-19T11:41:30.868Z</time>
      </trkpt>
      <trkpt lat="43.14781667" lon="-4.21232167">
        <ele>468.0</ele>
        <time>2018-05-19T11:41:31.870Z</time>
      </trkpt>
      <trkpt lat="43.14780167" lon="-4.212165">
        <ele>467.0</ele>
        <time>2018-05-19T11:41:32.871Z</time>
      </trkpt>
      <trkpt lat="43.14780167" lon="-4.212165">
        <ele>467.0</ele>
        <time>2018-05-19T11:41:33.864Z</time>
      </trkpt>
      <trkpt lat="43.14778833" lon="-4.21203">
        <ele>466.0</ele>
        <time>2018-05-19T11:41:34.871Z</time>
      </trkpt>
      <trkpt lat="43.14778833" lon="-4.21203">
        <ele>466.0</ele>
        <time>2018-05-19T11:41:35.865Z</time>
      </trkpt>
      <trkpt lat="43.14777667" lon="-4.211895">
        <ele>466.0</ele>
        <time>2018-05-19T11:41:36.845Z</time>
      </trkpt>
      <trkpt lat="43.147775" lon="-4.21183333">
        <ele>466.0</ele>
        <time>2018-05-19T11:41:37.870Z</time>
      </trkpt>
      <trkpt lat="43.147775" lon="-4.21183333">
        <ele>466.0</ele>
        <time>2018-05-19T11:41:38.864Z</time>
      </trkpt>
      <trkpt lat="43.14777167" lon="-4.21170333">
        <ele>466.0</ele>
        <time>2018-05-19T11:41:39.846Z</time>
      </trkpt>
      <trkpt lat="43.14777" lon="-4.21164">
        <ele>466.0</ele>
        <time>2018-05-19T11:41:40.877Z</time>
      </trkpt>
      <trkpt lat="43.14777" lon="-4.21164">
        <ele>466.0</ele>
        <time>2018-05-19T11:41:41.869Z</time>
      </trkpt>
      <trkpt lat="43.14776833" lon="-4.21151167">
        <ele>465.0</ele>
        <time>2018-05-19T11:41:42.870Z</time>
      </trkpt>
      <trkpt lat="43.14776833" lon="-4.21151167">
        <ele>465.0</ele>
        <time>2018-05-19T11:41:43.866Z</time>
      </trkpt>
      <trkpt lat="43.14776833" lon="-4.211385">
        <ele>465.0</ele>
        <time>2018-05-19T11:41:44.869Z</time>
      </trkpt>
      <trkpt lat="43.14776833" lon="-4.211385">
        <ele>465.0</ele>
        <time>2018-05-19T11:41:45.868Z</time>
      </trkpt>
      <trkpt lat="43.14777" lon="-4.21126333">
        <ele>465.0</ele>
        <time>2018-05-19T11:41:46.881Z</time>
      </trkpt>
      <trkpt lat="43.14777167" lon="-4.21120333">
        <ele>465.0</ele>
        <time>2018-05-19T11:41:47.847Z</time>
      </trkpt>
      <trkpt lat="43.14777333" lon="-4.21114333">
        <ele>465.0</ele>
        <time>2018-05-19T11:41:48.871Z</time>
      </trkpt>
      <trkpt lat="43.14777333" lon="-4.21114333">
        <ele>465.0</ele>
        <time>2018-05-19T11:41:49.871Z</time>
      </trkpt>
      <trkpt lat="43.14777667" lon="-4.211025">
        <ele>465.0</ele>
        <time>2018-05-19T11:41:50.869Z</time>
      </trkpt>
      <trkpt lat="43.14778" lon="-4.21096667">
        <ele>465.0</ele>
        <time>2018-05-19T11:41:51.871Z</time>
      </trkpt>
      <trkpt lat="43.14778167" lon="-4.21090833">
        <ele>465.0</ele>
        <time>2018-05-19T11:41:52.871Z</time>
      </trkpt>
      <trkpt lat="43.14778167" lon="-4.21090833">
        <ele>465.0</ele>
        <time>2018-05-19T11:41:53.863Z</time>
      </trkpt>
      <trkpt lat="43.14778833" lon="-4.21079333">
        <ele>465.0</ele>
        <time>2018-05-19T11:41:54.871Z</time>
      </trkpt>
      <trkpt lat="43.14778833" lon="-4.21079333">
        <ele>465.0</ele>
        <time>2018-05-19T11:41:55.865Z</time>
      </trkpt>
      <trkpt lat="43.14779167" lon="-4.21067833">
        <ele>465.0</ele>
        <time>2018-05-19T11:41:56.883Z</time>
      </trkpt>
      <trkpt lat="43.14779167" lon="-4.21067833">
        <ele>465.0</ele>
        <time>2018-05-19T11:41:57.869Z</time>
      </trkpt>
      <trkpt lat="43.14779833" lon="-4.21056333">
        <ele>465.0</ele>
        <time>2018-05-19T11:41:58.869Z</time>
      </trkpt>
      <trkpt lat="43.14780333" lon="-4.21050667">
        <ele>465.0</ele>
        <time>2018-05-19T11:41:59.871Z</time>
      </trkpt>
      <trkpt lat="43.14780333" lon="-4.21050667">
        <ele>465.0</ele>
        <time>2018-05-19T11:42:00.864Z</time>
      </trkpt>
      <trkpt lat="43.14780833" lon="-4.210395">
        <ele>464.0</ele>
        <time>2018-05-19T11:42:01.872Z</time>
      </trkpt>
      <trkpt lat="43.14780833" lon="-4.210395">
        <ele>464.0</ele>
        <time>2018-05-19T11:42:02.867Z</time>
      </trkpt>
      <trkpt lat="43.14781167" lon="-4.21028333">
        <ele>464.0</ele>
        <time>2018-05-19T11:42:03.869Z</time>
      </trkpt>
      <trkpt lat="43.14781167" lon="-4.21028333">
        <ele>464.0</ele>
        <time>2018-05-19T11:42:04.865Z</time>
      </trkpt>
      <trkpt lat="43.14781667" lon="-4.21017">
        <ele>464.0</ele>
        <time>2018-05-19T11:42:05.871Z</time>
      </trkpt>
      <trkpt lat="43.14782167" lon="-4.21011333">
        <ele>464.0</ele>
        <time>2018-05-19T11:42:06.857Z</time>
      </trkpt>
      <trkpt lat="43.14782167" lon="-4.21011333">
        <ele>464.0</ele>
        <time>2018-05-19T11:42:07.879Z</time>
      </trkpt>
      <trkpt lat="43.147825" lon="-4.21000167">
        <ele>465.0</ele>
        <time>2018-05-19T11:42:08.874Z</time>
      </trkpt>
      <trkpt lat="43.147825" lon="-4.21000167">
        <ele>465.0</ele>
        <time>2018-05-19T11:42:09.868Z</time>
      </trkpt>
      <trkpt lat="43.14783333" lon="-4.20989333">
        <ele>465.0</ele>
        <time>2018-05-19T11:42:10.868Z</time>
      </trkpt>
      <trkpt lat="43.14783333" lon="-4.20989333">
        <ele>465.0</ele>
        <time>2018-05-19T11:42:11.868Z</time>
      </trkpt>
      <trkpt lat="43.14783833" lon="-4.20978667">
        <ele>465.0</ele>
        <time>2018-05-19T11:42:12.869Z</time>
      </trkpt>
      <trkpt lat="43.14783833" lon="-4.20978667">
        <ele>465.0</ele>
        <time>2018-05-19T11:42:13.874Z</time>
      </trkpt>
      <trkpt lat="43.14783833" lon="-4.20967833">
        <ele>465.0</ele>
        <time>2018-05-19T11:42:14.869Z</time>
      </trkpt>
      <trkpt lat="43.14783833" lon="-4.20967833">
        <ele>465.0</ele>
        <time>2018-05-19T11:42:15.864Z</time>
      </trkpt>
      <trkpt lat="43.14784167" lon="-4.20956833">
        <ele>465.0</ele>
        <time>2018-05-19T11:42:16.862Z</time>
      </trkpt>
      <trkpt lat="43.14784333" lon="-4.20951333">
        <ele>464.0</ele>
        <time>2018-05-19T11:42:17.870Z</time>
      </trkpt>
      <trkpt lat="43.14784333" lon="-4.20951333">
        <ele>464.0</ele>
        <time>2018-05-19T11:42:18.866Z</time>
      </trkpt>
      <trkpt lat="43.14784667" lon="-4.209405">
        <ele>465.0</ele>
        <time>2018-05-19T11:42:19.870Z</time>
      </trkpt>
      <trkpt lat="43.14784667" lon="-4.209405">
        <ele>465.0</ele>
        <time>2018-05-19T11:42:20.867Z</time>
      </trkpt>
      <trkpt lat="43.14785167" lon="-4.20929833">
        <ele>465.0</ele>
        <time>2018-05-19T11:42:21.870Z</time>
      </trkpt>
      <trkpt lat="43.14785167" lon="-4.20929833">
        <ele>465.0</ele>
        <time>2018-05-19T11:42:22.865Z</time>
      </trkpt>
      <trkpt lat="43.14786" lon="-4.20919">
        <ele>465.0</ele>
        <time>2018-05-19T11:42:23.868Z</time>
      </trkpt>
      <trkpt lat="43.14786333" lon="-4.209135">
        <ele>465.0</ele>
        <time>2018-05-19T11:42:24.847Z</time>
      </trkpt>
      <trkpt lat="43.14786333" lon="-4.209135">
        <ele>465.0</ele>
        <time>2018-05-19T11:42:25.858Z</time>
      </trkpt>
      <trkpt lat="43.14787167" lon="-4.209025">
        <ele>465.0</ele>
        <time>2018-05-19T11:42:26.869Z</time>
      </trkpt>
      <trkpt lat="43.14787333" lon="-4.20897">
        <ele>465.0</ele>
        <time>2018-05-19T11:42:27.875Z</time>
      </trkpt>
      <trkpt lat="43.14787333" lon="-4.20897">
        <ele>465.0</ele>
        <time>2018-05-19T11:42:28.881Z</time>
      </trkpt>
      <trkpt lat="43.14787667" lon="-4.20886167">
        <ele>465.0</ele>
        <time>2018-05-19T11:42:29.877Z</time>
      </trkpt>
      <trkpt lat="43.14788" lon="-4.20880833">
        <ele>465.0</ele>
        <time>2018-05-19T11:42:30.871Z</time>
      </trkpt>
      <trkpt lat="43.14788" lon="-4.20880833">
        <ele>465.0</ele>
        <time>2018-05-19T11:42:31.867Z</time>
      </trkpt>
      <trkpt lat="43.14788833" lon="-4.20870333">
        <ele>465.0</ele>
        <time>2018-05-19T11:42:32.870Z</time>
      </trkpt>
      <trkpt lat="43.14788833" lon="-4.20870333">
        <ele>465.0</ele>
        <time>2018-05-19T11:42:33.860Z</time>
      </trkpt>
      <trkpt lat="43.147895" lon="-4.20859667">
        <ele>465.0</ele>
        <time>2018-05-19T11:42:34.845Z</time>
      </trkpt>
      <trkpt lat="43.14789833" lon="-4.20854167">
        <ele>465.0</ele>
        <time>2018-05-19T11:42:35.871Z</time>
      </trkpt>
      <trkpt lat="43.14789833" lon="-4.20854167">
        <ele>465.0</ele>
        <time>2018-05-19T11:42:36.864Z</time>
      </trkpt>
      <trkpt lat="43.147905" lon="-4.20843">
        <ele>465.0</ele>
        <time>2018-05-19T11:42:37.846Z</time>
      </trkpt>
      <trkpt lat="43.14791" lon="-4.20837667">
        <ele>466.0</ele>
        <time>2018-05-19T11:42:38.872Z</time>
      </trkpt>
      <trkpt lat="43.14791" lon="-4.20837667">
        <ele>466.0</ele>
        <time>2018-05-19T11:42:39.864Z</time>
      </trkpt>
      <trkpt lat="43.14792" lon="-4.20827167">
        <ele>466.0</ele>
        <time>2018-05-19T11:42:40.869Z</time>
      </trkpt>
      <trkpt lat="43.14792167" lon="-4.20821833">
        <ele>466.0</ele>
        <time>2018-05-19T11:42:41.871Z</time>
      </trkpt>
      <trkpt lat="43.14792167" lon="-4.20821833">
        <ele>466.0</ele>
        <time>2018-05-19T11:42:42.864Z</time>
      </trkpt>
      <trkpt lat="43.14792667" lon="-4.20811667">
        <ele>466.0</ele>
        <time>2018-05-19T11:42:43.881Z</time>
      </trkpt>
      <trkpt lat="43.14792833" lon="-4.208065">
        <ele>466.0</ele>
        <time>2018-05-19T11:42:44.870Z</time>
      </trkpt>
      <trkpt lat="43.14792833" lon="-4.208065">
        <ele>466.0</ele>
        <time>2018-05-19T11:42:45.858Z</time>
      </trkpt>
      <trkpt lat="43.14793167" lon="-4.20796167">
        <ele>466.0</ele>
        <time>2018-05-19T11:42:46.848Z</time>
      </trkpt>
      <trkpt lat="43.14793333" lon="-4.20791">
        <ele>466.0</ele>
        <time>2018-05-19T11:42:47.856Z</time>
      </trkpt>
      <trkpt lat="43.147935" lon="-4.20785833">
        <ele>466.0</ele>
        <time>2018-05-19T11:42:48.870Z</time>
      </trkpt>
      <trkpt lat="43.14793667" lon="-4.207805">
        <ele>466.0</ele>
        <time>2018-05-19T11:42:49.870Z</time>
      </trkpt>
      <trkpt lat="43.14793667" lon="-4.207805">
        <ele>466.0</ele>
        <time>2018-05-19T11:42:50.865Z</time>
      </trkpt>
      <trkpt lat="43.14794333" lon="-4.2077">
        <ele>466.0</ele>
        <time>2018-05-19T11:42:51.870Z</time>
      </trkpt>
      <trkpt lat="43.147945" lon="-4.20764667">
        <ele>466.0</ele>
        <time>2018-05-19T11:42:52.848Z</time>
      </trkpt>
      <trkpt lat="43.147945" lon="-4.20764667">
        <ele>466.0</ele>
        <time>2018-05-19T11:42:53.875Z</time>
      </trkpt>
      <trkpt lat="43.14794833" lon="-4.20754333">
        <ele>467.0</ele>
        <time>2018-05-19T11:42:54.871Z</time>
      </trkpt>
      <trkpt lat="43.14795167" lon="-4.20749167">
        <ele>467.0</ele>
        <time>2018-05-19T11:42:55.870Z</time>
      </trkpt>
      <trkpt lat="43.14795167" lon="-4.20749167">
        <ele>467.0</ele>
        <time>2018-05-19T11:42:56.874Z</time>
      </trkpt>
      <trkpt lat="43.14795667" lon="-4.20738667">
        <ele>467.0</ele>
        <time>2018-05-19T11:42:57.870Z</time>
      </trkpt>
      <trkpt lat="43.14795667" lon="-4.20738667">
        <ele>467.0</ele>
        <time>2018-05-19T11:42:58.864Z</time>
      </trkpt>
      <trkpt lat="43.14796" lon="-4.207285">
        <ele>467.0</ele>
        <time>2018-05-19T11:42:59.871Z</time>
      </trkpt>
      <trkpt lat="43.14796" lon="-4.207285">
        <ele>467.0</ele>
        <time>2018-05-19T11:43:00.865Z</time>
      </trkpt>
      <trkpt lat="43.14796167" lon="-4.20718167">
        <ele>467.0</ele>
        <time>2018-05-19T11:43:01.870Z</time>
      </trkpt>
      <trkpt lat="43.14796167" lon="-4.20718167">
        <ele>467.0</ele>
        <time>2018-05-19T11:43:02.864Z</time>
      </trkpt>
      <trkpt lat="43.147965" lon="-4.20707667">
        <ele>467.0</ele>
        <time>2018-05-19T11:43:03.871Z</time>
      </trkpt>
      <trkpt lat="43.147965" lon="-4.20707667">
        <ele>467.0</ele>
        <time>2018-05-19T11:43:04.865Z</time>
      </trkpt>
      <trkpt lat="43.14796833" lon="-4.20697">
        <ele>467.0</ele>
        <time>2018-05-19T11:43:05.870Z</time>
      </trkpt>
      <trkpt lat="43.14796833" lon="-4.20697">
        <ele>467.0</ele>
        <time>2018-05-19T11:43:06.864Z</time>
      </trkpt>
      <trkpt lat="43.14797167" lon="-4.20686167">
        <ele>468.0</ele>
        <time>2018-05-19T11:43:07.870Z</time>
      </trkpt>
      <trkpt lat="43.14797167" lon="-4.20686167">
        <ele>468.0</ele>
        <time>2018-05-19T11:43:08.864Z</time>
      </trkpt>
      <trkpt lat="43.14797667" lon="-4.20675667">
        <ele>468.0</ele>
        <time>2018-05-19T11:43:09.869Z</time>
      </trkpt>
      <trkpt lat="43.14797667" lon="-4.20675667">
        <ele>468.0</ele>
        <time>2018-05-19T11:43:10.864Z</time>
      </trkpt>
      <trkpt lat="43.147985" lon="-4.206655">
        <ele>468.0</ele>
        <time>2018-05-19T11:43:11.846Z</time>
      </trkpt>
      <trkpt lat="43.147985" lon="-4.206655">
        <ele>468.0</ele>
        <time>2018-05-19T11:43:12.873Z</time>
      </trkpt>
      <trkpt lat="43.14799" lon="-4.206555">
        <ele>469.0</ele>
        <time>2018-05-19T11:43:13.870Z</time>
      </trkpt>
      <trkpt lat="43.14799" lon="-4.206555">
        <ele>469.0</ele>
        <time>2018-05-19T11:43:14.864Z</time>
      </trkpt>
      <trkpt lat="43.147995" lon="-4.20645333">
        <ele>469.0</ele>
        <time>2018-05-19T11:43:15.869Z</time>
      </trkpt>
      <trkpt lat="43.147995" lon="-4.20645333">
        <ele>469.0</ele>
        <time>2018-05-19T11:43:16.857Z</time>
      </trkpt>
      <trkpt lat="43.148" lon="-4.20635167">
        <ele>469.0</ele>
        <time>2018-05-19T11:43:17.881Z</time>
      </trkpt>
      <trkpt lat="43.148" lon="-4.20635167">
        <ele>469.0</ele>
        <time>2018-05-19T11:43:18.866Z</time>
      </trkpt>
      <trkpt lat="43.14800833" lon="-4.20625">
        <ele>470.0</ele>
        <time>2018-05-19T11:43:19.881Z</time>
      </trkpt>
      <trkpt lat="43.14800833" lon="-4.20625">
        <ele>470.0</ele>
        <time>2018-05-19T11:43:20.867Z</time>
      </trkpt>
      <trkpt lat="43.148015" lon="-4.20614833">
        <ele>470.0</ele>
        <time>2018-05-19T11:43:21.869Z</time>
      </trkpt>
      <trkpt lat="43.148015" lon="-4.20614833">
        <ele>470.0</ele>
        <time>2018-05-19T11:43:22.867Z</time>
      </trkpt>
      <trkpt lat="43.14801833" lon="-4.20604333">
        <ele>470.0</ele>
        <time>2018-05-19T11:43:23.871Z</time>
      </trkpt>
      <trkpt lat="43.14801833" lon="-4.20604333">
        <ele>470.0</ele>
        <time>2018-05-19T11:43:24.873Z</time>
      </trkpt>
      <trkpt lat="43.14802333" lon="-4.20593667">
        <ele>470.0</ele>
        <time>2018-05-19T11:43:25.869Z</time>
      </trkpt>
      <trkpt lat="43.14802333" lon="-4.20593667">
        <ele>470.0</ele>
        <time>2018-05-19T11:43:26.874Z</time>
      </trkpt>
      <trkpt lat="43.14802833" lon="-4.20582667">
        <ele>470.0</ele>
        <time>2018-05-19T11:43:27.869Z</time>
      </trkpt>
      <trkpt lat="43.14802833" lon="-4.20582667">
        <ele>470.0</ele>
        <time>2018-05-19T11:43:28.864Z</time>
      </trkpt>
      <trkpt lat="43.14803333" lon="-4.20571667">
        <ele>470.0</ele>
        <time>2018-05-19T11:43:29.871Z</time>
      </trkpt>
      <trkpt lat="43.14803333" lon="-4.20571667">
        <ele>470.0</ele>
        <time>2018-05-19T11:43:30.867Z</time>
      </trkpt>
      <trkpt lat="43.14804167" lon="-4.20560333">
        <ele>470.0</ele>
        <time>2018-05-19T11:43:31.869Z</time>
      </trkpt>
      <trkpt lat="43.14804167" lon="-4.20560333">
        <ele>470.0</ele>
        <time>2018-05-19T11:43:32.864Z</time>
      </trkpt>
      <trkpt lat="43.14804333" lon="-4.20548833">
        <ele>471.0</ele>
        <time>2018-05-19T11:43:33.869Z</time>
      </trkpt>
      <trkpt lat="43.14804333" lon="-4.20548833">
        <ele>471.0</ele>
        <time>2018-05-19T11:43:34.865Z</time>
      </trkpt>
      <trkpt lat="43.14804333" lon="-4.205375">
        <ele>471.0</ele>
        <time>2018-05-19T11:43:35.871Z</time>
      </trkpt>
      <trkpt lat="43.14804333" lon="-4.205375">
        <ele>471.0</ele>
        <time>2018-05-19T11:43:36.874Z</time>
      </trkpt>
      <trkpt lat="43.14804333" lon="-4.20526333">
        <ele>471.0</ele>
        <time>2018-05-19T11:43:37.870Z</time>
      </trkpt>
      <trkpt lat="43.14804333" lon="-4.20526333">
        <ele>471.0</ele>
        <time>2018-05-19T11:43:38.864Z</time>
      </trkpt>
      <trkpt lat="43.14805" lon="-4.20515667">
        <ele>471.0</ele>
        <time>2018-05-19T11:43:39.869Z</time>
      </trkpt>
      <trkpt lat="43.14805" lon="-4.20515667">
        <ele>471.0</ele>
        <time>2018-05-19T11:43:40.864Z</time>
      </trkpt>
      <trkpt lat="43.14805667" lon="-4.20504667">
        <ele>472.0</ele>
        <time>2018-05-19T11:43:41.870Z</time>
      </trkpt>
      <trkpt lat="43.14805667" lon="-4.20504667">
        <ele>472.0</ele>
        <time>2018-05-19T11:43:42.864Z</time>
      </trkpt>
      <trkpt lat="43.14806333" lon="-4.20493667">
        <ele>472.0</ele>
        <time>2018-05-19T11:43:43.867Z</time>
      </trkpt>
      <trkpt lat="43.14806333" lon="-4.20493667">
        <ele>472.0</ele>
        <time>2018-05-19T11:43:44.864Z</time>
      </trkpt>
      <trkpt lat="43.14807167" lon="-4.20482333">
        <ele>472.0</ele>
        <time>2018-05-19T11:43:45.859Z</time>
      </trkpt>
      <trkpt lat="43.14807167" lon="-4.20482333">
        <ele>472.0</ele>
        <time>2018-05-19T11:43:46.845Z</time>
      </trkpt>
      <trkpt lat="43.14807667" lon="-4.20470833">
        <ele>472.0</ele>
        <time>2018-05-19T11:43:47.851Z</time>
      </trkpt>
      <trkpt lat="43.14807667" lon="-4.20470833">
        <ele>472.0</ele>
        <time>2018-05-19T11:43:48.858Z</time>
      </trkpt>
      <trkpt lat="43.14808167" lon="-4.20459167">
        <ele>472.0</ele>
        <time>2018-05-19T11:43:49.865Z</time>
      </trkpt>
      <trkpt lat="43.14808167" lon="-4.20459167">
        <ele>472.0</ele>
        <time>2018-05-19T11:43:50.871Z</time>
      </trkpt>
      <trkpt lat="43.14809167" lon="-4.20448">
        <ele>472.0</ele>
        <time>2018-05-19T11:43:51.866Z</time>
      </trkpt>
      <trkpt lat="43.14809167" lon="-4.20448">
        <ele>472.0</ele>
        <time>2018-05-19T11:43:52.878Z</time>
      </trkpt>
      <trkpt lat="43.1481" lon="-4.20437833">
        <ele>473.0</ele>
        <time>2018-05-19T11:43:53.877Z</time>
      </trkpt>
      <trkpt lat="43.14810167" lon="-4.20432333">
        <ele>473.0</ele>
        <time>2018-05-19T11:43:54.870Z</time>
      </trkpt>
      <trkpt lat="43.14810333" lon="-4.20426833">
        <ele>473.0</ele>
        <time>2018-05-19T11:43:55.870Z</time>
      </trkpt>
      <trkpt lat="43.14810333" lon="-4.20426833">
        <ele>473.0</ele>
        <time>2018-05-19T11:43:56.877Z</time>
      </trkpt>
      <trkpt lat="43.14810667" lon="-4.20415167">
        <ele>473.0</ele>
        <time>2018-05-19T11:43:57.844Z</time>
      </trkpt>
      <trkpt lat="43.14810667" lon="-4.20415167">
        <ele>473.0</ele>
        <time>2018-05-19T11:43:58.873Z</time>
      </trkpt>
      <trkpt lat="43.14811167" lon="-4.20403667">
        <ele>473.0</ele>
        <time>2018-05-19T11:43:59.871Z</time>
      </trkpt>
      <trkpt lat="43.14811167" lon="-4.20403667">
        <ele>473.0</ele>
        <time>2018-05-19T11:44:00.864Z</time>
      </trkpt>
      <trkpt lat="43.148115" lon="-4.20392333">
        <ele>473.0</ele>
        <time>2018-05-19T11:44:01.870Z</time>
      </trkpt>
      <trkpt lat="43.148115" lon="-4.20392333">
        <ele>473.0</ele>
        <time>2018-05-19T11:44:02.864Z</time>
      </trkpt>
      <trkpt lat="43.14812167" lon="-4.20381167">
        <ele>473.0</ele>
        <time>2018-05-19T11:44:03.869Z</time>
      </trkpt>
      <trkpt lat="43.14812167" lon="-4.20381167">
        <ele>473.0</ele>
        <time>2018-05-19T11:44:04.864Z</time>
      </trkpt>
      <trkpt lat="43.14812833" lon="-4.20370167">
        <ele>473.0</ele>
        <time>2018-05-19T11:44:05.846Z</time>
      </trkpt>
      <trkpt lat="43.14812833" lon="-4.20370167">
        <ele>473.0</ele>
        <time>2018-05-19T11:44:06.873Z</time>
      </trkpt>
      <trkpt lat="43.14813167" lon="-4.20359333">
        <ele>473.0</ele>
        <time>2018-05-19T11:44:07.870Z</time>
      </trkpt>
      <trkpt lat="43.14813167" lon="-4.20359333">
        <ele>473.0</ele>
        <time>2018-05-19T11:44:08.866Z</time>
      </trkpt>
      <trkpt lat="43.14814" lon="-4.203475">
        <ele>474.0</ele>
        <time>2018-05-19T11:44:09.869Z</time>
      </trkpt>
      <trkpt lat="43.14814" lon="-4.203475">
        <ele>474.0</ele>
        <time>2018-05-19T11:44:10.866Z</time>
      </trkpt>
      <trkpt lat="43.14814667" lon="-4.20335833">
        <ele>474.0</ele>
        <time>2018-05-19T11:44:11.870Z</time>
      </trkpt>
      <trkpt lat="43.14814667" lon="-4.20335833">
        <ele>474.0</ele>
        <time>2018-05-19T11:44:12.866Z</time>
      </trkpt>
      <trkpt lat="43.14815167" lon="-4.20324">
        <ele>474.0</ele>
        <time>2018-05-19T11:44:13.871Z</time>
      </trkpt>
      <trkpt lat="43.14815167" lon="-4.20324">
        <ele>474.0</ele>
        <time>2018-05-19T11:44:14.860Z</time>
      </trkpt>
      <trkpt lat="43.14815833" lon="-4.20312167">
        <ele>474.0</ele>
        <time>2018-05-19T11:44:15.844Z</time>
      </trkpt>
      <trkpt lat="43.14815833" lon="-4.20312167">
        <ele>474.0</ele>
        <time>2018-05-19T11:44:16.853Z</time>
      </trkpt>
      <trkpt lat="43.148165" lon="-4.203005">
        <ele>474.0</ele>
        <time>2018-05-19T11:44:17.879Z</time>
      </trkpt>
      <trkpt lat="43.148165" lon="-4.203005">
        <ele>474.0</ele>
        <time>2018-05-19T11:44:18.864Z</time>
      </trkpt>
      <trkpt lat="43.14817" lon="-4.20288833">
        <ele>474.0</ele>
        <time>2018-05-19T11:44:19.869Z</time>
      </trkpt>
      <trkpt lat="43.14817" lon="-4.20288833">
        <ele>474.0</ele>
        <time>2018-05-19T11:44:20.863Z</time>
      </trkpt>
      <trkpt lat="43.14817667" lon="-4.20277333">
        <ele>474.0</ele>
        <time>2018-05-19T11:44:21.849Z</time>
      </trkpt>
      <trkpt lat="43.14817667" lon="-4.20277333">
        <ele>474.0</ele>
        <time>2018-05-19T11:44:22.845Z</time>
      </trkpt>
      <trkpt lat="43.14818333" lon="-4.20265833">
        <ele>474.0</ele>
        <time>2018-05-19T11:44:23.872Z</time>
      </trkpt>
      <trkpt lat="43.14818333" lon="-4.20265833">
        <ele>474.0</ele>
        <time>2018-05-19T11:44:24.866Z</time>
      </trkpt>
      <trkpt lat="43.14818667" lon="-4.20254333">
        <ele>475.0</ele>
        <time>2018-05-19T11:44:25.869Z</time>
      </trkpt>
      <trkpt lat="43.14818667" lon="-4.20254333">
        <ele>475.0</ele>
        <time>2018-05-19T11:44:26.873Z</time>
      </trkpt>
      <trkpt lat="43.14819167" lon="-4.20243">
        <ele>475.0</ele>
        <time>2018-05-19T11:44:27.868Z</time>
      </trkpt>
      <trkpt lat="43.14819167" lon="-4.20243">
        <ele>475.0</ele>
        <time>2018-05-19T11:44:28.864Z</time>
      </trkpt>
      <trkpt lat="43.148195" lon="-4.202315">
        <ele>475.0</ele>
        <time>2018-05-19T11:44:29.846Z</time>
      </trkpt>
      <trkpt lat="43.148195" lon="-4.202315">
        <ele>475.0</ele>
        <time>2018-05-19T11:44:30.872Z</time>
      </trkpt>
      <trkpt lat="43.14820333" lon="-4.20220167">
        <ele>476.0</ele>
        <time>2018-05-19T11:44:31.869Z</time>
      </trkpt>
      <trkpt lat="43.148205" lon="-4.202145">
        <ele>476.0</ele>
        <time>2018-05-19T11:44:32.869Z</time>
      </trkpt>
      <trkpt lat="43.148205" lon="-4.202145">
        <ele>476.0</ele>
        <time>2018-05-19T11:44:33.863Z</time>
      </trkpt>
      <trkpt lat="43.14821" lon="-4.20203">
        <ele>476.0</ele>
        <time>2018-05-19T11:44:34.878Z</time>
      </trkpt>
      <trkpt lat="43.14821333" lon="-4.20197333">
        <ele>476.0</ele>
        <time>2018-05-19T11:44:35.871Z</time>
      </trkpt>
      <trkpt lat="43.14821333" lon="-4.20197333">
        <ele>476.0</ele>
        <time>2018-05-19T11:44:36.864Z</time>
      </trkpt>
      <trkpt lat="43.14822167" lon="-4.20186">
        <ele>476.0</ele>
        <time>2018-05-19T11:44:37.869Z</time>
      </trkpt>
      <trkpt lat="43.14822167" lon="-4.20186">
        <ele>476.0</ele>
        <time>2018-05-19T11:44:38.864Z</time>
      </trkpt>
      <trkpt lat="43.14822667" lon="-4.20174333">
        <ele>477.0</ele>
        <time>2018-05-19T11:44:39.869Z</time>
      </trkpt>
      <trkpt lat="43.14822667" lon="-4.20174333">
        <ele>477.0</ele>
        <time>2018-05-19T11:44:40.862Z</time>
      </trkpt>
      <trkpt lat="43.14823" lon="-4.20162833">
        <ele>477.0</ele>
        <time>2018-05-19T11:44:41.846Z</time>
      </trkpt>
      <trkpt lat="43.14823" lon="-4.20162833">
        <ele>477.0</ele>
        <time>2018-05-19T11:44:42.872Z</time>
      </trkpt>
      <trkpt lat="43.14823667" lon="-4.20151333">
        <ele>477.0</ele>
        <time>2018-05-19T11:44:43.870Z</time>
      </trkpt>
      <trkpt lat="43.14823667" lon="-4.20151333">
        <ele>477.0</ele>
        <time>2018-05-19T11:44:44.869Z</time>
      </trkpt>
      <trkpt lat="43.14824167" lon="-4.20139833">
        <ele>477.0</ele>
        <time>2018-05-19T11:44:45.864Z</time>
      </trkpt>
      <trkpt lat="43.148245" lon="-4.201345">
        <ele>477.0</ele>
        <time>2018-05-19T11:44:46.862Z</time>
      </trkpt>
      <trkpt lat="43.14825" lon="-4.20128333">
        <ele>477.0</ele>
        <time>2018-05-19T11:44:47.868Z</time>
      </trkpt>
      <trkpt lat="43.14825" lon="-4.20128333">
        <ele>477.0</ele>
        <time>2018-05-19T11:44:48.863Z</time>
      </trkpt>
      <trkpt lat="43.14825333" lon="-4.201165">
        <ele>477.0</ele>
        <time>2018-05-19T11:44:49.869Z</time>
      </trkpt>
      <trkpt lat="43.14825333" lon="-4.201165">
        <ele>477.0</ele>
        <time>2018-05-19T11:44:50.864Z</time>
      </trkpt>
      <trkpt lat="43.14825" lon="-4.20104333">
        <ele>478.0</ele>
        <time>2018-05-19T11:44:51.869Z</time>
      </trkpt>
      <trkpt lat="43.14825" lon="-4.20104333">
        <ele>478.0</ele>
        <time>2018-05-19T11:44:52.864Z</time>
      </trkpt>
      <trkpt lat="43.14825" lon="-4.20092333">
        <ele>478.0</ele>
        <time>2018-05-19T11:44:53.881Z</time>
      </trkpt>
      <trkpt lat="43.14825" lon="-4.20092333">
        <ele>478.0</ele>
        <time>2018-05-19T11:44:54.868Z</time>
      </trkpt>
      <trkpt lat="43.14824667" lon="-4.20080333">
        <ele>478.0</ele>
        <time>2018-05-19T11:44:55.869Z</time>
      </trkpt>
      <trkpt lat="43.14824667" lon="-4.20080333">
        <ele>478.0</ele>
        <time>2018-05-19T11:44:56.863Z</time>
      </trkpt>
      <trkpt lat="43.14824167" lon="-4.200685">
        <ele>478.0</ele>
        <time>2018-05-19T11:44:57.869Z</time>
      </trkpt>
      <trkpt lat="43.14824167" lon="-4.200685">
        <ele>478.0</ele>
        <time>2018-05-19T11:44:58.870Z</time>
      </trkpt>
      <trkpt lat="43.14823333" lon="-4.200565">
        <ele>478.0</ele>
        <time>2018-05-19T11:44:59.868Z</time>
      </trkpt>
      <trkpt lat="43.14823333" lon="-4.200565">
        <ele>478.0</ele>
        <time>2018-05-19T11:45:00.864Z</time>
      </trkpt>
      <trkpt lat="43.14822333" lon="-4.20044667">
        <ele>478.0</ele>
        <time>2018-05-19T11:45:01.869Z</time>
      </trkpt>
      <trkpt lat="43.14822" lon="-4.20038667">
        <ele>478.0</ele>
        <time>2018-05-19T11:45:02.869Z</time>
      </trkpt>
      <trkpt lat="43.14821333" lon="-4.20033">
        <ele>479.0</ele>
        <time>2018-05-19T11:45:03.870Z</time>
      </trkpt>
      <trkpt lat="43.14821333" lon="-4.20033">
        <ele>479.0</ele>
        <time>2018-05-19T11:45:04.865Z</time>
      </trkpt>
      <trkpt lat="43.148195" lon="-4.20021333">
        <ele>479.0</ele>
        <time>2018-05-19T11:45:05.870Z</time>
      </trkpt>
      <trkpt lat="43.148195" lon="-4.20021333">
        <ele>479.0</ele>
        <time>2018-05-19T11:45:06.867Z</time>
      </trkpt>
      <trkpt lat="43.14816833" lon="-4.20010333">
        <ele>479.0</ele>
        <time>2018-05-19T11:45:07.869Z</time>
      </trkpt>
      <trkpt lat="43.14816833" lon="-4.20010333">
        <ele>479.0</ele>
        <time>2018-05-19T11:45:08.868Z</time>
      </trkpt>
      <trkpt lat="43.14813333" lon="-4.199995">
        <ele>480.0</ele>
        <time>2018-05-19T11:45:09.869Z</time>
      </trkpt>
      <trkpt lat="43.14811833" lon="-4.19994">
        <ele>480.0</ele>
        <time>2018-05-19T11:45:10.869Z</time>
      </trkpt>
      <trkpt lat="43.14810333" lon="-4.199885">
        <ele>480.0</ele>
        <time>2018-05-19T11:45:11.873Z</time>
      </trkpt>
      <trkpt lat="43.14810333" lon="-4.199885">
        <ele>480.0</ele>
        <time>2018-05-19T11:45:12.864Z</time>
      </trkpt>
      <trkpt lat="43.14806667" lon="-4.19977833">
        <ele>481.0</ele>
        <time>2018-05-19T11:45:13.868Z</time>
      </trkpt>
      <trkpt lat="43.14806667" lon="-4.19977833">
        <ele>481.0</ele>
        <time>2018-05-19T11:45:14.864Z</time>
      </trkpt>
      <trkpt lat="43.14802667" lon="-4.19967167">
        <ele>481.0</ele>
        <time>2018-05-19T11:45:15.845Z</time>
      </trkpt>
      <trkpt lat="43.14802667" lon="-4.19967167">
        <ele>481.0</ele>
        <time>2018-05-19T11:45:16.849Z</time>
      </trkpt>
      <trkpt lat="43.14798667" lon="-4.19957">
        <ele>482.0</ele>
        <time>2018-05-19T11:45:17.877Z</time>
      </trkpt>
      <trkpt lat="43.14798667" lon="-4.19957">
        <ele>482.0</ele>
        <time>2018-05-19T11:45:18.863Z</time>
      </trkpt>
      <trkpt lat="43.14794333" lon="-4.19947">
        <ele>482.0</ele>
        <time>2018-05-19T11:45:19.849Z</time>
      </trkpt>
      <trkpt lat="43.14794333" lon="-4.19947">
        <ele>482.0</ele>
        <time>2018-05-19T11:45:20.877Z</time>
      </trkpt>
      <trkpt lat="43.1479" lon="-4.19936833">
        <ele>482.0</ele>
        <time>2018-05-19T11:45:21.869Z</time>
      </trkpt>
      <trkpt lat="43.14788" lon="-4.199315">
        <ele>482.0</ele>
        <time>2018-05-19T11:45:22.869Z</time>
      </trkpt>
      <trkpt lat="43.14785833" lon="-4.19926333">
        <ele>483.0</ele>
        <time>2018-05-19T11:45:23.869Z</time>
      </trkpt>
      <trkpt lat="43.14785833" lon="-4.19926333">
        <ele>483.0</ele>
        <time>2018-05-19T11:45:24.864Z</time>
      </trkpt>
      <trkpt lat="43.14781167" lon="-4.19916">
        <ele>483.0</ele>
        <time>2018-05-19T11:45:25.868Z</time>
      </trkpt>
      <trkpt lat="43.14781167" lon="-4.19916">
        <ele>483.0</ele>
        <time>2018-05-19T11:45:26.862Z</time>
      </trkpt>
      <trkpt lat="43.14776333" lon="-4.199055">
        <ele>483.0</ele>
        <time>2018-05-19T11:45:27.868Z</time>
      </trkpt>
      <trkpt lat="43.14776333" lon="-4.199055">
        <ele>483.0</ele>
        <time>2018-05-19T11:45:28.870Z</time>
      </trkpt>
      <trkpt lat="43.14771667" lon="-4.19895167">
        <ele>484.0</ele>
        <time>2018-05-19T11:45:29.869Z</time>
      </trkpt>
      <trkpt lat="43.14771667" lon="-4.19895167">
        <ele>484.0</ele>
        <time>2018-05-19T11:45:30.861Z</time>
      </trkpt>
      <trkpt lat="43.14767167" lon="-4.19884833">
        <ele>484.0</ele>
        <time>2018-05-19T11:45:31.867Z</time>
      </trkpt>
      <trkpt lat="43.14767167" lon="-4.19884833">
        <ele>484.0</ele>
        <time>2018-05-19T11:45:32.862Z</time>
      </trkpt>
      <trkpt lat="43.14762667" lon="-4.198745">
        <ele>485.0</ele>
        <time>2018-05-19T11:45:33.868Z</time>
      </trkpt>
      <trkpt lat="43.14762667" lon="-4.198745">
        <ele>485.0</ele>
        <time>2018-05-19T11:45:34.861Z</time>
      </trkpt>
      <trkpt lat="43.14758" lon="-4.19864">
        <ele>485.0</ele>
        <time>2018-05-19T11:45:35.869Z</time>
      </trkpt>
      <trkpt lat="43.14758" lon="-4.19864">
        <ele>485.0</ele>
        <time>2018-05-19T11:45:36.862Z</time>
      </trkpt>
      <trkpt lat="43.14753333" lon="-4.19854">
        <ele>485.0</ele>
        <time>2018-05-19T11:45:37.868Z</time>
      </trkpt>
      <trkpt lat="43.14753333" lon="-4.19854">
        <ele>485.0</ele>
        <time>2018-05-19T11:45:38.862Z</time>
      </trkpt>
      <trkpt lat="43.14748667" lon="-4.19843667">
        <ele>485.0</ele>
        <time>2018-05-19T11:45:39.864Z</time>
      </trkpt>
      <trkpt lat="43.14748667" lon="-4.19843667">
        <ele>485.0</ele>
        <time>2018-05-19T11:45:40.863Z</time>
      </trkpt>
      <trkpt lat="43.14744167" lon="-4.19833833">
        <ele>486.0</ele>
        <time>2018-05-19T11:45:41.869Z</time>
      </trkpt>
      <trkpt lat="43.14744167" lon="-4.19833833">
        <ele>486.0</ele>
        <time>2018-05-19T11:45:42.863Z</time>
      </trkpt>
      <trkpt lat="43.14739833" lon="-4.19823833">
        <ele>486.0</ele>
        <time>2018-05-19T11:45:43.868Z</time>
      </trkpt>
      <trkpt lat="43.14739833" lon="-4.19823833">
        <ele>486.0</ele>
        <time>2018-05-19T11:45:44.861Z</time>
      </trkpt>
      <trkpt lat="43.14735667" lon="-4.19813833">
        <ele>486.0</ele>
        <time>2018-05-19T11:45:45.863Z</time>
      </trkpt>
      <trkpt lat="43.147335" lon="-4.19809">
        <ele>486.0</ele>
        <time>2018-05-19T11:45:46.871Z</time>
      </trkpt>
      <trkpt lat="43.14731333" lon="-4.19804">
        <ele>486.0</ele>
        <time>2018-05-19T11:45:47.878Z</time>
      </trkpt>
      <trkpt lat="43.14731333" lon="-4.19804">
        <ele>486.0</ele>
        <time>2018-05-19T11:45:48.864Z</time>
      </trkpt>
      <trkpt lat="43.14726833" lon="-4.19794167">
        <ele>486.0</ele>
        <time>2018-05-19T11:45:49.868Z</time>
      </trkpt>
      <trkpt lat="43.14726833" lon="-4.19794167">
        <ele>486.0</ele>
        <time>2018-05-19T11:45:50.862Z</time>
      </trkpt>
      <trkpt lat="43.14722167" lon="-4.19784">
        <ele>487.0</ele>
        <time>2018-05-19T11:45:51.868Z</time>
      </trkpt>
      <trkpt lat="43.14722167" lon="-4.19784">
        <ele>487.0</ele>
        <time>2018-05-19T11:45:52.861Z</time>
      </trkpt>
      <trkpt lat="43.147185" lon="-4.19773667">
        <ele>487.0</ele>
        <time>2018-05-19T11:45:53.851Z</time>
      </trkpt>
      <trkpt lat="43.147185" lon="-4.19773667">
        <ele>487.0</ele>
        <time>2018-05-19T11:45:54.878Z</time>
      </trkpt>
      <trkpt lat="43.14715" lon="-4.19764">
        <ele>488.0</ele>
        <time>2018-05-19T11:45:55.868Z</time>
      </trkpt>
      <trkpt lat="43.14715" lon="-4.19764">
        <ele>488.0</ele>
        <time>2018-05-19T11:45:56.862Z</time>
      </trkpt>
      <trkpt lat="43.14711" lon="-4.19755">
        <ele>488.0</ele>
        <time>2018-05-19T11:45:57.868Z</time>
      </trkpt>
      <trkpt lat="43.14711" lon="-4.19755">
        <ele>488.0</ele>
        <time>2018-05-19T11:45:58.861Z</time>
      </trkpt>
      <trkpt lat="43.147075" lon="-4.197465">
        <ele>489.0</ele>
        <time>2018-05-19T11:45:59.869Z</time>
      </trkpt>
      <trkpt lat="43.147075" lon="-4.197465">
        <ele>489.0</ele>
        <time>2018-05-19T11:46:00.861Z</time>
      </trkpt>
      <trkpt lat="43.14705167" lon="-4.19737667">
        <ele>489.0</ele>
        <time>2018-05-19T11:46:01.868Z</time>
      </trkpt>
      <trkpt lat="43.14705167" lon="-4.19737667">
        <ele>489.0</ele>
        <time>2018-05-19T11:46:02.863Z</time>
      </trkpt>
      <trkpt lat="43.14702" lon="-4.1973">
        <ele>490.0</ele>
        <time>2018-05-19T11:46:03.865Z</time>
      </trkpt>
      <trkpt lat="43.14702" lon="-4.1973">
        <ele>490.0</ele>
        <time>2018-05-19T11:46:04.862Z</time>
      </trkpt>
      <trkpt lat="43.146985" lon="-4.19722833">
        <ele>491.0</ele>
        <time>2018-05-19T11:46:05.862Z</time>
      </trkpt>
      <trkpt lat="43.146985" lon="-4.19722833">
        <ele>491.0</ele>
        <time>2018-05-19T11:46:06.862Z</time>
      </trkpt>
      <trkpt lat="43.14695333" lon="-4.19715667">
        <ele>492.0</ele>
        <time>2018-05-19T11:46:07.868Z</time>
      </trkpt>
      <trkpt lat="43.14695333" lon="-4.19715667">
        <ele>492.0</ele>
        <time>2018-05-19T11:46:08.861Z</time>
      </trkpt>
      <trkpt lat="43.14692" lon="-4.19708167">
        <ele>493.0</ele>
        <time>2018-05-19T11:46:09.868Z</time>
      </trkpt>
      <trkpt lat="43.14692" lon="-4.19708167">
        <ele>493.0</ele>
        <time>2018-05-19T11:46:10.862Z</time>
      </trkpt>
      <trkpt lat="43.14688833" lon="-4.197005">
        <ele>493.0</ele>
        <time>2018-05-19T11:46:11.867Z</time>
      </trkpt>
      <trkpt lat="43.14688833" lon="-4.197005">
        <ele>493.0</ele>
        <time>2018-05-19T11:46:12.865Z</time>
      </trkpt>
      <trkpt lat="43.14685333" lon="-4.19692667">
        <ele>494.0</ele>
        <time>2018-05-19T11:46:13.868Z</time>
      </trkpt>
      <trkpt lat="43.14685333" lon="-4.19692667">
        <ele>494.0</ele>
        <time>2018-05-19T11:46:14.862Z</time>
      </trkpt>
      <trkpt lat="43.14682167" lon="-4.19685333">
        <ele>495.0</ele>
        <time>2018-05-19T11:46:15.851Z</time>
      </trkpt>
      <trkpt lat="43.14681" lon="-4.19681833">
        <ele>496.0</ele>
        <time>2018-05-19T11:46:16.863Z</time>
      </trkpt>
      <trkpt lat="43.14679833" lon="-4.19679167">
        <ele>496.0</ele>
        <time>2018-05-19T11:46:17.869Z</time>
      </trkpt>
      <trkpt lat="43.14678" lon="-4.19675833">
        <ele>497.0</ele>
        <time>2018-05-19T11:46:18.868Z</time>
      </trkpt>
      <trkpt lat="43.14678" lon="-4.19675833">
        <ele>497.0</ele>
        <time>2018-05-19T11:46:19.866Z</time>
      </trkpt>
      <trkpt lat="43.14674667" lon="-4.19668833">
        <ele>498.0</ele>
        <time>2018-05-19T11:46:20.868Z</time>
      </trkpt>
      <trkpt lat="43.14674667" lon="-4.19668833">
        <ele>498.0</ele>
        <time>2018-05-19T11:46:21.862Z</time>
      </trkpt>
      <trkpt lat="43.14671833" lon="-4.19661">
        <ele>499.0</ele>
        <time>2018-05-19T11:46:22.866Z</time>
      </trkpt>
      <trkpt lat="43.14671167" lon="-4.19657167">
        <ele>499.0</ele>
        <time>2018-05-19T11:46:23.870Z</time>
      </trkpt>
      <trkpt lat="43.14671167" lon="-4.19657167">
        <ele>499.0</ele>
        <time>2018-05-19T11:46:24.861Z</time>
      </trkpt>
      <trkpt lat="43.14668833" lon="-4.196485">
        <ele>500.0</ele>
        <time>2018-05-19T11:46:25.868Z</time>
      </trkpt>
      <trkpt lat="43.14668833" lon="-4.196485">
        <ele>500.0</ele>
        <time>2018-05-19T11:46:26.861Z</time>
      </trkpt>
      <trkpt lat="43.14665" lon="-4.19639667">
        <ele>501.0</ele>
        <time>2018-05-19T11:46:27.868Z</time>
      </trkpt>
      <trkpt lat="43.14665" lon="-4.19639667">
        <ele>501.0</ele>
        <time>2018-05-19T11:46:28.861Z</time>
      </trkpt>
      <trkpt lat="43.14661" lon="-4.19629667">
        <ele>502.0</ele>
        <time>2018-05-19T11:46:29.869Z</time>
      </trkpt>
      <trkpt lat="43.14661" lon="-4.19629667">
        <ele>502.0</ele>
        <time>2018-05-19T11:46:30.861Z</time>
      </trkpt>
      <trkpt lat="43.14657" lon="-4.19620833">
        <ele>504.0</ele>
        <time>2018-05-19T11:46:31.867Z</time>
      </trkpt>
      <trkpt lat="43.14657" lon="-4.19620833">
        <ele>504.0</ele>
        <time>2018-05-19T11:46:32.864Z</time>
      </trkpt>
      <trkpt lat="43.146525" lon="-4.19612">
        <ele>505.0</ele>
        <time>2018-05-19T11:46:33.864Z</time>
      </trkpt>
      <trkpt lat="43.14650333" lon="-4.19608">
        <ele>505.0</ele>
        <time>2018-05-19T11:46:34.868Z</time>
      </trkpt>
      <trkpt lat="43.14650333" lon="-4.19608">
        <ele>505.0</ele>
        <time>2018-05-19T11:46:35.863Z</time>
      </trkpt>
      <trkpt lat="43.14646167" lon="-4.196005">
        <ele>506.0</ele>
        <time>2018-05-19T11:46:36.875Z</time>
      </trkpt>
      <trkpt lat="43.14644" lon="-4.19596667">
        <ele>507.0</ele>
        <time>2018-05-19T11:46:37.868Z</time>
      </trkpt>
      <trkpt lat="43.14644" lon="-4.19596667">
        <ele>507.0</ele>
        <time>2018-05-19T11:46:38.861Z</time>
      </trkpt>
      <trkpt lat="43.146395" lon="-4.19589333">
        <ele>508.0</ele>
        <time>2018-05-19T11:46:39.867Z</time>
      </trkpt>
      <trkpt lat="43.146395" lon="-4.19589333">
        <ele>508.0</ele>
        <time>2018-05-19T11:46:40.862Z</time>
      </trkpt>
      <trkpt lat="43.14635333" lon="-4.19582167">
        <ele>509.0</ele>
        <time>2018-05-19T11:46:41.867Z</time>
      </trkpt>
      <trkpt lat="43.14635333" lon="-4.19582167">
        <ele>509.0</ele>
        <time>2018-05-19T11:46:42.861Z</time>
      </trkpt>
      <trkpt lat="43.14630667" lon="-4.195745">
        <ele>510.0</ele>
        <time>2018-05-19T11:46:43.848Z</time>
      </trkpt>
      <trkpt lat="43.14630667" lon="-4.195745">
        <ele>510.0</ele>
        <time>2018-05-19T11:46:44.844Z</time>
      </trkpt>
      <trkpt lat="43.14626" lon="-4.19566833">
        <ele>511.0</ele>
        <time>2018-05-19T11:46:45.844Z</time>
      </trkpt>
      <trkpt lat="43.14623667" lon="-4.19563333">
        <ele>511.0</ele>
        <time>2018-05-19T11:46:46.867Z</time>
      </trkpt>
      <trkpt lat="43.14621" lon="-4.195595">
        <ele>512.0</ele>
        <time>2018-05-19T11:46:47.873Z</time>
      </trkpt>
      <trkpt lat="43.14621" lon="-4.195595">
        <ele>512.0</ele>
        <time>2018-05-19T11:46:48.879Z</time>
      </trkpt>
      <trkpt lat="43.14616167" lon="-4.19552167">
        <ele>513.0</ele>
        <time>2018-05-19T11:46:49.868Z</time>
      </trkpt>
      <trkpt lat="43.14616167" lon="-4.19552167">
        <ele>513.0</ele>
        <time>2018-05-19T11:46:50.861Z</time>
      </trkpt>
      <trkpt lat="43.14611333" lon="-4.19544833">
        <ele>514.0</ele>
        <time>2018-05-19T11:46:51.864Z</time>
      </trkpt>
      <trkpt lat="43.14611333" lon="-4.19544833">
        <ele>514.0</ele>
        <time>2018-05-19T11:46:52.863Z</time>
      </trkpt>
      <trkpt lat="43.146065" lon="-4.195375">
        <ele>515.0</ele>
        <time>2018-05-19T11:46:53.851Z</time>
      </trkpt>
      <trkpt lat="43.146065" lon="-4.195375">
        <ele>515.0</ele>
        <time>2018-05-19T11:46:54.874Z</time>
      </trkpt>
      <trkpt lat="43.14601833" lon="-4.1953">
        <ele>516.0</ele>
        <time>2018-05-19T11:46:55.867Z</time>
      </trkpt>
      <trkpt lat="43.14601833" lon="-4.1953">
        <ele>516.0</ele>
        <time>2018-05-19T11:46:56.862Z</time>
      </trkpt>
      <trkpt lat="43.14596667" lon="-4.195225">
        <ele>517.0</ele>
        <time>2018-05-19T11:46:57.868Z</time>
      </trkpt>
      <trkpt lat="43.14596667" lon="-4.195225">
        <ele>517.0</ele>
        <time>2018-05-19T11:46:58.862Z</time>
      </trkpt>
      <trkpt lat="43.14591333" lon="-4.195145">
        <ele>518.0</ele>
        <time>2018-05-19T11:46:59.869Z</time>
      </trkpt>
      <trkpt lat="43.14591333" lon="-4.195145">
        <ele>518.0</ele>
        <time>2018-05-19T11:47:00.861Z</time>
      </trkpt>
      <trkpt lat="43.14586333" lon="-4.19506667">
        <ele>519.0</ele>
        <time>2018-05-19T11:47:01.867Z</time>
      </trkpt>
      <trkpt lat="43.14586333" lon="-4.19506667">
        <ele>519.0</ele>
        <time>2018-05-19T11:47:02.862Z</time>
      </trkpt>
      <trkpt lat="43.14581667" lon="-4.19499667">
        <ele>519.0</ele>
        <time>2018-05-19T11:47:03.864Z</time>
      </trkpt>
      <trkpt lat="43.14581667" lon="-4.19499667">
        <ele>519.0</ele>
        <time>2018-05-19T11:47:04.862Z</time>
      </trkpt>
      <trkpt lat="43.14576333" lon="-4.19492167">
        <ele>520.0</ele>
        <time>2018-05-19T11:47:05.868Z</time>
      </trkpt>
      <trkpt lat="43.14576333" lon="-4.19492167">
        <ele>520.0</ele>
        <time>2018-05-19T11:47:06.861Z</time>
      </trkpt>
      <trkpt lat="43.14571833" lon="-4.19484833">
        <ele>521.0</ele>
        <time>2018-05-19T11:47:07.867Z</time>
      </trkpt>
      <trkpt lat="43.14571833" lon="-4.19484833">
        <ele>521.0</ele>
        <time>2018-05-19T11:47:08.862Z</time>
      </trkpt>
      <trkpt lat="43.14567167" lon="-4.19477833">
        <ele>522.0</ele>
        <time>2018-05-19T11:47:09.867Z</time>
      </trkpt>
      <trkpt lat="43.14564667" lon="-4.19474333">
        <ele>523.0</ele>
        <time>2018-05-19T11:47:10.867Z</time>
      </trkpt>
      <trkpt lat="43.14562167" lon="-4.194705">
        <ele>523.0</ele>
        <time>2018-05-19T11:47:11.869Z</time>
      </trkpt>
      <trkpt lat="43.14562167" lon="-4.194705">
        <ele>523.0</ele>
        <time>2018-05-19T11:47:12.862Z</time>
      </trkpt>
      <trkpt lat="43.14557167" lon="-4.19463667">
        <ele>524.0</ele>
        <time>2018-05-19T11:47:13.847Z</time>
      </trkpt>
      <trkpt lat="43.14554833" lon="-4.19460167">
        <ele>524.0</ele>
        <time>2018-05-19T11:47:14.845Z</time>
      </trkpt>
      <trkpt lat="43.14552667" lon="-4.19456833">
        <ele>524.0</ele>
        <time>2018-05-19T11:47:15.869Z</time>
      </trkpt>
      <trkpt lat="43.14552667" lon="-4.19456833">
        <ele>524.0</ele>
        <time>2018-05-19T11:47:16.871Z</time>
      </trkpt>
      <trkpt lat="43.145485" lon="-4.1945">
        <ele>525.0</ele>
        <time>2018-05-19T11:47:17.869Z</time>
      </trkpt>
      <trkpt lat="43.145485" lon="-4.1945">
        <ele>525.0</ele>
        <time>2018-05-19T11:47:18.864Z</time>
      </trkpt>
      <trkpt lat="43.14545" lon="-4.19442833">
        <ele>525.0</ele>
        <time>2018-05-19T11:47:19.880Z</time>
      </trkpt>
      <trkpt lat="43.14545" lon="-4.19442833">
        <ele>525.0</ele>
        <time>2018-05-19T11:47:20.874Z</time>
      </trkpt>
      <trkpt lat="43.14541" lon="-4.194365">
        <ele>526.0</ele>
        <time>2018-05-19T11:47:21.864Z</time>
      </trkpt>
      <trkpt lat="43.14541" lon="-4.194365">
        <ele>526.0</ele>
        <time>2018-05-19T11:47:22.861Z</time>
      </trkpt>
      <trkpt lat="43.14536667" lon="-4.19430333">
        <ele>527.0</ele>
        <time>2018-05-19T11:47:23.869Z</time>
      </trkpt>
      <trkpt lat="43.14536667" lon="-4.19430333">
        <ele>527.0</ele>
        <time>2018-05-19T11:47:24.862Z</time>
      </trkpt>
      <trkpt lat="43.14532333" lon="-4.194235">
        <ele>527.0</ele>
        <time>2018-05-19T11:47:25.868Z</time>
      </trkpt>
      <trkpt lat="43.14532333" lon="-4.194235">
        <ele>527.0</ele>
        <time>2018-05-19T11:47:26.861Z</time>
      </trkpt>
      <trkpt lat="43.14527833" lon="-4.19417333">
        <ele>528.0</ele>
        <time>2018-05-19T11:47:27.868Z</time>
      </trkpt>
      <trkpt lat="43.14527833" lon="-4.19417333">
        <ele>528.0</ele>
        <time>2018-05-19T11:47:28.862Z</time>
      </trkpt>
      <trkpt lat="43.14523333" lon="-4.19411">
        <ele>528.0</ele>
        <time>2018-05-19T11:47:29.868Z</time>
      </trkpt>
      <trkpt lat="43.14523333" lon="-4.19411">
        <ele>528.0</ele>
        <time>2018-05-19T11:47:30.863Z</time>
      </trkpt>
      <trkpt lat="43.14519" lon="-4.19404167">
        <ele>529.0</ele>
        <time>2018-05-19T11:47:31.866Z</time>
      </trkpt>
      <trkpt lat="43.14519" lon="-4.19404167">
        <ele>529.0</ele>
        <time>2018-05-19T11:47:32.854Z</time>
      </trkpt>
      <trkpt lat="43.14514833" lon="-4.193975">
        <ele>529.0</ele>
        <time>2018-05-19T11:47:33.878Z</time>
      </trkpt>
      <trkpt lat="43.14514833" lon="-4.193975">
        <ele>529.0</ele>
        <time>2018-05-19T11:47:34.864Z</time>
      </trkpt>
      <trkpt lat="43.14509167" lon="-4.19391667">
        <ele>530.0</ele>
        <time>2018-05-19T11:47:35.868Z</time>
      </trkpt>
      <trkpt lat="43.14509167" lon="-4.19391667">
        <ele>530.0</ele>
        <time>2018-05-19T11:47:36.861Z</time>
      </trkpt>
      <trkpt lat="43.14502167" lon="-4.193865">
        <ele>530.0</ele>
        <time>2018-05-19T11:47:37.868Z</time>
      </trkpt>
      <trkpt lat="43.14502167" lon="-4.193865">
        <ele>530.0</ele>
        <time>2018-05-19T11:47:38.863Z</time>
      </trkpt>
      <trkpt lat="43.14494667" lon="-4.19382">
        <ele>530.0</ele>
        <time>2018-05-19T11:47:39.866Z</time>
      </trkpt>
      <trkpt lat="43.144905" lon="-4.19380833">
        <ele>531.0</ele>
        <time>2018-05-19T11:47:40.868Z</time>
      </trkpt>
      <trkpt lat="43.144905" lon="-4.19380833">
        <ele>531.0</ele>
        <time>2018-05-19T11:47:41.866Z</time>
      </trkpt>
      <trkpt lat="43.144815" lon="-4.19381167">
        <ele>531.0</ele>
        <time>2018-05-19T11:47:42.864Z</time>
      </trkpt>
      <trkpt lat="43.14476333" lon="-4.19382333">
        <ele>531.0</ele>
        <time>2018-05-19T11:47:43.868Z</time>
      </trkpt>
      <trkpt lat="43.14471167" lon="-4.19384667">
        <ele>530.0</ele>
        <time>2018-05-19T11:47:44.867Z</time>
      </trkpt>
      <trkpt lat="43.14471167" lon="-4.19384667">
        <ele>530.0</ele>
        <time>2018-05-19T11:47:45.859Z</time>
      </trkpt>
      <trkpt lat="43.144615" lon="-4.19387667">
        <ele>529.0</ele>
        <time>2018-05-19T11:47:46.880Z</time>
      </trkpt>
      <trkpt lat="43.14457" lon="-4.19388667">
        <ele>529.0</ele>
        <time>2018-05-19T11:47:47.846Z</time>
      </trkpt>
      <trkpt lat="43.14457" lon="-4.19388667">
        <ele>529.0</ele>
        <time>2018-05-19T11:47:48.854Z</time>
      </trkpt>
      <trkpt lat="43.14448" lon="-4.19387">
        <ele>529.0</ele>
        <time>2018-05-19T11:47:49.860Z</time>
      </trkpt>
      <trkpt lat="43.14443833" lon="-4.19384833">
        <ele>529.0</ele>
        <time>2018-05-19T11:47:50.868Z</time>
      </trkpt>
      <trkpt lat="43.14443833" lon="-4.19384833">
        <ele>529.0</ele>
        <time>2018-05-19T11:47:51.861Z</time>
      </trkpt>
      <trkpt lat="43.144345" lon="-4.19376833">
        <ele>529.0</ele>
        <time>2018-05-19T11:47:52.864Z</time>
      </trkpt>
      <trkpt lat="43.1443" lon="-4.193735">
        <ele>529.0</ele>
        <time>2018-05-19T11:47:53.848Z</time>
      </trkpt>
      <trkpt lat="43.1443" lon="-4.193735">
        <ele>529.0</ele>
        <time>2018-05-19T11:47:54.872Z</time>
      </trkpt>
      <trkpt lat="43.14421833" lon="-4.19366167">
        <ele>530.0</ele>
        <time>2018-05-19T11:47:55.867Z</time>
      </trkpt>
      <trkpt lat="43.14421833" lon="-4.19366167">
        <ele>530.0</ele>
        <time>2018-05-19T11:47:56.869Z</time>
      </trkpt>
      <trkpt lat="43.14414167" lon="-4.19362">
        <ele>530.0</ele>
        <time>2018-05-19T11:47:57.864Z</time>
      </trkpt>
      <trkpt lat="43.14414167" lon="-4.19362">
        <ele>530.0</ele>
        <time>2018-05-19T11:47:58.866Z</time>
      </trkpt>
      <trkpt lat="43.14404333" lon="-4.193595">
        <ele>530.0</ele>
        <time>2018-05-19T11:47:59.869Z</time>
      </trkpt>
      <trkpt lat="43.14404333" lon="-4.193595">
        <ele>530.0</ele>
        <time>2018-05-19T11:48:00.862Z</time>
      </trkpt>
      <trkpt lat="43.14393167" lon="-4.19359">
        <ele>530.0</ele>
        <time>2018-05-19T11:48:01.868Z</time>
      </trkpt>
      <trkpt lat="43.14393167" lon="-4.19359">
        <ele>530.0</ele>
        <time>2018-05-19T11:48:02.861Z</time>
      </trkpt>
      <trkpt lat="43.14383667" lon="-4.19356833">
        <ele>530.0</ele>
        <time>2018-05-19T11:48:03.844Z</time>
      </trkpt>
      <trkpt lat="43.14383667" lon="-4.19356833">
        <ele>530.0</ele>
        <time>2018-05-19T11:48:04.871Z</time>
      </trkpt>
      <trkpt lat="43.143755" lon="-4.19354167">
        <ele>530.0</ele>
        <time>2018-05-19T11:48:05.868Z</time>
      </trkpt>
      <trkpt lat="43.143755" lon="-4.19354167">
        <ele>530.0</ele>
        <time>2018-05-19T11:48:06.862Z</time>
      </trkpt>
      <trkpt lat="43.14367333" lon="-4.19350167">
        <ele>531.0</ele>
        <time>2018-05-19T11:48:07.868Z</time>
      </trkpt>
      <trkpt lat="43.14367333" lon="-4.19350167">
        <ele>531.0</ele>
        <time>2018-05-19T11:48:08.861Z</time>
      </trkpt>
      <trkpt lat="43.14358333" lon="-4.193445">
        <ele>531.0</ele>
        <time>2018-05-19T11:48:09.863Z</time>
      </trkpt>
      <trkpt lat="43.14358333" lon="-4.193445">
        <ele>531.0</ele>
        <time>2018-05-19T11:48:10.863Z</time>
      </trkpt>
      <trkpt lat="43.14349833" lon="-4.19336667">
        <ele>531.0</ele>
        <time>2018-05-19T11:48:11.868Z</time>
      </trkpt>
      <trkpt lat="43.14349833" lon="-4.19336667">
        <ele>531.0</ele>
        <time>2018-05-19T11:48:12.862Z</time>
      </trkpt>
      <trkpt lat="43.143415" lon="-4.19325667">
        <ele>531.0</ele>
        <time>2018-05-19T11:48:13.867Z</time>
      </trkpt>
      <trkpt lat="43.143415" lon="-4.19325667">
        <ele>531.0</ele>
        <time>2018-05-19T11:48:14.861Z</time>
      </trkpt>
      <trkpt lat="43.14334833" lon="-4.19316333">
        <ele>531.0</ele>
        <time>2018-05-19T11:48:15.863Z</time>
      </trkpt>
      <trkpt lat="43.14331833" lon="-4.19311833">
        <ele>532.0</ele>
        <time>2018-05-19T11:48:16.854Z</time>
      </trkpt>
      <trkpt lat="43.14331833" lon="-4.19311833">
        <ele>532.0</ele>
        <time>2018-05-19T11:48:17.880Z</time>
      </trkpt>
      <trkpt lat="43.14325667" lon="-4.19302667">
        <ele>532.0</ele>
        <time>2018-05-19T11:48:18.867Z</time>
      </trkpt>
      <trkpt lat="43.14322667" lon="-4.19298833">
        <ele>532.0</ele>
        <time>2018-05-19T11:48:19.867Z</time>
      </trkpt>
      <trkpt lat="43.14322667" lon="-4.19298833">
        <ele>532.0</ele>
        <time>2018-05-19T11:48:20.862Z</time>
      </trkpt>
      <trkpt lat="43.143155" lon="-4.19291667">
        <ele>532.0</ele>
        <time>2018-05-19T11:48:21.866Z</time>
      </trkpt>
      <trkpt lat="43.143115" lon="-4.19288667">
        <ele>532.0</ele>
        <time>2018-05-19T11:48:22.868Z</time>
      </trkpt>
      <trkpt lat="43.143075" lon="-4.19286">
        <ele>532.0</ele>
        <time>2018-05-19T11:48:23.874Z</time>
      </trkpt>
      <trkpt lat="43.143075" lon="-4.19286">
        <ele>532.0</ele>
        <time>2018-05-19T11:48:24.861Z</time>
      </trkpt>
      <trkpt lat="43.142995" lon="-4.19281333">
        <ele>532.0</ele>
        <time>2018-05-19T11:48:25.867Z</time>
      </trkpt>
      <trkpt lat="43.142995" lon="-4.19281333">
        <ele>532.0</ele>
        <time>2018-05-19T11:48:26.861Z</time>
      </trkpt>
      <trkpt lat="43.14290667" lon="-4.19277667">
        <ele>532.0</ele>
        <time>2018-05-19T11:48:27.864Z</time>
      </trkpt>
      <trkpt lat="43.14286667" lon="-4.19275333">
        <ele>532.0</ele>
        <time>2018-05-19T11:48:28.868Z</time>
      </trkpt>
      <trkpt lat="43.14282333" lon="-4.192725">
        <ele>532.0</ele>
        <time>2018-05-19T11:48:29.868Z</time>
      </trkpt>
      <trkpt lat="43.14282333" lon="-4.192725">
        <ele>532.0</ele>
        <time>2018-05-19T11:48:30.863Z</time>
      </trkpt>
      <trkpt lat="43.142735" lon="-4.19265667">
        <ele>532.0</ele>
        <time>2018-05-19T11:48:31.868Z</time>
      </trkpt>
      <trkpt lat="43.142735" lon="-4.19265667">
        <ele>532.0</ele>
        <time>2018-05-19T11:48:32.867Z</time>
      </trkpt>
      <trkpt lat="43.14265667" lon="-4.19258">
        <ele>531.0</ele>
        <time>2018-05-19T11:48:33.866Z</time>
      </trkpt>
      <trkpt lat="43.14262" lon="-4.19253833">
        <ele>531.0</ele>
        <time>2018-05-19T11:48:34.867Z</time>
      </trkpt>
      <trkpt lat="43.14262" lon="-4.19253833">
        <ele>531.0</ele>
        <time>2018-05-19T11:48:35.862Z</time>
      </trkpt>
      <trkpt lat="43.14254333" lon="-4.19244333">
        <ele>531.0</ele>
        <time>2018-05-19T11:48:36.864Z</time>
      </trkpt>
      <trkpt lat="43.14250667" lon="-4.1924">
        <ele>531.0</ele>
        <time>2018-05-19T11:48:37.868Z</time>
      </trkpt>
      <trkpt lat="43.14250667" lon="-4.1924">
        <ele>531.0</ele>
        <time>2018-05-19T11:48:38.862Z</time>
      </trkpt>
      <trkpt lat="43.14244" lon="-4.192325">
        <ele>531.0</ele>
        <time>2018-05-19T11:48:39.868Z</time>
      </trkpt>
      <trkpt lat="43.14244" lon="-4.192325">
        <ele>531.0</ele>
        <time>2018-05-19T11:48:40.862Z</time>
      </trkpt>
      <trkpt lat="43.14238167" lon="-4.19225167">
        <ele>532.0</ele>
        <time>2018-05-19T11:48:41.868Z</time>
      </trkpt>
      <trkpt lat="43.14238167" lon="-4.19225167">
        <ele>532.0</ele>
        <time>2018-05-19T11:48:42.862Z</time>
      </trkpt>
      <trkpt lat="43.14233" lon="-4.19219833">
        <ele>530.0</ele>
        <time>2018-05-19T11:48:43.867Z</time>
      </trkpt>
      <trkpt lat="43.14233" lon="-4.19219833">
        <ele>530.0</ele>
        <time>2018-05-19T11:48:44.861Z</time>
      </trkpt>
      <trkpt lat="43.14228333" lon="-4.19213833">
        <ele>530.0</ele>
        <time>2018-05-19T11:48:45.865Z</time>
      </trkpt>
      <trkpt lat="43.14225833" lon="-4.19210833">
        <ele>530.0</ele>
        <time>2018-05-19T11:48:46.869Z</time>
      </trkpt>
      <trkpt lat="43.14225833" lon="-4.19210833">
        <ele>530.0</ele>
        <time>2018-05-19T11:48:47.876Z</time>
      </trkpt>
      <trkpt lat="43.14222" lon="-4.19203667">
        <ele>530.0</ele>
        <time>2018-05-19T11:48:48.867Z</time>
      </trkpt>
      <trkpt lat="43.14220333" lon="-4.19200167">
        <ele>530.0</ele>
        <time>2018-05-19T11:48:49.868Z</time>
      </trkpt>
      <trkpt lat="43.14220333" lon="-4.19200167">
        <ele>530.0</ele>
        <time>2018-05-19T11:48:50.872Z</time>
      </trkpt>
      <trkpt lat="43.14217833" lon="-4.191935">
        <ele>530.0</ele>
        <time>2018-05-19T11:48:51.866Z</time>
      </trkpt>
      <trkpt lat="43.14216833" lon="-4.19190167">
        <ele>530.0</ele>
        <time>2018-05-19T11:48:52.866Z</time>
      </trkpt>
      <trkpt lat="43.14216167" lon="-4.19187">
        <ele>530.0</ele>
        <time>2018-05-19T11:48:53.872Z</time>
      </trkpt>
      <trkpt lat="43.14216167" lon="-4.19187">
        <ele>530.0</ele>
        <time>2018-05-19T11:48:54.864Z</time>
      </trkpt>
      <trkpt lat="43.14214167" lon="-4.19180833">
        <ele>530.0</ele>
        <time>2018-05-19T11:48:55.853Z</time>
      </trkpt>
      <trkpt lat="43.14213167" lon="-4.19177833">
        <ele>530.0</ele>
        <time>2018-05-19T11:48:56.863Z</time>
      </trkpt>
      <trkpt lat="43.14212333" lon="-4.19174833">
        <ele>530.0</ele>
        <time>2018-05-19T11:48:57.882Z</time>
      </trkpt>
      <trkpt lat="43.14212333" lon="-4.19174833">
        <ele>530.0</ele>
        <time>2018-05-19T11:48:58.866Z</time>
      </trkpt>
      <trkpt lat="43.142105" lon="-4.19167833">
        <ele>529.0</ele>
        <time>2018-05-19T11:48:59.868Z</time>
      </trkpt>
      <trkpt lat="43.142105" lon="-4.19167833">
        <ele>529.0</ele>
        <time>2018-05-19T11:49:00.865Z</time>
      </trkpt>
      <trkpt lat="43.14208" lon="-4.19160333">
        <ele>526.0</ele>
        <time>2018-05-19T11:49:01.878Z</time>
      </trkpt>
      <trkpt lat="43.14206333" lon="-4.19157833">
        <ele>526.0</ele>
        <time>2018-05-19T11:49:02.866Z</time>
      </trkpt>
      <trkpt lat="43.14206333" lon="-4.19157833">
        <ele>526.0</ele>
        <time>2018-05-19T11:49:03.863Z</time>
      </trkpt>
      <trkpt lat="43.142035" lon="-4.19152333">
        <ele>525.0</ele>
        <time>2018-05-19T11:49:04.863Z</time>
      </trkpt>
      <trkpt lat="43.142015" lon="-4.19150333">
        <ele>525.0</ele>
        <time>2018-05-19T11:49:05.868Z</time>
      </trkpt>
      <trkpt lat="43.142015" lon="-4.19150333">
        <ele>525.0</ele>
        <time>2018-05-19T11:49:06.868Z</time>
      </trkpt>
      <trkpt lat="43.14197167" lon="-4.19147">
        <ele>524.0</ele>
        <time>2018-05-19T11:49:07.845Z</time>
      </trkpt>
      <trkpt lat="43.14197167" lon="-4.19147">
        <ele>524.0</ele>
        <time>2018-05-19T11:49:08.869Z</time>
      </trkpt>
      <trkpt lat="43.14191333" lon="-4.19145333">
        <ele>524.0</ele>
        <time>2018-05-19T11:49:09.863Z</time>
      </trkpt>
      <trkpt lat="43.14187833" lon="-4.19144833">
        <ele>524.0</ele>
        <time>2018-05-19T11:49:10.867Z</time>
      </trkpt>
      <trkpt lat="43.14187833" lon="-4.19144833">
        <ele>524.0</ele>
        <time>2018-05-19T11:49:11.863Z</time>
      </trkpt>
      <trkpt lat="43.14179667" lon="-4.19143667">
        <ele>525.0</ele>
        <time>2018-05-19T11:49:12.864Z</time>
      </trkpt>
      <trkpt lat="43.14174667" lon="-4.19143167">
        <ele>525.0</ele>
        <time>2018-05-19T11:49:13.868Z</time>
      </trkpt>
      <trkpt lat="43.14174667" lon="-4.19143167">
        <ele>525.0</ele>
        <time>2018-05-19T11:49:14.862Z</time>
      </trkpt>
      <trkpt lat="43.14163" lon="-4.19143167">
        <ele>525.0</ele>
        <time>2018-05-19T11:49:15.863Z</time>
      </trkpt>
      <trkpt lat="43.14163" lon="-4.19143167">
        <ele>525.0</ele>
        <time>2018-05-19T11:49:16.862Z</time>
      </trkpt>
      <trkpt lat="43.1415" lon="-4.19144">
        <ele>525.0</ele>
        <time>2018-05-19T11:49:17.867Z</time>
      </trkpt>
      <trkpt lat="43.1415" lon="-4.19144">
        <ele>525.0</ele>
        <time>2018-05-19T11:49:18.856Z</time>
      </trkpt>
      <trkpt lat="43.14136" lon="-4.19146667">
        <ele>525.0</ele>
        <time>2018-05-19T11:49:19.882Z</time>
      </trkpt>
      <trkpt lat="43.14136" lon="-4.19146667">
        <ele>525.0</ele>
        <time>2018-05-19T11:49:20.866Z</time>
      </trkpt>
      <trkpt lat="43.14120333" lon="-4.191505">
        <ele>525.0</ele>
        <time>2018-05-19T11:49:21.864Z</time>
      </trkpt>
      <trkpt lat="43.14120333" lon="-4.191505">
        <ele>525.0</ele>
        <time>2018-05-19T11:49:22.863Z</time>
      </trkpt>
      <trkpt lat="43.14105333" lon="-4.19152833">
        <ele>526.0</ele>
        <time>2018-05-19T11:49:23.874Z</time>
      </trkpt>
      <trkpt lat="43.14105333" lon="-4.19152833">
        <ele>526.0</ele>
        <time>2018-05-19T11:49:24.863Z</time>
      </trkpt>
      <trkpt lat="43.14091167" lon="-4.19155333">
        <ele>526.0</ele>
        <time>2018-05-19T11:49:25.874Z</time>
      </trkpt>
      <trkpt lat="43.14091167" lon="-4.19155333">
        <ele>526.0</ele>
        <time>2018-05-19T11:49:26.863Z</time>
      </trkpt>
      <trkpt lat="43.14076333" lon="-4.19154167">
        <ele>526.0</ele>
        <time>2018-05-19T11:49:27.866Z</time>
      </trkpt>
      <trkpt lat="43.14076333" lon="-4.19154167">
        <ele>526.0</ele>
        <time>2018-05-19T11:49:28.861Z</time>
      </trkpt>
      <trkpt lat="43.14062833" lon="-4.19149833">
        <ele>527.0</ele>
        <time>2018-05-19T11:49:29.868Z</time>
      </trkpt>
      <trkpt lat="43.14062833" lon="-4.19149833">
        <ele>527.0</ele>
        <time>2018-05-19T11:49:30.865Z</time>
      </trkpt>
      <trkpt lat="43.140515" lon="-4.191445">
        <ele>527.0</ele>
        <time>2018-05-19T11:49:31.866Z</time>
      </trkpt>
      <trkpt lat="43.14047" lon="-4.19141667">
        <ele>527.0</ele>
        <time>2018-05-19T11:49:32.867Z</time>
      </trkpt>
      <trkpt lat="43.14047" lon="-4.19141667">
        <ele>527.0</ele>
        <time>2018-05-19T11:49:33.861Z</time>
      </trkpt>
      <trkpt lat="43.14036333" lon="-4.19136833">
        <ele>528.0</ele>
        <time>2018-05-19T11:49:34.865Z</time>
      </trkpt>
      <trkpt lat="43.14031167" lon="-4.19135">
        <ele>528.0</ele>
        <time>2018-05-19T11:49:35.868Z</time>
      </trkpt>
      <trkpt lat="43.14031167" lon="-4.19135">
        <ele>528.0</ele>
        <time>2018-05-19T11:49:36.863Z</time>
      </trkpt>
      <trkpt lat="43.140235" lon="-4.19129333">
        <ele>529.0</ele>
        <time>2018-05-19T11:49:37.868Z</time>
      </trkpt>
      <trkpt lat="43.140235" lon="-4.19129333">
        <ele>529.0</ele>
        <time>2018-05-19T11:49:38.863Z</time>
      </trkpt>
      <trkpt lat="43.14015667" lon="-4.191245">
        <ele>529.0</ele>
        <time>2018-05-19T11:49:39.866Z</time>
      </trkpt>
      <trkpt lat="43.14015667" lon="-4.191245">
        <ele>529.0</ele>
        <time>2018-05-19T11:49:40.860Z</time>
      </trkpt>
      <trkpt lat="43.14008167" lon="-4.191215">
        <ele>530.0</ele>
        <time>2018-05-19T11:49:41.867Z</time>
      </trkpt>
      <trkpt lat="43.14008167" lon="-4.191215">
        <ele>530.0</ele>
        <time>2018-05-19T11:49:42.861Z</time>
      </trkpt>
      <trkpt lat="43.14000667" lon="-4.1912">
        <ele>531.0</ele>
        <time>2018-05-19T11:49:43.869Z</time>
      </trkpt>
      <trkpt lat="43.14000667" lon="-4.1912">
        <ele>531.0</ele>
        <time>2018-05-19T11:49:44.861Z</time>
      </trkpt>
      <trkpt lat="43.139925" lon="-4.19119">
        <ele>532.0</ele>
        <time>2018-05-19T11:49:45.874Z</time>
      </trkpt>
      <trkpt lat="43.139875" lon="-4.19118667">
        <ele>532.0</ele>
        <time>2018-05-19T11:49:46.856Z</time>
      </trkpt>
      <trkpt lat="43.13983" lon="-4.19118333">
        <ele>532.0</ele>
        <time>2018-05-19T11:49:47.862Z</time>
      </trkpt>
      <trkpt lat="43.13983" lon="-4.19118333">
        <ele>532.0</ele>
        <time>2018-05-19T11:49:48.868Z</time>
      </trkpt>
      <trkpt lat="43.13974167" lon="-4.19117667">
        <ele>533.0</ele>
        <time>2018-05-19T11:49:49.874Z</time>
      </trkpt>
      <trkpt lat="43.13974167" lon="-4.19117667">
        <ele>533.0</ele>
        <time>2018-05-19T11:49:50.880Z</time>
      </trkpt>
      <trkpt lat="43.139645" lon="-4.19117">
        <ele>534.0</ele>
        <time>2018-05-19T11:49:51.864Z</time>
      </trkpt>
      <trkpt lat="43.139645" lon="-4.19117">
        <ele>534.0</ele>
        <time>2018-05-19T11:49:52.862Z</time>
      </trkpt>
      <trkpt lat="43.13954667" lon="-4.19116667">
        <ele>534.0</ele>
        <time>2018-05-19T11:49:53.847Z</time>
      </trkpt>
      <trkpt lat="43.13954667" lon="-4.19116667">
        <ele>534.0</ele>
        <time>2018-05-19T11:49:54.875Z</time>
      </trkpt>
      <trkpt lat="43.13945" lon="-4.19113833">
        <ele>535.0</ele>
        <time>2018-05-19T11:49:55.866Z</time>
      </trkpt>
      <trkpt lat="43.13945" lon="-4.19113833">
        <ele>535.0</ele>
        <time>2018-05-19T11:49:56.860Z</time>
      </trkpt>
      <trkpt lat="43.13935167" lon="-4.19111167">
        <ele>536.0</ele>
        <time>2018-05-19T11:49:57.862Z</time>
      </trkpt>
      <trkpt lat="43.13930333" lon="-4.19110167">
        <ele>536.0</ele>
        <time>2018-05-19T11:49:58.866Z</time>
      </trkpt>
      <trkpt lat="43.13925833" lon="-4.191095">
        <ele>536.0</ele>
        <time>2018-05-19T11:49:59.868Z</time>
      </trkpt>
      <trkpt lat="43.13925833" lon="-4.191095">
        <ele>536.0</ele>
        <time>2018-05-19T11:50:00.862Z</time>
      </trkpt>
      <trkpt lat="43.13916333" lon="-4.19106667">
        <ele>537.0</ele>
        <time>2018-05-19T11:50:01.863Z</time>
      </trkpt>
      <trkpt lat="43.13911667" lon="-4.19105333">
        <ele>537.0</ele>
        <time>2018-05-19T11:50:02.868Z</time>
      </trkpt>
      <trkpt lat="43.13911667" lon="-4.19105333">
        <ele>537.0</ele>
        <time>2018-05-19T11:50:03.854Z</time>
      </trkpt>
      <trkpt lat="43.139015" lon="-4.19101667">
        <ele>537.0</ele>
        <time>2018-05-19T11:50:04.879Z</time>
      </trkpt>
      <trkpt lat="43.13896167" lon="-4.191005">
        <ele>538.0</ele>
        <time>2018-05-19T11:50:05.868Z</time>
      </trkpt>
      <trkpt lat="43.13896167" lon="-4.191005">
        <ele>538.0</ele>
        <time>2018-05-19T11:50:06.864Z</time>
      </trkpt>
      <trkpt lat="43.13888" lon="-4.19097333">
        <ele>538.0</ele>
        <time>2018-05-19T11:50:07.873Z</time>
      </trkpt>
      <trkpt lat="43.13888" lon="-4.19097333">
        <ele>538.0</ele>
        <time>2018-05-19T11:50:08.860Z</time>
      </trkpt>
      <trkpt lat="43.13878833" lon="-4.19092167">
        <ele>539.0</ele>
        <time>2018-05-19T11:50:09.866Z</time>
      </trkpt>
      <trkpt lat="43.13878833" lon="-4.19092167">
        <ele>539.0</ele>
        <time>2018-05-19T11:50:10.863Z</time>
      </trkpt>
      <trkpt lat="43.13869167" lon="-4.19087667">
        <ele>539.0</ele>
        <time>2018-05-19T11:50:11.866Z</time>
      </trkpt>
      <trkpt lat="43.13869167" lon="-4.19087667">
        <ele>539.0</ele>
        <time>2018-05-19T11:50:12.861Z</time>
      </trkpt>
      <trkpt lat="43.13859833" lon="-4.19083333">
        <ele>540.0</ele>
        <time>2018-05-19T11:50:13.866Z</time>
      </trkpt>
      <trkpt lat="43.13859833" lon="-4.19083333">
        <ele>540.0</ele>
        <time>2018-05-19T11:50:14.860Z</time>
      </trkpt>
      <trkpt lat="43.13851167" lon="-4.19077833">
        <ele>540.0</ele>
        <time>2018-05-19T11:50:15.866Z</time>
      </trkpt>
      <trkpt lat="43.13851167" lon="-4.19077833">
        <ele>540.0</ele>
        <time>2018-05-19T11:50:16.861Z</time>
      </trkpt>
      <trkpt lat="43.13842667" lon="-4.190725">
        <ele>540.0</ele>
        <time>2018-05-19T11:50:17.864Z</time>
      </trkpt>
      <trkpt lat="43.13842667" lon="-4.190725">
        <ele>540.0</ele>
        <time>2018-05-19T11:50:18.860Z</time>
      </trkpt>
      <trkpt lat="43.13834667" lon="-4.19068">
        <ele>540.0</ele>
        <time>2018-05-19T11:50:19.867Z</time>
      </trkpt>
      <trkpt lat="43.13834667" lon="-4.19068">
        <ele>540.0</ele>
        <time>2018-05-19T11:50:20.862Z</time>
      </trkpt>
      <trkpt lat="43.138275" lon="-4.19062333">
        <ele>540.0</ele>
        <time>2018-05-19T11:50:21.876Z</time>
      </trkpt>
      <trkpt lat="43.138275" lon="-4.19062333">
        <ele>540.0</ele>
        <time>2018-05-19T11:50:22.861Z</time>
      </trkpt>
      <trkpt lat="43.13820167" lon="-4.19057333">
        <ele>541.0</ele>
        <time>2018-05-19T11:50:23.868Z</time>
      </trkpt>
      <trkpt lat="43.13820167" lon="-4.19057333">
        <ele>541.0</ele>
        <time>2018-05-19T11:50:24.863Z</time>
      </trkpt>
      <trkpt lat="43.13813167" lon="-4.19053">
        <ele>541.0</ele>
        <time>2018-05-19T11:50:25.866Z</time>
      </trkpt>
      <trkpt lat="43.13813167" lon="-4.19053">
        <ele>541.0</ele>
        <time>2018-05-19T11:50:26.870Z</time>
      </trkpt>
      <trkpt lat="43.13806333" lon="-4.19048167">
        <ele>541.0</ele>
        <time>2018-05-19T11:50:27.866Z</time>
      </trkpt>
      <trkpt lat="43.13806333" lon="-4.19048167">
        <ele>541.0</ele>
        <time>2018-05-19T11:50:28.854Z</time>
      </trkpt>
      <trkpt lat="43.13799667" lon="-4.19043667">
        <ele>542.0</ele>
        <time>2018-05-19T11:50:29.880Z</time>
      </trkpt>
      <trkpt lat="43.13799667" lon="-4.19043667">
        <ele>542.0</ele>
        <time>2018-05-19T11:50:30.866Z</time>
      </trkpt>
      <trkpt lat="43.137925" lon="-4.19038667">
        <ele>542.0</ele>
        <time>2018-05-19T11:50:31.867Z</time>
      </trkpt>
      <trkpt lat="43.137925" lon="-4.19038667">
        <ele>542.0</ele>
        <time>2018-05-19T11:50:32.860Z</time>
      </trkpt>
      <trkpt lat="43.13785667" lon="-4.190335">
        <ele>542.0</ele>
        <time>2018-05-19T11:50:33.880Z</time>
      </trkpt>
      <trkpt lat="43.13782167" lon="-4.19030833">
        <ele>542.0</ele>
        <time>2018-05-19T11:50:34.868Z</time>
      </trkpt>
      <trkpt lat="43.13782167" lon="-4.19030833">
        <ele>542.0</ele>
        <time>2018-05-19T11:50:35.861Z</time>
      </trkpt>
      <trkpt lat="43.13775667" lon="-4.19025333">
        <ele>542.0</ele>
        <time>2018-05-19T11:50:36.870Z</time>
      </trkpt>
      <trkpt lat="43.13772" lon="-4.19022333">
        <ele>542.0</ele>
        <time>2018-05-19T11:50:37.871Z</time>
      </trkpt>
      <trkpt lat="43.13772" lon="-4.19022333">
        <ele>542.0</ele>
        <time>2018-05-19T11:50:38.862Z</time>
      </trkpt>
      <trkpt lat="43.13765" lon="-4.19016667">
        <ele>542.0</ele>
        <time>2018-05-19T11:50:39.864Z</time>
      </trkpt>
      <trkpt lat="43.13765" lon="-4.19016667">
        <ele>542.0</ele>
        <time>2018-05-19T11:50:40.863Z</time>
      </trkpt>
      <trkpt lat="43.137585" lon="-4.19010333">
        <ele>543.0</ele>
        <time>2018-05-19T11:50:41.870Z</time>
      </trkpt>
      <trkpt lat="43.137585" lon="-4.19010333">
        <ele>543.0</ele>
        <time>2018-05-19T11:50:42.861Z</time>
      </trkpt>
      <trkpt lat="43.13751833" lon="-4.19003833">
        <ele>543.0</ele>
        <time>2018-05-19T11:50:43.868Z</time>
      </trkpt>
      <trkpt lat="43.13751833" lon="-4.19003833">
        <ele>543.0</ele>
        <time>2018-05-19T11:50:44.862Z</time>
      </trkpt>
      <trkpt lat="43.137445" lon="-4.18998667">
        <ele>544.0</ele>
        <time>2018-05-19T11:50:45.846Z</time>
      </trkpt>
      <trkpt lat="43.137405" lon="-4.18996167">
        <ele>544.0</ele>
        <time>2018-05-19T11:50:46.857Z</time>
      </trkpt>
      <trkpt lat="43.137405" lon="-4.18996167">
        <ele>544.0</ele>
        <time>2018-05-19T11:50:47.864Z</time>
      </trkpt>
      <trkpt lat="43.13732833" lon="-4.18990833">
        <ele>544.0</ele>
        <time>2018-05-19T11:50:48.872Z</time>
      </trkpt>
      <trkpt lat="43.13729167" lon="-4.189885">
        <ele>544.0</ele>
        <time>2018-05-19T11:50:49.866Z</time>
      </trkpt>
      <trkpt lat="43.13729167" lon="-4.189885">
        <ele>544.0</ele>
        <time>2018-05-19T11:50:50.863Z</time>
      </trkpt>
      <trkpt lat="43.13722333" lon="-4.18982833">
        <ele>545.0</ele>
        <time>2018-05-19T11:50:51.866Z</time>
      </trkpt>
      <trkpt lat="43.13718833" lon="-4.189795">
        <ele>545.0</ele>
        <time>2018-05-19T11:50:52.866Z</time>
      </trkpt>
      <trkpt lat="43.13718833" lon="-4.189795">
        <ele>545.0</ele>
        <time>2018-05-19T11:50:53.865Z</time>
      </trkpt>
      <trkpt lat="43.137125" lon="-4.18973167">
        <ele>545.0</ele>
        <time>2018-05-19T11:50:54.866Z</time>
      </trkpt>
      <trkpt lat="43.13709333" lon="-4.18970167">
        <ele>546.0</ele>
        <time>2018-05-19T11:50:55.866Z</time>
      </trkpt>
      <trkpt lat="43.13709333" lon="-4.18970167">
        <ele>546.0</ele>
        <time>2018-05-19T11:50:56.862Z</time>
      </trkpt>
      <trkpt lat="43.13703167" lon="-4.18964">
        <ele>546.0</ele>
        <time>2018-05-19T11:50:57.862Z</time>
      </trkpt>
      <trkpt lat="43.137005" lon="-4.18961333">
        <ele>546.0</ele>
        <time>2018-05-19T11:50:58.867Z</time>
      </trkpt>
      <trkpt lat="43.137005" lon="-4.18961333">
        <ele>546.0</ele>
        <time>2018-05-19T11:50:59.862Z</time>
      </trkpt>
      <trkpt lat="43.136945" lon="-4.18955333">
        <ele>547.0</ele>
        <time>2018-05-19T11:51:00.865Z</time>
      </trkpt>
      <trkpt lat="43.13691333" lon="-4.18952333">
        <ele>547.0</ele>
        <time>2018-05-19T11:51:01.866Z</time>
      </trkpt>
      <trkpt lat="43.13691333" lon="-4.18952333">
        <ele>547.0</ele>
        <time>2018-05-19T11:51:02.861Z</time>
      </trkpt>
      <trkpt lat="43.13684833" lon="-4.18945667">
        <ele>547.0</ele>
        <time>2018-05-19T11:51:03.865Z</time>
      </trkpt>
      <trkpt lat="43.13681667" lon="-4.18942333">
        <ele>547.0</ele>
        <time>2018-05-19T11:51:04.866Z</time>
      </trkpt>
      <trkpt lat="43.136785" lon="-4.18939">
        <ele>548.0</ele>
        <time>2018-05-19T11:51:05.864Z</time>
      </trkpt>
      <trkpt lat="43.136785" lon="-4.18939">
        <ele>548.0</ele>
        <time>2018-05-19T11:51:06.860Z</time>
      </trkpt>
      <trkpt lat="43.13671833" lon="-4.189325">
        <ele>548.0</ele>
        <time>2018-05-19T11:51:07.866Z</time>
      </trkpt>
      <trkpt lat="43.13671833" lon="-4.189325">
        <ele>548.0</ele>
        <time>2018-05-19T11:51:08.854Z</time>
      </trkpt>
      <trkpt lat="43.13665333" lon="-4.18926">
        <ele>549.0</ele>
        <time>2018-05-19T11:51:09.881Z</time>
      </trkpt>
      <trkpt lat="43.13665333" lon="-4.18926">
        <ele>549.0</ele>
        <time>2018-05-19T11:51:10.873Z</time>
      </trkpt>
      <trkpt lat="43.13659167" lon="-4.18918">
        <ele>549.0</ele>
        <time>2018-05-19T11:51:11.867Z</time>
      </trkpt>
      <trkpt lat="43.13659167" lon="-4.18918">
        <ele>549.0</ele>
        <time>2018-05-19T11:51:12.862Z</time>
      </trkpt>
      <trkpt lat="43.13654" lon="-4.189085">
        <ele>549.0</ele>
        <time>2018-05-19T11:51:13.862Z</time>
      </trkpt>
      <trkpt lat="43.13654" lon="-4.189085">
        <ele>549.0</ele>
        <time>2018-05-19T11:51:14.862Z</time>
      </trkpt>
      <trkpt lat="43.136495" lon="-4.18897833">
        <ele>550.0</ele>
        <time>2018-05-19T11:51:15.865Z</time>
      </trkpt>
      <trkpt lat="43.13647667" lon="-4.188925">
        <ele>550.0</ele>
        <time>2018-05-19T11:51:16.864Z</time>
      </trkpt>
      <trkpt lat="43.13647667" lon="-4.188925">
        <ele>550.0</ele>
        <time>2018-05-19T11:51:17.862Z</time>
      </trkpt>
      <trkpt lat="43.13644833" lon="-4.18882167">
        <ele>550.0</ele>
        <time>2018-05-19T11:51:18.848Z</time>
      </trkpt>
      <trkpt lat="43.13644" lon="-4.18877">
        <ele>550.0</ele>
        <time>2018-05-19T11:51:19.873Z</time>
      </trkpt>
      <trkpt lat="43.13644" lon="-4.18877">
        <ele>550.0</ele>
        <time>2018-05-19T11:51:20.862Z</time>
      </trkpt>
      <trkpt lat="43.13641667" lon="-4.18866667">
        <ele>550.0</ele>
        <time>2018-05-19T11:51:21.866Z</time>
      </trkpt>
      <trkpt lat="43.13641667" lon="-4.18866667">
        <ele>550.0</ele>
        <time>2018-05-19T11:51:22.862Z</time>
      </trkpt>
      <trkpt lat="43.13638667" lon="-4.18856333">
        <ele>550.0</ele>
        <time>2018-05-19T11:51:23.868Z</time>
      </trkpt>
      <trkpt lat="43.13638667" lon="-4.18856333">
        <ele>550.0</ele>
        <time>2018-05-19T11:51:24.862Z</time>
      </trkpt>
      <trkpt lat="43.13635" lon="-4.18846">
        <ele>550.0</ele>
        <time>2018-05-19T11:51:25.866Z</time>
      </trkpt>
      <trkpt lat="43.13635" lon="-4.18846">
        <ele>550.0</ele>
        <time>2018-05-19T11:51:26.863Z</time>
      </trkpt>
      <trkpt lat="43.13631" lon="-4.18836167">
        <ele>550.0</ele>
        <time>2018-05-19T11:51:27.866Z</time>
      </trkpt>
      <trkpt lat="43.13631" lon="-4.18836167">
        <ele>550.0</ele>
        <time>2018-05-19T11:51:28.862Z</time>
      </trkpt>
      <trkpt lat="43.13627" lon="-4.188255">
        <ele>550.0</ele>
        <time>2018-05-19T11:51:29.868Z</time>
      </trkpt>
      <trkpt lat="43.13627" lon="-4.188255">
        <ele>550.0</ele>
        <time>2018-05-19T11:51:30.862Z</time>
      </trkpt>
      <trkpt lat="43.13623667" lon="-4.18815667">
        <ele>550.0</ele>
        <time>2018-05-19T11:51:31.866Z</time>
      </trkpt>
      <trkpt lat="43.13623667" lon="-4.18815667">
        <ele>550.0</ele>
        <time>2018-05-19T11:51:32.861Z</time>
      </trkpt>
      <trkpt lat="43.13621167" lon="-4.18805333">
        <ele>549.0</ele>
        <time>2018-05-19T11:51:33.865Z</time>
      </trkpt>
      <trkpt lat="43.13619667" lon="-4.18799667">
        <ele>549.0</ele>
        <time>2018-05-19T11:51:34.863Z</time>
      </trkpt>
      <trkpt lat="43.13618333" lon="-4.18794">
        <ele>549.0</ele>
        <time>2018-05-19T11:51:35.874Z</time>
      </trkpt>
      <trkpt lat="43.13618333" lon="-4.18794">
        <ele>549.0</ele>
        <time>2018-05-19T11:51:36.861Z</time>
      </trkpt>
      <trkpt lat="43.13615833" lon="-4.18782667">
        <ele>550.0</ele>
        <time>2018-05-19T11:51:37.867Z</time>
      </trkpt>
      <trkpt lat="43.13615833" lon="-4.18782667">
        <ele>550.0</ele>
        <time>2018-05-19T11:51:38.862Z</time>
      </trkpt>
      <trkpt lat="43.13613833" lon="-4.18772167">
        <ele>549.0</ele>
        <time>2018-05-19T11:51:39.866Z</time>
      </trkpt>
      <trkpt lat="43.13613833" lon="-4.18772167">
        <ele>549.0</ele>
        <time>2018-05-19T11:51:40.862Z</time>
      </trkpt>
      <trkpt lat="43.13612167" lon="-4.18760167">
        <ele>549.0</ele>
        <time>2018-05-19T11:51:41.864Z</time>
      </trkpt>
      <trkpt lat="43.13612167" lon="-4.18760167">
        <ele>549.0</ele>
        <time>2018-05-19T11:51:42.863Z</time>
      </trkpt>
      <trkpt lat="43.136095" lon="-4.18745667">
        <ele>548.0</ele>
        <time>2018-05-19T11:51:43.846Z</time>
      </trkpt>
      <trkpt lat="43.136095" lon="-4.18745667">
        <ele>548.0</ele>
        <time>2018-05-19T11:51:44.872Z</time>
      </trkpt>
      <trkpt lat="43.13606667" lon="-4.187305">
        <ele>548.0</ele>
        <time>2018-05-19T11:51:45.878Z</time>
      </trkpt>
      <trkpt lat="43.13606667" lon="-4.187305">
        <ele>548.0</ele>
        <time>2018-05-19T11:51:46.852Z</time>
      </trkpt>
      <trkpt lat="43.13605" lon="-4.18715167">
        <ele>547.0</ele>
        <time>2018-05-19T11:51:47.859Z</time>
      </trkpt>
      <trkpt lat="43.13605" lon="-4.18715167">
        <ele>547.0</ele>
        <time>2018-05-19T11:51:48.871Z</time>
      </trkpt>
      <trkpt lat="43.13602833" lon="-4.18698667">
        <ele>547.0</ele>
        <time>2018-05-19T11:51:49.876Z</time>
      </trkpt>
      <trkpt lat="43.13602" lon="-4.1869">
        <ele>547.0</ele>
        <time>2018-05-19T11:51:50.882Z</time>
      </trkpt>
      <trkpt lat="43.13601" lon="-4.18681">
        <ele>547.0</ele>
        <time>2018-05-19T11:51:51.849Z</time>
      </trkpt>
      <trkpt lat="43.13601" lon="-4.18681">
        <ele>547.0</ele>
        <time>2018-05-19T11:51:52.855Z</time>
      </trkpt>
      <trkpt lat="43.13596667" lon="-4.18664167">
        <ele>546.0</ele>
        <time>2018-05-19T11:51:53.847Z</time>
      </trkpt>
      <trkpt lat="43.13596667" lon="-4.18664167">
        <ele>546.0</ele>
        <time>2018-05-19T11:51:54.871Z</time>
      </trkpt>
      <trkpt lat="43.135875" lon="-4.18651833">
        <ele>546.0</ele>
        <time>2018-05-19T11:51:55.866Z</time>
      </trkpt>
      <trkpt lat="43.135875" lon="-4.18651833">
        <ele>546.0</ele>
        <time>2018-05-19T11:51:56.862Z</time>
      </trkpt>
      <trkpt lat="43.13575833" lon="-4.186465">
        <ele>546.0</ele>
        <time>2018-05-19T11:51:57.866Z</time>
      </trkpt>
      <trkpt lat="43.13575833" lon="-4.186465">
        <ele>546.0</ele>
        <time>2018-05-19T11:51:58.868Z</time>
      </trkpt>
      <trkpt lat="43.13566333" lon="-4.18651167">
        <ele>545.0</ele>
        <time>2018-05-19T11:51:59.868Z</time>
      </trkpt>
      <trkpt lat="43.13566333" lon="-4.18651167">
        <ele>545.0</ele>
        <time>2018-05-19T11:52:00.862Z</time>
      </trkpt>
      <trkpt lat="43.13560333" lon="-4.18658667">
        <ele>545.0</ele>
        <time>2018-05-19T11:52:01.865Z</time>
      </trkpt>
      <trkpt lat="43.13560333" lon="-4.18658667">
        <ele>545.0</ele>
        <time>2018-05-19T11:52:02.863Z</time>
      </trkpt>
      <trkpt lat="43.13557333" lon="-4.18666">
        <ele>545.0</ele>
        <time>2018-05-19T11:52:03.865Z</time>
      </trkpt>
      <trkpt lat="43.13557333" lon="-4.18666">
        <ele>545.0</ele>
        <time>2018-05-19T11:52:04.862Z</time>
      </trkpt>
      <trkpt lat="43.13555667" lon="-4.18672333">
        <ele>545.0</ele>
        <time>2018-05-19T11:52:05.864Z</time>
      </trkpt>
      <trkpt lat="43.13555667" lon="-4.18672333">
        <ele>545.0</ele>
        <time>2018-05-19T11:52:06.875Z</time>
      </trkpt>
      <trkpt lat="43.13553333" lon="-4.18679833">
        <ele>545.0</ele>
        <time>2018-05-19T11:52:07.866Z</time>
      </trkpt>
      <trkpt lat="43.13553333" lon="-4.18679833">
        <ele>545.0</ele>
        <time>2018-05-19T11:52:08.862Z</time>
      </trkpt>
      <trkpt lat="43.13550333" lon="-4.18687667">
        <ele>545.0</ele>
        <time>2018-05-19T11:52:09.866Z</time>
      </trkpt>
      <trkpt lat="43.13550333" lon="-4.18687667">
        <ele>545.0</ele>
        <time>2018-05-19T11:52:10.862Z</time>
      </trkpt>
      <trkpt lat="43.13548167" lon="-4.18695333">
        <ele>545.0</ele>
        <time>2018-05-19T11:52:11.864Z</time>
      </trkpt>
      <trkpt lat="43.13548167" lon="-4.18695333">
        <ele>545.0</ele>
        <time>2018-05-19T11:52:12.860Z</time>
      </trkpt>
      <trkpt lat="43.13544167" lon="-4.187005">
        <ele>546.0</ele>
        <time>2018-05-19T11:52:13.846Z</time>
      </trkpt>
      <trkpt lat="43.13544167" lon="-4.187005">
        <ele>546.0</ele>
        <time>2018-05-19T11:52:14.872Z</time>
      </trkpt>
      <trkpt lat="43.13540667" lon="-4.18707667">
        <ele>546.0</ele>
        <time>2018-05-19T11:52:15.865Z</time>
      </trkpt>
      <trkpt lat="43.13540667" lon="-4.18707667">
        <ele>546.0</ele>
        <time>2018-05-19T11:52:16.860Z</time>
      </trkpt>
      <trkpt lat="43.135365" lon="-4.18714333">
        <ele>546.0</ele>
        <time>2018-05-19T11:52:17.867Z</time>
      </trkpt>
      <trkpt lat="43.135365" lon="-4.18714333">
        <ele>546.0</ele>
        <time>2018-05-19T11:52:18.863Z</time>
      </trkpt>
      <trkpt lat="43.135305" lon="-4.187185">
        <ele>545.0</ele>
        <time>2018-05-19T11:52:19.868Z</time>
      </trkpt>
      <trkpt lat="43.135305" lon="-4.187185">
        <ele>545.0</ele>
        <time>2018-05-19T11:52:20.862Z</time>
      </trkpt>
      <trkpt lat="43.13523333" lon="-4.18719">
        <ele>544.0</ele>
        <time>2018-05-19T11:52:21.866Z</time>
      </trkpt>
      <trkpt lat="43.13520667" lon="-4.18718">
        <ele>543.0</ele>
        <time>2018-05-19T11:52:22.863Z</time>
      </trkpt>
      <trkpt lat="43.13518667" lon="-4.18715667">
        <ele>543.0</ele>
        <time>2018-05-19T11:52:23.868Z</time>
      </trkpt>
      <trkpt lat="43.13518667" lon="-4.18715667">
        <ele>543.0</ele>
        <time>2018-05-19T11:52:24.863Z</time>
      </trkpt>
      <trkpt lat="43.135155" lon="-4.18708333">
        <ele>542.0</ele>
        <time>2018-05-19T11:52:25.866Z</time>
      </trkpt>
      <trkpt lat="43.135155" lon="-4.18708333">
        <ele>542.0</ele>
        <time>2018-05-19T11:52:26.862Z</time>
      </trkpt>
      <trkpt lat="43.13512" lon="-4.18701">
        <ele>541.0</ele>
        <time>2018-05-19T11:52:27.864Z</time>
      </trkpt>
      <trkpt lat="43.13510167" lon="-4.186975">
        <ele>541.0</ele>
        <time>2018-05-19T11:52:28.866Z</time>
      </trkpt>
      <trkpt lat="43.13508167" lon="-4.18693833">
        <ele>541.0</ele>
        <time>2018-05-19T11:52:29.868Z</time>
      </trkpt>
      <trkpt lat="43.13508167" lon="-4.18693833">
        <ele>541.0</ele>
        <time>2018-05-19T11:52:30.861Z</time>
      </trkpt>
      <trkpt lat="43.13504333" lon="-4.18686333">
        <ele>542.0</ele>
        <time>2018-05-19T11:52:31.867Z</time>
      </trkpt>
      <trkpt lat="43.13502333" lon="-4.18682667">
        <ele>542.0</ele>
        <time>2018-05-19T11:52:32.869Z</time>
      </trkpt>
      <trkpt lat="43.13502333" lon="-4.18682667">
        <ele>542.0</ele>
        <time>2018-05-19T11:52:33.862Z</time>
      </trkpt>
      <trkpt lat="43.13498333" lon="-4.18675667">
        <ele>542.0</ele>
        <time>2018-05-19T11:52:34.868Z</time>
      </trkpt>
      <trkpt lat="43.13496167" lon="-4.18672167">
        <ele>542.0</ele>
        <time>2018-05-19T11:52:35.868Z</time>
      </trkpt>
      <trkpt lat="43.13496167" lon="-4.18672167">
        <ele>542.0</ele>
        <time>2018-05-19T11:52:36.860Z</time>
      </trkpt>
      <trkpt lat="43.13491833" lon="-4.18665333">
        <ele>542.0</ele>
        <time>2018-05-19T11:52:37.867Z</time>
      </trkpt>
      <trkpt lat="43.13491833" lon="-4.18665333">
        <ele>542.0</ele>
        <time>2018-05-19T11:52:38.863Z</time>
      </trkpt>
      <trkpt lat="43.13488167" lon="-4.18659">
        <ele>542.0</ele>
        <time>2018-05-19T11:52:39.866Z</time>
      </trkpt>
      <trkpt lat="43.134865" lon="-4.18656333">
        <ele>542.0</ele>
        <time>2018-05-19T11:52:40.868Z</time>
      </trkpt>
      <trkpt lat="43.134865" lon="-4.18656333">
        <ele>542.0</ele>
        <time>2018-05-19T11:52:41.862Z</time>
      </trkpt>
      <trkpt lat="43.13483667" lon="-4.18651833">
        <ele>542.0</ele>
        <time>2018-05-19T11:52:42.876Z</time>
      </trkpt>
      <trkpt lat="43.13483" lon="-4.18650667">
        <ele>542.0</ele>
        <time>2018-05-19T11:52:43.880Z</time>
      </trkpt>
      <trkpt lat="43.13483" lon="-4.18650667">
        <ele>542.0</ele>
        <time>2018-05-19T11:52:44.869Z</time>
      </trkpt>
      <trkpt lat="43.13482833" lon="-4.18650167">
        <ele>542.0</ele>
        <time>2018-05-19T11:52:45.867Z</time>
      </trkpt>
      <trkpt lat="43.13482833" lon="-4.18650167">
        <ele>542.0</ele>
        <time>2018-05-19T11:52:46.872Z</time>
      </trkpt>
      <trkpt lat="43.134795" lon="-4.18646833">
        <ele>541.0</ele>
        <time>2018-05-19T11:52:47.859Z</time>
      </trkpt>
      <trkpt lat="43.134795" lon="-4.18646833">
        <ele>541.0</ele>
        <time>2018-05-19T11:52:48.858Z</time>
      </trkpt>
      <trkpt lat="43.13479667" lon="-4.186445">
        <ele>541.0</ele>
        <time>2018-05-19T11:52:49.860Z</time>
      </trkpt>
      <trkpt lat="43.13479833" lon="-4.18643167">
        <ele>541.0</ele>
        <time>2018-05-19T11:52:50.864Z</time>
      </trkpt>
      <trkpt lat="43.13479833" lon="-4.18643167">
        <ele>541.0</ele>
        <time>2018-05-19T11:52:51.856Z</time>
      </trkpt>
      <trkpt lat="43.13480333" lon="-4.18641">
        <ele>541.0</ele>
        <time>2018-05-19T11:52:52.863Z</time>
      </trkpt>
      <trkpt lat="43.13480333" lon="-4.18641">
        <ele>541.0</ele>
        <time>2018-05-19T11:52:53.859Z</time>
      </trkpt>
      <trkpt lat="43.13480667" lon="-4.186385">
        <ele>541.0</ele>
        <time>2018-05-19T11:52:54.876Z</time>
      </trkpt>
      <trkpt lat="43.13480667" lon="-4.186385">
        <ele>541.0</ele>
        <time>2018-05-19T11:52:55.866Z</time>
      </trkpt>
      <trkpt lat="43.13481167" lon="-4.18636">
        <ele>542.0</ele>
        <time>2018-05-19T11:52:56.866Z</time>
      </trkpt>
      <trkpt lat="43.13481167" lon="-4.18636">
        <ele>542.0</ele>
        <time>2018-05-19T11:52:57.858Z</time>
      </trkpt>
      <trkpt lat="43.13481667" lon="-4.186335">
        <ele>542.0</ele>
        <time>2018-05-19T11:52:58.863Z</time>
      </trkpt>
      <trkpt lat="43.13481667" lon="-4.186335">
        <ele>542.0</ele>
        <time>2018-05-19T11:52:59.862Z</time>
      </trkpt>
      <trkpt lat="43.13481833" lon="-4.18630833">
        <ele>542.0</ele>
        <time>2018-05-19T11:53:00.864Z</time>
      </trkpt>
      <trkpt lat="43.13481833" lon="-4.18630833">
        <ele>542.0</ele>
        <time>2018-05-19T11:53:01.857Z</time>
      </trkpt>
      <trkpt lat="43.13481833" lon="-4.18628">
        <ele>542.0</ele>
        <time>2018-05-19T11:53:02.863Z</time>
      </trkpt>
      <trkpt lat="43.13481833" lon="-4.18628">
        <ele>542.0</ele>
        <time>2018-05-19T11:53:03.857Z</time>
      </trkpt>
      <trkpt lat="43.13482" lon="-4.18625833">
        <ele>542.0</ele>
        <time>2018-05-19T11:53:04.864Z</time>
      </trkpt>
      <trkpt lat="43.13482" lon="-4.18625833">
        <ele>542.0</ele>
        <time>2018-05-19T11:53:05.857Z</time>
      </trkpt>
      <trkpt lat="43.13482167" lon="-4.18623833">
        <ele>543.0</ele>
        <time>2018-05-19T11:53:06.861Z</time>
      </trkpt>
      <trkpt lat="43.13482167" lon="-4.18623833">
        <ele>543.0</ele>
        <time>2018-05-19T11:53:07.862Z</time>
      </trkpt>
      <trkpt lat="43.13481667" lon="-4.18622">
        <ele>543.0</ele>
        <time>2018-05-19T11:53:08.862Z</time>
      </trkpt>
      <trkpt lat="43.13481667" lon="-4.18622">
        <ele>543.0</ele>
        <time>2018-05-19T11:53:09.858Z</time>
      </trkpt>
      <trkpt lat="43.13481333" lon="-4.18620333">
        <ele>543.0</ele>
        <time>2018-05-19T11:53:10.865Z</time>
      </trkpt>
      <trkpt lat="43.13481333" lon="-4.18620333">
        <ele>543.0</ele>
        <time>2018-05-19T11:53:11.867Z</time>
      </trkpt>
      <trkpt lat="43.134815" lon="-4.18618667">
        <ele>543.0</ele>
        <time>2018-05-19T11:53:12.867Z</time>
      </trkpt>
      <trkpt lat="43.134815" lon="-4.18618667">
        <ele>543.0</ele>
        <time>2018-05-19T11:53:13.858Z</time>
      </trkpt>
      <trkpt lat="43.13481667" lon="-4.18618167">
        <ele>543.0</ele>
        <time>2018-05-19T11:53:14.869Z</time>
      </trkpt>
      <trkpt lat="43.13481167" lon="-4.18611833">
        <ele>543.0</ele>
        <time>2018-05-19T11:53:15.847Z</time>
      </trkpt>
      <trkpt lat="43.13481" lon="-4.18610667">
        <ele>543.0</ele>
        <time>2018-05-19T11:53:16.856Z</time>
      </trkpt>
      <trkpt lat="43.13481" lon="-4.18610667">
        <ele>543.0</ele>
        <time>2018-05-19T11:53:17.861Z</time>
      </trkpt>
      <trkpt lat="43.13480333" lon="-4.18608833">
        <ele>543.0</ele>
        <time>2018-05-19T11:53:18.859Z</time>
      </trkpt>
      <trkpt lat="43.13479667" lon="-4.18607833">
        <ele>543.0</ele>
        <time>2018-05-19T11:53:19.862Z</time>
      </trkpt>
      <trkpt lat="43.13479667" lon="-4.18607833">
        <ele>543.0</ele>
        <time>2018-05-19T11:53:20.869Z</time>
      </trkpt>
      <trkpt lat="43.13478667" lon="-4.18606">
        <ele>543.0</ele>
        <time>2018-05-19T11:53:21.858Z</time>
      </trkpt>
      <trkpt lat="43.13478" lon="-4.186055">
        <ele>543.0</ele>
        <time>2018-05-19T11:53:22.861Z</time>
      </trkpt>
      <trkpt lat="43.13477333" lon="-4.18605167">
        <ele>543.0</ele>
        <time>2018-05-19T11:53:23.854Z</time>
      </trkpt>
      <trkpt lat="43.13476833" lon="-4.18604667">
        <ele>543.0</ele>
        <time>2018-05-19T11:53:24.851Z</time>
      </trkpt>
      <trkpt lat="43.13476833" lon="-4.18604667">
        <ele>543.0</ele>
        <time>2018-05-19T11:53:25.856Z</time>
      </trkpt>
      <trkpt lat="43.13475" lon="-4.18603833">
        <ele>543.0</ele>
        <time>2018-05-19T11:53:26.851Z</time>
      </trkpt>
      <trkpt lat="43.13475" lon="-4.18603333">
        <ele>543.0</ele>
        <time>2018-05-19T11:53:27.854Z</time>
      </trkpt>
      <trkpt lat="43.13475" lon="-4.18603333">
        <ele>543.0</ele>
        <time>2018-05-19T11:53:28.880Z</time>
      </trkpt>
      <trkpt lat="43.1348" lon="-4.18593333">
        <ele>552.0</ele>
        <time>2018-05-19T11:53:29.882Z</time>
      </trkpt>
      <trkpt lat="43.1348" lon="-4.18593333">
        <ele>552.0</ele>
        <time>2018-05-19T11:53:30.877Z</time>
      </trkpt>
      <trkpt lat="43.13475833" lon="-4.18588667">
        <ele>552.0</ele>
        <time>2018-05-19T11:53:31.878Z</time>
      </trkpt>
      <trkpt lat="43.13472833" lon="-4.18586667">
        <ele>552.0</ele>
        <time>2018-05-19T11:53:32.877Z</time>
      </trkpt>
      <trkpt lat="43.13472833" lon="-4.18586667">
        <ele>552.0</ele>
        <time>2018-05-19T11:53:33.868Z</time>
      </trkpt>
      <trkpt lat="43.13466833" lon="-4.18583333">
        <ele>551.0</ele>
        <time>2018-05-19T11:53:34.867Z</time>
      </trkpt>
      <trkpt lat="43.13466833" lon="-4.18583333">
        <ele>551.0</ele>
        <time>2018-05-19T11:53:35.866Z</time>
      </trkpt>
      <trkpt lat="43.13459833" lon="-4.185805">
        <ele>551.0</ele>
        <time>2018-05-19T11:53:36.867Z</time>
      </trkpt>
      <trkpt lat="43.13456167" lon="-4.18579333">
        <ele>551.0</ele>
        <time>2018-05-19T11:53:37.869Z</time>
      </trkpt>
      <trkpt lat="43.13456167" lon="-4.18579333">
        <ele>551.0</ele>
        <time>2018-05-19T11:53:38.858Z</time>
      </trkpt>
      <trkpt lat="43.13449333" lon="-4.18577667">
        <ele>551.0</ele>
        <time>2018-05-19T11:53:39.871Z</time>
      </trkpt>
      <trkpt lat="43.13445833" lon="-4.18577333">
        <ele>551.0</ele>
        <time>2018-05-19T11:53:40.871Z</time>
      </trkpt>
      <trkpt lat="43.13445833" lon="-4.18577333">
        <ele>551.0</ele>
        <time>2018-05-19T11:53:41.859Z</time>
      </trkpt>
      <trkpt lat="43.134385" lon="-4.185765">
        <ele>551.0</ele>
        <time>2018-05-19T11:53:42.869Z</time>
      </trkpt>
      <trkpt lat="43.13434667" lon="-4.18576">
        <ele>551.0</ele>
        <time>2018-05-19T11:53:43.854Z</time>
      </trkpt>
      <trkpt lat="43.13434667" lon="-4.18576">
        <ele>551.0</ele>
        <time>2018-05-19T11:53:44.879Z</time>
      </trkpt>
      <trkpt lat="43.13427167" lon="-4.18575333">
        <ele>551.0</ele>
        <time>2018-05-19T11:53:45.883Z</time>
      </trkpt>
      <trkpt lat="43.13427167" lon="-4.18575333">
        <ele>551.0</ele>
        <time>2018-05-19T11:53:46.872Z</time>
      </trkpt>
      <trkpt lat="43.13420667" lon="-4.18574833">
        <ele>551.0</ele>
        <time>2018-05-19T11:53:47.878Z</time>
      </trkpt>
      <trkpt lat="43.13420667" lon="-4.18574833">
        <ele>551.0</ele>
        <time>2018-05-19T11:53:48.844Z</time>
      </trkpt>
      <trkpt lat="43.13413167" lon="-4.18573833">
        <ele>551.0</ele>
        <time>2018-05-19T11:53:49.850Z</time>
      </trkpt>
      <trkpt lat="43.13413167" lon="-4.18573833">
        <ele>551.0</ele>
        <time>2018-05-19T11:53:50.857Z</time>
      </trkpt>
      <trkpt lat="43.13407" lon="-4.18572167">
        <ele>551.0</ele>
        <time>2018-05-19T11:53:51.877Z</time>
      </trkpt>
      <trkpt lat="43.13404333" lon="-4.18571">
        <ele>551.0</ele>
        <time>2018-05-19T11:53:52.869Z</time>
      </trkpt>
      <trkpt lat="43.13404333" lon="-4.18571">
        <ele>551.0</ele>
        <time>2018-05-19T11:53:53.865Z</time>
      </trkpt>
      <trkpt lat="43.13399333" lon="-4.18569333">
        <ele>551.0</ele>
        <time>2018-05-19T11:53:54.868Z</time>
      </trkpt>
      <trkpt lat="43.13395333" lon="-4.18567667">
        <ele>551.0</ele>
        <time>2018-05-19T11:53:55.870Z</time>
      </trkpt>
      <trkpt lat="43.13392167" lon="-4.18566333">
        <ele>551.0</ele>
        <time>2018-05-19T11:53:56.871Z</time>
      </trkpt>
      <trkpt lat="43.13392167" lon="-4.18566333">
        <ele>551.0</ele>
        <time>2018-05-19T11:53:57.866Z</time>
      </trkpt>
      <trkpt lat="43.13387167" lon="-4.185635">
        <ele>551.0</ele>
        <time>2018-05-19T11:53:58.869Z</time>
      </trkpt>
      <trkpt lat="43.13387167" lon="-4.185635">
        <ele>551.0</ele>
        <time>2018-05-19T11:53:59.860Z</time>
      </trkpt>
      <trkpt lat="43.133815" lon="-4.18560167">
        <ele>551.0</ele>
        <time>2018-05-19T11:54:00.868Z</time>
      </trkpt>
      <trkpt lat="43.133815" lon="-4.18560167">
        <ele>551.0</ele>
        <time>2018-05-19T11:54:01.866Z</time>
      </trkpt>
      <trkpt lat="43.13372" lon="-4.18557">
        <ele>551.0</ele>
        <time>2018-05-19T11:54:02.868Z</time>
      </trkpt>
      <trkpt lat="43.13368667" lon="-4.18555333">
        <ele>552.0</ele>
        <time>2018-05-19T11:54:03.871Z</time>
      </trkpt>
      <trkpt lat="43.13365667" lon="-4.18553167">
        <ele>552.0</ele>
        <time>2018-05-19T11:54:04.868Z</time>
      </trkpt>
      <trkpt lat="43.13365667" lon="-4.18553167">
        <ele>552.0</ele>
        <time>2018-05-19T11:54:05.866Z</time>
      </trkpt>
      <trkpt lat="43.13361333" lon="-4.18548">
        <ele>551.0</ele>
        <time>2018-05-19T11:54:06.866Z</time>
      </trkpt>
      <trkpt lat="43.13357833" lon="-4.18544833">
        <ele>551.0</ele>
        <time>2018-05-19T11:54:07.868Z</time>
      </trkpt>
      <trkpt lat="43.13354833" lon="-4.18542167">
        <ele>551.0</ele>
        <time>2018-05-19T11:54:08.870Z</time>
      </trkpt>
      <trkpt lat="43.13354833" lon="-4.18542167">
        <ele>551.0</ele>
        <time>2018-05-19T11:54:09.858Z</time>
      </trkpt>
      <trkpt lat="43.13347833" lon="-4.18536">
        <ele>551.0</ele>
        <time>2018-05-19T11:54:10.883Z</time>
      </trkpt>
      <trkpt lat="43.13347833" lon="-4.18536">
        <ele>551.0</ele>
        <time>2018-05-19T11:54:11.868Z</time>
      </trkpt>
      <trkpt lat="43.133435" lon="-4.18531167">
        <ele>551.0</ele>
        <time>2018-05-19T11:54:12.868Z</time>
      </trkpt>
      <trkpt lat="43.133435" lon="-4.18531167">
        <ele>551.0</ele>
        <time>2018-05-19T11:54:13.858Z</time>
      </trkpt>
      <trkpt lat="43.13338333" lon="-4.18526333">
        <ele>551.0</ele>
        <time>2018-05-19T11:54:14.869Z</time>
      </trkpt>
      <trkpt lat="43.13338333" lon="-4.18526333">
        <ele>551.0</ele>
        <time>2018-05-19T11:54:15.867Z</time>
      </trkpt>
      <trkpt lat="43.13332667" lon="-4.18520667">
        <ele>551.0</ele>
        <time>2018-05-19T11:54:16.863Z</time>
      </trkpt>
      <trkpt lat="43.13332667" lon="-4.18520667">
        <ele>551.0</ele>
        <time>2018-05-19T11:54:17.858Z</time>
      </trkpt>
      <trkpt lat="43.133265" lon="-4.185145">
        <ele>551.0</ele>
        <time>2018-05-19T11:54:18.866Z</time>
      </trkpt>
      <trkpt lat="43.133265" lon="-4.185145">
        <ele>551.0</ele>
        <time>2018-05-19T11:54:19.859Z</time>
      </trkpt>
      <trkpt lat="43.133205" lon="-4.18508667">
        <ele>551.0</ele>
        <time>2018-05-19T11:54:20.862Z</time>
      </trkpt>
      <trkpt lat="43.133205" lon="-4.18508667">
        <ele>551.0</ele>
        <time>2018-05-19T11:54:21.866Z</time>
      </trkpt>
      <trkpt lat="43.13314667" lon="-4.18501">
        <ele>549.0</ele>
        <time>2018-05-19T11:54:22.868Z</time>
      </trkpt>
      <trkpt lat="43.13314667" lon="-4.18501">
        <ele>549.0</ele>
        <time>2018-05-19T11:54:23.860Z</time>
      </trkpt>
      <trkpt lat="43.13309333" lon="-4.18493167">
        <ele>548.0</ele>
        <time>2018-05-19T11:54:24.870Z</time>
      </trkpt>
      <trkpt lat="43.13309333" lon="-4.18493167">
        <ele>548.0</ele>
        <time>2018-05-19T11:54:25.868Z</time>
      </trkpt>
      <trkpt lat="43.13303833" lon="-4.184855">
        <ele>547.0</ele>
        <time>2018-05-19T11:54:26.868Z</time>
      </trkpt>
      <trkpt lat="43.13303833" lon="-4.184855">
        <ele>547.0</ele>
        <time>2018-05-19T11:54:27.866Z</time>
      </trkpt>
      <trkpt lat="43.13299333" lon="-4.18478167">
        <ele>546.0</ele>
        <time>2018-05-19T11:54:28.868Z</time>
      </trkpt>
      <trkpt lat="43.13299333" lon="-4.18478167">
        <ele>546.0</ele>
        <time>2018-05-19T11:54:29.866Z</time>
      </trkpt>
      <trkpt lat="43.13297" lon="-4.184705">
        <ele>545.0</ele>
        <time>2018-05-19T11:54:30.867Z</time>
      </trkpt>
      <trkpt lat="43.13297" lon="-4.184705">
        <ele>545.0</ele>
        <time>2018-05-19T11:54:31.859Z</time>
      </trkpt>
      <trkpt lat="43.13293167" lon="-4.18463333">
        <ele>544.0</ele>
        <time>2018-05-19T11:54:32.870Z</time>
      </trkpt>
      <trkpt lat="43.13293167" lon="-4.18463333">
        <ele>544.0</ele>
        <time>2018-05-19T11:54:33.866Z</time>
      </trkpt>
      <trkpt lat="43.13288333" lon="-4.18457">
        <ele>543.0</ele>
        <time>2018-05-19T11:54:34.868Z</time>
      </trkpt>
      <trkpt lat="43.13288333" lon="-4.18457">
        <ele>543.0</ele>
        <time>2018-05-19T11:54:35.866Z</time>
      </trkpt>
      <trkpt lat="43.13283667" lon="-4.18449833">
        <ele>543.0</ele>
        <time>2018-05-19T11:54:36.868Z</time>
      </trkpt>
      <trkpt lat="43.13283667" lon="-4.18449833">
        <ele>543.0</ele>
        <time>2018-05-19T11:54:37.858Z</time>
      </trkpt>
      <trkpt lat="43.13278833" lon="-4.18442667">
        <ele>543.0</ele>
        <time>2018-05-19T11:54:38.867Z</time>
      </trkpt>
      <trkpt lat="43.13278833" lon="-4.18442667">
        <ele>543.0</ele>
        <time>2018-05-19T11:54:39.859Z</time>
      </trkpt>
      <trkpt lat="43.13275167" lon="-4.184355">
        <ele>542.0</ele>
        <time>2018-05-19T11:54:40.869Z</time>
      </trkpt>
      <trkpt lat="43.13275167" lon="-4.184355">
        <ele>542.0</ele>
        <time>2018-05-19T11:54:41.858Z</time>
      </trkpt>
      <trkpt lat="43.13273833" lon="-4.18428">
        <ele>542.0</ele>
        <time>2018-05-19T11:54:42.867Z</time>
      </trkpt>
      <trkpt lat="43.13273833" lon="-4.18428">
        <ele>542.0</ele>
        <time>2018-05-19T11:54:43.868Z</time>
      </trkpt>
      <trkpt lat="43.132725" lon="-4.184195">
        <ele>542.0</ele>
        <time>2018-05-19T11:54:44.868Z</time>
      </trkpt>
      <trkpt lat="43.132725" lon="-4.184195">
        <ele>542.0</ele>
        <time>2018-05-19T11:54:45.876Z</time>
      </trkpt>
      <trkpt lat="43.13270833" lon="-4.1841">
        <ele>542.0</ele>
        <time>2018-05-19T11:54:46.850Z</time>
      </trkpt>
      <trkpt lat="43.1327" lon="-4.18404667">
        <ele>542.0</ele>
        <time>2018-05-19T11:54:47.856Z</time>
      </trkpt>
      <trkpt lat="43.132695" lon="-4.183995">
        <ele>542.0</ele>
        <time>2018-05-19T11:54:48.867Z</time>
      </trkpt>
      <trkpt lat="43.132695" lon="-4.183995">
        <ele>542.0</ele>
        <time>2018-05-19T11:54:49.865Z</time>
      </trkpt>
      <trkpt lat="43.13268333" lon="-4.18388833">
        <ele>543.0</ele>
        <time>2018-05-19T11:54:50.869Z</time>
      </trkpt>
      <trkpt lat="43.13268333" lon="-4.18388833">
        <ele>543.0</ele>
        <time>2018-05-19T11:54:51.857Z</time>
      </trkpt>
      <trkpt lat="43.13268167" lon="-4.18377833">
        <ele>544.0</ele>
        <time>2018-05-19T11:54:52.868Z</time>
      </trkpt>
      <trkpt lat="43.13268167" lon="-4.18377833">
        <ele>544.0</ele>
        <time>2018-05-19T11:54:53.883Z</time>
      </trkpt>
      <trkpt lat="43.132665" lon="-4.18365">
        <ele>544.0</ele>
        <time>2018-05-19T11:54:54.868Z</time>
      </trkpt>
      <trkpt lat="43.132665" lon="-4.18365">
        <ele>544.0</ele>
        <time>2018-05-19T11:54:55.865Z</time>
      </trkpt>
      <trkpt lat="43.13264333" lon="-4.183535">
        <ele>544.0</ele>
        <time>2018-05-19T11:54:56.870Z</time>
      </trkpt>
      <trkpt lat="43.13264333" lon="-4.183535">
        <ele>544.0</ele>
        <time>2018-05-19T11:54:57.858Z</time>
      </trkpt>
      <trkpt lat="43.13259333" lon="-4.18343667">
        <ele>544.0</ele>
        <time>2018-05-19T11:54:58.868Z</time>
      </trkpt>
      <trkpt lat="43.13259333" lon="-4.18343667">
        <ele>544.0</ele>
        <time>2018-05-19T11:54:59.865Z</time>
      </trkpt>
      <trkpt lat="43.13252333" lon="-4.18337167">
        <ele>545.0</ele>
        <time>2018-05-19T11:55:00.866Z</time>
      </trkpt>
      <trkpt lat="43.13252333" lon="-4.18337167">
        <ele>545.0</ele>
        <time>2018-05-19T11:55:01.860Z</time>
      </trkpt>
      <trkpt lat="43.13243833" lon="-4.18331833">
        <ele>545.0</ele>
        <time>2018-05-19T11:55:02.870Z</time>
      </trkpt>
      <trkpt lat="43.13243833" lon="-4.18331833">
        <ele>545.0</ele>
        <time>2018-05-19T11:55:03.862Z</time>
      </trkpt>
      <trkpt lat="43.13234167" lon="-4.18327">
        <ele>546.0</ele>
        <time>2018-05-19T11:55:04.866Z</time>
      </trkpt>
      <trkpt lat="43.13234167" lon="-4.18327">
        <ele>546.0</ele>
        <time>2018-05-19T11:55:05.857Z</time>
      </trkpt>
      <trkpt lat="43.13224167" lon="-4.18324333">
        <ele>547.0</ele>
        <time>2018-05-19T11:55:06.868Z</time>
      </trkpt>
      <trkpt lat="43.13224167" lon="-4.18324333">
        <ele>547.0</ele>
        <time>2018-05-19T11:55:07.859Z</time>
      </trkpt>
      <trkpt lat="43.13214333" lon="-4.18321833">
        <ele>548.0</ele>
        <time>2018-05-19T11:55:08.869Z</time>
      </trkpt>
      <trkpt lat="43.13214333" lon="-4.18321833">
        <ele>548.0</ele>
        <time>2018-05-19T11:55:09.859Z</time>
      </trkpt>
      <trkpt lat="43.132055" lon="-4.18317167">
        <ele>549.0</ele>
        <time>2018-05-19T11:55:10.867Z</time>
      </trkpt>
      <trkpt lat="43.132055" lon="-4.18317167">
        <ele>549.0</ele>
        <time>2018-05-19T11:55:11.859Z</time>
      </trkpt>
      <trkpt lat="43.13197333" lon="-4.183125">
        <ele>549.0</ele>
        <time>2018-05-19T11:55:12.867Z</time>
      </trkpt>
      <trkpt lat="43.13197333" lon="-4.183125">
        <ele>549.0</ele>
        <time>2018-05-19T11:55:13.866Z</time>
      </trkpt>
      <trkpt lat="43.13189833" lon="-4.18308">
        <ele>549.0</ele>
        <time>2018-05-19T11:55:14.866Z</time>
      </trkpt>
      <trkpt lat="43.13189833" lon="-4.18308">
        <ele>549.0</ele>
        <time>2018-05-19T11:55:15.859Z</time>
      </trkpt>
      <trkpt lat="43.13184" lon="-4.18304167">
        <ele>549.0</ele>
        <time>2018-05-19T11:55:16.868Z</time>
      </trkpt>
      <trkpt lat="43.13184" lon="-4.18304167">
        <ele>549.0</ele>
        <time>2018-05-19T11:55:17.864Z</time>
      </trkpt>
      <trkpt lat="43.13179" lon="-4.18299333">
        <ele>549.0</ele>
        <time>2018-05-19T11:55:18.866Z</time>
      </trkpt>
      <trkpt lat="43.13177667" lon="-4.18297">
        <ele>549.0</ele>
        <time>2018-05-19T11:55:19.868Z</time>
      </trkpt>
      <trkpt lat="43.13175333" lon="-4.18294167">
        <ele>549.0</ele>
        <time>2018-05-19T11:55:20.880Z</time>
      </trkpt>
      <trkpt lat="43.13175333" lon="-4.18294167">
        <ele>549.0</ele>
        <time>2018-05-19T11:55:21.866Z</time>
      </trkpt>
      <trkpt lat="43.13172" lon="-4.18287667">
        <ele>549.0</ele>
        <time>2018-05-19T11:55:22.870Z</time>
      </trkpt>
      <trkpt lat="43.13172" lon="-4.18287667">
        <ele>549.0</ele>
        <time>2018-05-19T11:55:23.865Z</time>
      </trkpt>
      <trkpt lat="43.131695" lon="-4.18282667">
        <ele>549.0</ele>
        <time>2018-05-19T11:55:24.862Z</time>
      </trkpt>
      <trkpt lat="43.13169" lon="-4.182795">
        <ele>549.0</ele>
        <time>2018-05-19T11:55:25.869Z</time>
      </trkpt>
      <trkpt lat="43.13169" lon="-4.182795">
        <ele>549.0</ele>
        <time>2018-05-19T11:55:26.864Z</time>
      </trkpt>
      <trkpt lat="43.13166" lon="-4.18272167">
        <ele>548.0</ele>
        <time>2018-05-19T11:55:27.869Z</time>
      </trkpt>
      <trkpt lat="43.13166" lon="-4.18272167">
        <ele>548.0</ele>
        <time>2018-05-19T11:55:28.857Z</time>
      </trkpt>
      <trkpt lat="43.13163667" lon="-4.18265833">
        <ele>548.0</ele>
        <time>2018-05-19T11:55:29.866Z</time>
      </trkpt>
      <trkpt lat="43.131625" lon="-4.18263">
        <ele>548.0</ele>
        <time>2018-05-19T11:55:30.869Z</time>
      </trkpt>
      <trkpt lat="43.131625" lon="-4.18263">
        <ele>548.0</ele>
        <time>2018-05-19T11:55:31.864Z</time>
      </trkpt>
      <trkpt lat="43.13160333" lon="-4.18257167">
        <ele>548.0</ele>
        <time>2018-05-19T11:55:32.866Z</time>
      </trkpt>
      <trkpt lat="43.13160333" lon="-4.18257167">
        <ele>548.0</ele>
        <time>2018-05-19T11:55:33.856Z</time>
      </trkpt>
      <trkpt lat="43.13158667" lon="-4.18251667">
        <ele>548.0</ele>
        <time>2018-05-19T11:55:34.868Z</time>
      </trkpt>
      <trkpt lat="43.13158667" lon="-4.18251667">
        <ele>548.0</ele>
        <time>2018-05-19T11:55:35.863Z</time>
      </trkpt>
      <trkpt lat="43.13156833" lon="-4.18246833">
        <ele>548.0</ele>
        <time>2018-05-19T11:55:36.868Z</time>
      </trkpt>
      <trkpt lat="43.13156833" lon="-4.18246833">
        <ele>548.0</ele>
        <time>2018-05-19T11:55:37.865Z</time>
      </trkpt>
      <trkpt lat="43.13156167" lon="-4.182425">
        <ele>548.0</ele>
        <time>2018-05-19T11:55:38.869Z</time>
      </trkpt>
      <trkpt lat="43.13156167" lon="-4.182425">
        <ele>548.0</ele>
        <time>2018-05-19T11:55:39.859Z</time>
      </trkpt>
      <trkpt lat="43.13155" lon="-4.18236833">
        <ele>548.0</ele>
        <time>2018-05-19T11:55:40.867Z</time>
      </trkpt>
      <trkpt lat="43.13155" lon="-4.18236833">
        <ele>548.0</ele>
        <time>2018-05-19T11:55:41.865Z</time>
      </trkpt>
      <trkpt lat="43.13154667" lon="-4.182335">
        <ele>549.0</ele>
        <time>2018-05-19T11:55:42.863Z</time>
      </trkpt>
      <trkpt lat="43.13154" lon="-4.18231167">
        <ele>549.0</ele>
        <time>2018-05-19T11:55:43.868Z</time>
      </trkpt>
      <trkpt lat="43.13154" lon="-4.18231167">
        <ele>549.0</ele>
        <time>2018-05-19T11:55:44.866Z</time>
      </trkpt>
      <trkpt lat="43.13152667" lon="-4.182245">
        <ele>549.0</ele>
        <time>2018-05-19T11:55:45.883Z</time>
      </trkpt>
      <trkpt lat="43.13152333" lon="-4.18221667">
        <ele>550.0</ele>
        <time>2018-05-19T11:55:46.874Z</time>
      </trkpt>
      <trkpt lat="43.13152333" lon="-4.18221667">
        <ele>550.0</ele>
        <time>2018-05-19T11:55:47.880Z</time>
      </trkpt>
      <trkpt lat="43.131535" lon="-4.182155">
        <ele>550.0</ele>
        <time>2018-05-19T11:55:48.849Z</time>
      </trkpt>
      <trkpt lat="43.13154167" lon="-4.18212833">
        <ele>551.0</ele>
        <time>2018-05-19T11:55:49.874Z</time>
      </trkpt>
      <trkpt lat="43.13153833" lon="-4.18210333">
        <ele>551.0</ele>
        <time>2018-05-19T11:55:50.869Z</time>
      </trkpt>
      <trkpt lat="43.13153833" lon="-4.18210333">
        <ele>551.0</ele>
        <time>2018-05-19T11:55:51.857Z</time>
      </trkpt>
      <trkpt lat="43.13152333" lon="-4.18203">
        <ele>552.0</ele>
        <time>2018-05-19T11:55:52.868Z</time>
      </trkpt>
      <trkpt lat="43.13152333" lon="-4.18203">
        <ele>552.0</ele>
        <time>2018-05-19T11:55:53.845Z</time>
      </trkpt>
      <trkpt lat="43.13151667" lon="-4.18195167">
        <ele>553.0</ele>
        <time>2018-05-19T11:55:54.863Z</time>
      </trkpt>
      <trkpt lat="43.13151667" lon="-4.18195167">
        <ele>553.0</ele>
        <time>2018-05-19T11:55:55.865Z</time>
      </trkpt>
      <trkpt lat="43.13149333" lon="-4.18187667">
        <ele>554.0</ele>
        <time>2018-05-19T11:55:56.868Z</time>
      </trkpt>
      <trkpt lat="43.13147833" lon="-4.18184167">
        <ele>555.0</ele>
        <time>2018-05-19T11:55:57.869Z</time>
      </trkpt>
      <trkpt lat="43.13147833" lon="-4.18184167">
        <ele>555.0</ele>
        <time>2018-05-19T11:55:58.857Z</time>
      </trkpt>
      <trkpt lat="43.13142667" lon="-4.18175167">
        <ele>557.0</ele>
        <time>2018-05-19T11:55:59.871Z</time>
      </trkpt>
      <trkpt lat="43.13141333" lon="-4.18170833">
        <ele>557.0</ele>
        <time>2018-05-19T11:56:00.862Z</time>
      </trkpt>
      <trkpt lat="43.13141333" lon="-4.18170833">
        <ele>557.0</ele>
        <time>2018-05-19T11:56:01.857Z</time>
      </trkpt>
      <trkpt lat="43.1314" lon="-4.18163167">
        <ele>559.0</ele>
        <time>2018-05-19T11:56:02.869Z</time>
      </trkpt>
      <trkpt lat="43.1314" lon="-4.18163167">
        <ele>559.0</ele>
        <time>2018-05-19T11:56:03.866Z</time>
      </trkpt>
      <trkpt lat="43.13138167" lon="-4.18155833">
        <ele>560.0</ele>
        <time>2018-05-19T11:56:04.870Z</time>
      </trkpt>
      <trkpt lat="43.13138167" lon="-4.18155833">
        <ele>560.0</ele>
        <time>2018-05-19T11:56:05.858Z</time>
      </trkpt>
      <trkpt lat="43.13136167" lon="-4.18147667">
        <ele>561.0</ele>
        <time>2018-05-19T11:56:06.868Z</time>
      </trkpt>
      <trkpt lat="43.13136167" lon="-4.18147667">
        <ele>561.0</ele>
        <time>2018-05-19T11:56:07.864Z</time>
      </trkpt>
      <trkpt lat="43.13136" lon="-4.18138833">
        <ele>561.0</ele>
        <time>2018-05-19T11:56:08.868Z</time>
      </trkpt>
      <trkpt lat="43.13136" lon="-4.18138833">
        <ele>561.0</ele>
        <time>2018-05-19T11:56:09.858Z</time>
      </trkpt>
      <trkpt lat="43.131355" lon="-4.18129333">
        <ele>560.0</ele>
        <time>2018-05-19T11:56:10.883Z</time>
      </trkpt>
      <trkpt lat="43.13135833" lon="-4.181255">
        <ele>560.0</ele>
        <time>2018-05-19T11:56:11.868Z</time>
      </trkpt>
      <trkpt lat="43.13135833" lon="-4.181255">
        <ele>560.0</ele>
        <time>2018-05-19T11:56:12.865Z</time>
      </trkpt>
      <trkpt lat="43.13137333" lon="-4.18119">
        <ele>560.0</ele>
        <time>2018-05-19T11:56:13.881Z</time>
      </trkpt>
      <trkpt lat="43.13138333" lon="-4.18115333">
        <ele>559.0</ele>
        <time>2018-05-19T11:56:14.869Z</time>
      </trkpt>
      <trkpt lat="43.13138333" lon="-4.18115333">
        <ele>559.0</ele>
        <time>2018-05-19T11:56:15.866Z</time>
      </trkpt>
      <trkpt lat="43.13139667" lon="-4.18108">
        <ele>558.0</ele>
        <time>2018-05-19T11:56:16.868Z</time>
      </trkpt>
      <trkpt lat="43.13139667" lon="-4.18108">
        <ele>558.0</ele>
        <time>2018-05-19T11:56:17.856Z</time>
      </trkpt>
      <trkpt lat="43.13140167" lon="-4.18101">
        <ele>558.0</ele>
        <time>2018-05-19T11:56:18.867Z</time>
      </trkpt>
      <trkpt lat="43.13140167" lon="-4.18101">
        <ele>558.0</ele>
        <time>2018-05-19T11:56:19.859Z</time>
      </trkpt>
      <trkpt lat="43.13140667" lon="-4.18094167">
        <ele>558.0</ele>
        <time>2018-05-19T11:56:20.844Z</time>
      </trkpt>
      <trkpt lat="43.131405" lon="-4.180905">
        <ele>558.0</ele>
        <time>2018-05-19T11:56:21.869Z</time>
      </trkpt>
      <trkpt lat="43.131405" lon="-4.180905">
        <ele>558.0</ele>
        <time>2018-05-19T11:56:22.853Z</time>
      </trkpt>
      <trkpt lat="43.131405" lon="-4.18083167">
        <ele>558.0</ele>
        <time>2018-05-19T11:56:23.864Z</time>
      </trkpt>
      <trkpt lat="43.131405" lon="-4.18083167">
        <ele>558.0</ele>
        <time>2018-05-19T11:56:24.857Z</time>
      </trkpt>
      <trkpt lat="43.13141167" lon="-4.180755">
        <ele>558.0</ele>
        <time>2018-05-19T11:56:25.867Z</time>
      </trkpt>
      <trkpt lat="43.13141167" lon="-4.180755">
        <ele>558.0</ele>
        <time>2018-05-19T11:56:26.865Z</time>
      </trkpt>
      <trkpt lat="43.13141333" lon="-4.18068333">
        <ele>558.0</ele>
        <time>2018-05-19T11:56:27.867Z</time>
      </trkpt>
      <trkpt lat="43.131415" lon="-4.18065167">
        <ele>558.0</ele>
        <time>2018-05-19T11:56:28.866Z</time>
      </trkpt>
      <trkpt lat="43.131415" lon="-4.18065167">
        <ele>558.0</ele>
        <time>2018-05-19T11:56:29.858Z</time>
      </trkpt>
      <trkpt lat="43.13141833" lon="-4.18057833">
        <ele>558.0</ele>
        <time>2018-05-19T11:56:30.865Z</time>
      </trkpt>
      <trkpt lat="43.13141833" lon="-4.18057833">
        <ele>558.0</ele>
        <time>2018-05-19T11:56:31.864Z</time>
      </trkpt>
      <trkpt lat="43.131415" lon="-4.18051167">
        <ele>557.0</ele>
        <time>2018-05-19T11:56:32.858Z</time>
      </trkpt>
      <trkpt lat="43.13140833" lon="-4.18047667">
        <ele>558.0</ele>
        <time>2018-05-19T11:56:33.871Z</time>
      </trkpt>
      <trkpt lat="43.13140833" lon="-4.18047667">
        <ele>558.0</ele>
        <time>2018-05-19T11:56:34.865Z</time>
      </trkpt>
      <trkpt lat="43.13138833" lon="-4.18040167">
        <ele>558.0</ele>
        <time>2018-05-19T11:56:35.867Z</time>
      </trkpt>
      <trkpt lat="43.13137833" lon="-4.18036333">
        <ele>558.0</ele>
        <time>2018-05-19T11:56:36.867Z</time>
      </trkpt>
      <trkpt lat="43.13137" lon="-4.180325">
        <ele>558.0</ele>
        <time>2018-05-19T11:56:37.868Z</time>
      </trkpt>
      <trkpt lat="43.13136333" lon="-4.18028667">
        <ele>558.0</ele>
        <time>2018-05-19T11:56:38.868Z</time>
      </trkpt>
      <trkpt lat="43.13136333" lon="-4.18028667">
        <ele>558.0</ele>
        <time>2018-05-19T11:56:39.859Z</time>
      </trkpt>
      <trkpt lat="43.13135" lon="-4.18021167">
        <ele>557.0</ele>
        <time>2018-05-19T11:56:40.868Z</time>
      </trkpt>
      <trkpt lat="43.13135" lon="-4.18021167">
        <ele>557.0</ele>
        <time>2018-05-19T11:56:41.869Z</time>
      </trkpt>
      <trkpt lat="43.13132833" lon="-4.18013667">
        <ele>557.0</ele>
        <time>2018-05-19T11:56:42.874Z</time>
      </trkpt>
      <trkpt lat="43.13132833" lon="-4.18013667">
        <ele>557.0</ele>
        <time>2018-05-19T11:56:43.859Z</time>
      </trkpt>
      <trkpt lat="43.131305" lon="-4.18006333">
        <ele>557.0</ele>
        <time>2018-05-19T11:56:44.868Z</time>
      </trkpt>
      <trkpt lat="43.131305" lon="-4.18006333">
        <ele>557.0</ele>
        <time>2018-05-19T11:56:45.879Z</time>
      </trkpt>
      <trkpt lat="43.13128" lon="-4.17998167">
        <ele>558.0</ele>
        <time>2018-05-19T11:56:46.876Z</time>
      </trkpt>
      <trkpt lat="43.13126333" lon="-4.17994">
        <ele>558.0</ele>
        <time>2018-05-19T11:56:47.845Z</time>
      </trkpt>
      <trkpt lat="43.13124833" lon="-4.17989833">
        <ele>558.0</ele>
        <time>2018-05-19T11:56:48.853Z</time>
      </trkpt>
      <trkpt lat="43.13124833" lon="-4.17989833">
        <ele>558.0</ele>
        <time>2018-05-19T11:56:49.859Z</time>
      </trkpt>
      <trkpt lat="43.13121667" lon="-4.17982167">
        <ele>557.0</ele>
        <time>2018-05-19T11:56:50.865Z</time>
      </trkpt>
      <trkpt lat="43.13119833" lon="-4.17978667">
        <ele>557.0</ele>
        <time>2018-05-19T11:56:51.874Z</time>
      </trkpt>
      <trkpt lat="43.13119833" lon="-4.17978667">
        <ele>557.0</ele>
        <time>2018-05-19T11:56:52.865Z</time>
      </trkpt>
      <trkpt lat="43.13115167" lon="-4.17970667">
        <ele>557.0</ele>
        <time>2018-05-19T11:56:53.858Z</time>
      </trkpt>
      <trkpt lat="43.13112667" lon="-4.17966333">
        <ele>557.0</ele>
        <time>2018-05-19T11:56:54.867Z</time>
      </trkpt>
      <trkpt lat="43.13110167" lon="-4.17962167">
        <ele>557.0</ele>
        <time>2018-05-19T11:56:55.874Z</time>
      </trkpt>
      <trkpt lat="43.13110167" lon="-4.17962167">
        <ele>557.0</ele>
        <time>2018-05-19T11:56:56.866Z</time>
      </trkpt>
      <trkpt lat="43.131055" lon="-4.17954833">
        <ele>557.0</ele>
        <time>2018-05-19T11:56:57.868Z</time>
      </trkpt>
      <trkpt lat="43.13103" lon="-4.17950667">
        <ele>557.0</ele>
        <time>2018-05-19T11:56:58.874Z</time>
      </trkpt>
      <trkpt lat="43.13103" lon="-4.17950667">
        <ele>557.0</ele>
        <time>2018-05-19T11:56:59.858Z</time>
      </trkpt>
      <trkpt lat="43.13098833" lon="-4.17942">
        <ele>557.0</ele>
        <time>2018-05-19T11:57:00.870Z</time>
      </trkpt>
      <trkpt lat="43.13098833" lon="-4.17942">
        <ele>557.0</ele>
        <time>2018-05-19T11:57:01.859Z</time>
      </trkpt>
      <trkpt lat="43.13096" lon="-4.17932667">
        <ele>558.0</ele>
        <time>2018-05-19T11:57:02.868Z</time>
      </trkpt>
      <trkpt lat="43.13096" lon="-4.17932667">
        <ele>558.0</ele>
        <time>2018-05-19T11:57:03.865Z</time>
      </trkpt>
      <trkpt lat="43.13094167" lon="-4.17921333">
        <ele>558.0</ele>
        <time>2018-05-19T11:57:04.867Z</time>
      </trkpt>
      <trkpt lat="43.13094167" lon="-4.17921333">
        <ele>558.0</ele>
        <time>2018-05-19T11:57:05.859Z</time>
      </trkpt>
      <trkpt lat="43.13091833" lon="-4.17908667">
        <ele>558.0</ele>
        <time>2018-05-19T11:57:06.865Z</time>
      </trkpt>
      <trkpt lat="43.13091833" lon="-4.17908667">
        <ele>558.0</ele>
        <time>2018-05-19T11:57:07.864Z</time>
      </trkpt>
      <trkpt lat="43.13088833" lon="-4.17895">
        <ele>558.0</ele>
        <time>2018-05-19T11:57:08.868Z</time>
      </trkpt>
      <trkpt lat="43.13088833" lon="-4.17895">
        <ele>558.0</ele>
        <time>2018-05-19T11:57:09.858Z</time>
      </trkpt>
      <trkpt lat="43.13087167" lon="-4.17881167">
        <ele>557.0</ele>
        <time>2018-05-19T11:57:10.867Z</time>
      </trkpt>
      <trkpt lat="43.13087167" lon="-4.17881167">
        <ele>557.0</ele>
        <time>2018-05-19T11:57:11.864Z</time>
      </trkpt>
      <trkpt lat="43.13087" lon="-4.17868333">
        <ele>557.0</ele>
        <time>2018-05-19T11:57:12.867Z</time>
      </trkpt>
      <trkpt lat="43.13087" lon="-4.17868333">
        <ele>557.0</ele>
        <time>2018-05-19T11:57:13.857Z</time>
      </trkpt>
      <trkpt lat="43.130865" lon="-4.17856667">
        <ele>557.0</ele>
        <time>2018-05-19T11:57:14.867Z</time>
      </trkpt>
      <trkpt lat="43.130865" lon="-4.17856667">
        <ele>557.0</ele>
        <time>2018-05-19T11:57:15.859Z</time>
      </trkpt>
      <trkpt lat="43.13083167" lon="-4.17843667">
        <ele>557.0</ele>
        <time>2018-05-19T11:57:16.868Z</time>
      </trkpt>
      <trkpt lat="43.13083167" lon="-4.17843667">
        <ele>557.0</ele>
        <time>2018-05-19T11:57:17.858Z</time>
      </trkpt>
      <trkpt lat="43.13079667" lon="-4.1783">
        <ele>557.0</ele>
        <time>2018-05-19T11:57:18.867Z</time>
      </trkpt>
      <trkpt lat="43.13079667" lon="-4.1783">
        <ele>557.0</ele>
        <time>2018-05-19T11:57:19.858Z</time>
      </trkpt>
      <trkpt lat="43.13076167" lon="-4.17816">
        <ele>557.0</ele>
        <time>2018-05-19T11:57:20.869Z</time>
      </trkpt>
      <trkpt lat="43.13076167" lon="-4.17816">
        <ele>557.0</ele>
        <time>2018-05-19T11:57:21.860Z</time>
      </trkpt>
      <trkpt lat="43.13072833" lon="-4.17802">
        <ele>557.0</ele>
        <time>2018-05-19T11:57:22.868Z</time>
      </trkpt>
      <trkpt lat="43.13072833" lon="-4.17802">
        <ele>557.0</ele>
        <time>2018-05-19T11:57:23.874Z</time>
      </trkpt>
      <trkpt lat="43.13069667" lon="-4.17786833">
        <ele>557.0</ele>
        <time>2018-05-19T11:57:24.866Z</time>
      </trkpt>
      <trkpt lat="43.13069" lon="-4.17779667">
        <ele>557.0</ele>
        <time>2018-05-19T11:57:25.867Z</time>
      </trkpt>
      <trkpt lat="43.13069" lon="-4.17779667">
        <ele>557.0</ele>
        <time>2018-05-19T11:57:26.874Z</time>
      </trkpt>
      <trkpt lat="43.130675" lon="-4.177645">
        <ele>558.0</ele>
        <time>2018-05-19T11:57:27.869Z</time>
      </trkpt>
      <trkpt lat="43.130675" lon="-4.177645">
        <ele>558.0</ele>
        <time>2018-05-19T11:57:28.859Z</time>
      </trkpt>
      <trkpt lat="43.13066333" lon="-4.17750167">
        <ele>558.0</ele>
        <time>2018-05-19T11:57:29.865Z</time>
      </trkpt>
      <trkpt lat="43.13066" lon="-4.17741333">
        <ele>557.0</ele>
        <time>2018-05-19T11:57:30.868Z</time>
      </trkpt>
      <trkpt lat="43.13066" lon="-4.17741333">
        <ele>557.0</ele>
        <time>2018-05-19T11:57:31.856Z</time>
      </trkpt>
      <trkpt lat="43.13068" lon="-4.17725333">
        <ele>557.0</ele>
        <time>2018-05-19T11:57:32.868Z</time>
      </trkpt>
      <trkpt lat="43.13068" lon="-4.17725333">
        <ele>557.0</ele>
        <time>2018-05-19T11:57:33.859Z</time>
      </trkpt>
      <trkpt lat="43.13071167" lon="-4.17710167">
        <ele>557.0</ele>
        <time>2018-05-19T11:57:34.867Z</time>
      </trkpt>
      <trkpt lat="43.13071167" lon="-4.17710167">
        <ele>557.0</ele>
        <time>2018-05-19T11:57:35.864Z</time>
      </trkpt>
      <trkpt lat="43.13073167" lon="-4.17694667">
        <ele>556.0</ele>
        <time>2018-05-19T11:57:36.868Z</time>
      </trkpt>
      <trkpt lat="43.13073167" lon="-4.17694667">
        <ele>556.0</ele>
        <time>2018-05-19T11:57:37.864Z</time>
      </trkpt>
      <trkpt lat="43.13075667" lon="-4.17679">
        <ele>556.0</ele>
        <time>2018-05-19T11:57:38.868Z</time>
      </trkpt>
      <trkpt lat="43.13075667" lon="-4.17679">
        <ele>556.0</ele>
        <time>2018-05-19T11:57:39.865Z</time>
      </trkpt>
      <trkpt lat="43.13079" lon="-4.17663">
        <ele>556.0</ele>
        <time>2018-05-19T11:57:40.867Z</time>
      </trkpt>
      <trkpt lat="43.13079" lon="-4.17663">
        <ele>556.0</ele>
        <time>2018-05-19T11:57:41.859Z</time>
      </trkpt>
      <trkpt lat="43.13082833" lon="-4.17647167">
        <ele>555.0</ele>
        <time>2018-05-19T11:57:42.867Z</time>
      </trkpt>
      <trkpt lat="43.13084333" lon="-4.17639667">
        <ele>555.0</ele>
        <time>2018-05-19T11:57:43.867Z</time>
      </trkpt>
      <trkpt lat="43.13084333" lon="-4.17639667">
        <ele>555.0</ele>
        <time>2018-05-19T11:57:44.858Z</time>
      </trkpt>
      <trkpt lat="43.13087167" lon="-4.17625667">
        <ele>555.0</ele>
        <time>2018-05-19T11:57:45.844Z</time>
      </trkpt>
      <trkpt lat="43.13087167" lon="-4.17625667">
        <ele>555.0</ele>
        <time>2018-05-19T11:57:46.875Z</time>
      </trkpt>
      <trkpt lat="43.13089167" lon="-4.17611833">
        <ele>555.0</ele>
        <time>2018-05-19T11:57:47.881Z</time>
      </trkpt>
      <trkpt lat="43.13089167" lon="-4.17611833">
        <ele>555.0</ele>
        <time>2018-05-19T11:57:48.866Z</time>
      </trkpt>
      <trkpt lat="43.13090167" lon="-4.175985">
        <ele>555.0</ele>
        <time>2018-05-19T11:57:49.867Z</time>
      </trkpt>
      <trkpt lat="43.13090167" lon="-4.175985">
        <ele>555.0</ele>
        <time>2018-05-19T11:57:50.865Z</time>
      </trkpt>
      <trkpt lat="43.13091" lon="-4.17585667">
        <ele>555.0</ele>
        <time>2018-05-19T11:57:51.868Z</time>
      </trkpt>
      <trkpt lat="43.13091" lon="-4.17579167">
        <ele>555.0</ele>
        <time>2018-05-19T11:57:52.866Z</time>
      </trkpt>
      <trkpt lat="43.13091" lon="-4.17579167">
        <ele>555.0</ele>
        <time>2018-05-19T11:57:53.865Z</time>
      </trkpt>
      <trkpt lat="43.13090167" lon="-4.17565">
        <ele>555.0</ele>
        <time>2018-05-19T11:57:54.867Z</time>
      </trkpt>
      <trkpt lat="43.13090167" lon="-4.17565">
        <ele>555.0</ele>
        <time>2018-05-19T11:57:55.865Z</time>
      </trkpt>
      <trkpt lat="43.13088333" lon="-4.17551833">
        <ele>554.0</ele>
        <time>2018-05-19T11:57:56.868Z</time>
      </trkpt>
      <trkpt lat="43.13088333" lon="-4.17551833">
        <ele>554.0</ele>
        <time>2018-05-19T11:57:57.857Z</time>
      </trkpt>
      <trkpt lat="43.13085" lon="-4.17537">
        <ele>554.0</ele>
        <time>2018-05-19T11:57:58.867Z</time>
      </trkpt>
      <trkpt lat="43.13085" lon="-4.17537">
        <ele>554.0</ele>
        <time>2018-05-19T11:57:59.863Z</time>
      </trkpt>
      <trkpt lat="43.13080667" lon="-4.17523167">
        <ele>554.0</ele>
        <time>2018-05-19T11:58:00.868Z</time>
      </trkpt>
      <trkpt lat="43.13080667" lon="-4.17523167">
        <ele>554.0</ele>
        <time>2018-05-19T11:58:01.864Z</time>
      </trkpt>
      <trkpt lat="43.13077" lon="-4.175115">
        <ele>555.0</ele>
        <time>2018-05-19T11:58:02.869Z</time>
      </trkpt>
      <trkpt lat="43.13075" lon="-4.17506167">
        <ele>555.0</ele>
        <time>2018-05-19T11:58:03.868Z</time>
      </trkpt>
      <trkpt lat="43.13075" lon="-4.17506167">
        <ele>555.0</ele>
        <time>2018-05-19T11:58:04.864Z</time>
      </trkpt>
      <trkpt lat="43.13072333" lon="-4.17496833">
        <ele>555.0</ele>
        <time>2018-05-19T11:58:05.846Z</time>
      </trkpt>
      <trkpt lat="43.13072333" lon="-4.17496833">
        <ele>555.0</ele>
        <time>2018-05-19T11:58:06.873Z</time>
      </trkpt>
      <trkpt lat="43.13071833" lon="-4.17489">
        <ele>556.0</ele>
        <time>2018-05-19T11:58:07.868Z</time>
      </trkpt>
      <trkpt lat="43.13071833" lon="-4.17489">
        <ele>556.0</ele>
        <time>2018-05-19T11:58:08.858Z</time>
      </trkpt>
      <trkpt lat="43.13070167" lon="-4.17481333">
        <ele>556.0</ele>
        <time>2018-05-19T11:58:09.868Z</time>
      </trkpt>
      <trkpt lat="43.13069667" lon="-4.17476667">
        <ele>556.0</ele>
        <time>2018-05-19T11:58:10.872Z</time>
      </trkpt>
      <trkpt lat="43.13069667" lon="-4.17476667">
        <ele>556.0</ele>
        <time>2018-05-19T11:58:11.857Z</time>
      </trkpt>
      <trkpt lat="43.13066667" lon="-4.17467833">
        <ele>557.0</ele>
        <time>2018-05-19T11:58:12.867Z</time>
      </trkpt>
      <trkpt lat="43.13066667" lon="-4.17467833">
        <ele>557.0</ele>
        <time>2018-05-19T11:58:13.853Z</time>
      </trkpt>
      <trkpt lat="43.130665" lon="-4.17459167">
        <ele>558.0</ele>
        <time>2018-05-19T11:58:14.877Z</time>
      </trkpt>
      <trkpt lat="43.130665" lon="-4.17459167">
        <ele>558.0</ele>
        <time>2018-05-19T11:58:15.865Z</time>
      </trkpt>
      <trkpt lat="43.13065667" lon="-4.174505">
        <ele>559.0</ele>
        <time>2018-05-19T11:58:16.867Z</time>
      </trkpt>
      <trkpt lat="43.13065667" lon="-4.174505">
        <ele>559.0</ele>
        <time>2018-05-19T11:58:17.861Z</time>
      </trkpt>
      <trkpt lat="43.13065833" lon="-4.17442333">
        <ele>560.0</ele>
        <time>2018-05-19T11:58:18.883Z</time>
      </trkpt>
      <trkpt lat="43.13065833" lon="-4.17442333">
        <ele>560.0</ele>
        <time>2018-05-19T11:58:19.866Z</time>
      </trkpt>
      <trkpt lat="43.130655" lon="-4.17433167">
        <ele>561.0</ele>
        <time>2018-05-19T11:58:20.857Z</time>
      </trkpt>
      <trkpt lat="43.13065667" lon="-4.17428667">
        <ele>561.0</ele>
        <time>2018-05-19T11:58:21.862Z</time>
      </trkpt>
      <trkpt lat="43.13065833" lon="-4.17424167">
        <ele>561.0</ele>
        <time>2018-05-19T11:58:22.867Z</time>
      </trkpt>
      <trkpt lat="43.13065833" lon="-4.17424167">
        <ele>561.0</ele>
        <time>2018-05-19T11:58:23.857Z</time>
      </trkpt>
      <trkpt lat="43.13064667" lon="-4.17414">
        <ele>562.0</ele>
        <time>2018-05-19T11:58:24.866Z</time>
      </trkpt>
      <trkpt lat="43.13063833" lon="-4.17408833">
        <ele>563.0</ele>
        <time>2018-05-19T11:58:25.867Z</time>
      </trkpt>
      <trkpt lat="43.13063833" lon="-4.17408833">
        <ele>563.0</ele>
        <time>2018-05-19T11:58:26.865Z</time>
      </trkpt>
      <trkpt lat="43.13064333" lon="-4.17399333">
        <ele>564.0</ele>
        <time>2018-05-19T11:58:27.868Z</time>
      </trkpt>
      <trkpt lat="43.13064" lon="-4.17394333">
        <ele>564.0</ele>
        <time>2018-05-19T11:58:28.867Z</time>
      </trkpt>
      <trkpt lat="43.13064" lon="-4.17394333">
        <ele>564.0</ele>
        <time>2018-05-19T11:58:29.863Z</time>
      </trkpt>
      <trkpt lat="43.13063167" lon="-4.17384833">
        <ele>565.0</ele>
        <time>2018-05-19T11:58:30.867Z</time>
      </trkpt>
      <trkpt lat="43.13063167" lon="-4.17384833">
        <ele>565.0</ele>
        <time>2018-05-19T11:58:31.864Z</time>
      </trkpt>
      <trkpt lat="43.13062333" lon="-4.17376">
        <ele>565.0</ele>
        <time>2018-05-19T11:58:32.867Z</time>
      </trkpt>
      <trkpt lat="43.13062333" lon="-4.17376">
        <ele>565.0</ele>
        <time>2018-05-19T11:58:33.868Z</time>
      </trkpt>
      <trkpt lat="43.13061" lon="-4.17366333">
        <ele>566.0</ele>
        <time>2018-05-19T11:58:34.867Z</time>
      </trkpt>
      <trkpt lat="43.13059667" lon="-4.17360833">
        <ele>567.0</ele>
        <time>2018-05-19T11:58:35.868Z</time>
      </trkpt>
      <trkpt lat="43.13059667" lon="-4.17360833">
        <ele>567.0</ele>
        <time>2018-05-19T11:58:36.859Z</time>
      </trkpt>
      <trkpt lat="43.130575" lon="-4.17352167">
        <ele>567.0</ele>
        <time>2018-05-19T11:58:37.866Z</time>
      </trkpt>
      <trkpt lat="43.130575" lon="-4.17352167">
        <ele>567.0</ele>
        <time>2018-05-19T11:58:38.856Z</time>
      </trkpt>
      <trkpt lat="43.13055" lon="-4.17343833">
        <ele>568.0</ele>
        <time>2018-05-19T11:58:39.868Z</time>
      </trkpt>
      <trkpt lat="43.13054167" lon="-4.17340167">
        <ele>568.0</ele>
        <time>2018-05-19T11:58:40.867Z</time>
      </trkpt>
      <trkpt lat="43.13054167" lon="-4.17340167">
        <ele>568.0</ele>
        <time>2018-05-19T11:58:41.864Z</time>
      </trkpt>
      <trkpt lat="43.130515" lon="-4.17332">
        <ele>568.0</ele>
        <time>2018-05-19T11:58:42.867Z</time>
      </trkpt>
      <trkpt lat="43.13050333" lon="-4.17327833">
        <ele>569.0</ele>
        <time>2018-05-19T11:58:43.868Z</time>
      </trkpt>
      <trkpt lat="43.13050333" lon="-4.17327833">
        <ele>569.0</ele>
        <time>2018-05-19T11:58:44.858Z</time>
      </trkpt>
      <trkpt lat="43.13048" lon="-4.17320667">
        <ele>569.0</ele>
        <time>2018-05-19T11:58:45.851Z</time>
      </trkpt>
      <trkpt lat="43.13048" lon="-4.17320667">
        <ele>569.0</ele>
        <time>2018-05-19T11:58:46.854Z</time>
      </trkpt>
      <trkpt lat="43.13045" lon="-4.173135">
        <ele>570.0</ele>
        <time>2018-05-19T11:58:47.860Z</time>
      </trkpt>
      <trkpt lat="43.13045" lon="-4.173135">
        <ele>570.0</ele>
        <time>2018-05-19T11:58:48.867Z</time>
      </trkpt>
      <trkpt lat="43.130405" lon="-4.17308333">
        <ele>571.0</ele>
        <time>2018-05-19T11:58:49.873Z</time>
      </trkpt>
      <trkpt lat="43.130375" lon="-4.17306167">
        <ele>572.0</ele>
        <time>2018-05-19T11:58:50.879Z</time>
      </trkpt>
      <trkpt lat="43.13034833" lon="-4.173045">
        <ele>572.0</ele>
        <time>2018-05-19T11:58:51.868Z</time>
      </trkpt>
      <trkpt lat="43.13032333" lon="-4.17303167">
        <ele>572.0</ele>
        <time>2018-05-19T11:58:52.867Z</time>
      </trkpt>
      <trkpt lat="43.13032333" lon="-4.17303167">
        <ele>572.0</ele>
        <time>2018-05-19T11:58:53.858Z</time>
      </trkpt>
      <trkpt lat="43.13026667" lon="-4.17299833">
        <ele>573.0</ele>
        <time>2018-05-19T11:58:54.879Z</time>
      </trkpt>
      <trkpt lat="43.13026667" lon="-4.17299833">
        <ele>573.0</ele>
        <time>2018-05-19T11:58:55.864Z</time>
      </trkpt>
      <trkpt lat="43.13021" lon="-4.17295833">
        <ele>574.0</ele>
        <time>2018-05-19T11:58:56.867Z</time>
      </trkpt>
      <trkpt lat="43.13018167" lon="-4.172935">
        <ele>575.0</ele>
        <time>2018-05-19T11:58:57.869Z</time>
      </trkpt>
      <trkpt lat="43.13018167" lon="-4.172935">
        <ele>575.0</ele>
        <time>2018-05-19T11:58:58.856Z</time>
      </trkpt>
      <trkpt lat="43.130135" lon="-4.17287833">
        <ele>575.0</ele>
        <time>2018-05-19T11:58:59.867Z</time>
      </trkpt>
      <trkpt lat="43.130135" lon="-4.17287833">
        <ele>575.0</ele>
        <time>2018-05-19T11:59:00.856Z</time>
      </trkpt>
      <trkpt lat="43.130105" lon="-4.17282">
        <ele>575.0</ele>
        <time>2018-05-19T11:59:01.869Z</time>
      </trkpt>
      <trkpt lat="43.130105" lon="-4.17282">
        <ele>575.0</ele>
        <time>2018-05-19T11:59:02.864Z</time>
      </trkpt>
      <trkpt lat="43.130055" lon="-4.17278">
        <ele>575.0</ele>
        <time>2018-05-19T11:59:03.867Z</time>
      </trkpt>
      <trkpt lat="43.13003167" lon="-4.17276">
        <ele>576.0</ele>
        <time>2018-05-19T11:59:04.867Z</time>
      </trkpt>
      <trkpt lat="43.13003167" lon="-4.17276">
        <ele>576.0</ele>
        <time>2018-05-19T11:59:05.856Z</time>
      </trkpt>
      <trkpt lat="43.12999333" lon="-4.17272833">
        <ele>576.0</ele>
        <time>2018-05-19T11:59:06.867Z</time>
      </trkpt>
      <trkpt lat="43.129975" lon="-4.17271">
        <ele>576.0</ele>
        <time>2018-05-19T11:59:07.866Z</time>
      </trkpt>
      <trkpt lat="43.129975" lon="-4.17271">
        <ele>576.0</ele>
        <time>2018-05-19T11:59:08.864Z</time>
      </trkpt>
      <trkpt lat="43.129945" lon="-4.17267167">
        <ele>577.0</ele>
        <time>2018-05-19T11:59:09.864Z</time>
      </trkpt>
      <trkpt lat="43.12992667" lon="-4.17264833">
        <ele>577.0</ele>
        <time>2018-05-19T11:59:10.868Z</time>
      </trkpt>
      <trkpt lat="43.12992667" lon="-4.17264833">
        <ele>577.0</ele>
        <time>2018-05-19T11:59:11.864Z</time>
      </trkpt>
      <trkpt lat="43.12989333" lon="-4.17257667">
        <ele>577.0</ele>
        <time>2018-05-19T11:59:12.867Z</time>
      </trkpt>
      <trkpt lat="43.12989333" lon="-4.17257667">
        <ele>577.0</ele>
        <time>2018-05-19T11:59:13.878Z</time>
      </trkpt>
      <trkpt lat="43.12986667" lon="-4.17249">
        <ele>578.0</ele>
        <time>2018-05-19T11:59:14.868Z</time>
      </trkpt>
      <trkpt lat="43.12984" lon="-4.17243833">
        <ele>578.0</ele>
        <time>2018-05-19T11:59:15.868Z</time>
      </trkpt>
      <trkpt lat="43.12984" lon="-4.17243833">
        <ele>578.0</ele>
        <time>2018-05-19T11:59:16.863Z</time>
      </trkpt>
      <trkpt lat="43.12981333" lon="-4.17234">
        <ele>578.0</ele>
        <time>2018-05-19T11:59:17.861Z</time>
      </trkpt>
      <trkpt lat="43.12980167" lon="-4.17229167">
        <ele>578.0</ele>
        <time>2018-05-19T11:59:18.867Z</time>
      </trkpt>
      <trkpt lat="43.12980167" lon="-4.17229167">
        <ele>578.0</ele>
        <time>2018-05-19T11:59:19.864Z</time>
      </trkpt>
      <trkpt lat="43.12977" lon="-4.172185">
        <ele>578.0</ele>
        <time>2018-05-19T11:59:20.854Z</time>
      </trkpt>
      <trkpt lat="43.12975667" lon="-4.17212833">
        <ele>578.0</ele>
        <time>2018-05-19T11:59:21.877Z</time>
      </trkpt>
      <trkpt lat="43.12975667" lon="-4.17212833">
        <ele>578.0</ele>
        <time>2018-05-19T11:59:22.864Z</time>
      </trkpt>
      <trkpt lat="43.12972833" lon="-4.17202167">
        <ele>578.0</ele>
        <time>2018-05-19T11:59:23.867Z</time>
      </trkpt>
      <trkpt lat="43.12971333" lon="-4.17197833">
        <ele>578.0</ele>
        <time>2018-05-19T11:59:24.867Z</time>
      </trkpt>
      <trkpt lat="43.12971333" lon="-4.17197833">
        <ele>578.0</ele>
        <time>2018-05-19T11:59:25.864Z</time>
      </trkpt>
      <trkpt lat="43.12969833" lon="-4.17189167">
        <ele>579.0</ele>
        <time>2018-05-19T11:59:26.867Z</time>
      </trkpt>
      <trkpt lat="43.12969833" lon="-4.17189167">
        <ele>579.0</ele>
        <time>2018-05-19T11:59:27.858Z</time>
      </trkpt>
      <trkpt lat="43.12966833" lon="-4.17176833">
        <ele>579.0</ele>
        <time>2018-05-19T11:59:28.867Z</time>
      </trkpt>
      <trkpt lat="43.12966833" lon="-4.17176833">
        <ele>579.0</ele>
        <time>2018-05-19T11:59:29.862Z</time>
      </trkpt>
      <trkpt lat="43.129655" lon="-4.17165667">
        <ele>579.0</ele>
        <time>2018-05-19T11:59:30.868Z</time>
      </trkpt>
      <trkpt lat="43.12963167" lon="-4.17159">
        <ele>579.0</ele>
        <time>2018-05-19T11:59:31.867Z</time>
      </trkpt>
      <trkpt lat="43.12963167" lon="-4.17159">
        <ele>579.0</ele>
        <time>2018-05-19T11:59:32.864Z</time>
      </trkpt>
      <trkpt lat="43.12959833" lon="-4.17145">
        <ele>579.0</ele>
        <time>2018-05-19T11:59:33.868Z</time>
      </trkpt>
      <trkpt lat="43.12959167" lon="-4.17138333">
        <ele>580.0</ele>
        <time>2018-05-19T11:59:34.867Z</time>
      </trkpt>
      <trkpt lat="43.12959167" lon="-4.17138333">
        <ele>580.0</ele>
        <time>2018-05-19T11:59:35.858Z</time>
      </trkpt>
      <trkpt lat="43.12957167" lon="-4.17125">
        <ele>580.0</ele>
        <time>2018-05-19T11:59:36.866Z</time>
      </trkpt>
      <trkpt lat="43.12957167" lon="-4.17125">
        <ele>580.0</ele>
        <time>2018-05-19T11:59:37.858Z</time>
      </trkpt>
      <trkpt lat="43.12955833" lon="-4.17113667">
        <ele>580.0</ele>
        <time>2018-05-19T11:59:38.867Z</time>
      </trkpt>
      <trkpt lat="43.12955333" lon="-4.17107">
        <ele>580.0</ele>
        <time>2018-05-19T11:59:39.867Z</time>
      </trkpt>
      <trkpt lat="43.12955333" lon="-4.17107">
        <ele>580.0</ele>
        <time>2018-05-19T11:59:40.864Z</time>
      </trkpt>
      <trkpt lat="43.129525" lon="-4.170935">
        <ele>580.0</ele>
        <time>2018-05-19T11:59:41.861Z</time>
      </trkpt>
      <trkpt lat="43.129515" lon="-4.17086667">
        <ele>580.0</ele>
        <time>2018-05-19T11:59:42.867Z</time>
      </trkpt>
      <trkpt lat="43.129515" lon="-4.17086667">
        <ele>580.0</ele>
        <time>2018-05-19T11:59:43.863Z</time>
      </trkpt>
      <trkpt lat="43.12946333" lon="-4.17072667">
        <ele>580.0</ele>
        <time>2018-05-19T11:59:44.868Z</time>
      </trkpt>
      <trkpt lat="43.12946333" lon="-4.17072667">
        <ele>580.0</ele>
        <time>2018-05-19T11:59:45.883Z</time>
      </trkpt>
      <trkpt lat="43.12941333" lon="-4.17060667">
        <ele>580.0</ele>
        <time>2018-05-19T11:59:46.870Z</time>
      </trkpt>
      <trkpt lat="43.129385" lon="-4.17055167">
        <ele>580.0</ele>
        <time>2018-05-19T11:59:47.877Z</time>
      </trkpt>
      <trkpt lat="43.129385" lon="-4.17055167">
        <ele>580.0</ele>
        <time>2018-05-19T11:59:48.855Z</time>
      </trkpt>
      <trkpt lat="43.129325" lon="-4.170445">
        <ele>580.0</ele>
        <time>2018-05-19T11:59:49.866Z</time>
      </trkpt>
      <trkpt lat="43.12929833" lon="-4.17039833">
        <ele>580.0</ele>
        <time>2018-05-19T11:59:50.867Z</time>
      </trkpt>
      <trkpt lat="43.12929833" lon="-4.17039833">
        <ele>580.0</ele>
        <time>2018-05-19T11:59:51.876Z</time>
      </trkpt>
      <trkpt lat="43.129245" lon="-4.17031333">
        <ele>580.0</ele>
        <time>2018-05-19T11:59:52.865Z</time>
      </trkpt>
      <trkpt lat="43.129245" lon="-4.17031333">
        <ele>580.0</ele>
        <time>2018-05-19T11:59:53.858Z</time>
      </trkpt>
      <trkpt lat="43.129185" lon="-4.17022333">
        <ele>580.0</ele>
        <time>2018-05-19T11:59:54.866Z</time>
      </trkpt>
      <trkpt lat="43.12914167" lon="-4.170165">
        <ele>580.0</ele>
        <time>2018-05-19T11:59:55.865Z</time>
      </trkpt>
      <trkpt lat="43.12914167" lon="-4.170165">
        <ele>580.0</ele>
        <time>2018-05-19T11:59:56.857Z</time>
      </trkpt>
      <trkpt lat="43.12906833" lon="-4.170055">
        <ele>580.0</ele>
        <time>2018-05-19T11:59:57.867Z</time>
      </trkpt>
      <trkpt lat="43.12906833" lon="-4.170055">
        <ele>580.0</ele>
        <time>2018-05-19T11:59:58.864Z</time>
      </trkpt>
      <trkpt lat="43.12901833" lon="-4.169975">
        <ele>581.0</ele>
        <time>2018-05-19T11:59:59.861Z</time>
      </trkpt>
      <trkpt lat="43.12901833" lon="-4.169975">
        <ele>581.0</ele>
        <time>2018-05-19T12:00:00.858Z</time>
      </trkpt>
      <trkpt lat="43.128975" lon="-4.16988167">
        <ele>581.0</ele>
        <time>2018-05-19T12:00:01.867Z</time>
      </trkpt>
      <trkpt lat="43.128975" lon="-4.16988167">
        <ele>581.0</ele>
        <time>2018-05-19T12:00:02.868Z</time>
      </trkpt>
      <trkpt lat="43.12899" lon="-4.169785">
        <ele>581.0</ele>
        <time>2018-05-19T12:00:03.868Z</time>
      </trkpt>
      <trkpt lat="43.12899" lon="-4.169785">
        <ele>581.0</ele>
        <time>2018-05-19T12:00:04.855Z</time>
      </trkpt>
      <trkpt lat="43.12897833" lon="-4.16968667">
        <ele>582.0</ele>
        <time>2018-05-19T12:00:05.867Z</time>
      </trkpt>
      <trkpt lat="43.12897833" lon="-4.16968667">
        <ele>582.0</ele>
        <time>2018-05-19T12:00:06.856Z</time>
      </trkpt>
      <trkpt lat="43.128965" lon="-4.16959833">
        <ele>582.0</ele>
        <time>2018-05-19T12:00:07.864Z</time>
      </trkpt>
      <trkpt lat="43.12896667" lon="-4.16955667">
        <ele>582.0</ele>
        <time>2018-05-19T12:00:08.868Z</time>
      </trkpt>
      <trkpt lat="43.12896667" lon="-4.16955667">
        <ele>582.0</ele>
        <time>2018-05-19T12:00:09.857Z</time>
      </trkpt>
      <trkpt lat="43.128945" lon="-4.169455">
        <ele>583.0</ele>
        <time>2018-05-19T12:00:10.865Z</time>
      </trkpt>
      <trkpt lat="43.128945" lon="-4.169455">
        <ele>583.0</ele>
        <time>2018-05-19T12:00:11.858Z</time>
      </trkpt>
      <trkpt lat="43.12889833" lon="-4.16936">
        <ele>583.0</ele>
        <time>2018-05-19T12:00:12.876Z</time>
      </trkpt>
      <trkpt lat="43.12889833" lon="-4.16936">
        <ele>583.0</ele>
        <time>2018-05-19T12:00:13.874Z</time>
      </trkpt>
      <trkpt lat="43.12886833" lon="-4.16926833">
        <ele>583.0</ele>
        <time>2018-05-19T12:00:14.862Z</time>
      </trkpt>
      <trkpt lat="43.12884667" lon="-4.16922333">
        <ele>583.0</ele>
        <time>2018-05-19T12:00:15.866Z</time>
      </trkpt>
      <trkpt lat="43.128825" lon="-4.16918">
        <ele>583.0</ele>
        <time>2018-05-19T12:00:16.848Z</time>
      </trkpt>
      <trkpt lat="43.128825" lon="-4.16918">
        <ele>583.0</ele>
        <time>2018-05-19T12:00:17.874Z</time>
      </trkpt>
      <trkpt lat="43.12878167" lon="-4.1691">
        <ele>584.0</ele>
        <time>2018-05-19T12:00:18.865Z</time>
      </trkpt>
      <trkpt lat="43.12875833" lon="-4.16905667">
        <ele>584.0</ele>
        <time>2018-05-19T12:00:19.853Z</time>
      </trkpt>
      <trkpt lat="43.12875833" lon="-4.16905667">
        <ele>584.0</ele>
        <time>2018-05-19T12:00:20.844Z</time>
      </trkpt>
      <trkpt lat="43.128725" lon="-4.16898333">
        <ele>583.0</ele>
        <time>2018-05-19T12:00:21.869Z</time>
      </trkpt>
      <trkpt lat="43.128725" lon="-4.16898333">
        <ele>583.0</ele>
        <time>2018-05-19T12:00:22.864Z</time>
      </trkpt>
      <trkpt lat="43.12869167" lon="-4.16891167">
        <ele>583.0</ele>
        <time>2018-05-19T12:00:23.867Z</time>
      </trkpt>
      <trkpt lat="43.12869167" lon="-4.16891167">
        <ele>583.0</ele>
        <time>2018-05-19T12:00:24.867Z</time>
      </trkpt>
      <trkpt lat="43.12865667" lon="-4.168845">
        <ele>583.0</ele>
        <time>2018-05-19T12:00:25.867Z</time>
      </trkpt>
      <trkpt lat="43.12865667" lon="-4.168845">
        <ele>583.0</ele>
        <time>2018-05-19T12:00:26.864Z</time>
      </trkpt>
      <trkpt lat="43.12861333" lon="-4.16877833">
        <ele>583.0</ele>
        <time>2018-05-19T12:00:27.867Z</time>
      </trkpt>
      <trkpt lat="43.12859167" lon="-4.16874833">
        <ele>584.0</ele>
        <time>2018-05-19T12:00:28.867Z</time>
      </trkpt>
      <trkpt lat="43.12859167" lon="-4.16874833">
        <ele>584.0</ele>
        <time>2018-05-19T12:00:29.856Z</time>
      </trkpt>
      <trkpt lat="43.12856333" lon="-4.16869">
        <ele>584.0</ele>
        <time>2018-05-19T12:00:30.866Z</time>
      </trkpt>
      <trkpt lat="43.12855167" lon="-4.16866667">
        <ele>584.0</ele>
        <time>2018-05-19T12:00:31.861Z</time>
      </trkpt>
      <trkpt lat="43.12855167" lon="-4.16866667">
        <ele>584.0</ele>
        <time>2018-05-19T12:00:32.857Z</time>
      </trkpt>
      <trkpt lat="43.128515" lon="-4.16861667">
        <ele>584.0</ele>
        <time>2018-05-19T12:00:33.883Z</time>
      </trkpt>
      <trkpt lat="43.128515" lon="-4.16861667">
        <ele>584.0</ele>
        <time>2018-05-19T12:00:34.866Z</time>
      </trkpt>
      <trkpt lat="43.12847667" lon="-4.16855833">
        <ele>585.0</ele>
        <time>2018-05-19T12:00:35.863Z</time>
      </trkpt>
      <trkpt lat="43.12847667" lon="-4.16855833">
        <ele>585.0</ele>
        <time>2018-05-19T12:00:36.856Z</time>
      </trkpt>
      <trkpt lat="43.12843167" lon="-4.1685">
        <ele>585.0</ele>
        <time>2018-05-19T12:00:37.865Z</time>
      </trkpt>
      <trkpt lat="43.12840333" lon="-4.16847667">
        <ele>585.0</ele>
        <time>2018-05-19T12:00:38.867Z</time>
      </trkpt>
      <trkpt lat="43.12840333" lon="-4.16847667">
        <ele>585.0</ele>
        <time>2018-05-19T12:00:39.855Z</time>
      </trkpt>
      <trkpt lat="43.12835" lon="-4.16842667">
        <ele>585.0</ele>
        <time>2018-05-19T12:00:40.881Z</time>
      </trkpt>
      <trkpt lat="43.12831667" lon="-4.16839333">
        <ele>585.0</ele>
        <time>2018-05-19T12:00:41.866Z</time>
      </trkpt>
      <trkpt lat="43.12831667" lon="-4.16839333">
        <ele>585.0</ele>
        <time>2018-05-19T12:00:42.855Z</time>
      </trkpt>
      <trkpt lat="43.12825" lon="-4.16832833">
        <ele>585.0</ele>
        <time>2018-05-19T12:00:43.867Z</time>
      </trkpt>
      <trkpt lat="43.12822167" lon="-4.16828833">
        <ele>585.0</ele>
        <time>2018-05-19T12:00:44.869Z</time>
      </trkpt>
      <trkpt lat="43.12822167" lon="-4.16828833">
        <ele>585.0</ele>
        <time>2018-05-19T12:00:45.876Z</time>
      </trkpt>
      <trkpt lat="43.128175" lon="-4.16819167">
        <ele>586.0</ele>
        <time>2018-05-19T12:00:46.856Z</time>
      </trkpt>
      <trkpt lat="43.12815667" lon="-4.16813333">
        <ele>586.0</ele>
        <time>2018-05-19T12:00:47.862Z</time>
      </trkpt>
      <trkpt lat="43.12815667" lon="-4.16813333">
        <ele>586.0</ele>
        <time>2018-05-19T12:00:48.868Z</time>
      </trkpt>
      <trkpt lat="43.12812833" lon="-4.16801167">
        <ele>586.0</ele>
        <time>2018-05-19T12:00:49.874Z</time>
      </trkpt>
      <trkpt lat="43.12812833" lon="-4.16801167">
        <ele>586.0</ele>
        <time>2018-05-19T12:00:50.880Z</time>
      </trkpt>
      <trkpt lat="43.12811" lon="-4.167885">
        <ele>586.0</ele>
        <time>2018-05-19T12:00:51.867Z</time>
      </trkpt>
      <trkpt lat="43.12809333" lon="-4.16782167">
        <ele>586.0</ele>
        <time>2018-05-19T12:00:52.866Z</time>
      </trkpt>
      <trkpt lat="43.12809333" lon="-4.16782167">
        <ele>586.0</ele>
        <time>2018-05-19T12:00:53.855Z</time>
      </trkpt>
      <trkpt lat="43.12806667" lon="-4.167685">
        <ele>586.0</ele>
        <time>2018-05-19T12:00:54.880Z</time>
      </trkpt>
      <trkpt lat="43.12806667" lon="-4.167685">
        <ele>586.0</ele>
        <time>2018-05-19T12:00:55.864Z</time>
      </trkpt>
      <trkpt lat="43.12804" lon="-4.167555">
        <ele>586.0</ele>
        <time>2018-05-19T12:00:56.867Z</time>
      </trkpt>
      <trkpt lat="43.12804" lon="-4.167555">
        <ele>586.0</ele>
        <time>2018-05-19T12:00:57.855Z</time>
      </trkpt>
      <trkpt lat="43.12801833" lon="-4.16742833">
        <ele>585.0</ele>
        <time>2018-05-19T12:00:58.866Z</time>
      </trkpt>
      <trkpt lat="43.12801833" lon="-4.16742833">
        <ele>585.0</ele>
        <time>2018-05-19T12:00:59.863Z</time>
      </trkpt>
      <trkpt lat="43.12800667" lon="-4.16730667">
        <ele>585.0</ele>
        <time>2018-05-19T12:01:00.865Z</time>
      </trkpt>
      <trkpt lat="43.12801" lon="-4.16724833">
        <ele>585.0</ele>
        <time>2018-05-19T12:01:01.866Z</time>
      </trkpt>
      <trkpt lat="43.12802167" lon="-4.167185">
        <ele>585.0</ele>
        <time>2018-05-19T12:01:02.868Z</time>
      </trkpt>
      <trkpt lat="43.12802167" lon="-4.167185">
        <ele>585.0</ele>
        <time>2018-05-19T12:01:03.855Z</time>
      </trkpt>
      <trkpt lat="43.12801333" lon="-4.16703">
        <ele>585.0</ele>
        <time>2018-05-19T12:01:04.866Z</time>
      </trkpt>
      <trkpt lat="43.12801333" lon="-4.16703">
        <ele>585.0</ele>
        <time>2018-05-19T12:01:05.855Z</time>
      </trkpt>
      <trkpt lat="43.12801333" lon="-4.16689667">
        <ele>585.0</ele>
        <time>2018-05-19T12:01:06.865Z</time>
      </trkpt>
      <trkpt lat="43.12801333" lon="-4.16689667">
        <ele>585.0</ele>
        <time>2018-05-19T12:01:07.855Z</time>
      </trkpt>
      <trkpt lat="43.12800667" lon="-4.166735">
        <ele>585.0</ele>
        <time>2018-05-19T12:01:08.867Z</time>
      </trkpt>
      <trkpt lat="43.12800667" lon="-4.166735">
        <ele>585.0</ele>
        <time>2018-05-19T12:01:09.864Z</time>
      </trkpt>
      <trkpt lat="43.12800667" lon="-4.16659167">
        <ele>585.0</ele>
        <time>2018-05-19T12:01:10.866Z</time>
      </trkpt>
      <trkpt lat="43.12800667" lon="-4.16659167">
        <ele>585.0</ele>
        <time>2018-05-19T12:01:11.855Z</time>
      </trkpt>
      <trkpt lat="43.12800833" lon="-4.16644833">
        <ele>585.0</ele>
        <time>2018-05-19T12:01:12.866Z</time>
      </trkpt>
      <trkpt lat="43.12800833" lon="-4.16644833">
        <ele>585.0</ele>
        <time>2018-05-19T12:01:13.855Z</time>
      </trkpt>
      <trkpt lat="43.12802333" lon="-4.16631167">
        <ele>584.0</ele>
        <time>2018-05-19T12:01:14.867Z</time>
      </trkpt>
      <trkpt lat="43.12802333" lon="-4.16631167">
        <ele>584.0</ele>
        <time>2018-05-19T12:01:15.855Z</time>
      </trkpt>
      <trkpt lat="43.128035" lon="-4.16618">
        <ele>584.0</ele>
        <time>2018-05-19T12:01:16.881Z</time>
      </trkpt>
      <trkpt lat="43.128035" lon="-4.16618">
        <ele>584.0</ele>
        <time>2018-05-19T12:01:17.865Z</time>
      </trkpt>
      <trkpt lat="43.12801167" lon="-4.16605333">
        <ele>584.0</ele>
        <time>2018-05-19T12:01:18.866Z</time>
      </trkpt>
      <trkpt lat="43.12801167" lon="-4.16605333">
        <ele>584.0</ele>
        <time>2018-05-19T12:01:19.855Z</time>
      </trkpt>
      <trkpt lat="43.12796667" lon="-4.16594">
        <ele>584.0</ele>
        <time>2018-05-19T12:01:20.847Z</time>
      </trkpt>
      <trkpt lat="43.12794" lon="-4.16589667">
        <ele>584.0</ele>
        <time>2018-05-19T12:01:21.874Z</time>
      </trkpt>
      <trkpt lat="43.12794" lon="-4.16589667">
        <ele>584.0</ele>
        <time>2018-05-19T12:01:22.863Z</time>
      </trkpt>
      <trkpt lat="43.12788833" lon="-4.16581167">
        <ele>584.0</ele>
        <time>2018-05-19T12:01:23.876Z</time>
      </trkpt>
      <trkpt lat="43.12788833" lon="-4.16581167">
        <ele>584.0</ele>
        <time>2018-05-19T12:01:24.862Z</time>
      </trkpt>
      <trkpt lat="43.127825" lon="-4.16573333">
        <ele>584.0</ele>
        <time>2018-05-19T12:01:25.881Z</time>
      </trkpt>
      <trkpt lat="43.12779167" lon="-4.16569833">
        <ele>584.0</ele>
        <time>2018-05-19T12:01:26.868Z</time>
      </trkpt>
      <trkpt lat="43.12779167" lon="-4.16569833">
        <ele>584.0</ele>
        <time>2018-05-19T12:01:27.865Z</time>
      </trkpt>
      <trkpt lat="43.127725" lon="-4.16562833">
        <ele>584.0</ele>
        <time>2018-05-19T12:01:28.874Z</time>
      </trkpt>
      <trkpt lat="43.127725" lon="-4.16562833">
        <ele>584.0</ele>
        <time>2018-05-19T12:01:29.857Z</time>
      </trkpt>
      <trkpt lat="43.12765" lon="-4.16556">
        <ele>585.0</ele>
        <time>2018-05-19T12:01:30.867Z</time>
      </trkpt>
      <trkpt lat="43.127615" lon="-4.16553167">
        <ele>585.0</ele>
        <time>2018-05-19T12:01:31.865Z</time>
      </trkpt>
      <trkpt lat="43.12757667" lon="-4.16549833">
        <ele>585.0</ele>
        <time>2018-05-19T12:01:32.867Z</time>
      </trkpt>
      <trkpt lat="43.12757667" lon="-4.16549833">
        <ele>585.0</ele>
        <time>2018-05-19T12:01:33.855Z</time>
      </trkpt>
      <trkpt lat="43.12751167" lon="-4.16544667">
        <ele>585.0</ele>
        <time>2018-05-19T12:01:34.865Z</time>
      </trkpt>
      <trkpt lat="43.12751167" lon="-4.16544667">
        <ele>585.0</ele>
        <time>2018-05-19T12:01:35.860Z</time>
      </trkpt>
      <trkpt lat="43.12742833" lon="-4.16539833">
        <ele>585.0</ele>
        <time>2018-05-19T12:01:36.866Z</time>
      </trkpt>
      <trkpt lat="43.12742833" lon="-4.16539833">
        <ele>585.0</ele>
        <time>2018-05-19T12:01:37.855Z</time>
      </trkpt>
      <trkpt lat="43.127355" lon="-4.16535333">
        <ele>585.0</ele>
        <time>2018-05-19T12:01:38.868Z</time>
      </trkpt>
      <trkpt lat="43.127355" lon="-4.16535333">
        <ele>585.0</ele>
        <time>2018-05-19T12:01:39.855Z</time>
      </trkpt>
      <trkpt lat="43.12728833" lon="-4.16530333">
        <ele>585.0</ele>
        <time>2018-05-19T12:01:40.866Z</time>
      </trkpt>
      <trkpt lat="43.12728833" lon="-4.16530333">
        <ele>585.0</ele>
        <time>2018-05-19T12:01:41.854Z</time>
      </trkpt>
      <trkpt lat="43.12723" lon="-4.16525333">
        <ele>585.0</ele>
        <time>2018-05-19T12:01:42.865Z</time>
      </trkpt>
      <trkpt lat="43.12723" lon="-4.16525333">
        <ele>585.0</ele>
        <time>2018-05-19T12:01:43.855Z</time>
      </trkpt>
      <trkpt lat="43.12716667" lon="-4.16519333">
        <ele>585.0</ele>
        <time>2018-05-19T12:01:44.867Z</time>
      </trkpt>
      <trkpt lat="43.12716667" lon="-4.16519333">
        <ele>585.0</ele>
        <time>2018-05-19T12:01:45.870Z</time>
      </trkpt>
      <trkpt lat="43.12711" lon="-4.16513">
        <ele>585.0</ele>
        <time>2018-05-19T12:01:46.859Z</time>
      </trkpt>
      <trkpt lat="43.12708" lon="-4.1651">
        <ele>585.0</ele>
        <time>2018-05-19T12:01:47.865Z</time>
      </trkpt>
      <trkpt lat="43.12708" lon="-4.1651">
        <ele>585.0</ele>
        <time>2018-05-19T12:01:48.871Z</time>
      </trkpt>
      <trkpt lat="43.12702167" lon="-4.16504333">
        <ele>585.0</ele>
        <time>2018-05-19T12:01:49.867Z</time>
      </trkpt>
      <trkpt lat="43.12702167" lon="-4.16504333">
        <ele>585.0</ele>
        <time>2018-05-19T12:01:50.857Z</time>
      </trkpt>
      <trkpt lat="43.12694667" lon="-4.164965">
        <ele>585.0</ele>
        <time>2018-05-19T12:01:51.867Z</time>
      </trkpt>
      <trkpt lat="43.126915" lon="-4.16493167">
        <ele>585.0</ele>
        <time>2018-05-19T12:01:52.868Z</time>
      </trkpt>
      <trkpt lat="43.126915" lon="-4.16493167">
        <ele>585.0</ele>
        <time>2018-05-19T12:01:53.865Z</time>
      </trkpt>
      <trkpt lat="43.12686" lon="-4.16486667">
        <ele>585.0</ele>
        <time>2018-05-19T12:01:54.865Z</time>
      </trkpt>
      <trkpt lat="43.12686" lon="-4.16486667">
        <ele>585.0</ele>
        <time>2018-05-19T12:01:55.851Z</time>
      </trkpt>
      <trkpt lat="43.12681" lon="-4.16481333">
        <ele>585.0</ele>
        <time>2018-05-19T12:01:56.876Z</time>
      </trkpt>
      <trkpt lat="43.126785" lon="-4.16478333">
        <ele>585.0</ele>
        <time>2018-05-19T12:01:57.867Z</time>
      </trkpt>
      <trkpt lat="43.126785" lon="-4.16478333">
        <ele>585.0</ele>
        <time>2018-05-19T12:01:58.863Z</time>
      </trkpt>
      <trkpt lat="43.12673" lon="-4.16472167">
        <ele>585.0</ele>
        <time>2018-05-19T12:01:59.861Z</time>
      </trkpt>
      <trkpt lat="43.12670167" lon="-4.16469">
        <ele>585.0</ele>
        <time>2018-05-19T12:02:00.865Z</time>
      </trkpt>
      <trkpt lat="43.12670167" lon="-4.16469">
        <ele>585.0</ele>
        <time>2018-05-19T12:02:01.855Z</time>
      </trkpt>
      <trkpt lat="43.12664667" lon="-4.16462833">
        <ele>585.0</ele>
        <time>2018-05-19T12:02:02.877Z</time>
      </trkpt>
      <trkpt lat="43.12664667" lon="-4.16462833">
        <ele>585.0</ele>
        <time>2018-05-19T12:02:03.864Z</time>
      </trkpt>
      <trkpt lat="43.12659167" lon="-4.16456667">
        <ele>584.0</ele>
        <time>2018-05-19T12:02:04.865Z</time>
      </trkpt>
      <trkpt lat="43.12659167" lon="-4.16456667">
        <ele>584.0</ele>
        <time>2018-05-19T12:02:05.864Z</time>
      </trkpt>
      <trkpt lat="43.12653833" lon="-4.16449667">
        <ele>584.0</ele>
        <time>2018-05-19T12:02:06.866Z</time>
      </trkpt>
      <trkpt lat="43.12653833" lon="-4.16449667">
        <ele>584.0</ele>
        <time>2018-05-19T12:02:07.855Z</time>
      </trkpt>
      <trkpt lat="43.12648333" lon="-4.16444333">
        <ele>584.0</ele>
        <time>2018-05-19T12:02:08.867Z</time>
      </trkpt>
      <trkpt lat="43.12648333" lon="-4.16444333">
        <ele>584.0</ele>
        <time>2018-05-19T12:02:09.855Z</time>
      </trkpt>
      <trkpt lat="43.12643" lon="-4.16438167">
        <ele>584.0</ele>
        <time>2018-05-19T12:02:10.866Z</time>
      </trkpt>
      <trkpt lat="43.12643" lon="-4.16438167">
        <ele>584.0</ele>
        <time>2018-05-19T12:02:11.855Z</time>
      </trkpt>
      <trkpt lat="43.12637" lon="-4.164325">
        <ele>584.0</ele>
        <time>2018-05-19T12:02:12.862Z</time>
      </trkpt>
      <trkpt lat="43.12637" lon="-4.164325">
        <ele>584.0</ele>
        <time>2018-05-19T12:02:13.855Z</time>
      </trkpt>
      <trkpt lat="43.126305" lon="-4.16425833">
        <ele>584.0</ele>
        <time>2018-05-19T12:02:14.868Z</time>
      </trkpt>
      <trkpt lat="43.126305" lon="-4.16425833">
        <ele>584.0</ele>
        <time>2018-05-19T12:02:15.854Z</time>
      </trkpt>
      <trkpt lat="43.12624833" lon="-4.164205">
        <ele>584.0</ele>
        <time>2018-05-19T12:02:16.866Z</time>
      </trkpt>
      <trkpt lat="43.12624833" lon="-4.164205">
        <ele>584.0</ele>
        <time>2018-05-19T12:02:17.854Z</time>
      </trkpt>
      <trkpt lat="43.12616167" lon="-4.16414">
        <ele>584.0</ele>
        <time>2018-05-19T12:02:18.876Z</time>
      </trkpt>
      <trkpt lat="43.12612" lon="-4.16411167">
        <ele>584.0</ele>
        <time>2018-05-19T12:02:19.864Z</time>
      </trkpt>
      <trkpt lat="43.12612" lon="-4.16411167">
        <ele>584.0</ele>
        <time>2018-05-19T12:02:20.884Z</time>
      </trkpt>
      <trkpt lat="43.12603167" lon="-4.164055">
        <ele>584.0</ele>
        <time>2018-05-19T12:02:21.867Z</time>
      </trkpt>
      <trkpt lat="43.12603167" lon="-4.164055">
        <ele>584.0</ele>
        <time>2018-05-19T12:02:22.863Z</time>
      </trkpt>
      <trkpt lat="43.12594333" lon="-4.16400333">
        <ele>584.0</ele>
        <time>2018-05-19T12:02:23.873Z</time>
      </trkpt>
      <trkpt lat="43.12594333" lon="-4.16400333">
        <ele>584.0</ele>
        <time>2018-05-19T12:02:24.858Z</time>
      </trkpt>
      <trkpt lat="43.12587667" lon="-4.16394333">
        <ele>583.0</ele>
        <time>2018-05-19T12:02:25.866Z</time>
      </trkpt>
      <trkpt lat="43.12584833" lon="-4.1639">
        <ele>583.0</ele>
        <time>2018-05-19T12:02:26.864Z</time>
      </trkpt>
      <trkpt lat="43.12584" lon="-4.16386">
        <ele>583.0</ele>
        <time>2018-05-19T12:02:27.867Z</time>
      </trkpt>
      <trkpt lat="43.12584" lon="-4.16386">
        <ele>583.0</ele>
        <time>2018-05-19T12:02:28.863Z</time>
      </trkpt>
      <trkpt lat="43.12580667" lon="-4.16374167">
        <ele>583.0</ele>
        <time>2018-05-19T12:02:29.865Z</time>
      </trkpt>
      <trkpt lat="43.12579833" lon="-4.16369">
        <ele>583.0</ele>
        <time>2018-05-19T12:02:30.867Z</time>
      </trkpt>
      <trkpt lat="43.12579833" lon="-4.16369">
        <ele>583.0</ele>
        <time>2018-05-19T12:02:31.855Z</time>
      </trkpt>
      <trkpt lat="43.12578167" lon="-4.16358167">
        <ele>585.0</ele>
        <time>2018-05-19T12:02:32.867Z</time>
      </trkpt>
      <trkpt lat="43.12578167" lon="-4.16358167">
        <ele>585.0</ele>
        <time>2018-05-19T12:02:33.855Z</time>
      </trkpt>
      <trkpt lat="43.12571833" lon="-4.16347667">
        <ele>586.0</ele>
        <time>2018-05-19T12:02:34.866Z</time>
      </trkpt>
      <trkpt lat="43.12571833" lon="-4.16347667">
        <ele>586.0</ele>
        <time>2018-05-19T12:02:35.855Z</time>
      </trkpt>
      <trkpt lat="43.12564833" lon="-4.16340667">
        <ele>587.0</ele>
        <time>2018-05-19T12:02:36.866Z</time>
      </trkpt>
      <trkpt lat="43.12560667" lon="-4.16338">
        <ele>587.0</ele>
        <time>2018-05-19T12:02:37.875Z</time>
      </trkpt>
      <trkpt lat="43.12560667" lon="-4.16338">
        <ele>587.0</ele>
        <time>2018-05-19T12:02:38.864Z</time>
      </trkpt>
      <trkpt lat="43.12552333" lon="-4.163335">
        <ele>587.0</ele>
        <time>2018-05-19T12:02:39.867Z</time>
      </trkpt>
      <trkpt lat="43.1255" lon="-4.16330667">
        <ele>587.0</ele>
        <time>2018-05-19T12:02:40.865Z</time>
      </trkpt>
      <trkpt lat="43.1255" lon="-4.16330667">
        <ele>587.0</ele>
        <time>2018-05-19T12:02:41.855Z</time>
      </trkpt>
      <trkpt lat="43.12543833" lon="-4.16325833">
        <ele>588.0</ele>
        <time>2018-05-19T12:02:42.865Z</time>
      </trkpt>
      <trkpt lat="43.12543833" lon="-4.16325833">
        <ele>588.0</ele>
        <time>2018-05-19T12:02:43.855Z</time>
      </trkpt>
      <trkpt lat="43.12538833" lon="-4.16322167">
        <ele>589.0</ele>
        <time>2018-05-19T12:02:44.868Z</time>
      </trkpt>
      <trkpt lat="43.12538833" lon="-4.16322167">
        <ele>589.0</ele>
        <time>2018-05-19T12:02:45.851Z</time>
      </trkpt>
      <trkpt lat="43.12533833" lon="-4.16318167">
        <ele>589.0</ele>
        <time>2018-05-19T12:02:46.857Z</time>
      </trkpt>
      <trkpt lat="43.12531" lon="-4.16316167">
        <ele>589.0</ele>
        <time>2018-05-19T12:02:47.863Z</time>
      </trkpt>
      <trkpt lat="43.12531" lon="-4.16316167">
        <ele>589.0</ele>
        <time>2018-05-19T12:02:48.869Z</time>
      </trkpt>
      <trkpt lat="43.12529" lon="-4.16311167">
        <ele>590.0</ele>
        <time>2018-05-19T12:02:49.875Z</time>
      </trkpt>
      <trkpt lat="43.12528" lon="-4.16308667">
        <ele>590.0</ele>
        <time>2018-05-19T12:02:50.881Z</time>
      </trkpt>
      <trkpt lat="43.12528" lon="-4.16308667">
        <ele>590.0</ele>
        <time>2018-05-19T12:02:51.874Z</time>
      </trkpt>
      <trkpt lat="43.12522667" lon="-4.16303833">
        <ele>590.0</ele>
        <time>2018-05-19T12:02:52.865Z</time>
      </trkpt>
      <trkpt lat="43.12522667" lon="-4.16303833">
        <ele>590.0</ele>
        <time>2018-05-19T12:02:53.863Z</time>
      </trkpt>
      <trkpt lat="43.12517" lon="-4.16299167">
        <ele>591.0</ele>
        <time>2018-05-19T12:02:54.865Z</time>
      </trkpt>
      <trkpt lat="43.125145" lon="-4.16296833">
        <ele>592.0</ele>
        <time>2018-05-19T12:02:55.866Z</time>
      </trkpt>
      <trkpt lat="43.12511833" lon="-4.162945">
        <ele>592.0</ele>
        <time>2018-05-19T12:02:56.866Z</time>
      </trkpt>
      <trkpt lat="43.12511833" lon="-4.162945">
        <ele>592.0</ele>
        <time>2018-05-19T12:02:57.855Z</time>
      </trkpt>
      <trkpt lat="43.12507" lon="-4.16289833">
        <ele>592.0</ele>
        <time>2018-05-19T12:02:58.866Z</time>
      </trkpt>
      <trkpt lat="43.12507" lon="-4.16289833">
        <ele>592.0</ele>
        <time>2018-05-19T12:02:59.862Z</time>
      </trkpt>
      <trkpt lat="43.12501167" lon="-4.16285">
        <ele>593.0</ele>
        <time>2018-05-19T12:03:00.864Z</time>
      </trkpt>
      <trkpt lat="43.12498333" lon="-4.16282">
        <ele>593.0</ele>
        <time>2018-05-19T12:03:01.865Z</time>
      </trkpt>
      <trkpt lat="43.12495333" lon="-4.16279167">
        <ele>594.0</ele>
        <time>2018-05-19T12:03:02.867Z</time>
      </trkpt>
      <trkpt lat="43.12495333" lon="-4.16279167">
        <ele>594.0</ele>
        <time>2018-05-19T12:03:03.862Z</time>
      </trkpt>
      <trkpt lat="43.12488833" lon="-4.16273833">
        <ele>594.0</ele>
        <time>2018-05-19T12:03:04.860Z</time>
      </trkpt>
      <trkpt lat="43.12488833" lon="-4.16273833">
        <ele>594.0</ele>
        <time>2018-05-19T12:03:05.855Z</time>
      </trkpt>
      <trkpt lat="43.124825" lon="-4.16268667">
        <ele>595.0</ele>
        <time>2018-05-19T12:03:06.876Z</time>
      </trkpt>
      <trkpt lat="43.124825" lon="-4.16268667">
        <ele>595.0</ele>
        <time>2018-05-19T12:03:07.862Z</time>
      </trkpt>
      <trkpt lat="43.124765" lon="-4.16264667">
        <ele>595.0</ele>
        <time>2018-05-19T12:03:08.865Z</time>
      </trkpt>
      <trkpt lat="43.124765" lon="-4.16264667">
        <ele>595.0</ele>
        <time>2018-05-19T12:03:09.854Z</time>
      </trkpt>
      <trkpt lat="43.124705" lon="-4.16260667">
        <ele>595.0</ele>
        <time>2018-05-19T12:03:10.866Z</time>
      </trkpt>
      <trkpt lat="43.124705" lon="-4.16260667">
        <ele>595.0</ele>
        <time>2018-05-19T12:03:11.854Z</time>
      </trkpt>
      <trkpt lat="43.12465333" lon="-4.16257167">
        <ele>595.0</ele>
        <time>2018-05-19T12:03:12.864Z</time>
      </trkpt>
      <trkpt lat="43.12465333" lon="-4.16257167">
        <ele>595.0</ele>
        <time>2018-05-19T12:03:13.854Z</time>
      </trkpt>
      <trkpt lat="43.12458833" lon="-4.16252833">
        <ele>595.0</ele>
        <time>2018-05-19T12:03:14.876Z</time>
      </trkpt>
      <trkpt lat="43.124555" lon="-4.16250833">
        <ele>595.0</ele>
        <time>2018-05-19T12:03:15.866Z</time>
      </trkpt>
      <trkpt lat="43.124555" lon="-4.16250833">
        <ele>595.0</ele>
        <time>2018-05-19T12:03:16.862Z</time>
      </trkpt>
      <trkpt lat="43.12449833" lon="-4.16246">
        <ele>595.0</ele>
        <time>2018-05-19T12:03:17.864Z</time>
      </trkpt>
      <trkpt lat="43.12449833" lon="-4.16246">
        <ele>595.0</ele>
        <time>2018-05-19T12:03:18.854Z</time>
      </trkpt>
      <trkpt lat="43.12442667" lon="-4.16240167">
        <ele>595.0</ele>
        <time>2018-05-19T12:03:19.864Z</time>
      </trkpt>
      <trkpt lat="43.12442667" lon="-4.16240167">
        <ele>595.0</ele>
        <time>2018-05-19T12:03:20.852Z</time>
      </trkpt>
      <trkpt lat="43.12436167" lon="-4.162355">
        <ele>595.0</ele>
        <time>2018-05-19T12:03:21.866Z</time>
      </trkpt>
      <trkpt lat="43.12433167" lon="-4.16233">
        <ele>595.0</ele>
        <time>2018-05-19T12:03:22.865Z</time>
      </trkpt>
      <trkpt lat="43.12433167" lon="-4.16233">
        <ele>595.0</ele>
        <time>2018-05-19T12:03:23.855Z</time>
      </trkpt>
      <trkpt lat="43.12426667" lon="-4.16227333">
        <ele>595.0</ele>
        <time>2018-05-19T12:03:24.865Z</time>
      </trkpt>
      <trkpt lat="43.12426667" lon="-4.16227333">
        <ele>595.0</ele>
        <time>2018-05-19T12:03:25.864Z</time>
      </trkpt>
      <trkpt lat="43.12421833" lon="-4.16223">
        <ele>595.0</ele>
        <time>2018-05-19T12:03:26.865Z</time>
      </trkpt>
      <trkpt lat="43.12421833" lon="-4.16223">
        <ele>595.0</ele>
        <time>2018-05-19T12:03:27.855Z</time>
      </trkpt>
      <trkpt lat="43.12416" lon="-4.16217833">
        <ele>595.0</ele>
        <time>2018-05-19T12:03:28.865Z</time>
      </trkpt>
      <trkpt lat="43.12416" lon="-4.16217833">
        <ele>595.0</ele>
        <time>2018-05-19T12:03:29.855Z</time>
      </trkpt>
      <trkpt lat="43.12410333" lon="-4.16211667">
        <ele>595.0</ele>
        <time>2018-05-19T12:03:30.860Z</time>
      </trkpt>
      <trkpt lat="43.12410333" lon="-4.16211667">
        <ele>595.0</ele>
        <time>2018-05-19T12:03:31.865Z</time>
      </trkpt>
      <trkpt lat="43.12405" lon="-4.16205667">
        <ele>595.0</ele>
        <time>2018-05-19T12:03:32.865Z</time>
      </trkpt>
      <trkpt lat="43.12405" lon="-4.16205667">
        <ele>595.0</ele>
        <time>2018-05-19T12:03:33.855Z</time>
      </trkpt>
      <trkpt lat="43.12399833" lon="-4.16199">
        <ele>594.0</ele>
        <time>2018-05-19T12:03:34.865Z</time>
      </trkpt>
      <trkpt lat="43.12399833" lon="-4.16199">
        <ele>594.0</ele>
        <time>2018-05-19T12:03:35.855Z</time>
      </trkpt>
      <trkpt lat="43.123945" lon="-4.16192667">
        <ele>594.0</ele>
        <time>2018-05-19T12:03:36.880Z</time>
      </trkpt>
      <trkpt lat="43.12391167" lon="-4.16189833">
        <ele>594.0</ele>
        <time>2018-05-19T12:03:37.867Z</time>
      </trkpt>
      <trkpt lat="43.12388167" lon="-4.161865">
        <ele>594.0</ele>
        <time>2018-05-19T12:03:38.865Z</time>
      </trkpt>
      <trkpt lat="43.12386333" lon="-4.161835">
        <ele>594.0</ele>
        <time>2018-05-19T12:03:39.866Z</time>
      </trkpt>
      <trkpt lat="43.12386333" lon="-4.161835">
        <ele>594.0</ele>
        <time>2018-05-19T12:03:40.862Z</time>
      </trkpt>
      <trkpt lat="43.123835" lon="-4.16176167">
        <ele>595.0</ele>
        <time>2018-05-19T12:03:41.865Z</time>
      </trkpt>
      <trkpt lat="43.123835" lon="-4.16176167">
        <ele>595.0</ele>
        <time>2018-05-19T12:03:42.864Z</time>
      </trkpt>
      <trkpt lat="43.12381" lon="-4.16166667">
        <ele>596.0</ele>
        <time>2018-05-19T12:03:43.865Z</time>
      </trkpt>
      <trkpt lat="43.12380167" lon="-4.16161833">
        <ele>597.0</ele>
        <time>2018-05-19T12:03:44.864Z</time>
      </trkpt>
      <trkpt lat="43.12380167" lon="-4.16161833">
        <ele>597.0</ele>
        <time>2018-05-19T12:03:45.877Z</time>
      </trkpt>
      <trkpt lat="43.12377167" lon="-4.161545">
        <ele>597.0</ele>
        <time>2018-05-19T12:03:46.872Z</time>
      </trkpt>
      <trkpt lat="43.12377167" lon="-4.16150167">
        <ele>598.0</ele>
        <time>2018-05-19T12:03:47.878Z</time>
      </trkpt>
      <trkpt lat="43.12377167" lon="-4.16150167">
        <ele>598.0</ele>
        <time>2018-05-19T12:03:48.861Z</time>
      </trkpt>
      <trkpt lat="43.12377" lon="-4.16142667">
        <ele>598.0</ele>
        <time>2018-05-19T12:03:49.865Z</time>
      </trkpt>
      <trkpt lat="43.12377" lon="-4.16142667">
        <ele>598.0</ele>
        <time>2018-05-19T12:03:50.855Z</time>
      </trkpt>
      <trkpt lat="43.12375333" lon="-4.16135167">
        <ele>599.0</ele>
        <time>2018-05-19T12:03:51.866Z</time>
      </trkpt>
      <trkpt lat="43.12372667" lon="-4.16131">
        <ele>600.0</ele>
        <time>2018-05-19T12:03:52.865Z</time>
      </trkpt>
      <trkpt lat="43.12372667" lon="-4.16131">
        <ele>600.0</ele>
        <time>2018-05-19T12:03:53.855Z</time>
      </trkpt>
      <trkpt lat="43.12369" lon="-4.16123167">
        <ele>601.0</ele>
        <time>2018-05-19T12:03:54.865Z</time>
      </trkpt>
      <trkpt lat="43.12369" lon="-4.16123167">
        <ele>601.0</ele>
        <time>2018-05-19T12:03:55.855Z</time>
      </trkpt>
      <trkpt lat="43.12360667" lon="-4.16113833">
        <ele>602.0</ele>
        <time>2018-05-19T12:03:56.865Z</time>
      </trkpt>
      <trkpt lat="43.123575" lon="-4.161105">
        <ele>602.0</ele>
        <time>2018-05-19T12:03:57.858Z</time>
      </trkpt>
      <trkpt lat="43.123545" lon="-4.16107">
        <ele>602.0</ele>
        <time>2018-05-19T12:03:58.865Z</time>
      </trkpt>
      <trkpt lat="43.123545" lon="-4.16107">
        <ele>602.0</ele>
        <time>2018-05-19T12:03:59.864Z</time>
      </trkpt>
      <trkpt lat="43.12348333" lon="-4.16100167">
        <ele>602.0</ele>
        <time>2018-05-19T12:04:00.865Z</time>
      </trkpt>
      <trkpt lat="43.12348333" lon="-4.16100167">
        <ele>602.0</ele>
        <time>2018-05-19T12:04:01.855Z</time>
      </trkpt>
      <trkpt lat="43.123425" lon="-4.16093167">
        <ele>603.0</ele>
        <time>2018-05-19T12:04:02.865Z</time>
      </trkpt>
      <trkpt lat="43.123425" lon="-4.16093167">
        <ele>603.0</ele>
        <time>2018-05-19T12:04:03.854Z</time>
      </trkpt>
      <trkpt lat="43.12336333" lon="-4.16086833">
        <ele>603.0</ele>
        <time>2018-05-19T12:04:04.865Z</time>
      </trkpt>
      <trkpt lat="43.12336333" lon="-4.16086833">
        <ele>603.0</ele>
        <time>2018-05-19T12:04:05.855Z</time>
      </trkpt>
      <trkpt lat="43.12328" lon="-4.16081833">
        <ele>604.0</ele>
        <time>2018-05-19T12:04:06.869Z</time>
      </trkpt>
      <trkpt lat="43.12328" lon="-4.16081833">
        <ele>604.0</ele>
        <time>2018-05-19T12:04:07.854Z</time>
      </trkpt>
      <trkpt lat="43.12319667" lon="-4.16076667">
        <ele>604.0</ele>
        <time>2018-05-19T12:04:08.876Z</time>
      </trkpt>
      <trkpt lat="43.123155" lon="-4.16074167">
        <ele>604.0</ele>
        <time>2018-05-19T12:04:09.867Z</time>
      </trkpt>
      <trkpt lat="43.123155" lon="-4.16074167">
        <ele>604.0</ele>
        <time>2018-05-19T12:04:10.862Z</time>
      </trkpt>
      <trkpt lat="43.12309167" lon="-4.16069667">
        <ele>605.0</ele>
        <time>2018-05-19T12:04:11.865Z</time>
      </trkpt>
      <trkpt lat="43.12309167" lon="-4.16069667">
        <ele>605.0</ele>
        <time>2018-05-19T12:04:12.854Z</time>
      </trkpt>
      <trkpt lat="43.12302333" lon="-4.16066167">
        <ele>605.0</ele>
        <time>2018-05-19T12:04:13.864Z</time>
      </trkpt>
      <trkpt lat="43.12298833" lon="-4.16064333">
        <ele>606.0</ele>
        <time>2018-05-19T12:04:14.866Z</time>
      </trkpt>
      <trkpt lat="43.12298833" lon="-4.16064333">
        <ele>606.0</ele>
        <time>2018-05-19T12:04:15.854Z</time>
      </trkpt>
      <trkpt lat="43.122925" lon="-4.16060667">
        <ele>606.0</ele>
        <time>2018-05-19T12:04:16.859Z</time>
      </trkpt>
      <trkpt lat="43.122925" lon="-4.16060667">
        <ele>606.0</ele>
        <time>2018-05-19T12:04:17.854Z</time>
      </trkpt>
      <trkpt lat="43.12285167" lon="-4.16056833">
        <ele>606.0</ele>
        <time>2018-05-19T12:04:18.864Z</time>
      </trkpt>
      <trkpt lat="43.12285167" lon="-4.16056833">
        <ele>606.0</ele>
        <time>2018-05-19T12:04:19.854Z</time>
      </trkpt>
      <trkpt lat="43.12276833" lon="-4.160525">
        <ele>607.0</ele>
        <time>2018-05-19T12:04:20.883Z</time>
      </trkpt>
      <trkpt lat="43.12276833" lon="-4.160525">
        <ele>607.0</ele>
        <time>2018-05-19T12:04:21.868Z</time>
      </trkpt>
      <trkpt lat="43.122695" lon="-4.16046833">
        <ele>607.0</ele>
        <time>2018-05-19T12:04:22.865Z</time>
      </trkpt>
      <trkpt lat="43.122695" lon="-4.16046833">
        <ele>607.0</ele>
        <time>2018-05-19T12:04:23.874Z</time>
      </trkpt>
      <trkpt lat="43.12263667" lon="-4.16041167">
        <ele>607.0</ele>
        <time>2018-05-19T12:04:24.865Z</time>
      </trkpt>
      <trkpt lat="43.122605" lon="-4.160385">
        <ele>607.0</ele>
        <time>2018-05-19T12:04:25.865Z</time>
      </trkpt>
      <trkpt lat="43.122605" lon="-4.160385">
        <ele>607.0</ele>
        <time>2018-05-19T12:04:26.855Z</time>
      </trkpt>
      <trkpt lat="43.122535" lon="-4.16031667">
        <ele>607.0</ele>
        <time>2018-05-19T12:04:27.865Z</time>
      </trkpt>
      <trkpt lat="43.1225" lon="-4.16028333">
        <ele>607.0</ele>
        <time>2018-05-19T12:04:28.865Z</time>
      </trkpt>
      <trkpt lat="43.12246333" lon="-4.160255">
        <ele>607.0</ele>
        <time>2018-05-19T12:04:29.865Z</time>
      </trkpt>
      <trkpt lat="43.12246333" lon="-4.160255">
        <ele>607.0</ele>
        <time>2018-05-19T12:04:30.854Z</time>
      </trkpt>
      <trkpt lat="43.12239333" lon="-4.16020167">
        <ele>607.0</ele>
        <time>2018-05-19T12:04:31.864Z</time>
      </trkpt>
      <trkpt lat="43.12237" lon="-4.160175">
        <ele>607.0</ele>
        <time>2018-05-19T12:04:32.865Z</time>
      </trkpt>
      <trkpt lat="43.12237" lon="-4.160175">
        <ele>607.0</ele>
        <time>2018-05-19T12:04:33.857Z</time>
      </trkpt>
      <trkpt lat="43.12232167" lon="-4.16011167">
        <ele>607.0</ele>
        <time>2018-05-19T12:04:34.865Z</time>
      </trkpt>
      <trkpt lat="43.12232167" lon="-4.16011167">
        <ele>607.0</ele>
        <time>2018-05-19T12:04:35.854Z</time>
      </trkpt>
      <trkpt lat="43.12223667" lon="-4.16004833">
        <ele>607.0</ele>
        <time>2018-05-19T12:04:36.864Z</time>
      </trkpt>
      <trkpt lat="43.12223667" lon="-4.16004833">
        <ele>607.0</ele>
        <time>2018-05-19T12:04:37.855Z</time>
      </trkpt>
      <trkpt lat="43.12217" lon="-4.15999333">
        <ele>607.0</ele>
        <time>2018-05-19T12:04:38.865Z</time>
      </trkpt>
      <trkpt lat="43.12217" lon="-4.15999333">
        <ele>607.0</ele>
        <time>2018-05-19T12:04:39.854Z</time>
      </trkpt>
      <trkpt lat="43.12209833" lon="-4.159935">
        <ele>607.0</ele>
        <time>2018-05-19T12:04:40.864Z</time>
      </trkpt>
      <trkpt lat="43.12206333" lon="-4.15990667">
        <ele>607.0</ele>
        <time>2018-05-19T12:04:41.866Z</time>
      </trkpt>
      <trkpt lat="43.12206333" lon="-4.15990667">
        <ele>607.0</ele>
        <time>2018-05-19T12:04:42.854Z</time>
      </trkpt>
      <trkpt lat="43.12199" lon="-4.15985833">
        <ele>607.0</ele>
        <time>2018-05-19T12:04:43.864Z</time>
      </trkpt>
      <trkpt lat="43.12199" lon="-4.15985833">
        <ele>607.0</ele>
        <time>2018-05-19T12:04:44.855Z</time>
      </trkpt>
      <trkpt lat="43.121925" lon="-4.159815">
        <ele>607.0</ele>
        <time>2018-05-19T12:04:45.862Z</time>
      </trkpt>
      <trkpt lat="43.121925" lon="-4.159815">
        <ele>607.0</ele>
        <time>2018-05-19T12:04:46.866Z</time>
      </trkpt>
      <trkpt lat="43.12187167" lon="-4.15977333">
        <ele>607.0</ele>
        <time>2018-05-19T12:04:47.872Z</time>
      </trkpt>
      <trkpt lat="43.12185333" lon="-4.159745">
        <ele>607.0</ele>
        <time>2018-05-19T12:04:48.863Z</time>
      </trkpt>
      <trkpt lat="43.12184667" lon="-4.159715">
        <ele>607.0</ele>
        <time>2018-05-19T12:04:49.867Z</time>
      </trkpt>
      <trkpt lat="43.12184667" lon="-4.159715">
        <ele>607.0</ele>
        <time>2018-05-19T12:04:50.855Z</time>
      </trkpt>
      <trkpt lat="43.12182667" lon="-4.159645">
        <ele>608.0</ele>
        <time>2018-05-19T12:04:51.866Z</time>
      </trkpt>
      <trkpt lat="43.1218" lon="-4.15961833">
        <ele>608.0</ele>
        <time>2018-05-19T12:04:52.879Z</time>
      </trkpt>
      <trkpt lat="43.1218" lon="-4.15961833">
        <ele>608.0</ele>
        <time>2018-05-19T12:04:53.865Z</time>
      </trkpt>
      <trkpt lat="43.12179833" lon="-4.159535">
        <ele>609.0</ele>
        <time>2018-05-19T12:04:54.865Z</time>
      </trkpt>
      <trkpt lat="43.12179833" lon="-4.159535">
        <ele>609.0</ele>
        <time>2018-05-19T12:04:55.854Z</time>
      </trkpt>
      <trkpt lat="43.12175833" lon="-4.15947">
        <ele>610.0</ele>
        <time>2018-05-19T12:04:56.866Z</time>
      </trkpt>
      <trkpt lat="43.12175833" lon="-4.15947">
        <ele>610.0</ele>
        <time>2018-05-19T12:04:57.859Z</time>
      </trkpt>
      <trkpt lat="43.12171833" lon="-4.15941167">
        <ele>611.0</ele>
        <time>2018-05-19T12:04:58.865Z</time>
      </trkpt>
      <trkpt lat="43.12171833" lon="-4.15941167">
        <ele>611.0</ele>
        <time>2018-05-19T12:04:59.854Z</time>
      </trkpt>
      <trkpt lat="43.12168167" lon="-4.15935833">
        <ele>611.0</ele>
        <time>2018-05-19T12:05:00.864Z</time>
      </trkpt>
      <trkpt lat="43.12165667" lon="-4.15932833">
        <ele>611.0</ele>
        <time>2018-05-19T12:05:01.864Z</time>
      </trkpt>
      <trkpt lat="43.12165667" lon="-4.15932833">
        <ele>611.0</ele>
        <time>2018-05-19T12:05:02.855Z</time>
      </trkpt>
      <trkpt lat="43.121585" lon="-4.15927">
        <ele>612.0</ele>
        <time>2018-05-19T12:05:03.867Z</time>
      </trkpt>
      <trkpt lat="43.12155167" lon="-4.15924">
        <ele>612.0</ele>
        <time>2018-05-19T12:05:04.866Z</time>
      </trkpt>
      <trkpt lat="43.12155167" lon="-4.15924">
        <ele>612.0</ele>
        <time>2018-05-19T12:05:05.853Z</time>
      </trkpt>
      <trkpt lat="43.12148667" lon="-4.15918333">
        <ele>612.0</ele>
        <time>2018-05-19T12:05:06.864Z</time>
      </trkpt>
      <trkpt lat="43.12148667" lon="-4.15918333">
        <ele>612.0</ele>
        <time>2018-05-19T12:05:07.854Z</time>
      </trkpt>
      <trkpt lat="43.12142" lon="-4.15914667">
        <ele>612.0</ele>
        <time>2018-05-19T12:05:08.865Z</time>
      </trkpt>
      <trkpt lat="43.12142" lon="-4.15914667">
        <ele>612.0</ele>
        <time>2018-05-19T12:05:09.854Z</time>
      </trkpt>
      <trkpt lat="43.12134167" lon="-4.159105">
        <ele>613.0</ele>
        <time>2018-05-19T12:05:10.880Z</time>
      </trkpt>
      <trkpt lat="43.12134167" lon="-4.159105">
        <ele>613.0</ele>
        <time>2018-05-19T12:05:11.865Z</time>
      </trkpt>
      <trkpt lat="43.12127167" lon="-4.15905833">
        <ele>613.0</ele>
        <time>2018-05-19T12:05:12.863Z</time>
      </trkpt>
      <trkpt lat="43.12123667" lon="-4.159035">
        <ele>613.0</ele>
        <time>2018-05-19T12:05:13.866Z</time>
      </trkpt>
      <trkpt lat="43.12123667" lon="-4.159035">
        <ele>613.0</ele>
        <time>2018-05-19T12:05:14.854Z</time>
      </trkpt>
      <trkpt lat="43.12115" lon="-4.15899667">
        <ele>613.0</ele>
        <time>2018-05-19T12:05:15.849Z</time>
      </trkpt>
      <trkpt lat="43.12111167" lon="-4.158975">
        <ele>613.0</ele>
        <time>2018-05-19T12:05:16.874Z</time>
      </trkpt>
      <trkpt lat="43.12111167" lon="-4.158975">
        <ele>613.0</ele>
        <time>2018-05-19T12:05:17.879Z</time>
      </trkpt>
      <trkpt lat="43.12104333" lon="-4.15894333">
        <ele>613.0</ele>
        <time>2018-05-19T12:05:18.864Z</time>
      </trkpt>
      <trkpt lat="43.12104333" lon="-4.15894333">
        <ele>613.0</ele>
        <time>2018-05-19T12:05:19.854Z</time>
      </trkpt>
      <trkpt lat="43.12097" lon="-4.15891333">
        <ele>613.0</ele>
        <time>2018-05-19T12:05:20.847Z</time>
      </trkpt>
      <trkpt lat="43.12097" lon="-4.15891333">
        <ele>613.0</ele>
        <time>2018-05-19T12:05:21.874Z</time>
      </trkpt>
      <trkpt lat="43.12089833" lon="-4.15888167">
        <ele>613.0</ele>
        <time>2018-05-19T12:05:22.865Z</time>
      </trkpt>
      <trkpt lat="43.12089833" lon="-4.15888167">
        <ele>613.0</ele>
        <time>2018-05-19T12:05:23.854Z</time>
      </trkpt>
      <trkpt lat="43.12081167" lon="-4.158855">
        <ele>613.0</ele>
        <time>2018-05-19T12:05:24.866Z</time>
      </trkpt>
      <trkpt lat="43.12081167" lon="-4.158855">
        <ele>613.0</ele>
        <time>2018-05-19T12:05:25.861Z</time>
      </trkpt>
      <trkpt lat="43.120715" lon="-4.15882">
        <ele>613.0</ele>
        <time>2018-05-19T12:05:26.865Z</time>
      </trkpt>
      <trkpt lat="43.120715" lon="-4.15882">
        <ele>613.0</ele>
        <time>2018-05-19T12:05:27.853Z</time>
      </trkpt>
      <trkpt lat="43.12060833" lon="-4.15878167">
        <ele>613.0</ele>
        <time>2018-05-19T12:05:28.865Z</time>
      </trkpt>
      <trkpt lat="43.12060833" lon="-4.15878167">
        <ele>613.0</ele>
        <time>2018-05-19T12:05:29.853Z</time>
      </trkpt>
      <trkpt lat="43.12050667" lon="-4.15873833">
        <ele>613.0</ele>
        <time>2018-05-19T12:05:30.864Z</time>
      </trkpt>
      <trkpt lat="43.12050667" lon="-4.15873833">
        <ele>613.0</ele>
        <time>2018-05-19T12:05:31.854Z</time>
      </trkpt>
      <trkpt lat="43.12041833" lon="-4.15870667">
        <ele>613.0</ele>
        <time>2018-05-19T12:05:32.877Z</time>
      </trkpt>
      <trkpt lat="43.12038167" lon="-4.158695">
        <ele>613.0</ele>
        <time>2018-05-19T12:05:33.873Z</time>
      </trkpt>
      <trkpt lat="43.12034167" lon="-4.15868333">
        <ele>613.0</ele>
        <time>2018-05-19T12:05:34.864Z</time>
      </trkpt>
      <trkpt lat="43.12034167" lon="-4.15868333">
        <ele>613.0</ele>
        <time>2018-05-19T12:05:35.854Z</time>
      </trkpt>
      <trkpt lat="43.12021667" lon="-4.15862">
        <ele>613.0</ele>
        <time>2018-05-19T12:05:36.865Z</time>
      </trkpt>
      <trkpt lat="43.12021667" lon="-4.15862">
        <ele>613.0</ele>
        <time>2018-05-19T12:05:37.850Z</time>
      </trkpt>
      <trkpt lat="43.12012833" lon="-4.158575">
        <ele>614.0</ele>
        <time>2018-05-19T12:05:38.877Z</time>
      </trkpt>
      <trkpt lat="43.12012833" lon="-4.158575">
        <ele>614.0</ele>
        <time>2018-05-19T12:05:39.863Z</time>
      </trkpt>
      <trkpt lat="43.12001667" lon="-4.15851833">
        <ele>614.0</ele>
        <time>2018-05-19T12:05:40.865Z</time>
      </trkpt>
      <trkpt lat="43.12001667" lon="-4.15851833">
        <ele>614.0</ele>
        <time>2018-05-19T12:05:41.851Z</time>
      </trkpt>
      <trkpt lat="43.11994167" lon="-4.15846833">
        <ele>614.0</ele>
        <time>2018-05-19T12:05:42.866Z</time>
      </trkpt>
      <trkpt lat="43.11994167" lon="-4.15846833">
        <ele>614.0</ele>
        <time>2018-05-19T12:05:43.857Z</time>
      </trkpt>
      <trkpt lat="43.11986167" lon="-4.15840833">
        <ele>614.0</ele>
        <time>2018-05-19T12:05:44.865Z</time>
      </trkpt>
      <trkpt lat="43.11986167" lon="-4.15840833">
        <ele>614.0</ele>
        <time>2018-05-19T12:05:45.871Z</time>
      </trkpt>
      <trkpt lat="43.11979167" lon="-4.15835333">
        <ele>615.0</ele>
        <time>2018-05-19T12:05:46.861Z</time>
      </trkpt>
      <trkpt lat="43.11979167" lon="-4.15835333">
        <ele>615.0</ele>
        <time>2018-05-19T12:05:47.867Z</time>
      </trkpt>
      <trkpt lat="43.119735" lon="-4.15828833">
        <ele>615.0</ele>
        <time>2018-05-19T12:05:48.873Z</time>
      </trkpt>
      <trkpt lat="43.119735" lon="-4.15828833">
        <ele>615.0</ele>
        <time>2018-05-19T12:05:49.879Z</time>
      </trkpt>
      <trkpt lat="43.11969667" lon="-4.15822667">
        <ele>615.0</ele>
        <time>2018-05-19T12:05:50.856Z</time>
      </trkpt>
      <trkpt lat="43.11969667" lon="-4.15822667">
        <ele>615.0</ele>
        <time>2018-05-19T12:05:51.854Z</time>
      </trkpt>
      <trkpt lat="43.11964167" lon="-4.158165">
        <ele>615.0</ele>
        <time>2018-05-19T12:05:52.864Z</time>
      </trkpt>
      <trkpt lat="43.11964167" lon="-4.158165">
        <ele>615.0</ele>
        <time>2018-05-19T12:05:53.854Z</time>
      </trkpt>
      <trkpt lat="43.11959667" lon="-4.15809333">
        <ele>616.0</ele>
        <time>2018-05-19T12:05:54.865Z</time>
      </trkpt>
      <trkpt lat="43.11959667" lon="-4.15809333">
        <ele>616.0</ele>
        <time>2018-05-19T12:05:55.854Z</time>
      </trkpt>
      <trkpt lat="43.11954667" lon="-4.15802">
        <ele>616.0</ele>
        <time>2018-05-19T12:05:56.864Z</time>
      </trkpt>
      <trkpt lat="43.11954667" lon="-4.15802">
        <ele>616.0</ele>
        <time>2018-05-19T12:05:57.855Z</time>
      </trkpt>
      <trkpt lat="43.11950667" lon="-4.157955">
        <ele>616.0</ele>
        <time>2018-05-19T12:05:58.865Z</time>
      </trkpt>
      <trkpt lat="43.11950667" lon="-4.157955">
        <ele>616.0</ele>
        <time>2018-05-19T12:05:59.854Z</time>
      </trkpt>
      <trkpt lat="43.11946833" lon="-4.1579">
        <ele>616.0</ele>
        <time>2018-05-19T12:06:00.866Z</time>
      </trkpt>
      <trkpt lat="43.11946833" lon="-4.1579">
        <ele>616.0</ele>
        <time>2018-05-19T12:06:01.853Z</time>
      </trkpt>
      <trkpt lat="43.11944" lon="-4.15784833">
        <ele>616.0</ele>
        <time>2018-05-19T12:06:02.877Z</time>
      </trkpt>
      <trkpt lat="43.11944" lon="-4.15784833">
        <ele>616.0</ele>
        <time>2018-05-19T12:06:03.864Z</time>
      </trkpt>
      <trkpt lat="43.11939333" lon="-4.15779333">
        <ele>616.0</ele>
        <time>2018-05-19T12:06:04.864Z</time>
      </trkpt>
      <trkpt lat="43.11939333" lon="-4.15779333">
        <ele>616.0</ele>
        <time>2018-05-19T12:06:05.853Z</time>
      </trkpt>
      <trkpt lat="43.119355" lon="-4.15773833">
        <ele>617.0</ele>
        <time>2018-05-19T12:06:06.864Z</time>
      </trkpt>
      <trkpt lat="43.119355" lon="-4.15773833">
        <ele>617.0</ele>
        <time>2018-05-19T12:06:07.859Z</time>
      </trkpt>
      <trkpt lat="43.11931333" lon="-4.15767833">
        <ele>617.0</ele>
        <time>2018-05-19T12:06:08.865Z</time>
      </trkpt>
      <trkpt lat="43.11931333" lon="-4.15767833">
        <ele>617.0</ele>
        <time>2018-05-19T12:06:09.853Z</time>
      </trkpt>
      <trkpt lat="43.11927667" lon="-4.15761667">
        <ele>617.0</ele>
        <time>2018-05-19T12:06:10.866Z</time>
      </trkpt>
      <trkpt lat="43.11927667" lon="-4.15761667">
        <ele>617.0</ele>
        <time>2018-05-19T12:06:11.853Z</time>
      </trkpt>
      <trkpt lat="43.11924" lon="-4.15755833">
        <ele>617.0</ele>
        <time>2018-05-19T12:06:12.865Z</time>
      </trkpt>
      <trkpt lat="43.11924" lon="-4.15755833">
        <ele>617.0</ele>
        <time>2018-05-19T12:06:13.860Z</time>
      </trkpt>
      <trkpt lat="43.1192" lon="-4.157495">
        <ele>618.0</ele>
        <time>2018-05-19T12:06:14.864Z</time>
      </trkpt>
      <trkpt lat="43.1192" lon="-4.157495">
        <ele>618.0</ele>
        <time>2018-05-19T12:06:15.853Z</time>
      </trkpt>
      <trkpt lat="43.11917667" lon="-4.15743">
        <ele>618.0</ele>
        <time>2018-05-19T12:06:16.864Z</time>
      </trkpt>
      <trkpt lat="43.11917667" lon="-4.15743">
        <ele>618.0</ele>
        <time>2018-05-19T12:06:17.864Z</time>
      </trkpt>
      <trkpt lat="43.11916833" lon="-4.15735667">
        <ele>620.0</ele>
        <time>2018-05-19T12:06:18.864Z</time>
      </trkpt>
      <trkpt lat="43.11916833" lon="-4.15735667">
        <ele>620.0</ele>
        <time>2018-05-19T12:06:19.853Z</time>
      </trkpt>
      <trkpt lat="43.11914667" lon="-4.15728667">
        <ele>620.0</ele>
        <time>2018-05-19T12:06:20.845Z</time>
      </trkpt>
      <trkpt lat="43.11914667" lon="-4.15728667">
        <ele>620.0</ele>
        <time>2018-05-19T12:06:21.867Z</time>
      </trkpt>
      <trkpt lat="43.11912667" lon="-4.15719667">
        <ele>621.0</ele>
        <time>2018-05-19T12:06:22.881Z</time>
      </trkpt>
      <trkpt lat="43.11912667" lon="-4.15719667">
        <ele>621.0</ele>
        <time>2018-05-19T12:06:23.867Z</time>
      </trkpt>
      <trkpt lat="43.11910667" lon="-4.15711">
        <ele>623.0</ele>
        <time>2018-05-19T12:06:24.865Z</time>
      </trkpt>
      <trkpt lat="43.11910667" lon="-4.15711">
        <ele>623.0</ele>
        <time>2018-05-19T12:06:25.860Z</time>
      </trkpt>
      <trkpt lat="43.119095" lon="-4.15702667">
        <ele>624.0</ele>
        <time>2018-05-19T12:06:26.864Z</time>
      </trkpt>
      <trkpt lat="43.119095" lon="-4.15702667">
        <ele>624.0</ele>
        <time>2018-05-19T12:06:27.870Z</time>
      </trkpt>
      <trkpt lat="43.11907833" lon="-4.15694667">
        <ele>625.0</ele>
        <time>2018-05-19T12:06:28.864Z</time>
      </trkpt>
      <trkpt lat="43.11907833" lon="-4.15694667">
        <ele>625.0</ele>
        <time>2018-05-19T12:06:29.853Z</time>
      </trkpt>
      <trkpt lat="43.119055" lon="-4.15687833">
        <ele>625.0</ele>
        <time>2018-05-19T12:06:30.879Z</time>
      </trkpt>
      <trkpt lat="43.119055" lon="-4.15687833">
        <ele>625.0</ele>
        <time>2018-05-19T12:06:31.864Z</time>
      </trkpt>
      <trkpt lat="43.11903333" lon="-4.156805">
        <ele>626.0</ele>
        <time>2018-05-19T12:06:32.864Z</time>
      </trkpt>
      <trkpt lat="43.11903333" lon="-4.156805">
        <ele>626.0</ele>
        <time>2018-05-19T12:06:33.854Z</time>
      </trkpt>
      <trkpt lat="43.11900833" lon="-4.15673">
        <ele>626.0</ele>
        <time>2018-05-19T12:06:34.864Z</time>
      </trkpt>
      <trkpt lat="43.11900833" lon="-4.15673">
        <ele>626.0</ele>
        <time>2018-05-19T12:06:35.853Z</time>
      </trkpt>
      <trkpt lat="43.11898833" lon="-4.15664833">
        <ele>626.0</ele>
        <time>2018-05-19T12:06:36.863Z</time>
      </trkpt>
      <trkpt lat="43.118975" lon="-4.156605">
        <ele>626.0</ele>
        <time>2018-05-19T12:06:37.866Z</time>
      </trkpt>
      <trkpt lat="43.118975" lon="-4.156605">
        <ele>626.0</ele>
        <time>2018-05-19T12:06:38.858Z</time>
      </trkpt>
      <trkpt lat="43.11895" lon="-4.15652167">
        <ele>627.0</ele>
        <time>2018-05-19T12:06:39.864Z</time>
      </trkpt>
      <trkpt lat="43.11893667" lon="-4.15648333">
        <ele>627.0</ele>
        <time>2018-05-19T12:06:40.864Z</time>
      </trkpt>
      <trkpt lat="43.11893667" lon="-4.15648333">
        <ele>627.0</ele>
        <time>2018-05-19T12:06:41.853Z</time>
      </trkpt>
      <trkpt lat="43.11890333" lon="-4.15640833">
        <ele>628.0</ele>
        <time>2018-05-19T12:06:42.861Z</time>
      </trkpt>
      <trkpt lat="43.11890333" lon="-4.15640833">
        <ele>628.0</ele>
        <time>2018-05-19T12:06:43.854Z</time>
      </trkpt>
      <trkpt lat="43.11886" lon="-4.156335">
        <ele>628.0</ele>
        <time>2018-05-19T12:06:44.867Z</time>
      </trkpt>
      <trkpt lat="43.11886" lon="-4.156335">
        <ele>628.0</ele>
        <time>2018-05-19T12:06:45.874Z</time>
      </trkpt>
      <trkpt lat="43.11881333" lon="-4.15626833">
        <ele>629.0</ele>
        <time>2018-05-19T12:06:46.878Z</time>
      </trkpt>
      <trkpt lat="43.11879" lon="-4.15623833">
        <ele>629.0</ele>
        <time>2018-05-19T12:06:47.849Z</time>
      </trkpt>
      <trkpt lat="43.11879" lon="-4.15623833">
        <ele>629.0</ele>
        <time>2018-05-19T12:06:48.868Z</time>
      </trkpt>
      <trkpt lat="43.11874167" lon="-4.15618333">
        <ele>629.0</ele>
        <time>2018-05-19T12:06:49.863Z</time>
      </trkpt>
      <trkpt lat="43.11874167" lon="-4.15618333">
        <ele>629.0</ele>
        <time>2018-05-19T12:06:50.861Z</time>
      </trkpt>
      <trkpt lat="43.118695" lon="-4.156135">
        <ele>630.0</ele>
        <time>2018-05-19T12:06:51.864Z</time>
      </trkpt>
      <trkpt lat="43.11866667" lon="-4.156115">
        <ele>630.0</ele>
        <time>2018-05-19T12:06:52.859Z</time>
      </trkpt>
      <trkpt lat="43.11866667" lon="-4.156115">
        <ele>630.0</ele>
        <time>2018-05-19T12:06:53.854Z</time>
      </trkpt>
      <trkpt lat="43.11861167" lon="-4.15608">
        <ele>630.0</ele>
        <time>2018-05-19T12:06:54.864Z</time>
      </trkpt>
      <trkpt lat="43.11861167" lon="-4.15608">
        <ele>630.0</ele>
        <time>2018-05-19T12:06:55.854Z</time>
      </trkpt>
      <trkpt lat="43.11855333" lon="-4.15605">
        <ele>631.0</ele>
        <time>2018-05-19T12:06:56.876Z</time>
      </trkpt>
      <trkpt lat="43.11855333" lon="-4.15605">
        <ele>631.0</ele>
        <time>2018-05-19T12:06:57.864Z</time>
      </trkpt>
      <trkpt lat="43.1185" lon="-4.15600833">
        <ele>632.0</ele>
        <time>2018-05-19T12:06:58.863Z</time>
      </trkpt>
      <trkpt lat="43.1185" lon="-4.15600833">
        <ele>632.0</ele>
        <time>2018-05-19T12:06:59.853Z</time>
      </trkpt>
      <trkpt lat="43.11844167" lon="-4.15595">
        <ele>632.0</ele>
        <time>2018-05-19T12:07:00.863Z</time>
      </trkpt>
      <trkpt lat="43.11844167" lon="-4.15595">
        <ele>632.0</ele>
        <time>2018-05-19T12:07:01.853Z</time>
      </trkpt>
      <trkpt lat="43.11838833" lon="-4.15588333">
        <ele>633.0</ele>
        <time>2018-05-19T12:07:02.876Z</time>
      </trkpt>
      <trkpt lat="43.11838833" lon="-4.15588333">
        <ele>633.0</ele>
        <time>2018-05-19T12:07:03.862Z</time>
      </trkpt>
      <trkpt lat="43.118345" lon="-4.15581667">
        <ele>633.0</ele>
        <time>2018-05-19T12:07:04.864Z</time>
      </trkpt>
      <trkpt lat="43.118345" lon="-4.15581667">
        <ele>633.0</ele>
        <time>2018-05-19T12:07:05.853Z</time>
      </trkpt>
      <trkpt lat="43.11830167" lon="-4.15575">
        <ele>633.0</ele>
        <time>2018-05-19T12:07:06.864Z</time>
      </trkpt>
      <trkpt lat="43.11830167" lon="-4.15575">
        <ele>633.0</ele>
        <time>2018-05-19T12:07:07.853Z</time>
      </trkpt>
      <trkpt lat="43.11827333" lon="-4.15567833">
        <ele>633.0</ele>
        <time>2018-05-19T12:07:08.863Z</time>
      </trkpt>
      <trkpt lat="43.11827333" lon="-4.15567833">
        <ele>633.0</ele>
        <time>2018-05-19T12:07:09.852Z</time>
      </trkpt>
      <trkpt lat="43.11827167" lon="-4.155615">
        <ele>634.0</ele>
        <time>2018-05-19T12:07:10.864Z</time>
      </trkpt>
      <trkpt lat="43.11827167" lon="-4.155615">
        <ele>634.0</ele>
        <time>2018-05-19T12:07:11.853Z</time>
      </trkpt>
      <trkpt lat="43.11824667" lon="-4.15554833">
        <ele>634.0</ele>
        <time>2018-05-19T12:07:12.863Z</time>
      </trkpt>
      <trkpt lat="43.11824667" lon="-4.15554833">
        <ele>634.0</ele>
        <time>2018-05-19T12:07:13.858Z</time>
      </trkpt>
      <trkpt lat="43.11817667" lon="-4.15545667">
        <ele>634.0</ele>
        <time>2018-05-19T12:07:14.865Z</time>
      </trkpt>
      <trkpt lat="43.11817667" lon="-4.15545667">
        <ele>634.0</ele>
        <time>2018-05-19T12:07:15.853Z</time>
      </trkpt>
      <trkpt lat="43.11811333" lon="-4.15538">
        <ele>635.0</ele>
        <time>2018-05-19T12:07:16.862Z</time>
      </trkpt>
      <trkpt lat="43.11811333" lon="-4.15538">
        <ele>635.0</ele>
        <time>2018-05-19T12:07:17.852Z</time>
      </trkpt>
      <trkpt lat="43.11805" lon="-4.155295">
        <ele>635.0</ele>
        <time>2018-05-19T12:07:18.877Z</time>
      </trkpt>
      <trkpt lat="43.11802333" lon="-4.15524667">
        <ele>636.0</ele>
        <time>2018-05-19T12:07:19.864Z</time>
      </trkpt>
      <trkpt lat="43.11802333" lon="-4.15524667">
        <ele>636.0</ele>
        <time>2018-05-19T12:07:20.864Z</time>
      </trkpt>
      <trkpt lat="43.117975" lon="-4.155155">
        <ele>636.0</ele>
        <time>2018-05-19T12:07:21.864Z</time>
      </trkpt>
      <trkpt lat="43.11795333" lon="-4.15510833">
        <ele>636.0</ele>
        <time>2018-05-19T12:07:22.863Z</time>
      </trkpt>
      <trkpt lat="43.11795333" lon="-4.15510833">
        <ele>636.0</ele>
        <time>2018-05-19T12:07:23.853Z</time>
      </trkpt>
      <trkpt lat="43.11791" lon="-4.15502333">
        <ele>636.0</ele>
        <time>2018-05-19T12:07:24.863Z</time>
      </trkpt>
      <trkpt lat="43.11791" lon="-4.15502333">
        <ele>636.0</ele>
        <time>2018-05-19T12:07:25.853Z</time>
      </trkpt>
      <trkpt lat="43.11787" lon="-4.154945">
        <ele>636.0</ele>
        <time>2018-05-19T12:07:26.876Z</time>
      </trkpt>
      <trkpt lat="43.11785167" lon="-4.15491167">
        <ele>636.0</ele>
        <time>2018-05-19T12:07:27.865Z</time>
      </trkpt>
      <trkpt lat="43.11785167" lon="-4.15491167">
        <ele>636.0</ele>
        <time>2018-05-19T12:07:28.854Z</time>
      </trkpt>
      <trkpt lat="43.11779833" lon="-4.15484667">
        <ele>636.0</ele>
        <time>2018-05-19T12:07:29.863Z</time>
      </trkpt>
      <trkpt lat="43.11779833" lon="-4.15484667">
        <ele>636.0</ele>
        <time>2018-05-19T12:07:30.853Z</time>
      </trkpt>
      <trkpt lat="43.11774" lon="-4.154795">
        <ele>637.0</ele>
        <time>2018-05-19T12:07:31.864Z</time>
      </trkpt>
      <trkpt lat="43.11771333" lon="-4.154775">
        <ele>637.0</ele>
        <time>2018-05-19T12:07:32.865Z</time>
      </trkpt>
      <trkpt lat="43.11771333" lon="-4.154775">
        <ele>637.0</ele>
        <time>2018-05-19T12:07:33.852Z</time>
      </trkpt>
      <trkpt lat="43.11766833" lon="-4.15474833">
        <ele>637.0</ele>
        <time>2018-05-19T12:07:34.864Z</time>
      </trkpt>
      <trkpt lat="43.11766833" lon="-4.15474833">
        <ele>637.0</ele>
        <time>2018-05-19T12:07:35.853Z</time>
      </trkpt>
      <trkpt lat="43.11762333" lon="-4.15473">
        <ele>637.0</ele>
        <time>2018-05-19T12:07:36.866Z</time>
      </trkpt>
      <trkpt lat="43.11762333" lon="-4.15473">
        <ele>637.0</ele>
        <time>2018-05-19T12:07:37.852Z</time>
      </trkpt>
      <trkpt lat="43.11755167" lon="-4.15472333">
        <ele>637.0</ele>
        <time>2018-05-19T12:07:38.878Z</time>
      </trkpt>
      <trkpt lat="43.11751667" lon="-4.15472333">
        <ele>637.0</ele>
        <time>2018-05-19T12:07:39.865Z</time>
      </trkpt>
      <trkpt lat="43.117485" lon="-4.15472">
        <ele>637.0</ele>
        <time>2018-05-19T12:07:40.863Z</time>
      </trkpt>
      <trkpt lat="43.117485" lon="-4.15472">
        <ele>637.0</ele>
        <time>2018-05-19T12:07:41.853Z</time>
      </trkpt>
      <trkpt lat="43.11742167" lon="-4.15470333">
        <ele>638.0</ele>
        <time>2018-05-19T12:07:42.863Z</time>
      </trkpt>
      <trkpt lat="43.11742167" lon="-4.15470333">
        <ele>638.0</ele>
        <time>2018-05-19T12:07:43.852Z</time>
      </trkpt>
      <trkpt lat="43.11736667" lon="-4.15469167">
        <ele>638.0</ele>
        <time>2018-05-19T12:07:44.864Z</time>
      </trkpt>
      <trkpt lat="43.11736667" lon="-4.15469167">
        <ele>638.0</ele>
        <time>2018-05-19T12:07:45.873Z</time>
      </trkpt>
      <trkpt lat="43.11732167" lon="-4.15467667">
        <ele>638.0</ele>
        <time>2018-05-19T12:07:46.881Z</time>
      </trkpt>
      <trkpt lat="43.11729833" lon="-4.15467">
        <ele>638.0</ele>
        <time>2018-05-19T12:07:47.849Z</time>
      </trkpt>
      <trkpt lat="43.11729833" lon="-4.15467">
        <ele>638.0</ele>
        <time>2018-05-19T12:07:48.855Z</time>
      </trkpt>
      <trkpt lat="43.11725" lon="-4.15465833">
        <ele>638.0</ele>
        <time>2018-05-19T12:07:49.861Z</time>
      </trkpt>
      <trkpt lat="43.11725" lon="-4.15465833">
        <ele>638.0</ele>
        <time>2018-05-19T12:07:50.867Z</time>
      </trkpt>
      <trkpt lat="43.11719667" lon="-4.15465667">
        <ele>639.0</ele>
        <time>2018-05-19T12:07:51.864Z</time>
      </trkpt>
      <trkpt lat="43.11716333" lon="-4.15465833">
        <ele>639.0</ele>
        <time>2018-05-19T12:07:52.863Z</time>
      </trkpt>
      <trkpt lat="43.11716333" lon="-4.15465833">
        <ele>639.0</ele>
        <time>2018-05-19T12:07:53.853Z</time>
      </trkpt>
      <trkpt lat="43.117125" lon="-4.15469">
        <ele>639.0</ele>
        <time>2018-05-19T12:07:54.865Z</time>
      </trkpt>
      <trkpt lat="43.117125" lon="-4.15469">
        <ele>639.0</ele>
        <time>2018-05-19T12:07:55.853Z</time>
      </trkpt>
      <trkpt lat="43.11711167" lon="-4.15474333">
        <ele>640.0</ele>
        <time>2018-05-19T12:07:56.864Z</time>
      </trkpt>
      <trkpt lat="43.11711167" lon="-4.15474333">
        <ele>640.0</ele>
        <time>2018-05-19T12:07:57.853Z</time>
      </trkpt>
      <trkpt lat="43.117125" lon="-4.15479167">
        <ele>640.0</ele>
        <time>2018-05-19T12:07:58.876Z</time>
      </trkpt>
      <trkpt lat="43.117125" lon="-4.15479167">
        <ele>640.0</ele>
        <time>2018-05-19T12:07:59.861Z</time>
      </trkpt>
      <trkpt lat="43.11715333" lon="-4.15483333">
        <ele>641.0</ele>
        <time>2018-05-19T12:08:00.862Z</time>
      </trkpt>
      <trkpt lat="43.11715333" lon="-4.15483333">
        <ele>641.0</ele>
        <time>2018-05-19T12:08:01.864Z</time>
      </trkpt>
      <trkpt lat="43.11718333" lon="-4.15486833">
        <ele>642.0</ele>
        <time>2018-05-19T12:08:02.865Z</time>
      </trkpt>
      <trkpt lat="43.11718333" lon="-4.15486833">
        <ele>642.0</ele>
        <time>2018-05-19T12:08:03.853Z</time>
      </trkpt>
      <trkpt lat="43.11720333" lon="-4.15491">
        <ele>642.0</ele>
        <time>2018-05-19T12:08:04.864Z</time>
      </trkpt>
      <trkpt lat="43.11720333" lon="-4.15491">
        <ele>642.0</ele>
        <time>2018-05-19T12:08:05.852Z</time>
      </trkpt>
      <trkpt lat="43.11722167" lon="-4.15495167">
        <ele>643.0</ele>
        <time>2018-05-19T12:08:06.864Z</time>
      </trkpt>
      <trkpt lat="43.11723" lon="-4.15497167">
        <ele>643.0</ele>
        <time>2018-05-19T12:08:07.864Z</time>
      </trkpt>
      <trkpt lat="43.11723" lon="-4.15497167">
        <ele>643.0</ele>
        <time>2018-05-19T12:08:08.854Z</time>
      </trkpt>
      <trkpt lat="43.11724667" lon="-4.15502">
        <ele>644.0</ele>
        <time>2018-05-19T12:08:09.862Z</time>
      </trkpt>
      <trkpt lat="43.117255" lon="-4.155045">
        <ele>644.0</ele>
        <time>2018-05-19T12:08:10.864Z</time>
      </trkpt>
      <trkpt lat="43.117255" lon="-4.155045">
        <ele>644.0</ele>
        <time>2018-05-19T12:08:11.853Z</time>
      </trkpt>
      <trkpt lat="43.11727167" lon="-4.15509167">
        <ele>645.0</ele>
        <time>2018-05-19T12:08:12.863Z</time>
      </trkpt>
      <trkpt lat="43.11727167" lon="-4.15509167">
        <ele>645.0</ele>
        <time>2018-05-19T12:08:13.852Z</time>
      </trkpt>
      <trkpt lat="43.11728667" lon="-4.15514667">
        <ele>645.0</ele>
        <time>2018-05-19T12:08:14.863Z</time>
      </trkpt>
      <trkpt lat="43.11728667" lon="-4.15514667">
        <ele>645.0</ele>
        <time>2018-05-19T12:08:15.852Z</time>
      </trkpt>
      <trkpt lat="43.11730833" lon="-4.15519">
        <ele>646.0</ele>
        <time>2018-05-19T12:08:16.863Z</time>
      </trkpt>
      <trkpt lat="43.11730833" lon="-4.15519">
        <ele>646.0</ele>
        <time>2018-05-19T12:08:17.852Z</time>
      </trkpt>
      <trkpt lat="43.11733" lon="-4.15522833">
        <ele>647.0</ele>
        <time>2018-05-19T12:08:18.861Z</time>
      </trkpt>
      <trkpt lat="43.11733" lon="-4.15522833">
        <ele>647.0</ele>
        <time>2018-05-19T12:08:19.852Z</time>
      </trkpt>
      <trkpt lat="43.11734833" lon="-4.15527">
        <ele>648.0</ele>
        <time>2018-05-19T12:08:20.847Z</time>
      </trkpt>
      <trkpt lat="43.11734833" lon="-4.15527">
        <ele>648.0</ele>
        <time>2018-05-19T12:08:21.872Z</time>
      </trkpt>
      <trkpt lat="43.11737333" lon="-4.15531">
        <ele>649.0</ele>
        <time>2018-05-19T12:08:22.864Z</time>
      </trkpt>
      <trkpt lat="43.11737333" lon="-4.15531">
        <ele>649.0</ele>
        <time>2018-05-19T12:08:23.853Z</time>
      </trkpt>
      <trkpt lat="43.117405" lon="-4.15534333">
        <ele>650.0</ele>
        <time>2018-05-19T12:08:24.863Z</time>
      </trkpt>
      <trkpt lat="43.11742333" lon="-4.15535667">
        <ele>650.0</ele>
        <time>2018-05-19T12:08:25.851Z</time>
      </trkpt>
      <trkpt lat="43.11742333" lon="-4.15535667">
        <ele>650.0</ele>
        <time>2018-05-19T12:08:26.854Z</time>
      </trkpt>
      <trkpt lat="43.11745" lon="-4.15539167">
        <ele>651.0</ele>
        <time>2018-05-19T12:08:27.861Z</time>
      </trkpt>
      <trkpt lat="43.11746167" lon="-4.155405">
        <ele>652.0</ele>
        <time>2018-05-19T12:08:28.864Z</time>
      </trkpt>
      <trkpt lat="43.11746167" lon="-4.155405">
        <ele>652.0</ele>
        <time>2018-05-19T12:08:29.853Z</time>
      </trkpt>
      <trkpt lat="43.117485" lon="-4.15542">
        <ele>653.0</ele>
        <time>2018-05-19T12:08:30.863Z</time>
      </trkpt>
      <trkpt lat="43.11750167" lon="-4.15543333">
        <ele>653.0</ele>
        <time>2018-05-19T12:08:31.864Z</time>
      </trkpt>
      <trkpt lat="43.11750167" lon="-4.15543333">
        <ele>653.0</ele>
        <time>2018-05-19T12:08:32.854Z</time>
      </trkpt>
      <trkpt lat="43.117535" lon="-4.15545333">
        <ele>654.0</ele>
        <time>2018-05-19T12:08:33.864Z</time>
      </trkpt>
      <trkpt lat="43.11754333" lon="-4.15546333">
        <ele>655.0</ele>
        <time>2018-05-19T12:08:34.864Z</time>
      </trkpt>
      <trkpt lat="43.11754333" lon="-4.15546333">
        <ele>655.0</ele>
        <time>2018-05-19T12:08:35.859Z</time>
      </trkpt>
      <trkpt lat="43.11756667" lon="-4.15549">
        <ele>655.0</ele>
        <time>2018-05-19T12:08:36.863Z</time>
      </trkpt>
      <trkpt lat="43.11756667" lon="-4.15549">
        <ele>655.0</ele>
        <time>2018-05-19T12:08:37.853Z</time>
      </trkpt>
      <trkpt lat="43.11762167" lon="-4.15551667">
        <ele>656.0</ele>
        <time>2018-05-19T12:08:38.863Z</time>
      </trkpt>
      <trkpt lat="43.11762167" lon="-4.15551667">
        <ele>656.0</ele>
        <time>2018-05-19T12:08:39.853Z</time>
      </trkpt>
      <trkpt lat="43.11765333" lon="-4.15553333">
        <ele>658.0</ele>
        <time>2018-05-19T12:08:40.870Z</time>
      </trkpt>
      <trkpt lat="43.11765333" lon="-4.15553333">
        <ele>658.0</ele>
        <time>2018-05-19T12:08:41.856Z</time>
      </trkpt>
      <trkpt lat="43.11768833" lon="-4.15556833">
        <ele>659.0</ele>
        <time>2018-05-19T12:08:42.863Z</time>
      </trkpt>
      <trkpt lat="43.11768833" lon="-4.15556833">
        <ele>659.0</ele>
        <time>2018-05-19T12:08:43.852Z</time>
      </trkpt>
      <trkpt lat="43.11773333" lon="-4.155605">
        <ele>660.0</ele>
        <time>2018-05-19T12:08:44.875Z</time>
      </trkpt>
      <trkpt lat="43.11773333" lon="-4.155605">
        <ele>660.0</ele>
        <time>2018-05-19T12:08:45.873Z</time>
      </trkpt>
      <trkpt lat="43.11776667" lon="-4.15565167">
        <ele>661.0</ele>
        <time>2018-05-19T12:08:46.866Z</time>
      </trkpt>
      <trkpt lat="43.11777167" lon="-4.15568167">
        <ele>661.0</ele>
        <time>2018-05-19T12:08:47.872Z</time>
      </trkpt>
      <trkpt lat="43.11778333" lon="-4.15570667">
        <ele>662.0</ele>
        <time>2018-05-19T12:08:48.865Z</time>
      </trkpt>
      <trkpt lat="43.11778333" lon="-4.15570667">
        <ele>662.0</ele>
        <time>2018-05-19T12:08:49.852Z</time>
      </trkpt>
      <trkpt lat="43.11781667" lon="-4.15574667">
        <ele>663.0</ele>
        <time>2018-05-19T12:08:50.861Z</time>
      </trkpt>
      <trkpt lat="43.11781667" lon="-4.15574667">
        <ele>663.0</ele>
        <time>2018-05-19T12:08:51.853Z</time>
      </trkpt>
      <trkpt lat="43.11781833" lon="-4.15580333">
        <ele>664.0</ele>
        <time>2018-05-19T12:08:52.865Z</time>
      </trkpt>
      <trkpt lat="43.11781833" lon="-4.15580333">
        <ele>664.0</ele>
        <time>2018-05-19T12:08:53.854Z</time>
      </trkpt>
      <trkpt lat="43.11782333" lon="-4.15586333">
        <ele>665.0</ele>
        <time>2018-05-19T12:08:54.863Z</time>
      </trkpt>
      <trkpt lat="43.11782333" lon="-4.15586333">
        <ele>665.0</ele>
        <time>2018-05-19T12:08:55.858Z</time>
      </trkpt>
      <trkpt lat="43.11779833" lon="-4.15593167">
        <ele>666.0</ele>
        <time>2018-05-19T12:08:56.874Z</time>
      </trkpt>
      <trkpt lat="43.11779833" lon="-4.15593167">
        <ele>666.0</ele>
        <time>2018-05-19T12:08:57.860Z</time>
      </trkpt>
      <trkpt lat="43.11779167" lon="-4.15598667">
        <ele>667.0</ele>
        <time>2018-05-19T12:08:58.871Z</time>
      </trkpt>
      <trkpt lat="43.11779167" lon="-4.15598667">
        <ele>667.0</ele>
        <time>2018-05-19T12:08:59.854Z</time>
      </trkpt>
      <trkpt lat="43.11778833" lon="-4.15603">
        <ele>668.0</ele>
        <time>2018-05-19T12:09:00.863Z</time>
      </trkpt>
      <trkpt lat="43.11778833" lon="-4.15603">
        <ele>668.0</ele>
        <time>2018-05-19T12:09:01.853Z</time>
      </trkpt>
      <trkpt lat="43.11778833" lon="-4.15608167">
        <ele>669.0</ele>
        <time>2018-05-19T12:09:02.863Z</time>
      </trkpt>
      <trkpt lat="43.11778833" lon="-4.15608167">
        <ele>669.0</ele>
        <time>2018-05-19T12:09:03.865Z</time>
      </trkpt>
      <trkpt lat="43.1178" lon="-4.15612167">
        <ele>670.0</ele>
        <time>2018-05-19T12:09:04.862Z</time>
      </trkpt>
      <trkpt lat="43.1178" lon="-4.15612167">
        <ele>670.0</ele>
        <time>2018-05-19T12:09:05.853Z</time>
      </trkpt>
      <trkpt lat="43.117775" lon="-4.15617">
        <ele>672.0</ele>
        <time>2018-05-19T12:09:06.863Z</time>
      </trkpt>
      <trkpt lat="43.117775" lon="-4.15617">
        <ele>672.0</ele>
        <time>2018-05-19T12:09:07.851Z</time>
      </trkpt>
      <trkpt lat="43.11773833" lon="-4.15620333">
        <ele>673.0</ele>
        <time>2018-05-19T12:09:08.863Z</time>
      </trkpt>
      <trkpt lat="43.11773833" lon="-4.15620333">
        <ele>673.0</ele>
        <time>2018-05-19T12:09:09.861Z</time>
      </trkpt>
      <trkpt lat="43.117705" lon="-4.15621833">
        <ele>674.0</ele>
        <time>2018-05-19T12:09:10.863Z</time>
      </trkpt>
      <trkpt lat="43.117705" lon="-4.15621833">
        <ele>674.0</ele>
        <time>2018-05-19T12:09:11.858Z</time>
      </trkpt>
      <trkpt lat="43.11765667" lon="-4.15623167">
        <ele>675.0</ele>
        <time>2018-05-19T12:09:12.862Z</time>
      </trkpt>
      <trkpt lat="43.117635" lon="-4.15622333">
        <ele>675.0</ele>
        <time>2018-05-19T12:09:13.867Z</time>
      </trkpt>
      <trkpt lat="43.117635" lon="-4.15622333">
        <ele>675.0</ele>
        <time>2018-05-19T12:09:14.854Z</time>
      </trkpt>
      <trkpt lat="43.11760167" lon="-4.15619833">
        <ele>676.0</ele>
        <time>2018-05-19T12:09:15.863Z</time>
      </trkpt>
      <trkpt lat="43.11758667" lon="-4.15618667">
        <ele>676.0</ele>
        <time>2018-05-19T12:09:16.862Z</time>
      </trkpt>
      <trkpt lat="43.11758667" lon="-4.15618667">
        <ele>676.0</ele>
        <time>2018-05-19T12:09:17.852Z</time>
      </trkpt>
      <trkpt lat="43.11756667" lon="-4.15616333">
        <ele>677.0</ele>
        <time>2018-05-19T12:09:18.850Z</time>
      </trkpt>
      <trkpt lat="43.11756667" lon="-4.15616333">
        <ele>677.0</ele>
        <time>2018-05-19T12:09:19.854Z</time>
      </trkpt>
      <trkpt lat="43.11754167" lon="-4.15612833">
        <ele>678.0</ele>
        <time>2018-05-19T12:09:20.879Z</time>
      </trkpt>
      <trkpt lat="43.11754167" lon="-4.15612833">
        <ele>678.0</ele>
        <time>2018-05-19T12:09:21.861Z</time>
      </trkpt>
      <trkpt lat="43.11751333" lon="-4.15609167">
        <ele>679.0</ele>
        <time>2018-05-19T12:09:22.863Z</time>
      </trkpt>
      <trkpt lat="43.11751333" lon="-4.15609167">
        <ele>679.0</ele>
        <time>2018-05-19T12:09:23.871Z</time>
      </trkpt>
      <trkpt lat="43.11747333" lon="-4.156055">
        <ele>680.0</ele>
        <time>2018-05-19T12:09:24.863Z</time>
      </trkpt>
      <trkpt lat="43.11747333" lon="-4.156055">
        <ele>680.0</ele>
        <time>2018-05-19T12:09:25.853Z</time>
      </trkpt>
      <trkpt lat="43.11744" lon="-4.15602">
        <ele>681.0</ele>
        <time>2018-05-19T12:09:26.863Z</time>
      </trkpt>
      <trkpt lat="43.11744" lon="-4.15602">
        <ele>681.0</ele>
        <time>2018-05-19T12:09:27.852Z</time>
      </trkpt>
      <trkpt lat="43.117405" lon="-4.15598667">
        <ele>682.0</ele>
        <time>2018-05-19T12:09:28.863Z</time>
      </trkpt>
      <trkpt lat="43.117405" lon="-4.15598667">
        <ele>682.0</ele>
        <time>2018-05-19T12:09:29.855Z</time>
      </trkpt>
      <trkpt lat="43.11738167" lon="-4.15595">
        <ele>683.0</ele>
        <time>2018-05-19T12:09:30.864Z</time>
      </trkpt>
      <trkpt lat="43.11738167" lon="-4.15595">
        <ele>683.0</ele>
        <time>2018-05-19T12:09:31.851Z</time>
      </trkpt>
      <trkpt lat="43.117345" lon="-4.15592667">
        <ele>684.0</ele>
        <time>2018-05-19T12:09:32.863Z</time>
      </trkpt>
      <trkpt lat="43.117345" lon="-4.15592667">
        <ele>684.0</ele>
        <time>2018-05-19T12:09:33.863Z</time>
      </trkpt>
      <trkpt lat="43.117325" lon="-4.15589833">
        <ele>684.0</ele>
        <time>2018-05-19T12:09:34.863Z</time>
      </trkpt>
      <trkpt lat="43.117325" lon="-4.15589833">
        <ele>684.0</ele>
        <time>2018-05-19T12:09:35.854Z</time>
      </trkpt>
      <trkpt lat="43.11729667" lon="-4.15587">
        <ele>685.0</ele>
        <time>2018-05-19T12:09:36.863Z</time>
      </trkpt>
      <trkpt lat="43.11729667" lon="-4.15587">
        <ele>685.0</ele>
        <time>2018-05-19T12:09:37.852Z</time>
      </trkpt>
      <trkpt lat="43.11726333" lon="-4.155835">
        <ele>686.0</ele>
        <time>2018-05-19T12:09:38.860Z</time>
      </trkpt>
      <trkpt lat="43.11726333" lon="-4.155835">
        <ele>686.0</ele>
        <time>2018-05-19T12:09:39.848Z</time>
      </trkpt>
      <trkpt lat="43.11723667" lon="-4.15580167">
        <ele>687.0</ele>
        <time>2018-05-19T12:09:40.874Z</time>
      </trkpt>
      <trkpt lat="43.11723667" lon="-4.15580167">
        <ele>687.0</ele>
        <time>2018-05-19T12:09:41.859Z</time>
      </trkpt>
      <trkpt lat="43.117215" lon="-4.15577">
        <ele>688.0</ele>
        <time>2018-05-19T12:09:42.863Z</time>
      </trkpt>
      <trkpt lat="43.117215" lon="-4.15577">
        <ele>688.0</ele>
        <time>2018-05-19T12:09:43.854Z</time>
      </trkpt>
      <trkpt lat="43.11719" lon="-4.155745">
        <ele>688.0</ele>
        <time>2018-05-19T12:09:44.862Z</time>
      </trkpt>
      <trkpt lat="43.11719" lon="-4.155745">
        <ele>688.0</ele>
        <time>2018-05-19T12:09:45.874Z</time>
      </trkpt>
      <trkpt lat="43.11718" lon="-4.15572">
        <ele>689.0</ele>
        <time>2018-05-19T12:09:46.861Z</time>
      </trkpt>
      <trkpt lat="43.11717" lon="-4.1557">
        <ele>689.0</ele>
        <time>2018-05-19T12:09:47.867Z</time>
      </trkpt>
      <trkpt lat="43.11717" lon="-4.1557">
        <ele>689.0</ele>
        <time>2018-05-19T12:09:48.873Z</time>
      </trkpt>
      <trkpt lat="43.11713167" lon="-4.15566833">
        <ele>690.0</ele>
        <time>2018-05-19T12:09:49.882Z</time>
      </trkpt>
      <trkpt lat="43.11713167" lon="-4.15566833">
        <ele>690.0</ele>
        <time>2018-05-19T12:09:50.866Z</time>
      </trkpt>
      <trkpt lat="43.11709167" lon="-4.15563167">
        <ele>691.0</ele>
        <time>2018-05-19T12:09:51.863Z</time>
      </trkpt>
      <trkpt lat="43.11708" lon="-4.15561167">
        <ele>691.0</ele>
        <time>2018-05-19T12:09:52.863Z</time>
      </trkpt>
      <trkpt lat="43.11708" lon="-4.15561167">
        <ele>691.0</ele>
        <time>2018-05-19T12:09:53.854Z</time>
      </trkpt>
      <trkpt lat="43.11703833" lon="-4.15558667">
        <ele>692.0</ele>
        <time>2018-05-19T12:09:54.863Z</time>
      </trkpt>
      <trkpt lat="43.11703833" lon="-4.15558667">
        <ele>692.0</ele>
        <time>2018-05-19T12:09:55.852Z</time>
      </trkpt>
      <trkpt lat="43.11702333" lon="-4.15555333">
        <ele>693.0</ele>
        <time>2018-05-19T12:09:56.861Z</time>
      </trkpt>
      <trkpt lat="43.11702333" lon="-4.15555333">
        <ele>693.0</ele>
        <time>2018-05-19T12:09:57.852Z</time>
      </trkpt>
      <trkpt lat="43.11700667" lon="-4.155515">
        <ele>693.0</ele>
        <time>2018-05-19T12:09:58.863Z</time>
      </trkpt>
      <trkpt lat="43.11700667" lon="-4.155515">
        <ele>693.0</ele>
        <time>2018-05-19T12:09:59.857Z</time>
      </trkpt>
      <trkpt lat="43.11698833" lon="-4.15547667">
        <ele>694.0</ele>
        <time>2018-05-19T12:10:00.864Z</time>
      </trkpt>
      <trkpt lat="43.11697667" lon="-4.15546">
        <ele>694.0</ele>
        <time>2018-05-19T12:10:01.865Z</time>
      </trkpt>
      <trkpt lat="43.11697667" lon="-4.15546">
        <ele>694.0</ele>
        <time>2018-05-19T12:10:02.853Z</time>
      </trkpt>
      <trkpt lat="43.11697333" lon="-4.15543333">
        <ele>695.0</ele>
        <time>2018-05-19T12:10:03.864Z</time>
      </trkpt>
      <trkpt lat="43.11696167" lon="-4.15542">
        <ele>695.0</ele>
        <time>2018-05-19T12:10:04.863Z</time>
      </trkpt>
      <trkpt lat="43.11696167" lon="-4.15542">
        <ele>695.0</ele>
        <time>2018-05-19T12:10:05.852Z</time>
      </trkpt>
      <trkpt lat="43.11692833" lon="-4.15540167">
        <ele>696.0</ele>
        <time>2018-05-19T12:10:06.850Z</time>
      </trkpt>
      <trkpt lat="43.11692167" lon="-4.155395">
        <ele>697.0</ele>
        <time>2018-05-19T12:10:07.863Z</time>
      </trkpt>
      <trkpt lat="43.11690667" lon="-4.155385">
        <ele>697.0</ele>
        <time>2018-05-19T12:10:08.865Z</time>
      </trkpt>
      <trkpt lat="43.11690667" lon="-4.155385">
        <ele>697.0</ele>
        <time>2018-05-19T12:10:09.854Z</time>
      </trkpt>
      <trkpt lat="43.11689167" lon="-4.15535833">
        <ele>698.0</ele>
        <time>2018-05-19T12:10:10.863Z</time>
      </trkpt>
      <trkpt lat="43.11689167" lon="-4.15535833">
        <ele>698.0</ele>
        <time>2018-05-19T12:10:11.874Z</time>
      </trkpt>
      <trkpt lat="43.11689167" lon="-4.15534">
        <ele>698.0</ele>
        <time>2018-05-19T12:10:12.863Z</time>
      </trkpt>
      <trkpt lat="43.11689167" lon="-4.15534">
        <ele>698.0</ele>
        <time>2018-05-19T12:10:13.862Z</time>
      </trkpt>
      <trkpt lat="43.116875" lon="-4.155315">
        <ele>699.0</ele>
        <time>2018-05-19T12:10:14.861Z</time>
      </trkpt>
      <trkpt lat="43.116875" lon="-4.155315">
        <ele>699.0</ele>
        <time>2018-05-19T12:10:15.854Z</time>
      </trkpt>
      <trkpt lat="43.11687" lon="-4.15528">
        <ele>700.0</ele>
        <time>2018-05-19T12:10:16.863Z</time>
      </trkpt>
      <trkpt lat="43.11687" lon="-4.15528">
        <ele>700.0</ele>
        <time>2018-05-19T12:10:17.852Z</time>
      </trkpt>
      <trkpt lat="43.116845" lon="-4.15524167">
        <ele>700.0</ele>
        <time>2018-05-19T12:10:18.854Z</time>
      </trkpt>
      <trkpt lat="43.116845" lon="-4.15524167">
        <ele>700.0</ele>
        <time>2018-05-19T12:10:19.858Z</time>
      </trkpt>
      <trkpt lat="43.11680333" lon="-4.15521">
        <ele>701.0</ele>
        <time>2018-05-19T12:10:20.878Z</time>
      </trkpt>
      <trkpt lat="43.11678167" lon="-4.15519833">
        <ele>701.0</ele>
        <time>2018-05-19T12:10:21.851Z</time>
      </trkpt>
      <trkpt lat="43.11678167" lon="-4.15519833">
        <ele>701.0</ele>
        <time>2018-05-19T12:10:22.860Z</time>
      </trkpt>
      <trkpt lat="43.11674167" lon="-4.15517667">
        <ele>702.0</ele>
        <time>2018-05-19T12:10:23.865Z</time>
      </trkpt>
      <trkpt lat="43.11674167" lon="-4.15517667">
        <ele>702.0</ele>
        <time>2018-05-19T12:10:24.852Z</time>
      </trkpt>
      <trkpt lat="43.11669833" lon="-4.155145">
        <ele>702.0</ele>
        <time>2018-05-19T12:10:25.865Z</time>
      </trkpt>
      <trkpt lat="43.11669833" lon="-4.155145">
        <ele>702.0</ele>
        <time>2018-05-19T12:10:26.858Z</time>
      </trkpt>
      <trkpt lat="43.116665" lon="-4.15511833">
        <ele>703.0</ele>
        <time>2018-05-19T12:10:27.854Z</time>
      </trkpt>
      <trkpt lat="43.116655" lon="-4.15510667">
        <ele>703.0</ele>
        <time>2018-05-19T12:10:28.863Z</time>
      </trkpt>
      <trkpt lat="43.116655" lon="-4.15510667">
        <ele>703.0</ele>
        <time>2018-05-19T12:10:29.863Z</time>
      </trkpt>
      <trkpt lat="43.11664" lon="-4.15508167">
        <ele>704.0</ele>
        <time>2018-05-19T12:10:30.863Z</time>
      </trkpt>
      <trkpt lat="43.11664" lon="-4.15508167">
        <ele>704.0</ele>
        <time>2018-05-19T12:10:31.853Z</time>
      </trkpt>
      <trkpt lat="43.116595" lon="-4.155045">
        <ele>705.0</ele>
        <time>2018-05-19T12:10:32.863Z</time>
      </trkpt>
      <trkpt lat="43.116595" lon="-4.155045">
        <ele>705.0</ele>
        <time>2018-05-19T12:10:33.861Z</time>
      </trkpt>
      <trkpt lat="43.11654333" lon="-4.15502333">
        <ele>705.0</ele>
        <time>2018-05-19T12:10:34.862Z</time>
      </trkpt>
      <trkpt lat="43.11654333" lon="-4.15502333">
        <ele>705.0</ele>
        <time>2018-05-19T12:10:35.852Z</time>
      </trkpt>
      <trkpt lat="43.11652167" lon="-4.15499">
        <ele>706.0</ele>
        <time>2018-05-19T12:10:36.854Z</time>
      </trkpt>
      <trkpt lat="43.116505" lon="-4.15497333">
        <ele>706.0</ele>
        <time>2018-05-19T12:10:37.863Z</time>
      </trkpt>
      <trkpt lat="43.116505" lon="-4.15497333">
        <ele>706.0</ele>
        <time>2018-05-19T12:10:38.852Z</time>
      </trkpt>
      <trkpt lat="43.11646" lon="-4.15494833">
        <ele>707.0</ele>
        <time>2018-05-19T12:10:39.875Z</time>
      </trkpt>
      <trkpt lat="43.11643333" lon="-4.15493833">
        <ele>707.0</ele>
        <time>2018-05-19T12:10:40.863Z</time>
      </trkpt>
      <trkpt lat="43.11643333" lon="-4.15493833">
        <ele>707.0</ele>
        <time>2018-05-19T12:10:41.852Z</time>
      </trkpt>
      <trkpt lat="43.11637667" lon="-4.15492167">
        <ele>708.0</ele>
        <time>2018-05-19T12:10:42.863Z</time>
      </trkpt>
      <trkpt lat="43.116345" lon="-4.15490833">
        <ele>708.0</ele>
        <time>2018-05-19T12:10:43.870Z</time>
      </trkpt>
      <trkpt lat="43.116345" lon="-4.15490833">
        <ele>708.0</ele>
        <time>2018-05-19T12:10:44.859Z</time>
      </trkpt>
      <trkpt lat="43.11631833" lon="-4.15487333">
        <ele>709.0</ele>
        <time>2018-05-19T12:10:45.875Z</time>
      </trkpt>
      <trkpt lat="43.11631833" lon="-4.15487333">
        <ele>709.0</ele>
        <time>2018-05-19T12:10:46.877Z</time>
      </trkpt>
      <trkpt lat="43.11632833" lon="-4.15483167">
        <ele>710.0</ele>
        <time>2018-05-19T12:10:47.883Z</time>
      </trkpt>
      <trkpt lat="43.11632833" lon="-4.15483167">
        <ele>710.0</ele>
        <time>2018-05-19T12:10:48.866Z</time>
      </trkpt>
      <trkpt lat="43.11633" lon="-4.15479">
        <ele>710.0</ele>
        <time>2018-05-19T12:10:49.854Z</time>
      </trkpt>
      <trkpt lat="43.11633" lon="-4.15479">
        <ele>710.0</ele>
        <time>2018-05-19T12:10:50.874Z</time>
      </trkpt>
      <trkpt lat="43.11629333" lon="-4.15474167">
        <ele>711.0</ele>
        <time>2018-05-19T12:10:51.864Z</time>
      </trkpt>
      <trkpt lat="43.11627167" lon="-4.15472167">
        <ele>711.0</ele>
        <time>2018-05-19T12:10:52.862Z</time>
      </trkpt>
      <trkpt lat="43.11627167" lon="-4.15472167">
        <ele>711.0</ele>
        <time>2018-05-19T12:10:53.852Z</time>
      </trkpt>
      <trkpt lat="43.116235" lon="-4.15468333">
        <ele>712.0</ele>
        <time>2018-05-19T12:10:54.863Z</time>
      </trkpt>
      <trkpt lat="43.116235" lon="-4.15468333">
        <ele>712.0</ele>
        <time>2018-05-19T12:10:55.851Z</time>
      </trkpt>
      <trkpt lat="43.11622" lon="-4.15465167">
        <ele>712.0</ele>
        <time>2018-05-19T12:10:56.863Z</time>
      </trkpt>
      <trkpt lat="43.11622" lon="-4.15465167">
        <ele>712.0</ele>
        <time>2018-05-19T12:10:57.852Z</time>
      </trkpt>
      <trkpt lat="43.116215" lon="-4.15460667">
        <ele>713.0</ele>
        <time>2018-05-19T12:10:58.863Z</time>
      </trkpt>
      <trkpt lat="43.11623167" lon="-4.15459167">
        <ele>713.0</ele>
        <time>2018-05-19T12:10:59.865Z</time>
      </trkpt>
      <trkpt lat="43.11623167" lon="-4.15459167">
        <ele>713.0</ele>
        <time>2018-05-19T12:11:00.877Z</time>
      </trkpt>
      <trkpt lat="43.11621833" lon="-4.154555">
        <ele>713.0</ele>
        <time>2018-05-19T12:11:01.866Z</time>
      </trkpt>
      <trkpt lat="43.11620833" lon="-4.154535">
        <ele>713.0</ele>
        <time>2018-05-19T12:11:02.864Z</time>
      </trkpt>
      <trkpt lat="43.11620833" lon="-4.154535">
        <ele>713.0</ele>
        <time>2018-05-19T12:11:03.851Z</time>
      </trkpt>
      <trkpt lat="43.11619833" lon="-4.15449333">
        <ele>713.0</ele>
        <time>2018-05-19T12:11:04.862Z</time>
      </trkpt>
      <trkpt lat="43.11619833" lon="-4.15449333">
        <ele>713.0</ele>
        <time>2018-05-19T12:11:05.860Z</time>
      </trkpt>
      <trkpt lat="43.11617833" lon="-4.15445167">
        <ele>714.0</ele>
        <time>2018-05-19T12:11:06.854Z</time>
      </trkpt>
      <trkpt lat="43.11617833" lon="-4.15445167">
        <ele>714.0</ele>
        <time>2018-05-19T12:11:07.852Z</time>
      </trkpt>
      <trkpt lat="43.11615667" lon="-4.154415">
        <ele>714.0</ele>
        <time>2018-05-19T12:11:08.862Z</time>
      </trkpt>
      <trkpt lat="43.11615667" lon="-4.154415">
        <ele>714.0</ele>
        <time>2018-05-19T12:11:09.851Z</time>
      </trkpt>
      <trkpt lat="43.11613167" lon="-4.15439333">
        <ele>715.0</ele>
        <time>2018-05-19T12:11:10.879Z</time>
      </trkpt>
      <trkpt lat="43.11613167" lon="-4.15439333">
        <ele>715.0</ele>
        <time>2018-05-19T12:11:11.864Z</time>
      </trkpt>
      <trkpt lat="43.11611667" lon="-4.15437167">
        <ele>715.0</ele>
        <time>2018-05-19T12:11:12.862Z</time>
      </trkpt>
      <trkpt lat="43.11610333" lon="-4.154355">
        <ele>715.0</ele>
        <time>2018-05-19T12:11:13.873Z</time>
      </trkpt>
      <trkpt lat="43.11609333" lon="-4.15433667">
        <ele>716.0</ele>
        <time>2018-05-19T12:11:14.861Z</time>
      </trkpt>
      <trkpt lat="43.11609333" lon="-4.15433667">
        <ele>716.0</ele>
        <time>2018-05-19T12:11:15.852Z</time>
      </trkpt>
      <trkpt lat="43.11603833" lon="-4.15427333">
        <ele>716.0</ele>
        <time>2018-05-19T12:11:16.862Z</time>
      </trkpt>
      <trkpt lat="43.11603833" lon="-4.15427333">
        <ele>716.0</ele>
        <time>2018-05-19T12:11:17.852Z</time>
      </trkpt>
      <trkpt lat="43.11599" lon="-4.154225">
        <ele>716.0</ele>
        <time>2018-05-19T12:11:18.881Z</time>
      </trkpt>
      <trkpt lat="43.11599" lon="-4.154225">
        <ele>716.0</ele>
        <time>2018-05-19T12:11:19.866Z</time>
      </trkpt>
      <trkpt lat="43.115965" lon="-4.15418167">
        <ele>716.0</ele>
        <time>2018-05-19T12:11:20.867Z</time>
      </trkpt>
      <trkpt lat="43.115965" lon="-4.15418167">
        <ele>716.0</ele>
        <time>2018-05-19T12:11:21.853Z</time>
      </trkpt>
      <trkpt lat="43.11593667" lon="-4.15415833">
        <ele>716.0</ele>
        <time>2018-05-19T12:11:22.863Z</time>
      </trkpt>
      <trkpt lat="43.11593667" lon="-4.15415833">
        <ele>716.0</ele>
        <time>2018-05-19T12:11:23.863Z</time>
      </trkpt>
      <trkpt lat="43.11589167" lon="-4.15413">
        <ele>717.0</ele>
        <time>2018-05-19T12:11:24.863Z</time>
      </trkpt>
      <trkpt lat="43.11589167" lon="-4.15413">
        <ele>717.0</ele>
        <time>2018-05-19T12:11:25.852Z</time>
      </trkpt>
      <trkpt lat="43.11586167" lon="-4.1541">
        <ele>717.0</ele>
        <time>2018-05-19T12:11:26.865Z</time>
      </trkpt>
      <trkpt lat="43.11586167" lon="-4.1541">
        <ele>717.0</ele>
        <time>2018-05-19T12:11:27.852Z</time>
      </trkpt>
      <trkpt lat="43.11585" lon="-4.15407167">
        <ele>718.0</ele>
        <time>2018-05-19T12:11:28.862Z</time>
      </trkpt>
      <trkpt lat="43.11585" lon="-4.15407167">
        <ele>718.0</ele>
        <time>2018-05-19T12:11:29.853Z</time>
      </trkpt>
      <trkpt lat="43.11583167" lon="-4.15404167">
        <ele>718.0</ele>
        <time>2018-05-19T12:11:30.877Z</time>
      </trkpt>
      <trkpt lat="43.11582167" lon="-4.15402667">
        <ele>719.0</ele>
        <time>2018-05-19T12:11:31.862Z</time>
      </trkpt>
      <trkpt lat="43.11582167" lon="-4.15402667">
        <ele>719.0</ele>
        <time>2018-05-19T12:11:32.852Z</time>
      </trkpt>
      <trkpt lat="43.11579333" lon="-4.15399833">
        <ele>719.0</ele>
        <time>2018-05-19T12:11:33.863Z</time>
      </trkpt>
      <trkpt lat="43.115765" lon="-4.15397667">
        <ele>719.0</ele>
        <time>2018-05-19T12:11:34.862Z</time>
      </trkpt>
      <trkpt lat="43.115765" lon="-4.15397667">
        <ele>719.0</ele>
        <time>2018-05-19T12:11:35.867Z</time>
      </trkpt>
      <trkpt lat="43.11575333" lon="-4.15395">
        <ele>720.0</ele>
        <time>2018-05-19T12:11:36.860Z</time>
      </trkpt>
      <trkpt lat="43.11575333" lon="-4.15395">
        <ele>720.0</ele>
        <time>2018-05-19T12:11:37.852Z</time>
      </trkpt>
      <trkpt lat="43.11571333" lon="-4.153915">
        <ele>720.0</ele>
        <time>2018-05-19T12:11:38.854Z</time>
      </trkpt>
      <trkpt lat="43.11571333" lon="-4.153915">
        <ele>720.0</ele>
        <time>2018-05-19T12:11:39.853Z</time>
      </trkpt>
      <trkpt lat="43.11569667" lon="-4.15388167">
        <ele>721.0</ele>
        <time>2018-05-19T12:11:40.877Z</time>
      </trkpt>
      <trkpt lat="43.11569667" lon="-4.15388167">
        <ele>721.0</ele>
        <time>2018-05-19T12:11:41.861Z</time>
      </trkpt>
      <trkpt lat="43.11565833" lon="-4.15384833">
        <ele>721.0</ele>
        <time>2018-05-19T12:11:42.854Z</time>
      </trkpt>
      <trkpt lat="43.11565833" lon="-4.15384833">
        <ele>721.0</ele>
        <time>2018-05-19T12:11:43.853Z</time>
      </trkpt>
      <trkpt lat="43.11563667" lon="-4.15382667">
        <ele>722.0</ele>
        <time>2018-05-19T12:11:44.862Z</time>
      </trkpt>
      <trkpt lat="43.11563667" lon="-4.15382667">
        <ele>722.0</ele>
        <time>2018-05-19T12:11:45.873Z</time>
      </trkpt>
      <trkpt lat="43.11563" lon="-4.15379333">
        <ele>722.0</ele>
        <time>2018-05-19T12:11:46.856Z</time>
      </trkpt>
      <trkpt lat="43.11559833" lon="-4.15377">
        <ele>722.0</ele>
        <time>2018-05-19T12:11:47.862Z</time>
      </trkpt>
      <trkpt lat="43.11559833" lon="-4.15377">
        <ele>722.0</ele>
        <time>2018-05-19T12:11:48.868Z</time>
      </trkpt>
      <trkpt lat="43.11556167" lon="-4.15373667">
        <ele>723.0</ele>
        <time>2018-05-19T12:11:49.875Z</time>
      </trkpt>
      <trkpt lat="43.11554167" lon="-4.15371833">
        <ele>723.0</ele>
        <time>2018-05-19T12:11:50.882Z</time>
      </trkpt>
      <trkpt lat="43.11553" lon="-4.153705">
        <ele>723.0</ele>
        <time>2018-05-19T12:11:51.867Z</time>
      </trkpt>
      <trkpt lat="43.11552" lon="-4.15369333">
        <ele>723.0</ele>
        <time>2018-05-19T12:11:52.862Z</time>
      </trkpt>
      <trkpt lat="43.11552" lon="-4.15369333">
        <ele>723.0</ele>
        <time>2018-05-19T12:11:53.850Z</time>
      </trkpt>
      <trkpt lat="43.11550333" lon="-4.15367333">
        <ele>724.0</ele>
        <time>2018-05-19T12:11:54.874Z</time>
      </trkpt>
      <trkpt lat="43.11550333" lon="-4.15367333">
        <ele>724.0</ele>
        <time>2018-05-19T12:11:55.860Z</time>
      </trkpt>
      <trkpt lat="43.11549833" lon="-4.15365">
        <ele>724.0</ele>
        <time>2018-05-19T12:11:56.863Z</time>
      </trkpt>
      <trkpt lat="43.11548667" lon="-4.153635">
        <ele>724.0</ele>
        <time>2018-05-19T12:11:57.863Z</time>
      </trkpt>
      <trkpt lat="43.11548667" lon="-4.153635">
        <ele>724.0</ele>
        <time>2018-05-19T12:11:58.854Z</time>
      </trkpt>
      <trkpt lat="43.11544333" lon="-4.15359167">
        <ele>725.0</ele>
        <time>2018-05-19T12:11:59.861Z</time>
      </trkpt>
      <trkpt lat="43.11544333" lon="-4.15359167">
        <ele>725.0</ele>
        <time>2018-05-19T12:12:00.851Z</time>
      </trkpt>
      <trkpt lat="43.11542" lon="-4.153555">
        <ele>725.0</ele>
        <time>2018-05-19T12:12:01.862Z</time>
      </trkpt>
      <trkpt lat="43.11540667" lon="-4.15353833">
        <ele>725.0</ele>
        <time>2018-05-19T12:12:02.862Z</time>
      </trkpt>
      <trkpt lat="43.11540667" lon="-4.15353833">
        <ele>725.0</ele>
        <time>2018-05-19T12:12:03.852Z</time>
      </trkpt>
      <trkpt lat="43.11538833" lon="-4.15350667">
        <ele>726.0</ele>
        <time>2018-05-19T12:12:04.862Z</time>
      </trkpt>
      <trkpt lat="43.11538833" lon="-4.15350667">
        <ele>726.0</ele>
        <time>2018-05-19T12:12:05.852Z</time>
      </trkpt>
      <trkpt lat="43.11534333" lon="-4.153475">
        <ele>726.0</ele>
        <time>2018-05-19T12:12:06.861Z</time>
      </trkpt>
      <trkpt lat="43.11534333" lon="-4.153475">
        <ele>726.0</ele>
        <time>2018-05-19T12:12:07.853Z</time>
      </trkpt>
      <trkpt lat="43.11528167" lon="-4.15344167">
        <ele>726.0</ele>
        <time>2018-05-19T12:12:08.862Z</time>
      </trkpt>
      <trkpt lat="43.11528167" lon="-4.15344167">
        <ele>726.0</ele>
        <time>2018-05-19T12:12:09.853Z</time>
      </trkpt>
      <trkpt lat="43.11525333" lon="-4.15341">
        <ele>726.0</ele>
        <time>2018-05-19T12:12:10.860Z</time>
      </trkpt>
      <trkpt lat="43.11521667" lon="-4.15339333">
        <ele>727.0</ele>
        <time>2018-05-19T12:12:11.855Z</time>
      </trkpt>
      <trkpt lat="43.11521667" lon="-4.15339333">
        <ele>727.0</ele>
        <time>2018-05-19T12:12:12.853Z</time>
      </trkpt>
      <trkpt lat="43.11516" lon="-4.153365">
        <ele>727.0</ele>
        <time>2018-05-19T12:12:13.859Z</time>
      </trkpt>
      <trkpt lat="43.11514" lon="-4.15335167">
        <ele>727.0</ele>
        <time>2018-05-19T12:12:14.862Z</time>
      </trkpt>
      <trkpt lat="43.11514" lon="-4.15335167">
        <ele>727.0</ele>
        <time>2018-05-19T12:12:15.852Z</time>
      </trkpt>
      <trkpt lat="43.11511667" lon="-4.153325">
        <ele>727.0</ele>
        <time>2018-05-19T12:12:16.861Z</time>
      </trkpt>
      <trkpt lat="43.11511667" lon="-4.153325">
        <ele>727.0</ele>
        <time>2018-05-19T12:12:17.853Z</time>
      </trkpt>
      <trkpt lat="43.1151" lon="-4.15330333">
        <ele>727.0</ele>
        <time>2018-05-19T12:12:18.878Z</time>
      </trkpt>
      <trkpt lat="43.1151" lon="-4.15330333">
        <ele>727.0</ele>
        <time>2018-05-19T12:12:19.862Z</time>
      </trkpt>
      <trkpt lat="43.11507" lon="-4.15327667">
        <ele>727.0</ele>
        <time>2018-05-19T12:12:20.862Z</time>
      </trkpt>
      <trkpt lat="43.11507" lon="-4.15327667">
        <ele>727.0</ele>
        <time>2018-05-19T12:12:21.868Z</time>
      </trkpt>
      <trkpt lat="43.11504" lon="-4.15325167">
        <ele>727.0</ele>
        <time>2018-05-19T12:12:22.875Z</time>
      </trkpt>
      <trkpt lat="43.11501" lon="-4.15323">
        <ele>727.0</ele>
        <time>2018-05-19T12:12:23.847Z</time>
      </trkpt>
      <trkpt lat="43.11501" lon="-4.15323">
        <ele>727.0</ele>
        <time>2018-05-19T12:12:24.853Z</time>
      </trkpt>
      <trkpt lat="43.11498667" lon="-4.15320333">
        <ele>728.0</ele>
        <time>2018-05-19T12:12:25.860Z</time>
      </trkpt>
      <trkpt lat="43.11497" lon="-4.153185">
        <ele>728.0</ele>
        <time>2018-05-19T12:12:26.854Z</time>
      </trkpt>
      <trkpt lat="43.11497" lon="-4.153185">
        <ele>728.0</ele>
        <time>2018-05-19T12:12:27.853Z</time>
      </trkpt>
      <trkpt lat="43.11493" lon="-4.15314167">
        <ele>728.0</ele>
        <time>2018-05-19T12:12:28.862Z</time>
      </trkpt>
      <trkpt lat="43.11493" lon="-4.15314167">
        <ele>728.0</ele>
        <time>2018-05-19T12:12:29.851Z</time>
      </trkpt>
      <trkpt lat="43.11487" lon="-4.15308833">
        <ele>728.0</ele>
        <time>2018-05-19T12:12:30.853Z</time>
      </trkpt>
      <trkpt lat="43.11487" lon="-4.15308833">
        <ele>728.0</ele>
        <time>2018-05-19T12:12:31.853Z</time>
      </trkpt>
      <trkpt lat="43.11481833" lon="-4.15304833">
        <ele>728.0</ele>
        <time>2018-05-19T12:12:32.862Z</time>
      </trkpt>
      <trkpt lat="43.11481833" lon="-4.15304833">
        <ele>728.0</ele>
        <time>2018-05-19T12:12:33.852Z</time>
      </trkpt>
      <trkpt lat="43.114715" lon="-4.15299167">
        <ele>728.0</ele>
        <time>2018-05-19T12:12:34.862Z</time>
      </trkpt>
      <trkpt lat="43.114715" lon="-4.15299167">
        <ele>728.0</ele>
        <time>2018-05-19T12:12:35.859Z</time>
      </trkpt>
      <trkpt lat="43.11467667" lon="-4.15294833">
        <ele>728.0</ele>
        <time>2018-05-19T12:12:36.862Z</time>
      </trkpt>
      <trkpt lat="43.11467667" lon="-4.15294833">
        <ele>728.0</ele>
        <time>2018-05-19T12:12:37.853Z</time>
      </trkpt>
      <trkpt lat="43.11457667" lon="-4.15287833">
        <ele>728.0</ele>
        <time>2018-05-19T12:12:38.863Z</time>
      </trkpt>
      <trkpt lat="43.11457667" lon="-4.15287833">
        <ele>728.0</ele>
        <time>2018-05-19T12:12:39.853Z</time>
      </trkpt>
      <trkpt lat="43.114545" lon="-4.152825">
        <ele>728.0</ele>
        <time>2018-05-19T12:12:40.871Z</time>
      </trkpt>
      <trkpt lat="43.114545" lon="-4.152825">
        <ele>728.0</ele>
        <time>2018-05-19T12:12:41.853Z</time>
      </trkpt>
      <trkpt lat="43.11452333" lon="-4.15278">
        <ele>728.0</ele>
        <time>2018-05-19T12:12:42.860Z</time>
      </trkpt>
      <trkpt lat="43.11452" lon="-4.15275833">
        <ele>728.0</ele>
        <time>2018-05-19T12:12:43.853Z</time>
      </trkpt>
      <trkpt lat="43.11452" lon="-4.15275833">
        <ele>728.0</ele>
        <time>2018-05-19T12:12:44.852Z</time>
      </trkpt>
      <trkpt lat="43.11452833" lon="-4.15271667">
        <ele>728.0</ele>
        <time>2018-05-19T12:12:45.846Z</time>
      </trkpt>
      <trkpt lat="43.11452833" lon="-4.15271667">
        <ele>728.0</ele>
        <time>2018-05-19T12:12:46.862Z</time>
      </trkpt>
      <trkpt lat="43.114525" lon="-4.152675">
        <ele>727.0</ele>
        <time>2018-05-19T12:12:47.868Z</time>
      </trkpt>
      <trkpt lat="43.114525" lon="-4.152675">
        <ele>727.0</ele>
        <time>2018-05-19T12:12:48.874Z</time>
      </trkpt>
      <trkpt lat="43.114485" lon="-4.15263667">
        <ele>727.0</ele>
        <time>2018-05-19T12:12:49.866Z</time>
      </trkpt>
      <trkpt lat="43.114485" lon="-4.15263667">
        <ele>727.0</ele>
        <time>2018-05-19T12:12:50.853Z</time>
      </trkpt>
      <trkpt lat="43.11444" lon="-4.15259167">
        <ele>726.0</ele>
        <time>2018-05-19T12:12:51.863Z</time>
      </trkpt>
      <trkpt lat="43.11442667" lon="-4.15257333">
        <ele>726.0</ele>
        <time>2018-05-19T12:12:52.862Z</time>
      </trkpt>
      <trkpt lat="43.11442667" lon="-4.15257333">
        <ele>726.0</ele>
        <time>2018-05-19T12:12:53.855Z</time>
      </trkpt>
      <trkpt lat="43.11438167" lon="-4.15254">
        <ele>726.0</ele>
        <time>2018-05-19T12:12:54.860Z</time>
      </trkpt>
      <trkpt lat="43.11435667" lon="-4.15252167">
        <ele>726.0</ele>
        <time>2018-05-19T12:12:55.862Z</time>
      </trkpt>
      <trkpt lat="43.11434" lon="-4.15250167">
        <ele>726.0</ele>
        <time>2018-05-19T12:12:56.864Z</time>
      </trkpt>
      <trkpt lat="43.11434" lon="-4.15250167">
        <ele>726.0</ele>
        <time>2018-05-19T12:12:57.871Z</time>
      </trkpt>
      <trkpt lat="43.11429167" lon="-4.15246833">
        <ele>726.0</ele>
        <time>2018-05-19T12:12:58.862Z</time>
      </trkpt>
      <trkpt lat="43.11429167" lon="-4.15246833">
        <ele>726.0</ele>
        <time>2018-05-19T12:12:59.853Z</time>
      </trkpt>
      <trkpt lat="43.11425667" lon="-4.15244167">
        <ele>725.0</ele>
        <time>2018-05-19T12:13:00.862Z</time>
      </trkpt>
      <trkpt lat="43.11425667" lon="-4.15244167">
        <ele>725.0</ele>
        <time>2018-05-19T12:13:01.852Z</time>
      </trkpt>
      <trkpt lat="43.114215" lon="-4.15240833">
        <ele>725.0</ele>
        <time>2018-05-19T12:13:02.862Z</time>
      </trkpt>
      <trkpt lat="43.114215" lon="-4.15240833">
        <ele>725.0</ele>
        <time>2018-05-19T12:13:03.871Z</time>
      </trkpt>
      <trkpt lat="43.114155" lon="-4.15238">
        <ele>725.0</ele>
        <time>2018-05-19T12:13:04.862Z</time>
      </trkpt>
      <trkpt lat="43.114155" lon="-4.15238">
        <ele>725.0</ele>
        <time>2018-05-19T12:13:05.853Z</time>
      </trkpt>
      <trkpt lat="43.114105" lon="-4.152345">
        <ele>724.0</ele>
        <time>2018-05-19T12:13:06.858Z</time>
      </trkpt>
      <trkpt lat="43.114105" lon="-4.152345">
        <ele>724.0</ele>
        <time>2018-05-19T12:13:07.844Z</time>
      </trkpt>
      <trkpt lat="43.11407333" lon="-4.15232">
        <ele>725.0</ele>
        <time>2018-05-19T12:13:08.868Z</time>
      </trkpt>
      <trkpt lat="43.11407333" lon="-4.15232">
        <ele>725.0</ele>
        <time>2018-05-19T12:13:09.853Z</time>
      </trkpt>
      <trkpt lat="43.11404833" lon="-4.15231333">
        <ele>725.0</ele>
        <time>2018-05-19T12:13:10.862Z</time>
      </trkpt>
      <trkpt lat="43.11404833" lon="-4.15231333">
        <ele>725.0</ele>
        <time>2018-05-19T12:13:11.851Z</time>
      </trkpt>
      <trkpt lat="43.11401333" lon="-4.15230667">
        <ele>725.0</ele>
        <time>2018-05-19T12:13:12.860Z</time>
      </trkpt>
      <trkpt lat="43.11398667" lon="-4.15230667">
        <ele>725.0</ele>
        <time>2018-05-19T12:13:13.863Z</time>
      </trkpt>
      <trkpt lat="43.11398667" lon="-4.15230667">
        <ele>725.0</ele>
        <time>2018-05-19T12:13:14.853Z</time>
      </trkpt>
      <trkpt lat="43.11394667" lon="-4.15231833">
        <ele>725.0</ele>
        <time>2018-05-19T12:13:15.861Z</time>
      </trkpt>
      <trkpt lat="43.113925" lon="-4.15232">
        <ele>726.0</ele>
        <time>2018-05-19T12:13:16.862Z</time>
      </trkpt>
      <trkpt lat="43.113925" lon="-4.15232">
        <ele>726.0</ele>
        <time>2018-05-19T12:13:17.850Z</time>
      </trkpt>
      <trkpt lat="43.11388167" lon="-4.15233">
        <ele>726.0</ele>
        <time>2018-05-19T12:13:18.854Z</time>
      </trkpt>
      <trkpt lat="43.11388167" lon="-4.15233">
        <ele>726.0</ele>
        <time>2018-05-19T12:13:19.852Z</time>
      </trkpt>
      <trkpt lat="43.11384" lon="-4.15233333">
        <ele>727.0</ele>
        <time>2018-05-19T12:13:20.851Z</time>
      </trkpt>
      <trkpt lat="43.11384" lon="-4.15233333">
        <ele>727.0</ele>
        <time>2018-05-19T12:13:21.846Z</time>
      </trkpt>
      <trkpt lat="43.11377667" lon="-4.15233">
        <ele>727.0</ele>
        <time>2018-05-19T12:13:22.871Z</time>
      </trkpt>
      <trkpt lat="43.11377667" lon="-4.15233">
        <ele>727.0</ele>
        <time>2018-05-19T12:13:23.860Z</time>
      </trkpt>
      <trkpt lat="43.11373333" lon="-4.15233833">
        <ele>727.0</ele>
        <time>2018-05-19T12:13:24.855Z</time>
      </trkpt>
      <trkpt lat="43.11369167" lon="-4.15233333">
        <ele>728.0</ele>
        <time>2018-05-19T12:13:25.855Z</time>
      </trkpt>
      <trkpt lat="43.11364833" lon="-4.15232833">
        <ele>728.0</ele>
        <time>2018-05-19T12:13:26.861Z</time>
      </trkpt>
      <trkpt lat="43.11364833" lon="-4.15232833">
        <ele>728.0</ele>
        <time>2018-05-19T12:13:27.850Z</time>
      </trkpt>
      <trkpt lat="43.11359333" lon="-4.152335">
        <ele>728.0</ele>
        <time>2018-05-19T12:13:28.861Z</time>
      </trkpt>
      <trkpt lat="43.11359333" lon="-4.152335">
        <ele>728.0</ele>
        <time>2018-05-19T12:13:29.854Z</time>
      </trkpt>
      <trkpt lat="43.11354667" lon="-4.152335">
        <ele>728.0</ele>
        <time>2018-05-19T12:13:30.854Z</time>
      </trkpt>
      <trkpt lat="43.11354667" lon="-4.152335">
        <ele>728.0</ele>
        <time>2018-05-19T12:13:31.864Z</time>
      </trkpt>
      <trkpt lat="43.11348667" lon="-4.15233">
        <ele>728.0</ele>
        <time>2018-05-19T12:13:32.860Z</time>
      </trkpt>
      <trkpt lat="43.11345833" lon="-4.15233">
        <ele>728.0</ele>
        <time>2018-05-19T12:13:33.865Z</time>
      </trkpt>
      <trkpt lat="43.11344333" lon="-4.15232833">
        <ele>729.0</ele>
        <time>2018-05-19T12:13:34.852Z</time>
      </trkpt>
      <trkpt lat="43.11344333" lon="-4.15232833">
        <ele>729.0</ele>
        <time>2018-05-19T12:13:35.853Z</time>
      </trkpt>
      <trkpt lat="43.11341167" lon="-4.152325">
        <ele>729.0</ele>
        <time>2018-05-19T12:13:36.860Z</time>
      </trkpt>
      <trkpt lat="43.11341167" lon="-4.152325">
        <ele>729.0</ele>
        <time>2018-05-19T12:13:37.852Z</time>
      </trkpt>
      <trkpt lat="43.113375" lon="-4.15232">
        <ele>729.0</ele>
        <time>2018-05-19T12:13:38.861Z</time>
      </trkpt>
      <trkpt lat="43.113375" lon="-4.15232">
        <ele>729.0</ele>
        <time>2018-05-19T12:13:39.854Z</time>
      </trkpt>
      <trkpt lat="43.11334167" lon="-4.15230667">
        <ele>729.0</ele>
        <time>2018-05-19T12:13:40.862Z</time>
      </trkpt>
      <trkpt lat="43.11334167" lon="-4.15230667">
        <ele>729.0</ele>
        <time>2018-05-19T12:13:41.852Z</time>
      </trkpt>
      <trkpt lat="43.11330833" lon="-4.15228667">
        <ele>729.0</ele>
        <time>2018-05-19T12:13:42.854Z</time>
      </trkpt>
      <trkpt lat="43.11329333" lon="-4.152275">
        <ele>729.0</ele>
        <time>2018-05-19T12:13:43.865Z</time>
      </trkpt>
      <trkpt lat="43.11329333" lon="-4.152275">
        <ele>729.0</ele>
        <time>2018-05-19T12:13:44.851Z</time>
      </trkpt>
      <trkpt lat="43.11325333" lon="-4.152245">
        <ele>730.0</ele>
        <time>2018-05-19T12:13:45.881Z</time>
      </trkpt>
      <trkpt lat="43.11325333" lon="-4.152245">
        <ele>730.0</ele>
        <time>2018-05-19T12:13:46.880Z</time>
      </trkpt>
      <trkpt lat="43.11322" lon="-4.15221667">
        <ele>730.0</ele>
        <time>2018-05-19T12:13:47.847Z</time>
      </trkpt>
      <trkpt lat="43.11322" lon="-4.15221667">
        <ele>730.0</ele>
        <time>2018-05-19T12:13:48.853Z</time>
      </trkpt>
      <trkpt lat="43.11317833" lon="-4.15217333">
        <ele>730.0</ele>
        <time>2018-05-19T12:13:49.862Z</time>
      </trkpt>
      <trkpt lat="43.11317833" lon="-4.15217333">
        <ele>730.0</ele>
        <time>2018-05-19T12:13:50.859Z</time>
      </trkpt>
      <trkpt lat="43.113135" lon="-4.15213">
        <ele>730.0</ele>
        <time>2018-05-19T12:13:51.862Z</time>
      </trkpt>
      <trkpt lat="43.11311167" lon="-4.15210833">
        <ele>730.0</ele>
        <time>2018-05-19T12:13:52.860Z</time>
      </trkpt>
      <trkpt lat="43.11311167" lon="-4.15210833">
        <ele>730.0</ele>
        <time>2018-05-19T12:13:53.852Z</time>
      </trkpt>
      <trkpt lat="43.11309333" lon="-4.15207167">
        <ele>731.0</ele>
        <time>2018-05-19T12:13:54.861Z</time>
      </trkpt>
      <trkpt lat="43.11309333" lon="-4.15207167">
        <ele>731.0</ele>
        <time>2018-05-19T12:13:55.852Z</time>
      </trkpt>
      <trkpt lat="43.11305333" lon="-4.15204167">
        <ele>731.0</ele>
        <time>2018-05-19T12:13:56.862Z</time>
      </trkpt>
      <trkpt lat="43.11305333" lon="-4.15204167">
        <ele>731.0</ele>
        <time>2018-05-19T12:13:57.852Z</time>
      </trkpt>
      <trkpt lat="43.11301167" lon="-4.152015">
        <ele>731.0</ele>
        <time>2018-05-19T12:13:58.861Z</time>
      </trkpt>
      <trkpt lat="43.11301167" lon="-4.152015">
        <ele>731.0</ele>
        <time>2018-05-19T12:13:59.858Z</time>
      </trkpt>
      <trkpt lat="43.11296667" lon="-4.15199">
        <ele>731.0</ele>
        <time>2018-05-19T12:14:00.859Z</time>
      </trkpt>
      <trkpt lat="43.11296667" lon="-4.15199">
        <ele>731.0</ele>
        <time>2018-05-19T12:14:01.853Z</time>
      </trkpt>
      <trkpt lat="43.112945" lon="-4.15195833">
        <ele>732.0</ele>
        <time>2018-05-19T12:14:02.860Z</time>
      </trkpt>
      <trkpt lat="43.112945" lon="-4.15195833">
        <ele>732.0</ele>
        <time>2018-05-19T12:14:03.853Z</time>
      </trkpt>
      <trkpt lat="43.11292333" lon="-4.15193">
        <ele>732.0</ele>
        <time>2018-05-19T12:14:04.856Z</time>
      </trkpt>
      <trkpt lat="43.11292333" lon="-4.15193">
        <ele>732.0</ele>
        <time>2018-05-19T12:14:05.852Z</time>
      </trkpt>
      <trkpt lat="43.11288167" lon="-4.15191667">
        <ele>732.0</ele>
        <time>2018-05-19T12:14:06.862Z</time>
      </trkpt>
      <trkpt lat="43.11288167" lon="-4.15191667">
        <ele>732.0</ele>
        <time>2018-05-19T12:14:07.852Z</time>
      </trkpt>
      <trkpt lat="43.11286667" lon="-4.151895">
        <ele>732.0</ele>
        <time>2018-05-19T12:14:08.861Z</time>
      </trkpt>
      <trkpt lat="43.11285333" lon="-4.151885">
        <ele>732.0</ele>
        <time>2018-05-19T12:14:09.854Z</time>
      </trkpt>
      <trkpt lat="43.11285333" lon="-4.151885">
        <ele>732.0</ele>
        <time>2018-05-19T12:14:10.849Z</time>
      </trkpt>
      <trkpt lat="43.112815" lon="-4.15187667">
        <ele>733.0</ele>
        <time>2018-05-19T12:14:11.854Z</time>
      </trkpt>
      <trkpt lat="43.112815" lon="-4.15187667">
        <ele>733.0</ele>
        <time>2018-05-19T12:14:12.852Z</time>
      </trkpt>
      <trkpt lat="43.11277667" lon="-4.15186667">
        <ele>733.0</ele>
        <time>2018-05-19T12:14:13.859Z</time>
      </trkpt>
      <trkpt lat="43.11275667" lon="-4.15185833">
        <ele>733.0</ele>
        <time>2018-05-19T12:14:14.861Z</time>
      </trkpt>
      <trkpt lat="43.11275667" lon="-4.15185833">
        <ele>733.0</ele>
        <time>2018-05-19T12:14:15.850Z</time>
      </trkpt>
      <trkpt lat="43.11273167" lon="-4.15184">
        <ele>733.0</ele>
        <time>2018-05-19T12:14:16.855Z</time>
      </trkpt>
      <trkpt lat="43.11273167" lon="-4.15184">
        <ele>733.0</ele>
        <time>2018-05-19T12:14:17.853Z</time>
      </trkpt>
      <trkpt lat="43.11269667" lon="-4.15182">
        <ele>733.0</ele>
        <time>2018-05-19T12:14:18.853Z</time>
      </trkpt>
      <trkpt lat="43.11268667" lon="-4.15181333">
        <ele>734.0</ele>
        <time>2018-05-19T12:14:19.859Z</time>
      </trkpt>
      <trkpt lat="43.11268667" lon="-4.15181333">
        <ele>734.0</ele>
        <time>2018-05-19T12:14:20.853Z</time>
      </trkpt>
      <trkpt lat="43.11265167" lon="-4.15178833">
        <ele>734.0</ele>
        <time>2018-05-19T12:14:21.862Z</time>
      </trkpt>
      <trkpt lat="43.112625" lon="-4.15178">
        <ele>734.0</ele>
        <time>2018-05-19T12:14:22.861Z</time>
      </trkpt>
      <trkpt lat="43.112625" lon="-4.15178">
        <ele>734.0</ele>
        <time>2018-05-19T12:14:23.852Z</time>
      </trkpt>
      <trkpt lat="43.11258833" lon="-4.151765">
        <ele>734.0</ele>
        <time>2018-05-19T12:14:24.859Z</time>
      </trkpt>
      <trkpt lat="43.11258833" lon="-4.151765">
        <ele>734.0</ele>
        <time>2018-05-19T12:14:25.851Z</time>
      </trkpt>
      <trkpt lat="43.11256" lon="-4.151755">
        <ele>734.0</ele>
        <time>2018-05-19T12:14:26.867Z</time>
      </trkpt>
      <trkpt lat="43.11256" lon="-4.151755">
        <ele>734.0</ele>
        <time>2018-05-19T12:14:27.852Z</time>
      </trkpt>
      <trkpt lat="43.11255833" lon="-4.15175333">
        <ele>734.0</ele>
        <time>2018-05-19T12:14:28.860Z</time>
      </trkpt>
      <trkpt lat="43.11255833" lon="-4.15175333">
        <ele>734.0</ele>
        <time>2018-05-19T12:14:29.852Z</time>
      </trkpt>
      <trkpt lat="43.11251667" lon="-4.15175167">
        <ele>735.0</ele>
        <time>2018-05-19T12:14:30.859Z</time>
      </trkpt>
      <trkpt lat="43.11251667" lon="-4.15175167">
        <ele>735.0</ele>
        <time>2018-05-19T12:14:31.852Z</time>
      </trkpt>
      <trkpt lat="43.11246833" lon="-4.15175167">
        <ele>735.0</ele>
        <time>2018-05-19T12:14:32.871Z</time>
      </trkpt>
      <trkpt lat="43.11246833" lon="-4.15175167">
        <ele>735.0</ele>
        <time>2018-05-19T12:14:33.864Z</time>
      </trkpt>
      <trkpt lat="43.11243833" lon="-4.15176333">
        <ele>735.0</ele>
        <time>2018-05-19T12:14:34.862Z</time>
      </trkpt>
      <trkpt lat="43.11243833" lon="-4.15176333">
        <ele>735.0</ele>
        <time>2018-05-19T12:14:35.868Z</time>
      </trkpt>
      <trkpt lat="43.112335" lon="-4.15177833">
        <ele>735.0</ele>
        <time>2018-05-19T12:14:36.872Z</time>
      </trkpt>
      <trkpt lat="43.11231667" lon="-4.15177667">
        <ele>735.0</ele>
        <time>2018-05-19T12:14:37.856Z</time>
      </trkpt>
      <trkpt lat="43.11231667" lon="-4.15177667">
        <ele>735.0</ele>
        <time>2018-05-19T12:14:38.864Z</time>
      </trkpt>
      <trkpt lat="43.11227167" lon="-4.15176833">
        <ele>735.0</ele>
        <time>2018-05-19T12:14:39.863Z</time>
      </trkpt>
      <trkpt lat="43.11227167" lon="-4.15176833">
        <ele>735.0</ele>
        <time>2018-05-19T12:14:40.855Z</time>
      </trkpt>
      <trkpt lat="43.112235" lon="-4.151755">
        <ele>735.0</ele>
        <time>2018-05-19T12:14:41.864Z</time>
      </trkpt>
      <trkpt lat="43.112235" lon="-4.151755">
        <ele>735.0</ele>
        <time>2018-05-19T12:14:42.856Z</time>
      </trkpt>
      <trkpt lat="43.11219333" lon="-4.15172667">
        <ele>735.0</ele>
        <time>2018-05-19T12:14:43.863Z</time>
      </trkpt>
      <trkpt lat="43.11217833" lon="-4.15171333">
        <ele>735.0</ele>
        <time>2018-05-19T12:14:44.863Z</time>
      </trkpt>
      <trkpt lat="43.11217833" lon="-4.15171333">
        <ele>735.0</ele>
        <time>2018-05-19T12:14:45.871Z</time>
      </trkpt>
      <trkpt lat="43.112135" lon="-4.15167">
        <ele>735.0</ele>
        <time>2018-05-19T12:14:46.863Z</time>
      </trkpt>
      <trkpt lat="43.112135" lon="-4.15167">
        <ele>735.0</ele>
        <time>2018-05-19T12:14:47.869Z</time>
      </trkpt>
      <trkpt lat="43.11208667" lon="-4.15161667">
        <ele>736.0</ele>
        <time>2018-05-19T12:14:48.875Z</time>
      </trkpt>
      <trkpt lat="43.11208667" lon="-4.15161667">
        <ele>736.0</ele>
        <time>2018-05-19T12:14:49.863Z</time>
      </trkpt>
      <trkpt lat="43.11206" lon="-4.151575">
        <ele>736.0</ele>
        <time>2018-05-19T12:14:50.864Z</time>
      </trkpt>
      <trkpt lat="43.11206" lon="-4.151575">
        <ele>736.0</ele>
        <time>2018-05-19T12:14:51.872Z</time>
      </trkpt>
      <trkpt lat="43.112" lon="-4.15152667">
        <ele>736.0</ele>
        <time>2018-05-19T12:14:52.862Z</time>
      </trkpt>
      <trkpt lat="43.112" lon="-4.15152667">
        <ele>736.0</ele>
        <time>2018-05-19T12:14:53.856Z</time>
      </trkpt>
      <trkpt lat="43.111925" lon="-4.15149333">
        <ele>736.0</ele>
        <time>2018-05-19T12:14:54.865Z</time>
      </trkpt>
      <trkpt lat="43.111925" lon="-4.15149333">
        <ele>736.0</ele>
        <time>2018-05-19T12:14:55.856Z</time>
      </trkpt>
      <trkpt lat="43.11187333" lon="-4.15146">
        <ele>736.0</ele>
        <time>2018-05-19T12:14:56.864Z</time>
      </trkpt>
      <trkpt lat="43.11187333" lon="-4.15146">
        <ele>736.0</ele>
        <time>2018-05-19T12:14:57.856Z</time>
      </trkpt>
      <trkpt lat="43.11182167" lon="-4.15143167">
        <ele>736.0</ele>
        <time>2018-05-19T12:14:58.856Z</time>
      </trkpt>
      <trkpt lat="43.11179167" lon="-4.15142667">
        <ele>736.0</ele>
        <time>2018-05-19T12:14:59.864Z</time>
      </trkpt>
      <trkpt lat="43.11179167" lon="-4.15142667">
        <ele>736.0</ele>
        <time>2018-05-19T12:15:00.859Z</time>
      </trkpt>
      <trkpt lat="43.11173" lon="-4.15140667">
        <ele>736.0</ele>
        <time>2018-05-19T12:15:01.865Z</time>
      </trkpt>
      <trkpt lat="43.11168833" lon="-4.15139">
        <ele>736.0</ele>
        <time>2018-05-19T12:15:02.863Z</time>
      </trkpt>
      <trkpt lat="43.11168833" lon="-4.15139">
        <ele>736.0</ele>
        <time>2018-05-19T12:15:03.856Z</time>
      </trkpt>
      <trkpt lat="43.111625" lon="-4.15135833">
        <ele>736.0</ele>
        <time>2018-05-19T12:15:04.857Z</time>
      </trkpt>
      <trkpt lat="43.111625" lon="-4.15135833">
        <ele>736.0</ele>
        <time>2018-05-19T12:15:05.856Z</time>
      </trkpt>
      <trkpt lat="43.11156667" lon="-4.15132167">
        <ele>736.0</ele>
        <time>2018-05-19T12:15:06.865Z</time>
      </trkpt>
      <trkpt lat="43.11153" lon="-4.15130167">
        <ele>737.0</ele>
        <time>2018-05-19T12:15:07.860Z</time>
      </trkpt>
      <trkpt lat="43.11153" lon="-4.15130167">
        <ele>737.0</ele>
        <time>2018-05-19T12:15:08.857Z</time>
      </trkpt>
      <trkpt lat="43.111485" lon="-4.15126833">
        <ele>737.0</ele>
        <time>2018-05-19T12:15:09.863Z</time>
      </trkpt>
      <trkpt lat="43.111485" lon="-4.15126833">
        <ele>737.0</ele>
        <time>2018-05-19T12:15:10.850Z</time>
      </trkpt>
      <trkpt lat="43.111435" lon="-4.15123667">
        <ele>737.0</ele>
        <time>2018-05-19T12:15:11.858Z</time>
      </trkpt>
      <trkpt lat="43.11142333" lon="-4.15121667">
        <ele>737.0</ele>
        <time>2018-05-19T12:15:12.866Z</time>
      </trkpt>
      <trkpt lat="43.11142333" lon="-4.15121667">
        <ele>737.0</ele>
        <time>2018-05-19T12:15:13.856Z</time>
      </trkpt>
      <trkpt lat="43.11143" lon="-4.15117">
        <ele>737.0</ele>
        <time>2018-05-19T12:15:14.865Z</time>
      </trkpt>
      <trkpt lat="43.11143" lon="-4.15117">
        <ele>737.0</ele>
        <time>2018-05-19T12:15:15.853Z</time>
      </trkpt>
      <trkpt lat="43.11142167" lon="-4.15112333">
        <ele>737.0</ele>
        <time>2018-05-19T12:15:16.857Z</time>
      </trkpt>
      <trkpt lat="43.11142167" lon="-4.15112333">
        <ele>737.0</ele>
        <time>2018-05-19T12:15:17.856Z</time>
      </trkpt>
      <trkpt lat="43.111405" lon="-4.15107833">
        <ele>737.0</ele>
        <time>2018-05-19T12:15:18.868Z</time>
      </trkpt>
      <trkpt lat="43.111405" lon="-4.15107833">
        <ele>737.0</ele>
        <time>2018-05-19T12:15:19.856Z</time>
      </trkpt>
      <trkpt lat="43.11137333" lon="-4.15102833">
        <ele>737.0</ele>
        <time>2018-05-19T12:15:20.866Z</time>
      </trkpt>
      <trkpt lat="43.11136167" lon="-4.15100333">
        <ele>737.0</ele>
        <time>2018-05-19T12:15:21.858Z</time>
      </trkpt>
      <trkpt lat="43.11135" lon="-4.15097833">
        <ele>737.0</ele>
        <time>2018-05-19T12:15:22.861Z</time>
      </trkpt>
      <trkpt lat="43.11135" lon="-4.15095333">
        <ele>737.0</ele>
        <time>2018-05-19T12:15:23.863Z</time>
      </trkpt>
      <trkpt lat="43.11135" lon="-4.15095333">
        <ele>737.0</ele>
        <time>2018-05-19T12:15:24.863Z</time>
      </trkpt>
      <trkpt lat="43.11135333" lon="-4.15089833">
        <ele>737.0</ele>
        <time>2018-05-19T12:15:25.856Z</time>
      </trkpt>
      <trkpt lat="43.11133833" lon="-4.150875">
        <ele>737.0</ele>
        <time>2018-05-19T12:15:26.865Z</time>
      </trkpt>
      <trkpt lat="43.11133833" lon="-4.150875">
        <ele>737.0</ele>
        <time>2018-05-19T12:15:27.856Z</time>
      </trkpt>
      <trkpt lat="43.11130167" lon="-4.15083167">
        <ele>737.0</ele>
        <time>2018-05-19T12:15:28.863Z</time>
      </trkpt>
      <trkpt lat="43.11130167" lon="-4.15083167">
        <ele>737.0</ele>
        <time>2018-05-19T12:15:29.856Z</time>
      </trkpt>
      <trkpt lat="43.11127333" lon="-4.150805">
        <ele>737.0</ele>
        <time>2018-05-19T12:15:30.868Z</time>
      </trkpt>
      <trkpt lat="43.11127333" lon="-4.150805">
        <ele>737.0</ele>
        <time>2018-05-19T12:15:31.861Z</time>
      </trkpt>
      <trkpt lat="43.11123167" lon="-4.150795">
        <ele>737.0</ele>
        <time>2018-05-19T12:15:32.880Z</time>
      </trkpt>
      <trkpt lat="43.11123167" lon="-4.150795">
        <ele>737.0</ele>
        <time>2018-05-19T12:15:33.862Z</time>
      </trkpt>
      <trkpt lat="43.11119333" lon="-4.15079">
        <ele>737.0</ele>
        <time>2018-05-19T12:15:34.864Z</time>
      </trkpt>
      <trkpt lat="43.11119333" lon="-4.15079">
        <ele>737.0</ele>
        <time>2018-05-19T12:15:35.856Z</time>
      </trkpt>
      <trkpt lat="43.11112833" lon="-4.150785">
        <ele>737.0</ele>
        <time>2018-05-19T12:15:36.863Z</time>
      </trkpt>
      <trkpt lat="43.11112833" lon="-4.150785">
        <ele>737.0</ele>
        <time>2018-05-19T12:15:37.858Z</time>
      </trkpt>
      <trkpt lat="43.11106167" lon="-4.150785">
        <ele>737.0</ele>
        <time>2018-05-19T12:15:38.865Z</time>
      </trkpt>
      <trkpt lat="43.11103167" lon="-4.15078667">
        <ele>737.0</ele>
        <time>2018-05-19T12:15:39.865Z</time>
      </trkpt>
      <trkpt lat="43.11103167" lon="-4.15078667">
        <ele>737.0</ele>
        <time>2018-05-19T12:15:40.867Z</time>
      </trkpt>
      <trkpt lat="43.11100167" lon="-4.15079333">
        <ele>737.0</ele>
        <time>2018-05-19T12:15:41.864Z</time>
      </trkpt>
      <trkpt lat="43.110975" lon="-4.15079333">
        <ele>737.0</ele>
        <time>2018-05-19T12:15:42.866Z</time>
      </trkpt>
      <trkpt lat="43.110975" lon="-4.15079333">
        <ele>737.0</ele>
        <time>2018-05-19T12:15:43.853Z</time>
      </trkpt>
      <trkpt lat="43.11093" lon="-4.15079167">
        <ele>737.0</ele>
        <time>2018-05-19T12:15:44.865Z</time>
      </trkpt>
      <trkpt lat="43.11093" lon="-4.15079167">
        <ele>737.0</ele>
        <time>2018-05-19T12:15:45.878Z</time>
      </trkpt>
      <trkpt lat="43.11086833" lon="-4.15079667">
        <ele>737.0</ele>
        <time>2018-05-19T12:15:46.873Z</time>
      </trkpt>
      <trkpt lat="43.11086833" lon="-4.15079667">
        <ele>737.0</ele>
        <time>2018-05-19T12:15:47.879Z</time>
      </trkpt>
      <trkpt lat="43.1108" lon="-4.15079667">
        <ele>738.0</ele>
        <time>2018-05-19T12:15:48.866Z</time>
      </trkpt>
      <trkpt lat="43.1108" lon="-4.15079667">
        <ele>738.0</ele>
        <time>2018-05-19T12:15:49.856Z</time>
      </trkpt>
      <trkpt lat="43.11073667" lon="-4.15077833">
        <ele>738.0</ele>
        <time>2018-05-19T12:15:50.864Z</time>
      </trkpt>
      <trkpt lat="43.11073667" lon="-4.15077833">
        <ele>738.0</ele>
        <time>2018-05-19T12:15:51.858Z</time>
      </trkpt>
      <trkpt lat="43.1107" lon="-4.15075167">
        <ele>738.0</ele>
        <time>2018-05-19T12:15:52.857Z</time>
      </trkpt>
      <trkpt lat="43.1107" lon="-4.15075167">
        <ele>738.0</ele>
        <time>2018-05-19T12:15:53.861Z</time>
      </trkpt>
      <trkpt lat="43.11065667" lon="-4.15072333">
        <ele>738.0</ele>
        <time>2018-05-19T12:15:54.866Z</time>
      </trkpt>
      <trkpt lat="43.11065667" lon="-4.15072333">
        <ele>738.0</ele>
        <time>2018-05-19T12:15:55.854Z</time>
      </trkpt>
      <trkpt lat="43.1106" lon="-4.15067833">
        <ele>738.0</ele>
        <time>2018-05-19T12:15:56.864Z</time>
      </trkpt>
      <trkpt lat="43.1106" lon="-4.15067833">
        <ele>738.0</ele>
        <time>2018-05-19T12:15:57.857Z</time>
      </trkpt>
      <trkpt lat="43.11055833" lon="-4.15064833">
        <ele>739.0</ele>
        <time>2018-05-19T12:15:58.864Z</time>
      </trkpt>
      <trkpt lat="43.110525" lon="-4.15063">
        <ele>739.0</ele>
        <time>2018-05-19T12:15:59.863Z</time>
      </trkpt>
      <trkpt lat="43.110525" lon="-4.15063">
        <ele>739.0</ele>
        <time>2018-05-19T12:16:00.860Z</time>
      </trkpt>
      <trkpt lat="43.11046" lon="-4.1506">
        <ele>739.0</ele>
        <time>2018-05-19T12:16:01.864Z</time>
      </trkpt>
      <trkpt lat="43.11044167" lon="-4.15058667">
        <ele>739.0</ele>
        <time>2018-05-19T12:16:02.864Z</time>
      </trkpt>
      <trkpt lat="43.11044167" lon="-4.15058667">
        <ele>739.0</ele>
        <time>2018-05-19T12:16:03.862Z</time>
      </trkpt>
      <trkpt lat="43.110385" lon="-4.150545">
        <ele>739.0</ele>
        <time>2018-05-19T12:16:04.863Z</time>
      </trkpt>
      <trkpt lat="43.110385" lon="-4.150545">
        <ele>739.0</ele>
        <time>2018-05-19T12:16:05.853Z</time>
      </trkpt>
      <trkpt lat="43.11034333" lon="-4.15050667">
        <ele>740.0</ele>
        <time>2018-05-19T12:16:06.876Z</time>
      </trkpt>
      <trkpt lat="43.11034333" lon="-4.15050667">
        <ele>740.0</ele>
        <time>2018-05-19T12:16:07.862Z</time>
      </trkpt>
      <trkpt lat="43.11031" lon="-4.15048">
        <ele>740.0</ele>
        <time>2018-05-19T12:16:08.866Z</time>
      </trkpt>
      <trkpt lat="43.11031" lon="-4.15048">
        <ele>740.0</ele>
        <time>2018-05-19T12:16:09.854Z</time>
      </trkpt>
      <trkpt lat="43.110255" lon="-4.150455">
        <ele>740.0</ele>
        <time>2018-05-19T12:16:10.856Z</time>
      </trkpt>
      <trkpt lat="43.11024333" lon="-4.150445">
        <ele>741.0</ele>
        <time>2018-05-19T12:16:11.864Z</time>
      </trkpt>
      <trkpt lat="43.11023167" lon="-4.15043833">
        <ele>741.0</ele>
        <time>2018-05-19T12:16:12.864Z</time>
      </trkpt>
      <trkpt lat="43.11023167" lon="-4.15043833">
        <ele>741.0</ele>
        <time>2018-05-19T12:16:13.854Z</time>
      </trkpt>
      <trkpt lat="43.11019833" lon="-4.15043167">
        <ele>741.0</ele>
        <time>2018-05-19T12:16:14.879Z</time>
      </trkpt>
      <trkpt lat="43.11019833" lon="-4.15043167">
        <ele>741.0</ele>
        <time>2018-05-19T12:16:15.864Z</time>
      </trkpt>
      <trkpt lat="43.11016833" lon="-4.15045">
        <ele>741.0</ele>
        <time>2018-05-19T12:16:16.865Z</time>
      </trkpt>
      <trkpt lat="43.11016833" lon="-4.15045">
        <ele>741.0</ele>
        <time>2018-05-19T12:16:17.856Z</time>
      </trkpt>
      <trkpt lat="43.11014167" lon="-4.15047833">
        <ele>741.0</ele>
        <time>2018-05-19T12:16:18.881Z</time>
      </trkpt>
      <trkpt lat="43.11014167" lon="-4.15047833">
        <ele>741.0</ele>
        <time>2018-05-19T12:16:19.867Z</time>
      </trkpt>
      <trkpt lat="43.11009833" lon="-4.15051667">
        <ele>741.0</ele>
        <time>2018-05-19T12:16:20.863Z</time>
      </trkpt>
      <trkpt lat="43.11009833" lon="-4.15051667">
        <ele>741.0</ele>
        <time>2018-05-19T12:16:21.858Z</time>
      </trkpt>
      <trkpt lat="43.110075" lon="-4.15055667">
        <ele>741.0</ele>
        <time>2018-05-19T12:16:22.863Z</time>
      </trkpt>
      <trkpt lat="43.11006667" lon="-4.150575">
        <ele>741.0</ele>
        <time>2018-05-19T12:16:23.863Z</time>
      </trkpt>
      <trkpt lat="43.11005167" lon="-4.15059667">
        <ele>741.0</ele>
        <time>2018-05-19T12:16:24.865Z</time>
      </trkpt>
      <trkpt lat="43.11005167" lon="-4.15059667">
        <ele>741.0</ele>
        <time>2018-05-19T12:16:25.855Z</time>
      </trkpt>
      <trkpt lat="43.110015" lon="-4.15063833">
        <ele>741.0</ele>
        <time>2018-05-19T12:16:26.863Z</time>
      </trkpt>
      <trkpt lat="43.110015" lon="-4.15063833">
        <ele>741.0</ele>
        <time>2018-05-19T12:16:27.861Z</time>
      </trkpt>
      <trkpt lat="43.11" lon="-4.15066833">
        <ele>742.0</ele>
        <time>2018-05-19T12:16:28.863Z</time>
      </trkpt>
      <trkpt lat="43.10998333" lon="-4.15069">
        <ele>742.0</ele>
        <time>2018-05-19T12:16:29.864Z</time>
      </trkpt>
      <trkpt lat="43.10998333" lon="-4.15069">
        <ele>742.0</ele>
        <time>2018-05-19T12:16:30.855Z</time>
      </trkpt>
      <trkpt lat="43.10996333" lon="-4.15073">
        <ele>743.0</ele>
        <time>2018-05-19T12:16:31.868Z</time>
      </trkpt>
      <trkpt lat="43.109945" lon="-4.15074833">
        <ele>743.0</ele>
        <time>2018-05-19T12:16:32.866Z</time>
      </trkpt>
      <trkpt lat="43.109945" lon="-4.15074833">
        <ele>743.0</ele>
        <time>2018-05-19T12:16:33.853Z</time>
      </trkpt>
      <trkpt lat="43.10991167" lon="-4.15079">
        <ele>743.0</ele>
        <time>2018-05-19T12:16:34.865Z</time>
      </trkpt>
      <trkpt lat="43.10991167" lon="-4.15079">
        <ele>743.0</ele>
        <time>2018-05-19T12:16:35.856Z</time>
      </trkpt>
      <trkpt lat="43.109885" lon="-4.15082167">
        <ele>744.0</ele>
        <time>2018-05-19T12:16:36.864Z</time>
      </trkpt>
      <trkpt lat="43.109885" lon="-4.15082167">
        <ele>744.0</ele>
        <time>2018-05-19T12:16:37.854Z</time>
      </trkpt>
      <trkpt lat="43.109865" lon="-4.15084667">
        <ele>744.0</ele>
        <time>2018-05-19T12:16:38.874Z</time>
      </trkpt>
      <trkpt lat="43.109865" lon="-4.15084667">
        <ele>744.0</ele>
        <time>2018-05-19T12:16:39.856Z</time>
      </trkpt>
      <trkpt lat="43.10984333" lon="-4.150865">
        <ele>745.0</ele>
        <time>2018-05-19T12:16:40.863Z</time>
      </trkpt>
      <trkpt lat="43.109835" lon="-4.15087667">
        <ele>745.0</ele>
        <time>2018-05-19T12:16:41.866Z</time>
      </trkpt>
      <trkpt lat="43.10982667" lon="-4.15089333">
        <ele>745.0</ele>
        <time>2018-05-19T12:16:42.865Z</time>
      </trkpt>
      <trkpt lat="43.10982667" lon="-4.15089333">
        <ele>745.0</ele>
        <time>2018-05-19T12:16:43.858Z</time>
      </trkpt>
      <trkpt lat="43.109815" lon="-4.150925">
        <ele>746.0</ele>
        <time>2018-05-19T12:16:44.858Z</time>
      </trkpt>
      <trkpt lat="43.109815" lon="-4.150925">
        <ele>746.0</ele>
        <time>2018-05-19T12:16:45.875Z</time>
      </trkpt>
      <trkpt lat="43.109785" lon="-4.15094667">
        <ele>746.0</ele>
        <time>2018-05-19T12:16:46.872Z</time>
      </trkpt>
      <trkpt lat="43.10977" lon="-4.15095667">
        <ele>747.0</ele>
        <time>2018-05-19T12:16:47.879Z</time>
      </trkpt>
      <trkpt lat="43.109745" lon="-4.15097333">
        <ele>747.0</ele>
        <time>2018-05-19T12:16:48.865Z</time>
      </trkpt>
      <trkpt lat="43.109745" lon="-4.15097333">
        <ele>747.0</ele>
        <time>2018-05-19T12:16:49.863Z</time>
      </trkpt>
      <trkpt lat="43.10972333" lon="-4.15099667">
        <ele>748.0</ele>
        <time>2018-05-19T12:16:50.865Z</time>
      </trkpt>
      <trkpt lat="43.10972333" lon="-4.15099667">
        <ele>748.0</ele>
        <time>2018-05-19T12:16:51.872Z</time>
      </trkpt>
      <trkpt lat="43.1097" lon="-4.15102833">
        <ele>749.0</ele>
        <time>2018-05-19T12:16:52.864Z</time>
      </trkpt>
      <trkpt lat="43.1097" lon="-4.15102833">
        <ele>749.0</ele>
        <time>2018-05-19T12:16:53.855Z</time>
      </trkpt>
      <trkpt lat="43.10967833" lon="-4.15106">
        <ele>750.0</ele>
        <time>2018-05-19T12:16:54.866Z</time>
      </trkpt>
      <trkpt lat="43.10967833" lon="-4.15106">
        <ele>750.0</ele>
        <time>2018-05-19T12:16:55.864Z</time>
      </trkpt>
      <trkpt lat="43.10966667" lon="-4.15108833">
        <ele>750.0</ele>
        <time>2018-05-19T12:16:56.865Z</time>
      </trkpt>
      <trkpt lat="43.10966667" lon="-4.15108833">
        <ele>750.0</ele>
        <time>2018-05-19T12:16:57.861Z</time>
      </trkpt>
      <trkpt lat="43.10964667" lon="-4.15111167">
        <ele>751.0</ele>
        <time>2018-05-19T12:16:58.866Z</time>
      </trkpt>
      <trkpt lat="43.10962667" lon="-4.15113333">
        <ele>751.0</ele>
        <time>2018-05-19T12:16:59.864Z</time>
      </trkpt>
      <trkpt lat="43.10962667" lon="-4.15113333">
        <ele>751.0</ele>
        <time>2018-05-19T12:17:00.859Z</time>
      </trkpt>
      <trkpt lat="43.10962" lon="-4.15117667">
        <ele>752.0</ele>
        <time>2018-05-19T12:17:01.864Z</time>
      </trkpt>
      <trkpt lat="43.10961" lon="-4.15119333">
        <ele>753.0</ele>
        <time>2018-05-19T12:17:02.864Z</time>
      </trkpt>
      <trkpt lat="43.10960833" lon="-4.15121">
        <ele>753.0</ele>
        <time>2018-05-19T12:17:03.864Z</time>
      </trkpt>
      <trkpt lat="43.10960833" lon="-4.15121">
        <ele>753.0</ele>
        <time>2018-05-19T12:17:04.856Z</time>
      </trkpt>
      <trkpt lat="43.10960167" lon="-4.15123833">
        <ele>754.0</ele>
        <time>2018-05-19T12:17:05.862Z</time>
      </trkpt>
      <trkpt lat="43.10959167" lon="-4.15124667">
        <ele>755.0</ele>
        <time>2018-05-19T12:17:06.866Z</time>
      </trkpt>
      <trkpt lat="43.10959167" lon="-4.15124667">
        <ele>755.0</ele>
        <time>2018-05-19T12:17:07.854Z</time>
      </trkpt>
      <trkpt lat="43.109575" lon="-4.15127">
        <ele>756.0</ele>
        <time>2018-05-19T12:17:08.864Z</time>
      </trkpt>
      <trkpt lat="43.109575" lon="-4.15127">
        <ele>756.0</ele>
        <time>2018-05-19T12:17:09.858Z</time>
      </trkpt>
      <trkpt lat="43.10951833" lon="-4.1513">
        <ele>757.0</ele>
        <time>2018-05-19T12:17:10.863Z</time>
      </trkpt>
      <trkpt lat="43.10951833" lon="-4.1513">
        <ele>757.0</ele>
        <time>2018-05-19T12:17:11.849Z</time>
      </trkpt>
      <trkpt lat="43.10948" lon="-4.151315">
        <ele>758.0</ele>
        <time>2018-05-19T12:17:12.867Z</time>
      </trkpt>
      <trkpt lat="43.10948" lon="-4.151315">
        <ele>758.0</ele>
        <time>2018-05-19T12:17:13.862Z</time>
      </trkpt>
      <trkpt lat="43.10945667" lon="-4.15136667">
        <ele>759.0</ele>
        <time>2018-05-19T12:17:14.863Z</time>
      </trkpt>
      <trkpt lat="43.10945667" lon="-4.15136667">
        <ele>759.0</ele>
        <time>2018-05-19T12:17:15.863Z</time>
      </trkpt>
      <trkpt lat="43.10943" lon="-4.15140333">
        <ele>760.0</ele>
        <time>2018-05-19T12:17:16.864Z</time>
      </trkpt>
      <trkpt lat="43.10943" lon="-4.15140333">
        <ele>760.0</ele>
        <time>2018-05-19T12:17:17.855Z</time>
      </trkpt>
      <trkpt lat="43.10940833" lon="-4.15143">
        <ele>761.0</ele>
        <time>2018-05-19T12:17:18.880Z</time>
      </trkpt>
      <trkpt lat="43.10940833" lon="-4.15143">
        <ele>761.0</ele>
        <time>2018-05-19T12:17:19.866Z</time>
      </trkpt>
      <trkpt lat="43.10939667" lon="-4.15145333">
        <ele>762.0</ele>
        <time>2018-05-19T12:17:20.864Z</time>
      </trkpt>
      <trkpt lat="43.10939667" lon="-4.15145333">
        <ele>762.0</ele>
        <time>2018-05-19T12:17:21.861Z</time>
      </trkpt>
      <trkpt lat="43.10938" lon="-4.15148167">
        <ele>763.0</ele>
        <time>2018-05-19T12:17:22.855Z</time>
      </trkpt>
      <trkpt lat="43.10938" lon="-4.15148167">
        <ele>763.0</ele>
        <time>2018-05-19T12:17:23.856Z</time>
      </trkpt>
      <trkpt lat="43.10936667" lon="-4.15150333">
        <ele>764.0</ele>
        <time>2018-05-19T12:17:24.865Z</time>
      </trkpt>
      <trkpt lat="43.10936667" lon="-4.15150333">
        <ele>764.0</ele>
        <time>2018-05-19T12:17:25.856Z</time>
      </trkpt>
      <trkpt lat="43.10935333" lon="-4.151515">
        <ele>765.0</ele>
        <time>2018-05-19T12:17:26.865Z</time>
      </trkpt>
      <trkpt lat="43.10935333" lon="-4.151515">
        <ele>765.0</ele>
        <time>2018-05-19T12:17:27.854Z</time>
      </trkpt>
      <trkpt lat="43.10935833" lon="-4.15154333">
        <ele>765.0</ele>
        <time>2018-05-19T12:17:28.862Z</time>
      </trkpt>
      <trkpt lat="43.10935333" lon="-4.15155833">
        <ele>766.0</ele>
        <time>2018-05-19T12:17:29.863Z</time>
      </trkpt>
      <trkpt lat="43.109345" lon="-4.15157167">
        <ele>766.0</ele>
        <time>2018-05-19T12:17:30.865Z</time>
      </trkpt>
      <trkpt lat="43.109345" lon="-4.15157167">
        <ele>766.0</ele>
        <time>2018-05-19T12:17:31.858Z</time>
      </trkpt>
      <trkpt lat="43.10933333" lon="-4.15158833">
        <ele>767.0</ele>
        <time>2018-05-19T12:17:32.864Z</time>
      </trkpt>
      <trkpt lat="43.10933333" lon="-4.15158833">
        <ele>767.0</ele>
        <time>2018-05-19T12:17:33.855Z</time>
      </trkpt>
      <trkpt lat="43.10932333" lon="-4.15160833">
        <ele>768.0</ele>
        <time>2018-05-19T12:17:34.863Z</time>
      </trkpt>
      <trkpt lat="43.10932333" lon="-4.15160833">
        <ele>768.0</ele>
        <time>2018-05-19T12:17:35.853Z</time>
      </trkpt>
      <trkpt lat="43.10930333" lon="-4.15163667">
        <ele>769.0</ele>
        <time>2018-05-19T12:17:36.863Z</time>
      </trkpt>
      <trkpt lat="43.10930333" lon="-4.15163667">
        <ele>769.0</ele>
        <time>2018-05-19T12:17:37.862Z</time>
      </trkpt>
      <trkpt lat="43.10927" lon="-4.15164833">
        <ele>770.0</ele>
        <time>2018-05-19T12:17:38.865Z</time>
      </trkpt>
      <trkpt lat="43.10927" lon="-4.15164833">
        <ele>770.0</ele>
        <time>2018-05-19T12:17:39.853Z</time>
      </trkpt>
      <trkpt lat="43.10921833" lon="-4.15163333">
        <ele>770.0</ele>
        <time>2018-05-19T12:17:40.862Z</time>
      </trkpt>
      <trkpt lat="43.10921833" lon="-4.15163333">
        <ele>770.0</ele>
        <time>2018-05-19T12:17:41.856Z</time>
      </trkpt>
      <trkpt lat="43.10919333" lon="-4.15163333">
        <ele>771.0</ele>
        <time>2018-05-19T12:17:42.874Z</time>
      </trkpt>
      <trkpt lat="43.10919333" lon="-4.15163333">
        <ele>771.0</ele>
        <time>2018-05-19T12:17:43.862Z</time>
      </trkpt>
      <trkpt lat="43.10918333" lon="-4.15163833">
        <ele>771.0</ele>
        <time>2018-05-19T12:17:44.845Z</time>
      </trkpt>
      <trkpt lat="43.10918333" lon="-4.15163833">
        <ele>771.0</ele>
        <time>2018-05-19T12:17:45.888Z</time>
      </trkpt>
      <trkpt lat="43.109165" lon="-4.15166">
        <ele>771.0</ele>
        <time>2018-05-19T12:17:46.876Z</time>
      </trkpt>
      <trkpt lat="43.10915833" lon="-4.15167333">
        <ele>771.0</ele>
        <time>2018-05-19T12:17:47.862Z</time>
      </trkpt>
      <trkpt lat="43.10915833" lon="-4.15167333">
        <ele>771.0</ele>
        <time>2018-05-19T12:17:48.855Z</time>
      </trkpt>
      <trkpt lat="43.109135" lon="-4.15168667">
        <ele>772.0</ele>
        <time>2018-05-19T12:17:49.862Z</time>
      </trkpt>
      <trkpt lat="43.10912667" lon="-4.15169333">
        <ele>772.0</ele>
        <time>2018-05-19T12:17:50.864Z</time>
      </trkpt>
      <trkpt lat="43.10912667" lon="-4.15169333">
        <ele>772.0</ele>
        <time>2018-05-19T12:17:51.873Z</time>
      </trkpt>
      <trkpt lat="43.10910833" lon="-4.15170833">
        <ele>772.0</ele>
        <time>2018-05-19T12:17:52.864Z</time>
      </trkpt>
      <trkpt lat="43.10910833" lon="-4.15171833">
        <ele>772.0</ele>
        <time>2018-05-19T12:17:53.856Z</time>
      </trkpt>
      <trkpt lat="43.10910833" lon="-4.15171833">
        <ele>772.0</ele>
        <time>2018-05-19T12:17:54.861Z</time>
      </trkpt>
      <trkpt lat="43.10909667" lon="-4.15173667">
        <ele>773.0</ele>
        <time>2018-05-19T12:17:55.864Z</time>
      </trkpt>
      <trkpt lat="43.10909167" lon="-4.15175833">
        <ele>773.0</ele>
        <time>2018-05-19T12:17:56.865Z</time>
      </trkpt>
      <trkpt lat="43.10909167" lon="-4.15175833">
        <ele>773.0</ele>
        <time>2018-05-19T12:17:57.854Z</time>
      </trkpt>
      <trkpt lat="43.109065" lon="-4.15178167">
        <ele>773.0</ele>
        <time>2018-05-19T12:17:58.862Z</time>
      </trkpt>
      <trkpt lat="43.109065" lon="-4.15178167">
        <ele>773.0</ele>
        <time>2018-05-19T12:17:59.855Z</time>
      </trkpt>
      <trkpt lat="43.10901833" lon="-4.15179167">
        <ele>773.0</ele>
        <time>2018-05-19T12:18:00.864Z</time>
      </trkpt>
      <trkpt lat="43.10901833" lon="-4.15179167">
        <ele>773.0</ele>
        <time>2018-05-19T12:18:01.852Z</time>
      </trkpt>
      <trkpt lat="43.10898667" lon="-4.15181">
        <ele>773.0</ele>
        <time>2018-05-19T12:18:02.873Z</time>
      </trkpt>
      <trkpt lat="43.10898667" lon="-4.15181">
        <ele>773.0</ele>
        <time>2018-05-19T12:18:03.861Z</time>
      </trkpt>
      <trkpt lat="43.10895667" lon="-4.15181833">
        <ele>774.0</ele>
        <time>2018-05-19T12:18:04.862Z</time>
      </trkpt>
      <trkpt lat="43.10894667" lon="-4.15182333">
        <ele>774.0</ele>
        <time>2018-05-19T12:18:05.862Z</time>
      </trkpt>
      <trkpt lat="43.108935" lon="-4.15182667">
        <ele>774.0</ele>
        <time>2018-05-19T12:18:06.864Z</time>
      </trkpt>
      <trkpt lat="43.108935" lon="-4.15182667">
        <ele>774.0</ele>
        <time>2018-05-19T12:18:07.861Z</time>
      </trkpt>
      <trkpt lat="43.10890667" lon="-4.15184167">
        <ele>774.0</ele>
        <time>2018-05-19T12:18:08.862Z</time>
      </trkpt>
      <trkpt lat="43.108905" lon="-4.15185333">
        <ele>774.0</ele>
        <time>2018-05-19T12:18:09.855Z</time>
      </trkpt>
      <trkpt lat="43.108905" lon="-4.15185333">
        <ele>774.0</ele>
        <time>2018-05-19T12:18:10.853Z</time>
      </trkpt>
      <trkpt lat="43.108885" lon="-4.15188667">
        <ele>774.0</ele>
        <time>2018-05-19T12:18:11.862Z</time>
      </trkpt>
      <trkpt lat="43.10886667" lon="-4.15189833">
        <ele>774.0</ele>
        <time>2018-05-19T12:18:12.864Z</time>
      </trkpt>
      <trkpt lat="43.10886667" lon="-4.15189833">
        <ele>774.0</ele>
        <time>2018-05-19T12:18:13.855Z</time>
      </trkpt>
      <trkpt lat="43.10884667" lon="-4.15191833">
        <ele>774.0</ele>
        <time>2018-05-19T12:18:14.864Z</time>
      </trkpt>
      <trkpt lat="43.10884667" lon="-4.15191833">
        <ele>774.0</ele>
        <time>2018-05-19T12:18:15.856Z</time>
      </trkpt>
      <trkpt lat="43.10882833" lon="-4.15194667">
        <ele>775.0</ele>
        <time>2018-05-19T12:18:16.862Z</time>
      </trkpt>
      <trkpt lat="43.10882833" lon="-4.15194667">
        <ele>775.0</ele>
        <time>2018-05-19T12:18:17.855Z</time>
      </trkpt>
      <trkpt lat="43.10880333" lon="-4.15197167">
        <ele>775.0</ele>
        <time>2018-05-19T12:18:18.881Z</time>
      </trkpt>
      <trkpt lat="43.10880333" lon="-4.15197167">
        <ele>775.0</ele>
        <time>2018-05-19T12:18:19.865Z</time>
      </trkpt>
      <trkpt lat="43.10878167" lon="-4.152">
        <ele>775.0</ele>
        <time>2018-05-19T12:18:20.865Z</time>
      </trkpt>
      <trkpt lat="43.10878167" lon="-4.152">
        <ele>775.0</ele>
        <time>2018-05-19T12:18:21.883Z</time>
      </trkpt>
      <trkpt lat="43.10875333" lon="-4.15200833">
        <ele>775.0</ele>
        <time>2018-05-19T12:18:22.863Z</time>
      </trkpt>
      <trkpt lat="43.108725" lon="-4.15201667">
        <ele>775.0</ele>
        <time>2018-05-19T12:18:23.858Z</time>
      </trkpt>
      <trkpt lat="43.10871333" lon="-4.15203">
        <ele>776.0</ele>
        <time>2018-05-19T12:18:24.864Z</time>
      </trkpt>
      <trkpt lat="43.10871333" lon="-4.15203">
        <ele>776.0</ele>
        <time>2018-05-19T12:18:25.862Z</time>
      </trkpt>
      <trkpt lat="43.108665" lon="-4.15204333">
        <ele>776.0</ele>
        <time>2018-05-19T12:18:26.862Z</time>
      </trkpt>
      <trkpt lat="43.108665" lon="-4.15204333">
        <ele>776.0</ele>
        <time>2018-05-19T12:18:27.855Z</time>
      </trkpt>
      <trkpt lat="43.10864167" lon="-4.152075">
        <ele>776.0</ele>
        <time>2018-05-19T12:18:28.862Z</time>
      </trkpt>
      <trkpt lat="43.108625" lon="-4.15208833">
        <ele>777.0</ele>
        <time>2018-05-19T12:18:29.856Z</time>
      </trkpt>
      <trkpt lat="43.108625" lon="-4.15208833">
        <ele>777.0</ele>
        <time>2018-05-19T12:18:30.856Z</time>
      </trkpt>
      <trkpt lat="43.10861167" lon="-4.15214">
        <ele>777.0</ele>
        <time>2018-05-19T12:18:31.863Z</time>
      </trkpt>
      <trkpt lat="43.10861167" lon="-4.15214">
        <ele>777.0</ele>
        <time>2018-05-19T12:18:32.855Z</time>
      </trkpt>
      <trkpt lat="43.1086" lon="-4.15219">
        <ele>777.0</ele>
        <time>2018-05-19T12:18:33.880Z</time>
      </trkpt>
      <trkpt lat="43.1086" lon="-4.15219">
        <ele>777.0</ele>
        <time>2018-05-19T12:18:34.862Z</time>
      </trkpt>
      <trkpt lat="43.10858833" lon="-4.15223167">
        <ele>777.0</ele>
        <time>2018-05-19T12:18:35.863Z</time>
      </trkpt>
      <trkpt lat="43.10858833" lon="-4.15223167">
        <ele>777.0</ele>
        <time>2018-05-19T12:18:36.856Z</time>
      </trkpt>
      <trkpt lat="43.10857167" lon="-4.15226833">
        <ele>778.0</ele>
        <time>2018-05-19T12:18:37.863Z</time>
      </trkpt>
      <trkpt lat="43.10852167" lon="-4.15229833">
        <ele>776.0</ele>
        <time>2018-05-19T12:18:38.864Z</time>
      </trkpt>
      <trkpt lat="43.10852167" lon="-4.15229833">
        <ele>776.0</ele>
        <time>2018-05-19T12:18:39.855Z</time>
      </trkpt>
      <trkpt lat="43.10850333" lon="-4.15232833">
        <ele>777.0</ele>
        <time>2018-05-19T12:18:40.862Z</time>
      </trkpt>
      <trkpt lat="43.10850333" lon="-4.15232833">
        <ele>777.0</ele>
        <time>2018-05-19T12:18:41.853Z</time>
      </trkpt>
      <trkpt lat="43.10849" lon="-4.15235">
        <ele>777.0</ele>
        <time>2018-05-19T12:18:42.873Z</time>
      </trkpt>
      <trkpt lat="43.10849" lon="-4.15235">
        <ele>777.0</ele>
        <time>2018-05-19T12:18:43.860Z</time>
      </trkpt>
      <trkpt lat="43.10848167" lon="-4.15238333">
        <ele>778.0</ele>
        <time>2018-05-19T12:18:44.855Z</time>
      </trkpt>
      <trkpt lat="43.10848167" lon="-4.15238333">
        <ele>778.0</ele>
        <time>2018-05-19T12:18:45.874Z</time>
      </trkpt>
      <trkpt lat="43.10846333" lon="-4.15241167">
        <ele>778.0</ele>
        <time>2018-05-19T12:18:46.879Z</time>
      </trkpt>
      <trkpt lat="43.10844667" lon="-4.15242833">
        <ele>779.0</ele>
        <time>2018-05-19T12:18:47.873Z</time>
      </trkpt>
      <trkpt lat="43.10844667" lon="-4.15242833">
        <ele>779.0</ele>
        <time>2018-05-19T12:18:48.861Z</time>
      </trkpt>
      <trkpt lat="43.10843833" lon="-4.15246167">
        <ele>779.0</ele>
        <time>2018-05-19T12:18:49.865Z</time>
      </trkpt>
      <trkpt lat="43.108425" lon="-4.15248">
        <ele>779.0</ele>
        <time>2018-05-19T12:18:50.864Z</time>
      </trkpt>
      <trkpt lat="43.108425" lon="-4.15248">
        <ele>779.0</ele>
        <time>2018-05-19T12:18:51.867Z</time>
      </trkpt>
      <trkpt lat="43.10842" lon="-4.15251667">
        <ele>780.0</ele>
        <time>2018-05-19T12:18:52.858Z</time>
      </trkpt>
      <trkpt lat="43.108415" lon="-4.15253">
        <ele>780.0</ele>
        <time>2018-05-19T12:18:53.862Z</time>
      </trkpt>
      <trkpt lat="43.10841333" lon="-4.15255">
        <ele>780.0</ele>
        <time>2018-05-19T12:18:54.865Z</time>
      </trkpt>
      <trkpt lat="43.10841333" lon="-4.15255">
        <ele>780.0</ele>
        <time>2018-05-19T12:18:55.852Z</time>
      </trkpt>
      <trkpt lat="43.10841333" lon="-4.15258">
        <ele>781.0</ele>
        <time>2018-05-19T12:18:56.864Z</time>
      </trkpt>
      <trkpt lat="43.10841333" lon="-4.15258">
        <ele>781.0</ele>
        <time>2018-05-19T12:18:57.860Z</time>
      </trkpt>
      <trkpt lat="43.108355" lon="-4.15261">
        <ele>782.0</ele>
        <time>2018-05-19T12:18:58.860Z</time>
      </trkpt>
      <trkpt lat="43.10833667" lon="-4.152625">
        <ele>782.0</ele>
        <time>2018-05-19T12:18:59.863Z</time>
      </trkpt>
      <trkpt lat="43.10831667" lon="-4.152635">
        <ele>782.0</ele>
        <time>2018-05-19T12:19:00.862Z</time>
      </trkpt>
      <trkpt lat="43.10831667" lon="-4.152635">
        <ele>782.0</ele>
        <time>2018-05-19T12:19:01.855Z</time>
      </trkpt>
      <trkpt lat="43.10827833" lon="-4.15265833">
        <ele>783.0</ele>
        <time>2018-05-19T12:19:02.874Z</time>
      </trkpt>
      <trkpt lat="43.10828333" lon="-4.15268167">
        <ele>783.0</ele>
        <time>2018-05-19T12:19:03.860Z</time>
      </trkpt>
      <trkpt lat="43.10828667" lon="-4.15270167">
        <ele>783.0</ele>
        <time>2018-05-19T12:19:04.864Z</time>
      </trkpt>
      <trkpt lat="43.10828667" lon="-4.15270167">
        <ele>783.0</ele>
        <time>2018-05-19T12:19:05.855Z</time>
      </trkpt>
      <trkpt lat="43.10829667" lon="-4.15274167">
        <ele>784.0</ele>
        <time>2018-05-19T12:19:06.865Z</time>
      </trkpt>
      <trkpt lat="43.10829667" lon="-4.15274167">
        <ele>784.0</ele>
        <time>2018-05-19T12:19:07.861Z</time>
      </trkpt>
      <trkpt lat="43.10828167" lon="-4.15277333">
        <ele>785.0</ele>
        <time>2018-05-19T12:19:08.861Z</time>
      </trkpt>
      <trkpt lat="43.10827667" lon="-4.15278167">
        <ele>785.0</ele>
        <time>2018-05-19T12:19:09.862Z</time>
      </trkpt>
      <trkpt lat="43.108275" lon="-4.15278833">
        <ele>785.0</ele>
        <time>2018-05-19T12:19:10.863Z</time>
      </trkpt>
      <trkpt lat="43.10824167" lon="-4.15284667">
        <ele>787.0</ele>
        <time>2018-05-19T12:19:11.863Z</time>
      </trkpt>
      <trkpt lat="43.10824167" lon="-4.15284667">
        <ele>787.0</ele>
        <time>2018-05-19T12:19:12.848Z</time>
      </trkpt>
      <trkpt lat="43.10818333" lon="-4.15288333">
        <ele>788.0</ele>
        <time>2018-05-19T12:19:13.851Z</time>
      </trkpt>
      <trkpt lat="43.10815333" lon="-4.15289833">
        <ele>788.0</ele>
        <time>2018-05-19T12:19:14.877Z</time>
      </trkpt>
      <trkpt lat="43.10815333" lon="-4.15289833">
        <ele>788.0</ele>
        <time>2018-05-19T12:19:15.862Z</time>
      </trkpt>
      <trkpt lat="43.10809833" lon="-4.15292167">
        <ele>789.0</ele>
        <time>2018-05-19T12:19:16.850Z</time>
      </trkpt>
      <trkpt lat="43.10806833" lon="-4.152925">
        <ele>789.0</ele>
        <time>2018-05-19T12:19:17.845Z</time>
      </trkpt>
      <trkpt lat="43.10806833" lon="-4.152925">
        <ele>789.0</ele>
        <time>2018-05-19T12:19:18.876Z</time>
      </trkpt>
      <trkpt lat="43.10803167" lon="-4.15294167">
        <ele>790.0</ele>
        <time>2018-05-19T12:19:19.883Z</time>
      </trkpt>
      <trkpt lat="43.10803167" lon="-4.15294167">
        <ele>790.0</ele>
        <time>2018-05-19T12:19:20.876Z</time>
      </trkpt>
      <trkpt lat="43.10799333" lon="-4.152955">
        <ele>791.0</ele>
        <time>2018-05-19T12:19:21.861Z</time>
      </trkpt>
      <trkpt lat="43.10799333" lon="-4.152955">
        <ele>791.0</ele>
        <time>2018-05-19T12:19:22.861Z</time>
      </trkpt>
      <trkpt lat="43.107955" lon="-4.15297833">
        <ele>791.0</ele>
        <time>2018-05-19T12:19:23.845Z</time>
      </trkpt>
      <trkpt lat="43.107955" lon="-4.15297833">
        <ele>791.0</ele>
        <time>2018-05-19T12:19:24.875Z</time>
      </trkpt>
      <trkpt lat="43.10792667" lon="-4.153005">
        <ele>792.0</ele>
        <time>2018-05-19T12:19:25.876Z</time>
      </trkpt>
      <trkpt lat="43.10792667" lon="-4.153005">
        <ele>792.0</ele>
        <time>2018-05-19T12:19:26.873Z</time>
      </trkpt>
      <trkpt lat="43.10791333" lon="-4.15304167">
        <ele>793.0</ele>
        <time>2018-05-19T12:19:27.882Z</time>
      </trkpt>
      <trkpt lat="43.10791333" lon="-4.15304167">
        <ele>793.0</ele>
        <time>2018-05-19T12:19:28.853Z</time>
      </trkpt>
      <trkpt lat="43.10790667" lon="-4.15306833">
        <ele>794.0</ele>
        <time>2018-05-19T12:19:29.878Z</time>
      </trkpt>
      <trkpt lat="43.10790667" lon="-4.15306833">
        <ele>794.0</ele>
        <time>2018-05-19T12:19:30.882Z</time>
      </trkpt>
      <trkpt lat="43.107865" lon="-4.15309833">
        <ele>795.0</ele>
        <time>2018-05-19T12:19:31.844Z</time>
      </trkpt>
      <trkpt lat="43.107865" lon="-4.15309833">
        <ele>795.0</ele>
        <time>2018-05-19T12:19:32.876Z</time>
      </trkpt>
      <trkpt lat="43.10784333" lon="-4.15312833">
        <ele>796.0</ele>
        <time>2018-05-19T12:19:33.844Z</time>
      </trkpt>
      <trkpt lat="43.10784333" lon="-4.15312833">
        <ele>796.0</ele>
        <time>2018-05-19T12:19:34.876Z</time>
      </trkpt>
      <trkpt lat="43.10782667" lon="-4.15315833">
        <ele>797.0</ele>
        <time>2018-05-19T12:19:35.844Z</time>
      </trkpt>
      <trkpt lat="43.10782667" lon="-4.15315833">
        <ele>797.0</ele>
        <time>2018-05-19T12:19:36.875Z</time>
      </trkpt>
      <trkpt lat="43.107815" lon="-4.15318667">
        <ele>798.0</ele>
        <time>2018-05-19T12:19:37.875Z</time>
      </trkpt>
      <trkpt lat="43.10781333" lon="-4.15319833">
        <ele>798.0</ele>
        <time>2018-05-19T12:19:38.881Z</time>
      </trkpt>
      <trkpt lat="43.10781333" lon="-4.15319833">
        <ele>798.0</ele>
        <time>2018-05-19T12:19:39.876Z</time>
      </trkpt>
      <trkpt lat="43.10778667" lon="-4.15321167">
        <ele>799.0</ele>
        <time>2018-05-19T12:19:40.844Z</time>
      </trkpt>
      <trkpt lat="43.10776833" lon="-4.15321667">
        <ele>799.0</ele>
        <time>2018-05-19T12:19:41.883Z</time>
      </trkpt>
      <trkpt lat="43.10776833" lon="-4.15321667">
        <ele>799.0</ele>
        <time>2018-05-19T12:19:42.873Z</time>
      </trkpt>
      <trkpt lat="43.10771667" lon="-4.153225">
        <ele>800.0</ele>
        <time>2018-05-19T12:19:43.844Z</time>
      </trkpt>
      <trkpt lat="43.10771667" lon="-4.153225">
        <ele>800.0</ele>
        <time>2018-05-19T12:19:44.876Z</time>
      </trkpt>
      <trkpt lat="43.10766167" lon="-4.15323167">
        <ele>801.0</ele>
        <time>2018-05-19T12:19:45.854Z</time>
      </trkpt>
      <trkpt lat="43.10763667" lon="-4.15323">
        <ele>801.0</ele>
        <time>2018-05-19T12:19:46.882Z</time>
      </trkpt>
      <trkpt lat="43.10761833" lon="-4.15323167">
        <ele>802.0</ele>
        <time>2018-05-19T12:19:47.849Z</time>
      </trkpt>
      <trkpt lat="43.10761833" lon="-4.15323167">
        <ele>802.0</ele>
        <time>2018-05-19T12:19:48.881Z</time>
      </trkpt>
      <trkpt lat="43.10759167" lon="-4.15322833">
        <ele>803.0</ele>
        <time>2018-05-19T12:19:49.883Z</time>
      </trkpt>
      <trkpt lat="43.10759167" lon="-4.15322833">
        <ele>803.0</ele>
        <time>2018-05-19T12:19:50.882Z</time>
      </trkpt>
      <trkpt lat="43.10757333" lon="-4.15321667">
        <ele>803.0</ele>
        <time>2018-05-19T12:19:51.855Z</time>
      </trkpt>
      <trkpt lat="43.10757333" lon="-4.15321667">
        <ele>803.0</ele>
        <time>2018-05-19T12:19:52.882Z</time>
      </trkpt>
      <trkpt lat="43.107555" lon="-4.15319667">
        <ele>804.0</ele>
        <time>2018-05-19T12:19:53.844Z</time>
      </trkpt>
      <trkpt lat="43.107555" lon="-4.15319667">
        <ele>804.0</ele>
        <time>2018-05-19T12:19:54.876Z</time>
      </trkpt>
      <trkpt lat="43.10751167" lon="-4.15316833">
        <ele>805.0</ele>
        <time>2018-05-19T12:19:55.882Z</time>
      </trkpt>
      <trkpt lat="43.10748167" lon="-4.15315667">
        <ele>805.0</ele>
        <time>2018-05-19T12:19:56.881Z</time>
      </trkpt>
      <trkpt lat="43.10746167" lon="-4.15314167">
        <ele>805.0</ele>
        <time>2018-05-19T12:19:57.844Z</time>
      </trkpt>
      <trkpt lat="43.10746167" lon="-4.15314167">
        <ele>805.0</ele>
        <time>2018-05-19T12:19:58.882Z</time>
      </trkpt>
      <trkpt lat="43.10741" lon="-4.153115">
        <ele>806.0</ele>
        <time>2018-05-19T12:19:59.845Z</time>
      </trkpt>
      <trkpt lat="43.10741" lon="-4.153115">
        <ele>806.0</ele>
        <time>2018-05-19T12:20:00.873Z</time>
      </trkpt>
      <trkpt lat="43.107355" lon="-4.15308667">
        <ele>806.0</ele>
        <time>2018-05-19T12:20:01.859Z</time>
      </trkpt>
      <trkpt lat="43.107355" lon="-4.15308667">
        <ele>806.0</ele>
        <time>2018-05-19T12:20:02.881Z</time>
      </trkpt>
      <trkpt lat="43.10730333" lon="-4.15306">
        <ele>806.0</ele>
        <time>2018-05-19T12:20:03.883Z</time>
      </trkpt>
      <trkpt lat="43.10730333" lon="-4.15306">
        <ele>806.0</ele>
        <time>2018-05-19T12:20:04.874Z</time>
      </trkpt>
      <trkpt lat="43.107215" lon="-4.15303">
        <ele>806.0</ele>
        <time>2018-05-19T12:20:05.883Z</time>
      </trkpt>
      <trkpt lat="43.107215" lon="-4.15303">
        <ele>806.0</ele>
        <time>2018-05-19T12:20:06.876Z</time>
      </trkpt>
      <trkpt lat="43.107055" lon="-4.15299833">
        <ele>802.0</ele>
        <time>2018-05-19T12:20:07.883Z</time>
      </trkpt>
      <trkpt lat="43.107055" lon="-4.15299833">
        <ele>802.0</ele>
        <time>2018-05-19T12:20:08.844Z</time>
      </trkpt>
      <trkpt lat="43.10695167" lon="-4.15296667">
        <ele>800.0</ele>
        <time>2018-05-19T12:20:09.881Z</time>
      </trkpt>
      <trkpt lat="43.10695167" lon="-4.15296667">
        <ele>800.0</ele>
        <time>2018-05-19T12:20:10.875Z</time>
      </trkpt>
      <trkpt lat="43.1069" lon="-4.15292833">
        <ele>799.0</ele>
        <time>2018-05-19T12:20:11.878Z</time>
      </trkpt>
      <trkpt lat="43.1069" lon="-4.15292833">
        <ele>799.0</ele>
        <time>2018-05-19T12:20:12.874Z</time>
      </trkpt>
      <trkpt lat="43.10688667" lon="-4.15289">
        <ele>799.0</ele>
        <time>2018-05-19T12:20:13.883Z</time>
      </trkpt>
      <trkpt lat="43.10688667" lon="-4.15289">
        <ele>799.0</ele>
        <time>2018-05-19T12:20:14.876Z</time>
      </trkpt>
      <trkpt lat="43.10685167" lon="-4.15285167">
        <ele>798.0</ele>
        <time>2018-05-19T12:20:15.860Z</time>
      </trkpt>
      <trkpt lat="43.10685167" lon="-4.15285167">
        <ele>798.0</ele>
        <time>2018-05-19T12:20:16.844Z</time>
      </trkpt>
      <trkpt lat="43.10682" lon="-4.15281667">
        <ele>797.0</ele>
        <time>2018-05-19T12:20:17.844Z</time>
      </trkpt>
      <trkpt lat="43.10682" lon="-4.15281667">
        <ele>797.0</ele>
        <time>2018-05-19T12:20:18.876Z</time>
      </trkpt>
      <trkpt lat="43.106735" lon="-4.152785">
        <ele>794.0</ele>
        <time>2018-05-19T12:20:19.853Z</time>
      </trkpt>
      <trkpt lat="43.106735" lon="-4.152785">
        <ele>794.0</ele>
        <time>2018-05-19T12:20:20.880Z</time>
      </trkpt>
      <trkpt lat="43.106715" lon="-4.15271833">
        <ele>794.0</ele>
        <time>2018-05-19T12:20:21.854Z</time>
      </trkpt>
      <trkpt lat="43.106715" lon="-4.15271833">
        <ele>794.0</ele>
        <time>2018-05-19T12:20:22.876Z</time>
      </trkpt>
      <trkpt lat="43.106705" lon="-4.15266">
        <ele>793.0</ele>
        <time>2018-05-19T12:20:23.882Z</time>
      </trkpt>
      <trkpt lat="43.106705" lon="-4.15266">
        <ele>793.0</ele>
        <time>2018-05-19T12:20:24.882Z</time>
      </trkpt>
      <trkpt lat="43.10666833" lon="-4.15259333">
        <ele>792.0</ele>
        <time>2018-05-19T12:20:25.882Z</time>
      </trkpt>
      <trkpt lat="43.10666833" lon="-4.15259333">
        <ele>792.0</ele>
        <time>2018-05-19T12:20:26.882Z</time>
      </trkpt>
      <trkpt lat="43.10665333" lon="-4.15253833">
        <ele>792.0</ele>
        <time>2018-05-19T12:20:27.844Z</time>
      </trkpt>
      <trkpt lat="43.10665333" lon="-4.15253833">
        <ele>792.0</ele>
        <time>2018-05-19T12:20:28.879Z</time>
      </trkpt>
      <trkpt lat="43.10664667" lon="-4.15248">
        <ele>791.0</ele>
        <time>2018-05-19T12:20:29.845Z</time>
      </trkpt>
      <trkpt lat="43.10664667" lon="-4.15248">
        <ele>791.0</ele>
        <time>2018-05-19T12:20:30.875Z</time>
      </trkpt>
      <trkpt lat="43.10664833" lon="-4.15242167">
        <ele>791.0</ele>
        <time>2018-05-19T12:20:31.882Z</time>
      </trkpt>
      <trkpt lat="43.106645" lon="-4.152395">
        <ele>791.0</ele>
        <time>2018-05-19T12:20:32.881Z</time>
      </trkpt>
      <trkpt lat="43.106635" lon="-4.152365">
        <ele>791.0</ele>
        <time>2018-05-19T12:20:33.845Z</time>
      </trkpt>
      <trkpt lat="43.106635" lon="-4.152365">
        <ele>791.0</ele>
        <time>2018-05-19T12:20:34.875Z</time>
      </trkpt>
      <trkpt lat="43.10661667" lon="-4.15230667">
        <ele>790.0</ele>
        <time>2018-05-19T12:20:35.876Z</time>
      </trkpt>
      <trkpt lat="43.10661667" lon="-4.15230667">
        <ele>790.0</ele>
        <time>2018-05-19T12:20:36.876Z</time>
      </trkpt>
      <trkpt lat="43.10659667" lon="-4.15225667">
        <ele>790.0</ele>
        <time>2018-05-19T12:20:37.883Z</time>
      </trkpt>
      <trkpt lat="43.10659667" lon="-4.15225667">
        <ele>790.0</ele>
        <time>2018-05-19T12:20:38.876Z</time>
      </trkpt>
      <trkpt lat="43.10657167" lon="-4.15221">
        <ele>790.0</ele>
        <time>2018-05-19T12:20:39.855Z</time>
      </trkpt>
      <trkpt lat="43.10657167" lon="-4.15221">
        <ele>790.0</ele>
        <time>2018-05-19T12:20:40.882Z</time>
      </trkpt>
      <trkpt lat="43.10653667" lon="-4.15216333">
        <ele>791.0</ele>
        <time>2018-05-19T12:20:41.883Z</time>
      </trkpt>
      <trkpt lat="43.10653667" lon="-4.15216333">
        <ele>791.0</ele>
        <time>2018-05-19T12:20:42.875Z</time>
      </trkpt>
      <trkpt lat="43.10652" lon="-4.152125">
        <ele>791.0</ele>
        <time>2018-05-19T12:20:43.882Z</time>
      </trkpt>
      <trkpt lat="43.10652" lon="-4.152125">
        <ele>791.0</ele>
        <time>2018-05-19T12:20:44.872Z</time>
      </trkpt>
      <trkpt lat="43.10651" lon="-4.15207">
        <ele>791.0</ele>
        <time>2018-05-19T12:20:45.856Z</time>
      </trkpt>
      <trkpt lat="43.10652" lon="-4.15204333">
        <ele>790.0</ele>
        <time>2018-05-19T12:20:46.849Z</time>
      </trkpt>
      <trkpt lat="43.10652" lon="-4.15204333">
        <ele>790.0</ele>
        <time>2018-05-19T12:20:47.855Z</time>
      </trkpt>
      <trkpt lat="43.10651167" lon="-4.15199">
        <ele>790.0</ele>
        <time>2018-05-19T12:20:48.868Z</time>
      </trkpt>
      <trkpt lat="43.10651167" lon="-4.15199">
        <ele>790.0</ele>
        <time>2018-05-19T12:20:49.875Z</time>
      </trkpt>
      <trkpt lat="43.10650167" lon="-4.15194">
        <ele>790.0</ele>
        <time>2018-05-19T12:20:50.881Z</time>
      </trkpt>
      <trkpt lat="43.106495" lon="-4.15191333">
        <ele>790.0</ele>
        <time>2018-05-19T12:20:51.845Z</time>
      </trkpt>
      <trkpt lat="43.106495" lon="-4.15191333">
        <ele>790.0</ele>
        <time>2018-05-19T12:20:52.875Z</time>
      </trkpt>
      <trkpt lat="43.10644667" lon="-4.15185833">
        <ele>790.0</ele>
        <time>2018-05-19T12:20:53.875Z</time>
      </trkpt>
      <trkpt lat="43.10644667" lon="-4.15185833">
        <ele>790.0</ele>
        <time>2018-05-19T12:20:54.879Z</time>
      </trkpt>
      <trkpt lat="43.10642167" lon="-4.15181">
        <ele>790.0</ele>
        <time>2018-05-19T12:20:55.860Z</time>
      </trkpt>
      <trkpt lat="43.10642167" lon="-4.15181">
        <ele>790.0</ele>
        <time>2018-05-19T12:20:56.882Z</time>
      </trkpt>
      <trkpt lat="43.10639667" lon="-4.15176667">
        <ele>790.0</ele>
        <time>2018-05-19T12:20:57.846Z</time>
      </trkpt>
      <trkpt lat="43.10639333" lon="-4.151745">
        <ele>790.0</ele>
        <time>2018-05-19T12:20:58.845Z</time>
      </trkpt>
      <trkpt lat="43.10639333" lon="-4.151745">
        <ele>790.0</ele>
        <time>2018-05-19T12:20:59.876Z</time>
      </trkpt>
      <trkpt lat="43.10638" lon="-4.15169333">
        <ele>790.0</ele>
        <time>2018-05-19T12:21:00.851Z</time>
      </trkpt>
      <trkpt lat="43.10638" lon="-4.15169333">
        <ele>790.0</ele>
        <time>2018-05-19T12:21:01.875Z</time>
      </trkpt>
      <trkpt lat="43.10636167" lon="-4.15164333">
        <ele>790.0</ele>
        <time>2018-05-19T12:21:02.882Z</time>
      </trkpt>
      <trkpt lat="43.10636167" lon="-4.151615">
        <ele>790.0</ele>
        <time>2018-05-19T12:21:03.881Z</time>
      </trkpt>
      <trkpt lat="43.10636167" lon="-4.151615">
        <ele>790.0</ele>
        <time>2018-05-19T12:21:04.883Z</time>
      </trkpt>
      <trkpt lat="43.10635667" lon="-4.15156667">
        <ele>790.0</ele>
        <time>2018-05-19T12:21:05.883Z</time>
      </trkpt>
      <trkpt lat="43.10635667" lon="-4.15156667">
        <ele>790.0</ele>
        <time>2018-05-19T12:21:06.876Z</time>
      </trkpt>
      <trkpt lat="43.10636333" lon="-4.151515">
        <ele>790.0</ele>
        <time>2018-05-19T12:21:07.878Z</time>
      </trkpt>
      <trkpt lat="43.10636333" lon="-4.151515">
        <ele>790.0</ele>
        <time>2018-05-19T12:21:08.880Z</time>
      </trkpt>
      <trkpt lat="43.10635667" lon="-4.151465">
        <ele>790.0</ele>
        <time>2018-05-19T12:21:09.846Z</time>
      </trkpt>
      <trkpt lat="43.106355" lon="-4.15144">
        <ele>790.0</ele>
        <time>2018-05-19T12:21:10.854Z</time>
      </trkpt>
      <trkpt lat="43.106355" lon="-4.15144">
        <ele>790.0</ele>
        <time>2018-05-19T12:21:11.875Z</time>
      </trkpt>
      <trkpt lat="43.10635" lon="-4.15138">
        <ele>790.0</ele>
        <time>2018-05-19T12:21:12.883Z</time>
      </trkpt>
      <trkpt lat="43.10634" lon="-4.151355">
        <ele>790.0</ele>
        <time>2018-05-19T12:21:13.883Z</time>
      </trkpt>
      <trkpt lat="43.10634" lon="-4.151355">
        <ele>790.0</ele>
        <time>2018-05-19T12:21:14.873Z</time>
      </trkpt>
      <trkpt lat="43.10634" lon="-4.15130333">
        <ele>790.0</ele>
        <time>2018-05-19T12:21:15.860Z</time>
      </trkpt>
      <trkpt lat="43.10634" lon="-4.15130333">
        <ele>790.0</ele>
        <time>2018-05-19T12:21:16.873Z</time>
      </trkpt>
      <trkpt lat="43.10634333" lon="-4.15125">
        <ele>789.0</ele>
        <time>2018-05-19T12:21:17.844Z</time>
      </trkpt>
      <trkpt lat="43.10634333" lon="-4.15125">
        <ele>789.0</ele>
        <time>2018-05-19T12:21:18.880Z</time>
      </trkpt>
      <trkpt lat="43.10631167" lon="-4.15119667">
        <ele>788.0</ele>
        <time>2018-05-19T12:21:19.882Z</time>
      </trkpt>
      <trkpt lat="43.10631167" lon="-4.15119667">
        <ele>788.0</ele>
        <time>2018-05-19T12:21:20.871Z</time>
      </trkpt>
      <trkpt lat="43.10627333" lon="-4.15114667">
        <ele>787.0</ele>
        <time>2018-05-19T12:21:21.882Z</time>
      </trkpt>
      <trkpt lat="43.10627333" lon="-4.15114667">
        <ele>787.0</ele>
        <time>2018-05-19T12:21:22.855Z</time>
      </trkpt>
      <trkpt lat="43.106235" lon="-4.151095">
        <ele>787.0</ele>
        <time>2018-05-19T12:21:23.844Z</time>
      </trkpt>
      <trkpt lat="43.106235" lon="-4.151095">
        <ele>787.0</ele>
        <time>2018-05-19T12:21:24.875Z</time>
      </trkpt>
      <trkpt lat="43.10614667" lon="-4.15103833">
        <ele>787.0</ele>
        <time>2018-05-19T12:21:25.882Z</time>
      </trkpt>
      <trkpt lat="43.10614667" lon="-4.15103833">
        <ele>787.0</ele>
        <time>2018-05-19T12:21:26.881Z</time>
      </trkpt>
      <trkpt lat="43.10606833" lon="-4.151">
        <ele>787.0</ele>
        <time>2018-05-19T12:21:27.845Z</time>
      </trkpt>
      <trkpt lat="43.10606833" lon="-4.151">
        <ele>787.0</ele>
        <time>2018-05-19T12:21:28.882Z</time>
      </trkpt>
      <trkpt lat="43.106005" lon="-4.150965">
        <ele>788.0</ele>
        <time>2018-05-19T12:21:29.883Z</time>
      </trkpt>
      <trkpt lat="43.106005" lon="-4.150965">
        <ele>788.0</ele>
        <time>2018-05-19T12:21:30.878Z</time>
      </trkpt>
      <trkpt lat="43.10594667" lon="-4.15093">
        <ele>788.0</ele>
        <time>2018-05-19T12:21:31.883Z</time>
      </trkpt>
      <trkpt lat="43.10594667" lon="-4.15093">
        <ele>788.0</ele>
        <time>2018-05-19T12:21:32.875Z</time>
      </trkpt>
      <trkpt lat="43.105895" lon="-4.15089167">
        <ele>788.0</ele>
        <time>2018-05-19T12:21:33.846Z</time>
      </trkpt>
      <trkpt lat="43.105895" lon="-4.15089167">
        <ele>788.0</ele>
        <time>2018-05-19T12:21:34.873Z</time>
      </trkpt>
      <trkpt lat="43.10585667" lon="-4.15084667">
        <ele>788.0</ele>
        <time>2018-05-19T12:21:35.858Z</time>
      </trkpt>
      <trkpt lat="43.10583167" lon="-4.15082167">
        <ele>788.0</ele>
        <time>2018-05-19T12:21:36.852Z</time>
      </trkpt>
      <trkpt lat="43.10583167" lon="-4.15082167">
        <ele>788.0</ele>
        <time>2018-05-19T12:21:37.880Z</time>
      </trkpt>
      <trkpt lat="43.105765" lon="-4.15076167">
        <ele>788.0</ele>
        <time>2018-05-19T12:21:38.844Z</time>
      </trkpt>
      <trkpt lat="43.10573667" lon="-4.15073333">
        <ele>788.0</ele>
        <time>2018-05-19T12:21:39.845Z</time>
      </trkpt>
      <trkpt lat="43.10573667" lon="-4.15073333">
        <ele>788.0</ele>
        <time>2018-05-19T12:21:40.844Z</time>
      </trkpt>
      <trkpt lat="43.105685" lon="-4.15068333">
        <ele>788.0</ele>
        <time>2018-05-19T12:21:41.878Z</time>
      </trkpt>
      <trkpt lat="43.105685" lon="-4.15068333">
        <ele>788.0</ele>
        <time>2018-05-19T12:21:42.881Z</time>
      </trkpt>
      <trkpt lat="43.10563833" lon="-4.15063">
        <ele>789.0</ele>
        <time>2018-05-19T12:21:43.883Z</time>
      </trkpt>
      <trkpt lat="43.10563833" lon="-4.15063">
        <ele>789.0</ele>
        <time>2018-05-19T12:21:44.881Z</time>
      </trkpt>
      <trkpt lat="43.10558333" lon="-4.15058667">
        <ele>789.0</ele>
        <time>2018-05-19T12:21:45.851Z</time>
      </trkpt>
      <trkpt lat="43.10556333" lon="-4.15056833">
        <ele>789.0</ele>
        <time>2018-05-19T12:21:46.851Z</time>
      </trkpt>
      <trkpt lat="43.10556333" lon="-4.15056833">
        <ele>789.0</ele>
        <time>2018-05-19T12:21:47.857Z</time>
      </trkpt>
      <trkpt lat="43.105525" lon="-4.15053333">
        <ele>790.0</ele>
        <time>2018-05-19T12:21:48.883Z</time>
      </trkpt>
      <trkpt lat="43.10550167" lon="-4.15051333">
        <ele>790.0</ele>
        <time>2018-05-19T12:21:49.883Z</time>
      </trkpt>
      <trkpt lat="43.10550167" lon="-4.15051333">
        <ele>790.0</ele>
        <time>2018-05-19T12:21:50.850Z</time>
      </trkpt>
      <trkpt lat="43.105475" lon="-4.15047667">
        <ele>790.0</ele>
        <time>2018-05-19T12:21:51.884Z</time>
      </trkpt>
      <trkpt lat="43.105475" lon="-4.15047667">
        <ele>790.0</ele>
        <time>2018-05-19T12:21:52.876Z</time>
      </trkpt>
      <trkpt lat="43.10542" lon="-4.15043667">
        <ele>790.0</ele>
        <time>2018-05-19T12:21:53.876Z</time>
      </trkpt>
      <trkpt lat="43.10542" lon="-4.15043667">
        <ele>790.0</ele>
        <time>2018-05-19T12:21:54.875Z</time>
      </trkpt>
      <trkpt lat="43.10537667" lon="-4.15041">
        <ele>790.0</ele>
        <time>2018-05-19T12:21:55.844Z</time>
      </trkpt>
      <trkpt lat="43.10536" lon="-4.15039833">
        <ele>790.0</ele>
        <time>2018-05-19T12:21:56.883Z</time>
      </trkpt>
      <trkpt lat="43.10533667" lon="-4.15038333">
        <ele>790.0</ele>
        <time>2018-05-19T12:21:57.844Z</time>
      </trkpt>
      <trkpt lat="43.10533667" lon="-4.15038333">
        <ele>790.0</ele>
        <time>2018-05-19T12:21:58.875Z</time>
      </trkpt>
      <trkpt lat="43.10528167" lon="-4.15034667">
        <ele>791.0</ele>
        <time>2018-05-19T12:21:59.854Z</time>
      </trkpt>
      <trkpt lat="43.10528167" lon="-4.15034667">
        <ele>791.0</ele>
        <time>2018-05-19T12:22:00.853Z</time>
      </trkpt>
      <trkpt lat="43.105235" lon="-4.150315">
        <ele>791.0</ele>
        <time>2018-05-19T12:22:01.844Z</time>
      </trkpt>
      <trkpt lat="43.105235" lon="-4.150315">
        <ele>791.0</ele>
        <time>2018-05-19T12:22:02.874Z</time>
      </trkpt>
      <trkpt lat="43.10518333" lon="-4.150275">
        <ele>791.0</ele>
        <time>2018-05-19T12:22:03.846Z</time>
      </trkpt>
      <trkpt lat="43.10518333" lon="-4.150275">
        <ele>791.0</ele>
        <time>2018-05-19T12:22:04.882Z</time>
      </trkpt>
      <trkpt lat="43.105135" lon="-4.15024667">
        <ele>792.0</ele>
        <time>2018-05-19T12:22:05.883Z</time>
      </trkpt>
      <trkpt lat="43.105135" lon="-4.15024667">
        <ele>792.0</ele>
        <time>2018-05-19T12:22:06.881Z</time>
      </trkpt>
      <trkpt lat="43.10508333" lon="-4.150215">
        <ele>792.0</ele>
        <time>2018-05-19T12:22:07.878Z</time>
      </trkpt>
      <trkpt lat="43.10505333" lon="-4.1502">
        <ele>792.0</ele>
        <time>2018-05-19T12:22:08.844Z</time>
      </trkpt>
      <trkpt lat="43.10505333" lon="-4.1502">
        <ele>792.0</ele>
        <time>2018-05-19T12:22:09.880Z</time>
      </trkpt>
      <trkpt lat="43.104995" lon="-4.150175">
        <ele>792.0</ele>
        <time>2018-05-19T12:22:10.844Z</time>
      </trkpt>
      <trkpt lat="43.10496833" lon="-4.15015833">
        <ele>792.0</ele>
        <time>2018-05-19T12:22:11.875Z</time>
      </trkpt>
      <trkpt lat="43.10496833" lon="-4.15015833">
        <ele>792.0</ele>
        <time>2018-05-19T12:22:12.872Z</time>
      </trkpt>
      <trkpt lat="43.10490667" lon="-4.15011333">
        <ele>793.0</ele>
        <time>2018-05-19T12:22:13.882Z</time>
      </trkpt>
      <trkpt lat="43.10490667" lon="-4.15011333">
        <ele>793.0</ele>
        <time>2018-05-19T12:22:14.874Z</time>
      </trkpt>
      <trkpt lat="43.10487" lon="-4.15007667">
        <ele>793.0</ele>
        <time>2018-05-19T12:22:15.882Z</time>
      </trkpt>
      <trkpt lat="43.10487" lon="-4.15007667">
        <ele>793.0</ele>
        <time>2018-05-19T12:22:16.874Z</time>
      </trkpt>
      <trkpt lat="43.10483" lon="-4.15004167">
        <ele>794.0</ele>
        <time>2018-05-19T12:22:17.875Z</time>
      </trkpt>
      <trkpt lat="43.10483" lon="-4.15004167">
        <ele>794.0</ele>
        <time>2018-05-19T12:22:18.880Z</time>
      </trkpt>
      <trkpt lat="43.10479167" lon="-4.15000333">
        <ele>794.0</ele>
        <time>2018-05-19T12:22:19.882Z</time>
      </trkpt>
      <trkpt lat="43.10476333" lon="-4.149985">
        <ele>794.0</ele>
        <time>2018-05-19T12:22:20.883Z</time>
      </trkpt>
      <trkpt lat="43.10476333" lon="-4.149985">
        <ele>794.0</ele>
        <time>2018-05-19T12:22:21.881Z</time>
      </trkpt>
      <trkpt lat="43.10471333" lon="-4.14994">
        <ele>794.0</ele>
        <time>2018-05-19T12:22:22.853Z</time>
      </trkpt>
      <trkpt lat="43.10468667" lon="-4.14991833">
        <ele>795.0</ele>
        <time>2018-05-19T12:22:23.884Z</time>
      </trkpt>
      <trkpt lat="43.10468667" lon="-4.14991833">
        <ele>795.0</ele>
        <time>2018-05-19T12:22:24.875Z</time>
      </trkpt>
      <trkpt lat="43.104655" lon="-4.14988">
        <ele>796.0</ele>
        <time>2018-05-19T12:22:25.864Z</time>
      </trkpt>
      <trkpt lat="43.104655" lon="-4.14988">
        <ele>796.0</ele>
        <time>2018-05-19T12:22:26.849Z</time>
      </trkpt>
      <trkpt lat="43.10460667" lon="-4.14985333">
        <ele>796.0</ele>
        <time>2018-05-19T12:22:27.845Z</time>
      </trkpt>
      <trkpt lat="43.10460667" lon="-4.14985333">
        <ele>796.0</ele>
        <time>2018-05-19T12:22:28.882Z</time>
      </trkpt>
      <trkpt lat="43.10454667" lon="-4.14983667">
        <ele>796.0</ele>
        <time>2018-05-19T12:22:29.882Z</time>
      </trkpt>
      <trkpt lat="43.10454667" lon="-4.14983667">
        <ele>796.0</ele>
        <time>2018-05-19T12:22:30.846Z</time>
      </trkpt>
      <trkpt lat="43.10449167" lon="-4.14982333">
        <ele>797.0</ele>
        <time>2018-05-19T12:22:31.880Z</time>
      </trkpt>
      <trkpt lat="43.10446667" lon="-4.14982333">
        <ele>797.0</ele>
        <time>2018-05-19T12:22:32.882Z</time>
      </trkpt>
      <trkpt lat="43.10443333" lon="-4.14982333">
        <ele>797.0</ele>
        <time>2018-05-19T12:22:33.881Z</time>
      </trkpt>
      <trkpt lat="43.10443333" lon="-4.14982333">
        <ele>797.0</ele>
        <time>2018-05-19T12:22:34.882Z</time>
      </trkpt>
      <trkpt lat="43.10436833" lon="-4.14982167">
        <ele>797.0</ele>
        <time>2018-05-19T12:22:35.877Z</time>
      </trkpt>
      <trkpt lat="43.10436833" lon="-4.14982167">
        <ele>797.0</ele>
        <time>2018-05-19T12:22:36.872Z</time>
      </trkpt>
      <trkpt lat="43.10429833" lon="-4.14982">
        <ele>798.0</ele>
        <time>2018-05-19T12:22:37.882Z</time>
      </trkpt>
      <trkpt lat="43.10429833" lon="-4.14982">
        <ele>798.0</ele>
        <time>2018-05-19T12:22:38.875Z</time>
      </trkpt>
      <trkpt lat="43.10423" lon="-4.14980667">
        <ele>798.0</ele>
        <time>2018-05-19T12:22:39.854Z</time>
      </trkpt>
      <trkpt lat="43.10423" lon="-4.14980667">
        <ele>798.0</ele>
        <time>2018-05-19T12:22:40.882Z</time>
      </trkpt>
      <trkpt lat="43.10416167" lon="-4.14978333">
        <ele>798.0</ele>
        <time>2018-05-19T12:22:41.871Z</time>
      </trkpt>
      <trkpt lat="43.10413167" lon="-4.14976833">
        <ele>799.0</ele>
        <time>2018-05-19T12:22:42.882Z</time>
      </trkpt>
      <trkpt lat="43.10413167" lon="-4.14976833">
        <ele>799.0</ele>
        <time>2018-05-19T12:22:43.880Z</time>
      </trkpt>
      <trkpt lat="43.104075" lon="-4.14972333">
        <ele>799.0</ele>
        <time>2018-05-19T12:22:44.883Z</time>
      </trkpt>
      <trkpt lat="43.104075" lon="-4.14972333">
        <ele>799.0</ele>
        <time>2018-05-19T12:22:45.852Z</time>
      </trkpt>
      <trkpt lat="43.10401" lon="-4.14968">
        <ele>799.0</ele>
        <time>2018-05-19T12:22:46.880Z</time>
      </trkpt>
      <trkpt lat="43.10401" lon="-4.14968">
        <ele>799.0</ele>
        <time>2018-05-19T12:22:47.846Z</time>
      </trkpt>
      <trkpt lat="43.103945" lon="-4.14964333">
        <ele>800.0</ele>
        <time>2018-05-19T12:22:48.854Z</time>
      </trkpt>
      <trkpt lat="43.10391" lon="-4.14962833">
        <ele>800.0</ele>
        <time>2018-05-19T12:22:49.863Z</time>
      </trkpt>
      <trkpt lat="43.10391" lon="-4.14962833">
        <ele>800.0</ele>
        <time>2018-05-19T12:22:50.874Z</time>
      </trkpt>
      <trkpt lat="43.10385333" lon="-4.149605">
        <ele>800.0</ele>
        <time>2018-05-19T12:22:51.872Z</time>
      </trkpt>
      <trkpt lat="43.10381333" lon="-4.14958833">
        <ele>800.0</ele>
        <time>2018-05-19T12:22:52.844Z</time>
      </trkpt>
      <trkpt lat="43.10378167" lon="-4.14957167">
        <ele>800.0</ele>
        <time>2018-05-19T12:22:53.856Z</time>
      </trkpt>
      <trkpt lat="43.10378167" lon="-4.14957167">
        <ele>800.0</ele>
        <time>2018-05-19T12:22:54.881Z</time>
      </trkpt>
      <trkpt lat="43.10372667" lon="-4.14953833">
        <ele>800.0</ele>
        <time>2018-05-19T12:22:55.882Z</time>
      </trkpt>
      <trkpt lat="43.10367833" lon="-4.14951333">
        <ele>801.0</ele>
        <time>2018-05-19T12:22:56.883Z</time>
      </trkpt>
      <trkpt lat="43.10364333" lon="-4.14949667">
        <ele>801.0</ele>
        <time>2018-05-19T12:22:57.844Z</time>
      </trkpt>
      <trkpt lat="43.10364333" lon="-4.14949667">
        <ele>801.0</ele>
        <time>2018-05-19T12:22:58.859Z</time>
      </trkpt>
      <trkpt lat="43.10354833" lon="-4.14946167">
        <ele>801.0</ele>
        <time>2018-05-19T12:22:59.884Z</time>
      </trkpt>
      <trkpt lat="43.10354833" lon="-4.14946167">
        <ele>801.0</ele>
        <time>2018-05-19T12:23:00.880Z</time>
      </trkpt>
      <trkpt lat="43.10346667" lon="-4.14941667">
        <ele>801.0</ele>
        <time>2018-05-19T12:23:01.878Z</time>
      </trkpt>
      <trkpt lat="43.10346667" lon="-4.14941667">
        <ele>801.0</ele>
        <time>2018-05-19T12:23:02.875Z</time>
      </trkpt>
      <trkpt lat="43.10337167" lon="-4.14937667">
        <ele>802.0</ele>
        <time>2018-05-19T12:23:03.881Z</time>
      </trkpt>
      <trkpt lat="43.10337167" lon="-4.14937667">
        <ele>802.0</ele>
        <time>2018-05-19T12:23:04.853Z</time>
      </trkpt>
      <trkpt lat="43.10328667" lon="-4.14941">
        <ele>802.0</ele>
        <time>2018-05-19T12:23:05.883Z</time>
      </trkpt>
      <trkpt lat="43.10328667" lon="-4.14941">
        <ele>802.0</ele>
        <time>2018-05-19T12:23:06.880Z</time>
      </trkpt>
      <trkpt lat="43.10321333" lon="-4.14945667">
        <ele>802.0</ele>
        <time>2018-05-19T12:23:07.881Z</time>
      </trkpt>
      <trkpt lat="43.10321333" lon="-4.14945667">
        <ele>802.0</ele>
        <time>2018-05-19T12:23:08.880Z</time>
      </trkpt>
      <trkpt lat="43.10305" lon="-4.14937833">
        <ele>802.0</ele>
        <time>2018-05-19T12:23:09.844Z</time>
      </trkpt>
      <trkpt lat="43.10305" lon="-4.14937833">
        <ele>802.0</ele>
        <time>2018-05-19T12:23:10.883Z</time>
      </trkpt>
      <trkpt lat="43.102965" lon="-4.14924667">
        <ele>803.0</ele>
        <time>2018-05-19T12:23:11.846Z</time>
      </trkpt>
      <trkpt lat="43.102925" lon="-4.149175">
        <ele>803.0</ele>
        <time>2018-05-19T12:23:12.844Z</time>
      </trkpt>
      <trkpt lat="43.102925" lon="-4.149175">
        <ele>803.0</ele>
        <time>2018-05-19T12:23:13.880Z</time>
      </trkpt>
      <trkpt lat="43.10283" lon="-4.14907833">
        <ele>803.0</ele>
        <time>2018-05-19T12:23:14.882Z</time>
      </trkpt>
      <trkpt lat="43.10283" lon="-4.14907833">
        <ele>803.0</ele>
        <time>2018-05-19T12:23:15.876Z</time>
      </trkpt>
      <trkpt lat="43.10273833" lon="-4.14903333">
        <ele>804.0</ele>
        <time>2018-05-19T12:23:16.844Z</time>
      </trkpt>
      <trkpt lat="43.10269667" lon="-4.14902833">
        <ele>804.0</ele>
        <time>2018-05-19T12:23:17.883Z</time>
      </trkpt>
      <trkpt lat="43.10269667" lon="-4.14902833">
        <ele>804.0</ele>
        <time>2018-05-19T12:23:18.859Z</time>
      </trkpt>
      <trkpt lat="43.10261333" lon="-4.14902667">
        <ele>805.0</ele>
        <time>2018-05-19T12:23:19.882Z</time>
      </trkpt>
      <trkpt lat="43.10261333" lon="-4.14902667">
        <ele>805.0</ele>
        <time>2018-05-19T12:23:20.875Z</time>
      </trkpt>
      <trkpt lat="43.10254333" lon="-4.14902167">
        <ele>805.0</ele>
        <time>2018-05-19T12:23:21.864Z</time>
      </trkpt>
      <trkpt lat="43.10254333" lon="-4.14902167">
        <ele>805.0</ele>
        <time>2018-05-19T12:23:22.859Z</time>
      </trkpt>
      <trkpt lat="43.10247833" lon="-4.14898667">
        <ele>805.0</ele>
        <time>2018-05-19T12:23:23.866Z</time>
      </trkpt>
      <trkpt lat="43.102445" lon="-4.14896667">
        <ele>806.0</ele>
        <time>2018-05-19T12:23:24.872Z</time>
      </trkpt>
      <trkpt lat="43.102445" lon="-4.14896667">
        <ele>806.0</ele>
        <time>2018-05-19T12:23:25.878Z</time>
      </trkpt>
      <trkpt lat="43.102385" lon="-4.14893">
        <ele>807.0</ele>
        <time>2018-05-19T12:23:26.863Z</time>
      </trkpt>
      <trkpt lat="43.102385" lon="-4.14893">
        <ele>807.0</ele>
        <time>2018-05-19T12:23:27.848Z</time>
      </trkpt>
      <trkpt lat="43.10231" lon="-4.14889">
        <ele>807.0</ele>
        <time>2018-05-19T12:23:28.883Z</time>
      </trkpt>
      <trkpt lat="43.10227833" lon="-4.148875">
        <ele>807.0</ele>
        <time>2018-05-19T12:23:29.883Z</time>
      </trkpt>
      <trkpt lat="43.10227833" lon="-4.148875">
        <ele>807.0</ele>
        <time>2018-05-19T12:23:30.873Z</time>
      </trkpt>
      <trkpt lat="43.102225" lon="-4.14885333">
        <ele>808.0</ele>
        <time>2018-05-19T12:23:31.882Z</time>
      </trkpt>
      <trkpt lat="43.102225" lon="-4.14885333">
        <ele>808.0</ele>
        <time>2018-05-19T12:23:32.880Z</time>
      </trkpt>
      <trkpt lat="43.10217" lon="-4.14883667">
        <ele>808.0</ele>
        <time>2018-05-19T12:23:33.844Z</time>
      </trkpt>
      <trkpt lat="43.10217" lon="-4.14883667">
        <ele>808.0</ele>
        <time>2018-05-19T12:23:34.872Z</time>
      </trkpt>
      <trkpt lat="43.10209167" lon="-4.148825">
        <ele>808.0</ele>
        <time>2018-05-19T12:23:35.857Z</time>
      </trkpt>
      <trkpt lat="43.10209167" lon="-4.148825">
        <ele>808.0</ele>
        <time>2018-05-19T12:23:36.844Z</time>
      </trkpt>
      <trkpt lat="43.102025" lon="-4.14881333">
        <ele>809.0</ele>
        <time>2018-05-19T12:23:37.882Z</time>
      </trkpt>
      <trkpt lat="43.102025" lon="-4.14881333">
        <ele>809.0</ele>
        <time>2018-05-19T12:23:38.865Z</time>
      </trkpt>
      <trkpt lat="43.10196333" lon="-4.14880333">
        <ele>809.0</ele>
        <time>2018-05-19T12:23:39.850Z</time>
      </trkpt>
      <trkpt lat="43.10196333" lon="-4.14880333">
        <ele>809.0</ele>
        <time>2018-05-19T12:23:40.851Z</time>
      </trkpt>
      <trkpt lat="43.101905" lon="-4.14879667">
        <ele>809.0</ele>
        <time>2018-05-19T12:23:41.882Z</time>
      </trkpt>
      <trkpt lat="43.101905" lon="-4.14879667">
        <ele>809.0</ele>
        <time>2018-05-19T12:23:42.880Z</time>
      </trkpt>
      <trkpt lat="43.10184333" lon="-4.14878167">
        <ele>810.0</ele>
        <time>2018-05-19T12:23:43.883Z</time>
      </trkpt>
      <trkpt lat="43.10184333" lon="-4.14878167">
        <ele>810.0</ele>
        <time>2018-05-19T12:23:44.874Z</time>
      </trkpt>
      <trkpt lat="43.1018" lon="-4.14876667">
        <ele>810.0</ele>
        <time>2018-05-19T12:23:45.859Z</time>
      </trkpt>
      <trkpt lat="43.1018" lon="-4.14876667">
        <ele>810.0</ele>
        <time>2018-05-19T12:23:46.880Z</time>
      </trkpt>
      <trkpt lat="43.10175" lon="-4.14874833">
        <ele>810.0</ele>
        <time>2018-05-19T12:23:47.846Z</time>
      </trkpt>
      <trkpt lat="43.101715" lon="-4.14873833">
        <ele>810.0</ele>
        <time>2018-05-19T12:23:48.849Z</time>
      </trkpt>
      <trkpt lat="43.101715" lon="-4.14873833">
        <ele>810.0</ele>
        <time>2018-05-19T12:23:49.880Z</time>
      </trkpt>
      <trkpt lat="43.10165833" lon="-4.14872167">
        <ele>811.0</ele>
        <time>2018-05-19T12:23:50.855Z</time>
      </trkpt>
      <trkpt lat="43.10165833" lon="-4.14872167">
        <ele>811.0</ele>
        <time>2018-05-19T12:23:51.881Z</time>
      </trkpt>
      <trkpt lat="43.10158667" lon="-4.148705">
        <ele>811.0</ele>
        <time>2018-05-19T12:23:52.844Z</time>
      </trkpt>
      <trkpt lat="43.10156" lon="-4.14869833">
        <ele>811.0</ele>
        <time>2018-05-19T12:23:53.882Z</time>
      </trkpt>
      <trkpt lat="43.10156" lon="-4.14869833">
        <ele>811.0</ele>
        <time>2018-05-19T12:23:54.874Z</time>
      </trkpt>
      <trkpt lat="43.10151" lon="-4.14868833">
        <ele>812.0</ele>
        <time>2018-05-19T12:23:55.844Z</time>
      </trkpt>
      <trkpt lat="43.10151" lon="-4.14868833">
        <ele>812.0</ele>
        <time>2018-05-19T12:23:56.874Z</time>
      </trkpt>
      <trkpt lat="43.10146833" lon="-4.14868167">
        <ele>812.0</ele>
        <time>2018-05-19T12:23:57.885Z</time>
      </trkpt>
      <trkpt lat="43.10146833" lon="-4.14868167">
        <ele>812.0</ele>
        <time>2018-05-19T12:23:58.853Z</time>
      </trkpt>
      <trkpt lat="43.10139667" lon="-4.14868167">
        <ele>812.0</ele>
        <time>2018-05-19T12:23:59.883Z</time>
      </trkpt>
      <trkpt lat="43.10139667" lon="-4.14868167">
        <ele>812.0</ele>
        <time>2018-05-19T12:24:00.875Z</time>
      </trkpt>
      <trkpt lat="43.10133833" lon="-4.14868">
        <ele>812.0</ele>
        <time>2018-05-19T12:24:01.883Z</time>
      </trkpt>
      <trkpt lat="43.10133833" lon="-4.14868">
        <ele>812.0</ele>
        <time>2018-05-19T12:24:02.880Z</time>
      </trkpt>
      <trkpt lat="43.10128667" lon="-4.14867667">
        <ele>813.0</ele>
        <time>2018-05-19T12:24:03.845Z</time>
      </trkpt>
      <trkpt lat="43.10128667" lon="-4.14867667">
        <ele>813.0</ele>
        <time>2018-05-19T12:24:04.881Z</time>
      </trkpt>
      <trkpt lat="43.10125167" lon="-4.14867833">
        <ele>813.0</ele>
        <time>2018-05-19T12:24:05.883Z</time>
      </trkpt>
      <trkpt lat="43.10123833" lon="-4.14868">
        <ele>813.0</ele>
        <time>2018-05-19T12:24:06.882Z</time>
      </trkpt>
      <trkpt lat="43.10123833" lon="-4.14868">
        <ele>813.0</ele>
        <time>2018-05-19T12:24:07.872Z</time>
      </trkpt>
      <trkpt lat="43.10119833" lon="-4.14868667">
        <ele>813.0</ele>
        <time>2018-05-19T12:24:08.871Z</time>
      </trkpt>
      <trkpt lat="43.10116667" lon="-4.14869333">
        <ele>813.0</ele>
        <time>2018-05-19T12:24:09.854Z</time>
      </trkpt>
      <trkpt lat="43.10116667" lon="-4.14869333">
        <ele>813.0</ele>
        <time>2018-05-19T12:24:10.881Z</time>
      </trkpt>
      <trkpt lat="43.10107833" lon="-4.14867667">
        <ele>813.0</ele>
        <time>2018-05-19T12:24:11.883Z</time>
      </trkpt>
      <trkpt lat="43.10107833" lon="-4.14867667">
        <ele>813.0</ele>
        <time>2018-05-19T12:24:12.875Z</time>
      </trkpt>
      <trkpt lat="43.10101833" lon="-4.14864833">
        <ele>814.0</ele>
        <time>2018-05-19T12:24:13.884Z</time>
      </trkpt>
      <trkpt lat="43.10101833" lon="-4.14864833">
        <ele>814.0</ele>
        <time>2018-05-19T12:24:14.872Z</time>
      </trkpt>
      <trkpt lat="43.100965" lon="-4.14862">
        <ele>814.0</ele>
        <time>2018-05-19T12:24:15.855Z</time>
      </trkpt>
      <trkpt lat="43.100965" lon="-4.14862">
        <ele>814.0</ele>
        <time>2018-05-19T12:24:16.881Z</time>
      </trkpt>
      <trkpt lat="43.10092333" lon="-4.14858667">
        <ele>815.0</ele>
        <time>2018-05-19T12:24:17.883Z</time>
      </trkpt>
      <trkpt lat="43.10092333" lon="-4.14858667">
        <ele>815.0</ele>
        <time>2018-05-19T12:24:18.849Z</time>
      </trkpt>
      <trkpt lat="43.100885" lon="-4.14854167">
        <ele>815.0</ele>
        <time>2018-05-19T12:24:19.883Z</time>
      </trkpt>
      <trkpt lat="43.100885" lon="-4.14854167">
        <ele>815.0</ele>
        <time>2018-05-19T12:24:20.872Z</time>
      </trkpt>
      <trkpt lat="43.10083667" lon="-4.148495">
        <ele>815.0</ele>
        <time>2018-05-19T12:24:21.881Z</time>
      </trkpt>
      <trkpt lat="43.10083667" lon="-4.148495">
        <ele>815.0</ele>
        <time>2018-05-19T12:24:22.881Z</time>
      </trkpt>
      <trkpt lat="43.100785" lon="-4.14843667">
        <ele>816.0</ele>
        <time>2018-05-19T12:24:23.883Z</time>
      </trkpt>
      <trkpt lat="43.100785" lon="-4.14843667">
        <ele>816.0</ele>
        <time>2018-05-19T12:24:24.880Z</time>
      </trkpt>
      <trkpt lat="43.10074833" lon="-4.14837">
        <ele>816.0</ele>
        <time>2018-05-19T12:24:25.883Z</time>
      </trkpt>
      <trkpt lat="43.10074833" lon="-4.14837">
        <ele>816.0</ele>
        <time>2018-05-19T12:24:26.874Z</time>
      </trkpt>
      <trkpt lat="43.10071167" lon="-4.14830833">
        <ele>817.0</ele>
        <time>2018-05-19T12:24:27.883Z</time>
      </trkpt>
      <trkpt lat="43.10071167" lon="-4.14830833">
        <ele>817.0</ele>
        <time>2018-05-19T12:24:28.848Z</time>
      </trkpt>
      <trkpt lat="43.10068167" lon="-4.14825667">
        <ele>817.0</ele>
        <time>2018-05-19T12:24:29.882Z</time>
      </trkpt>
      <trkpt lat="43.10068167" lon="-4.14825667">
        <ele>817.0</ele>
        <time>2018-05-19T12:24:30.881Z</time>
      </trkpt>
      <trkpt lat="43.10066" lon="-4.14821167">
        <ele>817.0</ele>
        <time>2018-05-19T12:24:31.883Z</time>
      </trkpt>
      <trkpt lat="43.10064" lon="-4.148185">
        <ele>818.0</ele>
        <time>2018-05-19T12:24:32.875Z</time>
      </trkpt>
      <trkpt lat="43.10064" lon="-4.148185">
        <ele>818.0</ele>
        <time>2018-05-19T12:24:33.873Z</time>
      </trkpt>
      <trkpt lat="43.10060167" lon="-4.14813667">
        <ele>818.0</ele>
        <time>2018-05-19T12:24:34.883Z</time>
      </trkpt>
      <trkpt lat="43.10058" lon="-4.14811167">
        <ele>818.0</ele>
        <time>2018-05-19T12:24:35.881Z</time>
      </trkpt>
      <trkpt lat="43.10058" lon="-4.14811167">
        <ele>818.0</ele>
        <time>2018-05-19T12:24:36.880Z</time>
      </trkpt>
      <trkpt lat="43.10053667" lon="-4.14806833">
        <ele>819.0</ele>
        <time>2018-05-19T12:24:37.882Z</time>
      </trkpt>
      <trkpt lat="43.10053667" lon="-4.14806833">
        <ele>819.0</ele>
        <time>2018-05-19T12:24:38.880Z</time>
      </trkpt>
      <trkpt lat="43.10049667" lon="-4.14803167">
        <ele>819.0</ele>
        <time>2018-05-19T12:24:39.883Z</time>
      </trkpt>
      <trkpt lat="43.10049667" lon="-4.14803167">
        <ele>819.0</ele>
        <time>2018-05-19T12:24:40.881Z</time>
      </trkpt>
      <trkpt lat="43.10045833" lon="-4.14801167">
        <ele>819.0</ele>
        <time>2018-05-19T12:24:41.844Z</time>
      </trkpt>
      <trkpt lat="43.10045833" lon="-4.14801167">
        <ele>819.0</ele>
        <time>2018-05-19T12:24:42.848Z</time>
      </trkpt>
      <trkpt lat="43.10043" lon="-4.14799333">
        <ele>820.0</ele>
        <time>2018-05-19T12:24:43.883Z</time>
      </trkpt>
      <trkpt lat="43.10040333" lon="-4.147985">
        <ele>820.0</ele>
        <time>2018-05-19T12:24:44.884Z</time>
      </trkpt>
      <trkpt lat="43.10040333" lon="-4.147985">
        <ele>820.0</ele>
        <time>2018-05-19T12:24:45.851Z</time>
      </trkpt>
      <trkpt lat="43.100365" lon="-4.14797167">
        <ele>820.0</ele>
        <time>2018-05-19T12:24:46.880Z</time>
      </trkpt>
      <trkpt lat="43.100365" lon="-4.14797167">
        <ele>820.0</ele>
        <time>2018-05-19T12:24:47.846Z</time>
      </trkpt>
      <trkpt lat="43.10033667" lon="-4.147965">
        <ele>820.0</ele>
        <time>2018-05-19T12:24:48.852Z</time>
      </trkpt>
      <trkpt lat="43.10033667" lon="-4.147965">
        <ele>820.0</ele>
        <time>2018-05-19T12:24:49.858Z</time>
      </trkpt>
      <trkpt lat="43.10030333" lon="-4.14795833">
        <ele>820.0</ele>
        <time>2018-05-19T12:24:50.868Z</time>
      </trkpt>
      <trkpt lat="43.10028833" lon="-4.14796">
        <ele>821.0</ele>
        <time>2018-05-19T12:24:51.883Z</time>
      </trkpt>
      <trkpt lat="43.10028833" lon="-4.14796">
        <ele>821.0</ele>
        <time>2018-05-19T12:24:52.881Z</time>
      </trkpt>
      <trkpt lat="43.10025667" lon="-4.14796333">
        <ele>821.0</ele>
        <time>2018-05-19T12:24:53.882Z</time>
      </trkpt>
      <trkpt lat="43.10025667" lon="-4.14796333">
        <ele>821.0</ele>
        <time>2018-05-19T12:24:54.880Z</time>
      </trkpt>
      <trkpt lat="43.10022833" lon="-4.147975">
        <ele>821.0</ele>
        <time>2018-05-19T12:24:55.856Z</time>
      </trkpt>
      <trkpt lat="43.10022" lon="-4.14797833">
        <ele>821.0</ele>
        <time>2018-05-19T12:24:56.882Z</time>
      </trkpt>
      <trkpt lat="43.10022" lon="-4.14797833">
        <ele>821.0</ele>
        <time>2018-05-19T12:24:57.880Z</time>
      </trkpt>
      <trkpt lat="43.1002" lon="-4.14797667">
        <ele>822.0</ele>
        <time>2018-05-19T12:24:58.848Z</time>
      </trkpt>
      <trkpt lat="43.10019167" lon="-4.14797667">
        <ele>822.0</ele>
        <time>2018-05-19T12:24:59.882Z</time>
      </trkpt>
      <trkpt lat="43.10019167" lon="-4.14797667">
        <ele>822.0</ele>
        <time>2018-05-19T12:25:00.875Z</time>
      </trkpt>
      <trkpt lat="43.10014833" lon="-4.14796333">
        <ele>822.0</ele>
        <time>2018-05-19T12:25:01.881Z</time>
      </trkpt>
      <trkpt lat="43.10013" lon="-4.14795">
        <ele>822.0</ele>
        <time>2018-05-19T12:25:02.874Z</time>
      </trkpt>
      <trkpt lat="43.10011333" lon="-4.147935">
        <ele>822.0</ele>
        <time>2018-05-19T12:25:03.883Z</time>
      </trkpt>
      <trkpt lat="43.10011333" lon="-4.147935">
        <ele>822.0</ele>
        <time>2018-05-19T12:25:04.874Z</time>
      </trkpt>
      <trkpt lat="43.100075" lon="-4.14790167">
        <ele>823.0</ele>
        <time>2018-05-19T12:25:05.844Z</time>
      </trkpt>
      <trkpt lat="43.10005" lon="-4.14788">
        <ele>823.0</ele>
        <time>2018-05-19T12:25:06.844Z</time>
      </trkpt>
      <trkpt lat="43.10005" lon="-4.14788">
        <ele>823.0</ele>
        <time>2018-05-19T12:25:07.872Z</time>
      </trkpt>
      <trkpt lat="43.1" lon="-4.14784333">
        <ele>823.0</ele>
        <time>2018-05-19T12:25:08.881Z</time>
      </trkpt>
      <trkpt lat="43.09995" lon="-4.14783">
        <ele>824.0</ele>
        <time>2018-05-19T12:25:09.883Z</time>
      </trkpt>
      <trkpt lat="43.09995" lon="-4.14783">
        <ele>824.0</ele>
        <time>2018-05-19T12:25:10.880Z</time>
      </trkpt>
      <trkpt lat="43.09985833" lon="-4.14779833">
        <ele>824.0</ele>
        <time>2018-05-19T12:25:11.882Z</time>
      </trkpt>
      <trkpt lat="43.09984" lon="-4.14778833">
        <ele>824.0</ele>
        <time>2018-05-19T12:25:12.852Z</time>
      </trkpt>
      <trkpt lat="43.09984" lon="-4.14778833">
        <ele>824.0</ele>
        <time>2018-05-19T12:25:13.874Z</time>
      </trkpt>
      <trkpt lat="43.09979167" lon="-4.14776167">
        <ele>824.0</ele>
        <time>2018-05-19T12:25:14.881Z</time>
      </trkpt>
      <trkpt lat="43.09979167" lon="-4.14776167">
        <ele>824.0</ele>
        <time>2018-05-19T12:25:15.874Z</time>
      </trkpt>
      <trkpt lat="43.09975" lon="-4.14772833">
        <ele>825.0</ele>
        <time>2018-05-19T12:25:16.882Z</time>
      </trkpt>
      <trkpt lat="43.09971833" lon="-4.147715">
        <ele>825.0</ele>
        <time>2018-05-19T12:25:17.882Z</time>
      </trkpt>
      <trkpt lat="43.09971833" lon="-4.147715">
        <ele>825.0</ele>
        <time>2018-05-19T12:25:18.880Z</time>
      </trkpt>
      <trkpt lat="43.099665" lon="-4.14769333">
        <ele>825.0</ele>
        <time>2018-05-19T12:25:19.883Z</time>
      </trkpt>
      <trkpt lat="43.099665" lon="-4.14769333">
        <ele>825.0</ele>
        <time>2018-05-19T12:25:20.879Z</time>
      </trkpt>
      <trkpt lat="43.09962667" lon="-4.14767833">
        <ele>826.0</ele>
        <time>2018-05-19T12:25:21.852Z</time>
      </trkpt>
      <trkpt lat="43.09962667" lon="-4.14767833">
        <ele>826.0</ele>
        <time>2018-05-19T12:25:22.882Z</time>
      </trkpt>
      <trkpt lat="43.09958333" lon="-4.14766333">
        <ele>826.0</ele>
        <time>2018-05-19T12:25:23.882Z</time>
      </trkpt>
      <trkpt lat="43.09958333" lon="-4.14766333">
        <ele>826.0</ele>
        <time>2018-05-19T12:25:24.874Z</time>
      </trkpt>
      <trkpt lat="43.09954" lon="-4.14765833">
        <ele>826.0</ele>
        <time>2018-05-19T12:25:25.882Z</time>
      </trkpt>
      <trkpt lat="43.09954" lon="-4.14765833">
        <ele>826.0</ele>
        <time>2018-05-19T12:25:26.880Z</time>
      </trkpt>
      <trkpt lat="43.09949667" lon="-4.14765">
        <ele>827.0</ele>
        <time>2018-05-19T12:25:27.883Z</time>
      </trkpt>
      <trkpt lat="43.09949667" lon="-4.14765">
        <ele>827.0</ele>
        <time>2018-05-19T12:25:28.881Z</time>
      </trkpt>
      <trkpt lat="43.099455" lon="-4.14763667">
        <ele>827.0</ele>
        <time>2018-05-19T12:25:29.844Z</time>
      </trkpt>
      <trkpt lat="43.099455" lon="-4.14763667">
        <ele>827.0</ele>
        <time>2018-05-19T12:25:30.880Z</time>
      </trkpt>
      <trkpt lat="43.09940833" lon="-4.14762">
        <ele>827.0</ele>
        <time>2018-05-19T12:25:31.874Z</time>
      </trkpt>
      <trkpt lat="43.09940833" lon="-4.14762">
        <ele>827.0</ele>
        <time>2018-05-19T12:25:32.880Z</time>
      </trkpt>
      <trkpt lat="43.09937" lon="-4.14760167">
        <ele>828.0</ele>
        <time>2018-05-19T12:25:33.883Z</time>
      </trkpt>
      <trkpt lat="43.09937" lon="-4.14760167">
        <ele>828.0</ele>
        <time>2018-05-19T12:25:34.874Z</time>
      </trkpt>
      <trkpt lat="43.09932333" lon="-4.14757333">
        <ele>828.0</ele>
        <time>2018-05-19T12:25:35.845Z</time>
      </trkpt>
      <trkpt lat="43.09932333" lon="-4.14757333">
        <ele>828.0</ele>
        <time>2018-05-19T12:25:36.872Z</time>
      </trkpt>
      <trkpt lat="43.09927333" lon="-4.14754">
        <ele>828.0</ele>
        <time>2018-05-19T12:25:37.881Z</time>
      </trkpt>
      <trkpt lat="43.09925" lon="-4.14752333">
        <ele>828.0</ele>
        <time>2018-05-19T12:25:38.882Z</time>
      </trkpt>
      <trkpt lat="43.09925" lon="-4.14752333">
        <ele>828.0</ele>
        <time>2018-05-19T12:25:39.880Z</time>
      </trkpt>
      <trkpt lat="43.09919167" lon="-4.14750333">
        <ele>829.0</ele>
        <time>2018-05-19T12:25:40.883Z</time>
      </trkpt>
      <trkpt lat="43.09916" lon="-4.14749333">
        <ele>829.0</ele>
        <time>2018-05-19T12:25:41.882Z</time>
      </trkpt>
      <trkpt lat="43.09916" lon="-4.14749333">
        <ele>829.0</ele>
        <time>2018-05-19T12:25:42.880Z</time>
      </trkpt>
      <trkpt lat="43.09910667" lon="-4.14747667">
        <ele>829.0</ele>
        <time>2018-05-19T12:25:43.881Z</time>
      </trkpt>
      <trkpt lat="43.09910667" lon="-4.14747667">
        <ele>829.0</ele>
        <time>2018-05-19T12:25:44.872Z</time>
      </trkpt>
      <trkpt lat="43.09905333" lon="-4.14747333">
        <ele>829.0</ele>
        <time>2018-05-19T12:25:45.851Z</time>
      </trkpt>
      <trkpt lat="43.09903167" lon="-4.14747667">
        <ele>829.0</ele>
        <time>2018-05-19T12:25:46.868Z</time>
      </trkpt>
      <trkpt lat="43.09903167" lon="-4.14747667">
        <ele>829.0</ele>
        <time>2018-05-19T12:25:47.875Z</time>
      </trkpt>
      <trkpt lat="43.09899667" lon="-4.14748667">
        <ele>829.0</ele>
        <time>2018-05-19T12:25:48.882Z</time>
      </trkpt>
      <trkpt lat="43.09899667" lon="-4.14748667">
        <ele>829.0</ele>
        <time>2018-05-19T12:25:49.873Z</time>
      </trkpt>
      <trkpt lat="43.098985" lon="-4.1475">
        <ele>830.0</ele>
        <time>2018-05-19T12:25:50.884Z</time>
      </trkpt>
      <trkpt lat="43.09897333" lon="-4.14750833">
        <ele>830.0</ele>
        <time>2018-05-19T12:25:51.855Z</time>
      </trkpt>
      <trkpt lat="43.09897333" lon="-4.14750833">
        <ele>830.0</ele>
        <time>2018-05-19T12:25:52.881Z</time>
      </trkpt>
      <trkpt lat="43.09894" lon="-4.14752333">
        <ele>830.0</ele>
        <time>2018-05-19T12:25:53.883Z</time>
      </trkpt>
      <trkpt lat="43.09892667" lon="-4.14753">
        <ele>830.0</ele>
        <time>2018-05-19T12:25:54.844Z</time>
      </trkpt>
      <trkpt lat="43.09892667" lon="-4.14753">
        <ele>830.0</ele>
        <time>2018-05-19T12:25:55.877Z</time>
      </trkpt>
      <trkpt lat="43.09886333" lon="-4.14754667">
        <ele>830.0</ele>
        <time>2018-05-19T12:25:56.882Z</time>
      </trkpt>
      <trkpt lat="43.09886333" lon="-4.14754667">
        <ele>830.0</ele>
        <time>2018-05-19T12:25:57.880Z</time>
      </trkpt>
      <trkpt lat="43.09882333" lon="-4.147555">
        <ele>830.0</ele>
        <time>2018-05-19T12:25:58.882Z</time>
      </trkpt>
      <trkpt lat="43.09879667" lon="-4.14755667">
        <ele>831.0</ele>
        <time>2018-05-19T12:25:59.882Z</time>
      </trkpt>
      <trkpt lat="43.09879667" lon="-4.14755667">
        <ele>831.0</ele>
        <time>2018-05-19T12:26:00.874Z</time>
      </trkpt>
      <trkpt lat="43.09872167" lon="-4.14755167">
        <ele>831.0</ele>
        <time>2018-05-19T12:26:01.882Z</time>
      </trkpt>
      <trkpt lat="43.09872167" lon="-4.14755167">
        <ele>831.0</ele>
        <time>2018-05-19T12:26:02.880Z</time>
      </trkpt>
      <trkpt lat="43.09865833" lon="-4.14754167">
        <ele>831.0</ele>
        <time>2018-05-19T12:26:03.882Z</time>
      </trkpt>
      <trkpt lat="43.09865833" lon="-4.14754167">
        <ele>831.0</ele>
        <time>2018-05-19T12:26:04.874Z</time>
      </trkpt>
      <trkpt lat="43.09861" lon="-4.14752333">
        <ele>832.0</ele>
        <time>2018-05-19T12:26:05.882Z</time>
      </trkpt>
      <trkpt lat="43.09861" lon="-4.14752333">
        <ele>832.0</ele>
        <time>2018-05-19T12:26:06.880Z</time>
      </trkpt>
      <trkpt lat="43.09855333" lon="-4.14750833">
        <ele>832.0</ele>
        <time>2018-05-19T12:26:07.882Z</time>
      </trkpt>
      <trkpt lat="43.09855333" lon="-4.14750833">
        <ele>832.0</ele>
        <time>2018-05-19T12:26:08.871Z</time>
      </trkpt>
      <trkpt lat="43.09849" lon="-4.147485">
        <ele>832.0</ele>
        <time>2018-05-19T12:26:09.850Z</time>
      </trkpt>
      <trkpt lat="43.09849" lon="-4.147485">
        <ele>832.0</ele>
        <time>2018-05-19T12:26:10.881Z</time>
      </trkpt>
      <trkpt lat="43.09843833" lon="-4.14745333">
        <ele>832.0</ele>
        <time>2018-05-19T12:26:11.882Z</time>
      </trkpt>
      <trkpt lat="43.09843833" lon="-4.14745333">
        <ele>832.0</ele>
        <time>2018-05-19T12:26:12.880Z</time>
      </trkpt>
      <trkpt lat="43.098375" lon="-4.14742667">
        <ele>833.0</ele>
        <time>2018-05-19T12:26:13.881Z</time>
      </trkpt>
      <trkpt lat="43.09834833" lon="-4.14741167">
        <ele>833.0</ele>
        <time>2018-05-19T12:26:14.883Z</time>
      </trkpt>
      <trkpt lat="43.09834833" lon="-4.14741167">
        <ele>833.0</ele>
        <time>2018-05-19T12:26:15.868Z</time>
      </trkpt>
      <trkpt lat="43.098295" lon="-4.14738833">
        <ele>833.0</ele>
        <time>2018-05-19T12:26:16.852Z</time>
      </trkpt>
      <trkpt lat="43.09827167" lon="-4.14737667">
        <ele>833.0</ele>
        <time>2018-05-19T12:26:17.844Z</time>
      </trkpt>
      <trkpt lat="43.09827167" lon="-4.14737667">
        <ele>833.0</ele>
        <time>2018-05-19T12:26:18.882Z</time>
      </trkpt>
      <trkpt lat="43.09822167" lon="-4.14735167">
        <ele>833.0</ele>
        <time>2018-05-19T12:26:19.882Z</time>
      </trkpt>
      <trkpt lat="43.09822167" lon="-4.14735167">
        <ele>833.0</ele>
        <time>2018-05-19T12:26:20.880Z</time>
      </trkpt>
      <trkpt lat="43.09817333" lon="-4.14731833">
        <ele>834.0</ele>
        <time>2018-05-19T12:26:21.852Z</time>
      </trkpt>
      <trkpt lat="43.09813167" lon="-4.147295">
        <ele>834.0</ele>
        <time>2018-05-19T12:26:22.883Z</time>
      </trkpt>
      <trkpt lat="43.09813167" lon="-4.147295">
        <ele>834.0</ele>
        <time>2018-05-19T12:26:23.870Z</time>
      </trkpt>
      <trkpt lat="43.09806167" lon="-4.14725167">
        <ele>834.0</ele>
        <time>2018-05-19T12:26:24.882Z</time>
      </trkpt>
      <trkpt lat="43.09803833" lon="-4.14723167">
        <ele>834.0</ele>
        <time>2018-05-19T12:26:25.851Z</time>
      </trkpt>
      <trkpt lat="43.09803833" lon="-4.14723167">
        <ele>834.0</ele>
        <time>2018-05-19T12:26:26.880Z</time>
      </trkpt>
      <trkpt lat="43.09799667" lon="-4.147195">
        <ele>835.0</ele>
        <time>2018-05-19T12:26:27.883Z</time>
      </trkpt>
      <trkpt lat="43.09799667" lon="-4.147195">
        <ele>835.0</ele>
        <time>2018-05-19T12:26:28.874Z</time>
      </trkpt>
      <trkpt lat="43.09795667" lon="-4.14715167">
        <ele>835.0</ele>
        <time>2018-05-19T12:26:29.853Z</time>
      </trkpt>
      <trkpt lat="43.09795667" lon="-4.14715167">
        <ele>835.0</ele>
        <time>2018-05-19T12:26:30.879Z</time>
      </trkpt>
      <trkpt lat="43.09792167" lon="-4.14712333">
        <ele>836.0</ele>
        <time>2018-05-19T12:26:31.882Z</time>
      </trkpt>
      <trkpt lat="43.09792167" lon="-4.14712333">
        <ele>836.0</ele>
        <time>2018-05-19T12:26:32.880Z</time>
      </trkpt>
      <trkpt lat="43.09786833" lon="-4.14711667">
        <ele>835.0</ele>
        <time>2018-05-19T12:26:33.847Z</time>
      </trkpt>
      <trkpt lat="43.09783667" lon="-4.14712667">
        <ele>835.0</ele>
        <time>2018-05-19T12:26:34.883Z</time>
      </trkpt>
      <trkpt lat="43.09777667" lon="-4.147155">
        <ele>835.0</ele>
        <time>2018-05-19T12:26:35.882Z</time>
      </trkpt>
      <trkpt lat="43.09777667" lon="-4.147155">
        <ele>835.0</ele>
        <time>2018-05-19T12:26:36.874Z</time>
      </trkpt>
      <trkpt lat="43.09764" lon="-4.147245">
        <ele>834.0</ele>
        <time>2018-05-19T12:26:37.883Z</time>
      </trkpt>
      <trkpt lat="43.09764" lon="-4.147245">
        <ele>834.0</ele>
        <time>2018-05-19T12:26:38.880Z</time>
      </trkpt>
      <trkpt lat="43.09758" lon="-4.14733833">
        <ele>833.0</ele>
        <time>2018-05-19T12:26:39.883Z</time>
      </trkpt>
      <trkpt lat="43.097545" lon="-4.14739">
        <ele>833.0</ele>
        <time>2018-05-19T12:26:40.844Z</time>
      </trkpt>
      <trkpt lat="43.097545" lon="-4.14739">
        <ele>833.0</ele>
        <time>2018-05-19T12:26:41.880Z</time>
      </trkpt>
      <trkpt lat="43.09748167" lon="-4.14749833">
        <ele>832.0</ele>
        <time>2018-05-19T12:26:42.881Z</time>
      </trkpt>
      <trkpt lat="43.09748167" lon="-4.14749833">
        <ele>832.0</ele>
        <time>2018-05-19T12:26:43.872Z</time>
      </trkpt>
      <trkpt lat="43.09743833" lon="-4.14761">
        <ele>832.0</ele>
        <time>2018-05-19T12:26:44.860Z</time>
      </trkpt>
      <trkpt lat="43.09743833" lon="-4.14761">
        <ele>832.0</ele>
        <time>2018-05-19T12:26:45.852Z</time>
      </trkpt>
      <trkpt lat="43.097395" lon="-4.14773333">
        <ele>832.0</ele>
        <time>2018-05-19T12:26:46.848Z</time>
      </trkpt>
      <trkpt lat="43.097395" lon="-4.14773333">
        <ele>832.0</ele>
        <time>2018-05-19T12:26:47.855Z</time>
      </trkpt>
      <trkpt lat="43.09735833" lon="-4.14785">
        <ele>832.0</ele>
        <time>2018-05-19T12:26:48.862Z</time>
      </trkpt>
      <trkpt lat="43.09735833" lon="-4.14785">
        <ele>832.0</ele>
        <time>2018-05-19T12:26:49.867Z</time>
      </trkpt>
      <trkpt lat="43.09733167" lon="-4.14797">
        <ele>832.0</ele>
        <time>2018-05-19T12:26:50.873Z</time>
      </trkpt>
      <trkpt lat="43.09727333" lon="-4.148025">
        <ele>832.0</ele>
        <time>2018-05-19T12:26:51.882Z</time>
      </trkpt>
      <trkpt lat="43.09727333" lon="-4.148025">
        <ele>832.0</ele>
        <time>2018-05-19T12:26:52.872Z</time>
      </trkpt>
      <trkpt lat="43.09721667" lon="-4.14812667">
        <ele>832.0</ele>
        <time>2018-05-19T12:26:53.883Z</time>
      </trkpt>
      <trkpt lat="43.09721667" lon="-4.14812667">
        <ele>832.0</ele>
        <time>2018-05-19T12:26:54.878Z</time>
      </trkpt>
      <trkpt lat="43.09717" lon="-4.1482">
        <ele>832.0</ele>
        <time>2018-05-19T12:26:55.855Z</time>
      </trkpt>
      <trkpt lat="43.097125" lon="-4.148235">
        <ele>831.0</ele>
        <time>2018-05-19T12:26:56.881Z</time>
      </trkpt>
      <trkpt lat="43.097125" lon="-4.148235">
        <ele>831.0</ele>
        <time>2018-05-19T12:26:57.872Z</time>
      </trkpt>
      <trkpt lat="43.09702333" lon="-4.14830833">
        <ele>831.0</ele>
        <time>2018-05-19T12:26:58.881Z</time>
      </trkpt>
      <trkpt lat="43.09699333" lon="-4.14835">
        <ele>831.0</ele>
        <time>2018-05-19T12:26:59.883Z</time>
      </trkpt>
      <trkpt lat="43.09699333" lon="-4.14835">
        <ele>831.0</ele>
        <time>2018-05-19T12:27:00.877Z</time>
      </trkpt>
      <trkpt lat="43.09687667" lon="-4.14843833">
        <ele>831.0</ele>
        <time>2018-05-19T12:27:01.844Z</time>
      </trkpt>
      <trkpt lat="43.096825" lon="-4.14849333">
        <ele>831.0</ele>
        <time>2018-05-19T12:27:02.884Z</time>
      </trkpt>
      <trkpt lat="43.096825" lon="-4.14849333">
        <ele>831.0</ele>
        <time>2018-05-19T12:27:03.879Z</time>
      </trkpt>
      <trkpt lat="43.09667167" lon="-4.14864667">
        <ele>830.0</ele>
        <time>2018-05-19T12:27:04.882Z</time>
      </trkpt>
      <trkpt lat="43.09659167" lon="-4.148735">
        <ele>829.0</ele>
        <time>2018-05-19T12:27:05.883Z</time>
      </trkpt>
      <trkpt lat="43.09659167" lon="-4.148735">
        <ele>829.0</ele>
        <time>2018-05-19T12:27:06.874Z</time>
      </trkpt>
      <trkpt lat="43.09648167" lon="-4.14892667">
        <ele>828.0</ele>
        <time>2018-05-19T12:27:07.881Z</time>
      </trkpt>
      <trkpt lat="43.09644667" lon="-4.14901667">
        <ele>828.0</ele>
        <time>2018-05-19T12:27:08.881Z</time>
      </trkpt>
      <trkpt lat="43.09644667" lon="-4.14901667">
        <ele>828.0</ele>
        <time>2018-05-19T12:27:09.873Z</time>
      </trkpt>
      <trkpt lat="43.09638" lon="-4.14912333">
        <ele>828.0</ele>
        <time>2018-05-19T12:27:10.844Z</time>
      </trkpt>
      <trkpt lat="43.09633667" lon="-4.14912667">
        <ele>828.0</ele>
        <time>2018-05-19T12:27:11.882Z</time>
      </trkpt>
      <trkpt lat="43.09633667" lon="-4.14912667">
        <ele>828.0</ele>
        <time>2018-05-19T12:27:12.874Z</time>
      </trkpt>
      <trkpt lat="43.09628" lon="-4.14905667">
        <ele>827.0</ele>
        <time>2018-05-19T12:27:13.882Z</time>
      </trkpt>
      <trkpt lat="43.09628" lon="-4.14905667">
        <ele>827.0</ele>
        <time>2018-05-19T12:27:14.872Z</time>
      </trkpt>
      <trkpt lat="43.09625167" lon="-4.148935">
        <ele>826.0</ele>
        <time>2018-05-19T12:27:15.862Z</time>
      </trkpt>
      <trkpt lat="43.09619333" lon="-4.148865">
        <ele>827.0</ele>
        <time>2018-05-19T12:27:16.850Z</time>
      </trkpt>
      <trkpt lat="43.09616167" lon="-4.14880333">
        <ele>827.0</ele>
        <time>2018-05-19T12:27:17.882Z</time>
      </trkpt>
      <trkpt lat="43.09616167" lon="-4.14880333">
        <ele>827.0</ele>
        <time>2018-05-19T12:27:18.876Z</time>
      </trkpt>
      <trkpt lat="43.09610667" lon="-4.14868667">
        <ele>827.0</ele>
        <time>2018-05-19T12:27:19.881Z</time>
      </trkpt>
      <trkpt lat="43.09610667" lon="-4.14868667">
        <ele>827.0</ele>
        <time>2018-05-19T12:27:20.871Z</time>
      </trkpt>
      <trkpt lat="43.09606833" lon="-4.14858167">
        <ele>827.0</ele>
        <time>2018-05-19T12:27:21.850Z</time>
      </trkpt>
      <trkpt lat="43.09605333" lon="-4.14853667">
        <ele>827.0</ele>
        <time>2018-05-19T12:27:22.883Z</time>
      </trkpt>
      <trkpt lat="43.09604" lon="-4.14849">
        <ele>827.0</ele>
        <time>2018-05-19T12:27:23.883Z</time>
      </trkpt>
      <trkpt lat="43.09604" lon="-4.14849">
        <ele>827.0</ele>
        <time>2018-05-19T12:27:24.878Z</time>
      </trkpt>
      <trkpt lat="43.096045" lon="-4.148395">
        <ele>827.0</ele>
        <time>2018-05-19T12:27:25.844Z</time>
      </trkpt>
      <trkpt lat="43.096045" lon="-4.148395">
        <ele>827.0</ele>
        <time>2018-05-19T12:27:26.874Z</time>
      </trkpt>
      <trkpt lat="43.09603" lon="-4.14830667">
        <ele>826.0</ele>
        <time>2018-05-19T12:27:27.882Z</time>
      </trkpt>
      <trkpt lat="43.09602667" lon="-4.14826167">
        <ele>826.0</ele>
        <time>2018-05-19T12:27:28.847Z</time>
      </trkpt>
      <trkpt lat="43.09601833" lon="-4.14821833">
        <ele>826.0</ele>
        <time>2018-05-19T12:27:29.882Z</time>
      </trkpt>
      <trkpt lat="43.09601833" lon="-4.14821833">
        <ele>826.0</ele>
        <time>2018-05-19T12:27:30.881Z</time>
      </trkpt>
      <trkpt lat="43.09600833" lon="-4.14814167">
        <ele>826.0</ele>
        <time>2018-05-19T12:27:31.882Z</time>
      </trkpt>
      <trkpt lat="43.09600833" lon="-4.14814167">
        <ele>826.0</ele>
        <time>2018-05-19T12:27:32.871Z</time>
      </trkpt>
      <trkpt lat="43.095995" lon="-4.14805667">
        <ele>825.0</ele>
        <time>2018-05-19T12:27:33.882Z</time>
      </trkpt>
      <trkpt lat="43.095995" lon="-4.14805667">
        <ele>825.0</ele>
        <time>2018-05-19T12:27:34.880Z</time>
      </trkpt>
      <trkpt lat="43.09598" lon="-4.14797333">
        <ele>825.0</ele>
        <time>2018-05-19T12:27:35.852Z</time>
      </trkpt>
      <trkpt lat="43.09598" lon="-4.14797333">
        <ele>825.0</ele>
        <time>2018-05-19T12:27:36.880Z</time>
      </trkpt>
      <trkpt lat="43.09595167" lon="-4.14789167">
        <ele>824.0</ele>
        <time>2018-05-19T12:27:37.882Z</time>
      </trkpt>
      <trkpt lat="43.09595167" lon="-4.14789167">
        <ele>824.0</ele>
        <time>2018-05-19T12:27:38.878Z</time>
      </trkpt>
      <trkpt lat="43.09590333" lon="-4.14780833">
        <ele>823.0</ele>
        <time>2018-05-19T12:27:39.882Z</time>
      </trkpt>
      <trkpt lat="43.09590333" lon="-4.14780833">
        <ele>823.0</ele>
        <time>2018-05-19T12:27:40.872Z</time>
      </trkpt>
      <trkpt lat="43.09589667" lon="-4.147725">
        <ele>823.0</ele>
        <time>2018-05-19T12:27:41.882Z</time>
      </trkpt>
      <trkpt lat="43.09589667" lon="-4.147725">
        <ele>823.0</ele>
        <time>2018-05-19T12:27:42.874Z</time>
      </trkpt>
      <trkpt lat="43.09587" lon="-4.14764">
        <ele>823.0</ele>
        <time>2018-05-19T12:27:43.881Z</time>
      </trkpt>
      <trkpt lat="43.09587" lon="-4.14764">
        <ele>823.0</ele>
        <time>2018-05-19T12:27:44.871Z</time>
      </trkpt>
      <trkpt lat="43.09584833" lon="-4.14756167">
        <ele>823.0</ele>
        <time>2018-05-19T12:27:45.852Z</time>
      </trkpt>
      <trkpt lat="43.09584167" lon="-4.147525">
        <ele>823.0</ele>
        <time>2018-05-19T12:27:46.849Z</time>
      </trkpt>
      <trkpt lat="43.09584" lon="-4.14749">
        <ele>822.0</ele>
        <time>2018-05-19T12:27:47.855Z</time>
      </trkpt>
      <trkpt lat="43.09584" lon="-4.14749">
        <ele>822.0</ele>
        <time>2018-05-19T12:27:48.865Z</time>
      </trkpt>
      <trkpt lat="43.09583667" lon="-4.14742333">
        <ele>822.0</ele>
        <time>2018-05-19T12:27:49.873Z</time>
      </trkpt>
      <trkpt lat="43.09583667" lon="-4.14742333">
        <ele>822.0</ele>
        <time>2018-05-19T12:27:50.879Z</time>
      </trkpt>
      <trkpt lat="43.09581667" lon="-4.14735667">
        <ele>822.0</ele>
        <time>2018-05-19T12:27:51.882Z</time>
      </trkpt>
      <trkpt lat="43.09581667" lon="-4.14735667">
        <ele>822.0</ele>
        <time>2018-05-19T12:27:52.880Z</time>
      </trkpt>
      <trkpt lat="43.09583167" lon="-4.14728667">
        <ele>822.0</ele>
        <time>2018-05-19T12:27:53.883Z</time>
      </trkpt>
      <trkpt lat="43.09583333" lon="-4.14725">
        <ele>822.0</ele>
        <time>2018-05-19T12:27:54.855Z</time>
      </trkpt>
      <trkpt lat="43.09583333" lon="-4.14725">
        <ele>822.0</ele>
        <time>2018-05-19T12:27:55.880Z</time>
      </trkpt>
      <trkpt lat="43.09580333" lon="-4.14718333">
        <ele>822.0</ele>
        <time>2018-05-19T12:27:56.881Z</time>
      </trkpt>
      <trkpt lat="43.09578833" lon="-4.14714833">
        <ele>822.0</ele>
        <time>2018-05-19T12:27:57.882Z</time>
      </trkpt>
      <trkpt lat="43.09578833" lon="-4.14714833">
        <ele>822.0</ele>
        <time>2018-05-19T12:27:58.880Z</time>
      </trkpt>
      <trkpt lat="43.09574333" lon="-4.147075">
        <ele>821.0</ele>
        <time>2018-05-19T12:27:59.882Z</time>
      </trkpt>
      <trkpt lat="43.09574333" lon="-4.147075">
        <ele>821.0</ele>
        <time>2018-05-19T12:28:00.879Z</time>
      </trkpt>
      <trkpt lat="43.09570667" lon="-4.14699333">
        <ele>822.0</ele>
        <time>2018-05-19T12:28:01.882Z</time>
      </trkpt>
      <trkpt lat="43.09570667" lon="-4.14699333">
        <ele>822.0</ele>
        <time>2018-05-19T12:28:02.872Z</time>
      </trkpt>
      <trkpt lat="43.09565333" lon="-4.14691167">
        <ele>822.0</ele>
        <time>2018-05-19T12:28:03.883Z</time>
      </trkpt>
      <trkpt lat="43.09565333" lon="-4.14691167">
        <ele>822.0</ele>
        <time>2018-05-19T12:28:04.880Z</time>
      </trkpt>
      <trkpt lat="43.09560833" lon="-4.14684833">
        <ele>822.0</ele>
        <time>2018-05-19T12:28:05.881Z</time>
      </trkpt>
      <trkpt lat="43.09560833" lon="-4.14684833">
        <ele>822.0</ele>
        <time>2018-05-19T12:28:06.880Z</time>
      </trkpt>
      <trkpt lat="43.09555667" lon="-4.14680667">
        <ele>822.0</ele>
        <time>2018-05-19T12:28:07.882Z</time>
      </trkpt>
      <trkpt lat="43.09555667" lon="-4.14680667">
        <ele>822.0</ele>
        <time>2018-05-19T12:28:08.880Z</time>
      </trkpt>
      <trkpt lat="43.0955" lon="-4.146785">
        <ele>821.0</ele>
        <time>2018-05-19T12:28:09.844Z</time>
      </trkpt>
      <trkpt lat="43.0955" lon="-4.146785">
        <ele>821.0</ele>
        <time>2018-05-19T12:28:10.880Z</time>
      </trkpt>
      <trkpt lat="43.09543667" lon="-4.14677833">
        <ele>821.0</ele>
        <time>2018-05-19T12:28:11.883Z</time>
      </trkpt>
      <trkpt lat="43.09543667" lon="-4.14677833">
        <ele>821.0</ele>
        <time>2018-05-19T12:28:12.883Z</time>
      </trkpt>
      <trkpt lat="43.09538333" lon="-4.14676667">
        <ele>821.0</ele>
        <time>2018-05-19T12:28:13.883Z</time>
      </trkpt>
      <trkpt lat="43.09535333" lon="-4.14676">
        <ele>821.0</ele>
        <time>2018-05-19T12:28:14.881Z</time>
      </trkpt>
      <trkpt lat="43.09535333" lon="-4.14676">
        <ele>821.0</ele>
        <time>2018-05-19T12:28:15.873Z</time>
      </trkpt>
      <trkpt lat="43.09530167" lon="-4.14674">
        <ele>821.0</ele>
        <time>2018-05-19T12:28:16.883Z</time>
      </trkpt>
      <trkpt lat="43.095275" lon="-4.14673167">
        <ele>821.0</ele>
        <time>2018-05-19T12:28:17.881Z</time>
      </trkpt>
      <trkpt lat="43.095275" lon="-4.14673167">
        <ele>821.0</ele>
        <time>2018-05-19T12:28:18.880Z</time>
      </trkpt>
      <trkpt lat="43.0952" lon="-4.14673">
        <ele>821.0</ele>
        <time>2018-05-19T12:28:19.881Z</time>
      </trkpt>
      <trkpt lat="43.0952" lon="-4.14673">
        <ele>821.0</ele>
        <time>2018-05-19T12:28:20.878Z</time>
      </trkpt>
      <trkpt lat="43.09512167" lon="-4.14674167">
        <ele>821.0</ele>
        <time>2018-05-19T12:28:21.882Z</time>
      </trkpt>
      <trkpt lat="43.09512167" lon="-4.14674167">
        <ele>821.0</ele>
        <time>2018-05-19T12:28:22.854Z</time>
      </trkpt>
      <trkpt lat="43.09506" lon="-4.146765">
        <ele>821.0</ele>
        <time>2018-05-19T12:28:23.882Z</time>
      </trkpt>
      <trkpt lat="43.09506" lon="-4.146765">
        <ele>821.0</ele>
        <time>2018-05-19T12:28:24.869Z</time>
      </trkpt>
      <trkpt lat="43.09496667" lon="-4.14680167">
        <ele>820.0</ele>
        <time>2018-05-19T12:28:25.852Z</time>
      </trkpt>
      <trkpt lat="43.09496667" lon="-4.14680167">
        <ele>820.0</ele>
        <time>2018-05-19T12:28:26.878Z</time>
      </trkpt>
      <trkpt lat="43.09486" lon="-4.14684333">
        <ele>820.0</ele>
        <time>2018-05-19T12:28:27.883Z</time>
      </trkpt>
      <trkpt lat="43.09486" lon="-4.14684333">
        <ele>820.0</ele>
        <time>2018-05-19T12:28:28.880Z</time>
      </trkpt>
      <trkpt lat="43.09474833" lon="-4.14687667">
        <ele>820.0</ele>
        <time>2018-05-19T12:28:29.883Z</time>
      </trkpt>
      <trkpt lat="43.09474833" lon="-4.14687667">
        <ele>820.0</ele>
        <time>2018-05-19T12:28:30.880Z</time>
      </trkpt>
      <trkpt lat="43.094645" lon="-4.14690167">
        <ele>820.0</ele>
        <time>2018-05-19T12:28:31.882Z</time>
      </trkpt>
      <trkpt lat="43.09459833" lon="-4.14690833">
        <ele>820.0</ele>
        <time>2018-05-19T12:28:32.844Z</time>
      </trkpt>
      <trkpt lat="43.094545" lon="-4.14691833">
        <ele>820.0</ele>
        <time>2018-05-19T12:28:33.883Z</time>
      </trkpt>
      <trkpt lat="43.094545" lon="-4.14691833">
        <ele>820.0</ele>
        <time>2018-05-19T12:28:34.847Z</time>
      </trkpt>
      <trkpt lat="43.094415" lon="-4.14694">
        <ele>819.0</ele>
        <time>2018-05-19T12:28:35.883Z</time>
      </trkpt>
      <trkpt lat="43.09436" lon="-4.14695167">
        <ele>819.0</ele>
        <time>2018-05-19T12:28:36.884Z</time>
      </trkpt>
      <trkpt lat="43.09436" lon="-4.14695167">
        <ele>819.0</ele>
        <time>2018-05-19T12:28:37.880Z</time>
      </trkpt>
      <trkpt lat="43.09422333" lon="-4.14695667">
        <ele>819.0</ele>
        <time>2018-05-19T12:28:38.882Z</time>
      </trkpt>
      <trkpt lat="43.09415333" lon="-4.14695333">
        <ele>819.0</ele>
        <time>2018-05-19T12:28:39.844Z</time>
      </trkpt>
      <trkpt lat="43.09415333" lon="-4.14695333">
        <ele>819.0</ele>
        <time>2018-05-19T12:28:40.872Z</time>
      </trkpt>
      <trkpt lat="43.09400667" lon="-4.14696">
        <ele>818.0</ele>
        <time>2018-05-19T12:28:41.882Z</time>
      </trkpt>
      <trkpt lat="43.09400667" lon="-4.14696">
        <ele>818.0</ele>
        <time>2018-05-19T12:28:42.880Z</time>
      </trkpt>
      <trkpt lat="43.09382667" lon="-4.146955">
        <ele>818.0</ele>
        <time>2018-05-19T12:28:43.882Z</time>
      </trkpt>
      <trkpt lat="43.09382667" lon="-4.146955">
        <ele>818.0</ele>
        <time>2018-05-19T12:28:44.871Z</time>
      </trkpt>
      <trkpt lat="43.09365667" lon="-4.14694333">
        <ele>818.0</ele>
        <time>2018-05-19T12:28:45.858Z</time>
      </trkpt>
      <trkpt lat="43.09357333" lon="-4.14693167">
        <ele>818.0</ele>
        <time>2018-05-19T12:28:46.867Z</time>
      </trkpt>
      <trkpt lat="43.09357333" lon="-4.14693167">
        <ele>818.0</ele>
        <time>2018-05-19T12:28:47.874Z</time>
      </trkpt>
      <trkpt lat="43.09341167" lon="-4.14688">
        <ele>817.0</ele>
        <time>2018-05-19T12:28:48.883Z</time>
      </trkpt>
      <trkpt lat="43.09341167" lon="-4.14688">
        <ele>817.0</ele>
        <time>2018-05-19T12:28:49.872Z</time>
      </trkpt>
      <trkpt lat="43.09324833" lon="-4.14679667">
        <ele>817.0</ele>
        <time>2018-05-19T12:28:50.882Z</time>
      </trkpt>
      <trkpt lat="43.093165" lon="-4.14675333">
        <ele>817.0</ele>
        <time>2018-05-19T12:28:51.882Z</time>
      </trkpt>
      <trkpt lat="43.093165" lon="-4.14675333">
        <ele>817.0</ele>
        <time>2018-05-19T12:28:52.881Z</time>
      </trkpt>
      <trkpt lat="43.092985" lon="-4.14667667">
        <ele>816.0</ele>
        <time>2018-05-19T12:28:53.883Z</time>
      </trkpt>
      <trkpt lat="43.092985" lon="-4.14667667">
        <ele>816.0</ele>
        <time>2018-05-19T12:28:54.880Z</time>
      </trkpt>
      <trkpt lat="43.09282333" lon="-4.14657">
        <ele>815.0</ele>
        <time>2018-05-19T12:28:55.844Z</time>
      </trkpt>
      <trkpt lat="43.09273333" lon="-4.14651833">
        <ele>815.0</ele>
        <time>2018-05-19T12:28:56.844Z</time>
      </trkpt>
      <trkpt lat="43.09273333" lon="-4.14651833">
        <ele>815.0</ele>
        <time>2018-05-19T12:28:57.872Z</time>
      </trkpt>
      <trkpt lat="43.09256333" lon="-4.14641167">
        <ele>814.0</ele>
        <time>2018-05-19T12:28:58.883Z</time>
      </trkpt>
      <trkpt lat="43.09256333" lon="-4.14641167">
        <ele>814.0</ele>
        <time>2018-05-19T12:28:59.881Z</time>
      </trkpt>
      <trkpt lat="43.09239" lon="-4.14630167">
        <ele>814.0</ele>
        <time>2018-05-19T12:29:00.883Z</time>
      </trkpt>
      <trkpt lat="43.09230167" lon="-4.14624833">
        <ele>814.0</ele>
        <time>2018-05-19T12:29:01.883Z</time>
      </trkpt>
      <trkpt lat="43.09230167" lon="-4.14624833">
        <ele>814.0</ele>
        <time>2018-05-19T12:29:02.878Z</time>
      </trkpt>
      <trkpt lat="43.092115" lon="-4.146155">
        <ele>813.0</ele>
        <time>2018-05-19T12:29:03.882Z</time>
      </trkpt>
      <trkpt lat="43.09202667" lon="-4.146105">
        <ele>813.0</ele>
        <time>2018-05-19T12:29:04.883Z</time>
      </trkpt>
      <trkpt lat="43.09193833" lon="-4.14604833">
        <ele>812.0</ele>
        <time>2018-05-19T12:29:05.883Z</time>
      </trkpt>
      <trkpt lat="43.09193833" lon="-4.14604833">
        <ele>812.0</ele>
        <time>2018-05-19T12:29:06.880Z</time>
      </trkpt>
      <trkpt lat="43.09176" lon="-4.14592667">
        <ele>812.0</ele>
        <time>2018-05-19T12:29:07.883Z</time>
      </trkpt>
      <trkpt lat="43.09176" lon="-4.14592667">
        <ele>812.0</ele>
        <time>2018-05-19T12:29:08.880Z</time>
      </trkpt>
      <trkpt lat="43.091595" lon="-4.14580333">
        <ele>811.0</ele>
        <time>2018-05-19T12:29:09.883Z</time>
      </trkpt>
      <trkpt lat="43.09151333" lon="-4.145745">
        <ele>811.0</ele>
        <time>2018-05-19T12:29:10.881Z</time>
      </trkpt>
      <trkpt lat="43.09151333" lon="-4.145745">
        <ele>811.0</ele>
        <time>2018-05-19T12:29:11.880Z</time>
      </trkpt>
      <trkpt lat="43.09136" lon="-4.14565833">
        <ele>811.0</ele>
        <time>2018-05-19T12:29:12.882Z</time>
      </trkpt>
      <trkpt lat="43.09136" lon="-4.14565833">
        <ele>811.0</ele>
        <time>2018-05-19T12:29:13.879Z</time>
      </trkpt>
      <trkpt lat="43.09116667" lon="-4.14557">
        <ele>810.0</ele>
        <time>2018-05-19T12:29:14.883Z</time>
      </trkpt>
      <trkpt lat="43.09116667" lon="-4.14557">
        <ele>810.0</ele>
        <time>2018-05-19T12:29:15.873Z</time>
      </trkpt>
      <trkpt lat="43.09098167" lon="-4.14545667">
        <ele>809.0</ele>
        <time>2018-05-19T12:29:16.858Z</time>
      </trkpt>
      <trkpt lat="43.09088667" lon="-4.14539833">
        <ele>809.0</ele>
        <time>2018-05-19T12:29:17.847Z</time>
      </trkpt>
      <trkpt lat="43.09088667" lon="-4.14539833">
        <ele>809.0</ele>
        <time>2018-05-19T12:29:18.880Z</time>
      </trkpt>
      <trkpt lat="43.09072333" lon="-4.145305">
        <ele>808.0</ele>
        <time>2018-05-19T12:29:19.844Z</time>
      </trkpt>
      <trkpt lat="43.09072333" lon="-4.145305">
        <ele>808.0</ele>
        <time>2018-05-19T12:29:20.864Z</time>
      </trkpt>
      <trkpt lat="43.09057333" lon="-4.14530833">
        <ele>807.0</ele>
        <time>2018-05-19T12:29:21.851Z</time>
      </trkpt>
      <trkpt lat="43.09057333" lon="-4.14530833">
        <ele>807.0</ele>
        <time>2018-05-19T12:29:22.881Z</time>
      </trkpt>
      <trkpt lat="43.090465" lon="-4.14542167">
        <ele>807.0</ele>
        <time>2018-05-19T12:29:23.844Z</time>
      </trkpt>
      <trkpt lat="43.090465" lon="-4.14542167">
        <ele>807.0</ele>
        <time>2018-05-19T12:29:24.872Z</time>
      </trkpt>
      <trkpt lat="43.09033833" lon="-4.14548">
        <ele>806.0</ele>
        <time>2018-05-19T12:29:25.882Z</time>
      </trkpt>
      <trkpt lat="43.09033833" lon="-4.14548">
        <ele>806.0</ele>
        <time>2018-05-19T12:29:26.878Z</time>
      </trkpt>
      <trkpt lat="43.09022" lon="-4.14539833">
        <ele>806.0</ele>
        <time>2018-05-19T12:29:27.882Z</time>
      </trkpt>
      <trkpt lat="43.09017667" lon="-4.14533333">
        <ele>805.0</ele>
        <time>2018-05-19T12:29:28.883Z</time>
      </trkpt>
      <trkpt lat="43.09017667" lon="-4.14533333">
        <ele>805.0</ele>
        <time>2018-05-19T12:29:29.873Z</time>
      </trkpt>
      <trkpt lat="43.09010333" lon="-4.14519167">
        <ele>805.0</ele>
        <time>2018-05-19T12:29:30.881Z</time>
      </trkpt>
      <trkpt lat="43.09006833" lon="-4.14513333">
        <ele>805.0</ele>
        <time>2018-05-19T12:29:31.850Z</time>
      </trkpt>
      <trkpt lat="43.09006833" lon="-4.14513333">
        <ele>805.0</ele>
        <time>2018-05-19T12:29:32.880Z</time>
      </trkpt>
      <trkpt lat="43.09000167" lon="-4.14503667">
        <ele>804.0</ele>
        <time>2018-05-19T12:29:33.844Z</time>
      </trkpt>
      <trkpt lat="43.08995833" lon="-4.14500167">
        <ele>804.0</ele>
        <time>2018-05-19T12:29:34.882Z</time>
      </trkpt>
      <trkpt lat="43.08995833" lon="-4.14500167">
        <ele>804.0</ele>
        <time>2018-05-19T12:29:35.880Z</time>
      </trkpt>
      <trkpt lat="43.08987833" lon="-4.14493667">
        <ele>803.0</ele>
        <time>2018-05-19T12:29:36.881Z</time>
      </trkpt>
      <trkpt lat="43.08984167" lon="-4.144905">
        <ele>803.0</ele>
        <time>2018-05-19T12:29:37.882Z</time>
      </trkpt>
      <trkpt lat="43.08984167" lon="-4.144905">
        <ele>803.0</ele>
        <time>2018-05-19T12:29:38.880Z</time>
      </trkpt>
      <trkpt lat="43.089765" lon="-4.14483667">
        <ele>802.0</ele>
        <time>2018-05-19T12:29:39.882Z</time>
      </trkpt>
      <trkpt lat="43.089765" lon="-4.14483667">
        <ele>802.0</ele>
        <time>2018-05-19T12:29:40.873Z</time>
      </trkpt>
      <trkpt lat="43.08968667" lon="-4.144775">
        <ele>802.0</ele>
        <time>2018-05-19T12:29:41.881Z</time>
      </trkpt>
      <trkpt lat="43.08965333" lon="-4.14475333">
        <ele>802.0</ele>
        <time>2018-05-19T12:29:42.883Z</time>
      </trkpt>
      <trkpt lat="43.08961833" lon="-4.14473833">
        <ele>801.0</ele>
        <time>2018-05-19T12:29:43.883Z</time>
      </trkpt>
      <trkpt lat="43.08961833" lon="-4.14473833">
        <ele>801.0</ele>
        <time>2018-05-19T12:29:44.879Z</time>
      </trkpt>
      <trkpt lat="43.08956833" lon="-4.14470167">
        <ele>801.0</ele>
        <time>2018-05-19T12:29:45.850Z</time>
      </trkpt>
      <trkpt lat="43.08952833" lon="-4.14468667">
        <ele>800.0</ele>
        <time>2018-05-19T12:29:46.867Z</time>
      </trkpt>
      <trkpt lat="43.08952833" lon="-4.14468667">
        <ele>800.0</ele>
        <time>2018-05-19T12:29:47.874Z</time>
      </trkpt>
      <trkpt lat="43.08945333" lon="-4.14465833">
        <ele>800.0</ele>
        <time>2018-05-19T12:29:48.882Z</time>
      </trkpt>
      <trkpt lat="43.08945333" lon="-4.14465833">
        <ele>800.0</ele>
        <time>2018-05-19T12:29:49.880Z</time>
      </trkpt>
      <trkpt lat="43.08936833" lon="-4.14464">
        <ele>799.0</ele>
        <time>2018-05-19T12:29:50.882Z</time>
      </trkpt>
      <trkpt lat="43.08915833" lon="-4.14464">
        <ele>798.0</ele>
        <time>2018-05-19T12:29:51.844Z</time>
      </trkpt>
      <trkpt lat="43.08905333" lon="-4.144635">
        <ele>797.0</ele>
        <time>2018-05-19T12:29:52.865Z</time>
      </trkpt>
      <trkpt lat="43.08905333" lon="-4.144635">
        <ele>797.0</ele>
        <time>2018-05-19T12:29:53.858Z</time>
      </trkpt>
      <trkpt lat="43.088895" lon="-4.14462333">
        <ele>796.0</ele>
        <time>2018-05-19T12:29:54.864Z</time>
      </trkpt>
      <trkpt lat="43.088895" lon="-4.14462333">
        <ele>796.0</ele>
        <time>2018-05-19T12:29:55.871Z</time>
      </trkpt>
      <trkpt lat="43.088785" lon="-4.14461833">
        <ele>796.0</ele>
        <time>2018-05-19T12:29:56.881Z</time>
      </trkpt>
      <trkpt lat="43.08873667" lon="-4.14461333">
        <ele>796.0</ele>
        <time>2018-05-19T12:29:57.881Z</time>
      </trkpt>
      <trkpt lat="43.08868667" lon="-4.14461">
        <ele>795.0</ele>
        <time>2018-05-19T12:29:58.845Z</time>
      </trkpt>
      <trkpt lat="43.08868667" lon="-4.14461">
        <ele>795.0</ele>
        <time>2018-05-19T12:29:59.850Z</time>
      </trkpt>
      <trkpt lat="43.08859333" lon="-4.14460333">
        <ele>795.0</ele>
        <time>2018-05-19T12:30:00.881Z</time>
      </trkpt>
      <trkpt lat="43.088545" lon="-4.1446">
        <ele>795.0</ele>
        <time>2018-05-19T12:30:01.881Z</time>
      </trkpt>
      <trkpt lat="43.088545" lon="-4.1446">
        <ele>795.0</ele>
        <time>2018-05-19T12:30:02.879Z</time>
      </trkpt>
      <trkpt lat="43.08845667" lon="-4.14460167">
        <ele>794.0</ele>
        <time>2018-05-19T12:30:03.883Z</time>
      </trkpt>
      <trkpt lat="43.088415" lon="-4.14459833">
        <ele>794.0</ele>
        <time>2018-05-19T12:30:04.883Z</time>
      </trkpt>
      <trkpt lat="43.088415" lon="-4.14459833">
        <ele>794.0</ele>
        <time>2018-05-19T12:30:05.871Z</time>
      </trkpt>
      <trkpt lat="43.08833" lon="-4.14461">
        <ele>794.0</ele>
        <time>2018-05-19T12:30:06.881Z</time>
      </trkpt>
      <trkpt lat="43.08833" lon="-4.14461">
        <ele>794.0</ele>
        <time>2018-05-19T12:30:07.870Z</time>
      </trkpt>
      <trkpt lat="43.08824333" lon="-4.144635">
        <ele>794.0</ele>
        <time>2018-05-19T12:30:08.881Z</time>
      </trkpt>
      <trkpt lat="43.08820167" lon="-4.14466333">
        <ele>794.0</ele>
        <time>2018-05-19T12:30:09.844Z</time>
      </trkpt>
      <trkpt lat="43.08820167" lon="-4.14466333">
        <ele>794.0</ele>
        <time>2018-05-19T12:30:10.881Z</time>
      </trkpt>
      <trkpt lat="43.08813333" lon="-4.14474">
        <ele>794.0</ele>
        <time>2018-05-19T12:30:11.883Z</time>
      </trkpt>
      <trkpt lat="43.08813333" lon="-4.14474">
        <ele>794.0</ele>
        <time>2018-05-19T12:30:12.871Z</time>
      </trkpt>
      <trkpt lat="43.08806833" lon="-4.14482333">
        <ele>794.0</ele>
        <time>2018-05-19T12:30:13.880Z</time>
      </trkpt>
      <trkpt lat="43.08806833" lon="-4.14482333">
        <ele>794.0</ele>
        <time>2018-05-19T12:30:14.873Z</time>
      </trkpt>
      <trkpt lat="43.08801167" lon="-4.144915">
        <ele>795.0</ele>
        <time>2018-05-19T12:30:15.877Z</time>
      </trkpt>
      <trkpt lat="43.08801167" lon="-4.144915">
        <ele>795.0</ele>
        <time>2018-05-19T12:30:16.880Z</time>
      </trkpt>
      <trkpt lat="43.08796" lon="-4.14501667">
        <ele>795.0</ele>
        <time>2018-05-19T12:30:17.880Z</time>
      </trkpt>
      <trkpt lat="43.08796" lon="-4.14501667">
        <ele>795.0</ele>
        <time>2018-05-19T12:30:18.880Z</time>
      </trkpt>
      <trkpt lat="43.08789667" lon="-4.14511167">
        <ele>795.0</ele>
        <time>2018-05-19T12:30:19.881Z</time>
      </trkpt>
      <trkpt lat="43.08786667" lon="-4.14515833">
        <ele>795.0</ele>
        <time>2018-05-19T12:30:20.853Z</time>
      </trkpt>
      <trkpt lat="43.08786667" lon="-4.14515833">
        <ele>795.0</ele>
        <time>2018-05-19T12:30:21.844Z</time>
      </trkpt>
      <trkpt lat="43.08780333" lon="-4.14525333">
        <ele>795.0</ele>
        <time>2018-05-19T12:30:22.851Z</time>
      </trkpt>
      <trkpt lat="43.087765" lon="-4.1453">
        <ele>796.0</ele>
        <time>2018-05-19T12:30:23.857Z</time>
      </trkpt>
      <trkpt lat="43.08772667" lon="-4.14535">
        <ele>796.0</ele>
        <time>2018-05-19T12:30:24.882Z</time>
      </trkpt>
      <trkpt lat="43.08772667" lon="-4.14535">
        <ele>796.0</ele>
        <time>2018-05-19T12:30:25.880Z</time>
      </trkpt>
      <trkpt lat="43.08764" lon="-4.14543667">
        <ele>796.0</ele>
        <time>2018-05-19T12:30:26.880Z</time>
      </trkpt>
      <trkpt lat="43.08759" lon="-4.14548667">
        <ele>796.0</ele>
        <time>2018-05-19T12:30:27.883Z</time>
      </trkpt>
      <trkpt lat="43.08753667" lon="-4.14553333">
        <ele>796.0</ele>
        <time>2018-05-19T12:30:28.856Z</time>
      </trkpt>
      <trkpt lat="43.08748833" lon="-4.14558167">
        <ele>796.0</ele>
        <time>2018-05-19T12:30:29.883Z</time>
      </trkpt>
      <trkpt lat="43.08748833" lon="-4.14558167">
        <ele>796.0</ele>
        <time>2018-05-19T12:30:30.870Z</time>
      </trkpt>
      <trkpt lat="43.08739833" lon="-4.14568833">
        <ele>796.0</ele>
        <time>2018-05-19T12:30:31.852Z</time>
      </trkpt>
      <trkpt lat="43.08739833" lon="-4.14568833">
        <ele>796.0</ele>
        <time>2018-05-19T12:30:32.880Z</time>
      </trkpt>
      <trkpt lat="43.08731333" lon="-4.145815">
        <ele>796.0</ele>
        <time>2018-05-19T12:30:33.884Z</time>
      </trkpt>
      <trkpt lat="43.08731333" lon="-4.145815">
        <ele>796.0</ele>
        <time>2018-05-19T12:30:34.878Z</time>
      </trkpt>
      <trkpt lat="43.08724167" lon="-4.14595167">
        <ele>795.0</ele>
        <time>2018-05-19T12:30:35.844Z</time>
      </trkpt>
      <trkpt lat="43.08724167" lon="-4.14595167">
        <ele>795.0</ele>
        <time>2018-05-19T12:30:36.879Z</time>
      </trkpt>
      <trkpt lat="43.08721167" lon="-4.14611">
        <ele>794.0</ele>
        <time>2018-05-19T12:30:37.881Z</time>
      </trkpt>
      <trkpt lat="43.08718833" lon="-4.14619">
        <ele>794.0</ele>
        <time>2018-05-19T12:30:38.846Z</time>
      </trkpt>
      <trkpt lat="43.08718833" lon="-4.14619">
        <ele>794.0</ele>
        <time>2018-05-19T12:30:39.881Z</time>
      </trkpt>
      <trkpt lat="43.08713667" lon="-4.146345">
        <ele>794.0</ele>
        <time>2018-05-19T12:30:40.884Z</time>
      </trkpt>
      <trkpt lat="43.08711833" lon="-4.14642">
        <ele>793.0</ele>
        <time>2018-05-19T12:30:41.882Z</time>
      </trkpt>
      <trkpt lat="43.08711833" lon="-4.14642">
        <ele>793.0</ele>
        <time>2018-05-19T12:30:42.880Z</time>
      </trkpt>
      <trkpt lat="43.08700833" lon="-4.14654333">
        <ele>793.0</ele>
        <time>2018-05-19T12:30:43.883Z</time>
      </trkpt>
      <trkpt lat="43.08696833" lon="-4.14661333">
        <ele>792.0</ele>
        <time>2018-05-19T12:30:44.882Z</time>
      </trkpt>
      <trkpt lat="43.08696833" lon="-4.14661333">
        <ele>792.0</ele>
        <time>2018-05-19T12:30:45.853Z</time>
      </trkpt>
      <trkpt lat="43.08689" lon="-4.14676333">
        <ele>791.0</ele>
        <time>2018-05-19T12:30:46.871Z</time>
      </trkpt>
      <trkpt lat="43.08685833" lon="-4.14684333">
        <ele>791.0</ele>
        <time>2018-05-19T12:30:47.876Z</time>
      </trkpt>
      <trkpt lat="43.086825" lon="-4.146925">
        <ele>790.0</ele>
        <time>2018-05-19T12:30:48.883Z</time>
      </trkpt>
      <trkpt lat="43.08677833" lon="-4.14699667">
        <ele>790.0</ele>
        <time>2018-05-19T12:30:49.848Z</time>
      </trkpt>
      <trkpt lat="43.08677833" lon="-4.14699667">
        <ele>790.0</ele>
        <time>2018-05-19T12:30:50.854Z</time>
      </trkpt>
      <trkpt lat="43.08672" lon="-4.14712333">
        <ele>789.0</ele>
        <time>2018-05-19T12:30:51.882Z</time>
      </trkpt>
      <trkpt lat="43.08672" lon="-4.14712333">
        <ele>789.0</ele>
        <time>2018-05-19T12:30:52.872Z</time>
      </trkpt>
      <trkpt lat="43.08662667" lon="-4.14717667">
        <ele>788.0</ele>
        <time>2018-05-19T12:30:53.881Z</time>
      </trkpt>
      <trkpt lat="43.08662667" lon="-4.14717667">
        <ele>788.0</ele>
        <time>2018-05-19T12:30:54.879Z</time>
      </trkpt>
      <trkpt lat="43.08651667" lon="-4.14724333">
        <ele>788.0</ele>
        <time>2018-05-19T12:30:55.881Z</time>
      </trkpt>
      <trkpt lat="43.08648333" lon="-4.14727833">
        <ele>787.0</ele>
        <time>2018-05-19T12:30:56.844Z</time>
      </trkpt>
      <trkpt lat="43.08648333" lon="-4.14727833">
        <ele>787.0</ele>
        <time>2018-05-19T12:30:57.872Z</time>
      </trkpt>
      <trkpt lat="43.08640167" lon="-4.147335">
        <ele>788.0</ele>
        <time>2018-05-19T12:30:58.882Z</time>
      </trkpt>
      <trkpt lat="43.08632833" lon="-4.147355">
        <ele>790.0</ele>
        <time>2018-05-19T12:30:59.883Z</time>
      </trkpt>
      <trkpt lat="43.08632833" lon="-4.147355">
        <ele>790.0</ele>
        <time>2018-05-19T12:31:00.871Z</time>
      </trkpt>
      <trkpt lat="43.086255" lon="-4.14741667">
        <ele>791.0</ele>
        <time>2018-05-19T12:31:01.858Z</time>
      </trkpt>
      <trkpt lat="43.08623333" lon="-4.14744833">
        <ele>791.0</ele>
        <time>2018-05-19T12:31:02.847Z</time>
      </trkpt>
      <trkpt lat="43.08623333" lon="-4.14744833">
        <ele>791.0</ele>
        <time>2018-05-19T12:31:03.879Z</time>
      </trkpt>
      <trkpt lat="43.086195" lon="-4.14750667">
        <ele>792.0</ele>
        <time>2018-05-19T12:31:04.882Z</time>
      </trkpt>
      <trkpt lat="43.08617833" lon="-4.14753833">
        <ele>792.0</ele>
        <time>2018-05-19T12:31:05.880Z</time>
      </trkpt>
      <trkpt lat="43.08617833" lon="-4.14753833">
        <ele>792.0</ele>
        <time>2018-05-19T12:31:06.879Z</time>
      </trkpt>
      <trkpt lat="43.08616167" lon="-4.14760333">
        <ele>792.0</ele>
        <time>2018-05-19T12:31:07.881Z</time>
      </trkpt>
      <trkpt lat="43.08616167" lon="-4.14760333">
        <ele>792.0</ele>
        <time>2018-05-19T12:31:08.879Z</time>
      </trkpt>
      <trkpt lat="43.08615333" lon="-4.147675">
        <ele>792.0</ele>
        <time>2018-05-19T12:31:09.882Z</time>
      </trkpt>
      <trkpt lat="43.08615333" lon="-4.147675">
        <ele>792.0</ele>
        <time>2018-05-19T12:31:10.870Z</time>
      </trkpt>
      <trkpt lat="43.08614833" lon="-4.14774333">
        <ele>792.0</ele>
        <time>2018-05-19T12:31:11.881Z</time>
      </trkpt>
      <trkpt lat="43.08614833" lon="-4.14774333">
        <ele>792.0</ele>
        <time>2018-05-19T12:31:12.878Z</time>
      </trkpt>
      <trkpt lat="43.08614667" lon="-4.14780667">
        <ele>792.0</ele>
        <time>2018-05-19T12:31:13.881Z</time>
      </trkpt>
      <trkpt lat="43.08614333" lon="-4.14783667">
        <ele>791.0</ele>
        <time>2018-05-19T12:31:14.881Z</time>
      </trkpt>
      <trkpt lat="43.08614333" lon="-4.14783667">
        <ele>791.0</ele>
        <time>2018-05-19T12:31:15.873Z</time>
      </trkpt>
      <trkpt lat="43.08613833" lon="-4.14790333">
        <ele>791.0</ele>
        <time>2018-05-19T12:31:16.857Z</time>
      </trkpt>
      <trkpt lat="43.08612" lon="-4.14793">
        <ele>792.0</ele>
        <time>2018-05-19T12:31:17.883Z</time>
      </trkpt>
      <trkpt lat="43.08612" lon="-4.14793">
        <ele>792.0</ele>
        <time>2018-05-19T12:31:18.878Z</time>
      </trkpt>
      <trkpt lat="43.086105" lon="-4.148">
        <ele>792.0</ele>
        <time>2018-05-19T12:31:19.881Z</time>
      </trkpt>
      <trkpt lat="43.08607" lon="-4.14801667">
        <ele>792.0</ele>
        <time>2018-05-19T12:31:20.883Z</time>
      </trkpt>
      <trkpt lat="43.08607" lon="-4.14801667">
        <ele>792.0</ele>
        <time>2018-05-19T12:31:21.879Z</time>
      </trkpt>
      <trkpt lat="43.08589667" lon="-4.14803333">
        <ele>794.0</ele>
        <time>2018-05-19T12:31:22.883Z</time>
      </trkpt>
      <trkpt lat="43.08586667" lon="-4.148045">
        <ele>794.0</ele>
        <time>2018-05-19T12:31:23.883Z</time>
      </trkpt>
      <trkpt lat="43.08585333" lon="-4.14806333">
        <ele>795.0</ele>
        <time>2018-05-19T12:31:24.847Z</time>
      </trkpt>
      <trkpt lat="43.08585333" lon="-4.14806333">
        <ele>795.0</ele>
        <time>2018-05-19T12:31:25.879Z</time>
      </trkpt>
      <trkpt lat="43.08582333" lon="-4.14811333">
        <ele>795.0</ele>
        <time>2018-05-19T12:31:26.881Z</time>
      </trkpt>
      <trkpt lat="43.08580667" lon="-4.148135">
        <ele>796.0</ele>
        <time>2018-05-19T12:31:27.882Z</time>
      </trkpt>
      <trkpt lat="43.08580667" lon="-4.148135">
        <ele>796.0</ele>
        <time>2018-05-19T12:31:28.879Z</time>
      </trkpt>
      <trkpt lat="43.085775" lon="-4.148175">
        <ele>797.0</ele>
        <time>2018-05-19T12:31:29.881Z</time>
      </trkpt>
      <trkpt lat="43.085775" lon="-4.148175">
        <ele>797.0</ele>
        <time>2018-05-19T12:31:30.877Z</time>
      </trkpt>
      <trkpt lat="43.08574167" lon="-4.14822333">
        <ele>798.0</ele>
        <time>2018-05-19T12:31:31.880Z</time>
      </trkpt>
      <trkpt lat="43.085735" lon="-4.14824667">
        <ele>798.0</ele>
        <time>2018-05-19T12:31:32.859Z</time>
      </trkpt>
      <trkpt lat="43.085725" lon="-4.14826167">
        <ele>798.0</ele>
        <time>2018-05-19T12:31:33.882Z</time>
      </trkpt>
      <trkpt lat="43.085725" lon="-4.14826167">
        <ele>798.0</ele>
        <time>2018-05-19T12:31:34.880Z</time>
      </trkpt>
      <trkpt lat="43.08571" lon="-4.1483">
        <ele>799.0</ele>
        <time>2018-05-19T12:31:35.881Z</time>
      </trkpt>
      <trkpt lat="43.08569667" lon="-4.14832">
        <ele>799.0</ele>
        <time>2018-05-19T12:31:36.882Z</time>
      </trkpt>
      <trkpt lat="43.08569667" lon="-4.14832">
        <ele>799.0</ele>
        <time>2018-05-19T12:31:37.872Z</time>
      </trkpt>
      <trkpt lat="43.085665" lon="-4.148355">
        <ele>800.0</ele>
        <time>2018-05-19T12:31:38.881Z</time>
      </trkpt>
      <trkpt lat="43.085665" lon="-4.148355">
        <ele>800.0</ele>
        <time>2018-05-19T12:31:39.879Z</time>
      </trkpt>
      <trkpt lat="43.085635" lon="-4.14839833">
        <ele>801.0</ele>
        <time>2018-05-19T12:31:40.883Z</time>
      </trkpt>
      <trkpt lat="43.085635" lon="-4.14839833">
        <ele>801.0</ele>
        <time>2018-05-19T12:31:41.871Z</time>
      </trkpt>
      <trkpt lat="43.085615" lon="-4.148445">
        <ele>801.0</ele>
        <time>2018-05-19T12:31:42.883Z</time>
      </trkpt>
      <trkpt lat="43.085605" lon="-4.14846667">
        <ele>802.0</ele>
        <time>2018-05-19T12:31:43.880Z</time>
      </trkpt>
      <trkpt lat="43.085605" lon="-4.14846667">
        <ele>802.0</ele>
        <time>2018-05-19T12:31:44.872Z</time>
      </trkpt>
      <trkpt lat="43.08557833" lon="-4.14851167">
        <ele>802.0</ele>
        <time>2018-05-19T12:31:45.866Z</time>
      </trkpt>
      <trkpt lat="43.08557833" lon="-4.14851167">
        <ele>802.0</ele>
        <time>2018-05-19T12:31:46.865Z</time>
      </trkpt>
      <trkpt lat="43.085555" lon="-4.14855833">
        <ele>802.0</ele>
        <time>2018-05-19T12:31:47.872Z</time>
      </trkpt>
      <trkpt lat="43.08554333" lon="-4.14858333">
        <ele>803.0</ele>
        <time>2018-05-19T12:31:48.849Z</time>
      </trkpt>
      <trkpt lat="43.08554333" lon="-4.14858333">
        <ele>803.0</ele>
        <time>2018-05-19T12:31:49.878Z</time>
      </trkpt>
      <trkpt lat="43.08553167" lon="-4.14864">
        <ele>803.0</ele>
        <time>2018-05-19T12:31:50.882Z</time>
      </trkpt>
      <trkpt lat="43.08552667" lon="-4.14867">
        <ele>803.0</ele>
        <time>2018-05-19T12:31:51.882Z</time>
      </trkpt>
      <trkpt lat="43.08552667" lon="-4.14867">
        <ele>803.0</ele>
        <time>2018-05-19T12:31:52.880Z</time>
      </trkpt>
      <trkpt lat="43.08549667" lon="-4.14871">
        <ele>804.0</ele>
        <time>2018-05-19T12:31:53.882Z</time>
      </trkpt>
      <trkpt lat="43.08549667" lon="-4.14871">
        <ele>804.0</ele>
        <time>2018-05-19T12:31:54.878Z</time>
      </trkpt>
      <trkpt lat="43.08550333" lon="-4.14879167">
        <ele>804.0</ele>
        <time>2018-05-19T12:31:55.882Z</time>
      </trkpt>
      <trkpt lat="43.08550333" lon="-4.14879167">
        <ele>804.0</ele>
        <time>2018-05-19T12:31:56.872Z</time>
      </trkpt>
      <trkpt lat="43.085515" lon="-4.14886">
        <ele>805.0</ele>
        <time>2018-05-19T12:31:57.882Z</time>
      </trkpt>
      <trkpt lat="43.085515" lon="-4.14886">
        <ele>805.0</ele>
        <time>2018-05-19T12:31:58.880Z</time>
      </trkpt>
      <trkpt lat="43.08552" lon="-4.14891667">
        <ele>805.0</ele>
        <time>2018-05-19T12:31:59.882Z</time>
      </trkpt>
      <trkpt lat="43.08552" lon="-4.148945">
        <ele>806.0</ele>
        <time>2018-05-19T12:32:00.881Z</time>
      </trkpt>
      <trkpt lat="43.08552" lon="-4.148945">
        <ele>806.0</ele>
        <time>2018-05-19T12:32:01.872Z</time>
      </trkpt>
      <trkpt lat="43.08552" lon="-4.149005">
        <ele>806.0</ele>
        <time>2018-05-19T12:32:02.881Z</time>
      </trkpt>
      <trkpt lat="43.08552" lon="-4.149035">
        <ele>807.0</ele>
        <time>2018-05-19T12:32:03.883Z</time>
      </trkpt>
      <trkpt lat="43.08551667" lon="-4.14906667">
        <ele>807.0</ele>
        <time>2018-05-19T12:32:04.883Z</time>
      </trkpt>
      <trkpt lat="43.08551667" lon="-4.14906667">
        <ele>807.0</ele>
        <time>2018-05-19T12:32:05.878Z</time>
      </trkpt>
      <trkpt lat="43.08551833" lon="-4.149115">
        <ele>809.0</ele>
        <time>2018-05-19T12:32:06.844Z</time>
      </trkpt>
      <trkpt lat="43.08551667" lon="-4.14914167">
        <ele>809.0</ele>
        <time>2018-05-19T12:32:07.880Z</time>
      </trkpt>
      <trkpt lat="43.08551" lon="-4.14917167">
        <ele>809.0</ele>
        <time>2018-05-19T12:32:08.882Z</time>
      </trkpt>
      <trkpt lat="43.0855" lon="-4.1492">
        <ele>810.0</ele>
        <time>2018-05-19T12:32:09.882Z</time>
      </trkpt>
      <trkpt lat="43.0855" lon="-4.1492">
        <ele>810.0</ele>
        <time>2018-05-19T12:32:10.880Z</time>
      </trkpt>
      <trkpt lat="43.08546833" lon="-4.14924333">
        <ele>810.0</ele>
        <time>2018-05-19T12:32:11.882Z</time>
      </trkpt>
      <trkpt lat="43.08546833" lon="-4.14924333">
        <ele>810.0</ele>
        <time>2018-05-19T12:32:12.879Z</time>
      </trkpt>
      <trkpt lat="43.08544833" lon="-4.14929667">
        <ele>811.0</ele>
        <time>2018-05-19T12:32:13.881Z</time>
      </trkpt>
      <trkpt lat="43.085445" lon="-4.149325">
        <ele>811.0</ele>
        <time>2018-05-19T12:32:14.880Z</time>
      </trkpt>
      <trkpt lat="43.085445" lon="-4.149325">
        <ele>811.0</ele>
        <time>2018-05-19T12:32:15.869Z</time>
      </trkpt>
      <trkpt lat="43.08543" lon="-4.14938">
        <ele>811.0</ele>
        <time>2018-05-19T12:32:16.856Z</time>
      </trkpt>
      <trkpt lat="43.085425" lon="-4.14940667">
        <ele>811.0</ele>
        <time>2018-05-19T12:32:17.882Z</time>
      </trkpt>
      <trkpt lat="43.085425" lon="-4.14940667">
        <ele>811.0</ele>
        <time>2018-05-19T12:32:18.879Z</time>
      </trkpt>
      <trkpt lat="43.08542" lon="-4.14946167">
        <ele>812.0</ele>
        <time>2018-05-19T12:32:19.853Z</time>
      </trkpt>
      <trkpt lat="43.08542" lon="-4.14946167">
        <ele>812.0</ele>
        <time>2018-05-19T12:32:20.880Z</time>
      </trkpt>
      <trkpt lat="43.08540667" lon="-4.14951">
        <ele>812.0</ele>
        <time>2018-05-19T12:32:21.883Z</time>
      </trkpt>
      <trkpt lat="43.08540667" lon="-4.14951">
        <ele>812.0</ele>
        <time>2018-05-19T12:32:22.880Z</time>
      </trkpt>
      <trkpt lat="43.08537167" lon="-4.14954667">
        <ele>813.0</ele>
        <time>2018-05-19T12:32:23.881Z</time>
      </trkpt>
      <trkpt lat="43.08537167" lon="-4.14954667">
        <ele>813.0</ele>
        <time>2018-05-19T12:32:24.878Z</time>
      </trkpt>
      <trkpt lat="43.085375" lon="-4.14960667">
        <ele>814.0</ele>
        <time>2018-05-19T12:32:25.882Z</time>
      </trkpt>
      <trkpt lat="43.08536833" lon="-4.14963167">
        <ele>814.0</ele>
        <time>2018-05-19T12:32:26.880Z</time>
      </trkpt>
      <trkpt lat="43.08534" lon="-4.14963667">
        <ele>814.0</ele>
        <time>2018-05-19T12:32:27.844Z</time>
      </trkpt>
      <trkpt lat="43.08534" lon="-4.14963667">
        <ele>814.0</ele>
        <time>2018-05-19T12:32:28.880Z</time>
      </trkpt>
      <trkpt lat="43.08530333" lon="-4.14968">
        <ele>815.0</ele>
        <time>2018-05-19T12:32:29.844Z</time>
      </trkpt>
      <trkpt lat="43.08530333" lon="-4.14968">
        <ele>815.0</ele>
        <time>2018-05-19T12:32:30.878Z</time>
      </trkpt>
      <trkpt lat="43.08526333" lon="-4.14972333">
        <ele>815.0</ele>
        <time>2018-05-19T12:32:31.880Z</time>
      </trkpt>
      <trkpt lat="43.08525167" lon="-4.14974833">
        <ele>815.0</ele>
        <time>2018-05-19T12:32:32.881Z</time>
      </trkpt>
      <trkpt lat="43.08525167" lon="-4.14974833">
        <ele>815.0</ele>
        <time>2018-05-19T12:32:33.872Z</time>
      </trkpt>
      <trkpt lat="43.08521667" lon="-4.14978333">
        <ele>816.0</ele>
        <time>2018-05-19T12:32:34.850Z</time>
      </trkpt>
      <trkpt lat="43.08520667" lon="-4.14980333">
        <ele>816.0</ele>
        <time>2018-05-19T12:32:35.882Z</time>
      </trkpt>
      <trkpt lat="43.08520667" lon="-4.14980333">
        <ele>816.0</ele>
        <time>2018-05-19T12:32:36.879Z</time>
      </trkpt>
      <trkpt lat="43.08518833" lon="-4.14983833">
        <ele>816.0</ele>
        <time>2018-05-19T12:32:37.881Z</time>
      </trkpt>
      <trkpt lat="43.08518833" lon="-4.14983833">
        <ele>816.0</ele>
        <time>2018-05-19T12:32:38.879Z</time>
      </trkpt>
      <trkpt lat="43.08516833" lon="-4.14988333">
        <ele>817.0</ele>
        <time>2018-05-19T12:32:39.883Z</time>
      </trkpt>
      <trkpt lat="43.08516833" lon="-4.14988333">
        <ele>817.0</ele>
        <time>2018-05-19T12:32:40.879Z</time>
      </trkpt>
      <trkpt lat="43.08514333" lon="-4.14991333">
        <ele>817.0</ele>
        <time>2018-05-19T12:32:41.881Z</time>
      </trkpt>
      <trkpt lat="43.08514333" lon="-4.14991333">
        <ele>817.0</ele>
        <time>2018-05-19T12:32:42.872Z</time>
      </trkpt>
      <trkpt lat="43.08512167" lon="-4.14994167">
        <ele>817.0</ele>
        <time>2018-05-19T12:32:43.882Z</time>
      </trkpt>
      <trkpt lat="43.08510667" lon="-4.14995833">
        <ele>818.0</ele>
        <time>2018-05-19T12:32:44.881Z</time>
      </trkpt>
      <trkpt lat="43.08510667" lon="-4.14995833">
        <ele>818.0</ele>
        <time>2018-05-19T12:32:45.859Z</time>
      </trkpt>
      <trkpt lat="43.085085" lon="-4.14999333">
        <ele>818.0</ele>
        <time>2018-05-19T12:32:46.865Z</time>
      </trkpt>
      <trkpt lat="43.08507667" lon="-4.15000667">
        <ele>819.0</ele>
        <time>2018-05-19T12:32:47.872Z</time>
      </trkpt>
      <trkpt lat="43.08507667" lon="-4.15000667">
        <ele>819.0</ele>
        <time>2018-05-19T12:32:48.878Z</time>
      </trkpt>
      <trkpt lat="43.08506" lon="-4.15004">
        <ele>819.0</ele>
        <time>2018-05-19T12:32:49.844Z</time>
      </trkpt>
      <trkpt lat="43.08506" lon="-4.15004">
        <ele>819.0</ele>
        <time>2018-05-19T12:32:50.850Z</time>
      </trkpt>
      <trkpt lat="43.08504833" lon="-4.15006833">
        <ele>820.0</ele>
        <time>2018-05-19T12:32:51.844Z</time>
      </trkpt>
      <trkpt lat="43.08504833" lon="-4.15006833">
        <ele>820.0</ele>
        <time>2018-05-19T12:32:52.870Z</time>
      </trkpt>
      <trkpt lat="43.08502833" lon="-4.150095">
        <ele>821.0</ele>
        <time>2018-05-19T12:32:53.852Z</time>
      </trkpt>
      <trkpt lat="43.08502833" lon="-4.150095">
        <ele>821.0</ele>
        <time>2018-05-19T12:32:54.850Z</time>
      </trkpt>
      <trkpt lat="43.085" lon="-4.15013">
        <ele>822.0</ele>
        <time>2018-05-19T12:32:55.880Z</time>
      </trkpt>
      <trkpt lat="43.08499167" lon="-4.15014833">
        <ele>823.0</ele>
        <time>2018-05-19T12:32:56.883Z</time>
      </trkpt>
      <trkpt lat="43.08499167" lon="-4.15014833">
        <ele>823.0</ele>
        <time>2018-05-19T12:32:57.880Z</time>
      </trkpt>
      <trkpt lat="43.08497" lon="-4.15017">
        <ele>823.0</ele>
        <time>2018-05-19T12:32:58.847Z</time>
      </trkpt>
      <trkpt lat="43.08496333" lon="-4.15018167">
        <ele>824.0</ele>
        <time>2018-05-19T12:32:59.883Z</time>
      </trkpt>
      <trkpt lat="43.08496333" lon="-4.15018167">
        <ele>824.0</ele>
        <time>2018-05-19T12:33:00.879Z</time>
      </trkpt>
      <trkpt lat="43.08494" lon="-4.15020667">
        <ele>825.0</ele>
        <time>2018-05-19T12:33:01.881Z</time>
      </trkpt>
      <trkpt lat="43.08494" lon="-4.15020667">
        <ele>825.0</ele>
        <time>2018-05-19T12:33:02.878Z</time>
      </trkpt>
      <trkpt lat="43.08490667" lon="-4.15023333">
        <ele>825.0</ele>
        <time>2018-05-19T12:33:03.883Z</time>
      </trkpt>
      <trkpt lat="43.08490667" lon="-4.15023333">
        <ele>825.0</ele>
        <time>2018-05-19T12:33:04.871Z</time>
      </trkpt>
      <trkpt lat="43.08486833" lon="-4.15026">
        <ele>826.0</ele>
        <time>2018-05-19T12:33:05.881Z</time>
      </trkpt>
      <trkpt lat="43.08486833" lon="-4.15026">
        <ele>826.0</ele>
        <time>2018-05-19T12:33:06.871Z</time>
      </trkpt>
      <trkpt lat="43.08483" lon="-4.150285">
        <ele>827.0</ele>
        <time>2018-05-19T12:33:07.880Z</time>
      </trkpt>
      <trkpt lat="43.08481333" lon="-4.15029667">
        <ele>827.0</ele>
        <time>2018-05-19T12:33:08.882Z</time>
      </trkpt>
      <trkpt lat="43.08481333" lon="-4.15029667">
        <ele>827.0</ele>
        <time>2018-05-19T12:33:09.879Z</time>
      </trkpt>
      <trkpt lat="43.084775" lon="-4.150315">
        <ele>827.0</ele>
        <time>2018-05-19T12:33:10.881Z</time>
      </trkpt>
      <trkpt lat="43.08475667" lon="-4.150325">
        <ele>827.0</ele>
        <time>2018-05-19T12:33:11.881Z</time>
      </trkpt>
      <trkpt lat="43.08475667" lon="-4.150325">
        <ele>827.0</ele>
        <time>2018-05-19T12:33:12.870Z</time>
      </trkpt>
      <trkpt lat="43.084715" lon="-4.15034833">
        <ele>828.0</ele>
        <time>2018-05-19T12:33:13.883Z</time>
      </trkpt>
      <trkpt lat="43.084715" lon="-4.15034833">
        <ele>828.0</ele>
        <time>2018-05-19T12:33:14.878Z</time>
      </trkpt>
      <trkpt lat="43.084695" lon="-4.15038">
        <ele>828.0</ele>
        <time>2018-05-19T12:33:15.883Z</time>
      </trkpt>
      <trkpt lat="43.08467333" lon="-4.150385">
        <ele>829.0</ele>
        <time>2018-05-19T12:33:16.883Z</time>
      </trkpt>
      <trkpt lat="43.08467333" lon="-4.150385">
        <ele>829.0</ele>
        <time>2018-05-19T12:33:17.868Z</time>
      </trkpt>
      <trkpt lat="43.08464333" lon="-4.15041">
        <ele>829.0</ele>
        <time>2018-05-19T12:33:18.855Z</time>
      </trkpt>
      <trkpt lat="43.08464333" lon="-4.15041">
        <ele>829.0</ele>
        <time>2018-05-19T12:33:19.878Z</time>
      </trkpt>
      <trkpt lat="43.08461" lon="-4.15042667">
        <ele>830.0</ele>
        <time>2018-05-19T12:33:20.880Z</time>
      </trkpt>
      <trkpt lat="43.08459667" lon="-4.15044">
        <ele>830.0</ele>
        <time>2018-05-19T12:33:21.864Z</time>
      </trkpt>
      <trkpt lat="43.08459667" lon="-4.15044">
        <ele>830.0</ele>
        <time>2018-05-19T12:33:22.879Z</time>
      </trkpt>
      <trkpt lat="43.084565" lon="-4.15045333">
        <ele>831.0</ele>
        <time>2018-05-19T12:33:23.881Z</time>
      </trkpt>
      <trkpt lat="43.084565" lon="-4.15045333">
        <ele>831.0</ele>
        <time>2018-05-19T12:33:24.879Z</time>
      </trkpt>
      <trkpt lat="43.08451667" lon="-4.150475">
        <ele>831.0</ele>
        <time>2018-05-19T12:33:25.880Z</time>
      </trkpt>
      <trkpt lat="43.0845" lon="-4.15049333">
        <ele>832.0</ele>
        <time>2018-05-19T12:33:26.881Z</time>
      </trkpt>
      <trkpt lat="43.08448333" lon="-4.15050667">
        <ele>832.0</ele>
        <time>2018-05-19T12:33:27.883Z</time>
      </trkpt>
      <trkpt lat="43.08448333" lon="-4.15050667">
        <ele>832.0</ele>
        <time>2018-05-19T12:33:28.879Z</time>
      </trkpt>
      <trkpt lat="43.08441667" lon="-4.150525">
        <ele>833.0</ele>
        <time>2018-05-19T12:33:29.880Z</time>
      </trkpt>
      <trkpt lat="43.08441667" lon="-4.150525">
        <ele>833.0</ele>
        <time>2018-05-19T12:33:30.878Z</time>
      </trkpt>
      <trkpt lat="43.08435833" lon="-4.15054667">
        <ele>834.0</ele>
        <time>2018-05-19T12:33:31.881Z</time>
      </trkpt>
      <trkpt lat="43.08433" lon="-4.15055167">
        <ele>834.0</ele>
        <time>2018-05-19T12:33:32.882Z</time>
      </trkpt>
      <trkpt lat="43.084305" lon="-4.15055833">
        <ele>834.0</ele>
        <time>2018-05-19T12:33:33.882Z</time>
      </trkpt>
      <trkpt lat="43.084305" lon="-4.15055833">
        <ele>834.0</ele>
        <time>2018-05-19T12:33:34.879Z</time>
      </trkpt>
      <trkpt lat="43.08424167" lon="-4.15056">
        <ele>836.0</ele>
        <time>2018-05-19T12:33:35.881Z</time>
      </trkpt>
      <trkpt lat="43.08421667" lon="-4.15056333">
        <ele>836.0</ele>
        <time>2018-05-19T12:33:36.881Z</time>
      </trkpt>
      <trkpt lat="43.08421667" lon="-4.15056333">
        <ele>836.0</ele>
        <time>2018-05-19T12:33:37.871Z</time>
      </trkpt>
      <trkpt lat="43.08415333" lon="-4.150565">
        <ele>837.0</ele>
        <time>2018-05-19T12:33:38.863Z</time>
      </trkpt>
      <trkpt lat="43.08415333" lon="-4.150565">
        <ele>837.0</ele>
        <time>2018-05-19T12:33:39.883Z</time>
      </trkpt>
      <trkpt lat="43.08410167" lon="-4.15057">
        <ele>838.0</ele>
        <time>2018-05-19T12:33:40.881Z</time>
      </trkpt>
      <trkpt lat="43.08407833" lon="-4.15057333">
        <ele>839.0</ele>
        <time>2018-05-19T12:33:41.881Z</time>
      </trkpt>
      <trkpt lat="43.08407833" lon="-4.15057333">
        <ele>839.0</ele>
        <time>2018-05-19T12:33:42.878Z</time>
      </trkpt>
      <trkpt lat="43.084035" lon="-4.150575">
        <ele>839.0</ele>
        <time>2018-05-19T12:33:43.880Z</time>
      </trkpt>
      <trkpt lat="43.084015" lon="-4.150575">
        <ele>840.0</ele>
        <time>2018-05-19T12:33:44.880Z</time>
      </trkpt>
      <trkpt lat="43.084015" lon="-4.150575">
        <ele>840.0</ele>
        <time>2018-05-19T12:33:45.852Z</time>
      </trkpt>
      <trkpt lat="43.083975" lon="-4.15057667">
        <ele>841.0</ele>
        <time>2018-05-19T12:33:46.864Z</time>
      </trkpt>
      <trkpt lat="43.083975" lon="-4.15057667">
        <ele>841.0</ele>
        <time>2018-05-19T12:33:47.870Z</time>
      </trkpt>
      <trkpt lat="43.08393333" lon="-4.15057">
        <ele>842.0</ele>
        <time>2018-05-19T12:33:48.846Z</time>
      </trkpt>
      <trkpt lat="43.083915" lon="-4.15056667">
        <ele>842.0</ele>
        <time>2018-05-19T12:33:49.882Z</time>
      </trkpt>
      <trkpt lat="43.083915" lon="-4.15056667">
        <ele>842.0</ele>
        <time>2018-05-19T12:33:50.878Z</time>
      </trkpt>
      <trkpt lat="43.08386833" lon="-4.15056333">
        <ele>843.0</ele>
        <time>2018-05-19T12:33:51.882Z</time>
      </trkpt>
      <trkpt lat="43.08386833" lon="-4.15056333">
        <ele>843.0</ele>
        <time>2018-05-19T12:33:52.879Z</time>
      </trkpt>
      <trkpt lat="43.08382" lon="-4.15055167">
        <ele>843.0</ele>
        <time>2018-05-19T12:33:53.881Z</time>
      </trkpt>
      <trkpt lat="43.08382" lon="-4.15055167">
        <ele>843.0</ele>
        <time>2018-05-19T12:33:54.879Z</time>
      </trkpt>
      <trkpt lat="43.083785" lon="-4.15054">
        <ele>844.0</ele>
        <time>2018-05-19T12:33:55.878Z</time>
      </trkpt>
      <trkpt lat="43.08376667" lon="-4.15053667">
        <ele>844.0</ele>
        <time>2018-05-19T12:33:56.881Z</time>
      </trkpt>
      <trkpt lat="43.08376667" lon="-4.15053667">
        <ele>844.0</ele>
        <time>2018-05-19T12:33:57.872Z</time>
      </trkpt>
      <trkpt lat="43.083735" lon="-4.15052833">
        <ele>845.0</ele>
        <time>2018-05-19T12:33:58.883Z</time>
      </trkpt>
      <trkpt lat="43.08371833" lon="-4.15052">
        <ele>845.0</ele>
        <time>2018-05-19T12:33:59.880Z</time>
      </trkpt>
      <trkpt lat="43.08371833" lon="-4.15052">
        <ele>845.0</ele>
        <time>2018-05-19T12:34:00.870Z</time>
      </trkpt>
      <trkpt lat="43.08369" lon="-4.15050333">
        <ele>846.0</ele>
        <time>2018-05-19T12:34:01.881Z</time>
      </trkpt>
      <trkpt lat="43.08369" lon="-4.15050333">
        <ele>846.0</ele>
        <time>2018-05-19T12:34:02.871Z</time>
      </trkpt>
      <trkpt lat="43.08365667" lon="-4.15048667">
        <ele>847.0</ele>
        <time>2018-05-19T12:34:03.881Z</time>
      </trkpt>
      <trkpt lat="43.08365667" lon="-4.15048667">
        <ele>847.0</ele>
        <time>2018-05-19T12:34:04.869Z</time>
      </trkpt>
      <trkpt lat="43.08362333" lon="-4.15046833">
        <ele>847.0</ele>
        <time>2018-05-19T12:34:05.850Z</time>
      </trkpt>
      <trkpt lat="43.08362333" lon="-4.15046833">
        <ele>847.0</ele>
        <time>2018-05-19T12:34:06.877Z</time>
      </trkpt>
      <trkpt lat="43.08359167" lon="-4.15045">
        <ele>848.0</ele>
        <time>2018-05-19T12:34:07.881Z</time>
      </trkpt>
      <trkpt lat="43.083575" lon="-4.15044">
        <ele>848.0</ele>
        <time>2018-05-19T12:34:08.881Z</time>
      </trkpt>
      <trkpt lat="43.083575" lon="-4.15044">
        <ele>848.0</ele>
        <time>2018-05-19T12:34:09.879Z</time>
      </trkpt>
      <trkpt lat="43.08354167" lon="-4.15041667">
        <ele>849.0</ele>
        <time>2018-05-19T12:34:10.881Z</time>
      </trkpt>
      <trkpt lat="43.08352167" lon="-4.15041">
        <ele>849.0</ele>
        <time>2018-05-19T12:34:11.881Z</time>
      </trkpt>
      <trkpt lat="43.08352167" lon="-4.15041">
        <ele>849.0</ele>
        <time>2018-05-19T12:34:12.878Z</time>
      </trkpt>
      <trkpt lat="43.08349167" lon="-4.15038833">
        <ele>849.0</ele>
        <time>2018-05-19T12:34:13.880Z</time>
      </trkpt>
      <trkpt lat="43.08349167" lon="-4.15038833">
        <ele>849.0</ele>
        <time>2018-05-19T12:34:14.878Z</time>
      </trkpt>
      <trkpt lat="43.08345833" lon="-4.15036667">
        <ele>850.0</ele>
        <time>2018-05-19T12:34:15.870Z</time>
      </trkpt>
      <trkpt lat="43.083445" lon="-4.150355">
        <ele>850.0</ele>
        <time>2018-05-19T12:34:16.881Z</time>
      </trkpt>
      <trkpt lat="43.083445" lon="-4.150355">
        <ele>850.0</ele>
        <time>2018-05-19T12:34:17.877Z</time>
      </trkpt>
      <trkpt lat="43.08341833" lon="-4.15033333">
        <ele>850.0</ele>
        <time>2018-05-19T12:34:18.880Z</time>
      </trkpt>
      <trkpt lat="43.08341833" lon="-4.15033333">
        <ele>850.0</ele>
        <time>2018-05-19T12:34:19.878Z</time>
      </trkpt>
      <trkpt lat="43.083375" lon="-4.150315">
        <ele>851.0</ele>
        <time>2018-05-19T12:34:20.851Z</time>
      </trkpt>
      <trkpt lat="43.083355" lon="-4.15030667">
        <ele>851.0</ele>
        <time>2018-05-19T12:34:21.878Z</time>
      </trkpt>
      <trkpt lat="43.08333167" lon="-4.150295">
        <ele>852.0</ele>
        <time>2018-05-19T12:34:22.844Z</time>
      </trkpt>
      <trkpt lat="43.08333167" lon="-4.150295">
        <ele>852.0</ele>
        <time>2018-05-19T12:34:23.850Z</time>
      </trkpt>
      <trkpt lat="43.083295" lon="-4.15026833">
        <ele>852.0</ele>
        <time>2018-05-19T12:34:24.859Z</time>
      </trkpt>
      <trkpt lat="43.08327167" lon="-4.150255">
        <ele>852.0</ele>
        <time>2018-05-19T12:34:25.847Z</time>
      </trkpt>
      <trkpt lat="43.08325333" lon="-4.15024">
        <ele>853.0</ele>
        <time>2018-05-19T12:34:26.883Z</time>
      </trkpt>
      <trkpt lat="43.08322167" lon="-4.15022833">
        <ele>853.0</ele>
        <time>2018-05-19T12:34:27.883Z</time>
      </trkpt>
      <trkpt lat="43.08322167" lon="-4.15022833">
        <ele>853.0</ele>
        <time>2018-05-19T12:34:28.848Z</time>
      </trkpt>
      <trkpt lat="43.08318333" lon="-4.15019833">
        <ele>853.0</ele>
        <time>2018-05-19T12:34:29.854Z</time>
      </trkpt>
      <trkpt lat="43.08318333" lon="-4.15019833">
        <ele>853.0</ele>
        <time>2018-05-19T12:34:30.880Z</time>
      </trkpt>
      <trkpt lat="43.08314833" lon="-4.15017">
        <ele>853.0</ele>
        <time>2018-05-19T12:34:31.880Z</time>
      </trkpt>
      <trkpt lat="43.08314833" lon="-4.15017">
        <ele>853.0</ele>
        <time>2018-05-19T12:34:32.877Z</time>
      </trkpt>
      <trkpt lat="43.08311167" lon="-4.15013833">
        <ele>854.0</ele>
        <time>2018-05-19T12:34:33.881Z</time>
      </trkpt>
      <trkpt lat="43.08311167" lon="-4.15013833">
        <ele>854.0</ele>
        <time>2018-05-19T12:34:34.876Z</time>
      </trkpt>
      <trkpt lat="43.08308167" lon="-4.150105">
        <ele>854.0</ele>
        <time>2018-05-19T12:34:35.881Z</time>
      </trkpt>
      <trkpt lat="43.08308167" lon="-4.150105">
        <ele>854.0</ele>
        <time>2018-05-19T12:34:36.870Z</time>
      </trkpt>
      <trkpt lat="43.08305" lon="-4.150075">
        <ele>854.0</ele>
        <time>2018-05-19T12:34:37.880Z</time>
      </trkpt>
      <trkpt lat="43.08301833" lon="-4.15006167">
        <ele>855.0</ele>
        <time>2018-05-19T12:34:38.847Z</time>
      </trkpt>
      <trkpt lat="43.08301833" lon="-4.15006167">
        <ele>855.0</ele>
        <time>2018-05-19T12:34:39.879Z</time>
      </trkpt>
      <trkpt lat="43.08297833" lon="-4.15003167">
        <ele>855.0</ele>
        <time>2018-05-19T12:34:40.862Z</time>
      </trkpt>
      <trkpt lat="43.08296333" lon="-4.15001833">
        <ele>855.0</ele>
        <time>2018-05-19T12:34:41.882Z</time>
      </trkpt>
      <trkpt lat="43.08296333" lon="-4.15001833">
        <ele>855.0</ele>
        <time>2018-05-19T12:34:42.871Z</time>
      </trkpt>
      <trkpt lat="43.08292667" lon="-4.149985">
        <ele>855.0</ele>
        <time>2018-05-19T12:34:43.880Z</time>
      </trkpt>
      <trkpt lat="43.08292667" lon="-4.149985">
        <ele>855.0</ele>
        <time>2018-05-19T12:34:44.878Z</time>
      </trkpt>
      <trkpt lat="43.08289167" lon="-4.14995833">
        <ele>855.0</ele>
        <time>2018-05-19T12:34:45.859Z</time>
      </trkpt>
      <trkpt lat="43.08288" lon="-4.14994667">
        <ele>855.0</ele>
        <time>2018-05-19T12:34:46.846Z</time>
      </trkpt>
      <trkpt lat="43.08288" lon="-4.14994667">
        <ele>855.0</ele>
        <time>2018-05-19T12:34:47.852Z</time>
      </trkpt>
      <trkpt lat="43.082845" lon="-4.14993">
        <ele>855.0</ele>
        <time>2018-05-19T12:34:48.848Z</time>
      </trkpt>
      <trkpt lat="43.082845" lon="-4.14993">
        <ele>855.0</ele>
        <time>2018-05-19T12:34:49.878Z</time>
      </trkpt>
      <trkpt lat="43.08281" lon="-4.14991667">
        <ele>856.0</ele>
        <time>2018-05-19T12:34:50.858Z</time>
      </trkpt>
      <trkpt lat="43.08279167" lon="-4.14991667">
        <ele>856.0</ele>
        <time>2018-05-19T12:34:51.854Z</time>
      </trkpt>
      <trkpt lat="43.08277333" lon="-4.14992167">
        <ele>856.0</ele>
        <time>2018-05-19T12:34:52.881Z</time>
      </trkpt>
      <trkpt lat="43.08277333" lon="-4.14992167">
        <ele>856.0</ele>
        <time>2018-05-19T12:34:53.878Z</time>
      </trkpt>
      <trkpt lat="43.08273333" lon="-4.149935">
        <ele>856.0</ele>
        <time>2018-05-19T12:34:54.881Z</time>
      </trkpt>
      <trkpt lat="43.08273333" lon="-4.149935">
        <ele>856.0</ele>
        <time>2018-05-19T12:34:55.870Z</time>
      </trkpt>
      <trkpt lat="43.08270667" lon="-4.14996">
        <ele>857.0</ele>
        <time>2018-05-19T12:34:56.881Z</time>
      </trkpt>
      <trkpt lat="43.08270667" lon="-4.14996">
        <ele>857.0</ele>
        <time>2018-05-19T12:34:57.879Z</time>
      </trkpt>
      <trkpt lat="43.082665" lon="-4.14999667">
        <ele>857.0</ele>
        <time>2018-05-19T12:34:58.848Z</time>
      </trkpt>
      <trkpt lat="43.08265333" lon="-4.15001667">
        <ele>857.0</ele>
        <time>2018-05-19T12:34:59.881Z</time>
      </trkpt>
      <trkpt lat="43.08265333" lon="-4.15001667">
        <ele>857.0</ele>
        <time>2018-05-19T12:35:00.869Z</time>
      </trkpt>
      <trkpt lat="43.08262333" lon="-4.150055">
        <ele>858.0</ele>
        <time>2018-05-19T12:35:01.852Z</time>
      </trkpt>
      <trkpt lat="43.08262333" lon="-4.150055">
        <ele>858.0</ele>
        <time>2018-05-19T12:35:02.877Z</time>
      </trkpt>
      <trkpt lat="43.08261667" lon="-4.15011667">
        <ele>859.0</ele>
        <time>2018-05-19T12:35:03.881Z</time>
      </trkpt>
      <trkpt lat="43.08261667" lon="-4.15014333">
        <ele>859.0</ele>
        <time>2018-05-19T12:35:04.883Z</time>
      </trkpt>
      <trkpt lat="43.08261667" lon="-4.15014333">
        <ele>859.0</ele>
        <time>2018-05-19T12:35:05.878Z</time>
      </trkpt>
      <trkpt lat="43.08264333" lon="-4.15019833">
        <ele>859.0</ele>
        <time>2018-05-19T12:35:06.881Z</time>
      </trkpt>
      <trkpt lat="43.08265333" lon="-4.150225">
        <ele>859.0</ele>
        <time>2018-05-19T12:35:07.880Z</time>
      </trkpt>
      <trkpt lat="43.08265333" lon="-4.150225">
        <ele>859.0</ele>
        <time>2018-05-19T12:35:08.850Z</time>
      </trkpt>
      <trkpt lat="43.08267" lon="-4.150275">
        <ele>860.0</ele>
        <time>2018-05-19T12:35:09.883Z</time>
      </trkpt>
      <trkpt lat="43.08267" lon="-4.150275">
        <ele>860.0</ele>
        <time>2018-05-19T12:35:10.879Z</time>
      </trkpt>
      <trkpt lat="43.08267167" lon="-4.15032833">
        <ele>860.0</ele>
        <time>2018-05-19T12:35:11.846Z</time>
      </trkpt>
      <trkpt lat="43.08267167" lon="-4.15032833">
        <ele>860.0</ele>
        <time>2018-05-19T12:35:12.880Z</time>
      </trkpt>
      <trkpt lat="43.082675" lon="-4.15037667">
        <ele>861.0</ele>
        <time>2018-05-19T12:35:13.879Z</time>
      </trkpt>
      <trkpt lat="43.08267833" lon="-4.15040667">
        <ele>861.0</ele>
        <time>2018-05-19T12:35:14.880Z</time>
      </trkpt>
      <trkpt lat="43.08267833" lon="-4.15040667">
        <ele>861.0</ele>
        <time>2018-05-19T12:35:15.869Z</time>
      </trkpt>
      <trkpt lat="43.08268167" lon="-4.15046833">
        <ele>862.0</ele>
        <time>2018-05-19T12:35:16.852Z</time>
      </trkpt>
      <trkpt lat="43.08268167" lon="-4.15049667">
        <ele>862.0</ele>
        <time>2018-05-19T12:35:17.882Z</time>
      </trkpt>
      <trkpt lat="43.08268167" lon="-4.15049667">
        <ele>862.0</ele>
        <time>2018-05-19T12:35:18.879Z</time>
      </trkpt>
      <trkpt lat="43.08266333" lon="-4.15055167">
        <ele>863.0</ele>
        <time>2018-05-19T12:35:19.882Z</time>
      </trkpt>
      <trkpt lat="43.08266333" lon="-4.15055167">
        <ele>863.0</ele>
        <time>2018-05-19T12:35:20.878Z</time>
      </trkpt>
      <trkpt lat="43.082645" lon="-4.150595">
        <ele>863.0</ele>
        <time>2018-05-19T12:35:21.880Z</time>
      </trkpt>
      <trkpt lat="43.082645" lon="-4.150595">
        <ele>863.0</ele>
        <time>2018-05-19T12:35:22.880Z</time>
      </trkpt>
      <trkpt lat="43.08263167" lon="-4.15063">
        <ele>864.0</ele>
        <time>2018-05-19T12:35:23.879Z</time>
      </trkpt>
      <trkpt lat="43.08263167" lon="-4.15063">
        <ele>864.0</ele>
        <time>2018-05-19T12:35:24.878Z</time>
      </trkpt>
      <trkpt lat="43.08259667" lon="-4.150665">
        <ele>864.0</ele>
        <time>2018-05-19T12:35:25.880Z</time>
      </trkpt>
      <trkpt lat="43.08259667" lon="-4.150665">
        <ele>864.0</ele>
        <time>2018-05-19T12:35:26.877Z</time>
      </trkpt>
      <trkpt lat="43.08257333" lon="-4.15069667">
        <ele>865.0</ele>
        <time>2018-05-19T12:35:27.881Z</time>
      </trkpt>
      <trkpt lat="43.08257333" lon="-4.15069667">
        <ele>865.0</ele>
        <time>2018-05-19T12:35:28.879Z</time>
      </trkpt>
      <trkpt lat="43.082535" lon="-4.15074333">
        <ele>865.0</ele>
        <time>2018-05-19T12:35:29.880Z</time>
      </trkpt>
      <trkpt lat="43.082535" lon="-4.15074333">
        <ele>865.0</ele>
        <time>2018-05-19T12:35:30.870Z</time>
      </trkpt>
      <trkpt lat="43.08245333" lon="-4.15076667">
        <ele>866.0</ele>
        <time>2018-05-19T12:35:31.879Z</time>
      </trkpt>
      <trkpt lat="43.082435" lon="-4.15078667">
        <ele>866.0</ele>
        <time>2018-05-19T12:35:32.883Z</time>
      </trkpt>
      <trkpt lat="43.082435" lon="-4.15078667">
        <ele>866.0</ele>
        <time>2018-05-19T12:35:33.871Z</time>
      </trkpt>
      <trkpt lat="43.08239167" lon="-4.15083">
        <ele>867.0</ele>
        <time>2018-05-19T12:35:34.883Z</time>
      </trkpt>
      <trkpt lat="43.08239167" lon="-4.15083">
        <ele>867.0</ele>
        <time>2018-05-19T12:35:35.877Z</time>
      </trkpt>
      <trkpt lat="43.08236167" lon="-4.150875">
        <ele>867.0</ele>
        <time>2018-05-19T12:35:36.879Z</time>
      </trkpt>
      <trkpt lat="43.08235333" lon="-4.1509">
        <ele>867.0</ele>
        <time>2018-05-19T12:35:37.882Z</time>
      </trkpt>
      <trkpt lat="43.08235333" lon="-4.1509">
        <ele>867.0</ele>
        <time>2018-05-19T12:35:38.879Z</time>
      </trkpt>
      <trkpt lat="43.08235167" lon="-4.15094833">
        <ele>867.0</ele>
        <time>2018-05-19T12:35:39.880Z</time>
      </trkpt>
      <trkpt lat="43.08235167" lon="-4.15094833">
        <ele>867.0</ele>
        <time>2018-05-19T12:35:40.878Z</time>
      </trkpt>
      <trkpt lat="43.08233167" lon="-4.150985">
        <ele>867.0</ele>
        <time>2018-05-19T12:35:41.882Z</time>
      </trkpt>
      <trkpt lat="43.08233167" lon="-4.150985">
        <ele>867.0</ele>
        <time>2018-05-19T12:35:42.870Z</time>
      </trkpt>
      <trkpt lat="43.082355" lon="-4.15102167">
        <ele>867.0</ele>
        <time>2018-05-19T12:35:43.879Z</time>
      </trkpt>
      <trkpt lat="43.082345" lon="-4.15104333">
        <ele>867.0</ele>
        <time>2018-05-19T12:35:44.881Z</time>
      </trkpt>
      <trkpt lat="43.082345" lon="-4.15104333">
        <ele>867.0</ele>
        <time>2018-05-19T12:35:45.859Z</time>
      </trkpt>
      <trkpt lat="43.08232167" lon="-4.15108167">
        <ele>867.0</ele>
        <time>2018-05-19T12:35:46.847Z</time>
      </trkpt>
      <trkpt lat="43.08231" lon="-4.15110333">
        <ele>867.0</ele>
        <time>2018-05-19T12:35:47.853Z</time>
      </trkpt>
      <trkpt lat="43.08231" lon="-4.15110333">
        <ele>867.0</ele>
        <time>2018-05-19T12:35:48.866Z</time>
      </trkpt>
      <trkpt lat="43.08227667" lon="-4.15113833">
        <ele>867.0</ele>
        <time>2018-05-19T12:35:49.852Z</time>
      </trkpt>
      <trkpt lat="43.08227667" lon="-4.15113833">
        <ele>867.0</ele>
        <time>2018-05-19T12:35:50.879Z</time>
      </trkpt>
      <trkpt lat="43.08223167" lon="-4.15117833">
        <ele>867.0</ele>
        <time>2018-05-19T12:35:51.882Z</time>
      </trkpt>
      <trkpt lat="43.08223167" lon="-4.15117833">
        <ele>867.0</ele>
        <time>2018-05-19T12:35:52.878Z</time>
      </trkpt>
      <trkpt lat="43.08215833" lon="-4.15122667">
        <ele>866.0</ele>
        <time>2018-05-19T12:35:53.880Z</time>
      </trkpt>
      <trkpt lat="43.08215833" lon="-4.15122667">
        <ele>866.0</ele>
        <time>2018-05-19T12:35:54.869Z</time>
      </trkpt>
      <trkpt lat="43.08210667" lon="-4.15129333">
        <ele>865.0</ele>
        <time>2018-05-19T12:35:55.849Z</time>
      </trkpt>
      <trkpt lat="43.08210667" lon="-4.15129333">
        <ele>865.0</ele>
        <time>2018-05-19T12:35:56.859Z</time>
      </trkpt>
      <trkpt lat="43.08206833" lon="-4.151355">
        <ele>865.0</ele>
        <time>2018-05-19T12:35:57.883Z</time>
      </trkpt>
      <trkpt lat="43.08206833" lon="-4.151355">
        <ele>865.0</ele>
        <time>2018-05-19T12:35:58.880Z</time>
      </trkpt>
      <trkpt lat="43.08203" lon="-4.15141333">
        <ele>865.0</ele>
        <time>2018-05-19T12:35:59.881Z</time>
      </trkpt>
      <trkpt lat="43.08203" lon="-4.15141333">
        <ele>865.0</ele>
        <time>2018-05-19T12:36:00.870Z</time>
      </trkpt>
      <trkpt lat="43.08186667" lon="-4.15145667">
        <ele>865.0</ele>
        <time>2018-05-19T12:36:01.880Z</time>
      </trkpt>
      <trkpt lat="43.08186667" lon="-4.15145667">
        <ele>865.0</ele>
        <time>2018-05-19T12:36:02.877Z</time>
      </trkpt>
      <trkpt lat="43.08178833" lon="-4.15151167">
        <ele>865.0</ele>
        <time>2018-05-19T12:36:03.882Z</time>
      </trkpt>
      <trkpt lat="43.08177167" lon="-4.15154">
        <ele>866.0</ele>
        <time>2018-05-19T12:36:04.882Z</time>
      </trkpt>
      <trkpt lat="43.08177167" lon="-4.15154">
        <ele>866.0</ele>
        <time>2018-05-19T12:36:05.878Z</time>
      </trkpt>
      <trkpt lat="43.08174333" lon="-4.151595">
        <ele>866.0</ele>
        <time>2018-05-19T12:36:06.881Z</time>
      </trkpt>
      <trkpt lat="43.08172667" lon="-4.15162833">
        <ele>866.0</ele>
        <time>2018-05-19T12:36:07.882Z</time>
      </trkpt>
      <trkpt lat="43.08172667" lon="-4.15162833">
        <ele>866.0</ele>
        <time>2018-05-19T12:36:08.862Z</time>
      </trkpt>
      <trkpt lat="43.08168667" lon="-4.15168667">
        <ele>867.0</ele>
        <time>2018-05-19T12:36:09.881Z</time>
      </trkpt>
      <trkpt lat="43.08166" lon="-4.151715">
        <ele>867.0</ele>
        <time>2018-05-19T12:36:10.882Z</time>
      </trkpt>
      <trkpt lat="43.08166" lon="-4.151715">
        <ele>867.0</ele>
        <time>2018-05-19T12:36:11.878Z</time>
      </trkpt>
      <trkpt lat="43.08161833" lon="-4.151775">
        <ele>867.0</ele>
        <time>2018-05-19T12:36:12.881Z</time>
      </trkpt>
      <trkpt lat="43.08161833" lon="-4.151775">
        <ele>867.0</ele>
        <time>2018-05-19T12:36:13.869Z</time>
      </trkpt>
      <trkpt lat="43.08157833" lon="-4.151835">
        <ele>868.0</ele>
        <time>2018-05-19T12:36:14.880Z</time>
      </trkpt>
      <trkpt lat="43.08157833" lon="-4.151835">
        <ele>868.0</ele>
        <time>2018-05-19T12:36:15.872Z</time>
      </trkpt>
      <trkpt lat="43.081555" lon="-4.15190167">
        <ele>868.0</ele>
        <time>2018-05-19T12:36:16.881Z</time>
      </trkpt>
      <trkpt lat="43.081555" lon="-4.15190167">
        <ele>868.0</ele>
        <time>2018-05-19T12:36:17.870Z</time>
      </trkpt>
      <trkpt lat="43.081535" lon="-4.15196333">
        <ele>868.0</ele>
        <time>2018-05-19T12:36:18.881Z</time>
      </trkpt>
      <trkpt lat="43.081535" lon="-4.15196333">
        <ele>868.0</ele>
        <time>2018-05-19T12:36:19.877Z</time>
      </trkpt>
      <trkpt lat="43.08154833" lon="-4.15203833">
        <ele>867.0</ele>
        <time>2018-05-19T12:36:20.880Z</time>
      </trkpt>
      <trkpt lat="43.08154833" lon="-4.15203833">
        <ele>867.0</ele>
        <time>2018-05-19T12:36:21.878Z</time>
      </trkpt>
      <trkpt lat="43.08153833" lon="-4.15210667">
        <ele>867.0</ele>
        <time>2018-05-19T12:36:22.883Z</time>
      </trkpt>
      <trkpt lat="43.08153833" lon="-4.15210667">
        <ele>867.0</ele>
        <time>2018-05-19T12:36:23.878Z</time>
      </trkpt>
      <trkpt lat="43.08154667" lon="-4.15216833">
        <ele>866.0</ele>
        <time>2018-05-19T12:36:24.878Z</time>
      </trkpt>
      <trkpt lat="43.08154667" lon="-4.15216833">
        <ele>866.0</ele>
        <time>2018-05-19T12:36:25.870Z</time>
      </trkpt>
      <trkpt lat="43.08154" lon="-4.15222667">
        <ele>865.0</ele>
        <time>2018-05-19T12:36:26.881Z</time>
      </trkpt>
      <trkpt lat="43.08153833" lon="-4.15226">
        <ele>864.0</ele>
        <time>2018-05-19T12:36:27.882Z</time>
      </trkpt>
      <trkpt lat="43.08153833" lon="-4.15226">
        <ele>864.0</ele>
        <time>2018-05-19T12:36:28.879Z</time>
      </trkpt>
      <trkpt lat="43.08151167" lon="-4.15230667">
        <ele>864.0</ele>
        <time>2018-05-19T12:36:29.880Z</time>
      </trkpt>
      <trkpt lat="43.08151167" lon="-4.15230667">
        <ele>864.0</ele>
        <time>2018-05-19T12:36:30.878Z</time>
      </trkpt>
      <trkpt lat="43.08151833" lon="-4.152355">
        <ele>863.0</ele>
        <time>2018-05-19T12:36:31.880Z</time>
      </trkpt>
      <trkpt lat="43.08151833" lon="-4.152355">
        <ele>863.0</ele>
        <time>2018-05-19T12:36:32.877Z</time>
      </trkpt>
      <trkpt lat="43.081485" lon="-4.15239167">
        <ele>863.0</ele>
        <time>2018-05-19T12:36:33.880Z</time>
      </trkpt>
      <trkpt lat="43.08146667" lon="-4.15240833">
        <ele>863.0</ele>
        <time>2018-05-19T12:36:34.854Z</time>
      </trkpt>
      <trkpt lat="43.08146667" lon="-4.15240833">
        <ele>863.0</ele>
        <time>2018-05-19T12:36:35.851Z</time>
      </trkpt>
      <trkpt lat="43.08147" lon="-4.15248833">
        <ele>863.0</ele>
        <time>2018-05-19T12:36:36.880Z</time>
      </trkpt>
      <trkpt lat="43.08145167" lon="-4.15251667">
        <ele>863.0</ele>
        <time>2018-05-19T12:36:37.880Z</time>
      </trkpt>
      <trkpt lat="43.08145167" lon="-4.15251667">
        <ele>863.0</ele>
        <time>2018-05-19T12:36:38.879Z</time>
      </trkpt>
      <trkpt lat="43.08145333" lon="-4.15257667">
        <ele>863.0</ele>
        <time>2018-05-19T12:36:39.880Z</time>
      </trkpt>
      <trkpt lat="43.08144333" lon="-4.15259833">
        <ele>863.0</ele>
        <time>2018-05-19T12:36:40.882Z</time>
      </trkpt>
      <trkpt lat="43.08144333" lon="-4.15259833">
        <ele>863.0</ele>
        <time>2018-05-19T12:36:41.877Z</time>
      </trkpt>
      <trkpt lat="43.081435" lon="-4.15265333">
        <ele>863.0</ele>
        <time>2018-05-19T12:36:42.880Z</time>
      </trkpt>
      <trkpt lat="43.081435" lon="-4.15265333">
        <ele>863.0</ele>
        <time>2018-05-19T12:36:43.877Z</time>
      </trkpt>
      <trkpt lat="43.08142167" lon="-4.15272167">
        <ele>863.0</ele>
        <time>2018-05-19T12:36:44.883Z</time>
      </trkpt>
      <trkpt lat="43.08142167" lon="-4.15272167">
        <ele>863.0</ele>
        <time>2018-05-19T12:36:45.850Z</time>
      </trkpt>
      <trkpt lat="43.08140833" lon="-4.15280667">
        <ele>864.0</ele>
        <time>2018-05-19T12:36:46.851Z</time>
      </trkpt>
      <trkpt lat="43.08140833" lon="-4.15280667">
        <ele>864.0</ele>
        <time>2018-05-19T12:36:47.859Z</time>
      </trkpt>
      <trkpt lat="43.08140333" lon="-4.15288667">
        <ele>864.0</ele>
        <time>2018-05-19T12:36:48.849Z</time>
      </trkpt>
      <trkpt lat="43.081415" lon="-4.15292667">
        <ele>864.0</ele>
        <time>2018-05-19T12:36:49.850Z</time>
      </trkpt>
      <trkpt lat="43.081415" lon="-4.15292667">
        <ele>864.0</ele>
        <time>2018-05-19T12:36:50.877Z</time>
      </trkpt>
      <trkpt lat="43.081435" lon="-4.15300333">
        <ele>864.0</ele>
        <time>2018-05-19T12:36:51.880Z</time>
      </trkpt>
      <trkpt lat="43.081445" lon="-4.15303667">
        <ele>864.0</ele>
        <time>2018-05-19T12:36:52.881Z</time>
      </trkpt>
      <trkpt lat="43.081445" lon="-4.15303667">
        <ele>864.0</ele>
        <time>2018-05-19T12:36:53.871Z</time>
      </trkpt>
      <trkpt lat="43.08146" lon="-4.15310833">
        <ele>865.0</ele>
        <time>2018-05-19T12:36:54.881Z</time>
      </trkpt>
      <trkpt lat="43.08146" lon="-4.15310833">
        <ele>865.0</ele>
        <time>2018-05-19T12:36:55.870Z</time>
      </trkpt>
      <trkpt lat="43.08147167" lon="-4.153175">
        <ele>866.0</ele>
        <time>2018-05-19T12:36:56.880Z</time>
      </trkpt>
      <trkpt lat="43.08147167" lon="-4.153175">
        <ele>866.0</ele>
        <time>2018-05-19T12:36:57.878Z</time>
      </trkpt>
      <trkpt lat="43.08148167" lon="-4.15324667">
        <ele>866.0</ele>
        <time>2018-05-19T12:36:58.849Z</time>
      </trkpt>
      <trkpt lat="43.08148167" lon="-4.15324667">
        <ele>866.0</ele>
        <time>2018-05-19T12:36:59.877Z</time>
      </trkpt>
      <trkpt lat="43.08149333" lon="-4.15331167">
        <ele>866.0</ele>
        <time>2018-05-19T12:37:00.880Z</time>
      </trkpt>
      <trkpt lat="43.08149333" lon="-4.15331167">
        <ele>866.0</ele>
        <time>2018-05-19T12:37:01.877Z</time>
      </trkpt>
      <trkpt lat="43.08150667" lon="-4.15337667">
        <ele>867.0</ele>
        <time>2018-05-19T12:37:02.879Z</time>
      </trkpt>
      <trkpt lat="43.08150667" lon="-4.15337667">
        <ele>867.0</ele>
        <time>2018-05-19T12:37:03.878Z</time>
      </trkpt>
      <trkpt lat="43.08151667" lon="-4.15343333">
        <ele>867.0</ele>
        <time>2018-05-19T12:37:04.880Z</time>
      </trkpt>
      <trkpt lat="43.08152333" lon="-4.153465">
        <ele>867.0</ele>
        <time>2018-05-19T12:37:05.880Z</time>
      </trkpt>
      <trkpt lat="43.08152333" lon="-4.153465">
        <ele>867.0</ele>
        <time>2018-05-19T12:37:06.869Z</time>
      </trkpt>
      <trkpt lat="43.08153333" lon="-4.15353833">
        <ele>867.0</ele>
        <time>2018-05-19T12:37:07.880Z</time>
      </trkpt>
      <trkpt lat="43.08152833" lon="-4.15357167">
        <ele>867.0</ele>
        <time>2018-05-19T12:37:08.881Z</time>
      </trkpt>
      <trkpt lat="43.08152833" lon="-4.15357167">
        <ele>867.0</ele>
        <time>2018-05-19T12:37:09.878Z</time>
      </trkpt>
      <trkpt lat="43.08152333" lon="-4.15364167">
        <ele>867.0</ele>
        <time>2018-05-19T12:37:10.882Z</time>
      </trkpt>
      <trkpt lat="43.08152333" lon="-4.15364167">
        <ele>867.0</ele>
        <time>2018-05-19T12:37:11.870Z</time>
      </trkpt>
      <trkpt lat="43.08152333" lon="-4.15371667">
        <ele>867.0</ele>
        <time>2018-05-19T12:37:12.880Z</time>
      </trkpt>
      <trkpt lat="43.08152" lon="-4.15375167">
        <ele>867.0</ele>
        <time>2018-05-19T12:37:13.879Z</time>
      </trkpt>
      <trkpt lat="43.08152" lon="-4.15375167">
        <ele>867.0</ele>
        <time>2018-05-19T12:37:14.869Z</time>
      </trkpt>
      <trkpt lat="43.08151" lon="-4.15382">
        <ele>867.0</ele>
        <time>2018-05-19T12:37:15.855Z</time>
      </trkpt>
      <trkpt lat="43.08150333" lon="-4.15385167">
        <ele>867.0</ele>
        <time>2018-05-19T12:37:16.882Z</time>
      </trkpt>
      <trkpt lat="43.08150333" lon="-4.15385167">
        <ele>867.0</ele>
        <time>2018-05-19T12:37:17.870Z</time>
      </trkpt>
      <trkpt lat="43.08148833" lon="-4.15391333">
        <ele>866.0</ele>
        <time>2018-05-19T12:37:18.881Z</time>
      </trkpt>
      <trkpt lat="43.08148333" lon="-4.15394833">
        <ele>866.0</ele>
        <time>2018-05-19T12:37:19.880Z</time>
      </trkpt>
      <trkpt lat="43.08148333" lon="-4.15394833">
        <ele>866.0</ele>
        <time>2018-05-19T12:37:20.869Z</time>
      </trkpt>
      <trkpt lat="43.08146167" lon="-4.15400333">
        <ele>866.0</ele>
        <time>2018-05-19T12:37:21.882Z</time>
      </trkpt>
      <trkpt lat="43.08144833" lon="-4.15403833">
        <ele>865.0</ele>
        <time>2018-05-19T12:37:22.883Z</time>
      </trkpt>
      <trkpt lat="43.08144833" lon="-4.15403833">
        <ele>865.0</ele>
        <time>2018-05-19T12:37:23.878Z</time>
      </trkpt>
      <trkpt lat="43.08141667" lon="-4.15409667">
        <ele>865.0</ele>
        <time>2018-05-19T12:37:24.879Z</time>
      </trkpt>
      <trkpt lat="43.081395" lon="-4.15412333">
        <ele>865.0</ele>
        <time>2018-05-19T12:37:25.879Z</time>
      </trkpt>
      <trkpt lat="43.08138167" lon="-4.15415167">
        <ele>865.0</ele>
        <time>2018-05-19T12:37:26.881Z</time>
      </trkpt>
      <trkpt lat="43.08138167" lon="-4.15415167">
        <ele>865.0</ele>
        <time>2018-05-19T12:37:27.878Z</time>
      </trkpt>
      <trkpt lat="43.08134167" lon="-4.154205">
        <ele>865.0</ele>
        <time>2018-05-19T12:37:28.853Z</time>
      </trkpt>
      <trkpt lat="43.08134167" lon="-4.154205">
        <ele>865.0</ele>
        <time>2018-05-19T12:37:29.850Z</time>
      </trkpt>
      <trkpt lat="43.08131833" lon="-4.15427">
        <ele>865.0</ele>
        <time>2018-05-19T12:37:30.844Z</time>
      </trkpt>
      <trkpt lat="43.08131833" lon="-4.15427">
        <ele>865.0</ele>
        <time>2018-05-19T12:37:31.874Z</time>
      </trkpt>
      <trkpt lat="43.08131167" lon="-4.154355">
        <ele>864.0</ele>
        <time>2018-05-19T12:37:32.880Z</time>
      </trkpt>
      <trkpt lat="43.08129167" lon="-4.154415">
        <ele>864.0</ele>
        <time>2018-05-19T12:37:33.878Z</time>
      </trkpt>
      <trkpt lat="43.08129167" lon="-4.154415">
        <ele>864.0</ele>
        <time>2018-05-19T12:37:34.869Z</time>
      </trkpt>
      <trkpt lat="43.08129333" lon="-4.15451167">
        <ele>864.0</ele>
        <time>2018-05-19T12:37:35.880Z</time>
      </trkpt>
      <trkpt lat="43.08129333" lon="-4.15451167">
        <ele>864.0</ele>
        <time>2018-05-19T12:37:36.869Z</time>
      </trkpt>
      <trkpt lat="43.08125667" lon="-4.15456667">
        <ele>865.0</ele>
        <time>2018-05-19T12:37:37.878Z</time>
      </trkpt>
      <trkpt lat="43.08125667" lon="-4.15456667">
        <ele>865.0</ele>
        <time>2018-05-19T12:37:38.878Z</time>
      </trkpt>
      <trkpt lat="43.08125167" lon="-4.154645">
        <ele>865.0</ele>
        <time>2018-05-19T12:37:39.868Z</time>
      </trkpt>
      <trkpt lat="43.08124167" lon="-4.15467833">
        <ele>865.0</ele>
        <time>2018-05-19T12:37:40.881Z</time>
      </trkpt>
      <trkpt lat="43.08122833" lon="-4.15470333">
        <ele>865.0</ele>
        <time>2018-05-19T12:37:41.881Z</time>
      </trkpt>
      <trkpt lat="43.08122667" lon="-4.15474167">
        <ele>865.0</ele>
        <time>2018-05-19T12:37:42.881Z</time>
      </trkpt>
      <trkpt lat="43.08122667" lon="-4.15474167">
        <ele>865.0</ele>
        <time>2018-05-19T12:37:43.874Z</time>
      </trkpt>
      <trkpt lat="43.08121667" lon="-4.15480833">
        <ele>864.0</ele>
        <time>2018-05-19T12:37:44.880Z</time>
      </trkpt>
      <trkpt lat="43.08121667" lon="-4.15480833">
        <ele>864.0</ele>
        <time>2018-05-19T12:37:45.849Z</time>
      </trkpt>
      <trkpt lat="43.08119833" lon="-4.154865">
        <ele>864.0</ele>
        <time>2018-05-19T12:37:46.867Z</time>
      </trkpt>
      <trkpt lat="43.08119833" lon="-4.154865">
        <ele>864.0</ele>
        <time>2018-05-19T12:37:47.874Z</time>
      </trkpt>
      <trkpt lat="43.08117833" lon="-4.154915">
        <ele>864.0</ele>
        <time>2018-05-19T12:37:48.880Z</time>
      </trkpt>
      <trkpt lat="43.08117833" lon="-4.154915">
        <ele>864.0</ele>
        <time>2018-05-19T12:37:49.868Z</time>
      </trkpt>
      <trkpt lat="43.08114333" lon="-4.154955">
        <ele>864.0</ele>
        <time>2018-05-19T12:37:50.850Z</time>
      </trkpt>
      <trkpt lat="43.08113167" lon="-4.15497667">
        <ele>864.0</ele>
        <time>2018-05-19T12:37:51.850Z</time>
      </trkpt>
      <trkpt lat="43.08113167" lon="-4.15497667">
        <ele>864.0</ele>
        <time>2018-05-19T12:37:52.870Z</time>
      </trkpt>
      <trkpt lat="43.081085" lon="-4.15500667">
        <ele>864.0</ele>
        <time>2018-05-19T12:37:53.880Z</time>
      </trkpt>
      <trkpt lat="43.081085" lon="-4.15500667">
        <ele>864.0</ele>
        <time>2018-05-19T12:37:54.870Z</time>
      </trkpt>
      <trkpt lat="43.08105833" lon="-4.15506167">
        <ele>864.0</ele>
        <time>2018-05-19T12:37:55.878Z</time>
      </trkpt>
      <trkpt lat="43.08105333" lon="-4.15509333">
        <ele>864.0</ele>
        <time>2018-05-19T12:37:56.880Z</time>
      </trkpt>
      <trkpt lat="43.08105333" lon="-4.15509333">
        <ele>864.0</ele>
        <time>2018-05-19T12:37:57.881Z</time>
      </trkpt>
      <trkpt lat="43.081025" lon="-4.15511833">
        <ele>864.0</ele>
        <time>2018-05-19T12:37:58.846Z</time>
      </trkpt>
      <trkpt lat="43.081025" lon="-4.15511833">
        <ele>864.0</ele>
        <time>2018-05-19T12:37:59.870Z</time>
      </trkpt>
      <trkpt lat="43.08100667" lon="-4.15517167">
        <ele>864.0</ele>
        <time>2018-05-19T12:38:00.850Z</time>
      </trkpt>
      <trkpt lat="43.08100167" lon="-4.15520167">
        <ele>864.0</ele>
        <time>2018-05-19T12:38:01.880Z</time>
      </trkpt>
      <trkpt lat="43.08100167" lon="-4.15520167">
        <ele>864.0</ele>
        <time>2018-05-19T12:38:02.870Z</time>
      </trkpt>
      <trkpt lat="43.08099667" lon="-4.15528">
        <ele>865.0</ele>
        <time>2018-05-19T12:38:03.879Z</time>
      </trkpt>
      <trkpt lat="43.08099667" lon="-4.15528">
        <ele>865.0</ele>
        <time>2018-05-19T12:38:04.870Z</time>
      </trkpt>
      <trkpt lat="43.08092833" lon="-4.15534667">
        <ele>865.0</ele>
        <time>2018-05-19T12:38:05.860Z</time>
      </trkpt>
      <trkpt lat="43.08092" lon="-4.15536833">
        <ele>865.0</ele>
        <time>2018-05-19T12:38:06.850Z</time>
      </trkpt>
      <trkpt lat="43.08092" lon="-4.15536833">
        <ele>865.0</ele>
        <time>2018-05-19T12:38:07.877Z</time>
      </trkpt>
      <trkpt lat="43.08090167" lon="-4.155445">
        <ele>866.0</ele>
        <time>2018-05-19T12:38:08.881Z</time>
      </trkpt>
      <trkpt lat="43.08089167" lon="-4.15548">
        <ele>866.0</ele>
        <time>2018-05-19T12:38:09.880Z</time>
      </trkpt>
      <trkpt lat="43.08089167" lon="-4.15548">
        <ele>866.0</ele>
        <time>2018-05-19T12:38:10.879Z</time>
      </trkpt>
      <trkpt lat="43.08084" lon="-4.15553">
        <ele>867.0</ele>
        <time>2018-05-19T12:38:11.879Z</time>
      </trkpt>
      <trkpt lat="43.08084" lon="-4.15553">
        <ele>867.0</ele>
        <time>2018-05-19T12:38:12.870Z</time>
      </trkpt>
      <trkpt lat="43.08081833" lon="-4.15556833">
        <ele>867.0</ele>
        <time>2018-05-19T12:38:13.880Z</time>
      </trkpt>
      <trkpt lat="43.08081833" lon="-4.15556833">
        <ele>867.0</ele>
        <time>2018-05-19T12:38:14.873Z</time>
      </trkpt>
      <trkpt lat="43.08078667" lon="-4.15560333">
        <ele>868.0</ele>
        <time>2018-05-19T12:38:15.880Z</time>
      </trkpt>
      <trkpt lat="43.08075667" lon="-4.15562">
        <ele>868.0</ele>
        <time>2018-05-19T12:38:16.881Z</time>
      </trkpt>
      <trkpt lat="43.08075667" lon="-4.15562">
        <ele>868.0</ele>
        <time>2018-05-19T12:38:17.869Z</time>
      </trkpt>
      <trkpt lat="43.08072833" lon="-4.15565833">
        <ele>869.0</ele>
        <time>2018-05-19T12:38:18.879Z</time>
      </trkpt>
      <trkpt lat="43.08072833" lon="-4.15565833">
        <ele>869.0</ele>
        <time>2018-05-19T12:38:19.868Z</time>
      </trkpt>
      <trkpt lat="43.08069667" lon="-4.15570667">
        <ele>869.0</ele>
        <time>2018-05-19T12:38:20.854Z</time>
      </trkpt>
      <trkpt lat="43.08067" lon="-4.15572167">
        <ele>869.0</ele>
        <time>2018-05-19T12:38:21.881Z</time>
      </trkpt>
      <trkpt lat="43.08067" lon="-4.15572167">
        <ele>869.0</ele>
        <time>2018-05-19T12:38:22.870Z</time>
      </trkpt>
      <trkpt lat="43.08063167" lon="-4.15576167">
        <ele>870.0</ele>
        <time>2018-05-19T12:38:23.879Z</time>
      </trkpt>
      <trkpt lat="43.08063167" lon="-4.15576167">
        <ele>870.0</ele>
        <time>2018-05-19T12:38:24.870Z</time>
      </trkpt>
      <trkpt lat="43.08058667" lon="-4.1558">
        <ele>870.0</ele>
        <time>2018-05-19T12:38:25.854Z</time>
      </trkpt>
      <trkpt lat="43.08056833" lon="-4.15582333">
        <ele>871.0</ele>
        <time>2018-05-19T12:38:26.882Z</time>
      </trkpt>
      <trkpt lat="43.08055" lon="-4.155845">
        <ele>871.0</ele>
        <time>2018-05-19T12:38:27.881Z</time>
      </trkpt>
      <trkpt lat="43.08055" lon="-4.155845">
        <ele>871.0</ele>
        <time>2018-05-19T12:38:28.870Z</time>
      </trkpt>
      <trkpt lat="43.080525" lon="-4.15588333">
        <ele>872.0</ele>
        <time>2018-05-19T12:38:29.879Z</time>
      </trkpt>
      <trkpt lat="43.080525" lon="-4.15588333">
        <ele>872.0</ele>
        <time>2018-05-19T12:38:30.868Z</time>
      </trkpt>
      <trkpt lat="43.08048167" lon="-4.15591667">
        <ele>873.0</ele>
        <time>2018-05-19T12:38:31.878Z</time>
      </trkpt>
      <trkpt lat="43.08048167" lon="-4.15591667">
        <ele>873.0</ele>
        <time>2018-05-19T12:38:32.873Z</time>
      </trkpt>
      <trkpt lat="43.08046167" lon="-4.155955">
        <ele>873.0</ele>
        <time>2018-05-19T12:38:33.880Z</time>
      </trkpt>
      <trkpt lat="43.08046167" lon="-4.155955">
        <ele>873.0</ele>
        <time>2018-05-19T12:38:34.869Z</time>
      </trkpt>
      <trkpt lat="43.08044167" lon="-4.15602">
        <ele>874.0</ele>
        <time>2018-05-19T12:38:35.854Z</time>
      </trkpt>
      <trkpt lat="43.08043333" lon="-4.15604333">
        <ele>874.0</ele>
        <time>2018-05-19T12:38:36.881Z</time>
      </trkpt>
      <trkpt lat="43.08043333" lon="-4.156065">
        <ele>874.0</ele>
        <time>2018-05-19T12:38:37.880Z</time>
      </trkpt>
      <trkpt lat="43.08043333" lon="-4.156065">
        <ele>874.0</ele>
        <time>2018-05-19T12:38:38.869Z</time>
      </trkpt>
      <trkpt lat="43.08038667" lon="-4.15606833">
        <ele>875.0</ele>
        <time>2018-05-19T12:38:39.880Z</time>
      </trkpt>
      <trkpt lat="43.08038667" lon="-4.15606833">
        <ele>875.0</ele>
        <time>2018-05-19T12:38:40.868Z</time>
      </trkpt>
      <trkpt lat="43.08036833" lon="-4.1561">
        <ele>876.0</ele>
        <time>2018-05-19T12:38:41.880Z</time>
      </trkpt>
      <trkpt lat="43.08036833" lon="-4.1561">
        <ele>876.0</ele>
        <time>2018-05-19T12:38:42.877Z</time>
      </trkpt>
      <trkpt lat="43.08034167" lon="-4.156135">
        <ele>876.0</ele>
        <time>2018-05-19T12:38:43.878Z</time>
      </trkpt>
      <trkpt lat="43.08031833" lon="-4.15614833">
        <ele>877.0</ele>
        <time>2018-05-19T12:38:44.880Z</time>
      </trkpt>
      <trkpt lat="43.08031833" lon="-4.15614833">
        <ele>877.0</ele>
        <time>2018-05-19T12:38:45.852Z</time>
      </trkpt>
      <trkpt lat="43.08027667" lon="-4.156225">
        <ele>877.0</ele>
        <time>2018-05-19T12:38:46.866Z</time>
      </trkpt>
      <trkpt lat="43.08025833" lon="-4.15627">
        <ele>878.0</ele>
        <time>2018-05-19T12:38:47.872Z</time>
      </trkpt>
      <trkpt lat="43.08025833" lon="-4.15627">
        <ele>878.0</ele>
        <time>2018-05-19T12:38:48.878Z</time>
      </trkpt>
      <trkpt lat="43.08024167" lon="-4.15635">
        <ele>878.0</ele>
        <time>2018-05-19T12:38:49.844Z</time>
      </trkpt>
      <trkpt lat="43.08024167" lon="-4.15635">
        <ele>878.0</ele>
        <time>2018-05-19T12:38:50.851Z</time>
      </trkpt>
      <trkpt lat="43.08020333" lon="-4.15639833">
        <ele>879.0</ele>
        <time>2018-05-19T12:38:51.882Z</time>
      </trkpt>
      <trkpt lat="43.08020333" lon="-4.15639833">
        <ele>879.0</ele>
        <time>2018-05-19T12:38:52.884Z</time>
      </trkpt>
      <trkpt lat="43.08018" lon="-4.15644833">
        <ele>880.0</ele>
        <time>2018-05-19T12:38:53.846Z</time>
      </trkpt>
      <trkpt lat="43.08018" lon="-4.15644833">
        <ele>880.0</ele>
        <time>2018-05-19T12:38:54.869Z</time>
      </trkpt>
      <trkpt lat="43.08015" lon="-4.15650833">
        <ele>880.0</ele>
        <time>2018-05-19T12:38:55.844Z</time>
      </trkpt>
      <trkpt lat="43.08015" lon="-4.15650833">
        <ele>880.0</ele>
        <time>2018-05-19T12:38:56.874Z</time>
      </trkpt>
      <trkpt lat="43.08011333" lon="-4.156565">
        <ele>881.0</ele>
        <time>2018-05-19T12:38:57.880Z</time>
      </trkpt>
      <trkpt lat="43.08011333" lon="-4.156565">
        <ele>881.0</ele>
        <time>2018-05-19T12:38:58.872Z</time>
      </trkpt>
      <trkpt lat="43.080085" lon="-4.15661333">
        <ele>881.0</ele>
        <time>2018-05-19T12:38:59.879Z</time>
      </trkpt>
      <trkpt lat="43.080085" lon="-4.15661333">
        <ele>881.0</ele>
        <time>2018-05-19T12:39:00.869Z</time>
      </trkpt>
      <trkpt lat="43.08004833" lon="-4.15665333">
        <ele>882.0</ele>
        <time>2018-05-19T12:39:01.854Z</time>
      </trkpt>
      <trkpt lat="43.08004833" lon="-4.15665333">
        <ele>882.0</ele>
        <time>2018-05-19T12:39:02.878Z</time>
      </trkpt>
      <trkpt lat="43.080015" lon="-4.15670333">
        <ele>882.0</ele>
        <time>2018-05-19T12:39:03.880Z</time>
      </trkpt>
      <trkpt lat="43.080015" lon="-4.15670333">
        <ele>882.0</ele>
        <time>2018-05-19T12:39:04.869Z</time>
      </trkpt>
      <trkpt lat="43.079965" lon="-4.156755">
        <ele>882.0</ele>
        <time>2018-05-19T12:39:05.879Z</time>
      </trkpt>
      <trkpt lat="43.079965" lon="-4.156755">
        <ele>882.0</ele>
        <time>2018-05-19T12:39:06.869Z</time>
      </trkpt>
      <trkpt lat="43.079895" lon="-4.15680833">
        <ele>883.0</ele>
        <time>2018-05-19T12:39:07.876Z</time>
      </trkpt>
      <trkpt lat="43.079895" lon="-4.15680833">
        <ele>883.0</ele>
        <time>2018-05-19T12:39:08.869Z</time>
      </trkpt>
      <trkpt lat="43.079855" lon="-4.156845">
        <ele>883.0</ele>
        <time>2018-05-19T12:39:09.848Z</time>
      </trkpt>
      <trkpt lat="43.079855" lon="-4.156845">
        <ele>883.0</ele>
        <time>2018-05-19T12:39:10.876Z</time>
      </trkpt>
      <trkpt lat="43.07981833" lon="-4.15688667">
        <ele>883.0</ele>
        <time>2018-05-19T12:39:11.878Z</time>
      </trkpt>
      <trkpt lat="43.07981833" lon="-4.15688667">
        <ele>883.0</ele>
        <time>2018-05-19T12:39:12.869Z</time>
      </trkpt>
      <trkpt lat="43.07977" lon="-4.15693">
        <ele>884.0</ele>
        <time>2018-05-19T12:39:13.878Z</time>
      </trkpt>
      <trkpt lat="43.07977" lon="-4.15693">
        <ele>884.0</ele>
        <time>2018-05-19T12:39:14.867Z</time>
      </trkpt>
      <trkpt lat="43.07973" lon="-4.15697333">
        <ele>885.0</ele>
        <time>2018-05-19T12:39:15.855Z</time>
      </trkpt>
      <trkpt lat="43.07973" lon="-4.15697333">
        <ele>885.0</ele>
        <time>2018-05-19T12:39:16.878Z</time>
      </trkpt>
      <trkpt lat="43.0797" lon="-4.15701833">
        <ele>885.0</ele>
        <time>2018-05-19T12:39:17.880Z</time>
      </trkpt>
      <trkpt lat="43.0797" lon="-4.15701833">
        <ele>885.0</ele>
        <time>2018-05-19T12:39:18.869Z</time>
      </trkpt>
      <trkpt lat="43.079665" lon="-4.15705">
        <ele>885.0</ele>
        <time>2018-05-19T12:39:19.850Z</time>
      </trkpt>
      <trkpt lat="43.079665" lon="-4.15705">
        <ele>885.0</ele>
        <time>2018-05-19T12:39:20.880Z</time>
      </trkpt>
      <trkpt lat="43.07961" lon="-4.157065">
        <ele>886.0</ele>
        <time>2018-05-19T12:39:21.876Z</time>
      </trkpt>
      <trkpt lat="43.07961" lon="-4.157065">
        <ele>886.0</ele>
        <time>2018-05-19T12:39:22.869Z</time>
      </trkpt>
      <trkpt lat="43.07956667" lon="-4.15708833">
        <ele>887.0</ele>
        <time>2018-05-19T12:39:23.853Z</time>
      </trkpt>
      <trkpt lat="43.07956667" lon="-4.15708833">
        <ele>887.0</ele>
        <time>2018-05-19T12:39:24.878Z</time>
      </trkpt>
      <trkpt lat="43.07953833" lon="-4.15713">
        <ele>887.0</ele>
        <time>2018-05-19T12:39:25.880Z</time>
      </trkpt>
      <trkpt lat="43.07953833" lon="-4.15713">
        <ele>887.0</ele>
        <time>2018-05-19T12:39:26.869Z</time>
      </trkpt>
      <trkpt lat="43.079505" lon="-4.15716833">
        <ele>888.0</ele>
        <time>2018-05-19T12:39:27.877Z</time>
      </trkpt>
      <trkpt lat="43.079505" lon="-4.15716833">
        <ele>888.0</ele>
        <time>2018-05-19T12:39:28.869Z</time>
      </trkpt>
      <trkpt lat="43.07945167" lon="-4.15719333">
        <ele>888.0</ele>
        <time>2018-05-19T12:39:29.879Z</time>
      </trkpt>
      <trkpt lat="43.07945167" lon="-4.15719333">
        <ele>888.0</ele>
        <time>2018-05-19T12:39:30.866Z</time>
      </trkpt>
      <trkpt lat="43.07941833" lon="-4.15723333">
        <ele>889.0</ele>
        <time>2018-05-19T12:39:31.855Z</time>
      </trkpt>
      <trkpt lat="43.07940333" lon="-4.15725167">
        <ele>889.0</ele>
        <time>2018-05-19T12:39:32.882Z</time>
      </trkpt>
      <trkpt lat="43.07938667" lon="-4.15727167">
        <ele>890.0</ele>
        <time>2018-05-19T12:39:33.880Z</time>
      </trkpt>
      <trkpt lat="43.07938667" lon="-4.15727167">
        <ele>890.0</ele>
        <time>2018-05-19T12:39:34.869Z</time>
      </trkpt>
      <trkpt lat="43.07936" lon="-4.15730833">
        <ele>890.0</ele>
        <time>2018-05-19T12:39:35.878Z</time>
      </trkpt>
      <trkpt lat="43.07936" lon="-4.15730833">
        <ele>890.0</ele>
        <time>2018-05-19T12:39:36.876Z</time>
      </trkpt>
      <trkpt lat="43.079325" lon="-4.15734667">
        <ele>891.0</ele>
        <time>2018-05-19T12:39:37.879Z</time>
      </trkpt>
      <trkpt lat="43.079325" lon="-4.15734667">
        <ele>891.0</ele>
        <time>2018-05-19T12:39:38.879Z</time>
      </trkpt>
      <trkpt lat="43.079285" lon="-4.15737">
        <ele>892.0</ele>
        <time>2018-05-19T12:39:39.879Z</time>
      </trkpt>
      <trkpt lat="43.079285" lon="-4.15737">
        <ele>892.0</ele>
        <time>2018-05-19T12:39:40.875Z</time>
      </trkpt>
      <trkpt lat="43.079255" lon="-4.15741333">
        <ele>892.0</ele>
        <time>2018-05-19T12:39:41.880Z</time>
      </trkpt>
      <trkpt lat="43.079255" lon="-4.15741333">
        <ele>892.0</ele>
        <time>2018-05-19T12:39:42.874Z</time>
      </trkpt>
      <trkpt lat="43.07922" lon="-4.15744667">
        <ele>893.0</ele>
        <time>2018-05-19T12:39:43.877Z</time>
      </trkpt>
      <trkpt lat="43.07922" lon="-4.15744667">
        <ele>893.0</ele>
        <time>2018-05-19T12:39:44.868Z</time>
      </trkpt>
      <trkpt lat="43.079195" lon="-4.157495">
        <ele>894.0</ele>
        <time>2018-05-19T12:39:45.859Z</time>
      </trkpt>
      <trkpt lat="43.07918333" lon="-4.15752">
        <ele>895.0</ele>
        <time>2018-05-19T12:39:46.870Z</time>
      </trkpt>
      <trkpt lat="43.079175" lon="-4.15755167">
        <ele>895.0</ele>
        <time>2018-05-19T12:39:47.876Z</time>
      </trkpt>
      <trkpt lat="43.079175" lon="-4.15755167">
        <ele>895.0</ele>
        <time>2018-05-19T12:39:48.852Z</time>
      </trkpt>
      <trkpt lat="43.079155" lon="-4.1576">
        <ele>896.0</ele>
        <time>2018-05-19T12:39:49.880Z</time>
      </trkpt>
      <trkpt lat="43.079155" lon="-4.1576">
        <ele>896.0</ele>
        <time>2018-05-19T12:39:50.877Z</time>
      </trkpt>
      <trkpt lat="43.07913333" lon="-4.15767">
        <ele>897.0</ele>
        <time>2018-05-19T12:39:51.879Z</time>
      </trkpt>
      <trkpt lat="43.07913333" lon="-4.15767">
        <ele>897.0</ele>
        <time>2018-05-19T12:39:52.869Z</time>
      </trkpt>
      <trkpt lat="43.07911" lon="-4.15772833">
        <ele>898.0</ele>
        <time>2018-05-19T12:39:53.880Z</time>
      </trkpt>
      <trkpt lat="43.07911" lon="-4.15772833">
        <ele>898.0</ele>
        <time>2018-05-19T12:39:54.876Z</time>
      </trkpt>
      <trkpt lat="43.0791" lon="-4.15777">
        <ele>899.0</ele>
        <time>2018-05-19T12:39:55.877Z</time>
      </trkpt>
      <trkpt lat="43.07908833" lon="-4.15779167">
        <ele>900.0</ele>
        <time>2018-05-19T12:39:56.880Z</time>
      </trkpt>
      <trkpt lat="43.07906833" lon="-4.157815">
        <ele>900.0</ele>
        <time>2018-05-19T12:39:57.880Z</time>
      </trkpt>
      <trkpt lat="43.07906833" lon="-4.157815">
        <ele>900.0</ele>
        <time>2018-05-19T12:39:58.869Z</time>
      </trkpt>
      <trkpt lat="43.07904167" lon="-4.157885">
        <ele>901.0</ele>
        <time>2018-05-19T12:39:59.850Z</time>
      </trkpt>
      <trkpt lat="43.07904167" lon="-4.157885">
        <ele>901.0</ele>
        <time>2018-05-19T12:40:00.879Z</time>
      </trkpt>
      <trkpt lat="43.079035" lon="-4.15795167">
        <ele>902.0</ele>
        <time>2018-05-19T12:40:01.883Z</time>
      </trkpt>
      <trkpt lat="43.079035" lon="-4.15795167">
        <ele>902.0</ele>
        <time>2018-05-19T12:40:02.869Z</time>
      </trkpt>
      <trkpt lat="43.07901667" lon="-4.15801">
        <ele>902.0</ele>
        <time>2018-05-19T12:40:03.880Z</time>
      </trkpt>
      <trkpt lat="43.07901667" lon="-4.15801">
        <ele>902.0</ele>
        <time>2018-05-19T12:40:04.868Z</time>
      </trkpt>
      <trkpt lat="43.07902" lon="-4.15808">
        <ele>903.0</ele>
        <time>2018-05-19T12:40:05.854Z</time>
      </trkpt>
      <trkpt lat="43.07902" lon="-4.15808">
        <ele>903.0</ele>
        <time>2018-05-19T12:40:06.878Z</time>
      </trkpt>
      <trkpt lat="43.079015" lon="-4.15814667">
        <ele>904.0</ele>
        <time>2018-05-19T12:40:07.880Z</time>
      </trkpt>
      <trkpt lat="43.079015" lon="-4.15814667">
        <ele>904.0</ele>
        <time>2018-05-19T12:40:08.868Z</time>
      </trkpt>
      <trkpt lat="43.07896833" lon="-4.158215">
        <ele>904.0</ele>
        <time>2018-05-19T12:40:09.846Z</time>
      </trkpt>
      <trkpt lat="43.07896833" lon="-4.158215">
        <ele>904.0</ele>
        <time>2018-05-19T12:40:10.857Z</time>
      </trkpt>
      <trkpt lat="43.07899" lon="-4.15828167">
        <ele>904.0</ele>
        <time>2018-05-19T12:40:11.878Z</time>
      </trkpt>
      <trkpt lat="43.07899" lon="-4.15828167">
        <ele>904.0</ele>
        <time>2018-05-19T12:40:12.869Z</time>
      </trkpt>
      <trkpt lat="43.07898333" lon="-4.15834167">
        <ele>905.0</ele>
        <time>2018-05-19T12:40:13.879Z</time>
      </trkpt>
      <trkpt lat="43.07898333" lon="-4.15834167">
        <ele>905.0</ele>
        <time>2018-05-19T12:40:14.869Z</time>
      </trkpt>
      <trkpt lat="43.07897667" lon="-4.15840167">
        <ele>905.0</ele>
        <time>2018-05-19T12:40:15.860Z</time>
      </trkpt>
      <trkpt lat="43.07896167" lon="-4.15842">
        <ele>906.0</ele>
        <time>2018-05-19T12:40:16.849Z</time>
      </trkpt>
      <trkpt lat="43.07896167" lon="-4.15842">
        <ele>906.0</ele>
        <time>2018-05-19T12:40:17.875Z</time>
      </trkpt>
      <trkpt lat="43.07895333" lon="-4.15848833">
        <ele>906.0</ele>
        <time>2018-05-19T12:40:18.879Z</time>
      </trkpt>
      <trkpt lat="43.07895333" lon="-4.15848833">
        <ele>906.0</ele>
        <time>2018-05-19T12:40:19.869Z</time>
      </trkpt>
      <trkpt lat="43.07895667" lon="-4.15855167">
        <ele>907.0</ele>
        <time>2018-05-19T12:40:20.877Z</time>
      </trkpt>
      <trkpt lat="43.07895333" lon="-4.158585">
        <ele>907.0</ele>
        <time>2018-05-19T12:40:21.866Z</time>
      </trkpt>
      <trkpt lat="43.07895333" lon="-4.158585">
        <ele>907.0</ele>
        <time>2018-05-19T12:40:22.880Z</time>
      </trkpt>
      <trkpt lat="43.07895" lon="-4.15865167">
        <ele>908.0</ele>
        <time>2018-05-19T12:40:23.880Z</time>
      </trkpt>
      <trkpt lat="43.07895" lon="-4.15865167">
        <ele>908.0</ele>
        <time>2018-05-19T12:40:24.868Z</time>
      </trkpt>
      <trkpt lat="43.078945" lon="-4.15871333">
        <ele>908.0</ele>
        <time>2018-05-19T12:40:25.879Z</time>
      </trkpt>
      <trkpt lat="43.078945" lon="-4.15871333">
        <ele>908.0</ele>
        <time>2018-05-19T12:40:26.869Z</time>
      </trkpt>
      <trkpt lat="43.07895" lon="-4.15878167">
        <ele>908.0</ele>
        <time>2018-05-19T12:40:27.881Z</time>
      </trkpt>
      <trkpt lat="43.07895" lon="-4.15878167">
        <ele>908.0</ele>
        <time>2018-05-19T12:40:28.877Z</time>
      </trkpt>
      <trkpt lat="43.078955" lon="-4.15884833">
        <ele>909.0</ele>
        <time>2018-05-19T12:40:29.880Z</time>
      </trkpt>
      <trkpt lat="43.078955" lon="-4.15884833">
        <ele>909.0</ele>
        <time>2018-05-19T12:40:30.874Z</time>
      </trkpt>
      <trkpt lat="43.07895833" lon="-4.15891">
        <ele>909.0</ele>
        <time>2018-05-19T12:40:31.878Z</time>
      </trkpt>
      <trkpt lat="43.07895833" lon="-4.15891">
        <ele>909.0</ele>
        <time>2018-05-19T12:40:32.876Z</time>
      </trkpt>
      <trkpt lat="43.07897167" lon="-4.15897167">
        <ele>908.0</ele>
        <time>2018-05-19T12:40:33.880Z</time>
      </trkpt>
      <trkpt lat="43.07897167" lon="-4.15897167">
        <ele>908.0</ele>
        <time>2018-05-19T12:40:34.869Z</time>
      </trkpt>
      <trkpt lat="43.07897167" lon="-4.159035">
        <ele>907.0</ele>
        <time>2018-05-19T12:40:35.854Z</time>
      </trkpt>
      <trkpt lat="43.07897167" lon="-4.159035">
        <ele>907.0</ele>
        <time>2018-05-19T12:40:36.877Z</time>
      </trkpt>
      <trkpt lat="43.07897167" lon="-4.159095">
        <ele>906.0</ele>
        <time>2018-05-19T12:40:37.878Z</time>
      </trkpt>
      <trkpt lat="43.07897167" lon="-4.159095">
        <ele>906.0</ele>
        <time>2018-05-19T12:40:38.869Z</time>
      </trkpt>
      <trkpt lat="43.07895" lon="-4.15916">
        <ele>906.0</ele>
        <time>2018-05-19T12:40:39.850Z</time>
      </trkpt>
      <trkpt lat="43.07895" lon="-4.15916">
        <ele>906.0</ele>
        <time>2018-05-19T12:40:40.877Z</time>
      </trkpt>
      <trkpt lat="43.07891667" lon="-4.15922167">
        <ele>905.0</ele>
        <time>2018-05-19T12:40:41.877Z</time>
      </trkpt>
      <trkpt lat="43.07891667" lon="-4.15922167">
        <ele>905.0</ele>
        <time>2018-05-19T12:40:42.869Z</time>
      </trkpt>
      <trkpt lat="43.07887833" lon="-4.15929167">
        <ele>904.0</ele>
        <time>2018-05-19T12:40:43.879Z</time>
      </trkpt>
      <trkpt lat="43.07887833" lon="-4.15929167">
        <ele>904.0</ele>
        <time>2018-05-19T12:40:44.869Z</time>
      </trkpt>
      <trkpt lat="43.07885" lon="-4.15934833">
        <ele>904.0</ele>
        <time>2018-05-19T12:40:45.854Z</time>
      </trkpt>
      <trkpt lat="43.078835" lon="-4.15937667">
        <ele>904.0</ele>
        <time>2018-05-19T12:40:46.873Z</time>
      </trkpt>
      <trkpt lat="43.078835" lon="-4.15937667">
        <ele>904.0</ele>
        <time>2018-05-19T12:40:47.879Z</time>
      </trkpt>
      <trkpt lat="43.07879" lon="-4.15942833">
        <ele>903.0</ele>
        <time>2018-05-19T12:40:48.879Z</time>
      </trkpt>
      <trkpt lat="43.07879" lon="-4.15942833">
        <ele>903.0</ele>
        <time>2018-05-19T12:40:49.869Z</time>
      </trkpt>
      <trkpt lat="43.07872167" lon="-4.15945833">
        <ele>903.0</ele>
        <time>2018-05-19T12:40:50.856Z</time>
      </trkpt>
      <trkpt lat="43.07869333" lon="-4.15947667">
        <ele>902.0</ele>
        <time>2018-05-19T12:40:51.880Z</time>
      </trkpt>
      <trkpt lat="43.07866333" lon="-4.15949833">
        <ele>902.0</ele>
        <time>2018-05-19T12:40:52.881Z</time>
      </trkpt>
      <trkpt lat="43.078635" lon="-4.15952333">
        <ele>902.0</ele>
        <time>2018-05-19T12:40:53.879Z</time>
      </trkpt>
      <trkpt lat="43.078635" lon="-4.15952333">
        <ele>902.0</ele>
        <time>2018-05-19T12:40:54.877Z</time>
      </trkpt>
      <trkpt lat="43.078545" lon="-4.15956667">
        <ele>902.0</ele>
        <time>2018-05-19T12:40:55.880Z</time>
      </trkpt>
      <trkpt lat="43.078545" lon="-4.15956667">
        <ele>902.0</ele>
        <time>2018-05-19T12:40:56.869Z</time>
      </trkpt>
      <trkpt lat="43.07844333" lon="-4.159605">
        <ele>902.0</ele>
        <time>2018-05-19T12:40:57.880Z</time>
      </trkpt>
      <trkpt lat="43.07844333" lon="-4.159605">
        <ele>902.0</ele>
        <time>2018-05-19T12:40:58.879Z</time>
      </trkpt>
      <trkpt lat="43.07833833" lon="-4.15966">
        <ele>901.0</ele>
        <time>2018-05-19T12:40:59.878Z</time>
      </trkpt>
      <trkpt lat="43.07833833" lon="-4.15966">
        <ele>901.0</ele>
        <time>2018-05-19T12:41:00.869Z</time>
      </trkpt>
      <trkpt lat="43.07823667" lon="-4.159725">
        <ele>901.0</ele>
        <time>2018-05-19T12:41:01.853Z</time>
      </trkpt>
      <trkpt lat="43.07818167" lon="-4.159755">
        <ele>901.0</ele>
        <time>2018-05-19T12:41:02.879Z</time>
      </trkpt>
      <trkpt lat="43.078115" lon="-4.15978167">
        <ele>901.0</ele>
        <time>2018-05-19T12:41:03.880Z</time>
      </trkpt>
      <trkpt lat="43.078115" lon="-4.15978167">
        <ele>901.0</ele>
        <time>2018-05-19T12:41:04.868Z</time>
      </trkpt>
      <trkpt lat="43.07798167" lon="-4.15984167">
        <ele>901.0</ele>
        <time>2018-05-19T12:41:05.878Z</time>
      </trkpt>
      <trkpt lat="43.07798167" lon="-4.15984167">
        <ele>901.0</ele>
        <time>2018-05-19T12:41:06.867Z</time>
      </trkpt>
      <trkpt lat="43.077845" lon="-4.15989333">
        <ele>902.0</ele>
        <time>2018-05-19T12:41:07.879Z</time>
      </trkpt>
      <trkpt lat="43.077845" lon="-4.15989333">
        <ele>902.0</ele>
        <time>2018-05-19T12:41:08.875Z</time>
      </trkpt>
      <trkpt lat="43.07770333" lon="-4.159955">
        <ele>902.0</ele>
        <time>2018-05-19T12:41:09.879Z</time>
      </trkpt>
      <trkpt lat="43.07770333" lon="-4.159955">
        <ele>902.0</ele>
        <time>2018-05-19T12:41:10.867Z</time>
      </trkpt>
      <trkpt lat="43.07753" lon="-4.160035">
        <ele>901.0</ele>
        <time>2018-05-19T12:41:11.852Z</time>
      </trkpt>
      <trkpt lat="43.07745333" lon="-4.16008333">
        <ele>901.0</ele>
        <time>2018-05-19T12:41:12.878Z</time>
      </trkpt>
      <trkpt lat="43.07745333" lon="-4.16008333">
        <ele>901.0</ele>
        <time>2018-05-19T12:41:13.868Z</time>
      </trkpt>
      <trkpt lat="43.07731" lon="-4.16021333">
        <ele>901.0</ele>
        <time>2018-05-19T12:41:14.877Z</time>
      </trkpt>
      <trkpt lat="43.07724667" lon="-4.16029833">
        <ele>901.0</ele>
        <time>2018-05-19T12:41:15.853Z</time>
      </trkpt>
      <trkpt lat="43.07724667" lon="-4.16029833">
        <ele>901.0</ele>
        <time>2018-05-19T12:41:16.876Z</time>
      </trkpt>
      <trkpt lat="43.07717667" lon="-4.16050833">
        <ele>900.0</ele>
        <time>2018-05-19T12:41:17.877Z</time>
      </trkpt>
      <trkpt lat="43.07717667" lon="-4.16050833">
        <ele>900.0</ele>
        <time>2018-05-19T12:41:18.879Z</time>
      </trkpt>
      <trkpt lat="43.07711667" lon="-4.16073833">
        <ele>900.0</ele>
        <time>2018-05-19T12:41:19.879Z</time>
      </trkpt>
      <trkpt lat="43.07711667" lon="-4.16073833">
        <ele>900.0</ele>
        <time>2018-05-19T12:41:20.868Z</time>
      </trkpt>
      <trkpt lat="43.07709667" lon="-4.160975">
        <ele>899.0</ele>
        <time>2018-05-19T12:41:21.867Z</time>
      </trkpt>
      <trkpt lat="43.07709333" lon="-4.161085">
        <ele>899.0</ele>
        <time>2018-05-19T12:41:22.879Z</time>
      </trkpt>
      <trkpt lat="43.07709333" lon="-4.161085">
        <ele>899.0</ele>
        <time>2018-05-19T12:41:23.868Z</time>
      </trkpt>
      <trkpt lat="43.077065" lon="-4.16127167">
        <ele>899.0</ele>
        <time>2018-05-19T12:41:24.879Z</time>
      </trkpt>
      <trkpt lat="43.077065" lon="-4.16127167">
        <ele>899.0</ele>
        <time>2018-05-19T12:41:25.873Z</time>
      </trkpt>
      <trkpt lat="43.07703333" lon="-4.16140167">
        <ele>898.0</ele>
        <time>2018-05-19T12:41:26.850Z</time>
      </trkpt>
      <trkpt lat="43.07702333" lon="-4.161455">
        <ele>898.0</ele>
        <time>2018-05-19T12:41:27.879Z</time>
      </trkpt>
      <trkpt lat="43.07702333" lon="-4.161455">
        <ele>898.0</ele>
        <time>2018-05-19T12:41:28.868Z</time>
      </trkpt>
      <trkpt lat="43.07701833" lon="-4.161555">
        <ele>897.0</ele>
        <time>2018-05-19T12:41:29.847Z</time>
      </trkpt>
      <trkpt lat="43.07701833" lon="-4.161555">
        <ele>897.0</ele>
        <time>2018-05-19T12:41:30.875Z</time>
      </trkpt>
      <trkpt lat="43.07700167" lon="-4.16163833">
        <ele>897.0</ele>
        <time>2018-05-19T12:41:31.866Z</time>
      </trkpt>
      <trkpt lat="43.07700333" lon="-4.16168">
        <ele>897.0</ele>
        <time>2018-05-19T12:41:32.878Z</time>
      </trkpt>
      <trkpt lat="43.077005" lon="-4.16172">
        <ele>896.0</ele>
        <time>2018-05-19T12:41:33.880Z</time>
      </trkpt>
      <trkpt lat="43.077005" lon="-4.16172">
        <ele>896.0</ele>
        <time>2018-05-19T12:41:34.867Z</time>
      </trkpt>
      <trkpt lat="43.07699" lon="-4.161785">
        <ele>896.0</ele>
        <time>2018-05-19T12:41:35.878Z</time>
      </trkpt>
      <trkpt lat="43.07699" lon="-4.161785">
        <ele>896.0</ele>
        <time>2018-05-19T12:41:36.866Z</time>
      </trkpt>
      <trkpt lat="43.076965" lon="-4.16184333">
        <ele>895.0</ele>
        <time>2018-05-19T12:41:37.879Z</time>
      </trkpt>
      <trkpt lat="43.076965" lon="-4.16184333">
        <ele>895.0</ele>
        <time>2018-05-19T12:41:38.868Z</time>
      </trkpt>
      <trkpt lat="43.07693667" lon="-4.16189167">
        <ele>895.0</ele>
        <time>2018-05-19T12:41:39.847Z</time>
      </trkpt>
      <trkpt lat="43.07693667" lon="-4.16189167">
        <ele>895.0</ele>
        <time>2018-05-19T12:41:40.875Z</time>
      </trkpt>
      <trkpt lat="43.07688667" lon="-4.16194167">
        <ele>895.0</ele>
        <time>2018-05-19T12:41:41.854Z</time>
      </trkpt>
      <trkpt lat="43.076865" lon="-4.16196667">
        <ele>895.0</ele>
        <time>2018-05-19T12:41:42.878Z</time>
      </trkpt>
      <trkpt lat="43.076865" lon="-4.16196667">
        <ele>895.0</ele>
        <time>2018-05-19T12:41:43.868Z</time>
      </trkpt>
      <trkpt lat="43.07682833" lon="-4.16200667">
        <ele>895.0</ele>
        <time>2018-05-19T12:41:44.879Z</time>
      </trkpt>
      <trkpt lat="43.07682833" lon="-4.16200667">
        <ele>895.0</ele>
        <time>2018-05-19T12:41:45.850Z</time>
      </trkpt>
      <trkpt lat="43.07678667" lon="-4.16205">
        <ele>895.0</ele>
        <time>2018-05-19T12:41:46.854Z</time>
      </trkpt>
      <trkpt lat="43.07676667" lon="-4.16207333">
        <ele>895.0</ele>
        <time>2018-05-19T12:41:47.879Z</time>
      </trkpt>
      <trkpt lat="43.07676667" lon="-4.16207333">
        <ele>895.0</ele>
        <time>2018-05-19T12:41:48.879Z</time>
      </trkpt>
      <trkpt lat="43.076725" lon="-4.16210833">
        <ele>894.0</ele>
        <time>2018-05-19T12:41:49.879Z</time>
      </trkpt>
      <trkpt lat="43.076725" lon="-4.16210833">
        <ele>894.0</ele>
        <time>2018-05-19T12:41:50.869Z</time>
      </trkpt>
      <trkpt lat="43.076685" lon="-4.16214167">
        <ele>894.0</ele>
        <time>2018-05-19T12:41:51.878Z</time>
      </trkpt>
      <trkpt lat="43.076685" lon="-4.16214167">
        <ele>894.0</ele>
        <time>2018-05-19T12:41:52.868Z</time>
      </trkpt>
      <trkpt lat="43.07664167" lon="-4.162175">
        <ele>894.0</ele>
        <time>2018-05-19T12:41:53.877Z</time>
      </trkpt>
      <trkpt lat="43.07664167" lon="-4.162175">
        <ele>894.0</ele>
        <time>2018-05-19T12:41:54.877Z</time>
      </trkpt>
      <trkpt lat="43.07660333" lon="-4.16220667">
        <ele>894.0</ele>
        <time>2018-05-19T12:41:55.880Z</time>
      </trkpt>
      <trkpt lat="43.07660333" lon="-4.16220667">
        <ele>894.0</ele>
        <time>2018-05-19T12:41:56.868Z</time>
      </trkpt>
      <trkpt lat="43.07656667" lon="-4.16223833">
        <ele>894.0</ele>
        <time>2018-05-19T12:41:57.880Z</time>
      </trkpt>
      <trkpt lat="43.07656667" lon="-4.16223833">
        <ele>894.0</ele>
        <time>2018-05-19T12:41:58.868Z</time>
      </trkpt>
      <trkpt lat="43.07653167" lon="-4.16227">
        <ele>894.0</ele>
        <time>2018-05-19T12:41:59.848Z</time>
      </trkpt>
      <trkpt lat="43.07653167" lon="-4.16227">
        <ele>894.0</ele>
        <time>2018-05-19T12:42:00.876Z</time>
      </trkpt>
      <trkpt lat="43.07649667" lon="-4.16230167">
        <ele>894.0</ele>
        <time>2018-05-19T12:42:01.878Z</time>
      </trkpt>
      <trkpt lat="43.07648" lon="-4.16231833">
        <ele>894.0</ele>
        <time>2018-05-19T12:42:02.879Z</time>
      </trkpt>
      <trkpt lat="43.07648" lon="-4.16231833">
        <ele>894.0</ele>
        <time>2018-05-19T12:42:03.869Z</time>
      </trkpt>
      <trkpt lat="43.076445" lon="-4.16235">
        <ele>894.0</ele>
        <time>2018-05-19T12:42:04.879Z</time>
      </trkpt>
      <trkpt lat="43.07642833" lon="-4.16236333">
        <ele>894.0</ele>
        <time>2018-05-19T12:42:05.879Z</time>
      </trkpt>
      <trkpt lat="43.07642833" lon="-4.16236333">
        <ele>894.0</ele>
        <time>2018-05-19T12:42:06.868Z</time>
      </trkpt>
      <trkpt lat="43.07639667" lon="-4.16239">
        <ele>894.0</ele>
        <time>2018-05-19T12:42:07.879Z</time>
      </trkpt>
      <trkpt lat="43.07639667" lon="-4.16239">
        <ele>894.0</ele>
        <time>2018-05-19T12:42:08.868Z</time>
      </trkpt>
      <trkpt lat="43.076365" lon="-4.16241833">
        <ele>894.0</ele>
        <time>2018-05-19T12:42:09.850Z</time>
      </trkpt>
      <trkpt lat="43.076365" lon="-4.16241833">
        <ele>894.0</ele>
        <time>2018-05-19T12:42:10.876Z</time>
      </trkpt>
      <trkpt lat="43.076335" lon="-4.16244833">
        <ele>894.0</ele>
        <time>2018-05-19T12:42:11.878Z</time>
      </trkpt>
      <trkpt lat="43.076335" lon="-4.16244833">
        <ele>894.0</ele>
        <time>2018-05-19T12:42:12.868Z</time>
      </trkpt>
      <trkpt lat="43.076315" lon="-4.16247667">
        <ele>894.0</ele>
        <time>2018-05-19T12:42:13.879Z</time>
      </trkpt>
      <trkpt lat="43.076315" lon="-4.16247667">
        <ele>894.0</ele>
        <time>2018-05-19T12:42:14.868Z</time>
      </trkpt>
      <trkpt lat="43.07628833" lon="-4.16250667">
        <ele>893.0</ele>
        <time>2018-05-19T12:42:15.859Z</time>
      </trkpt>
      <trkpt lat="43.07626833" lon="-4.16251833">
        <ele>893.0</ele>
        <time>2018-05-19T12:42:16.846Z</time>
      </trkpt>
      <trkpt lat="43.07625" lon="-4.16253333">
        <ele>894.0</ele>
        <time>2018-05-19T12:42:17.877Z</time>
      </trkpt>
      <trkpt lat="43.07625" lon="-4.16253333">
        <ele>894.0</ele>
        <time>2018-05-19T12:42:18.867Z</time>
      </trkpt>
      <trkpt lat="43.07621833" lon="-4.16257">
        <ele>893.0</ele>
        <time>2018-05-19T12:42:19.846Z</time>
      </trkpt>
      <trkpt lat="43.07621833" lon="-4.16257">
        <ele>893.0</ele>
        <time>2018-05-19T12:42:20.874Z</time>
      </trkpt>
      <trkpt lat="43.07618833" lon="-4.16261">
        <ele>894.0</ele>
        <time>2018-05-19T12:42:21.884Z</time>
      </trkpt>
      <trkpt lat="43.07618833" lon="-4.16261">
        <ele>894.0</ele>
        <time>2018-05-19T12:42:22.868Z</time>
      </trkpt>
      <trkpt lat="43.07615667" lon="-4.16263167">
        <ele>895.0</ele>
        <time>2018-05-19T12:42:23.877Z</time>
      </trkpt>
      <trkpt lat="43.07615667" lon="-4.16263167">
        <ele>895.0</ele>
        <time>2018-05-19T12:42:24.868Z</time>
      </trkpt>
      <trkpt lat="43.076135" lon="-4.16267333">
        <ele>895.0</ele>
        <time>2018-05-19T12:42:25.878Z</time>
      </trkpt>
      <trkpt lat="43.076135" lon="-4.16267333">
        <ele>895.0</ele>
        <time>2018-05-19T12:42:26.875Z</time>
      </trkpt>
      <trkpt lat="43.07612333" lon="-4.162725">
        <ele>896.0</ele>
        <time>2018-05-19T12:42:27.879Z</time>
      </trkpt>
      <trkpt lat="43.07612" lon="-4.16275333">
        <ele>896.0</ele>
        <time>2018-05-19T12:42:28.879Z</time>
      </trkpt>
      <trkpt lat="43.07611833" lon="-4.16278667">
        <ele>896.0</ele>
        <time>2018-05-19T12:42:29.878Z</time>
      </trkpt>
      <trkpt lat="43.07611833" lon="-4.16278667">
        <ele>896.0</ele>
        <time>2018-05-19T12:42:30.876Z</time>
      </trkpt>
      <trkpt lat="43.07611333" lon="-4.16285">
        <ele>896.0</ele>
        <time>2018-05-19T12:42:31.879Z</time>
      </trkpt>
      <trkpt lat="43.07611167" lon="-4.16287833">
        <ele>896.0</ele>
        <time>2018-05-19T12:42:32.879Z</time>
      </trkpt>
      <trkpt lat="43.07611167" lon="-4.16287833">
        <ele>896.0</ele>
        <time>2018-05-19T12:42:33.873Z</time>
      </trkpt>
      <trkpt lat="43.07610167" lon="-4.162925">
        <ele>897.0</ele>
        <time>2018-05-19T12:42:34.878Z</time>
      </trkpt>
      <trkpt lat="43.07610167" lon="-4.162925">
        <ele>897.0</ele>
        <time>2018-05-19T12:42:35.868Z</time>
      </trkpt>
      <trkpt lat="43.076095" lon="-4.16297">
        <ele>898.0</ele>
        <time>2018-05-19T12:42:36.879Z</time>
      </trkpt>
      <trkpt lat="43.076095" lon="-4.16297">
        <ele>898.0</ele>
        <time>2018-05-19T12:42:37.868Z</time>
      </trkpt>
      <trkpt lat="43.07608667" lon="-4.16301667">
        <ele>899.0</ele>
        <time>2018-05-19T12:42:38.879Z</time>
      </trkpt>
      <trkpt lat="43.07607833" lon="-4.16303833">
        <ele>899.0</ele>
        <time>2018-05-19T12:42:39.878Z</time>
      </trkpt>
      <trkpt lat="43.07607833" lon="-4.16303833">
        <ele>899.0</ele>
        <time>2018-05-19T12:42:40.869Z</time>
      </trkpt>
      <trkpt lat="43.076065" lon="-4.16309667">
        <ele>900.0</ele>
        <time>2018-05-19T12:42:41.879Z</time>
      </trkpt>
      <trkpt lat="43.076065" lon="-4.16309667">
        <ele>900.0</ele>
        <time>2018-05-19T12:42:42.868Z</time>
      </trkpt>
      <trkpt lat="43.07605167" lon="-4.16316333">
        <ele>900.0</ele>
        <time>2018-05-19T12:42:43.878Z</time>
      </trkpt>
      <trkpt lat="43.07605167" lon="-4.16316333">
        <ele>900.0</ele>
        <time>2018-05-19T12:42:44.868Z</time>
      </trkpt>
      <trkpt lat="43.07603167" lon="-4.16323">
        <ele>901.0</ele>
        <time>2018-05-19T12:42:45.851Z</time>
      </trkpt>
      <trkpt lat="43.07602167" lon="-4.16325">
        <ele>901.0</ele>
        <time>2018-05-19T12:42:46.869Z</time>
      </trkpt>
      <trkpt lat="43.07602167" lon="-4.16325">
        <ele>901.0</ele>
        <time>2018-05-19T12:42:47.882Z</time>
      </trkpt>
      <trkpt lat="43.07599667" lon="-4.163295">
        <ele>902.0</ele>
        <time>2018-05-19T12:42:48.848Z</time>
      </trkpt>
      <trkpt lat="43.07598667" lon="-4.16332">
        <ele>902.0</ele>
        <time>2018-05-19T12:42:49.855Z</time>
      </trkpt>
      <trkpt lat="43.07598667" lon="-4.16332">
        <ele>902.0</ele>
        <time>2018-05-19T12:42:50.868Z</time>
      </trkpt>
      <trkpt lat="43.07596167" lon="-4.163365">
        <ele>902.0</ele>
        <time>2018-05-19T12:42:51.875Z</time>
      </trkpt>
      <trkpt lat="43.07596167" lon="-4.163365">
        <ele>902.0</ele>
        <time>2018-05-19T12:42:52.867Z</time>
      </trkpt>
      <trkpt lat="43.07594167" lon="-4.16341667">
        <ele>903.0</ele>
        <time>2018-05-19T12:42:53.879Z</time>
      </trkpt>
      <trkpt lat="43.07594167" lon="-4.16341667">
        <ele>903.0</ele>
        <time>2018-05-19T12:42:54.868Z</time>
      </trkpt>
      <trkpt lat="43.07592833" lon="-4.16346">
        <ele>904.0</ele>
        <time>2018-05-19T12:42:55.879Z</time>
      </trkpt>
      <trkpt lat="43.07592833" lon="-4.16346">
        <ele>904.0</ele>
        <time>2018-05-19T12:42:56.867Z</time>
      </trkpt>
      <trkpt lat="43.07591333" lon="-4.16350333">
        <ele>904.0</ele>
        <time>2018-05-19T12:42:57.878Z</time>
      </trkpt>
      <trkpt lat="43.07591333" lon="-4.16350333">
        <ele>904.0</ele>
        <time>2018-05-19T12:42:58.868Z</time>
      </trkpt>
      <trkpt lat="43.075895" lon="-4.16354833">
        <ele>905.0</ele>
        <time>2018-05-19T12:42:59.847Z</time>
      </trkpt>
      <trkpt lat="43.075895" lon="-4.16354833">
        <ele>905.0</ele>
        <time>2018-05-19T12:43:00.875Z</time>
      </trkpt>
      <trkpt lat="43.07588333" lon="-4.1636">
        <ele>906.0</ele>
        <time>2018-05-19T12:43:01.878Z</time>
      </trkpt>
      <trkpt lat="43.07588333" lon="-4.1636">
        <ele>906.0</ele>
        <time>2018-05-19T12:43:02.874Z</time>
      </trkpt>
      <trkpt lat="43.07587" lon="-4.16365667">
        <ele>906.0</ele>
        <time>2018-05-19T12:43:03.879Z</time>
      </trkpt>
      <trkpt lat="43.07587" lon="-4.16365667">
        <ele>906.0</ele>
        <time>2018-05-19T12:43:04.868Z</time>
      </trkpt>
      <trkpt lat="43.07586167" lon="-4.16371167">
        <ele>906.0</ele>
        <time>2018-05-19T12:43:05.878Z</time>
      </trkpt>
      <trkpt lat="43.07586167" lon="-4.16371167">
        <ele>906.0</ele>
        <time>2018-05-19T12:43:06.868Z</time>
      </trkpt>
      <trkpt lat="43.07584333" lon="-4.163755">
        <ele>907.0</ele>
        <time>2018-05-19T12:43:07.878Z</time>
      </trkpt>
      <trkpt lat="43.07584333" lon="-4.163755">
        <ele>907.0</ele>
        <time>2018-05-19T12:43:08.867Z</time>
      </trkpt>
      <trkpt lat="43.07582833" lon="-4.16379667">
        <ele>907.0</ele>
        <time>2018-05-19T12:43:09.849Z</time>
      </trkpt>
      <trkpt lat="43.07582833" lon="-4.16379667">
        <ele>907.0</ele>
        <time>2018-05-19T12:43:10.874Z</time>
      </trkpt>
      <trkpt lat="43.07581333" lon="-4.16383833">
        <ele>908.0</ele>
        <time>2018-05-19T12:43:11.878Z</time>
      </trkpt>
      <trkpt lat="43.07581333" lon="-4.16383833">
        <ele>908.0</ele>
        <time>2018-05-19T12:43:12.867Z</time>
      </trkpt>
      <trkpt lat="43.07578833" lon="-4.163875">
        <ele>908.0</ele>
        <time>2018-05-19T12:43:13.878Z</time>
      </trkpt>
      <trkpt lat="43.07578833" lon="-4.163875">
        <ele>908.0</ele>
        <time>2018-05-19T12:43:14.868Z</time>
      </trkpt>
      <trkpt lat="43.075755" lon="-4.16393833">
        <ele>909.0</ele>
        <time>2018-05-19T12:43:15.852Z</time>
      </trkpt>
      <trkpt lat="43.075755" lon="-4.16393833">
        <ele>909.0</ele>
        <time>2018-05-19T12:43:16.876Z</time>
      </trkpt>
      <trkpt lat="43.07571333" lon="-4.16396">
        <ele>911.0</ele>
        <time>2018-05-19T12:43:17.878Z</time>
      </trkpt>
      <trkpt lat="43.07571333" lon="-4.16396">
        <ele>911.0</ele>
        <time>2018-05-19T12:43:18.868Z</time>
      </trkpt>
      <trkpt lat="43.07569167" lon="-4.16401167">
        <ele>912.0</ele>
        <time>2018-05-19T12:43:19.847Z</time>
      </trkpt>
      <trkpt lat="43.07569167" lon="-4.16401167">
        <ele>912.0</ele>
        <time>2018-05-19T12:43:20.873Z</time>
      </trkpt>
      <trkpt lat="43.07568" lon="-4.16406833">
        <ele>912.0</ele>
        <time>2018-05-19T12:43:21.879Z</time>
      </trkpt>
      <trkpt lat="43.07568" lon="-4.16406833">
        <ele>912.0</ele>
        <time>2018-05-19T12:43:22.867Z</time>
      </trkpt>
      <trkpt lat="43.07566667" lon="-4.16413667">
        <ele>913.0</ele>
        <time>2018-05-19T12:43:23.850Z</time>
      </trkpt>
      <trkpt lat="43.07566667" lon="-4.16413667">
        <ele>913.0</ele>
        <time>2018-05-19T12:43:24.868Z</time>
      </trkpt>
      <trkpt lat="43.07565667" lon="-4.164195">
        <ele>914.0</ele>
        <time>2018-05-19T12:43:25.879Z</time>
      </trkpt>
      <trkpt lat="43.07565667" lon="-4.164195">
        <ele>914.0</ele>
        <time>2018-05-19T12:43:26.867Z</time>
      </trkpt>
      <trkpt lat="43.07564" lon="-4.16425167">
        <ele>915.0</ele>
        <time>2018-05-19T12:43:27.879Z</time>
      </trkpt>
      <trkpt lat="43.07564" lon="-4.16425167">
        <ele>915.0</ele>
        <time>2018-05-19T12:43:28.869Z</time>
      </trkpt>
      <trkpt lat="43.075605" lon="-4.16429833">
        <ele>915.0</ele>
        <time>2018-05-19T12:43:29.878Z</time>
      </trkpt>
      <trkpt lat="43.075605" lon="-4.16429833">
        <ele>915.0</ele>
        <time>2018-05-19T12:43:30.868Z</time>
      </trkpt>
      <trkpt lat="43.07556333" lon="-4.16433333">
        <ele>916.0</ele>
        <time>2018-05-19T12:43:31.877Z</time>
      </trkpt>
      <trkpt lat="43.07556333" lon="-4.16433333">
        <ele>916.0</ele>
        <time>2018-05-19T12:43:32.868Z</time>
      </trkpt>
      <trkpt lat="43.07552167" lon="-4.16433667">
        <ele>917.0</ele>
        <time>2018-05-19T12:43:33.879Z</time>
      </trkpt>
      <trkpt lat="43.07552167" lon="-4.16433667">
        <ele>917.0</ele>
        <time>2018-05-19T12:43:34.867Z</time>
      </trkpt>
      <trkpt lat="43.07549667" lon="-4.16431167">
        <ele>917.0</ele>
        <time>2018-05-19T12:43:35.878Z</time>
      </trkpt>
      <trkpt lat="43.07549667" lon="-4.16431167">
        <ele>917.0</ele>
        <time>2018-05-19T12:43:36.874Z</time>
      </trkpt>
      <trkpt lat="43.07547167" lon="-4.16427667">
        <ele>918.0</ele>
        <time>2018-05-19T12:43:37.878Z</time>
      </trkpt>
      <trkpt lat="43.07547167" lon="-4.16427667">
        <ele>918.0</ele>
        <time>2018-05-19T12:43:38.867Z</time>
      </trkpt>
      <trkpt lat="43.07546" lon="-4.16422333">
        <ele>919.0</ele>
        <time>2018-05-19T12:43:39.850Z</time>
      </trkpt>
      <trkpt lat="43.07546" lon="-4.16422333">
        <ele>919.0</ele>
        <time>2018-05-19T12:43:40.878Z</time>
      </trkpt>
      <trkpt lat="43.07544667" lon="-4.16417333">
        <ele>920.0</ele>
        <time>2018-05-19T12:43:41.878Z</time>
      </trkpt>
      <trkpt lat="43.07544667" lon="-4.16417333">
        <ele>920.0</ele>
        <time>2018-05-19T12:43:42.867Z</time>
      </trkpt>
      <trkpt lat="43.07544" lon="-4.16411333">
        <ele>921.0</ele>
        <time>2018-05-19T12:43:43.847Z</time>
      </trkpt>
      <trkpt lat="43.07544" lon="-4.16411333">
        <ele>921.0</ele>
        <time>2018-05-19T12:43:44.874Z</time>
      </trkpt>
      <trkpt lat="43.07542833" lon="-4.16406">
        <ele>922.0</ele>
        <time>2018-05-19T12:43:45.849Z</time>
      </trkpt>
      <trkpt lat="43.07542" lon="-4.16403833">
        <ele>922.0</ele>
        <time>2018-05-19T12:43:46.866Z</time>
      </trkpt>
      <trkpt lat="43.07542" lon="-4.16403833">
        <ele>922.0</ele>
        <time>2018-05-19T12:43:47.874Z</time>
      </trkpt>
      <trkpt lat="43.07539833" lon="-4.16398167">
        <ele>924.0</ele>
        <time>2018-05-19T12:43:48.880Z</time>
      </trkpt>
      <trkpt lat="43.07539833" lon="-4.16398167">
        <ele>924.0</ele>
        <time>2018-05-19T12:43:49.872Z</time>
      </trkpt>
      <trkpt lat="43.075385" lon="-4.16393167">
        <ele>925.0</ele>
        <time>2018-05-19T12:43:50.879Z</time>
      </trkpt>
      <trkpt lat="43.07537833" lon="-4.16390667">
        <ele>926.0</ele>
        <time>2018-05-19T12:43:51.879Z</time>
      </trkpt>
      <trkpt lat="43.07537833" lon="-4.16390667">
        <ele>926.0</ele>
        <time>2018-05-19T12:43:52.868Z</time>
      </trkpt>
      <trkpt lat="43.07534667" lon="-4.16385667">
        <ele>927.0</ele>
        <time>2018-05-19T12:43:53.878Z</time>
      </trkpt>
      <trkpt lat="43.07534667" lon="-4.16385667">
        <ele>927.0</ele>
        <time>2018-05-19T12:43:54.867Z</time>
      </trkpt>
      <trkpt lat="43.07531" lon="-4.16381833">
        <ele>928.0</ele>
        <time>2018-05-19T12:43:55.878Z</time>
      </trkpt>
      <trkpt lat="43.07529167" lon="-4.163805">
        <ele>928.0</ele>
        <time>2018-05-19T12:43:56.878Z</time>
      </trkpt>
      <trkpt lat="43.07527667" lon="-4.16379833">
        <ele>929.0</ele>
        <time>2018-05-19T12:43:57.879Z</time>
      </trkpt>
      <trkpt lat="43.07527667" lon="-4.16379833">
        <ele>929.0</ele>
        <time>2018-05-19T12:43:58.867Z</time>
      </trkpt>
      <trkpt lat="43.07523333" lon="-4.16379833">
        <ele>929.0</ele>
        <time>2018-05-19T12:43:59.846Z</time>
      </trkpt>
      <trkpt lat="43.07523333" lon="-4.16379833">
        <ele>929.0</ele>
        <time>2018-05-19T12:44:00.875Z</time>
      </trkpt>
      <trkpt lat="43.07520167" lon="-4.16380667">
        <ele>929.0</ele>
        <time>2018-05-19T12:44:01.878Z</time>
      </trkpt>
      <trkpt lat="43.07520167" lon="-4.16380667">
        <ele>929.0</ele>
        <time>2018-05-19T12:44:02.868Z</time>
      </trkpt>
      <trkpt lat="43.07518167" lon="-4.16382667">
        <ele>930.0</ele>
        <time>2018-05-19T12:44:03.853Z</time>
      </trkpt>
      <trkpt lat="43.07517" lon="-4.16383667">
        <ele>930.0</ele>
        <time>2018-05-19T12:44:04.844Z</time>
      </trkpt>
      <trkpt lat="43.07517" lon="-4.16383667">
        <ele>930.0</ele>
        <time>2018-05-19T12:44:05.873Z</time>
      </trkpt>
      <trkpt lat="43.07513333" lon="-4.16385167">
        <ele>930.0</ele>
        <time>2018-05-19T12:44:06.878Z</time>
      </trkpt>
      <trkpt lat="43.07513333" lon="-4.16385167">
        <ele>930.0</ele>
        <time>2018-05-19T12:44:07.867Z</time>
      </trkpt>
      <trkpt lat="43.07509333" lon="-4.16387">
        <ele>931.0</ele>
        <time>2018-05-19T12:44:08.879Z</time>
      </trkpt>
      <trkpt lat="43.075075" lon="-4.16388167">
        <ele>931.0</ele>
        <time>2018-05-19T12:44:09.878Z</time>
      </trkpt>
      <trkpt lat="43.075075" lon="-4.16388167">
        <ele>931.0</ele>
        <time>2018-05-19T12:44:10.867Z</time>
      </trkpt>
      <trkpt lat="43.07503333" lon="-4.16390833">
        <ele>932.0</ele>
        <time>2018-05-19T12:44:11.878Z</time>
      </trkpt>
      <trkpt lat="43.07503333" lon="-4.16390833">
        <ele>932.0</ele>
        <time>2018-05-19T12:44:12.875Z</time>
      </trkpt>
      <trkpt lat="43.07500333" lon="-4.16394167">
        <ele>933.0</ele>
        <time>2018-05-19T12:44:13.878Z</time>
      </trkpt>
      <trkpt lat="43.07500333" lon="-4.16394167">
        <ele>933.0</ele>
        <time>2018-05-19T12:44:14.867Z</time>
      </trkpt>
      <trkpt lat="43.074965" lon="-4.163975">
        <ele>933.0</ele>
        <time>2018-05-19T12:44:15.856Z</time>
      </trkpt>
      <trkpt lat="43.07494167" lon="-4.16401">
        <ele>933.0</ele>
        <time>2018-05-19T12:44:16.880Z</time>
      </trkpt>
      <trkpt lat="43.07494167" lon="-4.16401">
        <ele>933.0</ele>
        <time>2018-05-19T12:44:17.867Z</time>
      </trkpt>
      <trkpt lat="43.07490167" lon="-4.16404667">
        <ele>934.0</ele>
        <time>2018-05-19T12:44:18.879Z</time>
      </trkpt>
      <trkpt lat="43.07490333" lon="-4.16406667">
        <ele>933.0</ele>
        <time>2018-05-19T12:44:19.883Z</time>
      </trkpt>
      <trkpt lat="43.07490333" lon="-4.16406667">
        <ele>933.0</ele>
        <time>2018-05-19T12:44:20.874Z</time>
      </trkpt>
      <trkpt lat="43.07489667" lon="-4.16412">
        <ele>933.0</ele>
        <time>2018-05-19T12:44:21.878Z</time>
      </trkpt>
      <trkpt lat="43.07489" lon="-4.16414333">
        <ele>933.0</ele>
        <time>2018-05-19T12:44:22.879Z</time>
      </trkpt>
      <trkpt lat="43.07489" lon="-4.16414333">
        <ele>933.0</ele>
        <time>2018-05-19T12:44:23.874Z</time>
      </trkpt>
      <trkpt lat="43.07487" lon="-4.16419833">
        <ele>933.0</ele>
        <time>2018-05-19T12:44:24.877Z</time>
      </trkpt>
      <trkpt lat="43.07487" lon="-4.16419833">
        <ele>933.0</ele>
        <time>2018-05-19T12:44:25.874Z</time>
      </trkpt>
      <trkpt lat="43.07484333" lon="-4.164245">
        <ele>934.0</ele>
        <time>2018-05-19T12:44:26.874Z</time>
      </trkpt>
      <trkpt lat="43.07484333" lon="-4.164245">
        <ele>934.0</ele>
        <time>2018-05-19T12:44:27.868Z</time>
      </trkpt>
      <trkpt lat="43.074815" lon="-4.16429167">
        <ele>934.0</ele>
        <time>2018-05-19T12:44:28.851Z</time>
      </trkpt>
      <trkpt lat="43.07479667" lon="-4.16431">
        <ele>935.0</ele>
        <time>2018-05-19T12:44:29.876Z</time>
      </trkpt>
      <trkpt lat="43.07479667" lon="-4.16431">
        <ele>935.0</ele>
        <time>2018-05-19T12:44:30.867Z</time>
      </trkpt>
      <trkpt lat="43.07476167" lon="-4.16435333">
        <ele>935.0</ele>
        <time>2018-05-19T12:44:31.876Z</time>
      </trkpt>
      <trkpt lat="43.07476167" lon="-4.16435333">
        <ele>935.0</ele>
        <time>2018-05-19T12:44:32.879Z</time>
      </trkpt>
      <trkpt lat="43.07473167" lon="-4.16439333">
        <ele>936.0</ele>
        <time>2018-05-19T12:44:33.878Z</time>
      </trkpt>
      <trkpt lat="43.07473167" lon="-4.16439333">
        <ele>936.0</ele>
        <time>2018-05-19T12:44:34.867Z</time>
      </trkpt>
      <trkpt lat="43.07469" lon="-4.16442333">
        <ele>936.0</ele>
        <time>2018-05-19T12:44:35.877Z</time>
      </trkpt>
      <trkpt lat="43.07469" lon="-4.16442333">
        <ele>936.0</ele>
        <time>2018-05-19T12:44:36.867Z</time>
      </trkpt>
      <trkpt lat="43.07465167" lon="-4.16445333">
        <ele>937.0</ele>
        <time>2018-05-19T12:44:37.878Z</time>
      </trkpt>
      <trkpt lat="43.07465167" lon="-4.16445333">
        <ele>937.0</ele>
        <time>2018-05-19T12:44:38.867Z</time>
      </trkpt>
      <trkpt lat="43.074615" lon="-4.16448167">
        <ele>937.0</ele>
        <time>2018-05-19T12:44:39.846Z</time>
      </trkpt>
      <trkpt lat="43.074615" lon="-4.16448167">
        <ele>937.0</ele>
        <time>2018-05-19T12:44:40.874Z</time>
      </trkpt>
      <trkpt lat="43.07457667" lon="-4.16450167">
        <ele>938.0</ele>
        <time>2018-05-19T12:44:41.878Z</time>
      </trkpt>
      <trkpt lat="43.074555" lon="-4.16451167">
        <ele>938.0</ele>
        <time>2018-05-19T12:44:42.879Z</time>
      </trkpt>
      <trkpt lat="43.074555" lon="-4.16451167">
        <ele>938.0</ele>
        <time>2018-05-19T12:44:43.873Z</time>
      </trkpt>
      <trkpt lat="43.074515" lon="-4.164515">
        <ele>938.0</ele>
        <time>2018-05-19T12:44:44.878Z</time>
      </trkpt>
      <trkpt lat="43.074515" lon="-4.164515">
        <ele>938.0</ele>
        <time>2018-05-19T12:44:45.859Z</time>
      </trkpt>
      <trkpt lat="43.07447833" lon="-4.16452333">
        <ele>938.0</ele>
        <time>2018-05-19T12:44:46.872Z</time>
      </trkpt>
      <trkpt lat="43.074455" lon="-4.16454167">
        <ele>938.0</ele>
        <time>2018-05-19T12:44:47.878Z</time>
      </trkpt>
      <trkpt lat="43.074455" lon="-4.16454167">
        <ele>938.0</ele>
        <time>2018-05-19T12:44:48.844Z</time>
      </trkpt>
      <trkpt lat="43.07442667" lon="-4.16457167">
        <ele>938.0</ele>
        <time>2018-05-19T12:44:49.850Z</time>
      </trkpt>
      <trkpt lat="43.074405" lon="-4.164585">
        <ele>939.0</ele>
        <time>2018-05-19T12:44:50.876Z</time>
      </trkpt>
      <trkpt lat="43.07438333" lon="-4.16460167">
        <ele>939.0</ele>
        <time>2018-05-19T12:44:51.879Z</time>
      </trkpt>
      <trkpt lat="43.07438333" lon="-4.16460167">
        <ele>939.0</ele>
        <time>2018-05-19T12:44:52.867Z</time>
      </trkpt>
      <trkpt lat="43.07434667" lon="-4.164635">
        <ele>939.0</ele>
        <time>2018-05-19T12:44:53.853Z</time>
      </trkpt>
      <trkpt lat="43.07434667" lon="-4.164635">
        <ele>939.0</ele>
        <time>2018-05-19T12:44:54.878Z</time>
      </trkpt>
      <trkpt lat="43.07432167" lon="-4.16465667">
        <ele>938.0</ele>
        <time>2018-05-19T12:44:55.874Z</time>
      </trkpt>
      <trkpt lat="43.07432167" lon="-4.16465667">
        <ele>938.0</ele>
        <time>2018-05-19T12:44:56.867Z</time>
      </trkpt>
      <trkpt lat="43.07430167" lon="-4.16469">
        <ele>938.0</ele>
        <time>2018-05-19T12:44:57.875Z</time>
      </trkpt>
      <trkpt lat="43.07430167" lon="-4.16469">
        <ele>938.0</ele>
        <time>2018-05-19T12:44:58.867Z</time>
      </trkpt>
      <trkpt lat="43.07427167" lon="-4.16472">
        <ele>937.0</ele>
        <time>2018-05-19T12:44:59.846Z</time>
      </trkpt>
      <trkpt lat="43.07427167" lon="-4.16472">
        <ele>937.0</ele>
        <time>2018-05-19T12:45:00.874Z</time>
      </trkpt>
      <trkpt lat="43.074235" lon="-4.16476167">
        <ele>937.0</ele>
        <time>2018-05-19T12:45:01.878Z</time>
      </trkpt>
      <trkpt lat="43.074235" lon="-4.16476167">
        <ele>937.0</ele>
        <time>2018-05-19T12:45:02.867Z</time>
      </trkpt>
      <trkpt lat="43.074205" lon="-4.16480667">
        <ele>937.0</ele>
        <time>2018-05-19T12:45:03.853Z</time>
      </trkpt>
      <trkpt lat="43.074205" lon="-4.16480667">
        <ele>937.0</ele>
        <time>2018-05-19T12:45:04.879Z</time>
      </trkpt>
      <trkpt lat="43.07418167" lon="-4.16484833">
        <ele>936.0</ele>
        <time>2018-05-19T12:45:05.872Z</time>
      </trkpt>
      <trkpt lat="43.07418167" lon="-4.16484833">
        <ele>936.0</ele>
        <time>2018-05-19T12:45:06.873Z</time>
      </trkpt>
      <trkpt lat="43.074155" lon="-4.16488667">
        <ele>936.0</ele>
        <time>2018-05-19T12:45:07.876Z</time>
      </trkpt>
      <trkpt lat="43.074155" lon="-4.16488667">
        <ele>936.0</ele>
        <time>2018-05-19T12:45:08.867Z</time>
      </trkpt>
      <trkpt lat="43.07413" lon="-4.164925">
        <ele>936.0</ele>
        <time>2018-05-19T12:45:09.846Z</time>
      </trkpt>
      <trkpt lat="43.07413" lon="-4.164925">
        <ele>936.0</ele>
        <time>2018-05-19T12:45:10.875Z</time>
      </trkpt>
      <trkpt lat="43.07410167" lon="-4.16497167">
        <ele>936.0</ele>
        <time>2018-05-19T12:45:11.877Z</time>
      </trkpt>
      <trkpt lat="43.07410167" lon="-4.16497167">
        <ele>936.0</ele>
        <time>2018-05-19T12:45:12.867Z</time>
      </trkpt>
      <trkpt lat="43.07407167" lon="-4.165015">
        <ele>936.0</ele>
        <time>2018-05-19T12:45:13.851Z</time>
      </trkpt>
      <trkpt lat="43.07405333" lon="-4.16503833">
        <ele>935.0</ele>
        <time>2018-05-19T12:45:14.878Z</time>
      </trkpt>
      <trkpt lat="43.07405333" lon="-4.16503833">
        <ele>935.0</ele>
        <time>2018-05-19T12:45:15.868Z</time>
      </trkpt>
      <trkpt lat="43.07401667" lon="-4.16508167">
        <ele>935.0</ele>
        <time>2018-05-19T12:45:16.877Z</time>
      </trkpt>
      <trkpt lat="43.074" lon="-4.1651">
        <ele>935.0</ele>
        <time>2018-05-19T12:45:17.878Z</time>
      </trkpt>
      <trkpt lat="43.074" lon="-4.1651">
        <ele>935.0</ele>
        <time>2018-05-19T12:45:18.867Z</time>
      </trkpt>
      <trkpt lat="43.07397167" lon="-4.16515167">
        <ele>935.0</ele>
        <time>2018-05-19T12:45:19.845Z</time>
      </trkpt>
      <trkpt lat="43.07397167" lon="-4.16515167">
        <ele>935.0</ele>
        <time>2018-05-19T12:45:20.873Z</time>
      </trkpt>
      <trkpt lat="43.07394167" lon="-4.16518667">
        <ele>934.0</ele>
        <time>2018-05-19T12:45:21.878Z</time>
      </trkpt>
      <trkpt lat="43.07394167" lon="-4.16518667">
        <ele>934.0</ele>
        <time>2018-05-19T12:45:22.866Z</time>
      </trkpt>
      <trkpt lat="43.073915" lon="-4.16521667">
        <ele>934.0</ele>
        <time>2018-05-19T12:45:23.878Z</time>
      </trkpt>
      <trkpt lat="43.0739" lon="-4.16523">
        <ele>934.0</ele>
        <time>2018-05-19T12:45:24.878Z</time>
      </trkpt>
      <trkpt lat="43.0739" lon="-4.16523">
        <ele>934.0</ele>
        <time>2018-05-19T12:45:25.866Z</time>
      </trkpt>
      <trkpt lat="43.07386667" lon="-4.16526">
        <ele>933.0</ele>
        <time>2018-05-19T12:45:26.852Z</time>
      </trkpt>
      <trkpt lat="43.07385167" lon="-4.16527667">
        <ele>933.0</ele>
        <time>2018-05-19T12:45:27.879Z</time>
      </trkpt>
      <trkpt lat="43.07385167" lon="-4.16527667">
        <ele>933.0</ele>
        <time>2018-05-19T12:45:28.879Z</time>
      </trkpt>
      <trkpt lat="43.07381167" lon="-4.165305">
        <ele>933.0</ele>
        <time>2018-05-19T12:45:29.878Z</time>
      </trkpt>
      <trkpt lat="43.07381167" lon="-4.165305">
        <ele>933.0</ele>
        <time>2018-05-19T12:45:30.866Z</time>
      </trkpt>
      <trkpt lat="43.073765" lon="-4.165335">
        <ele>933.0</ele>
        <time>2018-05-19T12:45:31.851Z</time>
      </trkpt>
      <trkpt lat="43.07374833" lon="-4.16534833">
        <ele>934.0</ele>
        <time>2018-05-19T12:45:32.877Z</time>
      </trkpt>
      <trkpt lat="43.07373333" lon="-4.16536667">
        <ele>934.0</ele>
        <time>2018-05-19T12:45:33.877Z</time>
      </trkpt>
      <trkpt lat="43.07373333" lon="-4.16536667">
        <ele>934.0</ele>
        <time>2018-05-19T12:45:34.867Z</time>
      </trkpt>
      <trkpt lat="43.07370333" lon="-4.16540333">
        <ele>934.0</ele>
        <time>2018-05-19T12:45:35.852Z</time>
      </trkpt>
      <trkpt lat="43.07368833" lon="-4.16542167">
        <ele>935.0</ele>
        <time>2018-05-19T12:45:36.878Z</time>
      </trkpt>
      <trkpt lat="43.07368833" lon="-4.16542167">
        <ele>935.0</ele>
        <time>2018-05-19T12:45:37.867Z</time>
      </trkpt>
      <trkpt lat="43.07365333" lon="-4.16546">
        <ele>935.0</ele>
        <time>2018-05-19T12:45:38.879Z</time>
      </trkpt>
      <trkpt lat="43.07363333" lon="-4.16548333">
        <ele>935.0</ele>
        <time>2018-05-19T12:45:39.879Z</time>
      </trkpt>
      <trkpt lat="43.07363333" lon="-4.16548333">
        <ele>935.0</ele>
        <time>2018-05-19T12:45:40.876Z</time>
      </trkpt>
      <trkpt lat="43.07359" lon="-4.165525">
        <ele>935.0</ele>
        <time>2018-05-19T12:45:41.878Z</time>
      </trkpt>
      <trkpt lat="43.07359" lon="-4.165525">
        <ele>935.0</ele>
        <time>2018-05-19T12:45:42.866Z</time>
      </trkpt>
      <trkpt lat="43.07354833" lon="-4.16556667">
        <ele>935.0</ele>
        <time>2018-05-19T12:45:43.877Z</time>
      </trkpt>
      <trkpt lat="43.07352667" lon="-4.16559">
        <ele>935.0</ele>
        <time>2018-05-19T12:45:44.878Z</time>
      </trkpt>
      <trkpt lat="43.07352667" lon="-4.16559">
        <ele>935.0</ele>
        <time>2018-05-19T12:45:45.857Z</time>
      </trkpt>
      <trkpt lat="43.07349333" lon="-4.16564833">
        <ele>935.0</ele>
        <time>2018-05-19T12:45:46.881Z</time>
      </trkpt>
      <trkpt lat="43.07348" lon="-4.16567833">
        <ele>935.0</ele>
        <time>2018-05-19T12:45:47.847Z</time>
      </trkpt>
      <trkpt lat="43.07348" lon="-4.16567833">
        <ele>935.0</ele>
        <time>2018-05-19T12:45:48.879Z</time>
      </trkpt>
      <trkpt lat="43.07345333" lon="-4.16574">
        <ele>935.0</ele>
        <time>2018-05-19T12:45:49.877Z</time>
      </trkpt>
      <trkpt lat="43.07345333" lon="-4.16574">
        <ele>935.0</ele>
        <time>2018-05-19T12:45:50.866Z</time>
      </trkpt>
      <trkpt lat="43.07343667" lon="-4.16581">
        <ele>935.0</ele>
        <time>2018-05-19T12:45:51.852Z</time>
      </trkpt>
      <trkpt lat="43.07343667" lon="-4.16581">
        <ele>935.0</ele>
        <time>2018-05-19T12:45:52.877Z</time>
      </trkpt>
      <trkpt lat="43.07341333" lon="-4.16587333">
        <ele>935.0</ele>
        <time>2018-05-19T12:45:53.876Z</time>
      </trkpt>
      <trkpt lat="43.07341333" lon="-4.16587333">
        <ele>935.0</ele>
        <time>2018-05-19T12:45:54.867Z</time>
      </trkpt>
      <trkpt lat="43.073405" lon="-4.16594">
        <ele>936.0</ele>
        <time>2018-05-19T12:45:55.878Z</time>
      </trkpt>
      <trkpt lat="43.073405" lon="-4.16594">
        <ele>936.0</ele>
        <time>2018-05-19T12:45:56.873Z</time>
      </trkpt>
      <trkpt lat="43.07339833" lon="-4.16600833">
        <ele>936.0</ele>
        <time>2018-05-19T12:45:57.879Z</time>
      </trkpt>
      <trkpt lat="43.07339833" lon="-4.16600833">
        <ele>936.0</ele>
        <time>2018-05-19T12:45:58.867Z</time>
      </trkpt>
      <trkpt lat="43.0734" lon="-4.16607833">
        <ele>936.0</ele>
        <time>2018-05-19T12:45:59.846Z</time>
      </trkpt>
      <trkpt lat="43.0734" lon="-4.16607833">
        <ele>936.0</ele>
        <time>2018-05-19T12:46:00.874Z</time>
      </trkpt>
      <trkpt lat="43.07340333" lon="-4.16615">
        <ele>937.0</ele>
        <time>2018-05-19T12:46:01.876Z</time>
      </trkpt>
      <trkpt lat="43.07340333" lon="-4.16615">
        <ele>937.0</ele>
        <time>2018-05-19T12:46:02.867Z</time>
      </trkpt>
      <trkpt lat="43.07341" lon="-4.166225">
        <ele>937.0</ele>
        <time>2018-05-19T12:46:03.878Z</time>
      </trkpt>
      <trkpt lat="43.07341" lon="-4.166225">
        <ele>937.0</ele>
        <time>2018-05-19T12:46:04.867Z</time>
      </trkpt>
      <trkpt lat="43.073415" lon="-4.1663">
        <ele>938.0</ele>
        <time>2018-05-19T12:46:05.876Z</time>
      </trkpt>
      <trkpt lat="43.07341667" lon="-4.166335">
        <ele>938.0</ele>
        <time>2018-05-19T12:46:06.877Z</time>
      </trkpt>
      <trkpt lat="43.07341667" lon="-4.166335">
        <ele>938.0</ele>
        <time>2018-05-19T12:46:07.866Z</time>
      </trkpt>
      <trkpt lat="43.073425" lon="-4.166405">
        <ele>938.0</ele>
        <time>2018-05-19T12:46:08.879Z</time>
      </trkpt>
      <trkpt lat="43.07342667" lon="-4.16643833">
        <ele>938.0</ele>
        <time>2018-05-19T12:46:09.879Z</time>
      </trkpt>
      <trkpt lat="43.07342667" lon="-4.16643833">
        <ele>938.0</ele>
        <time>2018-05-19T12:46:10.866Z</time>
      </trkpt>
      <trkpt lat="43.07343" lon="-4.16651333">
        <ele>939.0</ele>
        <time>2018-05-19T12:46:11.876Z</time>
      </trkpt>
      <trkpt lat="43.07343" lon="-4.16651333">
        <ele>939.0</ele>
        <time>2018-05-19T12:46:12.866Z</time>
      </trkpt>
      <trkpt lat="43.07343" lon="-4.16658833">
        <ele>939.0</ele>
        <time>2018-05-19T12:46:13.875Z</time>
      </trkpt>
      <trkpt lat="43.07343" lon="-4.16658833">
        <ele>939.0</ele>
        <time>2018-05-19T12:46:14.872Z</time>
      </trkpt>
      <trkpt lat="43.07342333" lon="-4.16665333">
        <ele>939.0</ele>
        <time>2018-05-19T12:46:15.845Z</time>
      </trkpt>
      <trkpt lat="43.073415" lon="-4.166685">
        <ele>939.0</ele>
        <time>2018-05-19T12:46:16.878Z</time>
      </trkpt>
      <trkpt lat="43.073405" lon="-4.16671833">
        <ele>940.0</ele>
        <time>2018-05-19T12:46:17.876Z</time>
      </trkpt>
      <trkpt lat="43.073405" lon="-4.16671833">
        <ele>940.0</ele>
        <time>2018-05-19T12:46:18.865Z</time>
      </trkpt>
      <trkpt lat="43.07338833" lon="-4.16677833">
        <ele>940.0</ele>
        <time>2018-05-19T12:46:19.844Z</time>
      </trkpt>
      <trkpt lat="43.07338833" lon="-4.16677833">
        <ele>940.0</ele>
        <time>2018-05-19T12:46:20.872Z</time>
      </trkpt>
      <trkpt lat="43.07337333" lon="-4.16683833">
        <ele>940.0</ele>
        <time>2018-05-19T12:46:21.848Z</time>
      </trkpt>
      <trkpt lat="43.07335667" lon="-4.16687167">
        <ele>940.0</ele>
        <time>2018-05-19T12:46:22.875Z</time>
      </trkpt>
      <trkpt lat="43.07333667" lon="-4.16690333">
        <ele>941.0</ele>
        <time>2018-05-19T12:46:23.877Z</time>
      </trkpt>
      <trkpt lat="43.07333667" lon="-4.16690333">
        <ele>941.0</ele>
        <time>2018-05-19T12:46:24.866Z</time>
      </trkpt>
      <trkpt lat="43.073295" lon="-4.16695667">
        <ele>941.0</ele>
        <time>2018-05-19T12:46:25.852Z</time>
      </trkpt>
      <trkpt lat="43.073295" lon="-4.16695667">
        <ele>941.0</ele>
        <time>2018-05-19T12:46:26.878Z</time>
      </trkpt>
      <trkpt lat="43.07325833" lon="-4.16700833">
        <ele>942.0</ele>
        <time>2018-05-19T12:46:27.878Z</time>
      </trkpt>
      <trkpt lat="43.07325833" lon="-4.16700833">
        <ele>942.0</ele>
        <time>2018-05-19T12:46:28.866Z</time>
      </trkpt>
      <trkpt lat="43.07322333" lon="-4.16705333">
        <ele>942.0</ele>
        <time>2018-05-19T12:46:29.845Z</time>
      </trkpt>
      <trkpt lat="43.07322333" lon="-4.16705333">
        <ele>942.0</ele>
        <time>2018-05-19T12:46:30.874Z</time>
      </trkpt>
      <trkpt lat="43.07318333" lon="-4.16708167">
        <ele>943.0</ele>
        <time>2018-05-19T12:46:31.877Z</time>
      </trkpt>
      <trkpt lat="43.07318333" lon="-4.16708167">
        <ele>943.0</ele>
        <time>2018-05-19T12:46:32.866Z</time>
      </trkpt>
      <trkpt lat="43.07314167" lon="-4.16709667">
        <ele>943.0</ele>
        <time>2018-05-19T12:46:33.878Z</time>
      </trkpt>
      <trkpt lat="43.07314167" lon="-4.16709667">
        <ele>943.0</ele>
        <time>2018-05-19T12:46:34.874Z</time>
      </trkpt>
      <trkpt lat="43.0731" lon="-4.16710667">
        <ele>943.0</ele>
        <time>2018-05-19T12:46:35.880Z</time>
      </trkpt>
      <trkpt lat="43.0731" lon="-4.16710667">
        <ele>943.0</ele>
        <time>2018-05-19T12:46:36.865Z</time>
      </trkpt>
      <trkpt lat="43.07306833" lon="-4.16710167">
        <ele>943.0</ele>
        <time>2018-05-19T12:46:37.876Z</time>
      </trkpt>
      <trkpt lat="43.07306833" lon="-4.16710167">
        <ele>943.0</ele>
        <time>2018-05-19T12:46:38.867Z</time>
      </trkpt>
      <trkpt lat="43.073035" lon="-4.16709667">
        <ele>943.0</ele>
        <time>2018-05-19T12:46:39.879Z</time>
      </trkpt>
      <trkpt lat="43.07301667" lon="-4.16709333">
        <ele>943.0</ele>
        <time>2018-05-19T12:46:40.879Z</time>
      </trkpt>
      <trkpt lat="43.07301667" lon="-4.16709333">
        <ele>943.0</ele>
        <time>2018-05-19T12:46:41.874Z</time>
      </trkpt>
      <trkpt lat="43.07298" lon="-4.16709167">
        <ele>943.0</ele>
        <time>2018-05-19T12:46:42.876Z</time>
      </trkpt>
      <trkpt lat="43.07298" lon="-4.16709167">
        <ele>943.0</ele>
        <time>2018-05-19T12:46:43.867Z</time>
      </trkpt>
      <trkpt lat="43.07294" lon="-4.16709167">
        <ele>943.0</ele>
        <time>2018-05-19T12:46:44.865Z</time>
      </trkpt>
      <trkpt lat="43.07294" lon="-4.16709167">
        <ele>943.0</ele>
        <time>2018-05-19T12:46:45.851Z</time>
      </trkpt>
      <trkpt lat="43.0729" lon="-4.1671">
        <ele>944.0</ele>
        <time>2018-05-19T12:46:46.872Z</time>
      </trkpt>
      <trkpt lat="43.07288333" lon="-4.16710667">
        <ele>944.0</ele>
        <time>2018-05-19T12:46:47.878Z</time>
      </trkpt>
      <trkpt lat="43.07286667" lon="-4.16711333">
        <ele>944.0</ele>
        <time>2018-05-19T12:46:48.880Z</time>
      </trkpt>
      <trkpt lat="43.07284833" lon="-4.16712167">
        <ele>944.0</ele>
        <time>2018-05-19T12:46:49.878Z</time>
      </trkpt>
      <trkpt lat="43.07284833" lon="-4.16712167">
        <ele>944.0</ele>
        <time>2018-05-19T12:46:50.867Z</time>
      </trkpt>
      <trkpt lat="43.07280833" lon="-4.167145">
        <ele>944.0</ele>
        <time>2018-05-19T12:46:51.848Z</time>
      </trkpt>
      <trkpt lat="43.07280833" lon="-4.167145">
        <ele>944.0</ele>
        <time>2018-05-19T12:46:52.875Z</time>
      </trkpt>
      <trkpt lat="43.07276667" lon="-4.16716">
        <ele>944.0</ele>
        <time>2018-05-19T12:46:53.884Z</time>
      </trkpt>
      <trkpt lat="43.07276667" lon="-4.16716">
        <ele>944.0</ele>
        <time>2018-05-19T12:46:54.873Z</time>
      </trkpt>
      <trkpt lat="43.07273" lon="-4.167175">
        <ele>945.0</ele>
        <time>2018-05-19T12:46:55.877Z</time>
      </trkpt>
      <trkpt lat="43.07273" lon="-4.167175">
        <ele>945.0</ele>
        <time>2018-05-19T12:46:56.867Z</time>
      </trkpt>
      <trkpt lat="43.07269167" lon="-4.16719167">
        <ele>945.0</ele>
        <time>2018-05-19T12:46:57.878Z</time>
      </trkpt>
      <trkpt lat="43.072675" lon="-4.16720167">
        <ele>945.0</ele>
        <time>2018-05-19T12:46:58.879Z</time>
      </trkpt>
      <trkpt lat="43.07265833" lon="-4.16721">
        <ele>945.0</ele>
        <time>2018-05-19T12:46:59.876Z</time>
      </trkpt>
      <trkpt lat="43.07265833" lon="-4.16721">
        <ele>945.0</ele>
        <time>2018-05-19T12:47:00.866Z</time>
      </trkpt>
      <trkpt lat="43.072625" lon="-4.16722">
        <ele>945.0</ele>
        <time>2018-05-19T12:47:01.878Z</time>
      </trkpt>
      <trkpt lat="43.072625" lon="-4.16722">
        <ele>945.0</ele>
        <time>2018-05-19T12:47:02.867Z</time>
      </trkpt>
      <trkpt lat="43.07259" lon="-4.16722833">
        <ele>945.0</ele>
        <time>2018-05-19T12:47:03.878Z</time>
      </trkpt>
      <trkpt lat="43.07259" lon="-4.16722833">
        <ele>945.0</ele>
        <time>2018-05-19T12:47:04.862Z</time>
      </trkpt>
      <trkpt lat="43.07255667" lon="-4.16724">
        <ele>946.0</ele>
        <time>2018-05-19T12:47:05.847Z</time>
      </trkpt>
      <trkpt lat="43.07255667" lon="-4.16724">
        <ele>946.0</ele>
        <time>2018-05-19T12:47:06.873Z</time>
      </trkpt>
      <trkpt lat="43.07252333" lon="-4.16725667">
        <ele>946.0</ele>
        <time>2018-05-19T12:47:07.877Z</time>
      </trkpt>
      <trkpt lat="43.07252333" lon="-4.16725667">
        <ele>946.0</ele>
        <time>2018-05-19T12:47:08.873Z</time>
      </trkpt>
      <trkpt lat="43.07249" lon="-4.16728">
        <ele>946.0</ele>
        <time>2018-05-19T12:47:09.879Z</time>
      </trkpt>
      <trkpt lat="43.07249" lon="-4.16728">
        <ele>946.0</ele>
        <time>2018-05-19T12:47:10.866Z</time>
      </trkpt>
      <trkpt lat="43.07245833" lon="-4.167315">
        <ele>946.0</ele>
        <time>2018-05-19T12:47:11.876Z</time>
      </trkpt>
      <trkpt lat="43.07245833" lon="-4.167315">
        <ele>946.0</ele>
        <time>2018-05-19T12:47:12.866Z</time>
      </trkpt>
      <trkpt lat="43.07243167" lon="-4.16735667">
        <ele>946.0</ele>
        <time>2018-05-19T12:47:13.877Z</time>
      </trkpt>
      <trkpt lat="43.07243167" lon="-4.16735667">
        <ele>946.0</ele>
        <time>2018-05-19T12:47:14.867Z</time>
      </trkpt>
      <trkpt lat="43.07241333" lon="-4.16740333">
        <ele>947.0</ele>
        <time>2018-05-19T12:47:15.853Z</time>
      </trkpt>
      <trkpt lat="43.07240667" lon="-4.16742833">
        <ele>947.0</ele>
        <time>2018-05-19T12:47:16.858Z</time>
      </trkpt>
      <trkpt lat="43.07240667" lon="-4.16742833">
        <ele>947.0</ele>
        <time>2018-05-19T12:47:17.856Z</time>
      </trkpt>
      <trkpt lat="43.0724" lon="-4.16747667">
        <ele>947.0</ele>
        <time>2018-05-19T12:47:18.863Z</time>
      </trkpt>
      <trkpt lat="43.07240167" lon="-4.167505">
        <ele>948.0</ele>
        <time>2018-05-19T12:47:19.870Z</time>
      </trkpt>
      <trkpt lat="43.07240167" lon="-4.167505">
        <ele>948.0</ele>
        <time>2018-05-19T12:47:20.880Z</time>
      </trkpt>
      <trkpt lat="43.07241667" lon="-4.167555">
        <ele>948.0</ele>
        <time>2018-05-19T12:47:21.875Z</time>
      </trkpt>
      <trkpt lat="43.07241667" lon="-4.167555">
        <ele>948.0</ele>
        <time>2018-05-19T12:47:22.866Z</time>
      </trkpt>
      <trkpt lat="43.07244667" lon="-4.16759833">
        <ele>949.0</ele>
        <time>2018-05-19T12:47:23.876Z</time>
      </trkpt>
      <trkpt lat="43.07244667" lon="-4.16759833">
        <ele>949.0</ele>
        <time>2018-05-19T12:47:24.867Z</time>
      </trkpt>
      <trkpt lat="43.07248" lon="-4.16763167">
        <ele>949.0</ele>
        <time>2018-05-19T12:47:25.846Z</time>
      </trkpt>
      <trkpt lat="43.07248" lon="-4.16763167">
        <ele>949.0</ele>
        <time>2018-05-19T12:47:26.873Z</time>
      </trkpt>
      <trkpt lat="43.072515" lon="-4.16765333">
        <ele>949.0</ele>
        <time>2018-05-19T12:47:27.875Z</time>
      </trkpt>
      <trkpt lat="43.072515" lon="-4.16765333">
        <ele>949.0</ele>
        <time>2018-05-19T12:47:28.867Z</time>
      </trkpt>
      <trkpt lat="43.07255167" lon="-4.16767">
        <ele>950.0</ele>
        <time>2018-05-19T12:47:29.845Z</time>
      </trkpt>
      <trkpt lat="43.07255167" lon="-4.16767">
        <ele>950.0</ele>
        <time>2018-05-19T12:47:30.873Z</time>
      </trkpt>
      <trkpt lat="43.07259" lon="-4.16768667">
        <ele>950.0</ele>
        <time>2018-05-19T12:47:31.876Z</time>
      </trkpt>
      <trkpt lat="43.07261" lon="-4.16769667">
        <ele>951.0</ele>
        <time>2018-05-19T12:47:32.875Z</time>
      </trkpt>
      <trkpt lat="43.07262667" lon="-4.16770333">
        <ele>951.0</ele>
        <time>2018-05-19T12:47:33.878Z</time>
      </trkpt>
      <trkpt lat="43.072645" lon="-4.16770833">
        <ele>951.0</ele>
        <time>2018-05-19T12:47:34.878Z</time>
      </trkpt>
      <trkpt lat="43.072645" lon="-4.16770833">
        <ele>951.0</ele>
        <time>2018-05-19T12:47:35.880Z</time>
      </trkpt>
      <trkpt lat="43.07268333" lon="-4.16771167">
        <ele>952.0</ele>
        <time>2018-05-19T12:47:36.877Z</time>
      </trkpt>
      <trkpt lat="43.07268333" lon="-4.16771167">
        <ele>952.0</ele>
        <time>2018-05-19T12:47:37.869Z</time>
      </trkpt>
      <trkpt lat="43.07272333" lon="-4.16770833">
        <ele>952.0</ele>
        <time>2018-05-19T12:47:38.879Z</time>
      </trkpt>
      <trkpt lat="43.07274167" lon="-4.167705">
        <ele>953.0</ele>
        <time>2018-05-19T12:47:39.875Z</time>
      </trkpt>
      <trkpt lat="43.07274167" lon="-4.167705">
        <ele>953.0</ele>
        <time>2018-05-19T12:47:40.874Z</time>
      </trkpt>
      <trkpt lat="43.07278167" lon="-4.16769333">
        <ele>953.0</ele>
        <time>2018-05-19T12:47:41.876Z</time>
      </trkpt>
      <trkpt lat="43.07278167" lon="-4.16769333">
        <ele>953.0</ele>
        <time>2018-05-19T12:47:42.866Z</time>
      </trkpt>
      <trkpt lat="43.07282" lon="-4.167675">
        <ele>954.0</ele>
        <time>2018-05-19T12:47:43.850Z</time>
      </trkpt>
      <trkpt lat="43.07282" lon="-4.167675">
        <ele>954.0</ele>
        <time>2018-05-19T12:47:44.872Z</time>
      </trkpt>
      <trkpt lat="43.07286167" lon="-4.16766167">
        <ele>954.0</ele>
        <time>2018-05-19T12:47:45.855Z</time>
      </trkpt>
      <trkpt lat="43.07286167" lon="-4.16766167">
        <ele>954.0</ele>
        <time>2018-05-19T12:47:46.857Z</time>
      </trkpt>
      <trkpt lat="43.0729" lon="-4.167645">
        <ele>954.0</ele>
        <time>2018-05-19T12:47:47.872Z</time>
      </trkpt>
      <trkpt lat="43.07291833" lon="-4.16763667">
        <ele>955.0</ele>
        <time>2018-05-19T12:47:48.878Z</time>
      </trkpt>
      <trkpt lat="43.07291833" lon="-4.16763667">
        <ele>955.0</ele>
        <time>2018-05-19T12:47:49.883Z</time>
      </trkpt>
      <trkpt lat="43.072955" lon="-4.16762333">
        <ele>955.0</ele>
        <time>2018-05-19T12:47:50.852Z</time>
      </trkpt>
      <trkpt lat="43.07297333" lon="-4.16762">
        <ele>955.0</ele>
        <time>2018-05-19T12:47:51.879Z</time>
      </trkpt>
      <trkpt lat="43.07297333" lon="-4.16762">
        <ele>955.0</ele>
        <time>2018-05-19T12:47:52.872Z</time>
      </trkpt>
      <trkpt lat="43.07301167" lon="-4.16761833">
        <ele>955.0</ele>
        <time>2018-05-19T12:47:53.876Z</time>
      </trkpt>
      <trkpt lat="43.07301167" lon="-4.16761833">
        <ele>955.0</ele>
        <time>2018-05-19T12:47:54.866Z</time>
      </trkpt>
      <trkpt lat="43.07305" lon="-4.167625">
        <ele>956.0</ele>
        <time>2018-05-19T12:47:55.877Z</time>
      </trkpt>
      <trkpt lat="43.07305" lon="-4.167625">
        <ele>956.0</ele>
        <time>2018-05-19T12:47:56.867Z</time>
      </trkpt>
      <trkpt lat="43.07308667" lon="-4.16764">
        <ele>956.0</ele>
        <time>2018-05-19T12:47:57.877Z</time>
      </trkpt>
      <trkpt lat="43.07308667" lon="-4.16764">
        <ele>956.0</ele>
        <time>2018-05-19T12:47:58.867Z</time>
      </trkpt>
      <trkpt lat="43.07312" lon="-4.16766333">
        <ele>956.0</ele>
        <time>2018-05-19T12:47:59.845Z</time>
      </trkpt>
      <trkpt lat="43.07312" lon="-4.16766333">
        <ele>956.0</ele>
        <time>2018-05-19T12:48:00.873Z</time>
      </trkpt>
      <trkpt lat="43.07315167" lon="-4.16768833">
        <ele>956.0</ele>
        <time>2018-05-19T12:48:01.877Z</time>
      </trkpt>
      <trkpt lat="43.07315167" lon="-4.16768833">
        <ele>956.0</ele>
        <time>2018-05-19T12:48:02.865Z</time>
      </trkpt>
      <trkpt lat="43.07318" lon="-4.167725">
        <ele>957.0</ele>
        <time>2018-05-19T12:48:03.848Z</time>
      </trkpt>
      <trkpt lat="43.07318" lon="-4.167725">
        <ele>957.0</ele>
        <time>2018-05-19T12:48:04.874Z</time>
      </trkpt>
      <trkpt lat="43.07320333" lon="-4.16776667">
        <ele>957.0</ele>
        <time>2018-05-19T12:48:05.877Z</time>
      </trkpt>
      <trkpt lat="43.073215" lon="-4.16778667">
        <ele>957.0</ele>
        <time>2018-05-19T12:48:06.876Z</time>
      </trkpt>
      <trkpt lat="43.07322333" lon="-4.16780833">
        <ele>957.0</ele>
        <time>2018-05-19T12:48:07.877Z</time>
      </trkpt>
      <trkpt lat="43.07322333" lon="-4.16780833">
        <ele>957.0</ele>
        <time>2018-05-19T12:48:08.867Z</time>
      </trkpt>
      <trkpt lat="43.07323667" lon="-4.167855">
        <ele>958.0</ele>
        <time>2018-05-19T12:48:09.846Z</time>
      </trkpt>
      <trkpt lat="43.07323667" lon="-4.167855">
        <ele>958.0</ele>
        <time>2018-05-19T12:48:10.875Z</time>
      </trkpt>
      <trkpt lat="43.07324333" lon="-4.167905">
        <ele>958.0</ele>
        <time>2018-05-19T12:48:11.876Z</time>
      </trkpt>
      <trkpt lat="43.07324333" lon="-4.167905">
        <ele>958.0</ele>
        <time>2018-05-19T12:48:12.866Z</time>
      </trkpt>
      <trkpt lat="43.073245" lon="-4.167955">
        <ele>958.0</ele>
        <time>2018-05-19T12:48:13.876Z</time>
      </trkpt>
      <trkpt lat="43.07324333" lon="-4.16798">
        <ele>958.0</ele>
        <time>2018-05-19T12:48:14.878Z</time>
      </trkpt>
      <trkpt lat="43.07324333" lon="-4.16798">
        <ele>958.0</ele>
        <time>2018-05-19T12:48:15.869Z</time>
      </trkpt>
      <trkpt lat="43.07323333" lon="-4.168025">
        <ele>958.0</ele>
        <time>2018-05-19T12:48:16.852Z</time>
      </trkpt>
      <trkpt lat="43.07323333" lon="-4.168025">
        <ele>958.0</ele>
        <time>2018-05-19T12:48:17.877Z</time>
      </trkpt>
      <trkpt lat="43.07321" lon="-4.16807">
        <ele>958.0</ele>
        <time>2018-05-19T12:48:18.879Z</time>
      </trkpt>
      <trkpt lat="43.07321" lon="-4.16807">
        <ele>958.0</ele>
        <time>2018-05-19T12:48:19.865Z</time>
      </trkpt>
      <trkpt lat="43.07318833" lon="-4.16811833">
        <ele>959.0</ele>
        <time>2018-05-19T12:48:20.877Z</time>
      </trkpt>
      <trkpt lat="43.07318" lon="-4.168145">
        <ele>959.0</ele>
        <time>2018-05-19T12:48:21.877Z</time>
      </trkpt>
      <trkpt lat="43.07318" lon="-4.168145">
        <ele>959.0</ele>
        <time>2018-05-19T12:48:22.865Z</time>
      </trkpt>
      <trkpt lat="43.073165" lon="-4.168195">
        <ele>959.0</ele>
        <time>2018-05-19T12:48:23.845Z</time>
      </trkpt>
      <trkpt lat="43.073165" lon="-4.168195">
        <ele>959.0</ele>
        <time>2018-05-19T12:48:24.873Z</time>
      </trkpt>
      <trkpt lat="43.07315167" lon="-4.16824833">
        <ele>959.0</ele>
        <time>2018-05-19T12:48:25.876Z</time>
      </trkpt>
      <trkpt lat="43.07314667" lon="-4.16827333">
        <ele>959.0</ele>
        <time>2018-05-19T12:48:26.876Z</time>
      </trkpt>
      <trkpt lat="43.07314" lon="-4.1683">
        <ele>960.0</ele>
        <time>2018-05-19T12:48:27.878Z</time>
      </trkpt>
      <trkpt lat="43.07314" lon="-4.1683">
        <ele>960.0</ele>
        <time>2018-05-19T12:48:28.879Z</time>
      </trkpt>
      <trkpt lat="43.073135" lon="-4.16835333">
        <ele>960.0</ele>
        <time>2018-05-19T12:48:29.876Z</time>
      </trkpt>
      <trkpt lat="43.073135" lon="-4.16835333">
        <ele>960.0</ele>
        <time>2018-05-19T12:48:30.873Z</time>
      </trkpt>
      <trkpt lat="43.07313333" lon="-4.16840333">
        <ele>960.0</ele>
        <time>2018-05-19T12:48:31.876Z</time>
      </trkpt>
      <trkpt lat="43.07313333" lon="-4.16840333">
        <ele>960.0</ele>
        <time>2018-05-19T12:48:32.866Z</time>
      </trkpt>
      <trkpt lat="43.07313667" lon="-4.16845">
        <ele>960.0</ele>
        <time>2018-05-19T12:48:33.878Z</time>
      </trkpt>
      <trkpt lat="43.07313667" lon="-4.16845">
        <ele>960.0</ele>
        <time>2018-05-19T12:48:34.866Z</time>
      </trkpt>
      <trkpt lat="43.07314" lon="-4.16849833">
        <ele>961.0</ele>
        <time>2018-05-19T12:48:35.845Z</time>
      </trkpt>
      <trkpt lat="43.07314" lon="-4.16849833">
        <ele>961.0</ele>
        <time>2018-05-19T12:48:36.872Z</time>
      </trkpt>
      <trkpt lat="43.073145" lon="-4.16854167">
        <ele>961.0</ele>
        <time>2018-05-19T12:48:37.877Z</time>
      </trkpt>
      <trkpt lat="43.07315" lon="-4.16857">
        <ele>961.0</ele>
        <time>2018-05-19T12:48:38.847Z</time>
      </trkpt>
      <trkpt lat="43.07315" lon="-4.16857">
        <ele>961.0</ele>
        <time>2018-05-19T12:48:39.871Z</time>
      </trkpt>
      <trkpt lat="43.07315833" lon="-4.16861">
        <ele>961.0</ele>
        <time>2018-05-19T12:48:40.878Z</time>
      </trkpt>
      <trkpt lat="43.07316" lon="-4.16863">
        <ele>961.0</ele>
        <time>2018-05-19T12:48:41.876Z</time>
      </trkpt>
      <trkpt lat="43.07316" lon="-4.16863">
        <ele>961.0</ele>
        <time>2018-05-19T12:48:42.865Z</time>
      </trkpt>
      <trkpt lat="43.07316833" lon="-4.16867">
        <ele>962.0</ele>
        <time>2018-05-19T12:48:43.875Z</time>
      </trkpt>
      <trkpt lat="43.07316833" lon="-4.16867">
        <ele>962.0</ele>
        <time>2018-05-19T12:48:44.873Z</time>
      </trkpt>
      <trkpt lat="43.07317833" lon="-4.16871667">
        <ele>962.0</ele>
        <time>2018-05-19T12:48:45.854Z</time>
      </trkpt>
      <trkpt lat="43.07318333" lon="-4.16874">
        <ele>963.0</ele>
        <time>2018-05-19T12:48:46.882Z</time>
      </trkpt>
      <trkpt lat="43.07318333" lon="-4.16874">
        <ele>963.0</ele>
        <time>2018-05-19T12:48:47.848Z</time>
      </trkpt>
      <trkpt lat="43.07319333" lon="-4.168785">
        <ele>963.0</ele>
        <time>2018-05-19T12:48:48.863Z</time>
      </trkpt>
      <trkpt lat="43.07319333" lon="-4.168785">
        <ele>963.0</ele>
        <time>2018-05-19T12:48:49.870Z</time>
      </trkpt>
      <trkpt lat="43.07320667" lon="-4.16883667">
        <ele>963.0</ele>
        <time>2018-05-19T12:48:50.876Z</time>
      </trkpt>
      <trkpt lat="43.07321333" lon="-4.16886">
        <ele>964.0</ele>
        <time>2018-05-19T12:48:51.877Z</time>
      </trkpt>
      <trkpt lat="43.07321333" lon="-4.16886">
        <ele>964.0</ele>
        <time>2018-05-19T12:48:52.866Z</time>
      </trkpt>
      <trkpt lat="43.07322667" lon="-4.16891167">
        <ele>964.0</ele>
        <time>2018-05-19T12:48:53.877Z</time>
      </trkpt>
      <trkpt lat="43.07322667" lon="-4.16891167">
        <ele>964.0</ele>
        <time>2018-05-19T12:48:54.875Z</time>
      </trkpt>
      <trkpt lat="43.073235" lon="-4.16896167">
        <ele>965.0</ele>
        <time>2018-05-19T12:48:55.876Z</time>
      </trkpt>
      <trkpt lat="43.07324" lon="-4.16898667">
        <ele>965.0</ele>
        <time>2018-05-19T12:48:56.877Z</time>
      </trkpt>
      <trkpt lat="43.07324333" lon="-4.16901333">
        <ele>965.0</ele>
        <time>2018-05-19T12:48:57.877Z</time>
      </trkpt>
      <trkpt lat="43.07324333" lon="-4.16901333">
        <ele>965.0</ele>
        <time>2018-05-19T12:48:58.867Z</time>
      </trkpt>
      <trkpt lat="43.07325" lon="-4.16906333">
        <ele>966.0</ele>
        <time>2018-05-19T12:48:59.845Z</time>
      </trkpt>
      <trkpt lat="43.07325" lon="-4.16906333">
        <ele>966.0</ele>
        <time>2018-05-19T12:49:00.872Z</time>
      </trkpt>
      <trkpt lat="43.07325833" lon="-4.16911667">
        <ele>966.0</ele>
        <time>2018-05-19T12:49:01.875Z</time>
      </trkpt>
      <trkpt lat="43.07325833" lon="-4.16911667">
        <ele>966.0</ele>
        <time>2018-05-19T12:49:02.872Z</time>
      </trkpt>
      <trkpt lat="43.07326667" lon="-4.16917167">
        <ele>967.0</ele>
        <time>2018-05-19T12:49:03.878Z</time>
      </trkpt>
      <trkpt lat="43.07326667" lon="-4.16917167">
        <ele>967.0</ele>
        <time>2018-05-19T12:49:04.871Z</time>
      </trkpt>
      <trkpt lat="43.07327167" lon="-4.16922333">
        <ele>967.0</ele>
        <time>2018-05-19T12:49:05.865Z</time>
      </trkpt>
      <trkpt lat="43.07327333" lon="-4.16925167">
        <ele>968.0</ele>
        <time>2018-05-19T12:49:06.852Z</time>
      </trkpt>
      <trkpt lat="43.07327667" lon="-4.16927833">
        <ele>968.0</ele>
        <time>2018-05-19T12:49:07.876Z</time>
      </trkpt>
      <trkpt lat="43.07327833" lon="-4.169305">
        <ele>968.0</ele>
        <time>2018-05-19T12:49:08.879Z</time>
      </trkpt>
      <trkpt lat="43.07327833" lon="-4.169305">
        <ele>968.0</ele>
        <time>2018-05-19T12:49:09.866Z</time>
      </trkpt>
      <trkpt lat="43.07328" lon="-4.16935833">
        <ele>968.0</ele>
        <time>2018-05-19T12:49:10.876Z</time>
      </trkpt>
      <trkpt lat="43.07328333" lon="-4.16938333">
        <ele>969.0</ele>
        <time>2018-05-19T12:49:11.877Z</time>
      </trkpt>
      <trkpt lat="43.07328333" lon="-4.16938333">
        <ele>969.0</ele>
        <time>2018-05-19T12:49:12.866Z</time>
      </trkpt>
      <trkpt lat="43.07328667" lon="-4.16943333">
        <ele>969.0</ele>
        <time>2018-05-19T12:49:13.875Z</time>
      </trkpt>
      <trkpt lat="43.07328667" lon="-4.16943333">
        <ele>969.0</ele>
        <time>2018-05-19T12:49:14.872Z</time>
      </trkpt>
      <trkpt lat="43.07329" lon="-4.169485">
        <ele>970.0</ele>
        <time>2018-05-19T12:49:15.853Z</time>
      </trkpt>
      <trkpt lat="43.07329" lon="-4.169485">
        <ele>970.0</ele>
        <time>2018-05-19T12:49:16.844Z</time>
      </trkpt>
      <trkpt lat="43.07329333" lon="-4.16954333">
        <ele>970.0</ele>
        <time>2018-05-19T12:49:17.875Z</time>
      </trkpt>
      <trkpt lat="43.07329333" lon="-4.16954333">
        <ele>970.0</ele>
        <time>2018-05-19T12:49:18.878Z</time>
      </trkpt>
      <trkpt lat="43.0733" lon="-4.16959667">
        <ele>971.0</ele>
        <time>2018-05-19T12:49:19.875Z</time>
      </trkpt>
      <trkpt lat="43.0733" lon="-4.16959667">
        <ele>971.0</ele>
        <time>2018-05-19T12:49:20.876Z</time>
      </trkpt>
      <trkpt lat="43.0733" lon="-4.16964333">
        <ele>971.0</ele>
        <time>2018-05-19T12:49:21.874Z</time>
      </trkpt>
      <trkpt lat="43.0733" lon="-4.16964333">
        <ele>971.0</ele>
        <time>2018-05-19T12:49:22.874Z</time>
      </trkpt>
      <trkpt lat="43.07330667" lon="-4.16969333">
        <ele>972.0</ele>
        <time>2018-05-19T12:49:23.875Z</time>
      </trkpt>
      <trkpt lat="43.07330667" lon="-4.16969333">
        <ele>972.0</ele>
        <time>2018-05-19T12:49:24.873Z</time>
      </trkpt>
      <trkpt lat="43.07331167" lon="-4.16974167">
        <ele>972.0</ele>
        <time>2018-05-19T12:49:25.876Z</time>
      </trkpt>
      <trkpt lat="43.073315" lon="-4.16976167">
        <ele>972.0</ele>
        <time>2018-05-19T12:49:26.876Z</time>
      </trkpt>
      <trkpt lat="43.073315" lon="-4.16976167">
        <ele>972.0</ele>
        <time>2018-05-19T12:49:27.866Z</time>
      </trkpt>
      <trkpt lat="43.07332333" lon="-4.16979833">
        <ele>973.0</ele>
        <time>2018-05-19T12:49:28.879Z</time>
      </trkpt>
      <trkpt lat="43.07333333" lon="-4.16982">
        <ele>973.0</ele>
        <time>2018-05-19T12:49:29.877Z</time>
      </trkpt>
      <trkpt lat="43.07333333" lon="-4.16982">
        <ele>973.0</ele>
        <time>2018-05-19T12:49:30.875Z</time>
      </trkpt>
      <trkpt lat="43.07335833" lon="-4.169865">
        <ele>974.0</ele>
        <time>2018-05-19T12:49:31.875Z</time>
      </trkpt>
      <trkpt lat="43.07335833" lon="-4.169865">
        <ele>974.0</ele>
        <time>2018-05-19T12:49:32.870Z</time>
      </trkpt>
      <trkpt lat="43.073385" lon="-4.16990833">
        <ele>974.0</ele>
        <time>2018-05-19T12:49:33.877Z</time>
      </trkpt>
      <trkpt lat="43.073385" lon="-4.16990833">
        <ele>974.0</ele>
        <time>2018-05-19T12:49:34.865Z</time>
      </trkpt>
      <trkpt lat="43.07341" lon="-4.16995333">
        <ele>975.0</ele>
        <time>2018-05-19T12:49:35.876Z</time>
      </trkpt>
      <trkpt lat="43.07341" lon="-4.16995333">
        <ele>975.0</ele>
        <time>2018-05-19T12:49:36.872Z</time>
      </trkpt>
      <trkpt lat="43.073435" lon="-4.16999167">
        <ele>975.0</ele>
        <time>2018-05-19T12:49:37.875Z</time>
      </trkpt>
      <trkpt lat="43.073435" lon="-4.16999167">
        <ele>975.0</ele>
        <time>2018-05-19T12:49:38.873Z</time>
      </trkpt>
      <trkpt lat="43.073465" lon="-4.17003167">
        <ele>976.0</ele>
        <time>2018-05-19T12:49:39.877Z</time>
      </trkpt>
      <trkpt lat="43.073465" lon="-4.17003167">
        <ele>976.0</ele>
        <time>2018-05-19T12:49:40.875Z</time>
      </trkpt>
      <trkpt lat="43.07349667" lon="-4.170075">
        <ele>976.0</ele>
        <time>2018-05-19T12:49:41.876Z</time>
      </trkpt>
      <trkpt lat="43.07349667" lon="-4.170075">
        <ele>976.0</ele>
        <time>2018-05-19T12:49:42.875Z</time>
      </trkpt>
      <trkpt lat="43.07352" lon="-4.17012833">
        <ele>977.0</ele>
        <time>2018-05-19T12:49:43.876Z</time>
      </trkpt>
      <trkpt lat="43.07352" lon="-4.17012833">
        <ele>977.0</ele>
        <time>2018-05-19T12:49:44.870Z</time>
      </trkpt>
      <trkpt lat="43.07354333" lon="-4.17018667">
        <ele>977.0</ele>
        <time>2018-05-19T12:49:45.853Z</time>
      </trkpt>
      <trkpt lat="43.07355333" lon="-4.17021667">
        <ele>977.0</ele>
        <time>2018-05-19T12:49:46.875Z</time>
      </trkpt>
      <trkpt lat="43.07355333" lon="-4.17021667">
        <ele>977.0</ele>
        <time>2018-05-19T12:49:47.882Z</time>
      </trkpt>
      <trkpt lat="43.07357333" lon="-4.17028">
        <ele>978.0</ele>
        <time>2018-05-19T12:49:48.844Z</time>
      </trkpt>
      <trkpt lat="43.07357333" lon="-4.17028">
        <ele>978.0</ele>
        <time>2018-05-19T12:49:49.866Z</time>
      </trkpt>
      <trkpt lat="43.07359" lon="-4.17033833">
        <ele>978.0</ele>
        <time>2018-05-19T12:49:50.876Z</time>
      </trkpt>
      <trkpt lat="43.0736" lon="-4.17036667">
        <ele>978.0</ele>
        <time>2018-05-19T12:49:51.850Z</time>
      </trkpt>
      <trkpt lat="43.0736" lon="-4.17036667">
        <ele>978.0</ele>
        <time>2018-05-19T12:49:52.873Z</time>
      </trkpt>
      <trkpt lat="43.07362" lon="-4.17042833">
        <ele>979.0</ele>
        <time>2018-05-19T12:49:53.876Z</time>
      </trkpt>
      <trkpt lat="43.07362" lon="-4.17042833">
        <ele>979.0</ele>
        <time>2018-05-19T12:49:54.870Z</time>
      </trkpt>
      <trkpt lat="43.07364667" lon="-4.17048833">
        <ele>979.0</ele>
        <time>2018-05-19T12:49:55.874Z</time>
      </trkpt>
      <trkpt lat="43.07366" lon="-4.17051333">
        <ele>979.0</ele>
        <time>2018-05-19T12:49:56.875Z</time>
      </trkpt>
      <trkpt lat="43.07366" lon="-4.17051333">
        <ele>979.0</ele>
        <time>2018-05-19T12:49:57.866Z</time>
      </trkpt>
      <trkpt lat="43.07368167" lon="-4.17056">
        <ele>980.0</ele>
        <time>2018-05-19T12:49:58.879Z</time>
      </trkpt>
      <trkpt lat="43.07369" lon="-4.17058333">
        <ele>980.0</ele>
        <time>2018-05-19T12:49:59.875Z</time>
      </trkpt>
      <trkpt lat="43.07369" lon="-4.17058333">
        <ele>980.0</ele>
        <time>2018-05-19T12:50:00.873Z</time>
      </trkpt>
      <trkpt lat="43.07371167" lon="-4.17063167">
        <ele>981.0</ele>
        <time>2018-05-19T12:50:01.876Z</time>
      </trkpt>
      <trkpt lat="43.07372" lon="-4.17065667">
        <ele>981.0</ele>
        <time>2018-05-19T12:50:02.877Z</time>
      </trkpt>
      <trkpt lat="43.07372" lon="-4.17065667">
        <ele>981.0</ele>
        <time>2018-05-19T12:50:03.865Z</time>
      </trkpt>
      <trkpt lat="43.07373833" lon="-4.170705">
        <ele>982.0</ele>
        <time>2018-05-19T12:50:04.876Z</time>
      </trkpt>
      <trkpt lat="43.073745" lon="-4.17073">
        <ele>982.0</ele>
        <time>2018-05-19T12:50:05.846Z</time>
      </trkpt>
      <trkpt lat="43.073745" lon="-4.17073">
        <ele>982.0</ele>
        <time>2018-05-19T12:50:06.872Z</time>
      </trkpt>
      <trkpt lat="43.073755" lon="-4.17078167">
        <ele>982.0</ele>
        <time>2018-05-19T12:50:07.875Z</time>
      </trkpt>
      <trkpt lat="43.07375833" lon="-4.17080833">
        <ele>983.0</ele>
        <time>2018-05-19T12:50:08.879Z</time>
      </trkpt>
      <trkpt lat="43.07375833" lon="-4.17080833">
        <ele>983.0</ele>
        <time>2018-05-19T12:50:09.866Z</time>
      </trkpt>
      <trkpt lat="43.07376" lon="-4.17086">
        <ele>983.0</ele>
        <time>2018-05-19T12:50:10.877Z</time>
      </trkpt>
      <trkpt lat="43.07375667" lon="-4.17089">
        <ele>983.0</ele>
        <time>2018-05-19T12:50:11.877Z</time>
      </trkpt>
      <trkpt lat="43.07375667" lon="-4.17089">
        <ele>983.0</ele>
        <time>2018-05-19T12:50:12.870Z</time>
      </trkpt>
      <trkpt lat="43.07375333" lon="-4.17095167">
        <ele>983.0</ele>
        <time>2018-05-19T12:50:13.876Z</time>
      </trkpt>
      <trkpt lat="43.07375333" lon="-4.17095167">
        <ele>983.0</ele>
        <time>2018-05-19T12:50:14.865Z</time>
      </trkpt>
      <trkpt lat="43.07375" lon="-4.17100833">
        <ele>984.0</ele>
        <time>2018-05-19T12:50:15.855Z</time>
      </trkpt>
      <trkpt lat="43.07374833" lon="-4.17103667">
        <ele>984.0</ele>
        <time>2018-05-19T12:50:16.882Z</time>
      </trkpt>
      <trkpt lat="43.073745" lon="-4.171065">
        <ele>985.0</ele>
        <time>2018-05-19T12:50:17.877Z</time>
      </trkpt>
      <trkpt lat="43.073745" lon="-4.171065">
        <ele>985.0</ele>
        <time>2018-05-19T12:50:18.873Z</time>
      </trkpt>
      <trkpt lat="43.07375333" lon="-4.17111833">
        <ele>986.0</ele>
        <time>2018-05-19T12:50:19.875Z</time>
      </trkpt>
      <trkpt lat="43.07375333" lon="-4.17111833">
        <ele>986.0</ele>
        <time>2018-05-19T12:50:20.864Z</time>
      </trkpt>
      <trkpt lat="43.07377833" lon="-4.17115833">
        <ele>986.0</ele>
        <time>2018-05-19T12:50:21.876Z</time>
      </trkpt>
      <trkpt lat="43.07377833" lon="-4.17115833">
        <ele>986.0</ele>
        <time>2018-05-19T12:50:22.874Z</time>
      </trkpt>
      <trkpt lat="43.07380667" lon="-4.17118833">
        <ele>986.0</ele>
        <time>2018-05-19T12:50:23.876Z</time>
      </trkpt>
      <trkpt lat="43.07380667" lon="-4.17118833">
        <ele>986.0</ele>
        <time>2018-05-19T12:50:24.865Z</time>
      </trkpt>
      <trkpt lat="43.07384167" lon="-4.171195">
        <ele>987.0</ele>
        <time>2018-05-19T12:50:25.851Z</time>
      </trkpt>
      <trkpt lat="43.07384167" lon="-4.171195">
        <ele>987.0</ele>
        <time>2018-05-19T12:50:26.875Z</time>
      </trkpt>
      <trkpt lat="43.07387833" lon="-4.17117167">
        <ele>987.0</ele>
        <time>2018-05-19T12:50:27.876Z</time>
      </trkpt>
      <trkpt lat="43.07387833" lon="-4.17117167">
        <ele>987.0</ele>
        <time>2018-05-19T12:50:28.865Z</time>
      </trkpt>
      <trkpt lat="43.07390667" lon="-4.17114">
        <ele>987.0</ele>
        <time>2018-05-19T12:50:29.845Z</time>
      </trkpt>
      <trkpt lat="43.07390667" lon="-4.17114">
        <ele>987.0</ele>
        <time>2018-05-19T12:50:30.872Z</time>
      </trkpt>
      <trkpt lat="43.07393667" lon="-4.17111333">
        <ele>988.0</ele>
        <time>2018-05-19T12:50:31.875Z</time>
      </trkpt>
      <trkpt lat="43.07393667" lon="-4.17111333">
        <ele>988.0</ele>
        <time>2018-05-19T12:50:32.872Z</time>
      </trkpt>
      <trkpt lat="43.07397" lon="-4.17108333">
        <ele>988.0</ele>
        <time>2018-05-19T12:50:33.877Z</time>
      </trkpt>
      <trkpt lat="43.07397" lon="-4.17108333">
        <ele>988.0</ele>
        <time>2018-05-19T12:50:34.871Z</time>
      </trkpt>
      <trkpt lat="43.07399667" lon="-4.17103833">
        <ele>988.0</ele>
        <time>2018-05-19T12:50:35.877Z</time>
      </trkpt>
      <trkpt lat="43.07399667" lon="-4.17103833">
        <ele>988.0</ele>
        <time>2018-05-19T12:50:36.871Z</time>
      </trkpt>
      <trkpt lat="43.07402333" lon="-4.17100167">
        <ele>989.0</ele>
        <time>2018-05-19T12:50:37.876Z</time>
      </trkpt>
      <trkpt lat="43.07402333" lon="-4.17100167">
        <ele>989.0</ele>
        <time>2018-05-19T12:50:38.870Z</time>
      </trkpt>
      <trkpt lat="43.07404167" lon="-4.17095333">
        <ele>990.0</ele>
        <time>2018-05-19T12:50:39.876Z</time>
      </trkpt>
      <trkpt lat="43.07404167" lon="-4.17095333">
        <ele>990.0</ele>
        <time>2018-05-19T12:50:40.874Z</time>
      </trkpt>
      <trkpt lat="43.07406333" lon="-4.17091667">
        <ele>990.0</ele>
        <time>2018-05-19T12:50:41.876Z</time>
      </trkpt>
      <trkpt lat="43.074075" lon="-4.1709">
        <ele>990.0</ele>
        <time>2018-05-19T12:50:42.875Z</time>
      </trkpt>
      <trkpt lat="43.074075" lon="-4.1709">
        <ele>990.0</ele>
        <time>2018-05-19T12:50:43.870Z</time>
      </trkpt>
      <trkpt lat="43.0741" lon="-4.17086667">
        <ele>991.0</ele>
        <time>2018-05-19T12:50:44.875Z</time>
      </trkpt>
      <trkpt lat="43.0741" lon="-4.17086667">
        <ele>991.0</ele>
        <time>2018-05-19T12:50:45.859Z</time>
      </trkpt>
      <trkpt lat="43.07413" lon="-4.17084">
        <ele>991.0</ele>
        <time>2018-05-19T12:50:46.881Z</time>
      </trkpt>
      <trkpt lat="43.07414667" lon="-4.17083167">
        <ele>991.0</ele>
        <time>2018-05-19T12:50:47.850Z</time>
      </trkpt>
      <trkpt lat="43.07416" lon="-4.170825">
        <ele>991.0</ele>
        <time>2018-05-19T12:50:48.844Z</time>
      </trkpt>
      <trkpt lat="43.07416" lon="-4.170825">
        <ele>991.0</ele>
        <time>2018-05-19T12:50:49.872Z</time>
      </trkpt>
      <trkpt lat="43.07419167" lon="-4.17081333">
        <ele>992.0</ele>
        <time>2018-05-19T12:50:50.883Z</time>
      </trkpt>
      <trkpt lat="43.074205" lon="-4.17080667">
        <ele>992.0</ele>
        <time>2018-05-19T12:50:51.877Z</time>
      </trkpt>
      <trkpt lat="43.074205" lon="-4.17080667">
        <ele>992.0</ele>
        <time>2018-05-19T12:50:52.873Z</time>
      </trkpt>
      <trkpt lat="43.07423167" lon="-4.17079833">
        <ele>993.0</ele>
        <time>2018-05-19T12:50:53.876Z</time>
      </trkpt>
      <trkpt lat="43.07423167" lon="-4.17079833">
        <ele>993.0</ele>
        <time>2018-05-19T12:50:54.872Z</time>
      </trkpt>
      <trkpt lat="43.07427167" lon="-4.170795">
        <ele>993.0</ele>
        <time>2018-05-19T12:50:55.876Z</time>
      </trkpt>
      <trkpt lat="43.07427167" lon="-4.170795">
        <ele>993.0</ele>
        <time>2018-05-19T12:50:56.855Z</time>
      </trkpt>
      <trkpt lat="43.07431" lon="-4.17080833">
        <ele>993.0</ele>
        <time>2018-05-19T12:50:57.876Z</time>
      </trkpt>
      <trkpt lat="43.07431" lon="-4.17080833">
        <ele>993.0</ele>
        <time>2018-05-19T12:50:58.874Z</time>
      </trkpt>
      <trkpt lat="43.074345" lon="-4.170825">
        <ele>994.0</ele>
        <time>2018-05-19T12:50:59.876Z</time>
      </trkpt>
      <trkpt lat="43.074345" lon="-4.170825">
        <ele>994.0</ele>
        <time>2018-05-19T12:51:00.865Z</time>
      </trkpt>
      <trkpt lat="43.07437667" lon="-4.17085">
        <ele>994.0</ele>
        <time>2018-05-19T12:51:01.851Z</time>
      </trkpt>
      <trkpt lat="43.07439167" lon="-4.17085167">
        <ele>995.0</ele>
        <time>2018-05-19T12:51:02.876Z</time>
      </trkpt>
      <trkpt lat="43.07439167" lon="-4.17085167">
        <ele>995.0</ele>
        <time>2018-05-19T12:51:03.865Z</time>
      </trkpt>
      <trkpt lat="43.074425" lon="-4.17086833">
        <ele>996.0</ele>
        <time>2018-05-19T12:51:04.877Z</time>
      </trkpt>
      <trkpt lat="43.07444" lon="-4.17087667">
        <ele>996.0</ele>
        <time>2018-05-19T12:51:05.876Z</time>
      </trkpt>
      <trkpt lat="43.07444" lon="-4.17087667">
        <ele>996.0</ele>
        <time>2018-05-19T12:51:06.872Z</time>
      </trkpt>
      <trkpt lat="43.074475" lon="-4.17090167">
        <ele>997.0</ele>
        <time>2018-05-19T12:51:07.875Z</time>
      </trkpt>
      <trkpt lat="43.074475" lon="-4.17090167">
        <ele>997.0</ele>
        <time>2018-05-19T12:51:08.866Z</time>
      </trkpt>
      <trkpt lat="43.074515" lon="-4.17093333">
        <ele>998.0</ele>
        <time>2018-05-19T12:51:09.845Z</time>
      </trkpt>
      <trkpt lat="43.074515" lon="-4.17093333">
        <ele>998.0</ele>
        <time>2018-05-19T12:51:10.873Z</time>
      </trkpt>
      <trkpt lat="43.07455167" lon="-4.17096167">
        <ele>999.0</ele>
        <time>2018-05-19T12:51:11.876Z</time>
      </trkpt>
      <trkpt lat="43.07455167" lon="-4.17096167">
        <ele>999.0</ele>
        <time>2018-05-19T12:51:12.871Z</time>
      </trkpt>
      <trkpt lat="43.07458333" lon="-4.17099167">
        <ele>999.0</ele>
        <time>2018-05-19T12:51:13.877Z</time>
      </trkpt>
      <trkpt lat="43.07458333" lon="-4.17099167">
        <ele>999.0</ele>
        <time>2018-05-19T12:51:14.870Z</time>
      </trkpt>
      <trkpt lat="43.07461333" lon="-4.17101833">
        <ele>1000.0</ele>
        <time>2018-05-19T12:51:15.847Z</time>
      </trkpt>
      <trkpt lat="43.07462667" lon="-4.171035">
        <ele>1001.0</ele>
        <time>2018-05-19T12:51:16.876Z</time>
      </trkpt>
      <trkpt lat="43.07464" lon="-4.17105167">
        <ele>1001.0</ele>
        <time>2018-05-19T12:51:17.875Z</time>
      </trkpt>
      <trkpt lat="43.07464" lon="-4.17105167">
        <ele>1001.0</ele>
        <time>2018-05-19T12:51:18.869Z</time>
      </trkpt>
      <trkpt lat="43.07466167" lon="-4.17108667">
        <ele>1002.0</ele>
        <time>2018-05-19T12:51:19.875Z</time>
      </trkpt>
      <trkpt lat="43.07466167" lon="-4.17108667">
        <ele>1002.0</ele>
        <time>2018-05-19T12:51:20.855Z</time>
      </trkpt>
      <trkpt lat="43.07468333" lon="-4.17112333">
        <ele>1002.0</ele>
        <time>2018-05-19T12:51:21.845Z</time>
      </trkpt>
      <trkpt lat="43.07468333" lon="-4.17112333">
        <ele>1002.0</ele>
        <time>2018-05-19T12:51:22.872Z</time>
      </trkpt>
      <trkpt lat="43.07470333" lon="-4.17116333">
        <ele>1003.0</ele>
        <time>2018-05-19T12:51:23.876Z</time>
      </trkpt>
      <trkpt lat="43.07470833" lon="-4.171185">
        <ele>1003.0</ele>
        <time>2018-05-19T12:51:24.872Z</time>
      </trkpt>
      <trkpt lat="43.07470833" lon="-4.171185">
        <ele>1003.0</ele>
        <time>2018-05-19T12:51:25.869Z</time>
      </trkpt>
      <trkpt lat="43.07471667" lon="-4.17123167">
        <ele>1004.0</ele>
        <time>2018-05-19T12:51:26.875Z</time>
      </trkpt>
      <trkpt lat="43.07471667" lon="-4.17123167">
        <ele>1004.0</ele>
        <time>2018-05-19T12:51:27.865Z</time>
      </trkpt>
      <trkpt lat="43.07471667" lon="-4.17128">
        <ele>1004.0</ele>
        <time>2018-05-19T12:51:28.844Z</time>
      </trkpt>
      <trkpt lat="43.074715" lon="-4.171305">
        <ele>1004.0</ele>
        <time>2018-05-19T12:51:29.876Z</time>
      </trkpt>
      <trkpt lat="43.074715" lon="-4.171305">
        <ele>1004.0</ele>
        <time>2018-05-19T12:51:30.872Z</time>
      </trkpt>
      <trkpt lat="43.074705" lon="-4.171355">
        <ele>1004.0</ele>
        <time>2018-05-19T12:51:31.871Z</time>
      </trkpt>
      <trkpt lat="43.07469667" lon="-4.17137833">
        <ele>1004.0</ele>
        <time>2018-05-19T12:51:32.877Z</time>
      </trkpt>
      <trkpt lat="43.07469667" lon="-4.17137833">
        <ele>1004.0</ele>
        <time>2018-05-19T12:51:33.871Z</time>
      </trkpt>
      <trkpt lat="43.07467167" lon="-4.17141667">
        <ele>1005.0</ele>
        <time>2018-05-19T12:51:34.875Z</time>
      </trkpt>
      <trkpt lat="43.07467167" lon="-4.17141667">
        <ele>1005.0</ele>
        <time>2018-05-19T12:51:35.872Z</time>
      </trkpt>
      <trkpt lat="43.07464167" lon="-4.17144833">
        <ele>1005.0</ele>
        <time>2018-05-19T12:51:36.876Z</time>
      </trkpt>
      <trkpt lat="43.074625" lon="-4.17145833">
        <ele>1005.0</ele>
        <time>2018-05-19T12:51:37.872Z</time>
      </trkpt>
      <trkpt lat="43.07460833" lon="-4.17147">
        <ele>1005.0</ele>
        <time>2018-05-19T12:51:38.845Z</time>
      </trkpt>
      <trkpt lat="43.07460833" lon="-4.17147">
        <ele>1005.0</ele>
        <time>2018-05-19T12:51:39.873Z</time>
      </trkpt>
      <trkpt lat="43.07457833" lon="-4.17150833">
        <ele>1006.0</ele>
        <time>2018-05-19T12:51:40.873Z</time>
      </trkpt>
      <trkpt lat="43.07456" lon="-4.171525">
        <ele>1006.0</ele>
        <time>2018-05-19T12:51:41.875Z</time>
      </trkpt>
      <trkpt lat="43.07456" lon="-4.171525">
        <ele>1006.0</ele>
        <time>2018-05-19T12:51:42.869Z</time>
      </trkpt>
      <trkpt lat="43.07452833" lon="-4.171555">
        <ele>1007.0</ele>
        <time>2018-05-19T12:51:43.874Z</time>
      </trkpt>
      <trkpt lat="43.07452833" lon="-4.171555">
        <ele>1007.0</ele>
        <time>2018-05-19T12:51:44.872Z</time>
      </trkpt>
      <trkpt lat="43.0745" lon="-4.171595">
        <ele>1007.0</ele>
        <time>2018-05-19T12:51:45.857Z</time>
      </trkpt>
      <trkpt lat="43.0745" lon="-4.171595">
        <ele>1007.0</ele>
        <time>2018-05-19T12:51:46.876Z</time>
      </trkpt>
      <trkpt lat="43.07446667" lon="-4.17163667">
        <ele>1007.0</ele>
        <time>2018-05-19T12:51:47.882Z</time>
      </trkpt>
      <trkpt lat="43.07446667" lon="-4.17163667">
        <ele>1007.0</ele>
        <time>2018-05-19T12:51:48.850Z</time>
      </trkpt>
      <trkpt lat="43.07444167" lon="-4.17167667">
        <ele>1007.0</ele>
        <time>2018-05-19T12:51:49.859Z</time>
      </trkpt>
      <trkpt lat="43.07444167" lon="-4.17167667">
        <ele>1007.0</ele>
        <time>2018-05-19T12:51:50.866Z</time>
      </trkpt>
      <trkpt lat="43.074415" lon="-4.17171167">
        <ele>1007.0</ele>
        <time>2018-05-19T12:51:51.873Z</time>
      </trkpt>
      <trkpt lat="43.074415" lon="-4.17171167">
        <ele>1007.0</ele>
        <time>2018-05-19T12:51:52.881Z</time>
      </trkpt>
      <trkpt lat="43.07439167" lon="-4.17174667">
        <ele>1007.0</ele>
        <time>2018-05-19T12:51:53.875Z</time>
      </trkpt>
      <trkpt lat="43.07437833" lon="-4.17176333">
        <ele>1007.0</ele>
        <time>2018-05-19T12:51:54.875Z</time>
      </trkpt>
      <trkpt lat="43.07437833" lon="-4.17176333">
        <ele>1007.0</ele>
        <time>2018-05-19T12:51:55.864Z</time>
      </trkpt>
      <trkpt lat="43.07435833" lon="-4.171795">
        <ele>1007.0</ele>
        <time>2018-05-19T12:51:56.872Z</time>
      </trkpt>
      <trkpt lat="43.07435833" lon="-4.171795">
        <ele>1007.0</ele>
        <time>2018-05-19T12:51:57.874Z</time>
      </trkpt>
      <trkpt lat="43.07433" lon="-4.171825">
        <ele>1008.0</ele>
        <time>2018-05-19T12:51:58.874Z</time>
      </trkpt>
      <trkpt lat="43.07432333" lon="-4.171845">
        <ele>1008.0</ele>
        <time>2018-05-19T12:51:59.845Z</time>
      </trkpt>
      <trkpt lat="43.07432333" lon="-4.171845">
        <ele>1008.0</ele>
        <time>2018-05-19T12:52:00.873Z</time>
      </trkpt>
      <trkpt lat="43.07430333" lon="-4.17187667">
        <ele>1008.0</ele>
        <time>2018-05-19T12:52:01.875Z</time>
      </trkpt>
      <trkpt lat="43.07429333" lon="-4.171895">
        <ele>1009.0</ele>
        <time>2018-05-19T12:52:02.874Z</time>
      </trkpt>
      <trkpt lat="43.07429333" lon="-4.171895">
        <ele>1009.0</ele>
        <time>2018-05-19T12:52:03.869Z</time>
      </trkpt>
      <trkpt lat="43.07427333" lon="-4.17192667">
        <ele>1009.0</ele>
        <time>2018-05-19T12:52:04.875Z</time>
      </trkpt>
      <trkpt lat="43.07426" lon="-4.17194333">
        <ele>1009.0</ele>
        <time>2018-05-19T12:52:05.876Z</time>
      </trkpt>
      <trkpt lat="43.07426" lon="-4.17194333">
        <ele>1009.0</ele>
        <time>2018-05-19T12:52:06.872Z</time>
      </trkpt>
      <trkpt lat="43.07423" lon="-4.171975">
        <ele>1010.0</ele>
        <time>2018-05-19T12:52:07.874Z</time>
      </trkpt>
      <trkpt lat="43.074215" lon="-4.17199167">
        <ele>1010.0</ele>
        <time>2018-05-19T12:52:08.877Z</time>
      </trkpt>
      <trkpt lat="43.074215" lon="-4.17199167">
        <ele>1010.0</ele>
        <time>2018-05-19T12:52:09.873Z</time>
      </trkpt>
      <trkpt lat="43.07419333" lon="-4.17202333">
        <ele>1010.0</ele>
        <time>2018-05-19T12:52:10.875Z</time>
      </trkpt>
      <trkpt lat="43.07418167" lon="-4.172035">
        <ele>1010.0</ele>
        <time>2018-05-19T12:52:11.876Z</time>
      </trkpt>
      <trkpt lat="43.07418167" lon="-4.172035">
        <ele>1010.0</ele>
        <time>2018-05-19T12:52:12.871Z</time>
      </trkpt>
      <trkpt lat="43.074155" lon="-4.17208">
        <ele>1011.0</ele>
        <time>2018-05-19T12:52:13.874Z</time>
      </trkpt>
      <trkpt lat="43.07414333" lon="-4.172105">
        <ele>1011.0</ele>
        <time>2018-05-19T12:52:14.874Z</time>
      </trkpt>
      <trkpt lat="43.07414333" lon="-4.172105">
        <ele>1011.0</ele>
        <time>2018-05-19T12:52:15.865Z</time>
      </trkpt>
      <trkpt lat="43.07412" lon="-4.17214333">
        <ele>1012.0</ele>
        <time>2018-05-19T12:52:16.875Z</time>
      </trkpt>
      <trkpt lat="43.07412" lon="-4.17214333">
        <ele>1012.0</ele>
        <time>2018-05-19T12:52:17.864Z</time>
      </trkpt>
      <trkpt lat="43.07410667" lon="-4.17218333">
        <ele>1012.0</ele>
        <time>2018-05-19T12:52:18.871Z</time>
      </trkpt>
      <trkpt lat="43.07410667" lon="-4.17218333">
        <ele>1012.0</ele>
        <time>2018-05-19T12:52:19.872Z</time>
      </trkpt>
      <trkpt lat="43.07409333" lon="-4.17222333">
        <ele>1012.0</ele>
        <time>2018-05-19T12:52:20.874Z</time>
      </trkpt>
      <trkpt lat="43.07408667" lon="-4.172245">
        <ele>1013.0</ele>
        <time>2018-05-19T12:52:21.877Z</time>
      </trkpt>
      <trkpt lat="43.07408667" lon="-4.172245">
        <ele>1013.0</ele>
        <time>2018-05-19T12:52:22.857Z</time>
      </trkpt>
      <trkpt lat="43.07407667" lon="-4.17229333">
        <ele>1014.0</ele>
        <time>2018-05-19T12:52:23.876Z</time>
      </trkpt>
      <trkpt lat="43.07407667" lon="-4.17229333">
        <ele>1014.0</ele>
        <time>2018-05-19T12:52:24.871Z</time>
      </trkpt>
      <trkpt lat="43.07406833" lon="-4.17234667">
        <ele>1014.0</ele>
        <time>2018-05-19T12:52:25.860Z</time>
      </trkpt>
      <trkpt lat="43.07406167" lon="-4.17237">
        <ele>1015.0</ele>
        <time>2018-05-19T12:52:26.846Z</time>
      </trkpt>
      <trkpt lat="43.07406167" lon="-4.17237">
        <ele>1015.0</ele>
        <time>2018-05-19T12:52:27.873Z</time>
      </trkpt>
      <trkpt lat="43.07406" lon="-4.17241667">
        <ele>1015.0</ele>
        <time>2018-05-19T12:52:28.883Z</time>
      </trkpt>
      <trkpt lat="43.07405833" lon="-4.17244">
        <ele>1015.0</ele>
        <time>2018-05-19T12:52:29.874Z</time>
      </trkpt>
      <trkpt lat="43.07405833" lon="-4.17244">
        <ele>1015.0</ele>
        <time>2018-05-19T12:52:30.877Z</time>
      </trkpt>
      <trkpt lat="43.07405833" lon="-4.17249167">
        <ele>1016.0</ele>
        <time>2018-05-19T12:52:31.872Z</time>
      </trkpt>
      <trkpt lat="43.07405833" lon="-4.17249167">
        <ele>1016.0</ele>
        <time>2018-05-19T12:52:32.869Z</time>
      </trkpt>
      <trkpt lat="43.07406167" lon="-4.172545">
        <ele>1017.0</ele>
        <time>2018-05-19T12:52:33.876Z</time>
      </trkpt>
      <trkpt lat="43.07406167" lon="-4.172545">
        <ele>1017.0</ele>
        <time>2018-05-19T12:52:34.865Z</time>
      </trkpt>
      <trkpt lat="43.074065" lon="-4.17260167">
        <ele>1017.0</ele>
        <time>2018-05-19T12:52:35.875Z</time>
      </trkpt>
      <trkpt lat="43.074065" lon="-4.17260167">
        <ele>1017.0</ele>
        <time>2018-05-19T12:52:36.874Z</time>
      </trkpt>
      <trkpt lat="43.07407167" lon="-4.17264667">
        <ele>1017.0</ele>
        <time>2018-05-19T12:52:37.865Z</time>
      </trkpt>
      <trkpt lat="43.07407667" lon="-4.17266833">
        <ele>1017.0</ele>
        <time>2018-05-19T12:52:38.844Z</time>
      </trkpt>
      <trkpt lat="43.07408" lon="-4.17269">
        <ele>1018.0</ele>
        <time>2018-05-19T12:52:39.877Z</time>
      </trkpt>
      <trkpt lat="43.07408" lon="-4.17269">
        <ele>1018.0</ele>
        <time>2018-05-19T12:52:40.869Z</time>
      </trkpt>
      <trkpt lat="43.07409" lon="-4.17273667">
        <ele>1018.0</ele>
        <time>2018-05-19T12:52:41.875Z</time>
      </trkpt>
      <trkpt lat="43.07409" lon="-4.17273667">
        <ele>1018.0</ele>
        <time>2018-05-19T12:52:42.871Z</time>
      </trkpt>
      <trkpt lat="43.07411333" lon="-4.17278333">
        <ele>1019.0</ele>
        <time>2018-05-19T12:52:43.874Z</time>
      </trkpt>
      <trkpt lat="43.07411333" lon="-4.17278333">
        <ele>1019.0</ele>
        <time>2018-05-19T12:52:44.869Z</time>
      </trkpt>
      <trkpt lat="43.07412833" lon="-4.17283167">
        <ele>1019.0</ele>
        <time>2018-05-19T12:52:45.854Z</time>
      </trkpt>
      <trkpt lat="43.074135" lon="-4.172855">
        <ele>1020.0</ele>
        <time>2018-05-19T12:52:46.876Z</time>
      </trkpt>
      <trkpt lat="43.074135" lon="-4.172855">
        <ele>1020.0</ele>
        <time>2018-05-19T12:52:47.882Z</time>
      </trkpt>
      <trkpt lat="43.07415333" lon="-4.17290167">
        <ele>1020.0</ele>
        <time>2018-05-19T12:52:48.850Z</time>
      </trkpt>
      <trkpt lat="43.07415333" lon="-4.17290167">
        <ele>1020.0</ele>
        <time>2018-05-19T12:52:49.874Z</time>
      </trkpt>
      <trkpt lat="43.07417" lon="-4.172945">
        <ele>1021.0</ele>
        <time>2018-05-19T12:52:50.847Z</time>
      </trkpt>
      <trkpt lat="43.07417667" lon="-4.172965">
        <ele>1022.0</ele>
        <time>2018-05-19T12:52:51.876Z</time>
      </trkpt>
      <trkpt lat="43.07417667" lon="-4.172965">
        <ele>1022.0</ele>
        <time>2018-05-19T12:52:52.865Z</time>
      </trkpt>
      <trkpt lat="43.07418833" lon="-4.17301167">
        <ele>1022.0</ele>
        <time>2018-05-19T12:52:53.875Z</time>
      </trkpt>
      <trkpt lat="43.07418833" lon="-4.17301167">
        <ele>1022.0</ele>
        <time>2018-05-19T12:52:54.869Z</time>
      </trkpt>
      <trkpt lat="43.074205" lon="-4.17306">
        <ele>1023.0</ele>
        <time>2018-05-19T12:52:55.875Z</time>
      </trkpt>
      <trkpt lat="43.074205" lon="-4.17306">
        <ele>1023.0</ele>
        <time>2018-05-19T12:52:56.871Z</time>
      </trkpt>
      <trkpt lat="43.07421833" lon="-4.173105">
        <ele>1024.0</ele>
        <time>2018-05-19T12:52:57.859Z</time>
      </trkpt>
      <trkpt lat="43.07422333" lon="-4.17313">
        <ele>1024.0</ele>
        <time>2018-05-19T12:52:58.883Z</time>
      </trkpt>
      <trkpt lat="43.07423" lon="-4.173155">
        <ele>1024.0</ele>
        <time>2018-05-19T12:52:59.875Z</time>
      </trkpt>
      <trkpt lat="43.07423" lon="-4.173155">
        <ele>1024.0</ele>
        <time>2018-05-19T12:53:00.871Z</time>
      </trkpt>
      <trkpt lat="43.07424167" lon="-4.17320333">
        <ele>1024.0</ele>
        <time>2018-05-19T12:53:01.845Z</time>
      </trkpt>
      <trkpt lat="43.07424667" lon="-4.17322667">
        <ele>1025.0</ele>
        <time>2018-05-19T12:53:02.873Z</time>
      </trkpt>
      <trkpt lat="43.07424667" lon="-4.17322667">
        <ele>1025.0</ele>
        <time>2018-05-19T12:53:03.871Z</time>
      </trkpt>
      <trkpt lat="43.074255" lon="-4.17327667">
        <ele>1025.0</ele>
        <time>2018-05-19T12:53:04.874Z</time>
      </trkpt>
      <trkpt lat="43.07426167" lon="-4.17330333">
        <ele>1025.0</ele>
        <time>2018-05-19T12:53:05.876Z</time>
      </trkpt>
      <trkpt lat="43.07426167" lon="-4.17333333">
        <ele>1025.0</ele>
        <time>2018-05-19T12:53:06.876Z</time>
      </trkpt>
      <trkpt lat="43.07426167" lon="-4.17333333">
        <ele>1025.0</ele>
        <time>2018-05-19T12:53:07.869Z</time>
      </trkpt>
      <trkpt lat="43.07426" lon="-4.17337833">
        <ele>1026.0</ele>
        <time>2018-05-19T12:53:08.874Z</time>
      </trkpt>
      <trkpt lat="43.07425833" lon="-4.17339833">
        <ele>1026.0</ele>
        <time>2018-05-19T12:53:09.876Z</time>
      </trkpt>
      <trkpt lat="43.07425833" lon="-4.17339833">
        <ele>1026.0</ele>
        <time>2018-05-19T12:53:10.863Z</time>
      </trkpt>
      <trkpt lat="43.074255" lon="-4.17344667">
        <ele>1027.0</ele>
        <time>2018-05-19T12:53:11.874Z</time>
      </trkpt>
      <trkpt lat="43.074255" lon="-4.17344667">
        <ele>1027.0</ele>
        <time>2018-05-19T12:53:12.868Z</time>
      </trkpt>
      <trkpt lat="43.074245" lon="-4.17348667">
        <ele>1027.0</ele>
        <time>2018-05-19T12:53:13.874Z</time>
      </trkpt>
      <trkpt lat="43.074245" lon="-4.17348667">
        <ele>1027.0</ele>
        <time>2018-05-19T12:53:14.869Z</time>
      </trkpt>
      <trkpt lat="43.07423833" lon="-4.17353">
        <ele>1028.0</ele>
        <time>2018-05-19T12:53:15.850Z</time>
      </trkpt>
      <trkpt lat="43.07423833" lon="-4.17353">
        <ele>1028.0</ele>
        <time>2018-05-19T12:53:16.873Z</time>
      </trkpt>
      <trkpt lat="43.07423167" lon="-4.17357167">
        <ele>1029.0</ele>
        <time>2018-05-19T12:53:17.873Z</time>
      </trkpt>
      <trkpt lat="43.07422667" lon="-4.173595">
        <ele>1029.0</ele>
        <time>2018-05-19T12:53:18.878Z</time>
      </trkpt>
      <trkpt lat="43.07422667" lon="-4.173595">
        <ele>1029.0</ele>
        <time>2018-05-19T12:53:19.864Z</time>
      </trkpt>
      <trkpt lat="43.07422167" lon="-4.17364">
        <ele>1030.0</ele>
        <time>2018-05-19T12:53:20.852Z</time>
      </trkpt>
      <trkpt lat="43.07422167" lon="-4.17364">
        <ele>1030.0</ele>
        <time>2018-05-19T12:53:21.882Z</time>
      </trkpt>
      <trkpt lat="43.07421167" lon="-4.17368">
        <ele>1030.0</ele>
        <time>2018-05-19T12:53:22.848Z</time>
      </trkpt>
      <trkpt lat="43.07421167" lon="-4.17368">
        <ele>1030.0</ele>
        <time>2018-05-19T12:53:23.855Z</time>
      </trkpt>
      <trkpt lat="43.07420667" lon="-4.17373333">
        <ele>1031.0</ele>
        <time>2018-05-19T12:53:24.862Z</time>
      </trkpt>
      <trkpt lat="43.0742" lon="-4.17375333">
        <ele>1031.0</ele>
        <time>2018-05-19T12:53:25.871Z</time>
      </trkpt>
      <trkpt lat="43.0742" lon="-4.17375333">
        <ele>1031.0</ele>
        <time>2018-05-19T12:53:26.870Z</time>
      </trkpt>
      <trkpt lat="43.074195" lon="-4.17379667">
        <ele>1032.0</ele>
        <time>2018-05-19T12:53:27.874Z</time>
      </trkpt>
      <trkpt lat="43.074195" lon="-4.17379667">
        <ele>1032.0</ele>
        <time>2018-05-19T12:53:28.866Z</time>
      </trkpt>
      <trkpt lat="43.07419167" lon="-4.17384833">
        <ele>1033.0</ele>
        <time>2018-05-19T12:53:29.845Z</time>
      </trkpt>
      <trkpt lat="43.07419167" lon="-4.17384833">
        <ele>1033.0</ele>
        <time>2018-05-19T12:53:30.874Z</time>
      </trkpt>
      <trkpt lat="43.07419167" lon="-4.1739">
        <ele>1034.0</ele>
        <time>2018-05-19T12:53:31.874Z</time>
      </trkpt>
      <trkpt lat="43.07419167" lon="-4.1739">
        <ele>1034.0</ele>
        <time>2018-05-19T12:53:32.864Z</time>
      </trkpt>
      <trkpt lat="43.074185" lon="-4.17395">
        <ele>1034.0</ele>
        <time>2018-05-19T12:53:33.873Z</time>
      </trkpt>
      <trkpt lat="43.074185" lon="-4.17395">
        <ele>1034.0</ele>
        <time>2018-05-19T12:53:34.869Z</time>
      </trkpt>
      <trkpt lat="43.07417167" lon="-4.173995">
        <ele>1035.0</ele>
        <time>2018-05-19T12:53:35.873Z</time>
      </trkpt>
      <trkpt lat="43.07417333" lon="-4.17401167">
        <ele>1036.0</ele>
        <time>2018-05-19T12:53:36.871Z</time>
      </trkpt>
      <trkpt lat="43.07417333" lon="-4.17401167">
        <ele>1036.0</ele>
        <time>2018-05-19T12:53:37.864Z</time>
      </trkpt>
      <trkpt lat="43.07417" lon="-4.17404167">
        <ele>1037.0</ele>
        <time>2018-05-19T12:53:38.850Z</time>
      </trkpt>
      <trkpt lat="43.07416833" lon="-4.17405833">
        <ele>1037.0</ele>
        <time>2018-05-19T12:53:39.876Z</time>
      </trkpt>
      <trkpt lat="43.07416833" lon="-4.17405833">
        <ele>1037.0</ele>
        <time>2018-05-19T12:53:40.871Z</time>
      </trkpt>
      <trkpt lat="43.07416" lon="-4.17410833">
        <ele>1038.0</ele>
        <time>2018-05-19T12:53:41.876Z</time>
      </trkpt>
      <trkpt lat="43.07416" lon="-4.17410833">
        <ele>1038.0</ele>
        <time>2018-05-19T12:53:42.863Z</time>
      </trkpt>
      <trkpt lat="43.074145" lon="-4.17415167">
        <ele>1039.0</ele>
        <time>2018-05-19T12:53:43.871Z</time>
      </trkpt>
      <trkpt lat="43.074145" lon="-4.17415167">
        <ele>1039.0</ele>
        <time>2018-05-19T12:53:44.871Z</time>
      </trkpt>
      <trkpt lat="43.07412833" lon="-4.17419833">
        <ele>1040.0</ele>
        <time>2018-05-19T12:53:45.850Z</time>
      </trkpt>
      <trkpt lat="43.07412833" lon="-4.17419833">
        <ele>1040.0</ele>
        <time>2018-05-19T12:53:46.864Z</time>
      </trkpt>
      <trkpt lat="43.07411167" lon="-4.17425333">
        <ele>1040.0</ele>
        <time>2018-05-19T12:53:47.883Z</time>
      </trkpt>
      <trkpt lat="43.07411167" lon="-4.17425333">
        <ele>1040.0</ele>
        <time>2018-05-19T12:53:48.850Z</time>
      </trkpt>
      <trkpt lat="43.074095" lon="-4.17430667">
        <ele>1040.0</ele>
        <time>2018-05-19T12:53:49.864Z</time>
      </trkpt>
      <trkpt lat="43.07408833" lon="-4.17433167">
        <ele>1040.0</ele>
        <time>2018-05-19T12:53:50.875Z</time>
      </trkpt>
      <trkpt lat="43.07408833" lon="-4.17433167">
        <ele>1040.0</ele>
        <time>2018-05-19T12:53:51.871Z</time>
      </trkpt>
      <trkpt lat="43.07407333" lon="-4.17438667">
        <ele>1040.0</ele>
        <time>2018-05-19T12:53:52.871Z</time>
      </trkpt>
      <trkpt lat="43.07407333" lon="-4.17438667">
        <ele>1040.0</ele>
        <time>2018-05-19T12:53:53.861Z</time>
      </trkpt>
      <trkpt lat="43.07405333" lon="-4.17444">
        <ele>1040.0</ele>
        <time>2018-05-19T12:53:54.846Z</time>
      </trkpt>
      <trkpt lat="43.07405333" lon="-4.17444">
        <ele>1040.0</ele>
        <time>2018-05-19T12:53:55.872Z</time>
      </trkpt>
      <trkpt lat="43.07403667" lon="-4.17449">
        <ele>1039.0</ele>
        <time>2018-05-19T12:53:56.871Z</time>
      </trkpt>
      <trkpt lat="43.07402833" lon="-4.17451667">
        <ele>1039.0</ele>
        <time>2018-05-19T12:53:57.875Z</time>
      </trkpt>
      <trkpt lat="43.07402833" lon="-4.17451667">
        <ele>1039.0</ele>
        <time>2018-05-19T12:53:58.870Z</time>
      </trkpt>
      <trkpt lat="43.07401667" lon="-4.174565">
        <ele>1039.0</ele>
        <time>2018-05-19T12:53:59.875Z</time>
      </trkpt>
      <trkpt lat="43.07401667" lon="-4.174565">
        <ele>1039.0</ele>
        <time>2018-05-19T12:54:00.864Z</time>
      </trkpt>
      <trkpt lat="43.074" lon="-4.17461167">
        <ele>1039.0</ele>
        <time>2018-05-19T12:54:01.871Z</time>
      </trkpt>
      <trkpt lat="43.074" lon="-4.17461167">
        <ele>1039.0</ele>
        <time>2018-05-19T12:54:02.871Z</time>
      </trkpt>
      <trkpt lat="43.07398167" lon="-4.17465667">
        <ele>1039.0</ele>
        <time>2018-05-19T12:54:03.846Z</time>
      </trkpt>
      <trkpt lat="43.073975" lon="-4.17468">
        <ele>1039.0</ele>
        <time>2018-05-19T12:54:04.874Z</time>
      </trkpt>
      <trkpt lat="43.073975" lon="-4.17468">
        <ele>1039.0</ele>
        <time>2018-05-19T12:54:05.872Z</time>
      </trkpt>
      <trkpt lat="43.07396333" lon="-4.17472667">
        <ele>1039.0</ele>
        <time>2018-05-19T12:54:06.873Z</time>
      </trkpt>
      <trkpt lat="43.07396" lon="-4.174745">
        <ele>1040.0</ele>
        <time>2018-05-19T12:54:07.873Z</time>
      </trkpt>
      <trkpt lat="43.07396" lon="-4.174745">
        <ele>1040.0</ele>
        <time>2018-05-19T12:54:08.873Z</time>
      </trkpt>
      <trkpt lat="43.073945" lon="-4.17478333">
        <ele>1040.0</ele>
        <time>2018-05-19T12:54:09.873Z</time>
      </trkpt>
      <trkpt lat="43.073945" lon="-4.17478333">
        <ele>1040.0</ele>
        <time>2018-05-19T12:54:10.871Z</time>
      </trkpt>
      <trkpt lat="43.07393167" lon="-4.17482333">
        <ele>1040.0</ele>
        <time>2018-05-19T12:54:11.873Z</time>
      </trkpt>
      <trkpt lat="43.07393167" lon="-4.17482333">
        <ele>1040.0</ele>
        <time>2018-05-19T12:54:12.864Z</time>
      </trkpt>
      <trkpt lat="43.07391833" lon="-4.17486667">
        <ele>1041.0</ele>
        <time>2018-05-19T12:54:13.871Z</time>
      </trkpt>
      <trkpt lat="43.07391833" lon="-4.17486667">
        <ele>1041.0</ele>
        <time>2018-05-19T12:54:14.871Z</time>
      </trkpt>
      <trkpt lat="43.073905" lon="-4.17491167">
        <ele>1041.0</ele>
        <time>2018-05-19T12:54:15.864Z</time>
      </trkpt>
      <trkpt lat="43.073905" lon="-4.17491167">
        <ele>1041.0</ele>
        <time>2018-05-19T12:54:16.870Z</time>
      </trkpt>
      <trkpt lat="43.07389333" lon="-4.17495833">
        <ele>1041.0</ele>
        <time>2018-05-19T12:54:17.873Z</time>
      </trkpt>
      <trkpt lat="43.07389333" lon="-4.17495833">
        <ele>1041.0</ele>
        <time>2018-05-19T12:54:18.870Z</time>
      </trkpt>
      <trkpt lat="43.07388" lon="-4.17500167">
        <ele>1042.0</ele>
        <time>2018-05-19T12:54:19.873Z</time>
      </trkpt>
      <trkpt lat="43.07388" lon="-4.17500167">
        <ele>1042.0</ele>
        <time>2018-05-19T12:54:20.871Z</time>
      </trkpt>
      <trkpt lat="43.07386333" lon="-4.17504333">
        <ele>1042.0</ele>
        <time>2018-05-19T12:54:21.875Z</time>
      </trkpt>
      <trkpt lat="43.07385667" lon="-4.175065">
        <ele>1042.0</ele>
        <time>2018-05-19T12:54:22.873Z</time>
      </trkpt>
      <trkpt lat="43.07384833" lon="-4.175085">
        <ele>1042.0</ele>
        <time>2018-05-19T12:54:23.879Z</time>
      </trkpt>
      <trkpt lat="43.07384833" lon="-4.175085">
        <ele>1042.0</ele>
        <time>2018-05-19T12:54:24.858Z</time>
      </trkpt>
      <trkpt lat="43.07383833" lon="-4.17512833">
        <ele>1043.0</ele>
        <time>2018-05-19T12:54:25.868Z</time>
      </trkpt>
      <trkpt lat="43.07383833" lon="-4.17512833">
        <ele>1043.0</ele>
        <time>2018-05-19T12:54:26.874Z</time>
      </trkpt>
      <trkpt lat="43.073825" lon="-4.17517167">
        <ele>1043.0</ele>
        <time>2018-05-19T12:54:27.862Z</time>
      </trkpt>
      <trkpt lat="43.073825" lon="-4.17517167">
        <ele>1043.0</ele>
        <time>2018-05-19T12:54:28.859Z</time>
      </trkpt>
      <trkpt lat="43.07381" lon="-4.175215">
        <ele>1043.0</ele>
        <time>2018-05-19T12:54:29.883Z</time>
      </trkpt>
      <trkpt lat="43.07381" lon="-4.175215">
        <ele>1043.0</ele>
        <time>2018-05-19T12:54:30.881Z</time>
      </trkpt>
      <trkpt lat="43.073795" lon="-4.17525833">
        <ele>1044.0</ele>
        <time>2018-05-19T12:54:31.873Z</time>
      </trkpt>
      <trkpt lat="43.073795" lon="-4.17525833">
        <ele>1044.0</ele>
        <time>2018-05-19T12:54:32.864Z</time>
      </trkpt>
      <trkpt lat="43.07378167" lon="-4.17530167">
        <ele>1044.0</ele>
        <time>2018-05-19T12:54:33.872Z</time>
      </trkpt>
      <trkpt lat="43.07378167" lon="-4.17530167">
        <ele>1044.0</ele>
        <time>2018-05-19T12:54:34.871Z</time>
      </trkpt>
      <trkpt lat="43.07376833" lon="-4.175345">
        <ele>1044.0</ele>
        <time>2018-05-19T12:54:35.875Z</time>
      </trkpt>
      <trkpt lat="43.07376833" lon="-4.175345">
        <ele>1044.0</ele>
        <time>2018-05-19T12:54:36.863Z</time>
      </trkpt>
      <trkpt lat="43.07375167" lon="-4.17538667">
        <ele>1044.0</ele>
        <time>2018-05-19T12:54:37.875Z</time>
      </trkpt>
      <trkpt lat="43.07375167" lon="-4.17538667">
        <ele>1044.0</ele>
        <time>2018-05-19T12:54:38.862Z</time>
      </trkpt>
      <trkpt lat="43.07373333" lon="-4.17543167">
        <ele>1044.0</ele>
        <time>2018-05-19T12:54:39.846Z</time>
      </trkpt>
      <trkpt lat="43.07373333" lon="-4.17543167">
        <ele>1044.0</ele>
        <time>2018-05-19T12:54:40.871Z</time>
      </trkpt>
      <trkpt lat="43.07371667" lon="-4.17547167">
        <ele>1045.0</ele>
        <time>2018-05-19T12:54:41.873Z</time>
      </trkpt>
      <trkpt lat="43.07371667" lon="-4.17547167">
        <ele>1045.0</ele>
        <time>2018-05-19T12:54:42.870Z</time>
      </trkpt>
      <trkpt lat="43.07369833" lon="-4.17551167">
        <ele>1045.0</ele>
        <time>2018-05-19T12:54:43.873Z</time>
      </trkpt>
      <trkpt lat="43.07369833" lon="-4.17551167">
        <ele>1045.0</ele>
        <time>2018-05-19T12:54:44.871Z</time>
      </trkpt>
      <trkpt lat="43.07367167" lon="-4.17555333">
        <ele>1045.0</ele>
        <time>2018-05-19T12:54:45.852Z</time>
      </trkpt>
      <trkpt lat="43.07365833" lon="-4.17557333">
        <ele>1045.0</ele>
        <time>2018-05-19T12:54:46.871Z</time>
      </trkpt>
      <trkpt lat="43.07365833" lon="-4.17557333">
        <ele>1045.0</ele>
        <time>2018-05-19T12:54:47.877Z</time>
      </trkpt>
      <trkpt lat="43.07363333" lon="-4.17561167">
        <ele>1046.0</ele>
        <time>2018-05-19T12:54:48.869Z</time>
      </trkpt>
      <trkpt lat="43.07362167" lon="-4.17562667">
        <ele>1046.0</ele>
        <time>2018-05-19T12:54:49.873Z</time>
      </trkpt>
      <trkpt lat="43.07362167" lon="-4.17562667">
        <ele>1046.0</ele>
        <time>2018-05-19T12:54:50.864Z</time>
      </trkpt>
      <trkpt lat="43.07359333" lon="-4.17565167">
        <ele>1047.0</ele>
        <time>2018-05-19T12:54:51.872Z</time>
      </trkpt>
      <trkpt lat="43.07359333" lon="-4.17565167">
        <ele>1047.0</ele>
        <time>2018-05-19T12:54:52.871Z</time>
      </trkpt>
      <trkpt lat="43.07356333" lon="-4.17567833">
        <ele>1047.0</ele>
        <time>2018-05-19T12:54:53.844Z</time>
      </trkpt>
      <trkpt lat="43.07356333" lon="-4.17567833">
        <ele>1047.0</ele>
        <time>2018-05-19T12:54:54.869Z</time>
      </trkpt>
      <trkpt lat="43.07352333" lon="-4.17568833">
        <ele>1047.0</ele>
        <time>2018-05-19T12:54:55.871Z</time>
      </trkpt>
      <trkpt lat="43.07352333" lon="-4.17568833">
        <ele>1047.0</ele>
        <time>2018-05-19T12:54:56.870Z</time>
      </trkpt>
      <trkpt lat="43.07348833" lon="-4.17569">
        <ele>1048.0</ele>
        <time>2018-05-19T12:54:57.875Z</time>
      </trkpt>
      <trkpt lat="43.07348833" lon="-4.17569">
        <ele>1048.0</ele>
        <time>2018-05-19T12:54:58.871Z</time>
      </trkpt>
      <trkpt lat="43.073455" lon="-4.17568">
        <ele>1048.0</ele>
        <time>2018-05-19T12:54:59.874Z</time>
      </trkpt>
      <trkpt lat="43.073455" lon="-4.17568">
        <ele>1048.0</ele>
        <time>2018-05-19T12:55:00.870Z</time>
      </trkpt>
      <trkpt lat="43.07342167" lon="-4.17567333">
        <ele>1048.0</ele>
        <time>2018-05-19T12:55:01.873Z</time>
      </trkpt>
      <trkpt lat="43.07342167" lon="-4.17567333">
        <ele>1048.0</ele>
        <time>2018-05-19T12:55:02.870Z</time>
      </trkpt>
      <trkpt lat="43.07338833" lon="-4.17566333">
        <ele>1049.0</ele>
        <time>2018-05-19T12:55:03.876Z</time>
      </trkpt>
      <trkpt lat="43.07338833" lon="-4.17566333">
        <ele>1049.0</ele>
        <time>2018-05-19T12:55:04.871Z</time>
      </trkpt>
      <trkpt lat="43.07336" lon="-4.175645">
        <ele>1049.0</ele>
        <time>2018-05-19T12:55:05.873Z</time>
      </trkpt>
      <trkpt lat="43.073345" lon="-4.17564">
        <ele>1049.0</ele>
        <time>2018-05-19T12:55:06.873Z</time>
      </trkpt>
      <trkpt lat="43.07333167" lon="-4.17563333">
        <ele>1050.0</ele>
        <time>2018-05-19T12:55:07.874Z</time>
      </trkpt>
      <trkpt lat="43.07333167" lon="-4.17563333">
        <ele>1050.0</ele>
        <time>2018-05-19T12:55:08.865Z</time>
      </trkpt>
      <trkpt lat="43.07329" lon="-4.175615">
        <ele>1050.0</ele>
        <time>2018-05-19T12:55:09.844Z</time>
      </trkpt>
      <trkpt lat="43.07329" lon="-4.175615">
        <ele>1050.0</ele>
        <time>2018-05-19T12:55:10.871Z</time>
      </trkpt>
      <trkpt lat="43.073275" lon="-4.17560333">
        <ele>1051.0</ele>
        <time>2018-05-19T12:55:11.853Z</time>
      </trkpt>
      <trkpt lat="43.073275" lon="-4.17560333">
        <ele>1051.0</ele>
        <time>2018-05-19T12:55:12.872Z</time>
      </trkpt>
      <trkpt lat="43.07325333" lon="-4.17557">
        <ele>1052.0</ele>
        <time>2018-05-19T12:55:13.872Z</time>
      </trkpt>
      <trkpt lat="43.07325333" lon="-4.17557">
        <ele>1052.0</ele>
        <time>2018-05-19T12:55:14.871Z</time>
      </trkpt>
      <trkpt lat="43.07324833" lon="-4.17554833">
        <ele>1053.0</ele>
        <time>2018-05-19T12:55:15.853Z</time>
      </trkpt>
      <trkpt lat="43.07324833" lon="-4.17554833">
        <ele>1053.0</ele>
        <time>2018-05-19T12:55:16.847Z</time>
      </trkpt>
      <trkpt lat="43.07323" lon="-4.175515">
        <ele>1053.0</ele>
        <time>2018-05-19T12:55:17.873Z</time>
      </trkpt>
      <trkpt lat="43.07323" lon="-4.175515">
        <ele>1053.0</ele>
        <time>2018-05-19T12:55:18.869Z</time>
      </trkpt>
      <trkpt lat="43.07321833" lon="-4.17547333">
        <ele>1054.0</ele>
        <time>2018-05-19T12:55:19.848Z</time>
      </trkpt>
      <trkpt lat="43.07321833" lon="-4.17547333">
        <ele>1054.0</ele>
        <time>2018-05-19T12:55:20.874Z</time>
      </trkpt>
      <trkpt lat="43.073205" lon="-4.17543">
        <ele>1055.0</ele>
        <time>2018-05-19T12:55:21.875Z</time>
      </trkpt>
      <trkpt lat="43.073205" lon="-4.17543">
        <ele>1055.0</ele>
        <time>2018-05-19T12:55:22.859Z</time>
      </trkpt>
      <trkpt lat="43.07318667" lon="-4.175395">
        <ele>1055.0</ele>
        <time>2018-05-19T12:55:23.844Z</time>
      </trkpt>
      <trkpt lat="43.07318667" lon="-4.175395">
        <ele>1055.0</ele>
        <time>2018-05-19T12:55:24.871Z</time>
      </trkpt>
      <trkpt lat="43.07317" lon="-4.17536333">
        <ele>1056.0</ele>
        <time>2018-05-19T12:55:25.873Z</time>
      </trkpt>
      <trkpt lat="43.07317" lon="-4.17536333">
        <ele>1056.0</ele>
        <time>2018-05-19T12:55:26.870Z</time>
      </trkpt>
      <trkpt lat="43.07316" lon="-4.17533333">
        <ele>1057.0</ele>
        <time>2018-05-19T12:55:27.876Z</time>
      </trkpt>
      <trkpt lat="43.07315167" lon="-4.17531667">
        <ele>1058.0</ele>
        <time>2018-05-19T12:55:28.878Z</time>
      </trkpt>
      <trkpt lat="43.07315167" lon="-4.17531667">
        <ele>1058.0</ele>
        <time>2018-05-19T12:55:29.870Z</time>
      </trkpt>
      <trkpt lat="43.07313167" lon="-4.17528167">
        <ele>1059.0</ele>
        <time>2018-05-19T12:55:30.872Z</time>
      </trkpt>
      <trkpt lat="43.07312" lon="-4.17526167">
        <ele>1059.0</ele>
        <time>2018-05-19T12:55:31.871Z</time>
      </trkpt>
      <trkpt lat="43.07312" lon="-4.17526167">
        <ele>1059.0</ele>
        <time>2018-05-19T12:55:32.864Z</time>
      </trkpt>
      <trkpt lat="43.073105" lon="-4.17522">
        <ele>1059.0</ele>
        <time>2018-05-19T12:55:33.875Z</time>
      </trkpt>
      <trkpt lat="43.073105" lon="-4.17522">
        <ele>1059.0</ele>
        <time>2018-05-19T12:55:34.870Z</time>
      </trkpt>
      <trkpt lat="43.07308667" lon="-4.17518167">
        <ele>1060.0</ele>
        <time>2018-05-19T12:55:35.875Z</time>
      </trkpt>
      <trkpt lat="43.07308667" lon="-4.17518167">
        <ele>1060.0</ele>
        <time>2018-05-19T12:55:36.869Z</time>
      </trkpt>
      <trkpt lat="43.07304833" lon="-4.17514667">
        <ele>1060.0</ele>
        <time>2018-05-19T12:55:37.874Z</time>
      </trkpt>
      <trkpt lat="43.07304833" lon="-4.17514667">
        <ele>1060.0</ele>
        <time>2018-05-19T12:55:38.870Z</time>
      </trkpt>
      <trkpt lat="43.073015" lon="-4.175115">
        <ele>1060.0</ele>
        <time>2018-05-19T12:55:39.850Z</time>
      </trkpt>
      <trkpt lat="43.073015" lon="-4.175115">
        <ele>1060.0</ele>
        <time>2018-05-19T12:55:40.876Z</time>
      </trkpt>
      <trkpt lat="43.07295667" lon="-4.17508">
        <ele>1061.0</ele>
        <time>2018-05-19T12:55:41.872Z</time>
      </trkpt>
      <trkpt lat="43.07295667" lon="-4.17508">
        <ele>1061.0</ele>
        <time>2018-05-19T12:55:42.870Z</time>
      </trkpt>
      <trkpt lat="43.07292" lon="-4.17505">
        <ele>1061.0</ele>
        <time>2018-05-19T12:55:43.874Z</time>
      </trkpt>
      <trkpt lat="43.07290333" lon="-4.17504">
        <ele>1061.0</ele>
        <time>2018-05-19T12:55:44.874Z</time>
      </trkpt>
      <trkpt lat="43.07290333" lon="-4.17504">
        <ele>1061.0</ele>
        <time>2018-05-19T12:55:45.853Z</time>
      </trkpt>
      <trkpt lat="43.072865" lon="-4.17501833">
        <ele>1062.0</ele>
        <time>2018-05-19T12:55:46.864Z</time>
      </trkpt>
      <trkpt lat="43.072865" lon="-4.17501833">
        <ele>1062.0</ele>
        <time>2018-05-19T12:55:47.870Z</time>
      </trkpt>
      <trkpt lat="43.072825" lon="-4.17500167">
        <ele>1062.0</ele>
        <time>2018-05-19T12:55:48.859Z</time>
      </trkpt>
      <trkpt lat="43.072825" lon="-4.17500167">
        <ele>1062.0</ele>
        <time>2018-05-19T12:55:49.847Z</time>
      </trkpt>
      <trkpt lat="43.07278333" lon="-4.175">
        <ele>1063.0</ele>
        <time>2018-05-19T12:55:50.873Z</time>
      </trkpt>
      <trkpt lat="43.07276333" lon="-4.174995">
        <ele>1063.0</ele>
        <time>2018-05-19T12:55:51.877Z</time>
      </trkpt>
      <trkpt lat="43.07276333" lon="-4.174995">
        <ele>1063.0</ele>
        <time>2018-05-19T12:55:52.871Z</time>
      </trkpt>
      <trkpt lat="43.07272167" lon="-4.174995">
        <ele>1063.0</ele>
        <time>2018-05-19T12:55:53.874Z</time>
      </trkpt>
      <trkpt lat="43.07272167" lon="-4.174995">
        <ele>1063.0</ele>
        <time>2018-05-19T12:55:54.864Z</time>
      </trkpt>
      <trkpt lat="43.07268167" lon="-4.17499333">
        <ele>1064.0</ele>
        <time>2018-05-19T12:55:55.872Z</time>
      </trkpt>
      <trkpt lat="43.07266833" lon="-4.174995">
        <ele>1064.0</ele>
        <time>2018-05-19T12:55:56.874Z</time>
      </trkpt>
      <trkpt lat="43.07265333" lon="-4.17499833">
        <ele>1064.0</ele>
        <time>2018-05-19T12:55:57.872Z</time>
      </trkpt>
      <trkpt lat="43.07265333" lon="-4.17499833">
        <ele>1064.0</ele>
        <time>2018-05-19T12:55:58.865Z</time>
      </trkpt>
      <trkpt lat="43.07261667" lon="-4.17501">
        <ele>1065.0</ele>
        <time>2018-05-19T12:55:59.844Z</time>
      </trkpt>
      <trkpt lat="43.07261667" lon="-4.17501">
        <ele>1065.0</ele>
        <time>2018-05-19T12:56:00.873Z</time>
      </trkpt>
      <trkpt lat="43.07258333" lon="-4.17503167">
        <ele>1065.0</ele>
        <time>2018-05-19T12:56:01.872Z</time>
      </trkpt>
      <trkpt lat="43.07258333" lon="-4.17503167">
        <ele>1065.0</ele>
        <time>2018-05-19T12:56:02.864Z</time>
      </trkpt>
      <trkpt lat="43.07255167" lon="-4.17505667">
        <ele>1065.0</ele>
        <time>2018-05-19T12:56:03.875Z</time>
      </trkpt>
      <trkpt lat="43.07255167" lon="-4.17505667">
        <ele>1065.0</ele>
        <time>2018-05-19T12:56:04.870Z</time>
      </trkpt>
      <trkpt lat="43.07252167" lon="-4.17508667">
        <ele>1065.0</ele>
        <time>2018-05-19T12:56:05.872Z</time>
      </trkpt>
      <trkpt lat="43.07252167" lon="-4.17508667">
        <ele>1065.0</ele>
        <time>2018-05-19T12:56:06.869Z</time>
      </trkpt>
      <trkpt lat="43.072495" lon="-4.17511333">
        <ele>1065.0</ele>
        <time>2018-05-19T12:56:07.872Z</time>
      </trkpt>
      <trkpt lat="43.072495" lon="-4.17511333">
        <ele>1065.0</ele>
        <time>2018-05-19T12:56:08.870Z</time>
      </trkpt>
      <trkpt lat="43.07247167" lon="-4.175145">
        <ele>1065.0</ele>
        <time>2018-05-19T12:56:09.850Z</time>
      </trkpt>
      <trkpt lat="43.07247167" lon="-4.175145">
        <ele>1065.0</ele>
        <time>2018-05-19T12:56:10.877Z</time>
      </trkpt>
      <trkpt lat="43.072455" lon="-4.17519167">
        <ele>1064.0</ele>
        <time>2018-05-19T12:56:11.874Z</time>
      </trkpt>
      <trkpt lat="43.072455" lon="-4.17519167">
        <ele>1064.0</ele>
        <time>2018-05-19T12:56:12.870Z</time>
      </trkpt>
      <trkpt lat="43.07242667" lon="-4.175235">
        <ele>1064.0</ele>
        <time>2018-05-19T12:56:13.866Z</time>
      </trkpt>
      <trkpt lat="43.07241833" lon="-4.17525167">
        <ele>1063.0</ele>
        <time>2018-05-19T12:56:14.873Z</time>
      </trkpt>
      <trkpt lat="43.07241833" lon="-4.17525167">
        <ele>1063.0</ele>
        <time>2018-05-19T12:56:15.864Z</time>
      </trkpt>
      <trkpt lat="43.0724" lon="-4.17528833">
        <ele>1063.0</ele>
        <time>2018-05-19T12:56:16.856Z</time>
      </trkpt>
      <trkpt lat="43.07239167" lon="-4.17530667">
        <ele>1063.0</ele>
        <time>2018-05-19T12:56:17.880Z</time>
      </trkpt>
      <trkpt lat="43.07239167" lon="-4.17530667">
        <ele>1063.0</ele>
        <time>2018-05-19T12:56:18.869Z</time>
      </trkpt>
      <trkpt lat="43.072375" lon="-4.17534167">
        <ele>1062.0</ele>
        <time>2018-05-19T12:56:19.861Z</time>
      </trkpt>
      <trkpt lat="43.07236667" lon="-4.17535667">
        <ele>1062.0</ele>
        <time>2018-05-19T12:56:20.848Z</time>
      </trkpt>
      <trkpt lat="43.07235833" lon="-4.17537333">
        <ele>1062.0</ele>
        <time>2018-05-19T12:56:21.854Z</time>
      </trkpt>
      <trkpt lat="43.07235833" lon="-4.17537333">
        <ele>1062.0</ele>
        <time>2018-05-19T12:56:22.864Z</time>
      </trkpt>
      <trkpt lat="43.07234667" lon="-4.17541333">
        <ele>1062.0</ele>
        <time>2018-05-19T12:56:23.875Z</time>
      </trkpt>
      <trkpt lat="43.07234667" lon="-4.17541333">
        <ele>1062.0</ele>
        <time>2018-05-19T12:56:24.881Z</time>
      </trkpt>
      <trkpt lat="43.07232667" lon="-4.17544667">
        <ele>1062.0</ele>
        <time>2018-05-19T12:56:25.874Z</time>
      </trkpt>
      <trkpt lat="43.07232" lon="-4.17547">
        <ele>1062.0</ele>
        <time>2018-05-19T12:56:26.872Z</time>
      </trkpt>
      <trkpt lat="43.07231167" lon="-4.17549167">
        <ele>1062.0</ele>
        <time>2018-05-19T12:56:27.874Z</time>
      </trkpt>
      <trkpt lat="43.07231167" lon="-4.17549167">
        <ele>1062.0</ele>
        <time>2018-05-19T12:56:28.870Z</time>
      </trkpt>
      <trkpt lat="43.07229167" lon="-4.175535">
        <ele>1062.0</ele>
        <time>2018-05-19T12:56:29.861Z</time>
      </trkpt>
      <trkpt lat="43.07228333" lon="-4.17555667">
        <ele>1062.0</ele>
        <time>2018-05-19T12:56:30.873Z</time>
      </trkpt>
      <trkpt lat="43.07228333" lon="-4.17555667">
        <ele>1062.0</ele>
        <time>2018-05-19T12:56:31.864Z</time>
      </trkpt>
      <trkpt lat="43.07227" lon="-4.1756">
        <ele>1062.0</ele>
        <time>2018-05-19T12:56:32.872Z</time>
      </trkpt>
      <trkpt lat="43.07225833" lon="-4.17562">
        <ele>1062.0</ele>
        <time>2018-05-19T12:56:33.876Z</time>
      </trkpt>
      <trkpt lat="43.07225833" lon="-4.17562">
        <ele>1062.0</ele>
        <time>2018-05-19T12:56:34.864Z</time>
      </trkpt>
      <trkpt lat="43.07224333" lon="-4.17566">
        <ele>1062.0</ele>
        <time>2018-05-19T12:56:35.872Z</time>
      </trkpt>
      <trkpt lat="43.07224333" lon="-4.17566">
        <ele>1062.0</ele>
        <time>2018-05-19T12:56:36.870Z</time>
      </trkpt>
      <trkpt lat="43.07222167" lon="-4.17569667">
        <ele>1062.0</ele>
        <time>2018-05-19T12:56:37.866Z</time>
      </trkpt>
      <trkpt lat="43.07221167" lon="-4.175715">
        <ele>1062.0</ele>
        <time>2018-05-19T12:56:38.879Z</time>
      </trkpt>
      <trkpt lat="43.07221167" lon="-4.175715">
        <ele>1062.0</ele>
        <time>2018-05-19T12:56:39.848Z</time>
      </trkpt>
      <trkpt lat="43.07219" lon="-4.17574667">
        <ele>1062.0</ele>
        <time>2018-05-19T12:56:40.874Z</time>
      </trkpt>
      <trkpt lat="43.07217667" lon="-4.17576333">
        <ele>1063.0</ele>
        <time>2018-05-19T12:56:41.873Z</time>
      </trkpt>
      <trkpt lat="43.07217667" lon="-4.17576333">
        <ele>1063.0</ele>
        <time>2018-05-19T12:56:42.863Z</time>
      </trkpt>
      <trkpt lat="43.07216167" lon="-4.17579833">
        <ele>1063.0</ele>
        <time>2018-05-19T12:56:43.872Z</time>
      </trkpt>
      <trkpt lat="43.07216167" lon="-4.17579833">
        <ele>1063.0</ele>
        <time>2018-05-19T12:56:44.870Z</time>
      </trkpt>
      <trkpt lat="43.072145" lon="-4.17583333">
        <ele>1064.0</ele>
        <time>2018-05-19T12:56:45.856Z</time>
      </trkpt>
      <trkpt lat="43.072145" lon="-4.17583333">
        <ele>1064.0</ele>
        <time>2018-05-19T12:56:46.857Z</time>
      </trkpt>
      <trkpt lat="43.072125" lon="-4.17586667">
        <ele>1064.0</ele>
        <time>2018-05-19T12:56:47.867Z</time>
      </trkpt>
      <trkpt lat="43.07211667" lon="-4.17588333">
        <ele>1064.0</ele>
        <time>2018-05-19T12:56:48.873Z</time>
      </trkpt>
      <trkpt lat="43.07211667" lon="-4.17588333">
        <ele>1064.0</ele>
        <time>2018-05-19T12:56:49.879Z</time>
      </trkpt>
      <trkpt lat="43.07209667" lon="-4.175915">
        <ele>1065.0</ele>
        <time>2018-05-19T12:56:50.844Z</time>
      </trkpt>
      <trkpt lat="43.07208833" lon="-4.17593333">
        <ele>1065.0</ele>
        <time>2018-05-19T12:56:51.872Z</time>
      </trkpt>
      <trkpt lat="43.07208833" lon="-4.17593333">
        <ele>1065.0</ele>
        <time>2018-05-19T12:56:52.864Z</time>
      </trkpt>
      <trkpt lat="43.07206667" lon="-4.17596667">
        <ele>1066.0</ele>
        <time>2018-05-19T12:56:53.873Z</time>
      </trkpt>
      <trkpt lat="43.07206667" lon="-4.17596667">
        <ele>1066.0</ele>
        <time>2018-05-19T12:56:54.862Z</time>
      </trkpt>
      <trkpt lat="43.072055" lon="-4.176">
        <ele>1066.0</ele>
        <time>2018-05-19T12:56:55.873Z</time>
      </trkpt>
      <trkpt lat="43.072055" lon="-4.176">
        <ele>1066.0</ele>
        <time>2018-05-19T12:56:56.864Z</time>
      </trkpt>
      <trkpt lat="43.07203167" lon="-4.17603">
        <ele>1067.0</ele>
        <time>2018-05-19T12:56:57.874Z</time>
      </trkpt>
      <trkpt lat="43.07203167" lon="-4.17603">
        <ele>1067.0</ele>
        <time>2018-05-19T12:56:58.870Z</time>
      </trkpt>
      <trkpt lat="43.07201333" lon="-4.17606333">
        <ele>1068.0</ele>
        <time>2018-05-19T12:56:59.874Z</time>
      </trkpt>
      <trkpt lat="43.07201333" lon="-4.17606333">
        <ele>1068.0</ele>
        <time>2018-05-19T12:57:00.877Z</time>
      </trkpt>
      <trkpt lat="43.07199167" lon="-4.17609833">
        <ele>1069.0</ele>
        <time>2018-05-19T12:57:01.872Z</time>
      </trkpt>
      <trkpt lat="43.07199167" lon="-4.17609833">
        <ele>1069.0</ele>
        <time>2018-05-19T12:57:02.870Z</time>
      </trkpt>
      <trkpt lat="43.07197" lon="-4.17613167">
        <ele>1069.0</ele>
        <time>2018-05-19T12:57:03.875Z</time>
      </trkpt>
      <trkpt lat="43.07197" lon="-4.17613167">
        <ele>1069.0</ele>
        <time>2018-05-19T12:57:04.869Z</time>
      </trkpt>
      <trkpt lat="43.07195333" lon="-4.176165">
        <ele>1070.0</ele>
        <time>2018-05-19T12:57:05.872Z</time>
      </trkpt>
      <trkpt lat="43.07195333" lon="-4.176165">
        <ele>1070.0</ele>
        <time>2018-05-19T12:57:06.870Z</time>
      </trkpt>
      <trkpt lat="43.07193167" lon="-4.17618833">
        <ele>1071.0</ele>
        <time>2018-05-19T12:57:07.872Z</time>
      </trkpt>
      <trkpt lat="43.07192333" lon="-4.17620833">
        <ele>1071.0</ele>
        <time>2018-05-19T12:57:08.873Z</time>
      </trkpt>
      <trkpt lat="43.07192333" lon="-4.17620833">
        <ele>1071.0</ele>
        <time>2018-05-19T12:57:09.872Z</time>
      </trkpt>
      <trkpt lat="43.07189667" lon="-4.17625667">
        <ele>1072.0</ele>
        <time>2018-05-19T12:57:10.871Z</time>
      </trkpt>
      <trkpt lat="43.07188833" lon="-4.17627833">
        <ele>1073.0</ele>
        <time>2018-05-19T12:57:11.874Z</time>
      </trkpt>
      <trkpt lat="43.07188833" lon="-4.17627833">
        <ele>1073.0</ele>
        <time>2018-05-19T12:57:12.870Z</time>
      </trkpt>
      <trkpt lat="43.07187833" lon="-4.176315">
        <ele>1074.0</ele>
        <time>2018-05-19T12:57:13.872Z</time>
      </trkpt>
      <trkpt lat="43.07187833" lon="-4.176315">
        <ele>1074.0</ele>
        <time>2018-05-19T12:57:14.869Z</time>
      </trkpt>
      <trkpt lat="43.07187" lon="-4.17635667">
        <ele>1075.0</ele>
        <time>2018-05-19T12:57:15.870Z</time>
      </trkpt>
      <trkpt lat="43.07187" lon="-4.17635667">
        <ele>1075.0</ele>
        <time>2018-05-19T12:57:16.869Z</time>
      </trkpt>
      <trkpt lat="43.07184333" lon="-4.17639833">
        <ele>1076.0</ele>
        <time>2018-05-19T12:57:17.874Z</time>
      </trkpt>
      <trkpt lat="43.07184333" lon="-4.17639833">
        <ele>1076.0</ele>
        <time>2018-05-19T12:57:18.864Z</time>
      </trkpt>
      <trkpt lat="43.07182333" lon="-4.17645">
        <ele>1076.0</ele>
        <time>2018-05-19T12:57:19.881Z</time>
      </trkpt>
      <trkpt lat="43.07182333" lon="-4.17645">
        <ele>1076.0</ele>
        <time>2018-05-19T12:57:20.863Z</time>
      </trkpt>
      <trkpt lat="43.07180167" lon="-4.17649167">
        <ele>1077.0</ele>
        <time>2018-05-19T12:57:21.871Z</time>
      </trkpt>
      <trkpt lat="43.07180167" lon="-4.17649167">
        <ele>1077.0</ele>
        <time>2018-05-19T12:57:22.862Z</time>
      </trkpt>
      <trkpt lat="43.07178167" lon="-4.17653667">
        <ele>1078.0</ele>
        <time>2018-05-19T12:57:23.882Z</time>
      </trkpt>
      <trkpt lat="43.07178167" lon="-4.17653667">
        <ele>1078.0</ele>
        <time>2018-05-19T12:57:24.869Z</time>
      </trkpt>
      <trkpt lat="43.07176333" lon="-4.176575">
        <ele>1079.0</ele>
        <time>2018-05-19T12:57:25.872Z</time>
      </trkpt>
      <trkpt lat="43.07176333" lon="-4.176575">
        <ele>1079.0</ele>
        <time>2018-05-19T12:57:26.870Z</time>
      </trkpt>
      <trkpt lat="43.071745" lon="-4.17660833">
        <ele>1080.0</ele>
        <time>2018-05-19T12:57:27.872Z</time>
      </trkpt>
      <trkpt lat="43.071745" lon="-4.17660833">
        <ele>1080.0</ele>
        <time>2018-05-19T12:57:28.864Z</time>
      </trkpt>
      <trkpt lat="43.07172667" lon="-4.17664333">
        <ele>1081.0</ele>
        <time>2018-05-19T12:57:29.873Z</time>
      </trkpt>
      <trkpt lat="43.07172667" lon="-4.17664333">
        <ele>1081.0</ele>
        <time>2018-05-19T12:57:30.869Z</time>
      </trkpt>
      <trkpt lat="43.07171" lon="-4.17667667">
        <ele>1082.0</ele>
        <time>2018-05-19T12:57:31.873Z</time>
      </trkpt>
      <trkpt lat="43.07171" lon="-4.17667667">
        <ele>1082.0</ele>
        <time>2018-05-19T12:57:32.870Z</time>
      </trkpt>
      <trkpt lat="43.07168667" lon="-4.17671167">
        <ele>1083.0</ele>
        <time>2018-05-19T12:57:33.875Z</time>
      </trkpt>
      <trkpt lat="43.07168667" lon="-4.17671167">
        <ele>1083.0</ele>
        <time>2018-05-19T12:57:34.863Z</time>
      </trkpt>
      <trkpt lat="43.07167" lon="-4.17676333">
        <ele>1084.0</ele>
        <time>2018-05-19T12:57:35.849Z</time>
      </trkpt>
      <trkpt lat="43.07167" lon="-4.17676333">
        <ele>1084.0</ele>
        <time>2018-05-19T12:57:36.872Z</time>
      </trkpt>
      <trkpt lat="43.07164" lon="-4.17680167">
        <ele>1085.0</ele>
        <time>2018-05-19T12:57:37.872Z</time>
      </trkpt>
      <trkpt lat="43.07164" lon="-4.17680167">
        <ele>1085.0</ele>
        <time>2018-05-19T12:57:38.864Z</time>
      </trkpt>
      <trkpt lat="43.07161" lon="-4.17683833">
        <ele>1087.0</ele>
        <time>2018-05-19T12:57:39.884Z</time>
      </trkpt>
      <trkpt lat="43.07161" lon="-4.17683833">
        <ele>1087.0</ele>
        <time>2018-05-19T12:57:40.869Z</time>
      </trkpt>
      <trkpt lat="43.07159333" lon="-4.17688">
        <ele>1088.0</ele>
        <time>2018-05-19T12:57:41.873Z</time>
      </trkpt>
      <trkpt lat="43.07159333" lon="-4.17688">
        <ele>1088.0</ele>
        <time>2018-05-19T12:57:42.863Z</time>
      </trkpt>
      <trkpt lat="43.07158" lon="-4.17692833">
        <ele>1088.0</ele>
        <time>2018-05-19T12:57:43.872Z</time>
      </trkpt>
      <trkpt lat="43.07158" lon="-4.17692833">
        <ele>1088.0</ele>
        <time>2018-05-19T12:57:44.862Z</time>
      </trkpt>
      <trkpt lat="43.07157333" lon="-4.176985">
        <ele>1089.0</ele>
        <time>2018-05-19T12:57:45.862Z</time>
      </trkpt>
      <trkpt lat="43.07156833" lon="-4.17701667">
        <ele>1090.0</ele>
        <time>2018-05-19T12:57:46.877Z</time>
      </trkpt>
      <trkpt lat="43.07156833" lon="-4.17701667">
        <ele>1090.0</ele>
        <time>2018-05-19T12:57:47.883Z</time>
      </trkpt>
      <trkpt lat="43.07155333" lon="-4.177065">
        <ele>1091.0</ele>
        <time>2018-05-19T12:57:48.872Z</time>
      </trkpt>
      <trkpt lat="43.07155333" lon="-4.177065">
        <ele>1091.0</ele>
        <time>2018-05-19T12:57:49.862Z</time>
      </trkpt>
      <trkpt lat="43.07155167" lon="-4.17711667">
        <ele>1092.0</ele>
        <time>2018-05-19T12:57:50.847Z</time>
      </trkpt>
      <trkpt lat="43.07155167" lon="-4.17711667">
        <ele>1092.0</ele>
        <time>2018-05-19T12:57:51.872Z</time>
      </trkpt>
      <trkpt lat="43.07155167" lon="-4.17716667">
        <ele>1092.0</ele>
        <time>2018-05-19T12:57:52.872Z</time>
      </trkpt>
      <trkpt lat="43.071555" lon="-4.177195">
        <ele>1093.0</ele>
        <time>2018-05-19T12:57:53.874Z</time>
      </trkpt>
      <trkpt lat="43.071555" lon="-4.177195">
        <ele>1093.0</ele>
        <time>2018-05-19T12:57:54.862Z</time>
      </trkpt>
      <trkpt lat="43.07156" lon="-4.17725">
        <ele>1092.0</ele>
        <time>2018-05-19T12:57:55.848Z</time>
      </trkpt>
      <trkpt lat="43.07156" lon="-4.17725">
        <ele>1092.0</ele>
        <time>2018-05-19T12:57:56.873Z</time>
      </trkpt>
      <trkpt lat="43.07155667" lon="-4.177305">
        <ele>1092.0</ele>
        <time>2018-05-19T12:57:57.872Z</time>
      </trkpt>
      <trkpt lat="43.07155667" lon="-4.177305">
        <ele>1092.0</ele>
        <time>2018-05-19T12:57:58.862Z</time>
      </trkpt>
      <trkpt lat="43.07154667" lon="-4.177355">
        <ele>1092.0</ele>
        <time>2018-05-19T12:57:59.881Z</time>
      </trkpt>
      <trkpt lat="43.07154667" lon="-4.177355">
        <ele>1092.0</ele>
        <time>2018-05-19T12:58:00.870Z</time>
      </trkpt>
      <trkpt lat="43.07152833" lon="-4.17739333">
        <ele>1092.0</ele>
        <time>2018-05-19T12:58:01.872Z</time>
      </trkpt>
      <trkpt lat="43.07152833" lon="-4.17739333">
        <ele>1092.0</ele>
        <time>2018-05-19T12:58:02.869Z</time>
      </trkpt>
      <trkpt lat="43.07150333" lon="-4.17742333">
        <ele>1092.0</ele>
        <time>2018-05-19T12:58:03.872Z</time>
      </trkpt>
      <trkpt lat="43.07150333" lon="-4.17742333">
        <ele>1092.0</ele>
        <time>2018-05-19T12:58:04.863Z</time>
      </trkpt>
      <trkpt lat="43.07147333" lon="-4.177445">
        <ele>1092.0</ele>
        <time>2018-05-19T12:58:05.872Z</time>
      </trkpt>
      <trkpt lat="43.07147333" lon="-4.177445">
        <ele>1092.0</ele>
        <time>2018-05-19T12:58:06.867Z</time>
      </trkpt>
      <trkpt lat="43.07144167" lon="-4.17746">
        <ele>1093.0</ele>
        <time>2018-05-19T12:58:07.871Z</time>
      </trkpt>
      <trkpt lat="43.07144167" lon="-4.17746">
        <ele>1093.0</ele>
        <time>2018-05-19T12:58:08.868Z</time>
      </trkpt>
      <trkpt lat="43.07141167" lon="-4.17747333">
        <ele>1093.0</ele>
        <time>2018-05-19T12:58:09.873Z</time>
      </trkpt>
      <trkpt lat="43.07141167" lon="-4.17747333">
        <ele>1093.0</ele>
        <time>2018-05-19T12:58:10.869Z</time>
      </trkpt>
      <trkpt lat="43.07137833" lon="-4.17748833">
        <ele>1093.0</ele>
        <time>2018-05-19T12:58:11.872Z</time>
      </trkpt>
      <trkpt lat="43.07137833" lon="-4.17748833">
        <ele>1093.0</ele>
        <time>2018-05-19T12:58:12.870Z</time>
      </trkpt>
      <trkpt lat="43.07134833" lon="-4.17750167">
        <ele>1093.0</ele>
        <time>2018-05-19T12:58:13.871Z</time>
      </trkpt>
      <trkpt lat="43.07133333" lon="-4.17750667">
        <ele>1093.0</ele>
        <time>2018-05-19T12:58:14.872Z</time>
      </trkpt>
      <trkpt lat="43.07133333" lon="-4.17750667">
        <ele>1093.0</ele>
        <time>2018-05-19T12:58:15.857Z</time>
      </trkpt>
      <trkpt lat="43.071305" lon="-4.177525">
        <ele>1093.0</ele>
        <time>2018-05-19T12:58:16.844Z</time>
      </trkpt>
      <trkpt lat="43.07128667" lon="-4.17752667">
        <ele>1093.0</ele>
        <time>2018-05-19T12:58:17.873Z</time>
      </trkpt>
      <trkpt lat="43.07128667" lon="-4.17752667">
        <ele>1093.0</ele>
        <time>2018-05-19T12:58:18.870Z</time>
      </trkpt>
      <trkpt lat="43.071255" lon="-4.177525">
        <ele>1093.0</ele>
        <time>2018-05-19T12:58:19.872Z</time>
      </trkpt>
      <trkpt lat="43.071255" lon="-4.177525">
        <ele>1093.0</ele>
        <time>2018-05-19T12:58:20.863Z</time>
      </trkpt>
      <trkpt lat="43.071225" lon="-4.177525">
        <ele>1093.0</ele>
        <time>2018-05-19T12:58:21.874Z</time>
      </trkpt>
      <trkpt lat="43.071225" lon="-4.177525">
        <ele>1093.0</ele>
        <time>2018-05-19T12:58:22.856Z</time>
      </trkpt>
      <trkpt lat="43.07119" lon="-4.17751667">
        <ele>1093.0</ele>
        <time>2018-05-19T12:58:23.882Z</time>
      </trkpt>
      <trkpt lat="43.07119" lon="-4.17751667">
        <ele>1093.0</ele>
        <time>2018-05-19T12:58:24.870Z</time>
      </trkpt>
      <trkpt lat="43.071155" lon="-4.1775">
        <ele>1093.0</ele>
        <time>2018-05-19T12:58:25.871Z</time>
      </trkpt>
      <trkpt lat="43.07113667" lon="-4.17749333">
        <ele>1093.0</ele>
        <time>2018-05-19T12:58:26.873Z</time>
      </trkpt>
      <trkpt lat="43.07112" lon="-4.17749">
        <ele>1093.0</ele>
        <time>2018-05-19T12:58:27.874Z</time>
      </trkpt>
      <trkpt lat="43.07112" lon="-4.17749">
        <ele>1093.0</ele>
        <time>2018-05-19T12:58:28.851Z</time>
      </trkpt>
      <trkpt lat="43.07108833" lon="-4.17747">
        <ele>1093.0</ele>
        <time>2018-05-19T12:58:29.874Z</time>
      </trkpt>
      <trkpt lat="43.07108833" lon="-4.17747">
        <ele>1093.0</ele>
        <time>2018-05-19T12:58:30.858Z</time>
      </trkpt>
      <trkpt lat="43.07105667" lon="-4.17745">
        <ele>1093.0</ele>
        <time>2018-05-19T12:58:31.881Z</time>
      </trkpt>
      <trkpt lat="43.07105667" lon="-4.17745">
        <ele>1093.0</ele>
        <time>2018-05-19T12:58:32.870Z</time>
      </trkpt>
      <trkpt lat="43.071025" lon="-4.177435">
        <ele>1093.0</ele>
        <time>2018-05-19T12:58:33.873Z</time>
      </trkpt>
      <trkpt lat="43.071025" lon="-4.177435">
        <ele>1093.0</ele>
        <time>2018-05-19T12:58:34.869Z</time>
      </trkpt>
      <trkpt lat="43.07099333" lon="-4.17742">
        <ele>1093.0</ele>
        <time>2018-05-19T12:58:35.873Z</time>
      </trkpt>
      <trkpt lat="43.07099333" lon="-4.17742">
        <ele>1093.0</ele>
        <time>2018-05-19T12:58:36.870Z</time>
      </trkpt>
      <trkpt lat="43.07096" lon="-4.17741">
        <ele>1093.0</ele>
        <time>2018-05-19T12:58:37.872Z</time>
      </trkpt>
      <trkpt lat="43.07096" lon="-4.17741">
        <ele>1093.0</ele>
        <time>2018-05-19T12:58:38.864Z</time>
      </trkpt>
      <trkpt lat="43.07093167" lon="-4.17739333">
        <ele>1093.0</ele>
        <time>2018-05-19T12:58:39.844Z</time>
      </trkpt>
      <trkpt lat="43.07093167" lon="-4.17739333">
        <ele>1093.0</ele>
        <time>2018-05-19T12:58:40.870Z</time>
      </trkpt>
      <trkpt lat="43.07090333" lon="-4.17737333">
        <ele>1093.0</ele>
        <time>2018-05-19T12:58:41.848Z</time>
      </trkpt>
      <trkpt lat="43.07090333" lon="-4.17737333">
        <ele>1093.0</ele>
        <time>2018-05-19T12:58:42.845Z</time>
      </trkpt>
      <trkpt lat="43.07087167" lon="-4.17735333">
        <ele>1093.0</ele>
        <time>2018-05-19T12:58:43.873Z</time>
      </trkpt>
      <trkpt lat="43.07087167" lon="-4.17735333">
        <ele>1093.0</ele>
        <time>2018-05-19T12:58:44.870Z</time>
      </trkpt>
      <trkpt lat="43.07084667" lon="-4.17734167">
        <ele>1093.0</ele>
        <time>2018-05-19T12:58:45.857Z</time>
      </trkpt>
      <trkpt lat="43.07084667" lon="-4.17734167">
        <ele>1093.0</ele>
        <time>2018-05-19T12:58:46.854Z</time>
      </trkpt>
      <trkpt lat="43.07081833" lon="-4.177325">
        <ele>1093.0</ele>
        <time>2018-05-19T12:58:47.860Z</time>
      </trkpt>
      <trkpt lat="43.07081833" lon="-4.177325">
        <ele>1093.0</ele>
        <time>2018-05-19T12:58:48.867Z</time>
      </trkpt>
      <trkpt lat="43.07079333" lon="-4.17730333">
        <ele>1093.0</ele>
        <time>2018-05-19T12:58:49.873Z</time>
      </trkpt>
      <trkpt lat="43.07079333" lon="-4.17730333">
        <ele>1093.0</ele>
        <time>2018-05-19T12:58:50.880Z</time>
      </trkpt>
      <trkpt lat="43.07077167" lon="-4.17729">
        <ele>1093.0</ele>
        <time>2018-05-19T12:58:51.875Z</time>
      </trkpt>
      <trkpt lat="43.07077167" lon="-4.17729">
        <ele>1093.0</ele>
        <time>2018-05-19T12:58:52.863Z</time>
      </trkpt>
      <trkpt lat="43.07075333" lon="-4.17726667">
        <ele>1094.0</ele>
        <time>2018-05-19T12:58:53.872Z</time>
      </trkpt>
      <trkpt lat="43.07075333" lon="-4.17726667">
        <ele>1094.0</ele>
        <time>2018-05-19T12:58:54.882Z</time>
      </trkpt>
      <trkpt lat="43.07073333" lon="-4.17724333">
        <ele>1094.0</ele>
        <time>2018-05-19T12:58:55.871Z</time>
      </trkpt>
      <trkpt lat="43.07073333" lon="-4.17724333">
        <ele>1094.0</ele>
        <time>2018-05-19T12:58:56.863Z</time>
      </trkpt>
      <trkpt lat="43.07071667" lon="-4.17721667">
        <ele>1094.0</ele>
        <time>2018-05-19T12:58:57.874Z</time>
      </trkpt>
      <trkpt lat="43.07071667" lon="-4.17721667">
        <ele>1094.0</ele>
        <time>2018-05-19T12:58:58.870Z</time>
      </trkpt>
      <trkpt lat="43.07069667" lon="-4.17719333">
        <ele>1094.0</ele>
        <time>2018-05-19T12:58:59.872Z</time>
      </trkpt>
      <trkpt lat="43.07069667" lon="-4.17719333">
        <ele>1094.0</ele>
        <time>2018-05-19T12:59:00.862Z</time>
      </trkpt>
      <trkpt lat="43.07067833" lon="-4.177165">
        <ele>1095.0</ele>
        <time>2018-05-19T12:59:01.847Z</time>
      </trkpt>
      <trkpt lat="43.07066833" lon="-4.17714833">
        <ele>1095.0</ele>
        <time>2018-05-19T12:59:02.874Z</time>
      </trkpt>
      <trkpt lat="43.07066833" lon="-4.17714833">
        <ele>1095.0</ele>
        <time>2018-05-19T12:59:03.871Z</time>
      </trkpt>
      <trkpt lat="43.07064167" lon="-4.17711833">
        <ele>1095.0</ele>
        <time>2018-05-19T12:59:04.872Z</time>
      </trkpt>
      <trkpt lat="43.07063" lon="-4.177105">
        <ele>1096.0</ele>
        <time>2018-05-19T12:59:05.872Z</time>
      </trkpt>
      <trkpt lat="43.07063" lon="-4.177105">
        <ele>1096.0</ele>
        <time>2018-05-19T12:59:06.869Z</time>
      </trkpt>
      <trkpt lat="43.070605" lon="-4.17708167">
        <ele>1096.0</ele>
        <time>2018-05-19T12:59:07.873Z</time>
      </trkpt>
      <trkpt lat="43.070605" lon="-4.17708167">
        <ele>1096.0</ele>
        <time>2018-05-19T12:59:08.870Z</time>
      </trkpt>
      <trkpt lat="43.07058" lon="-4.17706">
        <ele>1096.0</ele>
        <time>2018-05-19T12:59:09.875Z</time>
      </trkpt>
      <trkpt lat="43.07058" lon="-4.17706">
        <ele>1096.0</ele>
        <time>2018-05-19T12:59:10.869Z</time>
      </trkpt>
      <trkpt lat="43.07055333" lon="-4.17704833">
        <ele>1096.0</ele>
        <time>2018-05-19T12:59:11.872Z</time>
      </trkpt>
      <trkpt lat="43.07055333" lon="-4.17704833">
        <ele>1096.0</ele>
        <time>2018-05-19T12:59:12.869Z</time>
      </trkpt>
      <trkpt lat="43.07052333" lon="-4.17703">
        <ele>1097.0</ele>
        <time>2018-05-19T12:59:13.872Z</time>
      </trkpt>
      <trkpt lat="43.07051" lon="-4.17702">
        <ele>1097.0</ele>
        <time>2018-05-19T12:59:14.872Z</time>
      </trkpt>
      <trkpt lat="43.07051" lon="-4.17702">
        <ele>1097.0</ele>
        <time>2018-05-19T12:59:15.863Z</time>
      </trkpt>
      <trkpt lat="43.07047833" lon="-4.17701167">
        <ele>1097.0</ele>
        <time>2018-05-19T12:59:16.871Z</time>
      </trkpt>
      <trkpt lat="43.07046333" lon="-4.17700167">
        <ele>1097.0</ele>
        <time>2018-05-19T12:59:17.872Z</time>
      </trkpt>
      <trkpt lat="43.07046333" lon="-4.17700167">
        <ele>1097.0</ele>
        <time>2018-05-19T12:59:18.869Z</time>
      </trkpt>
      <trkpt lat="43.070435" lon="-4.17699667">
        <ele>1097.0</ele>
        <time>2018-05-19T12:59:19.871Z</time>
      </trkpt>
      <trkpt lat="43.07041833" lon="-4.176995">
        <ele>1096.0</ele>
        <time>2018-05-19T12:59:20.883Z</time>
      </trkpt>
      <trkpt lat="43.07041833" lon="-4.176995">
        <ele>1096.0</ele>
        <time>2018-05-19T12:59:21.870Z</time>
      </trkpt>
      <trkpt lat="43.07038667" lon="-4.17699667">
        <ele>1097.0</ele>
        <time>2018-05-19T12:59:22.873Z</time>
      </trkpt>
      <trkpt lat="43.07037167" lon="-4.17699667">
        <ele>1097.0</ele>
        <time>2018-05-19T12:59:23.875Z</time>
      </trkpt>
      <trkpt lat="43.07037167" lon="-4.17699667">
        <ele>1097.0</ele>
        <time>2018-05-19T12:59:24.871Z</time>
      </trkpt>
      <trkpt lat="43.07034" lon="-4.177005">
        <ele>1097.0</ele>
        <time>2018-05-19T12:59:25.872Z</time>
      </trkpt>
      <trkpt lat="43.07034" lon="-4.177005">
        <ele>1097.0</ele>
        <time>2018-05-19T12:59:26.870Z</time>
      </trkpt>
      <trkpt lat="43.07031" lon="-4.17701833">
        <ele>1097.0</ele>
        <time>2018-05-19T12:59:27.873Z</time>
      </trkpt>
      <trkpt lat="43.07031" lon="-4.17701833">
        <ele>1097.0</ele>
        <time>2018-05-19T12:59:28.862Z</time>
      </trkpt>
      <trkpt lat="43.07028" lon="-4.17703333">
        <ele>1097.0</ele>
        <time>2018-05-19T12:59:29.882Z</time>
      </trkpt>
      <trkpt lat="43.07028" lon="-4.17703333">
        <ele>1097.0</ele>
        <time>2018-05-19T12:59:30.870Z</time>
      </trkpt>
      <trkpt lat="43.07025167" lon="-4.17704833">
        <ele>1097.0</ele>
        <time>2018-05-19T12:59:31.871Z</time>
      </trkpt>
      <trkpt lat="43.07025167" lon="-4.17704833">
        <ele>1097.0</ele>
        <time>2018-05-19T12:59:32.869Z</time>
      </trkpt>
      <trkpt lat="43.07022167" lon="-4.17706333">
        <ele>1096.0</ele>
        <time>2018-05-19T12:59:33.879Z</time>
      </trkpt>
      <trkpt lat="43.07022167" lon="-4.17706333">
        <ele>1096.0</ele>
        <time>2018-05-19T12:59:34.870Z</time>
      </trkpt>
      <trkpt lat="43.070195" lon="-4.17708">
        <ele>1096.0</ele>
        <time>2018-05-19T12:59:35.871Z</time>
      </trkpt>
      <trkpt lat="43.070185" lon="-4.17709167">
        <ele>1096.0</ele>
        <time>2018-05-19T12:59:36.877Z</time>
      </trkpt>
      <trkpt lat="43.070185" lon="-4.17709167">
        <ele>1096.0</ele>
        <time>2018-05-19T12:59:37.862Z</time>
      </trkpt>
      <trkpt lat="43.07016333" lon="-4.17711">
        <ele>1095.0</ele>
        <time>2018-05-19T12:59:38.873Z</time>
      </trkpt>
      <trkpt lat="43.07016333" lon="-4.17711">
        <ele>1095.0</ele>
        <time>2018-05-19T12:59:39.870Z</time>
      </trkpt>
      <trkpt lat="43.07014333" lon="-4.17713333">
        <ele>1095.0</ele>
        <time>2018-05-19T12:59:40.871Z</time>
      </trkpt>
      <trkpt lat="43.07014333" lon="-4.17713333">
        <ele>1095.0</ele>
        <time>2018-05-19T12:59:41.873Z</time>
      </trkpt>
      <trkpt lat="43.07012167" lon="-4.17715667">
        <ele>1094.0</ele>
        <time>2018-05-19T12:59:42.873Z</time>
      </trkpt>
      <trkpt lat="43.07012167" lon="-4.17715667">
        <ele>1094.0</ele>
        <time>2018-05-19T12:59:43.870Z</time>
      </trkpt>
      <trkpt lat="43.0701" lon="-4.17718">
        <ele>1094.0</ele>
        <time>2018-05-19T12:59:44.871Z</time>
      </trkpt>
      <trkpt lat="43.0701" lon="-4.17718">
        <ele>1094.0</ele>
        <time>2018-05-19T12:59:45.853Z</time>
      </trkpt>
      <trkpt lat="43.07008167" lon="-4.17720833">
        <ele>1094.0</ele>
        <time>2018-05-19T12:59:46.870Z</time>
      </trkpt>
      <trkpt lat="43.07008167" lon="-4.17720833">
        <ele>1094.0</ele>
        <time>2018-05-19T12:59:47.876Z</time>
      </trkpt>
      <trkpt lat="43.070065" lon="-4.177235">
        <ele>1094.0</ele>
        <time>2018-05-19T12:59:48.872Z</time>
      </trkpt>
      <trkpt lat="43.07005667" lon="-4.17725">
        <ele>1094.0</ele>
        <time>2018-05-19T12:59:49.873Z</time>
      </trkpt>
      <trkpt lat="43.07005667" lon="-4.17725">
        <ele>1094.0</ele>
        <time>2018-05-19T12:59:50.869Z</time>
      </trkpt>
      <trkpt lat="43.07003833" lon="-4.17727833">
        <ele>1094.0</ele>
        <time>2018-05-19T12:59:51.871Z</time>
      </trkpt>
      <trkpt lat="43.07003833" lon="-4.17727833">
        <ele>1094.0</ele>
        <time>2018-05-19T12:59:52.869Z</time>
      </trkpt>
      <trkpt lat="43.07002167" lon="-4.17731">
        <ele>1094.0</ele>
        <time>2018-05-19T12:59:53.872Z</time>
      </trkpt>
      <trkpt lat="43.07002167" lon="-4.17731">
        <ele>1094.0</ele>
        <time>2018-05-19T12:59:54.869Z</time>
      </trkpt>
      <trkpt lat="43.07000667" lon="-4.17734">
        <ele>1094.0</ele>
        <time>2018-05-19T12:59:55.873Z</time>
      </trkpt>
      <trkpt lat="43.07000667" lon="-4.17734">
        <ele>1094.0</ele>
        <time>2018-05-19T12:59:56.869Z</time>
      </trkpt>
      <trkpt lat="43.06999" lon="-4.17736833">
        <ele>1094.0</ele>
        <time>2018-05-19T12:59:57.873Z</time>
      </trkpt>
      <trkpt lat="43.06998167" lon="-4.177385">
        <ele>1094.0</ele>
        <time>2018-05-19T12:59:58.874Z</time>
      </trkpt>
      <trkpt lat="43.06997667" lon="-4.17740333">
        <ele>1094.0</ele>
        <time>2018-05-19T12:59:59.873Z</time>
      </trkpt>
      <trkpt lat="43.06997667" lon="-4.17740333">
        <ele>1094.0</ele>
        <time>2018-05-19T13:00:00.870Z</time>
      </trkpt>
      <trkpt lat="43.069965" lon="-4.177435">
        <ele>1094.0</ele>
        <time>2018-05-19T13:00:01.860Z</time>
      </trkpt>
      <trkpt lat="43.06995833" lon="-4.17745">
        <ele>1094.0</ele>
        <time>2018-05-19T13:00:02.871Z</time>
      </trkpt>
      <trkpt lat="43.06995833" lon="-4.17745">
        <ele>1094.0</ele>
        <time>2018-05-19T13:00:03.871Z</time>
      </trkpt>
      <trkpt lat="43.06994333" lon="-4.17748167">
        <ele>1094.0</ele>
        <time>2018-05-19T13:00:04.872Z</time>
      </trkpt>
      <trkpt lat="43.06994333" lon="-4.17748167">
        <ele>1094.0</ele>
        <time>2018-05-19T13:00:05.870Z</time>
      </trkpt>
      <trkpt lat="43.06992833" lon="-4.17751333">
        <ele>1094.0</ele>
        <time>2018-05-19T13:00:06.871Z</time>
      </trkpt>
      <trkpt lat="43.06992833" lon="-4.17751333">
        <ele>1094.0</ele>
        <time>2018-05-19T13:00:07.862Z</time>
      </trkpt>
      <trkpt lat="43.06991167" lon="-4.17754167">
        <ele>1094.0</ele>
        <time>2018-05-19T13:00:08.871Z</time>
      </trkpt>
      <trkpt lat="43.06991167" lon="-4.17754167">
        <ele>1094.0</ele>
        <time>2018-05-19T13:00:09.870Z</time>
      </trkpt>
      <trkpt lat="43.069895" lon="-4.17757333">
        <ele>1094.0</ele>
        <time>2018-05-19T13:00:10.871Z</time>
      </trkpt>
      <trkpt lat="43.069895" lon="-4.17757333">
        <ele>1094.0</ele>
        <time>2018-05-19T13:00:11.857Z</time>
      </trkpt>
      <trkpt lat="43.06987833" lon="-4.177605">
        <ele>1094.0</ele>
        <time>2018-05-19T13:00:12.872Z</time>
      </trkpt>
      <trkpt lat="43.06987833" lon="-4.177605">
        <ele>1094.0</ele>
        <time>2018-05-19T13:00:13.869Z</time>
      </trkpt>
      <trkpt lat="43.06986" lon="-4.177635">
        <ele>1094.0</ele>
        <time>2018-05-19T13:00:14.872Z</time>
      </trkpt>
      <trkpt lat="43.06985167" lon="-4.17765167">
        <ele>1094.0</ele>
        <time>2018-05-19T13:00:15.857Z</time>
      </trkpt>
      <trkpt lat="43.06985167" lon="-4.17765167">
        <ele>1094.0</ele>
        <time>2018-05-19T13:00:16.883Z</time>
      </trkpt>
      <trkpt lat="43.06983167" lon="-4.17767667">
        <ele>1095.0</ele>
        <time>2018-05-19T13:00:17.873Z</time>
      </trkpt>
      <trkpt lat="43.06983167" lon="-4.17767667">
        <ele>1095.0</ele>
        <time>2018-05-19T13:00:18.866Z</time>
      </trkpt>
      <trkpt lat="43.06981333" lon="-4.17770667">
        <ele>1095.0</ele>
        <time>2018-05-19T13:00:19.871Z</time>
      </trkpt>
      <trkpt lat="43.06981333" lon="-4.17770667">
        <ele>1095.0</ele>
        <time>2018-05-19T13:00:20.875Z</time>
      </trkpt>
      <trkpt lat="43.06979833" lon="-4.17773833">
        <ele>1095.0</ele>
        <time>2018-05-19T13:00:21.879Z</time>
      </trkpt>
      <trkpt lat="43.06978833" lon="-4.17775167">
        <ele>1095.0</ele>
        <time>2018-05-19T13:00:22.871Z</time>
      </trkpt>
      <trkpt lat="43.06978" lon="-4.17776667">
        <ele>1095.0</ele>
        <time>2018-05-19T13:00:23.872Z</time>
      </trkpt>
      <trkpt lat="43.06978" lon="-4.17776667">
        <ele>1095.0</ele>
        <time>2018-05-19T13:00:24.869Z</time>
      </trkpt>
      <trkpt lat="43.06976667" lon="-4.177795">
        <ele>1096.0</ele>
        <time>2018-05-19T13:00:25.873Z</time>
      </trkpt>
      <trkpt lat="43.06976667" lon="-4.177795">
        <ele>1096.0</ele>
        <time>2018-05-19T13:00:26.869Z</time>
      </trkpt>
      <trkpt lat="43.06975333" lon="-4.17782167">
        <ele>1096.0</ele>
        <time>2018-05-19T13:00:27.873Z</time>
      </trkpt>
      <trkpt lat="43.06975333" lon="-4.17782167">
        <ele>1096.0</ele>
        <time>2018-05-19T13:00:28.869Z</time>
      </trkpt>
      <trkpt lat="43.06972833" lon="-4.17785833">
        <ele>1097.0</ele>
        <time>2018-05-19T13:00:29.873Z</time>
      </trkpt>
      <trkpt lat="43.06972833" lon="-4.17785833">
        <ele>1097.0</ele>
        <time>2018-05-19T13:00:30.869Z</time>
      </trkpt>
      <trkpt lat="43.06971167" lon="-4.17789167">
        <ele>1097.0</ele>
        <time>2018-05-19T13:00:31.871Z</time>
      </trkpt>
      <trkpt lat="43.06971167" lon="-4.17789167">
        <ele>1097.0</ele>
        <time>2018-05-19T13:00:32.869Z</time>
      </trkpt>
      <trkpt lat="43.06969833" lon="-4.177925">
        <ele>1097.0</ele>
        <time>2018-05-19T13:00:33.873Z</time>
      </trkpt>
      <trkpt lat="43.06969833" lon="-4.177925">
        <ele>1097.0</ele>
        <time>2018-05-19T13:00:34.862Z</time>
      </trkpt>
      <trkpt lat="43.06968167" lon="-4.17795667">
        <ele>1097.0</ele>
        <time>2018-05-19T13:00:35.872Z</time>
      </trkpt>
      <trkpt lat="43.06968167" lon="-4.17795667">
        <ele>1097.0</ele>
        <time>2018-05-19T13:00:36.869Z</time>
      </trkpt>
      <trkpt lat="43.06967" lon="-4.177995">
        <ele>1097.0</ele>
        <time>2018-05-19T13:00:37.871Z</time>
      </trkpt>
      <trkpt lat="43.06967" lon="-4.177995">
        <ele>1097.0</ele>
        <time>2018-05-19T13:00:38.861Z</time>
      </trkpt>
      <trkpt lat="43.06965167" lon="-4.17803">
        <ele>1098.0</ele>
        <time>2018-05-19T13:00:39.881Z</time>
      </trkpt>
      <trkpt lat="43.06965167" lon="-4.17803">
        <ele>1098.0</ele>
        <time>2018-05-19T13:00:40.869Z</time>
      </trkpt>
      <trkpt lat="43.06963833" lon="-4.17806167">
        <ele>1098.0</ele>
        <time>2018-05-19T13:00:41.871Z</time>
      </trkpt>
      <trkpt lat="43.06963833" lon="-4.17806167">
        <ele>1098.0</ele>
        <time>2018-05-19T13:00:42.881Z</time>
      </trkpt>
      <trkpt lat="43.06962333" lon="-4.178095">
        <ele>1098.0</ele>
        <time>2018-05-19T13:00:43.872Z</time>
      </trkpt>
      <trkpt lat="43.06962333" lon="-4.178095">
        <ele>1098.0</ele>
        <time>2018-05-19T13:00:44.869Z</time>
      </trkpt>
      <trkpt lat="43.06961167" lon="-4.17812833">
        <ele>1098.0</ele>
        <time>2018-05-19T13:00:45.848Z</time>
      </trkpt>
      <trkpt lat="43.06960667" lon="-4.178145">
        <ele>1098.0</ele>
        <time>2018-05-19T13:00:46.874Z</time>
      </trkpt>
      <trkpt lat="43.06960667" lon="-4.178145">
        <ele>1098.0</ele>
        <time>2018-05-19T13:00:47.881Z</time>
      </trkpt>
      <trkpt lat="43.0696" lon="-4.178185">
        <ele>1099.0</ele>
        <time>2018-05-19T13:00:48.847Z</time>
      </trkpt>
      <trkpt lat="43.0696" lon="-4.178185">
        <ele>1099.0</ele>
        <time>2018-05-19T13:00:49.854Z</time>
      </trkpt>
      <trkpt lat="43.06959167" lon="-4.17823">
        <ele>1099.0</ele>
        <time>2018-05-19T13:00:50.861Z</time>
      </trkpt>
      <trkpt lat="43.06958667" lon="-4.17824833">
        <ele>1099.0</ele>
        <time>2018-05-19T13:00:51.874Z</time>
      </trkpt>
      <trkpt lat="43.06958667" lon="-4.17824833">
        <ele>1099.0</ele>
        <time>2018-05-19T13:00:52.869Z</time>
      </trkpt>
      <trkpt lat="43.069575" lon="-4.17828667">
        <ele>1099.0</ele>
        <time>2018-05-19T13:00:53.872Z</time>
      </trkpt>
      <trkpt lat="43.069575" lon="-4.17828667">
        <ele>1099.0</ele>
        <time>2018-05-19T13:00:54.869Z</time>
      </trkpt>
      <trkpt lat="43.069565" lon="-4.178325">
        <ele>1099.0</ele>
        <time>2018-05-19T13:00:55.871Z</time>
      </trkpt>
      <trkpt lat="43.069565" lon="-4.178325">
        <ele>1099.0</ele>
        <time>2018-05-19T13:00:56.870Z</time>
      </trkpt>
      <trkpt lat="43.06955833" lon="-4.17836333">
        <ele>1100.0</ele>
        <time>2018-05-19T13:00:57.873Z</time>
      </trkpt>
      <trkpt lat="43.06955833" lon="-4.17836333">
        <ele>1100.0</ele>
        <time>2018-05-19T13:00:58.882Z</time>
      </trkpt>
      <trkpt lat="43.06954667" lon="-4.17840333">
        <ele>1100.0</ele>
        <time>2018-05-19T13:00:59.874Z</time>
      </trkpt>
      <trkpt lat="43.06954667" lon="-4.17840333">
        <ele>1100.0</ele>
        <time>2018-05-19T13:01:00.869Z</time>
      </trkpt>
      <trkpt lat="43.06954" lon="-4.17844167">
        <ele>1100.0</ele>
        <time>2018-05-19T13:01:01.871Z</time>
      </trkpt>
      <trkpt lat="43.06954" lon="-4.17844167">
        <ele>1100.0</ele>
        <time>2018-05-19T13:01:02.869Z</time>
      </trkpt>
      <trkpt lat="43.06952833" lon="-4.17848">
        <ele>1100.0</ele>
        <time>2018-05-19T13:01:03.874Z</time>
      </trkpt>
      <trkpt lat="43.06952833" lon="-4.17848">
        <ele>1100.0</ele>
        <time>2018-05-19T13:01:04.862Z</time>
      </trkpt>
      <trkpt lat="43.06951667" lon="-4.17851667">
        <ele>1100.0</ele>
        <time>2018-05-19T13:01:05.872Z</time>
      </trkpt>
      <trkpt lat="43.06951667" lon="-4.17851667">
        <ele>1100.0</ele>
        <time>2018-05-19T13:01:06.869Z</time>
      </trkpt>
      <trkpt lat="43.06950667" lon="-4.17855333">
        <ele>1100.0</ele>
        <time>2018-05-19T13:01:07.871Z</time>
      </trkpt>
      <trkpt lat="43.06950667" lon="-4.17855333">
        <ele>1100.0</ele>
        <time>2018-05-19T13:01:08.862Z</time>
      </trkpt>
      <trkpt lat="43.06949167" lon="-4.17858667">
        <ele>1100.0</ele>
        <time>2018-05-19T13:01:09.883Z</time>
      </trkpt>
      <trkpt lat="43.06949167" lon="-4.17858667">
        <ele>1100.0</ele>
        <time>2018-05-19T13:01:10.869Z</time>
      </trkpt>
      <trkpt lat="43.069475" lon="-4.17862">
        <ele>1100.0</ele>
        <time>2018-05-19T13:01:11.871Z</time>
      </trkpt>
      <trkpt lat="43.069475" lon="-4.17862">
        <ele>1100.0</ele>
        <time>2018-05-19T13:01:12.867Z</time>
      </trkpt>
      <trkpt lat="43.06945833" lon="-4.17865167">
        <ele>1100.0</ele>
        <time>2018-05-19T13:01:13.871Z</time>
      </trkpt>
      <trkpt lat="43.06945833" lon="-4.17865167">
        <ele>1100.0</ele>
        <time>2018-05-19T13:01:14.869Z</time>
      </trkpt>
      <trkpt lat="43.06944167" lon="-4.17868333">
        <ele>1100.0</ele>
        <time>2018-05-19T13:01:15.854Z</time>
      </trkpt>
      <trkpt lat="43.06943167" lon="-4.17869833">
        <ele>1100.0</ele>
        <time>2018-05-19T13:01:16.883Z</time>
      </trkpt>
      <trkpt lat="43.06942333" lon="-4.178715">
        <ele>1100.0</ele>
        <time>2018-05-19T13:01:17.871Z</time>
      </trkpt>
      <trkpt lat="43.06942333" lon="-4.178715">
        <ele>1100.0</ele>
        <time>2018-05-19T13:01:18.868Z</time>
      </trkpt>
      <trkpt lat="43.06940667" lon="-4.17874667">
        <ele>1101.0</ele>
        <time>2018-05-19T13:01:19.872Z</time>
      </trkpt>
      <trkpt lat="43.06939667" lon="-4.17876167">
        <ele>1101.0</ele>
        <time>2018-05-19T13:01:20.871Z</time>
      </trkpt>
      <trkpt lat="43.06939667" lon="-4.17876167">
        <ele>1101.0</ele>
        <time>2018-05-19T13:01:21.870Z</time>
      </trkpt>
      <trkpt lat="43.069375" lon="-4.17878833">
        <ele>1101.0</ele>
        <time>2018-05-19T13:01:22.871Z</time>
      </trkpt>
      <trkpt lat="43.06936667" lon="-4.178805">
        <ele>1101.0</ele>
        <time>2018-05-19T13:01:23.878Z</time>
      </trkpt>
      <trkpt lat="43.06936667" lon="-4.178805">
        <ele>1101.0</ele>
        <time>2018-05-19T13:01:24.861Z</time>
      </trkpt>
      <trkpt lat="43.06935" lon="-4.17883667">
        <ele>1101.0</ele>
        <time>2018-05-19T13:01:25.870Z</time>
      </trkpt>
      <trkpt lat="43.06935" lon="-4.17883667">
        <ele>1101.0</ele>
        <time>2018-05-19T13:01:26.868Z</time>
      </trkpt>
      <trkpt lat="43.069325" lon="-4.178875">
        <ele>1102.0</ele>
        <time>2018-05-19T13:01:27.874Z</time>
      </trkpt>
      <trkpt lat="43.069315" lon="-4.17889333">
        <ele>1102.0</ele>
        <time>2018-05-19T13:01:28.872Z</time>
      </trkpt>
      <trkpt lat="43.069315" lon="-4.17889333">
        <ele>1102.0</ele>
        <time>2018-05-19T13:01:29.869Z</time>
      </trkpt>
      <trkpt lat="43.06929667" lon="-4.17892833">
        <ele>1102.0</ele>
        <time>2018-05-19T13:01:30.871Z</time>
      </trkpt>
      <trkpt lat="43.06929667" lon="-4.17892833">
        <ele>1102.0</ele>
        <time>2018-05-19T13:01:31.868Z</time>
      </trkpt>
      <trkpt lat="43.06928333" lon="-4.17896667">
        <ele>1103.0</ele>
        <time>2018-05-19T13:01:32.872Z</time>
      </trkpt>
      <trkpt lat="43.06928333" lon="-4.17896667">
        <ele>1103.0</ele>
        <time>2018-05-19T13:01:33.870Z</time>
      </trkpt>
      <trkpt lat="43.06926667" lon="-4.179">
        <ele>1103.0</ele>
        <time>2018-05-19T13:01:34.870Z</time>
      </trkpt>
      <trkpt lat="43.06925667" lon="-4.179015">
        <ele>1104.0</ele>
        <time>2018-05-19T13:01:35.870Z</time>
      </trkpt>
      <trkpt lat="43.06925667" lon="-4.179015">
        <ele>1104.0</ele>
        <time>2018-05-19T13:01:36.861Z</time>
      </trkpt>
      <trkpt lat="43.06924" lon="-4.179045">
        <ele>1104.0</ele>
        <time>2018-05-19T13:01:37.872Z</time>
      </trkpt>
      <trkpt lat="43.06924" lon="-4.179045">
        <ele>1104.0</ele>
        <time>2018-05-19T13:01:38.869Z</time>
      </trkpt>
      <trkpt lat="43.06922333" lon="-4.17907667">
        <ele>1104.0</ele>
        <time>2018-05-19T13:01:39.873Z</time>
      </trkpt>
      <trkpt lat="43.06922333" lon="-4.17907667">
        <ele>1104.0</ele>
        <time>2018-05-19T13:01:40.868Z</time>
      </trkpt>
      <trkpt lat="43.06920833" lon="-4.17911167">
        <ele>1105.0</ele>
        <time>2018-05-19T13:01:41.871Z</time>
      </trkpt>
      <trkpt lat="43.06920833" lon="-4.17911167">
        <ele>1105.0</ele>
        <time>2018-05-19T13:01:42.868Z</time>
      </trkpt>
      <trkpt lat="43.06919" lon="-4.17914333">
        <ele>1105.0</ele>
        <time>2018-05-19T13:01:43.871Z</time>
      </trkpt>
      <trkpt lat="43.06919" lon="-4.17914333">
        <ele>1105.0</ele>
        <time>2018-05-19T13:01:44.861Z</time>
      </trkpt>
      <trkpt lat="43.069175" lon="-4.17917833">
        <ele>1105.0</ele>
        <time>2018-05-19T13:01:45.853Z</time>
      </trkpt>
      <trkpt lat="43.06916667" lon="-4.17919667">
        <ele>1105.0</ele>
        <time>2018-05-19T13:01:46.854Z</time>
      </trkpt>
      <trkpt lat="43.06916667" lon="-4.17919667">
        <ele>1105.0</ele>
        <time>2018-05-19T13:01:47.860Z</time>
      </trkpt>
      <trkpt lat="43.06915" lon="-4.17923">
        <ele>1106.0</ele>
        <time>2018-05-19T13:01:48.868Z</time>
      </trkpt>
      <trkpt lat="43.06915" lon="-4.17923">
        <ele>1106.0</ele>
        <time>2018-05-19T13:01:49.862Z</time>
      </trkpt>
      <trkpt lat="43.069135" lon="-4.179265">
        <ele>1106.0</ele>
        <time>2018-05-19T13:01:50.871Z</time>
      </trkpt>
      <trkpt lat="43.069135" lon="-4.179265">
        <ele>1106.0</ele>
        <time>2018-05-19T13:01:51.870Z</time>
      </trkpt>
      <trkpt lat="43.06912167" lon="-4.17930167">
        <ele>1106.0</ele>
        <time>2018-05-19T13:01:52.871Z</time>
      </trkpt>
      <trkpt lat="43.06911333" lon="-4.17931833">
        <ele>1106.0</ele>
        <time>2018-05-19T13:01:53.871Z</time>
      </trkpt>
      <trkpt lat="43.06911333" lon="-4.17931833">
        <ele>1106.0</ele>
        <time>2018-05-19T13:01:54.849Z</time>
      </trkpt>
      <trkpt lat="43.06910167" lon="-4.179355">
        <ele>1106.0</ele>
        <time>2018-05-19T13:01:55.872Z</time>
      </trkpt>
      <trkpt lat="43.069095" lon="-4.17937167">
        <ele>1106.0</ele>
        <time>2018-05-19T13:01:56.871Z</time>
      </trkpt>
      <trkpt lat="43.06909" lon="-4.17938833">
        <ele>1106.0</ele>
        <time>2018-05-19T13:01:57.874Z</time>
      </trkpt>
      <trkpt lat="43.069085" lon="-4.17940667">
        <ele>1106.0</ele>
        <time>2018-05-19T13:01:58.872Z</time>
      </trkpt>
      <trkpt lat="43.069085" lon="-4.17940667">
        <ele>1106.0</ele>
        <time>2018-05-19T13:01:59.861Z</time>
      </trkpt>
      <trkpt lat="43.06907667" lon="-4.17944667">
        <ele>1106.0</ele>
        <time>2018-05-19T13:02:00.871Z</time>
      </trkpt>
      <trkpt lat="43.06907667" lon="-4.17944667">
        <ele>1106.0</ele>
        <time>2018-05-19T13:02:01.861Z</time>
      </trkpt>
      <trkpt lat="43.06906833" lon="-4.17948333">
        <ele>1106.0</ele>
        <time>2018-05-19T13:02:02.858Z</time>
      </trkpt>
      <trkpt lat="43.06906333" lon="-4.17950333">
        <ele>1106.0</ele>
        <time>2018-05-19T13:02:03.872Z</time>
      </trkpt>
      <trkpt lat="43.06906333" lon="-4.17950333">
        <ele>1106.0</ele>
        <time>2018-05-19T13:02:04.868Z</time>
      </trkpt>
      <trkpt lat="43.06905" lon="-4.17953833">
        <ele>1106.0</ele>
        <time>2018-05-19T13:02:05.873Z</time>
      </trkpt>
      <trkpt lat="43.06905" lon="-4.17953833">
        <ele>1106.0</ele>
        <time>2018-05-19T13:02:06.870Z</time>
      </trkpt>
      <trkpt lat="43.06903833" lon="-4.179575">
        <ele>1106.0</ele>
        <time>2018-05-19T13:02:07.871Z</time>
      </trkpt>
      <trkpt lat="43.06903833" lon="-4.179575">
        <ele>1106.0</ele>
        <time>2018-05-19T13:02:08.869Z</time>
      </trkpt>
      <trkpt lat="43.06902833" lon="-4.17961167">
        <ele>1106.0</ele>
        <time>2018-05-19T13:02:09.872Z</time>
      </trkpt>
      <trkpt lat="43.06902833" lon="-4.17961167">
        <ele>1106.0</ele>
        <time>2018-05-19T13:02:10.861Z</time>
      </trkpt>
      <trkpt lat="43.06901833" lon="-4.179645">
        <ele>1106.0</ele>
        <time>2018-05-19T13:02:11.846Z</time>
      </trkpt>
      <trkpt lat="43.06901833" lon="-4.179645">
        <ele>1106.0</ele>
        <time>2018-05-19T13:02:12.873Z</time>
      </trkpt>
      <trkpt lat="43.06900833" lon="-4.17967667">
        <ele>1107.0</ele>
        <time>2018-05-19T13:02:13.872Z</time>
      </trkpt>
      <trkpt lat="43.06900833" lon="-4.17967667">
        <ele>1107.0</ele>
        <time>2018-05-19T13:02:14.868Z</time>
      </trkpt>
      <trkpt lat="43.06900167" lon="-4.17971333">
        <ele>1107.0</ele>
        <time>2018-05-19T13:02:15.881Z</time>
      </trkpt>
      <trkpt lat="43.06900167" lon="-4.17971333">
        <ele>1107.0</ele>
        <time>2018-05-19T13:02:16.868Z</time>
      </trkpt>
      <trkpt lat="43.06899" lon="-4.17974833">
        <ele>1107.0</ele>
        <time>2018-05-19T13:02:17.872Z</time>
      </trkpt>
      <trkpt lat="43.068985" lon="-4.17976833">
        <ele>1107.0</ele>
        <time>2018-05-19T13:02:18.871Z</time>
      </trkpt>
      <trkpt lat="43.068985" lon="-4.17976833">
        <ele>1107.0</ele>
        <time>2018-05-19T13:02:19.868Z</time>
      </trkpt>
      <trkpt lat="43.06897167" lon="-4.17980333">
        <ele>1107.0</ele>
        <time>2018-05-19T13:02:20.870Z</time>
      </trkpt>
      <trkpt lat="43.06896667" lon="-4.17981833">
        <ele>1108.0</ele>
        <time>2018-05-19T13:02:21.874Z</time>
      </trkpt>
      <trkpt lat="43.06896667" lon="-4.17981833">
        <ele>1108.0</ele>
        <time>2018-05-19T13:02:22.868Z</time>
      </trkpt>
      <trkpt lat="43.068955" lon="-4.17985833">
        <ele>1108.0</ele>
        <time>2018-05-19T13:02:23.870Z</time>
      </trkpt>
      <trkpt lat="43.068955" lon="-4.17985833">
        <ele>1108.0</ele>
        <time>2018-05-19T13:02:24.868Z</time>
      </trkpt>
      <trkpt lat="43.06894833" lon="-4.17990333">
        <ele>1108.0</ele>
        <time>2018-05-19T13:02:25.874Z</time>
      </trkpt>
      <trkpt lat="43.06894167" lon="-4.179925">
        <ele>1108.0</ele>
        <time>2018-05-19T13:02:26.870Z</time>
      </trkpt>
      <trkpt lat="43.06894167" lon="-4.179925">
        <ele>1108.0</ele>
        <time>2018-05-19T13:02:27.869Z</time>
      </trkpt>
      <trkpt lat="43.06893167" lon="-4.17996167">
        <ele>1109.0</ele>
        <time>2018-05-19T13:02:28.870Z</time>
      </trkpt>
      <trkpt lat="43.068925" lon="-4.17998167">
        <ele>1109.0</ele>
        <time>2018-05-19T13:02:29.872Z</time>
      </trkpt>
      <trkpt lat="43.068925" lon="-4.17998167">
        <ele>1109.0</ele>
        <time>2018-05-19T13:02:30.861Z</time>
      </trkpt>
      <trkpt lat="43.06891167" lon="-4.18001667">
        <ele>1109.0</ele>
        <time>2018-05-19T13:02:31.871Z</time>
      </trkpt>
      <trkpt lat="43.06891167" lon="-4.18001667">
        <ele>1109.0</ele>
        <time>2018-05-19T13:02:32.845Z</time>
      </trkpt>
      <trkpt lat="43.068895" lon="-4.18005167">
        <ele>1109.0</ele>
        <time>2018-05-19T13:02:33.872Z</time>
      </trkpt>
      <trkpt lat="43.068895" lon="-4.18005167">
        <ele>1109.0</ele>
        <time>2018-05-19T13:02:34.861Z</time>
      </trkpt>
      <trkpt lat="43.06887833" lon="-4.18008667">
        <ele>1109.0</ele>
        <time>2018-05-19T13:02:35.871Z</time>
      </trkpt>
      <trkpt lat="43.06887833" lon="-4.18008667">
        <ele>1109.0</ele>
        <time>2018-05-19T13:02:36.865Z</time>
      </trkpt>
      <trkpt lat="43.06886167" lon="-4.180125">
        <ele>1110.0</ele>
        <time>2018-05-19T13:02:37.871Z</time>
      </trkpt>
      <trkpt lat="43.068855" lon="-4.18014333">
        <ele>1110.0</ele>
        <time>2018-05-19T13:02:38.850Z</time>
      </trkpt>
      <trkpt lat="43.068855" lon="-4.18014333">
        <ele>1110.0</ele>
        <time>2018-05-19T13:02:39.872Z</time>
      </trkpt>
      <trkpt lat="43.068845" lon="-4.18018333">
        <ele>1110.0</ele>
        <time>2018-05-19T13:02:40.871Z</time>
      </trkpt>
      <trkpt lat="43.06884" lon="-4.18020167">
        <ele>1110.0</ele>
        <time>2018-05-19T13:02:41.872Z</time>
      </trkpt>
      <trkpt lat="43.06884" lon="-4.18020167">
        <ele>1110.0</ele>
        <time>2018-05-19T13:02:42.861Z</time>
      </trkpt>
      <trkpt lat="43.06882833" lon="-4.18023833">
        <ele>1110.0</ele>
        <time>2018-05-19T13:02:43.871Z</time>
      </trkpt>
      <trkpt lat="43.06882833" lon="-4.18023833">
        <ele>1110.0</ele>
        <time>2018-05-19T13:02:44.868Z</time>
      </trkpt>
      <trkpt lat="43.068815" lon="-4.18027333">
        <ele>1110.0</ele>
        <time>2018-05-19T13:02:45.848Z</time>
      </trkpt>
      <trkpt lat="43.06881" lon="-4.18029167">
        <ele>1110.0</ele>
        <time>2018-05-19T13:02:46.868Z</time>
      </trkpt>
      <trkpt lat="43.06881" lon="-4.18029167">
        <ele>1110.0</ele>
        <time>2018-05-19T13:02:47.875Z</time>
      </trkpt>
      <trkpt lat="43.06880167" lon="-4.18033167">
        <ele>1110.0</ele>
        <time>2018-05-19T13:02:48.881Z</time>
      </trkpt>
      <trkpt lat="43.06880167" lon="-4.18033167">
        <ele>1110.0</ele>
        <time>2018-05-19T13:02:49.846Z</time>
      </trkpt>
      <trkpt lat="43.06878667" lon="-4.18037">
        <ele>1110.0</ele>
        <time>2018-05-19T13:02:50.852Z</time>
      </trkpt>
      <trkpt lat="43.06878" lon="-4.18038833">
        <ele>1110.0</ele>
        <time>2018-05-19T13:02:51.874Z</time>
      </trkpt>
      <trkpt lat="43.06877833" lon="-4.18040667">
        <ele>1110.0</ele>
        <time>2018-05-19T13:02:52.853Z</time>
      </trkpt>
      <trkpt lat="43.06877833" lon="-4.18040667">
        <ele>1110.0</ele>
        <time>2018-05-19T13:02:53.879Z</time>
      </trkpt>
      <trkpt lat="43.06876833" lon="-4.18044167">
        <ele>1110.0</ele>
        <time>2018-05-19T13:02:54.871Z</time>
      </trkpt>
      <trkpt lat="43.06876833" lon="-4.18044167">
        <ele>1110.0</ele>
        <time>2018-05-19T13:02:55.861Z</time>
      </trkpt>
      <trkpt lat="43.06875833" lon="-4.18047333">
        <ele>1110.0</ele>
        <time>2018-05-19T13:02:56.846Z</time>
      </trkpt>
      <trkpt lat="43.06875833" lon="-4.18047333">
        <ele>1110.0</ele>
        <time>2018-05-19T13:02:57.872Z</time>
      </trkpt>
      <trkpt lat="43.068745" lon="-4.18051">
        <ele>1110.0</ele>
        <time>2018-05-19T13:02:58.872Z</time>
      </trkpt>
      <trkpt lat="43.06873667" lon="-4.180525">
        <ele>1111.0</ele>
        <time>2018-05-19T13:02:59.872Z</time>
      </trkpt>
      <trkpt lat="43.06873667" lon="-4.180525">
        <ele>1111.0</ele>
        <time>2018-05-19T13:03:00.861Z</time>
      </trkpt>
      <trkpt lat="43.068725" lon="-4.18056167">
        <ele>1111.0</ele>
        <time>2018-05-19T13:03:01.871Z</time>
      </trkpt>
      <trkpt lat="43.068725" lon="-4.18056167">
        <ele>1111.0</ele>
        <time>2018-05-19T13:03:02.868Z</time>
      </trkpt>
      <trkpt lat="43.06871167" lon="-4.18059667">
        <ele>1111.0</ele>
        <time>2018-05-19T13:03:03.873Z</time>
      </trkpt>
      <trkpt lat="43.06870667" lon="-4.180615">
        <ele>1111.0</ele>
        <time>2018-05-19T13:03:04.870Z</time>
      </trkpt>
      <trkpt lat="43.06870667" lon="-4.180615">
        <ele>1111.0</ele>
        <time>2018-05-19T13:03:05.857Z</time>
      </trkpt>
      <trkpt lat="43.06869333" lon="-4.18065">
        <ele>1112.0</ele>
        <time>2018-05-19T13:03:06.882Z</time>
      </trkpt>
      <trkpt lat="43.06869333" lon="-4.18065">
        <ele>1112.0</ele>
        <time>2018-05-19T13:03:07.868Z</time>
      </trkpt>
      <trkpt lat="43.06868167" lon="-4.18068333">
        <ele>1112.0</ele>
        <time>2018-05-19T13:03:08.881Z</time>
      </trkpt>
      <trkpt lat="43.06867833" lon="-4.1807">
        <ele>1112.0</ele>
        <time>2018-05-19T13:03:09.873Z</time>
      </trkpt>
      <trkpt lat="43.06867833" lon="-4.1807">
        <ele>1112.0</ele>
        <time>2018-05-19T13:03:10.871Z</time>
      </trkpt>
      <trkpt lat="43.06866333" lon="-4.18073">
        <ele>1113.0</ele>
        <time>2018-05-19T13:03:11.872Z</time>
      </trkpt>
      <trkpt lat="43.06866333" lon="-4.18073">
        <ele>1113.0</ele>
        <time>2018-05-19T13:03:12.861Z</time>
      </trkpt>
      <trkpt lat="43.06865167" lon="-4.18076167">
        <ele>1113.0</ele>
        <time>2018-05-19T13:03:13.847Z</time>
      </trkpt>
      <trkpt lat="43.06864167" lon="-4.180775">
        <ele>1113.0</ele>
        <time>2018-05-19T13:03:14.876Z</time>
      </trkpt>
      <trkpt lat="43.06864167" lon="-4.180775">
        <ele>1113.0</ele>
        <time>2018-05-19T13:03:15.865Z</time>
      </trkpt>
      <trkpt lat="43.06863" lon="-4.18080667">
        <ele>1114.0</ele>
        <time>2018-05-19T13:03:16.871Z</time>
      </trkpt>
      <trkpt lat="43.068625" lon="-4.18082167">
        <ele>1114.0</ele>
        <time>2018-05-19T13:03:17.872Z</time>
      </trkpt>
      <trkpt lat="43.068625" lon="-4.18082167">
        <ele>1114.0</ele>
        <time>2018-05-19T13:03:18.868Z</time>
      </trkpt>
      <trkpt lat="43.068625" lon="-4.18082167">
        <ele>1114.0</ele>
        <time>2018-05-19T13:03:19.891Z</time>
      </trkpt>
      <trkpt lat="43.068615" lon="-4.18084">
        <ele>1114.0</ele>
        <time>2018-05-19T13:03:20.868Z</time>
      </trkpt>
      <trkpt lat="43.068615" lon="-4.18084333">
        <ele>1114.0</ele>
        <time>2018-05-19T13:03:21.871Z</time>
      </trkpt>
      <trkpt lat="43.068615" lon="-4.18084333">
        <ele>1114.0</ele>
        <time>2018-05-19T13:03:22.861Z</time>
      </trkpt>
      <trkpt lat="43.06861833" lon="-4.18084833">
        <ele>1114.0</ele>
        <time>2018-05-19T13:03:23.846Z</time>
      </trkpt>
      <trkpt lat="43.06861833" lon="-4.18084833">
        <ele>1114.0</ele>
        <time>2018-05-19T13:03:24.871Z</time>
      </trkpt>
      <trkpt lat="43.06861333" lon="-4.18087667">
        <ele>1114.0</ele>
        <time>2018-05-19T13:03:25.871Z</time>
      </trkpt>
      <trkpt lat="43.06861" lon="-4.18089">
        <ele>1115.0</ele>
        <time>2018-05-19T13:03:26.872Z</time>
      </trkpt>
      <trkpt lat="43.06860833" lon="-4.18090167">
        <ele>1115.0</ele>
        <time>2018-05-19T13:03:27.874Z</time>
      </trkpt>
      <trkpt lat="43.06860833" lon="-4.18090167">
        <ele>1115.0</ele>
        <time>2018-05-19T13:03:28.861Z</time>
      </trkpt>
      <trkpt lat="43.06860167" lon="-4.18093">
        <ele>1115.0</ele>
        <time>2018-05-19T13:03:29.881Z</time>
      </trkpt>
      <trkpt lat="43.06860167" lon="-4.18093">
        <ele>1115.0</ele>
        <time>2018-05-19T13:03:30.868Z</time>
      </trkpt>
      <trkpt lat="43.068595" lon="-4.18095667">
        <ele>1115.0</ele>
        <time>2018-05-19T13:03:31.871Z</time>
      </trkpt>
      <trkpt lat="43.068595" lon="-4.18095667">
        <ele>1115.0</ele>
        <time>2018-05-19T13:03:32.868Z</time>
      </trkpt>
      <trkpt lat="43.06859167" lon="-4.180985">
        <ele>1115.0</ele>
        <time>2018-05-19T13:03:33.870Z</time>
      </trkpt>
      <trkpt lat="43.06859167" lon="-4.180985">
        <ele>1115.0</ele>
        <time>2018-05-19T13:03:34.861Z</time>
      </trkpt>
      <trkpt lat="43.06858833" lon="-4.181015">
        <ele>1115.0</ele>
        <time>2018-05-19T13:03:35.847Z</time>
      </trkpt>
      <trkpt lat="43.06858833" lon="-4.181015">
        <ele>1115.0</ele>
        <time>2018-05-19T13:03:36.871Z</time>
      </trkpt>
      <trkpt lat="43.06858333" lon="-4.18104333">
        <ele>1115.0</ele>
        <time>2018-05-19T13:03:37.871Z</time>
      </trkpt>
      <trkpt lat="43.06858333" lon="-4.18104333">
        <ele>1115.0</ele>
        <time>2018-05-19T13:03:38.870Z</time>
      </trkpt>
      <trkpt lat="43.06858" lon="-4.18107167">
        <ele>1115.0</ele>
        <time>2018-05-19T13:03:39.872Z</time>
      </trkpt>
      <trkpt lat="43.06858" lon="-4.18107167">
        <ele>1115.0</ele>
        <time>2018-05-19T13:03:40.867Z</time>
      </trkpt>
      <trkpt lat="43.06857667" lon="-4.1811">
        <ele>1115.0</ele>
        <time>2018-05-19T13:03:41.870Z</time>
      </trkpt>
      <trkpt lat="43.06857667" lon="-4.1811">
        <ele>1115.0</ele>
        <time>2018-05-19T13:03:42.860Z</time>
      </trkpt>
      <trkpt lat="43.068575" lon="-4.18113">
        <ele>1115.0</ele>
        <time>2018-05-19T13:03:43.846Z</time>
      </trkpt>
      <trkpt lat="43.06857167" lon="-4.18114333">
        <ele>1116.0</ele>
        <time>2018-05-19T13:03:44.872Z</time>
      </trkpt>
      <trkpt lat="43.06857167" lon="-4.18114333">
        <ele>1116.0</ele>
        <time>2018-05-19T13:03:45.859Z</time>
      </trkpt>
      <trkpt lat="43.06856833" lon="-4.18117333">
        <ele>1116.0</ele>
        <time>2018-05-19T13:03:46.860Z</time>
      </trkpt>
      <trkpt lat="43.06856833" lon="-4.18118833">
        <ele>1116.0</ele>
        <time>2018-05-19T13:03:47.866Z</time>
      </trkpt>
      <trkpt lat="43.06856833" lon="-4.18118833">
        <ele>1116.0</ele>
        <time>2018-05-19T13:03:48.872Z</time>
      </trkpt>
      <trkpt lat="43.06856833" lon="-4.18121833">
        <ele>1116.0</ele>
        <time>2018-05-19T13:03:49.878Z</time>
      </trkpt>
      <trkpt lat="43.06856833" lon="-4.18121833">
        <ele>1116.0</ele>
        <time>2018-05-19T13:03:50.845Z</time>
      </trkpt>
      <trkpt lat="43.06856667" lon="-4.18124833">
        <ele>1116.0</ele>
        <time>2018-05-19T13:03:51.871Z</time>
      </trkpt>
      <trkpt lat="43.06856667" lon="-4.18124833">
        <ele>1116.0</ele>
        <time>2018-05-19T13:03:52.861Z</time>
      </trkpt>
      <trkpt lat="43.06856333" lon="-4.18127833">
        <ele>1117.0</ele>
        <time>2018-05-19T13:03:53.861Z</time>
      </trkpt>
      <trkpt lat="43.06856" lon="-4.18129333">
        <ele>1117.0</ele>
        <time>2018-05-19T13:03:54.853Z</time>
      </trkpt>
      <trkpt lat="43.06855667" lon="-4.18130667">
        <ele>1117.0</ele>
        <time>2018-05-19T13:03:55.873Z</time>
      </trkpt>
      <trkpt lat="43.06855667" lon="-4.18130667">
        <ele>1117.0</ele>
        <time>2018-05-19T13:03:56.861Z</time>
      </trkpt>
      <trkpt lat="43.06855333" lon="-4.18133333">
        <ele>1118.0</ele>
        <time>2018-05-19T13:03:57.873Z</time>
      </trkpt>
      <trkpt lat="43.06855333" lon="-4.18133333">
        <ele>1118.0</ele>
        <time>2018-05-19T13:03:58.860Z</time>
      </trkpt>
      <trkpt lat="43.06855167" lon="-4.181365">
        <ele>1118.0</ele>
        <time>2018-05-19T13:03:59.881Z</time>
      </trkpt>
      <trkpt lat="43.06855167" lon="-4.181365">
        <ele>1118.0</ele>
        <time>2018-05-19T13:04:00.868Z</time>
      </trkpt>
      <trkpt lat="43.06855167" lon="-4.181395">
        <ele>1118.0</ele>
        <time>2018-05-19T13:04:01.870Z</time>
      </trkpt>
      <trkpt lat="43.06855333" lon="-4.18141333">
        <ele>1118.0</ele>
        <time>2018-05-19T13:04:02.870Z</time>
      </trkpt>
      <trkpt lat="43.06855333" lon="-4.18141333">
        <ele>1118.0</ele>
        <time>2018-05-19T13:04:03.877Z</time>
      </trkpt>
      <trkpt lat="43.06855333" lon="-4.18144667">
        <ele>1119.0</ele>
        <time>2018-05-19T13:04:04.870Z</time>
      </trkpt>
      <trkpt lat="43.06855" lon="-4.18146667">
        <ele>1119.0</ele>
        <time>2018-05-19T13:04:05.872Z</time>
      </trkpt>
      <trkpt lat="43.06855" lon="-4.18146667">
        <ele>1119.0</ele>
        <time>2018-05-19T13:04:06.868Z</time>
      </trkpt>
      <trkpt lat="43.06854667" lon="-4.18150333">
        <ele>1120.0</ele>
        <time>2018-05-19T13:04:07.870Z</time>
      </trkpt>
      <trkpt lat="43.068545" lon="-4.18152333">
        <ele>1120.0</ele>
        <time>2018-05-19T13:04:08.871Z</time>
      </trkpt>
      <trkpt lat="43.068545" lon="-4.18152333">
        <ele>1120.0</ele>
        <time>2018-05-19T13:04:09.868Z</time>
      </trkpt>
      <trkpt lat="43.06854333" lon="-4.18155833">
        <ele>1120.0</ele>
        <time>2018-05-19T13:04:10.872Z</time>
      </trkpt>
      <trkpt lat="43.06854" lon="-4.18157333">
        <ele>1121.0</ele>
        <time>2018-05-19T13:04:11.870Z</time>
      </trkpt>
      <trkpt lat="43.06854" lon="-4.18159333">
        <ele>1121.0</ele>
        <time>2018-05-19T13:04:12.871Z</time>
      </trkpt>
      <trkpt lat="43.06854" lon="-4.18159333">
        <ele>1121.0</ele>
        <time>2018-05-19T13:04:13.868Z</time>
      </trkpt>
      <trkpt lat="43.06853833" lon="-4.181625">
        <ele>1121.0</ele>
        <time>2018-05-19T13:04:14.866Z</time>
      </trkpt>
      <trkpt lat="43.06853833" lon="-4.181625">
        <ele>1121.0</ele>
        <time>2018-05-19T13:04:15.853Z</time>
      </trkpt>
      <trkpt lat="43.06853167" lon="-4.181655">
        <ele>1122.0</ele>
        <time>2018-05-19T13:04:16.877Z</time>
      </trkpt>
      <trkpt lat="43.06853" lon="-4.18167">
        <ele>1122.0</ele>
        <time>2018-05-19T13:04:17.870Z</time>
      </trkpt>
      <trkpt lat="43.06853" lon="-4.18167">
        <ele>1122.0</ele>
        <time>2018-05-19T13:04:18.882Z</time>
      </trkpt>
      <trkpt lat="43.06852833" lon="-4.18169667">
        <ele>1123.0</ele>
        <time>2018-05-19T13:04:19.872Z</time>
      </trkpt>
      <trkpt lat="43.06852833" lon="-4.18169667">
        <ele>1123.0</ele>
        <time>2018-05-19T13:04:20.868Z</time>
      </trkpt>
      <trkpt lat="43.06852667" lon="-4.18172667">
        <ele>1123.0</ele>
        <time>2018-05-19T13:04:21.871Z</time>
      </trkpt>
      <trkpt lat="43.06852667" lon="-4.18172667">
        <ele>1123.0</ele>
        <time>2018-05-19T13:04:22.845Z</time>
      </trkpt>
      <trkpt lat="43.06852" lon="-4.18175167">
        <ele>1124.0</ele>
        <time>2018-05-19T13:04:23.873Z</time>
      </trkpt>
      <trkpt lat="43.06852" lon="-4.18175167">
        <ele>1124.0</ele>
        <time>2018-05-19T13:04:24.868Z</time>
      </trkpt>
      <trkpt lat="43.06851667" lon="-4.18178">
        <ele>1124.0</ele>
        <time>2018-05-19T13:04:25.871Z</time>
      </trkpt>
      <trkpt lat="43.068515" lon="-4.181795">
        <ele>1124.0</ele>
        <time>2018-05-19T13:04:26.871Z</time>
      </trkpt>
      <trkpt lat="43.068515" lon="-4.181795">
        <ele>1124.0</ele>
        <time>2018-05-19T13:04:27.861Z</time>
      </trkpt>
      <trkpt lat="43.06851" lon="-4.18182667">
        <ele>1125.0</ele>
        <time>2018-05-19T13:04:28.871Z</time>
      </trkpt>
      <trkpt lat="43.06851" lon="-4.18182667">
        <ele>1125.0</ele>
        <time>2018-05-19T13:04:29.868Z</time>
      </trkpt>
      <trkpt lat="43.06850667" lon="-4.18185833">
        <ele>1125.0</ele>
        <time>2018-05-19T13:04:30.871Z</time>
      </trkpt>
      <trkpt lat="43.06850667" lon="-4.18185833">
        <ele>1125.0</ele>
        <time>2018-05-19T13:04:31.868Z</time>
      </trkpt>
      <trkpt lat="43.06850333" lon="-4.18189">
        <ele>1126.0</ele>
        <time>2018-05-19T13:04:32.872Z</time>
      </trkpt>
      <trkpt lat="43.06850333" lon="-4.18189">
        <ele>1126.0</ele>
        <time>2018-05-19T13:04:33.870Z</time>
      </trkpt>
      <trkpt lat="43.06850333" lon="-4.181915">
        <ele>1126.0</ele>
        <time>2018-05-19T13:04:34.871Z</time>
      </trkpt>
      <trkpt lat="43.06850333" lon="-4.181915">
        <ele>1126.0</ele>
        <time>2018-05-19T13:04:35.871Z</time>
      </trkpt>
      <trkpt lat="43.06850333" lon="-4.18194667">
        <ele>1127.0</ele>
        <time>2018-05-19T13:04:36.870Z</time>
      </trkpt>
      <trkpt lat="43.06850167" lon="-4.18196167">
        <ele>1127.0</ele>
        <time>2018-05-19T13:04:37.861Z</time>
      </trkpt>
      <trkpt lat="43.06850167" lon="-4.18196167">
        <ele>1127.0</ele>
        <time>2018-05-19T13:04:38.859Z</time>
      </trkpt>
      <trkpt lat="43.068495" lon="-4.181995">
        <ele>1127.0</ele>
        <time>2018-05-19T13:04:39.878Z</time>
      </trkpt>
      <trkpt lat="43.068495" lon="-4.181995">
        <ele>1127.0</ele>
        <time>2018-05-19T13:04:40.866Z</time>
      </trkpt>
      <trkpt lat="43.068485" lon="-4.18201833">
        <ele>1128.0</ele>
        <time>2018-05-19T13:04:41.870Z</time>
      </trkpt>
      <trkpt lat="43.068485" lon="-4.18201833">
        <ele>1128.0</ele>
        <time>2018-05-19T13:04:42.859Z</time>
      </trkpt>
      <trkpt lat="43.06847667" lon="-4.18204667">
        <ele>1128.0</ele>
        <time>2018-05-19T13:04:43.869Z</time>
      </trkpt>
      <trkpt lat="43.068475" lon="-4.182065">
        <ele>1129.0</ele>
        <time>2018-05-19T13:04:44.870Z</time>
      </trkpt>
      <trkpt lat="43.068475" lon="-4.182065">
        <ele>1129.0</ele>
        <time>2018-05-19T13:04:45.848Z</time>
      </trkpt>
      <trkpt lat="43.068475" lon="-4.18209667">
        <ele>1129.0</ele>
        <time>2018-05-19T13:04:46.859Z</time>
      </trkpt>
      <trkpt lat="43.068475" lon="-4.18211333">
        <ele>1129.0</ele>
        <time>2018-05-19T13:04:47.865Z</time>
      </trkpt>
      <trkpt lat="43.068475" lon="-4.18211333">
        <ele>1129.0</ele>
        <time>2018-05-19T13:04:48.871Z</time>
      </trkpt>
      <trkpt lat="43.06847667" lon="-4.18214833">
        <ele>1130.0</ele>
        <time>2018-05-19T13:04:49.868Z</time>
      </trkpt>
      <trkpt lat="43.06847667" lon="-4.18214833">
        <ele>1130.0</ele>
        <time>2018-05-19T13:04:50.859Z</time>
      </trkpt>
      <trkpt lat="43.06847667" lon="-4.18218333">
        <ele>1130.0</ele>
        <time>2018-05-19T13:04:51.846Z</time>
      </trkpt>
      <trkpt lat="43.06847667" lon="-4.18218333">
        <ele>1130.0</ele>
        <time>2018-05-19T13:04:52.876Z</time>
      </trkpt>
      <trkpt lat="43.068475" lon="-4.18221833">
        <ele>1131.0</ele>
        <time>2018-05-19T13:04:53.870Z</time>
      </trkpt>
      <trkpt lat="43.068475" lon="-4.18221833">
        <ele>1131.0</ele>
        <time>2018-05-19T13:04:54.859Z</time>
      </trkpt>
      <trkpt lat="43.068475" lon="-4.18225">
        <ele>1131.0</ele>
        <time>2018-05-19T13:04:55.844Z</time>
      </trkpt>
      <trkpt lat="43.068475" lon="-4.182265">
        <ele>1131.0</ele>
        <time>2018-05-19T13:04:56.869Z</time>
      </trkpt>
      <trkpt lat="43.06847333" lon="-4.18228167">
        <ele>1132.0</ele>
        <time>2018-05-19T13:04:57.881Z</time>
      </trkpt>
      <trkpt lat="43.06847333" lon="-4.18228167">
        <ele>1132.0</ele>
        <time>2018-05-19T13:04:58.861Z</time>
      </trkpt>
      <trkpt lat="43.06847" lon="-4.182315">
        <ele>1132.0</ele>
        <time>2018-05-19T13:04:59.870Z</time>
      </trkpt>
      <trkpt lat="43.06847" lon="-4.182315">
        <ele>1132.0</ele>
        <time>2018-05-19T13:05:00.858Z</time>
      </trkpt>
      <trkpt lat="43.068465" lon="-4.18234667">
        <ele>1133.0</ele>
        <time>2018-05-19T13:05:01.869Z</time>
      </trkpt>
      <trkpt lat="43.06846" lon="-4.18236">
        <ele>1133.0</ele>
        <time>2018-05-19T13:05:02.869Z</time>
      </trkpt>
      <trkpt lat="43.06845333" lon="-4.18237333">
        <ele>1133.0</ele>
        <time>2018-05-19T13:05:03.873Z</time>
      </trkpt>
      <trkpt lat="43.06845333" lon="-4.18237333">
        <ele>1133.0</ele>
        <time>2018-05-19T13:05:04.861Z</time>
      </trkpt>
      <trkpt lat="43.06844" lon="-4.18240833">
        <ele>1134.0</ele>
        <time>2018-05-19T13:05:05.870Z</time>
      </trkpt>
      <trkpt lat="43.06844" lon="-4.18240833">
        <ele>1134.0</ele>
        <time>2018-05-19T13:05:06.858Z</time>
      </trkpt>
      <trkpt lat="43.068425" lon="-4.18243667">
        <ele>1134.0</ele>
        <time>2018-05-19T13:05:07.881Z</time>
      </trkpt>
      <trkpt lat="43.068425" lon="-4.18243667">
        <ele>1134.0</ele>
        <time>2018-05-19T13:05:08.869Z</time>
      </trkpt>
      <trkpt lat="43.06840333" lon="-4.18245167">
        <ele>1135.0</ele>
        <time>2018-05-19T13:05:09.872Z</time>
      </trkpt>
      <trkpt lat="43.06840333" lon="-4.18245167">
        <ele>1135.0</ele>
        <time>2018-05-19T13:05:10.859Z</time>
      </trkpt>
      <trkpt lat="43.068375" lon="-4.18245667">
        <ele>1135.0</ele>
        <time>2018-05-19T13:05:11.844Z</time>
      </trkpt>
      <trkpt lat="43.068375" lon="-4.18245667">
        <ele>1135.0</ele>
        <time>2018-05-19T13:05:12.871Z</time>
      </trkpt>
      <trkpt lat="43.06835" lon="-4.18246">
        <ele>1136.0</ele>
        <time>2018-05-19T13:05:13.869Z</time>
      </trkpt>
      <trkpt lat="43.06833833" lon="-4.18245833">
        <ele>1136.0</ele>
        <time>2018-05-19T13:05:14.870Z</time>
      </trkpt>
      <trkpt lat="43.06833" lon="-4.18245667">
        <ele>1137.0</ele>
        <time>2018-05-19T13:05:15.861Z</time>
      </trkpt>
      <trkpt lat="43.06833" lon="-4.18245667">
        <ele>1137.0</ele>
        <time>2018-05-19T13:05:16.858Z</time>
      </trkpt>
      <trkpt lat="43.068315" lon="-4.18245667">
        <ele>1137.0</ele>
        <time>2018-05-19T13:05:17.869Z</time>
      </trkpt>
      <trkpt lat="43.068315" lon="-4.18245667">
        <ele>1137.0</ele>
        <time>2018-05-19T13:05:18.858Z</time>
      </trkpt>
      <trkpt lat="43.068295" lon="-4.18244667">
        <ele>1138.0</ele>
        <time>2018-05-19T13:05:19.880Z</time>
      </trkpt>
      <trkpt lat="43.068295" lon="-4.18244667">
        <ele>1138.0</ele>
        <time>2018-05-19T13:05:20.865Z</time>
      </trkpt>
      <trkpt lat="43.06827833" lon="-4.18242667">
        <ele>1138.0</ele>
        <time>2018-05-19T13:05:21.884Z</time>
      </trkpt>
      <trkpt lat="43.06827833" lon="-4.18242667">
        <ele>1138.0</ele>
        <time>2018-05-19T13:05:22.861Z</time>
      </trkpt>
      <trkpt lat="43.06826" lon="-4.18240667">
        <ele>1139.0</ele>
        <time>2018-05-19T13:05:23.868Z</time>
      </trkpt>
      <trkpt lat="43.06826" lon="-4.18240667">
        <ele>1139.0</ele>
        <time>2018-05-19T13:05:24.874Z</time>
      </trkpt>
      <trkpt lat="43.06824667" lon="-4.18238667">
        <ele>1139.0</ele>
        <time>2018-05-19T13:05:25.881Z</time>
      </trkpt>
      <trkpt lat="43.06824667" lon="-4.18238667">
        <ele>1139.0</ele>
        <time>2018-05-19T13:05:26.867Z</time>
      </trkpt>
      <trkpt lat="43.06823167" lon="-4.18236833">
        <ele>1139.0</ele>
        <time>2018-05-19T13:05:27.872Z</time>
      </trkpt>
      <trkpt lat="43.06823167" lon="-4.18236833">
        <ele>1139.0</ele>
        <time>2018-05-19T13:05:28.859Z</time>
      </trkpt>
      <trkpt lat="43.06821833" lon="-4.18234333">
        <ele>1139.0</ele>
        <time>2018-05-19T13:05:29.880Z</time>
      </trkpt>
      <trkpt lat="43.06821833" lon="-4.18234333">
        <ele>1139.0</ele>
        <time>2018-05-19T13:05:30.866Z</time>
      </trkpt>
      <trkpt lat="43.068205" lon="-4.18232167">
        <ele>1140.0</ele>
        <time>2018-05-19T13:05:31.861Z</time>
      </trkpt>
      <trkpt lat="43.06820167" lon="-4.18231167">
        <ele>1140.0</ele>
        <time>2018-05-19T13:05:32.870Z</time>
      </trkpt>
      <trkpt lat="43.068195" lon="-4.18230333">
        <ele>1140.0</ele>
        <time>2018-05-19T13:05:33.872Z</time>
      </trkpt>
      <trkpt lat="43.068195" lon="-4.18230333">
        <ele>1140.0</ele>
        <time>2018-05-19T13:05:34.865Z</time>
      </trkpt>
      <trkpt lat="43.06818" lon="-4.182285">
        <ele>1140.0</ele>
        <time>2018-05-19T13:05:35.868Z</time>
      </trkpt>
      <trkpt lat="43.06818" lon="-4.182285">
        <ele>1140.0</ele>
        <time>2018-05-19T13:05:36.859Z</time>
      </trkpt>
      <trkpt lat="43.06815833" lon="-4.18227">
        <ele>1141.0</ele>
        <time>2018-05-19T13:05:37.869Z</time>
      </trkpt>
      <trkpt lat="43.06814833" lon="-4.18226333">
        <ele>1141.0</ele>
        <time>2018-05-19T13:05:38.870Z</time>
      </trkpt>
      <trkpt lat="43.06814" lon="-4.18225667">
        <ele>1141.0</ele>
        <time>2018-05-19T13:05:39.871Z</time>
      </trkpt>
      <trkpt lat="43.06814" lon="-4.18225667">
        <ele>1141.0</ele>
        <time>2018-05-19T13:05:40.867Z</time>
      </trkpt>
      <trkpt lat="43.06811333" lon="-4.18224167">
        <ele>1141.0</ele>
        <time>2018-05-19T13:05:41.869Z</time>
      </trkpt>
      <trkpt lat="43.06811333" lon="-4.18224167">
        <ele>1141.0</ele>
        <time>2018-05-19T13:05:42.861Z</time>
      </trkpt>
      <trkpt lat="43.06809" lon="-4.18222833">
        <ele>1141.0</ele>
        <time>2018-05-19T13:05:43.869Z</time>
      </trkpt>
      <trkpt lat="43.06809" lon="-4.18222833">
        <ele>1141.0</ele>
        <time>2018-05-19T13:05:44.857Z</time>
      </trkpt>
      <trkpt lat="43.06806667" lon="-4.18221833">
        <ele>1142.0</ele>
        <time>2018-05-19T13:05:45.847Z</time>
      </trkpt>
      <trkpt lat="43.06805667" lon="-4.182215">
        <ele>1142.0</ele>
        <time>2018-05-19T13:05:46.870Z</time>
      </trkpt>
      <trkpt lat="43.06805667" lon="-4.182215">
        <ele>1142.0</ele>
        <time>2018-05-19T13:05:47.876Z</time>
      </trkpt>
      <trkpt lat="43.068035" lon="-4.18220333">
        <ele>1142.0</ele>
        <time>2018-05-19T13:05:48.882Z</time>
      </trkpt>
      <trkpt lat="43.068025" lon="-4.18219833">
        <ele>1142.0</ele>
        <time>2018-05-19T13:05:49.851Z</time>
      </trkpt>
      <trkpt lat="43.068025" lon="-4.18219833">
        <ele>1142.0</ele>
        <time>2018-05-19T13:05:50.858Z</time>
      </trkpt>
      <trkpt lat="43.06800333" lon="-4.18219667">
        <ele>1143.0</ele>
        <time>2018-05-19T13:05:51.871Z</time>
      </trkpt>
      <trkpt lat="43.06800333" lon="-4.18219667">
        <ele>1143.0</ele>
        <time>2018-05-19T13:05:52.865Z</time>
      </trkpt>
      <trkpt lat="43.06798167" lon="-4.18219167">
        <ele>1143.0</ele>
        <time>2018-05-19T13:05:53.881Z</time>
      </trkpt>
      <trkpt lat="43.06798167" lon="-4.18219167">
        <ele>1143.0</ele>
        <time>2018-05-19T13:05:54.869Z</time>
      </trkpt>
      <trkpt lat="43.06796" lon="-4.18218333">
        <ele>1144.0</ele>
        <time>2018-05-19T13:05:55.869Z</time>
      </trkpt>
      <trkpt lat="43.06796" lon="-4.18218333">
        <ele>1144.0</ele>
        <time>2018-05-19T13:05:56.859Z</time>
      </trkpt>
      <trkpt lat="43.06793667" lon="-4.18218">
        <ele>1144.0</ele>
        <time>2018-05-19T13:05:57.873Z</time>
      </trkpt>
      <trkpt lat="43.06793667" lon="-4.18218">
        <ele>1144.0</ele>
        <time>2018-05-19T13:05:58.860Z</time>
      </trkpt>
      <trkpt lat="43.06791333" lon="-4.18217833">
        <ele>1144.0</ele>
        <time>2018-05-19T13:05:59.869Z</time>
      </trkpt>
      <trkpt lat="43.06791333" lon="-4.18217833">
        <ele>1144.0</ele>
        <time>2018-05-19T13:06:00.858Z</time>
      </trkpt>
      <trkpt lat="43.06789" lon="-4.18217667">
        <ele>1145.0</ele>
        <time>2018-05-19T13:06:01.881Z</time>
      </trkpt>
      <trkpt lat="43.06789" lon="-4.18217667">
        <ele>1145.0</ele>
        <time>2018-05-19T13:06:02.865Z</time>
      </trkpt>
      <trkpt lat="43.06786333" lon="-4.18217">
        <ele>1145.0</ele>
        <time>2018-05-19T13:06:03.879Z</time>
      </trkpt>
      <trkpt lat="43.06786333" lon="-4.18217">
        <ele>1145.0</ele>
        <time>2018-05-19T13:06:04.859Z</time>
      </trkpt>
      <trkpt lat="43.06784333" lon="-4.18216833">
        <ele>1146.0</ele>
        <time>2018-05-19T13:06:05.877Z</time>
      </trkpt>
      <trkpt lat="43.06784333" lon="-4.18216833">
        <ele>1146.0</ele>
        <time>2018-05-19T13:06:06.866Z</time>
      </trkpt>
      <trkpt lat="43.06782" lon="-4.18216667">
        <ele>1146.0</ele>
        <time>2018-05-19T13:06:07.869Z</time>
      </trkpt>
      <trkpt lat="43.067805" lon="-4.18216667">
        <ele>1146.0</ele>
        <time>2018-05-19T13:06:08.875Z</time>
      </trkpt>
      <trkpt lat="43.06779333" lon="-4.18217">
        <ele>1146.0</ele>
        <time>2018-05-19T13:06:09.873Z</time>
      </trkpt>
      <trkpt lat="43.06779333" lon="-4.18217">
        <ele>1146.0</ele>
        <time>2018-05-19T13:06:10.859Z</time>
      </trkpt>
      <trkpt lat="43.06777167" lon="-4.18217333">
        <ele>1146.0</ele>
        <time>2018-05-19T13:06:11.869Z</time>
      </trkpt>
      <trkpt lat="43.06777167" lon="-4.18217333">
        <ele>1146.0</ele>
        <time>2018-05-19T13:06:12.860Z</time>
      </trkpt>
      <trkpt lat="43.06774333" lon="-4.18217667">
        <ele>1147.0</ele>
        <time>2018-05-19T13:06:13.869Z</time>
      </trkpt>
      <trkpt lat="43.06773" lon="-4.18218167">
        <ele>1147.0</ele>
        <time>2018-05-19T13:06:14.869Z</time>
      </trkpt>
      <trkpt lat="43.06773" lon="-4.18218167">
        <ele>1147.0</ele>
        <time>2018-05-19T13:06:15.863Z</time>
      </trkpt>
      <trkpt lat="43.067705" lon="-4.18219667">
        <ele>1147.0</ele>
        <time>2018-05-19T13:06:16.869Z</time>
      </trkpt>
      <trkpt lat="43.06769333" lon="-4.18220333">
        <ele>1147.0</ele>
        <time>2018-05-19T13:06:17.868Z</time>
      </trkpt>
      <trkpt lat="43.06769333" lon="-4.18220333">
        <ele>1147.0</ele>
        <time>2018-05-19T13:06:18.858Z</time>
      </trkpt>
      <trkpt lat="43.06767333" lon="-4.182215">
        <ele>1148.0</ele>
        <time>2018-05-19T13:06:19.881Z</time>
      </trkpt>
      <trkpt lat="43.06767333" lon="-4.182215">
        <ele>1148.0</ele>
        <time>2018-05-19T13:06:20.865Z</time>
      </trkpt>
      <trkpt lat="43.06765333" lon="-4.182225">
        <ele>1148.0</ele>
        <time>2018-05-19T13:06:21.872Z</time>
      </trkpt>
      <trkpt lat="43.06765333" lon="-4.182225">
        <ele>1148.0</ele>
        <time>2018-05-19T13:06:22.858Z</time>
      </trkpt>
      <trkpt lat="43.06763667" lon="-4.18223833">
        <ele>1149.0</ele>
        <time>2018-05-19T13:06:23.883Z</time>
      </trkpt>
      <trkpt lat="43.06763667" lon="-4.18223833">
        <ele>1149.0</ele>
        <time>2018-05-19T13:06:24.858Z</time>
      </trkpt>
      <trkpt lat="43.06761667" lon="-4.18224833">
        <ele>1149.0</ele>
        <time>2018-05-19T13:06:25.844Z</time>
      </trkpt>
      <trkpt lat="43.06760667" lon="-4.18225333">
        <ele>1149.0</ele>
        <time>2018-05-19T13:06:26.870Z</time>
      </trkpt>
      <trkpt lat="43.06760667" lon="-4.18225333">
        <ele>1149.0</ele>
        <time>2018-05-19T13:06:27.860Z</time>
      </trkpt>
      <trkpt lat="43.06758333" lon="-4.18226333">
        <ele>1150.0</ele>
        <time>2018-05-19T13:06:28.869Z</time>
      </trkpt>
      <trkpt lat="43.06757167" lon="-4.18227">
        <ele>1150.0</ele>
        <time>2018-05-19T13:06:29.870Z</time>
      </trkpt>
      <trkpt lat="43.06757167" lon="-4.18227">
        <ele>1150.0</ele>
        <time>2018-05-19T13:06:30.855Z</time>
      </trkpt>
      <trkpt lat="43.06754667" lon="-4.18228333">
        <ele>1151.0</ele>
        <time>2018-05-19T13:06:31.881Z</time>
      </trkpt>
      <trkpt lat="43.06753167" lon="-4.182295">
        <ele>1151.0</ele>
        <time>2018-05-19T13:06:32.869Z</time>
      </trkpt>
      <trkpt lat="43.06752" lon="-4.18230333">
        <ele>1151.0</ele>
        <time>2018-05-19T13:06:33.872Z</time>
      </trkpt>
      <trkpt lat="43.06752" lon="-4.18230333">
        <ele>1151.0</ele>
        <time>2018-05-19T13:06:34.866Z</time>
      </trkpt>
      <trkpt lat="43.06749833" lon="-4.18231833">
        <ele>1152.0</ele>
        <time>2018-05-19T13:06:35.869Z</time>
      </trkpt>
      <trkpt lat="43.06749833" lon="-4.18231833">
        <ele>1152.0</ele>
        <time>2018-05-19T13:06:36.857Z</time>
      </trkpt>
      <trkpt lat="43.067485" lon="-4.18234667">
        <ele>1152.0</ele>
        <time>2018-05-19T13:06:37.880Z</time>
      </trkpt>
      <trkpt lat="43.067485" lon="-4.18234667">
        <ele>1152.0</ele>
        <time>2018-05-19T13:06:38.867Z</time>
      </trkpt>
      <trkpt lat="43.06745833" lon="-4.18235">
        <ele>1152.0</ele>
        <time>2018-05-19T13:06:39.871Z</time>
      </trkpt>
      <trkpt lat="43.06745833" lon="-4.18235">
        <ele>1152.0</ele>
        <time>2018-05-19T13:06:40.871Z</time>
      </trkpt>
      <trkpt lat="43.06744" lon="-4.18235667">
        <ele>1153.0</ele>
        <time>2018-05-19T13:06:41.869Z</time>
      </trkpt>
      <trkpt lat="43.06744" lon="-4.18235667">
        <ele>1153.0</ele>
        <time>2018-05-19T13:06:42.860Z</time>
      </trkpt>
      <trkpt lat="43.06741667" lon="-4.18237167">
        <ele>1153.0</ele>
        <time>2018-05-19T13:06:43.869Z</time>
      </trkpt>
      <trkpt lat="43.06741667" lon="-4.18237167">
        <ele>1153.0</ele>
        <time>2018-05-19T13:06:44.858Z</time>
      </trkpt>
      <trkpt lat="43.06738667" lon="-4.18238667">
        <ele>1153.0</ele>
        <time>2018-05-19T13:06:45.848Z</time>
      </trkpt>
      <trkpt lat="43.067375" lon="-4.18239333">
        <ele>1153.0</ele>
        <time>2018-05-19T13:06:46.874Z</time>
      </trkpt>
      <trkpt lat="43.067375" lon="-4.18239333">
        <ele>1153.0</ele>
        <time>2018-05-19T13:06:47.880Z</time>
      </trkpt>
      <trkpt lat="43.06736" lon="-4.18240333">
        <ele>1154.0</ele>
        <time>2018-05-19T13:06:48.870Z</time>
      </trkpt>
      <trkpt lat="43.06736" lon="-4.18240333">
        <ele>1154.0</ele>
        <time>2018-05-19T13:06:49.859Z</time>
      </trkpt>
      <trkpt lat="43.06734333" lon="-4.18241167">
        <ele>1154.0</ele>
        <time>2018-05-19T13:06:50.844Z</time>
      </trkpt>
      <trkpt lat="43.06733333" lon="-4.18241333">
        <ele>1154.0</ele>
        <time>2018-05-19T13:06:51.872Z</time>
      </trkpt>
      <trkpt lat="43.06733333" lon="-4.18241333">
        <ele>1154.0</ele>
        <time>2018-05-19T13:06:52.861Z</time>
      </trkpt>
      <trkpt lat="43.06731167" lon="-4.182425">
        <ele>1155.0</ele>
        <time>2018-05-19T13:06:53.869Z</time>
      </trkpt>
      <trkpt lat="43.06731167" lon="-4.182425">
        <ele>1155.0</ele>
        <time>2018-05-19T13:06:54.846Z</time>
      </trkpt>
      <trkpt lat="43.06728833" lon="-4.18243333">
        <ele>1155.0</ele>
        <time>2018-05-19T13:06:55.867Z</time>
      </trkpt>
      <trkpt lat="43.06728" lon="-4.182435">
        <ele>1155.0</ele>
        <time>2018-05-19T13:06:56.868Z</time>
      </trkpt>
      <trkpt lat="43.06727" lon="-4.18243833">
        <ele>1155.0</ele>
        <time>2018-05-19T13:06:57.872Z</time>
      </trkpt>
      <trkpt lat="43.06727" lon="-4.18243833">
        <ele>1155.0</ele>
        <time>2018-05-19T13:06:58.869Z</time>
      </trkpt>
      <trkpt lat="43.06724833" lon="-4.182445">
        <ele>1155.0</ele>
        <time>2018-05-19T13:06:59.869Z</time>
      </trkpt>
      <trkpt lat="43.06723667" lon="-4.18245333">
        <ele>1155.0</ele>
        <time>2018-05-19T13:07:00.871Z</time>
      </trkpt>
      <trkpt lat="43.06723667" lon="-4.18245333">
        <ele>1155.0</ele>
        <time>2018-05-19T13:07:01.858Z</time>
      </trkpt>
      <trkpt lat="43.06721667" lon="-4.18246667">
        <ele>1155.0</ele>
        <time>2018-05-19T13:07:02.868Z</time>
      </trkpt>
      <trkpt lat="43.06720667" lon="-4.18247333">
        <ele>1155.0</ele>
        <time>2018-05-19T13:07:03.871Z</time>
      </trkpt>
      <trkpt lat="43.06720667" lon="-4.18247333">
        <ele>1155.0</ele>
        <time>2018-05-19T13:07:04.860Z</time>
      </trkpt>
      <trkpt lat="43.067185" lon="-4.18248333">
        <ele>1155.0</ele>
        <time>2018-05-19T13:07:05.845Z</time>
      </trkpt>
      <trkpt lat="43.06717333" lon="-4.18248667">
        <ele>1155.0</ele>
        <time>2018-05-19T13:07:06.870Z</time>
      </trkpt>
      <trkpt lat="43.06717333" lon="-4.18248667">
        <ele>1155.0</ele>
        <time>2018-05-19T13:07:07.858Z</time>
      </trkpt>
      <trkpt lat="43.067155" lon="-4.18249333">
        <ele>1155.0</ele>
        <time>2018-05-19T13:07:08.872Z</time>
      </trkpt>
      <trkpt lat="43.067155" lon="-4.18249333">
        <ele>1155.0</ele>
        <time>2018-05-19T13:07:09.869Z</time>
      </trkpt>
      <trkpt lat="43.067135" lon="-4.18250667">
        <ele>1155.0</ele>
        <time>2018-05-19T13:07:10.868Z</time>
      </trkpt>
      <trkpt lat="43.06712167" lon="-4.18251167">
        <ele>1155.0</ele>
        <time>2018-05-19T13:07:11.870Z</time>
      </trkpt>
      <trkpt lat="43.06712167" lon="-4.18251167">
        <ele>1155.0</ele>
        <time>2018-05-19T13:07:12.866Z</time>
      </trkpt>
      <trkpt lat="43.0671" lon="-4.18252">
        <ele>1155.0</ele>
        <time>2018-05-19T13:07:13.868Z</time>
      </trkpt>
      <trkpt lat="43.0671" lon="-4.18252">
        <ele>1155.0</ele>
        <time>2018-05-19T13:07:14.858Z</time>
      </trkpt>
      <trkpt lat="43.06708" lon="-4.18252667">
        <ele>1154.0</ele>
        <time>2018-05-19T13:07:15.860Z</time>
      </trkpt>
      <trkpt lat="43.06708" lon="-4.18252667">
        <ele>1154.0</ele>
        <time>2018-05-19T13:07:16.859Z</time>
      </trkpt>
      <trkpt lat="43.06706" lon="-4.18253667">
        <ele>1154.0</ele>
        <time>2018-05-19T13:07:17.869Z</time>
      </trkpt>
      <trkpt lat="43.06706" lon="-4.18253667">
        <ele>1154.0</ele>
        <time>2018-05-19T13:07:18.858Z</time>
      </trkpt>
      <trkpt lat="43.06703833" lon="-4.18255">
        <ele>1154.0</ele>
        <time>2018-05-19T13:07:19.879Z</time>
      </trkpt>
      <trkpt lat="43.06703833" lon="-4.18255">
        <ele>1154.0</ele>
        <time>2018-05-19T13:07:20.876Z</time>
      </trkpt>
      <trkpt lat="43.06701333" lon="-4.182565">
        <ele>1153.0</ele>
        <time>2018-05-19T13:07:21.867Z</time>
      </trkpt>
      <trkpt lat="43.06701333" lon="-4.182565">
        <ele>1153.0</ele>
        <time>2018-05-19T13:07:22.858Z</time>
      </trkpt>
      <trkpt lat="43.06699" lon="-4.18258167">
        <ele>1153.0</ele>
        <time>2018-05-19T13:07:23.869Z</time>
      </trkpt>
      <trkpt lat="43.06699" lon="-4.18258167">
        <ele>1153.0</ele>
        <time>2018-05-19T13:07:24.857Z</time>
      </trkpt>
      <trkpt lat="43.06696667" lon="-4.18259">
        <ele>1153.0</ele>
        <time>2018-05-19T13:07:25.880Z</time>
      </trkpt>
      <trkpt lat="43.06695333" lon="-4.18259167">
        <ele>1153.0</ele>
        <time>2018-05-19T13:07:26.868Z</time>
      </trkpt>
      <trkpt lat="43.06694333" lon="-4.182595">
        <ele>1153.0</ele>
        <time>2018-05-19T13:07:27.871Z</time>
      </trkpt>
      <trkpt lat="43.06694333" lon="-4.182595">
        <ele>1153.0</ele>
        <time>2018-05-19T13:07:28.858Z</time>
      </trkpt>
      <trkpt lat="43.06692167" lon="-4.18261333">
        <ele>1152.0</ele>
        <time>2018-05-19T13:07:29.868Z</time>
      </trkpt>
      <trkpt lat="43.06692167" lon="-4.18261333">
        <ele>1152.0</ele>
        <time>2018-05-19T13:07:30.859Z</time>
      </trkpt>
      <trkpt lat="43.0669" lon="-4.18263167">
        <ele>1152.0</ele>
        <time>2018-05-19T13:07:31.869Z</time>
      </trkpt>
      <trkpt lat="43.06688833" lon="-4.18264">
        <ele>1152.0</ele>
        <time>2018-05-19T13:07:32.875Z</time>
      </trkpt>
      <trkpt lat="43.06687833" lon="-4.182645">
        <ele>1152.0</ele>
        <time>2018-05-19T13:07:33.872Z</time>
      </trkpt>
      <trkpt lat="43.06687833" lon="-4.182645">
        <ele>1152.0</ele>
        <time>2018-05-19T13:07:34.860Z</time>
      </trkpt>
      <trkpt lat="43.06685833" lon="-4.18266167">
        <ele>1152.0</ele>
        <time>2018-05-19T13:07:35.855Z</time>
      </trkpt>
      <trkpt lat="43.06684833" lon="-4.18267167">
        <ele>1152.0</ele>
        <time>2018-05-19T13:07:36.867Z</time>
      </trkpt>
      <trkpt lat="43.06684833" lon="-4.18267167">
        <ele>1152.0</ele>
        <time>2018-05-19T13:07:37.858Z</time>
      </trkpt>
      <trkpt lat="43.06682667" lon="-4.18269">
        <ele>1151.0</ele>
        <time>2018-05-19T13:07:38.869Z</time>
      </trkpt>
      <trkpt lat="43.066815" lon="-4.1827">
        <ele>1151.0</ele>
        <time>2018-05-19T13:07:39.872Z</time>
      </trkpt>
      <trkpt lat="43.066815" lon="-4.1827">
        <ele>1151.0</ele>
        <time>2018-05-19T13:07:40.858Z</time>
      </trkpt>
      <trkpt lat="43.06679333" lon="-4.18272">
        <ele>1151.0</ele>
        <time>2018-05-19T13:07:41.884Z</time>
      </trkpt>
      <trkpt lat="43.06679333" lon="-4.18272">
        <ele>1151.0</ele>
        <time>2018-05-19T13:07:42.871Z</time>
      </trkpt>
      <trkpt lat="43.06677167" lon="-4.18274">
        <ele>1151.0</ele>
        <time>2018-05-19T13:07:43.868Z</time>
      </trkpt>
      <trkpt lat="43.06677167" lon="-4.18274">
        <ele>1151.0</ele>
        <time>2018-05-19T13:07:44.858Z</time>
      </trkpt>
      <trkpt lat="43.06675333" lon="-4.18276167">
        <ele>1151.0</ele>
        <time>2018-05-19T13:07:45.867Z</time>
      </trkpt>
      <trkpt lat="43.06674667" lon="-4.18277333">
        <ele>1151.0</ele>
        <time>2018-05-19T13:07:46.859Z</time>
      </trkpt>
      <trkpt lat="43.06674667" lon="-4.18277333">
        <ele>1151.0</ele>
        <time>2018-05-19T13:07:47.865Z</time>
      </trkpt>
      <trkpt lat="43.06673333" lon="-4.182805">
        <ele>1150.0</ele>
        <time>2018-05-19T13:07:48.871Z</time>
      </trkpt>
      <trkpt lat="43.06673333" lon="-4.182805">
        <ele>1150.0</ele>
        <time>2018-05-19T13:07:49.877Z</time>
      </trkpt>
      <trkpt lat="43.06671833" lon="-4.18283333">
        <ele>1150.0</ele>
        <time>2018-05-19T13:07:50.844Z</time>
      </trkpt>
      <trkpt lat="43.06671333" lon="-4.18285">
        <ele>1150.0</ele>
        <time>2018-05-19T13:07:51.871Z</time>
      </trkpt>
      <trkpt lat="43.06671333" lon="-4.18285">
        <ele>1150.0</ele>
        <time>2018-05-19T13:07:52.865Z</time>
      </trkpt>
      <trkpt lat="43.06670167" lon="-4.18288333">
        <ele>1150.0</ele>
        <time>2018-05-19T13:07:53.870Z</time>
      </trkpt>
      <trkpt lat="43.06670167" lon="-4.18288333">
        <ele>1150.0</ele>
        <time>2018-05-19T13:07:54.858Z</time>
      </trkpt>
      <trkpt lat="43.066695" lon="-4.18291833">
        <ele>1150.0</ele>
        <time>2018-05-19T13:07:55.846Z</time>
      </trkpt>
      <trkpt lat="43.066695" lon="-4.18291833">
        <ele>1150.0</ele>
        <time>2018-05-19T13:07:56.865Z</time>
      </trkpt>
      <trkpt lat="43.066695" lon="-4.18295">
        <ele>1149.0</ele>
        <time>2018-05-19T13:07:57.872Z</time>
      </trkpt>
      <trkpt lat="43.066695" lon="-4.18295">
        <ele>1149.0</ele>
        <time>2018-05-19T13:07:58.862Z</time>
      </trkpt>
      <trkpt lat="43.066695" lon="-4.18298">
        <ele>1149.0</ele>
        <time>2018-05-19T13:07:59.868Z</time>
      </trkpt>
      <trkpt lat="43.066695" lon="-4.18298">
        <ele>1149.0</ele>
        <time>2018-05-19T13:08:00.862Z</time>
      </trkpt>
      <trkpt lat="43.06669333" lon="-4.18300833">
        <ele>1149.0</ele>
        <time>2018-05-19T13:08:01.867Z</time>
      </trkpt>
      <trkpt lat="43.06669167" lon="-4.18301833">
        <ele>1149.0</ele>
        <time>2018-05-19T13:08:02.868Z</time>
      </trkpt>
      <trkpt lat="43.06669" lon="-4.18303333">
        <ele>1149.0</ele>
        <time>2018-05-19T13:08:03.871Z</time>
      </trkpt>
      <trkpt lat="43.06669" lon="-4.18303333">
        <ele>1149.0</ele>
        <time>2018-05-19T13:08:04.860Z</time>
      </trkpt>
      <trkpt lat="43.066685" lon="-4.18305833">
        <ele>1149.0</ele>
        <time>2018-05-19T13:08:05.870Z</time>
      </trkpt>
      <trkpt lat="43.066685" lon="-4.18305833">
        <ele>1149.0</ele>
        <time>2018-05-19T13:08:06.860Z</time>
      </trkpt>
      <trkpt lat="43.066685" lon="-4.18308833">
        <ele>1149.0</ele>
        <time>2018-05-19T13:08:07.877Z</time>
      </trkpt>
      <trkpt lat="43.066685" lon="-4.18308833">
        <ele>1149.0</ele>
        <time>2018-05-19T13:08:08.867Z</time>
      </trkpt>
      <trkpt lat="43.06669" lon="-4.18312333">
        <ele>1149.0</ele>
        <time>2018-05-19T13:08:09.871Z</time>
      </trkpt>
      <trkpt lat="43.06669" lon="-4.18312333">
        <ele>1149.0</ele>
        <time>2018-05-19T13:08:10.865Z</time>
      </trkpt>
      <trkpt lat="43.066695" lon="-4.18315333">
        <ele>1149.0</ele>
        <time>2018-05-19T13:08:11.869Z</time>
      </trkpt>
      <trkpt lat="43.066695" lon="-4.18315333">
        <ele>1149.0</ele>
        <time>2018-05-19T13:08:12.860Z</time>
      </trkpt>
      <trkpt lat="43.06669667" lon="-4.18318333">
        <ele>1150.0</ele>
        <time>2018-05-19T13:08:13.867Z</time>
      </trkpt>
      <trkpt lat="43.06669667" lon="-4.18318333">
        <ele>1150.0</ele>
        <time>2018-05-19T13:08:14.858Z</time>
      </trkpt>
      <trkpt lat="43.06669833" lon="-4.18321333">
        <ele>1150.0</ele>
        <time>2018-05-19T13:08:15.857Z</time>
      </trkpt>
      <trkpt lat="43.06669833" lon="-4.18321333">
        <ele>1150.0</ele>
        <time>2018-05-19T13:08:16.858Z</time>
      </trkpt>
      <trkpt lat="43.06670333" lon="-4.18324333">
        <ele>1150.0</ele>
        <time>2018-05-19T13:08:17.866Z</time>
      </trkpt>
      <trkpt lat="43.06670333" lon="-4.18324333">
        <ele>1150.0</ele>
        <time>2018-05-19T13:08:18.860Z</time>
      </trkpt>
      <trkpt lat="43.06671" lon="-4.18327667">
        <ele>1150.0</ele>
        <time>2018-05-19T13:08:19.867Z</time>
      </trkpt>
      <trkpt lat="43.06671" lon="-4.18327667">
        <ele>1150.0</ele>
        <time>2018-05-19T13:08:20.858Z</time>
      </trkpt>
      <trkpt lat="43.06671833" lon="-4.18330833">
        <ele>1150.0</ele>
        <time>2018-05-19T13:08:21.871Z</time>
      </trkpt>
      <trkpt lat="43.06671833" lon="-4.18330833">
        <ele>1150.0</ele>
        <time>2018-05-19T13:08:22.859Z</time>
      </trkpt>
      <trkpt lat="43.06672167" lon="-4.18333667">
        <ele>1150.0</ele>
        <time>2018-05-19T13:08:23.867Z</time>
      </trkpt>
      <trkpt lat="43.06672167" lon="-4.18333667">
        <ele>1150.0</ele>
        <time>2018-05-19T13:08:24.857Z</time>
      </trkpt>
      <trkpt lat="43.06672667" lon="-4.18337">
        <ele>1150.0</ele>
        <time>2018-05-19T13:08:25.866Z</time>
      </trkpt>
      <trkpt lat="43.06672833" lon="-4.18338667">
        <ele>1149.0</ele>
        <time>2018-05-19T13:08:26.867Z</time>
      </trkpt>
      <trkpt lat="43.06673333" lon="-4.18340167">
        <ele>1149.0</ele>
        <time>2018-05-19T13:08:27.871Z</time>
      </trkpt>
      <trkpt lat="43.06673333" lon="-4.18340167">
        <ele>1149.0</ele>
        <time>2018-05-19T13:08:28.866Z</time>
      </trkpt>
      <trkpt lat="43.066745" lon="-4.18343667">
        <ele>1150.0</ele>
        <time>2018-05-19T13:08:29.871Z</time>
      </trkpt>
      <trkpt lat="43.066745" lon="-4.18343667">
        <ele>1150.0</ele>
        <time>2018-05-19T13:08:30.865Z</time>
      </trkpt>
      <trkpt lat="43.066755" lon="-4.18346833">
        <ele>1150.0</ele>
        <time>2018-05-19T13:08:31.868Z</time>
      </trkpt>
      <trkpt lat="43.066755" lon="-4.18346833">
        <ele>1150.0</ele>
        <time>2018-05-19T13:08:32.857Z</time>
      </trkpt>
      <trkpt lat="43.06676" lon="-4.18349667">
        <ele>1150.0</ele>
        <time>2018-05-19T13:08:33.871Z</time>
      </trkpt>
      <trkpt lat="43.06676" lon="-4.18349667">
        <ele>1150.0</ele>
        <time>2018-05-19T13:08:34.860Z</time>
      </trkpt>
      <trkpt lat="43.06677" lon="-4.18352667">
        <ele>1150.0</ele>
        <time>2018-05-19T13:08:35.884Z</time>
      </trkpt>
      <trkpt lat="43.06677" lon="-4.18352667">
        <ele>1150.0</ele>
        <time>2018-05-19T13:08:36.879Z</time>
      </trkpt>
      <trkpt lat="43.06677667" lon="-4.18356">
        <ele>1151.0</ele>
        <time>2018-05-19T13:08:37.867Z</time>
      </trkpt>
      <trkpt lat="43.06677667" lon="-4.18356">
        <ele>1151.0</ele>
        <time>2018-05-19T13:08:38.858Z</time>
      </trkpt>
      <trkpt lat="43.06678333" lon="-4.183595">
        <ele>1151.0</ele>
        <time>2018-05-19T13:08:39.877Z</time>
      </trkpt>
      <trkpt lat="43.06678333" lon="-4.183595">
        <ele>1151.0</ele>
        <time>2018-05-19T13:08:40.866Z</time>
      </trkpt>
      <trkpt lat="43.06679333" lon="-4.18362833">
        <ele>1151.0</ele>
        <time>2018-05-19T13:08:41.867Z</time>
      </trkpt>
      <trkpt lat="43.06679333" lon="-4.18362833">
        <ele>1151.0</ele>
        <time>2018-05-19T13:08:42.858Z</time>
      </trkpt>
      <trkpt lat="43.06680167" lon="-4.18366">
        <ele>1152.0</ele>
        <time>2018-05-19T13:08:43.868Z</time>
      </trkpt>
      <trkpt lat="43.06680167" lon="-4.18366">
        <ele>1152.0</ele>
        <time>2018-05-19T13:08:44.857Z</time>
      </trkpt>
      <trkpt lat="43.06681" lon="-4.18369167">
        <ele>1152.0</ele>
        <time>2018-05-19T13:08:45.852Z</time>
      </trkpt>
      <trkpt lat="43.066815" lon="-4.18370667">
        <ele>1152.0</ele>
        <time>2018-05-19T13:08:46.854Z</time>
      </trkpt>
      <trkpt lat="43.066815" lon="-4.18370667">
        <ele>1152.0</ele>
        <time>2018-05-19T13:08:47.860Z</time>
      </trkpt>
      <trkpt lat="43.06682333" lon="-4.18373667">
        <ele>1152.0</ele>
        <time>2018-05-19T13:08:48.866Z</time>
      </trkpt>
      <trkpt lat="43.06682333" lon="-4.18373667">
        <ele>1152.0</ele>
        <time>2018-05-19T13:08:49.872Z</time>
      </trkpt>
      <trkpt lat="43.06683167" lon="-4.18377">
        <ele>1152.0</ele>
        <time>2018-05-19T13:08:50.879Z</time>
      </trkpt>
      <trkpt lat="43.06683667" lon="-4.18378333">
        <ele>1153.0</ele>
        <time>2018-05-19T13:08:51.872Z</time>
      </trkpt>
      <trkpt lat="43.06683667" lon="-4.18378333">
        <ele>1153.0</ele>
        <time>2018-05-19T13:08:52.860Z</time>
      </trkpt>
      <trkpt lat="43.06684833" lon="-4.183815">
        <ele>1153.0</ele>
        <time>2018-05-19T13:08:53.867Z</time>
      </trkpt>
      <trkpt lat="43.06684833" lon="-4.183815">
        <ele>1153.0</ele>
        <time>2018-05-19T13:08:54.857Z</time>
      </trkpt>
      <trkpt lat="43.06686" lon="-4.18384667">
        <ele>1154.0</ele>
        <time>2018-05-19T13:08:55.882Z</time>
      </trkpt>
      <trkpt lat="43.06686" lon="-4.18384667">
        <ele>1154.0</ele>
        <time>2018-05-19T13:08:56.870Z</time>
      </trkpt>
      <trkpt lat="43.06687167" lon="-4.18387667">
        <ele>1154.0</ele>
        <time>2018-05-19T13:08:57.867Z</time>
      </trkpt>
      <trkpt lat="43.06687167" lon="-4.18387667">
        <ele>1154.0</ele>
        <time>2018-05-19T13:08:58.869Z</time>
      </trkpt>
      <trkpt lat="43.06688333" lon="-4.18391">
        <ele>1155.0</ele>
        <time>2018-05-19T13:08:59.869Z</time>
      </trkpt>
      <trkpt lat="43.06688333" lon="-4.18391">
        <ele>1155.0</ele>
        <time>2018-05-19T13:09:00.860Z</time>
      </trkpt>
      <trkpt lat="43.06689667" lon="-4.18394167">
        <ele>1155.0</ele>
        <time>2018-05-19T13:09:01.859Z</time>
      </trkpt>
      <trkpt lat="43.06690333" lon="-4.18395667">
        <ele>1155.0</ele>
        <time>2018-05-19T13:09:02.869Z</time>
      </trkpt>
      <trkpt lat="43.06691" lon="-4.18397333">
        <ele>1155.0</ele>
        <time>2018-05-19T13:09:03.871Z</time>
      </trkpt>
      <trkpt lat="43.06691" lon="-4.18397333">
        <ele>1155.0</ele>
        <time>2018-05-19T13:09:04.858Z</time>
      </trkpt>
      <trkpt lat="43.066925" lon="-4.184005">
        <ele>1156.0</ele>
        <time>2018-05-19T13:09:05.868Z</time>
      </trkpt>
      <trkpt lat="43.066925" lon="-4.184005">
        <ele>1156.0</ele>
        <time>2018-05-19T13:09:06.857Z</time>
      </trkpt>
      <trkpt lat="43.06693833" lon="-4.184035">
        <ele>1156.0</ele>
        <time>2018-05-19T13:09:07.867Z</time>
      </trkpt>
      <trkpt lat="43.06693833" lon="-4.184035">
        <ele>1156.0</ele>
        <time>2018-05-19T13:09:08.857Z</time>
      </trkpt>
      <trkpt lat="43.06695" lon="-4.184065">
        <ele>1156.0</ele>
        <time>2018-05-19T13:09:09.877Z</time>
      </trkpt>
      <trkpt lat="43.06695" lon="-4.184065">
        <ele>1156.0</ele>
        <time>2018-05-19T13:09:10.865Z</time>
      </trkpt>
      <trkpt lat="43.06696167" lon="-4.1841">
        <ele>1156.0</ele>
        <time>2018-05-19T13:09:11.868Z</time>
      </trkpt>
      <trkpt lat="43.06696167" lon="-4.1841">
        <ele>1156.0</ele>
        <time>2018-05-19T13:09:12.857Z</time>
      </trkpt>
      <trkpt lat="43.066975" lon="-4.18413167">
        <ele>1157.0</ele>
        <time>2018-05-19T13:09:13.875Z</time>
      </trkpt>
      <trkpt lat="43.06698" lon="-4.18414833">
        <ele>1157.0</ele>
        <time>2018-05-19T13:09:14.867Z</time>
      </trkpt>
      <trkpt lat="43.06698" lon="-4.18416167">
        <ele>1157.0</ele>
        <time>2018-05-19T13:09:15.861Z</time>
      </trkpt>
      <trkpt lat="43.06698" lon="-4.18416167">
        <ele>1157.0</ele>
        <time>2018-05-19T13:09:16.857Z</time>
      </trkpt>
      <trkpt lat="43.06698667" lon="-4.18419167">
        <ele>1158.0</ele>
        <time>2018-05-19T13:09:17.879Z</time>
      </trkpt>
      <trkpt lat="43.06698667" lon="-4.18419167">
        <ele>1158.0</ele>
        <time>2018-05-19T13:09:18.864Z</time>
      </trkpt>
      <trkpt lat="43.06699" lon="-4.18422333">
        <ele>1158.0</ele>
        <time>2018-05-19T13:09:19.867Z</time>
      </trkpt>
      <trkpt lat="43.06699" lon="-4.18422333">
        <ele>1158.0</ele>
        <time>2018-05-19T13:09:20.860Z</time>
      </trkpt>
      <trkpt lat="43.06699333" lon="-4.18425167">
        <ele>1158.0</ele>
        <time>2018-05-19T13:09:21.869Z</time>
      </trkpt>
      <trkpt lat="43.06699333" lon="-4.18425167">
        <ele>1158.0</ele>
        <time>2018-05-19T13:09:22.885Z</time>
      </trkpt>
      <trkpt lat="43.06700167" lon="-4.18427667">
        <ele>1159.0</ele>
        <time>2018-05-19T13:09:23.868Z</time>
      </trkpt>
      <trkpt lat="43.06700167" lon="-4.18427667">
        <ele>1159.0</ele>
        <time>2018-05-19T13:09:24.858Z</time>
      </trkpt>
      <trkpt lat="43.06700333" lon="-4.18430667">
        <ele>1159.0</ele>
        <time>2018-05-19T13:09:25.867Z</time>
      </trkpt>
      <trkpt lat="43.06700333" lon="-4.18430667">
        <ele>1159.0</ele>
        <time>2018-05-19T13:09:26.857Z</time>
      </trkpt>
      <trkpt lat="43.06700667" lon="-4.18433833">
        <ele>1160.0</ele>
        <time>2018-05-19T13:09:27.871Z</time>
      </trkpt>
      <trkpt lat="43.06700667" lon="-4.18433833">
        <ele>1160.0</ele>
        <time>2018-05-19T13:09:28.865Z</time>
      </trkpt>
      <trkpt lat="43.06701833" lon="-4.18437333">
        <ele>1160.0</ele>
        <time>2018-05-19T13:09:29.868Z</time>
      </trkpt>
      <trkpt lat="43.06701833" lon="-4.18437333">
        <ele>1160.0</ele>
        <time>2018-05-19T13:09:30.857Z</time>
      </trkpt>
      <trkpt lat="43.06701667" lon="-4.18440667">
        <ele>1161.0</ele>
        <time>2018-05-19T13:09:31.883Z</time>
      </trkpt>
      <trkpt lat="43.06701333" lon="-4.18442167">
        <ele>1161.0</ele>
        <time>2018-05-19T13:09:32.870Z</time>
      </trkpt>
      <trkpt lat="43.067015" lon="-4.18443833">
        <ele>1161.0</ele>
        <time>2018-05-19T13:09:33.871Z</time>
      </trkpt>
      <trkpt lat="43.067015" lon="-4.18443833">
        <ele>1161.0</ele>
        <time>2018-05-19T13:09:34.860Z</time>
      </trkpt>
      <trkpt lat="43.067025" lon="-4.184465">
        <ele>1162.0</ele>
        <time>2018-05-19T13:09:35.868Z</time>
      </trkpt>
      <trkpt lat="43.067025" lon="-4.184465">
        <ele>1162.0</ele>
        <time>2018-05-19T13:09:36.856Z</time>
      </trkpt>
      <trkpt lat="43.06703333" lon="-4.1845">
        <ele>1162.0</ele>
        <time>2018-05-19T13:09:37.867Z</time>
      </trkpt>
      <trkpt lat="43.06703333" lon="-4.1845">
        <ele>1162.0</ele>
        <time>2018-05-19T13:09:38.857Z</time>
      </trkpt>
      <trkpt lat="43.06703833" lon="-4.18453">
        <ele>1163.0</ele>
        <time>2018-05-19T13:09:39.869Z</time>
      </trkpt>
      <trkpt lat="43.06703833" lon="-4.18453">
        <ele>1163.0</ele>
        <time>2018-05-19T13:09:40.858Z</time>
      </trkpt>
      <trkpt lat="43.06704167" lon="-4.18455667">
        <ele>1163.0</ele>
        <time>2018-05-19T13:09:41.867Z</time>
      </trkpt>
      <trkpt lat="43.06704167" lon="-4.18455667">
        <ele>1163.0</ele>
        <time>2018-05-19T13:09:42.857Z</time>
      </trkpt>
      <trkpt lat="43.06705" lon="-4.184585">
        <ele>1164.0</ele>
        <time>2018-05-19T13:09:43.866Z</time>
      </trkpt>
      <trkpt lat="43.06705" lon="-4.184585">
        <ele>1164.0</ele>
        <time>2018-05-19T13:09:44.857Z</time>
      </trkpt>
      <trkpt lat="43.06705667" lon="-4.18461">
        <ele>1164.0</ele>
        <time>2018-05-19T13:09:45.849Z</time>
      </trkpt>
      <trkpt lat="43.06706333" lon="-4.18462167">
        <ele>1164.0</ele>
        <time>2018-05-19T13:09:46.864Z</time>
      </trkpt>
      <trkpt lat="43.06706333" lon="-4.18462167">
        <ele>1164.0</ele>
        <time>2018-05-19T13:09:47.852Z</time>
      </trkpt>
      <trkpt lat="43.06706167" lon="-4.18465">
        <ele>1165.0</ele>
        <time>2018-05-19T13:09:48.860Z</time>
      </trkpt>
      <trkpt lat="43.06705833" lon="-4.18466167">
        <ele>1165.0</ele>
        <time>2018-05-19T13:09:49.866Z</time>
      </trkpt>
      <trkpt lat="43.06705833" lon="-4.18466167">
        <ele>1165.0</ele>
        <time>2018-05-19T13:09:50.872Z</time>
      </trkpt>
      <trkpt lat="43.06705333" lon="-4.18468667">
        <ele>1166.0</ele>
        <time>2018-05-19T13:09:51.878Z</time>
      </trkpt>
      <trkpt lat="43.06705333" lon="-4.18468667">
        <ele>1166.0</ele>
        <time>2018-05-19T13:09:52.864Z</time>
      </trkpt>
      <trkpt lat="43.06706" lon="-4.18471">
        <ele>1166.0</ele>
        <time>2018-05-19T13:09:53.869Z</time>
      </trkpt>
      <trkpt lat="43.06706" lon="-4.18471">
        <ele>1166.0</ele>
        <time>2018-05-19T13:09:54.858Z</time>
      </trkpt>
      <trkpt lat="43.06706167" lon="-4.18474167">
        <ele>1167.0</ele>
        <time>2018-05-19T13:09:55.868Z</time>
      </trkpt>
      <trkpt lat="43.06706167" lon="-4.18474167">
        <ele>1167.0</ele>
        <time>2018-05-19T13:09:56.857Z</time>
      </trkpt>
      <trkpt lat="43.067065" lon="-4.18476333">
        <ele>1167.0</ele>
        <time>2018-05-19T13:09:57.877Z</time>
      </trkpt>
      <trkpt lat="43.067065" lon="-4.18476333">
        <ele>1167.0</ele>
        <time>2018-05-19T13:09:58.871Z</time>
      </trkpt>
      <trkpt lat="43.06706667" lon="-4.18478833">
        <ele>1168.0</ele>
        <time>2018-05-19T13:09:59.864Z</time>
      </trkpt>
      <trkpt lat="43.06706667" lon="-4.18478833">
        <ele>1168.0</ele>
        <time>2018-05-19T13:10:00.856Z</time>
      </trkpt>
      <trkpt lat="43.067065" lon="-4.18481667">
        <ele>1169.0</ele>
        <time>2018-05-19T13:10:01.867Z</time>
      </trkpt>
      <trkpt lat="43.067065" lon="-4.18481667">
        <ele>1169.0</ele>
        <time>2018-05-19T13:10:02.857Z</time>
      </trkpt>
      <trkpt lat="43.06706667" lon="-4.18484">
        <ele>1169.0</ele>
        <time>2018-05-19T13:10:03.870Z</time>
      </trkpt>
      <trkpt lat="43.06706667" lon="-4.18484">
        <ele>1169.0</ele>
        <time>2018-05-19T13:10:04.856Z</time>
      </trkpt>
      <trkpt lat="43.06707167" lon="-4.18487333">
        <ele>1170.0</ele>
        <time>2018-05-19T13:10:05.882Z</time>
      </trkpt>
      <trkpt lat="43.067075" lon="-4.18488833">
        <ele>1170.0</ele>
        <time>2018-05-19T13:10:06.868Z</time>
      </trkpt>
      <trkpt lat="43.067075" lon="-4.18488833">
        <ele>1170.0</ele>
        <time>2018-05-19T13:10:07.864Z</time>
      </trkpt>
      <trkpt lat="43.06707667" lon="-4.18492167">
        <ele>1170.0</ele>
        <time>2018-05-19T13:10:08.859Z</time>
      </trkpt>
      <trkpt lat="43.06707833" lon="-4.18494167">
        <ele>1170.0</ele>
        <time>2018-05-19T13:10:09.870Z</time>
      </trkpt>
      <trkpt lat="43.06707833" lon="-4.18494167">
        <ele>1170.0</ele>
        <time>2018-05-19T13:10:10.859Z</time>
      </trkpt>
      <trkpt lat="43.06708167" lon="-4.18498">
        <ele>1171.0</ele>
        <time>2018-05-19T13:10:11.867Z</time>
      </trkpt>
      <trkpt lat="43.06708167" lon="-4.18498">
        <ele>1171.0</ele>
        <time>2018-05-19T13:10:12.856Z</time>
      </trkpt>
      <trkpt lat="43.06709167" lon="-4.18501667">
        <ele>1171.0</ele>
        <time>2018-05-19T13:10:13.858Z</time>
      </trkpt>
      <trkpt lat="43.06709833" lon="-4.18503333">
        <ele>1171.0</ele>
        <time>2018-05-19T13:10:14.867Z</time>
      </trkpt>
      <trkpt lat="43.06709833" lon="-4.18503333">
        <ele>1171.0</ele>
        <time>2018-05-19T13:10:15.860Z</time>
      </trkpt>
      <trkpt lat="43.06710333" lon="-4.18506833">
        <ele>1171.0</ele>
        <time>2018-05-19T13:10:16.868Z</time>
      </trkpt>
      <trkpt lat="43.06710667" lon="-4.18508333">
        <ele>1172.0</ele>
        <time>2018-05-19T13:10:17.877Z</time>
      </trkpt>
      <trkpt lat="43.06710667" lon="-4.18508333">
        <ele>1172.0</ele>
        <time>2018-05-19T13:10:18.864Z</time>
      </trkpt>
      <trkpt lat="43.06711167" lon="-4.18511">
        <ele>1172.0</ele>
        <time>2018-05-19T13:10:19.867Z</time>
      </trkpt>
      <trkpt lat="43.06711167" lon="-4.18511">
        <ele>1172.0</ele>
        <time>2018-05-19T13:10:20.856Z</time>
      </trkpt>
      <trkpt lat="43.06711167" lon="-4.18514667">
        <ele>1172.0</ele>
        <time>2018-05-19T13:10:21.881Z</time>
      </trkpt>
      <trkpt lat="43.06711167" lon="-4.18514667">
        <ele>1172.0</ele>
        <time>2018-05-19T13:10:22.865Z</time>
      </trkpt>
      <trkpt lat="43.06710667" lon="-4.18517833">
        <ele>1172.0</ele>
        <time>2018-05-19T13:10:23.891Z</time>
      </trkpt>
      <trkpt lat="43.06710667" lon="-4.18517833">
        <ele>1172.0</ele>
        <time>2018-05-19T13:10:24.856Z</time>
      </trkpt>
      <trkpt lat="43.06710167" lon="-4.185205">
        <ele>1173.0</ele>
        <time>2018-05-19T13:10:25.882Z</time>
      </trkpt>
      <trkpt lat="43.06709833" lon="-4.18522">
        <ele>1173.0</ele>
        <time>2018-05-19T13:10:26.870Z</time>
      </trkpt>
      <trkpt lat="43.06709833" lon="-4.18522">
        <ele>1173.0</ele>
        <time>2018-05-19T13:10:27.860Z</time>
      </trkpt>
      <trkpt lat="43.06708833" lon="-4.18524667">
        <ele>1173.0</ele>
        <time>2018-05-19T13:10:28.859Z</time>
      </trkpt>
      <trkpt lat="43.06708333" lon="-4.185255">
        <ele>1173.0</ele>
        <time>2018-05-19T13:10:29.869Z</time>
      </trkpt>
      <trkpt lat="43.06708333" lon="-4.185255">
        <ele>1173.0</ele>
        <time>2018-05-19T13:10:30.859Z</time>
      </trkpt>
      <trkpt lat="43.06706833" lon="-4.185275">
        <ele>1173.0</ele>
        <time>2018-05-19T13:10:31.866Z</time>
      </trkpt>
      <trkpt lat="43.06706833" lon="-4.185275">
        <ele>1173.0</ele>
        <time>2018-05-19T13:10:32.857Z</time>
      </trkpt>
      <trkpt lat="43.06704833" lon="-4.18529">
        <ele>1174.0</ele>
        <time>2018-05-19T13:10:33.871Z</time>
      </trkpt>
      <trkpt lat="43.06704833" lon="-4.18529">
        <ele>1174.0</ele>
        <time>2018-05-19T13:10:34.864Z</time>
      </trkpt>
      <trkpt lat="43.06703" lon="-4.18530167">
        <ele>1174.0</ele>
        <time>2018-05-19T13:10:35.869Z</time>
      </trkpt>
      <trkpt lat="43.06703" lon="-4.18530167">
        <ele>1174.0</ele>
        <time>2018-05-19T13:10:36.857Z</time>
      </trkpt>
      <trkpt lat="43.06700833" lon="-4.18530833">
        <ele>1174.0</ele>
        <time>2018-05-19T13:10:37.882Z</time>
      </trkpt>
      <trkpt lat="43.06699667" lon="-4.18531167">
        <ele>1175.0</ele>
        <time>2018-05-19T13:10:38.871Z</time>
      </trkpt>
      <trkpt lat="43.066985" lon="-4.18531333">
        <ele>1175.0</ele>
        <time>2018-05-19T13:10:39.868Z</time>
      </trkpt>
      <trkpt lat="43.066985" lon="-4.18531333">
        <ele>1175.0</ele>
        <time>2018-05-19T13:10:40.857Z</time>
      </trkpt>
      <trkpt lat="43.06696667" lon="-4.185315">
        <ele>1175.0</ele>
        <time>2018-05-19T13:10:41.867Z</time>
      </trkpt>
      <trkpt lat="43.06696667" lon="-4.185315">
        <ele>1175.0</ele>
        <time>2018-05-19T13:10:42.858Z</time>
      </trkpt>
      <trkpt lat="43.06694667" lon="-4.18531333">
        <ele>1175.0</ele>
        <time>2018-05-19T13:10:43.866Z</time>
      </trkpt>
      <trkpt lat="43.06694667" lon="-4.18531333">
        <ele>1175.0</ele>
        <time>2018-05-19T13:10:44.856Z</time>
      </trkpt>
      <trkpt lat="43.06693333" lon="-4.18533">
        <ele>1175.0</ele>
        <time>2018-05-19T13:10:45.847Z</time>
      </trkpt>
      <trkpt lat="43.066925" lon="-4.18531333">
        <ele>1175.0</ele>
        <time>2018-05-19T13:10:46.879Z</time>
      </trkpt>
      <trkpt lat="43.066915" lon="-4.18530833">
        <ele>1175.0</ele>
        <time>2018-05-19T13:10:47.869Z</time>
      </trkpt>
      <trkpt lat="43.066915" lon="-4.18530833">
        <ele>1175.0</ele>
        <time>2018-05-19T13:10:48.857Z</time>
      </trkpt>
      <trkpt lat="43.06689667" lon="-4.18529833">
        <ele>1176.0</ele>
        <time>2018-05-19T13:10:49.876Z</time>
      </trkpt>
      <trkpt lat="43.06689667" lon="-4.18529833">
        <ele>1176.0</ele>
        <time>2018-05-19T13:10:50.864Z</time>
      </trkpt>
      <trkpt lat="43.06687667" lon="-4.18528333">
        <ele>1176.0</ele>
        <time>2018-05-19T13:10:51.871Z</time>
      </trkpt>
      <trkpt lat="43.06687667" lon="-4.18528333">
        <ele>1176.0</ele>
        <time>2018-05-19T13:10:52.864Z</time>
      </trkpt>
      <trkpt lat="43.06685833" lon="-4.185275">
        <ele>1176.0</ele>
        <time>2018-05-19T13:10:53.867Z</time>
      </trkpt>
      <trkpt lat="43.06685833" lon="-4.185275">
        <ele>1176.0</ele>
        <time>2018-05-19T13:10:54.864Z</time>
      </trkpt>
      <trkpt lat="43.06683833" lon="-4.18526333">
        <ele>1176.0</ele>
        <time>2018-05-19T13:10:55.868Z</time>
      </trkpt>
      <trkpt lat="43.06683833" lon="-4.18526333">
        <ele>1176.0</ele>
        <time>2018-05-19T13:10:56.856Z</time>
      </trkpt>
      <trkpt lat="43.06682" lon="-4.185245">
        <ele>1177.0</ele>
        <time>2018-05-19T13:10:57.844Z</time>
      </trkpt>
      <trkpt lat="43.06682" lon="-4.185245">
        <ele>1177.0</ele>
        <time>2018-05-19T13:10:58.869Z</time>
      </trkpt>
      <trkpt lat="43.06680333" lon="-4.18523333">
        <ele>1176.0</ele>
        <time>2018-05-19T13:10:59.869Z</time>
      </trkpt>
      <trkpt lat="43.06680333" lon="-4.18523333">
        <ele>1176.0</ele>
        <time>2018-05-19T13:11:00.857Z</time>
      </trkpt>
      <trkpt lat="43.06678667" lon="-4.18521667">
        <ele>1177.0</ele>
        <time>2018-05-19T13:11:01.868Z</time>
      </trkpt>
      <trkpt lat="43.06678667" lon="-4.18521667">
        <ele>1177.0</ele>
        <time>2018-05-19T13:11:02.857Z</time>
      </trkpt>
      <trkpt lat="43.06676667" lon="-4.18520833">
        <ele>1177.0</ele>
        <time>2018-05-19T13:11:03.871Z</time>
      </trkpt>
      <trkpt lat="43.06676667" lon="-4.18520833">
        <ele>1177.0</ele>
        <time>2018-05-19T13:11:04.860Z</time>
      </trkpt>
      <trkpt lat="43.06674833" lon="-4.18519833">
        <ele>1177.0</ele>
        <time>2018-05-19T13:11:05.869Z</time>
      </trkpt>
      <trkpt lat="43.06674833" lon="-4.18519833">
        <ele>1177.0</ele>
        <time>2018-05-19T13:11:06.857Z</time>
      </trkpt>
      <trkpt lat="43.06673" lon="-4.18519">
        <ele>1177.0</ele>
        <time>2018-05-19T13:11:07.883Z</time>
      </trkpt>
      <trkpt lat="43.06673" lon="-4.18519">
        <ele>1177.0</ele>
        <time>2018-05-19T13:11:08.867Z</time>
      </trkpt>
      <trkpt lat="43.06671667" lon="-4.18518167">
        <ele>1178.0</ele>
        <time>2018-05-19T13:11:09.870Z</time>
      </trkpt>
      <trkpt lat="43.06671667" lon="-4.18518167">
        <ele>1178.0</ele>
        <time>2018-05-19T13:11:10.858Z</time>
      </trkpt>
      <trkpt lat="43.06670167" lon="-4.185175">
        <ele>1177.0</ele>
        <time>2018-05-19T13:11:11.883Z</time>
      </trkpt>
      <trkpt lat="43.06670167" lon="-4.185175">
        <ele>1177.0</ele>
        <time>2018-05-19T13:11:12.879Z</time>
      </trkpt>
      <trkpt lat="43.06668333" lon="-4.185165">
        <ele>1178.0</ele>
        <time>2018-05-19T13:11:13.868Z</time>
      </trkpt>
      <trkpt lat="43.06668333" lon="-4.185165">
        <ele>1178.0</ele>
        <time>2018-05-19T13:11:14.856Z</time>
      </trkpt>
      <trkpt lat="43.066665" lon="-4.185155">
        <ele>1178.0</ele>
        <time>2018-05-19T13:11:15.883Z</time>
      </trkpt>
      <trkpt lat="43.066665" lon="-4.185155">
        <ele>1178.0</ele>
        <time>2018-05-19T13:11:16.868Z</time>
      </trkpt>
      <trkpt lat="43.06665" lon="-4.18514">
        <ele>1178.0</ele>
        <time>2018-05-19T13:11:17.861Z</time>
      </trkpt>
      <trkpt lat="43.06664167" lon="-4.18513">
        <ele>1178.0</ele>
        <time>2018-05-19T13:11:18.859Z</time>
      </trkpt>
      <trkpt lat="43.06663333" lon="-4.18512">
        <ele>1178.0</ele>
        <time>2018-05-19T13:11:19.867Z</time>
      </trkpt>
      <trkpt lat="43.06663333" lon="-4.18512">
        <ele>1178.0</ele>
        <time>2018-05-19T13:11:20.857Z</time>
      </trkpt>
      <trkpt lat="43.06662" lon="-4.18510833">
        <ele>1178.0</ele>
        <time>2018-05-19T13:11:21.870Z</time>
      </trkpt>
      <trkpt lat="43.06662" lon="-4.18510833">
        <ele>1178.0</ele>
        <time>2018-05-19T13:11:22.858Z</time>
      </trkpt>
      <trkpt lat="43.06660333" lon="-4.18509">
        <ele>1178.0</ele>
        <time>2018-05-19T13:11:23.867Z</time>
      </trkpt>
      <trkpt lat="43.06660333" lon="-4.18509">
        <ele>1178.0</ele>
        <time>2018-05-19T13:11:24.864Z</time>
      </trkpt>
      <trkpt lat="43.06659" lon="-4.18507333">
        <ele>1178.0</ele>
        <time>2018-05-19T13:11:25.860Z</time>
      </trkpt>
      <trkpt lat="43.06659" lon="-4.18507333">
        <ele>1178.0</ele>
        <time>2018-05-19T13:11:26.857Z</time>
      </trkpt>
      <trkpt lat="43.066575" lon="-4.18506">
        <ele>1178.0</ele>
        <time>2018-05-19T13:11:27.883Z</time>
      </trkpt>
      <trkpt lat="43.06656667" lon="-4.18505667">
        <ele>1178.0</ele>
        <time>2018-05-19T13:11:28.869Z</time>
      </trkpt>
      <trkpt lat="43.06656667" lon="-4.18505667">
        <ele>1178.0</ele>
        <time>2018-05-19T13:11:29.864Z</time>
      </trkpt>
      <trkpt lat="43.06655833" lon="-4.18505">
        <ele>1178.0</ele>
        <time>2018-05-19T13:11:30.877Z</time>
      </trkpt>
      <trkpt lat="43.06655833" lon="-4.18505">
        <ele>1178.0</ele>
        <time>2018-05-19T13:11:31.865Z</time>
      </trkpt>
      <trkpt lat="43.06655667" lon="-4.185045">
        <ele>1179.0</ele>
        <time>2018-05-19T13:11:32.866Z</time>
      </trkpt>
      <trkpt lat="43.06655333" lon="-4.18504667">
        <ele>1179.0</ele>
        <time>2018-05-19T13:11:33.878Z</time>
      </trkpt>
      <trkpt lat="43.06655333" lon="-4.18504667">
        <ele>1179.0</ele>
        <time>2018-05-19T13:11:34.867Z</time>
      </trkpt>
      <trkpt lat="43.06651" lon="-4.18508667">
        <ele>1186.0</ele>
        <time>2018-05-19T13:11:35.849Z</time>
      </trkpt>
      <trkpt lat="43.06651" lon="-4.18508667">
        <ele>1186.0</ele>
        <time>2018-05-19T13:11:36.870Z</time>
      </trkpt>
      <trkpt lat="43.06650667" lon="-4.18504833">
        <ele>1186.0</ele>
        <time>2018-05-19T13:11:37.871Z</time>
      </trkpt>
      <trkpt lat="43.0665" lon="-4.18502833">
        <ele>1186.0</ele>
        <time>2018-05-19T13:11:38.877Z</time>
      </trkpt>
      <trkpt lat="43.0665" lon="-4.18502833">
        <ele>1186.0</ele>
        <time>2018-05-19T13:11:39.870Z</time>
      </trkpt>
      <trkpt lat="43.06649167" lon="-4.185">
        <ele>1186.0</ele>
        <time>2018-05-19T13:11:40.872Z</time>
      </trkpt>
      <trkpt lat="43.06648667" lon="-4.18498833">
        <ele>1186.0</ele>
        <time>2018-05-19T13:11:41.875Z</time>
      </trkpt>
      <trkpt lat="43.06648667" lon="-4.18498833">
        <ele>1186.0</ele>
        <time>2018-05-19T13:11:42.870Z</time>
      </trkpt>
      <trkpt lat="43.06647833" lon="-4.18496833">
        <ele>1185.0</ele>
        <time>2018-05-19T13:11:43.875Z</time>
      </trkpt>
      <trkpt lat="43.066475" lon="-4.18495667">
        <ele>1185.0</ele>
        <time>2018-05-19T13:11:44.849Z</time>
      </trkpt>
      <trkpt lat="43.066475" lon="-4.18495667">
        <ele>1185.0</ele>
        <time>2018-05-19T13:11:45.874Z</time>
      </trkpt>
      <trkpt lat="43.06646333" lon="-4.18493667">
        <ele>1184.0</ele>
        <time>2018-05-19T13:11:46.883Z</time>
      </trkpt>
      <trkpt lat="43.06646333" lon="-4.18493667">
        <ele>1184.0</ele>
        <time>2018-05-19T13:11:47.849Z</time>
      </trkpt>
      <trkpt lat="43.06644833" lon="-4.18491833">
        <ele>1183.0</ele>
        <time>2018-05-19T13:11:48.855Z</time>
      </trkpt>
      <trkpt lat="43.06643833" lon="-4.18491">
        <ele>1183.0</ele>
        <time>2018-05-19T13:11:49.863Z</time>
      </trkpt>
      <trkpt lat="43.06642833" lon="-4.18490333">
        <ele>1183.0</ele>
        <time>2018-05-19T13:11:50.849Z</time>
      </trkpt>
      <trkpt lat="43.06642833" lon="-4.18490333">
        <ele>1183.0</ele>
        <time>2018-05-19T13:11:51.881Z</time>
      </trkpt>
      <trkpt lat="43.06640833" lon="-4.18488833">
        <ele>1182.0</ele>
        <time>2018-05-19T13:11:52.874Z</time>
      </trkpt>
      <trkpt lat="43.06639667" lon="-4.18488167">
        <ele>1182.0</ele>
        <time>2018-05-19T13:11:53.875Z</time>
      </trkpt>
      <trkpt lat="43.066385" lon="-4.18487667">
        <ele>1182.0</ele>
        <time>2018-05-19T13:11:54.858Z</time>
      </trkpt>
      <trkpt lat="43.066385" lon="-4.18487667">
        <ele>1182.0</ele>
        <time>2018-05-19T13:11:55.846Z</time>
      </trkpt>
      <trkpt lat="43.066365" lon="-4.18486667">
        <ele>1181.0</ele>
        <time>2018-05-19T13:11:56.877Z</time>
      </trkpt>
      <trkpt lat="43.066365" lon="-4.18486667">
        <ele>1181.0</ele>
        <time>2018-05-19T13:11:57.875Z</time>
      </trkpt>
      <trkpt lat="43.06634333" lon="-4.18485667">
        <ele>1181.0</ele>
        <time>2018-05-19T13:11:58.875Z</time>
      </trkpt>
      <trkpt lat="43.06634333" lon="-4.18485667">
        <ele>1181.0</ele>
        <time>2018-05-19T13:11:59.872Z</time>
      </trkpt>
      <trkpt lat="43.06632" lon="-4.18485333">
        <ele>1180.0</ele>
        <time>2018-05-19T13:12:00.877Z</time>
      </trkpt>
      <trkpt lat="43.06632" lon="-4.18485333">
        <ele>1180.0</ele>
        <time>2018-05-19T13:12:01.870Z</time>
      </trkpt>
      <trkpt lat="43.06629833" lon="-4.18485333">
        <ele>1180.0</ele>
        <time>2018-05-19T13:12:02.876Z</time>
      </trkpt>
      <trkpt lat="43.06629833" lon="-4.18485333">
        <ele>1180.0</ele>
        <time>2018-05-19T13:12:03.872Z</time>
      </trkpt>
      <trkpt lat="43.06627667" lon="-4.18485167">
        <ele>1180.0</ele>
        <time>2018-05-19T13:12:04.875Z</time>
      </trkpt>
      <trkpt lat="43.06627667" lon="-4.18485167">
        <ele>1180.0</ele>
        <time>2018-05-19T13:12:05.870Z</time>
      </trkpt>
      <trkpt lat="43.066255" lon="-4.18485333">
        <ele>1180.0</ele>
        <time>2018-05-19T13:12:06.877Z</time>
      </trkpt>
      <trkpt lat="43.066255" lon="-4.18485333">
        <ele>1180.0</ele>
        <time>2018-05-19T13:12:07.872Z</time>
      </trkpt>
      <trkpt lat="43.066235" lon="-4.18485667">
        <ele>1179.0</ele>
        <time>2018-05-19T13:12:08.875Z</time>
      </trkpt>
      <trkpt lat="43.066235" lon="-4.18485667">
        <ele>1179.0</ele>
        <time>2018-05-19T13:12:09.870Z</time>
      </trkpt>
      <trkpt lat="43.06621" lon="-4.18486">
        <ele>1180.0</ele>
        <time>2018-05-19T13:12:10.875Z</time>
      </trkpt>
      <trkpt lat="43.06621" lon="-4.18486">
        <ele>1180.0</ele>
        <time>2018-05-19T13:12:11.872Z</time>
      </trkpt>
      <trkpt lat="43.06618167" lon="-4.184865">
        <ele>1180.0</ele>
        <time>2018-05-19T13:12:12.870Z</time>
      </trkpt>
      <trkpt lat="43.06618167" lon="-4.184865">
        <ele>1180.0</ele>
        <time>2018-05-19T13:12:13.872Z</time>
      </trkpt>
      <trkpt lat="43.06618167" lon="-4.184865">
        <ele>1180.0</ele>
        <time>2018-05-19T13:12:14.855Z</time>
      </trkpt>
      <trkpt lat="43.066155" lon="-4.184865">
        <ele>1180.0</ele>
        <time>2018-05-19T13:12:15.875Z</time>
      </trkpt>
      <trkpt lat="43.06613167" lon="-4.184865">
        <ele>1180.0</ele>
        <time>2018-05-19T13:12:16.875Z</time>
      </trkpt>
      <trkpt lat="43.06613167" lon="-4.184865">
        <ele>1180.0</ele>
        <time>2018-05-19T13:12:17.867Z</time>
      </trkpt>
      <trkpt lat="43.06610667" lon="-4.18486167">
        <ele>1180.0</ele>
        <time>2018-05-19T13:12:18.852Z</time>
      </trkpt>
      <trkpt lat="43.06610667" lon="-4.18486167">
        <ele>1180.0</ele>
        <time>2018-05-19T13:12:19.876Z</time>
      </trkpt>
      <trkpt lat="43.06608167" lon="-4.18485833">
        <ele>1180.0</ele>
        <time>2018-05-19T13:12:20.877Z</time>
      </trkpt>
      <trkpt lat="43.06606833" lon="-4.18485833">
        <ele>1180.0</ele>
        <time>2018-05-19T13:12:21.875Z</time>
      </trkpt>
      <trkpt lat="43.06606833" lon="-4.18485833">
        <ele>1180.0</ele>
        <time>2018-05-19T13:12:22.872Z</time>
      </trkpt>
      <trkpt lat="43.06604333" lon="-4.18485833">
        <ele>1180.0</ele>
        <time>2018-05-19T13:12:23.875Z</time>
      </trkpt>
      <trkpt lat="43.06603167" lon="-4.18486">
        <ele>1181.0</ele>
        <time>2018-05-19T13:12:24.877Z</time>
      </trkpt>
      <trkpt lat="43.06603167" lon="-4.18486">
        <ele>1181.0</ele>
        <time>2018-05-19T13:12:25.870Z</time>
      </trkpt>
      <trkpt lat="43.06600833" lon="-4.18486333">
        <ele>1181.0</ele>
        <time>2018-05-19T13:12:26.875Z</time>
      </trkpt>
      <trkpt lat="43.06600833" lon="-4.18486333">
        <ele>1181.0</ele>
        <time>2018-05-19T13:12:27.869Z</time>
      </trkpt>
      <trkpt lat="43.065985" lon="-4.18486167">
        <ele>1181.0</ele>
        <time>2018-05-19T13:12:28.856Z</time>
      </trkpt>
      <trkpt lat="43.065985" lon="-4.18486167">
        <ele>1181.0</ele>
        <time>2018-05-19T13:12:29.876Z</time>
      </trkpt>
      <trkpt lat="43.06596167" lon="-4.18486333">
        <ele>1181.0</ele>
        <time>2018-05-19T13:12:30.877Z</time>
      </trkpt>
      <trkpt lat="43.06596167" lon="-4.18486333">
        <ele>1181.0</ele>
        <time>2018-05-19T13:12:31.870Z</time>
      </trkpt>
      <trkpt lat="43.06594167" lon="-4.18487167">
        <ele>1181.0</ele>
        <time>2018-05-19T13:12:32.876Z</time>
      </trkpt>
      <trkpt lat="43.06594167" lon="-4.18487167">
        <ele>1181.0</ele>
        <time>2018-05-19T13:12:33.872Z</time>
      </trkpt>
      <trkpt lat="43.06591833" lon="-4.18488333">
        <ele>1181.0</ele>
        <time>2018-05-19T13:12:34.874Z</time>
      </trkpt>
      <trkpt lat="43.06591833" lon="-4.18488333">
        <ele>1181.0</ele>
        <time>2018-05-19T13:12:35.872Z</time>
      </trkpt>
      <trkpt lat="43.06589833" lon="-4.18489333">
        <ele>1181.0</ele>
        <time>2018-05-19T13:12:36.872Z</time>
      </trkpt>
      <trkpt lat="43.06589833" lon="-4.18489333">
        <ele>1181.0</ele>
        <time>2018-05-19T13:12:37.872Z</time>
      </trkpt>
      <trkpt lat="43.06588" lon="-4.18490833">
        <ele>1181.0</ele>
        <time>2018-05-19T13:12:38.851Z</time>
      </trkpt>
      <trkpt lat="43.06588" lon="-4.18490833">
        <ele>1181.0</ele>
        <time>2018-05-19T13:12:39.847Z</time>
      </trkpt>
      <trkpt lat="43.065865" lon="-4.18493167">
        <ele>1181.0</ele>
        <time>2018-05-19T13:12:40.875Z</time>
      </trkpt>
      <trkpt lat="43.065865" lon="-4.18493167">
        <ele>1181.0</ele>
        <time>2018-05-19T13:12:41.872Z</time>
      </trkpt>
      <trkpt lat="43.06585333" lon="-4.18495333">
        <ele>1180.0</ele>
        <time>2018-05-19T13:12:42.876Z</time>
      </trkpt>
      <trkpt lat="43.06584833" lon="-4.184965">
        <ele>1180.0</ele>
        <time>2018-05-19T13:12:43.876Z</time>
      </trkpt>
      <trkpt lat="43.06584833" lon="-4.184965">
        <ele>1180.0</ele>
        <time>2018-05-19T13:12:44.854Z</time>
      </trkpt>
      <trkpt lat="43.06584167" lon="-4.18497833">
        <ele>1179.0</ele>
        <time>2018-05-19T13:12:45.882Z</time>
      </trkpt>
      <trkpt lat="43.06583167" lon="-4.185005">
        <ele>1179.0</ele>
        <time>2018-05-19T13:12:46.863Z</time>
      </trkpt>
      <trkpt lat="43.06583167" lon="-4.185005">
        <ele>1179.0</ele>
        <time>2018-05-19T13:12:47.870Z</time>
      </trkpt>
      <trkpt lat="43.06582333" lon="-4.18503167">
        <ele>1178.0</ele>
        <time>2018-05-19T13:12:48.875Z</time>
      </trkpt>
      <trkpt lat="43.06581833" lon="-4.185045">
        <ele>1178.0</ele>
        <time>2018-05-19T13:12:49.881Z</time>
      </trkpt>
      <trkpt lat="43.06581333" lon="-4.185055">
        <ele>1178.0</ele>
        <time>2018-05-19T13:12:50.875Z</time>
      </trkpt>
      <trkpt lat="43.06581333" lon="-4.185055">
        <ele>1178.0</ele>
        <time>2018-05-19T13:12:51.844Z</time>
      </trkpt>
      <trkpt lat="43.06581" lon="-4.18508167">
        <ele>1177.0</ele>
        <time>2018-05-19T13:12:52.876Z</time>
      </trkpt>
      <trkpt lat="43.06581" lon="-4.18508167">
        <ele>1177.0</ele>
        <time>2018-05-19T13:12:53.870Z</time>
      </trkpt>
      <trkpt lat="43.065805" lon="-4.18512167">
        <ele>1176.0</ele>
        <time>2018-05-19T13:12:54.877Z</time>
      </trkpt>
      <trkpt lat="43.065805" lon="-4.18512167">
        <ele>1176.0</ele>
        <time>2018-05-19T13:12:55.869Z</time>
      </trkpt>
      <trkpt lat="43.06579833" lon="-4.18515">
        <ele>1176.0</ele>
        <time>2018-05-19T13:12:56.876Z</time>
      </trkpt>
      <trkpt lat="43.06579833" lon="-4.18515">
        <ele>1176.0</ele>
        <time>2018-05-19T13:12:57.872Z</time>
      </trkpt>
      <trkpt lat="43.06578667" lon="-4.185165">
        <ele>1176.0</ele>
        <time>2018-05-19T13:12:58.875Z</time>
      </trkpt>
      <trkpt lat="43.06578667" lon="-4.185165">
        <ele>1176.0</ele>
        <time>2018-05-19T13:12:59.870Z</time>
      </trkpt>
      <trkpt lat="43.06577833" lon="-4.18518333">
        <ele>1176.0</ele>
        <time>2018-05-19T13:13:00.872Z</time>
      </trkpt>
      <trkpt lat="43.06577833" lon="-4.18518333">
        <ele>1176.0</ele>
        <time>2018-05-19T13:13:01.870Z</time>
      </trkpt>
      <trkpt lat="43.06576667" lon="-4.18520833">
        <ele>1176.0</ele>
        <time>2018-05-19T13:13:02.860Z</time>
      </trkpt>
      <trkpt lat="43.06576167" lon="-4.18522">
        <ele>1175.0</ele>
        <time>2018-05-19T13:13:03.852Z</time>
      </trkpt>
      <trkpt lat="43.06576167" lon="-4.18522">
        <ele>1175.0</ele>
        <time>2018-05-19T13:13:04.877Z</time>
      </trkpt>
      <trkpt lat="43.06575333" lon="-4.18525167">
        <ele>1175.0</ele>
        <time>2018-05-19T13:13:05.874Z</time>
      </trkpt>
      <trkpt lat="43.06574667" lon="-4.18526667">
        <ele>1175.0</ele>
        <time>2018-05-19T13:13:06.877Z</time>
      </trkpt>
      <trkpt lat="43.06574667" lon="-4.18526667">
        <ele>1175.0</ele>
        <time>2018-05-19T13:13:07.874Z</time>
      </trkpt>
      <trkpt lat="43.06573667" lon="-4.18529833">
        <ele>1175.0</ele>
        <time>2018-05-19T13:13:08.875Z</time>
      </trkpt>
      <trkpt lat="43.06573667" lon="-4.18529833">
        <ele>1175.0</ele>
        <time>2018-05-19T13:13:09.872Z</time>
      </trkpt>
      <trkpt lat="43.065725" lon="-4.18533333">
        <ele>1175.0</ele>
        <time>2018-05-19T13:13:10.874Z</time>
      </trkpt>
      <trkpt lat="43.065725" lon="-4.18533333">
        <ele>1175.0</ele>
        <time>2018-05-19T13:13:11.872Z</time>
      </trkpt>
      <trkpt lat="43.06571833" lon="-4.18536833">
        <ele>1175.0</ele>
        <time>2018-05-19T13:13:12.844Z</time>
      </trkpt>
      <trkpt lat="43.065715" lon="-4.185385">
        <ele>1175.0</ele>
        <time>2018-05-19T13:13:13.874Z</time>
      </trkpt>
      <trkpt lat="43.06571333" lon="-4.185405">
        <ele>1175.0</ele>
        <time>2018-05-19T13:13:14.875Z</time>
      </trkpt>
      <trkpt lat="43.06571333" lon="-4.185405">
        <ele>1175.0</ele>
        <time>2018-05-19T13:13:15.873Z</time>
      </trkpt>
      <trkpt lat="43.06571333" lon="-4.185405">
        <ele>1175.0</ele>
        <time>2018-05-19T13:13:16.856Z</time>
      </trkpt>
      <trkpt lat="43.06570333" lon="-4.185455">
        <ele>1175.0</ele>
        <time>2018-05-19T13:13:17.872Z</time>
      </trkpt>
      <trkpt lat="43.06570333" lon="-4.185455">
        <ele>1175.0</ele>
        <time>2018-05-19T13:13:18.857Z</time>
      </trkpt>
      <trkpt lat="43.06569333" lon="-4.18547833">
        <ele>1175.0</ele>
        <time>2018-05-19T13:13:19.845Z</time>
      </trkpt>
      <trkpt lat="43.06568833" lon="-4.18549167">
        <ele>1175.0</ele>
        <time>2018-05-19T13:13:20.875Z</time>
      </trkpt>
      <trkpt lat="43.06568833" lon="-4.18549167">
        <ele>1175.0</ele>
        <time>2018-05-19T13:13:21.871Z</time>
      </trkpt>
      <trkpt lat="43.065675" lon="-4.18551833">
        <ele>1175.0</ele>
        <time>2018-05-19T13:13:22.855Z</time>
      </trkpt>
      <trkpt lat="43.06567333" lon="-4.185545">
        <ele>1175.0</ele>
        <time>2018-05-19T13:13:23.877Z</time>
      </trkpt>
      <trkpt lat="43.06567333" lon="-4.185545">
        <ele>1175.0</ele>
        <time>2018-05-19T13:13:24.870Z</time>
      </trkpt>
      <trkpt lat="43.065665" lon="-4.185585">
        <ele>1175.0</ele>
        <time>2018-05-19T13:13:25.872Z</time>
      </trkpt>
      <trkpt lat="43.06565667" lon="-4.1856">
        <ele>1175.0</ele>
        <time>2018-05-19T13:13:26.873Z</time>
      </trkpt>
      <trkpt lat="43.06565667" lon="-4.1856">
        <ele>1175.0</ele>
        <time>2018-05-19T13:13:27.855Z</time>
      </trkpt>
      <trkpt lat="43.06564167" lon="-4.18563">
        <ele>1175.0</ele>
        <time>2018-05-19T13:13:28.845Z</time>
      </trkpt>
      <trkpt lat="43.065635" lon="-4.18564667">
        <ele>1175.0</ele>
        <time>2018-05-19T13:13:29.874Z</time>
      </trkpt>
      <trkpt lat="43.065635" lon="-4.18564667">
        <ele>1175.0</ele>
        <time>2018-05-19T13:13:30.872Z</time>
      </trkpt>
      <trkpt lat="43.06562167" lon="-4.18567167">
        <ele>1175.0</ele>
        <time>2018-05-19T13:13:31.874Z</time>
      </trkpt>
      <trkpt lat="43.06561333" lon="-4.185685">
        <ele>1175.0</ele>
        <time>2018-05-19T13:13:32.876Z</time>
      </trkpt>
      <trkpt lat="43.06561333" lon="-4.185685">
        <ele>1175.0</ele>
        <time>2018-05-19T13:13:33.872Z</time>
      </trkpt>
      <trkpt lat="43.06560333" lon="-4.18571">
        <ele>1176.0</ele>
        <time>2018-05-19T13:13:34.874Z</time>
      </trkpt>
      <trkpt lat="43.06560333" lon="-4.18571">
        <ele>1176.0</ele>
        <time>2018-05-19T13:13:35.872Z</time>
      </trkpt>
      <trkpt lat="43.06559667" lon="-4.18572667">
        <ele>1176.0</ele>
        <time>2018-05-19T13:13:36.877Z</time>
      </trkpt>
      <trkpt lat="43.065595" lon="-4.18572833">
        <ele>1176.0</ele>
        <time>2018-05-19T13:13:37.875Z</time>
      </trkpt>
      <trkpt lat="43.065595" lon="-4.18572833">
        <ele>1176.0</ele>
        <time>2018-05-19T13:13:38.874Z</time>
      </trkpt>
      <trkpt lat="43.06559333" lon="-4.18572833">
        <ele>1176.0</ele>
        <time>2018-05-19T13:13:39.874Z</time>
      </trkpt>
      <trkpt lat="43.06559333" lon="-4.18572833">
        <ele>1176.0</ele>
        <time>2018-05-19T13:13:40.874Z</time>
      </trkpt>
      <trkpt lat="43.06555667" lon="-4.18579667">
        <ele>1177.0</ele>
        <time>2018-05-19T13:13:41.866Z</time>
      </trkpt>
      <trkpt lat="43.06555667" lon="-4.18579667">
        <ele>1177.0</ele>
        <time>2018-05-19T13:13:42.862Z</time>
      </trkpt>
      <trkpt lat="43.06553167" lon="-4.18582167">
        <ele>1177.0</ele>
        <time>2018-05-19T13:13:43.863Z</time>
      </trkpt>
      <trkpt lat="43.06553167" lon="-4.18582167">
        <ele>1177.0</ele>
        <time>2018-05-19T13:13:44.861Z</time>
      </trkpt>
      <trkpt lat="43.06550833" lon="-4.18585167">
        <ele>1177.0</ele>
        <time>2018-05-19T13:13:45.847Z</time>
      </trkpt>
      <trkpt lat="43.0655" lon="-4.18587167">
        <ele>1177.0</ele>
        <time>2018-05-19T13:13:46.856Z</time>
      </trkpt>
      <trkpt lat="43.0655" lon="-4.18587167">
        <ele>1177.0</ele>
        <time>2018-05-19T13:13:47.863Z</time>
      </trkpt>
      <trkpt lat="43.06546833" lon="-4.18589333">
        <ele>1178.0</ele>
        <time>2018-05-19T13:13:48.869Z</time>
      </trkpt>
      <trkpt lat="43.06546833" lon="-4.18589333">
        <ele>1178.0</ele>
        <time>2018-05-19T13:13:49.875Z</time>
      </trkpt>
      <trkpt lat="43.065445" lon="-4.18591333">
        <ele>1178.0</ele>
        <time>2018-05-19T13:13:50.881Z</time>
      </trkpt>
      <trkpt lat="43.06543333" lon="-4.18592333">
        <ele>1178.0</ele>
        <time>2018-05-19T13:13:51.868Z</time>
      </trkpt>
      <trkpt lat="43.06543333" lon="-4.18592333">
        <ele>1178.0</ele>
        <time>2018-05-19T13:13:52.863Z</time>
      </trkpt>
      <trkpt lat="43.06541" lon="-4.18593667">
        <ele>1178.0</ele>
        <time>2018-05-19T13:13:53.879Z</time>
      </trkpt>
      <trkpt lat="43.06541" lon="-4.18593667">
        <ele>1178.0</ele>
        <time>2018-05-19T13:13:54.867Z</time>
      </trkpt>
      <trkpt lat="43.06538667" lon="-4.185955">
        <ele>1178.0</ele>
        <time>2018-05-19T13:13:55.870Z</time>
      </trkpt>
      <trkpt lat="43.06538667" lon="-4.185955">
        <ele>1178.0</ele>
        <time>2018-05-19T13:13:56.865Z</time>
      </trkpt>
      <trkpt lat="43.06536333" lon="-4.18597">
        <ele>1178.0</ele>
        <time>2018-05-19T13:13:57.866Z</time>
      </trkpt>
      <trkpt lat="43.06536333" lon="-4.18597">
        <ele>1178.0</ele>
        <time>2018-05-19T13:13:58.861Z</time>
      </trkpt>
      <trkpt lat="43.06534" lon="-4.18598667">
        <ele>1179.0</ele>
        <time>2018-05-19T13:13:59.858Z</time>
      </trkpt>
      <trkpt lat="43.06533" lon="-4.185995">
        <ele>1179.0</ele>
        <time>2018-05-19T13:14:00.866Z</time>
      </trkpt>
      <trkpt lat="43.06533" lon="-4.185995">
        <ele>1179.0</ele>
        <time>2018-05-19T13:14:01.860Z</time>
      </trkpt>
      <trkpt lat="43.065305" lon="-4.18600833">
        <ele>1179.0</ele>
        <time>2018-05-19T13:14:02.865Z</time>
      </trkpt>
      <trkpt lat="43.06529167" lon="-4.18601667">
        <ele>1179.0</ele>
        <time>2018-05-19T13:14:03.876Z</time>
      </trkpt>
      <trkpt lat="43.06529167" lon="-4.18601667">
        <ele>1179.0</ele>
        <time>2018-05-19T13:14:04.872Z</time>
      </trkpt>
      <trkpt lat="43.06526833" lon="-4.186035">
        <ele>1179.0</ele>
        <time>2018-05-19T13:14:05.866Z</time>
      </trkpt>
      <trkpt lat="43.06526833" lon="-4.186035">
        <ele>1179.0</ele>
        <time>2018-05-19T13:14:06.865Z</time>
      </trkpt>
      <trkpt lat="43.065245" lon="-4.186055">
        <ele>1180.0</ele>
        <time>2018-05-19T13:14:07.865Z</time>
      </trkpt>
      <trkpt lat="43.065245" lon="-4.186055">
        <ele>1180.0</ele>
        <time>2018-05-19T13:14:08.863Z</time>
      </trkpt>
      <trkpt lat="43.06522167" lon="-4.18607667">
        <ele>1180.0</ele>
        <time>2018-05-19T13:14:09.860Z</time>
      </trkpt>
      <trkpt lat="43.06521" lon="-4.18608667">
        <ele>1180.0</ele>
        <time>2018-05-19T13:14:10.866Z</time>
      </trkpt>
      <trkpt lat="43.06519833" lon="-4.18609667">
        <ele>1180.0</ele>
        <time>2018-05-19T13:14:11.866Z</time>
      </trkpt>
      <trkpt lat="43.06519833" lon="-4.18609667">
        <ele>1180.0</ele>
        <time>2018-05-19T13:14:12.862Z</time>
      </trkpt>
      <trkpt lat="43.065175" lon="-4.18612167">
        <ele>1181.0</ele>
        <time>2018-05-19T13:14:13.863Z</time>
      </trkpt>
      <trkpt lat="43.065175" lon="-4.18612167">
        <ele>1181.0</ele>
        <time>2018-05-19T13:14:14.860Z</time>
      </trkpt>
      <trkpt lat="43.06515" lon="-4.18614333">
        <ele>1181.0</ele>
        <time>2018-05-19T13:14:15.868Z</time>
      </trkpt>
      <trkpt lat="43.06515" lon="-4.18614333">
        <ele>1181.0</ele>
        <time>2018-05-19T13:14:16.865Z</time>
      </trkpt>
      <trkpt lat="43.06512333" lon="-4.18617167">
        <ele>1181.0</ele>
        <time>2018-05-19T13:14:17.866Z</time>
      </trkpt>
      <trkpt lat="43.06512333" lon="-4.18617167">
        <ele>1181.0</ele>
        <time>2018-05-19T13:14:18.863Z</time>
      </trkpt>
      <trkpt lat="43.06509833" lon="-4.18620167">
        <ele>1181.0</ele>
        <time>2018-05-19T13:14:19.881Z</time>
      </trkpt>
      <trkpt lat="43.06509833" lon="-4.18620167">
        <ele>1181.0</ele>
        <time>2018-05-19T13:14:20.862Z</time>
      </trkpt>
      <trkpt lat="43.065075" lon="-4.18623">
        <ele>1181.0</ele>
        <time>2018-05-19T13:14:21.866Z</time>
      </trkpt>
      <trkpt lat="43.065075" lon="-4.18623">
        <ele>1181.0</ele>
        <time>2018-05-19T13:14:22.863Z</time>
      </trkpt>
      <trkpt lat="43.065075" lon="-4.18623">
        <ele>1181.0</ele>
        <time>2018-05-19T13:14:23.849Z</time>
      </trkpt>
      <trkpt lat="43.06505333" lon="-4.18625833">
        <ele>1181.0</ele>
        <time>2018-05-19T13:14:24.865Z</time>
      </trkpt>
      <trkpt lat="43.06504" lon="-4.18627167">
        <ele>1182.0</ele>
        <time>2018-05-19T13:14:25.863Z</time>
      </trkpt>
      <trkpt lat="43.06504" lon="-4.18627167">
        <ele>1182.0</ele>
        <time>2018-05-19T13:14:26.864Z</time>
      </trkpt>
      <trkpt lat="43.06503667" lon="-4.18627333">
        <ele>1182.0</ele>
        <time>2018-05-19T13:14:27.866Z</time>
      </trkpt>
      <trkpt lat="43.06503667" lon="-4.18627333">
        <ele>1182.0</ele>
        <time>2018-05-19T13:14:28.860Z</time>
      </trkpt>
      <trkpt lat="43.06503667" lon="-4.18627333">
        <ele>1182.0</ele>
        <time>2018-05-19T13:14:29.865Z</time>
      </trkpt>
      <trkpt lat="43.06503667" lon="-4.18627333">
        <ele>1182.0</ele>
        <time>2018-05-19T13:14:30.861Z</time>
      </trkpt>
      <trkpt lat="43.06503667" lon="-4.18627333">
        <ele>1182.0</ele>
        <time>2018-05-19T13:14:31.863Z</time>
      </trkpt>
      <trkpt lat="43.06503" lon="-4.18631167">
        <ele>1181.0</ele>
        <time>2018-05-19T13:14:32.881Z</time>
      </trkpt>
      <trkpt lat="43.06503" lon="-4.18631167">
        <ele>1181.0</ele>
        <time>2018-05-19T13:14:33.879Z</time>
      </trkpt>
      <trkpt lat="43.06502" lon="-4.18633333">
        <ele>1181.0</ele>
        <time>2018-05-19T13:14:34.883Z</time>
      </trkpt>
      <trkpt lat="43.06502" lon="-4.18633333">
        <ele>1181.0</ele>
        <time>2018-05-19T13:14:35.879Z</time>
      </trkpt>
      <trkpt lat="43.06500833" lon="-4.18635333">
        <ele>1181.0</ele>
        <time>2018-05-19T13:14:36.878Z</time>
      </trkpt>
      <trkpt lat="43.06500833" lon="-4.18635333">
        <ele>1181.0</ele>
        <time>2018-05-19T13:14:37.877Z</time>
      </trkpt>
      <trkpt lat="43.06499333" lon="-4.186375">
        <ele>1181.0</ele>
        <time>2018-05-19T13:14:38.846Z</time>
      </trkpt>
      <trkpt lat="43.06498667" lon="-4.18638667">
        <ele>1181.0</ele>
        <time>2018-05-19T13:14:39.881Z</time>
      </trkpt>
      <trkpt lat="43.06498667" lon="-4.18638667">
        <ele>1181.0</ele>
        <time>2018-05-19T13:14:40.875Z</time>
      </trkpt>
      <trkpt lat="43.064975" lon="-4.18640833">
        <ele>1181.0</ele>
        <time>2018-05-19T13:14:41.878Z</time>
      </trkpt>
      <trkpt lat="43.064975" lon="-4.18640833">
        <ele>1181.0</ele>
        <time>2018-05-19T13:14:42.878Z</time>
      </trkpt>
      <trkpt lat="43.064965" lon="-4.18643">
        <ele>1181.0</ele>
        <time>2018-05-19T13:14:43.880Z</time>
      </trkpt>
      <trkpt lat="43.064965" lon="-4.18643">
        <ele>1181.0</ele>
        <time>2018-05-19T13:14:44.879Z</time>
      </trkpt>
      <trkpt lat="43.06495333" lon="-4.18645333">
        <ele>1181.0</ele>
        <time>2018-05-19T13:14:45.879Z</time>
      </trkpt>
      <trkpt lat="43.06495333" lon="-4.18645333">
        <ele>1181.0</ele>
        <time>2018-05-19T13:14:46.849Z</time>
      </trkpt>
      <trkpt lat="43.06494167" lon="-4.18647667">
        <ele>1181.0</ele>
        <time>2018-05-19T13:14:47.855Z</time>
      </trkpt>
      <trkpt lat="43.06493667" lon="-4.18649">
        <ele>1181.0</ele>
        <time>2018-05-19T13:14:48.846Z</time>
      </trkpt>
      <trkpt lat="43.06493667" lon="-4.18649">
        <ele>1181.0</ele>
        <time>2018-05-19T13:14:49.876Z</time>
      </trkpt>
      <trkpt lat="43.06493" lon="-4.18651667">
        <ele>1181.0</ele>
        <time>2018-05-19T13:14:50.858Z</time>
      </trkpt>
      <trkpt lat="43.06493" lon="-4.18651667">
        <ele>1181.0</ele>
        <time>2018-05-19T13:14:51.848Z</time>
      </trkpt>
      <trkpt lat="43.06492167" lon="-4.18654333">
        <ele>1181.0</ele>
        <time>2018-05-19T13:14:52.881Z</time>
      </trkpt>
      <trkpt lat="43.06492167" lon="-4.18654333">
        <ele>1181.0</ele>
        <time>2018-05-19T13:14:53.878Z</time>
      </trkpt>
      <trkpt lat="43.064915" lon="-4.18657333">
        <ele>1181.0</ele>
        <time>2018-05-19T13:14:54.879Z</time>
      </trkpt>
      <trkpt lat="43.064915" lon="-4.18657333">
        <ele>1181.0</ele>
        <time>2018-05-19T13:14:55.848Z</time>
      </trkpt>
      <trkpt lat="43.064915" lon="-4.18660667">
        <ele>1181.0</ele>
        <time>2018-05-19T13:14:56.881Z</time>
      </trkpt>
      <trkpt lat="43.064915" lon="-4.18660667">
        <ele>1181.0</ele>
        <time>2018-05-19T13:14:57.876Z</time>
      </trkpt>
      <trkpt lat="43.06490833" lon="-4.18663833">
        <ele>1181.0</ele>
        <time>2018-05-19T13:14:58.882Z</time>
      </trkpt>
      <trkpt lat="43.06490833" lon="-4.18663833">
        <ele>1181.0</ele>
        <time>2018-05-19T13:14:59.878Z</time>
      </trkpt>
      <trkpt lat="43.0649" lon="-4.18667">
        <ele>1181.0</ele>
        <time>2018-05-19T13:15:00.877Z</time>
      </trkpt>
      <trkpt lat="43.0649" lon="-4.18667">
        <ele>1181.0</ele>
        <time>2018-05-19T13:15:01.873Z</time>
      </trkpt>
      <trkpt lat="43.064895" lon="-4.18670167">
        <ele>1181.0</ele>
        <time>2018-05-19T13:15:02.853Z</time>
      </trkpt>
      <trkpt lat="43.064895" lon="-4.18670167">
        <ele>1181.0</ele>
        <time>2018-05-19T13:15:03.879Z</time>
      </trkpt>
      <trkpt lat="43.06489333" lon="-4.18673333">
        <ele>1181.0</ele>
        <time>2018-05-19T13:15:04.880Z</time>
      </trkpt>
      <trkpt lat="43.06489333" lon="-4.18673333">
        <ele>1181.0</ele>
        <time>2018-05-19T13:15:05.878Z</time>
      </trkpt>
      <trkpt lat="43.06488833" lon="-4.18676667">
        <ele>1181.0</ele>
        <time>2018-05-19T13:15:06.880Z</time>
      </trkpt>
      <trkpt lat="43.06488833" lon="-4.18676667">
        <ele>1181.0</ele>
        <time>2018-05-19T13:15:07.877Z</time>
      </trkpt>
      <trkpt lat="43.06488167" lon="-4.18680167">
        <ele>1181.0</ele>
        <time>2018-05-19T13:15:08.882Z</time>
      </trkpt>
      <trkpt lat="43.06488167" lon="-4.18680167">
        <ele>1181.0</ele>
        <time>2018-05-19T13:15:09.869Z</time>
      </trkpt>
      <trkpt lat="43.06488" lon="-4.18683833">
        <ele>1181.0</ele>
        <time>2018-05-19T13:15:10.854Z</time>
      </trkpt>
      <trkpt lat="43.06488" lon="-4.18683833">
        <ele>1181.0</ele>
        <time>2018-05-19T13:15:11.880Z</time>
      </trkpt>
      <trkpt lat="43.06488333" lon="-4.18687833">
        <ele>1181.0</ele>
        <time>2018-05-19T13:15:12.882Z</time>
      </trkpt>
      <trkpt lat="43.06488333" lon="-4.18687833">
        <ele>1181.0</ele>
        <time>2018-05-19T13:15:13.876Z</time>
      </trkpt>
      <trkpt lat="43.06488" lon="-4.18691667">
        <ele>1181.0</ele>
        <time>2018-05-19T13:15:14.878Z</time>
      </trkpt>
      <trkpt lat="43.06488" lon="-4.18691667">
        <ele>1181.0</ele>
        <time>2018-05-19T13:15:15.878Z</time>
      </trkpt>
      <trkpt lat="43.064875" lon="-4.18694333">
        <ele>1181.0</ele>
        <time>2018-05-19T13:15:16.880Z</time>
      </trkpt>
      <trkpt lat="43.064875" lon="-4.18694333">
        <ele>1181.0</ele>
        <time>2018-05-19T13:15:17.876Z</time>
      </trkpt>
      <trkpt lat="43.06487333" lon="-4.18697">
        <ele>1182.0</ele>
        <time>2018-05-19T13:15:18.880Z</time>
      </trkpt>
      <trkpt lat="43.06487333" lon="-4.18697">
        <ele>1182.0</ele>
        <time>2018-05-19T13:15:19.876Z</time>
      </trkpt>
      <trkpt lat="43.06487" lon="-4.18698">
        <ele>1182.0</ele>
        <time>2018-05-19T13:15:20.882Z</time>
      </trkpt>
      <trkpt lat="43.06487" lon="-4.18698">
        <ele>1182.0</ele>
        <time>2018-05-19T13:15:21.875Z</time>
      </trkpt>
      <trkpt lat="43.06486833" lon="-4.18697833">
        <ele>1181.0</ele>
        <time>2018-05-19T13:15:22.861Z</time>
      </trkpt>
      <trkpt lat="43.06486833" lon="-4.18697833">
        <ele>1181.0</ele>
        <time>2018-05-19T13:15:23.847Z</time>
      </trkpt>
      <trkpt lat="43.06486667" lon="-4.18699667">
        <ele>1182.0</ele>
        <time>2018-05-19T13:15:24.876Z</time>
      </trkpt>
      <trkpt lat="43.06486667" lon="-4.18699667">
        <ele>1182.0</ele>
        <time>2018-05-19T13:15:25.875Z</time>
      </trkpt>
      <trkpt lat="43.06486667" lon="-4.18702167">
        <ele>1182.0</ele>
        <time>2018-05-19T13:15:26.881Z</time>
      </trkpt>
      <trkpt lat="43.06486667" lon="-4.18702167">
        <ele>1182.0</ele>
        <time>2018-05-19T13:15:27.877Z</time>
      </trkpt>
      <trkpt lat="43.064865" lon="-4.18704833">
        <ele>1182.0</ele>
        <time>2018-05-19T13:15:28.844Z</time>
      </trkpt>
      <trkpt lat="43.064865" lon="-4.18704833">
        <ele>1182.0</ele>
        <time>2018-05-19T13:15:29.864Z</time>
      </trkpt>
      <trkpt lat="43.06486" lon="-4.18707333">
        <ele>1182.0</ele>
        <time>2018-05-19T13:15:30.850Z</time>
      </trkpt>
      <trkpt lat="43.06486" lon="-4.18707333">
        <ele>1182.0</ele>
        <time>2018-05-19T13:15:31.877Z</time>
      </trkpt>
      <trkpt lat="43.064855" lon="-4.18710167">
        <ele>1182.0</ele>
        <time>2018-05-19T13:15:32.880Z</time>
      </trkpt>
      <trkpt lat="43.064855" lon="-4.18710167">
        <ele>1182.0</ele>
        <time>2018-05-19T13:15:33.878Z</time>
      </trkpt>
      <trkpt lat="43.06485167" lon="-4.18712833">
        <ele>1182.0</ele>
        <time>2018-05-19T13:15:34.881Z</time>
      </trkpt>
      <trkpt lat="43.06485167" lon="-4.18712833">
        <ele>1182.0</ele>
        <time>2018-05-19T13:15:35.879Z</time>
      </trkpt>
      <trkpt lat="43.064845" lon="-4.187155">
        <ele>1183.0</ele>
        <time>2018-05-19T13:15:36.879Z</time>
      </trkpt>
      <trkpt lat="43.064845" lon="-4.187155">
        <ele>1183.0</ele>
        <time>2018-05-19T13:15:37.878Z</time>
      </trkpt>
      <trkpt lat="43.06484" lon="-4.18718">
        <ele>1183.0</ele>
        <time>2018-05-19T13:15:38.847Z</time>
      </trkpt>
      <trkpt lat="43.06484" lon="-4.18718">
        <ele>1183.0</ele>
        <time>2018-05-19T13:15:39.848Z</time>
      </trkpt>
      <trkpt lat="43.064835" lon="-4.1872">
        <ele>1184.0</ele>
        <time>2018-05-19T13:15:40.880Z</time>
      </trkpt>
      <trkpt lat="43.064835" lon="-4.1872">
        <ele>1184.0</ele>
        <time>2018-05-19T13:15:41.877Z</time>
      </trkpt>
      <trkpt lat="43.06482667" lon="-4.18722167">
        <ele>1184.0</ele>
        <time>2018-05-19T13:15:42.880Z</time>
      </trkpt>
      <trkpt lat="43.06482667" lon="-4.18722167">
        <ele>1184.0</ele>
        <time>2018-05-19T13:15:43.874Z</time>
      </trkpt>
      <trkpt lat="43.06482167" lon="-4.18725167">
        <ele>1184.0</ele>
        <time>2018-05-19T13:15:44.879Z</time>
      </trkpt>
      <trkpt lat="43.06482167" lon="-4.18725167">
        <ele>1184.0</ele>
        <time>2018-05-19T13:15:45.872Z</time>
      </trkpt>
      <trkpt lat="43.06481333" lon="-4.18728333">
        <ele>1184.0</ele>
        <time>2018-05-19T13:15:46.881Z</time>
      </trkpt>
      <trkpt lat="43.06481" lon="-4.18729833">
        <ele>1184.0</ele>
        <time>2018-05-19T13:15:47.847Z</time>
      </trkpt>
      <trkpt lat="43.06480667" lon="-4.18731333">
        <ele>1184.0</ele>
        <time>2018-05-19T13:15:48.853Z</time>
      </trkpt>
      <trkpt lat="43.06480667" lon="-4.18731333">
        <ele>1184.0</ele>
        <time>2018-05-19T13:15:49.859Z</time>
      </trkpt>
      <trkpt lat="43.064795" lon="-4.18733833">
        <ele>1185.0</ele>
        <time>2018-05-19T13:15:50.880Z</time>
      </trkpt>
      <trkpt lat="43.064795" lon="-4.18733833">
        <ele>1185.0</ele>
        <time>2018-05-19T13:15:51.877Z</time>
      </trkpt>
      <trkpt lat="43.064785" lon="-4.18736667">
        <ele>1185.0</ele>
        <time>2018-05-19T13:15:52.881Z</time>
      </trkpt>
      <trkpt lat="43.064785" lon="-4.18736667">
        <ele>1185.0</ele>
        <time>2018-05-19T13:15:53.878Z</time>
      </trkpt>
      <trkpt lat="43.06477333" lon="-4.187395">
        <ele>1185.0</ele>
        <time>2018-05-19T13:15:54.879Z</time>
      </trkpt>
      <trkpt lat="43.06476667" lon="-4.18741667">
        <ele>1185.0</ele>
        <time>2018-05-19T13:15:55.880Z</time>
      </trkpt>
      <trkpt lat="43.06476167" lon="-4.18743833">
        <ele>1185.0</ele>
        <time>2018-05-19T13:15:56.878Z</time>
      </trkpt>
      <trkpt lat="43.06475333" lon="-4.18745667">
        <ele>1185.0</ele>
        <time>2018-05-19T13:15:57.881Z</time>
      </trkpt>
      <trkpt lat="43.06475333" lon="-4.18745667">
        <ele>1185.0</ele>
        <time>2018-05-19T13:15:58.876Z</time>
      </trkpt>
      <trkpt lat="43.06474167" lon="-4.18748667">
        <ele>1185.0</ele>
        <time>2018-05-19T13:15:59.878Z</time>
      </trkpt>
      <trkpt lat="43.06473167" lon="-4.1875">
        <ele>1185.0</ele>
        <time>2018-05-19T13:16:00.879Z</time>
      </trkpt>
      <trkpt lat="43.06472167" lon="-4.18751">
        <ele>1184.0</ele>
        <time>2018-05-19T13:16:01.880Z</time>
      </trkpt>
      <trkpt lat="43.06471" lon="-4.18752">
        <ele>1184.0</ele>
        <time>2018-05-19T13:16:02.846Z</time>
      </trkpt>
      <trkpt lat="43.06471" lon="-4.18752">
        <ele>1184.0</ele>
        <time>2018-05-19T13:16:03.876Z</time>
      </trkpt>
      <trkpt lat="43.06468833" lon="-4.18754">
        <ele>1184.0</ele>
        <time>2018-05-19T13:16:04.881Z</time>
      </trkpt>
      <trkpt lat="43.06468833" lon="-4.18754">
        <ele>1184.0</ele>
        <time>2018-05-19T13:16:05.878Z</time>
      </trkpt>
      <trkpt lat="43.064665" lon="-4.18755667">
        <ele>1184.0</ele>
        <time>2018-05-19T13:16:06.880Z</time>
      </trkpt>
      <trkpt lat="43.064665" lon="-4.18755667">
        <ele>1184.0</ele>
        <time>2018-05-19T13:16:07.877Z</time>
      </trkpt>
      <trkpt lat="43.064645" lon="-4.18757167">
        <ele>1185.0</ele>
        <time>2018-05-19T13:16:08.881Z</time>
      </trkpt>
      <trkpt lat="43.064645" lon="-4.18757167">
        <ele>1185.0</ele>
        <time>2018-05-19T13:16:09.876Z</time>
      </trkpt>
      <trkpt lat="43.06462333" lon="-4.18757833">
        <ele>1185.0</ele>
        <time>2018-05-19T13:16:10.860Z</time>
      </trkpt>
      <trkpt lat="43.06462333" lon="-4.18757833">
        <ele>1185.0</ele>
        <time>2018-05-19T13:16:11.846Z</time>
      </trkpt>
      <trkpt lat="43.0646" lon="-4.187585">
        <ele>1185.0</ele>
        <time>2018-05-19T13:16:12.876Z</time>
      </trkpt>
      <trkpt lat="43.0646" lon="-4.187585">
        <ele>1185.0</ele>
        <time>2018-05-19T13:16:13.874Z</time>
      </trkpt>
      <trkpt lat="43.06457833" lon="-4.18759167">
        <ele>1186.0</ele>
        <time>2018-05-19T13:16:14.879Z</time>
      </trkpt>
      <trkpt lat="43.06456833" lon="-4.187595">
        <ele>1186.0</ele>
        <time>2018-05-19T13:16:15.858Z</time>
      </trkpt>
      <trkpt lat="43.06455667" lon="-4.18759667">
        <ele>1186.0</ele>
        <time>2018-05-19T13:16:16.880Z</time>
      </trkpt>
      <trkpt lat="43.06455667" lon="-4.18759667">
        <ele>1186.0</ele>
        <time>2018-05-19T13:16:17.876Z</time>
      </trkpt>
      <trkpt lat="43.064535" lon="-4.18759167">
        <ele>1186.0</ele>
        <time>2018-05-19T13:16:18.879Z</time>
      </trkpt>
      <trkpt lat="43.064535" lon="-4.18759167">
        <ele>1186.0</ele>
        <time>2018-05-19T13:16:19.877Z</time>
      </trkpt>
      <trkpt lat="43.06451333" lon="-4.18758167">
        <ele>1186.0</ele>
        <time>2018-05-19T13:16:20.867Z</time>
      </trkpt>
      <trkpt lat="43.06451333" lon="-4.18758167">
        <ele>1186.0</ele>
        <time>2018-05-19T13:16:21.850Z</time>
      </trkpt>
      <trkpt lat="43.06449167" lon="-4.18758">
        <ele>1187.0</ele>
        <time>2018-05-19T13:16:22.881Z</time>
      </trkpt>
      <trkpt lat="43.06449167" lon="-4.18758">
        <ele>1187.0</ele>
        <time>2018-05-19T13:16:23.878Z</time>
      </trkpt>
      <trkpt lat="43.06447" lon="-4.18757833">
        <ele>1187.0</ele>
        <time>2018-05-19T13:16:24.880Z</time>
      </trkpt>
      <trkpt lat="43.06445833" lon="-4.18757667">
        <ele>1187.0</ele>
        <time>2018-05-19T13:16:25.880Z</time>
      </trkpt>
      <trkpt lat="43.06444667" lon="-4.18757667">
        <ele>1187.0</ele>
        <time>2018-05-19T13:16:26.881Z</time>
      </trkpt>
      <trkpt lat="43.06444667" lon="-4.18757667">
        <ele>1187.0</ele>
        <time>2018-05-19T13:16:27.878Z</time>
      </trkpt>
      <trkpt lat="43.06442167" lon="-4.18757833">
        <ele>1188.0</ele>
        <time>2018-05-19T13:16:28.880Z</time>
      </trkpt>
      <trkpt lat="43.06442167" lon="-4.18757833">
        <ele>1188.0</ele>
        <time>2018-05-19T13:16:29.875Z</time>
      </trkpt>
      <trkpt lat="43.06440167" lon="-4.18758167">
        <ele>1188.0</ele>
        <time>2018-05-19T13:16:30.878Z</time>
      </trkpt>
      <trkpt lat="43.06439" lon="-4.187585">
        <ele>1188.0</ele>
        <time>2018-05-19T13:16:31.880Z</time>
      </trkpt>
      <trkpt lat="43.06439" lon="-4.187585">
        <ele>1188.0</ele>
        <time>2018-05-19T13:16:32.878Z</time>
      </trkpt>
      <trkpt lat="43.06437" lon="-4.18759">
        <ele>1189.0</ele>
        <time>2018-05-19T13:16:33.880Z</time>
      </trkpt>
      <trkpt lat="43.06435833" lon="-4.187595">
        <ele>1189.0</ele>
        <time>2018-05-19T13:16:34.881Z</time>
      </trkpt>
      <trkpt lat="43.06435833" lon="-4.187595">
        <ele>1189.0</ele>
        <time>2018-05-19T13:16:35.877Z</time>
      </trkpt>
      <trkpt lat="43.06434" lon="-4.18760667">
        <ele>1190.0</ele>
        <time>2018-05-19T13:16:36.879Z</time>
      </trkpt>
      <trkpt lat="43.06434" lon="-4.18760667">
        <ele>1190.0</ele>
        <time>2018-05-19T13:16:37.878Z</time>
      </trkpt>
      <trkpt lat="43.06432" lon="-4.18761667">
        <ele>1190.0</ele>
        <time>2018-05-19T13:16:38.880Z</time>
      </trkpt>
      <trkpt lat="43.06431" lon="-4.18762167">
        <ele>1190.0</ele>
        <time>2018-05-19T13:16:39.877Z</time>
      </trkpt>
      <trkpt lat="43.06430167" lon="-4.18762667">
        <ele>1190.0</ele>
        <time>2018-05-19T13:16:40.881Z</time>
      </trkpt>
      <trkpt lat="43.06430167" lon="-4.18762667">
        <ele>1190.0</ele>
        <time>2018-05-19T13:16:41.877Z</time>
      </trkpt>
      <trkpt lat="43.06428333" lon="-4.18763833">
        <ele>1190.0</ele>
        <time>2018-05-19T13:16:42.877Z</time>
      </trkpt>
      <trkpt lat="43.06427333" lon="-4.187645">
        <ele>1190.0</ele>
        <time>2018-05-19T13:16:43.879Z</time>
      </trkpt>
      <trkpt lat="43.06427333" lon="-4.187645">
        <ele>1190.0</ele>
        <time>2018-05-19T13:16:44.877Z</time>
      </trkpt>
      <trkpt lat="43.064255" lon="-4.18765833">
        <ele>1190.0</ele>
        <time>2018-05-19T13:16:45.882Z</time>
      </trkpt>
      <trkpt lat="43.064255" lon="-4.18765833">
        <ele>1190.0</ele>
        <time>2018-05-19T13:16:46.859Z</time>
      </trkpt>
      <trkpt lat="43.064235" lon="-4.18767667">
        <ele>1191.0</ele>
        <time>2018-05-19T13:16:47.866Z</time>
      </trkpt>
      <trkpt lat="43.06422667" lon="-4.18768667">
        <ele>1191.0</ele>
        <time>2018-05-19T13:16:48.850Z</time>
      </trkpt>
      <trkpt lat="43.06422667" lon="-4.18768667">
        <ele>1191.0</ele>
        <time>2018-05-19T13:16:49.877Z</time>
      </trkpt>
      <trkpt lat="43.06420833" lon="-4.187705">
        <ele>1191.0</ele>
        <time>2018-05-19T13:16:50.878Z</time>
      </trkpt>
      <trkpt lat="43.06420833" lon="-4.187705">
        <ele>1191.0</ele>
        <time>2018-05-19T13:16:51.877Z</time>
      </trkpt>
      <trkpt lat="43.06419167" lon="-4.187725">
        <ele>1191.0</ele>
        <time>2018-05-19T13:16:52.880Z</time>
      </trkpt>
      <trkpt lat="43.06419167" lon="-4.187725">
        <ele>1191.0</ele>
        <time>2018-05-19T13:16:53.877Z</time>
      </trkpt>
      <trkpt lat="43.064175" lon="-4.18775">
        <ele>1191.0</ele>
        <time>2018-05-19T13:16:54.866Z</time>
      </trkpt>
      <trkpt lat="43.06416667" lon="-4.18776167">
        <ele>1191.0</ele>
        <time>2018-05-19T13:16:55.851Z</time>
      </trkpt>
      <trkpt lat="43.06416667" lon="-4.18776167">
        <ele>1191.0</ele>
        <time>2018-05-19T13:16:56.878Z</time>
      </trkpt>
      <trkpt lat="43.06415167" lon="-4.187785">
        <ele>1192.0</ele>
        <time>2018-05-19T13:16:57.879Z</time>
      </trkpt>
      <trkpt lat="43.06414333" lon="-4.18779667">
        <ele>1192.0</ele>
        <time>2018-05-19T13:16:58.877Z</time>
      </trkpt>
      <trkpt lat="43.06414333" lon="-4.18779667">
        <ele>1192.0</ele>
        <time>2018-05-19T13:16:59.878Z</time>
      </trkpt>
      <trkpt lat="43.06412833" lon="-4.18782">
        <ele>1192.0</ele>
        <time>2018-05-19T13:17:00.880Z</time>
      </trkpt>
      <trkpt lat="43.06412833" lon="-4.18782">
        <ele>1192.0</ele>
        <time>2018-05-19T13:17:01.875Z</time>
      </trkpt>
      <trkpt lat="43.06411333" lon="-4.18784333">
        <ele>1192.0</ele>
        <time>2018-05-19T13:17:02.877Z</time>
      </trkpt>
      <trkpt lat="43.06411333" lon="-4.18784333">
        <ele>1192.0</ele>
        <time>2018-05-19T13:17:03.875Z</time>
      </trkpt>
      <trkpt lat="43.06410167" lon="-4.18786667">
        <ele>1193.0</ele>
        <time>2018-05-19T13:17:04.881Z</time>
      </trkpt>
      <trkpt lat="43.06410167" lon="-4.18786667">
        <ele>1193.0</ele>
        <time>2018-05-19T13:17:05.877Z</time>
      </trkpt>
      <trkpt lat="43.06408833" lon="-4.18788833">
        <ele>1193.0</ele>
        <time>2018-05-19T13:17:06.880Z</time>
      </trkpt>
      <trkpt lat="43.06408" lon="-4.18789833">
        <ele>1194.0</ele>
        <time>2018-05-19T13:17:07.880Z</time>
      </trkpt>
      <trkpt lat="43.06407333" lon="-4.18791">
        <ele>1194.0</ele>
        <time>2018-05-19T13:17:08.880Z</time>
      </trkpt>
      <trkpt lat="43.06407333" lon="-4.18791">
        <ele>1194.0</ele>
        <time>2018-05-19T13:17:09.876Z</time>
      </trkpt>
      <trkpt lat="43.06405833" lon="-4.18793167">
        <ele>1194.0</ele>
        <time>2018-05-19T13:17:10.880Z</time>
      </trkpt>
      <trkpt lat="43.06405833" lon="-4.18793167">
        <ele>1194.0</ele>
        <time>2018-05-19T13:17:11.877Z</time>
      </trkpt>
      <trkpt lat="43.064045" lon="-4.187955">
        <ele>1195.0</ele>
        <time>2018-05-19T13:17:12.860Z</time>
      </trkpt>
      <trkpt lat="43.06403833" lon="-4.18797167">
        <ele>1195.0</ele>
        <time>2018-05-19T13:17:13.849Z</time>
      </trkpt>
      <trkpt lat="43.06403833" lon="-4.18797167">
        <ele>1195.0</ele>
        <time>2018-05-19T13:17:14.877Z</time>
      </trkpt>
      <trkpt lat="43.06402667" lon="-4.18799833">
        <ele>1195.0</ele>
        <time>2018-05-19T13:17:15.879Z</time>
      </trkpt>
      <trkpt lat="43.06402" lon="-4.18801167">
        <ele>1195.0</ele>
        <time>2018-05-19T13:17:16.880Z</time>
      </trkpt>
      <trkpt lat="43.06402" lon="-4.18801167">
        <ele>1195.0</ele>
        <time>2018-05-19T13:17:17.878Z</time>
      </trkpt>
      <trkpt lat="43.06400667" lon="-4.188035">
        <ele>1195.0</ele>
        <time>2018-05-19T13:17:18.880Z</time>
      </trkpt>
      <trkpt lat="43.06400667" lon="-4.188035">
        <ele>1195.0</ele>
        <time>2018-05-19T13:17:19.877Z</time>
      </trkpt>
      <trkpt lat="43.06399167" lon="-4.18806167">
        <ele>1195.0</ele>
        <time>2018-05-19T13:17:20.878Z</time>
      </trkpt>
      <trkpt lat="43.06399167" lon="-4.18806167">
        <ele>1195.0</ele>
        <time>2018-05-19T13:17:21.875Z</time>
      </trkpt>
      <trkpt lat="43.06397833" lon="-4.18808833">
        <ele>1196.0</ele>
        <time>2018-05-19T13:17:22.861Z</time>
      </trkpt>
      <trkpt lat="43.06397833" lon="-4.18808833">
        <ele>1196.0</ele>
        <time>2018-05-19T13:17:23.859Z</time>
      </trkpt>
      <trkpt lat="43.063965" lon="-4.188115">
        <ele>1196.0</ele>
        <time>2018-05-19T13:17:24.846Z</time>
      </trkpt>
      <trkpt lat="43.063965" lon="-4.188115">
        <ele>1196.0</ele>
        <time>2018-05-19T13:17:25.876Z</time>
      </trkpt>
      <trkpt lat="43.06395167" lon="-4.18814167">
        <ele>1196.0</ele>
        <time>2018-05-19T13:17:26.878Z</time>
      </trkpt>
      <trkpt lat="43.06395167" lon="-4.18814167">
        <ele>1196.0</ele>
        <time>2018-05-19T13:17:27.877Z</time>
      </trkpt>
      <trkpt lat="43.06394" lon="-4.18817">
        <ele>1196.0</ele>
        <time>2018-05-19T13:17:28.880Z</time>
      </trkpt>
      <trkpt lat="43.06394" lon="-4.18817">
        <ele>1196.0</ele>
        <time>2018-05-19T13:17:29.877Z</time>
      </trkpt>
      <trkpt lat="43.06392833" lon="-4.1882">
        <ele>1197.0</ele>
        <time>2018-05-19T13:17:30.855Z</time>
      </trkpt>
      <trkpt lat="43.06392833" lon="-4.1882">
        <ele>1197.0</ele>
        <time>2018-05-19T13:17:31.878Z</time>
      </trkpt>
      <trkpt lat="43.063915" lon="-4.18822667">
        <ele>1197.0</ele>
        <time>2018-05-19T13:17:32.878Z</time>
      </trkpt>
      <trkpt lat="43.063915" lon="-4.18822667">
        <ele>1197.0</ele>
        <time>2018-05-19T13:17:33.877Z</time>
      </trkpt>
      <trkpt lat="43.06389833" lon="-4.18825167">
        <ele>1197.0</ele>
        <time>2018-05-19T13:17:34.872Z</time>
      </trkpt>
      <trkpt lat="43.06389" lon="-4.188265">
        <ele>1197.0</ele>
        <time>2018-05-19T13:17:35.880Z</time>
      </trkpt>
      <trkpt lat="43.06389" lon="-4.188265">
        <ele>1197.0</ele>
        <time>2018-05-19T13:17:36.877Z</time>
      </trkpt>
      <trkpt lat="43.06387333" lon="-4.18829167">
        <ele>1198.0</ele>
        <time>2018-05-19T13:17:37.880Z</time>
      </trkpt>
      <trkpt lat="43.063865" lon="-4.18830333">
        <ele>1198.0</ele>
        <time>2018-05-19T13:17:38.878Z</time>
      </trkpt>
      <trkpt lat="43.063865" lon="-4.18830333">
        <ele>1198.0</ele>
        <time>2018-05-19T13:17:39.865Z</time>
      </trkpt>
      <trkpt lat="43.06384667" lon="-4.18832833">
        <ele>1198.0</ele>
        <time>2018-05-19T13:17:40.855Z</time>
      </trkpt>
      <trkpt lat="43.06384667" lon="-4.18832833">
        <ele>1198.0</ele>
        <time>2018-05-19T13:17:41.846Z</time>
      </trkpt>
      <trkpt lat="43.06383167" lon="-4.188355">
        <ele>1198.0</ele>
        <time>2018-05-19T13:17:42.880Z</time>
      </trkpt>
      <trkpt lat="43.06383167" lon="-4.188355">
        <ele>1198.0</ele>
        <time>2018-05-19T13:17:43.876Z</time>
      </trkpt>
      <trkpt lat="43.06381833" lon="-4.18839667">
        <ele>1198.0</ele>
        <time>2018-05-19T13:17:44.878Z</time>
      </trkpt>
      <trkpt lat="43.06381833" lon="-4.18839667">
        <ele>1198.0</ele>
        <time>2018-05-19T13:17:45.871Z</time>
      </trkpt>
      <trkpt lat="43.06380167" lon="-4.188425">
        <ele>1198.0</ele>
        <time>2018-05-19T13:17:46.864Z</time>
      </trkpt>
      <trkpt lat="43.063795" lon="-4.18843667">
        <ele>1198.0</ele>
        <time>2018-05-19T13:17:47.872Z</time>
      </trkpt>
      <trkpt lat="43.06378667" lon="-4.18845">
        <ele>1198.0</ele>
        <time>2018-05-19T13:17:48.880Z</time>
      </trkpt>
      <trkpt lat="43.06377667" lon="-4.18846">
        <ele>1198.0</ele>
        <time>2018-05-19T13:17:49.879Z</time>
      </trkpt>
      <trkpt lat="43.06377667" lon="-4.18846">
        <ele>1198.0</ele>
        <time>2018-05-19T13:17:50.878Z</time>
      </trkpt>
      <trkpt lat="43.063755" lon="-4.18847667">
        <ele>1198.0</ele>
        <time>2018-05-19T13:17:51.880Z</time>
      </trkpt>
      <trkpt lat="43.063745" lon="-4.188485">
        <ele>1198.0</ele>
        <time>2018-05-19T13:17:52.880Z</time>
      </trkpt>
      <trkpt lat="43.063745" lon="-4.188485">
        <ele>1198.0</ele>
        <time>2018-05-19T13:17:53.871Z</time>
      </trkpt>
      <trkpt lat="43.06372333" lon="-4.18850333">
        <ele>1199.0</ele>
        <time>2018-05-19T13:17:54.880Z</time>
      </trkpt>
      <trkpt lat="43.06371333" lon="-4.188515">
        <ele>1199.0</ele>
        <time>2018-05-19T13:17:55.880Z</time>
      </trkpt>
      <trkpt lat="43.06371333" lon="-4.188515">
        <ele>1199.0</ele>
        <time>2018-05-19T13:17:56.877Z</time>
      </trkpt>
      <trkpt lat="43.06369167" lon="-4.18853333">
        <ele>1199.0</ele>
        <time>2018-05-19T13:17:57.882Z</time>
      </trkpt>
      <trkpt lat="43.06367833" lon="-4.18854167">
        <ele>1199.0</ele>
        <time>2018-05-19T13:17:58.879Z</time>
      </trkpt>
      <trkpt lat="43.06367833" lon="-4.18854167">
        <ele>1199.0</ele>
        <time>2018-05-19T13:17:59.877Z</time>
      </trkpt>
      <trkpt lat="43.06365667" lon="-4.18855833">
        <ele>1199.0</ele>
        <time>2018-05-19T13:18:00.871Z</time>
      </trkpt>
      <trkpt lat="43.06364667" lon="-4.18856833">
        <ele>1200.0</ele>
        <time>2018-05-19T13:18:01.879Z</time>
      </trkpt>
      <trkpt lat="43.063635" lon="-4.18857833">
        <ele>1200.0</ele>
        <time>2018-05-19T13:18:02.873Z</time>
      </trkpt>
      <trkpt lat="43.063635" lon="-4.18857833">
        <ele>1200.0</ele>
        <time>2018-05-19T13:18:03.875Z</time>
      </trkpt>
      <trkpt lat="43.063615" lon="-4.188595">
        <ele>1200.0</ele>
        <time>2018-05-19T13:18:04.880Z</time>
      </trkpt>
      <trkpt lat="43.063615" lon="-4.188595">
        <ele>1200.0</ele>
        <time>2018-05-19T13:18:05.851Z</time>
      </trkpt>
      <trkpt lat="43.06359333" lon="-4.18861">
        <ele>1200.0</ele>
        <time>2018-05-19T13:18:06.881Z</time>
      </trkpt>
      <trkpt lat="43.06359333" lon="-4.18861">
        <ele>1200.0</ele>
        <time>2018-05-19T13:18:07.877Z</time>
      </trkpt>
      <trkpt lat="43.06357167" lon="-4.18862667">
        <ele>1200.0</ele>
        <time>2018-05-19T13:18:08.880Z</time>
      </trkpt>
      <trkpt lat="43.06357167" lon="-4.18862667">
        <ele>1200.0</ele>
        <time>2018-05-19T13:18:09.876Z</time>
      </trkpt>
      <trkpt lat="43.06355" lon="-4.188645">
        <ele>1201.0</ele>
        <time>2018-05-19T13:18:10.861Z</time>
      </trkpt>
      <trkpt lat="43.06354" lon="-4.188655">
        <ele>1201.0</ele>
        <time>2018-05-19T13:18:11.858Z</time>
      </trkpt>
      <trkpt lat="43.06354" lon="-4.188655">
        <ele>1201.0</ele>
        <time>2018-05-19T13:18:12.880Z</time>
      </trkpt>
      <trkpt lat="43.06352" lon="-4.188675">
        <ele>1201.0</ele>
        <time>2018-05-19T13:18:13.879Z</time>
      </trkpt>
      <trkpt lat="43.06351" lon="-4.188685">
        <ele>1201.0</ele>
        <time>2018-05-19T13:18:14.881Z</time>
      </trkpt>
      <trkpt lat="43.06351" lon="-4.188685">
        <ele>1201.0</ele>
        <time>2018-05-19T13:18:15.880Z</time>
      </trkpt>
      <trkpt lat="43.06349167" lon="-4.18871">
        <ele>1201.0</ele>
        <time>2018-05-19T13:18:16.875Z</time>
      </trkpt>
      <trkpt lat="43.06349167" lon="-4.18871">
        <ele>1201.0</ele>
        <time>2018-05-19T13:18:17.877Z</time>
      </trkpt>
      <trkpt lat="43.063475" lon="-4.18873333">
        <ele>1202.0</ele>
        <time>2018-05-19T13:18:18.879Z</time>
      </trkpt>
      <trkpt lat="43.063475" lon="-4.18873333">
        <ele>1202.0</ele>
        <time>2018-05-19T13:18:19.878Z</time>
      </trkpt>
      <trkpt lat="43.06346" lon="-4.18875667">
        <ele>1202.0</ele>
        <time>2018-05-19T13:18:20.881Z</time>
      </trkpt>
      <trkpt lat="43.06345167" lon="-4.18876833">
        <ele>1202.0</ele>
        <time>2018-05-19T13:18:21.877Z</time>
      </trkpt>
      <trkpt lat="43.06345167" lon="-4.18876833">
        <ele>1202.0</ele>
        <time>2018-05-19T13:18:22.875Z</time>
      </trkpt>
      <trkpt lat="43.06343667" lon="-4.18879333">
        <ele>1203.0</ele>
        <time>2018-05-19T13:18:23.880Z</time>
      </trkpt>
      <trkpt lat="43.06343667" lon="-4.18879333">
        <ele>1203.0</ele>
        <time>2018-05-19T13:18:24.868Z</time>
      </trkpt>
      <trkpt lat="43.06342167" lon="-4.18882">
        <ele>1203.0</ele>
        <time>2018-05-19T13:18:25.851Z</time>
      </trkpt>
      <trkpt lat="43.06342167" lon="-4.18882">
        <ele>1203.0</ele>
        <time>2018-05-19T13:18:26.878Z</time>
      </trkpt>
      <trkpt lat="43.06341167" lon="-4.18885167">
        <ele>1203.0</ele>
        <time>2018-05-19T13:18:27.880Z</time>
      </trkpt>
      <trkpt lat="43.06340667" lon="-4.18886833">
        <ele>1203.0</ele>
        <time>2018-05-19T13:18:28.879Z</time>
      </trkpt>
      <trkpt lat="43.06340667" lon="-4.18886833">
        <ele>1203.0</ele>
        <time>2018-05-19T13:18:29.874Z</time>
      </trkpt>
      <trkpt lat="43.06339667" lon="-4.1889">
        <ele>1203.0</ele>
        <time>2018-05-19T13:18:30.846Z</time>
      </trkpt>
      <trkpt lat="43.06339667" lon="-4.1889">
        <ele>1203.0</ele>
        <time>2018-05-19T13:18:31.876Z</time>
      </trkpt>
      <trkpt lat="43.06339" lon="-4.18893167">
        <ele>1203.0</ele>
        <time>2018-05-19T13:18:32.881Z</time>
      </trkpt>
      <trkpt lat="43.06339" lon="-4.18893167">
        <ele>1203.0</ele>
        <time>2018-05-19T13:18:33.847Z</time>
      </trkpt>
      <trkpt lat="43.06338333" lon="-4.18896333">
        <ele>1203.0</ele>
        <time>2018-05-19T13:18:34.880Z</time>
      </trkpt>
      <trkpt lat="43.06338333" lon="-4.18896333">
        <ele>1203.0</ele>
        <time>2018-05-19T13:18:35.876Z</time>
      </trkpt>
      <trkpt lat="43.06337667" lon="-4.18899667">
        <ele>1203.0</ele>
        <time>2018-05-19T13:18:36.879Z</time>
      </trkpt>
      <trkpt lat="43.06337667" lon="-4.18899667">
        <ele>1203.0</ele>
        <time>2018-05-19T13:18:37.876Z</time>
      </trkpt>
      <trkpt lat="43.06337167" lon="-4.18903">
        <ele>1204.0</ele>
        <time>2018-05-19T13:18:38.880Z</time>
      </trkpt>
      <trkpt lat="43.06336833" lon="-4.18904833">
        <ele>1204.0</ele>
        <time>2018-05-19T13:18:39.849Z</time>
      </trkpt>
      <trkpt lat="43.06336833" lon="-4.18904833">
        <ele>1204.0</ele>
        <time>2018-05-19T13:18:40.856Z</time>
      </trkpt>
      <trkpt lat="43.06336667" lon="-4.189085">
        <ele>1204.0</ele>
        <time>2018-05-19T13:18:41.869Z</time>
      </trkpt>
      <trkpt lat="43.06336667" lon="-4.189085">
        <ele>1204.0</ele>
        <time>2018-05-19T13:18:42.875Z</time>
      </trkpt>
      <trkpt lat="43.06336333" lon="-4.18911833">
        <ele>1204.0</ele>
        <time>2018-05-19T13:18:43.880Z</time>
      </trkpt>
      <trkpt lat="43.06336333" lon="-4.18913">
        <ele>1204.0</ele>
        <time>2018-05-19T13:18:44.881Z</time>
      </trkpt>
      <trkpt lat="43.06336333" lon="-4.18913">
        <ele>1204.0</ele>
        <time>2018-05-19T13:18:45.877Z</time>
      </trkpt>
      <trkpt lat="43.06336167" lon="-4.189135">
        <ele>1203.0</ele>
        <time>2018-05-19T13:18:46.869Z</time>
      </trkpt>
      <trkpt lat="43.06336" lon="-4.18913167">
        <ele>1203.0</ele>
        <time>2018-05-19T13:18:47.876Z</time>
      </trkpt>
      <trkpt lat="43.06336" lon="-4.18913167">
        <ele>1203.0</ele>
        <time>2018-05-19T13:18:48.845Z</time>
      </trkpt>
      <trkpt lat="43.06336667" lon="-4.189175">
        <ele>1203.0</ele>
        <time>2018-05-19T13:18:49.872Z</time>
      </trkpt>
      <trkpt lat="43.06336667" lon="-4.189175">
        <ele>1203.0</ele>
        <time>2018-05-19T13:18:50.865Z</time>
      </trkpt>
      <trkpt lat="43.06336333" lon="-4.18921667">
        <ele>1203.0</ele>
        <time>2018-05-19T13:18:51.870Z</time>
      </trkpt>
      <trkpt lat="43.06336" lon="-4.18924">
        <ele>1204.0</ele>
        <time>2018-05-19T13:18:52.871Z</time>
      </trkpt>
      <trkpt lat="43.06336" lon="-4.189265">
        <ele>1204.0</ele>
        <time>2018-05-19T13:18:53.871Z</time>
      </trkpt>
      <trkpt lat="43.06336" lon="-4.189265">
        <ele>1204.0</ele>
        <time>2018-05-19T13:18:54.869Z</time>
      </trkpt>
      <trkpt lat="43.06336" lon="-4.18932">
        <ele>1204.0</ele>
        <time>2018-05-19T13:18:55.877Z</time>
      </trkpt>
      <trkpt lat="43.06335833" lon="-4.18935167">
        <ele>1204.0</ele>
        <time>2018-05-19T13:18:56.871Z</time>
      </trkpt>
      <trkpt lat="43.06335833" lon="-4.18935167">
        <ele>1204.0</ele>
        <time>2018-05-19T13:18:57.869Z</time>
      </trkpt>
      <trkpt lat="43.063355" lon="-4.18941333">
        <ele>1204.0</ele>
        <time>2018-05-19T13:18:58.872Z</time>
      </trkpt>
      <trkpt lat="43.063355" lon="-4.18944333">
        <ele>1204.0</ele>
        <time>2018-05-19T13:18:59.878Z</time>
      </trkpt>
      <trkpt lat="43.063355" lon="-4.18944333">
        <ele>1204.0</ele>
        <time>2018-05-19T13:19:00.868Z</time>
      </trkpt>
      <trkpt lat="43.06335333" lon="-4.189505">
        <ele>1204.0</ele>
        <time>2018-05-19T13:19:01.870Z</time>
      </trkpt>
      <trkpt lat="43.06335333" lon="-4.18953333">
        <ele>1205.0</ele>
        <time>2018-05-19T13:19:02.876Z</time>
      </trkpt>
      <trkpt lat="43.06335333" lon="-4.18953333">
        <ele>1205.0</ele>
        <time>2018-05-19T13:19:03.868Z</time>
      </trkpt>
      <trkpt lat="43.06335" lon="-4.18959333">
        <ele>1205.0</ele>
        <time>2018-05-19T13:19:04.871Z</time>
      </trkpt>
      <trkpt lat="43.06335" lon="-4.18962167">
        <ele>1205.0</ele>
        <time>2018-05-19T13:19:05.871Z</time>
      </trkpt>
      <trkpt lat="43.06335" lon="-4.18962167">
        <ele>1205.0</ele>
        <time>2018-05-19T13:19:06.867Z</time>
      </trkpt>
      <trkpt lat="43.06334833" lon="-4.18967833">
        <ele>1206.0</ele>
        <time>2018-05-19T13:19:07.870Z</time>
      </trkpt>
      <trkpt lat="43.06334833" lon="-4.18967833">
        <ele>1206.0</ele>
        <time>2018-05-19T13:19:08.867Z</time>
      </trkpt>
      <trkpt lat="43.06334167" lon="-4.18973667">
        <ele>1206.0</ele>
        <time>2018-05-19T13:19:09.870Z</time>
      </trkpt>
      <trkpt lat="43.06334167" lon="-4.18973667">
        <ele>1206.0</ele>
        <time>2018-05-19T13:19:10.867Z</time>
      </trkpt>
      <trkpt lat="43.06333833" lon="-4.18979667">
        <ele>1206.0</ele>
        <time>2018-05-19T13:19:11.871Z</time>
      </trkpt>
      <trkpt lat="43.06333833" lon="-4.18979667">
        <ele>1206.0</ele>
        <time>2018-05-19T13:19:12.867Z</time>
      </trkpt>
      <trkpt lat="43.06333333" lon="-4.18985667">
        <ele>1207.0</ele>
        <time>2018-05-19T13:19:13.872Z</time>
      </trkpt>
      <trkpt lat="43.06333333" lon="-4.18985667">
        <ele>1207.0</ele>
        <time>2018-05-19T13:19:14.870Z</time>
      </trkpt>
      <trkpt lat="43.06332667" lon="-4.18991333">
        <ele>1207.0</ele>
        <time>2018-05-19T13:19:15.869Z</time>
      </trkpt>
      <trkpt lat="43.06332667" lon="-4.18991333">
        <ele>1207.0</ele>
        <time>2018-05-19T13:19:16.868Z</time>
      </trkpt>
      <trkpt lat="43.06331833" lon="-4.18997">
        <ele>1208.0</ele>
        <time>2018-05-19T13:19:17.871Z</time>
      </trkpt>
      <trkpt lat="43.06331833" lon="-4.18997">
        <ele>1208.0</ele>
        <time>2018-05-19T13:19:18.865Z</time>
      </trkpt>
      <trkpt lat="43.06330833" lon="-4.19002667">
        <ele>1208.0</ele>
        <time>2018-05-19T13:19:19.861Z</time>
      </trkpt>
      <trkpt lat="43.06330167" lon="-4.190055">
        <ele>1208.0</ele>
        <time>2018-05-19T13:19:20.871Z</time>
      </trkpt>
      <trkpt lat="43.06330167" lon="-4.190055">
        <ele>1208.0</ele>
        <time>2018-05-19T13:19:21.868Z</time>
      </trkpt>
      <trkpt lat="43.06328667" lon="-4.19010833">
        <ele>1208.0</ele>
        <time>2018-05-19T13:19:22.871Z</time>
      </trkpt>
      <trkpt lat="43.06327833" lon="-4.19013667">
        <ele>1209.0</ele>
        <time>2018-05-19T13:19:23.872Z</time>
      </trkpt>
      <trkpt lat="43.06327833" lon="-4.19013667">
        <ele>1209.0</ele>
        <time>2018-05-19T13:19:24.879Z</time>
      </trkpt>
      <trkpt lat="43.06325667" lon="-4.19018667">
        <ele>1209.0</ele>
        <time>2018-05-19T13:19:25.871Z</time>
      </trkpt>
      <trkpt lat="43.06325667" lon="-4.19018667">
        <ele>1209.0</ele>
        <time>2018-05-19T13:19:26.865Z</time>
      </trkpt>
      <trkpt lat="43.06323667" lon="-4.19023167">
        <ele>1209.0</ele>
        <time>2018-05-19T13:19:27.871Z</time>
      </trkpt>
      <trkpt lat="43.06323667" lon="-4.19023167">
        <ele>1209.0</ele>
        <time>2018-05-19T13:19:28.867Z</time>
      </trkpt>
      <trkpt lat="43.063215" lon="-4.19027167">
        <ele>1210.0</ele>
        <time>2018-05-19T13:19:29.871Z</time>
      </trkpt>
      <trkpt lat="43.063215" lon="-4.19027167">
        <ele>1210.0</ele>
        <time>2018-05-19T13:19:30.868Z</time>
      </trkpt>
      <trkpt lat="43.06319167" lon="-4.19030833">
        <ele>1210.0</ele>
        <time>2018-05-19T13:19:31.870Z</time>
      </trkpt>
      <trkpt lat="43.06317833" lon="-4.190325">
        <ele>1210.0</ele>
        <time>2018-05-19T13:19:32.870Z</time>
      </trkpt>
      <trkpt lat="43.06317833" lon="-4.190325">
        <ele>1210.0</ele>
        <time>2018-05-19T13:19:33.867Z</time>
      </trkpt>
      <trkpt lat="43.06315" lon="-4.190355">
        <ele>1210.0</ele>
        <time>2018-05-19T13:19:34.870Z</time>
      </trkpt>
      <trkpt lat="43.06315" lon="-4.190355">
        <ele>1210.0</ele>
        <time>2018-05-19T13:19:35.865Z</time>
      </trkpt>
      <trkpt lat="43.06312167" lon="-4.19038667">
        <ele>1211.0</ele>
        <time>2018-05-19T13:19:36.852Z</time>
      </trkpt>
      <trkpt lat="43.06312167" lon="-4.19038667">
        <ele>1211.0</ele>
        <time>2018-05-19T13:19:37.865Z</time>
      </trkpt>
      <trkpt lat="43.06309167" lon="-4.19041167">
        <ele>1211.0</ele>
        <time>2018-05-19T13:19:38.872Z</time>
      </trkpt>
      <trkpt lat="43.06307667" lon="-4.190425">
        <ele>1211.0</ele>
        <time>2018-05-19T13:19:39.878Z</time>
      </trkpt>
      <trkpt lat="43.06306167" lon="-4.19043833">
        <ele>1211.0</ele>
        <time>2018-05-19T13:19:40.870Z</time>
      </trkpt>
      <trkpt lat="43.06304667" lon="-4.19045">
        <ele>1211.0</ele>
        <time>2018-05-19T13:19:41.871Z</time>
      </trkpt>
      <trkpt lat="43.06304667" lon="-4.19045">
        <ele>1211.0</ele>
        <time>2018-05-19T13:19:42.867Z</time>
      </trkpt>
      <trkpt lat="43.06301667" lon="-4.19047333">
        <ele>1212.0</ele>
        <time>2018-05-19T13:19:43.883Z</time>
      </trkpt>
      <trkpt lat="43.06301667" lon="-4.19047333">
        <ele>1212.0</ele>
        <time>2018-05-19T13:19:44.880Z</time>
      </trkpt>
      <trkpt lat="43.062985" lon="-4.19049667">
        <ele>1212.0</ele>
        <time>2018-05-19T13:19:45.871Z</time>
      </trkpt>
      <trkpt lat="43.062985" lon="-4.19049667">
        <ele>1212.0</ele>
        <time>2018-05-19T13:19:46.857Z</time>
      </trkpt>
      <trkpt lat="43.06295333" lon="-4.19052333">
        <ele>1212.0</ele>
        <time>2018-05-19T13:19:47.864Z</time>
      </trkpt>
      <trkpt lat="43.06295333" lon="-4.19052333">
        <ele>1212.0</ele>
        <time>2018-05-19T13:19:48.870Z</time>
      </trkpt>
      <trkpt lat="43.06292333" lon="-4.19054833">
        <ele>1212.0</ele>
        <time>2018-05-19T13:19:49.877Z</time>
      </trkpt>
      <trkpt lat="43.06290667" lon="-4.19056167">
        <ele>1212.0</ele>
        <time>2018-05-19T13:19:50.882Z</time>
      </trkpt>
      <trkpt lat="43.06290667" lon="-4.19056167">
        <ele>1212.0</ele>
        <time>2018-05-19T13:19:51.868Z</time>
      </trkpt>
      <trkpt lat="43.062875" lon="-4.19058">
        <ele>1213.0</ele>
        <time>2018-05-19T13:19:52.870Z</time>
      </trkpt>
      <trkpt lat="43.06286" lon="-4.19058833">
        <ele>1213.0</ele>
        <time>2018-05-19T13:19:53.871Z</time>
      </trkpt>
      <trkpt lat="43.06286" lon="-4.19058833">
        <ele>1213.0</ele>
        <time>2018-05-19T13:19:54.879Z</time>
      </trkpt>
      <trkpt lat="43.06283333" lon="-4.19060833">
        <ele>1214.0</ele>
        <time>2018-05-19T13:19:55.867Z</time>
      </trkpt>
      <trkpt lat="43.06283333" lon="-4.19060833">
        <ele>1214.0</ele>
        <time>2018-05-19T13:19:56.867Z</time>
      </trkpt>
      <trkpt lat="43.06280667" lon="-4.19063167">
        <ele>1214.0</ele>
        <time>2018-05-19T13:19:57.870Z</time>
      </trkpt>
      <trkpt lat="43.06280667" lon="-4.19063167">
        <ele>1214.0</ele>
        <time>2018-05-19T13:19:58.865Z</time>
      </trkpt>
      <trkpt lat="43.06277833" lon="-4.19065333">
        <ele>1214.0</ele>
        <time>2018-05-19T13:19:59.870Z</time>
      </trkpt>
      <trkpt lat="43.06277833" lon="-4.19065333">
        <ele>1214.0</ele>
        <time>2018-05-19T13:20:00.868Z</time>
      </trkpt>
      <trkpt lat="43.06275167" lon="-4.19067667">
        <ele>1215.0</ele>
        <time>2018-05-19T13:20:01.867Z</time>
      </trkpt>
      <trkpt lat="43.062745" lon="-4.19068667">
        <ele>1215.0</ele>
        <time>2018-05-19T13:20:02.877Z</time>
      </trkpt>
      <trkpt lat="43.062745" lon="-4.19068667">
        <ele>1215.0</ele>
        <time>2018-05-19T13:20:03.867Z</time>
      </trkpt>
      <trkpt lat="43.06274167" lon="-4.190685">
        <ele>1215.0</ele>
        <time>2018-05-19T13:20:04.869Z</time>
      </trkpt>
      <trkpt lat="43.06274167" lon="-4.19068667">
        <ele>1215.0</ele>
        <time>2018-05-19T13:20:05.871Z</time>
      </trkpt>
      <trkpt lat="43.06274167" lon="-4.19068667">
        <ele>1215.0</ele>
        <time>2018-05-19T13:20:06.864Z</time>
      </trkpt>
      <trkpt lat="43.06274167" lon="-4.19068667">
        <ele>1215.0</ele>
        <time>2018-05-19T13:20:07.865Z</time>
      </trkpt>
      <trkpt lat="43.06272667" lon="-4.19071167">
        <ele>1216.0</ele>
        <time>2018-05-19T13:20:08.857Z</time>
      </trkpt>
      <trkpt lat="43.06272667" lon="-4.19071167">
        <ele>1216.0</ele>
        <time>2018-05-19T13:20:09.881Z</time>
      </trkpt>
      <trkpt lat="43.06270833" lon="-4.19073">
        <ele>1216.0</ele>
        <time>2018-05-19T13:20:10.870Z</time>
      </trkpt>
      <trkpt lat="43.06270833" lon="-4.19073">
        <ele>1216.0</ele>
        <time>2018-05-19T13:20:11.883Z</time>
      </trkpt>
      <trkpt lat="43.06268667" lon="-4.19074833">
        <ele>1216.0</ele>
        <time>2018-05-19T13:20:12.870Z</time>
      </trkpt>
      <trkpt lat="43.062675" lon="-4.19075667">
        <ele>1216.0</ele>
        <time>2018-05-19T13:20:13.867Z</time>
      </trkpt>
      <trkpt lat="43.062675" lon="-4.19075667">
        <ele>1216.0</ele>
        <time>2018-05-19T13:20:14.867Z</time>
      </trkpt>
      <trkpt lat="43.06265333" lon="-4.190775">
        <ele>1216.0</ele>
        <time>2018-05-19T13:20:15.870Z</time>
      </trkpt>
      <trkpt lat="43.06265333" lon="-4.190775">
        <ele>1216.0</ele>
        <time>2018-05-19T13:20:16.867Z</time>
      </trkpt>
      <trkpt lat="43.06263" lon="-4.190795">
        <ele>1217.0</ele>
        <time>2018-05-19T13:20:17.862Z</time>
      </trkpt>
      <trkpt lat="43.06263" lon="-4.190795">
        <ele>1217.0</ele>
        <time>2018-05-19T13:20:18.878Z</time>
      </trkpt>
      <trkpt lat="43.06261" lon="-4.19082">
        <ele>1217.0</ele>
        <time>2018-05-19T13:20:19.867Z</time>
      </trkpt>
      <trkpt lat="43.06261" lon="-4.19082">
        <ele>1217.0</ele>
        <time>2018-05-19T13:20:20.868Z</time>
      </trkpt>
      <trkpt lat="43.06258667" lon="-4.190845">
        <ele>1217.0</ele>
        <time>2018-05-19T13:20:21.870Z</time>
      </trkpt>
      <trkpt lat="43.06258667" lon="-4.190845">
        <ele>1217.0</ele>
        <time>2018-05-19T13:20:22.869Z</time>
      </trkpt>
      <trkpt lat="43.062565" lon="-4.19087167">
        <ele>1217.0</ele>
        <time>2018-05-19T13:20:23.871Z</time>
      </trkpt>
      <trkpt lat="43.062565" lon="-4.19087167">
        <ele>1217.0</ele>
        <time>2018-05-19T13:20:24.862Z</time>
      </trkpt>
      <trkpt lat="43.062545" lon="-4.19089667">
        <ele>1217.0</ele>
        <time>2018-05-19T13:20:25.867Z</time>
      </trkpt>
      <trkpt lat="43.062545" lon="-4.19089667">
        <ele>1217.0</ele>
        <time>2018-05-19T13:20:26.867Z</time>
      </trkpt>
      <trkpt lat="43.06252667" lon="-4.19091833">
        <ele>1217.0</ele>
        <time>2018-05-19T13:20:27.870Z</time>
      </trkpt>
      <trkpt lat="43.06251667" lon="-4.19093333">
        <ele>1217.0</ele>
        <time>2018-05-19T13:20:28.875Z</time>
      </trkpt>
      <trkpt lat="43.06251667" lon="-4.19093333">
        <ele>1217.0</ele>
        <time>2018-05-19T13:20:29.868Z</time>
      </trkpt>
      <trkpt lat="43.06249833" lon="-4.19096">
        <ele>1218.0</ele>
        <time>2018-05-19T13:20:30.845Z</time>
      </trkpt>
      <trkpt lat="43.06249833" lon="-4.19096">
        <ele>1218.0</ele>
        <time>2018-05-19T13:20:31.857Z</time>
      </trkpt>
      <trkpt lat="43.06248333" lon="-4.19098833">
        <ele>1218.0</ele>
        <time>2018-05-19T13:20:32.865Z</time>
      </trkpt>
      <trkpt lat="43.06248333" lon="-4.19098833">
        <ele>1218.0</ele>
        <time>2018-05-19T13:20:33.872Z</time>
      </trkpt>
      <trkpt lat="43.06246833" lon="-4.19101667">
        <ele>1218.0</ele>
        <time>2018-05-19T13:20:34.879Z</time>
      </trkpt>
      <trkpt lat="43.06246" lon="-4.19103">
        <ele>1218.0</ele>
        <time>2018-05-19T13:20:35.871Z</time>
      </trkpt>
      <trkpt lat="43.06246" lon="-4.19103">
        <ele>1218.0</ele>
        <time>2018-05-19T13:20:36.867Z</time>
      </trkpt>
      <trkpt lat="43.062445" lon="-4.191055">
        <ele>1218.0</ele>
        <time>2018-05-19T13:20:37.870Z</time>
      </trkpt>
      <trkpt lat="43.062445" lon="-4.191055">
        <ele>1218.0</ele>
        <time>2018-05-19T13:20:38.867Z</time>
      </trkpt>
      <trkpt lat="43.06242833" lon="-4.19108167">
        <ele>1219.0</ele>
        <time>2018-05-19T13:20:39.869Z</time>
      </trkpt>
      <trkpt lat="43.06242833" lon="-4.19108167">
        <ele>1219.0</ele>
        <time>2018-05-19T13:20:40.869Z</time>
      </trkpt>
      <trkpt lat="43.06241333" lon="-4.19111">
        <ele>1219.0</ele>
        <time>2018-05-19T13:20:41.871Z</time>
      </trkpt>
      <trkpt lat="43.06241333" lon="-4.19111">
        <ele>1219.0</ele>
        <time>2018-05-19T13:20:42.861Z</time>
      </trkpt>
      <trkpt lat="43.06240333" lon="-4.19114">
        <ele>1219.0</ele>
        <time>2018-05-19T13:20:43.869Z</time>
      </trkpt>
      <trkpt lat="43.06240333" lon="-4.19114">
        <ele>1219.0</ele>
        <time>2018-05-19T13:20:44.868Z</time>
      </trkpt>
      <trkpt lat="43.06238833" lon="-4.191165">
        <ele>1219.0</ele>
        <time>2018-05-19T13:20:45.869Z</time>
      </trkpt>
      <trkpt lat="43.06238333" lon="-4.19117667">
        <ele>1219.0</ele>
        <time>2018-05-19T13:20:46.880Z</time>
      </trkpt>
      <trkpt lat="43.06237833" lon="-4.19118833">
        <ele>1219.0</ele>
        <time>2018-05-19T13:20:47.854Z</time>
      </trkpt>
      <trkpt lat="43.06237833" lon="-4.19118833">
        <ele>1219.0</ele>
        <time>2018-05-19T13:20:48.862Z</time>
      </trkpt>
      <trkpt lat="43.06236333" lon="-4.19121333">
        <ele>1219.0</ele>
        <time>2018-05-19T13:20:49.870Z</time>
      </trkpt>
      <trkpt lat="43.06235667" lon="-4.19122667">
        <ele>1219.0</ele>
        <time>2018-05-19T13:20:50.848Z</time>
      </trkpt>
      <trkpt lat="43.06235667" lon="-4.19122667">
        <ele>1219.0</ele>
        <time>2018-05-19T13:20:51.882Z</time>
      </trkpt>
      <trkpt lat="43.06234167" lon="-4.19125167">
        <ele>1220.0</ele>
        <time>2018-05-19T13:20:52.878Z</time>
      </trkpt>
      <trkpt lat="43.06233667" lon="-4.191265">
        <ele>1220.0</ele>
        <time>2018-05-19T13:20:53.878Z</time>
      </trkpt>
      <trkpt lat="43.06233667" lon="-4.191265">
        <ele>1220.0</ele>
        <time>2018-05-19T13:20:54.866Z</time>
      </trkpt>
      <trkpt lat="43.06232167" lon="-4.19129167">
        <ele>1220.0</ele>
        <time>2018-05-19T13:20:55.878Z</time>
      </trkpt>
      <trkpt lat="43.06232167" lon="-4.19129167">
        <ele>1220.0</ele>
        <time>2018-05-19T13:20:56.871Z</time>
      </trkpt>
      <trkpt lat="43.06230833" lon="-4.19132333">
        <ele>1220.0</ele>
        <time>2018-05-19T13:20:57.877Z</time>
      </trkpt>
      <trkpt lat="43.06230833" lon="-4.19132333">
        <ele>1220.0</ele>
        <time>2018-05-19T13:20:58.866Z</time>
      </trkpt>
      <trkpt lat="43.06229667" lon="-4.19135333">
        <ele>1220.0</ele>
        <time>2018-05-19T13:20:59.854Z</time>
      </trkpt>
      <trkpt lat="43.06229667" lon="-4.19135333">
        <ele>1220.0</ele>
        <time>2018-05-19T13:21:00.883Z</time>
      </trkpt>
      <trkpt lat="43.06228333" lon="-4.19138333">
        <ele>1220.0</ele>
        <time>2018-05-19T13:21:01.877Z</time>
      </trkpt>
      <trkpt lat="43.06228333" lon="-4.19138333">
        <ele>1220.0</ele>
        <time>2018-05-19T13:21:02.877Z</time>
      </trkpt>
      <trkpt lat="43.06227167" lon="-4.191415">
        <ele>1221.0</ele>
        <time>2018-05-19T13:21:03.879Z</time>
      </trkpt>
      <trkpt lat="43.06227167" lon="-4.191415">
        <ele>1221.0</ele>
        <time>2018-05-19T13:21:04.877Z</time>
      </trkpt>
      <trkpt lat="43.06225833" lon="-4.191445">
        <ele>1221.0</ele>
        <time>2018-05-19T13:21:05.877Z</time>
      </trkpt>
      <trkpt lat="43.06225833" lon="-4.191445">
        <ele>1221.0</ele>
        <time>2018-05-19T13:21:06.870Z</time>
      </trkpt>
      <trkpt lat="43.06224667" lon="-4.19147667">
        <ele>1221.0</ele>
        <time>2018-05-19T13:21:07.877Z</time>
      </trkpt>
      <trkpt lat="43.06224667" lon="-4.19147667">
        <ele>1221.0</ele>
        <time>2018-05-19T13:21:08.869Z</time>
      </trkpt>
      <trkpt lat="43.062235" lon="-4.19151">
        <ele>1222.0</ele>
        <time>2018-05-19T13:21:09.871Z</time>
      </trkpt>
      <trkpt lat="43.062235" lon="-4.19151">
        <ele>1222.0</ele>
        <time>2018-05-19T13:21:10.869Z</time>
      </trkpt>
      <trkpt lat="43.06222333" lon="-4.19154333">
        <ele>1222.0</ele>
        <time>2018-05-19T13:21:11.876Z</time>
      </trkpt>
      <trkpt lat="43.06222333" lon="-4.19154333">
        <ele>1222.0</ele>
        <time>2018-05-19T13:21:12.869Z</time>
      </trkpt>
      <trkpt lat="43.06221167" lon="-4.19157833">
        <ele>1222.0</ele>
        <time>2018-05-19T13:21:13.873Z</time>
      </trkpt>
      <trkpt lat="43.06221167" lon="-4.19157833">
        <ele>1222.0</ele>
        <time>2018-05-19T13:21:14.867Z</time>
      </trkpt>
      <trkpt lat="43.06220167" lon="-4.19161167">
        <ele>1222.0</ele>
        <time>2018-05-19T13:21:15.870Z</time>
      </trkpt>
      <trkpt lat="43.062195" lon="-4.19162667">
        <ele>1223.0</ele>
        <time>2018-05-19T13:21:16.871Z</time>
      </trkpt>
      <trkpt lat="43.062195" lon="-4.19162667">
        <ele>1223.0</ele>
        <time>2018-05-19T13:21:17.867Z</time>
      </trkpt>
      <trkpt lat="43.062185" lon="-4.19166167">
        <ele>1223.0</ele>
        <time>2018-05-19T13:21:18.869Z</time>
      </trkpt>
      <trkpt lat="43.062185" lon="-4.19166167">
        <ele>1223.0</ele>
        <time>2018-05-19T13:21:19.850Z</time>
      </trkpt>
      <trkpt lat="43.06217167" lon="-4.19169667">
        <ele>1223.0</ele>
        <time>2018-05-19T13:21:20.849Z</time>
      </trkpt>
      <trkpt lat="43.06217167" lon="-4.19169667">
        <ele>1223.0</ele>
        <time>2018-05-19T13:21:21.879Z</time>
      </trkpt>
      <trkpt lat="43.06216167" lon="-4.19173">
        <ele>1223.0</ele>
        <time>2018-05-19T13:21:22.863Z</time>
      </trkpt>
      <trkpt lat="43.062155" lon="-4.19174833">
        <ele>1223.0</ele>
        <time>2018-05-19T13:21:23.877Z</time>
      </trkpt>
      <trkpt lat="43.06215" lon="-4.191765">
        <ele>1223.0</ele>
        <time>2018-05-19T13:21:24.844Z</time>
      </trkpt>
      <trkpt lat="43.06215" lon="-4.191765">
        <ele>1223.0</ele>
        <time>2018-05-19T13:21:25.878Z</time>
      </trkpt>
      <trkpt lat="43.06214" lon="-4.19179833">
        <ele>1223.0</ele>
        <time>2018-05-19T13:21:26.870Z</time>
      </trkpt>
      <trkpt lat="43.06214" lon="-4.19179833">
        <ele>1223.0</ele>
        <time>2018-05-19T13:21:27.866Z</time>
      </trkpt>
      <trkpt lat="43.06212667" lon="-4.191835">
        <ele>1223.0</ele>
        <time>2018-05-19T13:21:28.871Z</time>
      </trkpt>
      <trkpt lat="43.06212667" lon="-4.191835">
        <ele>1223.0</ele>
        <time>2018-05-19T13:21:29.870Z</time>
      </trkpt>
      <trkpt lat="43.06211667" lon="-4.19187167">
        <ele>1224.0</ele>
        <time>2018-05-19T13:21:30.871Z</time>
      </trkpt>
      <trkpt lat="43.06211167" lon="-4.19188833">
        <ele>1224.0</ele>
        <time>2018-05-19T13:21:31.871Z</time>
      </trkpt>
      <trkpt lat="43.06211167" lon="-4.19188833">
        <ele>1224.0</ele>
        <time>2018-05-19T13:21:32.865Z</time>
      </trkpt>
      <trkpt lat="43.06210167" lon="-4.19192333">
        <ele>1224.0</ele>
        <time>2018-05-19T13:21:33.869Z</time>
      </trkpt>
      <trkpt lat="43.06210167" lon="-4.19192333">
        <ele>1224.0</ele>
        <time>2018-05-19T13:21:34.867Z</time>
      </trkpt>
      <trkpt lat="43.06209167" lon="-4.19196">
        <ele>1225.0</ele>
        <time>2018-05-19T13:21:35.872Z</time>
      </trkpt>
      <trkpt lat="43.06209167" lon="-4.19196">
        <ele>1225.0</ele>
        <time>2018-05-19T13:21:36.871Z</time>
      </trkpt>
      <trkpt lat="43.06208333" lon="-4.192">
        <ele>1225.0</ele>
        <time>2018-05-19T13:21:37.870Z</time>
      </trkpt>
      <trkpt lat="43.06208333" lon="-4.192">
        <ele>1225.0</ele>
        <time>2018-05-19T13:21:38.867Z</time>
      </trkpt>
      <trkpt lat="43.062075" lon="-4.19203667">
        <ele>1225.0</ele>
        <time>2018-05-19T13:21:39.870Z</time>
      </trkpt>
      <trkpt lat="43.06207" lon="-4.192055">
        <ele>1225.0</ele>
        <time>2018-05-19T13:21:40.869Z</time>
      </trkpt>
      <trkpt lat="43.062065" lon="-4.19207167">
        <ele>1225.0</ele>
        <time>2018-05-19T13:21:41.877Z</time>
      </trkpt>
      <trkpt lat="43.062065" lon="-4.19207167">
        <ele>1225.0</ele>
        <time>2018-05-19T13:21:42.866Z</time>
      </trkpt>
      <trkpt lat="43.062055" lon="-4.19210667">
        <ele>1225.0</ele>
        <time>2018-05-19T13:21:43.867Z</time>
      </trkpt>
      <trkpt lat="43.062055" lon="-4.19210667">
        <ele>1225.0</ele>
        <time>2018-05-19T13:21:44.867Z</time>
      </trkpt>
      <trkpt lat="43.06204833" lon="-4.19214333">
        <ele>1225.0</ele>
        <time>2018-05-19T13:21:45.861Z</time>
      </trkpt>
      <trkpt lat="43.06204833" lon="-4.19214333">
        <ele>1225.0</ele>
        <time>2018-05-19T13:21:46.876Z</time>
      </trkpt>
      <trkpt lat="43.06203667" lon="-4.19217667">
        <ele>1225.0</ele>
        <time>2018-05-19T13:21:47.845Z</time>
      </trkpt>
      <trkpt lat="43.06203667" lon="-4.19217667">
        <ele>1225.0</ele>
        <time>2018-05-19T13:21:48.856Z</time>
      </trkpt>
      <trkpt lat="43.06202667" lon="-4.19221">
        <ele>1226.0</ele>
        <time>2018-05-19T13:21:49.864Z</time>
      </trkpt>
      <trkpt lat="43.06202167" lon="-4.19222667">
        <ele>1226.0</ele>
        <time>2018-05-19T13:21:50.871Z</time>
      </trkpt>
      <trkpt lat="43.06202167" lon="-4.19222667">
        <ele>1226.0</ele>
        <time>2018-05-19T13:21:51.867Z</time>
      </trkpt>
      <trkpt lat="43.06201333" lon="-4.19226">
        <ele>1226.0</ele>
        <time>2018-05-19T13:21:52.871Z</time>
      </trkpt>
      <trkpt lat="43.06201333" lon="-4.19226">
        <ele>1226.0</ele>
        <time>2018-05-19T13:21:53.868Z</time>
      </trkpt>
      <trkpt lat="43.06200333" lon="-4.19229333">
        <ele>1226.0</ele>
        <time>2018-05-19T13:21:54.846Z</time>
      </trkpt>
      <trkpt lat="43.06199833" lon="-4.19231167">
        <ele>1226.0</ele>
        <time>2018-05-19T13:21:55.876Z</time>
      </trkpt>
      <trkpt lat="43.06199833" lon="-4.19231167">
        <ele>1226.0</ele>
        <time>2018-05-19T13:21:56.867Z</time>
      </trkpt>
      <trkpt lat="43.06198833" lon="-4.192345">
        <ele>1227.0</ele>
        <time>2018-05-19T13:21:57.869Z</time>
      </trkpt>
      <trkpt lat="43.06198833" lon="-4.192345">
        <ele>1227.0</ele>
        <time>2018-05-19T13:21:58.867Z</time>
      </trkpt>
      <trkpt lat="43.06197667" lon="-4.19238167">
        <ele>1227.0</ele>
        <time>2018-05-19T13:21:59.863Z</time>
      </trkpt>
      <trkpt lat="43.06197667" lon="-4.19238167">
        <ele>1227.0</ele>
        <time>2018-05-19T13:22:00.867Z</time>
      </trkpt>
      <trkpt lat="43.06196667" lon="-4.192415">
        <ele>1227.0</ele>
        <time>2018-05-19T13:22:01.869Z</time>
      </trkpt>
      <trkpt lat="43.06196" lon="-4.19243333">
        <ele>1227.0</ele>
        <time>2018-05-19T13:22:02.877Z</time>
      </trkpt>
      <trkpt lat="43.06196" lon="-4.19243333">
        <ele>1227.0</ele>
        <time>2018-05-19T13:22:03.867Z</time>
      </trkpt>
      <trkpt lat="43.06194667" lon="-4.192465">
        <ele>1227.0</ele>
        <time>2018-05-19T13:22:04.869Z</time>
      </trkpt>
      <trkpt lat="43.06194" lon="-4.19247833">
        <ele>1227.0</ele>
        <time>2018-05-19T13:22:05.871Z</time>
      </trkpt>
      <trkpt lat="43.06194" lon="-4.19247833">
        <ele>1227.0</ele>
        <time>2018-05-19T13:22:06.866Z</time>
      </trkpt>
      <trkpt lat="43.06192833" lon="-4.19250833">
        <ele>1227.0</ele>
        <time>2018-05-19T13:22:07.866Z</time>
      </trkpt>
      <trkpt lat="43.06192833" lon="-4.19250833">
        <ele>1227.0</ele>
        <time>2018-05-19T13:22:08.866Z</time>
      </trkpt>
      <trkpt lat="43.06191667" lon="-4.19254">
        <ele>1227.0</ele>
        <time>2018-05-19T13:22:09.878Z</time>
      </trkpt>
      <trkpt lat="43.06191" lon="-4.19255667">
        <ele>1227.0</ele>
        <time>2018-05-19T13:22:10.869Z</time>
      </trkpt>
      <trkpt lat="43.061905" lon="-4.19257333">
        <ele>1227.0</ele>
        <time>2018-05-19T13:22:11.870Z</time>
      </trkpt>
      <trkpt lat="43.061905" lon="-4.19257333">
        <ele>1227.0</ele>
        <time>2018-05-19T13:22:12.866Z</time>
      </trkpt>
      <trkpt lat="43.06189333" lon="-4.19260667">
        <ele>1228.0</ele>
        <time>2018-05-19T13:22:13.870Z</time>
      </trkpt>
      <trkpt lat="43.06189333" lon="-4.19260667">
        <ele>1228.0</ele>
        <time>2018-05-19T13:22:14.864Z</time>
      </trkpt>
      <trkpt lat="43.06188" lon="-4.19263833">
        <ele>1228.0</ele>
        <time>2018-05-19T13:22:15.870Z</time>
      </trkpt>
      <trkpt lat="43.06187333" lon="-4.192655">
        <ele>1228.0</ele>
        <time>2018-05-19T13:22:16.870Z</time>
      </trkpt>
      <trkpt lat="43.06186667" lon="-4.19267">
        <ele>1228.0</ele>
        <time>2018-05-19T13:22:17.856Z</time>
      </trkpt>
      <trkpt lat="43.06186667" lon="-4.19267">
        <ele>1228.0</ele>
        <time>2018-05-19T13:22:18.881Z</time>
      </trkpt>
      <trkpt lat="43.061855" lon="-4.19270333">
        <ele>1228.0</ele>
        <time>2018-05-19T13:22:19.867Z</time>
      </trkpt>
      <trkpt lat="43.061855" lon="-4.19270333">
        <ele>1228.0</ele>
        <time>2018-05-19T13:22:20.865Z</time>
      </trkpt>
      <trkpt lat="43.06184333" lon="-4.19273667">
        <ele>1229.0</ele>
        <time>2018-05-19T13:22:21.869Z</time>
      </trkpt>
      <trkpt lat="43.06183667" lon="-4.19275167">
        <ele>1229.0</ele>
        <time>2018-05-19T13:22:22.869Z</time>
      </trkpt>
      <trkpt lat="43.06182833" lon="-4.19276667">
        <ele>1229.0</ele>
        <time>2018-05-19T13:22:23.880Z</time>
      </trkpt>
      <trkpt lat="43.06182833" lon="-4.19276667">
        <ele>1229.0</ele>
        <time>2018-05-19T13:22:24.877Z</time>
      </trkpt>
      <trkpt lat="43.061815" lon="-4.19280167">
        <ele>1229.0</ele>
        <time>2018-05-19T13:22:25.867Z</time>
      </trkpt>
      <trkpt lat="43.061815" lon="-4.19280167">
        <ele>1229.0</ele>
        <time>2018-05-19T13:22:26.871Z</time>
      </trkpt>
      <trkpt lat="43.06180333" lon="-4.19283333">
        <ele>1229.0</ele>
        <time>2018-05-19T13:22:27.869Z</time>
      </trkpt>
      <trkpt lat="43.06179667" lon="-4.19285">
        <ele>1229.0</ele>
        <time>2018-05-19T13:22:28.869Z</time>
      </trkpt>
      <trkpt lat="43.06179" lon="-4.19287">
        <ele>1229.0</ele>
        <time>2018-05-19T13:22:29.870Z</time>
      </trkpt>
      <trkpt lat="43.06179" lon="-4.19287">
        <ele>1229.0</ele>
        <time>2018-05-19T13:22:30.867Z</time>
      </trkpt>
      <trkpt lat="43.061775" lon="-4.19290333">
        <ele>1230.0</ele>
        <time>2018-05-19T13:22:31.870Z</time>
      </trkpt>
      <trkpt lat="43.061775" lon="-4.19290333">
        <ele>1230.0</ele>
        <time>2018-05-19T13:22:32.862Z</time>
      </trkpt>
      <trkpt lat="43.06176" lon="-4.19293667">
        <ele>1230.0</ele>
        <time>2018-05-19T13:22:33.869Z</time>
      </trkpt>
      <trkpt lat="43.06176" lon="-4.19293667">
        <ele>1230.0</ele>
        <time>2018-05-19T13:22:34.866Z</time>
      </trkpt>
      <trkpt lat="43.06174833" lon="-4.19297333">
        <ele>1230.0</ele>
        <time>2018-05-19T13:22:35.870Z</time>
      </trkpt>
      <trkpt lat="43.06174833" lon="-4.19297333">
        <ele>1230.0</ele>
        <time>2018-05-19T13:22:36.864Z</time>
      </trkpt>
      <trkpt lat="43.06173167" lon="-4.19300667">
        <ele>1230.0</ele>
        <time>2018-05-19T13:22:37.870Z</time>
      </trkpt>
      <trkpt lat="43.06173167" lon="-4.19300667">
        <ele>1230.0</ele>
        <time>2018-05-19T13:22:38.867Z</time>
      </trkpt>
      <trkpt lat="43.06171833" lon="-4.19303833">
        <ele>1230.0</ele>
        <time>2018-05-19T13:22:39.869Z</time>
      </trkpt>
      <trkpt lat="43.06171167" lon="-4.19305333">
        <ele>1231.0</ele>
        <time>2018-05-19T13:22:40.869Z</time>
      </trkpt>
      <trkpt lat="43.061705" lon="-4.19307">
        <ele>1231.0</ele>
        <time>2018-05-19T13:22:41.870Z</time>
      </trkpt>
      <trkpt lat="43.061705" lon="-4.19307">
        <ele>1231.0</ele>
        <time>2018-05-19T13:22:42.867Z</time>
      </trkpt>
      <trkpt lat="43.06169333" lon="-4.19310167">
        <ele>1231.0</ele>
        <time>2018-05-19T13:22:43.870Z</time>
      </trkpt>
      <trkpt lat="43.06169333" lon="-4.19310167">
        <ele>1231.0</ele>
        <time>2018-05-19T13:22:44.867Z</time>
      </trkpt>
      <trkpt lat="43.06167833" lon="-4.19313">
        <ele>1231.0</ele>
        <time>2018-05-19T13:22:45.846Z</time>
      </trkpt>
      <trkpt lat="43.06167833" lon="-4.19313">
        <ele>1231.0</ele>
        <time>2018-05-19T13:22:46.872Z</time>
      </trkpt>
      <trkpt lat="43.061665" lon="-4.19316">
        <ele>1231.0</ele>
        <time>2018-05-19T13:22:47.880Z</time>
      </trkpt>
      <trkpt lat="43.06165833" lon="-4.19317667">
        <ele>1231.0</ele>
        <time>2018-05-19T13:22:48.846Z</time>
      </trkpt>
      <trkpt lat="43.06165833" lon="-4.19317667">
        <ele>1231.0</ele>
        <time>2018-05-19T13:22:49.854Z</time>
      </trkpt>
      <trkpt lat="43.061645" lon="-4.19320833">
        <ele>1231.0</ele>
        <time>2018-05-19T13:22:50.861Z</time>
      </trkpt>
      <trkpt lat="43.061645" lon="-4.19320833">
        <ele>1231.0</ele>
        <time>2018-05-19T13:22:51.867Z</time>
      </trkpt>
      <trkpt lat="43.06163333" lon="-4.19324167">
        <ele>1232.0</ele>
        <time>2018-05-19T13:22:52.865Z</time>
      </trkpt>
      <trkpt lat="43.06163333" lon="-4.19324167">
        <ele>1232.0</ele>
        <time>2018-05-19T13:22:53.867Z</time>
      </trkpt>
      <trkpt lat="43.06162" lon="-4.19327333">
        <ele>1232.0</ele>
        <time>2018-05-19T13:22:54.868Z</time>
      </trkpt>
      <trkpt lat="43.06161333" lon="-4.19328833">
        <ele>1232.0</ele>
        <time>2018-05-19T13:22:55.870Z</time>
      </trkpt>
      <trkpt lat="43.06161333" lon="-4.19328833">
        <ele>1232.0</ele>
        <time>2018-05-19T13:22:56.865Z</time>
      </trkpt>
      <trkpt lat="43.06159667" lon="-4.19331667">
        <ele>1232.0</ele>
        <time>2018-05-19T13:22:57.868Z</time>
      </trkpt>
      <trkpt lat="43.06159667" lon="-4.19331667">
        <ele>1232.0</ele>
        <time>2018-05-19T13:22:58.866Z</time>
      </trkpt>
      <trkpt lat="43.06158167" lon="-4.19334667">
        <ele>1232.0</ele>
        <time>2018-05-19T13:22:59.868Z</time>
      </trkpt>
      <trkpt lat="43.06158167" lon="-4.19334667">
        <ele>1232.0</ele>
        <time>2018-05-19T13:23:00.866Z</time>
      </trkpt>
      <trkpt lat="43.061565" lon="-4.19338667">
        <ele>1232.0</ele>
        <time>2018-05-19T13:23:01.869Z</time>
      </trkpt>
      <trkpt lat="43.061565" lon="-4.19338667">
        <ele>1232.0</ele>
        <time>2018-05-19T13:23:02.869Z</time>
      </trkpt>
      <trkpt lat="43.06155167" lon="-4.193415">
        <ele>1232.0</ele>
        <time>2018-05-19T13:23:03.869Z</time>
      </trkpt>
      <trkpt lat="43.06155167" lon="-4.193415">
        <ele>1232.0</ele>
        <time>2018-05-19T13:23:04.866Z</time>
      </trkpt>
      <trkpt lat="43.06153667" lon="-4.19344667">
        <ele>1233.0</ele>
        <time>2018-05-19T13:23:05.869Z</time>
      </trkpt>
      <trkpt lat="43.06153167" lon="-4.19346167">
        <ele>1233.0</ele>
        <time>2018-05-19T13:23:06.853Z</time>
      </trkpt>
      <trkpt lat="43.06153167" lon="-4.19346167">
        <ele>1233.0</ele>
        <time>2018-05-19T13:23:07.879Z</time>
      </trkpt>
      <trkpt lat="43.06152" lon="-4.19349333">
        <ele>1233.0</ele>
        <time>2018-05-19T13:23:08.867Z</time>
      </trkpt>
      <trkpt lat="43.06152" lon="-4.19349333">
        <ele>1233.0</ele>
        <time>2018-05-19T13:23:09.868Z</time>
      </trkpt>
      <trkpt lat="43.06150667" lon="-4.193525">
        <ele>1233.0</ele>
        <time>2018-05-19T13:23:10.868Z</time>
      </trkpt>
      <trkpt lat="43.0615" lon="-4.19354">
        <ele>1234.0</ele>
        <time>2018-05-19T13:23:11.869Z</time>
      </trkpt>
      <trkpt lat="43.0615" lon="-4.19354">
        <ele>1234.0</ele>
        <time>2018-05-19T13:23:12.869Z</time>
      </trkpt>
      <trkpt lat="43.061485" lon="-4.19357">
        <ele>1234.0</ele>
        <time>2018-05-19T13:23:13.872Z</time>
      </trkpt>
      <trkpt lat="43.061485" lon="-4.19357">
        <ele>1234.0</ele>
        <time>2018-05-19T13:23:14.862Z</time>
      </trkpt>
      <trkpt lat="43.06147167" lon="-4.19360167">
        <ele>1234.0</ele>
        <time>2018-05-19T13:23:15.869Z</time>
      </trkpt>
      <trkpt lat="43.06147167" lon="-4.19360167">
        <ele>1234.0</ele>
        <time>2018-05-19T13:23:16.865Z</time>
      </trkpt>
      <trkpt lat="43.06146" lon="-4.19363167">
        <ele>1234.0</ele>
        <time>2018-05-19T13:23:17.869Z</time>
      </trkpt>
      <trkpt lat="43.06146" lon="-4.19363167">
        <ele>1234.0</ele>
        <time>2018-05-19T13:23:18.865Z</time>
      </trkpt>
      <trkpt lat="43.06144667" lon="-4.19366">
        <ele>1234.0</ele>
        <time>2018-05-19T13:23:19.867Z</time>
      </trkpt>
      <trkpt lat="43.06144667" lon="-4.19366">
        <ele>1234.0</ele>
        <time>2018-05-19T13:23:20.867Z</time>
      </trkpt>
      <trkpt lat="43.061435" lon="-4.193695">
        <ele>1235.0</ele>
        <time>2018-05-19T13:23:21.868Z</time>
      </trkpt>
      <trkpt lat="43.061435" lon="-4.193695">
        <ele>1235.0</ele>
        <time>2018-05-19T13:23:22.868Z</time>
      </trkpt>
      <trkpt lat="43.06142333" lon="-4.19372667">
        <ele>1235.0</ele>
        <time>2018-05-19T13:23:23.871Z</time>
      </trkpt>
      <trkpt lat="43.06141667" lon="-4.19374333">
        <ele>1235.0</ele>
        <time>2018-05-19T13:23:24.869Z</time>
      </trkpt>
      <trkpt lat="43.06141" lon="-4.19375833">
        <ele>1235.0</ele>
        <time>2018-05-19T13:23:25.868Z</time>
      </trkpt>
      <trkpt lat="43.06141" lon="-4.19375833">
        <ele>1235.0</ele>
        <time>2018-05-19T13:23:26.865Z</time>
      </trkpt>
      <trkpt lat="43.06139667" lon="-4.19379">
        <ele>1236.0</ele>
        <time>2018-05-19T13:23:27.866Z</time>
      </trkpt>
      <trkpt lat="43.06139667" lon="-4.19379">
        <ele>1236.0</ele>
        <time>2018-05-19T13:23:28.863Z</time>
      </trkpt>
      <trkpt lat="43.061385" lon="-4.19382167">
        <ele>1236.0</ele>
        <time>2018-05-19T13:23:29.880Z</time>
      </trkpt>
      <trkpt lat="43.061385" lon="-4.19382167">
        <ele>1236.0</ele>
        <time>2018-05-19T13:23:30.870Z</time>
      </trkpt>
      <trkpt lat="43.06137167" lon="-4.19385333">
        <ele>1236.0</ele>
        <time>2018-05-19T13:23:31.869Z</time>
      </trkpt>
      <trkpt lat="43.06137167" lon="-4.19385333">
        <ele>1236.0</ele>
        <time>2018-05-19T13:23:32.865Z</time>
      </trkpt>
      <trkpt lat="43.06136167" lon="-4.193885">
        <ele>1236.0</ele>
        <time>2018-05-19T13:23:33.868Z</time>
      </trkpt>
      <trkpt lat="43.061355" lon="-4.19390167">
        <ele>1236.0</ele>
        <time>2018-05-19T13:23:34.869Z</time>
      </trkpt>
      <trkpt lat="43.06135" lon="-4.19391833">
        <ele>1236.0</ele>
        <time>2018-05-19T13:23:35.871Z</time>
      </trkpt>
      <trkpt lat="43.06135" lon="-4.19391833">
        <ele>1236.0</ele>
        <time>2018-05-19T13:23:36.866Z</time>
      </trkpt>
      <trkpt lat="43.06133833" lon="-4.19395167">
        <ele>1236.0</ele>
        <time>2018-05-19T13:23:37.869Z</time>
      </trkpt>
      <trkpt lat="43.06133833" lon="-4.19395167">
        <ele>1236.0</ele>
        <time>2018-05-19T13:23:38.866Z</time>
      </trkpt>
      <trkpt lat="43.06132833" lon="-4.19398667">
        <ele>1236.0</ele>
        <time>2018-05-19T13:23:39.868Z</time>
      </trkpt>
      <trkpt lat="43.06132833" lon="-4.19398667">
        <ele>1236.0</ele>
        <time>2018-05-19T13:23:40.860Z</time>
      </trkpt>
      <trkpt lat="43.061315" lon="-4.19402">
        <ele>1236.0</ele>
        <time>2018-05-19T13:23:41.845Z</time>
      </trkpt>
      <trkpt lat="43.06131" lon="-4.19403667">
        <ele>1236.0</ele>
        <time>2018-05-19T13:23:42.870Z</time>
      </trkpt>
      <trkpt lat="43.06131" lon="-4.19403667">
        <ele>1236.0</ele>
        <time>2018-05-19T13:23:43.868Z</time>
      </trkpt>
      <trkpt lat="43.06129833" lon="-4.19406667">
        <ele>1236.0</ele>
        <time>2018-05-19T13:23:44.845Z</time>
      </trkpt>
      <trkpt lat="43.06129833" lon="-4.19406667">
        <ele>1236.0</ele>
        <time>2018-05-19T13:23:45.869Z</time>
      </trkpt>
      <trkpt lat="43.06128333" lon="-4.19410167">
        <ele>1236.0</ele>
        <time>2018-05-19T13:23:46.884Z</time>
      </trkpt>
      <trkpt lat="43.06127667" lon="-4.194115">
        <ele>1236.0</ele>
        <time>2018-05-19T13:23:47.851Z</time>
      </trkpt>
      <trkpt lat="43.06127667" lon="-4.194115">
        <ele>1236.0</ele>
        <time>2018-05-19T13:23:48.858Z</time>
      </trkpt>
      <trkpt lat="43.061265" lon="-4.19414833">
        <ele>1236.0</ele>
        <time>2018-05-19T13:23:49.865Z</time>
      </trkpt>
      <trkpt lat="43.06126" lon="-4.194165">
        <ele>1236.0</ele>
        <time>2018-05-19T13:23:50.876Z</time>
      </trkpt>
      <trkpt lat="43.06126" lon="-4.194165">
        <ele>1236.0</ele>
        <time>2018-05-19T13:23:51.865Z</time>
      </trkpt>
      <trkpt lat="43.06124667" lon="-4.19419833">
        <ele>1236.0</ele>
        <time>2018-05-19T13:23:52.868Z</time>
      </trkpt>
      <trkpt lat="43.06123833" lon="-4.19421667">
        <ele>1236.0</ele>
        <time>2018-05-19T13:23:53.870Z</time>
      </trkpt>
      <trkpt lat="43.06123833" lon="-4.19421667">
        <ele>1236.0</ele>
        <time>2018-05-19T13:23:54.866Z</time>
      </trkpt>
      <trkpt lat="43.06122333" lon="-4.19424833">
        <ele>1236.0</ele>
        <time>2018-05-19T13:23:55.847Z</time>
      </trkpt>
      <trkpt lat="43.06122333" lon="-4.19424833">
        <ele>1236.0</ele>
        <time>2018-05-19T13:23:56.876Z</time>
      </trkpt>
      <trkpt lat="43.06120167" lon="-4.19429">
        <ele>1236.0</ele>
        <time>2018-05-19T13:23:57.867Z</time>
      </trkpt>
      <trkpt lat="43.06120167" lon="-4.19429">
        <ele>1236.0</ele>
        <time>2018-05-19T13:23:58.865Z</time>
      </trkpt>
      <trkpt lat="43.06118" lon="-4.19432">
        <ele>1237.0</ele>
        <time>2018-05-19T13:23:59.876Z</time>
      </trkpt>
      <trkpt lat="43.06118" lon="-4.19432">
        <ele>1237.0</ele>
        <time>2018-05-19T13:24:00.866Z</time>
      </trkpt>
      <trkpt lat="43.06115833" lon="-4.19434333">
        <ele>1237.0</ele>
        <time>2018-05-19T13:24:01.868Z</time>
      </trkpt>
      <trkpt lat="43.061145" lon="-4.19435333">
        <ele>1237.0</ele>
        <time>2018-05-19T13:24:02.869Z</time>
      </trkpt>
      <trkpt lat="43.061145" lon="-4.19435333">
        <ele>1237.0</ele>
        <time>2018-05-19T13:24:03.866Z</time>
      </trkpt>
      <trkpt lat="43.06112167" lon="-4.194365">
        <ele>1238.0</ele>
        <time>2018-05-19T13:24:04.869Z</time>
      </trkpt>
      <trkpt lat="43.06111" lon="-4.19436833">
        <ele>1238.0</ele>
        <time>2018-05-19T13:24:05.870Z</time>
      </trkpt>
      <trkpt lat="43.06111" lon="-4.19436833">
        <ele>1238.0</ele>
        <time>2018-05-19T13:24:06.865Z</time>
      </trkpt>
      <trkpt lat="43.06109" lon="-4.19437667">
        <ele>1239.0</ele>
        <time>2018-05-19T13:24:07.869Z</time>
      </trkpt>
      <trkpt lat="43.06109" lon="-4.19437667">
        <ele>1239.0</ele>
        <time>2018-05-19T13:24:08.865Z</time>
      </trkpt>
      <trkpt lat="43.061065" lon="-4.19437333">
        <ele>1239.0</ele>
        <time>2018-05-19T13:24:09.881Z</time>
      </trkpt>
      <trkpt lat="43.061065" lon="-4.19437333">
        <ele>1239.0</ele>
        <time>2018-05-19T13:24:10.867Z</time>
      </trkpt>
      <trkpt lat="43.06104167" lon="-4.19436">
        <ele>1240.0</ele>
        <time>2018-05-19T13:24:11.869Z</time>
      </trkpt>
      <trkpt lat="43.06104167" lon="-4.19436">
        <ele>1240.0</ele>
        <time>2018-05-19T13:24:12.866Z</time>
      </trkpt>
      <trkpt lat="43.06101667" lon="-4.194345">
        <ele>1240.0</ele>
        <time>2018-05-19T13:24:13.869Z</time>
      </trkpt>
      <trkpt lat="43.06101667" lon="-4.194345">
        <ele>1240.0</ele>
        <time>2018-05-19T13:24:14.865Z</time>
      </trkpt>
      <trkpt lat="43.06099167" lon="-4.19432833">
        <ele>1240.0</ele>
        <time>2018-05-19T13:24:15.865Z</time>
      </trkpt>
      <trkpt lat="43.06099167" lon="-4.19432833">
        <ele>1240.0</ele>
        <time>2018-05-19T13:24:16.863Z</time>
      </trkpt>
      <trkpt lat="43.06096667" lon="-4.19431333">
        <ele>1241.0</ele>
        <time>2018-05-19T13:24:17.869Z</time>
      </trkpt>
      <trkpt lat="43.06096667" lon="-4.19431333">
        <ele>1241.0</ele>
        <time>2018-05-19T13:24:18.865Z</time>
      </trkpt>
      <trkpt lat="43.06094333" lon="-4.194295">
        <ele>1241.0</ele>
        <time>2018-05-19T13:24:19.862Z</time>
      </trkpt>
      <trkpt lat="43.06094333" lon="-4.194295">
        <ele>1241.0</ele>
        <time>2018-05-19T13:24:20.863Z</time>
      </trkpt>
      <trkpt lat="43.06091833" lon="-4.19427667">
        <ele>1242.0</ele>
        <time>2018-05-19T13:24:21.867Z</time>
      </trkpt>
      <trkpt lat="43.06091833" lon="-4.19427667">
        <ele>1242.0</ele>
        <time>2018-05-19T13:24:22.865Z</time>
      </trkpt>
      <trkpt lat="43.06089333" lon="-4.19426333">
        <ele>1242.0</ele>
        <time>2018-05-19T13:24:23.869Z</time>
      </trkpt>
      <trkpt lat="43.06089333" lon="-4.19426333">
        <ele>1242.0</ele>
        <time>2018-05-19T13:24:24.867Z</time>
      </trkpt>
      <trkpt lat="43.06086833" lon="-4.194255">
        <ele>1242.0</ele>
        <time>2018-05-19T13:24:25.869Z</time>
      </trkpt>
      <trkpt lat="43.06086833" lon="-4.194255">
        <ele>1242.0</ele>
        <time>2018-05-19T13:24:26.866Z</time>
      </trkpt>
      <trkpt lat="43.06084333" lon="-4.19425">
        <ele>1243.0</ele>
        <time>2018-05-19T13:24:27.869Z</time>
      </trkpt>
      <trkpt lat="43.06083" lon="-4.19425">
        <ele>1243.0</ele>
        <time>2018-05-19T13:24:28.869Z</time>
      </trkpt>
      <trkpt lat="43.06083" lon="-4.19425">
        <ele>1243.0</ele>
        <time>2018-05-19T13:24:29.867Z</time>
      </trkpt>
      <trkpt lat="43.06080333" lon="-4.194245">
        <ele>1243.0</ele>
        <time>2018-05-19T13:24:30.869Z</time>
      </trkpt>
      <trkpt lat="43.06079" lon="-4.19424333">
        <ele>1243.0</ele>
        <time>2018-05-19T13:24:31.869Z</time>
      </trkpt>
      <trkpt lat="43.06079" lon="-4.19424333">
        <ele>1243.0</ele>
        <time>2018-05-19T13:24:32.863Z</time>
      </trkpt>
      <trkpt lat="43.060765" lon="-4.19424167">
        <ele>1244.0</ele>
        <time>2018-05-19T13:24:33.868Z</time>
      </trkpt>
      <trkpt lat="43.060765" lon="-4.19424167">
        <ele>1244.0</ele>
        <time>2018-05-19T13:24:34.866Z</time>
      </trkpt>
      <trkpt lat="43.06074" lon="-4.19425">
        <ele>1244.0</ele>
        <time>2018-05-19T13:24:35.878Z</time>
      </trkpt>
      <trkpt lat="43.06074" lon="-4.19425">
        <ele>1244.0</ele>
        <time>2018-05-19T13:24:36.863Z</time>
      </trkpt>
      <trkpt lat="43.06071167" lon="-4.194255">
        <ele>1244.0</ele>
        <time>2018-05-19T13:24:37.870Z</time>
      </trkpt>
      <trkpt lat="43.0607" lon="-4.19426">
        <ele>1244.0</ele>
        <time>2018-05-19T13:24:38.878Z</time>
      </trkpt>
      <trkpt lat="43.0607" lon="-4.19426">
        <ele>1244.0</ele>
        <time>2018-05-19T13:24:39.866Z</time>
      </trkpt>
      <trkpt lat="43.060675" lon="-4.19427167">
        <ele>1245.0</ele>
        <time>2018-05-19T13:24:40.877Z</time>
      </trkpt>
      <trkpt lat="43.06066333" lon="-4.194275">
        <ele>1245.0</ele>
        <time>2018-05-19T13:24:41.869Z</time>
      </trkpt>
      <trkpt lat="43.06066333" lon="-4.194275">
        <ele>1245.0</ele>
        <time>2018-05-19T13:24:42.865Z</time>
      </trkpt>
      <trkpt lat="43.06064" lon="-4.19429167">
        <ele>1246.0</ele>
        <time>2018-05-19T13:24:43.869Z</time>
      </trkpt>
      <trkpt lat="43.06064" lon="-4.19429167">
        <ele>1246.0</ele>
        <time>2018-05-19T13:24:44.866Z</time>
      </trkpt>
      <trkpt lat="43.06061667" lon="-4.19430667">
        <ele>1246.0</ele>
        <time>2018-05-19T13:24:45.862Z</time>
      </trkpt>
      <trkpt lat="43.06061667" lon="-4.19430667">
        <ele>1246.0</ele>
        <time>2018-05-19T13:24:46.852Z</time>
      </trkpt>
      <trkpt lat="43.06059333" lon="-4.19432333">
        <ele>1247.0</ele>
        <time>2018-05-19T13:24:47.860Z</time>
      </trkpt>
      <trkpt lat="43.06059333" lon="-4.19432333">
        <ele>1247.0</ele>
        <time>2018-05-19T13:24:48.867Z</time>
      </trkpt>
      <trkpt lat="43.06057167" lon="-4.19434333">
        <ele>1247.0</ele>
        <time>2018-05-19T13:24:49.853Z</time>
      </trkpt>
      <trkpt lat="43.06057167" lon="-4.19434333">
        <ele>1247.0</ele>
        <time>2018-05-19T13:24:50.880Z</time>
      </trkpt>
      <trkpt lat="43.06055167" lon="-4.19436833">
        <ele>1247.0</ele>
        <time>2018-05-19T13:24:51.869Z</time>
      </trkpt>
      <trkpt lat="43.06055167" lon="-4.19436833">
        <ele>1247.0</ele>
        <time>2018-05-19T13:24:52.882Z</time>
      </trkpt>
      <trkpt lat="43.06053" lon="-4.19439167">
        <ele>1248.0</ele>
        <time>2018-05-19T13:24:53.875Z</time>
      </trkpt>
      <trkpt lat="43.06053" lon="-4.19439167">
        <ele>1248.0</ele>
        <time>2018-05-19T13:24:54.865Z</time>
      </trkpt>
      <trkpt lat="43.06051167" lon="-4.19441833">
        <ele>1248.0</ele>
        <time>2018-05-19T13:24:55.870Z</time>
      </trkpt>
      <trkpt lat="43.06051167" lon="-4.19441833">
        <ele>1248.0</ele>
        <time>2018-05-19T13:24:56.863Z</time>
      </trkpt>
      <trkpt lat="43.06049333" lon="-4.19444667">
        <ele>1248.0</ele>
        <time>2018-05-19T13:24:57.868Z</time>
      </trkpt>
      <trkpt lat="43.06049333" lon="-4.19444667">
        <ele>1248.0</ele>
        <time>2018-05-19T13:24:58.865Z</time>
      </trkpt>
      <trkpt lat="43.06047833" lon="-4.194475">
        <ele>1248.0</ele>
        <time>2018-05-19T13:24:59.875Z</time>
      </trkpt>
      <trkpt lat="43.06047333" lon="-4.19448833">
        <ele>1248.0</ele>
        <time>2018-05-19T13:25:00.852Z</time>
      </trkpt>
      <trkpt lat="43.06047333" lon="-4.19448833">
        <ele>1248.0</ele>
        <time>2018-05-19T13:25:01.875Z</time>
      </trkpt>
      <trkpt lat="43.060465" lon="-4.19451">
        <ele>1248.0</ele>
        <time>2018-05-19T13:25:02.868Z</time>
      </trkpt>
      <trkpt lat="43.060465" lon="-4.19451">
        <ele>1248.0</ele>
        <time>2018-05-19T13:25:03.865Z</time>
      </trkpt>
      <trkpt lat="43.06046833" lon="-4.194505">
        <ele>1249.0</ele>
        <time>2018-05-19T13:25:04.866Z</time>
      </trkpt>
      <trkpt lat="43.06047167" lon="-4.19450167">
        <ele>1249.0</ele>
        <time>2018-05-19T13:25:05.870Z</time>
      </trkpt>
      <trkpt lat="43.06047167" lon="-4.19450167">
        <ele>1249.0</ele>
        <time>2018-05-19T13:25:06.865Z</time>
      </trkpt>
      <trkpt lat="43.06047167" lon="-4.19450167">
        <ele>1249.0</ele>
        <time>2018-05-19T13:25:07.868Z</time>
      </trkpt>
      <trkpt lat="43.06047167" lon="-4.19450167">
        <ele>1249.0</ele>
        <time>2018-05-19T13:25:08.866Z</time>
      </trkpt>
      <trkpt lat="43.06047167" lon="-4.19450667">
        <ele>1249.0</ele>
        <time>2018-05-19T13:25:09.867Z</time>
      </trkpt>
      <trkpt lat="43.06046667" lon="-4.19451833">
        <ele>1249.0</ele>
        <time>2018-05-19T13:25:10.868Z</time>
      </trkpt>
      <trkpt lat="43.06046667" lon="-4.19451833">
        <ele>1249.0</ele>
        <time>2018-05-19T13:25:11.864Z</time>
      </trkpt>
      <trkpt lat="43.06045667" lon="-4.19455333">
        <ele>1250.0</ele>
        <time>2018-05-19T13:25:12.868Z</time>
      </trkpt>
      <trkpt lat="43.06045167" lon="-4.19457667">
        <ele>1250.0</ele>
        <time>2018-05-19T13:25:13.869Z</time>
      </trkpt>
      <trkpt lat="43.06045167" lon="-4.19457667">
        <ele>1250.0</ele>
        <time>2018-05-19T13:25:14.866Z</time>
      </trkpt>
      <trkpt lat="43.06043833" lon="-4.19462833">
        <ele>1250.0</ele>
        <time>2018-05-19T13:25:15.865Z</time>
      </trkpt>
      <trkpt lat="43.06043833" lon="-4.19462833">
        <ele>1250.0</ele>
        <time>2018-05-19T13:25:16.863Z</time>
      </trkpt>
      <trkpt lat="43.06042167" lon="-4.19468167">
        <ele>1250.0</ele>
        <time>2018-05-19T13:25:17.869Z</time>
      </trkpt>
      <trkpt lat="43.06042167" lon="-4.19468167">
        <ele>1250.0</ele>
        <time>2018-05-19T13:25:18.866Z</time>
      </trkpt>
      <trkpt lat="43.06041" lon="-4.19473667">
        <ele>1251.0</ele>
        <time>2018-05-19T13:25:19.869Z</time>
      </trkpt>
      <trkpt lat="43.06041" lon="-4.19473667">
        <ele>1251.0</ele>
        <time>2018-05-19T13:25:20.862Z</time>
      </trkpt>
      <trkpt lat="43.06039333" lon="-4.19479167">
        <ele>1251.0</ele>
        <time>2018-05-19T13:25:21.867Z</time>
      </trkpt>
      <trkpt lat="43.060385" lon="-4.19481833">
        <ele>1252.0</ele>
        <time>2018-05-19T13:25:22.869Z</time>
      </trkpt>
      <trkpt lat="43.060385" lon="-4.19481833">
        <ele>1252.0</ele>
        <time>2018-05-19T13:25:23.867Z</time>
      </trkpt>
      <trkpt lat="43.06037" lon="-4.19487167">
        <ele>1252.0</ele>
        <time>2018-05-19T13:25:24.867Z</time>
      </trkpt>
      <trkpt lat="43.06037" lon="-4.19487167">
        <ele>1252.0</ele>
        <time>2018-05-19T13:25:25.850Z</time>
      </trkpt>
      <trkpt lat="43.06035333" lon="-4.19492167">
        <ele>1253.0</ele>
        <time>2018-05-19T13:25:26.848Z</time>
      </trkpt>
      <trkpt lat="43.06034667" lon="-4.19495">
        <ele>1253.0</ele>
        <time>2018-05-19T13:25:27.878Z</time>
      </trkpt>
      <trkpt lat="43.06034667" lon="-4.19495">
        <ele>1253.0</ele>
        <time>2018-05-19T13:25:28.866Z</time>
      </trkpt>
      <trkpt lat="43.06033167" lon="-4.19500167">
        <ele>1254.0</ele>
        <time>2018-05-19T13:25:29.874Z</time>
      </trkpt>
      <trkpt lat="43.06033167" lon="-4.19500167">
        <ele>1254.0</ele>
        <time>2018-05-19T13:25:30.866Z</time>
      </trkpt>
      <trkpt lat="43.06031833" lon="-4.195055">
        <ele>1254.0</ele>
        <time>2018-05-19T13:25:31.865Z</time>
      </trkpt>
      <trkpt lat="43.06031" lon="-4.19508167">
        <ele>1254.0</ele>
        <time>2018-05-19T13:25:32.869Z</time>
      </trkpt>
      <trkpt lat="43.06031" lon="-4.19508167">
        <ele>1254.0</ele>
        <time>2018-05-19T13:25:33.862Z</time>
      </trkpt>
      <trkpt lat="43.06029333" lon="-4.19513333">
        <ele>1254.0</ele>
        <time>2018-05-19T13:25:34.867Z</time>
      </trkpt>
      <trkpt lat="43.06029333" lon="-4.19513333">
        <ele>1254.0</ele>
        <time>2018-05-19T13:25:35.867Z</time>
      </trkpt>
      <trkpt lat="43.06027833" lon="-4.19518833">
        <ele>1255.0</ele>
        <time>2018-05-19T13:25:36.869Z</time>
      </trkpt>
      <trkpt lat="43.06027" lon="-4.19521833">
        <ele>1255.0</ele>
        <time>2018-05-19T13:25:37.868Z</time>
      </trkpt>
      <trkpt lat="43.06027" lon="-4.19521833">
        <ele>1255.0</ele>
        <time>2018-05-19T13:25:38.863Z</time>
      </trkpt>
      <trkpt lat="43.06025333" lon="-4.19527167">
        <ele>1255.0</ele>
        <time>2018-05-19T13:25:39.869Z</time>
      </trkpt>
      <trkpt lat="43.06025333" lon="-4.19527167">
        <ele>1255.0</ele>
        <time>2018-05-19T13:25:40.866Z</time>
      </trkpt>
      <trkpt lat="43.06024" lon="-4.19532667">
        <ele>1255.0</ele>
        <time>2018-05-19T13:25:41.845Z</time>
      </trkpt>
      <trkpt lat="43.060235" lon="-4.19535333">
        <ele>1255.0</ele>
        <time>2018-05-19T13:25:42.876Z</time>
      </trkpt>
      <trkpt lat="43.06023" lon="-4.19538167">
        <ele>1255.0</ele>
        <time>2018-05-19T13:25:43.867Z</time>
      </trkpt>
      <trkpt lat="43.06023" lon="-4.19538167">
        <ele>1255.0</ele>
        <time>2018-05-19T13:25:44.865Z</time>
      </trkpt>
      <trkpt lat="43.06021833" lon="-4.19543667">
        <ele>1255.0</ele>
        <time>2018-05-19T13:25:45.866Z</time>
      </trkpt>
      <trkpt lat="43.06021833" lon="-4.19543667">
        <ele>1255.0</ele>
        <time>2018-05-19T13:25:46.852Z</time>
      </trkpt>
      <trkpt lat="43.06020667" lon="-4.195495">
        <ele>1255.0</ele>
        <time>2018-05-19T13:25:47.861Z</time>
      </trkpt>
      <trkpt lat="43.06020667" lon="-4.195495">
        <ele>1255.0</ele>
        <time>2018-05-19T13:25:48.869Z</time>
      </trkpt>
      <trkpt lat="43.06019667" lon="-4.19555167">
        <ele>1255.0</ele>
        <time>2018-05-19T13:25:49.869Z</time>
      </trkpt>
      <trkpt lat="43.06019667" lon="-4.19555167">
        <ele>1255.0</ele>
        <time>2018-05-19T13:25:50.866Z</time>
      </trkpt>
      <trkpt lat="43.06019" lon="-4.19561">
        <ele>1255.0</ele>
        <time>2018-05-19T13:25:51.865Z</time>
      </trkpt>
      <trkpt lat="43.06018667" lon="-4.19564">
        <ele>1255.0</ele>
        <time>2018-05-19T13:25:52.866Z</time>
      </trkpt>
      <trkpt lat="43.06018667" lon="-4.19564">
        <ele>1255.0</ele>
        <time>2018-05-19T13:25:53.868Z</time>
      </trkpt>
      <trkpt lat="43.06017833" lon="-4.1957">
        <ele>1255.0</ele>
        <time>2018-05-19T13:25:54.884Z</time>
      </trkpt>
      <trkpt lat="43.06017667" lon="-4.19573">
        <ele>1255.0</ele>
        <time>2018-05-19T13:25:55.874Z</time>
      </trkpt>
      <trkpt lat="43.06017667" lon="-4.19573">
        <ele>1255.0</ele>
        <time>2018-05-19T13:25:56.866Z</time>
      </trkpt>
      <trkpt lat="43.06017167" lon="-4.19579">
        <ele>1254.0</ele>
        <time>2018-05-19T13:25:57.869Z</time>
      </trkpt>
      <trkpt lat="43.06017167" lon="-4.19579">
        <ele>1254.0</ele>
        <time>2018-05-19T13:25:58.866Z</time>
      </trkpt>
      <trkpt lat="43.06016667" lon="-4.19585167">
        <ele>1254.0</ele>
        <time>2018-05-19T13:25:59.845Z</time>
      </trkpt>
      <trkpt lat="43.06016667" lon="-4.19585167">
        <ele>1254.0</ele>
        <time>2018-05-19T13:26:00.880Z</time>
      </trkpt>
      <trkpt lat="43.06016167" lon="-4.195915">
        <ele>1254.0</ele>
        <time>2018-05-19T13:26:01.869Z</time>
      </trkpt>
      <trkpt lat="43.06016167" lon="-4.195915">
        <ele>1254.0</ele>
        <time>2018-05-19T13:26:02.867Z</time>
      </trkpt>
      <trkpt lat="43.06015667" lon="-4.19597833">
        <ele>1254.0</ele>
        <time>2018-05-19T13:26:03.867Z</time>
      </trkpt>
      <trkpt lat="43.06015333" lon="-4.19601167">
        <ele>1254.0</ele>
        <time>2018-05-19T13:26:04.868Z</time>
      </trkpt>
      <trkpt lat="43.06015333" lon="-4.19601167">
        <ele>1254.0</ele>
        <time>2018-05-19T13:26:05.866Z</time>
      </trkpt>
      <trkpt lat="43.06014667" lon="-4.196075">
        <ele>1254.0</ele>
        <time>2018-05-19T13:26:06.869Z</time>
      </trkpt>
      <trkpt lat="43.06014667" lon="-4.196075">
        <ele>1254.0</ele>
        <time>2018-05-19T13:26:07.866Z</time>
      </trkpt>
      <trkpt lat="43.06014167" lon="-4.19614">
        <ele>1254.0</ele>
        <time>2018-05-19T13:26:08.868Z</time>
      </trkpt>
      <trkpt lat="43.06014167" lon="-4.19614">
        <ele>1254.0</ele>
        <time>2018-05-19T13:26:09.866Z</time>
      </trkpt>
      <trkpt lat="43.06013667" lon="-4.196205">
        <ele>1254.0</ele>
        <time>2018-05-19T13:26:10.868Z</time>
      </trkpt>
      <trkpt lat="43.06013333" lon="-4.19623667">
        <ele>1254.0</ele>
        <time>2018-05-19T13:26:11.869Z</time>
      </trkpt>
      <trkpt lat="43.06013333" lon="-4.19623667">
        <ele>1254.0</ele>
        <time>2018-05-19T13:26:12.869Z</time>
      </trkpt>
      <trkpt lat="43.06012667" lon="-4.1963">
        <ele>1254.0</ele>
        <time>2018-05-19T13:26:13.869Z</time>
      </trkpt>
      <trkpt lat="43.06012667" lon="-4.1963">
        <ele>1254.0</ele>
        <time>2018-05-19T13:26:14.863Z</time>
      </trkpt>
      <trkpt lat="43.06012" lon="-4.19635833">
        <ele>1255.0</ele>
        <time>2018-05-19T13:26:15.867Z</time>
      </trkpt>
      <trkpt lat="43.06012" lon="-4.19635833">
        <ele>1255.0</ele>
        <time>2018-05-19T13:26:16.865Z</time>
      </trkpt>
      <trkpt lat="43.060105" lon="-4.19641833">
        <ele>1255.0</ele>
        <time>2018-05-19T13:26:17.880Z</time>
      </trkpt>
      <trkpt lat="43.060105" lon="-4.19641833">
        <ele>1255.0</ele>
        <time>2018-05-19T13:26:18.866Z</time>
      </trkpt>
      <trkpt lat="43.06009" lon="-4.196475">
        <ele>1256.0</ele>
        <time>2018-05-19T13:26:19.869Z</time>
      </trkpt>
      <trkpt lat="43.06009" lon="-4.196475">
        <ele>1256.0</ele>
        <time>2018-05-19T13:26:20.864Z</time>
      </trkpt>
      <trkpt lat="43.06007833" lon="-4.19653333">
        <ele>1257.0</ele>
        <time>2018-05-19T13:26:21.867Z</time>
      </trkpt>
      <trkpt lat="43.06007167" lon="-4.19656">
        <ele>1257.0</ele>
        <time>2018-05-19T13:26:22.867Z</time>
      </trkpt>
      <trkpt lat="43.06007167" lon="-4.19656">
        <ele>1257.0</ele>
        <time>2018-05-19T13:26:23.867Z</time>
      </trkpt>
      <trkpt lat="43.06006" lon="-4.19661333">
        <ele>1257.0</ele>
        <time>2018-05-19T13:26:24.868Z</time>
      </trkpt>
      <trkpt lat="43.06005" lon="-4.19663833">
        <ele>1257.0</ele>
        <time>2018-05-19T13:26:25.869Z</time>
      </trkpt>
      <trkpt lat="43.06005" lon="-4.19663833">
        <ele>1257.0</ele>
        <time>2018-05-19T13:26:26.860Z</time>
      </trkpt>
      <trkpt lat="43.06003167" lon="-4.19668333">
        <ele>1257.0</ele>
        <time>2018-05-19T13:26:27.856Z</time>
      </trkpt>
      <trkpt lat="43.06003167" lon="-4.19668333">
        <ele>1257.0</ele>
        <time>2018-05-19T13:26:28.881Z</time>
      </trkpt>
      <trkpt lat="43.06001833" lon="-4.19672333">
        <ele>1258.0</ele>
        <time>2018-05-19T13:26:29.874Z</time>
      </trkpt>
      <trkpt lat="43.06001833" lon="-4.19672333">
        <ele>1258.0</ele>
        <time>2018-05-19T13:26:30.863Z</time>
      </trkpt>
      <trkpt lat="43.06001167" lon="-4.19675833">
        <ele>1258.0</ele>
        <time>2018-05-19T13:26:31.869Z</time>
      </trkpt>
      <trkpt lat="43.06001167" lon="-4.19675833">
        <ele>1258.0</ele>
        <time>2018-05-19T13:26:32.878Z</time>
      </trkpt>
      <trkpt lat="43.06001" lon="-4.19679">
        <ele>1258.0</ele>
        <time>2018-05-19T13:26:33.867Z</time>
      </trkpt>
      <trkpt lat="43.06001" lon="-4.19679">
        <ele>1258.0</ele>
        <time>2018-05-19T13:26:34.863Z</time>
      </trkpt>
      <trkpt lat="43.06001167" lon="-4.196815">
        <ele>1259.0</ele>
        <time>2018-05-19T13:26:35.874Z</time>
      </trkpt>
      <trkpt lat="43.06001167" lon="-4.196815">
        <ele>1259.0</ele>
        <time>2018-05-19T13:26:36.865Z</time>
      </trkpt>
      <trkpt lat="43.06001167" lon="-4.19684333">
        <ele>1259.0</ele>
        <time>2018-05-19T13:26:37.874Z</time>
      </trkpt>
      <trkpt lat="43.06001" lon="-4.19685667">
        <ele>1259.0</ele>
        <time>2018-05-19T13:26:38.870Z</time>
      </trkpt>
      <trkpt lat="43.06001" lon="-4.19685667">
        <ele>1259.0</ele>
        <time>2018-05-19T13:26:39.866Z</time>
      </trkpt>
      <trkpt lat="43.06" lon="-4.19687333">
        <ele>1259.0</ele>
        <time>2018-05-19T13:26:40.868Z</time>
      </trkpt>
      <trkpt lat="43.06" lon="-4.19687333">
        <ele>1259.0</ele>
        <time>2018-05-19T13:26:41.866Z</time>
      </trkpt>
      <trkpt lat="43.05999833" lon="-4.19687667">
        <ele>1259.0</ele>
        <time>2018-05-19T13:26:42.867Z</time>
      </trkpt>
      <trkpt lat="43.059995" lon="-4.19687833">
        <ele>1259.0</ele>
        <time>2018-05-19T13:26:43.868Z</time>
      </trkpt>
      <trkpt lat="43.059995" lon="-4.19687833">
        <ele>1259.0</ele>
        <time>2018-05-19T13:26:44.846Z</time>
      </trkpt>
      <trkpt lat="43.059995" lon="-4.19687833">
        <ele>1259.0</ele>
        <time>2018-05-19T13:26:45.863Z</time>
      </trkpt>
      <trkpt lat="43.059995" lon="-4.19687833">
        <ele>1259.0</ele>
        <time>2018-05-19T13:26:46.882Z</time>
      </trkpt>
      <trkpt lat="43.059995" lon="-4.19687833">
        <ele>1259.0</ele>
        <time>2018-05-19T13:26:47.862Z</time>
      </trkpt>
      <trkpt lat="43.05997667" lon="-4.196895">
        <ele>1259.0</ele>
        <time>2018-05-19T13:26:48.855Z</time>
      </trkpt>
      <trkpt lat="43.05997667" lon="-4.196895">
        <ele>1259.0</ele>
        <time>2018-05-19T13:26:49.863Z</time>
      </trkpt>
      <trkpt lat="43.05997667" lon="-4.19689833">
        <ele>1260.0</ele>
        <time>2018-05-19T13:26:50.877Z</time>
      </trkpt>
      <trkpt lat="43.05999167" lon="-4.19690167">
        <ele>1261.0</ele>
        <time>2018-05-19T13:26:51.854Z</time>
      </trkpt>
      <trkpt lat="43.05999167" lon="-4.19690167">
        <ele>1261.0</ele>
        <time>2018-05-19T13:26:52.851Z</time>
      </trkpt>
      <trkpt lat="43.05999333" lon="-4.19692333">
        <ele>1262.0</ele>
        <time>2018-05-19T13:26:53.850Z</time>
      </trkpt>
      <trkpt lat="43.05999333" lon="-4.19692333">
        <ele>1262.0</ele>
        <time>2018-05-19T13:26:54.862Z</time>
      </trkpt>
      <trkpt lat="43.05999333" lon="-4.19694667">
        <ele>1262.0</ele>
        <time>2018-05-19T13:26:55.862Z</time>
      </trkpt>
      <trkpt lat="43.05999333" lon="-4.19694667">
        <ele>1262.0</ele>
        <time>2018-05-19T13:26:56.865Z</time>
      </trkpt>
      <trkpt lat="43.05999" lon="-4.196965">
        <ele>1263.0</ele>
        <time>2018-05-19T13:26:57.879Z</time>
      </trkpt>
      <trkpt lat="43.05999" lon="-4.196965">
        <ele>1263.0</ele>
        <time>2018-05-19T13:26:58.880Z</time>
      </trkpt>
      <trkpt lat="43.05999" lon="-4.19698">
        <ele>1263.0</ele>
        <time>2018-05-19T13:26:59.875Z</time>
      </trkpt>
      <trkpt lat="43.05999" lon="-4.19698">
        <ele>1263.0</ele>
        <time>2018-05-19T13:27:00.867Z</time>
      </trkpt>
      <trkpt lat="43.05999" lon="-4.19700333">
        <ele>1263.0</ele>
        <time>2018-05-19T13:27:01.844Z</time>
      </trkpt>
      <trkpt lat="43.05999" lon="-4.19700333">
        <ele>1263.0</ele>
        <time>2018-05-19T13:27:02.874Z</time>
      </trkpt>
      <trkpt lat="43.05999167" lon="-4.19702833">
        <ele>1264.0</ele>
        <time>2018-05-19T13:27:03.874Z</time>
      </trkpt>
      <trkpt lat="43.05999167" lon="-4.19702833">
        <ele>1264.0</ele>
        <time>2018-05-19T13:27:04.862Z</time>
      </trkpt>
      <trkpt lat="43.05999833" lon="-4.19705">
        <ele>1264.0</ele>
        <time>2018-05-19T13:27:05.869Z</time>
      </trkpt>
      <trkpt lat="43.060005" lon="-4.19706">
        <ele>1264.0</ele>
        <time>2018-05-19T13:27:06.878Z</time>
      </trkpt>
      <trkpt lat="43.060005" lon="-4.19706">
        <ele>1264.0</ele>
        <time>2018-05-19T13:27:07.873Z</time>
      </trkpt>
      <trkpt lat="43.06001333" lon="-4.197065">
        <ele>1265.0</ele>
        <time>2018-05-19T13:27:08.871Z</time>
      </trkpt>
      <trkpt lat="43.06001333" lon="-4.197065">
        <ele>1265.0</ele>
        <time>2018-05-19T13:27:09.851Z</time>
      </trkpt>
      <trkpt lat="43.060015" lon="-4.197065">
        <ele>1265.0</ele>
        <time>2018-05-19T13:27:10.882Z</time>
      </trkpt>
      <trkpt lat="43.060015" lon="-4.197065">
        <ele>1265.0</ele>
        <time>2018-05-19T13:27:11.864Z</time>
      </trkpt>
      <trkpt lat="43.06004333" lon="-4.19710333">
        <ele>1266.0</ele>
        <time>2018-05-19T13:27:12.848Z</time>
      </trkpt>
      <trkpt lat="43.06004333" lon="-4.19710333">
        <ele>1266.0</ele>
        <time>2018-05-19T13:27:13.861Z</time>
      </trkpt>
      <trkpt lat="43.06004667" lon="-4.19711">
        <ele>1266.0</ele>
        <time>2018-05-19T13:27:14.863Z</time>
      </trkpt>
      <trkpt lat="43.06005" lon="-4.19711">
        <ele>1266.0</ele>
        <time>2018-05-19T13:27:15.866Z</time>
      </trkpt>
      <trkpt lat="43.06005" lon="-4.19711">
        <ele>1266.0</ele>
        <time>2018-05-19T13:27:16.862Z</time>
      </trkpt>
      <trkpt lat="43.06005" lon="-4.19711">
        <ele>1266.0</ele>
        <time>2018-05-19T13:27:17.845Z</time>
      </trkpt>
      <trkpt lat="43.06004833" lon="-4.19713333">
        <ele>1268.0</ele>
        <time>2018-05-19T13:27:18.844Z</time>
      </trkpt>
      <trkpt lat="43.06004833" lon="-4.19713333">
        <ele>1268.0</ele>
        <time>2018-05-19T13:27:19.877Z</time>
      </trkpt>
      <trkpt lat="43.06006833" lon="-4.19718167">
        <ele>1268.0</ele>
        <time>2018-05-19T13:27:20.882Z</time>
      </trkpt>
      <trkpt lat="43.06008333" lon="-4.19721167">
        <ele>1268.0</ele>
        <time>2018-05-19T13:27:21.883Z</time>
      </trkpt>
      <trkpt lat="43.06008333" lon="-4.19721167">
        <ele>1268.0</ele>
        <time>2018-05-19T13:27:22.880Z</time>
      </trkpt>
      <trkpt lat="43.06011833" lon="-4.19727333">
        <ele>1268.0</ele>
        <time>2018-05-19T13:27:23.882Z</time>
      </trkpt>
      <trkpt lat="43.06013667" lon="-4.19730167">
        <ele>1268.0</ele>
        <time>2018-05-19T13:27:24.883Z</time>
      </trkpt>
      <trkpt lat="43.06013667" lon="-4.19730167">
        <ele>1268.0</ele>
        <time>2018-05-19T13:27:25.846Z</time>
      </trkpt>
      <trkpt lat="43.060175" lon="-4.19736167">
        <ele>1268.0</ele>
        <time>2018-05-19T13:27:26.882Z</time>
      </trkpt>
      <trkpt lat="43.060175" lon="-4.19736167">
        <ele>1268.0</ele>
        <time>2018-05-19T13:27:27.882Z</time>
      </trkpt>
      <trkpt lat="43.06021667" lon="-4.19742667">
        <ele>1267.0</ele>
        <time>2018-05-19T13:27:28.883Z</time>
      </trkpt>
      <trkpt lat="43.06021667" lon="-4.19742667">
        <ele>1267.0</ele>
        <time>2018-05-19T13:27:29.880Z</time>
      </trkpt>
      <trkpt lat="43.060255" lon="-4.19749833">
        <ele>1267.0</ele>
        <time>2018-05-19T13:27:30.883Z</time>
      </trkpt>
      <trkpt lat="43.060255" lon="-4.19749833">
        <ele>1267.0</ele>
        <time>2018-05-19T13:27:31.880Z</time>
      </trkpt>
      <trkpt lat="43.06029167" lon="-4.19758333">
        <ele>1267.0</ele>
        <time>2018-05-19T13:27:32.883Z</time>
      </trkpt>
      <trkpt lat="43.06029167" lon="-4.19758333">
        <ele>1267.0</ele>
        <time>2018-05-19T13:27:33.877Z</time>
      </trkpt>
      <trkpt lat="43.06034" lon="-4.19767167">
        <ele>1266.0</ele>
        <time>2018-05-19T13:27:34.882Z</time>
      </trkpt>
      <trkpt lat="43.06036333" lon="-4.19771667">
        <ele>1266.0</ele>
        <time>2018-05-19T13:27:35.883Z</time>
      </trkpt>
      <trkpt lat="43.06038833" lon="-4.19776167">
        <ele>1266.0</ele>
        <time>2018-05-19T13:27:36.844Z</time>
      </trkpt>
      <trkpt lat="43.06038833" lon="-4.19776167">
        <ele>1266.0</ele>
        <time>2018-05-19T13:27:37.879Z</time>
      </trkpt>
      <trkpt lat="43.06043833" lon="-4.19785">
        <ele>1266.0</ele>
        <time>2018-05-19T13:27:38.882Z</time>
      </trkpt>
      <trkpt lat="43.06043833" lon="-4.19785">
        <ele>1266.0</ele>
        <time>2018-05-19T13:27:39.879Z</time>
      </trkpt>
      <trkpt lat="43.06049167" lon="-4.19794">
        <ele>1265.0</ele>
        <time>2018-05-19T13:27:40.872Z</time>
      </trkpt>
      <trkpt lat="43.06049167" lon="-4.19794">
        <ele>1265.0</ele>
        <time>2018-05-19T13:27:41.865Z</time>
      </trkpt>
      <trkpt lat="43.060555" lon="-4.19803167">
        <ele>1265.0</ele>
        <time>2018-05-19T13:27:42.861Z</time>
      </trkpt>
      <trkpt lat="43.060555" lon="-4.19803167">
        <ele>1265.0</ele>
        <time>2018-05-19T13:27:43.850Z</time>
      </trkpt>
      <trkpt lat="43.06063333" lon="-4.19812833">
        <ele>1264.0</ele>
        <time>2018-05-19T13:27:44.882Z</time>
      </trkpt>
      <trkpt lat="43.06063333" lon="-4.19812833">
        <ele>1264.0</ele>
        <time>2018-05-19T13:27:45.855Z</time>
      </trkpt>
      <trkpt lat="43.06074" lon="-4.198225">
        <ele>1262.0</ele>
        <time>2018-05-19T13:27:46.874Z</time>
      </trkpt>
      <trkpt lat="43.06074" lon="-4.198225">
        <ele>1262.0</ele>
        <time>2018-05-19T13:27:47.846Z</time>
      </trkpt>
      <trkpt lat="43.06088833" lon="-4.19829167">
        <ele>1259.0</ele>
        <time>2018-05-19T13:27:48.844Z</time>
      </trkpt>
      <trkpt lat="43.06088833" lon="-4.19829167">
        <ele>1259.0</ele>
        <time>2018-05-19T13:27:49.880Z</time>
      </trkpt>
      <trkpt lat="43.06105667" lon="-4.19833">
        <ele>1257.0</ele>
        <time>2018-05-19T13:27:50.879Z</time>
      </trkpt>
      <trkpt lat="43.06105667" lon="-4.19833">
        <ele>1257.0</ele>
        <time>2018-05-19T13:27:51.879Z</time>
      </trkpt>
      <trkpt lat="43.06121667" lon="-4.19841">
        <ele>1255.0</ele>
        <time>2018-05-19T13:27:52.883Z</time>
      </trkpt>
      <trkpt lat="43.06127667" lon="-4.19850167">
        <ele>1256.0</ele>
        <time>2018-05-19T13:27:53.882Z</time>
      </trkpt>
      <trkpt lat="43.06127667" lon="-4.19850167">
        <ele>1256.0</ele>
        <time>2018-05-19T13:27:54.881Z</time>
      </trkpt>
      <trkpt lat="43.06136167" lon="-4.19869333">
        <ele>1255.0</ele>
        <time>2018-05-19T13:27:55.883Z</time>
      </trkpt>
      <trkpt lat="43.06139833" lon="-4.19879">
        <ele>1255.0</ele>
        <time>2018-05-19T13:27:56.883Z</time>
      </trkpt>
      <trkpt lat="43.06139833" lon="-4.19879">
        <ele>1255.0</ele>
        <time>2018-05-19T13:27:57.879Z</time>
      </trkpt>
      <trkpt lat="43.06148667" lon="-4.19898333">
        <ele>1253.0</ele>
        <time>2018-05-19T13:27:58.882Z</time>
      </trkpt>
      <trkpt lat="43.06148667" lon="-4.19898333">
        <ele>1253.0</ele>
        <time>2018-05-19T13:27:59.880Z</time>
      </trkpt>
      <trkpt lat="43.06162167" lon="-4.19913167">
        <ele>1252.0</ele>
        <time>2018-05-19T13:28:00.844Z</time>
      </trkpt>
      <trkpt lat="43.06162167" lon="-4.19913167">
        <ele>1252.0</ele>
        <time>2018-05-19T13:28:01.880Z</time>
      </trkpt>
      <trkpt lat="43.06179333" lon="-4.19919333">
        <ele>1251.0</ele>
        <time>2018-05-19T13:28:02.882Z</time>
      </trkpt>
      <trkpt lat="43.06179333" lon="-4.19919333">
        <ele>1251.0</ele>
        <time>2018-05-19T13:28:03.876Z</time>
      </trkpt>
      <trkpt lat="43.061975" lon="-4.1993">
        <ele>1249.0</ele>
        <time>2018-05-19T13:28:04.882Z</time>
      </trkpt>
      <trkpt lat="43.06205167" lon="-4.19939">
        <ele>1248.0</ele>
        <time>2018-05-19T13:28:05.882Z</time>
      </trkpt>
      <trkpt lat="43.06205167" lon="-4.19939">
        <ele>1248.0</ele>
        <time>2018-05-19T13:28:06.881Z</time>
      </trkpt>
      <trkpt lat="43.06219333" lon="-4.19961167">
        <ele>1246.0</ele>
        <time>2018-05-19T13:28:07.882Z</time>
      </trkpt>
      <trkpt lat="43.06219333" lon="-4.19961167">
        <ele>1246.0</ele>
        <time>2018-05-19T13:28:08.877Z</time>
      </trkpt>
      <trkpt lat="43.062325" lon="-4.199845">
        <ele>1245.0</ele>
        <time>2018-05-19T13:28:09.883Z</time>
      </trkpt>
      <trkpt lat="43.062325" lon="-4.199845">
        <ele>1245.0</ele>
        <time>2018-05-19T13:28:10.844Z</time>
      </trkpt>
      <trkpt lat="43.06240167" lon="-4.200075">
        <ele>1244.0</ele>
        <time>2018-05-19T13:28:11.882Z</time>
      </trkpt>
      <trkpt lat="43.06242833" lon="-4.20018">
        <ele>1244.0</ele>
        <time>2018-05-19T13:28:12.883Z</time>
      </trkpt>
      <trkpt lat="43.06242833" lon="-4.20018">
        <ele>1244.0</ele>
        <time>2018-05-19T13:28:13.878Z</time>
      </trkpt>
      <trkpt lat="43.06252" lon="-4.20036167">
        <ele>1243.0</ele>
        <time>2018-05-19T13:28:14.881Z</time>
      </trkpt>
      <trkpt lat="43.06252" lon="-4.20036167">
        <ele>1243.0</ele>
        <time>2018-05-19T13:28:15.846Z</time>
      </trkpt>
      <trkpt lat="43.06265167" lon="-4.200515">
        <ele>1242.0</ele>
        <time>2018-05-19T13:28:16.883Z</time>
      </trkpt>
      <trkpt lat="43.06265167" lon="-4.200515">
        <ele>1242.0</ele>
        <time>2018-05-19T13:28:17.877Z</time>
      </trkpt>
      <trkpt lat="43.06280667" lon="-4.20060167">
        <ele>1241.0</ele>
        <time>2018-05-19T13:28:18.855Z</time>
      </trkpt>
      <trkpt lat="43.06280667" lon="-4.20060167">
        <ele>1241.0</ele>
        <time>2018-05-19T13:28:19.882Z</time>
      </trkpt>
      <trkpt lat="43.06295167" lon="-4.20067667">
        <ele>1241.0</ele>
        <time>2018-05-19T13:28:20.882Z</time>
      </trkpt>
      <trkpt lat="43.06295167" lon="-4.20067667">
        <ele>1241.0</ele>
        <time>2018-05-19T13:28:21.846Z</time>
      </trkpt>
      <trkpt lat="43.06308667" lon="-4.20075333">
        <ele>1240.0</ele>
        <time>2018-05-19T13:28:22.882Z</time>
      </trkpt>
      <trkpt lat="43.06308667" lon="-4.20075333">
        <ele>1240.0</ele>
        <time>2018-05-19T13:28:23.880Z</time>
      </trkpt>
      <trkpt lat="43.063215" lon="-4.20085167">
        <ele>1239.0</ele>
        <time>2018-05-19T13:28:24.883Z</time>
      </trkpt>
      <trkpt lat="43.06328" lon="-4.20089167">
        <ele>1239.0</ele>
        <time>2018-05-19T13:28:25.882Z</time>
      </trkpt>
      <trkpt lat="43.063345" lon="-4.20092667">
        <ele>1239.0</ele>
        <time>2018-05-19T13:28:26.854Z</time>
      </trkpt>
      <trkpt lat="43.063345" lon="-4.20092667">
        <ele>1239.0</ele>
        <time>2018-05-19T13:28:27.879Z</time>
      </trkpt>
      <trkpt lat="43.06347333" lon="-4.20103167">
        <ele>1238.0</ele>
        <time>2018-05-19T13:28:28.883Z</time>
      </trkpt>
      <trkpt lat="43.06347333" lon="-4.20103167">
        <ele>1238.0</ele>
        <time>2018-05-19T13:28:29.880Z</time>
      </trkpt>
      <trkpt lat="43.06361833" lon="-4.20113833">
        <ele>1237.0</ele>
        <time>2018-05-19T13:28:30.883Z</time>
      </trkpt>
      <trkpt lat="43.06369167" lon="-4.20121167">
        <ele>1237.0</ele>
        <time>2018-05-19T13:28:31.883Z</time>
      </trkpt>
      <trkpt lat="43.06369167" lon="-4.20121167">
        <ele>1237.0</ele>
        <time>2018-05-19T13:28:32.880Z</time>
      </trkpt>
      <trkpt lat="43.06386" lon="-4.20134167">
        <ele>1236.0</ele>
        <time>2018-05-19T13:28:33.882Z</time>
      </trkpt>
      <trkpt lat="43.06386" lon="-4.20134167">
        <ele>1236.0</ele>
        <time>2018-05-19T13:28:34.877Z</time>
      </trkpt>
      <trkpt lat="43.06403333" lon="-4.20150167">
        <ele>1235.0</ele>
        <time>2018-05-19T13:28:35.847Z</time>
      </trkpt>
      <trkpt lat="43.06403333" lon="-4.20150167">
        <ele>1235.0</ele>
        <time>2018-05-19T13:28:36.880Z</time>
      </trkpt>
      <trkpt lat="43.06418833" lon="-4.20166833">
        <ele>1234.0</ele>
        <time>2018-05-19T13:28:37.881Z</time>
      </trkpt>
      <trkpt lat="43.064245" lon="-4.20176833">
        <ele>1233.0</ele>
        <time>2018-05-19T13:28:38.882Z</time>
      </trkpt>
      <trkpt lat="43.064295" lon="-4.201875">
        <ele>1232.0</ele>
        <time>2018-05-19T13:28:39.844Z</time>
      </trkpt>
      <trkpt lat="43.064295" lon="-4.201875">
        <ele>1232.0</ele>
        <time>2018-05-19T13:28:40.880Z</time>
      </trkpt>
      <trkpt lat="43.06441333" lon="-4.20208833">
        <ele>1231.0</ele>
        <time>2018-05-19T13:28:41.882Z</time>
      </trkpt>
      <trkpt lat="43.06441333" lon="-4.20208833">
        <ele>1231.0</ele>
        <time>2018-05-19T13:28:42.880Z</time>
      </trkpt>
      <trkpt lat="43.06451333" lon="-4.20231167">
        <ele>1229.0</ele>
        <time>2018-05-19T13:28:43.882Z</time>
      </trkpt>
      <trkpt lat="43.06451333" lon="-4.20231167">
        <ele>1229.0</ele>
        <time>2018-05-19T13:28:44.878Z</time>
      </trkpt>
      <trkpt lat="43.06453167" lon="-4.20253833">
        <ele>1227.0</ele>
        <time>2018-05-19T13:28:45.866Z</time>
      </trkpt>
      <trkpt lat="43.06453167" lon="-4.20253833">
        <ele>1227.0</ele>
        <time>2018-05-19T13:28:46.851Z</time>
      </trkpt>
      <trkpt lat="43.06459" lon="-4.20274667">
        <ele>1226.0</ele>
        <time>2018-05-19T13:28:47.857Z</time>
      </trkpt>
      <trkpt lat="43.06459" lon="-4.20274667">
        <ele>1226.0</ele>
        <time>2018-05-19T13:28:48.867Z</time>
      </trkpt>
      <trkpt lat="43.064695" lon="-4.20294833">
        <ele>1224.0</ele>
        <time>2018-05-19T13:28:49.873Z</time>
      </trkpt>
      <trkpt lat="43.064695" lon="-4.20294833">
        <ele>1224.0</ele>
        <time>2018-05-19T13:28:50.879Z</time>
      </trkpt>
      <trkpt lat="43.06483" lon="-4.20313167">
        <ele>1223.0</ele>
        <time>2018-05-19T13:28:51.882Z</time>
      </trkpt>
      <trkpt lat="43.06483" lon="-4.20313167">
        <ele>1223.0</ele>
        <time>2018-05-19T13:28:52.876Z</time>
      </trkpt>
      <trkpt lat="43.06498333" lon="-4.20330667">
        <ele>1220.0</ele>
        <time>2018-05-19T13:28:53.881Z</time>
      </trkpt>
      <trkpt lat="43.065065" lon="-4.20339333">
        <ele>1219.0</ele>
        <time>2018-05-19T13:28:54.883Z</time>
      </trkpt>
      <trkpt lat="43.065065" lon="-4.20339333">
        <ele>1219.0</ele>
        <time>2018-05-19T13:28:55.846Z</time>
      </trkpt>
      <trkpt lat="43.06523833" lon="-4.203555">
        <ele>1216.0</ele>
        <time>2018-05-19T13:28:56.881Z</time>
      </trkpt>
      <trkpt lat="43.06523833" lon="-4.203555">
        <ele>1216.0</ele>
        <time>2018-05-19T13:28:57.878Z</time>
      </trkpt>
      <trkpt lat="43.06542333" lon="-4.20369">
        <ele>1215.0</ele>
        <time>2018-05-19T13:28:58.883Z</time>
      </trkpt>
      <trkpt lat="43.06542333" lon="-4.20369">
        <ele>1215.0</ele>
        <time>2018-05-19T13:28:59.880Z</time>
      </trkpt>
      <trkpt lat="43.06561167" lon="-4.203815">
        <ele>1213.0</ele>
        <time>2018-05-19T13:29:00.882Z</time>
      </trkpt>
      <trkpt lat="43.065705" lon="-4.20388167">
        <ele>1212.0</ele>
        <time>2018-05-19T13:29:01.882Z</time>
      </trkpt>
      <trkpt lat="43.065705" lon="-4.20388167">
        <ele>1212.0</ele>
        <time>2018-05-19T13:29:02.877Z</time>
      </trkpt>
      <trkpt lat="43.06589" lon="-4.20403667">
        <ele>1211.0</ele>
        <time>2018-05-19T13:29:03.882Z</time>
      </trkpt>
      <trkpt lat="43.06589" lon="-4.20403667">
        <ele>1211.0</ele>
        <time>2018-05-19T13:29:04.880Z</time>
      </trkpt>
      <trkpt lat="43.066045" lon="-4.20422667">
        <ele>1210.0</ele>
        <time>2018-05-19T13:29:05.879Z</time>
      </trkpt>
      <trkpt lat="43.066045" lon="-4.20422667">
        <ele>1210.0</ele>
        <time>2018-05-19T13:29:06.877Z</time>
      </trkpt>
      <trkpt lat="43.06618333" lon="-4.20439167">
        <ele>1209.0</ele>
        <time>2018-05-19T13:29:07.882Z</time>
      </trkpt>
      <trkpt lat="43.06618333" lon="-4.20439167">
        <ele>1209.0</ele>
        <time>2018-05-19T13:29:08.879Z</time>
      </trkpt>
      <trkpt lat="43.06632667" lon="-4.20451167">
        <ele>1209.0</ele>
        <time>2018-05-19T13:29:09.881Z</time>
      </trkpt>
      <trkpt lat="43.06632667" lon="-4.20451167">
        <ele>1209.0</ele>
        <time>2018-05-19T13:29:10.876Z</time>
      </trkpt>
      <trkpt lat="43.06648" lon="-4.20461667">
        <ele>1208.0</ele>
        <time>2018-05-19T13:29:11.882Z</time>
      </trkpt>
      <trkpt lat="43.06648" lon="-4.20461667">
        <ele>1208.0</ele>
        <time>2018-05-19T13:29:12.880Z</time>
      </trkpt>
      <trkpt lat="43.06663833" lon="-4.20471">
        <ele>1207.0</ele>
        <time>2018-05-19T13:29:13.881Z</time>
      </trkpt>
      <trkpt lat="43.06663833" lon="-4.20471">
        <ele>1207.0</ele>
        <time>2018-05-19T13:29:14.879Z</time>
      </trkpt>
      <trkpt lat="43.0668" lon="-4.204785">
        <ele>1206.0</ele>
        <time>2018-05-19T13:29:15.846Z</time>
      </trkpt>
      <trkpt lat="43.06688" lon="-4.20481333">
        <ele>1206.0</ele>
        <time>2018-05-19T13:29:16.882Z</time>
      </trkpt>
      <trkpt lat="43.06688" lon="-4.20481333">
        <ele>1206.0</ele>
        <time>2018-05-19T13:29:17.875Z</time>
      </trkpt>
      <trkpt lat="43.06703833" lon="-4.204865">
        <ele>1206.0</ele>
        <time>2018-05-19T13:29:18.869Z</time>
      </trkpt>
      <trkpt lat="43.06711667" lon="-4.20489">
        <ele>1205.0</ele>
        <time>2018-05-19T13:29:19.853Z</time>
      </trkpt>
      <trkpt lat="43.06711667" lon="-4.20489">
        <ele>1205.0</ele>
        <time>2018-05-19T13:29:20.881Z</time>
      </trkpt>
      <trkpt lat="43.06727667" lon="-4.20493833">
        <ele>1204.0</ele>
        <time>2018-05-19T13:29:21.882Z</time>
      </trkpt>
      <trkpt lat="43.06727667" lon="-4.20493833">
        <ele>1204.0</ele>
        <time>2018-05-19T13:29:22.879Z</time>
      </trkpt>
      <trkpt lat="43.067445" lon="-4.20499333">
        <ele>1203.0</ele>
        <time>2018-05-19T13:29:23.882Z</time>
      </trkpt>
      <trkpt lat="43.067445" lon="-4.20499333">
        <ele>1203.0</ele>
        <time>2018-05-19T13:29:24.878Z</time>
      </trkpt>
      <trkpt lat="43.067625" lon="-4.20506">
        <ele>1200.0</ele>
        <time>2018-05-19T13:29:25.883Z</time>
      </trkpt>
      <trkpt lat="43.06772167" lon="-4.205095">
        <ele>1199.0</ele>
        <time>2018-05-19T13:29:26.882Z</time>
      </trkpt>
      <trkpt lat="43.06772167" lon="-4.205095">
        <ele>1199.0</ele>
        <time>2018-05-19T13:29:27.878Z</time>
      </trkpt>
      <trkpt lat="43.06792667" lon="-4.20514833">
        <ele>1197.0</ele>
        <time>2018-05-19T13:29:28.881Z</time>
      </trkpt>
      <trkpt lat="43.06802833" lon="-4.20516167">
        <ele>1196.0</ele>
        <time>2018-05-19T13:29:29.881Z</time>
      </trkpt>
      <trkpt lat="43.06802833" lon="-4.20516167">
        <ele>1196.0</ele>
        <time>2018-05-19T13:29:30.879Z</time>
      </trkpt>
      <trkpt lat="43.06821667" lon="-4.20517667">
        <ele>1196.0</ele>
        <time>2018-05-19T13:29:31.882Z</time>
      </trkpt>
      <trkpt lat="43.068305" lon="-4.20518167">
        <ele>1195.0</ele>
        <time>2018-05-19T13:29:32.849Z</time>
      </trkpt>
      <trkpt lat="43.068305" lon="-4.20518167">
        <ele>1195.0</ele>
        <time>2018-05-19T13:29:33.876Z</time>
      </trkpt>
      <trkpt lat="43.06848" lon="-4.20518667">
        <ele>1194.0</ele>
        <time>2018-05-19T13:29:34.882Z</time>
      </trkpt>
      <trkpt lat="43.06848" lon="-4.20518667">
        <ele>1194.0</ele>
        <time>2018-05-19T13:29:35.846Z</time>
      </trkpt>
      <trkpt lat="43.06865333" lon="-4.20518">
        <ele>1193.0</ele>
        <time>2018-05-19T13:29:36.882Z</time>
      </trkpt>
      <trkpt lat="43.06874" lon="-4.205175">
        <ele>1193.0</ele>
        <time>2018-05-19T13:29:37.882Z</time>
      </trkpt>
      <trkpt lat="43.06874" lon="-4.205175">
        <ele>1193.0</ele>
        <time>2018-05-19T13:29:38.872Z</time>
      </trkpt>
      <trkpt lat="43.06891167" lon="-4.20515833">
        <ele>1192.0</ele>
        <time>2018-05-19T13:29:39.866Z</time>
      </trkpt>
      <trkpt lat="43.06891167" lon="-4.20515833">
        <ele>1192.0</ele>
        <time>2018-05-19T13:29:40.850Z</time>
      </trkpt>
      <trkpt lat="43.06908" lon="-4.20513">
        <ele>1190.0</ele>
        <time>2018-05-19T13:29:41.882Z</time>
      </trkpt>
      <trkpt lat="43.06908" lon="-4.20513">
        <ele>1190.0</ele>
        <time>2018-05-19T13:29:42.874Z</time>
      </trkpt>
      <trkpt lat="43.069245" lon="-4.20508833">
        <ele>1189.0</ele>
        <time>2018-05-19T13:29:43.881Z</time>
      </trkpt>
      <trkpt lat="43.069245" lon="-4.20508833">
        <ele>1189.0</ele>
        <time>2018-05-19T13:29:44.879Z</time>
      </trkpt>
      <trkpt lat="43.06940333" lon="-4.20503">
        <ele>1188.0</ele>
        <time>2018-05-19T13:29:45.869Z</time>
      </trkpt>
      <trkpt lat="43.06940333" lon="-4.20503">
        <ele>1188.0</ele>
        <time>2018-05-19T13:29:46.866Z</time>
      </trkpt>
      <trkpt lat="43.06956667" lon="-4.20496667">
        <ele>1187.0</ele>
        <time>2018-05-19T13:29:47.873Z</time>
      </trkpt>
      <trkpt lat="43.06965333" lon="-4.20494167">
        <ele>1187.0</ele>
        <time>2018-05-19T13:29:48.879Z</time>
      </trkpt>
      <trkpt lat="43.07079833" lon="-4.20463">
        <ele>1180.0</ele>
        <time>2018-05-19T14:14:23.460Z</time>
      </trkpt>
      <trkpt lat="43.07086333" lon="-4.20462333">
        <ele>1179.0</ele>
        <time>2018-05-19T14:14:24.468Z</time>
      </trkpt>
      <trkpt lat="43.07086333" lon="-4.20462333">
        <ele>1179.0</ele>
        <time>2018-05-19T14:14:25.475Z</time>
      </trkpt>
      <trkpt lat="43.07099667" lon="-4.20462333">
        <ele>1180.0</ele>
        <time>2018-05-19T14:14:26.452Z</time>
      </trkpt>
      <trkpt lat="43.07106667" lon="-4.20462667">
        <ele>1180.0</ele>
        <time>2018-05-19T14:14:27.487Z</time>
      </trkpt>
      <trkpt lat="43.07106667" lon="-4.20462667">
        <ele>1180.0</ele>
        <time>2018-05-19T14:14:28.472Z</time>
      </trkpt>
      <trkpt lat="43.07120333" lon="-4.20462">
        <ele>1180.0</ele>
        <time>2018-05-19T14:14:29.462Z</time>
      </trkpt>
      <trkpt lat="43.07127333" lon="-4.20461167">
        <ele>1179.0</ele>
        <time>2018-05-19T14:14:30.464Z</time>
      </trkpt>
      <trkpt lat="43.07127333" lon="-4.20461167">
        <ele>1179.0</ele>
        <time>2018-05-19T14:14:31.457Z</time>
      </trkpt>
      <trkpt lat="43.07141833" lon="-4.20460167">
        <ele>1179.0</ele>
        <time>2018-05-19T14:14:32.462Z</time>
      </trkpt>
      <trkpt lat="43.07149167" lon="-4.204595">
        <ele>1179.0</ele>
        <time>2018-05-19T14:14:33.462Z</time>
      </trkpt>
      <trkpt lat="43.07149167" lon="-4.204595">
        <ele>1179.0</ele>
        <time>2018-05-19T14:14:34.459Z</time>
      </trkpt>
      <trkpt lat="43.07163333" lon="-4.20458667">
        <ele>1179.0</ele>
        <time>2018-05-19T14:14:35.462Z</time>
      </trkpt>
      <trkpt lat="43.071705" lon="-4.204585">
        <ele>1179.0</ele>
        <time>2018-05-19T14:14:36.464Z</time>
      </trkpt>
      <trkpt lat="43.071705" lon="-4.204585">
        <ele>1179.0</ele>
        <time>2018-05-19T14:14:37.457Z</time>
      </trkpt>
      <trkpt lat="43.07184667" lon="-4.20458">
        <ele>1179.0</ele>
        <time>2018-05-19T14:14:38.462Z</time>
      </trkpt>
      <trkpt lat="43.07184667" lon="-4.20458">
        <ele>1179.0</ele>
        <time>2018-05-19T14:14:39.460Z</time>
      </trkpt>
      <trkpt lat="43.071985" lon="-4.20458667">
        <ele>1180.0</ele>
        <time>2018-05-19T14:14:40.462Z</time>
      </trkpt>
      <trkpt lat="43.071985" lon="-4.20458667">
        <ele>1180.0</ele>
        <time>2018-05-19T14:14:41.457Z</time>
      </trkpt>
      <trkpt lat="43.07212167" lon="-4.20459833">
        <ele>1180.0</ele>
        <time>2018-05-19T14:14:42.479Z</time>
      </trkpt>
      <trkpt lat="43.07212167" lon="-4.20459833">
        <ele>1180.0</ele>
        <time>2018-05-19T14:14:43.470Z</time>
      </trkpt>
      <trkpt lat="43.072255" lon="-4.20460833">
        <ele>1180.0</ele>
        <time>2018-05-19T14:14:44.461Z</time>
      </trkpt>
      <trkpt lat="43.072255" lon="-4.20460833">
        <ele>1180.0</ele>
        <time>2018-05-19T14:14:45.457Z</time>
      </trkpt>
      <trkpt lat="43.07238167" lon="-4.20461333">
        <ele>1181.0</ele>
        <time>2018-05-19T14:14:46.462Z</time>
      </trkpt>
      <trkpt lat="43.07238167" lon="-4.20461333">
        <ele>1181.0</ele>
        <time>2018-05-19T14:14:47.459Z</time>
      </trkpt>
      <trkpt lat="43.07250333" lon="-4.20462167">
        <ele>1181.0</ele>
        <time>2018-05-19T14:14:48.462Z</time>
      </trkpt>
      <trkpt lat="43.07256167" lon="-4.20462667">
        <ele>1181.0</ele>
        <time>2018-05-19T14:14:49.461Z</time>
      </trkpt>
      <trkpt lat="43.07256167" lon="-4.20462667">
        <ele>1181.0</ele>
        <time>2018-05-19T14:14:50.454Z</time>
      </trkpt>
      <trkpt lat="43.07267667" lon="-4.204635">
        <ele>1181.0</ele>
        <time>2018-05-19T14:14:51.461Z</time>
      </trkpt>
      <trkpt lat="43.07267667" lon="-4.204635">
        <ele>1181.0</ele>
        <time>2018-05-19T14:14:52.460Z</time>
      </trkpt>
      <trkpt lat="43.07279" lon="-4.20465">
        <ele>1181.0</ele>
        <time>2018-05-19T14:14:53.462Z</time>
      </trkpt>
      <trkpt lat="43.07284833" lon="-4.20465833">
        <ele>1181.0</ele>
        <time>2018-05-19T14:14:54.462Z</time>
      </trkpt>
      <trkpt lat="43.07284833" lon="-4.20465833">
        <ele>1181.0</ele>
        <time>2018-05-19T14:14:55.456Z</time>
      </trkpt>
      <trkpt lat="43.07296167" lon="-4.20467833">
        <ele>1182.0</ele>
        <time>2018-05-19T14:14:56.462Z</time>
      </trkpt>
      <trkpt lat="43.07296167" lon="-4.20467833">
        <ele>1182.0</ele>
        <time>2018-05-19T14:14:57.468Z</time>
      </trkpt>
      <trkpt lat="43.07307333" lon="-4.20470167">
        <ele>1182.0</ele>
        <time>2018-05-19T14:14:58.462Z</time>
      </trkpt>
      <trkpt lat="43.07312833" lon="-4.20471">
        <ele>1182.0</ele>
        <time>2018-05-19T14:14:59.473Z</time>
      </trkpt>
      <trkpt lat="43.073185" lon="-4.20472">
        <ele>1182.0</ele>
        <time>2018-05-19T14:15:00.470Z</time>
      </trkpt>
      <trkpt lat="43.073185" lon="-4.20472">
        <ele>1182.0</ele>
        <time>2018-05-19T14:15:01.470Z</time>
      </trkpt>
      <trkpt lat="43.07329667" lon="-4.204735">
        <ele>1182.0</ele>
        <time>2018-05-19T14:15:02.462Z</time>
      </trkpt>
      <trkpt lat="43.07335167" lon="-4.20474333">
        <ele>1182.0</ele>
        <time>2018-05-19T14:15:03.462Z</time>
      </trkpt>
      <trkpt lat="43.07335167" lon="-4.20474333">
        <ele>1182.0</ele>
        <time>2018-05-19T14:15:04.457Z</time>
      </trkpt>
      <trkpt lat="43.07346" lon="-4.20475">
        <ele>1182.0</ele>
        <time>2018-05-19T14:15:05.461Z</time>
      </trkpt>
      <trkpt lat="43.07351333" lon="-4.204755">
        <ele>1182.0</ele>
        <time>2018-05-19T14:15:06.463Z</time>
      </trkpt>
      <trkpt lat="43.07351333" lon="-4.204755">
        <ele>1182.0</ele>
        <time>2018-05-19T14:15:07.457Z</time>
      </trkpt>
      <trkpt lat="43.07362" lon="-4.20476">
        <ele>1182.0</ele>
        <time>2018-05-19T14:15:08.462Z</time>
      </trkpt>
      <trkpt lat="43.07367333" lon="-4.20476167">
        <ele>1182.0</ele>
        <time>2018-05-19T14:15:09.469Z</time>
      </trkpt>
      <trkpt lat="43.07372667" lon="-4.20476667">
        <ele>1182.0</ele>
        <time>2018-05-19T14:15:10.463Z</time>
      </trkpt>
      <trkpt lat="43.07372667" lon="-4.20476667">
        <ele>1182.0</ele>
        <time>2018-05-19T14:15:11.457Z</time>
      </trkpt>
      <trkpt lat="43.07383" lon="-4.20476667">
        <ele>1182.0</ele>
        <time>2018-05-19T14:15:12.464Z</time>
      </trkpt>
      <trkpt lat="43.07383" lon="-4.20476667">
        <ele>1182.0</ele>
        <time>2018-05-19T14:15:13.458Z</time>
      </trkpt>
      <trkpt lat="43.07392833" lon="-4.20476667">
        <ele>1183.0</ele>
        <time>2018-05-19T14:15:14.462Z</time>
      </trkpt>
      <trkpt lat="43.07392833" lon="-4.20476667">
        <ele>1183.0</ele>
        <time>2018-05-19T14:15:15.456Z</time>
      </trkpt>
      <trkpt lat="43.07402333" lon="-4.20476333">
        <ele>1183.0</ele>
        <time>2018-05-19T14:15:16.461Z</time>
      </trkpt>
      <trkpt lat="43.07402333" lon="-4.20476333">
        <ele>1183.0</ele>
        <time>2018-05-19T14:15:17.456Z</time>
      </trkpt>
      <trkpt lat="43.074115" lon="-4.20476167">
        <ele>1183.0</ele>
        <time>2018-05-19T14:15:18.464Z</time>
      </trkpt>
      <trkpt lat="43.074115" lon="-4.20476167">
        <ele>1183.0</ele>
        <time>2018-05-19T14:15:19.459Z</time>
      </trkpt>
      <trkpt lat="43.07420833" lon="-4.20476167">
        <ele>1183.0</ele>
        <time>2018-05-19T14:15:20.462Z</time>
      </trkpt>
      <trkpt lat="43.07420833" lon="-4.20476167">
        <ele>1183.0</ele>
        <time>2018-05-19T14:15:21.460Z</time>
      </trkpt>
      <trkpt lat="43.07430167" lon="-4.20475333">
        <ele>1183.0</ele>
        <time>2018-05-19T14:15:22.462Z</time>
      </trkpt>
      <trkpt lat="43.07430167" lon="-4.20475333">
        <ele>1183.0</ele>
        <time>2018-05-19T14:15:23.476Z</time>
      </trkpt>
      <trkpt lat="43.074395" lon="-4.20474333">
        <ele>1184.0</ele>
        <time>2018-05-19T14:15:24.472Z</time>
      </trkpt>
      <trkpt lat="43.074395" lon="-4.20474333">
        <ele>1184.0</ele>
        <time>2018-05-19T14:15:25.458Z</time>
      </trkpt>
      <trkpt lat="43.07448833" lon="-4.20472667">
        <ele>1184.0</ele>
        <time>2018-05-19T14:15:26.462Z</time>
      </trkpt>
      <trkpt lat="43.07453167" lon="-4.20471833">
        <ele>1184.0</ele>
        <time>2018-05-19T14:15:27.462Z</time>
      </trkpt>
      <trkpt lat="43.07453167" lon="-4.20471833">
        <ele>1184.0</ele>
        <time>2018-05-19T14:15:28.457Z</time>
      </trkpt>
      <trkpt lat="43.07461167" lon="-4.20469667">
        <ele>1185.0</ele>
        <time>2018-05-19T14:15:29.463Z</time>
      </trkpt>
      <trkpt lat="43.07464833" lon="-4.20468667">
        <ele>1185.0</ele>
        <time>2018-05-19T14:15:30.469Z</time>
      </trkpt>
      <trkpt lat="43.07464833" lon="-4.20468667">
        <ele>1185.0</ele>
        <time>2018-05-19T14:15:31.456Z</time>
      </trkpt>
      <trkpt lat="43.07472" lon="-4.20467">
        <ele>1186.0</ele>
        <time>2018-05-19T14:15:32.462Z</time>
      </trkpt>
      <trkpt lat="43.07472" lon="-4.20467">
        <ele>1186.0</ele>
        <time>2018-05-19T14:15:33.468Z</time>
      </trkpt>
      <trkpt lat="43.07479667" lon="-4.20464833">
        <ele>1186.0</ele>
        <time>2018-05-19T14:15:34.462Z</time>
      </trkpt>
      <trkpt lat="43.07479667" lon="-4.20464833">
        <ele>1186.0</ele>
        <time>2018-05-19T14:15:35.455Z</time>
      </trkpt>
      <trkpt lat="43.07487167" lon="-4.20462333">
        <ele>1186.0</ele>
        <time>2018-05-19T14:15:36.464Z</time>
      </trkpt>
      <trkpt lat="43.07491333" lon="-4.20460833">
        <ele>1186.0</ele>
        <time>2018-05-19T14:15:37.461Z</time>
      </trkpt>
      <trkpt lat="43.07491333" lon="-4.20460833">
        <ele>1186.0</ele>
        <time>2018-05-19T14:15:38.457Z</time>
      </trkpt>
      <trkpt lat="43.074995" lon="-4.20456833">
        <ele>1186.0</ele>
        <time>2018-05-19T14:15:39.462Z</time>
      </trkpt>
      <trkpt lat="43.074995" lon="-4.20456833">
        <ele>1186.0</ele>
        <time>2018-05-19T14:15:40.456Z</time>
      </trkpt>
      <trkpt lat="43.07508" lon="-4.20451667">
        <ele>1186.0</ele>
        <time>2018-05-19T14:15:41.462Z</time>
      </trkpt>
      <trkpt lat="43.075125" lon="-4.20449167">
        <ele>1186.0</ele>
        <time>2018-05-19T14:15:42.464Z</time>
      </trkpt>
      <trkpt lat="43.075125" lon="-4.20449167">
        <ele>1186.0</ele>
        <time>2018-05-19T14:15:43.463Z</time>
      </trkpt>
      <trkpt lat="43.07521" lon="-4.204425">
        <ele>1187.0</ele>
        <time>2018-05-19T14:15:44.463Z</time>
      </trkpt>
      <trkpt lat="43.07521" lon="-4.204425">
        <ele>1187.0</ele>
        <time>2018-05-19T14:15:45.454Z</time>
      </trkpt>
      <trkpt lat="43.07529167" lon="-4.20433667">
        <ele>1186.0</ele>
        <time>2018-05-19T14:15:46.462Z</time>
      </trkpt>
      <trkpt lat="43.07529167" lon="-4.20433667">
        <ele>1186.0</ele>
        <time>2018-05-19T14:15:47.452Z</time>
      </trkpt>
      <trkpt lat="43.075365" lon="-4.20423">
        <ele>1186.0</ele>
        <time>2018-05-19T14:15:48.475Z</time>
      </trkpt>
      <trkpt lat="43.075365" lon="-4.20423">
        <ele>1186.0</ele>
        <time>2018-05-19T14:15:49.459Z</time>
      </trkpt>
      <trkpt lat="43.075435" lon="-4.20410833">
        <ele>1186.0</ele>
        <time>2018-05-19T14:15:50.462Z</time>
      </trkpt>
      <trkpt lat="43.075435" lon="-4.20410833">
        <ele>1186.0</ele>
        <time>2018-05-19T14:15:51.456Z</time>
      </trkpt>
      <trkpt lat="43.07549833" lon="-4.20397167">
        <ele>1185.0</ele>
        <time>2018-05-19T14:15:52.477Z</time>
      </trkpt>
      <trkpt lat="43.07549833" lon="-4.20397167">
        <ele>1185.0</ele>
        <time>2018-05-19T14:15:53.463Z</time>
      </trkpt>
      <trkpt lat="43.075555" lon="-4.20382333">
        <ele>1185.0</ele>
        <time>2018-05-19T14:15:54.468Z</time>
      </trkpt>
      <trkpt lat="43.075555" lon="-4.20382333">
        <ele>1185.0</ele>
        <time>2018-05-19T14:15:55.457Z</time>
      </trkpt>
      <trkpt lat="43.07561333" lon="-4.20367">
        <ele>1184.0</ele>
        <time>2018-05-19T14:15:56.462Z</time>
      </trkpt>
      <trkpt lat="43.07561333" lon="-4.20367">
        <ele>1184.0</ele>
        <time>2018-05-19T14:15:57.463Z</time>
      </trkpt>
      <trkpt lat="43.075665" lon="-4.2035">
        <ele>1184.0</ele>
        <time>2018-05-19T14:15:58.462Z</time>
      </trkpt>
      <trkpt lat="43.075665" lon="-4.2035">
        <ele>1184.0</ele>
        <time>2018-05-19T14:15:59.457Z</time>
      </trkpt>
      <trkpt lat="43.075715" lon="-4.20332167">
        <ele>1184.0</ele>
        <time>2018-05-19T14:16:00.463Z</time>
      </trkpt>
      <trkpt lat="43.075715" lon="-4.20332167">
        <ele>1184.0</ele>
        <time>2018-05-19T14:16:01.457Z</time>
      </trkpt>
      <trkpt lat="43.07576667" lon="-4.20315333">
        <ele>1184.0</ele>
        <time>2018-05-19T14:16:02.459Z</time>
      </trkpt>
      <trkpt lat="43.07576667" lon="-4.20315333">
        <ele>1184.0</ele>
        <time>2018-05-19T14:16:03.458Z</time>
      </trkpt>
      <trkpt lat="43.07582167" lon="-4.20299833">
        <ele>1183.0</ele>
        <time>2018-05-19T14:16:04.461Z</time>
      </trkpt>
      <trkpt lat="43.07582167" lon="-4.20299833">
        <ele>1183.0</ele>
        <time>2018-05-19T14:16:05.457Z</time>
      </trkpt>
      <trkpt lat="43.07588333" lon="-4.20283667">
        <ele>1183.0</ele>
        <time>2018-05-19T14:16:06.461Z</time>
      </trkpt>
      <trkpt lat="43.07588333" lon="-4.20283667">
        <ele>1183.0</ele>
        <time>2018-05-19T14:16:07.457Z</time>
      </trkpt>
      <trkpt lat="43.07595167" lon="-4.20267167">
        <ele>1182.0</ele>
        <time>2018-05-19T14:16:08.461Z</time>
      </trkpt>
      <trkpt lat="43.07595167" lon="-4.20267167">
        <ele>1182.0</ele>
        <time>2018-05-19T14:16:09.457Z</time>
      </trkpt>
      <trkpt lat="43.07604167" lon="-4.202525">
        <ele>1182.0</ele>
        <time>2018-05-19T14:16:10.462Z</time>
      </trkpt>
      <trkpt lat="43.07604167" lon="-4.202525">
        <ele>1182.0</ele>
        <time>2018-05-19T14:16:11.457Z</time>
      </trkpt>
      <trkpt lat="43.07613833" lon="-4.2024">
        <ele>1182.0</ele>
        <time>2018-05-19T14:16:12.463Z</time>
      </trkpt>
      <trkpt lat="43.07613833" lon="-4.2024">
        <ele>1182.0</ele>
        <time>2018-05-19T14:16:13.468Z</time>
      </trkpt>
      <trkpt lat="43.07623833" lon="-4.20226667">
        <ele>1181.0</ele>
        <time>2018-05-19T14:16:14.461Z</time>
      </trkpt>
      <trkpt lat="43.07623833" lon="-4.20226667">
        <ele>1181.0</ele>
        <time>2018-05-19T14:16:15.457Z</time>
      </trkpt>
      <trkpt lat="43.07636" lon="-4.20213333">
        <ele>1179.0</ele>
        <time>2018-05-19T14:16:16.462Z</time>
      </trkpt>
      <trkpt lat="43.07636" lon="-4.20213333">
        <ele>1179.0</ele>
        <time>2018-05-19T14:16:17.455Z</time>
      </trkpt>
      <trkpt lat="43.076505" lon="-4.20199167">
        <ele>1178.0</ele>
        <time>2018-05-19T14:16:18.484Z</time>
      </trkpt>
      <trkpt lat="43.076505" lon="-4.20199167">
        <ele>1178.0</ele>
        <time>2018-05-19T14:16:19.469Z</time>
      </trkpt>
      <trkpt lat="43.07665333" lon="-4.20183833">
        <ele>1177.0</ele>
        <time>2018-05-19T14:16:20.463Z</time>
      </trkpt>
      <trkpt lat="43.07665333" lon="-4.20183833">
        <ele>1177.0</ele>
        <time>2018-05-19T14:16:21.467Z</time>
      </trkpt>
      <trkpt lat="43.07677667" lon="-4.20169">
        <ele>1176.0</ele>
        <time>2018-05-19T14:16:22.462Z</time>
      </trkpt>
      <trkpt lat="43.07677667" lon="-4.20169">
        <ele>1176.0</ele>
        <time>2018-05-19T14:16:23.476Z</time>
      </trkpt>
      <trkpt lat="43.07688167" lon="-4.20155833">
        <ele>1175.0</ele>
        <time>2018-05-19T14:16:24.463Z</time>
      </trkpt>
      <trkpt lat="43.07688167" lon="-4.20155833">
        <ele>1175.0</ele>
        <time>2018-05-19T14:16:25.457Z</time>
      </trkpt>
      <trkpt lat="43.07701333" lon="-4.20150333">
        <ele>1174.0</ele>
        <time>2018-05-19T14:16:26.462Z</time>
      </trkpt>
      <trkpt lat="43.07701333" lon="-4.20150333">
        <ele>1174.0</ele>
        <time>2018-05-19T14:16:27.456Z</time>
      </trkpt>
      <trkpt lat="43.07716167" lon="-4.20152667">
        <ele>1171.0</ele>
        <time>2018-05-19T14:16:28.462Z</time>
      </trkpt>
      <trkpt lat="43.07716167" lon="-4.20152667">
        <ele>1171.0</ele>
        <time>2018-05-19T14:16:29.458Z</time>
      </trkpt>
      <trkpt lat="43.07730167" lon="-4.20155167">
        <ele>1169.0</ele>
        <time>2018-05-19T14:16:30.482Z</time>
      </trkpt>
      <trkpt lat="43.07730167" lon="-4.20155167">
        <ele>1169.0</ele>
        <time>2018-05-19T14:16:31.469Z</time>
      </trkpt>
      <trkpt lat="43.07742333" lon="-4.20151167">
        <ele>1166.0</ele>
        <time>2018-05-19T14:16:32.468Z</time>
      </trkpt>
      <trkpt lat="43.077475" lon="-4.20145833">
        <ele>1165.0</ele>
        <time>2018-05-19T14:16:33.462Z</time>
      </trkpt>
      <trkpt lat="43.077475" lon="-4.20145833">
        <ele>1165.0</ele>
        <time>2018-05-19T14:16:34.457Z</time>
      </trkpt>
      <trkpt lat="43.07757167" lon="-4.20129667">
        <ele>1163.0</ele>
        <time>2018-05-19T14:16:35.468Z</time>
      </trkpt>
      <trkpt lat="43.07762333" lon="-4.20122">
        <ele>1163.0</ele>
        <time>2018-05-19T14:16:36.468Z</time>
      </trkpt>
      <trkpt lat="43.07762333" lon="-4.20122">
        <ele>1163.0</ele>
        <time>2018-05-19T14:16:37.457Z</time>
      </trkpt>
      <trkpt lat="43.07774833" lon="-4.20110333">
        <ele>1161.0</ele>
        <time>2018-05-19T14:16:38.475Z</time>
      </trkpt>
      <trkpt lat="43.07774833" lon="-4.20110333">
        <ele>1161.0</ele>
        <time>2018-05-19T14:16:39.460Z</time>
      </trkpt>
      <trkpt lat="43.07789" lon="-4.20103167">
        <ele>1158.0</ele>
        <time>2018-05-19T14:16:40.462Z</time>
      </trkpt>
      <trkpt lat="43.07789" lon="-4.20103167">
        <ele>1158.0</ele>
        <time>2018-05-19T14:16:41.459Z</time>
      </trkpt>
      <trkpt lat="43.07803167" lon="-4.20097333">
        <ele>1157.0</ele>
        <time>2018-05-19T14:16:42.463Z</time>
      </trkpt>
      <trkpt lat="43.07803167" lon="-4.20097333">
        <ele>1157.0</ele>
        <time>2018-05-19T14:16:43.469Z</time>
      </trkpt>
      <trkpt lat="43.07817333" lon="-4.20091167">
        <ele>1155.0</ele>
        <time>2018-05-19T14:16:44.462Z</time>
      </trkpt>
      <trkpt lat="43.07817333" lon="-4.20091167">
        <ele>1155.0</ele>
        <time>2018-05-19T14:16:45.459Z</time>
      </trkpt>
      <trkpt lat="43.078315" lon="-4.20083667">
        <ele>1153.0</ele>
        <time>2018-05-19T14:16:46.462Z</time>
      </trkpt>
      <trkpt lat="43.07838" lon="-4.20079167">
        <ele>1152.0</ele>
        <time>2018-05-19T14:16:47.463Z</time>
      </trkpt>
      <trkpt lat="43.07838" lon="-4.20079167">
        <ele>1152.0</ele>
        <time>2018-05-19T14:16:48.460Z</time>
      </trkpt>
      <trkpt lat="43.07849833" lon="-4.20067833">
        <ele>1150.0</ele>
        <time>2018-05-19T14:16:49.462Z</time>
      </trkpt>
      <trkpt lat="43.07849833" lon="-4.20067833">
        <ele>1150.0</ele>
        <time>2018-05-19T14:16:50.456Z</time>
      </trkpt>
      <trkpt lat="43.078605" lon="-4.20055">
        <ele>1148.0</ele>
        <time>2018-05-19T14:16:51.461Z</time>
      </trkpt>
      <trkpt lat="43.078655" lon="-4.20047833">
        <ele>1148.0</ele>
        <time>2018-05-19T14:16:52.461Z</time>
      </trkpt>
      <trkpt lat="43.078655" lon="-4.20047833">
        <ele>1148.0</ele>
        <time>2018-05-19T14:16:53.468Z</time>
      </trkpt>
      <trkpt lat="43.078745" lon="-4.20033">
        <ele>1146.0</ele>
        <time>2018-05-19T14:16:54.462Z</time>
      </trkpt>
      <trkpt lat="43.078745" lon="-4.20033">
        <ele>1146.0</ele>
        <time>2018-05-19T14:16:55.455Z</time>
      </trkpt>
      <trkpt lat="43.07882333" lon="-4.20016333">
        <ele>1144.0</ele>
        <time>2018-05-19T14:16:56.462Z</time>
      </trkpt>
      <trkpt lat="43.07882333" lon="-4.20016333">
        <ele>1144.0</ele>
        <time>2018-05-19T14:16:57.458Z</time>
      </trkpt>
      <trkpt lat="43.07890333" lon="-4.20000167">
        <ele>1141.0</ele>
        <time>2018-05-19T14:16:58.461Z</time>
      </trkpt>
      <trkpt lat="43.07894167" lon="-4.19992667">
        <ele>1140.0</ele>
        <time>2018-05-19T14:16:59.460Z</time>
      </trkpt>
      <trkpt lat="43.07898" lon="-4.19984833">
        <ele>1139.0</ele>
        <time>2018-05-19T14:17:00.468Z</time>
      </trkpt>
      <trkpt lat="43.07898" lon="-4.19984833">
        <ele>1139.0</ele>
        <time>2018-05-19T14:17:01.459Z</time>
      </trkpt>
      <trkpt lat="43.079065" lon="-4.19969667">
        <ele>1136.0</ele>
        <time>2018-05-19T14:17:02.462Z</time>
      </trkpt>
      <trkpt lat="43.07911333" lon="-4.199635">
        <ele>1135.0</ele>
        <time>2018-05-19T14:17:03.462Z</time>
      </trkpt>
      <trkpt lat="43.07911333" lon="-4.199635">
        <ele>1135.0</ele>
        <time>2018-05-19T14:17:04.455Z</time>
      </trkpt>
      <trkpt lat="43.07922667" lon="-4.19953333">
        <ele>1133.0</ele>
        <time>2018-05-19T14:17:05.461Z</time>
      </trkpt>
      <trkpt lat="43.07929" lon="-4.19948667">
        <ele>1132.0</ele>
        <time>2018-05-19T14:17:06.461Z</time>
      </trkpt>
      <trkpt lat="43.07929" lon="-4.19948667">
        <ele>1132.0</ele>
        <time>2018-05-19T14:17:07.456Z</time>
      </trkpt>
      <trkpt lat="43.07942167" lon="-4.19939333">
        <ele>1130.0</ele>
        <time>2018-05-19T14:17:08.481Z</time>
      </trkpt>
      <trkpt lat="43.07942167" lon="-4.19939333">
        <ele>1130.0</ele>
        <time>2018-05-19T14:17:09.468Z</time>
      </trkpt>
      <trkpt lat="43.07956333" lon="-4.199305">
        <ele>1128.0</ele>
        <time>2018-05-19T14:17:10.463Z</time>
      </trkpt>
      <trkpt lat="43.07956333" lon="-4.199305">
        <ele>1128.0</ele>
        <time>2018-05-19T14:17:11.456Z</time>
      </trkpt>
      <trkpt lat="43.07970167" lon="-4.19922333">
        <ele>1126.0</ele>
        <time>2018-05-19T14:17:12.462Z</time>
      </trkpt>
      <trkpt lat="43.07977167" lon="-4.199185">
        <ele>1125.0</ele>
        <time>2018-05-19T14:17:13.461Z</time>
      </trkpt>
      <trkpt lat="43.07984167" lon="-4.19914">
        <ele>1124.0</ele>
        <time>2018-05-19T14:17:14.468Z</time>
      </trkpt>
      <trkpt lat="43.07984167" lon="-4.19914">
        <ele>1124.0</ele>
        <time>2018-05-19T14:17:15.459Z</time>
      </trkpt>
      <trkpt lat="43.07997667" lon="-4.19902">
        <ele>1122.0</ele>
        <time>2018-05-19T14:17:16.460Z</time>
      </trkpt>
      <trkpt lat="43.08003667" lon="-4.198935">
        <ele>1121.0</ele>
        <time>2018-05-19T14:17:17.461Z</time>
      </trkpt>
      <trkpt lat="43.08003667" lon="-4.198935">
        <ele>1121.0</ele>
        <time>2018-05-19T14:17:18.454Z</time>
      </trkpt>
      <trkpt lat="43.08012667" lon="-4.198715">
        <ele>1120.0</ele>
        <time>2018-05-19T14:17:19.461Z</time>
      </trkpt>
      <trkpt lat="43.08012667" lon="-4.198715">
        <ele>1120.0</ele>
        <time>2018-05-19T14:17:20.456Z</time>
      </trkpt>
      <trkpt lat="43.08021833" lon="-4.198475">
        <ele>1118.0</ele>
        <time>2018-05-19T14:17:21.461Z</time>
      </trkpt>
      <trkpt lat="43.08021833" lon="-4.198475">
        <ele>1118.0</ele>
        <time>2018-05-19T14:17:22.456Z</time>
      </trkpt>
      <trkpt lat="43.08032833" lon="-4.19824333">
        <ele>1116.0</ele>
        <time>2018-05-19T14:17:23.468Z</time>
      </trkpt>
      <trkpt lat="43.08032833" lon="-4.19824333">
        <ele>1116.0</ele>
        <time>2018-05-19T14:17:24.460Z</time>
      </trkpt>
      <trkpt lat="43.08046" lon="-4.19803833">
        <ele>1114.0</ele>
        <time>2018-05-19T14:17:25.469Z</time>
      </trkpt>
      <trkpt lat="43.08046" lon="-4.19803833">
        <ele>1114.0</ele>
        <time>2018-05-19T14:17:26.460Z</time>
      </trkpt>
      <trkpt lat="43.08060167" lon="-4.197865">
        <ele>1112.0</ele>
        <time>2018-05-19T14:17:27.461Z</time>
      </trkpt>
      <trkpt lat="43.08060167" lon="-4.197865">
        <ele>1112.0</ele>
        <time>2018-05-19T14:17:28.456Z</time>
      </trkpt>
      <trkpt lat="43.08075667" lon="-4.197705">
        <ele>1110.0</ele>
        <time>2018-05-19T14:17:29.461Z</time>
      </trkpt>
      <trkpt lat="43.080835" lon="-4.19762167">
        <ele>1109.0</ele>
        <time>2018-05-19T14:17:30.463Z</time>
      </trkpt>
      <trkpt lat="43.080835" lon="-4.19762167">
        <ele>1109.0</ele>
        <time>2018-05-19T14:17:31.456Z</time>
      </trkpt>
      <trkpt lat="43.08098833" lon="-4.19745167">
        <ele>1107.0</ele>
        <time>2018-05-19T14:17:32.461Z</time>
      </trkpt>
      <trkpt lat="43.08098833" lon="-4.19745167">
        <ele>1107.0</ele>
        <time>2018-05-19T14:17:33.468Z</time>
      </trkpt>
      <trkpt lat="43.08113667" lon="-4.19728667">
        <ele>1105.0</ele>
        <time>2018-05-19T14:17:34.461Z</time>
      </trkpt>
      <trkpt lat="43.08113667" lon="-4.19728667">
        <ele>1105.0</ele>
        <time>2018-05-19T14:17:35.456Z</time>
      </trkpt>
      <trkpt lat="43.08128833" lon="-4.19714">
        <ele>1103.0</ele>
        <time>2018-05-19T14:17:36.468Z</time>
      </trkpt>
      <trkpt lat="43.08128833" lon="-4.19714">
        <ele>1103.0</ele>
        <time>2018-05-19T14:17:37.460Z</time>
      </trkpt>
      <trkpt lat="43.081435" lon="-4.19697">
        <ele>1100.0</ele>
        <time>2018-05-19T14:17:38.453Z</time>
      </trkpt>
      <trkpt lat="43.08150667" lon="-4.19687833">
        <ele>1099.0</ele>
        <time>2018-05-19T14:17:39.462Z</time>
      </trkpt>
      <trkpt lat="43.08150667" lon="-4.19687833">
        <ele>1099.0</ele>
        <time>2018-05-19T14:17:40.456Z</time>
      </trkpt>
      <trkpt lat="43.08164" lon="-4.19669">
        <ele>1097.0</ele>
        <time>2018-05-19T14:17:41.461Z</time>
      </trkpt>
      <trkpt lat="43.08171167" lon="-4.19659667">
        <ele>1096.0</ele>
        <time>2018-05-19T14:17:42.462Z</time>
      </trkpt>
      <trkpt lat="43.08171167" lon="-4.19659667">
        <ele>1096.0</ele>
        <time>2018-05-19T14:17:43.461Z</time>
      </trkpt>
      <trkpt lat="43.08186833" lon="-4.196435">
        <ele>1094.0</ele>
        <time>2018-05-19T14:17:44.461Z</time>
      </trkpt>
      <trkpt lat="43.081945" lon="-4.19635667">
        <ele>1093.0</ele>
        <time>2018-05-19T14:17:45.463Z</time>
      </trkpt>
      <trkpt lat="43.081945" lon="-4.19635667">
        <ele>1093.0</ele>
        <time>2018-05-19T14:17:46.456Z</time>
      </trkpt>
      <trkpt lat="43.08209333" lon="-4.19620167">
        <ele>1091.0</ele>
        <time>2018-05-19T14:17:47.460Z</time>
      </trkpt>
      <trkpt lat="43.08209333" lon="-4.19620167">
        <ele>1091.0</ele>
        <time>2018-05-19T14:17:48.458Z</time>
      </trkpt>
      <trkpt lat="43.082225" lon="-4.19600833">
        <ele>1089.0</ele>
        <time>2018-05-19T14:17:49.479Z</time>
      </trkpt>
      <trkpt lat="43.082275" lon="-4.19590167">
        <ele>1087.0</ele>
        <time>2018-05-19T14:17:50.468Z</time>
      </trkpt>
      <trkpt lat="43.082275" lon="-4.19590167">
        <ele>1087.0</ele>
        <time>2018-05-19T14:17:51.455Z</time>
      </trkpt>
      <trkpt lat="43.08235333" lon="-4.19567667">
        <ele>1085.0</ele>
        <time>2018-05-19T14:17:52.461Z</time>
      </trkpt>
      <trkpt lat="43.08235333" lon="-4.19567667">
        <ele>1085.0</ele>
        <time>2018-05-19T14:17:53.468Z</time>
      </trkpt>
      <trkpt lat="43.08242167" lon="-4.19544667">
        <ele>1084.0</ele>
        <time>2018-05-19T14:17:54.462Z</time>
      </trkpt>
      <trkpt lat="43.08242167" lon="-4.19544667">
        <ele>1084.0</ele>
        <time>2018-05-19T14:17:55.455Z</time>
      </trkpt>
      <trkpt lat="43.08250167" lon="-4.195245">
        <ele>1082.0</ele>
        <time>2018-05-19T14:17:56.461Z</time>
      </trkpt>
      <trkpt lat="43.08250167" lon="-4.195245">
        <ele>1082.0</ele>
        <time>2018-05-19T14:17:57.456Z</time>
      </trkpt>
      <trkpt lat="43.08256333" lon="-4.19506833">
        <ele>1080.0</ele>
        <time>2018-05-19T14:17:58.461Z</time>
      </trkpt>
      <trkpt lat="43.08256333" lon="-4.19506833">
        <ele>1080.0</ele>
        <time>2018-05-19T14:17:59.456Z</time>
      </trkpt>
      <trkpt lat="43.08257333" lon="-4.19486833">
        <ele>1078.0</ele>
        <time>2018-05-19T14:18:00.478Z</time>
      </trkpt>
      <trkpt lat="43.08257833" lon="-4.19477833">
        <ele>1078.0</ele>
        <time>2018-05-19T14:18:01.474Z</time>
      </trkpt>
      <trkpt lat="43.08257833" lon="-4.19477833">
        <ele>1078.0</ele>
        <time>2018-05-19T14:18:02.460Z</time>
      </trkpt>
      <trkpt lat="43.08264333" lon="-4.19465333">
        <ele>1077.0</ele>
        <time>2018-05-19T14:18:03.461Z</time>
      </trkpt>
      <trkpt lat="43.08264333" lon="-4.19465333">
        <ele>1077.0</ele>
        <time>2018-05-19T14:18:04.456Z</time>
      </trkpt>
      <trkpt lat="43.08274833" lon="-4.19462667">
        <ele>1076.0</ele>
        <time>2018-05-19T14:18:05.462Z</time>
      </trkpt>
      <trkpt lat="43.08274833" lon="-4.19462667">
        <ele>1076.0</ele>
        <time>2018-05-19T14:18:06.459Z</time>
      </trkpt>
      <trkpt lat="43.082855" lon="-4.194625">
        <ele>1075.0</ele>
        <time>2018-05-19T14:18:07.461Z</time>
      </trkpt>
      <trkpt lat="43.082855" lon="-4.194625">
        <ele>1075.0</ele>
        <time>2018-05-19T14:18:08.468Z</time>
      </trkpt>
      <trkpt lat="43.08296667" lon="-4.19464333">
        <ele>1075.0</ele>
        <time>2018-05-19T14:18:09.461Z</time>
      </trkpt>
      <trkpt lat="43.08302167" lon="-4.19466333">
        <ele>1075.0</ele>
        <time>2018-05-19T14:18:10.461Z</time>
      </trkpt>
      <trkpt lat="43.08302167" lon="-4.19466333">
        <ele>1075.0</ele>
        <time>2018-05-19T14:18:11.457Z</time>
      </trkpt>
      <trkpt lat="43.08313667" lon="-4.19469667">
        <ele>1074.0</ele>
        <time>2018-05-19T14:18:12.462Z</time>
      </trkpt>
      <trkpt lat="43.08313667" lon="-4.19469667">
        <ele>1074.0</ele>
        <time>2018-05-19T14:18:13.469Z</time>
      </trkpt>
      <trkpt lat="43.08324" lon="-4.194725">
        <ele>1075.0</ele>
        <time>2018-05-19T14:18:14.461Z</time>
      </trkpt>
      <trkpt lat="43.08324" lon="-4.194725">
        <ele>1075.0</ele>
        <time>2018-05-19T14:18:15.455Z</time>
      </trkpt>
      <trkpt lat="43.08331667" lon="-4.19467667">
        <ele>1074.0</ele>
        <time>2018-05-19T14:18:16.477Z</time>
      </trkpt>
      <trkpt lat="43.08331667" lon="-4.19467667">
        <ele>1074.0</ele>
        <time>2018-05-19T14:18:17.463Z</time>
      </trkpt>
      <trkpt lat="43.08335" lon="-4.19457833">
        <ele>1074.0</ele>
        <time>2018-05-19T14:18:18.462Z</time>
      </trkpt>
      <trkpt lat="43.08335" lon="-4.19457833">
        <ele>1074.0</ele>
        <time>2018-05-19T14:18:19.456Z</time>
      </trkpt>
      <trkpt lat="43.08338167" lon="-4.19446333">
        <ele>1073.0</ele>
        <time>2018-05-19T14:18:20.480Z</time>
      </trkpt>
      <trkpt lat="43.08340333" lon="-4.19440333">
        <ele>1074.0</ele>
        <time>2018-05-19T14:18:21.468Z</time>
      </trkpt>
      <trkpt lat="43.08340333" lon="-4.19440333">
        <ele>1074.0</ele>
        <time>2018-05-19T14:18:22.456Z</time>
      </trkpt>
      <trkpt lat="43.08344167" lon="-4.19426667">
        <ele>1074.0</ele>
        <time>2018-05-19T14:18:23.477Z</time>
      </trkpt>
      <trkpt lat="43.08346167" lon="-4.19419667">
        <ele>1074.0</ele>
        <time>2018-05-19T14:18:24.467Z</time>
      </trkpt>
      <trkpt lat="43.08346167" lon="-4.19419667">
        <ele>1074.0</ele>
        <time>2018-05-19T14:18:25.456Z</time>
      </trkpt>
      <trkpt lat="43.0835" lon="-4.19404167">
        <ele>1074.0</ele>
        <time>2018-05-19T14:18:26.461Z</time>
      </trkpt>
      <trkpt lat="43.0835" lon="-4.19404167">
        <ele>1074.0</ele>
        <time>2018-05-19T14:18:27.456Z</time>
      </trkpt>
      <trkpt lat="43.083485" lon="-4.19387167">
        <ele>1073.0</ele>
        <time>2018-05-19T14:18:28.461Z</time>
      </trkpt>
      <trkpt lat="43.083485" lon="-4.19387167">
        <ele>1073.0</ele>
        <time>2018-05-19T14:18:29.456Z</time>
      </trkpt>
      <trkpt lat="43.08342167" lon="-4.19371167">
        <ele>1072.0</ele>
        <time>2018-05-19T14:18:30.471Z</time>
      </trkpt>
      <trkpt lat="43.08342167" lon="-4.19371167">
        <ele>1072.0</ele>
        <time>2018-05-19T14:18:31.457Z</time>
      </trkpt>
      <trkpt lat="43.0834" lon="-4.19354833">
        <ele>1071.0</ele>
        <time>2018-05-19T14:18:32.485Z</time>
      </trkpt>
      <trkpt lat="43.0834" lon="-4.19354833">
        <ele>1071.0</ele>
        <time>2018-05-19T14:18:33.468Z</time>
      </trkpt>
      <trkpt lat="43.08348167" lon="-4.193375">
        <ele>1069.0</ele>
        <time>2018-05-19T14:18:34.459Z</time>
      </trkpt>
      <trkpt lat="43.08354167" lon="-4.19329667">
        <ele>1068.0</ele>
        <time>2018-05-19T14:18:35.461Z</time>
      </trkpt>
      <trkpt lat="43.08360833" lon="-4.19323167">
        <ele>1068.0</ele>
        <time>2018-05-19T14:18:36.462Z</time>
      </trkpt>
      <trkpt lat="43.08360833" lon="-4.19323167">
        <ele>1068.0</ele>
        <time>2018-05-19T14:18:37.457Z</time>
      </trkpt>
      <trkpt lat="43.08375333" lon="-4.19314667">
        <ele>1066.0</ele>
        <time>2018-05-19T14:18:38.461Z</time>
      </trkpt>
      <trkpt lat="43.08375333" lon="-4.19314667">
        <ele>1066.0</ele>
        <time>2018-05-19T14:18:39.456Z</time>
      </trkpt>
      <trkpt lat="43.08384833" lon="-4.19304167">
        <ele>1065.0</ele>
        <time>2018-05-19T14:18:40.481Z</time>
      </trkpt>
      <trkpt lat="43.083875" lon="-4.192975">
        <ele>1064.0</ele>
        <time>2018-05-19T14:18:41.469Z</time>
      </trkpt>
      <trkpt lat="43.083875" lon="-4.192975">
        <ele>1064.0</ele>
        <time>2018-05-19T14:18:42.459Z</time>
      </trkpt>
      <trkpt lat="43.083935" lon="-4.19283">
        <ele>1063.0</ele>
        <time>2018-05-19T14:18:43.461Z</time>
      </trkpt>
      <trkpt lat="43.08398333" lon="-4.19278667">
        <ele>1062.0</ele>
        <time>2018-05-19T14:18:44.461Z</time>
      </trkpt>
      <trkpt lat="43.08398333" lon="-4.19278667">
        <ele>1062.0</ele>
        <time>2018-05-19T14:18:45.455Z</time>
      </trkpt>
      <trkpt lat="43.08409333" lon="-4.19278167">
        <ele>1061.0</ele>
        <time>2018-05-19T14:18:46.478Z</time>
      </trkpt>
      <trkpt lat="43.08409333" lon="-4.19278167">
        <ele>1061.0</ele>
        <time>2018-05-19T14:18:47.467Z</time>
      </trkpt>
      <trkpt lat="43.08420833" lon="-4.19280333">
        <ele>1059.0</ele>
        <time>2018-05-19T14:18:48.461Z</time>
      </trkpt>
      <trkpt lat="43.08420833" lon="-4.19280333">
        <ele>1059.0</ele>
        <time>2018-05-19T14:18:49.456Z</time>
      </trkpt>
      <trkpt lat="43.084335" lon="-4.19285">
        <ele>1059.0</ele>
        <time>2018-05-19T14:18:50.461Z</time>
      </trkpt>
      <trkpt lat="43.084335" lon="-4.19285">
        <ele>1059.0</ele>
        <time>2018-05-19T14:18:51.467Z</time>
      </trkpt>
      <trkpt lat="43.08446167" lon="-4.19291667">
        <ele>1058.0</ele>
        <time>2018-05-19T14:18:52.461Z</time>
      </trkpt>
      <trkpt lat="43.084535" lon="-4.19295167">
        <ele>1058.0</ele>
        <time>2018-05-19T14:18:53.462Z</time>
      </trkpt>
      <trkpt lat="43.084535" lon="-4.19295167">
        <ele>1058.0</ele>
        <time>2018-05-19T14:18:54.456Z</time>
      </trkpt>
      <trkpt lat="43.08469167" lon="-4.19305167">
        <ele>1057.0</ele>
        <time>2018-05-19T14:18:55.459Z</time>
      </trkpt>
      <trkpt lat="43.08477167" lon="-4.19311">
        <ele>1056.0</ele>
        <time>2018-05-19T14:18:56.461Z</time>
      </trkpt>
      <trkpt lat="43.08477167" lon="-4.19311">
        <ele>1056.0</ele>
        <time>2018-05-19T14:18:57.455Z</time>
      </trkpt>
      <trkpt lat="43.08493667" lon="-4.1932">
        <ele>1055.0</ele>
        <time>2018-05-19T14:18:58.477Z</time>
      </trkpt>
      <trkpt lat="43.08493667" lon="-4.1932">
        <ele>1055.0</ele>
        <time>2018-05-19T14:18:59.467Z</time>
      </trkpt>
      <trkpt lat="43.08509333" lon="-4.19328667">
        <ele>1054.0</ele>
        <time>2018-05-19T14:19:00.460Z</time>
      </trkpt>
      <trkpt lat="43.08509333" lon="-4.19328667">
        <ele>1054.0</ele>
        <time>2018-05-19T14:19:01.458Z</time>
      </trkpt>
      <trkpt lat="43.085235" lon="-4.19337333">
        <ele>1053.0</ele>
        <time>2018-05-19T14:19:02.460Z</time>
      </trkpt>
      <trkpt lat="43.08530167" lon="-4.19340667">
        <ele>1053.0</ele>
        <time>2018-05-19T14:19:03.462Z</time>
      </trkpt>
      <trkpt lat="43.08530167" lon="-4.19340667">
        <ele>1053.0</ele>
        <time>2018-05-19T14:19:04.456Z</time>
      </trkpt>
      <trkpt lat="43.08540167" lon="-4.19354667">
        <ele>1052.0</ele>
        <time>2018-05-19T14:19:05.457Z</time>
      </trkpt>
      <trkpt lat="43.08545167" lon="-4.19361">
        <ele>1052.0</ele>
        <time>2018-05-19T14:19:06.460Z</time>
      </trkpt>
      <trkpt lat="43.08550667" lon="-4.19367833">
        <ele>1051.0</ele>
        <time>2018-05-19T14:19:07.462Z</time>
      </trkpt>
      <trkpt lat="43.08550667" lon="-4.19367833">
        <ele>1051.0</ele>
        <time>2018-05-19T14:19:08.457Z</time>
      </trkpt>
      <trkpt lat="43.08561333" lon="-4.19381667">
        <ele>1051.0</ele>
        <time>2018-05-19T14:19:09.457Z</time>
      </trkpt>
      <trkpt lat="43.08561333" lon="-4.19381667">
        <ele>1051.0</ele>
        <time>2018-05-19T14:19:10.456Z</time>
      </trkpt>
      <trkpt lat="43.08570667" lon="-4.19394167">
        <ele>1051.0</ele>
        <time>2018-05-19T14:19:11.461Z</time>
      </trkpt>
      <trkpt lat="43.085745" lon="-4.194045">
        <ele>1051.0</ele>
        <time>2018-05-19T14:19:12.462Z</time>
      </trkpt>
      <trkpt lat="43.085745" lon="-4.194045">
        <ele>1051.0</ele>
        <time>2018-05-19T14:19:13.468Z</time>
      </trkpt>
      <trkpt lat="43.08582667" lon="-4.19425833">
        <ele>1050.0</ele>
        <time>2018-05-19T14:19:14.459Z</time>
      </trkpt>
      <trkpt lat="43.08582667" lon="-4.19425833">
        <ele>1050.0</ele>
        <time>2018-05-19T14:19:15.455Z</time>
      </trkpt>
      <trkpt lat="43.08591" lon="-4.19450167">
        <ele>1048.0</ele>
        <time>2018-05-19T14:19:16.463Z</time>
      </trkpt>
      <trkpt lat="43.08591" lon="-4.19450167">
        <ele>1048.0</ele>
        <time>2018-05-19T14:19:17.454Z</time>
      </trkpt>
      <trkpt lat="43.085945" lon="-4.194765">
        <ele>1047.0</ele>
        <time>2018-05-19T14:19:18.477Z</time>
      </trkpt>
      <trkpt lat="43.085945" lon="-4.194765">
        <ele>1047.0</ele>
        <time>2018-05-19T14:19:19.468Z</time>
      </trkpt>
      <trkpt lat="43.08595" lon="-4.19503167">
        <ele>1047.0</ele>
        <time>2018-05-19T14:19:20.462Z</time>
      </trkpt>
      <trkpt lat="43.08595" lon="-4.19515333">
        <ele>1046.0</ele>
        <time>2018-05-19T14:19:21.461Z</time>
      </trkpt>
      <trkpt lat="43.08595" lon="-4.19515333">
        <ele>1046.0</ele>
        <time>2018-05-19T14:19:22.456Z</time>
      </trkpt>
      <trkpt lat="43.08595667" lon="-4.19538833">
        <ele>1046.0</ele>
        <time>2018-05-19T14:19:23.469Z</time>
      </trkpt>
      <trkpt lat="43.08596333" lon="-4.19550333">
        <ele>1046.0</ele>
        <time>2018-05-19T14:19:24.461Z</time>
      </trkpt>
      <trkpt lat="43.08596333" lon="-4.19550333">
        <ele>1046.0</ele>
        <time>2018-05-19T14:19:25.458Z</time>
      </trkpt>
      <trkpt lat="43.08597333" lon="-4.195725">
        <ele>1045.0</ele>
        <time>2018-05-19T14:19:26.461Z</time>
      </trkpt>
      <trkpt lat="43.08598167" lon="-4.19582667">
        <ele>1045.0</ele>
        <time>2018-05-19T14:19:27.461Z</time>
      </trkpt>
      <trkpt lat="43.08598167" lon="-4.19582667">
        <ele>1045.0</ele>
        <time>2018-05-19T14:19:28.456Z</time>
      </trkpt>
      <trkpt lat="43.08599833" lon="-4.19601167">
        <ele>1045.0</ele>
        <time>2018-05-19T14:19:29.479Z</time>
      </trkpt>
      <trkpt lat="43.08601167" lon="-4.1961">
        <ele>1044.0</ele>
        <time>2018-05-19T14:19:30.468Z</time>
      </trkpt>
      <trkpt lat="43.08601167" lon="-4.1961">
        <ele>1044.0</ele>
        <time>2018-05-19T14:19:31.454Z</time>
      </trkpt>
      <trkpt lat="43.086055" lon="-4.19626833">
        <ele>1044.0</ele>
        <time>2018-05-19T14:19:32.467Z</time>
      </trkpt>
      <trkpt lat="43.08608833" lon="-4.19635167">
        <ele>1044.0</ele>
        <time>2018-05-19T14:19:33.467Z</time>
      </trkpt>
      <trkpt lat="43.08613" lon="-4.19644">
        <ele>1043.0</ele>
        <time>2018-05-19T14:19:34.458Z</time>
      </trkpt>
      <trkpt lat="43.08613" lon="-4.19644">
        <ele>1043.0</ele>
        <time>2018-05-19T14:19:35.457Z</time>
      </trkpt>
      <trkpt lat="43.08622167" lon="-4.19662167">
        <ele>1042.0</ele>
        <time>2018-05-19T14:19:36.461Z</time>
      </trkpt>
      <trkpt lat="43.08622167" lon="-4.19662167">
        <ele>1042.0</ele>
        <time>2018-05-19T14:19:37.457Z</time>
      </trkpt>
      <trkpt lat="43.08632833" lon="-4.19680167">
        <ele>1041.0</ele>
        <time>2018-05-19T14:19:38.459Z</time>
      </trkpt>
      <trkpt lat="43.08632833" lon="-4.19680167">
        <ele>1041.0</ele>
        <time>2018-05-19T14:19:39.458Z</time>
      </trkpt>
      <trkpt lat="43.08643167" lon="-4.19699167">
        <ele>1040.0</ele>
        <time>2018-05-19T14:19:40.468Z</time>
      </trkpt>
      <trkpt lat="43.08647333" lon="-4.197095">
        <ele>1039.0</ele>
        <time>2018-05-19T14:19:41.460Z</time>
      </trkpt>
      <trkpt lat="43.08651" lon="-4.19720333">
        <ele>1038.0</ele>
        <time>2018-05-19T14:19:42.461Z</time>
      </trkpt>
      <trkpt lat="43.08651" lon="-4.19720333">
        <ele>1038.0</ele>
        <time>2018-05-19T14:19:43.468Z</time>
      </trkpt>
      <trkpt lat="43.086575" lon="-4.19741167">
        <ele>1037.0</ele>
        <time>2018-05-19T14:19:44.460Z</time>
      </trkpt>
      <trkpt lat="43.086575" lon="-4.19741167">
        <ele>1037.0</ele>
        <time>2018-05-19T14:19:45.455Z</time>
      </trkpt>
      <trkpt lat="43.08663167" lon="-4.19760833">
        <ele>1035.0</ele>
        <time>2018-05-19T14:19:46.457Z</time>
      </trkpt>
      <trkpt lat="43.08666167" lon="-4.1977">
        <ele>1034.0</ele>
        <time>2018-05-19T14:19:47.461Z</time>
      </trkpt>
      <trkpt lat="43.086695" lon="-4.19778333">
        <ele>1033.0</ele>
        <time>2018-05-19T14:19:48.461Z</time>
      </trkpt>
      <trkpt lat="43.086695" lon="-4.19778333">
        <ele>1033.0</ele>
        <time>2018-05-19T14:19:49.456Z</time>
      </trkpt>
      <trkpt lat="43.08677667" lon="-4.19796167">
        <ele>1030.0</ele>
        <time>2018-05-19T14:19:50.459Z</time>
      </trkpt>
      <trkpt lat="43.08677667" lon="-4.19796167">
        <ele>1030.0</ele>
        <time>2018-05-19T14:19:51.455Z</time>
      </trkpt>
      <trkpt lat="43.086865" lon="-4.198155">
        <ele>1028.0</ele>
        <time>2018-05-19T14:19:52.459Z</time>
      </trkpt>
      <trkpt lat="43.08690833" lon="-4.198255">
        <ele>1026.0</ele>
        <time>2018-05-19T14:19:53.461Z</time>
      </trkpt>
      <trkpt lat="43.08695167" lon="-4.19835667">
        <ele>1025.0</ele>
        <time>2018-05-19T14:19:54.469Z</time>
      </trkpt>
      <trkpt lat="43.08695167" lon="-4.19835667">
        <ele>1025.0</ele>
        <time>2018-05-19T14:19:55.458Z</time>
      </trkpt>
      <trkpt lat="43.08703167" lon="-4.19856167">
        <ele>1022.0</ele>
        <time>2018-05-19T14:19:56.461Z</time>
      </trkpt>
      <trkpt lat="43.08706833" lon="-4.19866667">
        <ele>1022.0</ele>
        <time>2018-05-19T14:19:57.459Z</time>
      </trkpt>
      <trkpt lat="43.08706833" lon="-4.19866667">
        <ele>1022.0</ele>
        <time>2018-05-19T14:19:58.455Z</time>
      </trkpt>
      <trkpt lat="43.08713167" lon="-4.19887">
        <ele>1020.0</ele>
        <time>2018-05-19T14:19:59.458Z</time>
      </trkpt>
      <trkpt lat="43.08713167" lon="-4.19887">
        <ele>1020.0</ele>
        <time>2018-05-19T14:20:00.453Z</time>
      </trkpt>
      <trkpt lat="43.08718167" lon="-4.199055">
        <ele>1019.0</ele>
        <time>2018-05-19T14:20:01.461Z</time>
      </trkpt>
      <trkpt lat="43.08721" lon="-4.19914167">
        <ele>1018.0</ele>
        <time>2018-05-19T14:20:02.461Z</time>
      </trkpt>
      <trkpt lat="43.08721" lon="-4.19914167">
        <ele>1018.0</ele>
        <time>2018-05-19T14:20:03.467Z</time>
      </trkpt>
      <trkpt lat="43.08725833" lon="-4.19933">
        <ele>1016.0</ele>
        <time>2018-05-19T14:20:04.460Z</time>
      </trkpt>
      <trkpt lat="43.08725833" lon="-4.19933">
        <ele>1016.0</ele>
        <time>2018-05-19T14:20:05.455Z</time>
      </trkpt>
      <trkpt lat="43.08728833" lon="-4.19952833">
        <ele>1014.0</ele>
        <time>2018-05-19T14:20:06.462Z</time>
      </trkpt>
      <trkpt lat="43.08728833" lon="-4.19952833">
        <ele>1014.0</ele>
        <time>2018-05-19T14:20:07.456Z</time>
      </trkpt>
      <trkpt lat="43.08732" lon="-4.199735">
        <ele>1013.0</ele>
        <time>2018-05-19T14:20:08.459Z</time>
      </trkpt>
      <trkpt lat="43.08734167" lon="-4.19983833">
        <ele>1012.0</ele>
        <time>2018-05-19T14:20:09.460Z</time>
      </trkpt>
      <trkpt lat="43.08734167" lon="-4.19983833">
        <ele>1012.0</ele>
        <time>2018-05-19T14:20:10.455Z</time>
      </trkpt>
      <trkpt lat="43.08738667" lon="-4.20005667">
        <ele>1011.0</ele>
        <time>2018-05-19T14:20:11.460Z</time>
      </trkpt>
      <trkpt lat="43.08740167" lon="-4.20017">
        <ele>1010.0</ele>
        <time>2018-05-19T14:20:12.461Z</time>
      </trkpt>
      <trkpt lat="43.08740167" lon="-4.20017">
        <ele>1010.0</ele>
        <time>2018-05-19T14:20:13.477Z</time>
      </trkpt>
      <trkpt lat="43.08741667" lon="-4.20041">
        <ele>1008.0</ele>
        <time>2018-05-19T14:20:14.462Z</time>
      </trkpt>
      <trkpt lat="43.08741667" lon="-4.20041">
        <ele>1008.0</ele>
        <time>2018-05-19T14:20:15.456Z</time>
      </trkpt>
      <trkpt lat="43.087425" lon="-4.200655">
        <ele>1007.0</ele>
        <time>2018-05-19T14:20:16.460Z</time>
      </trkpt>
      <trkpt lat="43.087425" lon="-4.20077833">
        <ele>1006.0</ele>
        <time>2018-05-19T14:20:17.461Z</time>
      </trkpt>
      <trkpt lat="43.087425" lon="-4.20077833">
        <ele>1006.0</ele>
        <time>2018-05-19T14:20:18.456Z</time>
      </trkpt>
      <trkpt lat="43.08742167" lon="-4.201015">
        <ele>1005.0</ele>
        <time>2018-05-19T14:20:19.462Z</time>
      </trkpt>
      <trkpt lat="43.08742167" lon="-4.20113167">
        <ele>1005.0</ele>
        <time>2018-05-19T14:20:20.461Z</time>
      </trkpt>
      <trkpt lat="43.08742167" lon="-4.20113167">
        <ele>1005.0</ele>
        <time>2018-05-19T14:20:21.454Z</time>
      </trkpt>
      <trkpt lat="43.08742667" lon="-4.20136167">
        <ele>1004.0</ele>
        <time>2018-05-19T14:20:22.466Z</time>
      </trkpt>
      <trkpt lat="43.08742667" lon="-4.20136167">
        <ele>1004.0</ele>
        <time>2018-05-19T14:20:23.466Z</time>
      </trkpt>
      <trkpt lat="43.08744667" lon="-4.20160167">
        <ele>1003.0</ele>
        <time>2018-05-19T14:20:24.462Z</time>
      </trkpt>
      <trkpt lat="43.08744667" lon="-4.20160167">
        <ele>1003.0</ele>
        <time>2018-05-19T14:20:25.455Z</time>
      </trkpt>
      <trkpt lat="43.08747333" lon="-4.20184833">
        <ele>1001.0</ele>
        <time>2018-05-19T14:20:26.460Z</time>
      </trkpt>
      <trkpt lat="43.08748667" lon="-4.20196667">
        <ele>1000.0</ele>
        <time>2018-05-19T14:20:27.461Z</time>
      </trkpt>
      <trkpt lat="43.08748667" lon="-4.20196667">
        <ele>1000.0</ele>
        <time>2018-05-19T14:20:28.456Z</time>
      </trkpt>
      <trkpt lat="43.08751333" lon="-4.20219833">
        <ele>998.0</ele>
        <time>2018-05-19T14:20:29.461Z</time>
      </trkpt>
      <trkpt lat="43.08751333" lon="-4.20219833">
        <ele>998.0</ele>
        <time>2018-05-19T14:20:30.456Z</time>
      </trkpt>
      <trkpt lat="43.08755" lon="-4.20241833">
        <ele>998.0</ele>
        <time>2018-05-19T14:20:31.461Z</time>
      </trkpt>
      <trkpt lat="43.08755" lon="-4.20241833">
        <ele>998.0</ele>
        <time>2018-05-19T14:20:32.452Z</time>
      </trkpt>
      <trkpt lat="43.08761333" lon="-4.20262">
        <ele>998.0</ele>
        <time>2018-05-19T14:20:33.450Z</time>
      </trkpt>
      <trkpt lat="43.08761333" lon="-4.20262">
        <ele>998.0</ele>
        <time>2018-05-19T14:20:34.475Z</time>
      </trkpt>
      <trkpt lat="43.08768667" lon="-4.20279333">
        <ele>997.0</ele>
        <time>2018-05-19T14:20:35.461Z</time>
      </trkpt>
      <trkpt lat="43.087725" lon="-4.202865">
        <ele>997.0</ele>
        <time>2018-05-19T14:20:36.461Z</time>
      </trkpt>
      <trkpt lat="43.087725" lon="-4.202865">
        <ele>997.0</ele>
        <time>2018-05-19T14:20:37.454Z</time>
      </trkpt>
      <trkpt lat="43.08779833" lon="-4.20298667">
        <ele>996.0</ele>
        <time>2018-05-19T14:20:38.460Z</time>
      </trkpt>
      <trkpt lat="43.08779833" lon="-4.20298667">
        <ele>996.0</ele>
        <time>2018-05-19T14:20:39.455Z</time>
      </trkpt>
      <trkpt lat="43.08788" lon="-4.20309">
        <ele>996.0</ele>
        <time>2018-05-19T14:20:40.480Z</time>
      </trkpt>
      <trkpt lat="43.08792167" lon="-4.20314833">
        <ele>995.0</ele>
        <time>2018-05-19T14:20:41.467Z</time>
      </trkpt>
      <trkpt lat="43.08796667" lon="-4.20321">
        <ele>995.0</ele>
        <time>2018-05-19T14:20:42.460Z</time>
      </trkpt>
      <trkpt lat="43.08796667" lon="-4.20321">
        <ele>995.0</ele>
        <time>2018-05-19T14:20:43.453Z</time>
      </trkpt>
      <trkpt lat="43.08806833" lon="-4.20333667">
        <ele>994.0</ele>
        <time>2018-05-19T14:20:44.462Z</time>
      </trkpt>
      <trkpt lat="43.088125" lon="-4.20338667">
        <ele>994.0</ele>
        <time>2018-05-19T14:20:45.462Z</time>
      </trkpt>
      <trkpt lat="43.088125" lon="-4.20338667">
        <ele>994.0</ele>
        <time>2018-05-19T14:20:46.459Z</time>
      </trkpt>
      <trkpt lat="43.08823167" lon="-4.203485">
        <ele>993.0</ele>
        <time>2018-05-19T14:20:47.470Z</time>
      </trkpt>
      <trkpt lat="43.08828167" lon="-4.20353667">
        <ele>992.0</ele>
        <time>2018-05-19T14:20:48.462Z</time>
      </trkpt>
      <trkpt lat="43.08828167" lon="-4.20353667">
        <ele>992.0</ele>
        <time>2018-05-19T14:20:49.456Z</time>
      </trkpt>
      <trkpt lat="43.08838167" lon="-4.20363">
        <ele>991.0</ele>
        <time>2018-05-19T14:20:50.481Z</time>
      </trkpt>
      <trkpt lat="43.088435" lon="-4.20367167">
        <ele>990.0</ele>
        <time>2018-05-19T14:20:51.471Z</time>
      </trkpt>
      <trkpt lat="43.088435" lon="-4.20367167">
        <ele>990.0</ele>
        <time>2018-05-19T14:20:52.458Z</time>
      </trkpt>
      <trkpt lat="43.08852667" lon="-4.20378167">
        <ele>988.0</ele>
        <time>2018-05-19T14:20:53.467Z</time>
      </trkpt>
      <trkpt lat="43.08856833" lon="-4.20384">
        <ele>988.0</ele>
        <time>2018-05-19T14:20:54.461Z</time>
      </trkpt>
      <trkpt lat="43.08856833" lon="-4.20384">
        <ele>988.0</ele>
        <time>2018-05-19T14:20:55.454Z</time>
      </trkpt>
      <trkpt lat="43.08865667" lon="-4.203945">
        <ele>986.0</ele>
        <time>2018-05-19T14:20:56.461Z</time>
      </trkpt>
      <trkpt lat="43.08865667" lon="-4.203945">
        <ele>986.0</ele>
        <time>2018-05-19T14:20:57.456Z</time>
      </trkpt>
      <trkpt lat="43.08872167" lon="-4.204085">
        <ele>985.0</ele>
        <time>2018-05-19T14:20:58.460Z</time>
      </trkpt>
      <trkpt lat="43.08872167" lon="-4.204085">
        <ele>985.0</ele>
        <time>2018-05-19T14:20:59.455Z</time>
      </trkpt>
      <trkpt lat="43.08876833" lon="-4.20421167">
        <ele>983.0</ele>
        <time>2018-05-19T14:21:00.457Z</time>
      </trkpt>
      <trkpt lat="43.08876833" lon="-4.20421167">
        <ele>983.0</ele>
        <time>2018-05-19T14:21:01.455Z</time>
      </trkpt>
      <trkpt lat="43.088845" lon="-4.20431">
        <ele>981.0</ele>
        <time>2018-05-19T14:21:02.459Z</time>
      </trkpt>
      <trkpt lat="43.088845" lon="-4.20431">
        <ele>981.0</ele>
        <time>2018-05-19T14:21:03.467Z</time>
      </trkpt>
      <trkpt lat="43.08892" lon="-4.20444167">
        <ele>979.0</ele>
        <time>2018-05-19T14:21:04.460Z</time>
      </trkpt>
      <trkpt lat="43.08892" lon="-4.20444167">
        <ele>979.0</ele>
        <time>2018-05-19T14:21:05.455Z</time>
      </trkpt>
      <trkpt lat="43.08898333" lon="-4.204565">
        <ele>977.0</ele>
        <time>2018-05-19T14:21:06.459Z</time>
      </trkpt>
      <trkpt lat="43.08898333" lon="-4.204565">
        <ele>977.0</ele>
        <time>2018-05-19T14:21:07.453Z</time>
      </trkpt>
      <trkpt lat="43.08906667" lon="-4.20465333">
        <ele>975.0</ele>
        <time>2018-05-19T14:21:08.476Z</time>
      </trkpt>
      <trkpt lat="43.08906667" lon="-4.20465333">
        <ele>975.0</ele>
        <time>2018-05-19T14:21:09.462Z</time>
      </trkpt>
      <trkpt lat="43.08916" lon="-4.204725">
        <ele>973.0</ele>
        <time>2018-05-19T14:21:10.457Z</time>
      </trkpt>
      <trkpt lat="43.08919833" lon="-4.20475667">
        <ele>972.0</ele>
        <time>2018-05-19T14:21:11.461Z</time>
      </trkpt>
      <trkpt lat="43.08923667" lon="-4.20479667">
        <ele>971.0</ele>
        <time>2018-05-19T14:21:12.462Z</time>
      </trkpt>
      <trkpt lat="43.08923667" lon="-4.20479667">
        <ele>971.0</ele>
        <time>2018-05-19T14:21:13.460Z</time>
      </trkpt>
      <trkpt lat="43.08930667" lon="-4.204885">
        <ele>969.0</ele>
        <time>2018-05-19T14:21:14.460Z</time>
      </trkpt>
      <trkpt lat="43.08930667" lon="-4.204885">
        <ele>969.0</ele>
        <time>2018-05-19T14:21:15.458Z</time>
      </trkpt>
      <trkpt lat="43.08935" lon="-4.20501">
        <ele>967.0</ele>
        <time>2018-05-19T14:21:16.467Z</time>
      </trkpt>
      <trkpt lat="43.08935" lon="-4.20501">
        <ele>967.0</ele>
        <time>2018-05-19T14:21:17.455Z</time>
      </trkpt>
      <trkpt lat="43.08938167" lon="-4.205145">
        <ele>964.0</ele>
        <time>2018-05-19T14:21:18.461Z</time>
      </trkpt>
      <trkpt lat="43.08938167" lon="-4.205145">
        <ele>964.0</ele>
        <time>2018-05-19T14:21:19.455Z</time>
      </trkpt>
      <trkpt lat="43.08942667" lon="-4.20524833">
        <ele>962.0</ele>
        <time>2018-05-19T14:21:20.479Z</time>
      </trkpt>
      <trkpt lat="43.08942667" lon="-4.20524833">
        <ele>962.0</ele>
        <time>2018-05-19T14:21:21.469Z</time>
      </trkpt>
      <trkpt lat="43.089485" lon="-4.20532333">
        <ele>960.0</ele>
        <time>2018-05-19T14:21:22.460Z</time>
      </trkpt>
      <trkpt lat="43.089485" lon="-4.20532333">
        <ele>960.0</ele>
        <time>2018-05-19T14:21:23.476Z</time>
      </trkpt>
      <trkpt lat="43.08956167" lon="-4.205385">
        <ele>958.0</ele>
        <time>2018-05-19T14:21:24.467Z</time>
      </trkpt>
      <trkpt lat="43.08956167" lon="-4.205385">
        <ele>958.0</ele>
        <time>2018-05-19T14:21:25.458Z</time>
      </trkpt>
      <trkpt lat="43.08963" lon="-4.20547">
        <ele>955.0</ele>
        <time>2018-05-19T14:21:26.462Z</time>
      </trkpt>
      <trkpt lat="43.08963" lon="-4.20547">
        <ele>955.0</ele>
        <time>2018-05-19T14:21:27.459Z</time>
      </trkpt>
      <trkpt lat="43.08967333" lon="-4.20560833">
        <ele>953.0</ele>
        <time>2018-05-19T14:21:28.460Z</time>
      </trkpt>
      <trkpt lat="43.08969667" lon="-4.20569333">
        <ele>952.0</ele>
        <time>2018-05-19T14:21:29.461Z</time>
      </trkpt>
      <trkpt lat="43.08969667" lon="-4.20569333">
        <ele>952.0</ele>
        <time>2018-05-19T14:21:30.458Z</time>
      </trkpt>
      <trkpt lat="43.08976" lon="-4.20587333">
        <ele>950.0</ele>
        <time>2018-05-19T14:21:31.461Z</time>
      </trkpt>
      <trkpt lat="43.08979333" lon="-4.20595167">
        <ele>949.0</ele>
        <time>2018-05-19T14:21:32.462Z</time>
      </trkpt>
      <trkpt lat="43.08979333" lon="-4.20595167">
        <ele>949.0</ele>
        <time>2018-05-19T14:21:33.465Z</time>
      </trkpt>
      <trkpt lat="43.089865" lon="-4.20609333">
        <ele>947.0</ele>
        <time>2018-05-19T14:21:34.461Z</time>
      </trkpt>
      <trkpt lat="43.089865" lon="-4.20609333">
        <ele>947.0</ele>
        <time>2018-05-19T14:21:35.456Z</time>
      </trkpt>
      <trkpt lat="43.089965" lon="-4.20620333">
        <ele>944.0</ele>
        <time>2018-05-19T14:21:36.467Z</time>
      </trkpt>
      <trkpt lat="43.089965" lon="-4.20620333">
        <ele>944.0</ele>
        <time>2018-05-19T14:21:37.456Z</time>
      </trkpt>
      <trkpt lat="43.090065" lon="-4.206345">
        <ele>942.0</ele>
        <time>2018-05-19T14:21:38.461Z</time>
      </trkpt>
      <trkpt lat="43.09011167" lon="-4.20641667">
        <ele>941.0</ele>
        <time>2018-05-19T14:21:39.466Z</time>
      </trkpt>
      <trkpt lat="43.09011167" lon="-4.20641667">
        <ele>941.0</ele>
        <time>2018-05-19T14:21:40.470Z</time>
      </trkpt>
      <trkpt lat="43.09019667" lon="-4.206535">
        <ele>939.0</ele>
        <time>2018-05-19T14:21:41.477Z</time>
      </trkpt>
      <trkpt lat="43.09019667" lon="-4.206535">
        <ele>939.0</ele>
        <time>2018-05-19T14:21:42.467Z</time>
      </trkpt>
      <trkpt lat="43.09026" lon="-4.20662167">
        <ele>937.0</ele>
        <time>2018-05-19T14:21:43.470Z</time>
      </trkpt>
      <trkpt lat="43.09029167" lon="-4.206665">
        <ele>936.0</ele>
        <time>2018-05-19T14:21:44.470Z</time>
      </trkpt>
      <trkpt lat="43.09029167" lon="-4.206665">
        <ele>936.0</ele>
        <time>2018-05-19T14:21:45.468Z</time>
      </trkpt>
      <trkpt lat="43.09036" lon="-4.20675667">
        <ele>935.0</ele>
        <time>2018-05-19T14:21:46.469Z</time>
      </trkpt>
      <trkpt lat="43.09036" lon="-4.20675667">
        <ele>935.0</ele>
        <time>2018-05-19T14:21:47.468Z</time>
      </trkpt>
      <trkpt lat="43.09040833" lon="-4.20685">
        <ele>933.0</ele>
        <time>2018-05-19T14:21:48.483Z</time>
      </trkpt>
      <trkpt lat="43.09040833" lon="-4.20685">
        <ele>933.0</ele>
        <time>2018-05-19T14:21:49.457Z</time>
      </trkpt>
      <trkpt lat="43.090425" lon="-4.206975">
        <ele>931.0</ele>
        <time>2018-05-19T14:21:50.469Z</time>
      </trkpt>
      <trkpt lat="43.09043333" lon="-4.20704167">
        <ele>930.0</ele>
        <time>2018-05-19T14:21:51.462Z</time>
      </trkpt>
      <trkpt lat="43.09043333" lon="-4.20704167">
        <ele>930.0</ele>
        <time>2018-05-19T14:21:52.455Z</time>
      </trkpt>
      <trkpt lat="43.09047667" lon="-4.20718833">
        <ele>929.0</ele>
        <time>2018-05-19T14:21:53.467Z</time>
      </trkpt>
      <trkpt lat="43.09047667" lon="-4.20718833">
        <ele>929.0</ele>
        <time>2018-05-19T14:21:54.461Z</time>
      </trkpt>
      <trkpt lat="43.09054333" lon="-4.207325">
        <ele>927.0</ele>
        <time>2018-05-19T14:21:55.473Z</time>
      </trkpt>
      <trkpt lat="43.09057333" lon="-4.207385">
        <ele>926.0</ele>
        <time>2018-05-19T14:21:56.471Z</time>
      </trkpt>
      <trkpt lat="43.09057333" lon="-4.207385">
        <ele>926.0</ele>
        <time>2018-05-19T14:21:57.467Z</time>
      </trkpt>
      <trkpt lat="43.09063167" lon="-4.20749">
        <ele>923.0</ele>
        <time>2018-05-19T14:21:58.469Z</time>
      </trkpt>
      <trkpt lat="43.09063167" lon="-4.20749">
        <ele>923.0</ele>
        <time>2018-05-19T14:21:59.461Z</time>
      </trkpt>
      <trkpt lat="43.090705" lon="-4.20757167">
        <ele>922.0</ele>
        <time>2018-05-19T14:22:00.458Z</time>
      </trkpt>
      <trkpt lat="43.090705" lon="-4.20757167">
        <ele>922.0</ele>
        <time>2018-05-19T14:22:01.458Z</time>
      </trkpt>
      <trkpt lat="43.09077833" lon="-4.20763">
        <ele>919.0</ele>
        <time>2018-05-19T14:22:02.461Z</time>
      </trkpt>
      <trkpt lat="43.09077833" lon="-4.20763">
        <ele>919.0</ele>
        <time>2018-05-19T14:22:03.468Z</time>
      </trkpt>
      <trkpt lat="43.09086167" lon="-4.20767">
        <ele>917.0</ele>
        <time>2018-05-19T14:22:04.468Z</time>
      </trkpt>
      <trkpt lat="43.09086167" lon="-4.20767">
        <ele>917.0</ele>
        <time>2018-05-19T14:22:05.469Z</time>
      </trkpt>
      <trkpt lat="43.090945" lon="-4.20770833">
        <ele>915.0</ele>
        <time>2018-05-19T14:22:06.461Z</time>
      </trkpt>
      <trkpt lat="43.090945" lon="-4.20770833">
        <ele>915.0</ele>
        <time>2018-05-19T14:22:07.457Z</time>
      </trkpt>
      <trkpt lat="43.09102833" lon="-4.207785">
        <ele>913.0</ele>
        <time>2018-05-19T14:22:08.460Z</time>
      </trkpt>
      <trkpt lat="43.09102833" lon="-4.207785">
        <ele>913.0</ele>
        <time>2018-05-19T14:22:09.468Z</time>
      </trkpt>
      <trkpt lat="43.09109833" lon="-4.20786167">
        <ele>912.0</ele>
        <time>2018-05-19T14:22:10.466Z</time>
      </trkpt>
      <trkpt lat="43.091125" lon="-4.207905">
        <ele>910.0</ele>
        <time>2018-05-19T14:22:11.460Z</time>
      </trkpt>
      <trkpt lat="43.091125" lon="-4.207905">
        <ele>910.0</ele>
        <time>2018-05-19T14:22:12.460Z</time>
      </trkpt>
      <trkpt lat="43.09117" lon="-4.20800333">
        <ele>908.0</ele>
        <time>2018-05-19T14:22:13.468Z</time>
      </trkpt>
      <trkpt lat="43.09119" lon="-4.20805833">
        <ele>908.0</ele>
        <time>2018-05-19T14:22:14.468Z</time>
      </trkpt>
      <trkpt lat="43.09119" lon="-4.20805833">
        <ele>908.0</ele>
        <time>2018-05-19T14:22:15.457Z</time>
      </trkpt>
      <trkpt lat="43.091215" lon="-4.20817833">
        <ele>906.0</ele>
        <time>2018-05-19T14:22:16.457Z</time>
      </trkpt>
      <trkpt lat="43.091215" lon="-4.20817833">
        <ele>906.0</ele>
        <time>2018-05-19T14:22:17.457Z</time>
      </trkpt>
      <trkpt lat="43.09124667" lon="-4.2083">
        <ele>903.0</ele>
        <time>2018-05-19T14:22:18.462Z</time>
      </trkpt>
      <trkpt lat="43.09124667" lon="-4.2083">
        <ele>903.0</ele>
        <time>2018-05-19T14:22:19.455Z</time>
      </trkpt>
      <trkpt lat="43.09128167" lon="-4.20842667">
        <ele>901.0</ele>
        <time>2018-05-19T14:22:20.480Z</time>
      </trkpt>
      <trkpt lat="43.09128167" lon="-4.20842667">
        <ele>901.0</ele>
        <time>2018-05-19T14:22:21.467Z</time>
      </trkpt>
      <trkpt lat="43.09129833" lon="-4.20854">
        <ele>899.0</ele>
        <time>2018-05-19T14:22:22.460Z</time>
      </trkpt>
      <trkpt lat="43.091315" lon="-4.20859667">
        <ele>898.0</ele>
        <time>2018-05-19T14:22:23.476Z</time>
      </trkpt>
      <trkpt lat="43.09133167" lon="-4.20865">
        <ele>897.0</ele>
        <time>2018-05-19T14:22:24.467Z</time>
      </trkpt>
      <trkpt lat="43.09133167" lon="-4.20865">
        <ele>897.0</ele>
        <time>2018-05-19T14:22:25.454Z</time>
      </trkpt>
      <trkpt lat="43.09138167" lon="-4.208745">
        <ele>895.0</ele>
        <time>2018-05-19T14:22:26.461Z</time>
      </trkpt>
      <trkpt lat="43.09138167" lon="-4.208745">
        <ele>895.0</ele>
        <time>2018-05-19T14:22:27.456Z</time>
      </trkpt>
      <trkpt lat="43.09144333" lon="-4.20882">
        <ele>893.0</ele>
        <time>2018-05-19T14:22:28.461Z</time>
      </trkpt>
      <trkpt lat="43.09144333" lon="-4.20882">
        <ele>893.0</ele>
        <time>2018-05-19T14:22:29.457Z</time>
      </trkpt>
      <trkpt lat="43.091505" lon="-4.20889333">
        <ele>890.0</ele>
        <time>2018-05-19T14:22:30.460Z</time>
      </trkpt>
      <trkpt lat="43.091505" lon="-4.20889333">
        <ele>890.0</ele>
        <time>2018-05-19T14:22:31.455Z</time>
      </trkpt>
      <trkpt lat="43.09156333" lon="-4.20896167">
        <ele>888.0</ele>
        <time>2018-05-19T14:22:32.459Z</time>
      </trkpt>
      <trkpt lat="43.09156333" lon="-4.20896167">
        <ele>888.0</ele>
        <time>2018-05-19T14:22:33.468Z</time>
      </trkpt>
      <trkpt lat="43.09164833" lon="-4.20904">
        <ele>886.0</ele>
        <time>2018-05-19T14:22:34.460Z</time>
      </trkpt>
      <trkpt lat="43.09164833" lon="-4.20904">
        <ele>886.0</ele>
        <time>2018-05-19T14:22:35.456Z</time>
      </trkpt>
      <trkpt lat="43.09175" lon="-4.209115">
        <ele>884.0</ele>
        <time>2018-05-19T14:22:36.481Z</time>
      </trkpt>
      <trkpt lat="43.09180333" lon="-4.20916">
        <ele>883.0</ele>
        <time>2018-05-19T14:22:37.470Z</time>
      </trkpt>
      <trkpt lat="43.09180333" lon="-4.20916">
        <ele>883.0</ele>
        <time>2018-05-19T14:22:38.459Z</time>
      </trkpt>
      <trkpt lat="43.09185" lon="-4.20930333">
        <ele>881.0</ele>
        <time>2018-05-19T14:22:39.460Z</time>
      </trkpt>
      <trkpt lat="43.09185" lon="-4.20930333">
        <ele>881.0</ele>
        <time>2018-05-19T14:22:40.457Z</time>
      </trkpt>
      <trkpt lat="43.091885" lon="-4.20946167">
        <ele>879.0</ele>
        <time>2018-05-19T14:22:41.459Z</time>
      </trkpt>
      <trkpt lat="43.09190833" lon="-4.20953333">
        <ele>878.0</ele>
        <time>2018-05-19T14:22:42.468Z</time>
      </trkpt>
      <trkpt lat="43.09190833" lon="-4.20953333">
        <ele>878.0</ele>
        <time>2018-05-19T14:22:43.468Z</time>
      </trkpt>
      <trkpt lat="43.09197333" lon="-4.20966833">
        <ele>875.0</ele>
        <time>2018-05-19T14:22:44.460Z</time>
      </trkpt>
      <trkpt lat="43.09197333" lon="-4.20966833">
        <ele>875.0</ele>
        <time>2018-05-19T14:22:45.455Z</time>
      </trkpt>
      <trkpt lat="43.09205333" lon="-4.20979">
        <ele>873.0</ele>
        <time>2018-05-19T14:22:46.459Z</time>
      </trkpt>
      <trkpt lat="43.09205333" lon="-4.20979">
        <ele>873.0</ele>
        <time>2018-05-19T14:22:47.454Z</time>
      </trkpt>
      <trkpt lat="43.09214" lon="-4.20988">
        <ele>871.0</ele>
        <time>2018-05-19T14:22:48.467Z</time>
      </trkpt>
      <trkpt lat="43.09214" lon="-4.20988">
        <ele>871.0</ele>
        <time>2018-05-19T14:22:49.457Z</time>
      </trkpt>
      <trkpt lat="43.0922" lon="-4.20996">
        <ele>869.0</ele>
        <time>2018-05-19T14:22:50.462Z</time>
      </trkpt>
      <trkpt lat="43.0922" lon="-4.20996">
        <ele>869.0</ele>
        <time>2018-05-19T14:22:51.455Z</time>
      </trkpt>
      <trkpt lat="43.0922" lon="-4.21009333">
        <ele>867.0</ele>
        <time>2018-05-19T14:22:52.466Z</time>
      </trkpt>
      <trkpt lat="43.0922" lon="-4.21009333">
        <ele>867.0</ele>
        <time>2018-05-19T14:22:53.467Z</time>
      </trkpt>
      <trkpt lat="43.09213833" lon="-4.21020333">
        <ele>865.0</ele>
        <time>2018-05-19T14:22:54.467Z</time>
      </trkpt>
      <trkpt lat="43.09213833" lon="-4.21020333">
        <ele>865.0</ele>
        <time>2018-05-19T14:22:55.455Z</time>
      </trkpt>
      <trkpt lat="43.09203667" lon="-4.210265">
        <ele>863.0</ele>
        <time>2018-05-19T14:22:56.460Z</time>
      </trkpt>
      <trkpt lat="43.09203667" lon="-4.210265">
        <ele>863.0</ele>
        <time>2018-05-19T14:22:57.455Z</time>
      </trkpt>
      <trkpt lat="43.091905" lon="-4.21031">
        <ele>861.0</ele>
        <time>2018-05-19T14:22:58.459Z</time>
      </trkpt>
      <trkpt lat="43.09183333" lon="-4.210325">
        <ele>860.0</ele>
        <time>2018-05-19T14:22:59.460Z</time>
      </trkpt>
      <trkpt lat="43.09183333" lon="-4.210325">
        <ele>860.0</ele>
        <time>2018-05-19T14:23:00.453Z</time>
      </trkpt>
      <trkpt lat="43.09168333" lon="-4.21035">
        <ele>859.0</ele>
        <time>2018-05-19T14:23:01.460Z</time>
      </trkpt>
      <trkpt lat="43.09161333" lon="-4.21037167">
        <ele>858.0</ele>
        <time>2018-05-19T14:23:02.461Z</time>
      </trkpt>
      <trkpt lat="43.091545" lon="-4.21039167">
        <ele>857.0</ele>
        <time>2018-05-19T14:23:03.461Z</time>
      </trkpt>
      <trkpt lat="43.09148" lon="-4.21041833">
        <ele>856.0</ele>
        <time>2018-05-19T14:23:04.461Z</time>
      </trkpt>
      <trkpt lat="43.09148" lon="-4.21041833">
        <ele>856.0</ele>
        <time>2018-05-19T14:23:05.455Z</time>
      </trkpt>
      <trkpt lat="43.09134333" lon="-4.21049167">
        <ele>853.0</ele>
        <time>2018-05-19T14:23:06.460Z</time>
      </trkpt>
      <trkpt lat="43.09134333" lon="-4.21049167">
        <ele>853.0</ele>
        <time>2018-05-19T14:23:07.455Z</time>
      </trkpt>
      <trkpt lat="43.091205" lon="-4.21055833">
        <ele>852.0</ele>
        <time>2018-05-19T14:23:08.459Z</time>
      </trkpt>
      <trkpt lat="43.09113" lon="-4.21057833">
        <ele>851.0</ele>
        <time>2018-05-19T14:23:09.459Z</time>
      </trkpt>
      <trkpt lat="43.09113" lon="-4.21057833">
        <ele>851.0</ele>
        <time>2018-05-19T14:23:10.456Z</time>
      </trkpt>
      <trkpt lat="43.09096833" lon="-4.21063">
        <ele>849.0</ele>
        <time>2018-05-19T14:23:11.459Z</time>
      </trkpt>
      <trkpt lat="43.09087667" lon="-4.21066667">
        <ele>848.0</ele>
        <time>2018-05-19T14:23:12.460Z</time>
      </trkpt>
      <trkpt lat="43.090785" lon="-4.2107">
        <ele>847.0</ele>
        <time>2018-05-19T14:23:13.468Z</time>
      </trkpt>
      <trkpt lat="43.090785" lon="-4.2107">
        <ele>847.0</ele>
        <time>2018-05-19T14:23:14.454Z</time>
      </trkpt>
      <trkpt lat="43.09061667" lon="-4.21073833">
        <ele>845.0</ele>
        <time>2018-05-19T14:23:15.469Z</time>
      </trkpt>
      <trkpt lat="43.09053167" lon="-4.21077167">
        <ele>845.0</ele>
        <time>2018-05-19T14:23:16.459Z</time>
      </trkpt>
      <trkpt lat="43.09053167" lon="-4.21077167">
        <ele>845.0</ele>
        <time>2018-05-19T14:23:17.454Z</time>
      </trkpt>
      <trkpt lat="43.09035333" lon="-4.21087833">
        <ele>844.0</ele>
        <time>2018-05-19T14:23:18.459Z</time>
      </trkpt>
      <trkpt lat="43.09035333" lon="-4.21087833">
        <ele>844.0</ele>
        <time>2018-05-19T14:23:19.454Z</time>
      </trkpt>
      <trkpt lat="43.09018667" lon="-4.21099833">
        <ele>842.0</ele>
        <time>2018-05-19T14:23:20.459Z</time>
      </trkpt>
      <trkpt lat="43.09018667" lon="-4.21099833">
        <ele>842.0</ele>
        <time>2018-05-19T14:23:21.450Z</time>
      </trkpt>
      <trkpt lat="43.09003333" lon="-4.2111">
        <ele>841.0</ele>
        <time>2018-05-19T14:23:22.459Z</time>
      </trkpt>
      <trkpt lat="43.09003333" lon="-4.2111">
        <ele>841.0</ele>
        <time>2018-05-19T14:23:23.465Z</time>
      </trkpt>
      <trkpt lat="43.089905" lon="-4.21121">
        <ele>840.0</ele>
        <time>2018-05-19T14:23:24.460Z</time>
      </trkpt>
      <trkpt lat="43.089905" lon="-4.21121">
        <ele>840.0</ele>
        <time>2018-05-19T14:23:25.454Z</time>
      </trkpt>
      <trkpt lat="43.08980333" lon="-4.211345">
        <ele>839.0</ele>
        <time>2018-05-19T14:23:26.461Z</time>
      </trkpt>
      <trkpt lat="43.08980333" lon="-4.211345">
        <ele>839.0</ele>
        <time>2018-05-19T14:23:27.454Z</time>
      </trkpt>
      <trkpt lat="43.089735" lon="-4.21151833">
        <ele>837.0</ele>
        <time>2018-05-19T14:23:28.475Z</time>
      </trkpt>
      <trkpt lat="43.089705" lon="-4.21159833">
        <ele>836.0</ele>
        <time>2018-05-19T14:23:29.467Z</time>
      </trkpt>
      <trkpt lat="43.089705" lon="-4.21159833">
        <ele>836.0</ele>
        <time>2018-05-19T14:23:30.455Z</time>
      </trkpt>
      <trkpt lat="43.08963667" lon="-4.21174167">
        <ele>835.0</ele>
        <time>2018-05-19T14:23:31.467Z</time>
      </trkpt>
      <trkpt lat="43.08963667" lon="-4.21174167">
        <ele>835.0</ele>
        <time>2018-05-19T14:23:32.452Z</time>
      </trkpt>
      <trkpt lat="43.08955167" lon="-4.211845">
        <ele>834.0</ele>
        <time>2018-05-19T14:23:33.468Z</time>
      </trkpt>
      <trkpt lat="43.08955167" lon="-4.211845">
        <ele>834.0</ele>
        <time>2018-05-19T14:23:34.456Z</time>
      </trkpt>
      <trkpt lat="43.08945" lon="-4.21190167">
        <ele>833.0</ele>
        <time>2018-05-19T14:23:35.459Z</time>
      </trkpt>
      <trkpt lat="43.08939" lon="-4.21192333">
        <ele>832.0</ele>
        <time>2018-05-19T14:23:36.460Z</time>
      </trkpt>
      <trkpt lat="43.08939" lon="-4.21192333">
        <ele>832.0</ele>
        <time>2018-05-19T14:23:37.453Z</time>
      </trkpt>
      <trkpt lat="43.08926" lon="-4.21193833">
        <ele>831.0</ele>
        <time>2018-05-19T14:23:38.459Z</time>
      </trkpt>
      <trkpt lat="43.08926" lon="-4.21193833">
        <ele>831.0</ele>
        <time>2018-05-19T14:23:39.455Z</time>
      </trkpt>
      <trkpt lat="43.08912" lon="-4.21188833">
        <ele>829.0</ele>
        <time>2018-05-19T14:23:40.459Z</time>
      </trkpt>
      <trkpt lat="43.08904667" lon="-4.21185167">
        <ele>828.0</ele>
        <time>2018-05-19T14:23:41.459Z</time>
      </trkpt>
      <trkpt lat="43.08897" lon="-4.21182">
        <ele>828.0</ele>
        <time>2018-05-19T14:23:42.461Z</time>
      </trkpt>
      <trkpt lat="43.08897" lon="-4.21182">
        <ele>828.0</ele>
        <time>2018-05-19T14:23:43.467Z</time>
      </trkpt>
      <trkpt lat="43.08882167" lon="-4.21177">
        <ele>826.0</ele>
        <time>2018-05-19T14:23:44.459Z</time>
      </trkpt>
      <trkpt lat="43.08882167" lon="-4.21177">
        <ele>826.0</ele>
        <time>2018-05-19T14:23:45.468Z</time>
      </trkpt>
      <trkpt lat="43.08867833" lon="-4.21175833">
        <ele>824.0</ele>
        <time>2018-05-19T14:23:46.467Z</time>
      </trkpt>
      <trkpt lat="43.08867833" lon="-4.21175833">
        <ele>824.0</ele>
        <time>2018-05-19T14:23:47.452Z</time>
      </trkpt>
      <trkpt lat="43.088545" lon="-4.21180667">
        <ele>823.0</ele>
        <time>2018-05-19T14:23:48.458Z</time>
      </trkpt>
      <trkpt lat="43.088545" lon="-4.21180667">
        <ele>823.0</ele>
        <time>2018-05-19T14:23:49.453Z</time>
      </trkpt>
      <trkpt lat="43.08843667" lon="-4.21179167">
        <ele>821.0</ele>
        <time>2018-05-19T14:23:50.458Z</time>
      </trkpt>
      <trkpt lat="43.08843667" lon="-4.21179167">
        <ele>821.0</ele>
        <time>2018-05-19T14:23:51.453Z</time>
      </trkpt>
      <trkpt lat="43.08836167" lon="-4.21175167">
        <ele>820.0</ele>
        <time>2018-05-19T14:23:52.458Z</time>
      </trkpt>
      <trkpt lat="43.08836167" lon="-4.21175167">
        <ele>820.0</ele>
        <time>2018-05-19T14:23:53.454Z</time>
      </trkpt>
      <trkpt lat="43.08830167" lon="-4.21173">
        <ele>818.0</ele>
        <time>2018-05-19T14:23:54.461Z</time>
      </trkpt>
      <trkpt lat="43.08830167" lon="-4.21173">
        <ele>818.0</ele>
        <time>2018-05-19T14:23:55.452Z</time>
      </trkpt>
      <trkpt lat="43.08824333" lon="-4.21173">
        <ele>817.0</ele>
        <time>2018-05-19T14:23:56.479Z</time>
      </trkpt>
      <trkpt lat="43.08824333" lon="-4.21173">
        <ele>817.0</ele>
        <time>2018-05-19T14:23:57.481Z</time>
      </trkpt>
      <trkpt lat="43.08818333" lon="-4.211745">
        <ele>816.0</ele>
        <time>2018-05-19T14:23:58.469Z</time>
      </trkpt>
      <trkpt lat="43.08818333" lon="-4.211745">
        <ele>816.0</ele>
        <time>2018-05-19T14:23:59.456Z</time>
      </trkpt>
      <trkpt lat="43.08812167" lon="-4.211755">
        <ele>815.0</ele>
        <time>2018-05-19T14:24:00.467Z</time>
      </trkpt>
      <trkpt lat="43.08812167" lon="-4.211755">
        <ele>815.0</ele>
        <time>2018-05-19T14:24:01.456Z</time>
      </trkpt>
      <trkpt lat="43.08806" lon="-4.21175">
        <ele>813.0</ele>
        <time>2018-05-19T14:24:02.459Z</time>
      </trkpt>
      <trkpt lat="43.08806" lon="-4.21175">
        <ele>813.0</ele>
        <time>2018-05-19T14:24:03.465Z</time>
      </trkpt>
      <trkpt lat="43.08800333" lon="-4.211765">
        <ele>813.0</ele>
        <time>2018-05-19T14:24:04.457Z</time>
      </trkpt>
      <trkpt lat="43.08800333" lon="-4.211765">
        <ele>813.0</ele>
        <time>2018-05-19T14:24:05.456Z</time>
      </trkpt>
      <trkpt lat="43.08795667" lon="-4.21178333">
        <ele>812.0</ele>
        <time>2018-05-19T14:24:06.466Z</time>
      </trkpt>
      <trkpt lat="43.08795667" lon="-4.21178333">
        <ele>812.0</ele>
        <time>2018-05-19T14:24:07.455Z</time>
      </trkpt>
      <trkpt lat="43.087915" lon="-4.21180167">
        <ele>811.0</ele>
        <time>2018-05-19T14:24:08.458Z</time>
      </trkpt>
      <trkpt lat="43.087915" lon="-4.21180167">
        <ele>811.0</ele>
        <time>2018-05-19T14:24:09.456Z</time>
      </trkpt>
      <trkpt lat="43.08787" lon="-4.21182333">
        <ele>810.0</ele>
        <time>2018-05-19T14:24:10.456Z</time>
      </trkpt>
      <trkpt lat="43.08784667" lon="-4.21183">
        <ele>809.0</ele>
        <time>2018-05-19T14:24:11.456Z</time>
      </trkpt>
      <trkpt lat="43.08782667" lon="-4.21184667">
        <ele>809.0</ele>
        <time>2018-05-19T14:24:12.468Z</time>
      </trkpt>
      <trkpt lat="43.08782667" lon="-4.21184667">
        <ele>809.0</ele>
        <time>2018-05-19T14:24:13.467Z</time>
      </trkpt>
      <trkpt lat="43.087785" lon="-4.21188">
        <ele>808.0</ele>
        <time>2018-05-19T14:24:14.460Z</time>
      </trkpt>
      <trkpt lat="43.087785" lon="-4.21188">
        <ele>808.0</ele>
        <time>2018-05-19T14:24:15.454Z</time>
      </trkpt>
      <trkpt lat="43.08774167" lon="-4.211915">
        <ele>808.0</ele>
        <time>2018-05-19T14:24:16.458Z</time>
      </trkpt>
      <trkpt lat="43.08774167" lon="-4.211915">
        <ele>808.0</ele>
        <time>2018-05-19T14:24:17.456Z</time>
      </trkpt>
      <trkpt lat="43.08771167" lon="-4.21194">
        <ele>807.0</ele>
        <time>2018-05-19T14:24:18.456Z</time>
      </trkpt>
      <trkpt lat="43.08771167" lon="-4.21194">
        <ele>807.0</ele>
        <time>2018-05-19T14:24:19.453Z</time>
      </trkpt>
      <trkpt lat="43.08768667" lon="-4.21197333">
        <ele>806.0</ele>
        <time>2018-05-19T14:24:20.459Z</time>
      </trkpt>
      <trkpt lat="43.08768667" lon="-4.21197333">
        <ele>806.0</ele>
        <time>2018-05-19T14:24:21.456Z</time>
      </trkpt>
      <trkpt lat="43.08767" lon="-4.21200667">
        <ele>806.0</ele>
        <time>2018-05-19T14:24:22.466Z</time>
      </trkpt>
      <trkpt lat="43.08766167" lon="-4.21201833">
        <ele>805.0</ele>
        <time>2018-05-19T14:24:23.467Z</time>
      </trkpt>
      <trkpt lat="43.08764333" lon="-4.212035">
        <ele>805.0</ele>
        <time>2018-05-19T14:24:24.459Z</time>
      </trkpt>
      <trkpt lat="43.08764333" lon="-4.212035">
        <ele>805.0</ele>
        <time>2018-05-19T14:24:25.455Z</time>
      </trkpt>
      <trkpt lat="43.08761333" lon="-4.21206167">
        <ele>805.0</ele>
        <time>2018-05-19T14:24:26.459Z</time>
      </trkpt>
      <trkpt lat="43.08761333" lon="-4.21206167">
        <ele>805.0</ele>
        <time>2018-05-19T14:24:27.455Z</time>
      </trkpt>
      <trkpt lat="43.087575" lon="-4.21208833">
        <ele>804.0</ele>
        <time>2018-05-19T14:24:28.458Z</time>
      </trkpt>
      <trkpt lat="43.087575" lon="-4.21208833">
        <ele>804.0</ele>
        <time>2018-05-19T14:24:29.455Z</time>
      </trkpt>
      <trkpt lat="43.08752833" lon="-4.21212833">
        <ele>804.0</ele>
        <time>2018-05-19T14:24:30.481Z</time>
      </trkpt>
      <trkpt lat="43.08752833" lon="-4.21212833">
        <ele>804.0</ele>
        <time>2018-05-19T14:24:31.468Z</time>
      </trkpt>
      <trkpt lat="43.08748833" lon="-4.21216">
        <ele>803.0</ele>
        <time>2018-05-19T14:24:32.458Z</time>
      </trkpt>
      <trkpt lat="43.087465" lon="-4.21217833">
        <ele>803.0</ele>
        <time>2018-05-19T14:24:33.467Z</time>
      </trkpt>
      <trkpt lat="43.087465" lon="-4.21217833">
        <ele>803.0</ele>
        <time>2018-05-19T14:24:34.455Z</time>
      </trkpt>
      <trkpt lat="43.08742667" lon="-4.212225">
        <ele>803.0</ele>
        <time>2018-05-19T14:24:35.468Z</time>
      </trkpt>
      <trkpt lat="43.08740667" lon="-4.21224667">
        <ele>803.0</ele>
        <time>2018-05-19T14:24:36.459Z</time>
      </trkpt>
      <trkpt lat="43.08740667" lon="-4.21224667">
        <ele>803.0</ele>
        <time>2018-05-19T14:24:37.453Z</time>
      </trkpt>
      <trkpt lat="43.08737" lon="-4.21229833">
        <ele>803.0</ele>
        <time>2018-05-19T14:24:38.458Z</time>
      </trkpt>
      <trkpt lat="43.08737" lon="-4.21229833">
        <ele>803.0</ele>
        <time>2018-05-19T14:24:39.455Z</time>
      </trkpt>
      <trkpt lat="43.08734667" lon="-4.212345">
        <ele>802.0</ele>
        <time>2018-05-19T14:24:40.457Z</time>
      </trkpt>
      <trkpt lat="43.087335" lon="-4.212365">
        <ele>802.0</ele>
        <time>2018-05-19T14:24:41.458Z</time>
      </trkpt>
      <trkpt lat="43.087325" lon="-4.21237833">
        <ele>802.0</ele>
        <time>2018-05-19T14:24:42.480Z</time>
      </trkpt>
      <trkpt lat="43.087325" lon="-4.21237833">
        <ele>802.0</ele>
        <time>2018-05-19T14:24:43.466Z</time>
      </trkpt>
      <trkpt lat="43.08731" lon="-4.21240667">
        <ele>803.0</ele>
        <time>2018-05-19T14:24:44.458Z</time>
      </trkpt>
      <trkpt lat="43.08731" lon="-4.21240667">
        <ele>803.0</ele>
        <time>2018-05-19T14:24:45.455Z</time>
      </trkpt>
      <trkpt lat="43.08728667" lon="-4.21245">
        <ele>803.0</ele>
        <time>2018-05-19T14:24:46.458Z</time>
      </trkpt>
      <trkpt lat="43.08727333" lon="-4.21247">
        <ele>803.0</ele>
        <time>2018-05-19T14:24:47.457Z</time>
      </trkpt>
      <trkpt lat="43.08726167" lon="-4.21248667">
        <ele>803.0</ele>
        <time>2018-05-19T14:24:48.456Z</time>
      </trkpt>
      <trkpt lat="43.08726167" lon="-4.21248667">
        <ele>803.0</ele>
        <time>2018-05-19T14:24:49.468Z</time>
      </trkpt>
      <trkpt lat="43.08724833" lon="-4.21252">
        <ele>802.0</ele>
        <time>2018-05-19T14:24:50.459Z</time>
      </trkpt>
      <trkpt lat="43.08724833" lon="-4.21252">
        <ele>802.0</ele>
        <time>2018-05-19T14:24:51.457Z</time>
      </trkpt>
      <trkpt lat="43.087225" lon="-4.21258167">
        <ele>802.0</ele>
        <time>2018-05-19T14:24:52.458Z</time>
      </trkpt>
      <trkpt lat="43.08721333" lon="-4.21260333">
        <ele>802.0</ele>
        <time>2018-05-19T14:24:53.467Z</time>
      </trkpt>
      <trkpt lat="43.08719833" lon="-4.21263667">
        <ele>803.0</ele>
        <time>2018-05-19T14:24:54.466Z</time>
      </trkpt>
      <trkpt lat="43.08719833" lon="-4.21263667">
        <ele>803.0</ele>
        <time>2018-05-19T14:24:55.452Z</time>
      </trkpt>
      <trkpt lat="43.08717333" lon="-4.21268833">
        <ele>803.0</ele>
        <time>2018-05-19T14:24:56.459Z</time>
      </trkpt>
      <trkpt lat="43.08717333" lon="-4.21268833">
        <ele>803.0</ele>
        <time>2018-05-19T14:24:57.456Z</time>
      </trkpt>
      <trkpt lat="43.087185" lon="-4.21274667">
        <ele>803.0</ele>
        <time>2018-05-19T14:24:58.459Z</time>
      </trkpt>
      <trkpt lat="43.087185" lon="-4.21274667">
        <ele>803.0</ele>
        <time>2018-05-19T14:24:59.453Z</time>
      </trkpt>
      <trkpt lat="43.08717" lon="-4.21280167">
        <ele>803.0</ele>
        <time>2018-05-19T14:25:00.467Z</time>
      </trkpt>
      <trkpt lat="43.08717" lon="-4.21280167">
        <ele>803.0</ele>
        <time>2018-05-19T14:25:01.455Z</time>
      </trkpt>
      <trkpt lat="43.087165" lon="-4.212835">
        <ele>804.0</ele>
        <time>2018-05-19T14:25:02.478Z</time>
      </trkpt>
      <trkpt lat="43.087165" lon="-4.212835">
        <ele>804.0</ele>
        <time>2018-05-19T14:25:03.477Z</time>
      </trkpt>
      <trkpt lat="43.087165" lon="-4.21293">
        <ele>805.0</ele>
        <time>2018-05-19T14:25:04.466Z</time>
      </trkpt>
      <trkpt lat="43.087165" lon="-4.21293">
        <ele>805.0</ele>
        <time>2018-05-19T14:25:05.453Z</time>
      </trkpt>
      <trkpt lat="43.087155" lon="-4.21299167">
        <ele>805.0</ele>
        <time>2018-05-19T14:25:06.456Z</time>
      </trkpt>
      <trkpt lat="43.087155" lon="-4.21299167">
        <ele>805.0</ele>
        <time>2018-05-19T14:25:07.454Z</time>
      </trkpt>
      <trkpt lat="43.087115" lon="-4.21307">
        <ele>806.0</ele>
        <time>2018-05-19T14:25:08.458Z</time>
      </trkpt>
      <trkpt lat="43.087115" lon="-4.21307">
        <ele>806.0</ele>
        <time>2018-05-19T14:25:09.452Z</time>
      </trkpt>
      <trkpt lat="43.08708667" lon="-4.21314333">
        <ele>807.0</ele>
        <time>2018-05-19T14:25:10.458Z</time>
      </trkpt>
      <trkpt lat="43.08708667" lon="-4.21314333">
        <ele>807.0</ele>
        <time>2018-05-19T14:25:11.454Z</time>
      </trkpt>
      <trkpt lat="43.08705" lon="-4.213185">
        <ele>809.0</ele>
        <time>2018-05-19T14:25:12.459Z</time>
      </trkpt>
      <trkpt lat="43.08705" lon="-4.213185">
        <ele>809.0</ele>
        <time>2018-05-19T14:25:13.469Z</time>
      </trkpt>
      <trkpt lat="43.087005" lon="-4.21320833">
        <ele>810.0</ele>
        <time>2018-05-19T14:25:14.459Z</time>
      </trkpt>
      <trkpt lat="43.087005" lon="-4.21320833">
        <ele>810.0</ele>
        <time>2018-05-19T14:25:15.456Z</time>
      </trkpt>
      <trkpt lat="43.08696" lon="-4.21323833">
        <ele>810.0</ele>
        <time>2018-05-19T14:25:16.457Z</time>
      </trkpt>
      <trkpt lat="43.08696" lon="-4.21323833">
        <ele>810.0</ele>
        <time>2018-05-19T14:25:17.452Z</time>
      </trkpt>
      <trkpt lat="43.08690667" lon="-4.21327167">
        <ele>811.0</ele>
        <time>2018-05-19T14:25:18.461Z</time>
      </trkpt>
      <trkpt lat="43.08690667" lon="-4.21327167">
        <ele>811.0</ele>
        <time>2018-05-19T14:25:19.455Z</time>
      </trkpt>
      <trkpt lat="43.08685167" lon="-4.21330833">
        <ele>812.0</ele>
        <time>2018-05-19T14:25:20.459Z</time>
      </trkpt>
      <trkpt lat="43.08685167" lon="-4.21330833">
        <ele>812.0</ele>
        <time>2018-05-19T14:25:21.453Z</time>
      </trkpt>
      <trkpt lat="43.08678167" lon="-4.21334167">
        <ele>812.0</ele>
        <time>2018-05-19T14:25:22.459Z</time>
      </trkpt>
      <trkpt lat="43.08674833" lon="-4.21336">
        <ele>812.0</ele>
        <time>2018-05-19T14:25:23.475Z</time>
      </trkpt>
      <trkpt lat="43.08671167" lon="-4.21338667">
        <ele>812.0</ele>
        <time>2018-05-19T14:25:24.461Z</time>
      </trkpt>
      <trkpt lat="43.08671167" lon="-4.21338667">
        <ele>812.0</ele>
        <time>2018-05-19T14:25:25.455Z</time>
      </trkpt>
      <trkpt lat="43.08663667" lon="-4.21345167">
        <ele>813.0</ele>
        <time>2018-05-19T14:25:26.457Z</time>
      </trkpt>
      <trkpt lat="43.08663667" lon="-4.21345167">
        <ele>813.0</ele>
        <time>2018-05-19T14:25:27.454Z</time>
      </trkpt>
      <trkpt lat="43.08653333" lon="-4.21348167">
        <ele>814.0</ele>
        <time>2018-05-19T14:25:28.457Z</time>
      </trkpt>
      <trkpt lat="43.08647833" lon="-4.21347167">
        <ele>814.0</ele>
        <time>2018-05-19T14:25:29.457Z</time>
      </trkpt>
      <trkpt lat="43.08643" lon="-4.21344667">
        <ele>814.0</ele>
        <time>2018-05-19T14:25:30.460Z</time>
      </trkpt>
      <trkpt lat="43.08643" lon="-4.21344667">
        <ele>814.0</ele>
        <time>2018-05-19T14:25:31.456Z</time>
      </trkpt>
      <trkpt lat="43.08636" lon="-4.213395">
        <ele>815.0</ele>
        <time>2018-05-19T14:25:32.458Z</time>
      </trkpt>
      <trkpt lat="43.08636" lon="-4.213395">
        <ele>815.0</ele>
        <time>2018-05-19T14:25:33.467Z</time>
      </trkpt>
      <trkpt lat="43.08630333" lon="-4.21335667">
        <ele>815.0</ele>
        <time>2018-05-19T14:25:34.457Z</time>
      </trkpt>
      <trkpt lat="43.08630333" lon="-4.21335667">
        <ele>815.0</ele>
        <time>2018-05-19T14:25:35.453Z</time>
      </trkpt>
      <trkpt lat="43.08624667" lon="-4.213335">
        <ele>816.0</ele>
        <time>2018-05-19T14:25:36.461Z</time>
      </trkpt>
      <trkpt lat="43.08624667" lon="-4.213335">
        <ele>816.0</ele>
        <time>2018-05-19T14:25:37.455Z</time>
      </trkpt>
      <trkpt lat="43.086175" lon="-4.21333">
        <ele>817.0</ele>
        <time>2018-05-19T14:25:38.458Z</time>
      </trkpt>
      <trkpt lat="43.086175" lon="-4.21333">
        <ele>817.0</ele>
        <time>2018-05-19T14:25:39.451Z</time>
      </trkpt>
      <trkpt lat="43.08611" lon="-4.21335333">
        <ele>818.0</ele>
        <time>2018-05-19T14:25:40.457Z</time>
      </trkpt>
      <trkpt lat="43.08608167" lon="-4.21337167">
        <ele>819.0</ele>
        <time>2018-05-19T14:25:41.455Z</time>
      </trkpt>
      <trkpt lat="43.08608167" lon="-4.21337167">
        <ele>819.0</ele>
        <time>2018-05-19T14:25:42.467Z</time>
      </trkpt>
      <trkpt lat="43.086025" lon="-4.21341167">
        <ele>820.0</ele>
        <time>2018-05-19T14:25:43.467Z</time>
      </trkpt>
      <trkpt lat="43.086" lon="-4.21343">
        <ele>820.0</ele>
        <time>2018-05-19T14:25:44.459Z</time>
      </trkpt>
      <trkpt lat="43.086" lon="-4.21343">
        <ele>820.0</ele>
        <time>2018-05-19T14:25:45.455Z</time>
      </trkpt>
      <trkpt lat="43.08595" lon="-4.21346333">
        <ele>821.0</ele>
        <time>2018-05-19T14:25:46.459Z</time>
      </trkpt>
      <trkpt lat="43.08595" lon="-4.21346333">
        <ele>821.0</ele>
        <time>2018-05-19T14:25:47.453Z</time>
      </trkpt>
      <trkpt lat="43.0859" lon="-4.213485">
        <ele>821.0</ele>
        <time>2018-05-19T14:25:48.461Z</time>
      </trkpt>
      <trkpt lat="43.0859" lon="-4.213485">
        <ele>821.0</ele>
        <time>2018-05-19T14:25:49.456Z</time>
      </trkpt>
      <trkpt lat="43.08584833" lon="-4.21349667">
        <ele>821.0</ele>
        <time>2018-05-19T14:25:50.460Z</time>
      </trkpt>
      <trkpt lat="43.08584833" lon="-4.21349667">
        <ele>821.0</ele>
        <time>2018-05-19T14:25:51.455Z</time>
      </trkpt>
      <trkpt lat="43.085795" lon="-4.2135">
        <ele>822.0</ele>
        <time>2018-05-19T14:25:52.456Z</time>
      </trkpt>
      <trkpt lat="43.085765" lon="-4.213495">
        <ele>822.0</ele>
        <time>2018-05-19T14:25:53.464Z</time>
      </trkpt>
      <trkpt lat="43.085765" lon="-4.213495">
        <ele>822.0</ele>
        <time>2018-05-19T14:25:54.456Z</time>
      </trkpt>
      <trkpt lat="43.08570667" lon="-4.21346167">
        <ele>822.0</ele>
        <time>2018-05-19T14:25:55.457Z</time>
      </trkpt>
      <trkpt lat="43.08566833" lon="-4.21345">
        <ele>822.0</ele>
        <time>2018-05-19T14:25:56.459Z</time>
      </trkpt>
      <trkpt lat="43.08566833" lon="-4.21345">
        <ele>822.0</ele>
        <time>2018-05-19T14:25:57.454Z</time>
      </trkpt>
      <trkpt lat="43.085605" lon="-4.213435">
        <ele>823.0</ele>
        <time>2018-05-19T14:25:58.468Z</time>
      </trkpt>
      <trkpt lat="43.085605" lon="-4.213435">
        <ele>823.0</ele>
        <time>2018-05-19T14:25:59.454Z</time>
      </trkpt>
      <trkpt lat="43.08555333" lon="-4.21341">
        <ele>823.0</ele>
        <time>2018-05-19T14:26:00.483Z</time>
      </trkpt>
      <trkpt lat="43.08555333" lon="-4.21341">
        <ele>823.0</ele>
        <time>2018-05-19T14:26:01.469Z</time>
      </trkpt>
      <trkpt lat="43.08549333" lon="-4.21338167">
        <ele>823.0</ele>
        <time>2018-05-19T14:26:02.458Z</time>
      </trkpt>
      <trkpt lat="43.08549333" lon="-4.21338167">
        <ele>823.0</ele>
        <time>2018-05-19T14:26:03.487Z</time>
      </trkpt>
      <trkpt lat="43.08542667" lon="-4.21335">
        <ele>823.0</ele>
        <time>2018-05-19T14:26:04.472Z</time>
      </trkpt>
      <trkpt lat="43.08539167" lon="-4.21334">
        <ele>823.0</ele>
        <time>2018-05-19T14:26:05.459Z</time>
      </trkpt>
      <trkpt lat="43.08535667" lon="-4.213335">
        <ele>824.0</ele>
        <time>2018-05-19T14:26:06.459Z</time>
      </trkpt>
      <trkpt lat="43.08535667" lon="-4.213335">
        <ele>824.0</ele>
        <time>2018-05-19T14:26:07.454Z</time>
      </trkpt>
      <trkpt lat="43.08529333" lon="-4.21333333">
        <ele>824.0</ele>
        <time>2018-05-19T14:26:08.459Z</time>
      </trkpt>
      <trkpt lat="43.08529333" lon="-4.21333333">
        <ele>824.0</ele>
        <time>2018-05-19T14:26:09.454Z</time>
      </trkpt>
      <trkpt lat="43.08522667" lon="-4.21333833">
        <ele>824.0</ele>
        <time>2018-05-19T14:26:10.458Z</time>
      </trkpt>
      <trkpt lat="43.08522667" lon="-4.21333833">
        <ele>824.0</ele>
        <time>2018-05-19T14:26:11.487Z</time>
      </trkpt>
      <trkpt lat="43.08515333" lon="-4.21334167">
        <ele>825.0</ele>
        <time>2018-05-19T14:26:12.472Z</time>
      </trkpt>
      <trkpt lat="43.08515333" lon="-4.21334167">
        <ele>825.0</ele>
        <time>2018-05-19T14:26:13.477Z</time>
      </trkpt>
      <trkpt lat="43.085055" lon="-4.21334667">
        <ele>825.0</ele>
        <time>2018-05-19T14:26:14.465Z</time>
      </trkpt>
      <trkpt lat="43.085055" lon="-4.21334667">
        <ele>825.0</ele>
        <time>2018-05-19T14:26:15.453Z</time>
      </trkpt>
      <trkpt lat="43.08494833" lon="-4.21335667">
        <ele>825.0</ele>
        <time>2018-05-19T14:26:16.458Z</time>
      </trkpt>
      <trkpt lat="43.08494833" lon="-4.21335667">
        <ele>825.0</ele>
        <time>2018-05-19T14:26:17.454Z</time>
      </trkpt>
      <trkpt lat="43.08483167" lon="-4.21337167">
        <ele>825.0</ele>
        <time>2018-05-19T14:26:18.460Z</time>
      </trkpt>
      <trkpt lat="43.08483167" lon="-4.21337167">
        <ele>825.0</ele>
        <time>2018-05-19T14:26:19.450Z</time>
      </trkpt>
      <trkpt lat="43.08471833" lon="-4.21339333">
        <ele>825.0</ele>
        <time>2018-05-19T14:26:20.479Z</time>
      </trkpt>
      <trkpt lat="43.08471833" lon="-4.21339333">
        <ele>825.0</ele>
        <time>2018-05-19T14:26:21.477Z</time>
      </trkpt>
      <trkpt lat="43.084625" lon="-4.21344833">
        <ele>827.0</ele>
        <time>2018-05-19T14:26:22.465Z</time>
      </trkpt>
      <trkpt lat="43.084625" lon="-4.21344833">
        <ele>827.0</ele>
        <time>2018-05-19T14:26:23.466Z</time>
      </trkpt>
      <trkpt lat="43.08454667" lon="-4.21351">
        <ele>828.0</ele>
        <time>2018-05-19T14:26:24.459Z</time>
      </trkpt>
      <trkpt lat="43.08454667" lon="-4.21351">
        <ele>828.0</ele>
        <time>2018-05-19T14:26:25.456Z</time>
      </trkpt>
      <trkpt lat="43.08448667" lon="-4.21357167">
        <ele>829.0</ele>
        <time>2018-05-19T14:26:26.457Z</time>
      </trkpt>
      <trkpt lat="43.08448667" lon="-4.21357167">
        <ele>829.0</ele>
        <time>2018-05-19T14:26:27.452Z</time>
      </trkpt>
      <trkpt lat="43.08445667" lon="-4.21364333">
        <ele>830.0</ele>
        <time>2018-05-19T14:26:28.457Z</time>
      </trkpt>
      <trkpt lat="43.08445667" lon="-4.21364333">
        <ele>830.0</ele>
        <time>2018-05-19T14:26:29.454Z</time>
      </trkpt>
      <trkpt lat="43.084435" lon="-4.21371833">
        <ele>832.0</ele>
        <time>2018-05-19T14:26:30.455Z</time>
      </trkpt>
      <trkpt lat="43.084435" lon="-4.21371833">
        <ele>832.0</ele>
        <time>2018-05-19T14:26:31.452Z</time>
      </trkpt>
      <trkpt lat="43.08442667" lon="-4.21380833">
        <ele>834.0</ele>
        <time>2018-05-19T14:26:32.459Z</time>
      </trkpt>
      <trkpt lat="43.08442667" lon="-4.21380833">
        <ele>834.0</ele>
        <time>2018-05-19T14:26:33.454Z</time>
      </trkpt>
      <trkpt lat="43.08441833" lon="-4.21386833">
        <ele>835.0</ele>
        <time>2018-05-19T14:26:34.457Z</time>
      </trkpt>
      <trkpt lat="43.08441" lon="-4.21389333">
        <ele>836.0</ele>
        <time>2018-05-19T14:26:35.458Z</time>
      </trkpt>
      <trkpt lat="43.08441" lon="-4.21389333">
        <ele>836.0</ele>
        <time>2018-05-19T14:26:36.471Z</time>
      </trkpt>
      <trkpt lat="43.0844" lon="-4.21393333">
        <ele>837.0</ele>
        <time>2018-05-19T14:26:37.458Z</time>
      </trkpt>
      <trkpt lat="43.08439333" lon="-4.21394667">
        <ele>838.0</ele>
        <time>2018-05-19T14:26:38.458Z</time>
      </trkpt>
      <trkpt lat="43.08439333" lon="-4.21394667">
        <ele>838.0</ele>
        <time>2018-05-19T14:26:39.454Z</time>
      </trkpt>
      <trkpt lat="43.08438333" lon="-4.21398333">
        <ele>839.0</ele>
        <time>2018-05-19T14:26:40.479Z</time>
      </trkpt>
      <trkpt lat="43.08437833" lon="-4.21400167">
        <ele>839.0</ele>
        <time>2018-05-19T14:26:41.468Z</time>
      </trkpt>
      <trkpt lat="43.08436667" lon="-4.21402">
        <ele>840.0</ele>
        <time>2018-05-19T14:26:42.461Z</time>
      </trkpt>
      <trkpt lat="43.08436667" lon="-4.21402">
        <ele>840.0</ele>
        <time>2018-05-19T14:26:43.454Z</time>
      </trkpt>
      <trkpt lat="43.084345" lon="-4.21405667">
        <ele>841.0</ele>
        <time>2018-05-19T14:26:44.458Z</time>
      </trkpt>
      <trkpt lat="43.084345" lon="-4.21405667">
        <ele>841.0</ele>
        <time>2018-05-19T14:26:45.455Z</time>
      </trkpt>
      <trkpt lat="43.08432833" lon="-4.21409333">
        <ele>843.0</ele>
        <time>2018-05-19T14:26:46.457Z</time>
      </trkpt>
      <trkpt lat="43.084315" lon="-4.214105">
        <ele>843.0</ele>
        <time>2018-05-19T14:26:47.458Z</time>
      </trkpt>
      <trkpt lat="43.08430167" lon="-4.21412">
        <ele>844.0</ele>
        <time>2018-05-19T14:26:48.459Z</time>
      </trkpt>
      <trkpt lat="43.08430167" lon="-4.21412">
        <ele>844.0</ele>
        <time>2018-05-19T14:26:49.452Z</time>
      </trkpt>
      <trkpt lat="43.08429167" lon="-4.21415167">
        <ele>845.0</ele>
        <time>2018-05-19T14:26:50.459Z</time>
      </trkpt>
      <trkpt lat="43.08429167" lon="-4.21415167">
        <ele>845.0</ele>
        <time>2018-05-19T14:26:51.455Z</time>
      </trkpt>
      <trkpt lat="43.08427833" lon="-4.21418167">
        <ele>846.0</ele>
        <time>2018-05-19T14:26:52.457Z</time>
      </trkpt>
      <trkpt lat="43.08427833" lon="-4.21418167">
        <ele>846.0</ele>
        <time>2018-05-19T14:26:53.451Z</time>
      </trkpt>
      <trkpt lat="43.08427333" lon="-4.214215">
        <ele>848.0</ele>
        <time>2018-05-19T14:26:54.459Z</time>
      </trkpt>
      <trkpt lat="43.08427333" lon="-4.214215">
        <ele>848.0</ele>
        <time>2018-05-19T14:26:55.455Z</time>
      </trkpt>
      <trkpt lat="43.084265" lon="-4.214245">
        <ele>849.0</ele>
        <time>2018-05-19T14:26:56.457Z</time>
      </trkpt>
      <trkpt lat="43.084265" lon="-4.214245">
        <ele>849.0</ele>
        <time>2018-05-19T14:26:57.453Z</time>
      </trkpt>
      <trkpt lat="43.08426167" lon="-4.21428333">
        <ele>850.0</ele>
        <time>2018-05-19T14:26:58.457Z</time>
      </trkpt>
      <trkpt lat="43.08426167" lon="-4.21430333">
        <ele>851.0</ele>
        <time>2018-05-19T14:26:59.457Z</time>
      </trkpt>
      <trkpt lat="43.08426333" lon="-4.21432167">
        <ele>851.0</ele>
        <time>2018-05-19T14:27:00.465Z</time>
      </trkpt>
      <trkpt lat="43.08426333" lon="-4.21432167">
        <ele>851.0</ele>
        <time>2018-05-19T14:27:01.466Z</time>
      </trkpt>
      <trkpt lat="43.08426333" lon="-4.214355">
        <ele>852.0</ele>
        <time>2018-05-19T14:27:02.459Z</time>
      </trkpt>
      <trkpt lat="43.08426333" lon="-4.214355">
        <ele>852.0</ele>
        <time>2018-05-19T14:27:03.454Z</time>
      </trkpt>
      <trkpt lat="43.08427833" lon="-4.21439833">
        <ele>853.0</ele>
        <time>2018-05-19T14:27:04.457Z</time>
      </trkpt>
      <trkpt lat="43.08427833" lon="-4.21439833">
        <ele>853.0</ele>
        <time>2018-05-19T14:27:05.455Z</time>
      </trkpt>
      <trkpt lat="43.08428667" lon="-4.21444667">
        <ele>854.0</ele>
        <time>2018-05-19T14:27:06.457Z</time>
      </trkpt>
      <trkpt lat="43.08428667" lon="-4.21444667">
        <ele>854.0</ele>
        <time>2018-05-19T14:27:07.454Z</time>
      </trkpt>
      <trkpt lat="43.08429167" lon="-4.21449333">
        <ele>855.0</ele>
        <time>2018-05-19T14:27:08.458Z</time>
      </trkpt>
      <trkpt lat="43.08429167" lon="-4.21449333">
        <ele>855.0</ele>
        <time>2018-05-19T14:27:09.455Z</time>
      </trkpt>
      <trkpt lat="43.084295" lon="-4.21454167">
        <ele>856.0</ele>
        <time>2018-05-19T14:27:10.457Z</time>
      </trkpt>
      <trkpt lat="43.0843" lon="-4.21456333">
        <ele>856.0</ele>
        <time>2018-05-19T14:27:11.454Z</time>
      </trkpt>
      <trkpt lat="43.08430333" lon="-4.21458333">
        <ele>856.0</ele>
        <time>2018-05-19T14:27:12.456Z</time>
      </trkpt>
      <trkpt lat="43.08430333" lon="-4.21458333">
        <ele>856.0</ele>
        <time>2018-05-19T14:27:13.454Z</time>
      </trkpt>
      <trkpt lat="43.08431167" lon="-4.21462333">
        <ele>857.0</ele>
        <time>2018-05-19T14:27:14.459Z</time>
      </trkpt>
      <trkpt lat="43.08431167" lon="-4.21462333">
        <ele>857.0</ele>
        <time>2018-05-19T14:27:15.476Z</time>
      </trkpt>
      <trkpt lat="43.08431333" lon="-4.21466667">
        <ele>858.0</ele>
        <time>2018-05-19T14:27:16.465Z</time>
      </trkpt>
      <trkpt lat="43.08431333" lon="-4.21466667">
        <ele>858.0</ele>
        <time>2018-05-19T14:27:17.455Z</time>
      </trkpt>
      <trkpt lat="43.08431167" lon="-4.21471167">
        <ele>858.0</ele>
        <time>2018-05-19T14:27:18.459Z</time>
      </trkpt>
      <trkpt lat="43.08431167" lon="-4.21471167">
        <ele>858.0</ele>
        <time>2018-05-19T14:27:19.455Z</time>
      </trkpt>
      <trkpt lat="43.08431167" lon="-4.21475167">
        <ele>859.0</ele>
        <time>2018-05-19T14:27:20.458Z</time>
      </trkpt>
      <trkpt lat="43.08431167" lon="-4.21475167">
        <ele>859.0</ele>
        <time>2018-05-19T14:27:21.454Z</time>
      </trkpt>
      <trkpt lat="43.08431333" lon="-4.21478333">
        <ele>860.0</ele>
        <time>2018-05-19T14:27:22.456Z</time>
      </trkpt>
      <trkpt lat="43.08431333" lon="-4.21478333">
        <ele>860.0</ele>
        <time>2018-05-19T14:27:23.455Z</time>
      </trkpt>
      <trkpt lat="43.08432167" lon="-4.214815">
        <ele>861.0</ele>
        <time>2018-05-19T14:27:24.459Z</time>
      </trkpt>
      <trkpt lat="43.08432167" lon="-4.214815">
        <ele>861.0</ele>
        <time>2018-05-19T14:27:25.452Z</time>
      </trkpt>
      <trkpt lat="43.08433167" lon="-4.21485667">
        <ele>861.0</ele>
        <time>2018-05-19T14:27:26.459Z</time>
      </trkpt>
      <trkpt lat="43.08433167" lon="-4.21485667">
        <ele>861.0</ele>
        <time>2018-05-19T14:27:27.455Z</time>
      </trkpt>
      <trkpt lat="43.08434167" lon="-4.21489667">
        <ele>862.0</ele>
        <time>2018-05-19T14:27:28.456Z</time>
      </trkpt>
      <trkpt lat="43.08434167" lon="-4.21492167">
        <ele>862.0</ele>
        <time>2018-05-19T14:27:29.471Z</time>
      </trkpt>
      <trkpt lat="43.08433833" lon="-4.21494333">
        <ele>863.0</ele>
        <time>2018-05-19T14:27:30.458Z</time>
      </trkpt>
      <trkpt lat="43.08433833" lon="-4.21494333">
        <ele>863.0</ele>
        <time>2018-05-19T14:27:31.455Z</time>
      </trkpt>
      <trkpt lat="43.08433333" lon="-4.21499">
        <ele>863.0</ele>
        <time>2018-05-19T14:27:32.457Z</time>
      </trkpt>
      <trkpt lat="43.08433333" lon="-4.21499">
        <ele>863.0</ele>
        <time>2018-05-19T14:27:33.452Z</time>
      </trkpt>
      <trkpt lat="43.08432833" lon="-4.21504833">
        <ele>864.0</ele>
        <time>2018-05-19T14:27:34.457Z</time>
      </trkpt>
      <trkpt lat="43.08432833" lon="-4.21504833">
        <ele>864.0</ele>
        <time>2018-05-19T14:27:35.454Z</time>
      </trkpt>
      <trkpt lat="43.08432333" lon="-4.21510167">
        <ele>865.0</ele>
        <time>2018-05-19T14:27:36.456Z</time>
      </trkpt>
      <trkpt lat="43.08432333" lon="-4.21510167">
        <ele>865.0</ele>
        <time>2018-05-19T14:27:37.454Z</time>
      </trkpt>
      <trkpt lat="43.08432333" lon="-4.215145">
        <ele>865.0</ele>
        <time>2018-05-19T14:27:38.458Z</time>
      </trkpt>
      <trkpt lat="43.08432333" lon="-4.21516667">
        <ele>866.0</ele>
        <time>2018-05-19T14:27:39.457Z</time>
      </trkpt>
      <trkpt lat="43.08432333" lon="-4.21516667">
        <ele>866.0</ele>
        <time>2018-05-19T14:27:40.454Z</time>
      </trkpt>
      <trkpt lat="43.08431667" lon="-4.215215">
        <ele>866.0</ele>
        <time>2018-05-19T14:27:41.457Z</time>
      </trkpt>
      <trkpt lat="43.08431333" lon="-4.21524">
        <ele>866.0</ele>
        <time>2018-05-19T14:27:42.458Z</time>
      </trkpt>
      <trkpt lat="43.08431333" lon="-4.21524">
        <ele>866.0</ele>
        <time>2018-05-19T14:27:43.455Z</time>
      </trkpt>
      <trkpt lat="43.08430667" lon="-4.21529667">
        <ele>867.0</ele>
        <time>2018-05-19T14:27:44.459Z</time>
      </trkpt>
      <trkpt lat="43.08430667" lon="-4.21529667">
        <ele>867.0</ele>
        <time>2018-05-19T14:27:45.455Z</time>
      </trkpt>
      <trkpt lat="43.08430333" lon="-4.21534667">
        <ele>867.0</ele>
        <time>2018-05-19T14:27:46.457Z</time>
      </trkpt>
      <trkpt lat="43.08430333" lon="-4.21534667">
        <ele>867.0</ele>
        <time>2018-05-19T14:27:47.452Z</time>
      </trkpt>
      <trkpt lat="43.0843" lon="-4.215395">
        <ele>867.0</ele>
        <time>2018-05-19T14:27:48.458Z</time>
      </trkpt>
      <trkpt lat="43.0843" lon="-4.215395">
        <ele>867.0</ele>
        <time>2018-05-19T14:27:49.454Z</time>
      </trkpt>
      <trkpt lat="43.08429667" lon="-4.21545167">
        <ele>868.0</ele>
        <time>2018-05-19T14:27:50.458Z</time>
      </trkpt>
      <trkpt lat="43.08429333" lon="-4.21547667">
        <ele>868.0</ele>
        <time>2018-05-19T14:27:51.459Z</time>
      </trkpt>
      <trkpt lat="43.08429333" lon="-4.21547667">
        <ele>868.0</ele>
        <time>2018-05-19T14:27:52.454Z</time>
      </trkpt>
      <trkpt lat="43.08428333" lon="-4.21552667">
        <ele>868.0</ele>
        <time>2018-05-19T14:27:53.470Z</time>
      </trkpt>
      <trkpt lat="43.08427833" lon="-4.21555167">
        <ele>868.0</ele>
        <time>2018-05-19T14:27:54.458Z</time>
      </trkpt>
      <trkpt lat="43.08427833" lon="-4.21555167">
        <ele>868.0</ele>
        <time>2018-05-19T14:27:55.454Z</time>
      </trkpt>
      <trkpt lat="43.084275" lon="-4.21560333">
        <ele>869.0</ele>
        <time>2018-05-19T14:27:56.458Z</time>
      </trkpt>
      <trkpt lat="43.084275" lon="-4.21560333">
        <ele>869.0</ele>
        <time>2018-05-19T14:27:57.454Z</time>
      </trkpt>
      <trkpt lat="43.084265" lon="-4.21565333">
        <ele>869.0</ele>
        <time>2018-05-19T14:27:58.467Z</time>
      </trkpt>
      <trkpt lat="43.08426167" lon="-4.21567667">
        <ele>869.0</ele>
        <time>2018-05-19T14:27:59.457Z</time>
      </trkpt>
      <trkpt lat="43.08425833" lon="-4.21569667">
        <ele>870.0</ele>
        <time>2018-05-19T14:28:00.465Z</time>
      </trkpt>
      <trkpt lat="43.08425833" lon="-4.21569667">
        <ele>870.0</ele>
        <time>2018-05-19T14:28:01.455Z</time>
      </trkpt>
      <trkpt lat="43.08426" lon="-4.21573833">
        <ele>870.0</ele>
        <time>2018-05-19T14:28:02.457Z</time>
      </trkpt>
      <trkpt lat="43.08426" lon="-4.21573833">
        <ele>870.0</ele>
        <time>2018-05-19T14:28:03.459Z</time>
      </trkpt>
      <trkpt lat="43.08427333" lon="-4.2158">
        <ele>871.0</ele>
        <time>2018-05-19T14:28:04.457Z</time>
      </trkpt>
      <trkpt lat="43.08427333" lon="-4.2158">
        <ele>871.0</ele>
        <time>2018-05-19T14:28:05.452Z</time>
      </trkpt>
      <trkpt lat="43.08429" lon="-4.21584333">
        <ele>871.0</ele>
        <time>2018-05-19T14:28:06.456Z</time>
      </trkpt>
      <trkpt lat="43.08429" lon="-4.21584333">
        <ele>871.0</ele>
        <time>2018-05-19T14:28:07.455Z</time>
      </trkpt>
      <trkpt lat="43.08430833" lon="-4.21588833">
        <ele>871.0</ele>
        <time>2018-05-19T14:28:08.469Z</time>
      </trkpt>
      <trkpt lat="43.08430833" lon="-4.21588833">
        <ele>871.0</ele>
        <time>2018-05-19T14:28:09.456Z</time>
      </trkpt>
      <trkpt lat="43.08432833" lon="-4.21593">
        <ele>871.0</ele>
        <time>2018-05-19T14:28:10.457Z</time>
      </trkpt>
      <trkpt lat="43.08433667" lon="-4.21594667">
        <ele>871.0</ele>
        <time>2018-05-19T14:28:11.456Z</time>
      </trkpt>
      <trkpt lat="43.084345" lon="-4.21596667">
        <ele>871.0</ele>
        <time>2018-05-19T14:28:12.482Z</time>
      </trkpt>
      <trkpt lat="43.084345" lon="-4.21596667">
        <ele>871.0</ele>
        <time>2018-05-19T14:28:13.469Z</time>
      </trkpt>
      <trkpt lat="43.084365" lon="-4.216">
        <ele>871.0</ele>
        <time>2018-05-19T14:28:14.457Z</time>
      </trkpt>
      <trkpt lat="43.08437667" lon="-4.21601667">
        <ele>871.0</ele>
        <time>2018-05-19T14:28:15.457Z</time>
      </trkpt>
      <trkpt lat="43.08437667" lon="-4.21601667">
        <ele>871.0</ele>
        <time>2018-05-19T14:28:16.455Z</time>
      </trkpt>
      <trkpt lat="43.084395" lon="-4.21604667">
        <ele>872.0</ele>
        <time>2018-05-19T14:28:17.457Z</time>
      </trkpt>
      <trkpt lat="43.08440333" lon="-4.216065">
        <ele>872.0</ele>
        <time>2018-05-19T14:28:18.459Z</time>
      </trkpt>
      <trkpt lat="43.08440333" lon="-4.216065">
        <ele>872.0</ele>
        <time>2018-05-19T14:28:19.454Z</time>
      </trkpt>
      <trkpt lat="43.08441667" lon="-4.21609333">
        <ele>872.0</ele>
        <time>2018-05-19T14:28:20.457Z</time>
      </trkpt>
      <trkpt lat="43.08442667" lon="-4.216105">
        <ele>872.0</ele>
        <time>2018-05-19T14:28:21.456Z</time>
      </trkpt>
      <trkpt lat="43.08442667" lon="-4.216105">
        <ele>872.0</ele>
        <time>2018-05-19T14:28:22.451Z</time>
      </trkpt>
      <trkpt lat="43.08444333" lon="-4.21613167">
        <ele>873.0</ele>
        <time>2018-05-19T14:28:23.471Z</time>
      </trkpt>
      <trkpt lat="43.08445167" lon="-4.216145">
        <ele>873.0</ele>
        <time>2018-05-19T14:28:24.460Z</time>
      </trkpt>
      <trkpt lat="43.08445167" lon="-4.216145">
        <ele>873.0</ele>
        <time>2018-05-19T14:28:25.454Z</time>
      </trkpt>
      <trkpt lat="43.08446667" lon="-4.21616333">
        <ele>873.0</ele>
        <time>2018-05-19T14:28:26.458Z</time>
      </trkpt>
      <trkpt lat="43.08446667" lon="-4.21616333">
        <ele>873.0</ele>
        <time>2018-05-19T14:28:27.453Z</time>
      </trkpt>
      <trkpt lat="43.08449333" lon="-4.216185">
        <ele>874.0</ele>
        <time>2018-05-19T14:28:28.458Z</time>
      </trkpt>
      <trkpt lat="43.08449333" lon="-4.216185">
        <ele>874.0</ele>
        <time>2018-05-19T14:28:29.454Z</time>
      </trkpt>
      <trkpt lat="43.08451833" lon="-4.21620167">
        <ele>874.0</ele>
        <time>2018-05-19T14:28:30.479Z</time>
      </trkpt>
      <trkpt lat="43.08452667" lon="-4.21621333">
        <ele>874.0</ele>
        <time>2018-05-19T14:28:31.468Z</time>
      </trkpt>
      <trkpt lat="43.084535" lon="-4.21622333">
        <ele>874.0</ele>
        <time>2018-05-19T14:28:32.457Z</time>
      </trkpt>
      <trkpt lat="43.084535" lon="-4.21622333">
        <ele>874.0</ele>
        <time>2018-05-19T14:28:33.454Z</time>
      </trkpt>
      <trkpt lat="43.08455333" lon="-4.21625333">
        <ele>875.0</ele>
        <time>2018-05-19T14:28:34.457Z</time>
      </trkpt>
      <trkpt lat="43.08456333" lon="-4.21627333">
        <ele>875.0</ele>
        <time>2018-05-19T14:28:35.454Z</time>
      </trkpt>
      <trkpt lat="43.08457167" lon="-4.21628667">
        <ele>875.0</ele>
        <time>2018-05-19T14:28:36.457Z</time>
      </trkpt>
      <trkpt lat="43.08457167" lon="-4.21628667">
        <ele>875.0</ele>
        <time>2018-05-19T14:28:37.454Z</time>
      </trkpt>
      <trkpt lat="43.08459333" lon="-4.21631">
        <ele>876.0</ele>
        <time>2018-05-19T14:28:38.458Z</time>
      </trkpt>
      <trkpt lat="43.08459333" lon="-4.21631">
        <ele>876.0</ele>
        <time>2018-05-19T14:28:39.454Z</time>
      </trkpt>
      <trkpt lat="43.08461833" lon="-4.21633">
        <ele>876.0</ele>
        <time>2018-05-19T14:28:40.457Z</time>
      </trkpt>
      <trkpt lat="43.08463" lon="-4.21634">
        <ele>876.0</ele>
        <time>2018-05-19T14:28:41.456Z</time>
      </trkpt>
      <trkpt lat="43.08463" lon="-4.21634">
        <ele>876.0</ele>
        <time>2018-05-19T14:28:42.455Z</time>
      </trkpt>
      <trkpt lat="43.08464833" lon="-4.21637167">
        <ele>876.0</ele>
        <time>2018-05-19T14:28:43.468Z</time>
      </trkpt>
      <trkpt lat="43.08464833" lon="-4.21637167">
        <ele>876.0</ele>
        <time>2018-05-19T14:28:44.453Z</time>
      </trkpt>
      <trkpt lat="43.08467" lon="-4.2164">
        <ele>876.0</ele>
        <time>2018-05-19T14:28:45.457Z</time>
      </trkpt>
      <trkpt lat="43.08467" lon="-4.2164">
        <ele>876.0</ele>
        <time>2018-05-19T14:28:46.454Z</time>
      </trkpt>
      <trkpt lat="43.08469" lon="-4.21643167">
        <ele>876.0</ele>
        <time>2018-05-19T14:28:47.456Z</time>
      </trkpt>
      <trkpt lat="43.0847" lon="-4.216445">
        <ele>876.0</ele>
        <time>2018-05-19T14:28:48.458Z</time>
      </trkpt>
      <trkpt lat="43.0847" lon="-4.216445">
        <ele>876.0</ele>
        <time>2018-05-19T14:28:49.451Z</time>
      </trkpt>
      <trkpt lat="43.084725" lon="-4.21647333">
        <ele>876.0</ele>
        <time>2018-05-19T14:28:50.455Z</time>
      </trkpt>
      <trkpt lat="43.084725" lon="-4.21647333">
        <ele>876.0</ele>
        <time>2018-05-19T14:28:51.467Z</time>
      </trkpt>
      <trkpt lat="43.08475" lon="-4.21649667">
        <ele>876.0</ele>
        <time>2018-05-19T14:28:52.456Z</time>
      </trkpt>
      <trkpt lat="43.08475" lon="-4.21649667">
        <ele>876.0</ele>
        <time>2018-05-19T14:28:53.452Z</time>
      </trkpt>
      <trkpt lat="43.084775" lon="-4.21652167">
        <ele>877.0</ele>
        <time>2018-05-19T14:28:54.451Z</time>
      </trkpt>
      <trkpt lat="43.08478667" lon="-4.21653333">
        <ele>877.0</ele>
        <time>2018-05-19T14:28:55.477Z</time>
      </trkpt>
      <trkpt lat="43.08479833" lon="-4.216545">
        <ele>877.0</ele>
        <time>2018-05-19T14:28:56.465Z</time>
      </trkpt>
      <trkpt lat="43.08479833" lon="-4.216545">
        <ele>877.0</ele>
        <time>2018-05-19T14:28:57.452Z</time>
      </trkpt>
      <trkpt lat="43.08482" lon="-4.21656667">
        <ele>877.0</ele>
        <time>2018-05-19T14:28:58.456Z</time>
      </trkpt>
      <trkpt lat="43.08482" lon="-4.21656667">
        <ele>877.0</ele>
        <time>2018-05-19T14:28:59.454Z</time>
      </trkpt>
      <trkpt lat="43.08484167" lon="-4.21659333">
        <ele>877.0</ele>
        <time>2018-05-19T14:29:00.479Z</time>
      </trkpt>
      <trkpt lat="43.08484167" lon="-4.21659333">
        <ele>877.0</ele>
        <time>2018-05-19T14:29:01.466Z</time>
      </trkpt>
      <trkpt lat="43.08487" lon="-4.21662333">
        <ele>877.0</ele>
        <time>2018-05-19T14:29:02.457Z</time>
      </trkpt>
      <trkpt lat="43.08487" lon="-4.21662333">
        <ele>877.0</ele>
        <time>2018-05-19T14:29:03.463Z</time>
      </trkpt>
      <trkpt lat="43.08489333" lon="-4.21666167">
        <ele>877.0</ele>
        <time>2018-05-19T14:29:04.456Z</time>
      </trkpt>
      <trkpt lat="43.08489333" lon="-4.21666167">
        <ele>877.0</ele>
        <time>2018-05-19T14:29:05.456Z</time>
      </trkpt>
      <trkpt lat="43.08491667" lon="-4.21669833">
        <ele>878.0</ele>
        <time>2018-05-19T14:29:06.458Z</time>
      </trkpt>
      <trkpt lat="43.08491667" lon="-4.21669833">
        <ele>878.0</ele>
        <time>2018-05-19T14:29:07.452Z</time>
      </trkpt>
      <trkpt lat="43.08494" lon="-4.216725">
        <ele>878.0</ele>
        <time>2018-05-19T14:29:08.454Z</time>
      </trkpt>
      <trkpt lat="43.08494" lon="-4.216725">
        <ele>878.0</ele>
        <time>2018-05-19T14:29:09.454Z</time>
      </trkpt>
      <trkpt lat="43.08496167" lon="-4.21674833">
        <ele>878.0</ele>
        <time>2018-05-19T14:29:10.467Z</time>
      </trkpt>
      <trkpt lat="43.08496167" lon="-4.21674833">
        <ele>878.0</ele>
        <time>2018-05-19T14:29:11.454Z</time>
      </trkpt>
      <trkpt lat="43.08498333" lon="-4.21677167">
        <ele>878.0</ele>
        <time>2018-05-19T14:29:12.456Z</time>
      </trkpt>
      <trkpt lat="43.08498333" lon="-4.21677167">
        <ele>878.0</ele>
        <time>2018-05-19T14:29:13.453Z</time>
      </trkpt>
      <trkpt lat="43.08499833" lon="-4.21679333">
        <ele>878.0</ele>
        <time>2018-05-19T14:29:14.458Z</time>
      </trkpt>
      <trkpt lat="43.08499833" lon="-4.21679333">
        <ele>878.0</ele>
        <time>2018-05-19T14:29:15.454Z</time>
      </trkpt>
      <trkpt lat="43.08501833" lon="-4.21681667">
        <ele>879.0</ele>
        <time>2018-05-19T14:29:16.457Z</time>
      </trkpt>
      <trkpt lat="43.08501833" lon="-4.21681667">
        <ele>879.0</ele>
        <time>2018-05-19T14:29:17.455Z</time>
      </trkpt>
      <trkpt lat="43.08503667" lon="-4.21683833">
        <ele>879.0</ele>
        <time>2018-05-19T14:29:18.455Z</time>
      </trkpt>
      <trkpt lat="43.08503667" lon="-4.21683833">
        <ele>879.0</ele>
        <time>2018-05-19T14:29:19.454Z</time>
      </trkpt>
      <trkpt lat="43.08506" lon="-4.21686167">
        <ele>880.0</ele>
        <time>2018-05-19T14:29:20.455Z</time>
      </trkpt>
      <trkpt lat="43.08506667" lon="-4.21687333">
        <ele>880.0</ele>
        <time>2018-05-19T14:29:21.455Z</time>
      </trkpt>
      <trkpt lat="43.08506667" lon="-4.21687333">
        <ele>880.0</ele>
        <time>2018-05-19T14:29:22.454Z</time>
      </trkpt>
      <trkpt lat="43.085075" lon="-4.216905">
        <ele>880.0</ele>
        <time>2018-05-19T14:29:23.468Z</time>
      </trkpt>
      <trkpt lat="43.08507833" lon="-4.21692333">
        <ele>880.0</ele>
        <time>2018-05-19T14:29:24.459Z</time>
      </trkpt>
      <trkpt lat="43.08507833" lon="-4.21692333">
        <ele>880.0</ele>
        <time>2018-05-19T14:29:25.451Z</time>
      </trkpt>
      <trkpt lat="43.08507667" lon="-4.21696167">
        <ele>880.0</ele>
        <time>2018-05-19T14:29:26.454Z</time>
      </trkpt>
      <trkpt lat="43.08507667" lon="-4.21696167">
        <ele>880.0</ele>
        <time>2018-05-19T14:29:27.455Z</time>
      </trkpt>
      <trkpt lat="43.08507333" lon="-4.21700333">
        <ele>881.0</ele>
        <time>2018-05-19T14:29:28.457Z</time>
      </trkpt>
      <trkpt lat="43.08507333" lon="-4.21700333">
        <ele>881.0</ele>
        <time>2018-05-19T14:29:29.452Z</time>
      </trkpt>
      <trkpt lat="43.08506167" lon="-4.21703333">
        <ele>881.0</ele>
        <time>2018-05-19T14:29:30.457Z</time>
      </trkpt>
      <trkpt lat="43.08506167" lon="-4.21703333">
        <ele>881.0</ele>
        <time>2018-05-19T14:29:31.454Z</time>
      </trkpt>
      <trkpt lat="43.08504333" lon="-4.21705333">
        <ele>881.0</ele>
        <time>2018-05-19T14:29:32.457Z</time>
      </trkpt>
      <trkpt lat="43.08504333" lon="-4.21705333">
        <ele>881.0</ele>
        <time>2018-05-19T14:29:33.454Z</time>
      </trkpt>
      <trkpt lat="43.08503" lon="-4.21706667">
        <ele>882.0</ele>
        <time>2018-05-19T14:29:34.457Z</time>
      </trkpt>
      <trkpt lat="43.08501667" lon="-4.21707167">
        <ele>882.0</ele>
        <time>2018-05-19T14:29:35.457Z</time>
      </trkpt>
      <trkpt lat="43.08499667" lon="-4.21708333">
        <ele>882.0</ele>
        <time>2018-05-19T14:29:36.459Z</time>
      </trkpt>
      <trkpt lat="43.08499667" lon="-4.21708333">
        <ele>882.0</ele>
        <time>2018-05-19T14:29:37.454Z</time>
      </trkpt>
      <trkpt lat="43.08497667" lon="-4.21710667">
        <ele>882.0</ele>
        <time>2018-05-19T14:29:38.456Z</time>
      </trkpt>
      <trkpt lat="43.08497667" lon="-4.21710667">
        <ele>882.0</ele>
        <time>2018-05-19T14:29:39.455Z</time>
      </trkpt>
      <trkpt lat="43.08494833" lon="-4.21713167">
        <ele>882.0</ele>
        <time>2018-05-19T14:29:40.456Z</time>
      </trkpt>
      <trkpt lat="43.08494833" lon="-4.21713167">
        <ele>882.0</ele>
        <time>2018-05-19T14:29:41.453Z</time>
      </trkpt>
      <trkpt lat="43.08491833" lon="-4.217155">
        <ele>882.0</ele>
        <time>2018-05-19T14:29:42.457Z</time>
      </trkpt>
      <trkpt lat="43.08491833" lon="-4.217155">
        <ele>882.0</ele>
        <time>2018-05-19T14:29:43.451Z</time>
      </trkpt>
      <trkpt lat="43.08489167" lon="-4.21718833">
        <ele>882.0</ele>
        <time>2018-05-19T14:29:44.473Z</time>
      </trkpt>
      <trkpt lat="43.08489167" lon="-4.21718833">
        <ele>882.0</ele>
        <time>2018-05-19T14:29:45.458Z</time>
      </trkpt>
      <trkpt lat="43.08486833" lon="-4.21722167">
        <ele>882.0</ele>
        <time>2018-05-19T14:29:46.456Z</time>
      </trkpt>
      <trkpt lat="43.08486833" lon="-4.21722167">
        <ele>882.0</ele>
        <time>2018-05-19T14:29:47.449Z</time>
      </trkpt>
      <trkpt lat="43.08484333" lon="-4.21725167">
        <ele>883.0</ele>
        <time>2018-05-19T14:29:48.472Z</time>
      </trkpt>
      <trkpt lat="43.08484333" lon="-4.21725167">
        <ele>883.0</ele>
        <time>2018-05-19T14:29:49.455Z</time>
      </trkpt>
      <trkpt lat="43.08481333" lon="-4.21728">
        <ele>883.0</ele>
        <time>2018-05-19T14:29:50.456Z</time>
      </trkpt>
      <trkpt lat="43.08479833" lon="-4.21729">
        <ele>883.0</ele>
        <time>2018-05-19T14:29:51.457Z</time>
      </trkpt>
      <trkpt lat="43.084785" lon="-4.21730167">
        <ele>883.0</ele>
        <time>2018-05-19T14:29:52.454Z</time>
      </trkpt>
      <trkpt lat="43.084785" lon="-4.21730167">
        <ele>883.0</ele>
        <time>2018-05-19T14:29:53.453Z</time>
      </trkpt>
      <trkpt lat="43.08476" lon="-4.21732833">
        <ele>883.0</ele>
        <time>2018-05-19T14:29:54.458Z</time>
      </trkpt>
      <trkpt lat="43.08476" lon="-4.21732833">
        <ele>883.0</ele>
        <time>2018-05-19T14:29:55.465Z</time>
      </trkpt>
      <trkpt lat="43.08473333" lon="-4.21735833">
        <ele>883.0</ele>
        <time>2018-05-19T14:29:56.457Z</time>
      </trkpt>
      <trkpt lat="43.08473333" lon="-4.21735833">
        <ele>883.0</ele>
        <time>2018-05-19T14:29:57.454Z</time>
      </trkpt>
      <trkpt lat="43.08471" lon="-4.21738833">
        <ele>883.0</ele>
        <time>2018-05-19T14:29:58.456Z</time>
      </trkpt>
      <trkpt lat="43.084695" lon="-4.21740167">
        <ele>883.0</ele>
        <time>2018-05-19T14:29:59.456Z</time>
      </trkpt>
      <trkpt lat="43.084695" lon="-4.21740167">
        <ele>883.0</ele>
        <time>2018-05-19T14:30:00.467Z</time>
      </trkpt>
      <trkpt lat="43.08467333" lon="-4.21742667">
        <ele>884.0</ele>
        <time>2018-05-19T14:30:01.457Z</time>
      </trkpt>
      <trkpt lat="43.08466333" lon="-4.21744167">
        <ele>884.0</ele>
        <time>2018-05-19T14:30:02.454Z</time>
      </trkpt>
      <trkpt lat="43.08466333" lon="-4.21744167">
        <ele>884.0</ele>
        <time>2018-05-19T14:30:03.453Z</time>
      </trkpt>
      <trkpt lat="43.084645" lon="-4.217475">
        <ele>884.0</ele>
        <time>2018-05-19T14:30:04.456Z</time>
      </trkpt>
      <trkpt lat="43.084645" lon="-4.217475">
        <ele>884.0</ele>
        <time>2018-05-19T14:30:05.454Z</time>
      </trkpt>
      <trkpt lat="43.08463167" lon="-4.217505">
        <ele>884.0</ele>
        <time>2018-05-19T14:30:06.458Z</time>
      </trkpt>
      <trkpt lat="43.08463167" lon="-4.217505">
        <ele>884.0</ele>
        <time>2018-05-19T14:30:07.451Z</time>
      </trkpt>
      <trkpt lat="43.084625" lon="-4.217555">
        <ele>884.0</ele>
        <time>2018-05-19T14:30:08.457Z</time>
      </trkpt>
      <trkpt lat="43.084625" lon="-4.217555">
        <ele>884.0</ele>
        <time>2018-05-19T14:30:09.453Z</time>
      </trkpt>
      <trkpt lat="43.08462167" lon="-4.2176">
        <ele>885.0</ele>
        <time>2018-05-19T14:30:10.456Z</time>
      </trkpt>
      <trkpt lat="43.08462167" lon="-4.2176">
        <ele>885.0</ele>
        <time>2018-05-19T14:30:11.451Z</time>
      </trkpt>
      <trkpt lat="43.084615" lon="-4.21764">
        <ele>885.0</ele>
        <time>2018-05-19T14:30:12.457Z</time>
      </trkpt>
      <trkpt lat="43.084615" lon="-4.21764">
        <ele>885.0</ele>
        <time>2018-05-19T14:30:13.453Z</time>
      </trkpt>
      <trkpt lat="43.08460167" lon="-4.21768333">
        <ele>886.0</ele>
        <time>2018-05-19T14:30:14.477Z</time>
      </trkpt>
      <trkpt lat="43.08460167" lon="-4.21768333">
        <ele>886.0</ele>
        <time>2018-05-19T14:30:15.464Z</time>
      </trkpt>
      <trkpt lat="43.084595" lon="-4.21771667">
        <ele>887.0</ele>
        <time>2018-05-19T14:30:16.458Z</time>
      </trkpt>
      <trkpt lat="43.084595" lon="-4.21771667">
        <ele>887.0</ele>
        <time>2018-05-19T14:30:17.454Z</time>
      </trkpt>
      <trkpt lat="43.08458667" lon="-4.21775833">
        <ele>888.0</ele>
        <time>2018-05-19T14:30:18.458Z</time>
      </trkpt>
      <trkpt lat="43.08458667" lon="-4.21775833">
        <ele>888.0</ele>
        <time>2018-05-19T14:30:19.457Z</time>
      </trkpt>
      <trkpt lat="43.08457833" lon="-4.21778667">
        <ele>889.0</ele>
        <time>2018-05-19T14:30:20.458Z</time>
      </trkpt>
      <trkpt lat="43.084575" lon="-4.21779667">
        <ele>890.0</ele>
        <time>2018-05-19T14:30:21.457Z</time>
      </trkpt>
      <trkpt lat="43.084575" lon="-4.21779667">
        <ele>890.0</ele>
        <time>2018-05-19T14:30:22.454Z</time>
      </trkpt>
      <trkpt lat="43.08456833" lon="-4.21781667">
        <ele>891.0</ele>
        <time>2018-05-19T14:30:23.468Z</time>
      </trkpt>
      <trkpt lat="43.08456667" lon="-4.21782833">
        <ele>891.0</ele>
        <time>2018-05-19T14:30:24.458Z</time>
      </trkpt>
      <trkpt lat="43.08456667" lon="-4.21782833">
        <ele>891.0</ele>
        <time>2018-05-19T14:30:25.453Z</time>
      </trkpt>
      <trkpt lat="43.084555" lon="-4.21786">
        <ele>892.0</ele>
        <time>2018-05-19T14:30:26.454Z</time>
      </trkpt>
      <trkpt lat="43.084555" lon="-4.21786">
        <ele>892.0</ele>
        <time>2018-05-19T14:30:27.484Z</time>
      </trkpt>
      <trkpt lat="43.08453833" lon="-4.217895">
        <ele>893.0</ele>
        <time>2018-05-19T14:30:28.469Z</time>
      </trkpt>
      <trkpt lat="43.08453833" lon="-4.217895">
        <ele>893.0</ele>
        <time>2018-05-19T14:30:29.455Z</time>
      </trkpt>
      <trkpt lat="43.08452" lon="-4.21794333">
        <ele>893.0</ele>
        <time>2018-05-19T14:30:30.458Z</time>
      </trkpt>
      <trkpt lat="43.08452" lon="-4.21794333">
        <ele>893.0</ele>
        <time>2018-05-19T14:30:31.453Z</time>
      </trkpt>
      <trkpt lat="43.08450833" lon="-4.21799">
        <ele>894.0</ele>
        <time>2018-05-19T14:30:32.457Z</time>
      </trkpt>
      <trkpt lat="43.08450333" lon="-4.21801333">
        <ele>894.0</ele>
        <time>2018-05-19T14:30:33.456Z</time>
      </trkpt>
      <trkpt lat="43.08450333" lon="-4.21801333">
        <ele>894.0</ele>
        <time>2018-05-19T14:30:34.454Z</time>
      </trkpt>
      <trkpt lat="43.08449167" lon="-4.21805167">
        <ele>895.0</ele>
        <time>2018-05-19T14:30:35.456Z</time>
      </trkpt>
      <trkpt lat="43.08448667" lon="-4.218075">
        <ele>895.0</ele>
        <time>2018-05-19T14:30:36.457Z</time>
      </trkpt>
      <trkpt lat="43.08448667" lon="-4.218075">
        <ele>895.0</ele>
        <time>2018-05-19T14:30:37.455Z</time>
      </trkpt>
      <trkpt lat="43.08448167" lon="-4.21812667">
        <ele>896.0</ele>
        <time>2018-05-19T14:30:38.464Z</time>
      </trkpt>
      <trkpt lat="43.08448167" lon="-4.21812667">
        <ele>896.0</ele>
        <time>2018-05-19T14:30:39.455Z</time>
      </trkpt>
      <trkpt lat="43.08448" lon="-4.21817167">
        <ele>896.0</ele>
        <time>2018-05-19T14:30:40.456Z</time>
      </trkpt>
      <trkpt lat="43.08448" lon="-4.21819667">
        <ele>896.0</ele>
        <time>2018-05-19T14:30:41.457Z</time>
      </trkpt>
      <trkpt lat="43.08449" lon="-4.21823">
        <ele>896.0</ele>
        <time>2018-05-19T14:30:42.457Z</time>
      </trkpt>
      <trkpt lat="43.08449" lon="-4.21823">
        <ele>896.0</ele>
        <time>2018-05-19T14:30:43.464Z</time>
      </trkpt>
      <trkpt lat="43.08451" lon="-4.21829">
        <ele>896.0</ele>
        <time>2018-05-19T14:30:44.457Z</time>
      </trkpt>
      <trkpt lat="43.08451" lon="-4.21829">
        <ele>896.0</ele>
        <time>2018-05-19T14:30:45.448Z</time>
      </trkpt>
      <trkpt lat="43.08453667" lon="-4.21834333">
        <ele>896.0</ele>
        <time>2018-05-19T14:30:46.457Z</time>
      </trkpt>
      <trkpt lat="43.08455167" lon="-4.21837">
        <ele>896.0</ele>
        <time>2018-05-19T14:30:47.457Z</time>
      </trkpt>
      <trkpt lat="43.08455167" lon="-4.21837">
        <ele>896.0</ele>
        <time>2018-05-19T14:30:48.455Z</time>
      </trkpt>
      <trkpt lat="43.08457667" lon="-4.21842333">
        <ele>896.0</ele>
        <time>2018-05-19T14:30:49.457Z</time>
      </trkpt>
      <trkpt lat="43.08459" lon="-4.21844833">
        <ele>896.0</ele>
        <time>2018-05-19T14:30:50.458Z</time>
      </trkpt>
      <trkpt lat="43.08459" lon="-4.21844833">
        <ele>896.0</ele>
        <time>2018-05-19T14:30:51.456Z</time>
      </trkpt>
      <trkpt lat="43.08462" lon="-4.21849333">
        <ele>896.0</ele>
        <time>2018-05-19T14:30:52.457Z</time>
      </trkpt>
      <trkpt lat="43.08462" lon="-4.21849333">
        <ele>896.0</ele>
        <time>2018-05-19T14:30:53.454Z</time>
      </trkpt>
      <trkpt lat="43.08464833" lon="-4.21853167">
        <ele>896.0</ele>
        <time>2018-05-19T14:30:54.459Z</time>
      </trkpt>
      <trkpt lat="43.08464833" lon="-4.21853167">
        <ele>896.0</ele>
        <time>2018-05-19T14:30:55.454Z</time>
      </trkpt>
      <trkpt lat="43.08467667" lon="-4.21857833">
        <ele>896.0</ele>
        <time>2018-05-19T14:30:56.457Z</time>
      </trkpt>
      <trkpt lat="43.08467667" lon="-4.21857833">
        <ele>896.0</ele>
        <time>2018-05-19T14:30:57.454Z</time>
      </trkpt>
      <trkpt lat="43.084705" lon="-4.21862167">
        <ele>897.0</ele>
        <time>2018-05-19T14:30:58.456Z</time>
      </trkpt>
      <trkpt lat="43.08471833" lon="-4.21864">
        <ele>897.0</ele>
        <time>2018-05-19T14:30:59.455Z</time>
      </trkpt>
      <trkpt lat="43.08473" lon="-4.21866">
        <ele>898.0</ele>
        <time>2018-05-19T14:31:00.468Z</time>
      </trkpt>
      <trkpt lat="43.08473" lon="-4.21866">
        <ele>898.0</ele>
        <time>2018-05-19T14:31:01.465Z</time>
      </trkpt>
      <trkpt lat="43.08475" lon="-4.21868833">
        <ele>898.0</ele>
        <time>2018-05-19T14:31:02.454Z</time>
      </trkpt>
      <trkpt lat="43.08475" lon="-4.21868833">
        <ele>898.0</ele>
        <time>2018-05-19T14:31:03.455Z</time>
      </trkpt>
      <trkpt lat="43.08476667" lon="-4.21872">
        <ele>898.0</ele>
        <time>2018-05-19T14:31:04.454Z</time>
      </trkpt>
      <trkpt lat="43.08476667" lon="-4.21872">
        <ele>898.0</ele>
        <time>2018-05-19T14:31:05.452Z</time>
      </trkpt>
      <trkpt lat="43.08478333" lon="-4.218755">
        <ele>898.0</ele>
        <time>2018-05-19T14:31:06.458Z</time>
      </trkpt>
      <trkpt lat="43.08478333" lon="-4.218755">
        <ele>898.0</ele>
        <time>2018-05-19T14:31:07.466Z</time>
      </trkpt>
      <trkpt lat="43.08479833" lon="-4.2188">
        <ele>899.0</ele>
        <time>2018-05-19T14:31:08.458Z</time>
      </trkpt>
      <trkpt lat="43.08479833" lon="-4.2188">
        <ele>899.0</ele>
        <time>2018-05-19T14:31:09.456Z</time>
      </trkpt>
      <trkpt lat="43.08480833" lon="-4.21885333">
        <ele>899.0</ele>
        <time>2018-05-19T14:31:10.457Z</time>
      </trkpt>
      <trkpt lat="43.08481833" lon="-4.218885">
        <ele>899.0</ele>
        <time>2018-05-19T14:31:11.457Z</time>
      </trkpt>
      <trkpt lat="43.084825" lon="-4.21890667">
        <ele>899.0</ele>
        <time>2018-05-19T14:31:12.457Z</time>
      </trkpt>
      <trkpt lat="43.084825" lon="-4.21890667">
        <ele>899.0</ele>
        <time>2018-05-19T14:31:13.453Z</time>
      </trkpt>
      <trkpt lat="43.084835" lon="-4.218955">
        <ele>899.0</ele>
        <time>2018-05-19T14:31:14.457Z</time>
      </trkpt>
      <trkpt lat="43.084835" lon="-4.218955">
        <ele>899.0</ele>
        <time>2018-05-19T14:31:15.478Z</time>
      </trkpt>
      <trkpt lat="43.084845" lon="-4.219005">
        <ele>899.0</ele>
        <time>2018-05-19T14:31:16.464Z</time>
      </trkpt>
      <trkpt lat="43.084845" lon="-4.219005">
        <ele>899.0</ele>
        <time>2018-05-19T14:31:17.454Z</time>
      </trkpt>
      <trkpt lat="43.08486667" lon="-4.21906">
        <ele>899.0</ele>
        <time>2018-05-19T14:31:18.464Z</time>
      </trkpt>
      <trkpt lat="43.08486667" lon="-4.21906">
        <ele>899.0</ele>
        <time>2018-05-19T14:31:19.454Z</time>
      </trkpt>
      <trkpt lat="43.08488167" lon="-4.21910667">
        <ele>899.0</ele>
        <time>2018-05-19T14:31:20.457Z</time>
      </trkpt>
      <trkpt lat="43.08488167" lon="-4.21910667">
        <ele>899.0</ele>
        <time>2018-05-19T14:31:21.455Z</time>
      </trkpt>
      <trkpt lat="43.08489833" lon="-4.21916167">
        <ele>900.0</ele>
        <time>2018-05-19T14:31:22.456Z</time>
      </trkpt>
      <trkpt lat="43.084905" lon="-4.2192">
        <ele>900.0</ele>
        <time>2018-05-19T14:31:23.466Z</time>
      </trkpt>
      <trkpt lat="43.084905" lon="-4.2192">
        <ele>900.0</ele>
        <time>2018-05-19T14:31:24.455Z</time>
      </trkpt>
      <trkpt lat="43.08491167" lon="-4.21925167">
        <ele>900.0</ele>
        <time>2018-05-19T14:31:25.457Z</time>
      </trkpt>
      <trkpt lat="43.084915" lon="-4.21927833">
        <ele>900.0</ele>
        <time>2018-05-19T14:31:26.458Z</time>
      </trkpt>
      <trkpt lat="43.084915" lon="-4.21927833">
        <ele>900.0</ele>
        <time>2018-05-19T14:31:27.452Z</time>
      </trkpt>
      <trkpt lat="43.084925" lon="-4.219325">
        <ele>900.0</ele>
        <time>2018-05-19T14:31:28.456Z</time>
      </trkpt>
      <trkpt lat="43.084925" lon="-4.219325">
        <ele>900.0</ele>
        <time>2018-05-19T14:31:29.454Z</time>
      </trkpt>
      <trkpt lat="43.08494167" lon="-4.21938167">
        <ele>900.0</ele>
        <time>2018-05-19T14:31:30.458Z</time>
      </trkpt>
      <trkpt lat="43.08494167" lon="-4.21938167">
        <ele>900.0</ele>
        <time>2018-05-19T14:31:31.468Z</time>
      </trkpt>
      <trkpt lat="43.08495833" lon="-4.21943333">
        <ele>900.0</ele>
        <time>2018-05-19T14:31:32.457Z</time>
      </trkpt>
      <trkpt lat="43.08495833" lon="-4.21943333">
        <ele>900.0</ele>
        <time>2018-05-19T14:31:33.454Z</time>
      </trkpt>
      <trkpt lat="43.084975" lon="-4.21949167">
        <ele>900.0</ele>
        <time>2018-05-19T14:31:34.456Z</time>
      </trkpt>
      <trkpt lat="43.08498167" lon="-4.21951667">
        <ele>900.0</ele>
        <time>2018-05-19T14:31:35.457Z</time>
      </trkpt>
      <trkpt lat="43.08498833" lon="-4.21954167">
        <ele>900.0</ele>
        <time>2018-05-19T14:31:36.455Z</time>
      </trkpt>
      <trkpt lat="43.08498833" lon="-4.21954167">
        <ele>900.0</ele>
        <time>2018-05-19T14:31:37.455Z</time>
      </trkpt>
      <trkpt lat="43.08500333" lon="-4.21959333">
        <ele>900.0</ele>
        <time>2018-05-19T14:31:38.457Z</time>
      </trkpt>
      <trkpt lat="43.08500333" lon="-4.21959333">
        <ele>900.0</ele>
        <time>2018-05-19T14:31:39.454Z</time>
      </trkpt>
      <trkpt lat="43.08502167" lon="-4.21965">
        <ele>900.0</ele>
        <time>2018-05-19T14:31:40.457Z</time>
      </trkpt>
      <trkpt lat="43.085035" lon="-4.219685">
        <ele>900.0</ele>
        <time>2018-05-19T14:31:41.456Z</time>
      </trkpt>
      <trkpt lat="43.085045" lon="-4.219715">
        <ele>900.0</ele>
        <time>2018-05-19T14:31:42.457Z</time>
      </trkpt>
      <trkpt lat="43.085045" lon="-4.219715">
        <ele>900.0</ele>
        <time>2018-05-19T14:31:43.455Z</time>
      </trkpt>
      <trkpt lat="43.08505833" lon="-4.21977333">
        <ele>900.0</ele>
        <time>2018-05-19T14:31:44.457Z</time>
      </trkpt>
      <trkpt lat="43.085065" lon="-4.21979833">
        <ele>900.0</ele>
        <time>2018-05-19T14:31:45.457Z</time>
      </trkpt>
      <trkpt lat="43.085065" lon="-4.21979833">
        <ele>900.0</ele>
        <time>2018-05-19T14:31:46.457Z</time>
      </trkpt>
      <trkpt lat="43.08508167" lon="-4.21984833">
        <ele>900.0</ele>
        <time>2018-05-19T14:31:47.456Z</time>
      </trkpt>
      <trkpt lat="43.08508167" lon="-4.21984833">
        <ele>900.0</ele>
        <time>2018-05-19T14:31:48.455Z</time>
      </trkpt>
      <trkpt lat="43.08509833" lon="-4.219895">
        <ele>900.0</ele>
        <time>2018-05-19T14:31:49.456Z</time>
      </trkpt>
      <trkpt lat="43.085105" lon="-4.21991833">
        <ele>900.0</ele>
        <time>2018-05-19T14:31:50.457Z</time>
      </trkpt>
      <trkpt lat="43.085105" lon="-4.21991833">
        <ele>900.0</ele>
        <time>2018-05-19T14:31:51.454Z</time>
      </trkpt>
      <trkpt lat="43.08511" lon="-4.21997167">
        <ele>900.0</ele>
        <time>2018-05-19T14:31:52.457Z</time>
      </trkpt>
      <trkpt lat="43.08511" lon="-4.21997167">
        <ele>900.0</ele>
        <time>2018-05-19T14:31:53.465Z</time>
      </trkpt>
      <trkpt lat="43.08512333" lon="-4.22001667">
        <ele>900.0</ele>
        <time>2018-05-19T14:31:54.457Z</time>
      </trkpt>
      <trkpt lat="43.08512333" lon="-4.22001667">
        <ele>900.0</ele>
        <time>2018-05-19T14:31:55.454Z</time>
      </trkpt>
      <trkpt lat="43.08513167" lon="-4.22006333">
        <ele>900.0</ele>
        <time>2018-05-19T14:31:56.457Z</time>
      </trkpt>
      <trkpt lat="43.085135" lon="-4.22009167">
        <ele>900.0</ele>
        <time>2018-05-19T14:31:57.455Z</time>
      </trkpt>
      <trkpt lat="43.085135" lon="-4.22009167">
        <ele>900.0</ele>
        <time>2018-05-19T14:31:58.454Z</time>
      </trkpt>
      <trkpt lat="43.08514" lon="-4.220135">
        <ele>900.0</ele>
        <time>2018-05-19T14:31:59.456Z</time>
      </trkpt>
      <trkpt lat="43.08514" lon="-4.22016">
        <ele>900.0</ele>
        <time>2018-05-19T14:32:00.481Z</time>
      </trkpt>
      <trkpt lat="43.08514" lon="-4.22016">
        <ele>900.0</ele>
        <time>2018-05-19T14:32:01.468Z</time>
      </trkpt>
      <trkpt lat="43.08514833" lon="-4.22021833">
        <ele>900.0</ele>
        <time>2018-05-19T14:32:02.456Z</time>
      </trkpt>
      <trkpt lat="43.08514833" lon="-4.22021833">
        <ele>900.0</ele>
        <time>2018-05-19T14:32:03.451Z</time>
      </trkpt>
      <trkpt lat="43.08516333" lon="-4.22026">
        <ele>900.0</ele>
        <time>2018-05-19T14:32:04.456Z</time>
      </trkpt>
      <trkpt lat="43.08516333" lon="-4.22026">
        <ele>900.0</ele>
        <time>2018-05-19T14:32:05.464Z</time>
      </trkpt>
      <trkpt lat="43.08517833" lon="-4.22031">
        <ele>900.0</ele>
        <time>2018-05-19T14:32:06.457Z</time>
      </trkpt>
      <trkpt lat="43.08517833" lon="-4.22031">
        <ele>900.0</ele>
        <time>2018-05-19T14:32:07.451Z</time>
      </trkpt>
      <trkpt lat="43.08519167" lon="-4.22036833">
        <ele>900.0</ele>
        <time>2018-05-19T14:32:08.457Z</time>
      </trkpt>
      <trkpt lat="43.08519167" lon="-4.22036833">
        <ele>900.0</ele>
        <time>2018-05-19T14:32:09.454Z</time>
      </trkpt>
      <trkpt lat="43.08521" lon="-4.220405">
        <ele>900.0</ele>
        <time>2018-05-19T14:32:10.469Z</time>
      </trkpt>
      <trkpt lat="43.08521" lon="-4.220405">
        <ele>900.0</ele>
        <time>2018-05-19T14:32:11.456Z</time>
      </trkpt>
      <trkpt lat="43.08523667" lon="-4.22046333">
        <ele>900.0</ele>
        <time>2018-05-19T14:32:12.457Z</time>
      </trkpt>
      <trkpt lat="43.08523667" lon="-4.22046333">
        <ele>900.0</ele>
        <time>2018-05-19T14:32:13.454Z</time>
      </trkpt>
      <trkpt lat="43.085255" lon="-4.22053167">
        <ele>900.0</ele>
        <time>2018-05-19T14:32:14.457Z</time>
      </trkpt>
      <trkpt lat="43.085255" lon="-4.22053167">
        <ele>900.0</ele>
        <time>2018-05-19T14:32:15.454Z</time>
      </trkpt>
      <trkpt lat="43.08527833" lon="-4.22057">
        <ele>900.0</ele>
        <time>2018-05-19T14:32:16.454Z</time>
      </trkpt>
      <trkpt lat="43.08529333" lon="-4.22058333">
        <ele>900.0</ele>
        <time>2018-05-19T14:32:17.456Z</time>
      </trkpt>
      <trkpt lat="43.08529333" lon="-4.22058333">
        <ele>900.0</ele>
        <time>2018-05-19T14:32:18.454Z</time>
      </trkpt>
      <trkpt lat="43.08531667" lon="-4.220615">
        <ele>900.0</ele>
        <time>2018-05-19T14:32:19.457Z</time>
      </trkpt>
      <trkpt lat="43.08532667" lon="-4.22063167">
        <ele>900.0</ele>
        <time>2018-05-19T14:32:20.458Z</time>
      </trkpt>
      <trkpt lat="43.08532667" lon="-4.22063167">
        <ele>900.0</ele>
        <time>2018-05-19T14:32:21.448Z</time>
      </trkpt>
      <trkpt lat="43.08535833" lon="-4.22066">
        <ele>901.0</ele>
        <time>2018-05-19T14:32:22.477Z</time>
      </trkpt>
      <trkpt lat="43.08535833" lon="-4.22066">
        <ele>901.0</ele>
        <time>2018-05-19T14:32:23.468Z</time>
      </trkpt>
      <trkpt lat="43.08539333" lon="-4.22069333">
        <ele>901.0</ele>
        <time>2018-05-19T14:32:24.470Z</time>
      </trkpt>
      <trkpt lat="43.08539333" lon="-4.22069333">
        <ele>901.0</ele>
        <time>2018-05-19T14:32:25.456Z</time>
      </trkpt>
      <trkpt lat="43.085425" lon="-4.22072667">
        <ele>902.0</ele>
        <time>2018-05-19T14:32:26.458Z</time>
      </trkpt>
      <trkpt lat="43.085425" lon="-4.22072667">
        <ele>902.0</ele>
        <time>2018-05-19T14:32:27.454Z</time>
      </trkpt>
      <trkpt lat="43.08545167" lon="-4.22075167">
        <ele>903.0</ele>
        <time>2018-05-19T14:32:28.456Z</time>
      </trkpt>
      <trkpt lat="43.08545167" lon="-4.22075167">
        <ele>903.0</ele>
        <time>2018-05-19T14:32:29.457Z</time>
      </trkpt>
      <trkpt lat="43.08547167" lon="-4.22077667">
        <ele>904.0</ele>
        <time>2018-05-19T14:32:30.457Z</time>
      </trkpt>
      <trkpt lat="43.085485" lon="-4.22079833">
        <ele>904.0</ele>
        <time>2018-05-19T14:32:31.456Z</time>
      </trkpt>
      <trkpt lat="43.08549833" lon="-4.22081167">
        <ele>905.0</ele>
        <time>2018-05-19T14:32:32.457Z</time>
      </trkpt>
      <trkpt lat="43.08549833" lon="-4.22081167">
        <ele>905.0</ele>
        <time>2018-05-19T14:32:33.454Z</time>
      </trkpt>
      <trkpt lat="43.08553167" lon="-4.22083333">
        <ele>906.0</ele>
        <time>2018-05-19T14:32:34.456Z</time>
      </trkpt>
      <trkpt lat="43.08555" lon="-4.220845">
        <ele>906.0</ele>
        <time>2018-05-19T14:32:35.458Z</time>
      </trkpt>
      <trkpt lat="43.08555" lon="-4.220845">
        <ele>906.0</ele>
        <time>2018-05-19T14:32:36.448Z</time>
      </trkpt>
      <trkpt lat="43.08559" lon="-4.22086667">
        <ele>907.0</ele>
        <time>2018-05-19T14:32:37.471Z</time>
      </trkpt>
      <trkpt lat="43.08560667" lon="-4.22088167">
        <ele>907.0</ele>
        <time>2018-05-19T14:32:38.457Z</time>
      </trkpt>
      <trkpt lat="43.08560667" lon="-4.22088167">
        <ele>907.0</ele>
        <time>2018-05-19T14:32:39.454Z</time>
      </trkpt>
      <trkpt lat="43.08564167" lon="-4.22092167">
        <ele>908.0</ele>
        <time>2018-05-19T14:32:40.456Z</time>
      </trkpt>
      <trkpt lat="43.08564167" lon="-4.22092167">
        <ele>908.0</ele>
        <time>2018-05-19T14:32:41.455Z</time>
      </trkpt>
      <trkpt lat="43.08566833" lon="-4.22096333">
        <ele>909.0</ele>
        <time>2018-05-19T14:32:42.456Z</time>
      </trkpt>
      <trkpt lat="43.08566833" lon="-4.22096333">
        <ele>909.0</ele>
        <time>2018-05-19T14:32:43.452Z</time>
      </trkpt>
      <trkpt lat="43.08568667" lon="-4.22099167">
        <ele>910.0</ele>
        <time>2018-05-19T14:32:44.457Z</time>
      </trkpt>
      <trkpt lat="43.08568667" lon="-4.22099167">
        <ele>910.0</ele>
        <time>2018-05-19T14:32:45.455Z</time>
      </trkpt>
      <trkpt lat="43.08569667" lon="-4.221035">
        <ele>910.0</ele>
        <time>2018-05-19T14:32:46.456Z</time>
      </trkpt>
      <trkpt lat="43.0857" lon="-4.221055">
        <ele>910.0</ele>
        <time>2018-05-19T14:32:47.455Z</time>
      </trkpt>
      <trkpt lat="43.0857" lon="-4.22107667">
        <ele>910.0</ele>
        <time>2018-05-19T14:32:48.457Z</time>
      </trkpt>
      <trkpt lat="43.08570333" lon="-4.22109333">
        <ele>910.0</ele>
        <time>2018-05-19T14:32:49.456Z</time>
      </trkpt>
      <trkpt lat="43.08570667" lon="-4.22111667">
        <ele>911.0</ele>
        <time>2018-05-19T14:32:50.454Z</time>
      </trkpt>
      <trkpt lat="43.08570667" lon="-4.22111667">
        <ele>911.0</ele>
        <time>2018-05-19T14:32:51.452Z</time>
      </trkpt>
      <trkpt lat="43.08572333" lon="-4.221175">
        <ele>911.0</ele>
        <time>2018-05-19T14:32:52.456Z</time>
      </trkpt>
      <trkpt lat="43.08573" lon="-4.221205">
        <ele>911.0</ele>
        <time>2018-05-19T14:32:53.487Z</time>
      </trkpt>
      <trkpt lat="43.085735" lon="-4.22123667">
        <ele>911.0</ele>
        <time>2018-05-19T14:32:54.473Z</time>
      </trkpt>
      <trkpt lat="43.085735" lon="-4.22123667">
        <ele>911.0</ele>
        <time>2018-05-19T14:32:55.456Z</time>
      </trkpt>
      <trkpt lat="43.08574667" lon="-4.22129833">
        <ele>911.0</ele>
        <time>2018-05-19T14:32:56.457Z</time>
      </trkpt>
      <trkpt lat="43.08574667" lon="-4.22129833">
        <ele>911.0</ele>
        <time>2018-05-19T14:32:57.454Z</time>
      </trkpt>
      <trkpt lat="43.08576167" lon="-4.22135167">
        <ele>911.0</ele>
        <time>2018-05-19T14:32:58.456Z</time>
      </trkpt>
      <trkpt lat="43.08576167" lon="-4.22135167">
        <ele>911.0</ele>
        <time>2018-05-19T14:32:59.454Z</time>
      </trkpt>
      <trkpt lat="43.085775" lon="-4.22139167">
        <ele>911.0</ele>
        <time>2018-05-19T14:33:00.451Z</time>
      </trkpt>
      <trkpt lat="43.085775" lon="-4.22139167">
        <ele>911.0</ele>
        <time>2018-05-19T14:33:01.454Z</time>
      </trkpt>
      <trkpt lat="43.08579167" lon="-4.22144167">
        <ele>911.0</ele>
        <time>2018-05-19T14:33:02.457Z</time>
      </trkpt>
      <trkpt lat="43.08579167" lon="-4.22144167">
        <ele>911.0</ele>
        <time>2018-05-19T14:33:03.451Z</time>
      </trkpt>
      <trkpt lat="43.08580667" lon="-4.22148">
        <ele>911.0</ele>
        <time>2018-05-19T14:33:04.456Z</time>
      </trkpt>
      <trkpt lat="43.08580667" lon="-4.22148">
        <ele>911.0</ele>
        <time>2018-05-19T14:33:05.454Z</time>
      </trkpt>
      <trkpt lat="43.08582667" lon="-4.221515">
        <ele>911.0</ele>
        <time>2018-05-19T14:33:06.458Z</time>
      </trkpt>
      <trkpt lat="43.08582667" lon="-4.221515">
        <ele>911.0</ele>
        <time>2018-05-19T14:33:07.448Z</time>
      </trkpt>
      <trkpt lat="43.08584167" lon="-4.221565">
        <ele>911.0</ele>
        <time>2018-05-19T14:33:08.456Z</time>
      </trkpt>
      <trkpt lat="43.08584167" lon="-4.221565">
        <ele>911.0</ele>
        <time>2018-05-19T14:33:09.454Z</time>
      </trkpt>
      <trkpt lat="43.08586333" lon="-4.221615">
        <ele>911.0</ele>
        <time>2018-05-19T14:33:10.457Z</time>
      </trkpt>
      <trkpt lat="43.08586333" lon="-4.221615">
        <ele>911.0</ele>
        <time>2018-05-19T14:33:11.450Z</time>
      </trkpt>
      <trkpt lat="43.08589667" lon="-4.221665">
        <ele>911.0</ele>
        <time>2018-05-19T14:33:12.457Z</time>
      </trkpt>
      <trkpt lat="43.08589667" lon="-4.221665">
        <ele>911.0</ele>
        <time>2018-05-19T14:33:13.453Z</time>
      </trkpt>
      <trkpt lat="43.08593" lon="-4.22169833">
        <ele>912.0</ele>
        <time>2018-05-19T14:33:14.457Z</time>
      </trkpt>
      <trkpt lat="43.08593" lon="-4.22169833">
        <ele>912.0</ele>
        <time>2018-05-19T14:33:15.452Z</time>
      </trkpt>
      <trkpt lat="43.08596333" lon="-4.22173833">
        <ele>912.0</ele>
        <time>2018-05-19T14:33:16.477Z</time>
      </trkpt>
      <trkpt lat="43.08596333" lon="-4.22173833">
        <ele>912.0</ele>
        <time>2018-05-19T14:33:17.463Z</time>
      </trkpt>
      <trkpt lat="43.08599667" lon="-4.22175">
        <ele>912.0</ele>
        <time>2018-05-19T14:33:18.457Z</time>
      </trkpt>
      <trkpt lat="43.08599667" lon="-4.22175">
        <ele>912.0</ele>
        <time>2018-05-19T14:33:19.453Z</time>
      </trkpt>
      <trkpt lat="43.08603667" lon="-4.22174667">
        <ele>912.0</ele>
        <time>2018-05-19T14:33:20.456Z</time>
      </trkpt>
      <trkpt lat="43.08603667" lon="-4.22174667">
        <ele>912.0</ele>
        <time>2018-05-19T14:33:21.453Z</time>
      </trkpt>
      <trkpt lat="43.08607833" lon="-4.22171667">
        <ele>913.0</ele>
        <time>2018-05-19T14:33:22.456Z</time>
      </trkpt>
      <trkpt lat="43.086095" lon="-4.22169667">
        <ele>913.0</ele>
        <time>2018-05-19T14:33:23.472Z</time>
      </trkpt>
      <trkpt lat="43.08611" lon="-4.221675">
        <ele>913.0</ele>
        <time>2018-05-19T14:33:24.463Z</time>
      </trkpt>
      <trkpt lat="43.08611" lon="-4.221675">
        <ele>913.0</ele>
        <time>2018-05-19T14:33:25.454Z</time>
      </trkpt>
      <trkpt lat="43.08613667" lon="-4.22162833">
        <ele>913.0</ele>
        <time>2018-05-19T14:33:26.457Z</time>
      </trkpt>
      <trkpt lat="43.08613667" lon="-4.22162833">
        <ele>913.0</ele>
        <time>2018-05-19T14:33:27.453Z</time>
      </trkpt>
      <trkpt lat="43.08615833" lon="-4.22158167">
        <ele>913.0</ele>
        <time>2018-05-19T14:33:28.456Z</time>
      </trkpt>
      <trkpt lat="43.08616833" lon="-4.22155833">
        <ele>913.0</ele>
        <time>2018-05-19T14:33:29.457Z</time>
      </trkpt>
      <trkpt lat="43.08618" lon="-4.22153833">
        <ele>914.0</ele>
        <time>2018-05-19T14:33:30.458Z</time>
      </trkpt>
      <trkpt lat="43.08618" lon="-4.22153833">
        <ele>914.0</ele>
        <time>2018-05-19T14:33:31.454Z</time>
      </trkpt>
      <trkpt lat="43.086205" lon="-4.221495">
        <ele>914.0</ele>
        <time>2018-05-19T14:33:32.454Z</time>
      </trkpt>
      <trkpt lat="43.086205" lon="-4.221495">
        <ele>914.0</ele>
        <time>2018-05-19T14:33:33.455Z</time>
      </trkpt>
      <trkpt lat="43.086225" lon="-4.22145">
        <ele>914.0</ele>
        <time>2018-05-19T14:33:34.456Z</time>
      </trkpt>
      <trkpt lat="43.086225" lon="-4.22145">
        <ele>914.0</ele>
        <time>2018-05-19T14:33:35.450Z</time>
      </trkpt>
      <trkpt lat="43.08624667" lon="-4.221405">
        <ele>915.0</ele>
        <time>2018-05-19T14:33:36.458Z</time>
      </trkpt>
      <trkpt lat="43.08624667" lon="-4.221405">
        <ele>915.0</ele>
        <time>2018-05-19T14:33:37.459Z</time>
      </trkpt>
      <trkpt lat="43.08626833" lon="-4.22136667">
        <ele>915.0</ele>
        <time>2018-05-19T14:33:38.456Z</time>
      </trkpt>
      <trkpt lat="43.08626833" lon="-4.22136667">
        <ele>915.0</ele>
        <time>2018-05-19T14:33:39.453Z</time>
      </trkpt>
      <trkpt lat="43.08629167" lon="-4.22132667">
        <ele>916.0</ele>
        <time>2018-05-19T14:33:40.455Z</time>
      </trkpt>
      <trkpt lat="43.08629167" lon="-4.22132667">
        <ele>916.0</ele>
        <time>2018-05-19T14:33:41.454Z</time>
      </trkpt>
      <trkpt lat="43.086315" lon="-4.22129333">
        <ele>916.0</ele>
        <time>2018-05-19T14:33:42.456Z</time>
      </trkpt>
      <trkpt lat="43.086315" lon="-4.22129333">
        <ele>916.0</ele>
        <time>2018-05-19T14:33:43.454Z</time>
      </trkpt>
      <trkpt lat="43.08633833" lon="-4.22126167">
        <ele>916.0</ele>
        <time>2018-05-19T14:33:44.454Z</time>
      </trkpt>
      <trkpt lat="43.08633833" lon="-4.22126167">
        <ele>916.0</ele>
        <time>2018-05-19T14:33:45.478Z</time>
      </trkpt>
      <trkpt lat="43.08637167" lon="-4.221205">
        <ele>918.0</ele>
        <time>2018-05-19T14:33:46.473Z</time>
      </trkpt>
      <trkpt lat="43.08637167" lon="-4.221205">
        <ele>918.0</ele>
        <time>2018-05-19T14:33:47.458Z</time>
      </trkpt>
      <trkpt lat="43.08639667" lon="-4.22117667">
        <ele>919.0</ele>
        <time>2018-05-19T14:33:48.457Z</time>
      </trkpt>
      <trkpt lat="43.08639667" lon="-4.22117667">
        <ele>919.0</ele>
        <time>2018-05-19T14:33:49.454Z</time>
      </trkpt>
      <trkpt lat="43.086415" lon="-4.22115667">
        <ele>920.0</ele>
        <time>2018-05-19T14:33:50.456Z</time>
      </trkpt>
      <trkpt lat="43.086415" lon="-4.22115667">
        <ele>920.0</ele>
        <time>2018-05-19T14:33:51.453Z</time>
      </trkpt>
      <trkpt lat="43.086435" lon="-4.22114667">
        <ele>920.0</ele>
        <time>2018-05-19T14:33:52.455Z</time>
      </trkpt>
      <trkpt lat="43.086435" lon="-4.22114667">
        <ele>920.0</ele>
        <time>2018-05-19T14:33:53.449Z</time>
      </trkpt>
      <trkpt lat="43.08646333" lon="-4.22113667">
        <ele>921.0</ele>
        <time>2018-05-19T14:33:54.469Z</time>
      </trkpt>
      <trkpt lat="43.08646333" lon="-4.22113667">
        <ele>921.0</ele>
        <time>2018-05-19T14:33:55.454Z</time>
      </trkpt>
      <trkpt lat="43.08649333" lon="-4.22114">
        <ele>921.0</ele>
        <time>2018-05-19T14:33:56.457Z</time>
      </trkpt>
      <trkpt lat="43.08649333" lon="-4.22114">
        <ele>921.0</ele>
        <time>2018-05-19T14:33:57.451Z</time>
      </trkpt>
      <trkpt lat="43.08652833" lon="-4.22115167">
        <ele>922.0</ele>
        <time>2018-05-19T14:33:58.456Z</time>
      </trkpt>
      <trkpt lat="43.08652833" lon="-4.22115167">
        <ele>922.0</ele>
        <time>2018-05-19T14:33:59.454Z</time>
      </trkpt>
      <trkpt lat="43.08656167" lon="-4.22115167">
        <ele>923.0</ele>
        <time>2018-05-19T14:34:00.458Z</time>
      </trkpt>
      <trkpt lat="43.08656167" lon="-4.22115167">
        <ele>923.0</ele>
        <time>2018-05-19T14:34:01.454Z</time>
      </trkpt>
      <trkpt lat="43.086595" lon="-4.221155">
        <ele>924.0</ele>
        <time>2018-05-19T14:34:02.456Z</time>
      </trkpt>
      <trkpt lat="43.086595" lon="-4.221155">
        <ele>924.0</ele>
        <time>2018-05-19T14:34:03.450Z</time>
      </trkpt>
      <trkpt lat="43.086625" lon="-4.22116333">
        <ele>925.0</ele>
        <time>2018-05-19T14:34:04.456Z</time>
      </trkpt>
      <trkpt lat="43.086625" lon="-4.22116333">
        <ele>925.0</ele>
        <time>2018-05-19T14:34:05.453Z</time>
      </trkpt>
      <trkpt lat="43.086655" lon="-4.22118">
        <ele>926.0</ele>
        <time>2018-05-19T14:34:06.457Z</time>
      </trkpt>
      <trkpt lat="43.086655" lon="-4.22118">
        <ele>926.0</ele>
        <time>2018-05-19T14:34:07.453Z</time>
      </trkpt>
      <trkpt lat="43.08668333" lon="-4.22121">
        <ele>928.0</ele>
        <time>2018-05-19T14:34:08.456Z</time>
      </trkpt>
      <trkpt lat="43.08669667" lon="-4.22122">
        <ele>929.0</ele>
        <time>2018-05-19T14:34:09.455Z</time>
      </trkpt>
      <trkpt lat="43.08669667" lon="-4.22122">
        <ele>929.0</ele>
        <time>2018-05-19T14:34:10.453Z</time>
      </trkpt>
      <trkpt lat="43.08672167" lon="-4.22123">
        <ele>930.0</ele>
        <time>2018-05-19T14:34:11.455Z</time>
      </trkpt>
      <trkpt lat="43.08673833" lon="-4.221235">
        <ele>931.0</ele>
        <time>2018-05-19T14:34:12.457Z</time>
      </trkpt>
      <trkpt lat="43.08673833" lon="-4.221235">
        <ele>931.0</ele>
        <time>2018-05-19T14:34:13.464Z</time>
      </trkpt>
      <trkpt lat="43.08676333" lon="-4.22126667">
        <ele>932.0</ele>
        <time>2018-05-19T14:34:14.456Z</time>
      </trkpt>
      <trkpt lat="43.08676333" lon="-4.22126667">
        <ele>932.0</ele>
        <time>2018-05-19T14:34:15.452Z</time>
      </trkpt>
      <trkpt lat="43.08680167" lon="-4.22130333">
        <ele>933.0</ele>
        <time>2018-05-19T14:34:16.458Z</time>
      </trkpt>
      <trkpt lat="43.08680167" lon="-4.22130333">
        <ele>933.0</ele>
        <time>2018-05-19T14:34:17.453Z</time>
      </trkpt>
      <trkpt lat="43.08681833" lon="-4.22133833">
        <ele>934.0</ele>
        <time>2018-05-19T14:34:18.456Z</time>
      </trkpt>
      <trkpt lat="43.08681833" lon="-4.22133833">
        <ele>934.0</ele>
        <time>2018-05-19T14:34:19.453Z</time>
      </trkpt>
      <trkpt lat="43.08684333" lon="-4.22137">
        <ele>935.0</ele>
        <time>2018-05-19T14:34:20.456Z</time>
      </trkpt>
      <trkpt lat="43.08685667" lon="-4.22138167">
        <ele>935.0</ele>
        <time>2018-05-19T14:34:21.457Z</time>
      </trkpt>
      <trkpt lat="43.08687167" lon="-4.22139333">
        <ele>935.0</ele>
        <time>2018-05-19T14:34:22.457Z</time>
      </trkpt>
      <trkpt lat="43.08687167" lon="-4.22139333">
        <ele>935.0</ele>
        <time>2018-05-19T14:34:23.451Z</time>
      </trkpt>
      <trkpt lat="43.086895" lon="-4.22141833">
        <ele>935.0</ele>
        <time>2018-05-19T14:34:24.456Z</time>
      </trkpt>
      <trkpt lat="43.08691167" lon="-4.22142833">
        <ele>935.0</ele>
        <time>2018-05-19T14:34:25.457Z</time>
      </trkpt>
      <trkpt lat="43.08692667" lon="-4.22144167">
        <ele>936.0</ele>
        <time>2018-05-19T14:34:26.457Z</time>
      </trkpt>
      <trkpt lat="43.08692667" lon="-4.22144167">
        <ele>936.0</ele>
        <time>2018-05-19T14:34:27.451Z</time>
      </trkpt>
      <trkpt lat="43.08694833" lon="-4.221475">
        <ele>936.0</ele>
        <time>2018-05-19T14:34:28.456Z</time>
      </trkpt>
      <trkpt lat="43.08696" lon="-4.22149167">
        <ele>936.0</ele>
        <time>2018-05-19T14:34:29.456Z</time>
      </trkpt>
      <trkpt lat="43.08697167" lon="-4.22151">
        <ele>936.0</ele>
        <time>2018-05-19T14:34:30.456Z</time>
      </trkpt>
      <trkpt lat="43.08697167" lon="-4.22151">
        <ele>936.0</ele>
        <time>2018-05-19T14:34:31.454Z</time>
      </trkpt>
      <trkpt lat="43.086995" lon="-4.22154167">
        <ele>936.0</ele>
        <time>2018-05-19T14:34:32.477Z</time>
      </trkpt>
      <trkpt lat="43.086995" lon="-4.22154167">
        <ele>936.0</ele>
        <time>2018-05-19T14:34:33.473Z</time>
      </trkpt>
      <trkpt lat="43.08702" lon="-4.22157667">
        <ele>937.0</ele>
        <time>2018-05-19T14:34:34.463Z</time>
      </trkpt>
      <trkpt lat="43.08702" lon="-4.22157667">
        <ele>937.0</ele>
        <time>2018-05-19T14:34:35.453Z</time>
      </trkpt>
      <trkpt lat="43.08704333" lon="-4.22161">
        <ele>937.0</ele>
        <time>2018-05-19T14:34:36.456Z</time>
      </trkpt>
      <trkpt lat="43.08704333" lon="-4.22161">
        <ele>937.0</ele>
        <time>2018-05-19T14:34:37.456Z</time>
      </trkpt>
      <trkpt lat="43.08706667" lon="-4.221645">
        <ele>937.0</ele>
        <time>2018-05-19T14:34:38.453Z</time>
      </trkpt>
      <trkpt lat="43.08706667" lon="-4.221645">
        <ele>937.0</ele>
        <time>2018-05-19T14:34:39.454Z</time>
      </trkpt>
      <trkpt lat="43.08709167" lon="-4.22167833">
        <ele>937.0</ele>
        <time>2018-05-19T14:34:40.468Z</time>
      </trkpt>
      <trkpt lat="43.087105" lon="-4.221695">
        <ele>937.0</ele>
        <time>2018-05-19T14:34:41.456Z</time>
      </trkpt>
      <trkpt lat="43.087115" lon="-4.22171">
        <ele>937.0</ele>
        <time>2018-05-19T14:34:42.456Z</time>
      </trkpt>
      <trkpt lat="43.087115" lon="-4.22171">
        <ele>937.0</ele>
        <time>2018-05-19T14:34:43.453Z</time>
      </trkpt>
      <trkpt lat="43.08714167" lon="-4.221735">
        <ele>937.0</ele>
        <time>2018-05-19T14:34:44.454Z</time>
      </trkpt>
      <trkpt lat="43.08714167" lon="-4.221735">
        <ele>937.0</ele>
        <time>2018-05-19T14:34:45.454Z</time>
      </trkpt>
      <trkpt lat="43.087165" lon="-4.221775">
        <ele>937.0</ele>
        <time>2018-05-19T14:34:46.456Z</time>
      </trkpt>
      <trkpt lat="43.08717667" lon="-4.221795">
        <ele>937.0</ele>
        <time>2018-05-19T14:34:47.454Z</time>
      </trkpt>
      <trkpt lat="43.08717667" lon="-4.221795">
        <ele>937.0</ele>
        <time>2018-05-19T14:34:48.473Z</time>
      </trkpt>
      <trkpt lat="43.08719333" lon="-4.221835">
        <ele>937.0</ele>
        <time>2018-05-19T14:34:49.458Z</time>
      </trkpt>
      <trkpt lat="43.0872" lon="-4.22184667">
        <ele>937.0</ele>
        <time>2018-05-19T14:34:50.458Z</time>
      </trkpt>
      <trkpt lat="43.0872" lon="-4.22184667">
        <ele>937.0</ele>
        <time>2018-05-19T14:34:51.450Z</time>
      </trkpt>
      <trkpt lat="43.08721333" lon="-4.22187833">
        <ele>936.0</ele>
        <time>2018-05-19T14:34:52.457Z</time>
      </trkpt>
      <trkpt lat="43.087225" lon="-4.22189833">
        <ele>936.0</ele>
        <time>2018-05-19T14:34:53.468Z</time>
      </trkpt>
      <trkpt lat="43.087225" lon="-4.22189833">
        <ele>936.0</ele>
        <time>2018-05-19T14:34:54.454Z</time>
      </trkpt>
      <trkpt lat="43.08725333" lon="-4.22193167">
        <ele>936.0</ele>
        <time>2018-05-19T14:34:55.456Z</time>
      </trkpt>
      <trkpt lat="43.08725333" lon="-4.22193167">
        <ele>936.0</ele>
        <time>2018-05-19T14:34:56.454Z</time>
      </trkpt>
      <trkpt lat="43.087275" lon="-4.22196333">
        <ele>936.0</ele>
        <time>2018-05-19T14:34:57.455Z</time>
      </trkpt>
      <trkpt lat="43.087275" lon="-4.22196333">
        <ele>936.0</ele>
        <time>2018-05-19T14:34:58.454Z</time>
      </trkpt>
      <trkpt lat="43.08729833" lon="-4.221995">
        <ele>936.0</ele>
        <time>2018-05-19T14:34:59.455Z</time>
      </trkpt>
      <trkpt lat="43.08730833" lon="-4.22201333">
        <ele>936.0</ele>
        <time>2018-05-19T14:35:00.465Z</time>
      </trkpt>
      <trkpt lat="43.08730833" lon="-4.22201333">
        <ele>936.0</ele>
        <time>2018-05-19T14:35:01.453Z</time>
      </trkpt>
      <trkpt lat="43.087325" lon="-4.22205167">
        <ele>936.0</ele>
        <time>2018-05-19T14:35:02.457Z</time>
      </trkpt>
      <trkpt lat="43.087325" lon="-4.22205167">
        <ele>936.0</ele>
        <time>2018-05-19T14:35:03.454Z</time>
      </trkpt>
      <trkpt lat="43.08734333" lon="-4.22208833">
        <ele>936.0</ele>
        <time>2018-05-19T14:35:04.455Z</time>
      </trkpt>
      <trkpt lat="43.08734333" lon="-4.22208833">
        <ele>936.0</ele>
        <time>2018-05-19T14:35:05.450Z</time>
      </trkpt>
      <trkpt lat="43.087365" lon="-4.22212167">
        <ele>936.0</ele>
        <time>2018-05-19T14:35:06.457Z</time>
      </trkpt>
      <trkpt lat="43.087365" lon="-4.22212167">
        <ele>936.0</ele>
        <time>2018-05-19T14:35:07.452Z</time>
      </trkpt>
      <trkpt lat="43.087385" lon="-4.22215833">
        <ele>936.0</ele>
        <time>2018-05-19T14:35:08.470Z</time>
      </trkpt>
      <trkpt lat="43.087385" lon="-4.22215833">
        <ele>936.0</ele>
        <time>2018-05-19T14:35:09.477Z</time>
      </trkpt>
      <trkpt lat="43.08740333" lon="-4.22219">
        <ele>936.0</ele>
        <time>2018-05-19T14:35:10.463Z</time>
      </trkpt>
      <trkpt lat="43.08741333" lon="-4.22221167">
        <ele>936.0</ele>
        <time>2018-05-19T14:35:11.456Z</time>
      </trkpt>
      <trkpt lat="43.08742333" lon="-4.22223">
        <ele>937.0</ele>
        <time>2018-05-19T14:35:12.457Z</time>
      </trkpt>
      <trkpt lat="43.08742333" lon="-4.22223">
        <ele>937.0</ele>
        <time>2018-05-19T14:35:13.453Z</time>
      </trkpt>
      <trkpt lat="43.08744" lon="-4.22227">
        <ele>937.0</ele>
        <time>2018-05-19T14:35:14.457Z</time>
      </trkpt>
      <trkpt lat="43.08744" lon="-4.22227">
        <ele>937.0</ele>
        <time>2018-05-19T14:35:15.454Z</time>
      </trkpt>
      <trkpt lat="43.08745667" lon="-4.22231333">
        <ele>937.0</ele>
        <time>2018-05-19T14:35:16.456Z</time>
      </trkpt>
      <trkpt lat="43.08745667" lon="-4.22231333">
        <ele>937.0</ele>
        <time>2018-05-19T14:35:17.453Z</time>
      </trkpt>
      <trkpt lat="43.087475" lon="-4.22235667">
        <ele>938.0</ele>
        <time>2018-05-19T14:35:18.472Z</time>
      </trkpt>
      <trkpt lat="43.08748667" lon="-4.22238333">
        <ele>938.0</ele>
        <time>2018-05-19T14:35:19.464Z</time>
      </trkpt>
      <trkpt lat="43.08749333" lon="-4.22241">
        <ele>938.0</ele>
        <time>2018-05-19T14:35:20.458Z</time>
      </trkpt>
      <trkpt lat="43.08749333" lon="-4.22241">
        <ele>938.0</ele>
        <time>2018-05-19T14:35:21.453Z</time>
      </trkpt>
      <trkpt lat="43.08750333" lon="-4.22245667">
        <ele>939.0</ele>
        <time>2018-05-19T14:35:22.455Z</time>
      </trkpt>
      <trkpt lat="43.087505" lon="-4.22248167">
        <ele>939.0</ele>
        <time>2018-05-19T14:35:23.455Z</time>
      </trkpt>
      <trkpt lat="43.08750667" lon="-4.222505">
        <ele>939.0</ele>
        <time>2018-05-19T14:35:24.456Z</time>
      </trkpt>
      <trkpt lat="43.08750667" lon="-4.222505">
        <ele>939.0</ele>
        <time>2018-05-19T14:35:25.453Z</time>
      </trkpt>
      <trkpt lat="43.08751833" lon="-4.22254833">
        <ele>939.0</ele>
        <time>2018-05-19T14:35:26.457Z</time>
      </trkpt>
      <trkpt lat="43.08751833" lon="-4.22254833">
        <ele>939.0</ele>
        <time>2018-05-19T14:35:27.451Z</time>
      </trkpt>
      <trkpt lat="43.08753167" lon="-4.22259833">
        <ele>940.0</ele>
        <time>2018-05-19T14:35:28.455Z</time>
      </trkpt>
      <trkpt lat="43.08753167" lon="-4.22259833">
        <ele>940.0</ele>
        <time>2018-05-19T14:35:29.454Z</time>
      </trkpt>
      <trkpt lat="43.08754333" lon="-4.22265333">
        <ele>940.0</ele>
        <time>2018-05-19T14:35:30.456Z</time>
      </trkpt>
      <trkpt lat="43.08754333" lon="-4.22265333">
        <ele>940.0</ele>
        <time>2018-05-19T14:35:31.452Z</time>
      </trkpt>
      <trkpt lat="43.08756167" lon="-4.22270167">
        <ele>940.0</ele>
        <time>2018-05-19T14:35:32.453Z</time>
      </trkpt>
      <trkpt lat="43.08756167" lon="-4.22270167">
        <ele>940.0</ele>
        <time>2018-05-19T14:35:33.454Z</time>
      </trkpt>
      <trkpt lat="43.08759167" lon="-4.222735">
        <ele>941.0</ele>
        <time>2018-05-19T14:35:34.454Z</time>
      </trkpt>
      <trkpt lat="43.08759167" lon="-4.222735">
        <ele>941.0</ele>
        <time>2018-05-19T14:35:35.453Z</time>
      </trkpt>
      <trkpt lat="43.08762" lon="-4.222765">
        <ele>942.0</ele>
        <time>2018-05-19T14:35:36.457Z</time>
      </trkpt>
      <trkpt lat="43.08762" lon="-4.222765">
        <ele>942.0</ele>
        <time>2018-05-19T14:35:37.454Z</time>
      </trkpt>
      <trkpt lat="43.08765" lon="-4.22279">
        <ele>943.0</ele>
        <time>2018-05-19T14:35:38.463Z</time>
      </trkpt>
      <trkpt lat="43.08765" lon="-4.22279">
        <ele>943.0</ele>
        <time>2018-05-19T14:35:39.453Z</time>
      </trkpt>
      <trkpt lat="43.08768167" lon="-4.22281667">
        <ele>944.0</ele>
        <time>2018-05-19T14:35:40.453Z</time>
      </trkpt>
      <trkpt lat="43.08769333" lon="-4.22283333">
        <ele>944.0</ele>
        <time>2018-05-19T14:35:41.456Z</time>
      </trkpt>
      <trkpt lat="43.08769333" lon="-4.22283333">
        <ele>944.0</ele>
        <time>2018-05-19T14:35:42.454Z</time>
      </trkpt>
      <trkpt lat="43.08771" lon="-4.22286667">
        <ele>945.0</ele>
        <time>2018-05-19T14:35:43.456Z</time>
      </trkpt>
      <trkpt lat="43.08771833" lon="-4.22288333">
        <ele>945.0</ele>
        <time>2018-05-19T14:35:44.456Z</time>
      </trkpt>
      <trkpt lat="43.08771833" lon="-4.22288333">
        <ele>945.0</ele>
        <time>2018-05-19T14:35:45.452Z</time>
      </trkpt>
      <trkpt lat="43.08772833" lon="-4.22292167">
        <ele>945.0</ele>
        <time>2018-05-19T14:35:46.455Z</time>
      </trkpt>
      <trkpt lat="43.08772833" lon="-4.22292167">
        <ele>945.0</ele>
        <time>2018-05-19T14:35:47.454Z</time>
      </trkpt>
      <trkpt lat="43.08774333" lon="-4.22296167">
        <ele>945.0</ele>
        <time>2018-05-19T14:35:48.456Z</time>
      </trkpt>
      <trkpt lat="43.08774333" lon="-4.22296167">
        <ele>945.0</ele>
        <time>2018-05-19T14:35:49.450Z</time>
      </trkpt>
      <trkpt lat="43.08775" lon="-4.223">
        <ele>945.0</ele>
        <time>2018-05-19T14:35:50.457Z</time>
      </trkpt>
      <trkpt lat="43.08775" lon="-4.223">
        <ele>945.0</ele>
        <time>2018-05-19T14:35:51.452Z</time>
      </trkpt>
      <trkpt lat="43.08774833" lon="-4.22304833">
        <ele>946.0</ele>
        <time>2018-05-19T14:35:52.455Z</time>
      </trkpt>
      <trkpt lat="43.08774333" lon="-4.22306667">
        <ele>946.0</ele>
        <time>2018-05-19T14:35:53.452Z</time>
      </trkpt>
      <trkpt lat="43.08773" lon="-4.22308333">
        <ele>946.0</ele>
        <time>2018-05-19T14:35:54.457Z</time>
      </trkpt>
      <trkpt lat="43.08773" lon="-4.22308333">
        <ele>946.0</ele>
        <time>2018-05-19T14:35:55.454Z</time>
      </trkpt>
      <trkpt lat="43.0877" lon="-4.22309667">
        <ele>946.0</ele>
        <time>2018-05-19T14:35:56.455Z</time>
      </trkpt>
      <trkpt lat="43.0877" lon="-4.22309667">
        <ele>946.0</ele>
        <time>2018-05-19T14:35:57.453Z</time>
      </trkpt>
      <trkpt lat="43.08766" lon="-4.22309333">
        <ele>947.0</ele>
        <time>2018-05-19T14:35:58.455Z</time>
      </trkpt>
      <trkpt lat="43.08766" lon="-4.22309333">
        <ele>947.0</ele>
        <time>2018-05-19T14:35:59.452Z</time>
      </trkpt>
      <trkpt lat="43.08762833" lon="-4.223085">
        <ele>947.0</ele>
        <time>2018-05-19T14:36:00.470Z</time>
      </trkpt>
      <trkpt lat="43.08762833" lon="-4.223085">
        <ele>947.0</ele>
        <time>2018-05-19T14:36:01.453Z</time>
      </trkpt>
      <trkpt lat="43.08760167" lon="-4.22308">
        <ele>948.0</ele>
        <time>2018-05-19T14:36:02.455Z</time>
      </trkpt>
      <trkpt lat="43.08760167" lon="-4.22308">
        <ele>948.0</ele>
        <time>2018-05-19T14:36:03.476Z</time>
      </trkpt>
      <trkpt lat="43.08757" lon="-4.22306833">
        <ele>949.0</ele>
        <time>2018-05-19T14:36:04.465Z</time>
      </trkpt>
      <trkpt lat="43.08757" lon="-4.22306833">
        <ele>949.0</ele>
        <time>2018-05-19T14:36:05.450Z</time>
      </trkpt>
      <trkpt lat="43.08754333" lon="-4.22305">
        <ele>949.0</ele>
        <time>2018-05-19T14:36:06.456Z</time>
      </trkpt>
      <trkpt lat="43.08753" lon="-4.223035">
        <ele>949.0</ele>
        <time>2018-05-19T14:36:07.456Z</time>
      </trkpt>
      <trkpt lat="43.08753" lon="-4.223035">
        <ele>949.0</ele>
        <time>2018-05-19T14:36:08.454Z</time>
      </trkpt>
      <trkpt lat="43.08751" lon="-4.22301">
        <ele>950.0</ele>
        <time>2018-05-19T14:36:09.455Z</time>
      </trkpt>
      <trkpt lat="43.08749667" lon="-4.223005">
        <ele>951.0</ele>
        <time>2018-05-19T14:36:10.456Z</time>
      </trkpt>
      <trkpt lat="43.08749667" lon="-4.223005">
        <ele>951.0</ele>
        <time>2018-05-19T14:36:11.454Z</time>
      </trkpt>
      <trkpt lat="43.08746833" lon="-4.22299167">
        <ele>951.0</ele>
        <time>2018-05-19T14:36:12.456Z</time>
      </trkpt>
      <trkpt lat="43.08746833" lon="-4.22299167">
        <ele>951.0</ele>
        <time>2018-05-19T14:36:13.450Z</time>
      </trkpt>
      <trkpt lat="43.08743833" lon="-4.22298167">
        <ele>952.0</ele>
        <time>2018-05-19T14:36:14.456Z</time>
      </trkpt>
      <trkpt lat="43.08743833" lon="-4.22298167">
        <ele>952.0</ele>
        <time>2018-05-19T14:36:15.453Z</time>
      </trkpt>
      <trkpt lat="43.08740833" lon="-4.22298">
        <ele>952.0</ele>
        <time>2018-05-19T14:36:16.456Z</time>
      </trkpt>
      <trkpt lat="43.08740833" lon="-4.22298">
        <ele>952.0</ele>
        <time>2018-05-19T14:36:17.452Z</time>
      </trkpt>
      <trkpt lat="43.08737333" lon="-4.22299">
        <ele>953.0</ele>
        <time>2018-05-19T14:36:18.454Z</time>
      </trkpt>
      <trkpt lat="43.08735333" lon="-4.222995">
        <ele>953.0</ele>
        <time>2018-05-19T14:36:19.456Z</time>
      </trkpt>
      <trkpt lat="43.08733" lon="-4.22298833">
        <ele>953.0</ele>
        <time>2018-05-19T14:36:20.455Z</time>
      </trkpt>
      <trkpt lat="43.08733" lon="-4.22298833">
        <ele>953.0</ele>
        <time>2018-05-19T14:36:21.453Z</time>
      </trkpt>
      <trkpt lat="43.08730167" lon="-4.22302">
        <ele>954.0</ele>
        <time>2018-05-19T14:36:22.455Z</time>
      </trkpt>
      <trkpt lat="43.08730167" lon="-4.22302">
        <ele>954.0</ele>
        <time>2018-05-19T14:36:23.481Z</time>
      </trkpt>
      <trkpt lat="43.08727333" lon="-4.223055">
        <ele>955.0</ele>
        <time>2018-05-19T14:36:24.468Z</time>
      </trkpt>
      <trkpt lat="43.08726" lon="-4.22306833">
        <ele>956.0</ele>
        <time>2018-05-19T14:36:25.456Z</time>
      </trkpt>
      <trkpt lat="43.08724833" lon="-4.223085">
        <ele>956.0</ele>
        <time>2018-05-19T14:36:26.456Z</time>
      </trkpt>
      <trkpt lat="43.08724833" lon="-4.223085">
        <ele>956.0</ele>
        <time>2018-05-19T14:36:27.453Z</time>
      </trkpt>
      <trkpt lat="43.08721667" lon="-4.223125">
        <ele>957.0</ele>
        <time>2018-05-19T14:36:28.463Z</time>
      </trkpt>
      <trkpt lat="43.08719833" lon="-4.22314333">
        <ele>957.0</ele>
        <time>2018-05-19T14:36:29.454Z</time>
      </trkpt>
      <trkpt lat="43.08719833" lon="-4.22314333">
        <ele>957.0</ele>
        <time>2018-05-19T14:36:30.451Z</time>
      </trkpt>
      <trkpt lat="43.08717667" lon="-4.22319167">
        <ele>958.0</ele>
        <time>2018-05-19T14:36:31.455Z</time>
      </trkpt>
      <trkpt lat="43.08716833" lon="-4.223215">
        <ele>958.0</ele>
        <time>2018-05-19T14:36:32.456Z</time>
      </trkpt>
      <trkpt lat="43.08716833" lon="-4.223215">
        <ele>958.0</ele>
        <time>2018-05-19T14:36:33.453Z</time>
      </trkpt>
      <trkpt lat="43.08715833" lon="-4.22326167">
        <ele>959.0</ele>
        <time>2018-05-19T14:36:34.454Z</time>
      </trkpt>
      <trkpt lat="43.08715833" lon="-4.22326167">
        <ele>959.0</ele>
        <time>2018-05-19T14:36:35.451Z</time>
      </trkpt>
      <trkpt lat="43.08714833" lon="-4.22330833">
        <ele>959.0</ele>
        <time>2018-05-19T14:36:36.456Z</time>
      </trkpt>
      <trkpt lat="43.08714833" lon="-4.22330833">
        <ele>959.0</ele>
        <time>2018-05-19T14:36:37.453Z</time>
      </trkpt>
      <trkpt lat="43.08714167" lon="-4.223355">
        <ele>960.0</ele>
        <time>2018-05-19T14:36:38.452Z</time>
      </trkpt>
      <trkpt lat="43.08714167" lon="-4.223355">
        <ele>960.0</ele>
        <time>2018-05-19T14:36:39.450Z</time>
      </trkpt>
      <trkpt lat="43.087135" lon="-4.22340333">
        <ele>960.0</ele>
        <time>2018-05-19T14:36:40.455Z</time>
      </trkpt>
      <trkpt lat="43.08713167" lon="-4.22343">
        <ele>961.0</ele>
        <time>2018-05-19T14:36:41.457Z</time>
      </trkpt>
      <trkpt lat="43.08713167" lon="-4.22343">
        <ele>961.0</ele>
        <time>2018-05-19T14:36:42.453Z</time>
      </trkpt>
      <trkpt lat="43.08712667" lon="-4.22348">
        <ele>961.0</ele>
        <time>2018-05-19T14:36:43.456Z</time>
      </trkpt>
      <trkpt lat="43.08712333" lon="-4.22350333">
        <ele>961.0</ele>
        <time>2018-05-19T14:36:44.455Z</time>
      </trkpt>
      <trkpt lat="43.08712333" lon="-4.22350333">
        <ele>961.0</ele>
        <time>2018-05-19T14:36:45.453Z</time>
      </trkpt>
      <trkpt lat="43.08711833" lon="-4.22355">
        <ele>961.0</ele>
        <time>2018-05-19T14:36:46.456Z</time>
      </trkpt>
      <trkpt lat="43.08711833" lon="-4.22355">
        <ele>961.0</ele>
        <time>2018-05-19T14:36:47.449Z</time>
      </trkpt>
      <trkpt lat="43.08710833" lon="-4.2236">
        <ele>961.0</ele>
        <time>2018-05-19T14:36:48.456Z</time>
      </trkpt>
      <trkpt lat="43.08710833" lon="-4.2236">
        <ele>961.0</ele>
        <time>2018-05-19T14:36:49.453Z</time>
      </trkpt>
      <trkpt lat="43.08709833" lon="-4.223645">
        <ele>961.0</ele>
        <time>2018-05-19T14:36:50.455Z</time>
      </trkpt>
      <trkpt lat="43.08709833" lon="-4.223645">
        <ele>961.0</ele>
        <time>2018-05-19T14:36:51.453Z</time>
      </trkpt>
      <trkpt lat="43.08708667" lon="-4.22369333">
        <ele>961.0</ele>
        <time>2018-05-19T14:36:52.455Z</time>
      </trkpt>
      <trkpt lat="43.08708667" lon="-4.22369333">
        <ele>961.0</ele>
        <time>2018-05-19T14:36:53.453Z</time>
      </trkpt>
      <trkpt lat="43.08707333" lon="-4.22374333">
        <ele>961.0</ele>
        <time>2018-05-19T14:36:54.456Z</time>
      </trkpt>
      <trkpt lat="43.08707333" lon="-4.22374333">
        <ele>961.0</ele>
        <time>2018-05-19T14:36:55.452Z</time>
      </trkpt>
      <trkpt lat="43.087055" lon="-4.223785">
        <ele>961.0</ele>
        <time>2018-05-19T14:36:56.455Z</time>
      </trkpt>
      <trkpt lat="43.087055" lon="-4.223785">
        <ele>961.0</ele>
        <time>2018-05-19T14:36:57.457Z</time>
      </trkpt>
      <trkpt lat="43.08704" lon="-4.22383">
        <ele>961.0</ele>
        <time>2018-05-19T14:36:58.455Z</time>
      </trkpt>
      <trkpt lat="43.08703167" lon="-4.22385167">
        <ele>962.0</ele>
        <time>2018-05-19T14:36:59.456Z</time>
      </trkpt>
      <trkpt lat="43.08702167" lon="-4.22387">
        <ele>962.0</ele>
        <time>2018-05-19T14:37:00.481Z</time>
      </trkpt>
      <trkpt lat="43.08702167" lon="-4.22387">
        <ele>962.0</ele>
        <time>2018-05-19T14:37:01.468Z</time>
      </trkpt>
      <trkpt lat="43.087005" lon="-4.22391">
        <ele>963.0</ele>
        <time>2018-05-19T14:37:02.456Z</time>
      </trkpt>
      <trkpt lat="43.087005" lon="-4.22391">
        <ele>963.0</ele>
        <time>2018-05-19T14:37:03.450Z</time>
      </trkpt>
      <trkpt lat="43.08698833" lon="-4.22395167">
        <ele>963.0</ele>
        <time>2018-05-19T14:37:04.455Z</time>
      </trkpt>
      <trkpt lat="43.08698" lon="-4.22397167">
        <ele>964.0</ele>
        <time>2018-05-19T14:37:05.456Z</time>
      </trkpt>
      <trkpt lat="43.08698" lon="-4.22397167">
        <ele>964.0</ele>
        <time>2018-05-19T14:37:06.454Z</time>
      </trkpt>
      <trkpt lat="43.08697167" lon="-4.22401167">
        <ele>965.0</ele>
        <time>2018-05-19T14:37:07.455Z</time>
      </trkpt>
      <trkpt lat="43.08696667" lon="-4.22403167">
        <ele>965.0</ele>
        <time>2018-05-19T14:37:08.456Z</time>
      </trkpt>
      <trkpt lat="43.08696667" lon="-4.22403167">
        <ele>965.0</ele>
        <time>2018-05-19T14:37:09.453Z</time>
      </trkpt>
      <trkpt lat="43.08696" lon="-4.22407">
        <ele>966.0</ele>
        <time>2018-05-19T14:37:10.455Z</time>
      </trkpt>
      <trkpt lat="43.08696" lon="-4.22407">
        <ele>966.0</ele>
        <time>2018-05-19T14:37:11.449Z</time>
      </trkpt>
      <trkpt lat="43.08694833" lon="-4.22411">
        <ele>967.0</ele>
        <time>2018-05-19T14:37:12.457Z</time>
      </trkpt>
      <trkpt lat="43.08694833" lon="-4.22411">
        <ele>967.0</ele>
        <time>2018-05-19T14:37:13.454Z</time>
      </trkpt>
      <trkpt lat="43.08693167" lon="-4.22415">
        <ele>968.0</ele>
        <time>2018-05-19T14:37:14.456Z</time>
      </trkpt>
      <trkpt lat="43.08693167" lon="-4.22415">
        <ele>968.0</ele>
        <time>2018-05-19T14:37:15.453Z</time>
      </trkpt>
      <trkpt lat="43.08692167" lon="-4.22419167">
        <ele>968.0</ele>
        <time>2018-05-19T14:37:16.455Z</time>
      </trkpt>
      <trkpt lat="43.08691667" lon="-4.224215">
        <ele>968.0</ele>
        <time>2018-05-19T14:37:17.455Z</time>
      </trkpt>
      <trkpt lat="43.08691667" lon="-4.224215">
        <ele>968.0</ele>
        <time>2018-05-19T14:37:18.454Z</time>
      </trkpt>
      <trkpt lat="43.08691" lon="-4.22426333">
        <ele>969.0</ele>
        <time>2018-05-19T14:37:19.456Z</time>
      </trkpt>
      <trkpt lat="43.08690833" lon="-4.22428667">
        <ele>969.0</ele>
        <time>2018-05-19T14:37:20.454Z</time>
      </trkpt>
      <trkpt lat="43.08690833" lon="-4.22431">
        <ele>969.0</ele>
        <time>2018-05-19T14:37:21.455Z</time>
      </trkpt>
      <trkpt lat="43.08690833" lon="-4.22431">
        <ele>969.0</ele>
        <time>2018-05-19T14:37:22.452Z</time>
      </trkpt>
      <trkpt lat="43.08690333" lon="-4.22435667">
        <ele>969.0</ele>
        <time>2018-05-19T14:37:23.456Z</time>
      </trkpt>
      <trkpt lat="43.08690333" lon="-4.22435667">
        <ele>969.0</ele>
        <time>2018-05-19T14:37:24.451Z</time>
      </trkpt>
      <trkpt lat="43.08690167" lon="-4.224405">
        <ele>970.0</ele>
        <time>2018-05-19T14:37:25.455Z</time>
      </trkpt>
      <trkpt lat="43.08690333" lon="-4.22442833">
        <ele>970.0</ele>
        <time>2018-05-19T14:37:26.455Z</time>
      </trkpt>
      <trkpt lat="43.08690333" lon="-4.22442833">
        <ele>970.0</ele>
        <time>2018-05-19T14:37:27.453Z</time>
      </trkpt>
      <trkpt lat="43.086905" lon="-4.224485">
        <ele>970.0</ele>
        <time>2018-05-19T14:37:28.456Z</time>
      </trkpt>
      <trkpt lat="43.086905" lon="-4.224485">
        <ele>970.0</ele>
        <time>2018-05-19T14:37:29.451Z</time>
      </trkpt>
      <trkpt lat="43.08691" lon="-4.22454167">
        <ele>970.0</ele>
        <time>2018-05-19T14:37:30.457Z</time>
      </trkpt>
      <trkpt lat="43.08691" lon="-4.22454167">
        <ele>970.0</ele>
        <time>2018-05-19T14:37:31.453Z</time>
      </trkpt>
      <trkpt lat="43.086915" lon="-4.22460167">
        <ele>971.0</ele>
        <time>2018-05-19T14:37:32.452Z</time>
      </trkpt>
      <trkpt lat="43.086915" lon="-4.22460167">
        <ele>971.0</ele>
        <time>2018-05-19T14:37:33.454Z</time>
      </trkpt>
      <trkpt lat="43.08691667" lon="-4.22465667">
        <ele>971.0</ele>
        <time>2018-05-19T14:37:34.455Z</time>
      </trkpt>
      <trkpt lat="43.08691667" lon="-4.22465667">
        <ele>971.0</ele>
        <time>2018-05-19T14:37:35.454Z</time>
      </trkpt>
      <trkpt lat="43.08691833" lon="-4.22471667">
        <ele>971.0</ele>
        <time>2018-05-19T14:37:36.453Z</time>
      </trkpt>
      <trkpt lat="43.08691833" lon="-4.22471667">
        <ele>971.0</ele>
        <time>2018-05-19T14:37:37.487Z</time>
      </trkpt>
      <trkpt lat="43.086915" lon="-4.22478">
        <ele>971.0</ele>
        <time>2018-05-19T14:37:38.454Z</time>
      </trkpt>
      <trkpt lat="43.086915" lon="-4.22478">
        <ele>971.0</ele>
        <time>2018-05-19T14:37:39.453Z</time>
      </trkpt>
      <trkpt lat="43.086905" lon="-4.22484333">
        <ele>972.0</ele>
        <time>2018-05-19T14:37:40.456Z</time>
      </trkpt>
      <trkpt lat="43.086905" lon="-4.22484333">
        <ele>972.0</ele>
        <time>2018-05-19T14:37:41.450Z</time>
      </trkpt>
      <trkpt lat="43.08688667" lon="-4.2249">
        <ele>972.0</ele>
        <time>2018-05-19T14:37:42.456Z</time>
      </trkpt>
      <trkpt lat="43.08688667" lon="-4.2249">
        <ele>972.0</ele>
        <time>2018-05-19T14:37:43.453Z</time>
      </trkpt>
      <trkpt lat="43.08685667" lon="-4.22494167">
        <ele>972.0</ele>
        <time>2018-05-19T14:37:44.453Z</time>
      </trkpt>
      <trkpt lat="43.08685667" lon="-4.22494167">
        <ele>972.0</ele>
        <time>2018-05-19T14:37:45.451Z</time>
      </trkpt>
      <trkpt lat="43.086825" lon="-4.22496833">
        <ele>972.0</ele>
        <time>2018-05-19T14:37:46.476Z</time>
      </trkpt>
      <trkpt lat="43.08681" lon="-4.22497333">
        <ele>972.0</ele>
        <time>2018-05-19T14:37:47.455Z</time>
      </trkpt>
      <trkpt lat="43.08679333" lon="-4.22498">
        <ele>972.0</ele>
        <time>2018-05-19T14:37:48.456Z</time>
      </trkpt>
      <trkpt lat="43.08679333" lon="-4.22498">
        <ele>972.0</ele>
        <time>2018-05-19T14:37:49.452Z</time>
      </trkpt>
      <trkpt lat="43.086755" lon="-4.22497667">
        <ele>972.0</ele>
        <time>2018-05-19T14:37:50.469Z</time>
      </trkpt>
      <trkpt lat="43.086735" lon="-4.22497333">
        <ele>972.0</ele>
        <time>2018-05-19T14:37:51.455Z</time>
      </trkpt>
      <trkpt lat="43.086735" lon="-4.22497333">
        <ele>972.0</ele>
        <time>2018-05-19T14:37:52.452Z</time>
      </trkpt>
      <trkpt lat="43.08669833" lon="-4.22495833">
        <ele>972.0</ele>
        <time>2018-05-19T14:37:53.455Z</time>
      </trkpt>
      <trkpt lat="43.08668" lon="-4.224945">
        <ele>972.0</ele>
        <time>2018-05-19T14:37:54.456Z</time>
      </trkpt>
      <trkpt lat="43.08668" lon="-4.224945">
        <ele>972.0</ele>
        <time>2018-05-19T14:37:55.451Z</time>
      </trkpt>
      <trkpt lat="43.08664167" lon="-4.224915">
        <ele>972.0</ele>
        <time>2018-05-19T14:37:56.456Z</time>
      </trkpt>
      <trkpt lat="43.08664167" lon="-4.224915">
        <ele>972.0</ele>
        <time>2018-05-19T14:37:57.453Z</time>
      </trkpt>
      <trkpt lat="43.08660667" lon="-4.224885">
        <ele>972.0</ele>
        <time>2018-05-19T14:37:58.455Z</time>
      </trkpt>
      <trkpt lat="43.08660667" lon="-4.224885">
        <ele>972.0</ele>
        <time>2018-05-19T14:37:59.450Z</time>
      </trkpt>
      <trkpt lat="43.086575" lon="-4.22484667">
        <ele>973.0</ele>
        <time>2018-05-19T14:38:00.466Z</time>
      </trkpt>
      <trkpt lat="43.086575" lon="-4.22484667">
        <ele>973.0</ele>
        <time>2018-05-19T14:38:01.452Z</time>
      </trkpt>
      <trkpt lat="43.08654833" lon="-4.22480333">
        <ele>973.0</ele>
        <time>2018-05-19T14:38:02.455Z</time>
      </trkpt>
      <trkpt lat="43.08654833" lon="-4.22480333">
        <ele>973.0</ele>
        <time>2018-05-19T14:38:03.452Z</time>
      </trkpt>
      <trkpt lat="43.08653" lon="-4.22476">
        <ele>973.0</ele>
        <time>2018-05-19T14:38:04.455Z</time>
      </trkpt>
      <trkpt lat="43.08653" lon="-4.22476">
        <ele>973.0</ele>
        <time>2018-05-19T14:38:05.451Z</time>
      </trkpt>
      <trkpt lat="43.08650833" lon="-4.224735">
        <ele>973.0</ele>
        <time>2018-05-19T14:38:06.456Z</time>
      </trkpt>
      <trkpt lat="43.08650833" lon="-4.224735">
        <ele>973.0</ele>
        <time>2018-05-19T14:38:07.452Z</time>
      </trkpt>
      <trkpt lat="43.08648167" lon="-4.22471">
        <ele>974.0</ele>
        <time>2018-05-19T14:38:08.453Z</time>
      </trkpt>
      <trkpt lat="43.08648167" lon="-4.22471">
        <ele>974.0</ele>
        <time>2018-05-19T14:38:09.486Z</time>
      </trkpt>
      <trkpt lat="43.08645667" lon="-4.224675">
        <ele>974.0</ele>
        <time>2018-05-19T14:38:10.471Z</time>
      </trkpt>
      <trkpt lat="43.08645667" lon="-4.224675">
        <ele>974.0</ele>
        <time>2018-05-19T14:38:11.455Z</time>
      </trkpt>
      <trkpt lat="43.08643167" lon="-4.22463667">
        <ele>975.0</ele>
        <time>2018-05-19T14:38:12.456Z</time>
      </trkpt>
      <trkpt lat="43.08643167" lon="-4.22463667">
        <ele>975.0</ele>
        <time>2018-05-19T14:38:13.452Z</time>
      </trkpt>
      <trkpt lat="43.08639667" lon="-4.22459167">
        <ele>975.0</ele>
        <time>2018-05-19T14:38:14.455Z</time>
      </trkpt>
      <trkpt lat="43.08639667" lon="-4.22459167">
        <ele>975.0</ele>
        <time>2018-05-19T14:38:15.453Z</time>
      </trkpt>
      <trkpt lat="43.08636167" lon="-4.22455">
        <ele>976.0</ele>
        <time>2018-05-19T14:38:16.454Z</time>
      </trkpt>
      <trkpt lat="43.08636167" lon="-4.22455">
        <ele>976.0</ele>
        <time>2018-05-19T14:38:17.452Z</time>
      </trkpt>
      <trkpt lat="43.086325" lon="-4.22451">
        <ele>976.0</ele>
        <time>2018-05-19T14:38:18.456Z</time>
      </trkpt>
      <trkpt lat="43.086325" lon="-4.22451">
        <ele>976.0</ele>
        <time>2018-05-19T14:38:19.455Z</time>
      </trkpt>
      <trkpt lat="43.08628667" lon="-4.224475">
        <ele>977.0</ele>
        <time>2018-05-19T14:38:20.467Z</time>
      </trkpt>
      <trkpt lat="43.08626833" lon="-4.224465">
        <ele>977.0</ele>
        <time>2018-05-19T14:38:21.455Z</time>
      </trkpt>
      <trkpt lat="43.08625" lon="-4.22445167">
        <ele>977.0</ele>
        <time>2018-05-19T14:38:22.453Z</time>
      </trkpt>
      <trkpt lat="43.08625" lon="-4.22445167">
        <ele>977.0</ele>
        <time>2018-05-19T14:38:23.453Z</time>
      </trkpt>
      <trkpt lat="43.086195" lon="-4.22442">
        <ele>978.0</ele>
        <time>2018-05-19T14:38:24.456Z</time>
      </trkpt>
      <trkpt lat="43.086195" lon="-4.22442">
        <ele>978.0</ele>
        <time>2018-05-19T14:38:25.457Z</time>
      </trkpt>
      <trkpt lat="43.08614333" lon="-4.224395">
        <ele>978.0</ele>
        <time>2018-05-19T14:38:26.453Z</time>
      </trkpt>
      <trkpt lat="43.08614333" lon="-4.224395">
        <ele>978.0</ele>
        <time>2018-05-19T14:38:27.450Z</time>
      </trkpt>
      <trkpt lat="43.08609333" lon="-4.224375">
        <ele>978.0</ele>
        <time>2018-05-19T14:38:28.454Z</time>
      </trkpt>
      <trkpt lat="43.08609333" lon="-4.224375">
        <ele>978.0</ele>
        <time>2018-05-19T14:38:29.450Z</time>
      </trkpt>
      <trkpt lat="43.08604667" lon="-4.22434167">
        <ele>979.0</ele>
        <time>2018-05-19T14:38:30.457Z</time>
      </trkpt>
      <trkpt lat="43.08604667" lon="-4.22434167">
        <ele>979.0</ele>
        <time>2018-05-19T14:38:31.452Z</time>
      </trkpt>
      <trkpt lat="43.08599167" lon="-4.22430667">
        <ele>979.0</ele>
        <time>2018-05-19T14:38:32.455Z</time>
      </trkpt>
      <trkpt lat="43.08599167" lon="-4.22430667">
        <ele>979.0</ele>
        <time>2018-05-19T14:38:33.452Z</time>
      </trkpt>
      <trkpt lat="43.08593" lon="-4.22428333">
        <ele>979.0</ele>
        <time>2018-05-19T14:38:34.454Z</time>
      </trkpt>
      <trkpt lat="43.08593" lon="-4.22428333">
        <ele>979.0</ele>
        <time>2018-05-19T14:38:35.452Z</time>
      </trkpt>
      <trkpt lat="43.08588" lon="-4.22424333">
        <ele>979.0</ele>
        <time>2018-05-19T14:38:36.455Z</time>
      </trkpt>
      <trkpt lat="43.08588" lon="-4.22424333">
        <ele>979.0</ele>
        <time>2018-05-19T14:38:37.453Z</time>
      </trkpt>
      <trkpt lat="43.08582667" lon="-4.224205">
        <ele>980.0</ele>
        <time>2018-05-19T14:38:38.455Z</time>
      </trkpt>
      <trkpt lat="43.08582667" lon="-4.224205">
        <ele>980.0</ele>
        <time>2018-05-19T14:38:39.453Z</time>
      </trkpt>
      <trkpt lat="43.085775" lon="-4.22416667">
        <ele>980.0</ele>
        <time>2018-05-19T14:38:40.454Z</time>
      </trkpt>
      <trkpt lat="43.08575" lon="-4.22414833">
        <ele>980.0</ele>
        <time>2018-05-19T14:38:41.454Z</time>
      </trkpt>
      <trkpt lat="43.08572667" lon="-4.22412833">
        <ele>980.0</ele>
        <time>2018-05-19T14:38:42.456Z</time>
      </trkpt>
      <trkpt lat="43.08572667" lon="-4.22412833">
        <ele>980.0</ele>
        <time>2018-05-19T14:38:43.453Z</time>
      </trkpt>
      <trkpt lat="43.08568167" lon="-4.22408833">
        <ele>980.0</ele>
        <time>2018-05-19T14:38:44.467Z</time>
      </trkpt>
      <trkpt lat="43.08568167" lon="-4.22408833">
        <ele>980.0</ele>
        <time>2018-05-19T14:38:45.453Z</time>
      </trkpt>
      <trkpt lat="43.085635" lon="-4.22404833">
        <ele>980.0</ele>
        <time>2018-05-19T14:38:46.456Z</time>
      </trkpt>
      <trkpt lat="43.085635" lon="-4.22404833">
        <ele>980.0</ele>
        <time>2018-05-19T14:38:47.452Z</time>
      </trkpt>
      <trkpt lat="43.085585" lon="-4.22401667">
        <ele>980.0</ele>
        <time>2018-05-19T14:38:48.456Z</time>
      </trkpt>
      <trkpt lat="43.085585" lon="-4.22401667">
        <ele>980.0</ele>
        <time>2018-05-19T14:38:49.457Z</time>
      </trkpt>
      <trkpt lat="43.08553833" lon="-4.22398333">
        <ele>980.0</ele>
        <time>2018-05-19T14:38:50.468Z</time>
      </trkpt>
      <trkpt lat="43.08553833" lon="-4.22398333">
        <ele>980.0</ele>
        <time>2018-05-19T14:38:51.455Z</time>
      </trkpt>
      <trkpt lat="43.085485" lon="-4.22394667">
        <ele>980.0</ele>
        <time>2018-05-19T14:38:52.455Z</time>
      </trkpt>
      <trkpt lat="43.085485" lon="-4.22394667">
        <ele>980.0</ele>
        <time>2018-05-19T14:38:53.452Z</time>
      </trkpt>
      <trkpt lat="43.08544" lon="-4.22391333">
        <ele>982.0</ele>
        <time>2018-05-19T14:38:54.457Z</time>
      </trkpt>
      <trkpt lat="43.08544" lon="-4.22391333">
        <ele>982.0</ele>
        <time>2018-05-19T14:38:55.453Z</time>
      </trkpt>
      <trkpt lat="43.08538833" lon="-4.22387667">
        <ele>982.0</ele>
        <time>2018-05-19T14:38:56.456Z</time>
      </trkpt>
      <trkpt lat="43.08538833" lon="-4.22387667">
        <ele>982.0</ele>
        <time>2018-05-19T14:38:57.451Z</time>
      </trkpt>
      <trkpt lat="43.08534167" lon="-4.22384667">
        <ele>983.0</ele>
        <time>2018-05-19T14:38:58.451Z</time>
      </trkpt>
      <trkpt lat="43.08534167" lon="-4.22384667">
        <ele>983.0</ele>
        <time>2018-05-19T14:38:59.454Z</time>
      </trkpt>
      <trkpt lat="43.0853" lon="-4.22383">
        <ele>984.0</ele>
        <time>2018-05-19T14:39:00.462Z</time>
      </trkpt>
      <trkpt lat="43.0853" lon="-4.22383">
        <ele>984.0</ele>
        <time>2018-05-19T14:39:01.450Z</time>
      </trkpt>
      <trkpt lat="43.08525333" lon="-4.22381333">
        <ele>985.0</ele>
        <time>2018-05-19T14:39:02.456Z</time>
      </trkpt>
      <trkpt lat="43.08525333" lon="-4.22381333">
        <ele>985.0</ele>
        <time>2018-05-19T14:39:03.452Z</time>
      </trkpt>
      <trkpt lat="43.08520167" lon="-4.22379833">
        <ele>986.0</ele>
        <time>2018-05-19T14:39:04.454Z</time>
      </trkpt>
      <trkpt lat="43.08520167" lon="-4.22379833">
        <ele>986.0</ele>
        <time>2018-05-19T14:39:05.450Z</time>
      </trkpt>
      <trkpt lat="43.08513" lon="-4.22379167">
        <ele>986.0</ele>
        <time>2018-05-19T14:39:06.477Z</time>
      </trkpt>
      <trkpt lat="43.08513" lon="-4.22379167">
        <ele>986.0</ele>
        <time>2018-05-19T14:39:07.463Z</time>
      </trkpt>
      <trkpt lat="43.085075" lon="-4.223815">
        <ele>987.0</ele>
        <time>2018-05-19T14:39:08.456Z</time>
      </trkpt>
      <trkpt lat="43.085075" lon="-4.223815">
        <ele>987.0</ele>
        <time>2018-05-19T14:39:09.449Z</time>
      </trkpt>
      <trkpt lat="43.08501667" lon="-4.22382833">
        <ele>987.0</ele>
        <time>2018-05-19T14:39:10.454Z</time>
      </trkpt>
      <trkpt lat="43.08499333" lon="-4.22384">
        <ele>987.0</ele>
        <time>2018-05-19T14:39:11.455Z</time>
      </trkpt>
      <trkpt lat="43.08497167" lon="-4.22385833">
        <ele>987.0</ele>
        <time>2018-05-19T14:39:12.456Z</time>
      </trkpt>
      <trkpt lat="43.08497167" lon="-4.22385833">
        <ele>987.0</ele>
        <time>2018-05-19T14:39:13.453Z</time>
      </trkpt>
      <trkpt lat="43.084925" lon="-4.22388667">
        <ele>987.0</ele>
        <time>2018-05-19T14:39:14.462Z</time>
      </trkpt>
      <trkpt lat="43.084925" lon="-4.22388667">
        <ele>987.0</ele>
        <time>2018-05-19T14:39:15.453Z</time>
      </trkpt>
      <trkpt lat="43.08488167" lon="-4.223925">
        <ele>987.0</ele>
        <time>2018-05-19T14:39:16.456Z</time>
      </trkpt>
      <trkpt lat="43.08488167" lon="-4.223925">
        <ele>987.0</ele>
        <time>2018-05-19T14:39:17.453Z</time>
      </trkpt>
      <trkpt lat="43.08483667" lon="-4.22396333">
        <ele>987.0</ele>
        <time>2018-05-19T14:39:18.456Z</time>
      </trkpt>
      <trkpt lat="43.08483667" lon="-4.22396333">
        <ele>987.0</ele>
        <time>2018-05-19T14:39:19.457Z</time>
      </trkpt>
      <trkpt lat="43.084795" lon="-4.224">
        <ele>987.0</ele>
        <time>2018-05-19T14:39:20.455Z</time>
      </trkpt>
      <trkpt lat="43.084775" lon="-4.22401833">
        <ele>987.0</ele>
        <time>2018-05-19T14:39:21.455Z</time>
      </trkpt>
      <trkpt lat="43.084775" lon="-4.22401833">
        <ele>987.0</ele>
        <time>2018-05-19T14:39:22.453Z</time>
      </trkpt>
      <trkpt lat="43.08473" lon="-4.22405">
        <ele>987.0</ele>
        <time>2018-05-19T14:39:23.454Z</time>
      </trkpt>
      <trkpt lat="43.08471" lon="-4.22406333">
        <ele>987.0</ele>
        <time>2018-05-19T14:39:24.455Z</time>
      </trkpt>
      <trkpt lat="43.08471" lon="-4.22406333">
        <ele>987.0</ele>
        <time>2018-05-19T14:39:25.452Z</time>
      </trkpt>
      <trkpt lat="43.08466667" lon="-4.22409333">
        <ele>988.0</ele>
        <time>2018-05-19T14:39:26.452Z</time>
      </trkpt>
      <trkpt lat="43.08466667" lon="-4.22409333">
        <ele>988.0</ele>
        <time>2018-05-19T14:39:27.482Z</time>
      </trkpt>
      <trkpt lat="43.08462167" lon="-4.22412833">
        <ele>988.0</ele>
        <time>2018-05-19T14:39:28.467Z</time>
      </trkpt>
      <trkpt lat="43.08462167" lon="-4.22412833">
        <ele>988.0</ele>
        <time>2018-05-19T14:39:29.452Z</time>
      </trkpt>
      <trkpt lat="43.08458167" lon="-4.22416333">
        <ele>989.0</ele>
        <time>2018-05-19T14:39:30.455Z</time>
      </trkpt>
      <trkpt lat="43.08458167" lon="-4.22416333">
        <ele>989.0</ele>
        <time>2018-05-19T14:39:31.452Z</time>
      </trkpt>
      <trkpt lat="43.084535" lon="-4.22419">
        <ele>989.0</ele>
        <time>2018-05-19T14:39:32.455Z</time>
      </trkpt>
      <trkpt lat="43.084535" lon="-4.22419">
        <ele>989.0</ele>
        <time>2018-05-19T14:39:33.452Z</time>
      </trkpt>
      <trkpt lat="43.08448333" lon="-4.224225">
        <ele>989.0</ele>
        <time>2018-05-19T14:39:34.455Z</time>
      </trkpt>
      <trkpt lat="43.084455" lon="-4.22423833">
        <ele>989.0</ele>
        <time>2018-05-19T14:39:35.455Z</time>
      </trkpt>
      <trkpt lat="43.084455" lon="-4.22423833">
        <ele>989.0</ele>
        <time>2018-05-19T14:39:36.453Z</time>
      </trkpt>
      <trkpt lat="43.08439667" lon="-4.22425167">
        <ele>988.0</ele>
        <time>2018-05-19T14:39:37.454Z</time>
      </trkpt>
      <trkpt lat="43.08437333" lon="-4.22426667">
        <ele>988.0</ele>
        <time>2018-05-19T14:39:38.455Z</time>
      </trkpt>
      <trkpt lat="43.08437333" lon="-4.22426667">
        <ele>988.0</ele>
        <time>2018-05-19T14:39:39.449Z</time>
      </trkpt>
      <trkpt lat="43.08432833" lon="-4.22429167">
        <ele>988.0</ele>
        <time>2018-05-19T14:39:40.475Z</time>
      </trkpt>
      <trkpt lat="43.08430333" lon="-4.2243">
        <ele>988.0</ele>
        <time>2018-05-19T14:39:41.464Z</time>
      </trkpt>
      <trkpt lat="43.08427833" lon="-4.22431">
        <ele>988.0</ele>
        <time>2018-05-19T14:39:42.457Z</time>
      </trkpt>
      <trkpt lat="43.08427833" lon="-4.22431">
        <ele>988.0</ele>
        <time>2018-05-19T14:39:43.452Z</time>
      </trkpt>
      <trkpt lat="43.08423" lon="-4.22432333">
        <ele>988.0</ele>
        <time>2018-05-19T14:39:44.455Z</time>
      </trkpt>
      <trkpt lat="43.08423" lon="-4.22432333">
        <ele>988.0</ele>
        <time>2018-05-19T14:39:45.453Z</time>
      </trkpt>
      <trkpt lat="43.08418833" lon="-4.22434167">
        <ele>988.0</ele>
        <time>2018-05-19T14:39:46.456Z</time>
      </trkpt>
      <trkpt lat="43.08418833" lon="-4.22434167">
        <ele>988.0</ele>
        <time>2018-05-19T14:39:47.451Z</time>
      </trkpt>
      <trkpt lat="43.08414167" lon="-4.22436167">
        <ele>989.0</ele>
        <time>2018-05-19T14:39:48.455Z</time>
      </trkpt>
      <trkpt lat="43.08414167" lon="-4.22436167">
        <ele>989.0</ele>
        <time>2018-05-19T14:39:49.487Z</time>
      </trkpt>
      <trkpt lat="43.08409667" lon="-4.224395">
        <ele>989.0</ele>
        <time>2018-05-19T14:39:50.475Z</time>
      </trkpt>
      <trkpt lat="43.084075" lon="-4.22441333">
        <ele>989.0</ele>
        <time>2018-05-19T14:39:51.468Z</time>
      </trkpt>
      <trkpt lat="43.084075" lon="-4.22441333">
        <ele>989.0</ele>
        <time>2018-05-19T14:39:52.453Z</time>
      </trkpt>
      <trkpt lat="43.08403167" lon="-4.22444333">
        <ele>989.0</ele>
        <time>2018-05-19T14:39:53.453Z</time>
      </trkpt>
      <trkpt lat="43.08401" lon="-4.22445667">
        <ele>990.0</ele>
        <time>2018-05-19T14:39:54.456Z</time>
      </trkpt>
      <trkpt lat="43.08401" lon="-4.22445667">
        <ele>990.0</ele>
        <time>2018-05-19T14:39:55.452Z</time>
      </trkpt>
      <trkpt lat="43.083975" lon="-4.22449833">
        <ele>990.0</ele>
        <time>2018-05-19T14:39:56.454Z</time>
      </trkpt>
      <trkpt lat="43.083975" lon="-4.22449833">
        <ele>990.0</ele>
        <time>2018-05-19T14:39:57.449Z</time>
      </trkpt>
      <trkpt lat="43.08393833" lon="-4.22454333">
        <ele>990.0</ele>
        <time>2018-05-19T14:39:58.454Z</time>
      </trkpt>
      <trkpt lat="43.08393833" lon="-4.22454333">
        <ele>990.0</ele>
        <time>2018-05-19T14:39:59.451Z</time>
      </trkpt>
      <trkpt lat="43.08389333" lon="-4.22459167">
        <ele>990.0</ele>
        <time>2018-05-19T14:40:00.477Z</time>
      </trkpt>
      <trkpt lat="43.08389333" lon="-4.22459167">
        <ele>990.0</ele>
        <time>2018-05-19T14:40:01.463Z</time>
      </trkpt>
      <trkpt lat="43.083855" lon="-4.22464">
        <ele>990.0</ele>
        <time>2018-05-19T14:40:02.455Z</time>
      </trkpt>
      <trkpt lat="43.083855" lon="-4.22464">
        <ele>990.0</ele>
        <time>2018-05-19T14:40:03.452Z</time>
      </trkpt>
      <trkpt lat="43.08381833" lon="-4.22470833">
        <ele>990.0</ele>
        <time>2018-05-19T14:40:04.454Z</time>
      </trkpt>
      <trkpt lat="43.08380833" lon="-4.22475833">
        <ele>990.0</ele>
        <time>2018-05-19T14:40:05.468Z</time>
      </trkpt>
      <trkpt lat="43.08380833" lon="-4.22475833">
        <ele>990.0</ele>
        <time>2018-05-19T14:40:06.454Z</time>
      </trkpt>
      <trkpt lat="43.08378" lon="-4.22484167">
        <ele>990.0</ele>
        <time>2018-05-19T14:40:07.454Z</time>
      </trkpt>
      <trkpt lat="43.083765" lon="-4.22488">
        <ele>990.0</ele>
        <time>2018-05-19T14:40:08.466Z</time>
      </trkpt>
      <trkpt lat="43.083765" lon="-4.22488">
        <ele>990.0</ele>
        <time>2018-05-19T14:40:09.452Z</time>
      </trkpt>
      <trkpt lat="43.08373833" lon="-4.22496333">
        <ele>990.0</ele>
        <time>2018-05-19T14:40:10.462Z</time>
      </trkpt>
      <trkpt lat="43.083725" lon="-4.22500833">
        <ele>990.0</ele>
        <time>2018-05-19T14:40:11.455Z</time>
      </trkpt>
      <trkpt lat="43.08371167" lon="-4.22504833">
        <ele>990.0</ele>
        <time>2018-05-19T14:40:12.455Z</time>
      </trkpt>
      <trkpt lat="43.08371167" lon="-4.22504833">
        <ele>990.0</ele>
        <time>2018-05-19T14:40:13.451Z</time>
      </trkpt>
      <trkpt lat="43.08369167" lon="-4.22512667">
        <ele>990.0</ele>
        <time>2018-05-19T14:40:14.455Z</time>
      </trkpt>
      <trkpt lat="43.08369167" lon="-4.22512667">
        <ele>990.0</ele>
        <time>2018-05-19T14:40:15.452Z</time>
      </trkpt>
      <trkpt lat="43.08367667" lon="-4.22520167">
        <ele>990.0</ele>
        <time>2018-05-19T14:40:16.455Z</time>
      </trkpt>
      <trkpt lat="43.08367667" lon="-4.22520167">
        <ele>990.0</ele>
        <time>2018-05-19T14:40:17.451Z</time>
      </trkpt>
      <trkpt lat="43.08366333" lon="-4.225275">
        <ele>990.0</ele>
        <time>2018-05-19T14:40:18.457Z</time>
      </trkpt>
      <trkpt lat="43.08366333" lon="-4.225275">
        <ele>990.0</ele>
        <time>2018-05-19T14:40:19.450Z</time>
      </trkpt>
      <trkpt lat="43.08365833" lon="-4.22534833">
        <ele>990.0</ele>
        <time>2018-05-19T14:40:20.455Z</time>
      </trkpt>
      <trkpt lat="43.08365833" lon="-4.22534833">
        <ele>990.0</ele>
        <time>2018-05-19T14:40:21.452Z</time>
      </trkpt>
      <trkpt lat="43.08366167" lon="-4.22542333">
        <ele>991.0</ele>
        <time>2018-05-19T14:40:22.455Z</time>
      </trkpt>
      <trkpt lat="43.08366167" lon="-4.22542333">
        <ele>991.0</ele>
        <time>2018-05-19T14:40:23.452Z</time>
      </trkpt>
      <trkpt lat="43.08367167" lon="-4.22548833">
        <ele>991.0</ele>
        <time>2018-05-19T14:40:24.456Z</time>
      </trkpt>
      <trkpt lat="43.08367167" lon="-4.22548833">
        <ele>991.0</ele>
        <time>2018-05-19T14:40:25.451Z</time>
      </trkpt>
      <trkpt lat="43.08369" lon="-4.225555">
        <ele>992.0</ele>
        <time>2018-05-19T14:40:26.456Z</time>
      </trkpt>
      <trkpt lat="43.08369" lon="-4.225555">
        <ele>992.0</ele>
        <time>2018-05-19T14:40:27.452Z</time>
      </trkpt>
      <trkpt lat="43.083715" lon="-4.22561167">
        <ele>992.0</ele>
        <time>2018-05-19T14:40:28.454Z</time>
      </trkpt>
      <trkpt lat="43.083715" lon="-4.22561167">
        <ele>992.0</ele>
        <time>2018-05-19T14:40:29.451Z</time>
      </trkpt>
      <trkpt lat="43.08375" lon="-4.22566667">
        <ele>993.0</ele>
        <time>2018-05-19T14:40:30.476Z</time>
      </trkpt>
      <trkpt lat="43.08377" lon="-4.22569333">
        <ele>993.0</ele>
        <time>2018-05-19T14:40:31.465Z</time>
      </trkpt>
      <trkpt lat="43.08377" lon="-4.22569333">
        <ele>993.0</ele>
        <time>2018-05-19T14:40:32.468Z</time>
      </trkpt>
      <trkpt lat="43.08381167" lon="-4.22574333">
        <ele>994.0</ele>
        <time>2018-05-19T14:40:33.468Z</time>
      </trkpt>
      <trkpt lat="43.08381167" lon="-4.22574333">
        <ele>994.0</ele>
        <time>2018-05-19T14:40:34.451Z</time>
      </trkpt>
      <trkpt lat="43.083855" lon="-4.22579">
        <ele>994.0</ele>
        <time>2018-05-19T14:40:35.456Z</time>
      </trkpt>
      <trkpt lat="43.083855" lon="-4.22579">
        <ele>994.0</ele>
        <time>2018-05-19T14:40:36.454Z</time>
      </trkpt>
      <trkpt lat="43.08389833" lon="-4.22583833">
        <ele>995.0</ele>
        <time>2018-05-19T14:40:37.454Z</time>
      </trkpt>
      <trkpt lat="43.08392" lon="-4.22586">
        <ele>995.0</ele>
        <time>2018-05-19T14:40:38.455Z</time>
      </trkpt>
      <trkpt lat="43.08392" lon="-4.22586">
        <ele>995.0</ele>
        <time>2018-05-19T14:40:39.450Z</time>
      </trkpt>
      <trkpt lat="43.083965" lon="-4.2259">
        <ele>995.0</ele>
        <time>2018-05-19T14:40:40.455Z</time>
      </trkpt>
      <trkpt lat="43.083965" lon="-4.2259">
        <ele>995.0</ele>
        <time>2018-05-19T14:40:41.451Z</time>
      </trkpt>
      <trkpt lat="43.08400833" lon="-4.22593167">
        <ele>996.0</ele>
        <time>2018-05-19T14:40:42.453Z</time>
      </trkpt>
      <trkpt lat="43.08400833" lon="-4.22593167">
        <ele>996.0</ele>
        <time>2018-05-19T14:40:43.450Z</time>
      </trkpt>
      <trkpt lat="43.084055" lon="-4.22596">
        <ele>996.0</ele>
        <time>2018-05-19T14:40:44.456Z</time>
      </trkpt>
      <trkpt lat="43.084055" lon="-4.22596">
        <ele>996.0</ele>
        <time>2018-05-19T14:40:45.451Z</time>
      </trkpt>
      <trkpt lat="43.08410333" lon="-4.22599833">
        <ele>997.0</ele>
        <time>2018-05-19T14:40:46.454Z</time>
      </trkpt>
      <trkpt lat="43.08410333" lon="-4.22599833">
        <ele>997.0</ele>
        <time>2018-05-19T14:40:47.452Z</time>
      </trkpt>
      <trkpt lat="43.08414833" lon="-4.226035">
        <ele>997.0</ele>
        <time>2018-05-19T14:40:48.455Z</time>
      </trkpt>
      <trkpt lat="43.08414833" lon="-4.226035">
        <ele>997.0</ele>
        <time>2018-05-19T14:40:49.450Z</time>
      </trkpt>
      <trkpt lat="43.08419" lon="-4.226075">
        <ele>998.0</ele>
        <time>2018-05-19T14:40:50.455Z</time>
      </trkpt>
      <trkpt lat="43.08419" lon="-4.226075">
        <ele>998.0</ele>
        <time>2018-05-19T14:40:51.475Z</time>
      </trkpt>
      <trkpt lat="43.084235" lon="-4.22610833">
        <ele>998.0</ele>
        <time>2018-05-19T14:40:52.461Z</time>
      </trkpt>
      <trkpt lat="43.08425833" lon="-4.22611833">
        <ele>998.0</ele>
        <time>2018-05-19T14:40:53.454Z</time>
      </trkpt>
      <trkpt lat="43.08425833" lon="-4.22611833">
        <ele>998.0</ele>
        <time>2018-05-19T14:40:54.452Z</time>
      </trkpt>
      <trkpt lat="43.08430667" lon="-4.226135">
        <ele>998.0</ele>
        <time>2018-05-19T14:40:55.452Z</time>
      </trkpt>
      <trkpt lat="43.08430667" lon="-4.226135">
        <ele>998.0</ele>
        <time>2018-05-19T14:40:56.451Z</time>
      </trkpt>
      <trkpt lat="43.08435167" lon="-4.22615333">
        <ele>999.0</ele>
        <time>2018-05-19T14:40:57.454Z</time>
      </trkpt>
      <trkpt lat="43.08435167" lon="-4.22615333">
        <ele>999.0</ele>
        <time>2018-05-19T14:40:58.452Z</time>
      </trkpt>
      <trkpt lat="43.08439833" lon="-4.22616167">
        <ele>999.0</ele>
        <time>2018-05-19T14:40:59.455Z</time>
      </trkpt>
      <trkpt lat="43.08442167" lon="-4.22616167">
        <ele>999.0</ele>
        <time>2018-05-19T14:41:00.454Z</time>
      </trkpt>
      <trkpt lat="43.08444667" lon="-4.22616333">
        <ele>999.0</ele>
        <time>2018-05-19T14:41:01.454Z</time>
      </trkpt>
      <trkpt lat="43.08444667" lon="-4.22616333">
        <ele>999.0</ele>
        <time>2018-05-19T14:41:02.468Z</time>
      </trkpt>
      <trkpt lat="43.08449333" lon="-4.22616333">
        <ele>999.0</ele>
        <time>2018-05-19T14:41:03.455Z</time>
      </trkpt>
      <trkpt lat="43.08449333" lon="-4.22616333">
        <ele>999.0</ele>
        <time>2018-05-19T14:41:04.451Z</time>
      </trkpt>
      <trkpt lat="43.084535" lon="-4.226165">
        <ele>1000.0</ele>
        <time>2018-05-19T14:41:05.468Z</time>
      </trkpt>
      <trkpt lat="43.084535" lon="-4.226165">
        <ele>1000.0</ele>
        <time>2018-05-19T14:41:06.453Z</time>
      </trkpt>
      <trkpt lat="43.08458" lon="-4.22616833">
        <ele>1000.0</ele>
        <time>2018-05-19T14:41:07.455Z</time>
      </trkpt>
      <trkpt lat="43.084605" lon="-4.22616833">
        <ele>1000.0</ele>
        <time>2018-05-19T14:41:08.455Z</time>
      </trkpt>
      <trkpt lat="43.084605" lon="-4.22616833">
        <ele>1000.0</ele>
        <time>2018-05-19T14:41:09.452Z</time>
      </trkpt>
      <trkpt lat="43.08466" lon="-4.22616667">
        <ele>1000.0</ele>
        <time>2018-05-19T14:41:10.455Z</time>
      </trkpt>
      <trkpt lat="43.08466" lon="-4.22616667">
        <ele>1000.0</ele>
        <time>2018-05-19T14:41:11.449Z</time>
      </trkpt>
      <trkpt lat="43.08472167" lon="-4.22615667">
        <ele>1000.0</ele>
        <time>2018-05-19T14:41:12.455Z</time>
      </trkpt>
      <trkpt lat="43.08472167" lon="-4.22615667">
        <ele>1000.0</ele>
        <time>2018-05-19T14:41:13.456Z</time>
      </trkpt>
      <trkpt lat="43.08478" lon="-4.22616333">
        <ele>1000.0</ele>
        <time>2018-05-19T14:41:14.455Z</time>
      </trkpt>
      <trkpt lat="43.08478" lon="-4.22616333">
        <ele>1000.0</ele>
        <time>2018-05-19T14:41:15.452Z</time>
      </trkpt>
      <trkpt lat="43.08483833" lon="-4.22618333">
        <ele>1001.0</ele>
        <time>2018-05-19T14:41:16.454Z</time>
      </trkpt>
      <trkpt lat="43.08486667" lon="-4.2262">
        <ele>1001.0</ele>
        <time>2018-05-19T14:41:17.454Z</time>
      </trkpt>
      <trkpt lat="43.08486667" lon="-4.2262">
        <ele>1001.0</ele>
        <time>2018-05-19T14:41:18.452Z</time>
      </trkpt>
      <trkpt lat="43.084915" lon="-4.22624167">
        <ele>1001.0</ele>
        <time>2018-05-19T14:41:19.454Z</time>
      </trkpt>
      <trkpt lat="43.084915" lon="-4.22624167">
        <ele>1001.0</ele>
        <time>2018-05-19T14:41:20.451Z</time>
      </trkpt>
      <trkpt lat="43.084955" lon="-4.22629167">
        <ele>1001.0</ele>
        <time>2018-05-19T14:41:21.455Z</time>
      </trkpt>
      <trkpt lat="43.084955" lon="-4.22629167">
        <ele>1001.0</ele>
        <time>2018-05-19T14:41:22.452Z</time>
      </trkpt>
      <trkpt lat="43.08499" lon="-4.22634833">
        <ele>1001.0</ele>
        <time>2018-05-19T14:41:23.454Z</time>
      </trkpt>
      <trkpt lat="43.08500667" lon="-4.22637667">
        <ele>1001.0</ele>
        <time>2018-05-19T14:41:24.455Z</time>
      </trkpt>
      <trkpt lat="43.08500667" lon="-4.22637667">
        <ele>1001.0</ele>
        <time>2018-05-19T14:41:25.451Z</time>
      </trkpt>
      <trkpt lat="43.08503667" lon="-4.22643833">
        <ele>1002.0</ele>
        <time>2018-05-19T14:41:26.461Z</time>
      </trkpt>
      <trkpt lat="43.08503667" lon="-4.22643833">
        <ele>1002.0</ele>
        <time>2018-05-19T14:41:27.452Z</time>
      </trkpt>
      <trkpt lat="43.08506833" lon="-4.22649833">
        <ele>1002.0</ele>
        <time>2018-05-19T14:41:28.454Z</time>
      </trkpt>
      <trkpt lat="43.08506833" lon="-4.22649833">
        <ele>1002.0</ele>
        <time>2018-05-19T14:41:29.452Z</time>
      </trkpt>
      <trkpt lat="43.08510333" lon="-4.22655333">
        <ele>1002.0</ele>
        <time>2018-05-19T14:41:30.468Z</time>
      </trkpt>
      <trkpt lat="43.08510333" lon="-4.22655333">
        <ele>1002.0</ele>
        <time>2018-05-19T14:41:31.455Z</time>
      </trkpt>
      <trkpt lat="43.085145" lon="-4.22659833">
        <ele>1002.0</ele>
        <time>2018-05-19T14:41:32.456Z</time>
      </trkpt>
      <trkpt lat="43.085145" lon="-4.22659833">
        <ele>1002.0</ele>
        <time>2018-05-19T14:41:33.452Z</time>
      </trkpt>
      <trkpt lat="43.08518667" lon="-4.22664">
        <ele>1002.0</ele>
        <time>2018-05-19T14:41:34.455Z</time>
      </trkpt>
      <trkpt lat="43.08521" lon="-4.22665833">
        <ele>1002.0</ele>
        <time>2018-05-19T14:41:35.455Z</time>
      </trkpt>
      <trkpt lat="43.08521" lon="-4.22665833">
        <ele>1002.0</ele>
        <time>2018-05-19T14:41:36.452Z</time>
      </trkpt>
      <trkpt lat="43.08525667" lon="-4.226695">
        <ele>1002.0</ele>
        <time>2018-05-19T14:41:37.455Z</time>
      </trkpt>
      <trkpt lat="43.08528" lon="-4.22671167">
        <ele>1002.0</ele>
        <time>2018-05-19T14:41:38.455Z</time>
      </trkpt>
      <trkpt lat="43.08530333" lon="-4.22672667">
        <ele>1002.0</ele>
        <time>2018-05-19T14:41:39.454Z</time>
      </trkpt>
      <trkpt lat="43.08530333" lon="-4.22672667">
        <ele>1002.0</ele>
        <time>2018-05-19T14:41:40.451Z</time>
      </trkpt>
      <trkpt lat="43.08535333" lon="-4.22676">
        <ele>1003.0</ele>
        <time>2018-05-19T14:41:41.452Z</time>
      </trkpt>
      <trkpt lat="43.08537667" lon="-4.22677833">
        <ele>1003.0</ele>
        <time>2018-05-19T14:41:42.455Z</time>
      </trkpt>
      <trkpt lat="43.0854" lon="-4.22679667">
        <ele>1003.0</ele>
        <time>2018-05-19T14:41:43.455Z</time>
      </trkpt>
      <trkpt lat="43.08542333" lon="-4.22681667">
        <ele>1003.0</ele>
        <time>2018-05-19T14:41:44.454Z</time>
      </trkpt>
      <trkpt lat="43.08542333" lon="-4.22681667">
        <ele>1003.0</ele>
        <time>2018-05-19T14:41:45.452Z</time>
      </trkpt>
      <trkpt lat="43.08547" lon="-4.22685667">
        <ele>1003.0</ele>
        <time>2018-05-19T14:41:46.454Z</time>
      </trkpt>
      <trkpt lat="43.08547" lon="-4.22685667">
        <ele>1003.0</ele>
        <time>2018-05-19T14:41:47.452Z</time>
      </trkpt>
      <trkpt lat="43.08551667" lon="-4.2269">
        <ele>1004.0</ele>
        <time>2018-05-19T14:41:48.455Z</time>
      </trkpt>
      <trkpt lat="43.08551667" lon="-4.2269">
        <ele>1004.0</ele>
        <time>2018-05-19T14:41:49.452Z</time>
      </trkpt>
      <trkpt lat="43.08556" lon="-4.22694">
        <ele>1004.0</ele>
        <time>2018-05-19T14:41:50.454Z</time>
      </trkpt>
      <trkpt lat="43.08556" lon="-4.22694">
        <ele>1004.0</ele>
        <time>2018-05-19T14:41:51.448Z</time>
      </trkpt>
      <trkpt lat="43.08559833" lon="-4.22697667">
        <ele>1005.0</ele>
        <time>2018-05-19T14:41:52.454Z</time>
      </trkpt>
      <trkpt lat="43.08559833" lon="-4.22697667">
        <ele>1005.0</ele>
        <time>2018-05-19T14:41:53.456Z</time>
      </trkpt>
      <trkpt lat="43.08563667" lon="-4.22701167">
        <ele>1005.0</ele>
        <time>2018-05-19T14:41:54.455Z</time>
      </trkpt>
      <trkpt lat="43.085655" lon="-4.22703">
        <ele>1005.0</ele>
        <time>2018-05-19T14:41:55.456Z</time>
      </trkpt>
      <trkpt lat="43.085655" lon="-4.22703">
        <ele>1005.0</ele>
        <time>2018-05-19T14:41:56.453Z</time>
      </trkpt>
      <trkpt lat="43.08569167" lon="-4.22707167">
        <ele>1006.0</ele>
        <time>2018-05-19T14:41:57.455Z</time>
      </trkpt>
      <trkpt lat="43.08569167" lon="-4.22707167">
        <ele>1006.0</ele>
        <time>2018-05-19T14:41:58.452Z</time>
      </trkpt>
      <trkpt lat="43.08573" lon="-4.22711333">
        <ele>1006.0</ele>
        <time>2018-05-19T14:41:59.451Z</time>
      </trkpt>
      <trkpt lat="43.08573" lon="-4.22711333">
        <ele>1006.0</ele>
        <time>2018-05-19T14:42:00.486Z</time>
      </trkpt>
      <trkpt lat="43.08576667" lon="-4.227155">
        <ele>1006.0</ele>
        <time>2018-05-19T14:42:01.469Z</time>
      </trkpt>
      <trkpt lat="43.085785" lon="-4.22717333">
        <ele>1006.0</ele>
        <time>2018-05-19T14:42:02.454Z</time>
      </trkpt>
      <trkpt lat="43.085785" lon="-4.22717333">
        <ele>1006.0</ele>
        <time>2018-05-19T14:42:03.452Z</time>
      </trkpt>
      <trkpt lat="43.08581833" lon="-4.22721833">
        <ele>1006.0</ele>
        <time>2018-05-19T14:42:04.455Z</time>
      </trkpt>
      <trkpt lat="43.08581833" lon="-4.22721833">
        <ele>1006.0</ele>
        <time>2018-05-19T14:42:05.451Z</time>
      </trkpt>
      <trkpt lat="43.08585" lon="-4.22725167">
        <ele>1007.0</ele>
        <time>2018-05-19T14:42:06.455Z</time>
      </trkpt>
      <trkpt lat="43.08585" lon="-4.22725167">
        <ele>1007.0</ele>
        <time>2018-05-19T14:42:07.452Z</time>
      </trkpt>
      <trkpt lat="43.08588167" lon="-4.227285">
        <ele>1007.0</ele>
        <time>2018-05-19T14:42:08.455Z</time>
      </trkpt>
      <trkpt lat="43.08588167" lon="-4.227285">
        <ele>1007.0</ele>
        <time>2018-05-19T14:42:09.452Z</time>
      </trkpt>
      <trkpt lat="43.08590833" lon="-4.22733">
        <ele>1008.0</ele>
        <time>2018-05-19T14:42:10.457Z</time>
      </trkpt>
      <trkpt lat="43.08592" lon="-4.22735333">
        <ele>1009.0</ele>
        <time>2018-05-19T14:42:11.454Z</time>
      </trkpt>
      <trkpt lat="43.08592" lon="-4.22735333">
        <ele>1009.0</ele>
        <time>2018-05-19T14:42:12.452Z</time>
      </trkpt>
      <trkpt lat="43.08593667" lon="-4.2274">
        <ele>1010.0</ele>
        <time>2018-05-19T14:42:13.455Z</time>
      </trkpt>
      <trkpt lat="43.085945" lon="-4.22742167">
        <ele>1010.0</ele>
        <time>2018-05-19T14:42:14.455Z</time>
      </trkpt>
      <trkpt lat="43.085945" lon="-4.22742167">
        <ele>1010.0</ele>
        <time>2018-05-19T14:42:15.449Z</time>
      </trkpt>
      <trkpt lat="43.08596833" lon="-4.22746167">
        <ele>1010.0</ele>
        <time>2018-05-19T14:42:16.454Z</time>
      </trkpt>
      <trkpt lat="43.08596833" lon="-4.22746167">
        <ele>1010.0</ele>
        <time>2018-05-19T14:42:17.453Z</time>
      </trkpt>
      <trkpt lat="43.08598833" lon="-4.227505">
        <ele>1011.0</ele>
        <time>2018-05-19T14:42:18.455Z</time>
      </trkpt>
      <trkpt lat="43.08598833" lon="-4.227505">
        <ele>1011.0</ele>
        <time>2018-05-19T14:42:19.450Z</time>
      </trkpt>
      <trkpt lat="43.086" lon="-4.22755">
        <ele>1011.0</ele>
        <time>2018-05-19T14:42:20.475Z</time>
      </trkpt>
      <trkpt lat="43.086" lon="-4.22755">
        <ele>1011.0</ele>
        <time>2018-05-19T14:42:21.461Z</time>
      </trkpt>
      <trkpt lat="43.08602333" lon="-4.22759333">
        <ele>1012.0</ele>
        <time>2018-05-19T14:42:22.454Z</time>
      </trkpt>
      <trkpt lat="43.08602333" lon="-4.22759333">
        <ele>1012.0</ele>
        <time>2018-05-19T14:42:23.483Z</time>
      </trkpt>
      <trkpt lat="43.08604167" lon="-4.22764">
        <ele>1012.0</ele>
        <time>2018-05-19T14:42:24.451Z</time>
      </trkpt>
      <trkpt lat="43.08605" lon="-4.22766833">
        <ele>1012.0</ele>
        <time>2018-05-19T14:42:25.458Z</time>
      </trkpt>
      <trkpt lat="43.08605833" lon="-4.22769333">
        <ele>1012.0</ele>
        <time>2018-05-19T14:42:26.455Z</time>
      </trkpt>
      <trkpt lat="43.08605833" lon="-4.22769333">
        <ele>1012.0</ele>
        <time>2018-05-19T14:42:27.453Z</time>
      </trkpt>
      <trkpt lat="43.08607167" lon="-4.22774167">
        <ele>1012.0</ele>
        <time>2018-05-19T14:42:28.454Z</time>
      </trkpt>
      <trkpt lat="43.08607167" lon="-4.22774167">
        <ele>1012.0</ele>
        <time>2018-05-19T14:42:29.452Z</time>
      </trkpt>
      <trkpt lat="43.08609167" lon="-4.227785">
        <ele>1013.0</ele>
        <time>2018-05-19T14:42:30.455Z</time>
      </trkpt>
      <trkpt lat="43.08609167" lon="-4.227785">
        <ele>1013.0</ele>
        <time>2018-05-19T14:42:31.452Z</time>
      </trkpt>
      <trkpt lat="43.08611667" lon="-4.22782667">
        <ele>1013.0</ele>
        <time>2018-05-19T14:42:32.455Z</time>
      </trkpt>
      <trkpt lat="43.08611667" lon="-4.22782667">
        <ele>1013.0</ele>
        <time>2018-05-19T14:42:33.451Z</time>
      </trkpt>
      <trkpt lat="43.08614167" lon="-4.22786833">
        <ele>1014.0</ele>
        <time>2018-05-19T14:42:34.453Z</time>
      </trkpt>
      <trkpt lat="43.086155" lon="-4.22788667">
        <ele>1014.0</ele>
        <time>2018-05-19T14:42:35.454Z</time>
      </trkpt>
      <trkpt lat="43.086155" lon="-4.22788667">
        <ele>1014.0</ele>
        <time>2018-05-19T14:42:36.453Z</time>
      </trkpt>
      <trkpt lat="43.08618833" lon="-4.22791167">
        <ele>1014.0</ele>
        <time>2018-05-19T14:42:37.454Z</time>
      </trkpt>
      <trkpt lat="43.08620833" lon="-4.22792">
        <ele>1014.0</ele>
        <time>2018-05-19T14:42:38.454Z</time>
      </trkpt>
      <trkpt lat="43.08620833" lon="-4.22792">
        <ele>1014.0</ele>
        <time>2018-05-19T14:42:39.453Z</time>
      </trkpt>
      <trkpt lat="43.08624667" lon="-4.227925">
        <ele>1015.0</ele>
        <time>2018-05-19T14:42:40.455Z</time>
      </trkpt>
      <trkpt lat="43.08626667" lon="-4.22792">
        <ele>1015.0</ele>
        <time>2018-05-19T14:42:41.452Z</time>
      </trkpt>
      <trkpt lat="43.08626667" lon="-4.22792">
        <ele>1015.0</ele>
        <time>2018-05-19T14:42:42.470Z</time>
      </trkpt>
      <trkpt lat="43.08630333" lon="-4.22789">
        <ele>1014.0</ele>
        <time>2018-05-19T14:42:43.455Z</time>
      </trkpt>
      <trkpt lat="43.08632167" lon="-4.22787333">
        <ele>1014.0</ele>
        <time>2018-05-19T14:42:44.455Z</time>
      </trkpt>
      <trkpt lat="43.08632167" lon="-4.22787333">
        <ele>1014.0</ele>
        <time>2018-05-19T14:42:45.451Z</time>
      </trkpt>
      <trkpt lat="43.08635833" lon="-4.22784333">
        <ele>1015.0</ele>
        <time>2018-05-19T14:42:46.454Z</time>
      </trkpt>
      <trkpt lat="43.08637333" lon="-4.22782833">
        <ele>1015.0</ele>
        <time>2018-05-19T14:42:47.455Z</time>
      </trkpt>
      <trkpt lat="43.08637333" lon="-4.22782833">
        <ele>1015.0</ele>
        <time>2018-05-19T14:42:48.453Z</time>
      </trkpt>
      <trkpt lat="43.086405" lon="-4.22778667">
        <ele>1015.0</ele>
        <time>2018-05-19T14:42:49.454Z</time>
      </trkpt>
      <trkpt lat="43.086405" lon="-4.22778667">
        <ele>1015.0</ele>
        <time>2018-05-19T14:42:50.450Z</time>
      </trkpt>
      <trkpt lat="43.086435" lon="-4.22775">
        <ele>1015.0</ele>
        <time>2018-05-19T14:42:51.455Z</time>
      </trkpt>
      <trkpt lat="43.086435" lon="-4.22775">
        <ele>1015.0</ele>
        <time>2018-05-19T14:42:52.461Z</time>
      </trkpt>
      <trkpt lat="43.08646833" lon="-4.22771667">
        <ele>1015.0</ele>
        <time>2018-05-19T14:42:53.454Z</time>
      </trkpt>
      <trkpt lat="43.08646833" lon="-4.22771667">
        <ele>1015.0</ele>
        <time>2018-05-19T14:42:54.453Z</time>
      </trkpt>
      <trkpt lat="43.086505" lon="-4.227695">
        <ele>1015.0</ele>
        <time>2018-05-19T14:42:55.453Z</time>
      </trkpt>
      <trkpt lat="43.08652333" lon="-4.227685">
        <ele>1016.0</ele>
        <time>2018-05-19T14:42:56.455Z</time>
      </trkpt>
      <trkpt lat="43.08652333" lon="-4.227685">
        <ele>1016.0</ele>
        <time>2018-05-19T14:42:57.450Z</time>
      </trkpt>
      <trkpt lat="43.08655833" lon="-4.22767167">
        <ele>1016.0</ele>
        <time>2018-05-19T14:42:58.483Z</time>
      </trkpt>
      <trkpt lat="43.08655833" lon="-4.22767167">
        <ele>1016.0</ele>
        <time>2018-05-19T14:42:59.465Z</time>
      </trkpt>
      <trkpt lat="43.08659167" lon="-4.22767333">
        <ele>1017.0</ele>
        <time>2018-05-19T14:43:00.477Z</time>
      </trkpt>
      <trkpt lat="43.08659167" lon="-4.22767333">
        <ele>1017.0</ele>
        <time>2018-05-19T14:43:01.463Z</time>
      </trkpt>
      <trkpt lat="43.08663" lon="-4.22767833">
        <ele>1017.0</ele>
        <time>2018-05-19T14:43:02.455Z</time>
      </trkpt>
      <trkpt lat="43.08663" lon="-4.22767833">
        <ele>1017.0</ele>
        <time>2018-05-19T14:43:03.461Z</time>
      </trkpt>
      <trkpt lat="43.08667167" lon="-4.22769">
        <ele>1017.0</ele>
        <time>2018-05-19T14:43:04.454Z</time>
      </trkpt>
      <trkpt lat="43.08667167" lon="-4.22769">
        <ele>1017.0</ele>
        <time>2018-05-19T14:43:05.449Z</time>
      </trkpt>
      <trkpt lat="43.08670833" lon="-4.22771333">
        <ele>1018.0</ele>
        <time>2018-05-19T14:43:06.454Z</time>
      </trkpt>
      <trkpt lat="43.08672833" lon="-4.22772833">
        <ele>1018.0</ele>
        <time>2018-05-19T14:43:07.477Z</time>
      </trkpt>
      <trkpt lat="43.08672833" lon="-4.22772833">
        <ele>1018.0</ele>
        <time>2018-05-19T14:43:08.471Z</time>
      </trkpt>
      <trkpt lat="43.08677" lon="-4.22776333">
        <ele>1018.0</ele>
        <time>2018-05-19T14:43:09.477Z</time>
      </trkpt>
      <trkpt lat="43.08677" lon="-4.22776333">
        <ele>1018.0</ele>
        <time>2018-05-19T14:43:10.485Z</time>
      </trkpt>
      <trkpt lat="43.08681167" lon="-4.227805">
        <ele>1018.0</ele>
        <time>2018-05-19T14:43:11.454Z</time>
      </trkpt>
      <trkpt lat="43.08683333" lon="-4.22782333">
        <ele>1018.0</ele>
        <time>2018-05-19T14:43:12.455Z</time>
      </trkpt>
      <trkpt lat="43.08683333" lon="-4.22782333">
        <ele>1018.0</ele>
        <time>2018-05-19T14:43:13.452Z</time>
      </trkpt>
      <trkpt lat="43.086875" lon="-4.22785833">
        <ele>1018.0</ele>
        <time>2018-05-19T14:43:14.465Z</time>
      </trkpt>
      <trkpt lat="43.086875" lon="-4.22785833">
        <ele>1018.0</ele>
        <time>2018-05-19T14:43:15.453Z</time>
      </trkpt>
      <trkpt lat="43.08692167" lon="-4.22788333">
        <ele>1019.0</ele>
        <time>2018-05-19T14:43:16.455Z</time>
      </trkpt>
      <trkpt lat="43.08692167" lon="-4.22788333">
        <ele>1019.0</ele>
        <time>2018-05-19T14:43:17.452Z</time>
      </trkpt>
      <trkpt lat="43.08697" lon="-4.2279">
        <ele>1019.0</ele>
        <time>2018-05-19T14:43:18.454Z</time>
      </trkpt>
      <trkpt lat="43.086995" lon="-4.22790167">
        <ele>1019.0</ele>
        <time>2018-05-19T14:43:19.455Z</time>
      </trkpt>
      <trkpt lat="43.08702" lon="-4.22790167">
        <ele>1019.0</ele>
        <time>2018-05-19T14:43:20.455Z</time>
      </trkpt>
      <trkpt lat="43.08702" lon="-4.22790167">
        <ele>1019.0</ele>
        <time>2018-05-19T14:43:21.451Z</time>
      </trkpt>
      <trkpt lat="43.08706667" lon="-4.2279">
        <ele>1019.0</ele>
        <time>2018-05-19T14:43:22.454Z</time>
      </trkpt>
      <trkpt lat="43.08708833" lon="-4.22789833">
        <ele>1019.0</ele>
        <time>2018-05-19T14:43:23.464Z</time>
      </trkpt>
      <trkpt lat="43.08711" lon="-4.22789667">
        <ele>1019.0</ele>
        <time>2018-05-19T14:43:24.463Z</time>
      </trkpt>
      <trkpt lat="43.08711" lon="-4.22789667">
        <ele>1019.0</ele>
        <time>2018-05-19T14:43:25.452Z</time>
      </trkpt>
      <trkpt lat="43.087155" lon="-4.227885">
        <ele>1019.0</ele>
        <time>2018-05-19T14:43:26.461Z</time>
      </trkpt>
      <trkpt lat="43.087155" lon="-4.227885">
        <ele>1019.0</ele>
        <time>2018-05-19T14:43:27.450Z</time>
      </trkpt>
      <trkpt lat="43.08719667" lon="-4.227875">
        <ele>1019.0</ele>
        <time>2018-05-19T14:43:28.455Z</time>
      </trkpt>
      <trkpt lat="43.08719667" lon="-4.227875">
        <ele>1019.0</ele>
        <time>2018-05-19T14:43:29.452Z</time>
      </trkpt>
      <trkpt lat="43.08723667" lon="-4.22786167">
        <ele>1020.0</ele>
        <time>2018-05-19T14:43:30.455Z</time>
      </trkpt>
      <trkpt lat="43.08725667" lon="-4.227855">
        <ele>1020.0</ele>
        <time>2018-05-19T14:43:31.454Z</time>
      </trkpt>
      <trkpt lat="43.08725667" lon="-4.227855">
        <ele>1020.0</ele>
        <time>2018-05-19T14:43:32.450Z</time>
      </trkpt>
      <trkpt lat="43.08729667" lon="-4.22784167">
        <ele>1020.0</ele>
        <time>2018-05-19T14:43:33.456Z</time>
      </trkpt>
      <trkpt lat="43.08731667" lon="-4.22783667">
        <ele>1020.0</ele>
        <time>2018-05-19T14:43:34.454Z</time>
      </trkpt>
      <trkpt lat="43.08731667" lon="-4.22783667">
        <ele>1020.0</ele>
        <time>2018-05-19T14:43:35.452Z</time>
      </trkpt>
      <trkpt lat="43.08735833" lon="-4.22783">
        <ele>1020.0</ele>
        <time>2018-05-19T14:43:36.455Z</time>
      </trkpt>
      <trkpt lat="43.08735833" lon="-4.22783">
        <ele>1020.0</ele>
        <time>2018-05-19T14:43:37.451Z</time>
      </trkpt>
      <trkpt lat="43.08739833" lon="-4.22782">
        <ele>1020.0</ele>
        <time>2018-05-19T14:43:38.455Z</time>
      </trkpt>
      <trkpt lat="43.08739833" lon="-4.22782">
        <ele>1020.0</ele>
        <time>2018-05-19T14:43:39.451Z</time>
      </trkpt>
      <trkpt lat="43.08743833" lon="-4.22780833">
        <ele>1021.0</ele>
        <time>2018-05-19T14:43:40.453Z</time>
      </trkpt>
      <trkpt lat="43.08745833" lon="-4.22779833">
        <ele>1021.0</ele>
        <time>2018-05-19T14:43:41.454Z</time>
      </trkpt>
      <trkpt lat="43.08745833" lon="-4.22779833">
        <ele>1021.0</ele>
        <time>2018-05-19T14:43:42.467Z</time>
      </trkpt>
      <trkpt lat="43.087495" lon="-4.22777833">
        <ele>1021.0</ele>
        <time>2018-05-19T14:43:43.456Z</time>
      </trkpt>
      <trkpt lat="43.08751333" lon="-4.22776833">
        <ele>1021.0</ele>
        <time>2018-05-19T14:43:44.454Z</time>
      </trkpt>
      <trkpt lat="43.08751333" lon="-4.22776833">
        <ele>1021.0</ele>
        <time>2018-05-19T14:43:45.450Z</time>
      </trkpt>
      <trkpt lat="43.08754667" lon="-4.22775833">
        <ele>1022.0</ele>
        <time>2018-05-19T14:43:46.454Z</time>
      </trkpt>
      <trkpt lat="43.08754667" lon="-4.22775833">
        <ele>1022.0</ele>
        <time>2018-05-19T14:43:47.453Z</time>
      </trkpt>
      <trkpt lat="43.08757667" lon="-4.22775">
        <ele>1022.0</ele>
        <time>2018-05-19T14:43:48.456Z</time>
      </trkpt>
      <trkpt lat="43.08757667" lon="-4.22775">
        <ele>1022.0</ele>
        <time>2018-05-19T14:43:49.449Z</time>
      </trkpt>
      <trkpt lat="43.08760667" lon="-4.22776333">
        <ele>1023.0</ele>
        <time>2018-05-19T14:43:50.455Z</time>
      </trkpt>
      <trkpt lat="43.08762" lon="-4.22777333">
        <ele>1023.0</ele>
        <time>2018-05-19T14:43:51.454Z</time>
      </trkpt>
      <trkpt lat="43.08762" lon="-4.22777333">
        <ele>1023.0</ele>
        <time>2018-05-19T14:43:52.453Z</time>
      </trkpt>
      <trkpt lat="43.08763667" lon="-4.227795">
        <ele>1023.0</ele>
        <time>2018-05-19T14:43:53.455Z</time>
      </trkpt>
      <trkpt lat="43.08764167" lon="-4.227805">
        <ele>1023.0</ele>
        <time>2018-05-19T14:43:54.463Z</time>
      </trkpt>
      <trkpt lat="43.08764167" lon="-4.227805">
        <ele>1023.0</ele>
        <time>2018-05-19T14:43:55.452Z</time>
      </trkpt>
      <trkpt lat="43.08764333" lon="-4.22783">
        <ele>1023.0</ele>
        <time>2018-05-19T14:43:56.461Z</time>
      </trkpt>
      <trkpt lat="43.08764333" lon="-4.22783">
        <ele>1023.0</ele>
        <time>2018-05-19T14:43:57.454Z</time>
      </trkpt>
      <trkpt lat="43.08764" lon="-4.22784667">
        <ele>1024.0</ele>
        <time>2018-05-19T14:43:58.454Z</time>
      </trkpt>
      <trkpt lat="43.08764" lon="-4.22784667">
        <ele>1024.0</ele>
        <time>2018-05-19T14:43:59.456Z</time>
      </trkpt>
      <trkpt lat="43.08764" lon="-4.22785333">
        <ele>1024.0</ele>
        <time>2018-05-19T14:44:00.478Z</time>
      </trkpt>
      <trkpt lat="43.08763333" lon="-4.22798667">
        <ele>1023.0</ele>
        <time>2018-05-19T14:44:01.466Z</time>
      </trkpt>
      <trkpt lat="43.08763333" lon="-4.22798667">
        <ele>1023.0</ele>
        <time>2018-05-19T14:44:02.463Z</time>
      </trkpt>
      <trkpt lat="43.08762333" lon="-4.22800167">
        <ele>1023.0</ele>
        <time>2018-05-19T14:44:03.474Z</time>
      </trkpt>
      <trkpt lat="43.08762333" lon="-4.22800167">
        <ele>1023.0</ele>
        <time>2018-05-19T14:44:04.463Z</time>
      </trkpt>
      <trkpt lat="43.08761667" lon="-4.22801">
        <ele>1023.0</ele>
        <time>2018-05-19T14:44:05.468Z</time>
      </trkpt>
      <trkpt lat="43.08761667" lon="-4.22801">
        <ele>1023.0</ele>
        <time>2018-05-19T14:44:06.465Z</time>
      </trkpt>
      <trkpt lat="43.08760667" lon="-4.22802333">
        <ele>1023.0</ele>
        <time>2018-05-19T14:44:07.466Z</time>
      </trkpt>
      <trkpt lat="43.08760667" lon="-4.22802333">
        <ele>1023.0</ele>
        <time>2018-05-19T14:44:08.461Z</time>
      </trkpt>
      <trkpt lat="43.087605" lon="-4.22802833">
        <ele>1023.0</ele>
        <time>2018-05-19T14:44:09.459Z</time>
      </trkpt>
      <trkpt lat="43.08760833" lon="-4.228045">
        <ele>1026.0</ele>
        <time>2018-05-19T14:44:10.463Z</time>
      </trkpt>
      <trkpt lat="43.08760833" lon="-4.228045">
        <ele>1026.0</ele>
        <time>2018-05-19T14:44:11.460Z</time>
      </trkpt>
      <trkpt lat="43.08759167" lon="-4.22808667">
        <ele>1026.0</ele>
        <time>2018-05-19T14:44:12.449Z</time>
      </trkpt>
      <trkpt lat="43.08759167" lon="-4.22808667">
        <ele>1026.0</ele>
        <time>2018-05-19T14:44:13.484Z</time>
      </trkpt>
      <trkpt lat="43.08757167" lon="-4.22813333">
        <ele>1027.0</ele>
        <time>2018-05-19T14:44:14.470Z</time>
      </trkpt>
      <trkpt lat="43.08757167" lon="-4.22813333">
        <ele>1027.0</ele>
        <time>2018-05-19T14:44:15.461Z</time>
      </trkpt>
      <trkpt lat="43.08754833" lon="-4.22817833">
        <ele>1027.0</ele>
        <time>2018-05-19T14:44:16.464Z</time>
      </trkpt>
      <trkpt lat="43.08754833" lon="-4.22817833">
        <ele>1027.0</ele>
        <time>2018-05-19T14:44:17.470Z</time>
      </trkpt>
      <trkpt lat="43.08751667" lon="-4.22822333">
        <ele>1027.0</ele>
        <time>2018-05-19T14:44:18.466Z</time>
      </trkpt>
      <trkpt lat="43.08751667" lon="-4.22822333">
        <ele>1027.0</ele>
        <time>2018-05-19T14:44:19.461Z</time>
      </trkpt>
      <trkpt lat="43.087485" lon="-4.22827167">
        <ele>1027.0</ele>
        <time>2018-05-19T14:44:20.467Z</time>
      </trkpt>
      <trkpt lat="43.087485" lon="-4.22827167">
        <ele>1027.0</ele>
        <time>2018-05-19T14:44:21.459Z</time>
      </trkpt>
      <trkpt lat="43.08745333" lon="-4.228325">
        <ele>1028.0</ele>
        <time>2018-05-19T14:44:22.473Z</time>
      </trkpt>
      <trkpt lat="43.08743833" lon="-4.22835333">
        <ele>1028.0</ele>
        <time>2018-05-19T14:44:23.465Z</time>
      </trkpt>
      <trkpt lat="43.087425" lon="-4.22838">
        <ele>1028.0</ele>
        <time>2018-05-19T14:44:24.464Z</time>
      </trkpt>
      <trkpt lat="43.087425" lon="-4.22838">
        <ele>1028.0</ele>
        <time>2018-05-19T14:44:25.461Z</time>
      </trkpt>
      <trkpt lat="43.0874" lon="-4.22843">
        <ele>1028.0</ele>
        <time>2018-05-19T14:44:26.461Z</time>
      </trkpt>
      <trkpt lat="43.08738833" lon="-4.228455">
        <ele>1028.0</ele>
        <time>2018-05-19T14:44:27.465Z</time>
      </trkpt>
      <trkpt lat="43.08738833" lon="-4.228455">
        <ele>1028.0</ele>
        <time>2018-05-19T14:44:28.456Z</time>
      </trkpt>
      <trkpt lat="43.08736667" lon="-4.228505">
        <ele>1029.0</ele>
        <time>2018-05-19T14:44:29.462Z</time>
      </trkpt>
      <trkpt lat="43.08735833" lon="-4.22853167">
        <ele>1029.0</ele>
        <time>2018-05-19T14:44:30.464Z</time>
      </trkpt>
      <trkpt lat="43.08735833" lon="-4.22853167">
        <ele>1029.0</ele>
        <time>2018-05-19T14:44:31.460Z</time>
      </trkpt>
      <trkpt lat="43.08734" lon="-4.22858167">
        <ele>1030.0</ele>
        <time>2018-05-19T14:44:32.462Z</time>
      </trkpt>
      <trkpt lat="43.08734" lon="-4.22858167">
        <ele>1030.0</ele>
        <time>2018-05-19T14:44:33.458Z</time>
      </trkpt>
      <trkpt lat="43.08732333" lon="-4.228635">
        <ele>1030.0</ele>
        <time>2018-05-19T14:44:34.462Z</time>
      </trkpt>
      <trkpt lat="43.08732333" lon="-4.228635">
        <ele>1030.0</ele>
        <time>2018-05-19T14:44:35.460Z</time>
      </trkpt>
      <trkpt lat="43.08730833" lon="-4.228695">
        <ele>1030.0</ele>
        <time>2018-05-19T14:44:36.458Z</time>
      </trkpt>
      <trkpt lat="43.0873" lon="-4.22872333">
        <ele>1031.0</ele>
        <time>2018-05-19T14:44:37.462Z</time>
      </trkpt>
      <trkpt lat="43.08729333" lon="-4.22875167">
        <ele>1031.0</ele>
        <time>2018-05-19T14:44:38.479Z</time>
      </trkpt>
      <trkpt lat="43.08729333" lon="-4.22875167">
        <ele>1031.0</ele>
        <time>2018-05-19T14:44:39.479Z</time>
      </trkpt>
      <trkpt lat="43.08728167" lon="-4.22881">
        <ele>1031.0</ele>
        <time>2018-05-19T14:44:40.473Z</time>
      </trkpt>
      <trkpt lat="43.08727667" lon="-4.22884">
        <ele>1031.0</ele>
        <time>2018-05-19T14:44:41.463Z</time>
      </trkpt>
      <trkpt lat="43.08727667" lon="-4.22884">
        <ele>1031.0</ele>
        <time>2018-05-19T14:44:42.463Z</time>
      </trkpt>
      <trkpt lat="43.08727667" lon="-4.22890167">
        <ele>1032.0</ele>
        <time>2018-05-19T14:44:43.462Z</time>
      </trkpt>
      <trkpt lat="43.08727333" lon="-4.22893167">
        <ele>1032.0</ele>
        <time>2018-05-19T14:44:44.463Z</time>
      </trkpt>
      <trkpt lat="43.08727333" lon="-4.22893167">
        <ele>1032.0</ele>
        <time>2018-05-19T14:44:45.458Z</time>
      </trkpt>
      <trkpt lat="43.08727333" lon="-4.22899333">
        <ele>1033.0</ele>
        <time>2018-05-19T14:44:46.450Z</time>
      </trkpt>
      <trkpt lat="43.08727333" lon="-4.22899333">
        <ele>1033.0</ele>
        <time>2018-05-19T14:44:47.478Z</time>
      </trkpt>
      <trkpt lat="43.087275" lon="-4.22905667">
        <ele>1033.0</ele>
        <time>2018-05-19T14:44:48.464Z</time>
      </trkpt>
      <trkpt lat="43.087275" lon="-4.22905667">
        <ele>1033.0</ele>
        <time>2018-05-19T14:44:49.459Z</time>
      </trkpt>
      <trkpt lat="43.08727167" lon="-4.22911667">
        <ele>1034.0</ele>
        <time>2018-05-19T14:44:50.462Z</time>
      </trkpt>
      <trkpt lat="43.08727167" lon="-4.22911667">
        <ele>1034.0</ele>
        <time>2018-05-19T14:44:51.459Z</time>
      </trkpt>
      <trkpt lat="43.08726667" lon="-4.22917167">
        <ele>1034.0</ele>
        <time>2018-05-19T14:44:52.464Z</time>
      </trkpt>
      <trkpt lat="43.08726167" lon="-4.22919833">
        <ele>1035.0</ele>
        <time>2018-05-19T14:44:53.462Z</time>
      </trkpt>
      <trkpt lat="43.08725833" lon="-4.22922333">
        <ele>1035.0</ele>
        <time>2018-05-19T14:44:54.465Z</time>
      </trkpt>
      <trkpt lat="43.08725833" lon="-4.22922333">
        <ele>1035.0</ele>
        <time>2018-05-19T14:44:55.461Z</time>
      </trkpt>
      <trkpt lat="43.087255" lon="-4.22927167">
        <ele>1035.0</ele>
        <time>2018-05-19T14:44:56.464Z</time>
      </trkpt>
      <trkpt lat="43.087255" lon="-4.22927167">
        <ele>1035.0</ele>
        <time>2018-05-19T14:44:57.460Z</time>
      </trkpt>
      <trkpt lat="43.08724667" lon="-4.229325">
        <ele>1036.0</ele>
        <time>2018-05-19T14:44:58.463Z</time>
      </trkpt>
      <trkpt lat="43.08724667" lon="-4.229325">
        <ele>1036.0</ele>
        <time>2018-05-19T14:44:59.459Z</time>
      </trkpt>
      <trkpt lat="43.087235" lon="-4.22938167">
        <ele>1036.0</ele>
        <time>2018-05-19T14:45:00.464Z</time>
      </trkpt>
      <trkpt lat="43.087235" lon="-4.22938167">
        <ele>1036.0</ele>
        <time>2018-05-19T14:45:01.460Z</time>
      </trkpt>
      <trkpt lat="43.08722667" lon="-4.22944167">
        <ele>1037.0</ele>
        <time>2018-05-19T14:45:02.462Z</time>
      </trkpt>
      <trkpt lat="43.08722167" lon="-4.22947333">
        <ele>1037.0</ele>
        <time>2018-05-19T14:45:03.464Z</time>
      </trkpt>
      <trkpt lat="43.08722167" lon="-4.22947333">
        <ele>1037.0</ele>
        <time>2018-05-19T14:45:04.459Z</time>
      </trkpt>
      <trkpt lat="43.08720833" lon="-4.22953">
        <ele>1037.0</ele>
        <time>2018-05-19T14:45:05.462Z</time>
      </trkpt>
      <trkpt lat="43.08720167" lon="-4.22955833">
        <ele>1038.0</ele>
        <time>2018-05-19T14:45:06.466Z</time>
      </trkpt>
      <trkpt lat="43.08720167" lon="-4.22955833">
        <ele>1038.0</ele>
        <time>2018-05-19T14:45:07.459Z</time>
      </trkpt>
      <trkpt lat="43.08719167" lon="-4.22961667">
        <ele>1038.0</ele>
        <time>2018-05-19T14:45:08.463Z</time>
      </trkpt>
      <trkpt lat="43.08719167" lon="-4.22961667">
        <ele>1038.0</ele>
        <time>2018-05-19T14:45:09.458Z</time>
      </trkpt>
      <trkpt lat="43.08718167" lon="-4.229675">
        <ele>1038.0</ele>
        <time>2018-05-19T14:45:10.477Z</time>
      </trkpt>
      <trkpt lat="43.08718167" lon="-4.229675">
        <ele>1038.0</ele>
        <time>2018-05-19T14:45:11.461Z</time>
      </trkpt>
      <trkpt lat="43.08717333" lon="-4.22973167">
        <ele>1039.0</ele>
        <time>2018-05-19T14:45:12.479Z</time>
      </trkpt>
      <trkpt lat="43.08717333" lon="-4.22973167">
        <ele>1039.0</ele>
        <time>2018-05-19T14:45:13.464Z</time>
      </trkpt>
      <trkpt lat="43.08716333" lon="-4.22979167">
        <ele>1039.0</ele>
        <time>2018-05-19T14:45:14.463Z</time>
      </trkpt>
      <trkpt lat="43.08716333" lon="-4.22979167">
        <ele>1039.0</ele>
        <time>2018-05-19T14:45:15.475Z</time>
      </trkpt>
      <trkpt lat="43.087155" lon="-4.22985">
        <ele>1039.0</ele>
        <time>2018-05-19T14:45:16.464Z</time>
      </trkpt>
      <trkpt lat="43.08715333" lon="-4.22988333">
        <ele>1039.0</ele>
        <time>2018-05-19T14:45:17.462Z</time>
      </trkpt>
      <trkpt lat="43.08715167" lon="-4.229915">
        <ele>1039.0</ele>
        <time>2018-05-19T14:45:18.464Z</time>
      </trkpt>
      <trkpt lat="43.08715167" lon="-4.229915">
        <ele>1039.0</ele>
        <time>2018-05-19T14:45:19.459Z</time>
      </trkpt>
      <trkpt lat="43.087155" lon="-4.22997333">
        <ele>1039.0</ele>
        <time>2018-05-19T14:45:20.462Z</time>
      </trkpt>
      <trkpt lat="43.087155" lon="-4.22997333">
        <ele>1039.0</ele>
        <time>2018-05-19T14:45:21.460Z</time>
      </trkpt>
      <trkpt lat="43.08716" lon="-4.23003">
        <ele>1039.0</ele>
        <time>2018-05-19T14:45:22.465Z</time>
      </trkpt>
      <trkpt lat="43.08716333" lon="-4.23005833">
        <ele>1039.0</ele>
        <time>2018-05-19T14:45:23.462Z</time>
      </trkpt>
      <trkpt lat="43.08716667" lon="-4.23008833">
        <ele>1039.0</ele>
        <time>2018-05-19T14:45:24.463Z</time>
      </trkpt>
      <trkpt lat="43.08716667" lon="-4.23008833">
        <ele>1039.0</ele>
        <time>2018-05-19T14:45:25.459Z</time>
      </trkpt>
      <trkpt lat="43.08718167" lon="-4.23014">
        <ele>1039.0</ele>
        <time>2018-05-19T14:45:26.467Z</time>
      </trkpt>
      <trkpt lat="43.08718167" lon="-4.23014">
        <ele>1039.0</ele>
        <time>2018-05-19T14:45:27.457Z</time>
      </trkpt>
      <trkpt lat="43.0872" lon="-4.23019333">
        <ele>1039.0</ele>
        <time>2018-05-19T14:45:28.461Z</time>
      </trkpt>
      <trkpt lat="43.0872" lon="-4.23019333">
        <ele>1039.0</ele>
        <time>2018-05-19T14:45:29.459Z</time>
      </trkpt>
      <trkpt lat="43.08722" lon="-4.23024833">
        <ele>1039.0</ele>
        <time>2018-05-19T14:45:30.463Z</time>
      </trkpt>
      <trkpt lat="43.08722" lon="-4.23024833">
        <ele>1039.0</ele>
        <time>2018-05-19T14:45:31.457Z</time>
      </trkpt>
      <trkpt lat="43.087245" lon="-4.2303">
        <ele>1040.0</ele>
        <time>2018-05-19T14:45:32.462Z</time>
      </trkpt>
      <trkpt lat="43.087245" lon="-4.2303">
        <ele>1040.0</ele>
        <time>2018-05-19T14:45:33.458Z</time>
      </trkpt>
      <trkpt lat="43.08727833" lon="-4.23034667">
        <ele>1040.0</ele>
        <time>2018-05-19T14:45:34.479Z</time>
      </trkpt>
      <trkpt lat="43.08729333" lon="-4.23037167">
        <ele>1039.0</ele>
        <time>2018-05-19T14:45:35.474Z</time>
      </trkpt>
      <trkpt lat="43.08731" lon="-4.230395">
        <ele>1039.0</ele>
        <time>2018-05-19T14:45:36.465Z</time>
      </trkpt>
      <trkpt lat="43.08731" lon="-4.230395">
        <ele>1039.0</ele>
        <time>2018-05-19T14:45:37.467Z</time>
      </trkpt>
      <trkpt lat="43.087345" lon="-4.23044167">
        <ele>1039.0</ele>
        <time>2018-05-19T14:45:38.463Z</time>
      </trkpt>
      <trkpt lat="43.087345" lon="-4.23044167">
        <ele>1039.0</ele>
        <time>2018-05-19T14:45:39.459Z</time>
      </trkpt>
      <trkpt lat="43.087375" lon="-4.23049167">
        <ele>1039.0</ele>
        <time>2018-05-19T14:45:40.461Z</time>
      </trkpt>
      <trkpt lat="43.087375" lon="-4.23049167">
        <ele>1039.0</ele>
        <time>2018-05-19T14:45:41.459Z</time>
      </trkpt>
      <trkpt lat="43.087395" lon="-4.23054333">
        <ele>1039.0</ele>
        <time>2018-05-19T14:45:42.472Z</time>
      </trkpt>
      <trkpt lat="43.087395" lon="-4.23054333">
        <ele>1039.0</ele>
        <time>2018-05-19T14:45:43.459Z</time>
      </trkpt>
      <trkpt lat="43.08741167" lon="-4.230605">
        <ele>1040.0</ele>
        <time>2018-05-19T14:45:44.464Z</time>
      </trkpt>
      <trkpt lat="43.08741167" lon="-4.230605">
        <ele>1040.0</ele>
        <time>2018-05-19T14:45:45.459Z</time>
      </trkpt>
      <trkpt lat="43.08741833" lon="-4.23067167">
        <ele>1040.0</ele>
        <time>2018-05-19T14:45:46.461Z</time>
      </trkpt>
      <trkpt lat="43.08741833" lon="-4.23067167">
        <ele>1040.0</ele>
        <time>2018-05-19T14:45:47.456Z</time>
      </trkpt>
      <trkpt lat="43.08742333" lon="-4.230735">
        <ele>1040.0</ele>
        <time>2018-05-19T14:45:48.464Z</time>
      </trkpt>
      <trkpt lat="43.08742333" lon="-4.230735">
        <ele>1040.0</ele>
        <time>2018-05-19T14:45:49.458Z</time>
      </trkpt>
      <trkpt lat="43.08742333" lon="-4.23080167">
        <ele>1040.0</ele>
        <time>2018-05-19T14:45:50.459Z</time>
      </trkpt>
      <trkpt lat="43.08742333" lon="-4.23080167">
        <ele>1040.0</ele>
        <time>2018-05-19T14:45:51.457Z</time>
      </trkpt>
      <trkpt lat="43.08741667" lon="-4.23086333">
        <ele>1041.0</ele>
        <time>2018-05-19T14:45:52.462Z</time>
      </trkpt>
      <trkpt lat="43.08741333" lon="-4.23089333">
        <ele>1041.0</ele>
        <time>2018-05-19T14:45:53.462Z</time>
      </trkpt>
      <trkpt lat="43.08741333" lon="-4.23089333">
        <ele>1041.0</ele>
        <time>2018-05-19T14:45:54.460Z</time>
      </trkpt>
      <trkpt lat="43.08740833" lon="-4.23094833">
        <ele>1041.0</ele>
        <time>2018-05-19T14:45:55.462Z</time>
      </trkpt>
      <trkpt lat="43.08740833" lon="-4.23097667">
        <ele>1041.0</ele>
        <time>2018-05-19T14:45:56.463Z</time>
      </trkpt>
      <trkpt lat="43.08740833" lon="-4.23097667">
        <ele>1041.0</ele>
        <time>2018-05-19T14:45:57.459Z</time>
      </trkpt>
      <trkpt lat="43.08740333" lon="-4.231035">
        <ele>1042.0</ele>
        <time>2018-05-19T14:45:58.463Z</time>
      </trkpt>
      <trkpt lat="43.08740333" lon="-4.231035">
        <ele>1042.0</ele>
        <time>2018-05-19T14:45:59.454Z</time>
      </trkpt>
      <trkpt lat="43.08739333" lon="-4.23109667">
        <ele>1042.0</ele>
        <time>2018-05-19T14:46:00.480Z</time>
      </trkpt>
      <trkpt lat="43.08739333" lon="-4.23109667">
        <ele>1042.0</ele>
        <time>2018-05-19T14:46:01.465Z</time>
      </trkpt>
      <trkpt lat="43.08739167" lon="-4.23116333">
        <ele>1043.0</ele>
        <time>2018-05-19T14:46:02.464Z</time>
      </trkpt>
      <trkpt lat="43.08739167" lon="-4.23116333">
        <ele>1043.0</ele>
        <time>2018-05-19T14:46:03.457Z</time>
      </trkpt>
      <trkpt lat="43.08739" lon="-4.23122833">
        <ele>1043.0</ele>
        <time>2018-05-19T14:46:04.469Z</time>
      </trkpt>
      <trkpt lat="43.08739" lon="-4.23122833">
        <ele>1043.0</ele>
        <time>2018-05-19T14:46:05.458Z</time>
      </trkpt>
      <trkpt lat="43.08739" lon="-4.23129">
        <ele>1043.0</ele>
        <time>2018-05-19T14:46:06.463Z</time>
      </trkpt>
      <trkpt lat="43.08739" lon="-4.23129">
        <ele>1043.0</ele>
        <time>2018-05-19T14:46:07.456Z</time>
      </trkpt>
      <trkpt lat="43.08739" lon="-4.23135">
        <ele>1044.0</ele>
        <time>2018-05-19T14:46:08.463Z</time>
      </trkpt>
      <trkpt lat="43.08739" lon="-4.23135">
        <ele>1044.0</ele>
        <time>2018-05-19T14:46:09.459Z</time>
      </trkpt>
      <trkpt lat="43.08738833" lon="-4.23141167">
        <ele>1044.0</ele>
        <time>2018-05-19T14:46:10.462Z</time>
      </trkpt>
      <trkpt lat="43.08739" lon="-4.23144167">
        <ele>1044.0</ele>
        <time>2018-05-19T14:46:11.462Z</time>
      </trkpt>
      <trkpt lat="43.08738833" lon="-4.23147167">
        <ele>1044.0</ele>
        <time>2018-05-19T14:46:12.481Z</time>
      </trkpt>
      <trkpt lat="43.08738833" lon="-4.23147167">
        <ele>1044.0</ele>
        <time>2018-05-19T14:46:13.465Z</time>
      </trkpt>
      <trkpt lat="43.087385" lon="-4.23153167">
        <ele>1045.0</ele>
        <time>2018-05-19T14:46:14.463Z</time>
      </trkpt>
      <trkpt lat="43.087385" lon="-4.23153167">
        <ele>1045.0</ele>
        <time>2018-05-19T14:46:15.458Z</time>
      </trkpt>
      <trkpt lat="43.08738667" lon="-4.23159167">
        <ele>1045.0</ele>
        <time>2018-05-19T14:46:16.463Z</time>
      </trkpt>
      <trkpt lat="43.08738667" lon="-4.23159167">
        <ele>1045.0</ele>
        <time>2018-05-19T14:46:17.456Z</time>
      </trkpt>
      <trkpt lat="43.08738667" lon="-4.23164833">
        <ele>1046.0</ele>
        <time>2018-05-19T14:46:18.480Z</time>
      </trkpt>
      <trkpt lat="43.08738833" lon="-4.23168">
        <ele>1046.0</ele>
        <time>2018-05-19T14:46:19.466Z</time>
      </trkpt>
      <trkpt lat="43.08739333" lon="-4.23171">
        <ele>1046.0</ele>
        <time>2018-05-19T14:46:20.462Z</time>
      </trkpt>
      <trkpt lat="43.087395" lon="-4.23174">
        <ele>1046.0</ele>
        <time>2018-05-19T14:46:21.463Z</time>
      </trkpt>
      <trkpt lat="43.087395" lon="-4.23174">
        <ele>1046.0</ele>
        <time>2018-05-19T14:46:22.457Z</time>
      </trkpt>
      <trkpt lat="43.08740167" lon="-4.23179667">
        <ele>1047.0</ele>
        <time>2018-05-19T14:46:23.479Z</time>
      </trkpt>
      <trkpt lat="43.08740667" lon="-4.231825">
        <ele>1047.0</ele>
        <time>2018-05-19T14:46:24.465Z</time>
      </trkpt>
      <trkpt lat="43.08740667" lon="-4.231825">
        <ele>1047.0</ele>
        <time>2018-05-19T14:46:25.458Z</time>
      </trkpt>
      <trkpt lat="43.08741333" lon="-4.23187833">
        <ele>1047.0</ele>
        <time>2018-05-19T14:46:26.463Z</time>
      </trkpt>
      <trkpt lat="43.08741333" lon="-4.23187833">
        <ele>1047.0</ele>
        <time>2018-05-19T14:46:27.457Z</time>
      </trkpt>
      <trkpt lat="43.08742333" lon="-4.23192833">
        <ele>1047.0</ele>
        <time>2018-05-19T14:46:28.462Z</time>
      </trkpt>
      <trkpt lat="43.08743167" lon="-4.23195667">
        <ele>1047.0</ele>
        <time>2018-05-19T14:46:29.463Z</time>
      </trkpt>
      <trkpt lat="43.08743167" lon="-4.23195667">
        <ele>1047.0</ele>
        <time>2018-05-19T14:46:30.462Z</time>
      </trkpt>
      <trkpt lat="43.08744667" lon="-4.23201">
        <ele>1048.0</ele>
        <time>2018-05-19T14:46:31.460Z</time>
      </trkpt>
      <trkpt lat="43.08745833" lon="-4.23203333">
        <ele>1048.0</ele>
        <time>2018-05-19T14:46:32.479Z</time>
      </trkpt>
      <trkpt lat="43.08745833" lon="-4.23203333">
        <ele>1048.0</ele>
        <time>2018-05-19T14:46:33.463Z</time>
      </trkpt>
      <trkpt lat="43.087485" lon="-4.23207833">
        <ele>1048.0</ele>
        <time>2018-05-19T14:46:34.461Z</time>
      </trkpt>
      <trkpt lat="43.087485" lon="-4.23207833">
        <ele>1048.0</ele>
        <time>2018-05-19T14:46:35.458Z</time>
      </trkpt>
      <trkpt lat="43.08751" lon="-4.23212">
        <ele>1049.0</ele>
        <time>2018-05-19T14:46:36.463Z</time>
      </trkpt>
      <trkpt lat="43.08751" lon="-4.23212">
        <ele>1049.0</ele>
        <time>2018-05-19T14:46:37.467Z</time>
      </trkpt>
      <trkpt lat="43.08754" lon="-4.23216">
        <ele>1049.0</ele>
        <time>2018-05-19T14:46:38.463Z</time>
      </trkpt>
      <trkpt lat="43.08754" lon="-4.23216">
        <ele>1049.0</ele>
        <time>2018-05-19T14:46:39.461Z</time>
      </trkpt>
      <trkpt lat="43.087575" lon="-4.23219833">
        <ele>1050.0</ele>
        <time>2018-05-19T14:46:40.459Z</time>
      </trkpt>
      <trkpt lat="43.087575" lon="-4.23219833">
        <ele>1050.0</ele>
        <time>2018-05-19T14:46:41.456Z</time>
      </trkpt>
      <trkpt lat="43.08761167" lon="-4.23223">
        <ele>1050.0</ele>
        <time>2018-05-19T14:46:42.480Z</time>
      </trkpt>
      <trkpt lat="43.08761167" lon="-4.23223">
        <ele>1050.0</ele>
        <time>2018-05-19T14:46:43.465Z</time>
      </trkpt>
      <trkpt lat="43.087655" lon="-4.23225167">
        <ele>1050.0</ele>
        <time>2018-05-19T14:46:44.463Z</time>
      </trkpt>
      <trkpt lat="43.087655" lon="-4.23225167">
        <ele>1050.0</ele>
        <time>2018-05-19T14:46:45.459Z</time>
      </trkpt>
      <trkpt lat="43.08769667" lon="-4.23225667">
        <ele>1050.0</ele>
        <time>2018-05-19T14:46:46.462Z</time>
      </trkpt>
      <trkpt lat="43.08769667" lon="-4.23225667">
        <ele>1050.0</ele>
        <time>2018-05-19T14:46:47.456Z</time>
      </trkpt>
      <trkpt lat="43.08774167" lon="-4.23224833">
        <ele>1051.0</ele>
        <time>2018-05-19T14:46:48.485Z</time>
      </trkpt>
      <trkpt lat="43.08774167" lon="-4.23224833">
        <ele>1051.0</ele>
        <time>2018-05-19T14:46:49.471Z</time>
      </trkpt>
      <trkpt lat="43.08778333" lon="-4.23224833">
        <ele>1051.0</ele>
        <time>2018-05-19T14:46:50.463Z</time>
      </trkpt>
      <trkpt lat="43.08778333" lon="-4.23224833">
        <ele>1051.0</ele>
        <time>2018-05-19T14:46:51.458Z</time>
      </trkpt>
      <trkpt lat="43.08782667" lon="-4.23223667">
        <ele>1051.0</ele>
        <time>2018-05-19T14:46:52.459Z</time>
      </trkpt>
      <trkpt lat="43.087845" lon="-4.23223167">
        <ele>1051.0</ele>
        <time>2018-05-19T14:46:53.463Z</time>
      </trkpt>
      <trkpt lat="43.087845" lon="-4.23223167">
        <ele>1051.0</ele>
        <time>2018-05-19T14:46:54.459Z</time>
      </trkpt>
      <trkpt lat="43.08788333" lon="-4.23222333">
        <ele>1053.0</ele>
        <time>2018-05-19T14:46:55.462Z</time>
      </trkpt>
      <trkpt lat="43.087905" lon="-4.23222">
        <ele>1053.0</ele>
        <time>2018-05-19T14:46:56.462Z</time>
      </trkpt>
      <trkpt lat="43.087905" lon="-4.23222">
        <ele>1053.0</ele>
        <time>2018-05-19T14:46:57.450Z</time>
      </trkpt>
      <trkpt lat="43.08794833" lon="-4.232205">
        <ele>1053.0</ele>
        <time>2018-05-19T14:46:58.478Z</time>
      </trkpt>
      <trkpt lat="43.08794833" lon="-4.232205">
        <ele>1053.0</ele>
        <time>2018-05-19T14:46:59.464Z</time>
      </trkpt>
      <trkpt lat="43.08799167" lon="-4.23219">
        <ele>1053.0</ele>
        <time>2018-05-19T14:47:00.465Z</time>
      </trkpt>
      <trkpt lat="43.08801333" lon="-4.232185">
        <ele>1053.0</ele>
        <time>2018-05-19T14:47:01.463Z</time>
      </trkpt>
      <trkpt lat="43.08803167" lon="-4.23218667">
        <ele>1054.0</ele>
        <time>2018-05-19T14:47:02.463Z</time>
      </trkpt>
      <trkpt lat="43.08803167" lon="-4.23218667">
        <ele>1054.0</ele>
        <time>2018-05-19T14:47:03.454Z</time>
      </trkpt>
      <trkpt lat="43.08808167" lon="-4.232195">
        <ele>1054.0</ele>
        <time>2018-05-19T14:47:04.462Z</time>
      </trkpt>
      <trkpt lat="43.08808167" lon="-4.232195">
        <ele>1054.0</ele>
        <time>2018-05-19T14:47:05.458Z</time>
      </trkpt>
      <trkpt lat="43.08812333" lon="-4.23221167">
        <ele>1054.0</ele>
        <time>2018-05-19T14:47:06.464Z</time>
      </trkpt>
      <trkpt lat="43.08812333" lon="-4.23221167">
        <ele>1054.0</ele>
        <time>2018-05-19T14:47:07.466Z</time>
      </trkpt>
      <trkpt lat="43.08816" lon="-4.23224">
        <ele>1055.0</ele>
        <time>2018-05-19T14:47:08.462Z</time>
      </trkpt>
      <trkpt lat="43.08816" lon="-4.23224">
        <ele>1055.0</ele>
        <time>2018-05-19T14:47:09.461Z</time>
      </trkpt>
      <trkpt lat="43.08819" lon="-4.23228167">
        <ele>1055.0</ele>
        <time>2018-05-19T14:47:10.462Z</time>
      </trkpt>
      <trkpt lat="43.08819" lon="-4.23228167">
        <ele>1055.0</ele>
        <time>2018-05-19T14:47:11.456Z</time>
      </trkpt>
      <trkpt lat="43.088215" lon="-4.23234">
        <ele>1056.0</ele>
        <time>2018-05-19T14:47:12.461Z</time>
      </trkpt>
      <trkpt lat="43.088215" lon="-4.23234">
        <ele>1056.0</ele>
        <time>2018-05-19T14:47:13.457Z</time>
      </trkpt>
      <trkpt lat="43.08823833" lon="-4.23239667">
        <ele>1056.0</ele>
        <time>2018-05-19T14:47:14.462Z</time>
      </trkpt>
      <trkpt lat="43.08824833" lon="-4.23242333">
        <ele>1056.0</ele>
        <time>2018-05-19T14:47:15.462Z</time>
      </trkpt>
      <trkpt lat="43.08824833" lon="-4.23242333">
        <ele>1056.0</ele>
        <time>2018-05-19T14:47:16.456Z</time>
      </trkpt>
      <trkpt lat="43.08826333" lon="-4.23248">
        <ele>1057.0</ele>
        <time>2018-05-19T14:47:17.484Z</time>
      </trkpt>
      <trkpt lat="43.08826833" lon="-4.23250833">
        <ele>1057.0</ele>
        <time>2018-05-19T14:47:18.466Z</time>
      </trkpt>
      <trkpt lat="43.08826833" lon="-4.23250833">
        <ele>1057.0</ele>
        <time>2018-05-19T14:47:19.457Z</time>
      </trkpt>
      <trkpt lat="43.08827667" lon="-4.23257">
        <ele>1057.0</ele>
        <time>2018-05-19T14:47:20.463Z</time>
      </trkpt>
      <trkpt lat="43.08827667" lon="-4.23257">
        <ele>1057.0</ele>
        <time>2018-05-19T14:47:21.456Z</time>
      </trkpt>
      <trkpt lat="43.08828333" lon="-4.23263333">
        <ele>1057.0</ele>
        <time>2018-05-19T14:47:22.482Z</time>
      </trkpt>
      <trkpt lat="43.08828833" lon="-4.23266333">
        <ele>1058.0</ele>
        <time>2018-05-19T14:47:23.462Z</time>
      </trkpt>
      <trkpt lat="43.08829167" lon="-4.23269167">
        <ele>1058.0</ele>
        <time>2018-05-19T14:47:24.464Z</time>
      </trkpt>
      <trkpt lat="43.08829167" lon="-4.23269167">
        <ele>1058.0</ele>
        <time>2018-05-19T14:47:25.461Z</time>
      </trkpt>
      <trkpt lat="43.08829833" lon="-4.23275">
        <ele>1058.0</ele>
        <time>2018-05-19T14:47:26.462Z</time>
      </trkpt>
      <trkpt lat="43.08829833" lon="-4.23275">
        <ele>1058.0</ele>
        <time>2018-05-19T14:47:27.455Z</time>
      </trkpt>
      <trkpt lat="43.088305" lon="-4.23281167">
        <ele>1059.0</ele>
        <time>2018-05-19T14:47:28.462Z</time>
      </trkpt>
      <trkpt lat="43.088305" lon="-4.23281167">
        <ele>1059.0</ele>
        <time>2018-05-19T14:47:29.456Z</time>
      </trkpt>
      <trkpt lat="43.088315" lon="-4.232875">
        <ele>1059.0</ele>
        <time>2018-05-19T14:47:30.464Z</time>
      </trkpt>
      <trkpt lat="43.088315" lon="-4.232875">
        <ele>1059.0</ele>
        <time>2018-05-19T14:47:31.456Z</time>
      </trkpt>
      <trkpt lat="43.08832667" lon="-4.23293167">
        <ele>1059.0</ele>
        <time>2018-05-19T14:47:32.462Z</time>
      </trkpt>
      <trkpt lat="43.08832667" lon="-4.23293167">
        <ele>1059.0</ele>
        <time>2018-05-19T14:47:33.456Z</time>
      </trkpt>
      <trkpt lat="43.08833833" lon="-4.23298833">
        <ele>1060.0</ele>
        <time>2018-05-19T14:47:34.479Z</time>
      </trkpt>
      <trkpt lat="43.08833833" lon="-4.23298833">
        <ele>1060.0</ele>
        <time>2018-05-19T14:47:35.464Z</time>
      </trkpt>
      <trkpt lat="43.08835167" lon="-4.23304333">
        <ele>1060.0</ele>
        <time>2018-05-19T14:47:36.463Z</time>
      </trkpt>
      <trkpt lat="43.08835167" lon="-4.23304333">
        <ele>1060.0</ele>
        <time>2018-05-19T14:47:37.460Z</time>
      </trkpt>
      <trkpt lat="43.088365" lon="-4.2331">
        <ele>1060.0</ele>
        <time>2018-05-19T14:47:38.462Z</time>
      </trkpt>
      <trkpt lat="43.088365" lon="-4.2331">
        <ele>1060.0</ele>
        <time>2018-05-19T14:47:39.456Z</time>
      </trkpt>
      <trkpt lat="43.08837667" lon="-4.23315667">
        <ele>1061.0</ele>
        <time>2018-05-19T14:47:40.463Z</time>
      </trkpt>
      <trkpt lat="43.08837667" lon="-4.23315667">
        <ele>1061.0</ele>
        <time>2018-05-19T14:47:41.453Z</time>
      </trkpt>
      <trkpt lat="43.08839" lon="-4.23321833">
        <ele>1061.0</ele>
        <time>2018-05-19T14:47:42.480Z</time>
      </trkpt>
      <trkpt lat="43.08839" lon="-4.23321833">
        <ele>1061.0</ele>
        <time>2018-05-19T14:47:43.465Z</time>
      </trkpt>
      <trkpt lat="43.08840667" lon="-4.23327833">
        <ele>1061.0</ele>
        <time>2018-05-19T14:47:44.469Z</time>
      </trkpt>
      <trkpt lat="43.08840667" lon="-4.23327833">
        <ele>1061.0</ele>
        <time>2018-05-19T14:47:45.458Z</time>
      </trkpt>
      <trkpt lat="43.08842667" lon="-4.23334167">
        <ele>1061.0</ele>
        <time>2018-05-19T14:47:46.461Z</time>
      </trkpt>
      <trkpt lat="43.08842667" lon="-4.23334167">
        <ele>1061.0</ele>
        <time>2018-05-19T14:47:47.453Z</time>
      </trkpt>
      <trkpt lat="43.08844667" lon="-4.23340833">
        <ele>1061.0</ele>
        <time>2018-05-19T14:47:48.483Z</time>
      </trkpt>
      <trkpt lat="43.08844667" lon="-4.23340833">
        <ele>1061.0</ele>
        <time>2018-05-19T14:47:49.466Z</time>
      </trkpt>
      <trkpt lat="43.08846833" lon="-4.23347167">
        <ele>1062.0</ele>
        <time>2018-05-19T14:47:50.450Z</time>
      </trkpt>
      <trkpt lat="43.08846833" lon="-4.23347167">
        <ele>1062.0</ele>
        <time>2018-05-19T14:47:51.484Z</time>
      </trkpt>
      <trkpt lat="43.08848833" lon="-4.23353">
        <ele>1062.0</ele>
        <time>2018-05-19T14:47:52.472Z</time>
      </trkpt>
      <trkpt lat="43.088495" lon="-4.23356">
        <ele>1062.0</ele>
        <time>2018-05-19T14:47:53.461Z</time>
      </trkpt>
      <trkpt lat="43.08850333" lon="-4.23358833">
        <ele>1062.0</ele>
        <time>2018-05-19T14:47:54.478Z</time>
      </trkpt>
      <trkpt lat="43.08850333" lon="-4.23358833">
        <ele>1062.0</ele>
        <time>2018-05-19T14:47:55.473Z</time>
      </trkpt>
      <trkpt lat="43.088515" lon="-4.23364333">
        <ele>1063.0</ele>
        <time>2018-05-19T14:47:56.463Z</time>
      </trkpt>
      <trkpt lat="43.088515" lon="-4.23364333">
        <ele>1063.0</ele>
        <time>2018-05-19T14:47:57.462Z</time>
      </trkpt>
      <trkpt lat="43.08853" lon="-4.23369667">
        <ele>1063.0</ele>
        <time>2018-05-19T14:47:58.463Z</time>
      </trkpt>
      <trkpt lat="43.08853" lon="-4.23369667">
        <ele>1063.0</ele>
        <time>2018-05-19T14:47:59.461Z</time>
      </trkpt>
      <trkpt lat="43.088545" lon="-4.23374833">
        <ele>1064.0</ele>
        <time>2018-05-19T14:48:00.461Z</time>
      </trkpt>
      <trkpt lat="43.088545" lon="-4.23374833">
        <ele>1064.0</ele>
        <time>2018-05-19T14:48:01.456Z</time>
      </trkpt>
      <trkpt lat="43.08856" lon="-4.23380167">
        <ele>1064.0</ele>
        <time>2018-05-19T14:48:02.463Z</time>
      </trkpt>
      <trkpt lat="43.08856" lon="-4.23380167">
        <ele>1064.0</ele>
        <time>2018-05-19T14:48:03.456Z</time>
      </trkpt>
      <trkpt lat="43.088575" lon="-4.23385833">
        <ele>1064.0</ele>
        <time>2018-05-19T14:48:04.478Z</time>
      </trkpt>
      <trkpt lat="43.088575" lon="-4.23385833">
        <ele>1064.0</ele>
        <time>2018-05-19T14:48:05.463Z</time>
      </trkpt>
      <trkpt lat="43.088595" lon="-4.23391833">
        <ele>1064.0</ele>
        <time>2018-05-19T14:48:06.463Z</time>
      </trkpt>
      <trkpt lat="43.088595" lon="-4.23391833">
        <ele>1064.0</ele>
        <time>2018-05-19T14:48:07.453Z</time>
      </trkpt>
      <trkpt lat="43.08861667" lon="-4.23396833">
        <ele>1065.0</ele>
        <time>2018-05-19T14:48:08.457Z</time>
      </trkpt>
      <trkpt lat="43.08863167" lon="-4.23399167">
        <ele>1065.0</ele>
        <time>2018-05-19T14:48:09.461Z</time>
      </trkpt>
      <trkpt lat="43.08863167" lon="-4.23399167">
        <ele>1065.0</ele>
        <time>2018-05-19T14:48:10.457Z</time>
      </trkpt>
      <trkpt lat="43.08868" lon="-4.23400833">
        <ele>1064.0</ele>
        <time>2018-05-19T14:48:11.461Z</time>
      </trkpt>
      <trkpt lat="43.08868" lon="-4.23400833">
        <ele>1064.0</ele>
        <time>2018-05-19T14:48:12.465Z</time>
      </trkpt>
      <trkpt lat="43.08873833" lon="-4.23396833">
        <ele>1063.0</ele>
        <time>2018-05-19T14:48:13.463Z</time>
      </trkpt>
      <trkpt lat="43.08873833" lon="-4.23396833">
        <ele>1063.0</ele>
        <time>2018-05-19T14:48:14.460Z</time>
      </trkpt>
      <trkpt lat="43.088805" lon="-4.23391">
        <ele>1063.0</ele>
        <time>2018-05-19T14:48:15.462Z</time>
      </trkpt>
      <trkpt lat="43.088805" lon="-4.23391">
        <ele>1063.0</ele>
        <time>2018-05-19T14:48:16.456Z</time>
      </trkpt>
      <trkpt lat="43.08887833" lon="-4.23388167">
        <ele>1063.0</ele>
        <time>2018-05-19T14:48:17.483Z</time>
      </trkpt>
      <trkpt lat="43.08887833" lon="-4.23388167">
        <ele>1063.0</ele>
        <time>2018-05-19T14:48:18.466Z</time>
      </trkpt>
      <trkpt lat="43.08895333" lon="-4.23388833">
        <ele>1064.0</ele>
        <time>2018-05-19T14:48:19.462Z</time>
      </trkpt>
      <trkpt lat="43.08895333" lon="-4.23388833">
        <ele>1064.0</ele>
        <time>2018-05-19T14:48:20.486Z</time>
      </trkpt>
      <trkpt lat="43.08902833" lon="-4.23391833">
        <ele>1064.0</ele>
        <time>2018-05-19T14:48:21.472Z</time>
      </trkpt>
      <trkpt lat="43.08902833" lon="-4.23391833">
        <ele>1064.0</ele>
        <time>2018-05-19T14:48:22.459Z</time>
      </trkpt>
      <trkpt lat="43.08909333" lon="-4.23396">
        <ele>1064.0</ele>
        <time>2018-05-19T14:48:23.469Z</time>
      </trkpt>
      <trkpt lat="43.08912333" lon="-4.23398">
        <ele>1065.0</ele>
        <time>2018-05-19T14:48:24.463Z</time>
      </trkpt>
      <trkpt lat="43.08912333" lon="-4.23398">
        <ele>1065.0</ele>
        <time>2018-05-19T14:48:25.469Z</time>
      </trkpt>
      <trkpt lat="43.08917833" lon="-4.23402">
        <ele>1065.0</ele>
        <time>2018-05-19T14:48:26.462Z</time>
      </trkpt>
      <trkpt lat="43.08917833" lon="-4.23402">
        <ele>1065.0</ele>
        <time>2018-05-19T14:48:27.453Z</time>
      </trkpt>
      <trkpt lat="43.08923167" lon="-4.23406667">
        <ele>1066.0</ele>
        <time>2018-05-19T14:48:28.483Z</time>
      </trkpt>
      <trkpt lat="43.08925667" lon="-4.23409">
        <ele>1066.0</ele>
        <time>2018-05-19T14:48:29.468Z</time>
      </trkpt>
      <trkpt lat="43.08928" lon="-4.23411333">
        <ele>1066.0</ele>
        <time>2018-05-19T14:48:30.464Z</time>
      </trkpt>
      <trkpt lat="43.08928" lon="-4.23411333">
        <ele>1066.0</ele>
        <time>2018-05-19T14:48:31.463Z</time>
      </trkpt>
      <trkpt lat="43.08932667" lon="-4.23415333">
        <ele>1067.0</ele>
        <time>2018-05-19T14:48:32.462Z</time>
      </trkpt>
      <trkpt lat="43.08932667" lon="-4.23415333">
        <ele>1067.0</ele>
        <time>2018-05-19T14:48:33.454Z</time>
      </trkpt>
      <trkpt lat="43.08937167" lon="-4.23419667">
        <ele>1067.0</ele>
        <time>2018-05-19T14:48:34.478Z</time>
      </trkpt>
      <trkpt lat="43.08937167" lon="-4.23419667">
        <ele>1067.0</ele>
        <time>2018-05-19T14:48:35.463Z</time>
      </trkpt>
      <trkpt lat="43.08941667" lon="-4.23424333">
        <ele>1068.0</ele>
        <time>2018-05-19T14:48:36.463Z</time>
      </trkpt>
      <trkpt lat="43.08941667" lon="-4.23424333">
        <ele>1068.0</ele>
        <time>2018-05-19T14:48:37.456Z</time>
      </trkpt>
      <trkpt lat="43.08945833" lon="-4.23429333">
        <ele>1068.0</ele>
        <time>2018-05-19T14:48:38.465Z</time>
      </trkpt>
      <trkpt lat="43.08945833" lon="-4.23429333">
        <ele>1068.0</ele>
        <time>2018-05-19T14:48:39.457Z</time>
      </trkpt>
      <trkpt lat="43.08949833" lon="-4.23434167">
        <ele>1069.0</ele>
        <time>2018-05-19T14:48:40.461Z</time>
      </trkpt>
      <trkpt lat="43.08951833" lon="-4.234365">
        <ele>1069.0</ele>
        <time>2018-05-19T14:48:41.462Z</time>
      </trkpt>
      <trkpt lat="43.089535" lon="-4.23439167">
        <ele>1069.0</ele>
        <time>2018-05-19T14:48:42.464Z</time>
      </trkpt>
      <trkpt lat="43.089535" lon="-4.23439167">
        <ele>1069.0</ele>
        <time>2018-05-19T14:48:43.456Z</time>
      </trkpt>
      <trkpt lat="43.08956333" lon="-4.23444">
        <ele>1069.0</ele>
        <time>2018-05-19T14:48:44.471Z</time>
      </trkpt>
      <trkpt lat="43.08956333" lon="-4.23444">
        <ele>1069.0</ele>
        <time>2018-05-19T14:48:45.460Z</time>
      </trkpt>
      <trkpt lat="43.089595" lon="-4.23448833">
        <ele>1070.0</ele>
        <time>2018-05-19T14:48:46.462Z</time>
      </trkpt>
      <trkpt lat="43.089595" lon="-4.23448833">
        <ele>1070.0</ele>
        <time>2018-05-19T14:48:47.456Z</time>
      </trkpt>
      <trkpt lat="43.08962333" lon="-4.23454">
        <ele>1070.0</ele>
        <time>2018-05-19T14:48:48.465Z</time>
      </trkpt>
      <trkpt lat="43.08962333" lon="-4.23454">
        <ele>1070.0</ele>
        <time>2018-05-19T14:48:49.461Z</time>
      </trkpt>
      <trkpt lat="43.08965333" lon="-4.234595">
        <ele>1071.0</ele>
        <time>2018-05-19T14:48:50.462Z</time>
      </trkpt>
      <trkpt lat="43.08965333" lon="-4.234595">
        <ele>1071.0</ele>
        <time>2018-05-19T14:48:51.456Z</time>
      </trkpt>
      <trkpt lat="43.08968833" lon="-4.23464833">
        <ele>1071.0</ele>
        <time>2018-05-19T14:48:52.461Z</time>
      </trkpt>
      <trkpt lat="43.08968833" lon="-4.23464833">
        <ele>1071.0</ele>
        <time>2018-05-19T14:48:53.453Z</time>
      </trkpt>
      <trkpt lat="43.08972" lon="-4.23470333">
        <ele>1072.0</ele>
        <time>2018-05-19T14:48:54.479Z</time>
      </trkpt>
      <trkpt lat="43.08973667" lon="-4.23472833">
        <ele>1072.0</ele>
        <time>2018-05-19T14:48:55.478Z</time>
      </trkpt>
      <trkpt lat="43.08973667" lon="-4.23472833">
        <ele>1072.0</ele>
        <time>2018-05-19T14:48:56.462Z</time>
      </trkpt>
      <trkpt lat="43.08978167" lon="-4.23478167">
        <ele>1072.0</ele>
        <time>2018-05-19T14:48:57.463Z</time>
      </trkpt>
      <trkpt lat="43.08978167" lon="-4.23478167">
        <ele>1072.0</ele>
        <time>2018-05-19T14:48:58.460Z</time>
      </trkpt>
      <trkpt lat="43.08982" lon="-4.23481833">
        <ele>1073.0</ele>
        <time>2018-05-19T14:48:59.461Z</time>
      </trkpt>
      <trkpt lat="43.08984" lon="-4.23483333">
        <ele>1073.0</ele>
        <time>2018-05-19T14:49:00.466Z</time>
      </trkpt>
      <trkpt lat="43.08984" lon="-4.23483333">
        <ele>1073.0</ele>
        <time>2018-05-19T14:49:01.458Z</time>
      </trkpt>
      <trkpt lat="43.089885" lon="-4.23486833">
        <ele>1073.0</ele>
        <time>2018-05-19T14:49:02.461Z</time>
      </trkpt>
      <trkpt lat="43.089885" lon="-4.23486833">
        <ele>1073.0</ele>
        <time>2018-05-19T14:49:03.456Z</time>
      </trkpt>
      <trkpt lat="43.08992833" lon="-4.23490667">
        <ele>1073.0</ele>
        <time>2018-05-19T14:49:04.463Z</time>
      </trkpt>
      <trkpt lat="43.08992833" lon="-4.23490667">
        <ele>1073.0</ele>
        <time>2018-05-19T14:49:05.466Z</time>
      </trkpt>
      <trkpt lat="43.08997167" lon="-4.234945">
        <ele>1073.0</ele>
        <time>2018-05-19T14:49:06.464Z</time>
      </trkpt>
      <trkpt lat="43.08997167" lon="-4.234945">
        <ele>1073.0</ele>
        <time>2018-05-19T14:49:07.460Z</time>
      </trkpt>
      <trkpt lat="43.09002667" lon="-4.23497667">
        <ele>1073.0</ele>
        <time>2018-05-19T14:49:08.470Z</time>
      </trkpt>
      <trkpt lat="43.09002667" lon="-4.23497667">
        <ele>1073.0</ele>
        <time>2018-05-19T14:49:09.456Z</time>
      </trkpt>
      <trkpt lat="43.09008167" lon="-4.235005">
        <ele>1073.0</ele>
        <time>2018-05-19T14:49:10.462Z</time>
      </trkpt>
      <trkpt lat="43.09008167" lon="-4.235005">
        <ele>1073.0</ele>
        <time>2018-05-19T14:49:11.457Z</time>
      </trkpt>
      <trkpt lat="43.090135" lon="-4.23504167">
        <ele>1074.0</ele>
        <time>2018-05-19T14:49:12.456Z</time>
      </trkpt>
      <trkpt lat="43.090135" lon="-4.23504167">
        <ele>1074.0</ele>
        <time>2018-05-19T14:49:13.453Z</time>
      </trkpt>
      <trkpt lat="43.09018667" lon="-4.23507333">
        <ele>1074.0</ele>
        <time>2018-05-19T14:49:14.478Z</time>
      </trkpt>
      <trkpt lat="43.09018667" lon="-4.23507333">
        <ele>1074.0</ele>
        <time>2018-05-19T14:49:15.464Z</time>
      </trkpt>
      <trkpt lat="43.09023833" lon="-4.23510833">
        <ele>1074.0</ele>
        <time>2018-05-19T14:49:16.462Z</time>
      </trkpt>
      <trkpt lat="43.09023833" lon="-4.23510833">
        <ele>1074.0</ele>
        <time>2018-05-19T14:49:17.453Z</time>
      </trkpt>
      <trkpt lat="43.090285" lon="-4.235145">
        <ele>1074.0</ele>
        <time>2018-05-19T14:49:18.483Z</time>
      </trkpt>
      <trkpt lat="43.090285" lon="-4.235145">
        <ele>1074.0</ele>
        <time>2018-05-19T14:49:19.479Z</time>
      </trkpt>
      <trkpt lat="43.09033333" lon="-4.235185">
        <ele>1074.0</ele>
        <time>2018-05-19T14:49:20.469Z</time>
      </trkpt>
      <trkpt lat="43.09033333" lon="-4.235185">
        <ele>1074.0</ele>
        <time>2018-05-19T14:49:21.456Z</time>
      </trkpt>
      <trkpt lat="43.090385" lon="-4.23522833">
        <ele>1074.0</ele>
        <time>2018-05-19T14:49:22.478Z</time>
      </trkpt>
      <trkpt lat="43.09041167" lon="-4.23525">
        <ele>1075.0</ele>
        <time>2018-05-19T14:49:23.462Z</time>
      </trkpt>
      <trkpt lat="43.09041167" lon="-4.23525">
        <ele>1075.0</ele>
        <time>2018-05-19T14:49:24.461Z</time>
      </trkpt>
      <trkpt lat="43.09046" lon="-4.23529">
        <ele>1075.0</ele>
        <time>2018-05-19T14:49:25.463Z</time>
      </trkpt>
      <trkpt lat="43.090485" lon="-4.23530833">
        <ele>1075.0</ele>
        <time>2018-05-19T14:49:26.462Z</time>
      </trkpt>
      <trkpt lat="43.090485" lon="-4.23530833">
        <ele>1075.0</ele>
        <time>2018-05-19T14:49:27.457Z</time>
      </trkpt>
      <trkpt lat="43.09054667" lon="-4.235345">
        <ele>1075.0</ele>
        <time>2018-05-19T14:49:28.460Z</time>
      </trkpt>
      <trkpt lat="43.09054667" lon="-4.235345">
        <ele>1075.0</ele>
        <time>2018-05-19T14:49:29.456Z</time>
      </trkpt>
      <trkpt lat="43.09060167" lon="-4.23537167">
        <ele>1076.0</ele>
        <time>2018-05-19T14:49:30.463Z</time>
      </trkpt>
      <trkpt lat="43.09060167" lon="-4.23537167">
        <ele>1076.0</ele>
        <time>2018-05-19T14:49:31.453Z</time>
      </trkpt>
      <trkpt lat="43.090655" lon="-4.23539667">
        <ele>1076.0</ele>
        <time>2018-05-19T14:49:32.482Z</time>
      </trkpt>
      <trkpt lat="43.090655" lon="-4.23539667">
        <ele>1076.0</ele>
        <time>2018-05-19T14:49:33.467Z</time>
      </trkpt>
      <trkpt lat="43.09070833" lon="-4.23542167">
        <ele>1076.0</ele>
        <time>2018-05-19T14:49:34.462Z</time>
      </trkpt>
      <trkpt lat="43.090735" lon="-4.23543333">
        <ele>1076.0</ele>
        <time>2018-05-19T14:49:35.462Z</time>
      </trkpt>
      <trkpt lat="43.09076167" lon="-4.23544333">
        <ele>1077.0</ele>
        <time>2018-05-19T14:49:36.463Z</time>
      </trkpt>
      <trkpt lat="43.09076167" lon="-4.23544333">
        <ele>1077.0</ele>
        <time>2018-05-19T14:49:37.459Z</time>
      </trkpt>
      <trkpt lat="43.09082" lon="-4.235465">
        <ele>1077.0</ele>
        <time>2018-05-19T14:49:38.461Z</time>
      </trkpt>
      <trkpt lat="43.09082" lon="-4.235465">
        <ele>1077.0</ele>
        <time>2018-05-19T14:49:39.457Z</time>
      </trkpt>
      <trkpt lat="43.09087333" lon="-4.23548667">
        <ele>1077.0</ele>
        <time>2018-05-19T14:49:40.458Z</time>
      </trkpt>
      <trkpt lat="43.09090167" lon="-4.23549667">
        <ele>1077.0</ele>
        <time>2018-05-19T14:49:41.462Z</time>
      </trkpt>
      <trkpt lat="43.09090167" lon="-4.23549667">
        <ele>1077.0</ele>
        <time>2018-05-19T14:49:42.460Z</time>
      </trkpt>
      <trkpt lat="43.09095833" lon="-4.23551167">
        <ele>1077.0</ele>
        <time>2018-05-19T14:49:43.462Z</time>
      </trkpt>
      <trkpt lat="43.09098833" lon="-4.23552">
        <ele>1077.0</ele>
        <time>2018-05-19T14:49:44.463Z</time>
      </trkpt>
      <trkpt lat="43.09098833" lon="-4.23552">
        <ele>1077.0</ele>
        <time>2018-05-19T14:49:45.454Z</time>
      </trkpt>
      <trkpt lat="43.09104333" lon="-4.23553833">
        <ele>1077.0</ele>
        <time>2018-05-19T14:49:46.461Z</time>
      </trkpt>
      <trkpt lat="43.09104333" lon="-4.23553833">
        <ele>1077.0</ele>
        <time>2018-05-19T14:49:47.458Z</time>
      </trkpt>
      <trkpt lat="43.09109833" lon="-4.23555167">
        <ele>1077.0</ele>
        <time>2018-05-19T14:49:48.463Z</time>
      </trkpt>
      <trkpt lat="43.09109833" lon="-4.23555167">
        <ele>1077.0</ele>
        <time>2018-05-19T14:49:49.454Z</time>
      </trkpt>
      <trkpt lat="43.091155" lon="-4.235575">
        <ele>1077.0</ele>
        <time>2018-05-19T14:49:50.461Z</time>
      </trkpt>
      <trkpt lat="43.091155" lon="-4.235575">
        <ele>1077.0</ele>
        <time>2018-05-19T14:49:51.453Z</time>
      </trkpt>
      <trkpt lat="43.09121833" lon="-4.23559333">
        <ele>1077.0</ele>
        <time>2018-05-19T14:49:52.461Z</time>
      </trkpt>
      <trkpt lat="43.09121833" lon="-4.23559333">
        <ele>1077.0</ele>
        <time>2018-05-19T14:49:53.453Z</time>
      </trkpt>
      <trkpt lat="43.09128167" lon="-4.23561333">
        <ele>1077.0</ele>
        <time>2018-05-19T14:49:54.479Z</time>
      </trkpt>
      <trkpt lat="43.09128167" lon="-4.23561333">
        <ele>1077.0</ele>
        <time>2018-05-19T14:49:55.464Z</time>
      </trkpt>
      <trkpt lat="43.09133833" lon="-4.23564667">
        <ele>1078.0</ele>
        <time>2018-05-19T14:49:56.462Z</time>
      </trkpt>
      <trkpt lat="43.09133833" lon="-4.23564667">
        <ele>1078.0</ele>
        <time>2018-05-19T14:49:57.456Z</time>
      </trkpt>
      <trkpt lat="43.09139667" lon="-4.235665">
        <ele>1078.0</ele>
        <time>2018-05-19T14:49:58.460Z</time>
      </trkpt>
      <trkpt lat="43.09139667" lon="-4.235665">
        <ele>1078.0</ele>
        <time>2018-05-19T14:49:59.453Z</time>
      </trkpt>
      <trkpt lat="43.09145833" lon="-4.23569333">
        <ele>1078.0</ele>
        <time>2018-05-19T14:50:00.478Z</time>
      </trkpt>
      <trkpt lat="43.09145833" lon="-4.23569333">
        <ele>1078.0</ele>
        <time>2018-05-19T14:50:01.463Z</time>
      </trkpt>
      <trkpt lat="43.09153" lon="-4.23571667">
        <ele>1078.0</ele>
        <time>2018-05-19T14:50:02.462Z</time>
      </trkpt>
      <trkpt lat="43.09153" lon="-4.23571667">
        <ele>1078.0</ele>
        <time>2018-05-19T14:50:03.453Z</time>
      </trkpt>
      <trkpt lat="43.09159167" lon="-4.23574333">
        <ele>1079.0</ele>
        <time>2018-05-19T14:50:04.478Z</time>
      </trkpt>
      <trkpt lat="43.09159167" lon="-4.23574333">
        <ele>1079.0</ele>
        <time>2018-05-19T14:50:05.464Z</time>
      </trkpt>
      <trkpt lat="43.09165333" lon="-4.23576667">
        <ele>1079.0</ele>
        <time>2018-05-19T14:50:06.463Z</time>
      </trkpt>
      <trkpt lat="43.09165333" lon="-4.23576667">
        <ele>1079.0</ele>
        <time>2018-05-19T14:50:07.486Z</time>
      </trkpt>
      <trkpt lat="43.09171667" lon="-4.23579">
        <ele>1079.0</ele>
        <time>2018-05-19T14:50:08.470Z</time>
      </trkpt>
      <trkpt lat="43.09171667" lon="-4.23579">
        <ele>1079.0</ele>
        <time>2018-05-19T14:50:09.461Z</time>
      </trkpt>
      <trkpt lat="43.09178333" lon="-4.23580833">
        <ele>1079.0</ele>
        <time>2018-05-19T14:50:10.464Z</time>
      </trkpt>
      <trkpt lat="43.09178333" lon="-4.23580833">
        <ele>1079.0</ele>
        <time>2018-05-19T14:50:11.459Z</time>
      </trkpt>
      <trkpt lat="43.091845" lon="-4.23583333">
        <ele>1080.0</ele>
        <time>2018-05-19T14:50:12.466Z</time>
      </trkpt>
      <trkpt lat="43.091845" lon="-4.23583333">
        <ele>1080.0</ele>
        <time>2018-05-19T14:50:13.458Z</time>
      </trkpt>
      <trkpt lat="43.09190833" lon="-4.23585667">
        <ele>1081.0</ele>
        <time>2018-05-19T14:50:14.459Z</time>
      </trkpt>
      <trkpt lat="43.09190833" lon="-4.23585667">
        <ele>1081.0</ele>
        <time>2018-05-19T14:50:15.459Z</time>
      </trkpt>
      <trkpt lat="43.09197167" lon="-4.235875">
        <ele>1080.0</ele>
        <time>2018-05-19T14:50:16.462Z</time>
      </trkpt>
      <trkpt lat="43.09197167" lon="-4.235875">
        <ele>1080.0</ele>
        <time>2018-05-19T14:50:17.453Z</time>
      </trkpt>
      <trkpt lat="43.09204333" lon="-4.23589333">
        <ele>1080.0</ele>
        <time>2018-05-19T14:50:18.463Z</time>
      </trkpt>
      <trkpt lat="43.09204333" lon="-4.23589333">
        <ele>1080.0</ele>
        <time>2018-05-19T14:50:19.457Z</time>
      </trkpt>
      <trkpt lat="43.092115" lon="-4.23590667">
        <ele>1080.0</ele>
        <time>2018-05-19T14:50:20.461Z</time>
      </trkpt>
      <trkpt lat="43.092115" lon="-4.23590667">
        <ele>1080.0</ele>
        <time>2018-05-19T14:50:21.453Z</time>
      </trkpt>
      <trkpt lat="43.09219" lon="-4.23591667">
        <ele>1080.0</ele>
        <time>2018-05-19T14:50:22.482Z</time>
      </trkpt>
      <trkpt lat="43.09222667" lon="-4.23592333">
        <ele>1080.0</ele>
        <time>2018-05-19T14:50:23.461Z</time>
      </trkpt>
      <trkpt lat="43.09226" lon="-4.235935">
        <ele>1081.0</ele>
        <time>2018-05-19T14:50:24.463Z</time>
      </trkpt>
      <trkpt lat="43.09226" lon="-4.235935">
        <ele>1081.0</ele>
        <time>2018-05-19T14:50:25.464Z</time>
      </trkpt>
      <trkpt lat="43.09233167" lon="-4.23594833">
        <ele>1081.0</ele>
        <time>2018-05-19T14:50:26.463Z</time>
      </trkpt>
      <trkpt lat="43.09233167" lon="-4.23594833">
        <ele>1081.0</ele>
        <time>2018-05-19T14:50:27.455Z</time>
      </trkpt>
      <trkpt lat="43.0924" lon="-4.23597">
        <ele>1081.0</ele>
        <time>2018-05-19T14:50:28.461Z</time>
      </trkpt>
      <trkpt lat="43.0924" lon="-4.23597">
        <ele>1081.0</ele>
        <time>2018-05-19T14:50:29.458Z</time>
      </trkpt>
      <trkpt lat="43.09247333" lon="-4.235995">
        <ele>1081.0</ele>
        <time>2018-05-19T14:50:30.461Z</time>
      </trkpt>
      <trkpt lat="43.09247333" lon="-4.235995">
        <ele>1081.0</ele>
        <time>2018-05-19T14:50:31.457Z</time>
      </trkpt>
      <trkpt lat="43.09254" lon="-4.23601167">
        <ele>1082.0</ele>
        <time>2018-05-19T14:50:32.462Z</time>
      </trkpt>
      <trkpt lat="43.09254" lon="-4.23601167">
        <ele>1082.0</ele>
        <time>2018-05-19T14:50:33.456Z</time>
      </trkpt>
      <trkpt lat="43.09259667" lon="-4.23604">
        <ele>1083.0</ele>
        <time>2018-05-19T14:50:34.461Z</time>
      </trkpt>
      <trkpt lat="43.09259667" lon="-4.23604">
        <ele>1083.0</ele>
        <time>2018-05-19T14:50:35.459Z</time>
      </trkpt>
      <trkpt lat="43.092655" lon="-4.23607667">
        <ele>1083.0</ele>
        <time>2018-05-19T14:50:36.463Z</time>
      </trkpt>
      <trkpt lat="43.09268667" lon="-4.23609333">
        <ele>1083.0</ele>
        <time>2018-05-19T14:50:37.464Z</time>
      </trkpt>
      <trkpt lat="43.09271667" lon="-4.23611167">
        <ele>1084.0</ele>
        <time>2018-05-19T14:50:38.462Z</time>
      </trkpt>
      <trkpt lat="43.09271667" lon="-4.23611167">
        <ele>1084.0</ele>
        <time>2018-05-19T14:50:39.464Z</time>
      </trkpt>
      <trkpt lat="43.09277833" lon="-4.23614333">
        <ele>1084.0</ele>
        <time>2018-05-19T14:50:40.462Z</time>
      </trkpt>
      <trkpt lat="43.09277833" lon="-4.23614333">
        <ele>1084.0</ele>
        <time>2018-05-19T14:50:41.457Z</time>
      </trkpt>
      <trkpt lat="43.09284167" lon="-4.23617">
        <ele>1085.0</ele>
        <time>2018-05-19T14:50:42.464Z</time>
      </trkpt>
      <trkpt lat="43.09284167" lon="-4.23617">
        <ele>1085.0</ele>
        <time>2018-05-19T14:50:43.454Z</time>
      </trkpt>
      <trkpt lat="43.09290833" lon="-4.23619833">
        <ele>1085.0</ele>
        <time>2018-05-19T14:50:44.463Z</time>
      </trkpt>
      <trkpt lat="43.09290833" lon="-4.23619833">
        <ele>1085.0</ele>
        <time>2018-05-19T14:50:45.459Z</time>
      </trkpt>
      <trkpt lat="43.09297667" lon="-4.23622333">
        <ele>1085.0</ele>
        <time>2018-05-19T14:50:46.463Z</time>
      </trkpt>
      <trkpt lat="43.09301167" lon="-4.23623167">
        <ele>1085.0</ele>
        <time>2018-05-19T14:50:47.463Z</time>
      </trkpt>
      <trkpt lat="43.09301167" lon="-4.23623167">
        <ele>1085.0</ele>
        <time>2018-05-19T14:50:48.460Z</time>
      </trkpt>
      <trkpt lat="43.09307833" lon="-4.23624667">
        <ele>1085.0</ele>
        <time>2018-05-19T14:50:49.465Z</time>
      </trkpt>
      <trkpt lat="43.09311167" lon="-4.23625167">
        <ele>1085.0</ele>
        <time>2018-05-19T14:50:50.461Z</time>
      </trkpt>
      <trkpt lat="43.09311167" lon="-4.23625167">
        <ele>1085.0</ele>
        <time>2018-05-19T14:50:51.453Z</time>
      </trkpt>
      <trkpt lat="43.093175" lon="-4.23625333">
        <ele>1085.0</ele>
        <time>2018-05-19T14:50:52.482Z</time>
      </trkpt>
      <trkpt lat="43.093205" lon="-4.23625167">
        <ele>1086.0</ele>
        <time>2018-05-19T14:50:53.468Z</time>
      </trkpt>
      <trkpt lat="43.09323667" lon="-4.23624833">
        <ele>1085.0</ele>
        <time>2018-05-19T14:50:54.463Z</time>
      </trkpt>
      <trkpt lat="43.09323667" lon="-4.23624833">
        <ele>1085.0</ele>
        <time>2018-05-19T14:50:55.457Z</time>
      </trkpt>
      <trkpt lat="43.09329833" lon="-4.23624167">
        <ele>1085.0</ele>
        <time>2018-05-19T14:50:56.461Z</time>
      </trkpt>
      <trkpt lat="43.09329833" lon="-4.23624167">
        <ele>1085.0</ele>
        <time>2018-05-19T14:50:57.456Z</time>
      </trkpt>
      <trkpt lat="43.09336" lon="-4.23622333">
        <ele>1085.0</ele>
        <time>2018-05-19T14:50:58.461Z</time>
      </trkpt>
      <trkpt lat="43.09339" lon="-4.236215">
        <ele>1086.0</ele>
        <time>2018-05-19T14:50:59.465Z</time>
      </trkpt>
      <trkpt lat="43.09339" lon="-4.236215">
        <ele>1086.0</ele>
        <time>2018-05-19T14:51:00.465Z</time>
      </trkpt>
      <trkpt lat="43.09344833" lon="-4.23619667">
        <ele>1086.0</ele>
        <time>2018-05-19T14:51:01.461Z</time>
      </trkpt>
      <trkpt lat="43.09347667" lon="-4.23618167">
        <ele>1086.0</ele>
        <time>2018-05-19T14:51:02.462Z</time>
      </trkpt>
      <trkpt lat="43.09347667" lon="-4.23618167">
        <ele>1086.0</ele>
        <time>2018-05-19T14:51:03.461Z</time>
      </trkpt>
      <trkpt lat="43.093535" lon="-4.23614333">
        <ele>1087.0</ele>
        <time>2018-05-19T14:51:04.461Z</time>
      </trkpt>
      <trkpt lat="43.093535" lon="-4.23614333">
        <ele>1087.0</ele>
        <time>2018-05-19T14:51:05.459Z</time>
      </trkpt>
      <trkpt lat="43.09359167" lon="-4.23611167">
        <ele>1087.0</ele>
        <time>2018-05-19T14:51:06.463Z</time>
      </trkpt>
      <trkpt lat="43.09359167" lon="-4.23611167">
        <ele>1087.0</ele>
        <time>2018-05-19T14:51:07.456Z</time>
      </trkpt>
      <trkpt lat="43.09364667" lon="-4.236085">
        <ele>1087.0</ele>
        <time>2018-05-19T14:51:08.462Z</time>
      </trkpt>
      <trkpt lat="43.09364667" lon="-4.236085">
        <ele>1087.0</ele>
        <time>2018-05-19T14:51:09.465Z</time>
      </trkpt>
      <trkpt lat="43.09370333" lon="-4.236055">
        <ele>1087.0</ele>
        <time>2018-05-19T14:51:10.461Z</time>
      </trkpt>
      <trkpt lat="43.09370333" lon="-4.236055">
        <ele>1087.0</ele>
        <time>2018-05-19T14:51:11.453Z</time>
      </trkpt>
      <trkpt lat="43.09376167" lon="-4.236025">
        <ele>1087.0</ele>
        <time>2018-05-19T14:51:12.487Z</time>
      </trkpt>
      <trkpt lat="43.09379167" lon="-4.236005">
        <ele>1087.0</ele>
        <time>2018-05-19T14:51:13.470Z</time>
      </trkpt>
      <trkpt lat="43.09379167" lon="-4.236005">
        <ele>1087.0</ele>
        <time>2018-05-19T14:51:14.458Z</time>
      </trkpt>
      <trkpt lat="43.09385333" lon="-4.23596167">
        <ele>1087.0</ele>
        <time>2018-05-19T14:51:15.463Z</time>
      </trkpt>
      <trkpt lat="43.09385333" lon="-4.23596167">
        <ele>1087.0</ele>
        <time>2018-05-19T14:51:16.460Z</time>
      </trkpt>
      <trkpt lat="43.09391333" lon="-4.23592333">
        <ele>1087.0</ele>
        <time>2018-05-19T14:51:17.461Z</time>
      </trkpt>
      <trkpt lat="43.09394167" lon="-4.235905">
        <ele>1087.0</ele>
        <time>2018-05-19T14:51:18.467Z</time>
      </trkpt>
      <trkpt lat="43.093975" lon="-4.23588833">
        <ele>1088.0</ele>
        <time>2018-05-19T14:51:19.462Z</time>
      </trkpt>
      <trkpt lat="43.09401167" lon="-4.23587">
        <ele>1088.0</ele>
        <time>2018-05-19T14:51:20.462Z</time>
      </trkpt>
      <trkpt lat="43.09401167" lon="-4.23587">
        <ele>1088.0</ele>
        <time>2018-05-19T14:51:21.456Z</time>
      </trkpt>
      <trkpt lat="43.09408167" lon="-4.23583667">
        <ele>1088.0</ele>
        <time>2018-05-19T14:51:22.481Z</time>
      </trkpt>
      <trkpt lat="43.094115" lon="-4.23582">
        <ele>1088.0</ele>
        <time>2018-05-19T14:51:23.463Z</time>
      </trkpt>
      <trkpt lat="43.09415" lon="-4.235805">
        <ele>1088.0</ele>
        <time>2018-05-19T14:51:24.482Z</time>
      </trkpt>
      <trkpt lat="43.09415" lon="-4.235805">
        <ele>1088.0</ele>
        <time>2018-05-19T14:51:25.468Z</time>
      </trkpt>
      <trkpt lat="43.09421833" lon="-4.23577333">
        <ele>1088.0</ele>
        <time>2018-05-19T14:51:26.462Z</time>
      </trkpt>
      <trkpt lat="43.09421833" lon="-4.23577333">
        <ele>1088.0</ele>
        <time>2018-05-19T14:51:27.457Z</time>
      </trkpt>
      <trkpt lat="43.09428667" lon="-4.23574">
        <ele>1088.0</ele>
        <time>2018-05-19T14:51:28.465Z</time>
      </trkpt>
      <trkpt lat="43.09432333" lon="-4.235725">
        <ele>1088.0</ele>
        <time>2018-05-19T14:51:29.464Z</time>
      </trkpt>
      <trkpt lat="43.09432333" lon="-4.235725">
        <ele>1088.0</ele>
        <time>2018-05-19T14:51:30.461Z</time>
      </trkpt>
      <trkpt lat="43.094395" lon="-4.23569833">
        <ele>1088.0</ele>
        <time>2018-05-19T14:51:31.461Z</time>
      </trkpt>
      <trkpt lat="43.09443" lon="-4.235685">
        <ele>1088.0</ele>
        <time>2018-05-19T14:51:32.462Z</time>
      </trkpt>
      <trkpt lat="43.09443" lon="-4.235685">
        <ele>1088.0</ele>
        <time>2018-05-19T14:51:33.453Z</time>
      </trkpt>
      <trkpt lat="43.09449833" lon="-4.235655">
        <ele>1088.0</ele>
        <time>2018-05-19T14:51:34.461Z</time>
      </trkpt>
      <trkpt lat="43.09449833" lon="-4.235655">
        <ele>1088.0</ele>
        <time>2018-05-19T14:51:35.459Z</time>
      </trkpt>
      <trkpt lat="43.09456833" lon="-4.23562167">
        <ele>1088.0</ele>
        <time>2018-05-19T14:51:36.462Z</time>
      </trkpt>
      <trkpt lat="43.09460167" lon="-4.23560667">
        <ele>1088.0</ele>
        <time>2018-05-19T14:51:37.463Z</time>
      </trkpt>
      <trkpt lat="43.094635" lon="-4.23559167">
        <ele>1088.0</ele>
        <time>2018-05-19T14:51:38.462Z</time>
      </trkpt>
      <trkpt lat="43.094635" lon="-4.23559167">
        <ele>1088.0</ele>
        <time>2018-05-19T14:51:39.456Z</time>
      </trkpt>
      <trkpt lat="43.09469833" lon="-4.23555833">
        <ele>1089.0</ele>
        <time>2018-05-19T14:51:40.461Z</time>
      </trkpt>
      <trkpt lat="43.09472667" lon="-4.23554">
        <ele>1089.0</ele>
        <time>2018-05-19T14:51:41.461Z</time>
      </trkpt>
      <trkpt lat="43.09472667" lon="-4.23554">
        <ele>1089.0</ele>
        <time>2018-05-19T14:51:42.454Z</time>
      </trkpt>
      <trkpt lat="43.094785" lon="-4.23550667">
        <ele>1089.0</ele>
        <time>2018-05-19T14:51:43.462Z</time>
      </trkpt>
      <trkpt lat="43.094785" lon="-4.23550667">
        <ele>1089.0</ele>
        <time>2018-05-19T14:51:44.457Z</time>
      </trkpt>
      <trkpt lat="43.09483833" lon="-4.23547667">
        <ele>1090.0</ele>
        <time>2018-05-19T14:51:45.462Z</time>
      </trkpt>
      <trkpt lat="43.09486333" lon="-4.23545667">
        <ele>1089.0</ele>
        <time>2018-05-19T14:51:46.462Z</time>
      </trkpt>
      <trkpt lat="43.09486333" lon="-4.23545667">
        <ele>1089.0</ele>
        <time>2018-05-19T14:51:47.457Z</time>
      </trkpt>
      <trkpt lat="43.094915" lon="-4.23542333">
        <ele>1090.0</ele>
        <time>2018-05-19T14:51:48.461Z</time>
      </trkpt>
      <trkpt lat="43.094915" lon="-4.23542333">
        <ele>1090.0</ele>
        <time>2018-05-19T14:51:49.453Z</time>
      </trkpt>
      <trkpt lat="43.094965" lon="-4.23538833">
        <ele>1090.0</ele>
        <time>2018-05-19T14:51:50.461Z</time>
      </trkpt>
      <trkpt lat="43.09498833" lon="-4.23537167">
        <ele>1090.0</ele>
        <time>2018-05-19T14:51:51.460Z</time>
      </trkpt>
      <trkpt lat="43.09498833" lon="-4.23537167">
        <ele>1090.0</ele>
        <time>2018-05-19T14:51:52.456Z</time>
      </trkpt>
      <trkpt lat="43.095035" lon="-4.23533333">
        <ele>1090.0</ele>
        <time>2018-05-19T14:51:53.471Z</time>
      </trkpt>
      <trkpt lat="43.09505833" lon="-4.23532167">
        <ele>1091.0</ele>
        <time>2018-05-19T14:51:54.463Z</time>
      </trkpt>
      <trkpt lat="43.09505833" lon="-4.23532167">
        <ele>1091.0</ele>
        <time>2018-05-19T14:51:55.457Z</time>
      </trkpt>
      <trkpt lat="43.09510833" lon="-4.23529333">
        <ele>1091.0</ele>
        <time>2018-05-19T14:51:56.462Z</time>
      </trkpt>
      <trkpt lat="43.09510833" lon="-4.23529333">
        <ele>1091.0</ele>
        <time>2018-05-19T14:51:57.456Z</time>
      </trkpt>
      <trkpt lat="43.09515833" lon="-4.23526667">
        <ele>1091.0</ele>
        <time>2018-05-19T14:51:58.461Z</time>
      </trkpt>
      <trkpt lat="43.09518" lon="-4.23525167">
        <ele>1092.0</ele>
        <time>2018-05-19T14:51:59.462Z</time>
      </trkpt>
      <trkpt lat="43.09518" lon="-4.23525167">
        <ele>1092.0</ele>
        <time>2018-05-19T14:52:00.453Z</time>
      </trkpt>
      <trkpt lat="43.09522667" lon="-4.23523">
        <ele>1092.0</ele>
        <time>2018-05-19T14:52:01.461Z</time>
      </trkpt>
      <trkpt lat="43.09524833" lon="-4.235215">
        <ele>1092.0</ele>
        <time>2018-05-19T14:52:02.462Z</time>
      </trkpt>
      <trkpt lat="43.09524833" lon="-4.235215">
        <ele>1092.0</ele>
        <time>2018-05-19T14:52:03.456Z</time>
      </trkpt>
      <trkpt lat="43.095295" lon="-4.23518667">
        <ele>1093.0</ele>
        <time>2018-05-19T14:52:04.462Z</time>
      </trkpt>
      <trkpt lat="43.095295" lon="-4.23518667">
        <ele>1093.0</ele>
        <time>2018-05-19T14:52:05.459Z</time>
      </trkpt>
      <trkpt lat="43.09534" lon="-4.23515833">
        <ele>1093.0</ele>
        <time>2018-05-19T14:52:06.463Z</time>
      </trkpt>
      <trkpt lat="43.09534" lon="-4.23515833">
        <ele>1093.0</ele>
        <time>2018-05-19T14:52:07.458Z</time>
      </trkpt>
      <trkpt lat="43.09538333" lon="-4.23513167">
        <ele>1094.0</ele>
        <time>2018-05-19T14:52:08.461Z</time>
      </trkpt>
      <trkpt lat="43.09538333" lon="-4.23513167">
        <ele>1094.0</ele>
        <time>2018-05-19T14:52:09.456Z</time>
      </trkpt>
      <trkpt lat="43.09542667" lon="-4.235105">
        <ele>1094.0</ele>
        <time>2018-05-19T14:52:10.481Z</time>
      </trkpt>
      <trkpt lat="43.09544833" lon="-4.23509167">
        <ele>1094.0</ele>
        <time>2018-05-19T14:52:11.477Z</time>
      </trkpt>
      <trkpt lat="43.09546833" lon="-4.23507833">
        <ele>1094.0</ele>
        <time>2018-05-19T14:52:12.465Z</time>
      </trkpt>
      <trkpt lat="43.09546833" lon="-4.23507833">
        <ele>1094.0</ele>
        <time>2018-05-19T14:52:13.453Z</time>
      </trkpt>
      <trkpt lat="43.09551167" lon="-4.23504833">
        <ele>1095.0</ele>
        <time>2018-05-19T14:52:14.466Z</time>
      </trkpt>
      <trkpt lat="43.09551167" lon="-4.23504833">
        <ele>1095.0</ele>
        <time>2018-05-19T14:52:15.455Z</time>
      </trkpt>
      <trkpt lat="43.095555" lon="-4.23502">
        <ele>1095.0</ele>
        <time>2018-05-19T14:52:16.462Z</time>
      </trkpt>
      <trkpt lat="43.095555" lon="-4.23502">
        <ele>1095.0</ele>
        <time>2018-05-19T14:52:17.460Z</time>
      </trkpt>
      <trkpt lat="43.095595" lon="-4.234995">
        <ele>1096.0</ele>
        <time>2018-05-19T14:52:18.462Z</time>
      </trkpt>
      <trkpt lat="43.09561167" lon="-4.23497833">
        <ele>1097.0</ele>
        <time>2018-05-19T14:52:19.462Z</time>
      </trkpt>
      <trkpt lat="43.09563167" lon="-4.23496167">
        <ele>1097.0</ele>
        <time>2018-05-19T14:52:20.464Z</time>
      </trkpt>
      <trkpt lat="43.09563167" lon="-4.23496167">
        <ele>1097.0</ele>
        <time>2018-05-19T14:52:21.457Z</time>
      </trkpt>
      <trkpt lat="43.09567" lon="-4.23493167">
        <ele>1097.0</ele>
        <time>2018-05-19T14:52:22.461Z</time>
      </trkpt>
      <trkpt lat="43.09567" lon="-4.23493167">
        <ele>1097.0</ele>
        <time>2018-05-19T14:52:23.457Z</time>
      </trkpt>
      <trkpt lat="43.09570833" lon="-4.23489833">
        <ele>1098.0</ele>
        <time>2018-05-19T14:52:24.463Z</time>
      </trkpt>
      <trkpt lat="43.09570833" lon="-4.23489833">
        <ele>1098.0</ele>
        <time>2018-05-19T14:52:25.459Z</time>
      </trkpt>
      <trkpt lat="43.09574667" lon="-4.23486167">
        <ele>1098.0</ele>
        <time>2018-05-19T14:52:26.462Z</time>
      </trkpt>
      <trkpt lat="43.09574667" lon="-4.23486167">
        <ele>1098.0</ele>
        <time>2018-05-19T14:52:27.459Z</time>
      </trkpt>
      <trkpt lat="43.09578667" lon="-4.23482833">
        <ele>1098.0</ele>
        <time>2018-05-19T14:52:28.461Z</time>
      </trkpt>
      <trkpt lat="43.09578667" lon="-4.23482833">
        <ele>1098.0</ele>
        <time>2018-05-19T14:52:29.457Z</time>
      </trkpt>
      <trkpt lat="43.095825" lon="-4.23479">
        <ele>1098.0</ele>
        <time>2018-05-19T14:52:30.467Z</time>
      </trkpt>
      <trkpt lat="43.095825" lon="-4.23479">
        <ele>1098.0</ele>
        <time>2018-05-19T14:52:31.457Z</time>
      </trkpt>
      <trkpt lat="43.095865" lon="-4.23474833">
        <ele>1098.0</ele>
        <time>2018-05-19T14:52:32.462Z</time>
      </trkpt>
      <trkpt lat="43.095865" lon="-4.23474833">
        <ele>1098.0</ele>
        <time>2018-05-19T14:52:33.456Z</time>
      </trkpt>
      <trkpt lat="43.09591" lon="-4.23470833">
        <ele>1099.0</ele>
        <time>2018-05-19T14:52:34.461Z</time>
      </trkpt>
      <trkpt lat="43.09591" lon="-4.23470833">
        <ele>1099.0</ele>
        <time>2018-05-19T14:52:35.459Z</time>
      </trkpt>
      <trkpt lat="43.09595167" lon="-4.23466667">
        <ele>1099.0</ele>
        <time>2018-05-19T14:52:36.460Z</time>
      </trkpt>
      <trkpt lat="43.09595167" lon="-4.23466667">
        <ele>1099.0</ele>
        <time>2018-05-19T14:52:37.456Z</time>
      </trkpt>
      <trkpt lat="43.09599167" lon="-4.23463167">
        <ele>1099.0</ele>
        <time>2018-05-19T14:52:38.462Z</time>
      </trkpt>
      <trkpt lat="43.09599167" lon="-4.23463167">
        <ele>1099.0</ele>
        <time>2018-05-19T14:52:39.456Z</time>
      </trkpt>
      <trkpt lat="43.09602833" lon="-4.234595">
        <ele>1099.0</ele>
        <time>2018-05-19T14:52:40.462Z</time>
      </trkpt>
      <trkpt lat="43.09602833" lon="-4.234595">
        <ele>1099.0</ele>
        <time>2018-05-19T14:52:41.456Z</time>
      </trkpt>
      <trkpt lat="43.096065" lon="-4.23455667">
        <ele>1099.0</ele>
        <time>2018-05-19T14:52:42.478Z</time>
      </trkpt>
      <trkpt lat="43.096065" lon="-4.23455667">
        <ele>1099.0</ele>
        <time>2018-05-19T14:52:43.463Z</time>
      </trkpt>
      <trkpt lat="43.0961" lon="-4.234525">
        <ele>1099.0</ele>
        <time>2018-05-19T14:52:44.462Z</time>
      </trkpt>
      <trkpt lat="43.0961" lon="-4.234525">
        <ele>1099.0</ele>
        <time>2018-05-19T14:52:45.456Z</time>
      </trkpt>
      <trkpt lat="43.096135" lon="-4.23449333">
        <ele>1100.0</ele>
        <time>2018-05-19T14:52:46.482Z</time>
      </trkpt>
      <trkpt lat="43.096135" lon="-4.23449333">
        <ele>1100.0</ele>
        <time>2018-05-19T14:52:47.477Z</time>
      </trkpt>
      <trkpt lat="43.09616833" lon="-4.23446333">
        <ele>1100.0</ele>
        <time>2018-05-19T14:52:48.462Z</time>
      </trkpt>
      <trkpt lat="43.09616833" lon="-4.23446333">
        <ele>1100.0</ele>
        <time>2018-05-19T14:52:49.453Z</time>
      </trkpt>
      <trkpt lat="43.0962" lon="-4.23443">
        <ele>1101.0</ele>
        <time>2018-05-19T14:52:50.464Z</time>
      </trkpt>
      <trkpt lat="43.0962" lon="-4.23443">
        <ele>1101.0</ele>
        <time>2018-05-19T14:52:51.453Z</time>
      </trkpt>
      <trkpt lat="43.09623" lon="-4.234395">
        <ele>1101.0</ele>
        <time>2018-05-19T14:52:52.479Z</time>
      </trkpt>
      <trkpt lat="43.096245" lon="-4.23437667">
        <ele>1101.0</ele>
        <time>2018-05-19T14:52:53.463Z</time>
      </trkpt>
      <trkpt lat="43.09626167" lon="-4.23435833">
        <ele>1101.0</ele>
        <time>2018-05-19T14:52:54.463Z</time>
      </trkpt>
      <trkpt lat="43.09626167" lon="-4.23435833">
        <ele>1101.0</ele>
        <time>2018-05-19T14:52:55.459Z</time>
      </trkpt>
      <trkpt lat="43.09629333" lon="-4.23432167">
        <ele>1101.0</ele>
        <time>2018-05-19T14:52:56.462Z</time>
      </trkpt>
      <trkpt lat="43.09629333" lon="-4.23432167">
        <ele>1101.0</ele>
        <time>2018-05-19T14:52:57.457Z</time>
      </trkpt>
      <trkpt lat="43.09632167" lon="-4.23428333">
        <ele>1101.0</ele>
        <time>2018-05-19T14:52:58.461Z</time>
      </trkpt>
      <trkpt lat="43.09633833" lon="-4.23426167">
        <ele>1101.0</ele>
        <time>2018-05-19T14:52:59.461Z</time>
      </trkpt>
      <trkpt lat="43.09635833" lon="-4.23423667">
        <ele>1101.0</ele>
        <time>2018-05-19T14:53:00.463Z</time>
      </trkpt>
      <trkpt lat="43.09635833" lon="-4.23423667">
        <ele>1101.0</ele>
        <time>2018-05-19T14:53:01.453Z</time>
      </trkpt>
      <trkpt lat="43.09640167" lon="-4.23419333">
        <ele>1101.0</ele>
        <time>2018-05-19T14:53:02.481Z</time>
      </trkpt>
      <trkpt lat="43.09640167" lon="-4.23419333">
        <ele>1101.0</ele>
        <time>2018-05-19T14:53:03.465Z</time>
      </trkpt>
      <trkpt lat="43.09643667" lon="-4.23414333">
        <ele>1101.0</ele>
        <time>2018-05-19T14:53:04.460Z</time>
      </trkpt>
      <trkpt lat="43.09643667" lon="-4.23414333">
        <ele>1101.0</ele>
        <time>2018-05-19T14:53:05.459Z</time>
      </trkpt>
      <trkpt lat="43.09646833" lon="-4.23409833">
        <ele>1102.0</ele>
        <time>2018-05-19T14:53:06.462Z</time>
      </trkpt>
      <trkpt lat="43.09646833" lon="-4.23409833">
        <ele>1102.0</ele>
        <time>2018-05-19T14:53:07.457Z</time>
      </trkpt>
      <trkpt lat="43.09650333" lon="-4.23405833">
        <ele>1102.0</ele>
        <time>2018-05-19T14:53:08.461Z</time>
      </trkpt>
      <trkpt lat="43.09650333" lon="-4.23405833">
        <ele>1102.0</ele>
        <time>2018-05-19T14:53:09.460Z</time>
      </trkpt>
      <trkpt lat="43.096535" lon="-4.23401833">
        <ele>1102.0</ele>
        <time>2018-05-19T14:53:10.460Z</time>
      </trkpt>
      <trkpt lat="43.096535" lon="-4.23401833">
        <ele>1102.0</ele>
        <time>2018-05-19T14:53:11.477Z</time>
      </trkpt>
      <trkpt lat="43.09657167" lon="-4.23398167">
        <ele>1103.0</ele>
        <time>2018-05-19T14:53:12.478Z</time>
      </trkpt>
      <trkpt lat="43.09657167" lon="-4.23398167">
        <ele>1103.0</ele>
        <time>2018-05-19T14:53:13.461Z</time>
      </trkpt>
      <trkpt lat="43.09660833" lon="-4.23394333">
        <ele>1103.0</ele>
        <time>2018-05-19T14:53:14.461Z</time>
      </trkpt>
      <trkpt lat="43.09660833" lon="-4.23394333">
        <ele>1103.0</ele>
        <time>2018-05-19T14:53:15.459Z</time>
      </trkpt>
      <trkpt lat="43.09664167" lon="-4.23390333">
        <ele>1104.0</ele>
        <time>2018-05-19T14:53:16.469Z</time>
      </trkpt>
      <trkpt lat="43.09665833" lon="-4.23388167">
        <ele>1104.0</ele>
        <time>2018-05-19T14:53:17.462Z</time>
      </trkpt>
      <trkpt lat="43.096675" lon="-4.23385833">
        <ele>1104.0</ele>
        <time>2018-05-19T14:53:18.463Z</time>
      </trkpt>
      <trkpt lat="43.096675" lon="-4.23385833">
        <ele>1104.0</ele>
        <time>2018-05-19T14:53:19.459Z</time>
      </trkpt>
      <trkpt lat="43.09671" lon="-4.23382">
        <ele>1104.0</ele>
        <time>2018-05-19T14:53:20.462Z</time>
      </trkpt>
      <trkpt lat="43.09671" lon="-4.23382">
        <ele>1104.0</ele>
        <time>2018-05-19T14:53:21.460Z</time>
      </trkpt>
      <trkpt lat="43.09674333" lon="-4.23377833">
        <ele>1104.0</ele>
        <time>2018-05-19T14:53:22.477Z</time>
      </trkpt>
      <trkpt lat="43.09674333" lon="-4.23377833">
        <ele>1104.0</ele>
        <time>2018-05-19T14:53:23.458Z</time>
      </trkpt>
      <trkpt lat="43.096775" lon="-4.23373667">
        <ele>1104.0</ele>
        <time>2018-05-19T14:53:24.462Z</time>
      </trkpt>
      <trkpt lat="43.096775" lon="-4.23373667">
        <ele>1104.0</ele>
        <time>2018-05-19T14:53:25.459Z</time>
      </trkpt>
      <trkpt lat="43.09680667" lon="-4.2337">
        <ele>1105.0</ele>
        <time>2018-05-19T14:53:26.462Z</time>
      </trkpt>
      <trkpt lat="43.09680667" lon="-4.2337">
        <ele>1105.0</ele>
        <time>2018-05-19T14:53:27.460Z</time>
      </trkpt>
      <trkpt lat="43.09683667" lon="-4.23366333">
        <ele>1105.0</ele>
        <time>2018-05-19T14:53:28.461Z</time>
      </trkpt>
      <trkpt lat="43.09683667" lon="-4.23366333">
        <ele>1105.0</ele>
        <time>2018-05-19T14:53:29.455Z</time>
      </trkpt>
      <trkpt lat="43.096865" lon="-4.23362333">
        <ele>1106.0</ele>
        <time>2018-05-19T14:53:30.464Z</time>
      </trkpt>
      <trkpt lat="43.096865" lon="-4.23362333">
        <ele>1106.0</ele>
        <time>2018-05-19T14:53:31.453Z</time>
      </trkpt>
      <trkpt lat="43.096895" lon="-4.23358167">
        <ele>1106.0</ele>
        <time>2018-05-19T14:53:32.480Z</time>
      </trkpt>
      <trkpt lat="43.096895" lon="-4.23358167">
        <ele>1106.0</ele>
        <time>2018-05-19T14:53:33.464Z</time>
      </trkpt>
      <trkpt lat="43.09692167" lon="-4.23353667">
        <ele>1106.0</ele>
        <time>2018-05-19T14:53:34.460Z</time>
      </trkpt>
      <trkpt lat="43.096935" lon="-4.23351667">
        <ele>1106.0</ele>
        <time>2018-05-19T14:53:35.476Z</time>
      </trkpt>
      <trkpt lat="43.09694833" lon="-4.23349167">
        <ele>1106.0</ele>
        <time>2018-05-19T14:53:36.465Z</time>
      </trkpt>
      <trkpt lat="43.09694833" lon="-4.23349167">
        <ele>1106.0</ele>
        <time>2018-05-19T14:53:37.456Z</time>
      </trkpt>
      <trkpt lat="43.09697333" lon="-4.233445">
        <ele>1107.0</ele>
        <time>2018-05-19T14:53:38.462Z</time>
      </trkpt>
      <trkpt lat="43.09697333" lon="-4.233445">
        <ele>1107.0</ele>
        <time>2018-05-19T14:53:39.463Z</time>
      </trkpt>
      <trkpt lat="43.097" lon="-4.23339667">
        <ele>1107.0</ele>
        <time>2018-05-19T14:53:40.461Z</time>
      </trkpt>
      <trkpt lat="43.097" lon="-4.23339667">
        <ele>1107.0</ele>
        <time>2018-05-19T14:53:41.455Z</time>
      </trkpt>
      <trkpt lat="43.09702333" lon="-4.23334833">
        <ele>1107.0</ele>
        <time>2018-05-19T14:53:42.464Z</time>
      </trkpt>
      <trkpt lat="43.09702333" lon="-4.23334833">
        <ele>1107.0</ele>
        <time>2018-05-19T14:53:43.456Z</time>
      </trkpt>
      <trkpt lat="43.097045" lon="-4.2333">
        <ele>1108.0</ele>
        <time>2018-05-19T14:53:44.462Z</time>
      </trkpt>
      <trkpt lat="43.097045" lon="-4.2333">
        <ele>1108.0</ele>
        <time>2018-05-19T14:53:45.459Z</time>
      </trkpt>
      <trkpt lat="43.09707" lon="-4.233255">
        <ele>1108.0</ele>
        <time>2018-05-19T14:53:46.461Z</time>
      </trkpt>
      <trkpt lat="43.09708" lon="-4.23323">
        <ele>1109.0</ele>
        <time>2018-05-19T14:53:47.461Z</time>
      </trkpt>
      <trkpt lat="43.09708" lon="-4.23323">
        <ele>1109.0</ele>
        <time>2018-05-19T14:53:48.461Z</time>
      </trkpt>
      <trkpt lat="43.09710167" lon="-4.233175">
        <ele>1109.0</ele>
        <time>2018-05-19T14:53:49.461Z</time>
      </trkpt>
      <trkpt lat="43.09711" lon="-4.23315">
        <ele>1109.0</ele>
        <time>2018-05-19T14:53:50.462Z</time>
      </trkpt>
      <trkpt lat="43.09711" lon="-4.23315">
        <ele>1109.0</ele>
        <time>2018-05-19T14:53:51.456Z</time>
      </trkpt>
      <trkpt lat="43.097125" lon="-4.23309833">
        <ele>1110.0</ele>
        <time>2018-05-19T14:53:52.461Z</time>
      </trkpt>
      <trkpt lat="43.097125" lon="-4.23309833">
        <ele>1110.0</ele>
        <time>2018-05-19T14:53:53.453Z</time>
      </trkpt>
      <trkpt lat="43.09714333" lon="-4.233045">
        <ele>1110.0</ele>
        <time>2018-05-19T14:53:54.478Z</time>
      </trkpt>
      <trkpt lat="43.09714333" lon="-4.233045">
        <ele>1110.0</ele>
        <time>2018-05-19T14:53:55.482Z</time>
      </trkpt>
      <trkpt lat="43.09716333" lon="-4.23299333">
        <ele>1110.0</ele>
        <time>2018-05-19T14:53:56.467Z</time>
      </trkpt>
      <trkpt lat="43.09716333" lon="-4.23299333">
        <ele>1110.0</ele>
        <time>2018-05-19T14:53:57.459Z</time>
      </trkpt>
      <trkpt lat="43.09718167" lon="-4.23294667">
        <ele>1111.0</ele>
        <time>2018-05-19T14:53:58.460Z</time>
      </trkpt>
      <trkpt lat="43.09719167" lon="-4.23292167">
        <ele>1111.0</ele>
        <time>2018-05-19T14:53:59.461Z</time>
      </trkpt>
      <trkpt lat="43.09719167" lon="-4.23292167">
        <ele>1111.0</ele>
        <time>2018-05-19T14:54:00.454Z</time>
      </trkpt>
      <trkpt lat="43.09721" lon="-4.23287333">
        <ele>1111.0</ele>
        <time>2018-05-19T14:54:01.480Z</time>
      </trkpt>
      <trkpt lat="43.09722167" lon="-4.23284833">
        <ele>1112.0</ele>
        <time>2018-05-19T14:54:02.463Z</time>
      </trkpt>
      <trkpt lat="43.09722167" lon="-4.23284833">
        <ele>1112.0</ele>
        <time>2018-05-19T14:54:03.456Z</time>
      </trkpt>
      <trkpt lat="43.09724667" lon="-4.23280333">
        <ele>1112.0</ele>
        <time>2018-05-19T14:54:04.462Z</time>
      </trkpt>
      <trkpt lat="43.09724667" lon="-4.23280333">
        <ele>1112.0</ele>
        <time>2018-05-19T14:54:05.459Z</time>
      </trkpt>
      <trkpt lat="43.097275" lon="-4.232755">
        <ele>1113.0</ele>
        <time>2018-05-19T14:54:06.463Z</time>
      </trkpt>
      <trkpt lat="43.097275" lon="-4.232755">
        <ele>1113.0</ele>
        <time>2018-05-19T14:54:07.456Z</time>
      </trkpt>
      <trkpt lat="43.09730167" lon="-4.23271167">
        <ele>1114.0</ele>
        <time>2018-05-19T14:54:08.462Z</time>
      </trkpt>
      <trkpt lat="43.09730167" lon="-4.23271167">
        <ele>1114.0</ele>
        <time>2018-05-19T14:54:09.455Z</time>
      </trkpt>
      <trkpt lat="43.09733167" lon="-4.23267333">
        <ele>1114.0</ele>
        <time>2018-05-19T14:54:10.461Z</time>
      </trkpt>
      <trkpt lat="43.09733167" lon="-4.23267333">
        <ele>1114.0</ele>
        <time>2018-05-19T14:54:11.480Z</time>
      </trkpt>
      <trkpt lat="43.09736667" lon="-4.232635">
        <ele>1115.0</ele>
        <time>2018-05-19T14:54:12.465Z</time>
      </trkpt>
      <trkpt lat="43.09736667" lon="-4.232635">
        <ele>1115.0</ele>
        <time>2018-05-19T14:54:13.456Z</time>
      </trkpt>
      <trkpt lat="43.09739667" lon="-4.23258333">
        <ele>1115.0</ele>
        <time>2018-05-19T14:54:14.462Z</time>
      </trkpt>
      <trkpt lat="43.09739667" lon="-4.23258333">
        <ele>1115.0</ele>
        <time>2018-05-19T14:54:15.459Z</time>
      </trkpt>
      <trkpt lat="43.09742667" lon="-4.23255">
        <ele>1116.0</ele>
        <time>2018-05-19T14:54:16.461Z</time>
      </trkpt>
      <trkpt lat="43.09742667" lon="-4.23255">
        <ele>1116.0</ele>
        <time>2018-05-19T14:54:17.456Z</time>
      </trkpt>
      <trkpt lat="43.09746" lon="-4.232515">
        <ele>1116.0</ele>
        <time>2018-05-19T14:54:18.462Z</time>
      </trkpt>
      <trkpt lat="43.09746" lon="-4.232515">
        <ele>1116.0</ele>
        <time>2018-05-19T14:54:19.452Z</time>
      </trkpt>
      <trkpt lat="43.097495" lon="-4.232475">
        <ele>1117.0</ele>
        <time>2018-05-19T14:54:20.461Z</time>
      </trkpt>
      <trkpt lat="43.097495" lon="-4.232475">
        <ele>1117.0</ele>
        <time>2018-05-19T14:54:21.458Z</time>
      </trkpt>
      <trkpt lat="43.09753" lon="-4.23243167">
        <ele>1117.0</ele>
        <time>2018-05-19T14:54:22.461Z</time>
      </trkpt>
      <trkpt lat="43.09753" lon="-4.23243167">
        <ele>1117.0</ele>
        <time>2018-05-19T14:54:23.456Z</time>
      </trkpt>
      <trkpt lat="43.09755833" lon="-4.23239">
        <ele>1117.0</ele>
        <time>2018-05-19T14:54:24.462Z</time>
      </trkpt>
      <trkpt lat="43.09755833" lon="-4.23239">
        <ele>1117.0</ele>
        <time>2018-05-19T14:54:25.455Z</time>
      </trkpt>
      <trkpt lat="43.09758833" lon="-4.23235167">
        <ele>1117.0</ele>
        <time>2018-05-19T14:54:26.460Z</time>
      </trkpt>
      <trkpt lat="43.09758833" lon="-4.23235167">
        <ele>1117.0</ele>
        <time>2018-05-19T14:54:27.455Z</time>
      </trkpt>
      <trkpt lat="43.097615" lon="-4.23231167">
        <ele>1117.0</ele>
        <time>2018-05-19T14:54:28.461Z</time>
      </trkpt>
      <trkpt lat="43.097615" lon="-4.23231167">
        <ele>1117.0</ele>
        <time>2018-05-19T14:54:29.456Z</time>
      </trkpt>
      <trkpt lat="43.09763833" lon="-4.23226833">
        <ele>1118.0</ele>
        <time>2018-05-19T14:54:30.456Z</time>
      </trkpt>
      <trkpt lat="43.09763833" lon="-4.23226833">
        <ele>1118.0</ele>
        <time>2018-05-19T14:54:31.465Z</time>
      </trkpt>
      <trkpt lat="43.09766167" lon="-4.23222833">
        <ele>1118.0</ele>
        <time>2018-05-19T14:54:32.468Z</time>
      </trkpt>
      <trkpt lat="43.09766167" lon="-4.23222833">
        <ele>1118.0</ele>
        <time>2018-05-19T14:54:33.487Z</time>
      </trkpt>
      <trkpt lat="43.09768" lon="-4.23218333">
        <ele>1118.0</ele>
        <time>2018-05-19T14:54:34.476Z</time>
      </trkpt>
      <trkpt lat="43.09768833" lon="-4.23216">
        <ele>1118.0</ele>
        <time>2018-05-19T14:54:35.463Z</time>
      </trkpt>
      <trkpt lat="43.09768833" lon="-4.23216">
        <ele>1118.0</ele>
        <time>2018-05-19T14:54:36.457Z</time>
      </trkpt>
      <trkpt lat="43.09771" lon="-4.232115">
        <ele>1119.0</ele>
        <time>2018-05-19T14:54:37.465Z</time>
      </trkpt>
      <trkpt lat="43.09771833" lon="-4.23209">
        <ele>1119.0</ele>
        <time>2018-05-19T14:54:38.463Z</time>
      </trkpt>
      <trkpt lat="43.09771833" lon="-4.23209">
        <ele>1119.0</ele>
        <time>2018-05-19T14:54:39.456Z</time>
      </trkpt>
      <trkpt lat="43.097735" lon="-4.23204167">
        <ele>1119.0</ele>
        <time>2018-05-19T14:54:40.460Z</time>
      </trkpt>
      <trkpt lat="43.09774333" lon="-4.23201833">
        <ele>1119.0</ele>
        <time>2018-05-19T14:54:41.463Z</time>
      </trkpt>
      <trkpt lat="43.09774333" lon="-4.23201833">
        <ele>1119.0</ele>
        <time>2018-05-19T14:54:42.459Z</time>
      </trkpt>
      <trkpt lat="43.09776333" lon="-4.23196167">
        <ele>1119.0</ele>
        <time>2018-05-19T14:54:43.461Z</time>
      </trkpt>
      <trkpt lat="43.09777333" lon="-4.231935">
        <ele>1120.0</ele>
        <time>2018-05-19T14:54:44.461Z</time>
      </trkpt>
      <trkpt lat="43.09777333" lon="-4.231935">
        <ele>1120.0</ele>
        <time>2018-05-19T14:54:45.455Z</time>
      </trkpt>
      <trkpt lat="43.09779" lon="-4.23188667">
        <ele>1120.0</ele>
        <time>2018-05-19T14:54:46.459Z</time>
      </trkpt>
      <trkpt lat="43.09779667" lon="-4.23186167">
        <ele>1120.0</ele>
        <time>2018-05-19T14:54:47.461Z</time>
      </trkpt>
      <trkpt lat="43.09779667" lon="-4.23186167">
        <ele>1120.0</ele>
        <time>2018-05-19T14:54:48.453Z</time>
      </trkpt>
      <trkpt lat="43.09781" lon="-4.23181167">
        <ele>1120.0</ele>
        <time>2018-05-19T14:54:49.476Z</time>
      </trkpt>
      <trkpt lat="43.09781667" lon="-4.231785">
        <ele>1120.0</ele>
        <time>2018-05-19T14:54:50.462Z</time>
      </trkpt>
      <trkpt lat="43.09781667" lon="-4.231785">
        <ele>1120.0</ele>
        <time>2018-05-19T14:54:51.471Z</time>
      </trkpt>
      <trkpt lat="43.09783333" lon="-4.231735">
        <ele>1120.0</ele>
        <time>2018-05-19T14:54:52.460Z</time>
      </trkpt>
      <trkpt lat="43.09784" lon="-4.23171167">
        <ele>1120.0</ele>
        <time>2018-05-19T14:54:53.460Z</time>
      </trkpt>
      <trkpt lat="43.09784667" lon="-4.23168667">
        <ele>1120.0</ele>
        <time>2018-05-19T14:54:54.462Z</time>
      </trkpt>
      <trkpt lat="43.09784667" lon="-4.23168667">
        <ele>1120.0</ele>
        <time>2018-05-19T14:54:55.455Z</time>
      </trkpt>
      <trkpt lat="43.09786" lon="-4.23163667">
        <ele>1120.0</ele>
        <time>2018-05-19T14:54:56.461Z</time>
      </trkpt>
      <trkpt lat="43.09786" lon="-4.23163667">
        <ele>1120.0</ele>
        <time>2018-05-19T14:54:57.454Z</time>
      </trkpt>
      <trkpt lat="43.09786833" lon="-4.23158667">
        <ele>1121.0</ele>
        <time>2018-05-19T14:54:58.461Z</time>
      </trkpt>
      <trkpt lat="43.09787167" lon="-4.23156">
        <ele>1121.0</ele>
        <time>2018-05-19T14:54:59.462Z</time>
      </trkpt>
      <trkpt lat="43.09787667" lon="-4.23153333">
        <ele>1121.0</ele>
        <time>2018-05-19T14:55:00.463Z</time>
      </trkpt>
      <trkpt lat="43.09787667" lon="-4.23153333">
        <ele>1121.0</ele>
        <time>2018-05-19T14:55:01.458Z</time>
      </trkpt>
      <trkpt lat="43.09788667" lon="-4.23147833">
        <ele>1122.0</ele>
        <time>2018-05-19T14:55:02.460Z</time>
      </trkpt>
      <trkpt lat="43.09788667" lon="-4.23147833">
        <ele>1122.0</ele>
        <time>2018-05-19T14:55:03.469Z</time>
      </trkpt>
      <trkpt lat="43.09789333" lon="-4.23142333">
        <ele>1122.0</ele>
        <time>2018-05-19T14:55:04.461Z</time>
      </trkpt>
      <trkpt lat="43.09789333" lon="-4.23142333">
        <ele>1122.0</ele>
        <time>2018-05-19T14:55:05.460Z</time>
      </trkpt>
      <trkpt lat="43.09790167" lon="-4.23137167">
        <ele>1122.0</ele>
        <time>2018-05-19T14:55:06.463Z</time>
      </trkpt>
      <trkpt lat="43.09790167" lon="-4.23137167">
        <ele>1122.0</ele>
        <time>2018-05-19T14:55:07.455Z</time>
      </trkpt>
      <trkpt lat="43.09790667" lon="-4.23132">
        <ele>1122.0</ele>
        <time>2018-05-19T14:55:08.463Z</time>
      </trkpt>
      <trkpt lat="43.09790667" lon="-4.23132">
        <ele>1122.0</ele>
        <time>2018-05-19T14:55:09.456Z</time>
      </trkpt>
      <trkpt lat="43.09791167" lon="-4.23126833">
        <ele>1122.0</ele>
        <time>2018-05-19T14:55:10.461Z</time>
      </trkpt>
      <trkpt lat="43.09791167" lon="-4.23126833">
        <ele>1122.0</ele>
        <time>2018-05-19T14:55:11.455Z</time>
      </trkpt>
      <trkpt lat="43.097915" lon="-4.23121667">
        <ele>1123.0</ele>
        <time>2018-05-19T14:55:12.465Z</time>
      </trkpt>
      <trkpt lat="43.097915" lon="-4.23121667">
        <ele>1123.0</ele>
        <time>2018-05-19T14:55:13.456Z</time>
      </trkpt>
      <trkpt lat="43.09792167" lon="-4.23116333">
        <ele>1123.0</ele>
        <time>2018-05-19T14:55:14.461Z</time>
      </trkpt>
      <trkpt lat="43.09792167" lon="-4.23116333">
        <ele>1123.0</ele>
        <time>2018-05-19T14:55:15.455Z</time>
      </trkpt>
      <trkpt lat="43.097925" lon="-4.23111167">
        <ele>1123.0</ele>
        <time>2018-05-19T14:55:16.460Z</time>
      </trkpt>
      <trkpt lat="43.097925" lon="-4.23111167">
        <ele>1123.0</ele>
        <time>2018-05-19T14:55:17.455Z</time>
      </trkpt>
      <trkpt lat="43.09793167" lon="-4.23106167">
        <ele>1123.0</ele>
        <time>2018-05-19T14:55:18.463Z</time>
      </trkpt>
      <trkpt lat="43.09793167" lon="-4.23106167">
        <ele>1123.0</ele>
        <time>2018-05-19T14:55:19.455Z</time>
      </trkpt>
      <trkpt lat="43.09794" lon="-4.23101">
        <ele>1123.0</ele>
        <time>2018-05-19T14:55:20.462Z</time>
      </trkpt>
      <trkpt lat="43.09794" lon="-4.23101">
        <ele>1123.0</ele>
        <time>2018-05-19T14:55:21.455Z</time>
      </trkpt>
      <trkpt lat="43.09794167" lon="-4.23095833">
        <ele>1124.0</ele>
        <time>2018-05-19T14:55:22.460Z</time>
      </trkpt>
      <trkpt lat="43.097945" lon="-4.23093167">
        <ele>1124.0</ele>
        <time>2018-05-19T14:55:23.461Z</time>
      </trkpt>
      <trkpt lat="43.097945" lon="-4.23093167">
        <ele>1124.0</ele>
        <time>2018-05-19T14:55:24.459Z</time>
      </trkpt>
      <trkpt lat="43.09795167" lon="-4.230875">
        <ele>1124.0</ele>
        <time>2018-05-19T14:55:25.475Z</time>
      </trkpt>
      <trkpt lat="43.09795167" lon="-4.23084667">
        <ele>1124.0</ele>
        <time>2018-05-19T14:55:26.473Z</time>
      </trkpt>
      <trkpt lat="43.09795167" lon="-4.23084667">
        <ele>1124.0</ele>
        <time>2018-05-19T14:55:27.462Z</time>
      </trkpt>
      <trkpt lat="43.09795333" lon="-4.23079667">
        <ele>1124.0</ele>
        <time>2018-05-19T14:55:28.461Z</time>
      </trkpt>
      <trkpt lat="43.09795333" lon="-4.23079667">
        <ele>1124.0</ele>
        <time>2018-05-19T14:55:29.455Z</time>
      </trkpt>
      <trkpt lat="43.09795833" lon="-4.23074333">
        <ele>1124.0</ele>
        <time>2018-05-19T14:55:30.461Z</time>
      </trkpt>
      <trkpt lat="43.09796" lon="-4.23071667">
        <ele>1124.0</ele>
        <time>2018-05-19T14:55:31.460Z</time>
      </trkpt>
      <trkpt lat="43.09796333" lon="-4.23068833">
        <ele>1124.0</ele>
        <time>2018-05-19T14:55:32.469Z</time>
      </trkpt>
      <trkpt lat="43.09796333" lon="-4.23068833">
        <ele>1124.0</ele>
        <time>2018-05-19T14:55:33.456Z</time>
      </trkpt>
      <trkpt lat="43.09796833" lon="-4.230635">
        <ele>1125.0</ele>
        <time>2018-05-19T14:55:34.462Z</time>
      </trkpt>
      <trkpt lat="43.09796833" lon="-4.230635">
        <ele>1125.0</ele>
        <time>2018-05-19T14:55:35.455Z</time>
      </trkpt>
      <trkpt lat="43.09797" lon="-4.23058167">
        <ele>1125.0</ele>
        <time>2018-05-19T14:55:36.478Z</time>
      </trkpt>
      <trkpt lat="43.09797" lon="-4.23058167">
        <ele>1125.0</ele>
        <time>2018-05-19T14:55:37.464Z</time>
      </trkpt>
      <trkpt lat="43.097975" lon="-4.23052833">
        <ele>1125.0</ele>
        <time>2018-05-19T14:55:38.463Z</time>
      </trkpt>
      <trkpt lat="43.097975" lon="-4.23052833">
        <ele>1125.0</ele>
        <time>2018-05-19T14:55:39.454Z</time>
      </trkpt>
      <trkpt lat="43.09798333" lon="-4.23047667">
        <ele>1126.0</ele>
        <time>2018-05-19T14:55:40.460Z</time>
      </trkpt>
      <trkpt lat="43.09798333" lon="-4.23047667">
        <ele>1126.0</ele>
        <time>2018-05-19T14:55:41.457Z</time>
      </trkpt>
      <trkpt lat="43.097995" lon="-4.23042167">
        <ele>1126.0</ele>
        <time>2018-05-19T14:55:42.461Z</time>
      </trkpt>
      <trkpt lat="43.097995" lon="-4.23042167">
        <ele>1126.0</ele>
        <time>2018-05-19T14:55:43.455Z</time>
      </trkpt>
      <trkpt lat="43.098005" lon="-4.23037">
        <ele>1126.0</ele>
        <time>2018-05-19T14:55:44.459Z</time>
      </trkpt>
      <trkpt lat="43.098005" lon="-4.23037">
        <ele>1126.0</ele>
        <time>2018-05-19T14:55:45.455Z</time>
      </trkpt>
      <trkpt lat="43.098015" lon="-4.23031667">
        <ele>1126.0</ele>
        <time>2018-05-19T14:55:46.460Z</time>
      </trkpt>
      <trkpt lat="43.098015" lon="-4.23031667">
        <ele>1126.0</ele>
        <time>2018-05-19T14:55:47.456Z</time>
      </trkpt>
      <trkpt lat="43.09801667" lon="-4.230265">
        <ele>1127.0</ele>
        <time>2018-05-19T14:55:48.461Z</time>
      </trkpt>
      <trkpt lat="43.09801667" lon="-4.230265">
        <ele>1127.0</ele>
        <time>2018-05-19T14:55:49.457Z</time>
      </trkpt>
      <trkpt lat="43.09802667" lon="-4.230215">
        <ele>1127.0</ele>
        <time>2018-05-19T14:55:50.460Z</time>
      </trkpt>
      <trkpt lat="43.09802667" lon="-4.230215">
        <ele>1127.0</ele>
        <time>2018-05-19T14:55:51.455Z</time>
      </trkpt>
      <trkpt lat="43.09803833" lon="-4.23016">
        <ele>1127.0</ele>
        <time>2018-05-19T14:55:52.455Z</time>
      </trkpt>
      <trkpt lat="43.098045" lon="-4.23013333">
        <ele>1128.0</ele>
        <time>2018-05-19T14:55:53.462Z</time>
      </trkpt>
      <trkpt lat="43.098055" lon="-4.23010667">
        <ele>1128.0</ele>
        <time>2018-05-19T14:55:54.464Z</time>
      </trkpt>
      <trkpt lat="43.098055" lon="-4.23010667">
        <ele>1128.0</ele>
        <time>2018-05-19T14:55:55.460Z</time>
      </trkpt>
      <trkpt lat="43.09807167" lon="-4.230055">
        <ele>1128.0</ele>
        <time>2018-05-19T14:55:56.460Z</time>
      </trkpt>
      <trkpt lat="43.09807167" lon="-4.230055">
        <ele>1128.0</ele>
        <time>2018-05-19T14:55:57.481Z</time>
      </trkpt>
      <trkpt lat="43.098085" lon="-4.23">
        <ele>1128.0</ele>
        <time>2018-05-19T14:55:58.469Z</time>
      </trkpt>
      <trkpt lat="43.098085" lon="-4.23">
        <ele>1128.0</ele>
        <time>2018-05-19T14:55:59.456Z</time>
      </trkpt>
      <trkpt lat="43.09809833" lon="-4.229945">
        <ele>1129.0</ele>
        <time>2018-05-19T14:56:00.463Z</time>
      </trkpt>
      <trkpt lat="43.09809833" lon="-4.229945">
        <ele>1129.0</ele>
        <time>2018-05-19T14:56:01.455Z</time>
      </trkpt>
      <trkpt lat="43.09811167" lon="-4.22989167">
        <ele>1129.0</ele>
        <time>2018-05-19T14:56:02.486Z</time>
      </trkpt>
      <trkpt lat="43.09811833" lon="-4.22986667">
        <ele>1129.0</ele>
        <time>2018-05-19T14:56:03.479Z</time>
      </trkpt>
      <trkpt lat="43.09811833" lon="-4.22986667">
        <ele>1129.0</ele>
        <time>2018-05-19T14:56:04.465Z</time>
      </trkpt>
      <trkpt lat="43.09813" lon="-4.229815">
        <ele>1129.0</ele>
        <time>2018-05-19T14:56:05.461Z</time>
      </trkpt>
      <trkpt lat="43.09813667" lon="-4.22979">
        <ele>1130.0</ele>
        <time>2018-05-19T14:56:06.461Z</time>
      </trkpt>
      <trkpt lat="43.09813667" lon="-4.22979">
        <ele>1130.0</ele>
        <time>2018-05-19T14:56:07.454Z</time>
      </trkpt>
      <trkpt lat="43.09815" lon="-4.22973833">
        <ele>1130.0</ele>
        <time>2018-05-19T14:56:08.481Z</time>
      </trkpt>
      <trkpt lat="43.09815" lon="-4.22973833">
        <ele>1130.0</ele>
        <time>2018-05-19T14:56:09.466Z</time>
      </trkpt>
      <trkpt lat="43.09816" lon="-4.22968667">
        <ele>1130.0</ele>
        <time>2018-05-19T14:56:10.460Z</time>
      </trkpt>
      <trkpt lat="43.09816" lon="-4.22968667">
        <ele>1130.0</ele>
        <time>2018-05-19T14:56:11.457Z</time>
      </trkpt>
      <trkpt lat="43.09817333" lon="-4.22963667">
        <ele>1130.0</ele>
        <time>2018-05-19T14:56:12.461Z</time>
      </trkpt>
      <trkpt lat="43.09817333" lon="-4.22963667">
        <ele>1130.0</ele>
        <time>2018-05-19T14:56:13.454Z</time>
      </trkpt>
      <trkpt lat="43.09818833" lon="-4.22958333">
        <ele>1131.0</ele>
        <time>2018-05-19T14:56:14.460Z</time>
      </trkpt>
      <trkpt lat="43.09818833" lon="-4.22958333">
        <ele>1131.0</ele>
        <time>2018-05-19T14:56:15.460Z</time>
      </trkpt>
      <trkpt lat="43.09820667" lon="-4.22952833">
        <ele>1131.0</ele>
        <time>2018-05-19T14:56:16.461Z</time>
      </trkpt>
      <trkpt lat="43.09820667" lon="-4.22952833">
        <ele>1131.0</ele>
        <time>2018-05-19T14:56:17.452Z</time>
      </trkpt>
      <trkpt lat="43.098225" lon="-4.22947667">
        <ele>1131.0</ele>
        <time>2018-05-19T14:56:18.477Z</time>
      </trkpt>
      <trkpt lat="43.098225" lon="-4.22947667">
        <ele>1131.0</ele>
        <time>2018-05-19T14:56:19.463Z</time>
      </trkpt>
      <trkpt lat="43.09824333" lon="-4.229425">
        <ele>1132.0</ele>
        <time>2018-05-19T14:56:20.461Z</time>
      </trkpt>
      <trkpt lat="43.09824333" lon="-4.229425">
        <ele>1132.0</ele>
        <time>2018-05-19T14:56:21.454Z</time>
      </trkpt>
      <trkpt lat="43.09826667" lon="-4.22937333">
        <ele>1132.0</ele>
        <time>2018-05-19T14:56:22.466Z</time>
      </trkpt>
      <trkpt lat="43.09826667" lon="-4.22937333">
        <ele>1132.0</ele>
        <time>2018-05-19T14:56:23.467Z</time>
      </trkpt>
      <trkpt lat="43.09828833" lon="-4.22932">
        <ele>1132.0</ele>
        <time>2018-05-19T14:56:24.459Z</time>
      </trkpt>
      <trkpt lat="43.09828833" lon="-4.22932">
        <ele>1132.0</ele>
        <time>2018-05-19T14:56:25.455Z</time>
      </trkpt>
      <trkpt lat="43.09830667" lon="-4.22927167">
        <ele>1133.0</ele>
        <time>2018-05-19T14:56:26.461Z</time>
      </trkpt>
      <trkpt lat="43.09830667" lon="-4.22927167">
        <ele>1133.0</ele>
        <time>2018-05-19T14:56:27.455Z</time>
      </trkpt>
      <trkpt lat="43.09832833" lon="-4.22922">
        <ele>1133.0</ele>
        <time>2018-05-19T14:56:28.460Z</time>
      </trkpt>
      <trkpt lat="43.09832833" lon="-4.22922">
        <ele>1133.0</ele>
        <time>2018-05-19T14:56:29.455Z</time>
      </trkpt>
      <trkpt lat="43.09835167" lon="-4.22917333">
        <ele>1134.0</ele>
        <time>2018-05-19T14:56:30.462Z</time>
      </trkpt>
      <trkpt lat="43.09835167" lon="-4.22917333">
        <ele>1134.0</ele>
        <time>2018-05-19T14:56:31.455Z</time>
      </trkpt>
      <trkpt lat="43.09837833" lon="-4.22913167">
        <ele>1134.0</ele>
        <time>2018-05-19T14:56:32.467Z</time>
      </trkpt>
      <trkpt lat="43.09837833" lon="-4.22913167">
        <ele>1134.0</ele>
        <time>2018-05-19T14:56:33.477Z</time>
      </trkpt>
      <trkpt lat="43.09840833" lon="-4.22908833">
        <ele>1135.0</ele>
        <time>2018-05-19T14:56:34.463Z</time>
      </trkpt>
      <trkpt lat="43.09842167" lon="-4.22907">
        <ele>1135.0</ele>
        <time>2018-05-19T14:56:35.460Z</time>
      </trkpt>
      <trkpt lat="43.09842167" lon="-4.22907">
        <ele>1135.0</ele>
        <time>2018-05-19T14:56:36.457Z</time>
      </trkpt>
      <trkpt lat="43.09845" lon="-4.22902667">
        <ele>1135.0</ele>
        <time>2018-05-19T14:56:37.481Z</time>
      </trkpt>
      <trkpt lat="43.09845" lon="-4.22902667">
        <ele>1135.0</ele>
        <time>2018-05-19T14:56:38.463Z</time>
      </trkpt>
      <trkpt lat="43.09848333" lon="-4.22899167">
        <ele>1136.0</ele>
        <time>2018-05-19T14:56:39.460Z</time>
      </trkpt>
      <trkpt lat="43.09849833" lon="-4.22897333">
        <ele>1136.0</ele>
        <time>2018-05-19T14:56:40.459Z</time>
      </trkpt>
      <trkpt lat="43.09849833" lon="-4.22897333">
        <ele>1136.0</ele>
        <time>2018-05-19T14:56:41.454Z</time>
      </trkpt>
      <trkpt lat="43.09853" lon="-4.22894333">
        <ele>1136.0</ele>
        <time>2018-05-19T14:56:42.454Z</time>
      </trkpt>
      <trkpt lat="43.09853" lon="-4.22894333">
        <ele>1136.0</ele>
        <time>2018-05-19T14:56:43.475Z</time>
      </trkpt>
      <trkpt lat="43.09856333" lon="-4.22891667">
        <ele>1137.0</ele>
        <time>2018-05-19T14:56:44.461Z</time>
      </trkpt>
      <trkpt lat="43.09856333" lon="-4.22891667">
        <ele>1137.0</ele>
        <time>2018-05-19T14:56:45.460Z</time>
      </trkpt>
      <trkpt lat="43.09859667" lon="-4.22889">
        <ele>1137.0</ele>
        <time>2018-05-19T14:56:46.461Z</time>
      </trkpt>
      <trkpt lat="43.09859667" lon="-4.22889">
        <ele>1137.0</ele>
        <time>2018-05-19T14:56:47.456Z</time>
      </trkpt>
      <trkpt lat="43.09863" lon="-4.22886833">
        <ele>1138.0</ele>
        <time>2018-05-19T14:56:48.463Z</time>
      </trkpt>
      <trkpt lat="43.09863" lon="-4.22886833">
        <ele>1138.0</ele>
        <time>2018-05-19T14:56:49.454Z</time>
      </trkpt>
      <trkpt lat="43.098665" lon="-4.22885333">
        <ele>1139.0</ele>
        <time>2018-05-19T14:56:50.461Z</time>
      </trkpt>
      <trkpt lat="43.098665" lon="-4.22885333">
        <ele>1139.0</ele>
        <time>2018-05-19T14:56:51.455Z</time>
      </trkpt>
      <trkpt lat="43.09870167" lon="-4.22883333">
        <ele>1139.0</ele>
        <time>2018-05-19T14:56:52.460Z</time>
      </trkpt>
      <trkpt lat="43.09870167" lon="-4.22883333">
        <ele>1139.0</ele>
        <time>2018-05-19T14:56:53.475Z</time>
      </trkpt>
      <trkpt lat="43.09873667" lon="-4.22880667">
        <ele>1139.0</ele>
        <time>2018-05-19T14:56:54.461Z</time>
      </trkpt>
      <trkpt lat="43.09873667" lon="-4.22880667">
        <ele>1139.0</ele>
        <time>2018-05-19T14:56:55.460Z</time>
      </trkpt>
      <trkpt lat="43.09877333" lon="-4.22878833">
        <ele>1140.0</ele>
        <time>2018-05-19T14:56:56.461Z</time>
      </trkpt>
      <trkpt lat="43.09877333" lon="-4.22878833">
        <ele>1140.0</ele>
        <time>2018-05-19T14:56:57.458Z</time>
      </trkpt>
      <trkpt lat="43.09881167" lon="-4.22876833">
        <ele>1140.0</ele>
        <time>2018-05-19T14:56:58.460Z</time>
      </trkpt>
      <trkpt lat="43.09881167" lon="-4.22876833">
        <ele>1140.0</ele>
        <time>2018-05-19T14:56:59.454Z</time>
      </trkpt>
      <trkpt lat="43.09885" lon="-4.22875">
        <ele>1140.0</ele>
        <time>2018-05-19T14:57:00.477Z</time>
      </trkpt>
      <trkpt lat="43.09885" lon="-4.22875">
        <ele>1140.0</ele>
        <time>2018-05-19T14:57:01.463Z</time>
      </trkpt>
      <trkpt lat="43.09889" lon="-4.22872833">
        <ele>1141.0</ele>
        <time>2018-05-19T14:57:02.461Z</time>
      </trkpt>
      <trkpt lat="43.09889" lon="-4.22872833">
        <ele>1141.0</ele>
        <time>2018-05-19T14:57:03.458Z</time>
      </trkpt>
      <trkpt lat="43.09893167" lon="-4.22871333">
        <ele>1141.0</ele>
        <time>2018-05-19T14:57:04.460Z</time>
      </trkpt>
      <trkpt lat="43.09893167" lon="-4.22871333">
        <ele>1141.0</ele>
        <time>2018-05-19T14:57:05.455Z</time>
      </trkpt>
      <trkpt lat="43.09897833" lon="-4.22870333">
        <ele>1141.0</ele>
        <time>2018-05-19T14:57:06.460Z</time>
      </trkpt>
      <trkpt lat="43.09897833" lon="-4.22870333">
        <ele>1141.0</ele>
        <time>2018-05-19T14:57:07.454Z</time>
      </trkpt>
      <trkpt lat="43.09902667" lon="-4.22869">
        <ele>1141.0</ele>
        <time>2018-05-19T14:57:08.460Z</time>
      </trkpt>
      <trkpt lat="43.09902667" lon="-4.22869">
        <ele>1141.0</ele>
        <time>2018-05-19T14:57:09.454Z</time>
      </trkpt>
      <trkpt lat="43.09908" lon="-4.22867833">
        <ele>1141.0</ele>
        <time>2018-05-19T14:57:10.461Z</time>
      </trkpt>
      <trkpt lat="43.09908" lon="-4.22867833">
        <ele>1141.0</ele>
        <time>2018-05-19T14:57:11.455Z</time>
      </trkpt>
      <trkpt lat="43.09913167" lon="-4.22867">
        <ele>1142.0</ele>
        <time>2018-05-19T14:57:12.453Z</time>
      </trkpt>
      <trkpt lat="43.09913167" lon="-4.22867">
        <ele>1142.0</ele>
        <time>2018-05-19T14:57:13.454Z</time>
      </trkpt>
      <trkpt lat="43.09918333" lon="-4.22867">
        <ele>1142.0</ele>
        <time>2018-05-19T14:57:14.460Z</time>
      </trkpt>
      <trkpt lat="43.09918333" lon="-4.22867">
        <ele>1142.0</ele>
        <time>2018-05-19T14:57:15.455Z</time>
      </trkpt>
      <trkpt lat="43.09923167" lon="-4.22866667">
        <ele>1142.0</ele>
        <time>2018-05-19T14:57:16.460Z</time>
      </trkpt>
      <trkpt lat="43.09923167" lon="-4.22866667">
        <ele>1142.0</ele>
        <time>2018-05-19T14:57:17.455Z</time>
      </trkpt>
      <trkpt lat="43.09928333" lon="-4.22866667">
        <ele>1142.0</ele>
        <time>2018-05-19T14:57:18.461Z</time>
      </trkpt>
      <trkpt lat="43.09928333" lon="-4.22866667">
        <ele>1142.0</ele>
        <time>2018-05-19T14:57:19.454Z</time>
      </trkpt>
      <trkpt lat="43.09933167" lon="-4.22866667">
        <ele>1143.0</ele>
        <time>2018-05-19T14:57:20.460Z</time>
      </trkpt>
      <trkpt lat="43.09933167" lon="-4.22866667">
        <ele>1143.0</ele>
        <time>2018-05-19T14:57:21.458Z</time>
      </trkpt>
      <trkpt lat="43.09938333" lon="-4.22867167">
        <ele>1143.0</ele>
        <time>2018-05-19T14:57:22.459Z</time>
      </trkpt>
      <trkpt lat="43.09941167" lon="-4.22867">
        <ele>1143.0</ele>
        <time>2018-05-19T14:57:23.461Z</time>
      </trkpt>
      <trkpt lat="43.099435" lon="-4.22866667">
        <ele>1143.0</ele>
        <time>2018-05-19T14:57:24.462Z</time>
      </trkpt>
      <trkpt lat="43.099435" lon="-4.22866667">
        <ele>1143.0</ele>
        <time>2018-05-19T14:57:25.455Z</time>
      </trkpt>
      <trkpt lat="43.09948333" lon="-4.22865833">
        <ele>1143.0</ele>
        <time>2018-05-19T14:57:26.460Z</time>
      </trkpt>
      <trkpt lat="43.09948333" lon="-4.22865833">
        <ele>1143.0</ele>
        <time>2018-05-19T14:57:27.455Z</time>
      </trkpt>
      <trkpt lat="43.09952833" lon="-4.228655">
        <ele>1143.0</ele>
        <time>2018-05-19T14:57:28.460Z</time>
      </trkpt>
      <trkpt lat="43.09952833" lon="-4.228655">
        <ele>1143.0</ele>
        <time>2018-05-19T14:57:29.454Z</time>
      </trkpt>
      <trkpt lat="43.09957167" lon="-4.22865333">
        <ele>1144.0</ele>
        <time>2018-05-19T14:57:30.461Z</time>
      </trkpt>
      <trkpt lat="43.09957167" lon="-4.22865333">
        <ele>1144.0</ele>
        <time>2018-05-19T14:57:31.456Z</time>
      </trkpt>
      <trkpt lat="43.09961333" lon="-4.22865167">
        <ele>1144.0</ele>
        <time>2018-05-19T14:57:32.480Z</time>
      </trkpt>
      <trkpt lat="43.09961333" lon="-4.22865167">
        <ele>1144.0</ele>
        <time>2018-05-19T14:57:33.449Z</time>
      </trkpt>
      <trkpt lat="43.09965667" lon="-4.22864833">
        <ele>1145.0</ele>
        <time>2018-05-19T14:57:34.474Z</time>
      </trkpt>
      <trkpt lat="43.09965667" lon="-4.22864833">
        <ele>1145.0</ele>
        <time>2018-05-19T14:57:35.460Z</time>
      </trkpt>
      <trkpt lat="43.09970167" lon="-4.22864333">
        <ele>1145.0</ele>
        <time>2018-05-19T14:57:36.460Z</time>
      </trkpt>
      <trkpt lat="43.09970167" lon="-4.22864333">
        <ele>1145.0</ele>
        <time>2018-05-19T14:57:37.454Z</time>
      </trkpt>
      <trkpt lat="43.09974667" lon="-4.22862833">
        <ele>1146.0</ele>
        <time>2018-05-19T14:57:38.460Z</time>
      </trkpt>
      <trkpt lat="43.09974667" lon="-4.22862833">
        <ele>1146.0</ele>
        <time>2018-05-19T14:57:39.454Z</time>
      </trkpt>
      <trkpt lat="43.09978667" lon="-4.228625">
        <ele>1146.0</ele>
        <time>2018-05-19T14:57:40.460Z</time>
      </trkpt>
      <trkpt lat="43.09978667" lon="-4.228625">
        <ele>1146.0</ele>
        <time>2018-05-19T14:57:41.456Z</time>
      </trkpt>
      <trkpt lat="43.09982333" lon="-4.22862667">
        <ele>1146.0</ele>
        <time>2018-05-19T14:57:42.462Z</time>
      </trkpt>
      <trkpt lat="43.09982333" lon="-4.22862667">
        <ele>1146.0</ele>
        <time>2018-05-19T14:57:43.450Z</time>
      </trkpt>
      <trkpt lat="43.09986" lon="-4.22863167">
        <ele>1147.0</ele>
        <time>2018-05-19T14:57:44.476Z</time>
      </trkpt>
      <trkpt lat="43.09986" lon="-4.22863167">
        <ele>1147.0</ele>
        <time>2018-05-19T14:57:45.448Z</time>
      </trkpt>
      <trkpt lat="43.09989833" lon="-4.228635">
        <ele>1148.0</ele>
        <time>2018-05-19T14:57:46.476Z</time>
      </trkpt>
      <trkpt lat="43.09989833" lon="-4.228635">
        <ele>1148.0</ele>
        <time>2018-05-19T14:57:47.460Z</time>
      </trkpt>
      <trkpt lat="43.09993333" lon="-4.22864167">
        <ele>1148.0</ele>
        <time>2018-05-19T14:57:48.461Z</time>
      </trkpt>
      <trkpt lat="43.09993333" lon="-4.22864167">
        <ele>1148.0</ele>
        <time>2018-05-19T14:57:49.455Z</time>
      </trkpt>
      <trkpt lat="43.09996333" lon="-4.228655">
        <ele>1149.0</ele>
        <time>2018-05-19T14:57:50.461Z</time>
      </trkpt>
      <trkpt lat="43.09996333" lon="-4.228655">
        <ele>1149.0</ele>
        <time>2018-05-19T14:57:51.454Z</time>
      </trkpt>
      <trkpt lat="43.09999667" lon="-4.22868167">
        <ele>1151.0</ele>
        <time>2018-05-19T14:57:52.474Z</time>
      </trkpt>
      <trkpt lat="43.09999667" lon="-4.22868167">
        <ele>1151.0</ele>
        <time>2018-05-19T14:57:53.470Z</time>
      </trkpt>
      <trkpt lat="43.10002833" lon="-4.22870667">
        <ele>1152.0</ele>
        <time>2018-05-19T14:57:54.462Z</time>
      </trkpt>
      <trkpt lat="43.10002833" lon="-4.22870667">
        <ele>1152.0</ele>
        <time>2018-05-19T14:57:55.455Z</time>
      </trkpt>
      <trkpt lat="43.10005333" lon="-4.22873167">
        <ele>1153.0</ele>
        <time>2018-05-19T14:57:56.459Z</time>
      </trkpt>
      <trkpt lat="43.10005333" lon="-4.22873167">
        <ele>1153.0</ele>
        <time>2018-05-19T14:57:57.456Z</time>
      </trkpt>
      <trkpt lat="43.10008" lon="-4.228765">
        <ele>1154.0</ele>
        <time>2018-05-19T14:57:58.460Z</time>
      </trkpt>
      <trkpt lat="43.100095" lon="-4.22878">
        <ele>1154.0</ele>
        <time>2018-05-19T14:57:59.460Z</time>
      </trkpt>
      <trkpt lat="43.100095" lon="-4.22878">
        <ele>1154.0</ele>
        <time>2018-05-19T14:58:00.458Z</time>
      </trkpt>
      <trkpt lat="43.10012" lon="-4.22882333">
        <ele>1155.0</ele>
        <time>2018-05-19T14:58:01.460Z</time>
      </trkpt>
      <trkpt lat="43.10013333" lon="-4.228845">
        <ele>1155.0</ele>
        <time>2018-05-19T14:58:02.461Z</time>
      </trkpt>
      <trkpt lat="43.10013333" lon="-4.228845">
        <ele>1155.0</ele>
        <time>2018-05-19T14:58:03.456Z</time>
      </trkpt>
      <trkpt lat="43.10016167" lon="-4.22888833">
        <ele>1156.0</ele>
        <time>2018-05-19T14:58:04.462Z</time>
      </trkpt>
      <trkpt lat="43.10016167" lon="-4.22888833">
        <ele>1156.0</ele>
        <time>2018-05-19T14:58:05.454Z</time>
      </trkpt>
      <trkpt lat="43.10019333" lon="-4.228925">
        <ele>1156.0</ele>
        <time>2018-05-19T14:58:06.460Z</time>
      </trkpt>
      <trkpt lat="43.10019333" lon="-4.228925">
        <ele>1156.0</ele>
        <time>2018-05-19T14:58:07.464Z</time>
      </trkpt>
      <trkpt lat="43.10023167" lon="-4.228965">
        <ele>1157.0</ele>
        <time>2018-05-19T14:58:08.459Z</time>
      </trkpt>
      <trkpt lat="43.10023167" lon="-4.228965">
        <ele>1157.0</ele>
        <time>2018-05-19T14:58:09.455Z</time>
      </trkpt>
      <trkpt lat="43.10027" lon="-4.22899833">
        <ele>1157.0</ele>
        <time>2018-05-19T14:58:10.460Z</time>
      </trkpt>
      <trkpt lat="43.10027" lon="-4.22899833">
        <ele>1157.0</ele>
        <time>2018-05-19T14:58:11.454Z</time>
      </trkpt>
      <trkpt lat="43.10030667" lon="-4.22902667">
        <ele>1158.0</ele>
        <time>2018-05-19T14:58:12.475Z</time>
      </trkpt>
      <trkpt lat="43.10030667" lon="-4.22902667">
        <ele>1158.0</ele>
        <time>2018-05-19T14:58:13.466Z</time>
      </trkpt>
      <trkpt lat="43.10034333" lon="-4.229055">
        <ele>1158.0</ele>
        <time>2018-05-19T14:58:14.460Z</time>
      </trkpt>
      <trkpt lat="43.10036333" lon="-4.22906833">
        <ele>1159.0</ele>
        <time>2018-05-19T14:58:15.463Z</time>
      </trkpt>
      <trkpt lat="43.10036333" lon="-4.22906833">
        <ele>1159.0</ele>
        <time>2018-05-19T14:58:16.454Z</time>
      </trkpt>
      <trkpt lat="43.10039833" lon="-4.22909333">
        <ele>1159.0</ele>
        <time>2018-05-19T14:58:17.460Z</time>
      </trkpt>
      <trkpt lat="43.10041333" lon="-4.22910333">
        <ele>1159.0</ele>
        <time>2018-05-19T14:58:18.460Z</time>
      </trkpt>
      <trkpt lat="43.10041333" lon="-4.22910333">
        <ele>1159.0</ele>
        <time>2018-05-19T14:58:19.454Z</time>
      </trkpt>
      <trkpt lat="43.10044833" lon="-4.229125">
        <ele>1160.0</ele>
        <time>2018-05-19T14:58:20.460Z</time>
      </trkpt>
      <trkpt lat="43.10046333" lon="-4.22913833">
        <ele>1160.0</ele>
        <time>2018-05-19T14:58:21.460Z</time>
      </trkpt>
      <trkpt lat="43.10046333" lon="-4.22913833">
        <ele>1160.0</ele>
        <time>2018-05-19T14:58:22.456Z</time>
      </trkpt>
      <trkpt lat="43.10049333" lon="-4.22916">
        <ele>1160.0</ele>
        <time>2018-05-19T14:58:23.468Z</time>
      </trkpt>
      <trkpt lat="43.10051" lon="-4.22917">
        <ele>1160.0</ele>
        <time>2018-05-19T14:58:24.461Z</time>
      </trkpt>
      <trkpt lat="43.10051" lon="-4.22917">
        <ele>1160.0</ele>
        <time>2018-05-19T14:58:25.460Z</time>
      </trkpt>
      <trkpt lat="43.10054333" lon="-4.22918833">
        <ele>1161.0</ele>
        <time>2018-05-19T14:58:26.459Z</time>
      </trkpt>
      <trkpt lat="43.10054333" lon="-4.22918833">
        <ele>1161.0</ele>
        <time>2018-05-19T14:58:27.456Z</time>
      </trkpt>
      <trkpt lat="43.100575" lon="-4.22921167">
        <ele>1161.0</ele>
        <time>2018-05-19T14:58:28.460Z</time>
      </trkpt>
      <trkpt lat="43.100575" lon="-4.22921167">
        <ele>1161.0</ele>
        <time>2018-05-19T14:58:29.454Z</time>
      </trkpt>
      <trkpt lat="43.10060333" lon="-4.229235">
        <ele>1162.0</ele>
        <time>2018-05-19T14:58:30.460Z</time>
      </trkpt>
      <trkpt lat="43.10060333" lon="-4.229235">
        <ele>1162.0</ele>
        <time>2018-05-19T14:58:31.463Z</time>
      </trkpt>
      <trkpt lat="43.10063167" lon="-4.22926833">
        <ele>1163.0</ele>
        <time>2018-05-19T14:58:32.460Z</time>
      </trkpt>
      <trkpt lat="43.10063167" lon="-4.22926833">
        <ele>1163.0</ele>
        <time>2018-05-19T14:58:33.455Z</time>
      </trkpt>
      <trkpt lat="43.10067333" lon="-4.22931667">
        <ele>1163.0</ele>
        <time>2018-05-19T14:58:34.475Z</time>
      </trkpt>
      <trkpt lat="43.100695" lon="-4.22934167">
        <ele>1163.0</ele>
        <time>2018-05-19T14:58:35.463Z</time>
      </trkpt>
      <trkpt lat="43.10071833" lon="-4.22936667">
        <ele>1163.0</ele>
        <time>2018-05-19T14:58:36.461Z</time>
      </trkpt>
      <trkpt lat="43.10074333" lon="-4.229395">
        <ele>1163.0</ele>
        <time>2018-05-19T14:58:37.461Z</time>
      </trkpt>
      <trkpt lat="43.10074333" lon="-4.229395">
        <ele>1163.0</ele>
        <time>2018-05-19T14:58:38.458Z</time>
      </trkpt>
      <trkpt lat="43.10079833" lon="-4.22946333">
        <ele>1162.0</ele>
        <time>2018-05-19T14:58:39.475Z</time>
      </trkpt>
      <trkpt lat="43.10079833" lon="-4.22946333">
        <ele>1162.0</ele>
        <time>2018-05-19T14:58:40.458Z</time>
      </trkpt>
      <trkpt lat="43.10087167" lon="-4.22953333">
        <ele>1162.0</ele>
        <time>2018-05-19T14:58:41.460Z</time>
      </trkpt>
      <trkpt lat="43.10091" lon="-4.22956667">
        <ele>1162.0</ele>
        <time>2018-05-19T14:58:42.458Z</time>
      </trkpt>
      <trkpt lat="43.10091" lon="-4.22956667">
        <ele>1162.0</ele>
        <time>2018-05-19T14:58:43.460Z</time>
      </trkpt>
      <trkpt lat="43.10098833" lon="-4.22962667">
        <ele>1161.0</ele>
        <time>2018-05-19T14:58:44.463Z</time>
      </trkpt>
      <trkpt lat="43.10098833" lon="-4.22962667">
        <ele>1161.0</ele>
        <time>2018-05-19T14:58:45.455Z</time>
      </trkpt>
      <trkpt lat="43.10106833" lon="-4.22968">
        <ele>1161.0</ele>
        <time>2018-05-19T14:58:46.461Z</time>
      </trkpt>
      <trkpt lat="43.10106833" lon="-4.22968">
        <ele>1161.0</ele>
        <time>2018-05-19T14:58:47.454Z</time>
      </trkpt>
      <trkpt lat="43.101155" lon="-4.22973167">
        <ele>1160.0</ele>
        <time>2018-05-19T14:58:48.481Z</time>
      </trkpt>
      <trkpt lat="43.101155" lon="-4.22973167">
        <ele>1160.0</ele>
        <time>2018-05-19T14:58:49.477Z</time>
      </trkpt>
      <trkpt lat="43.10123833" lon="-4.22979667">
        <ele>1159.0</ele>
        <time>2018-05-19T14:58:50.462Z</time>
      </trkpt>
      <trkpt lat="43.10123833" lon="-4.22979667">
        <ele>1159.0</ele>
        <time>2018-05-19T14:58:51.455Z</time>
      </trkpt>
      <trkpt lat="43.10133" lon="-4.22985833">
        <ele>1159.0</ele>
        <time>2018-05-19T14:58:52.460Z</time>
      </trkpt>
      <trkpt lat="43.10137833" lon="-4.22989">
        <ele>1158.0</ele>
        <time>2018-05-19T14:58:53.460Z</time>
      </trkpt>
      <trkpt lat="43.10137833" lon="-4.22989">
        <ele>1158.0</ele>
        <time>2018-05-19T14:58:54.452Z</time>
      </trkpt>
      <trkpt lat="43.10147167" lon="-4.22996167">
        <ele>1158.0</ele>
        <time>2018-05-19T14:58:55.460Z</time>
      </trkpt>
      <trkpt lat="43.10152" lon="-4.22999167">
        <ele>1158.0</ele>
        <time>2018-05-19T14:58:56.466Z</time>
      </trkpt>
      <trkpt lat="43.10152" lon="-4.22999167">
        <ele>1158.0</ele>
        <time>2018-05-19T14:58:57.455Z</time>
      </trkpt>
      <trkpt lat="43.10162333" lon="-4.23004333">
        <ele>1157.0</ele>
        <time>2018-05-19T14:58:58.460Z</time>
      </trkpt>
      <trkpt lat="43.10162333" lon="-4.23004333">
        <ele>1157.0</ele>
        <time>2018-05-19T14:58:59.454Z</time>
      </trkpt>
      <trkpt lat="43.10172833" lon="-4.23011">
        <ele>1156.0</ele>
        <time>2018-05-19T14:59:00.462Z</time>
      </trkpt>
      <trkpt lat="43.10172833" lon="-4.23011">
        <ele>1156.0</ele>
        <time>2018-05-19T14:59:01.456Z</time>
      </trkpt>
      <trkpt lat="43.101825" lon="-4.2302">
        <ele>1156.0</ele>
        <time>2018-05-19T14:59:02.460Z</time>
      </trkpt>
      <trkpt lat="43.101825" lon="-4.2302">
        <ele>1156.0</ele>
        <time>2018-05-19T14:59:03.451Z</time>
      </trkpt>
      <trkpt lat="43.10190667" lon="-4.23031667">
        <ele>1156.0</ele>
        <time>2018-05-19T14:59:04.460Z</time>
      </trkpt>
      <trkpt lat="43.10190667" lon="-4.23031667">
        <ele>1156.0</ele>
        <time>2018-05-19T14:59:05.460Z</time>
      </trkpt>
      <trkpt lat="43.10197667" lon="-4.23044">
        <ele>1156.0</ele>
        <time>2018-05-19T14:59:06.461Z</time>
      </trkpt>
      <trkpt lat="43.10197667" lon="-4.23044">
        <ele>1156.0</ele>
        <time>2018-05-19T14:59:07.456Z</time>
      </trkpt>
      <trkpt lat="43.10205667" lon="-4.23056">
        <ele>1155.0</ele>
        <time>2018-05-19T14:59:08.460Z</time>
      </trkpt>
      <trkpt lat="43.10205667" lon="-4.23056">
        <ele>1155.0</ele>
        <time>2018-05-19T14:59:09.455Z</time>
      </trkpt>
      <trkpt lat="43.10215167" lon="-4.230685">
        <ele>1153.0</ele>
        <time>2018-05-19T14:59:10.461Z</time>
      </trkpt>
      <trkpt lat="43.10215167" lon="-4.230685">
        <ele>1153.0</ele>
        <time>2018-05-19T14:59:11.454Z</time>
      </trkpt>
      <trkpt lat="43.10228333" lon="-4.23079833">
        <ele>1151.0</ele>
        <time>2018-05-19T14:59:12.479Z</time>
      </trkpt>
      <trkpt lat="43.10228333" lon="-4.23079833">
        <ele>1151.0</ele>
        <time>2018-05-19T14:59:13.474Z</time>
      </trkpt>
      <trkpt lat="43.10245167" lon="-4.23088667">
        <ele>1149.0</ele>
        <time>2018-05-19T14:59:14.475Z</time>
      </trkpt>
      <trkpt lat="43.10245167" lon="-4.23088667">
        <ele>1149.0</ele>
        <time>2018-05-19T14:59:15.465Z</time>
      </trkpt>
      <trkpt lat="43.102625" lon="-4.23099833">
        <ele>1148.0</ele>
        <time>2018-05-19T14:59:16.458Z</time>
      </trkpt>
      <trkpt lat="43.102625" lon="-4.23099833">
        <ele>1148.0</ele>
        <time>2018-05-19T14:59:17.455Z</time>
      </trkpt>
      <trkpt lat="43.10276667" lon="-4.23114667">
        <ele>1148.0</ele>
        <time>2018-05-19T14:59:18.461Z</time>
      </trkpt>
      <trkpt lat="43.10276667" lon="-4.23114667">
        <ele>1148.0</ele>
        <time>2018-05-19T14:59:19.454Z</time>
      </trkpt>
      <trkpt lat="43.10286167" lon="-4.231315">
        <ele>1149.0</ele>
        <time>2018-05-19T14:59:20.460Z</time>
      </trkpt>
      <trkpt lat="43.10286167" lon="-4.231315">
        <ele>1149.0</ele>
        <time>2018-05-19T14:59:21.454Z</time>
      </trkpt>
      <trkpt lat="43.10292167" lon="-4.23146333">
        <ele>1150.0</ele>
        <time>2018-05-19T14:59:22.462Z</time>
      </trkpt>
      <trkpt lat="43.10292167" lon="-4.23146333">
        <ele>1150.0</ele>
        <time>2018-05-19T14:59:23.454Z</time>
      </trkpt>
      <trkpt lat="43.10296333" lon="-4.23157833">
        <ele>1151.0</ele>
        <time>2018-05-19T14:59:24.456Z</time>
      </trkpt>
      <trkpt lat="43.10298" lon="-4.23162667">
        <ele>1151.0</ele>
        <time>2018-05-19T14:59:25.463Z</time>
      </trkpt>
      <trkpt lat="43.10298" lon="-4.23162667">
        <ele>1151.0</ele>
        <time>2018-05-19T14:59:26.455Z</time>
      </trkpt>
      <trkpt lat="43.10300833" lon="-4.23171333">
        <ele>1152.0</ele>
        <time>2018-05-19T14:59:27.455Z</time>
      </trkpt>
      <trkpt lat="43.10300833" lon="-4.23171333">
        <ele>1152.0</ele>
        <time>2018-05-19T14:59:28.454Z</time>
      </trkpt>
      <trkpt lat="43.10303167" lon="-4.23179333">
        <ele>1152.0</ele>
        <time>2018-05-19T14:59:29.460Z</time>
      </trkpt>
      <trkpt lat="43.10303167" lon="-4.23179333">
        <ele>1152.0</ele>
        <time>2018-05-19T14:59:30.460Z</time>
      </trkpt>
      <trkpt lat="43.10305833" lon="-4.231865">
        <ele>1153.0</ele>
        <time>2018-05-19T14:59:31.459Z</time>
      </trkpt>
      <trkpt lat="43.10307" lon="-4.2319">
        <ele>1153.0</ele>
        <time>2018-05-19T14:59:32.462Z</time>
      </trkpt>
      <trkpt lat="43.10307" lon="-4.2319">
        <ele>1153.0</ele>
        <time>2018-05-19T14:59:33.474Z</time>
      </trkpt>
      <trkpt lat="43.103095" lon="-4.23196667">
        <ele>1153.0</ele>
        <time>2018-05-19T14:59:34.460Z</time>
      </trkpt>
      <trkpt lat="43.10310833" lon="-4.23199667">
        <ele>1154.0</ele>
        <time>2018-05-19T14:59:35.460Z</time>
      </trkpt>
      <trkpt lat="43.10312" lon="-4.23202833">
        <ele>1154.0</ele>
        <time>2018-05-19T14:59:36.461Z</time>
      </trkpt>
      <trkpt lat="43.10312" lon="-4.23202833">
        <ele>1154.0</ele>
        <time>2018-05-19T14:59:37.453Z</time>
      </trkpt>
      <trkpt lat="43.103145" lon="-4.23208833">
        <ele>1154.0</ele>
        <time>2018-05-19T14:59:38.460Z</time>
      </trkpt>
      <trkpt lat="43.103145" lon="-4.23208833">
        <ele>1154.0</ele>
        <time>2018-05-19T14:59:39.451Z</time>
      </trkpt>
      <trkpt lat="43.10317333" lon="-4.23213833">
        <ele>1155.0</ele>
        <time>2018-05-19T14:59:40.458Z</time>
      </trkpt>
      <trkpt lat="43.10317333" lon="-4.23213833">
        <ele>1155.0</ele>
        <time>2018-05-19T14:59:41.464Z</time>
      </trkpt>
      <trkpt lat="43.10320167" lon="-4.23219">
        <ele>1155.0</ele>
        <time>2018-05-19T14:59:42.461Z</time>
      </trkpt>
      <trkpt lat="43.10320167" lon="-4.23219">
        <ele>1155.0</ele>
        <time>2018-05-19T14:59:43.486Z</time>
      </trkpt>
      <trkpt lat="43.10323167" lon="-4.23224167">
        <ele>1156.0</ele>
        <time>2018-05-19T14:59:44.475Z</time>
      </trkpt>
      <trkpt lat="43.103245" lon="-4.23226833">
        <ele>1156.0</ele>
        <time>2018-05-19T14:59:45.463Z</time>
      </trkpt>
      <trkpt lat="43.103245" lon="-4.23226833">
        <ele>1156.0</ele>
        <time>2018-05-19T14:59:46.453Z</time>
      </trkpt>
      <trkpt lat="43.10327667" lon="-4.23231667">
        <ele>1157.0</ele>
        <time>2018-05-19T14:59:47.477Z</time>
      </trkpt>
      <trkpt lat="43.10329" lon="-4.23233833">
        <ele>1157.0</ele>
        <time>2018-05-19T14:59:48.461Z</time>
      </trkpt>
      <trkpt lat="43.10329" lon="-4.23233833">
        <ele>1157.0</ele>
        <time>2018-05-19T14:59:49.453Z</time>
      </trkpt>
      <trkpt lat="43.10332167" lon="-4.23237833">
        <ele>1157.0</ele>
        <time>2018-05-19T14:59:50.459Z</time>
      </trkpt>
      <trkpt lat="43.10332167" lon="-4.23237833">
        <ele>1157.0</ele>
        <time>2018-05-19T14:59:51.454Z</time>
      </trkpt>
      <trkpt lat="43.10335667" lon="-4.23242">
        <ele>1158.0</ele>
        <time>2018-05-19T14:59:52.460Z</time>
      </trkpt>
      <trkpt lat="43.103375" lon="-4.23243833">
        <ele>1158.0</ele>
        <time>2018-05-19T14:59:53.460Z</time>
      </trkpt>
      <trkpt lat="43.103375" lon="-4.23243833">
        <ele>1158.0</ele>
        <time>2018-05-19T14:59:54.456Z</time>
      </trkpt>
      <trkpt lat="43.10340833" lon="-4.23247667">
        <ele>1158.0</ele>
        <time>2018-05-19T14:59:55.460Z</time>
      </trkpt>
      <trkpt lat="43.103425" lon="-4.232495">
        <ele>1159.0</ele>
        <time>2018-05-19T14:59:56.459Z</time>
      </trkpt>
      <trkpt lat="43.103425" lon="-4.232495">
        <ele>1159.0</ele>
        <time>2018-05-19T14:59:57.459Z</time>
      </trkpt>
      <trkpt lat="43.10346" lon="-4.23253167">
        <ele>1159.0</ele>
        <time>2018-05-19T14:59:58.456Z</time>
      </trkpt>
      <trkpt lat="43.10346" lon="-4.23253167">
        <ele>1159.0</ele>
        <time>2018-05-19T14:59:59.453Z</time>
      </trkpt>
      <trkpt lat="43.10349167" lon="-4.23257">
        <ele>1160.0</ele>
        <time>2018-05-19T15:00:00.476Z</time>
      </trkpt>
      <trkpt lat="43.10349167" lon="-4.23257">
        <ele>1160.0</ele>
        <time>2018-05-19T15:00:01.461Z</time>
      </trkpt>
      <trkpt lat="43.10352167" lon="-4.23261167">
        <ele>1160.0</ele>
        <time>2018-05-19T15:00:02.460Z</time>
      </trkpt>
      <trkpt lat="43.10352167" lon="-4.23261167">
        <ele>1160.0</ele>
        <time>2018-05-19T15:00:03.475Z</time>
      </trkpt>
      <trkpt lat="43.103555" lon="-4.23264333">
        <ele>1161.0</ele>
        <time>2018-05-19T15:00:04.473Z</time>
      </trkpt>
      <trkpt lat="43.103555" lon="-4.23264333">
        <ele>1161.0</ele>
        <time>2018-05-19T15:00:05.459Z</time>
      </trkpt>
      <trkpt lat="43.10358833" lon="-4.23267333">
        <ele>1161.0</ele>
        <time>2018-05-19T15:00:06.461Z</time>
      </trkpt>
      <trkpt lat="43.10358833" lon="-4.23267333">
        <ele>1161.0</ele>
        <time>2018-05-19T15:00:07.455Z</time>
      </trkpt>
      <trkpt lat="43.10362167" lon="-4.23269833">
        <ele>1162.0</ele>
        <time>2018-05-19T15:00:08.460Z</time>
      </trkpt>
      <trkpt lat="43.10362167" lon="-4.23269833">
        <ele>1162.0</ele>
        <time>2018-05-19T15:00:09.455Z</time>
      </trkpt>
      <trkpt lat="43.10365667" lon="-4.23272333">
        <ele>1162.0</ele>
        <time>2018-05-19T15:00:10.458Z</time>
      </trkpt>
      <trkpt lat="43.10365667" lon="-4.23272333">
        <ele>1162.0</ele>
        <time>2018-05-19T15:00:11.453Z</time>
      </trkpt>
      <trkpt lat="43.10369" lon="-4.23275">
        <ele>1162.0</ele>
        <time>2018-05-19T15:00:12.462Z</time>
      </trkpt>
      <trkpt lat="43.10369" lon="-4.23275">
        <ele>1162.0</ele>
        <time>2018-05-19T15:00:13.453Z</time>
      </trkpt>
      <trkpt lat="43.103725" lon="-4.23276833">
        <ele>1163.0</ele>
        <time>2018-05-19T15:00:14.462Z</time>
      </trkpt>
      <trkpt lat="43.103725" lon="-4.23276833">
        <ele>1163.0</ele>
        <time>2018-05-19T15:00:15.455Z</time>
      </trkpt>
      <trkpt lat="43.10375667" lon="-4.232785">
        <ele>1164.0</ele>
        <time>2018-05-19T15:00:16.459Z</time>
      </trkpt>
      <trkpt lat="43.10375667" lon="-4.232785">
        <ele>1164.0</ele>
        <time>2018-05-19T15:00:17.457Z</time>
      </trkpt>
      <trkpt lat="43.10379" lon="-4.23280667">
        <ele>1164.0</ele>
        <time>2018-05-19T15:00:18.460Z</time>
      </trkpt>
      <trkpt lat="43.10379" lon="-4.23280667">
        <ele>1164.0</ele>
        <time>2018-05-19T15:00:19.454Z</time>
      </trkpt>
      <trkpt lat="43.103825" lon="-4.23283167">
        <ele>1164.0</ele>
        <time>2018-05-19T15:00:20.460Z</time>
      </trkpt>
      <trkpt lat="43.103825" lon="-4.23283167">
        <ele>1164.0</ele>
        <time>2018-05-19T15:00:21.454Z</time>
      </trkpt>
      <trkpt lat="43.10385667" lon="-4.23286167">
        <ele>1165.0</ele>
        <time>2018-05-19T15:00:22.457Z</time>
      </trkpt>
      <trkpt lat="43.103875" lon="-4.23287333">
        <ele>1165.0</ele>
        <time>2018-05-19T15:00:23.460Z</time>
      </trkpt>
      <trkpt lat="43.10389" lon="-4.23288167">
        <ele>1165.0</ele>
        <time>2018-05-19T15:00:24.465Z</time>
      </trkpt>
      <trkpt lat="43.10389" lon="-4.23288167">
        <ele>1165.0</ele>
        <time>2018-05-19T15:00:25.455Z</time>
      </trkpt>
      <trkpt lat="43.10391667" lon="-4.232905">
        <ele>1165.0</ele>
        <time>2018-05-19T15:00:26.463Z</time>
      </trkpt>
      <trkpt lat="43.10391667" lon="-4.232905">
        <ele>1165.0</ele>
        <time>2018-05-19T15:00:27.453Z</time>
      </trkpt>
      <trkpt lat="43.10394667" lon="-4.23292833">
        <ele>1166.0</ele>
        <time>2018-05-19T15:00:28.456Z</time>
      </trkpt>
      <trkpt lat="43.10394667" lon="-4.23292833">
        <ele>1166.0</ele>
        <time>2018-05-19T15:00:29.454Z</time>
      </trkpt>
      <trkpt lat="43.10397833" lon="-4.23295333">
        <ele>1166.0</ele>
        <time>2018-05-19T15:00:30.461Z</time>
      </trkpt>
      <trkpt lat="43.10397833" lon="-4.23295333">
        <ele>1166.0</ele>
        <time>2018-05-19T15:00:31.455Z</time>
      </trkpt>
      <trkpt lat="43.10400833" lon="-4.23297833">
        <ele>1167.0</ele>
        <time>2018-05-19T15:00:32.460Z</time>
      </trkpt>
      <trkpt lat="43.10400833" lon="-4.23297833">
        <ele>1167.0</ele>
        <time>2018-05-19T15:00:33.454Z</time>
      </trkpt>
      <trkpt lat="43.10404167" lon="-4.233">
        <ele>1167.0</ele>
        <time>2018-05-19T15:00:34.464Z</time>
      </trkpt>
      <trkpt lat="43.10404167" lon="-4.233">
        <ele>1167.0</ele>
        <time>2018-05-19T15:00:35.455Z</time>
      </trkpt>
      <trkpt lat="43.104075" lon="-4.23302">
        <ele>1168.0</ele>
        <time>2018-05-19T15:00:36.461Z</time>
      </trkpt>
      <trkpt lat="43.10409333" lon="-4.23303167">
        <ele>1168.0</ele>
        <time>2018-05-19T15:00:37.460Z</time>
      </trkpt>
      <trkpt lat="43.10409333" lon="-4.23303167">
        <ele>1168.0</ele>
        <time>2018-05-19T15:00:38.457Z</time>
      </trkpt>
      <trkpt lat="43.10413" lon="-4.23305667">
        <ele>1168.0</ele>
        <time>2018-05-19T15:00:39.456Z</time>
      </trkpt>
      <trkpt lat="43.10415" lon="-4.23307">
        <ele>1168.0</ele>
        <time>2018-05-19T15:00:40.455Z</time>
      </trkpt>
      <trkpt lat="43.10415" lon="-4.23307">
        <ele>1168.0</ele>
        <time>2018-05-19T15:00:41.453Z</time>
      </trkpt>
      <trkpt lat="43.10418667" lon="-4.233095">
        <ele>1169.0</ele>
        <time>2018-05-19T15:00:42.480Z</time>
      </trkpt>
      <trkpt lat="43.10418667" lon="-4.233095">
        <ele>1169.0</ele>
        <time>2018-05-19T15:00:43.465Z</time>
      </trkpt>
      <trkpt lat="43.10422667" lon="-4.23312167">
        <ele>1169.0</ele>
        <time>2018-05-19T15:00:44.460Z</time>
      </trkpt>
      <trkpt lat="43.10422667" lon="-4.23312167">
        <ele>1169.0</ele>
        <time>2018-05-19T15:00:45.461Z</time>
      </trkpt>
      <trkpt lat="43.10426833" lon="-4.23314833">
        <ele>1169.0</ele>
        <time>2018-05-19T15:00:46.458Z</time>
      </trkpt>
      <trkpt lat="43.10426833" lon="-4.23314833">
        <ele>1169.0</ele>
        <time>2018-05-19T15:00:47.457Z</time>
      </trkpt>
      <trkpt lat="43.10431167" lon="-4.23317333">
        <ele>1169.0</ele>
        <time>2018-05-19T15:00:48.460Z</time>
      </trkpt>
      <trkpt lat="43.10431167" lon="-4.23317333">
        <ele>1169.0</ele>
        <time>2018-05-19T15:00:49.455Z</time>
      </trkpt>
      <trkpt lat="43.104355" lon="-4.23319667">
        <ele>1169.0</ele>
        <time>2018-05-19T15:00:50.459Z</time>
      </trkpt>
      <trkpt lat="43.104355" lon="-4.23319667">
        <ele>1169.0</ele>
        <time>2018-05-19T15:00:51.455Z</time>
      </trkpt>
      <trkpt lat="43.10439333" lon="-4.23322333">
        <ele>1169.0</ele>
        <time>2018-05-19T15:00:52.456Z</time>
      </trkpt>
      <trkpt lat="43.10441167" lon="-4.23323667">
        <ele>1169.0</ele>
        <time>2018-05-19T15:00:53.460Z</time>
      </trkpt>
      <trkpt lat="43.10443" lon="-4.23324667">
        <ele>1169.0</ele>
        <time>2018-05-19T15:00:54.461Z</time>
      </trkpt>
      <trkpt lat="43.10443" lon="-4.23324667">
        <ele>1169.0</ele>
        <time>2018-05-19T15:00:55.455Z</time>
      </trkpt>
      <trkpt lat="43.10446833" lon="-4.23326833">
        <ele>1170.0</ele>
        <time>2018-05-19T15:00:56.459Z</time>
      </trkpt>
      <trkpt lat="43.10446833" lon="-4.23326833">
        <ele>1170.0</ele>
        <time>2018-05-19T15:00:57.456Z</time>
      </trkpt>
      <trkpt lat="43.10450833" lon="-4.23328833">
        <ele>1170.0</ele>
        <time>2018-05-19T15:00:58.455Z</time>
      </trkpt>
      <trkpt lat="43.10450833" lon="-4.23328833">
        <ele>1170.0</ele>
        <time>2018-05-19T15:00:59.454Z</time>
      </trkpt>
      <trkpt lat="43.10455" lon="-4.23331167">
        <ele>1170.0</ele>
        <time>2018-05-19T15:01:00.460Z</time>
      </trkpt>
      <trkpt lat="43.10455" lon="-4.23331167">
        <ele>1170.0</ele>
        <time>2018-05-19T15:01:01.453Z</time>
      </trkpt>
      <trkpt lat="43.10459167" lon="-4.233335">
        <ele>1170.0</ele>
        <time>2018-05-19T15:01:02.460Z</time>
      </trkpt>
      <trkpt lat="43.10459167" lon="-4.233335">
        <ele>1170.0</ele>
        <time>2018-05-19T15:01:03.453Z</time>
      </trkpt>
      <trkpt lat="43.10463" lon="-4.23335167">
        <ele>1170.0</ele>
        <time>2018-05-19T15:01:04.456Z</time>
      </trkpt>
      <trkpt lat="43.10464833" lon="-4.23336">
        <ele>1171.0</ele>
        <time>2018-05-19T15:01:05.460Z</time>
      </trkpt>
      <trkpt lat="43.10464833" lon="-4.23336">
        <ele>1171.0</ele>
        <time>2018-05-19T15:01:06.454Z</time>
      </trkpt>
      <trkpt lat="43.10468833" lon="-4.23337833">
        <ele>1171.0</ele>
        <time>2018-05-19T15:01:07.480Z</time>
      </trkpt>
      <trkpt lat="43.10470833" lon="-4.23338167">
        <ele>1171.0</ele>
        <time>2018-05-19T15:01:08.469Z</time>
      </trkpt>
      <trkpt lat="43.10470833" lon="-4.23338167">
        <ele>1171.0</ele>
        <time>2018-05-19T15:01:09.455Z</time>
      </trkpt>
      <trkpt lat="43.10475167" lon="-4.23340167">
        <ele>1172.0</ele>
        <time>2018-05-19T15:01:10.455Z</time>
      </trkpt>
      <trkpt lat="43.10475167" lon="-4.23340167">
        <ele>1172.0</ele>
        <time>2018-05-19T15:01:11.454Z</time>
      </trkpt>
      <trkpt lat="43.10479167" lon="-4.23342">
        <ele>1172.0</ele>
        <time>2018-05-19T15:01:12.450Z</time>
      </trkpt>
      <trkpt lat="43.10479167" lon="-4.23342">
        <ele>1172.0</ele>
        <time>2018-05-19T15:01:13.475Z</time>
      </trkpt>
      <trkpt lat="43.10483167" lon="-4.23343">
        <ele>1172.0</ele>
        <time>2018-05-19T15:01:14.460Z</time>
      </trkpt>
      <trkpt lat="43.10483167" lon="-4.23343">
        <ele>1172.0</ele>
        <time>2018-05-19T15:01:15.455Z</time>
      </trkpt>
      <trkpt lat="43.10487333" lon="-4.23343167">
        <ele>1172.0</ele>
        <time>2018-05-19T15:01:16.456Z</time>
      </trkpt>
      <trkpt lat="43.10487333" lon="-4.23343167">
        <ele>1172.0</ele>
        <time>2018-05-19T15:01:17.461Z</time>
      </trkpt>
      <trkpt lat="43.10491333" lon="-4.233435">
        <ele>1172.0</ele>
        <time>2018-05-19T15:01:18.460Z</time>
      </trkpt>
      <trkpt lat="43.10491333" lon="-4.233435">
        <ele>1172.0</ele>
        <time>2018-05-19T15:01:19.453Z</time>
      </trkpt>
      <trkpt lat="43.104955" lon="-4.23344167">
        <ele>1173.0</ele>
        <time>2018-05-19T15:01:20.456Z</time>
      </trkpt>
      <trkpt lat="43.104955" lon="-4.23344167">
        <ele>1173.0</ele>
        <time>2018-05-19T15:01:21.456Z</time>
      </trkpt>
      <trkpt lat="43.105" lon="-4.23344833">
        <ele>1173.0</ele>
        <time>2018-05-19T15:01:22.456Z</time>
      </trkpt>
      <trkpt lat="43.105" lon="-4.23344833">
        <ele>1173.0</ele>
        <time>2018-05-19T15:01:23.483Z</time>
      </trkpt>
      <trkpt lat="43.10504333" lon="-4.23345333">
        <ele>1173.0</ele>
        <time>2018-05-19T15:01:24.476Z</time>
      </trkpt>
      <trkpt lat="43.10504333" lon="-4.23345333">
        <ele>1173.0</ele>
        <time>2018-05-19T15:01:25.464Z</time>
      </trkpt>
      <trkpt lat="43.10508667" lon="-4.23345833">
        <ele>1173.0</ele>
        <time>2018-05-19T15:01:26.460Z</time>
      </trkpt>
      <trkpt lat="43.10508667" lon="-4.23345833">
        <ele>1173.0</ele>
        <time>2018-05-19T15:01:27.454Z</time>
      </trkpt>
      <trkpt lat="43.105125" lon="-4.23345833">
        <ele>1173.0</ele>
        <time>2018-05-19T15:01:28.459Z</time>
      </trkpt>
      <trkpt lat="43.105125" lon="-4.23345833">
        <ele>1173.0</ele>
        <time>2018-05-19T15:01:29.455Z</time>
      </trkpt>
      <trkpt lat="43.10516667" lon="-4.23346">
        <ele>1174.0</ele>
        <time>2018-05-19T15:01:30.459Z</time>
      </trkpt>
      <trkpt lat="43.10516667" lon="-4.23346">
        <ele>1174.0</ele>
        <time>2018-05-19T15:01:31.454Z</time>
      </trkpt>
      <trkpt lat="43.105205" lon="-4.23346167">
        <ele>1174.0</ele>
        <time>2018-05-19T15:01:32.480Z</time>
      </trkpt>
      <trkpt lat="43.105205" lon="-4.23346167">
        <ele>1174.0</ele>
        <time>2018-05-19T15:01:33.477Z</time>
      </trkpt>
      <trkpt lat="43.10524333" lon="-4.23346333">
        <ele>1175.0</ele>
        <time>2018-05-19T15:01:34.465Z</time>
      </trkpt>
      <trkpt lat="43.10524333" lon="-4.23346333">
        <ele>1175.0</ele>
        <time>2018-05-19T15:01:35.461Z</time>
      </trkpt>
      <trkpt lat="43.10527833" lon="-4.23346333">
        <ele>1175.0</ele>
        <time>2018-05-19T15:01:36.459Z</time>
      </trkpt>
      <trkpt lat="43.10527833" lon="-4.23346333">
        <ele>1175.0</ele>
        <time>2018-05-19T15:01:37.454Z</time>
      </trkpt>
      <trkpt lat="43.10531667" lon="-4.23345833">
        <ele>1176.0</ele>
        <time>2018-05-19T15:01:38.459Z</time>
      </trkpt>
      <trkpt lat="43.10531667" lon="-4.23345833">
        <ele>1176.0</ele>
        <time>2018-05-19T15:01:39.456Z</time>
      </trkpt>
      <trkpt lat="43.105355" lon="-4.233455">
        <ele>1176.0</ele>
        <time>2018-05-19T15:01:40.455Z</time>
      </trkpt>
      <trkpt lat="43.105355" lon="-4.233455">
        <ele>1176.0</ele>
        <time>2018-05-19T15:01:41.450Z</time>
      </trkpt>
      <trkpt lat="43.10539167" lon="-4.23345167">
        <ele>1177.0</ele>
        <time>2018-05-19T15:01:42.477Z</time>
      </trkpt>
      <trkpt lat="43.10539167" lon="-4.23345167">
        <ele>1177.0</ele>
        <time>2018-05-19T15:01:43.462Z</time>
      </trkpt>
      <trkpt lat="43.10543167" lon="-4.23344667">
        <ele>1177.0</ele>
        <time>2018-05-19T15:01:44.460Z</time>
      </trkpt>
      <trkpt lat="43.10543167" lon="-4.23344667">
        <ele>1177.0</ele>
        <time>2018-05-19T15:01:45.458Z</time>
      </trkpt>
      <trkpt lat="43.10547167" lon="-4.23343667">
        <ele>1177.0</ele>
        <time>2018-05-19T15:01:46.455Z</time>
      </trkpt>
      <trkpt lat="43.10547167" lon="-4.23343667">
        <ele>1177.0</ele>
        <time>2018-05-19T15:01:47.455Z</time>
      </trkpt>
      <trkpt lat="43.10551" lon="-4.233425">
        <ele>1177.0</ele>
        <time>2018-05-19T15:01:48.458Z</time>
      </trkpt>
      <trkpt lat="43.10551" lon="-4.233425">
        <ele>1177.0</ele>
        <time>2018-05-19T15:01:49.453Z</time>
      </trkpt>
      <trkpt lat="43.10555167" lon="-4.23340833">
        <ele>1177.0</ele>
        <time>2018-05-19T15:01:50.459Z</time>
      </trkpt>
      <trkpt lat="43.10555167" lon="-4.23340833">
        <ele>1177.0</ele>
        <time>2018-05-19T15:01:51.479Z</time>
      </trkpt>
      <trkpt lat="43.10559333" lon="-4.2334">
        <ele>1177.0</ele>
        <time>2018-05-19T15:01:52.465Z</time>
      </trkpt>
      <trkpt lat="43.10559333" lon="-4.2334">
        <ele>1177.0</ele>
        <time>2018-05-19T15:01:53.456Z</time>
      </trkpt>
      <trkpt lat="43.10563667" lon="-4.233395">
        <ele>1177.0</ele>
        <time>2018-05-19T15:01:54.461Z</time>
      </trkpt>
      <trkpt lat="43.10563667" lon="-4.233395">
        <ele>1177.0</ele>
        <time>2018-05-19T15:01:55.484Z</time>
      </trkpt>
      <trkpt lat="43.10567667" lon="-4.23338">
        <ele>1177.0</ele>
        <time>2018-05-19T15:01:56.474Z</time>
      </trkpt>
      <trkpt lat="43.10567667" lon="-4.23338">
        <ele>1177.0</ele>
        <time>2018-05-19T15:01:57.458Z</time>
      </trkpt>
      <trkpt lat="43.10571833" lon="-4.233365">
        <ele>1177.0</ele>
        <time>2018-05-19T15:01:58.459Z</time>
      </trkpt>
      <trkpt lat="43.10574" lon="-4.23336">
        <ele>1178.0</ele>
        <time>2018-05-19T15:01:59.458Z</time>
      </trkpt>
      <trkpt lat="43.10576" lon="-4.233355">
        <ele>1178.0</ele>
        <time>2018-05-19T15:02:00.460Z</time>
      </trkpt>
      <trkpt lat="43.10576" lon="-4.233355">
        <ele>1178.0</ele>
        <time>2018-05-19T15:02:01.453Z</time>
      </trkpt>
      <trkpt lat="43.10580167" lon="-4.23334333">
        <ele>1178.0</ele>
        <time>2018-05-19T15:02:02.480Z</time>
      </trkpt>
      <trkpt lat="43.10580167" lon="-4.23334333">
        <ele>1178.0</ele>
        <time>2018-05-19T15:02:03.478Z</time>
      </trkpt>
      <trkpt lat="43.10584167" lon="-4.23333">
        <ele>1178.0</ele>
        <time>2018-05-19T15:02:04.465Z</time>
      </trkpt>
      <trkpt lat="43.10584167" lon="-4.23333">
        <ele>1178.0</ele>
        <time>2018-05-19T15:02:05.464Z</time>
      </trkpt>
      <trkpt lat="43.10588667" lon="-4.23332">
        <ele>1178.0</ele>
        <time>2018-05-19T15:02:06.459Z</time>
      </trkpt>
      <trkpt lat="43.10588667" lon="-4.23332">
        <ele>1178.0</ele>
        <time>2018-05-19T15:02:07.456Z</time>
      </trkpt>
      <trkpt lat="43.10593" lon="-4.23330167">
        <ele>1178.0</ele>
        <time>2018-05-19T15:02:08.459Z</time>
      </trkpt>
      <trkpt lat="43.10593" lon="-4.23330167">
        <ele>1178.0</ele>
        <time>2018-05-19T15:02:09.454Z</time>
      </trkpt>
      <trkpt lat="43.10597333" lon="-4.233285">
        <ele>1179.0</ele>
        <time>2018-05-19T15:02:10.460Z</time>
      </trkpt>
      <trkpt lat="43.10597333" lon="-4.233285">
        <ele>1179.0</ele>
        <time>2018-05-19T15:02:11.455Z</time>
      </trkpt>
      <trkpt lat="43.10601667" lon="-4.23326167">
        <ele>1179.0</ele>
        <time>2018-05-19T15:02:12.453Z</time>
      </trkpt>
      <trkpt lat="43.10601667" lon="-4.23326167">
        <ele>1179.0</ele>
        <time>2018-05-19T15:02:13.455Z</time>
      </trkpt>
      <trkpt lat="43.10606" lon="-4.23324667">
        <ele>1179.0</ele>
        <time>2018-05-19T15:02:14.460Z</time>
      </trkpt>
      <trkpt lat="43.10606" lon="-4.23324667">
        <ele>1179.0</ele>
        <time>2018-05-19T15:02:15.465Z</time>
      </trkpt>
      <trkpt lat="43.10610167" lon="-4.23324333">
        <ele>1180.0</ele>
        <time>2018-05-19T15:02:16.455Z</time>
      </trkpt>
      <trkpt lat="43.10610167" lon="-4.23324333">
        <ele>1180.0</ele>
        <time>2018-05-19T15:02:17.453Z</time>
      </trkpt>
      <trkpt lat="43.10614" lon="-4.23323667">
        <ele>1180.0</ele>
        <time>2018-05-19T15:02:18.456Z</time>
      </trkpt>
      <trkpt lat="43.10614" lon="-4.23323667">
        <ele>1180.0</ele>
        <time>2018-05-19T15:02:19.455Z</time>
      </trkpt>
      <trkpt lat="43.10617667" lon="-4.23323833">
        <ele>1181.0</ele>
        <time>2018-05-19T15:02:20.460Z</time>
      </trkpt>
      <trkpt lat="43.10617667" lon="-4.23323833">
        <ele>1181.0</ele>
        <time>2018-05-19T15:02:21.454Z</time>
      </trkpt>
      <trkpt lat="43.106215" lon="-4.23323">
        <ele>1181.0</ele>
        <time>2018-05-19T15:02:22.455Z</time>
      </trkpt>
      <trkpt lat="43.106235" lon="-4.23322833">
        <ele>1181.0</ele>
        <time>2018-05-19T15:02:23.458Z</time>
      </trkpt>
      <trkpt lat="43.10625167" lon="-4.23322667">
        <ele>1182.0</ele>
        <time>2018-05-19T15:02:24.460Z</time>
      </trkpt>
      <trkpt lat="43.10625167" lon="-4.23322667">
        <ele>1182.0</ele>
        <time>2018-05-19T15:02:25.465Z</time>
      </trkpt>
      <trkpt lat="43.10629" lon="-4.233215">
        <ele>1183.0</ele>
        <time>2018-05-19T15:02:26.459Z</time>
      </trkpt>
      <trkpt lat="43.10629" lon="-4.233215">
        <ele>1183.0</ele>
        <time>2018-05-19T15:02:27.456Z</time>
      </trkpt>
      <trkpt lat="43.10632833" lon="-4.2332">
        <ele>1183.0</ele>
        <time>2018-05-19T15:02:28.458Z</time>
      </trkpt>
      <trkpt lat="43.10632833" lon="-4.2332">
        <ele>1183.0</ele>
        <time>2018-05-19T15:02:29.456Z</time>
      </trkpt>
      <trkpt lat="43.10636667" lon="-4.23318167">
        <ele>1183.0</ele>
        <time>2018-05-19T15:02:30.458Z</time>
      </trkpt>
      <trkpt lat="43.10636667" lon="-4.23318167">
        <ele>1183.0</ele>
        <time>2018-05-19T15:02:31.455Z</time>
      </trkpt>
      <trkpt lat="43.106405" lon="-4.23317167">
        <ele>1183.0</ele>
        <time>2018-05-19T15:02:32.479Z</time>
      </trkpt>
      <trkpt lat="43.106405" lon="-4.23317167">
        <ele>1183.0</ele>
        <time>2018-05-19T15:02:33.461Z</time>
      </trkpt>
      <trkpt lat="43.10644333" lon="-4.23316167">
        <ele>1183.0</ele>
        <time>2018-05-19T15:02:34.457Z</time>
      </trkpt>
      <trkpt lat="43.10646167" lon="-4.23315667">
        <ele>1183.0</ele>
        <time>2018-05-19T15:02:35.461Z</time>
      </trkpt>
      <trkpt lat="43.10646167" lon="-4.23315667">
        <ele>1183.0</ele>
        <time>2018-05-19T15:02:36.455Z</time>
      </trkpt>
      <trkpt lat="43.1065" lon="-4.23314833">
        <ele>1184.0</ele>
        <time>2018-05-19T15:02:37.459Z</time>
      </trkpt>
      <trkpt lat="43.10652" lon="-4.23315">
        <ele>1184.0</ele>
        <time>2018-05-19T15:02:38.460Z</time>
      </trkpt>
      <trkpt lat="43.10652" lon="-4.23315">
        <ele>1184.0</ele>
        <time>2018-05-19T15:02:39.450Z</time>
      </trkpt>
      <trkpt lat="43.10656" lon="-4.23314833">
        <ele>1184.0</ele>
        <time>2018-05-19T15:02:40.457Z</time>
      </trkpt>
      <trkpt lat="43.10656" lon="-4.23314833">
        <ele>1184.0</ele>
        <time>2018-05-19T15:02:41.454Z</time>
      </trkpt>
      <trkpt lat="43.10659833" lon="-4.23314167">
        <ele>1185.0</ele>
        <time>2018-05-19T15:02:42.460Z</time>
      </trkpt>
      <trkpt lat="43.10659833" lon="-4.23314167">
        <ele>1185.0</ele>
        <time>2018-05-19T15:02:43.453Z</time>
      </trkpt>
      <trkpt lat="43.10663667" lon="-4.233135">
        <ele>1185.0</ele>
        <time>2018-05-19T15:02:44.459Z</time>
      </trkpt>
      <trkpt lat="43.10663667" lon="-4.233135">
        <ele>1185.0</ele>
        <time>2018-05-19T15:02:45.486Z</time>
      </trkpt>
      <trkpt lat="43.10667" lon="-4.23312833">
        <ele>1185.0</ele>
        <time>2018-05-19T15:02:46.474Z</time>
      </trkpt>
      <trkpt lat="43.10668833" lon="-4.23312667">
        <ele>1185.0</ele>
        <time>2018-05-19T15:02:47.459Z</time>
      </trkpt>
      <trkpt lat="43.10670667" lon="-4.23312667">
        <ele>1186.0</ele>
        <time>2018-05-19T15:02:48.461Z</time>
      </trkpt>
      <trkpt lat="43.10670667" lon="-4.23312667">
        <ele>1186.0</ele>
        <time>2018-05-19T15:02:49.456Z</time>
      </trkpt>
      <trkpt lat="43.106745" lon="-4.23312167">
        <ele>1186.0</ele>
        <time>2018-05-19T15:02:50.456Z</time>
      </trkpt>
      <trkpt lat="43.106745" lon="-4.23312167">
        <ele>1186.0</ele>
        <time>2018-05-19T15:02:51.456Z</time>
      </trkpt>
      <trkpt lat="43.10678667" lon="-4.233125">
        <ele>1187.0</ele>
        <time>2018-05-19T15:02:52.458Z</time>
      </trkpt>
      <trkpt lat="43.10680667" lon="-4.23312833">
        <ele>1187.0</ele>
        <time>2018-05-19T15:02:53.459Z</time>
      </trkpt>
      <trkpt lat="43.10683167" lon="-4.23312667">
        <ele>1187.0</ele>
        <time>2018-05-19T15:02:54.459Z</time>
      </trkpt>
      <trkpt lat="43.10683167" lon="-4.23312667">
        <ele>1187.0</ele>
        <time>2018-05-19T15:02:55.461Z</time>
      </trkpt>
      <trkpt lat="43.10688" lon="-4.23312167">
        <ele>1187.0</ele>
        <time>2018-05-19T15:02:56.460Z</time>
      </trkpt>
      <trkpt lat="43.10688" lon="-4.23312167">
        <ele>1187.0</ele>
        <time>2018-05-19T15:02:57.455Z</time>
      </trkpt>
      <trkpt lat="43.106925" lon="-4.23312333">
        <ele>1187.0</ele>
        <time>2018-05-19T15:02:58.456Z</time>
      </trkpt>
      <trkpt lat="43.106925" lon="-4.23312333">
        <ele>1187.0</ele>
        <time>2018-05-19T15:02:59.455Z</time>
      </trkpt>
      <trkpt lat="43.10697667" lon="-4.23312333">
        <ele>1187.0</ele>
        <time>2018-05-19T15:03:00.459Z</time>
      </trkpt>
      <trkpt lat="43.10697667" lon="-4.23312333">
        <ele>1187.0</ele>
        <time>2018-05-19T15:03:01.450Z</time>
      </trkpt>
      <trkpt lat="43.10702833" lon="-4.23312">
        <ele>1187.0</ele>
        <time>2018-05-19T15:03:02.458Z</time>
      </trkpt>
      <trkpt lat="43.10702833" lon="-4.23312">
        <ele>1187.0</ele>
        <time>2018-05-19T15:03:03.454Z</time>
      </trkpt>
      <trkpt lat="43.10708833" lon="-4.233125">
        <ele>1187.0</ele>
        <time>2018-05-19T15:03:04.457Z</time>
      </trkpt>
      <trkpt lat="43.10708833" lon="-4.233125">
        <ele>1187.0</ele>
        <time>2018-05-19T15:03:05.455Z</time>
      </trkpt>
      <trkpt lat="43.10714833" lon="-4.23314667">
        <ele>1187.0</ele>
        <time>2018-05-19T15:03:06.480Z</time>
      </trkpt>
      <trkpt lat="43.10714833" lon="-4.23314667">
        <ele>1187.0</ele>
        <time>2018-05-19T15:03:07.463Z</time>
      </trkpt>
      <trkpt lat="43.10720833" lon="-4.23317">
        <ele>1187.0</ele>
        <time>2018-05-19T15:03:08.455Z</time>
      </trkpt>
      <trkpt lat="43.10720833" lon="-4.23317">
        <ele>1187.0</ele>
        <time>2018-05-19T15:03:09.455Z</time>
      </trkpt>
      <trkpt lat="43.10726333" lon="-4.23319833">
        <ele>1187.0</ele>
        <time>2018-05-19T15:03:10.458Z</time>
      </trkpt>
      <trkpt lat="43.10726333" lon="-4.23319833">
        <ele>1187.0</ele>
        <time>2018-05-19T15:03:11.455Z</time>
      </trkpt>
      <trkpt lat="43.107315" lon="-4.23322833">
        <ele>1187.0</ele>
        <time>2018-05-19T15:03:12.476Z</time>
      </trkpt>
      <trkpt lat="43.107315" lon="-4.23322833">
        <ele>1187.0</ele>
        <time>2018-05-19T15:03:13.462Z</time>
      </trkpt>
      <trkpt lat="43.10737" lon="-4.23326167">
        <ele>1187.0</ele>
        <time>2018-05-19T15:03:14.459Z</time>
      </trkpt>
      <trkpt lat="43.10737" lon="-4.23326167">
        <ele>1187.0</ele>
        <time>2018-05-19T15:03:15.461Z</time>
      </trkpt>
      <trkpt lat="43.10743" lon="-4.23328167">
        <ele>1187.0</ele>
        <time>2018-05-19T15:03:16.457Z</time>
      </trkpt>
      <trkpt lat="43.10746" lon="-4.23329">
        <ele>1187.0</ele>
        <time>2018-05-19T15:03:17.455Z</time>
      </trkpt>
      <trkpt lat="43.10746" lon="-4.23329">
        <ele>1187.0</ele>
        <time>2018-05-19T15:03:18.453Z</time>
      </trkpt>
      <trkpt lat="43.107515" lon="-4.23331167">
        <ele>1187.0</ele>
        <time>2018-05-19T15:03:19.458Z</time>
      </trkpt>
      <trkpt lat="43.10754333" lon="-4.23332333">
        <ele>1187.0</ele>
        <time>2018-05-19T15:03:20.458Z</time>
      </trkpt>
      <trkpt lat="43.10754333" lon="-4.23332333">
        <ele>1187.0</ele>
        <time>2018-05-19T15:03:21.450Z</time>
      </trkpt>
      <trkpt lat="43.1076" lon="-4.23334667">
        <ele>1187.0</ele>
        <time>2018-05-19T15:03:22.478Z</time>
      </trkpt>
      <trkpt lat="43.1076" lon="-4.23334667">
        <ele>1187.0</ele>
        <time>2018-05-19T15:03:23.469Z</time>
      </trkpt>
      <trkpt lat="43.107655" lon="-4.23337333">
        <ele>1187.0</ele>
        <time>2018-05-19T15:03:24.460Z</time>
      </trkpt>
      <trkpt lat="43.107655" lon="-4.23337333">
        <ele>1187.0</ele>
        <time>2018-05-19T15:03:25.455Z</time>
      </trkpt>
      <trkpt lat="43.10771167" lon="-4.23339833">
        <ele>1187.0</ele>
        <time>2018-05-19T15:03:26.450Z</time>
      </trkpt>
      <trkpt lat="43.10773833" lon="-4.233415">
        <ele>1187.0</ele>
        <time>2018-05-19T15:03:27.480Z</time>
      </trkpt>
      <trkpt lat="43.107765" lon="-4.23343">
        <ele>1187.0</ele>
        <time>2018-05-19T15:03:28.466Z</time>
      </trkpt>
      <trkpt lat="43.107765" lon="-4.23343">
        <ele>1187.0</ele>
        <time>2018-05-19T15:03:29.455Z</time>
      </trkpt>
      <trkpt lat="43.10782" lon="-4.23346167">
        <ele>1188.0</ele>
        <time>2018-05-19T15:03:30.474Z</time>
      </trkpt>
      <trkpt lat="43.10782" lon="-4.23346167">
        <ele>1188.0</ele>
        <time>2018-05-19T15:03:31.458Z</time>
      </trkpt>
      <trkpt lat="43.10787167" lon="-4.23348833">
        <ele>1188.0</ele>
        <time>2018-05-19T15:03:32.460Z</time>
      </trkpt>
      <trkpt lat="43.10787167" lon="-4.23348833">
        <ele>1188.0</ele>
        <time>2018-05-19T15:03:33.455Z</time>
      </trkpt>
      <trkpt lat="43.10792833" lon="-4.23351667">
        <ele>1188.0</ele>
        <time>2018-05-19T15:03:34.457Z</time>
      </trkpt>
      <trkpt lat="43.10792833" lon="-4.23351667">
        <ele>1188.0</ele>
        <time>2018-05-19T15:03:35.455Z</time>
      </trkpt>
      <trkpt lat="43.10798167" lon="-4.23355">
        <ele>1188.0</ele>
        <time>2018-05-19T15:03:36.485Z</time>
      </trkpt>
      <trkpt lat="43.10798167" lon="-4.23355">
        <ele>1188.0</ele>
        <time>2018-05-19T15:03:37.467Z</time>
      </trkpt>
      <trkpt lat="43.10804333" lon="-4.23358833">
        <ele>1188.0</ele>
        <time>2018-05-19T15:03:38.458Z</time>
      </trkpt>
      <trkpt lat="43.10807167" lon="-4.2336">
        <ele>1188.0</ele>
        <time>2018-05-19T15:03:39.458Z</time>
      </trkpt>
      <trkpt lat="43.10807167" lon="-4.2336">
        <ele>1188.0</ele>
        <time>2018-05-19T15:03:40.456Z</time>
      </trkpt>
      <trkpt lat="43.10812667" lon="-4.233625">
        <ele>1188.0</ele>
        <time>2018-05-19T15:03:41.456Z</time>
      </trkpt>
      <trkpt lat="43.10815333" lon="-4.23363833">
        <ele>1188.0</ele>
        <time>2018-05-19T15:03:42.460Z</time>
      </trkpt>
      <trkpt lat="43.10815333" lon="-4.23363833">
        <ele>1188.0</ele>
        <time>2018-05-19T15:03:43.453Z</time>
      </trkpt>
      <trkpt lat="43.10820833" lon="-4.23367">
        <ele>1188.0</ele>
        <time>2018-05-19T15:03:44.459Z</time>
      </trkpt>
      <trkpt lat="43.10820833" lon="-4.23367">
        <ele>1188.0</ele>
        <time>2018-05-19T15:03:45.461Z</time>
      </trkpt>
      <trkpt lat="43.10825333" lon="-4.23369833">
        <ele>1189.0</ele>
        <time>2018-05-19T15:03:46.461Z</time>
      </trkpt>
      <trkpt lat="43.10825333" lon="-4.23369833">
        <ele>1189.0</ele>
        <time>2018-05-19T15:03:47.455Z</time>
      </trkpt>
      <trkpt lat="43.10829667" lon="-4.233725">
        <ele>1189.0</ele>
        <time>2018-05-19T15:03:48.461Z</time>
      </trkpt>
      <trkpt lat="43.10829667" lon="-4.233725">
        <ele>1189.0</ele>
        <time>2018-05-19T15:03:49.455Z</time>
      </trkpt>
      <trkpt lat="43.10834333" lon="-4.23375167">
        <ele>1190.0</ele>
        <time>2018-05-19T15:03:50.459Z</time>
      </trkpt>
      <trkpt lat="43.10834333" lon="-4.23375167">
        <ele>1190.0</ele>
        <time>2018-05-19T15:03:51.455Z</time>
      </trkpt>
      <trkpt lat="43.10838667" lon="-4.23377333">
        <ele>1191.0</ele>
        <time>2018-05-19T15:03:52.458Z</time>
      </trkpt>
      <trkpt lat="43.10840667" lon="-4.233785">
        <ele>1191.0</ele>
        <time>2018-05-19T15:03:53.456Z</time>
      </trkpt>
      <trkpt lat="43.10840667" lon="-4.233785">
        <ele>1191.0</ele>
        <time>2018-05-19T15:03:54.454Z</time>
      </trkpt>
      <trkpt lat="43.10844667" lon="-4.23380667">
        <ele>1192.0</ele>
        <time>2018-05-19T15:03:55.458Z</time>
      </trkpt>
      <trkpt lat="43.10846667" lon="-4.23381667">
        <ele>1192.0</ele>
        <time>2018-05-19T15:03:56.462Z</time>
      </trkpt>
      <trkpt lat="43.10846667" lon="-4.23381667">
        <ele>1192.0</ele>
        <time>2018-05-19T15:03:57.453Z</time>
      </trkpt>
      <trkpt lat="43.10850667" lon="-4.233835">
        <ele>1192.0</ele>
        <time>2018-05-19T15:03:58.458Z</time>
      </trkpt>
      <trkpt lat="43.10852667" lon="-4.233845">
        <ele>1193.0</ele>
        <time>2018-05-19T15:03:59.458Z</time>
      </trkpt>
      <trkpt lat="43.10854667" lon="-4.233855">
        <ele>1193.0</ele>
        <time>2018-05-19T15:04:00.459Z</time>
      </trkpt>
      <trkpt lat="43.10854667" lon="-4.233855">
        <ele>1193.0</ele>
        <time>2018-05-19T15:04:01.454Z</time>
      </trkpt>
      <trkpt lat="43.10858667" lon="-4.23387333">
        <ele>1194.0</ele>
        <time>2018-05-19T15:04:02.458Z</time>
      </trkpt>
      <trkpt lat="43.10858667" lon="-4.23387333">
        <ele>1194.0</ele>
        <time>2018-05-19T15:04:03.453Z</time>
      </trkpt>
      <trkpt lat="43.10862667" lon="-4.23389833">
        <ele>1194.0</ele>
        <time>2018-05-19T15:04:04.458Z</time>
      </trkpt>
      <trkpt lat="43.10862667" lon="-4.23389833">
        <ele>1194.0</ele>
        <time>2018-05-19T15:04:05.454Z</time>
      </trkpt>
      <trkpt lat="43.10867" lon="-4.23390667">
        <ele>1194.0</ele>
        <time>2018-05-19T15:04:06.459Z</time>
      </trkpt>
      <trkpt lat="43.10867" lon="-4.23390667">
        <ele>1194.0</ele>
        <time>2018-05-19T15:04:07.455Z</time>
      </trkpt>
      <trkpt lat="43.10871167" lon="-4.23392667">
        <ele>1194.0</ele>
        <time>2018-05-19T15:04:08.460Z</time>
      </trkpt>
      <trkpt lat="43.10871167" lon="-4.23392667">
        <ele>1194.0</ele>
        <time>2018-05-19T15:04:09.452Z</time>
      </trkpt>
      <trkpt lat="43.10875167" lon="-4.23396">
        <ele>1194.0</ele>
        <time>2018-05-19T15:04:10.465Z</time>
      </trkpt>
      <trkpt lat="43.10875167" lon="-4.23396">
        <ele>1194.0</ele>
        <time>2018-05-19T15:04:11.455Z</time>
      </trkpt>
      <trkpt lat="43.10879167" lon="-4.23398">
        <ele>1194.0</ele>
        <time>2018-05-19T15:04:12.487Z</time>
      </trkpt>
      <trkpt lat="43.10879167" lon="-4.23398">
        <ele>1194.0</ele>
        <time>2018-05-19T15:04:13.473Z</time>
      </trkpt>
      <trkpt lat="43.10883167" lon="-4.23400333">
        <ele>1195.0</ele>
        <time>2018-05-19T15:04:14.460Z</time>
      </trkpt>
      <trkpt lat="43.10883167" lon="-4.23400333">
        <ele>1195.0</ele>
        <time>2018-05-19T15:04:15.455Z</time>
      </trkpt>
      <trkpt lat="43.10886667" lon="-4.234035">
        <ele>1195.0</ele>
        <time>2018-05-19T15:04:16.477Z</time>
      </trkpt>
      <trkpt lat="43.10886667" lon="-4.234035">
        <ele>1195.0</ele>
        <time>2018-05-19T15:04:17.456Z</time>
      </trkpt>
      <trkpt lat="43.10890167" lon="-4.23406167">
        <ele>1196.0</ele>
        <time>2018-05-19T15:04:18.458Z</time>
      </trkpt>
      <trkpt lat="43.10890167" lon="-4.23406167">
        <ele>1196.0</ele>
        <time>2018-05-19T15:04:19.453Z</time>
      </trkpt>
      <trkpt lat="43.10894" lon="-4.23409333">
        <ele>1196.0</ele>
        <time>2018-05-19T15:04:20.459Z</time>
      </trkpt>
      <trkpt lat="43.10894" lon="-4.23409333">
        <ele>1196.0</ele>
        <time>2018-05-19T15:04:21.453Z</time>
      </trkpt>
      <trkpt lat="43.10897833" lon="-4.23411833">
        <ele>1196.0</ele>
        <time>2018-05-19T15:04:22.456Z</time>
      </trkpt>
      <trkpt lat="43.10897833" lon="-4.23411833">
        <ele>1196.0</ele>
        <time>2018-05-19T15:04:23.452Z</time>
      </trkpt>
      <trkpt lat="43.10901167" lon="-4.23414833">
        <ele>1197.0</ele>
        <time>2018-05-19T15:04:24.460Z</time>
      </trkpt>
      <trkpt lat="43.10902833" lon="-4.23416167">
        <ele>1197.0</ele>
        <time>2018-05-19T15:04:25.466Z</time>
      </trkpt>
      <trkpt lat="43.10904667" lon="-4.23417333">
        <ele>1197.0</ele>
        <time>2018-05-19T15:04:26.458Z</time>
      </trkpt>
      <trkpt lat="43.10904667" lon="-4.23417333">
        <ele>1197.0</ele>
        <time>2018-05-19T15:04:27.473Z</time>
      </trkpt>
      <trkpt lat="43.10908333" lon="-4.23419">
        <ele>1197.0</ele>
        <time>2018-05-19T15:04:28.458Z</time>
      </trkpt>
      <trkpt lat="43.10908333" lon="-4.23419">
        <ele>1197.0</ele>
        <time>2018-05-19T15:04:29.454Z</time>
      </trkpt>
      <trkpt lat="43.10911833" lon="-4.23421667">
        <ele>1197.0</ele>
        <time>2018-05-19T15:04:30.459Z</time>
      </trkpt>
      <trkpt lat="43.10911833" lon="-4.23421667">
        <ele>1197.0</ele>
        <time>2018-05-19T15:04:31.453Z</time>
      </trkpt>
      <trkpt lat="43.10914667" lon="-4.23424833">
        <ele>1197.0</ele>
        <time>2018-05-19T15:04:32.461Z</time>
      </trkpt>
      <trkpt lat="43.10914667" lon="-4.23424833">
        <ele>1197.0</ele>
        <time>2018-05-19T15:04:33.455Z</time>
      </trkpt>
      <trkpt lat="43.10917333" lon="-4.23428667">
        <ele>1197.0</ele>
        <time>2018-05-19T15:04:34.456Z</time>
      </trkpt>
      <trkpt lat="43.10918667" lon="-4.234305">
        <ele>1197.0</ele>
        <time>2018-05-19T15:04:35.455Z</time>
      </trkpt>
      <trkpt lat="43.10919667" lon="-4.234325">
        <ele>1197.0</ele>
        <time>2018-05-19T15:04:36.462Z</time>
      </trkpt>
      <trkpt lat="43.10919667" lon="-4.234325">
        <ele>1197.0</ele>
        <time>2018-05-19T15:04:37.453Z</time>
      </trkpt>
      <trkpt lat="43.10921333" lon="-4.23437333">
        <ele>1198.0</ele>
        <time>2018-05-19T15:04:38.459Z</time>
      </trkpt>
      <trkpt lat="43.10921333" lon="-4.23437333">
        <ele>1198.0</ele>
        <time>2018-05-19T15:04:39.456Z</time>
      </trkpt>
      <trkpt lat="43.10923333" lon="-4.23441833">
        <ele>1198.0</ele>
        <time>2018-05-19T15:04:40.458Z</time>
      </trkpt>
      <trkpt lat="43.10924667" lon="-4.23443667">
        <ele>1198.0</ele>
        <time>2018-05-19T15:04:41.457Z</time>
      </trkpt>
      <trkpt lat="43.10924667" lon="-4.23443667">
        <ele>1198.0</ele>
        <time>2018-05-19T15:04:42.457Z</time>
      </trkpt>
      <trkpt lat="43.10927333" lon="-4.23447167">
        <ele>1199.0</ele>
        <time>2018-05-19T15:04:43.456Z</time>
      </trkpt>
      <trkpt lat="43.10928667" lon="-4.23449">
        <ele>1199.0</ele>
        <time>2018-05-19T15:04:44.460Z</time>
      </trkpt>
      <trkpt lat="43.10928667" lon="-4.23449">
        <ele>1199.0</ele>
        <time>2018-05-19T15:04:45.455Z</time>
      </trkpt>
      <trkpt lat="43.10931" lon="-4.23452667">
        <ele>1200.0</ele>
        <time>2018-05-19T15:04:46.457Z</time>
      </trkpt>
      <trkpt lat="43.10931" lon="-4.23452667">
        <ele>1200.0</ele>
        <time>2018-05-19T15:04:47.457Z</time>
      </trkpt>
      <trkpt lat="43.109335" lon="-4.23456333">
        <ele>1201.0</ele>
        <time>2018-05-19T15:04:48.456Z</time>
      </trkpt>
      <trkpt lat="43.109335" lon="-4.23456333">
        <ele>1201.0</ele>
        <time>2018-05-19T15:04:49.453Z</time>
      </trkpt>
      <trkpt lat="43.10936667" lon="-4.23459333">
        <ele>1202.0</ele>
        <time>2018-05-19T15:04:50.458Z</time>
      </trkpt>
      <trkpt lat="43.10936667" lon="-4.23459333">
        <ele>1202.0</ele>
        <time>2018-05-19T15:04:51.454Z</time>
      </trkpt>
      <trkpt lat="43.10939333" lon="-4.23462">
        <ele>1203.0</ele>
        <time>2018-05-19T15:04:52.459Z</time>
      </trkpt>
      <trkpt lat="43.10939333" lon="-4.23462">
        <ele>1203.0</ele>
        <time>2018-05-19T15:04:53.455Z</time>
      </trkpt>
      <trkpt lat="43.10941667" lon="-4.23465667">
        <ele>1204.0</ele>
        <time>2018-05-19T15:04:54.459Z</time>
      </trkpt>
      <trkpt lat="43.10941667" lon="-4.23465667">
        <ele>1204.0</ele>
        <time>2018-05-19T15:04:55.462Z</time>
      </trkpt>
      <trkpt lat="43.10943333" lon="-4.23469167">
        <ele>1205.0</ele>
        <time>2018-05-19T15:04:56.458Z</time>
      </trkpt>
      <trkpt lat="43.10943333" lon="-4.23469167">
        <ele>1205.0</ele>
        <time>2018-05-19T15:04:57.454Z</time>
      </trkpt>
      <trkpt lat="43.10944833" lon="-4.23472333">
        <ele>1205.0</ele>
        <time>2018-05-19T15:04:58.457Z</time>
      </trkpt>
      <trkpt lat="43.109455" lon="-4.23474">
        <ele>1206.0</ele>
        <time>2018-05-19T15:04:59.455Z</time>
      </trkpt>
      <trkpt lat="43.10946" lon="-4.23475667">
        <ele>1206.0</ele>
        <time>2018-05-19T15:05:00.456Z</time>
      </trkpt>
      <trkpt lat="43.10946" lon="-4.23475667">
        <ele>1206.0</ele>
        <time>2018-05-19T15:05:01.455Z</time>
      </trkpt>
      <trkpt lat="43.10947333" lon="-4.23478167">
        <ele>1207.0</ele>
        <time>2018-05-19T15:05:02.458Z</time>
      </trkpt>
      <trkpt lat="43.10947333" lon="-4.23478167">
        <ele>1207.0</ele>
        <time>2018-05-19T15:05:03.452Z</time>
      </trkpt>
      <trkpt lat="43.109485" lon="-4.23481667">
        <ele>1207.0</ele>
        <time>2018-05-19T15:05:04.458Z</time>
      </trkpt>
      <trkpt lat="43.109485" lon="-4.23481667">
        <ele>1207.0</ele>
        <time>2018-05-19T15:05:05.462Z</time>
      </trkpt>
      <trkpt lat="43.1095" lon="-4.23485833">
        <ele>1207.0</ele>
        <time>2018-05-19T15:05:06.457Z</time>
      </trkpt>
      <trkpt lat="43.1095" lon="-4.23485833">
        <ele>1207.0</ele>
        <time>2018-05-19T15:05:07.452Z</time>
      </trkpt>
      <trkpt lat="43.10952" lon="-4.23491167">
        <ele>1208.0</ele>
        <time>2018-05-19T15:05:08.455Z</time>
      </trkpt>
      <trkpt lat="43.10952" lon="-4.23491167">
        <ele>1208.0</ele>
        <time>2018-05-19T15:05:09.455Z</time>
      </trkpt>
      <trkpt lat="43.10953667" lon="-4.234965">
        <ele>1208.0</ele>
        <time>2018-05-19T15:05:10.457Z</time>
      </trkpt>
      <trkpt lat="43.10953667" lon="-4.234965">
        <ele>1208.0</ele>
        <time>2018-05-19T15:05:11.452Z</time>
      </trkpt>
      <trkpt lat="43.10956" lon="-4.23502167">
        <ele>1208.0</ele>
        <time>2018-05-19T15:05:12.464Z</time>
      </trkpt>
      <trkpt lat="43.10956" lon="-4.23502167">
        <ele>1208.0</ele>
        <time>2018-05-19T15:05:13.455Z</time>
      </trkpt>
      <trkpt lat="43.10959" lon="-4.23508167">
        <ele>1209.0</ele>
        <time>2018-05-19T15:05:14.454Z</time>
      </trkpt>
      <trkpt lat="43.10959" lon="-4.23508167">
        <ele>1209.0</ele>
        <time>2018-05-19T15:05:15.462Z</time>
      </trkpt>
      <trkpt lat="43.10962" lon="-4.23514833">
        <ele>1208.0</ele>
        <time>2018-05-19T15:05:16.456Z</time>
      </trkpt>
      <trkpt lat="43.10962" lon="-4.23514833">
        <ele>1208.0</ele>
        <time>2018-05-19T15:05:17.448Z</time>
      </trkpt>
      <trkpt lat="43.10965667" lon="-4.23522">
        <ele>1208.0</ele>
        <time>2018-05-19T15:05:18.475Z</time>
      </trkpt>
      <trkpt lat="43.10965667" lon="-4.23522">
        <ele>1208.0</ele>
        <time>2018-05-19T15:05:19.457Z</time>
      </trkpt>
      <trkpt lat="43.10969" lon="-4.23528667">
        <ele>1209.0</ele>
        <time>2018-05-19T15:05:20.457Z</time>
      </trkpt>
      <trkpt lat="43.10969" lon="-4.23528667">
        <ele>1209.0</ele>
        <time>2018-05-19T15:05:21.455Z</time>
      </trkpt>
      <trkpt lat="43.10972167" lon="-4.235355">
        <ele>1209.0</ele>
        <time>2018-05-19T15:05:22.454Z</time>
      </trkpt>
      <trkpt lat="43.10972167" lon="-4.235355">
        <ele>1209.0</ele>
        <time>2018-05-19T15:05:23.449Z</time>
      </trkpt>
      <trkpt lat="43.109755" lon="-4.23542667">
        <ele>1208.0</ele>
        <time>2018-05-19T15:05:24.459Z</time>
      </trkpt>
      <trkpt lat="43.109755" lon="-4.23542667">
        <ele>1208.0</ele>
        <time>2018-05-19T15:05:25.462Z</time>
      </trkpt>
      <trkpt lat="43.10979333" lon="-4.23551833">
        <ele>1207.0</ele>
        <time>2018-05-19T15:05:26.460Z</time>
      </trkpt>
      <trkpt lat="43.10979333" lon="-4.23551833">
        <ele>1207.0</ele>
        <time>2018-05-19T15:05:27.462Z</time>
      </trkpt>
      <trkpt lat="43.10984" lon="-4.23562833">
        <ele>1206.0</ele>
        <time>2018-05-19T15:05:28.459Z</time>
      </trkpt>
      <trkpt lat="43.10984" lon="-4.23562833">
        <ele>1206.0</ele>
        <time>2018-05-19T15:05:29.454Z</time>
      </trkpt>
      <trkpt lat="43.10989167" lon="-4.23575">
        <ele>1205.0</ele>
        <time>2018-05-19T15:05:30.458Z</time>
      </trkpt>
      <trkpt lat="43.10989167" lon="-4.23575">
        <ele>1205.0</ele>
        <time>2018-05-19T15:05:31.453Z</time>
      </trkpt>
      <trkpt lat="43.10994833" lon="-4.23588833">
        <ele>1205.0</ele>
        <time>2018-05-19T15:05:32.486Z</time>
      </trkpt>
      <trkpt lat="43.10994833" lon="-4.23588833">
        <ele>1205.0</ele>
        <time>2018-05-19T15:05:33.480Z</time>
      </trkpt>
      <trkpt lat="43.11000333" lon="-4.236045">
        <ele>1204.0</ele>
        <time>2018-05-19T15:05:34.467Z</time>
      </trkpt>
      <trkpt lat="43.11000333" lon="-4.236045">
        <ele>1204.0</ele>
        <time>2018-05-19T15:05:35.455Z</time>
      </trkpt>
      <trkpt lat="43.11005333" lon="-4.23621333">
        <ele>1204.0</ele>
        <time>2018-05-19T15:05:36.460Z</time>
      </trkpt>
      <trkpt lat="43.11005333" lon="-4.23621333">
        <ele>1204.0</ele>
        <time>2018-05-19T15:05:37.467Z</time>
      </trkpt>
      <trkpt lat="43.11011167" lon="-4.236375">
        <ele>1204.0</ele>
        <time>2018-05-19T15:05:38.458Z</time>
      </trkpt>
      <trkpt lat="43.11011167" lon="-4.236375">
        <ele>1204.0</ele>
        <time>2018-05-19T15:05:39.455Z</time>
      </trkpt>
      <trkpt lat="43.11017333" lon="-4.23650833">
        <ele>1205.0</ele>
        <time>2018-05-19T15:05:40.457Z</time>
      </trkpt>
      <trkpt lat="43.110205" lon="-4.23656">
        <ele>1205.0</ele>
        <time>2018-05-19T15:05:41.454Z</time>
      </trkpt>
      <trkpt lat="43.110205" lon="-4.23656">
        <ele>1205.0</ele>
        <time>2018-05-19T15:05:42.487Z</time>
      </trkpt>
      <trkpt lat="43.11026167" lon="-4.23663667">
        <ele>1206.0</ele>
        <time>2018-05-19T15:05:43.473Z</time>
      </trkpt>
      <trkpt lat="43.110285" lon="-4.23666667">
        <ele>1206.0</ele>
        <time>2018-05-19T15:05:44.458Z</time>
      </trkpt>
      <trkpt lat="43.110285" lon="-4.23666667">
        <ele>1206.0</ele>
        <time>2018-05-19T15:05:45.455Z</time>
      </trkpt>
      <trkpt lat="43.11033" lon="-4.23672333">
        <ele>1207.0</ele>
        <time>2018-05-19T15:05:46.467Z</time>
      </trkpt>
      <trkpt lat="43.11033" lon="-4.23672333">
        <ele>1207.0</ele>
        <time>2018-05-19T15:05:47.457Z</time>
      </trkpt>
      <trkpt lat="43.11037833" lon="-4.236775">
        <ele>1208.0</ele>
        <time>2018-05-19T15:05:48.455Z</time>
      </trkpt>
      <trkpt lat="43.11037833" lon="-4.236775">
        <ele>1208.0</ele>
        <time>2018-05-19T15:05:49.452Z</time>
      </trkpt>
      <trkpt lat="43.110425" lon="-4.23681833">
        <ele>1208.0</ele>
        <time>2018-05-19T15:05:50.459Z</time>
      </trkpt>
      <trkpt lat="43.110425" lon="-4.23681833">
        <ele>1208.0</ele>
        <time>2018-05-19T15:05:51.456Z</time>
      </trkpt>
      <trkpt lat="43.110465" lon="-4.23685333">
        <ele>1209.0</ele>
        <time>2018-05-19T15:05:52.460Z</time>
      </trkpt>
      <trkpt lat="43.110465" lon="-4.23685333">
        <ele>1209.0</ele>
        <time>2018-05-19T15:05:53.451Z</time>
      </trkpt>
      <trkpt lat="43.11049667" lon="-4.23690333">
        <ele>1209.0</ele>
        <time>2018-05-19T15:05:54.455Z</time>
      </trkpt>
      <trkpt lat="43.11049667" lon="-4.23690333">
        <ele>1209.0</ele>
        <time>2018-05-19T15:05:55.462Z</time>
      </trkpt>
      <trkpt lat="43.110535" lon="-4.23697167">
        <ele>1209.0</ele>
        <time>2018-05-19T15:05:56.457Z</time>
      </trkpt>
      <trkpt lat="43.110535" lon="-4.23697167">
        <ele>1209.0</ele>
        <time>2018-05-19T15:05:57.456Z</time>
      </trkpt>
      <trkpt lat="43.110575" lon="-4.23705">
        <ele>1208.0</ele>
        <time>2018-05-19T15:05:58.482Z</time>
      </trkpt>
      <trkpt lat="43.11059833" lon="-4.23708667">
        <ele>1208.0</ele>
        <time>2018-05-19T15:05:59.466Z</time>
      </trkpt>
      <trkpt lat="43.110625" lon="-4.23712833">
        <ele>1208.0</ele>
        <time>2018-05-19T15:06:00.456Z</time>
      </trkpt>
      <trkpt lat="43.110625" lon="-4.23712833">
        <ele>1208.0</ele>
        <time>2018-05-19T15:06:01.455Z</time>
      </trkpt>
      <trkpt lat="43.11068833" lon="-4.23721">
        <ele>1207.0</ele>
        <time>2018-05-19T15:06:02.458Z</time>
      </trkpt>
      <trkpt lat="43.11068833" lon="-4.23721">
        <ele>1207.0</ele>
        <time>2018-05-19T15:06:03.452Z</time>
      </trkpt>
      <trkpt lat="43.11076667" lon="-4.23729167">
        <ele>1207.0</ele>
        <time>2018-05-19T15:06:04.456Z</time>
      </trkpt>
      <trkpt lat="43.11076667" lon="-4.23729167">
        <ele>1207.0</ele>
        <time>2018-05-19T15:06:05.456Z</time>
      </trkpt>
      <trkpt lat="43.110855" lon="-4.23737167">
        <ele>1206.0</ele>
        <time>2018-05-19T15:06:06.457Z</time>
      </trkpt>
      <trkpt lat="43.110855" lon="-4.23737167">
        <ele>1206.0</ele>
        <time>2018-05-19T15:06:07.456Z</time>
      </trkpt>
      <trkpt lat="43.11095167" lon="-4.23746">
        <ele>1206.0</ele>
        <time>2018-05-19T15:06:08.455Z</time>
      </trkpt>
      <trkpt lat="43.11095167" lon="-4.23746">
        <ele>1206.0</ele>
        <time>2018-05-19T15:06:09.452Z</time>
      </trkpt>
      <trkpt lat="43.11105667" lon="-4.237555">
        <ele>1206.0</ele>
        <time>2018-05-19T15:06:10.457Z</time>
      </trkpt>
      <trkpt lat="43.11105667" lon="-4.237555">
        <ele>1206.0</ele>
        <time>2018-05-19T15:06:11.452Z</time>
      </trkpt>
      <trkpt lat="43.11115333" lon="-4.23761">
        <ele>1206.0</ele>
        <time>2018-05-19T15:06:12.474Z</time>
      </trkpt>
      <trkpt lat="43.11115333" lon="-4.23761">
        <ele>1206.0</ele>
        <time>2018-05-19T15:06:13.458Z</time>
      </trkpt>
      <trkpt lat="43.11125" lon="-4.237655">
        <ele>1206.0</ele>
        <time>2018-05-19T15:06:14.458Z</time>
      </trkpt>
      <trkpt lat="43.11125" lon="-4.237655">
        <ele>1206.0</ele>
        <time>2018-05-19T15:06:15.465Z</time>
      </trkpt>
      <trkpt lat="43.111365" lon="-4.23773">
        <ele>1205.0</ele>
        <time>2018-05-19T15:06:16.456Z</time>
      </trkpt>
      <trkpt lat="43.11142667" lon="-4.23777">
        <ele>1204.0</ele>
        <time>2018-05-19T15:06:17.457Z</time>
      </trkpt>
      <trkpt lat="43.11142667" lon="-4.23777">
        <ele>1204.0</ele>
        <time>2018-05-19T15:06:18.473Z</time>
      </trkpt>
      <trkpt lat="43.11153833" lon="-4.23788167">
        <ele>1204.0</ele>
        <time>2018-05-19T15:06:19.459Z</time>
      </trkpt>
      <trkpt lat="43.11158333" lon="-4.237955">
        <ele>1204.0</ele>
        <time>2018-05-19T15:06:20.458Z</time>
      </trkpt>
      <trkpt lat="43.11158333" lon="-4.237955">
        <ele>1204.0</ele>
        <time>2018-05-19T15:06:21.452Z</time>
      </trkpt>
      <trkpt lat="43.11166167" lon="-4.238115">
        <ele>1204.0</ele>
        <time>2018-05-19T15:06:22.456Z</time>
      </trkpt>
      <trkpt lat="43.11166167" lon="-4.238115">
        <ele>1204.0</ele>
        <time>2018-05-19T15:06:23.473Z</time>
      </trkpt>
      <trkpt lat="43.111725" lon="-4.23828">
        <ele>1204.0</ele>
        <time>2018-05-19T15:06:24.459Z</time>
      </trkpt>
      <trkpt lat="43.111725" lon="-4.23828">
        <ele>1204.0</ele>
        <time>2018-05-19T15:06:25.455Z</time>
      </trkpt>
      <trkpt lat="43.11178833" lon="-4.23844">
        <ele>1203.0</ele>
        <time>2018-05-19T15:06:26.457Z</time>
      </trkpt>
      <trkpt lat="43.11178833" lon="-4.23844">
        <ele>1203.0</ele>
        <time>2018-05-19T15:06:27.454Z</time>
      </trkpt>
      <trkpt lat="43.11185" lon="-4.23859833">
        <ele>1203.0</ele>
        <time>2018-05-19T15:06:28.478Z</time>
      </trkpt>
      <trkpt lat="43.11185" lon="-4.23859833">
        <ele>1203.0</ele>
        <time>2018-05-19T15:06:29.461Z</time>
      </trkpt>
      <trkpt lat="43.111915" lon="-4.23875">
        <ele>1202.0</ele>
        <time>2018-05-19T15:06:30.458Z</time>
      </trkpt>
      <trkpt lat="43.111915" lon="-4.23875">
        <ele>1202.0</ele>
        <time>2018-05-19T15:06:31.454Z</time>
      </trkpt>
      <trkpt lat="43.11197333" lon="-4.23889833">
        <ele>1202.0</ele>
        <time>2018-05-19T15:06:32.457Z</time>
      </trkpt>
      <trkpt lat="43.11199833" lon="-4.238975">
        <ele>1202.0</ele>
        <time>2018-05-19T15:06:33.457Z</time>
      </trkpt>
      <trkpt lat="43.11199833" lon="-4.238975">
        <ele>1202.0</ele>
        <time>2018-05-19T15:06:34.449Z</time>
      </trkpt>
      <trkpt lat="43.11204" lon="-4.23910667">
        <ele>1203.0</ele>
        <time>2018-05-19T15:06:35.461Z</time>
      </trkpt>
      <trkpt lat="43.11204" lon="-4.23910667">
        <ele>1203.0</ele>
        <time>2018-05-19T15:06:36.455Z</time>
      </trkpt>
      <trkpt lat="43.112085" lon="-4.23923333">
        <ele>1203.0</ele>
        <time>2018-05-19T15:06:37.457Z</time>
      </trkpt>
      <trkpt lat="43.11211" lon="-4.23929167">
        <ele>1203.0</ele>
        <time>2018-05-19T15:06:38.457Z</time>
      </trkpt>
      <trkpt lat="43.11211" lon="-4.23929167">
        <ele>1203.0</ele>
        <time>2018-05-19T15:06:39.449Z</time>
      </trkpt>
      <trkpt lat="43.11216333" lon="-4.23941">
        <ele>1203.0</ele>
        <time>2018-05-19T15:06:40.456Z</time>
      </trkpt>
      <trkpt lat="43.11216333" lon="-4.23941">
        <ele>1203.0</ele>
        <time>2018-05-19T15:06:41.454Z</time>
      </trkpt>
      <trkpt lat="43.11222333" lon="-4.23950167">
        <ele>1202.0</ele>
        <time>2018-05-19T15:06:42.458Z</time>
      </trkpt>
      <trkpt lat="43.11222333" lon="-4.23950167">
        <ele>1202.0</ele>
        <time>2018-05-19T15:06:43.449Z</time>
      </trkpt>
      <trkpt lat="43.11227667" lon="-4.23959">
        <ele>1203.0</ele>
        <time>2018-05-19T15:06:44.458Z</time>
      </trkpt>
      <trkpt lat="43.11227667" lon="-4.23959">
        <ele>1203.0</ele>
        <time>2018-05-19T15:06:45.462Z</time>
      </trkpt>
      <trkpt lat="43.11233333" lon="-4.23968167">
        <ele>1203.0</ele>
        <time>2018-05-19T15:06:46.456Z</time>
      </trkpt>
      <trkpt lat="43.11233333" lon="-4.23968167">
        <ele>1203.0</ele>
        <time>2018-05-19T15:06:47.453Z</time>
      </trkpt>
      <trkpt lat="43.11239833" lon="-4.23977333">
        <ele>1202.0</ele>
        <time>2018-05-19T15:06:48.457Z</time>
      </trkpt>
      <trkpt lat="43.11239833" lon="-4.23977333">
        <ele>1202.0</ele>
        <time>2018-05-19T15:06:49.453Z</time>
      </trkpt>
      <trkpt lat="43.11247333" lon="-4.23988">
        <ele>1200.0</ele>
        <time>2018-05-19T15:06:50.458Z</time>
      </trkpt>
      <trkpt lat="43.11247333" lon="-4.23988">
        <ele>1200.0</ele>
        <time>2018-05-19T15:06:51.455Z</time>
      </trkpt>
      <trkpt lat="43.11257" lon="-4.23999667">
        <ele>1199.0</ele>
        <time>2018-05-19T15:06:52.456Z</time>
      </trkpt>
      <trkpt lat="43.11257" lon="-4.23999667">
        <ele>1199.0</ele>
        <time>2018-05-19T15:06:53.474Z</time>
      </trkpt>
      <trkpt lat="43.11268833" lon="-4.24010333">
        <ele>1198.0</ele>
        <time>2018-05-19T15:06:54.474Z</time>
      </trkpt>
      <trkpt lat="43.11268833" lon="-4.24010333">
        <ele>1198.0</ele>
        <time>2018-05-19T15:06:55.463Z</time>
      </trkpt>
      <trkpt lat="43.112815" lon="-4.24020667">
        <ele>1197.0</ele>
        <time>2018-05-19T15:06:56.457Z</time>
      </trkpt>
      <trkpt lat="43.112815" lon="-4.24020667">
        <ele>1197.0</ele>
        <time>2018-05-19T15:06:57.451Z</time>
      </trkpt>
      <trkpt lat="43.11295167" lon="-4.24031167">
        <ele>1195.0</ele>
        <time>2018-05-19T15:06:58.465Z</time>
      </trkpt>
      <trkpt lat="43.11295167" lon="-4.24031167">
        <ele>1195.0</ele>
        <time>2018-05-19T15:06:59.455Z</time>
      </trkpt>
      <trkpt lat="43.11310167" lon="-4.24040167">
        <ele>1194.0</ele>
        <time>2018-05-19T15:07:00.454Z</time>
      </trkpt>
      <trkpt lat="43.11317667" lon="-4.24044333">
        <ele>1193.0</ele>
        <time>2018-05-19T15:07:01.458Z</time>
      </trkpt>
      <trkpt lat="43.11317667" lon="-4.24044333">
        <ele>1193.0</ele>
        <time>2018-05-19T15:07:02.454Z</time>
      </trkpt>
      <trkpt lat="43.11331" lon="-4.24046833">
        <ele>1192.0</ele>
        <time>2018-05-19T15:07:03.456Z</time>
      </trkpt>
      <trkpt lat="43.11331" lon="-4.24046833">
        <ele>1192.0</ele>
        <time>2018-05-19T15:07:04.454Z</time>
      </trkpt>
      <trkpt lat="43.113395" lon="-4.24043667">
        <ele>1192.0</ele>
        <time>2018-05-19T15:07:05.462Z</time>
      </trkpt>
      <trkpt lat="43.113425" lon="-4.24041833">
        <ele>1192.0</ele>
        <time>2018-05-19T15:07:06.458Z</time>
      </trkpt>
      <trkpt lat="43.113425" lon="-4.24041833">
        <ele>1192.0</ele>
        <time>2018-05-19T15:07:07.456Z</time>
      </trkpt>
      <trkpt lat="43.113485" lon="-4.24036833">
        <ele>1191.0</ele>
        <time>2018-05-19T15:07:08.449Z</time>
      </trkpt>
      <trkpt lat="43.11351333" lon="-4.240355">
        <ele>1191.0</ele>
        <time>2018-05-19T15:07:09.458Z</time>
      </trkpt>
      <trkpt lat="43.11351333" lon="-4.240355">
        <ele>1191.0</ele>
        <time>2018-05-19T15:07:10.454Z</time>
      </trkpt>
      <trkpt lat="43.11354667" lon="-4.24035167">
        <ele>1191.0</ele>
        <time>2018-05-19T15:07:11.456Z</time>
      </trkpt>
      <trkpt lat="43.11355167" lon="-4.24035167">
        <ele>1191.0</ele>
        <time>2018-05-19T15:07:12.456Z</time>
      </trkpt>
      <trkpt lat="43.11355167" lon="-4.24035167">
        <ele>1191.0</ele>
        <time>2018-05-19T15:07:13.453Z</time>
      </trkpt>
      <trkpt lat="43.11355333" lon="-4.240355">
        <ele>1192.0</ele>
        <time>2018-05-19T15:07:14.458Z</time>
      </trkpt>
      <trkpt lat="43.11355333" lon="-4.240355">
        <ele>1192.0</ele>
        <time>2018-05-19T15:07:15.448Z</time>
      </trkpt>
      <trkpt lat="43.11360667" lon="-4.24036333">
        <ele>1193.0</ele>
        <time>2018-05-19T15:07:16.473Z</time>
      </trkpt>
      <trkpt lat="43.11364167" lon="-4.24036333">
        <ele>1193.0</ele>
        <time>2018-05-19T15:07:17.481Z</time>
      </trkpt>
      <trkpt lat="43.11368667" lon="-4.24036667">
        <ele>1193.0</ele>
        <time>2018-05-19T15:07:18.454Z</time>
      </trkpt>
      <trkpt lat="43.11368667" lon="-4.24036667">
        <ele>1193.0</ele>
        <time>2018-05-19T15:07:19.479Z</time>
      </trkpt>
      <trkpt lat="43.11378167" lon="-4.240385">
        <ele>1193.0</ele>
        <time>2018-05-19T15:07:20.481Z</time>
      </trkpt>
      <trkpt lat="43.11378167" lon="-4.240385">
        <ele>1193.0</ele>
        <time>2018-05-19T15:07:21.507Z</time>
      </trkpt>
      <trkpt lat="43.11388" lon="-4.24043">
        <ele>1192.0</ele>
        <time>2018-05-19T15:07:22.459Z</time>
      </trkpt>
      <trkpt lat="43.11388" lon="-4.24043">
        <ele>1192.0</ele>
        <time>2018-05-19T15:07:23.469Z</time>
      </trkpt>
      <trkpt lat="43.11399833" lon="-4.24044333">
        <ele>1191.0</ele>
        <time>2018-05-19T15:07:24.480Z</time>
      </trkpt>
      <trkpt lat="43.114075" lon="-4.240445">
        <ele>1190.0</ele>
        <time>2018-05-19T15:07:25.469Z</time>
      </trkpt>
      <trkpt lat="43.11415333" lon="-4.24046667">
        <ele>1189.0</ele>
        <time>2018-05-19T15:07:26.474Z</time>
      </trkpt>
      <trkpt lat="43.11415333" lon="-4.24046667">
        <ele>1189.0</ele>
        <time>2018-05-19T15:07:27.466Z</time>
      </trkpt>
      <trkpt lat="43.11432" lon="-4.24056167">
        <ele>1188.0</ele>
        <time>2018-05-19T15:07:28.471Z</time>
      </trkpt>
      <trkpt lat="43.11432" lon="-4.24056167">
        <ele>1188.0</ele>
        <time>2018-05-19T15:07:29.476Z</time>
      </trkpt>
      <trkpt lat="43.11447167" lon="-4.240695">
        <ele>1187.0</ele>
        <time>2018-05-19T15:07:30.478Z</time>
      </trkpt>
      <trkpt lat="43.11447167" lon="-4.240695">
        <ele>1187.0</ele>
        <time>2018-05-19T15:07:31.508Z</time>
      </trkpt>
      <trkpt lat="43.11460667" lon="-4.24083833">
        <ele>1186.0</ele>
        <time>2018-05-19T15:07:32.449Z</time>
      </trkpt>
      <trkpt lat="43.11460667" lon="-4.24083833">
        <ele>1186.0</ele>
        <time>2018-05-19T15:07:33.473Z</time>
      </trkpt>
      <trkpt lat="43.11473" lon="-4.24098167">
        <ele>1186.0</ele>
        <time>2018-05-19T15:07:34.502Z</time>
      </trkpt>
      <trkpt lat="43.11473" lon="-4.24098167">
        <ele>1186.0</ele>
        <time>2018-05-19T15:07:35.487Z</time>
      </trkpt>
      <trkpt lat="43.114855" lon="-4.241115">
        <ele>1185.0</ele>
        <time>2018-05-19T15:07:36.504Z</time>
      </trkpt>
      <trkpt lat="43.114855" lon="-4.241115">
        <ele>1185.0</ele>
        <time>2018-05-19T15:07:37.456Z</time>
      </trkpt>
      <trkpt lat="43.11495833" lon="-4.24125333">
        <ele>1185.0</ele>
        <time>2018-05-19T15:07:38.481Z</time>
      </trkpt>
      <trkpt lat="43.11495833" lon="-4.24125333">
        <ele>1185.0</ele>
        <time>2018-05-19T15:07:39.508Z</time>
      </trkpt>
      <trkpt lat="43.11505333" lon="-4.241385">
        <ele>1185.0</ele>
        <time>2018-05-19T15:07:40.505Z</time>
      </trkpt>
      <trkpt lat="43.11505333" lon="-4.241385">
        <ele>1185.0</ele>
        <time>2018-05-19T15:07:41.449Z</time>
      </trkpt>
      <trkpt lat="43.11514167" lon="-4.24151167">
        <ele>1185.0</ele>
        <time>2018-05-19T15:07:42.480Z</time>
      </trkpt>
      <trkpt lat="43.115185" lon="-4.24157333">
        <ele>1185.0</ele>
        <time>2018-05-19T15:07:43.473Z</time>
      </trkpt>
      <trkpt lat="43.11522667" lon="-4.24163833">
        <ele>1185.0</ele>
        <time>2018-05-19T15:07:44.481Z</time>
      </trkpt>
      <trkpt lat="43.11522667" lon="-4.24163833">
        <ele>1185.0</ele>
        <time>2018-05-19T15:07:45.508Z</time>
      </trkpt>
      <trkpt lat="43.1153" lon="-4.24177">
        <ele>1185.0</ele>
        <time>2018-05-19T15:07:46.448Z</time>
      </trkpt>
      <trkpt lat="43.1153" lon="-4.24177">
        <ele>1185.0</ele>
        <time>2018-05-19T15:07:47.474Z</time>
      </trkpt>
      <trkpt lat="43.11536" lon="-4.24190333">
        <ele>1186.0</ele>
        <time>2018-05-19T15:07:48.480Z</time>
      </trkpt>
      <trkpt lat="43.11536" lon="-4.24190333">
        <ele>1186.0</ele>
        <time>2018-05-19T15:07:49.474Z</time>
      </trkpt>
      <trkpt lat="43.11541167" lon="-4.24203833">
        <ele>1185.0</ele>
        <time>2018-05-19T15:07:50.449Z</time>
      </trkpt>
      <trkpt lat="43.11541167" lon="-4.24203833">
        <ele>1185.0</ele>
        <time>2018-05-19T15:07:51.475Z</time>
      </trkpt>
      <trkpt lat="43.11547" lon="-4.24217667">
        <ele>1185.0</ele>
        <time>2018-05-19T15:07:52.448Z</time>
      </trkpt>
      <trkpt lat="43.11547" lon="-4.24217667">
        <ele>1185.0</ele>
        <time>2018-05-19T15:07:53.470Z</time>
      </trkpt>
      <trkpt lat="43.115535" lon="-4.242325">
        <ele>1184.0</ele>
        <time>2018-05-19T15:07:54.480Z</time>
      </trkpt>
      <trkpt lat="43.115535" lon="-4.242325">
        <ele>1184.0</ele>
        <time>2018-05-19T15:07:55.455Z</time>
      </trkpt>
      <trkpt lat="43.11558833" lon="-4.24248833">
        <ele>1184.0</ele>
        <time>2018-05-19T15:07:56.487Z</time>
      </trkpt>
      <trkpt lat="43.11558833" lon="-4.24248833">
        <ele>1184.0</ele>
        <time>2018-05-19T15:07:57.508Z</time>
      </trkpt>
      <trkpt lat="43.11563167" lon="-4.242655">
        <ele>1182.0</ele>
        <time>2018-05-19T15:07:58.505Z</time>
      </trkpt>
      <trkpt lat="43.11563167" lon="-4.242655">
        <ele>1182.0</ele>
        <time>2018-05-19T15:07:59.506Z</time>
      </trkpt>
      <trkpt lat="43.11569667" lon="-4.24283333">
        <ele>1181.0</ele>
        <time>2018-05-19T15:08:00.454Z</time>
      </trkpt>
      <trkpt lat="43.11569667" lon="-4.24283333">
        <ele>1181.0</ele>
        <time>2018-05-19T15:08:01.470Z</time>
      </trkpt>
      <trkpt lat="43.11578667" lon="-4.24302833">
        <ele>1178.0</ele>
        <time>2018-05-19T15:08:02.483Z</time>
      </trkpt>
      <trkpt lat="43.11583333" lon="-4.24313833">
        <ele>1178.0</ele>
        <time>2018-05-19T15:08:03.455Z</time>
      </trkpt>
      <trkpt lat="43.11583333" lon="-4.24313833">
        <ele>1178.0</ele>
        <time>2018-05-19T15:08:04.476Z</time>
      </trkpt>
      <trkpt lat="43.11590833" lon="-4.243375">
        <ele>1177.0</ele>
        <time>2018-05-19T15:08:05.448Z</time>
      </trkpt>
      <trkpt lat="43.11593667" lon="-4.243495">
        <ele>1177.0</ele>
        <time>2018-05-19T15:08:06.475Z</time>
      </trkpt>
      <trkpt lat="43.11593667" lon="-4.243495">
        <ele>1177.0</ele>
        <time>2018-05-19T15:08:07.478Z</time>
      </trkpt>
      <trkpt lat="43.11598333" lon="-4.243725">
        <ele>1177.0</ele>
        <time>2018-05-19T15:08:08.477Z</time>
      </trkpt>
      <trkpt lat="43.11598333" lon="-4.243725">
        <ele>1177.0</ele>
        <time>2018-05-19T15:08:09.509Z</time>
      </trkpt>
      <trkpt lat="43.11601833" lon="-4.24394167">
        <ele>1176.0</ele>
        <time>2018-05-19T15:08:10.502Z</time>
      </trkpt>
      <trkpt lat="43.11601833" lon="-4.24394167">
        <ele>1176.0</ele>
        <time>2018-05-19T15:08:11.448Z</time>
      </trkpt>
      <trkpt lat="43.11604667" lon="-4.24413833">
        <ele>1175.0</ele>
        <time>2018-05-19T15:08:12.478Z</time>
      </trkpt>
      <trkpt lat="43.11604667" lon="-4.24413833">
        <ele>1175.0</ele>
        <time>2018-05-19T15:08:13.454Z</time>
      </trkpt>
      <trkpt lat="43.11608667" lon="-4.24431667">
        <ele>1175.0</ele>
        <time>2018-05-19T15:08:14.504Z</time>
      </trkpt>
      <trkpt lat="43.11608667" lon="-4.24431667">
        <ele>1175.0</ele>
        <time>2018-05-19T15:08:15.510Z</time>
      </trkpt>
      <trkpt lat="43.11614333" lon="-4.24449833">
        <ele>1173.0</ele>
        <time>2018-05-19T15:08:16.505Z</time>
      </trkpt>
      <trkpt lat="43.11614333" lon="-4.24449833">
        <ele>1173.0</ele>
        <time>2018-05-19T15:08:17.508Z</time>
      </trkpt>
      <trkpt lat="43.11623" lon="-4.2447">
        <ele>1170.0</ele>
        <time>2018-05-19T15:08:18.506Z</time>
      </trkpt>
      <trkpt lat="43.11623" lon="-4.2447">
        <ele>1170.0</ele>
        <time>2018-05-19T15:08:19.469Z</time>
      </trkpt>
      <trkpt lat="43.11632167" lon="-4.24493667">
        <ele>1167.0</ele>
        <time>2018-05-19T15:08:20.473Z</time>
      </trkpt>
      <trkpt lat="43.11632167" lon="-4.24493667">
        <ele>1167.0</ele>
        <time>2018-05-19T15:08:21.468Z</time>
      </trkpt>
      <trkpt lat="43.11640667" lon="-4.24519167">
        <ele>1166.0</ele>
        <time>2018-05-19T15:08:22.477Z</time>
      </trkpt>
      <trkpt lat="43.11640667" lon="-4.24519167">
        <ele>1166.0</ele>
        <time>2018-05-19T15:08:23.449Z</time>
      </trkpt>
      <trkpt lat="43.11648" lon="-4.24545">
        <ele>1165.0</ele>
        <time>2018-05-19T15:08:24.477Z</time>
      </trkpt>
      <trkpt lat="43.11651667" lon="-4.24557333">
        <ele>1164.0</ele>
        <time>2018-05-19T15:08:25.481Z</time>
      </trkpt>
      <trkpt lat="43.116555" lon="-4.24569">
        <ele>1164.0</ele>
        <time>2018-05-19T15:08:26.502Z</time>
      </trkpt>
      <trkpt lat="43.116555" lon="-4.24569">
        <ele>1164.0</ele>
        <time>2018-05-19T15:08:27.507Z</time>
      </trkpt>
      <trkpt lat="43.11663667" lon="-4.24590333">
        <ele>1164.0</ele>
        <time>2018-05-19T15:08:28.504Z</time>
      </trkpt>
      <trkpt lat="43.11663667" lon="-4.24590333">
        <ele>1164.0</ele>
        <time>2018-05-19T15:08:29.507Z</time>
      </trkpt>
      <trkpt lat="43.116705" lon="-4.24609833">
        <ele>1164.0</ele>
        <time>2018-05-19T15:08:30.457Z</time>
      </trkpt>
      <trkpt lat="43.11672833" lon="-4.24618833">
        <ele>1164.0</ele>
        <time>2018-05-19T15:08:31.459Z</time>
      </trkpt>
      <trkpt lat="43.11674667" lon="-4.24628">
        <ele>1165.0</ele>
        <time>2018-05-19T15:08:32.456Z</time>
      </trkpt>
      <trkpt lat="43.11674667" lon="-4.24628">
        <ele>1165.0</ele>
        <time>2018-05-19T15:08:33.480Z</time>
      </trkpt>
      <trkpt lat="43.11677667" lon="-4.24644333">
        <ele>1165.0</ele>
        <time>2018-05-19T15:08:34.508Z</time>
      </trkpt>
      <trkpt lat="43.1168" lon="-4.24651167">
        <ele>1165.0</ele>
        <time>2018-05-19T15:08:35.502Z</time>
      </trkpt>
      <trkpt lat="43.1168" lon="-4.24651167">
        <ele>1165.0</ele>
        <time>2018-05-19T15:08:36.459Z</time>
      </trkpt>
      <trkpt lat="43.11684167" lon="-4.24662833">
        <ele>1165.0</ele>
        <time>2018-05-19T15:08:37.507Z</time>
      </trkpt>
      <trkpt lat="43.11686333" lon="-4.24668333">
        <ele>1165.0</ele>
        <time>2018-05-19T15:08:38.453Z</time>
      </trkpt>
      <trkpt lat="43.11686333" lon="-4.24668333">
        <ele>1165.0</ele>
        <time>2018-05-19T15:08:39.479Z</time>
      </trkpt>
      <trkpt lat="43.11692167" lon="-4.246805">
        <ele>1164.0</ele>
        <time>2018-05-19T15:08:40.505Z</time>
      </trkpt>
      <trkpt lat="43.11692167" lon="-4.246805">
        <ele>1164.0</ele>
        <time>2018-05-19T15:08:41.452Z</time>
      </trkpt>
      <trkpt lat="43.11699167" lon="-4.24693833">
        <ele>1164.0</ele>
        <time>2018-05-19T15:08:42.457Z</time>
      </trkpt>
      <trkpt lat="43.11699167" lon="-4.24693833">
        <ele>1164.0</ele>
        <time>2018-05-19T15:08:43.479Z</time>
      </trkpt>
      <trkpt lat="43.11706667" lon="-4.24708">
        <ele>1164.0</ele>
        <time>2018-05-19T15:08:44.455Z</time>
      </trkpt>
      <trkpt lat="43.11706667" lon="-4.24708">
        <ele>1164.0</ele>
        <time>2018-05-19T15:08:45.480Z</time>
      </trkpt>
      <trkpt lat="43.11712167" lon="-4.24722333">
        <ele>1164.0</ele>
        <time>2018-05-19T15:08:46.453Z</time>
      </trkpt>
      <trkpt lat="43.11712167" lon="-4.24722333">
        <ele>1164.0</ele>
        <time>2018-05-19T15:08:47.479Z</time>
      </trkpt>
      <trkpt lat="43.11716667" lon="-4.247365">
        <ele>1164.0</ele>
        <time>2018-05-19T15:08:48.454Z</time>
      </trkpt>
      <trkpt lat="43.11718833" lon="-4.24743667">
        <ele>1165.0</ele>
        <time>2018-05-19T15:08:49.485Z</time>
      </trkpt>
      <trkpt lat="43.11720833" lon="-4.24750833">
        <ele>1165.0</ele>
        <time>2018-05-19T15:08:50.458Z</time>
      </trkpt>
      <trkpt lat="43.11720833" lon="-4.24750833">
        <ele>1165.0</ele>
        <time>2018-05-19T15:08:51.507Z</time>
      </trkpt>
      <trkpt lat="43.117245" lon="-4.24764333">
        <ele>1166.0</ele>
        <time>2018-05-19T15:08:52.486Z</time>
      </trkpt>
      <trkpt lat="43.117245" lon="-4.24764333">
        <ele>1166.0</ele>
        <time>2018-05-19T15:08:53.469Z</time>
      </trkpt>
      <trkpt lat="43.117285" lon="-4.24777167">
        <ele>1166.0</ele>
        <time>2018-05-19T15:08:54.466Z</time>
      </trkpt>
      <trkpt lat="43.117285" lon="-4.24777167">
        <ele>1166.0</ele>
        <time>2018-05-19T15:08:55.534Z</time>
      </trkpt>
      <trkpt lat="43.117335" lon="-4.2479">
        <ele>1166.0</ele>
        <time>2018-05-19T15:08:56.460Z</time>
      </trkpt>
      <trkpt lat="43.117335" lon="-4.2479">
        <ele>1166.0</ele>
        <time>2018-05-19T15:08:57.508Z</time>
      </trkpt>
      <trkpt lat="43.117405" lon="-4.24802833">
        <ele>1165.0</ele>
        <time>2018-05-19T15:08:58.454Z</time>
      </trkpt>
      <trkpt lat="43.117405" lon="-4.24802833">
        <ele>1165.0</ele>
        <time>2018-05-19T15:08:59.507Z</time>
      </trkpt>
      <trkpt lat="43.11750333" lon="-4.24814667">
        <ele>1164.0</ele>
        <time>2018-05-19T15:09:00.504Z</time>
      </trkpt>
      <trkpt lat="43.11750333" lon="-4.24814667">
        <ele>1164.0</ele>
        <time>2018-05-19T15:09:01.506Z</time>
      </trkpt>
      <trkpt lat="43.117645" lon="-4.24823">
        <ele>1162.0</ele>
        <time>2018-05-19T15:09:02.511Z</time>
      </trkpt>
      <trkpt lat="43.117645" lon="-4.24823">
        <ele>1162.0</ele>
        <time>2018-05-19T15:09:03.452Z</time>
      </trkpt>
      <trkpt lat="43.117815" lon="-4.248275">
        <ele>1160.0</ele>
        <time>2018-05-19T15:09:04.504Z</time>
      </trkpt>
      <trkpt lat="43.117815" lon="-4.248275">
        <ele>1160.0</ele>
        <time>2018-05-19T15:09:05.457Z</time>
      </trkpt>
      <trkpt lat="43.11799333" lon="-4.24834333">
        <ele>1158.0</ele>
        <time>2018-05-19T15:09:06.505Z</time>
      </trkpt>
      <trkpt lat="43.11799333" lon="-4.24834333">
        <ele>1158.0</ele>
        <time>2018-05-19T15:09:07.508Z</time>
      </trkpt>
      <trkpt lat="43.11818667" lon="-4.248455">
        <ele>1156.0</ele>
        <time>2018-05-19T15:09:08.450Z</time>
      </trkpt>
      <trkpt lat="43.11818667" lon="-4.248455">
        <ele>1156.0</ele>
        <time>2018-05-19T15:09:09.476Z</time>
      </trkpt>
      <trkpt lat="43.11838333" lon="-4.248595">
        <ele>1155.0</ele>
        <time>2018-05-19T15:09:10.448Z</time>
      </trkpt>
      <trkpt lat="43.11838333" lon="-4.248595">
        <ele>1155.0</ele>
        <time>2018-05-19T15:09:11.474Z</time>
      </trkpt>
      <trkpt lat="43.11856833" lon="-4.24874833">
        <ele>1154.0</ele>
        <time>2018-05-19T15:09:12.476Z</time>
      </trkpt>
      <trkpt lat="43.11856833" lon="-4.24874833">
        <ele>1154.0</ele>
        <time>2018-05-19T15:09:13.484Z</time>
      </trkpt>
      <trkpt lat="43.118755" lon="-4.24886667">
        <ele>1154.0</ele>
        <time>2018-05-19T15:09:14.453Z</time>
      </trkpt>
      <trkpt lat="43.118755" lon="-4.24886667">
        <ele>1154.0</ele>
        <time>2018-05-19T15:09:15.483Z</time>
      </trkpt>
      <trkpt lat="43.11892833" lon="-4.24895333">
        <ele>1154.0</ele>
        <time>2018-05-19T15:09:16.452Z</time>
      </trkpt>
      <trkpt lat="43.11892833" lon="-4.24895333">
        <ele>1154.0</ele>
        <time>2018-05-19T15:09:17.506Z</time>
      </trkpt>
      <trkpt lat="43.11909" lon="-4.24902167">
        <ele>1154.0</ele>
        <time>2018-05-19T15:09:18.451Z</time>
      </trkpt>
      <trkpt lat="43.11916833" lon="-4.24905333">
        <ele>1153.0</ele>
        <time>2018-05-19T15:09:19.479Z</time>
      </trkpt>
      <trkpt lat="43.11916833" lon="-4.24905333">
        <ele>1153.0</ele>
        <time>2018-05-19T15:09:20.487Z</time>
      </trkpt>
      <trkpt lat="43.11932167" lon="-4.24911167">
        <ele>1152.0</ele>
        <time>2018-05-19T15:09:21.457Z</time>
      </trkpt>
      <trkpt lat="43.11932167" lon="-4.24911167">
        <ele>1152.0</ele>
        <time>2018-05-19T15:09:22.479Z</time>
      </trkpt>
      <trkpt lat="43.11947667" lon="-4.249175">
        <ele>1151.0</ele>
        <time>2018-05-19T15:09:23.475Z</time>
      </trkpt>
      <trkpt lat="43.11947667" lon="-4.249175">
        <ele>1151.0</ele>
        <time>2018-05-19T15:09:24.480Z</time>
      </trkpt>
      <trkpt lat="43.11963833" lon="-4.24924167">
        <ele>1151.0</ele>
        <time>2018-05-19T15:09:25.455Z</time>
      </trkpt>
      <trkpt lat="43.11971667" lon="-4.24927333">
        <ele>1151.0</ele>
        <time>2018-05-19T15:09:26.456Z</time>
      </trkpt>
      <trkpt lat="43.11971667" lon="-4.24927333">
        <ele>1151.0</ele>
        <time>2018-05-19T15:09:27.507Z</time>
      </trkpt>
      <trkpt lat="43.11986667" lon="-4.24932">
        <ele>1150.0</ele>
        <time>2018-05-19T15:09:28.496Z</time>
      </trkpt>
      <trkpt lat="43.11986667" lon="-4.24932">
        <ele>1150.0</ele>
        <time>2018-05-19T15:09:29.453Z</time>
      </trkpt>
      <trkpt lat="43.11999833" lon="-4.24935">
        <ele>1152.0</ele>
        <time>2018-05-19T15:09:30.505Z</time>
      </trkpt>
      <trkpt lat="43.11999833" lon="-4.24935">
        <ele>1152.0</ele>
        <time>2018-05-19T15:09:31.449Z</time>
      </trkpt>
      <trkpt lat="43.120105" lon="-4.249375">
        <ele>1153.0</ele>
        <time>2018-05-19T15:09:32.480Z</time>
      </trkpt>
      <trkpt lat="43.120105" lon="-4.249375">
        <ele>1153.0</ele>
        <time>2018-05-19T15:09:33.448Z</time>
      </trkpt>
      <trkpt lat="43.12018167" lon="-4.24939333">
        <ele>1155.0</ele>
        <time>2018-05-19T15:09:34.477Z</time>
      </trkpt>
      <trkpt lat="43.12018167" lon="-4.24939333">
        <ele>1155.0</ele>
        <time>2018-05-19T15:09:35.506Z</time>
      </trkpt>
      <trkpt lat="43.12025" lon="-4.24938667">
        <ele>1156.0</ele>
        <time>2018-05-19T15:09:36.454Z</time>
      </trkpt>
      <trkpt lat="43.12025" lon="-4.24938667">
        <ele>1156.0</ele>
        <time>2018-05-19T15:09:37.479Z</time>
      </trkpt>
      <trkpt lat="43.12030833" lon="-4.24935833">
        <ele>1157.0</ele>
        <time>2018-05-19T15:09:38.454Z</time>
      </trkpt>
      <trkpt lat="43.12030833" lon="-4.24935833">
        <ele>1157.0</ele>
        <time>2018-05-19T15:09:39.480Z</time>
      </trkpt>
      <trkpt lat="43.120365" lon="-4.249315">
        <ele>1157.0</ele>
        <time>2018-05-19T15:09:40.456Z</time>
      </trkpt>
      <trkpt lat="43.120365" lon="-4.249315">
        <ele>1157.0</ele>
        <time>2018-05-19T15:09:41.487Z</time>
      </trkpt>
      <trkpt lat="43.12042833" lon="-4.24927833">
        <ele>1156.0</ele>
        <time>2018-05-19T15:09:42.504Z</time>
      </trkpt>
      <trkpt lat="43.12042833" lon="-4.24927833">
        <ele>1156.0</ele>
        <time>2018-05-19T15:09:43.448Z</time>
      </trkpt>
      <trkpt lat="43.12050167" lon="-4.24925167">
        <ele>1156.0</ele>
        <time>2018-05-19T15:09:44.472Z</time>
      </trkpt>
      <trkpt lat="43.12053667" lon="-4.249245">
        <ele>1156.0</ele>
        <time>2018-05-19T15:09:45.477Z</time>
      </trkpt>
      <trkpt lat="43.12057" lon="-4.24924167">
        <ele>1156.0</ele>
        <time>2018-05-19T15:09:46.452Z</time>
      </trkpt>
      <trkpt lat="43.12057" lon="-4.24924167">
        <ele>1156.0</ele>
        <time>2018-05-19T15:09:47.476Z</time>
      </trkpt>
      <trkpt lat="43.120645" lon="-4.24924">
        <ele>1156.0</ele>
        <time>2018-05-19T15:09:48.475Z</time>
      </trkpt>
      <trkpt lat="43.120645" lon="-4.24924">
        <ele>1156.0</ele>
        <time>2018-05-19T15:09:49.479Z</time>
      </trkpt>
      <trkpt lat="43.12071833" lon="-4.24924333">
        <ele>1156.0</ele>
        <time>2018-05-19T15:09:50.487Z</time>
      </trkpt>
      <trkpt lat="43.12075333" lon="-4.24924333">
        <ele>1156.0</ele>
        <time>2018-05-19T15:09:51.507Z</time>
      </trkpt>
      <trkpt lat="43.12079" lon="-4.24924333">
        <ele>1156.0</ele>
        <time>2018-05-19T15:09:52.504Z</time>
      </trkpt>
      <trkpt lat="43.12079" lon="-4.24924333">
        <ele>1156.0</ele>
        <time>2018-05-19T15:09:53.458Z</time>
      </trkpt>
      <trkpt lat="43.12086" lon="-4.24923667">
        <ele>1156.0</ele>
        <time>2018-05-19T15:09:54.499Z</time>
      </trkpt>
      <trkpt lat="43.12086" lon="-4.24923667">
        <ele>1156.0</ele>
        <time>2018-05-19T15:09:55.493Z</time>
      </trkpt>
      <trkpt lat="43.12092333" lon="-4.249235">
        <ele>1156.0</ele>
        <time>2018-05-19T15:09:56.499Z</time>
      </trkpt>
      <trkpt lat="43.12092333" lon="-4.249235">
        <ele>1156.0</ele>
        <time>2018-05-19T15:09:57.562Z</time>
      </trkpt>
      <trkpt lat="43.12099167" lon="-4.249235">
        <ele>1156.0</ele>
        <time>2018-05-19T15:09:58.505Z</time>
      </trkpt>
      <trkpt lat="43.12099167" lon="-4.249235">
        <ele>1156.0</ele>
        <time>2018-05-19T15:09:59.460Z</time>
      </trkpt>
      <trkpt lat="43.12105667" lon="-4.24923833">
        <ele>1157.0</ele>
        <time>2018-05-19T15:10:00.502Z</time>
      </trkpt>
      <trkpt lat="43.12105667" lon="-4.24923833">
        <ele>1157.0</ele>
        <time>2018-05-19T15:10:01.455Z</time>
      </trkpt>
      <trkpt lat="43.12111667" lon="-4.24923833">
        <ele>1157.0</ele>
        <time>2018-05-19T15:10:02.451Z</time>
      </trkpt>
      <trkpt lat="43.12111667" lon="-4.24923833">
        <ele>1157.0</ele>
        <time>2018-05-19T15:10:03.487Z</time>
      </trkpt>
      <trkpt lat="43.12117833" lon="-4.24923667">
        <ele>1158.0</ele>
        <time>2018-05-19T15:10:04.458Z</time>
      </trkpt>
      <trkpt lat="43.12117833" lon="-4.24923667">
        <ele>1158.0</ele>
        <time>2018-05-19T15:10:05.507Z</time>
      </trkpt>
      <trkpt lat="43.12124" lon="-4.24923333">
        <ele>1158.0</ele>
        <time>2018-05-19T15:10:06.455Z</time>
      </trkpt>
      <trkpt lat="43.12124" lon="-4.24923333">
        <ele>1158.0</ele>
        <time>2018-05-19T15:10:07.480Z</time>
      </trkpt>
      <trkpt lat="43.12129833" lon="-4.24923167">
        <ele>1158.0</ele>
        <time>2018-05-19T15:10:08.502Z</time>
      </trkpt>
      <trkpt lat="43.12129833" lon="-4.24923167">
        <ele>1158.0</ele>
        <time>2018-05-19T15:10:09.508Z</time>
      </trkpt>
      <trkpt lat="43.12135667" lon="-4.24921833">
        <ele>1158.0</ele>
        <time>2018-05-19T15:10:10.487Z</time>
      </trkpt>
      <trkpt lat="43.12135667" lon="-4.24921833">
        <ele>1158.0</ele>
        <time>2018-05-19T15:10:11.456Z</time>
      </trkpt>
      <trkpt lat="43.121415" lon="-4.24918833">
        <ele>1158.0</ele>
        <time>2018-05-19T15:10:12.504Z</time>
      </trkpt>
      <trkpt lat="43.121415" lon="-4.24918833">
        <ele>1158.0</ele>
        <time>2018-05-19T15:10:13.452Z</time>
      </trkpt>
      <trkpt lat="43.12147" lon="-4.24914833">
        <ele>1158.0</ele>
        <time>2018-05-19T15:10:14.472Z</time>
      </trkpt>
      <trkpt lat="43.12147" lon="-4.24914833">
        <ele>1158.0</ele>
        <time>2018-05-19T15:10:15.476Z</time>
      </trkpt>
      <trkpt lat="43.12152333" lon="-4.2491">
        <ele>1158.0</ele>
        <time>2018-05-19T15:10:16.505Z</time>
      </trkpt>
      <trkpt lat="43.12152333" lon="-4.2491">
        <ele>1158.0</ele>
        <time>2018-05-19T15:10:17.457Z</time>
      </trkpt>
      <trkpt lat="43.12157833" lon="-4.24905167">
        <ele>1158.0</ele>
        <time>2018-05-19T15:10:18.504Z</time>
      </trkpt>
      <trkpt lat="43.12157833" lon="-4.24905167">
        <ele>1158.0</ele>
        <time>2018-05-19T15:10:19.507Z</time>
      </trkpt>
      <trkpt lat="43.12163667" lon="-4.24899833">
        <ele>1157.0</ele>
        <time>2018-05-19T15:10:20.505Z</time>
      </trkpt>
      <trkpt lat="43.12163667" lon="-4.24899833">
        <ele>1157.0</ele>
        <time>2018-05-19T15:10:21.507Z</time>
      </trkpt>
      <trkpt lat="43.1217" lon="-4.24893333">
        <ele>1156.0</ele>
        <time>2018-05-19T15:10:22.504Z</time>
      </trkpt>
      <trkpt lat="43.1217" lon="-4.24893333">
        <ele>1156.0</ele>
        <time>2018-05-19T15:10:23.464Z</time>
      </trkpt>
      <trkpt lat="43.12177333" lon="-4.24887">
        <ele>1156.0</ele>
        <time>2018-05-19T15:10:24.476Z</time>
      </trkpt>
      <trkpt lat="43.12177333" lon="-4.24887">
        <ele>1156.0</ele>
        <time>2018-05-19T15:10:25.479Z</time>
      </trkpt>
      <trkpt lat="43.12186167" lon="-4.24882333">
        <ele>1155.0</ele>
        <time>2018-05-19T15:10:26.456Z</time>
      </trkpt>
      <trkpt lat="43.12186167" lon="-4.24882333">
        <ele>1155.0</ele>
        <time>2018-05-19T15:10:27.508Z</time>
      </trkpt>
      <trkpt lat="43.121965" lon="-4.24877">
        <ele>1154.0</ele>
        <time>2018-05-19T15:10:28.456Z</time>
      </trkpt>
      <trkpt lat="43.121965" lon="-4.24877">
        <ele>1154.0</ele>
        <time>2018-05-19T15:10:29.459Z</time>
      </trkpt>
      <trkpt lat="43.12206333" lon="-4.24867167">
        <ele>1153.0</ele>
        <time>2018-05-19T15:10:30.448Z</time>
      </trkpt>
      <trkpt lat="43.12206333" lon="-4.24867167">
        <ele>1153.0</ele>
        <time>2018-05-19T15:10:31.474Z</time>
      </trkpt>
      <trkpt lat="43.12216167" lon="-4.24856">
        <ele>1152.0</ele>
        <time>2018-05-19T15:10:32.480Z</time>
      </trkpt>
      <trkpt lat="43.12216167" lon="-4.24856">
        <ele>1152.0</ele>
        <time>2018-05-19T15:10:33.486Z</time>
      </trkpt>
      <trkpt lat="43.12229167" lon="-4.24849833">
        <ele>1151.0</ele>
        <time>2018-05-19T15:10:34.507Z</time>
      </trkpt>
      <trkpt lat="43.12236" lon="-4.24849667">
        <ele>1151.0</ele>
        <time>2018-05-19T15:10:35.465Z</time>
      </trkpt>
      <trkpt lat="43.12236" lon="-4.24849667">
        <ele>1151.0</ele>
        <time>2018-05-19T15:10:36.469Z</time>
      </trkpt>
      <trkpt lat="43.12248667" lon="-4.248515">
        <ele>1151.0</ele>
        <time>2018-05-19T15:10:37.479Z</time>
      </trkpt>
      <trkpt lat="43.12254833" lon="-4.24852">
        <ele>1151.0</ele>
        <time>2018-05-19T15:10:38.452Z</time>
      </trkpt>
      <trkpt lat="43.12254833" lon="-4.24852">
        <ele>1151.0</ele>
        <time>2018-05-19T15:10:39.478Z</time>
      </trkpt>
      <trkpt lat="43.12267333" lon="-4.24850333">
        <ele>1150.0</ele>
        <time>2018-05-19T15:10:40.475Z</time>
      </trkpt>
      <trkpt lat="43.12267333" lon="-4.24850333">
        <ele>1150.0</ele>
        <time>2018-05-19T15:10:41.507Z</time>
      </trkpt>
      <trkpt lat="43.12280167" lon="-4.24844833">
        <ele>1149.0</ele>
        <time>2018-05-19T15:10:42.452Z</time>
      </trkpt>
      <trkpt lat="43.12280167" lon="-4.24844833">
        <ele>1149.0</ele>
        <time>2018-05-19T15:10:43.479Z</time>
      </trkpt>
      <trkpt lat="43.12293167" lon="-4.24837667">
        <ele>1148.0</ele>
        <time>2018-05-19T15:10:44.464Z</time>
      </trkpt>
      <trkpt lat="43.12293167" lon="-4.24837667">
        <ele>1148.0</ele>
        <time>2018-05-19T15:10:45.468Z</time>
      </trkpt>
      <trkpt lat="43.12307" lon="-4.24831">
        <ele>1147.0</ele>
        <time>2018-05-19T15:10:46.501Z</time>
      </trkpt>
      <trkpt lat="43.12307" lon="-4.24831">
        <ele>1147.0</ele>
        <time>2018-05-19T15:10:47.506Z</time>
      </trkpt>
      <trkpt lat="43.123215" lon="-4.24826333">
        <ele>1147.0</ele>
        <time>2018-05-19T15:10:48.453Z</time>
      </trkpt>
      <trkpt lat="43.12328833" lon="-4.24824667">
        <ele>1146.0</ele>
        <time>2018-05-19T15:10:49.507Z</time>
      </trkpt>
      <trkpt lat="43.123365" lon="-4.24823667">
        <ele>1146.0</ele>
        <time>2018-05-19T15:10:50.453Z</time>
      </trkpt>
      <trkpt lat="43.123365" lon="-4.24823667">
        <ele>1146.0</ele>
        <time>2018-05-19T15:10:51.478Z</time>
      </trkpt>
      <trkpt lat="43.12352333" lon="-4.24826667">
        <ele>1145.0</ele>
        <time>2018-05-19T15:10:52.452Z</time>
      </trkpt>
      <trkpt lat="43.12352333" lon="-4.24826667">
        <ele>1145.0</ele>
        <time>2018-05-19T15:10:53.459Z</time>
      </trkpt>
      <trkpt lat="43.12367333" lon="-4.24835667">
        <ele>1145.0</ele>
        <time>2018-05-19T15:10:54.449Z</time>
      </trkpt>
      <trkpt lat="43.12367333" lon="-4.24835667">
        <ele>1145.0</ele>
        <time>2018-05-19T15:10:55.475Z</time>
      </trkpt>
      <trkpt lat="43.12380333" lon="-4.24849">
        <ele>1144.0</ele>
        <time>2018-05-19T15:10:56.469Z</time>
      </trkpt>
      <trkpt lat="43.12380333" lon="-4.24849">
        <ele>1144.0</ele>
        <time>2018-05-19T15:10:57.467Z</time>
      </trkpt>
      <trkpt lat="43.12392833" lon="-4.24865">
        <ele>1143.0</ele>
        <time>2018-05-19T15:10:58.504Z</time>
      </trkpt>
      <trkpt lat="43.12392833" lon="-4.24865">
        <ele>1143.0</ele>
        <time>2018-05-19T15:10:59.460Z</time>
      </trkpt>
      <trkpt lat="43.12404667" lon="-4.248825">
        <ele>1142.0</ele>
        <time>2018-05-19T15:11:00.452Z</time>
      </trkpt>
      <trkpt lat="43.12404667" lon="-4.248825">
        <ele>1142.0</ele>
        <time>2018-05-19T15:11:01.479Z</time>
      </trkpt>
      <trkpt lat="43.12416667" lon="-4.24900333">
        <ele>1141.0</ele>
        <time>2018-05-19T15:11:02.504Z</time>
      </trkpt>
      <trkpt lat="43.12416667" lon="-4.24900333">
        <ele>1141.0</ele>
        <time>2018-05-19T15:11:03.506Z</time>
      </trkpt>
      <trkpt lat="43.12428833" lon="-4.24917667">
        <ele>1140.0</ele>
        <time>2018-05-19T15:11:04.456Z</time>
      </trkpt>
      <trkpt lat="43.12428833" lon="-4.24917667">
        <ele>1140.0</ele>
        <time>2018-05-19T15:11:05.450Z</time>
      </trkpt>
      <trkpt lat="43.12441833" lon="-4.24933667">
        <ele>1139.0</ele>
        <time>2018-05-19T15:11:06.477Z</time>
      </trkpt>
      <trkpt lat="43.12449" lon="-4.249405">
        <ele>1138.0</ele>
        <time>2018-05-19T15:11:07.453Z</time>
      </trkpt>
      <trkpt lat="43.12449" lon="-4.249405">
        <ele>1138.0</ele>
        <time>2018-05-19T15:11:08.474Z</time>
      </trkpt>
      <trkpt lat="43.124645" lon="-4.249465">
        <ele>1137.0</ele>
        <time>2018-05-19T15:11:09.507Z</time>
      </trkpt>
      <trkpt lat="43.12471667" lon="-4.249445">
        <ele>1137.0</ele>
        <time>2018-05-19T15:11:10.486Z</time>
      </trkpt>
      <trkpt lat="43.12471667" lon="-4.249445">
        <ele>1137.0</ele>
        <time>2018-05-19T15:11:11.459Z</time>
      </trkpt>
      <trkpt lat="43.12484833" lon="-4.24935">
        <ele>1136.0</ele>
        <time>2018-05-19T15:11:12.507Z</time>
      </trkpt>
      <trkpt lat="43.12491833" lon="-4.24933167">
        <ele>1136.0</ele>
        <time>2018-05-19T15:11:13.453Z</time>
      </trkpt>
      <trkpt lat="43.12499" lon="-4.24934">
        <ele>1135.0</ele>
        <time>2018-05-19T15:11:14.500Z</time>
      </trkpt>
      <trkpt lat="43.12499" lon="-4.24934">
        <ele>1135.0</ele>
        <time>2018-05-19T15:11:15.506Z</time>
      </trkpt>
      <trkpt lat="43.12513" lon="-4.249395">
        <ele>1133.0</ele>
        <time>2018-05-19T15:11:16.480Z</time>
      </trkpt>
      <trkpt lat="43.12513" lon="-4.249395">
        <ele>1133.0</ele>
        <time>2018-05-19T15:11:17.455Z</time>
      </trkpt>
      <trkpt lat="43.12527833" lon="-4.24941">
        <ele>1132.0</ele>
        <time>2018-05-19T15:11:18.493Z</time>
      </trkpt>
      <trkpt lat="43.12527833" lon="-4.24941">
        <ele>1132.0</ele>
        <time>2018-05-19T15:11:19.507Z</time>
      </trkpt>
      <trkpt lat="43.125435" lon="-4.24945">
        <ele>1131.0</ele>
        <time>2018-05-19T15:11:20.504Z</time>
      </trkpt>
      <trkpt lat="43.125435" lon="-4.24945">
        <ele>1131.0</ele>
        <time>2018-05-19T15:11:21.507Z</time>
      </trkpt>
      <trkpt lat="43.125585" lon="-4.24954333">
        <ele>1129.0</ele>
        <time>2018-05-19T15:11:22.465Z</time>
      </trkpt>
      <trkpt lat="43.125585" lon="-4.24954333">
        <ele>1129.0</ele>
        <time>2018-05-19T15:11:23.487Z</time>
      </trkpt>
      <trkpt lat="43.12573667" lon="-4.24966333">
        <ele>1127.0</ele>
        <time>2018-05-19T15:11:24.465Z</time>
      </trkpt>
      <trkpt lat="43.12573667" lon="-4.24966333">
        <ele>1127.0</ele>
        <time>2018-05-19T15:11:25.472Z</time>
      </trkpt>
      <trkpt lat="43.12589667" lon="-4.24977333">
        <ele>1126.0</ele>
        <time>2018-05-19T15:11:26.479Z</time>
      </trkpt>
      <trkpt lat="43.12589667" lon="-4.24977333">
        <ele>1126.0</ele>
        <time>2018-05-19T15:11:27.506Z</time>
      </trkpt>
      <trkpt lat="43.12606667" lon="-4.249875">
        <ele>1125.0</ele>
        <time>2018-05-19T15:11:28.458Z</time>
      </trkpt>
      <trkpt lat="43.12606667" lon="-4.249875">
        <ele>1125.0</ele>
        <time>2018-05-19T15:11:29.506Z</time>
      </trkpt>
      <trkpt lat="43.126225" lon="-4.249995">
        <ele>1124.0</ele>
        <time>2018-05-19T15:11:30.455Z</time>
      </trkpt>
      <trkpt lat="43.126225" lon="-4.249995">
        <ele>1124.0</ele>
        <time>2018-05-19T15:11:31.508Z</time>
      </trkpt>
      <trkpt lat="43.12636" lon="-4.25015">
        <ele>1122.0</ele>
        <time>2018-05-19T15:11:32.477Z</time>
      </trkpt>
      <trkpt lat="43.12636" lon="-4.25015">
        <ele>1122.0</ele>
        <time>2018-05-19T15:11:33.504Z</time>
      </trkpt>
      <trkpt lat="43.12651667" lon="-4.25023833">
        <ele>1121.0</ele>
        <time>2018-05-19T15:11:34.458Z</time>
      </trkpt>
      <trkpt lat="43.12651667" lon="-4.25023833">
        <ele>1121.0</ele>
        <time>2018-05-19T15:11:35.486Z</time>
      </trkpt>
      <trkpt lat="43.12669167" lon="-4.250255">
        <ele>1119.0</ele>
        <time>2018-05-19T15:11:36.465Z</time>
      </trkpt>
      <trkpt lat="43.12669167" lon="-4.250255">
        <ele>1119.0</ele>
        <time>2018-05-19T15:11:37.467Z</time>
      </trkpt>
      <trkpt lat="43.126875" lon="-4.25023667">
        <ele>1118.0</ele>
        <time>2018-05-19T15:11:38.472Z</time>
      </trkpt>
      <trkpt lat="43.126875" lon="-4.25023667">
        <ele>1118.0</ele>
        <time>2018-05-19T15:11:39.451Z</time>
      </trkpt>
      <trkpt lat="43.12705667" lon="-4.25015333">
        <ele>1116.0</ele>
        <time>2018-05-19T15:11:40.476Z</time>
      </trkpt>
      <trkpt lat="43.12705667" lon="-4.25015333">
        <ele>1116.0</ele>
        <time>2018-05-19T15:11:41.449Z</time>
      </trkpt>
      <trkpt lat="43.12721667" lon="-4.25000333">
        <ele>1114.0</ele>
        <time>2018-05-19T15:11:42.476Z</time>
      </trkpt>
      <trkpt lat="43.12721667" lon="-4.25000333">
        <ele>1114.0</ele>
        <time>2018-05-19T15:11:43.479Z</time>
      </trkpt>
      <trkpt lat="43.12739" lon="-4.24986">
        <ele>1112.0</ele>
        <time>2018-05-19T15:11:44.457Z</time>
      </trkpt>
      <trkpt lat="43.12739" lon="-4.24986">
        <ele>1112.0</ele>
        <time>2018-05-19T15:11:45.504Z</time>
      </trkpt>
      <trkpt lat="43.127575" lon="-4.249725">
        <ele>1110.0</ele>
        <time>2018-05-19T15:11:46.453Z</time>
      </trkpt>
      <trkpt lat="43.127575" lon="-4.249725">
        <ele>1110.0</ele>
        <time>2018-05-19T15:11:47.479Z</time>
      </trkpt>
      <trkpt lat="43.127745" lon="-4.24956167">
        <ele>1108.0</ele>
        <time>2018-05-19T15:11:48.458Z</time>
      </trkpt>
      <trkpt lat="43.127745" lon="-4.24956167">
        <ele>1108.0</ele>
        <time>2018-05-19T15:11:49.507Z</time>
      </trkpt>
      <trkpt lat="43.12791333" lon="-4.24940667">
        <ele>1106.0</ele>
        <time>2018-05-19T15:11:50.456Z</time>
      </trkpt>
      <trkpt lat="43.12791333" lon="-4.24940667">
        <ele>1106.0</ele>
        <time>2018-05-19T15:11:51.486Z</time>
      </trkpt>
      <trkpt lat="43.12808" lon="-4.24926667">
        <ele>1105.0</ele>
        <time>2018-05-19T15:11:52.459Z</time>
      </trkpt>
      <trkpt lat="43.12808" lon="-4.24926667">
        <ele>1105.0</ele>
        <time>2018-05-19T15:11:53.506Z</time>
      </trkpt>
      <trkpt lat="43.12823" lon="-4.24913667">
        <ele>1103.0</ele>
        <time>2018-05-19T15:11:54.484Z</time>
      </trkpt>
      <trkpt lat="43.12829333" lon="-4.24906833">
        <ele>1102.0</ele>
        <time>2018-05-19T15:11:55.455Z</time>
      </trkpt>
      <trkpt lat="43.12835" lon="-4.24898833">
        <ele>1101.0</ele>
        <time>2018-05-19T15:11:56.457Z</time>
      </trkpt>
      <trkpt lat="43.12835" lon="-4.24898833">
        <ele>1101.0</ele>
        <time>2018-05-19T15:11:57.507Z</time>
      </trkpt>
      <trkpt lat="43.12844333" lon="-4.24881333">
        <ele>1099.0</ele>
        <time>2018-05-19T15:11:58.500Z</time>
      </trkpt>
      <trkpt lat="43.12844333" lon="-4.24881333">
        <ele>1099.0</ele>
        <time>2018-05-19T15:11:59.459Z</time>
      </trkpt>
      <trkpt lat="43.12854" lon="-4.248655">
        <ele>1098.0</ele>
        <time>2018-05-19T15:12:00.486Z</time>
      </trkpt>
      <trkpt lat="43.12854" lon="-4.248655">
        <ele>1098.0</ele>
        <time>2018-05-19T15:12:01.451Z</time>
      </trkpt>
      <trkpt lat="43.12866333" lon="-4.248605">
        <ele>1097.0</ele>
        <time>2018-05-19T15:12:02.501Z</time>
      </trkpt>
      <trkpt lat="43.12866333" lon="-4.248605">
        <ele>1097.0</ele>
        <time>2018-05-19T15:12:03.504Z</time>
      </trkpt>
      <trkpt lat="43.12879333" lon="-4.24863">
        <ele>1096.0</ele>
        <time>2018-05-19T15:12:04.486Z</time>
      </trkpt>
      <trkpt lat="43.128865" lon="-4.24865">
        <ele>1096.0</ele>
        <time>2018-05-19T15:12:05.462Z</time>
      </trkpt>
      <trkpt lat="43.128865" lon="-4.24865">
        <ele>1096.0</ele>
        <time>2018-05-19T15:12:06.505Z</time>
      </trkpt>
      <trkpt lat="43.12901" lon="-4.24870667">
        <ele>1094.0</ele>
        <time>2018-05-19T15:12:07.479Z</time>
      </trkpt>
      <trkpt lat="43.129085" lon="-4.248745">
        <ele>1093.0</ele>
        <time>2018-05-19T15:12:08.477Z</time>
      </trkpt>
      <trkpt lat="43.129085" lon="-4.248745">
        <ele>1093.0</ele>
        <time>2018-05-19T15:12:09.504Z</time>
      </trkpt>
      <trkpt lat="43.129235" lon="-4.24884">
        <ele>1092.0</ele>
        <time>2018-05-19T15:12:10.454Z</time>
      </trkpt>
      <trkpt lat="43.129235" lon="-4.24884">
        <ele>1092.0</ele>
        <time>2018-05-19T15:12:11.480Z</time>
      </trkpt>
      <trkpt lat="43.12939167" lon="-4.24894833">
        <ele>1090.0</ele>
        <time>2018-05-19T15:12:12.477Z</time>
      </trkpt>
      <trkpt lat="43.12939167" lon="-4.24894833">
        <ele>1090.0</ele>
        <time>2018-05-19T15:12:13.507Z</time>
      </trkpt>
      <trkpt lat="43.12955167" lon="-4.24905833">
        <ele>1089.0</ele>
        <time>2018-05-19T15:12:14.459Z</time>
      </trkpt>
      <trkpt lat="43.12955167" lon="-4.24905833">
        <ele>1089.0</ele>
        <time>2018-05-19T15:12:15.503Z</time>
      </trkpt>
      <trkpt lat="43.129715" lon="-4.24918167">
        <ele>1087.0</ele>
        <time>2018-05-19T15:12:16.455Z</time>
      </trkpt>
      <trkpt lat="43.129715" lon="-4.24918167">
        <ele>1087.0</ele>
        <time>2018-05-19T15:12:17.478Z</time>
      </trkpt>
      <trkpt lat="43.12988167" lon="-4.24931167">
        <ele>1086.0</ele>
        <time>2018-05-19T15:12:18.452Z</time>
      </trkpt>
      <trkpt lat="43.12988167" lon="-4.24931167">
        <ele>1086.0</ele>
        <time>2018-05-19T15:12:19.478Z</time>
      </trkpt>
      <trkpt lat="43.13006167" lon="-4.24941">
        <ele>1084.0</ele>
        <time>2018-05-19T15:12:20.463Z</time>
      </trkpt>
      <trkpt lat="43.13015667" lon="-4.24944833">
        <ele>1083.0</ele>
        <time>2018-05-19T15:12:21.486Z</time>
      </trkpt>
      <trkpt lat="43.13025167" lon="-4.24948167">
        <ele>1083.0</ele>
        <time>2018-05-19T15:12:22.454Z</time>
      </trkpt>
      <trkpt lat="43.13025167" lon="-4.24948167">
        <ele>1083.0</ele>
        <time>2018-05-19T15:12:23.469Z</time>
      </trkpt>
      <trkpt lat="43.13043" lon="-4.24952167">
        <ele>1082.0</ele>
        <time>2018-05-19T15:12:24.477Z</time>
      </trkpt>
      <trkpt lat="43.13043" lon="-4.24952167">
        <ele>1082.0</ele>
        <time>2018-05-19T15:12:25.482Z</time>
      </trkpt>
      <trkpt lat="43.130585" lon="-4.249475">
        <ele>1081.0</ele>
        <time>2018-05-19T15:12:26.479Z</time>
      </trkpt>
      <trkpt lat="43.130585" lon="-4.249475">
        <ele>1081.0</ele>
        <time>2018-05-19T15:12:27.506Z</time>
      </trkpt>
      <trkpt lat="43.13072667" lon="-4.24938667">
        <ele>1079.0</ele>
        <time>2018-05-19T15:12:28.456Z</time>
      </trkpt>
      <trkpt lat="43.13072667" lon="-4.24938667">
        <ele>1079.0</ele>
        <time>2018-05-19T15:12:29.506Z</time>
      </trkpt>
      <trkpt lat="43.13088167" lon="-4.24932833">
        <ele>1077.0</ele>
        <time>2018-05-19T15:12:30.479Z</time>
      </trkpt>
      <trkpt lat="43.13088167" lon="-4.24932833">
        <ele>1077.0</ele>
        <time>2018-05-19T15:12:31.506Z</time>
      </trkpt>
      <trkpt lat="43.13104" lon="-4.24933667">
        <ele>1076.0</ele>
        <time>2018-05-19T15:12:32.452Z</time>
      </trkpt>
      <trkpt lat="43.13104" lon="-4.24933667">
        <ele>1076.0</ele>
        <time>2018-05-19T15:12:33.478Z</time>
      </trkpt>
      <trkpt lat="43.13118333" lon="-4.24926833">
        <ele>1074.0</ele>
        <time>2018-05-19T15:12:34.456Z</time>
      </trkpt>
      <trkpt lat="43.13124833" lon="-4.24920333">
        <ele>1074.0</ele>
        <time>2018-05-19T15:12:35.479Z</time>
      </trkpt>
      <trkpt lat="43.13124833" lon="-4.24920333">
        <ele>1074.0</ele>
        <time>2018-05-19T15:12:36.506Z</time>
      </trkpt>
      <trkpt lat="43.13139" lon="-4.24907833">
        <ele>1072.0</ele>
        <time>2018-05-19T15:12:37.452Z</time>
      </trkpt>
      <trkpt lat="43.13146333" lon="-4.24901667">
        <ele>1072.0</ele>
        <time>2018-05-19T15:12:38.478Z</time>
      </trkpt>
      <trkpt lat="43.13146333" lon="-4.24901667">
        <ele>1072.0</ele>
        <time>2018-05-19T15:12:39.457Z</time>
      </trkpt>
      <trkpt lat="43.13160167" lon="-4.24890667">
        <ele>1070.0</ele>
        <time>2018-05-19T15:12:40.501Z</time>
      </trkpt>
      <trkpt lat="43.13160167" lon="-4.24890667">
        <ele>1070.0</ele>
        <time>2018-05-19T15:12:41.506Z</time>
      </trkpt>
      <trkpt lat="43.13174833" lon="-4.248895">
        <ele>1069.0</ele>
        <time>2018-05-19T15:12:42.479Z</time>
      </trkpt>
      <trkpt lat="43.13174833" lon="-4.248895">
        <ele>1069.0</ele>
        <time>2018-05-19T15:12:43.469Z</time>
      </trkpt>
      <trkpt lat="43.13188833" lon="-4.24898167">
        <ele>1068.0</ele>
        <time>2018-05-19T15:12:44.502Z</time>
      </trkpt>
      <trkpt lat="43.13188833" lon="-4.24898167">
        <ele>1068.0</ele>
        <time>2018-05-19T15:12:45.449Z</time>
      </trkpt>
      <trkpt lat="43.13201667" lon="-4.24911">
        <ele>1067.0</ele>
        <time>2018-05-19T15:12:46.477Z</time>
      </trkpt>
      <trkpt lat="43.13201667" lon="-4.24911">
        <ele>1067.0</ele>
        <time>2018-05-19T15:12:47.453Z</time>
      </trkpt>
      <trkpt lat="43.13217333" lon="-4.24918333">
        <ele>1065.0</ele>
        <time>2018-05-19T15:12:48.481Z</time>
      </trkpt>
      <trkpt lat="43.13217333" lon="-4.24918333">
        <ele>1065.0</ele>
        <time>2018-05-19T15:12:49.507Z</time>
      </trkpt>
      <trkpt lat="43.13233833" lon="-4.24917667">
        <ele>1064.0</ele>
        <time>2018-05-19T15:12:50.457Z</time>
      </trkpt>
      <trkpt lat="43.13233833" lon="-4.24917667">
        <ele>1064.0</ele>
        <time>2018-05-19T15:12:51.504Z</time>
      </trkpt>
      <trkpt lat="43.132505" lon="-4.24916667">
        <ele>1063.0</ele>
        <time>2018-05-19T15:12:52.454Z</time>
      </trkpt>
      <trkpt lat="43.132505" lon="-4.24916667">
        <ele>1063.0</ele>
        <time>2018-05-19T15:12:53.448Z</time>
      </trkpt>
      <trkpt lat="43.132675" lon="-4.24918167">
        <ele>1061.0</ele>
        <time>2018-05-19T15:12:54.471Z</time>
      </trkpt>
      <trkpt lat="43.132675" lon="-4.24918167">
        <ele>1061.0</ele>
        <time>2018-05-19T15:12:55.480Z</time>
      </trkpt>
      <trkpt lat="43.13284833" lon="-4.24922">
        <ele>1059.0</ele>
        <time>2018-05-19T15:12:56.465Z</time>
      </trkpt>
      <trkpt lat="43.13284833" lon="-4.24922">
        <ele>1059.0</ele>
        <time>2018-05-19T15:12:57.467Z</time>
      </trkpt>
      <trkpt lat="43.133025" lon="-4.249235">
        <ele>1058.0</ele>
        <time>2018-05-19T15:12:58.473Z</time>
      </trkpt>
      <trkpt lat="43.133025" lon="-4.249235">
        <ele>1058.0</ele>
        <time>2018-05-19T15:12:59.478Z</time>
      </trkpt>
      <trkpt lat="43.1332" lon="-4.24921167">
        <ele>1057.0</ele>
        <time>2018-05-19T15:13:00.454Z</time>
      </trkpt>
      <trkpt lat="43.1332" lon="-4.24921167">
        <ele>1057.0</ele>
        <time>2018-05-19T15:13:01.477Z</time>
      </trkpt>
      <trkpt lat="43.133365" lon="-4.24920833">
        <ele>1056.0</ele>
        <time>2018-05-19T15:13:02.452Z</time>
      </trkpt>
      <trkpt lat="43.133365" lon="-4.24920833">
        <ele>1056.0</ele>
        <time>2018-05-19T15:13:03.477Z</time>
      </trkpt>
      <trkpt lat="43.133505" lon="-4.249265">
        <ele>1057.0</ele>
        <time>2018-05-19T15:13:04.454Z</time>
      </trkpt>
      <trkpt lat="43.133505" lon="-4.249265">
        <ele>1057.0</ele>
        <time>2018-05-19T15:13:05.449Z</time>
      </trkpt>
      <trkpt lat="43.13359833" lon="-4.24940167">
        <ele>1056.0</ele>
        <time>2018-05-19T15:13:06.474Z</time>
      </trkpt>
      <trkpt lat="43.13362167" lon="-4.24949333">
        <ele>1056.0</ele>
        <time>2018-05-19T15:13:07.503Z</time>
      </trkpt>
      <trkpt lat="43.13363833" lon="-4.24958667">
        <ele>1055.0</ele>
        <time>2018-05-19T15:13:08.453Z</time>
      </trkpt>
      <trkpt lat="43.13363833" lon="-4.24958667">
        <ele>1055.0</ele>
        <time>2018-05-19T15:13:09.479Z</time>
      </trkpt>
      <trkpt lat="43.13366833" lon="-4.24977667">
        <ele>1054.0</ele>
        <time>2018-05-19T15:13:10.456Z</time>
      </trkpt>
      <trkpt lat="43.13366833" lon="-4.24977667">
        <ele>1054.0</ele>
        <time>2018-05-19T15:13:11.487Z</time>
      </trkpt>
      <trkpt lat="43.13371167" lon="-4.24993667">
        <ele>1054.0</ele>
        <time>2018-05-19T15:13:12.474Z</time>
      </trkpt>
      <trkpt lat="43.13371167" lon="-4.24993667">
        <ele>1054.0</ele>
        <time>2018-05-19T15:13:13.477Z</time>
      </trkpt>
      <trkpt lat="43.13378667" lon="-4.250055">
        <ele>1054.0</ele>
        <time>2018-05-19T15:13:14.451Z</time>
      </trkpt>
      <trkpt lat="43.13378667" lon="-4.250055">
        <ele>1054.0</ele>
        <time>2018-05-19T15:13:15.455Z</time>
      </trkpt>
      <trkpt lat="43.133885" lon="-4.25014333">
        <ele>1053.0</ele>
        <time>2018-05-19T15:13:16.503Z</time>
      </trkpt>
      <trkpt lat="43.133885" lon="-4.25014333">
        <ele>1053.0</ele>
        <time>2018-05-19T15:13:17.456Z</time>
      </trkpt>
      <trkpt lat="43.13398" lon="-4.250255">
        <ele>1052.0</ele>
        <time>2018-05-19T15:13:18.502Z</time>
      </trkpt>
      <trkpt lat="43.13398" lon="-4.250255">
        <ele>1052.0</ele>
        <time>2018-05-19T15:13:19.506Z</time>
      </trkpt>
      <trkpt lat="43.13407833" lon="-4.25037167">
        <ele>1051.0</ele>
        <time>2018-05-19T15:13:20.454Z</time>
      </trkpt>
      <trkpt lat="43.13407833" lon="-4.25037167">
        <ele>1051.0</ele>
        <time>2018-05-19T15:13:21.478Z</time>
      </trkpt>
      <trkpt lat="43.13418833" lon="-4.25050333">
        <ele>1049.0</ele>
        <time>2018-05-19T15:13:22.452Z</time>
      </trkpt>
      <trkpt lat="43.13418833" lon="-4.25050333">
        <ele>1049.0</ele>
        <time>2018-05-19T15:13:23.454Z</time>
      </trkpt>
      <trkpt lat="43.13431667" lon="-4.25063">
        <ele>1048.0</ele>
        <time>2018-05-19T15:13:24.497Z</time>
      </trkpt>
      <trkpt lat="43.13431667" lon="-4.25063">
        <ele>1048.0</ele>
        <time>2018-05-19T15:13:25.449Z</time>
      </trkpt>
      <trkpt lat="43.13445667" lon="-4.25074833">
        <ele>1046.0</ele>
        <time>2018-05-19T15:13:26.475Z</time>
      </trkpt>
      <trkpt lat="43.13452833" lon="-4.25080333">
        <ele>1046.0</ele>
        <time>2018-05-19T15:13:27.505Z</time>
      </trkpt>
      <trkpt lat="43.13459667" lon="-4.25085667">
        <ele>1045.0</ele>
        <time>2018-05-19T15:13:28.453Z</time>
      </trkpt>
      <trkpt lat="43.13459667" lon="-4.25085667">
        <ele>1045.0</ele>
        <time>2018-05-19T15:13:29.505Z</time>
      </trkpt>
      <trkpt lat="43.13472" lon="-4.25096">
        <ele>1044.0</ele>
        <time>2018-05-19T15:13:30.478Z</time>
      </trkpt>
      <trkpt lat="43.134765" lon="-4.25101667">
        <ele>1043.0</ele>
        <time>2018-05-19T15:13:31.454Z</time>
      </trkpt>
      <trkpt lat="43.13479667" lon="-4.25108667">
        <ele>1043.0</ele>
        <time>2018-05-19T15:13:32.500Z</time>
      </trkpt>
      <trkpt lat="43.13479667" lon="-4.25108667">
        <ele>1043.0</ele>
        <time>2018-05-19T15:13:33.453Z</time>
      </trkpt>
      <trkpt lat="43.13483833" lon="-4.251245">
        <ele>1041.0</ele>
        <time>2018-05-19T15:13:34.503Z</time>
      </trkpt>
      <trkpt lat="43.13483833" lon="-4.251245">
        <ele>1041.0</ele>
        <time>2018-05-19T15:13:35.464Z</time>
      </trkpt>
      <trkpt lat="43.13486167" lon="-4.25140833">
        <ele>1040.0</ele>
        <time>2018-05-19T15:13:36.472Z</time>
      </trkpt>
      <trkpt lat="43.13485667" lon="-4.25148833">
        <ele>1039.0</ele>
        <time>2018-05-19T15:13:37.473Z</time>
      </trkpt>
      <trkpt lat="43.13485667" lon="-4.25148833">
        <ele>1039.0</ele>
        <time>2018-05-19T15:13:38.452Z</time>
      </trkpt>
      <trkpt lat="43.13480667" lon="-4.25165167">
        <ele>1038.0</ele>
        <time>2018-05-19T15:13:39.479Z</time>
      </trkpt>
      <trkpt lat="43.13477667" lon="-4.25174">
        <ele>1037.0</ele>
        <time>2018-05-19T15:13:40.452Z</time>
      </trkpt>
      <trkpt lat="43.13477667" lon="-4.25174">
        <ele>1037.0</ele>
        <time>2018-05-19T15:13:41.478Z</time>
      </trkpt>
      <trkpt lat="43.134735" lon="-4.25193333">
        <ele>1036.0</ele>
        <time>2018-05-19T15:13:42.454Z</time>
      </trkpt>
      <trkpt lat="43.134735" lon="-4.25193333">
        <ele>1036.0</ele>
        <time>2018-05-19T15:13:43.449Z</time>
      </trkpt>
      <trkpt lat="43.13471" lon="-4.25213667">
        <ele>1034.0</ele>
        <time>2018-05-19T15:13:44.477Z</time>
      </trkpt>
      <trkpt lat="43.13471" lon="-4.25213667">
        <ele>1034.0</ele>
        <time>2018-05-19T15:13:45.450Z</time>
      </trkpt>
      <trkpt lat="43.13467667" lon="-4.25234">
        <ele>1032.0</ele>
        <time>2018-05-19T15:13:46.460Z</time>
      </trkpt>
      <trkpt lat="43.13467667" lon="-4.25234">
        <ele>1032.0</ele>
        <time>2018-05-19T15:13:47.507Z</time>
      </trkpt>
      <trkpt lat="43.13464333" lon="-4.25253167">
        <ele>1030.0</ele>
        <time>2018-05-19T15:13:48.502Z</time>
      </trkpt>
      <trkpt lat="43.13464333" lon="-4.25253167">
        <ele>1030.0</ele>
        <time>2018-05-19T15:13:49.506Z</time>
      </trkpt>
      <trkpt lat="43.13465167" lon="-4.25272167">
        <ele>1030.0</ele>
        <time>2018-05-19T15:13:50.452Z</time>
      </trkpt>
      <trkpt lat="43.13467667" lon="-4.25281">
        <ele>1029.0</ele>
        <time>2018-05-19T15:13:51.475Z</time>
      </trkpt>
      <trkpt lat="43.13467667" lon="-4.25281">
        <ele>1029.0</ele>
        <time>2018-05-19T15:13:52.478Z</time>
      </trkpt>
      <trkpt lat="43.13470667" lon="-4.252985">
        <ele>1028.0</ele>
        <time>2018-05-19T15:13:53.460Z</time>
      </trkpt>
      <trkpt lat="43.13470667" lon="-4.252985">
        <ele>1028.0</ele>
        <time>2018-05-19T15:13:54.505Z</time>
      </trkpt>
      <trkpt lat="43.13468833" lon="-4.25314667">
        <ele>1027.0</ele>
        <time>2018-05-19T15:13:55.502Z</time>
      </trkpt>
      <trkpt lat="43.13468833" lon="-4.25314667">
        <ele>1027.0</ele>
        <time>2018-05-19T15:13:56.474Z</time>
      </trkpt>
      <trkpt lat="43.134605" lon="-4.253255">
        <ele>1026.0</ele>
        <time>2018-05-19T15:13:57.476Z</time>
      </trkpt>
      <trkpt lat="43.13454833" lon="-4.25328333">
        <ele>1025.0</ele>
        <time>2018-05-19T15:13:58.472Z</time>
      </trkpt>
      <trkpt lat="43.13454833" lon="-4.25328333">
        <ele>1025.0</ele>
        <time>2018-05-19T15:13:59.469Z</time>
      </trkpt>
      <trkpt lat="43.13443167" lon="-4.25333167">
        <ele>1024.0</ele>
        <time>2018-05-19T15:14:00.448Z</time>
      </trkpt>
      <trkpt lat="43.13443167" lon="-4.25333167">
        <ele>1024.0</ele>
        <time>2018-05-19T15:14:01.476Z</time>
      </trkpt>
      <trkpt lat="43.13433333" lon="-4.25341833">
        <ele>1023.0</ele>
        <time>2018-05-19T15:14:02.451Z</time>
      </trkpt>
      <trkpt lat="43.13433333" lon="-4.25341833">
        <ele>1023.0</ele>
        <time>2018-05-19T15:14:03.475Z</time>
      </trkpt>
      <trkpt lat="43.134305" lon="-4.25357167">
        <ele>1022.0</ele>
        <time>2018-05-19T15:14:04.476Z</time>
      </trkpt>
      <trkpt lat="43.134305" lon="-4.25357167">
        <ele>1022.0</ele>
        <time>2018-05-19T15:14:05.480Z</time>
      </trkpt>
      <trkpt lat="43.13436167" lon="-4.253725">
        <ele>1020.0</ele>
        <time>2018-05-19T15:14:06.455Z</time>
      </trkpt>
      <trkpt lat="43.13436167" lon="-4.253725">
        <ele>1020.0</ele>
        <time>2018-05-19T15:14:07.479Z</time>
      </trkpt>
      <trkpt lat="43.13445333" lon="-4.253875">
        <ele>1019.0</ele>
        <time>2018-05-19T15:14:08.454Z</time>
      </trkpt>
      <trkpt lat="43.13445333" lon="-4.253875">
        <ele>1019.0</ele>
        <time>2018-05-19T15:14:09.453Z</time>
      </trkpt>
      <trkpt lat="43.134545" lon="-4.25404667">
        <ele>1017.0</ele>
        <time>2018-05-19T15:14:10.459Z</time>
      </trkpt>
      <trkpt lat="43.134545" lon="-4.25404667">
        <ele>1017.0</ele>
        <time>2018-05-19T15:14:11.464Z</time>
      </trkpt>
      <trkpt lat="43.13465167" lon="-4.25421833">
        <ele>1016.0</ele>
        <time>2018-05-19T15:14:12.502Z</time>
      </trkpt>
      <trkpt lat="43.13465167" lon="-4.25421833">
        <ele>1016.0</ele>
        <time>2018-05-19T15:14:13.506Z</time>
      </trkpt>
      <trkpt lat="43.13475667" lon="-4.25439333">
        <ele>1014.0</ele>
        <time>2018-05-19T15:14:14.453Z</time>
      </trkpt>
      <trkpt lat="43.13475667" lon="-4.25439333">
        <ele>1014.0</ele>
        <time>2018-05-19T15:14:15.480Z</time>
      </trkpt>
      <trkpt lat="43.13482333" lon="-4.25456833">
        <ele>1013.0</ele>
        <time>2018-05-19T15:14:16.474Z</time>
      </trkpt>
      <trkpt lat="43.13482333" lon="-4.25456833">
        <ele>1013.0</ele>
        <time>2018-05-19T15:14:17.478Z</time>
      </trkpt>
      <trkpt lat="43.13485" lon="-4.25475667">
        <ele>1012.0</ele>
        <time>2018-05-19T15:14:18.454Z</time>
      </trkpt>
      <trkpt lat="43.13485" lon="-4.25475667">
        <ele>1012.0</ele>
        <time>2018-05-19T15:14:19.478Z</time>
      </trkpt>
      <trkpt lat="43.13488333" lon="-4.25495667">
        <ele>1011.0</ele>
        <time>2018-05-19T15:14:20.474Z</time>
      </trkpt>
      <trkpt lat="43.13488333" lon="-4.25495667">
        <ele>1011.0</ele>
        <time>2018-05-19T15:14:21.478Z</time>
      </trkpt>
      <trkpt lat="43.13496" lon="-4.25514667">
        <ele>1010.0</ele>
        <time>2018-05-19T15:14:22.455Z</time>
      </trkpt>
      <trkpt lat="43.13496" lon="-4.25514667">
        <ele>1010.0</ele>
        <time>2018-05-19T15:14:23.505Z</time>
      </trkpt>
      <trkpt lat="43.13508167" lon="-4.255305">
        <ele>1008.0</ele>
        <time>2018-05-19T15:14:24.458Z</time>
      </trkpt>
      <trkpt lat="43.13514333" lon="-4.25538833">
        <ele>1008.0</ele>
        <time>2018-05-19T15:14:25.496Z</time>
      </trkpt>
      <trkpt lat="43.13514333" lon="-4.25538833">
        <ele>1008.0</ele>
        <time>2018-05-19T15:14:26.475Z</time>
      </trkpt>
      <trkpt lat="43.13527167" lon="-4.255555">
        <ele>1006.0</ele>
        <time>2018-05-19T15:14:27.448Z</time>
      </trkpt>
      <trkpt lat="43.13527167" lon="-4.255555">
        <ele>1006.0</ele>
        <time>2018-05-19T15:14:28.475Z</time>
      </trkpt>
      <trkpt lat="43.13540333" lon="-4.25571">
        <ele>1005.0</ele>
        <time>2018-05-19T15:14:29.479Z</time>
      </trkpt>
      <trkpt lat="43.13540333" lon="-4.25571">
        <ele>1005.0</ele>
        <time>2018-05-19T15:14:30.505Z</time>
      </trkpt>
      <trkpt lat="43.13553333" lon="-4.25584667">
        <ele>1003.0</ele>
        <time>2018-05-19T15:14:31.479Z</time>
      </trkpt>
      <trkpt lat="43.13553333" lon="-4.25584667">
        <ele>1003.0</ele>
        <time>2018-05-19T15:14:32.505Z</time>
      </trkpt>
      <trkpt lat="43.13568333" lon="-4.25589167">
        <ele>1002.0</ele>
        <time>2018-05-19T15:14:33.474Z</time>
      </trkpt>
      <trkpt lat="43.13575833" lon="-4.25590667">
        <ele>1002.0</ele>
        <time>2018-05-19T15:14:34.450Z</time>
      </trkpt>
      <trkpt lat="43.13575833" lon="-4.25590667">
        <ele>1002.0</ele>
        <time>2018-05-19T15:14:35.482Z</time>
      </trkpt>
      <trkpt lat="43.1359" lon="-4.25597833">
        <ele>1001.0</ele>
        <time>2018-05-19T15:14:36.456Z</time>
      </trkpt>
      <trkpt lat="43.1359" lon="-4.25597833">
        <ele>1001.0</ele>
        <time>2018-05-19T15:14:37.504Z</time>
      </trkpt>
      <trkpt lat="43.13602333" lon="-4.25610167">
        <ele>1000.0</ele>
        <time>2018-05-19T15:14:38.454Z</time>
      </trkpt>
      <trkpt lat="43.13602333" lon="-4.25610167">
        <ele>1000.0</ele>
        <time>2018-05-19T15:14:39.506Z</time>
      </trkpt>
      <trkpt lat="43.13613" lon="-4.25625">
        <ele>999.0</ele>
        <time>2018-05-19T15:14:40.484Z</time>
      </trkpt>
      <trkpt lat="43.13613" lon="-4.25625">
        <ele>999.0</ele>
        <time>2018-05-19T15:14:41.505Z</time>
      </trkpt>
      <trkpt lat="43.13619167" lon="-4.25643333">
        <ele>998.0</ele>
        <time>2018-05-19T15:14:42.500Z</time>
      </trkpt>
      <trkpt lat="43.13619167" lon="-4.25643333">
        <ele>998.0</ele>
        <time>2018-05-19T15:14:43.506Z</time>
      </trkpt>
      <trkpt lat="43.13626167" lon="-4.25659">
        <ele>997.0</ele>
        <time>2018-05-19T15:14:44.453Z</time>
      </trkpt>
      <trkpt lat="43.13626167" lon="-4.25659">
        <ele>997.0</ele>
        <time>2018-05-19T15:14:45.479Z</time>
      </trkpt>
      <trkpt lat="43.13637833" lon="-4.25668333">
        <ele>996.0</ele>
        <time>2018-05-19T15:14:46.499Z</time>
      </trkpt>
      <trkpt lat="43.13637833" lon="-4.25668333">
        <ele>996.0</ele>
        <time>2018-05-19T15:14:47.456Z</time>
      </trkpt>
      <trkpt lat="43.13650833" lon="-4.25666833">
        <ele>995.0</ele>
        <time>2018-05-19T15:14:48.501Z</time>
      </trkpt>
      <trkpt lat="43.13650833" lon="-4.25666833">
        <ele>995.0</ele>
        <time>2018-05-19T15:14:49.506Z</time>
      </trkpt>
      <trkpt lat="43.13663" lon="-4.25662333">
        <ele>993.0</ele>
        <time>2018-05-19T15:14:50.452Z</time>
      </trkpt>
      <trkpt lat="43.13663" lon="-4.25662333">
        <ele>993.0</ele>
        <time>2018-05-19T15:14:51.477Z</time>
      </trkpt>
      <trkpt lat="43.136735" lon="-4.25669167">
        <ele>992.0</ele>
        <time>2018-05-19T15:14:52.503Z</time>
      </trkpt>
      <trkpt lat="43.136735" lon="-4.25669167">
        <ele>992.0</ele>
        <time>2018-05-19T15:14:53.454Z</time>
      </trkpt>
      <trkpt lat="43.13680167" lon="-4.25683667">
        <ele>992.0</ele>
        <time>2018-05-19T15:14:54.503Z</time>
      </trkpt>
      <trkpt lat="43.13680167" lon="-4.25683667">
        <ele>992.0</ele>
        <time>2018-05-19T15:14:55.507Z</time>
      </trkpt>
      <trkpt lat="43.13689667" lon="-4.25694333">
        <ele>990.0</ele>
        <time>2018-05-19T15:14:56.460Z</time>
      </trkpt>
      <trkpt lat="43.13689667" lon="-4.25694333">
        <ele>990.0</ele>
        <time>2018-05-19T15:14:57.503Z</time>
      </trkpt>
      <trkpt lat="43.13702" lon="-4.25694833">
        <ele>989.0</ele>
        <time>2018-05-19T15:14:58.500Z</time>
      </trkpt>
      <trkpt lat="43.13702" lon="-4.25694833">
        <ele>989.0</ele>
        <time>2018-05-19T15:14:59.459Z</time>
      </trkpt>
      <trkpt lat="43.13714167" lon="-4.25698">
        <ele>989.0</ele>
        <time>2018-05-19T15:15:00.456Z</time>
      </trkpt>
      <trkpt lat="43.13714167" lon="-4.25698">
        <ele>989.0</ele>
        <time>2018-05-19T15:15:01.486Z</time>
      </trkpt>
      <trkpt lat="43.13724167" lon="-4.2571">
        <ele>988.0</ele>
        <time>2018-05-19T15:15:02.502Z</time>
      </trkpt>
      <trkpt lat="43.13724167" lon="-4.2571">
        <ele>988.0</ele>
        <time>2018-05-19T15:15:03.506Z</time>
      </trkpt>
      <trkpt lat="43.13734333" lon="-4.25724333">
        <ele>988.0</ele>
        <time>2018-05-19T15:15:04.502Z</time>
      </trkpt>
      <trkpt lat="43.13734333" lon="-4.25724333">
        <ele>988.0</ele>
        <time>2018-05-19T15:15:05.454Z</time>
      </trkpt>
      <trkpt lat="43.13745167" lon="-4.25739167">
        <ele>987.0</ele>
        <time>2018-05-19T15:15:06.503Z</time>
      </trkpt>
      <trkpt lat="43.13745167" lon="-4.25739167">
        <ele>987.0</ele>
        <time>2018-05-19T15:15:07.506Z</time>
      </trkpt>
      <trkpt lat="43.137555" lon="-4.25755333">
        <ele>985.0</ele>
        <time>2018-05-19T15:15:08.453Z</time>
      </trkpt>
      <trkpt lat="43.137555" lon="-4.25755333">
        <ele>985.0</ele>
        <time>2018-05-19T15:15:09.479Z</time>
      </trkpt>
      <trkpt lat="43.13766667" lon="-4.25771833">
        <ele>984.0</ele>
        <time>2018-05-19T15:15:10.475Z</time>
      </trkpt>
      <trkpt lat="43.13766667" lon="-4.25771833">
        <ele>984.0</ele>
        <time>2018-05-19T15:15:11.451Z</time>
      </trkpt>
      <trkpt lat="43.13778" lon="-4.25789833">
        <ele>982.0</ele>
        <time>2018-05-19T15:15:12.476Z</time>
      </trkpt>
      <trkpt lat="43.13778" lon="-4.25789833">
        <ele>982.0</ele>
        <time>2018-05-19T15:15:13.478Z</time>
      </trkpt>
      <trkpt lat="43.13789667" lon="-4.258085">
        <ele>981.0</ele>
        <time>2018-05-19T15:15:14.454Z</time>
      </trkpt>
      <trkpt lat="43.13789667" lon="-4.258085">
        <ele>981.0</ele>
        <time>2018-05-19T15:15:15.505Z</time>
      </trkpt>
      <trkpt lat="43.13799833" lon="-4.25829667">
        <ele>979.0</ele>
        <time>2018-05-19T15:15:16.502Z</time>
      </trkpt>
      <trkpt lat="43.13799833" lon="-4.25829667">
        <ele>979.0</ele>
        <time>2018-05-19T15:15:17.504Z</time>
      </trkpt>
      <trkpt lat="43.13807833" lon="-4.25853167">
        <ele>978.0</ele>
        <time>2018-05-19T15:15:18.478Z</time>
      </trkpt>
      <trkpt lat="43.13807833" lon="-4.25853167">
        <ele>978.0</ele>
        <time>2018-05-19T15:15:19.506Z</time>
      </trkpt>
      <trkpt lat="43.13818167" lon="-4.25873833">
        <ele>977.0</ele>
        <time>2018-05-19T15:15:20.502Z</time>
      </trkpt>
      <trkpt lat="43.13818167" lon="-4.25873833">
        <ele>977.0</ele>
        <time>2018-05-19T15:15:21.505Z</time>
      </trkpt>
      <trkpt lat="43.13830833" lon="-4.25891167">
        <ele>976.0</ele>
        <time>2018-05-19T15:15:22.479Z</time>
      </trkpt>
      <trkpt lat="43.13830833" lon="-4.25891167">
        <ele>976.0</ele>
        <time>2018-05-19T15:15:23.479Z</time>
      </trkpt>
      <trkpt lat="43.13841167" lon="-4.2591">
        <ele>975.0</ele>
        <time>2018-05-19T15:15:24.502Z</time>
      </trkpt>
      <trkpt lat="43.13841167" lon="-4.2591">
        <ele>975.0</ele>
        <time>2018-05-19T15:15:25.506Z</time>
      </trkpt>
      <trkpt lat="43.13850833" lon="-4.25930333">
        <ele>973.0</ele>
        <time>2018-05-19T15:15:26.459Z</time>
      </trkpt>
      <trkpt lat="43.13850833" lon="-4.25930333">
        <ele>973.0</ele>
        <time>2018-05-19T15:15:27.505Z</time>
      </trkpt>
      <trkpt lat="43.13864" lon="-4.25948333">
        <ele>971.0</ele>
        <time>2018-05-19T15:15:28.503Z</time>
      </trkpt>
      <trkpt lat="43.13864" lon="-4.25948333">
        <ele>971.0</ele>
        <time>2018-05-19T15:15:29.460Z</time>
      </trkpt>
      <trkpt lat="43.13877" lon="-4.25967167">
        <ele>970.0</ele>
        <time>2018-05-19T15:15:30.485Z</time>
      </trkpt>
      <trkpt lat="43.13883" lon="-4.25977167">
        <ele>969.0</ele>
        <time>2018-05-19T15:15:31.454Z</time>
      </trkpt>
      <trkpt lat="43.13883" lon="-4.25977167">
        <ele>969.0</ele>
        <time>2018-05-19T15:15:32.505Z</time>
      </trkpt>
      <trkpt lat="43.13895333" lon="-4.25998">
        <ele>967.0</ele>
        <time>2018-05-19T15:15:33.506Z</time>
      </trkpt>
      <trkpt lat="43.139015" lon="-4.260085">
        <ele>966.0</ele>
        <time>2018-05-19T15:15:34.454Z</time>
      </trkpt>
      <trkpt lat="43.139015" lon="-4.260085">
        <ele>966.0</ele>
        <time>2018-05-19T15:15:35.485Z</time>
      </trkpt>
      <trkpt lat="43.139145" lon="-4.260295">
        <ele>965.0</ele>
        <time>2018-05-19T15:15:36.468Z</time>
      </trkpt>
      <trkpt lat="43.139145" lon="-4.260295">
        <ele>965.0</ele>
        <time>2018-05-19T15:15:37.473Z</time>
      </trkpt>
      <trkpt lat="43.13927833" lon="-4.260505">
        <ele>963.0</ele>
        <time>2018-05-19T15:15:38.476Z</time>
      </trkpt>
      <trkpt lat="43.13927833" lon="-4.260505">
        <ele>963.0</ele>
        <time>2018-05-19T15:15:39.506Z</time>
      </trkpt>
      <trkpt lat="43.139425" lon="-4.26070333">
        <ele>961.0</ele>
        <time>2018-05-19T15:15:40.453Z</time>
      </trkpt>
      <trkpt lat="43.139425" lon="-4.26070333">
        <ele>961.0</ele>
        <time>2018-05-19T15:15:41.505Z</time>
      </trkpt>
      <trkpt lat="43.13958167" lon="-4.26089833">
        <ele>959.0</ele>
        <time>2018-05-19T15:15:42.502Z</time>
      </trkpt>
      <trkpt lat="43.13958167" lon="-4.26089833">
        <ele>959.0</ele>
        <time>2018-05-19T15:15:43.506Z</time>
      </trkpt>
      <trkpt lat="43.13974833" lon="-4.26108167">
        <ele>957.0</ele>
        <time>2018-05-19T15:15:44.448Z</time>
      </trkpt>
      <trkpt lat="43.13974833" lon="-4.26108167">
        <ele>957.0</ele>
        <time>2018-05-19T15:15:45.470Z</time>
      </trkpt>
      <trkpt lat="43.13992333" lon="-4.261265">
        <ele>956.0</ele>
        <time>2018-05-19T15:15:46.475Z</time>
      </trkpt>
      <trkpt lat="43.13992333" lon="-4.261265">
        <ele>956.0</ele>
        <time>2018-05-19T15:15:47.505Z</time>
      </trkpt>
      <trkpt lat="43.14009833" lon="-4.26144833">
        <ele>954.0</ele>
        <time>2018-05-19T15:15:48.502Z</time>
      </trkpt>
      <trkpt lat="43.14009833" lon="-4.26144833">
        <ele>954.0</ele>
        <time>2018-05-19T15:15:49.506Z</time>
      </trkpt>
      <trkpt lat="43.14027667" lon="-4.26161667">
        <ele>952.0</ele>
        <time>2018-05-19T15:15:50.453Z</time>
      </trkpt>
      <trkpt lat="43.14027667" lon="-4.26161667">
        <ele>952.0</ele>
        <time>2018-05-19T15:15:51.474Z</time>
      </trkpt>
      <trkpt lat="43.14045667" lon="-4.261765">
        <ele>950.0</ele>
        <time>2018-05-19T15:15:52.468Z</time>
      </trkpt>
      <trkpt lat="43.14045667" lon="-4.261765">
        <ele>950.0</ele>
        <time>2018-05-19T15:15:53.504Z</time>
      </trkpt>
      <trkpt lat="43.140635" lon="-4.26188">
        <ele>948.0</ele>
        <time>2018-05-19T15:15:54.479Z</time>
      </trkpt>
      <trkpt lat="43.140635" lon="-4.26188">
        <ele>948.0</ele>
        <time>2018-05-19T15:15:55.511Z</time>
      </trkpt>
      <trkpt lat="43.14082333" lon="-4.26194333">
        <ele>947.0</ele>
        <time>2018-05-19T15:15:56.448Z</time>
      </trkpt>
      <trkpt lat="43.14082333" lon="-4.26194333">
        <ele>947.0</ele>
        <time>2018-05-19T15:15:57.470Z</time>
      </trkpt>
      <trkpt lat="43.14101333" lon="-4.26196667">
        <ele>946.0</ele>
        <time>2018-05-19T15:15:58.479Z</time>
      </trkpt>
      <trkpt lat="43.14101333" lon="-4.26196667">
        <ele>946.0</ele>
        <time>2018-05-19T15:15:59.469Z</time>
      </trkpt>
      <trkpt lat="43.14119667" lon="-4.26195167">
        <ele>944.0</ele>
        <time>2018-05-19T15:16:00.473Z</time>
      </trkpt>
      <trkpt lat="43.14119667" lon="-4.26195167">
        <ele>944.0</ele>
        <time>2018-05-19T15:16:01.478Z</time>
      </trkpt>
      <trkpt lat="43.14138667" lon="-4.26189">
        <ele>943.0</ele>
        <time>2018-05-19T15:16:02.454Z</time>
      </trkpt>
      <trkpt lat="43.14138667" lon="-4.26189">
        <ele>943.0</ele>
        <time>2018-05-19T15:16:03.506Z</time>
      </trkpt>
      <trkpt lat="43.141565" lon="-4.26181167">
        <ele>942.0</ele>
        <time>2018-05-19T15:16:04.452Z</time>
      </trkpt>
      <trkpt lat="43.141565" lon="-4.26181167">
        <ele>942.0</ele>
        <time>2018-05-19T15:16:05.480Z</time>
      </trkpt>
      <trkpt lat="43.14173167" lon="-4.261725">
        <ele>940.0</ele>
        <time>2018-05-19T15:16:06.468Z</time>
      </trkpt>
      <trkpt lat="43.14173167" lon="-4.261725">
        <ele>940.0</ele>
        <time>2018-05-19T15:16:07.467Z</time>
      </trkpt>
      <trkpt lat="43.141895" lon="-4.26167333">
        <ele>939.0</ele>
        <time>2018-05-19T15:16:08.474Z</time>
      </trkpt>
      <trkpt lat="43.141895" lon="-4.26167333">
        <ele>939.0</ele>
        <time>2018-05-19T15:16:09.478Z</time>
      </trkpt>
      <trkpt lat="43.14205833" lon="-4.26169167">
        <ele>937.0</ele>
        <time>2018-05-19T15:16:10.503Z</time>
      </trkpt>
      <trkpt lat="43.14205833" lon="-4.26169167">
        <ele>937.0</ele>
        <time>2018-05-19T15:16:11.457Z</time>
      </trkpt>
      <trkpt lat="43.14221167" lon="-4.26174333">
        <ele>936.0</ele>
        <time>2018-05-19T15:16:12.502Z</time>
      </trkpt>
      <trkpt lat="43.14221167" lon="-4.26174333">
        <ele>936.0</ele>
        <time>2018-05-19T15:16:13.506Z</time>
      </trkpt>
      <trkpt lat="43.14235" lon="-4.26171833">
        <ele>934.0</ele>
        <time>2018-05-19T15:16:14.453Z</time>
      </trkpt>
      <trkpt lat="43.14235" lon="-4.26171833">
        <ele>934.0</ele>
        <time>2018-05-19T15:16:15.478Z</time>
      </trkpt>
      <trkpt lat="43.14246" lon="-4.26159667">
        <ele>933.0</ele>
        <time>2018-05-19T15:16:16.453Z</time>
      </trkpt>
      <trkpt lat="43.14246" lon="-4.26159667">
        <ele>933.0</ele>
        <time>2018-05-19T15:16:17.476Z</time>
      </trkpt>
      <trkpt lat="43.14256833" lon="-4.26144333">
        <ele>932.0</ele>
        <time>2018-05-19T15:16:18.476Z</time>
      </trkpt>
      <trkpt lat="43.14262" lon="-4.26135833">
        <ele>931.0</ele>
        <time>2018-05-19T15:16:19.462Z</time>
      </trkpt>
      <trkpt lat="43.14262" lon="-4.26135833">
        <ele>931.0</ele>
        <time>2018-05-19T15:16:20.505Z</time>
      </trkpt>
      <trkpt lat="43.14271167" lon="-4.26117833">
        <ele>930.0</ele>
        <time>2018-05-19T15:16:21.478Z</time>
      </trkpt>
      <trkpt lat="43.14271167" lon="-4.26117833">
        <ele>930.0</ele>
        <time>2018-05-19T15:16:22.504Z</time>
      </trkpt>
      <trkpt lat="43.14280333" lon="-4.26100333">
        <ele>929.0</ele>
        <time>2018-05-19T15:16:23.458Z</time>
      </trkpt>
      <trkpt lat="43.14280333" lon="-4.26100333">
        <ele>929.0</ele>
        <time>2018-05-19T15:16:24.458Z</time>
      </trkpt>
      <trkpt lat="43.14289" lon="-4.26083833">
        <ele>928.0</ele>
        <time>2018-05-19T15:16:25.506Z</time>
      </trkpt>
      <trkpt lat="43.14294" lon="-4.26076167">
        <ele>927.0</ele>
        <time>2018-05-19T15:16:26.453Z</time>
      </trkpt>
      <trkpt lat="43.14294" lon="-4.26076167">
        <ele>927.0</ele>
        <time>2018-05-19T15:16:27.475Z</time>
      </trkpt>
      <trkpt lat="43.143045" lon="-4.260625">
        <ele>925.0</ele>
        <time>2018-05-19T15:16:28.476Z</time>
      </trkpt>
      <trkpt lat="43.143045" lon="-4.260625">
        <ele>925.0</ele>
        <time>2018-05-19T15:16:29.505Z</time>
      </trkpt>
      <trkpt lat="43.14315667" lon="-4.26050667">
        <ele>924.0</ele>
        <time>2018-05-19T15:16:30.485Z</time>
      </trkpt>
      <trkpt lat="43.14320667" lon="-4.26044167">
        <ele>923.0</ele>
        <time>2018-05-19T15:16:31.459Z</time>
      </trkpt>
      <trkpt lat="43.14320667" lon="-4.26044167">
        <ele>923.0</ele>
        <time>2018-05-19T15:16:32.505Z</time>
      </trkpt>
      <trkpt lat="43.14330167" lon="-4.26031167">
        <ele>922.0</ele>
        <time>2018-05-19T15:16:33.505Z</time>
      </trkpt>
      <trkpt lat="43.14335" lon="-4.26025333">
        <ele>921.0</ele>
        <time>2018-05-19T15:16:34.501Z</time>
      </trkpt>
      <trkpt lat="43.14335" lon="-4.26025333">
        <ele>921.0</ele>
        <time>2018-05-19T15:16:35.502Z</time>
      </trkpt>
      <trkpt lat="43.14346833" lon="-4.26019333">
        <ele>919.0</ele>
        <time>2018-05-19T15:16:36.497Z</time>
      </trkpt>
      <trkpt lat="43.14346833" lon="-4.26019333">
        <ele>919.0</ele>
        <time>2018-05-19T15:16:37.454Z</time>
      </trkpt>
      <trkpt lat="43.14360333" lon="-4.2602">
        <ele>918.0</ele>
        <time>2018-05-19T15:16:38.477Z</time>
      </trkpt>
      <trkpt lat="43.14360333" lon="-4.2602">
        <ele>918.0</ele>
        <time>2018-05-19T15:16:39.505Z</time>
      </trkpt>
      <trkpt lat="43.14374" lon="-4.26023167">
        <ele>917.0</ele>
        <time>2018-05-19T15:16:40.502Z</time>
      </trkpt>
      <trkpt lat="43.14374" lon="-4.26023167">
        <ele>917.0</ele>
        <time>2018-05-19T15:16:41.504Z</time>
      </trkpt>
      <trkpt lat="43.14387833" lon="-4.26027333">
        <ele>916.0</ele>
        <time>2018-05-19T15:16:42.478Z</time>
      </trkpt>
      <trkpt lat="43.143945" lon="-4.26030167">
        <ele>915.0</ele>
        <time>2018-05-19T15:16:43.474Z</time>
      </trkpt>
      <trkpt lat="43.14401" lon="-4.26033833">
        <ele>915.0</ele>
        <time>2018-05-19T15:16:44.502Z</time>
      </trkpt>
      <trkpt lat="43.14401" lon="-4.26033833">
        <ele>915.0</ele>
        <time>2018-05-19T15:16:45.505Z</time>
      </trkpt>
      <trkpt lat="43.144135" lon="-4.26045333">
        <ele>914.0</ele>
        <time>2018-05-19T15:16:46.484Z</time>
      </trkpt>
      <trkpt lat="43.144135" lon="-4.26045333">
        <ele>914.0</ele>
        <time>2018-05-19T15:16:47.451Z</time>
      </trkpt>
      <trkpt lat="43.14425" lon="-4.260585">
        <ele>913.0</ele>
        <time>2018-05-19T15:16:48.501Z</time>
      </trkpt>
      <trkpt lat="43.144355" lon="-4.26071833">
        <ele>911.0</ele>
        <time>2018-05-19T15:16:49.506Z</time>
      </trkpt>
      <trkpt lat="43.144355" lon="-4.26071833">
        <ele>911.0</ele>
        <time>2018-05-19T15:16:50.456Z</time>
      </trkpt>
      <trkpt lat="43.144355" lon="-4.26071833">
        <ele>911.0</ele>
        <time>2018-05-19T15:16:51.505Z</time>
      </trkpt>
      <trkpt lat="43.14443333" lon="-4.26084333">
        <ele>910.0</ele>
        <time>2018-05-19T15:16:52.452Z</time>
      </trkpt>
      <trkpt lat="43.14443333" lon="-4.26084333">
        <ele>910.0</ele>
        <time>2018-05-19T15:16:53.478Z</time>
      </trkpt>
      <trkpt lat="43.144505" lon="-4.26089833">
        <ele>909.0</ele>
        <time>2018-05-19T15:16:54.453Z</time>
      </trkpt>
      <trkpt lat="43.144505" lon="-4.26089833">
        <ele>909.0</ele>
        <time>2018-05-19T15:16:55.541Z</time>
      </trkpt>
      <trkpt lat="43.14453667" lon="-4.260845">
        <ele>907.0</ele>
        <time>2018-05-19T15:16:56.474Z</time>
      </trkpt>
      <trkpt lat="43.14453667" lon="-4.260845">
        <ele>907.0</ele>
        <time>2018-05-19T15:16:57.479Z</time>
      </trkpt>
      <trkpt lat="43.14451333" lon="-4.26076667">
        <ele>907.0</ele>
        <time>2018-05-19T15:16:58.476Z</time>
      </trkpt>
      <trkpt lat="43.14451333" lon="-4.26076667">
        <ele>907.0</ele>
        <time>2018-05-19T15:16:59.504Z</time>
      </trkpt>
      <trkpt lat="43.144455" lon="-4.26068833">
        <ele>907.0</ele>
        <time>2018-05-19T15:17:00.486Z</time>
      </trkpt>
      <trkpt lat="43.144455" lon="-4.26068833">
        <ele>907.0</ele>
        <time>2018-05-19T15:17:01.506Z</time>
      </trkpt>
      <trkpt lat="43.144385" lon="-4.2606">
        <ele>907.0</ele>
        <time>2018-05-19T15:17:02.453Z</time>
      </trkpt>
      <trkpt lat="43.144385" lon="-4.2606">
        <ele>907.0</ele>
        <time>2018-05-19T15:17:03.503Z</time>
      </trkpt>
      <trkpt lat="43.14431667" lon="-4.26049333">
        <ele>907.0</ele>
        <time>2018-05-19T15:17:04.498Z</time>
      </trkpt>
      <trkpt lat="43.14431667" lon="-4.26049333">
        <ele>907.0</ele>
        <time>2018-05-19T15:17:05.505Z</time>
      </trkpt>
      <trkpt lat="43.14425" lon="-4.26037333">
        <ele>907.0</ele>
        <time>2018-05-19T15:17:06.501Z</time>
      </trkpt>
      <trkpt lat="43.14425" lon="-4.26037333">
        <ele>907.0</ele>
        <time>2018-05-19T15:17:07.457Z</time>
      </trkpt>
      <trkpt lat="43.144185" lon="-4.26024">
        <ele>906.0</ele>
        <time>2018-05-19T15:17:08.502Z</time>
      </trkpt>
      <trkpt lat="43.144185" lon="-4.26024">
        <ele>906.0</ele>
        <time>2018-05-19T15:17:09.505Z</time>
      </trkpt>
      <trkpt lat="43.14410833" lon="-4.26010667">
        <ele>906.0</ele>
        <time>2018-05-19T15:17:10.500Z</time>
      </trkpt>
      <trkpt lat="43.14410833" lon="-4.26010667">
        <ele>906.0</ele>
        <time>2018-05-19T15:17:11.504Z</time>
      </trkpt>
      <trkpt lat="43.14402833" lon="-4.259985">
        <ele>906.0</ele>
        <time>2018-05-19T15:17:12.478Z</time>
      </trkpt>
      <trkpt lat="43.14402833" lon="-4.259985">
        <ele>906.0</ele>
        <time>2018-05-19T15:17:13.453Z</time>
      </trkpt>
      <trkpt lat="43.143945" lon="-4.25987">
        <ele>906.0</ele>
        <time>2018-05-19T15:17:14.502Z</time>
      </trkpt>
      <trkpt lat="43.143945" lon="-4.25987">
        <ele>906.0</ele>
        <time>2018-05-19T15:17:15.485Z</time>
      </trkpt>
      <trkpt lat="43.143855" lon="-4.25976333">
        <ele>905.0</ele>
        <time>2018-05-19T15:17:16.456Z</time>
      </trkpt>
      <trkpt lat="43.143855" lon="-4.25976333">
        <ele>905.0</ele>
        <time>2018-05-19T15:17:17.504Z</time>
      </trkpt>
      <trkpt lat="43.143745" lon="-4.25969333">
        <ele>906.0</ele>
        <time>2018-05-19T15:17:18.479Z</time>
      </trkpt>
      <trkpt lat="43.14368833" lon="-4.25966833">
        <ele>906.0</ele>
        <time>2018-05-19T15:17:19.504Z</time>
      </trkpt>
      <trkpt lat="43.14368833" lon="-4.25966833">
        <ele>906.0</ele>
        <time>2018-05-19T15:17:20.504Z</time>
      </trkpt>
      <trkpt lat="43.14357333" lon="-4.25962167">
        <ele>906.0</ele>
        <time>2018-05-19T15:17:21.475Z</time>
      </trkpt>
      <trkpt lat="43.14351833" lon="-4.25959833">
        <ele>906.0</ele>
        <time>2018-05-19T15:17:22.452Z</time>
      </trkpt>
      <trkpt lat="43.14351833" lon="-4.25959833">
        <ele>906.0</ele>
        <time>2018-05-19T15:17:23.479Z</time>
      </trkpt>
      <trkpt lat="43.14342333" lon="-4.25951667">
        <ele>906.0</ele>
        <time>2018-05-19T15:17:24.488Z</time>
      </trkpt>
      <trkpt lat="43.14342333" lon="-4.25951667">
        <ele>906.0</ele>
        <time>2018-05-19T15:17:25.458Z</time>
      </trkpt>
      <trkpt lat="43.14335833" lon="-4.25937833">
        <ele>905.0</ele>
        <time>2018-05-19T15:17:26.464Z</time>
      </trkpt>
      <trkpt lat="43.14335833" lon="-4.25937833">
        <ele>905.0</ele>
        <time>2018-05-19T15:17:27.463Z</time>
      </trkpt>
      <trkpt lat="43.14330833" lon="-4.25921833">
        <ele>905.0</ele>
        <time>2018-05-19T15:17:28.472Z</time>
      </trkpt>
      <trkpt lat="43.14327833" lon="-4.25913667">
        <ele>904.0</ele>
        <time>2018-05-19T15:17:29.502Z</time>
      </trkpt>
      <trkpt lat="43.14327833" lon="-4.25913667">
        <ele>904.0</ele>
        <time>2018-05-19T15:17:30.504Z</time>
      </trkpt>
      <trkpt lat="43.14323" lon="-4.25895333">
        <ele>902.0</ele>
        <time>2018-05-19T15:17:31.463Z</time>
      </trkpt>
      <trkpt lat="43.143215" lon="-4.25885833">
        <ele>901.0</ele>
        <time>2018-05-19T15:17:32.470Z</time>
      </trkpt>
      <trkpt lat="43.143215" lon="-4.25885833">
        <ele>901.0</ele>
        <time>2018-05-19T15:17:33.475Z</time>
      </trkpt>
      <trkpt lat="43.14316167" lon="-4.25869333">
        <ele>900.0</ele>
        <time>2018-05-19T15:17:34.462Z</time>
      </trkpt>
      <trkpt lat="43.14316167" lon="-4.25869333">
        <ele>900.0</ele>
        <time>2018-05-19T15:17:35.465Z</time>
      </trkpt>
      <trkpt lat="43.14307167" lon="-4.25863167">
        <ele>899.0</ele>
        <time>2018-05-19T15:17:36.504Z</time>
      </trkpt>
      <trkpt lat="43.143015" lon="-4.25863">
        <ele>898.0</ele>
        <time>2018-05-19T15:17:37.451Z</time>
      </trkpt>
      <trkpt lat="43.143015" lon="-4.25863">
        <ele>898.0</ele>
        <time>2018-05-19T15:17:38.476Z</time>
      </trkpt>
      <trkpt lat="43.14288833" lon="-4.258655">
        <ele>898.0</ele>
        <time>2018-05-19T15:17:39.459Z</time>
      </trkpt>
      <trkpt lat="43.14282167" lon="-4.25868167">
        <ele>898.0</ele>
        <time>2018-05-19T15:17:40.484Z</time>
      </trkpt>
      <trkpt lat="43.14275333" lon="-4.258715">
        <ele>897.0</ele>
        <time>2018-05-19T15:17:41.457Z</time>
      </trkpt>
      <trkpt lat="43.14275333" lon="-4.258715">
        <ele>897.0</ele>
        <time>2018-05-19T15:17:42.505Z</time>
      </trkpt>
      <trkpt lat="43.14262333" lon="-4.25881833">
        <ele>896.0</ele>
        <time>2018-05-19T15:17:43.507Z</time>
      </trkpt>
      <trkpt lat="43.142565" lon="-4.258885">
        <ele>896.0</ele>
        <time>2018-05-19T15:17:44.502Z</time>
      </trkpt>
      <trkpt lat="43.142565" lon="-4.258885">
        <ele>896.0</ele>
        <time>2018-05-19T15:17:45.505Z</time>
      </trkpt>
      <trkpt lat="43.14246833" lon="-4.25901167">
        <ele>895.0</ele>
        <time>2018-05-19T15:17:46.502Z</time>
      </trkpt>
      <trkpt lat="43.14246833" lon="-4.25901167">
        <ele>895.0</ele>
        <time>2018-05-19T15:17:47.484Z</time>
      </trkpt>
      <trkpt lat="43.14238333" lon="-4.25908">
        <ele>894.0</ele>
        <time>2018-05-19T15:17:48.452Z</time>
      </trkpt>
      <trkpt lat="43.14238333" lon="-4.25908">
        <ele>894.0</ele>
        <time>2018-05-19T15:17:49.477Z</time>
      </trkpt>
      <trkpt lat="43.142305" lon="-4.25906333">
        <ele>894.0</ele>
        <time>2018-05-19T15:17:50.478Z</time>
      </trkpt>
      <trkpt lat="43.142305" lon="-4.25906333">
        <ele>894.0</ele>
        <time>2018-05-19T15:17:51.486Z</time>
      </trkpt>
      <trkpt lat="43.14227" lon="-4.25896">
        <ele>894.0</ele>
        <time>2018-05-19T15:17:52.455Z</time>
      </trkpt>
      <trkpt lat="43.14227" lon="-4.25896">
        <ele>894.0</ele>
        <time>2018-05-19T15:17:53.477Z</time>
      </trkpt>
      <trkpt lat="43.14231667" lon="-4.25881167">
        <ele>894.0</ele>
        <time>2018-05-19T15:17:54.472Z</time>
      </trkpt>
      <trkpt lat="43.14231667" lon="-4.25881167">
        <ele>894.0</ele>
        <time>2018-05-19T15:17:55.478Z</time>
      </trkpt>
      <trkpt lat="43.14238667" lon="-4.258655">
        <ele>893.0</ele>
        <time>2018-05-19T15:17:56.460Z</time>
      </trkpt>
      <trkpt lat="43.14238667" lon="-4.258655">
        <ele>893.0</ele>
        <time>2018-05-19T15:17:57.483Z</time>
      </trkpt>
      <trkpt lat="43.14247333" lon="-4.25848833">
        <ele>893.0</ele>
        <time>2018-05-19T15:17:58.453Z</time>
      </trkpt>
      <trkpt lat="43.14247333" lon="-4.25848833">
        <ele>893.0</ele>
        <time>2018-05-19T15:17:59.504Z</time>
      </trkpt>
      <trkpt lat="43.14258167" lon="-4.25833333">
        <ele>892.0</ele>
        <time>2018-05-19T15:18:00.478Z</time>
      </trkpt>
      <trkpt lat="43.14258167" lon="-4.25833333">
        <ele>892.0</ele>
        <time>2018-05-19T15:18:01.505Z</time>
      </trkpt>
      <trkpt lat="43.14270833" lon="-4.25820333">
        <ele>892.0</ele>
        <time>2018-05-19T15:18:02.499Z</time>
      </trkpt>
      <trkpt lat="43.14270833" lon="-4.25820333">
        <ele>892.0</ele>
        <time>2018-05-19T15:18:03.505Z</time>
      </trkpt>
      <trkpt lat="43.14283333" lon="-4.25806833">
        <ele>892.0</ele>
        <time>2018-05-19T15:18:04.502Z</time>
      </trkpt>
      <trkpt lat="43.14283333" lon="-4.25806833">
        <ele>892.0</ele>
        <time>2018-05-19T15:18:05.456Z</time>
      </trkpt>
      <trkpt lat="43.14294167" lon="-4.257915">
        <ele>891.0</ele>
        <time>2018-05-19T15:18:06.499Z</time>
      </trkpt>
      <trkpt lat="43.14294167" lon="-4.257915">
        <ele>891.0</ele>
        <time>2018-05-19T15:18:07.484Z</time>
      </trkpt>
      <trkpt lat="43.14303" lon="-4.25774667">
        <ele>890.0</ele>
        <time>2018-05-19T15:18:08.476Z</time>
      </trkpt>
      <trkpt lat="43.14303" lon="-4.25774667">
        <ele>890.0</ele>
        <time>2018-05-19T15:18:09.479Z</time>
      </trkpt>
      <trkpt lat="43.143105" lon="-4.25755">
        <ele>888.0</ele>
        <time>2018-05-19T15:18:10.485Z</time>
      </trkpt>
      <trkpt lat="43.143105" lon="-4.25755">
        <ele>888.0</ele>
        <time>2018-05-19T15:18:11.465Z</time>
      </trkpt>
      <trkpt lat="43.14316167" lon="-4.25732333">
        <ele>886.0</ele>
        <time>2018-05-19T15:18:12.505Z</time>
      </trkpt>
      <trkpt lat="43.14318" lon="-4.25719833">
        <ele>885.0</ele>
        <time>2018-05-19T15:18:13.452Z</time>
      </trkpt>
      <trkpt lat="43.14319833" lon="-4.25706833">
        <ele>884.0</ele>
        <time>2018-05-19T15:18:14.477Z</time>
      </trkpt>
      <trkpt lat="43.14321833" lon="-4.25693667">
        <ele>883.0</ele>
        <time>2018-05-19T15:18:15.453Z</time>
      </trkpt>
      <trkpt lat="43.14321833" lon="-4.25693667">
        <ele>883.0</ele>
        <time>2018-05-19T15:18:16.474Z</time>
      </trkpt>
      <trkpt lat="43.14326667" lon="-4.25667333">
        <ele>882.0</ele>
        <time>2018-05-19T15:18:17.448Z</time>
      </trkpt>
      <trkpt lat="43.14326667" lon="-4.25667333">
        <ele>882.0</ele>
        <time>2018-05-19T15:18:18.467Z</time>
      </trkpt>
      <trkpt lat="43.14331333" lon="-4.25642333">
        <ele>881.0</ele>
        <time>2018-05-19T15:18:19.449Z</time>
      </trkpt>
      <trkpt lat="43.14331333" lon="-4.25642333">
        <ele>881.0</ele>
        <time>2018-05-19T15:18:20.474Z</time>
      </trkpt>
      <trkpt lat="43.143375" lon="-4.25618333">
        <ele>879.0</ele>
        <time>2018-05-19T15:18:21.475Z</time>
      </trkpt>
      <trkpt lat="43.14341333" lon="-4.25607167">
        <ele>879.0</ele>
        <time>2018-05-19T15:18:22.449Z</time>
      </trkpt>
      <trkpt lat="43.14341333" lon="-4.25607167">
        <ele>879.0</ele>
        <time>2018-05-19T15:18:23.464Z</time>
      </trkpt>
      <trkpt lat="43.14348333" lon="-4.25585667">
        <ele>877.0</ele>
        <time>2018-05-19T15:18:24.472Z</time>
      </trkpt>
      <trkpt lat="43.14348333" lon="-4.25585667">
        <ele>877.0</ele>
        <time>2018-05-19T15:18:25.475Z</time>
      </trkpt>
      <trkpt lat="43.14352667" lon="-4.25564">
        <ele>876.0</ele>
        <time>2018-05-19T15:18:26.472Z</time>
      </trkpt>
      <trkpt lat="43.14352667" lon="-4.25564">
        <ele>876.0</ele>
        <time>2018-05-19T15:18:27.466Z</time>
      </trkpt>
      <trkpt lat="43.14358167" lon="-4.25543667">
        <ele>875.0</ele>
        <time>2018-05-19T15:18:28.457Z</time>
      </trkpt>
      <trkpt lat="43.14358167" lon="-4.25543667">
        <ele>875.0</ele>
        <time>2018-05-19T15:18:29.504Z</time>
      </trkpt>
      <trkpt lat="43.14368167" lon="-4.25528333">
        <ele>874.0</ele>
        <time>2018-05-19T15:18:30.478Z</time>
      </trkpt>
      <trkpt lat="43.14368167" lon="-4.25528333">
        <ele>874.0</ele>
        <time>2018-05-19T15:18:31.455Z</time>
      </trkpt>
      <trkpt lat="43.14382" lon="-4.25525167">
        <ele>873.0</ele>
        <time>2018-05-19T15:18:32.502Z</time>
      </trkpt>
      <trkpt lat="43.14382" lon="-4.25525167">
        <ele>873.0</ele>
        <time>2018-05-19T15:18:33.505Z</time>
      </trkpt>
      <trkpt lat="43.14397" lon="-4.25530167">
        <ele>872.0</ele>
        <time>2018-05-19T15:18:34.502Z</time>
      </trkpt>
      <trkpt lat="43.14397" lon="-4.25530167">
        <ele>872.0</ele>
        <time>2018-05-19T15:18:35.485Z</time>
      </trkpt>
      <trkpt lat="43.144105" lon="-4.2554">
        <ele>871.0</ele>
        <time>2018-05-19T15:18:36.500Z</time>
      </trkpt>
      <trkpt lat="43.144105" lon="-4.2554">
        <ele>871.0</ele>
        <time>2018-05-19T15:18:37.454Z</time>
      </trkpt>
      <trkpt lat="43.14422667" lon="-4.25552833">
        <ele>870.0</ele>
        <time>2018-05-19T15:18:38.502Z</time>
      </trkpt>
      <trkpt lat="43.14422667" lon="-4.25552833">
        <ele>870.0</ele>
        <time>2018-05-19T15:18:39.503Z</time>
      </trkpt>
      <trkpt lat="43.14434167" lon="-4.25566667">
        <ele>869.0</ele>
        <time>2018-05-19T15:18:40.500Z</time>
      </trkpt>
      <trkpt lat="43.14434167" lon="-4.25566667">
        <ele>869.0</ele>
        <time>2018-05-19T15:18:41.504Z</time>
      </trkpt>
      <trkpt lat="43.14447833" lon="-4.25580167">
        <ele>867.0</ele>
        <time>2018-05-19T15:18:42.478Z</time>
      </trkpt>
      <trkpt lat="43.14447833" lon="-4.25580167">
        <ele>867.0</ele>
        <time>2018-05-19T15:18:43.505Z</time>
      </trkpt>
      <trkpt lat="43.14462" lon="-4.25597667">
        <ele>865.0</ele>
        <time>2018-05-19T15:18:44.498Z</time>
      </trkpt>
      <trkpt lat="43.14462" lon="-4.25597667">
        <ele>865.0</ele>
        <time>2018-05-19T15:18:45.533Z</time>
      </trkpt>
      <trkpt lat="43.14473667" lon="-4.256225">
        <ele>864.0</ele>
        <time>2018-05-19T15:18:46.461Z</time>
      </trkpt>
      <trkpt lat="43.14473667" lon="-4.256225">
        <ele>864.0</ele>
        <time>2018-05-19T15:18:47.461Z</time>
      </trkpt>
      <trkpt lat="43.14481833" lon="-4.25650167">
        <ele>862.0</ele>
        <time>2018-05-19T15:18:48.501Z</time>
      </trkpt>
      <trkpt lat="43.14481833" lon="-4.25650167">
        <ele>862.0</ele>
        <time>2018-05-19T15:18:49.460Z</time>
      </trkpt>
      <trkpt lat="43.144915" lon="-4.25678333">
        <ele>859.0</ele>
        <time>2018-05-19T15:18:50.464Z</time>
      </trkpt>
      <trkpt lat="43.144915" lon="-4.25678333">
        <ele>859.0</ele>
        <time>2018-05-19T15:18:51.465Z</time>
      </trkpt>
      <trkpt lat="43.145015" lon="-4.25706833">
        <ele>857.0</ele>
        <time>2018-05-19T15:18:52.472Z</time>
      </trkpt>
      <trkpt lat="43.145015" lon="-4.25706833">
        <ele>857.0</ele>
        <time>2018-05-19T15:18:53.476Z</time>
      </trkpt>
      <trkpt lat="43.14512667" lon="-4.25733333">
        <ele>855.0</ele>
        <time>2018-05-19T15:18:54.470Z</time>
      </trkpt>
      <trkpt lat="43.14518167" lon="-4.25746">
        <ele>854.0</ele>
        <time>2018-05-19T15:18:55.474Z</time>
      </trkpt>
      <trkpt lat="43.14523" lon="-4.25758333">
        <ele>852.0</ele>
        <time>2018-05-19T15:18:56.461Z</time>
      </trkpt>
      <trkpt lat="43.14523" lon="-4.25758333">
        <ele>852.0</ele>
        <time>2018-05-19T15:18:57.505Z</time>
      </trkpt>
      <trkpt lat="43.14531833" lon="-4.25782">
        <ele>850.0</ele>
        <time>2018-05-19T15:18:58.503Z</time>
      </trkpt>
      <trkpt lat="43.14531833" lon="-4.25782">
        <ele>850.0</ele>
        <time>2018-05-19T15:18:59.504Z</time>
      </trkpt>
      <trkpt lat="43.14544333" lon="-4.258">
        <ele>848.0</ele>
        <time>2018-05-19T15:19:00.490Z</time>
      </trkpt>
      <trkpt lat="43.145525" lon="-4.25805333">
        <ele>847.0</ele>
        <time>2018-05-19T15:19:01.475Z</time>
      </trkpt>
      <trkpt lat="43.145525" lon="-4.25805333">
        <ele>847.0</ele>
        <time>2018-05-19T15:19:02.505Z</time>
      </trkpt>
      <trkpt lat="43.14569667" lon="-4.25814">
        <ele>845.0</ele>
        <time>2018-05-19T15:19:03.504Z</time>
      </trkpt>
      <trkpt lat="43.14578333" lon="-4.25820167">
        <ele>843.0</ele>
        <time>2018-05-19T15:19:04.503Z</time>
      </trkpt>
      <trkpt lat="43.14578333" lon="-4.25820167">
        <ele>843.0</ele>
        <time>2018-05-19T15:19:05.504Z</time>
      </trkpt>
      <trkpt lat="43.145965" lon="-4.25834167">
        <ele>841.0</ele>
        <time>2018-05-19T15:19:06.460Z</time>
      </trkpt>
      <trkpt lat="43.145965" lon="-4.25834167">
        <ele>841.0</ele>
        <time>2018-05-19T15:19:07.504Z</time>
      </trkpt>
      <trkpt lat="43.146145" lon="-4.25850833">
        <ele>839.0</ele>
        <time>2018-05-19T15:19:08.500Z</time>
      </trkpt>
      <trkpt lat="43.146145" lon="-4.25850833">
        <ele>839.0</ele>
        <time>2018-05-19T15:19:09.505Z</time>
      </trkpt>
      <trkpt lat="43.14632333" lon="-4.2587">
        <ele>837.0</ele>
        <time>2018-05-19T15:19:10.502Z</time>
      </trkpt>
      <trkpt lat="43.14632333" lon="-4.2587">
        <ele>837.0</ele>
        <time>2018-05-19T15:19:11.485Z</time>
      </trkpt>
      <trkpt lat="43.1465" lon="-4.25889833">
        <ele>835.0</ele>
        <time>2018-05-19T15:19:12.498Z</time>
      </trkpt>
      <trkpt lat="43.1465" lon="-4.25889833">
        <ele>835.0</ele>
        <time>2018-05-19T15:19:13.455Z</time>
      </trkpt>
      <trkpt lat="43.14668" lon="-4.25908833">
        <ele>832.0</ele>
        <time>2018-05-19T15:19:14.502Z</time>
      </trkpt>
      <trkpt lat="43.14668" lon="-4.25908833">
        <ele>832.0</ele>
        <time>2018-05-19T15:19:15.504Z</time>
      </trkpt>
      <trkpt lat="43.14688333" lon="-4.259245">
        <ele>830.0</ele>
        <time>2018-05-19T15:19:16.477Z</time>
      </trkpt>
      <trkpt lat="43.14688333" lon="-4.259245">
        <ele>830.0</ele>
        <time>2018-05-19T15:19:17.503Z</time>
      </trkpt>
      <trkpt lat="43.14708" lon="-4.25941333">
        <ele>828.0</ele>
        <time>2018-05-19T15:19:18.465Z</time>
      </trkpt>
      <trkpt lat="43.14717667" lon="-4.25949667">
        <ele>827.0</ele>
        <time>2018-05-19T15:19:19.503Z</time>
      </trkpt>
      <trkpt lat="43.14717667" lon="-4.25949667">
        <ele>827.0</ele>
        <time>2018-05-19T15:19:20.504Z</time>
      </trkpt>
      <trkpt lat="43.14737" lon="-4.25965833">
        <ele>824.0</ele>
        <time>2018-05-19T15:19:21.478Z</time>
      </trkpt>
      <trkpt lat="43.14746" lon="-4.25975">
        <ele>823.0</ele>
        <time>2018-05-19T15:19:22.454Z</time>
      </trkpt>
      <trkpt lat="43.14746" lon="-4.25975">
        <ele>823.0</ele>
        <time>2018-05-19T15:19:23.469Z</time>
      </trkpt>
      <trkpt lat="43.14763833" lon="-4.25994833">
        <ele>821.0</ele>
        <time>2018-05-19T15:19:24.472Z</time>
      </trkpt>
      <trkpt lat="43.14763833" lon="-4.25994833">
        <ele>821.0</ele>
        <time>2018-05-19T15:19:25.476Z</time>
      </trkpt>
      <trkpt lat="43.147815" lon="-4.26015">
        <ele>819.0</ele>
        <time>2018-05-19T15:19:26.457Z</time>
      </trkpt>
      <trkpt lat="43.14790333" lon="-4.26025167">
        <ele>818.0</ele>
        <time>2018-05-19T15:19:27.505Z</time>
      </trkpt>
      <trkpt lat="43.14798833" lon="-4.26034667">
        <ele>816.0</ele>
        <time>2018-05-19T15:19:28.452Z</time>
      </trkpt>
      <trkpt lat="43.14798833" lon="-4.26034667">
        <ele>816.0</ele>
        <time>2018-05-19T15:19:29.501Z</time>
      </trkpt>
      <trkpt lat="43.148145" lon="-4.26051833">
        <ele>814.0</ele>
        <time>2018-05-19T15:19:30.508Z</time>
      </trkpt>
      <trkpt lat="43.14822333" lon="-4.26060833">
        <ele>813.0</ele>
        <time>2018-05-19T15:19:31.462Z</time>
      </trkpt>
      <trkpt lat="43.14822333" lon="-4.26060833">
        <ele>813.0</ele>
        <time>2018-05-19T15:19:32.463Z</time>
      </trkpt>
      <trkpt lat="43.14837833" lon="-4.26080667">
        <ele>811.0</ele>
        <time>2018-05-19T15:19:33.469Z</time>
      </trkpt>
      <trkpt lat="43.14846" lon="-4.26090333">
        <ele>810.0</ele>
        <time>2018-05-19T15:19:34.500Z</time>
      </trkpt>
      <trkpt lat="43.14846" lon="-4.26090333">
        <ele>810.0</ele>
        <time>2018-05-19T15:19:35.503Z</time>
      </trkpt>
      <trkpt lat="43.14863" lon="-4.26107667">
        <ele>809.0</ele>
        <time>2018-05-19T15:19:36.504Z</time>
      </trkpt>
      <trkpt lat="43.14871667" lon="-4.26114833">
        <ele>808.0</ele>
        <time>2018-05-19T15:19:37.452Z</time>
      </trkpt>
      <trkpt lat="43.14871667" lon="-4.26114833">
        <ele>808.0</ele>
        <time>2018-05-19T15:19:38.478Z</time>
      </trkpt>
      <trkpt lat="43.14889" lon="-4.26125833">
        <ele>806.0</ele>
        <time>2018-05-19T15:19:39.459Z</time>
      </trkpt>
      <trkpt lat="43.14889" lon="-4.26125833">
        <ele>806.0</ele>
        <time>2018-05-19T15:19:40.504Z</time>
      </trkpt>
      <trkpt lat="43.14906333" lon="-4.26137333">
        <ele>804.0</ele>
        <time>2018-05-19T15:19:41.500Z</time>
      </trkpt>
      <trkpt lat="43.14906333" lon="-4.26137333">
        <ele>804.0</ele>
        <time>2018-05-19T15:19:42.455Z</time>
      </trkpt>
      <trkpt lat="43.14923" lon="-4.26152">
        <ele>802.0</ele>
        <time>2018-05-19T15:19:43.505Z</time>
      </trkpt>
      <trkpt lat="43.14931" lon="-4.261595">
        <ele>801.0</ele>
        <time>2018-05-19T15:19:44.454Z</time>
      </trkpt>
      <trkpt lat="43.14931" lon="-4.261595">
        <ele>801.0</ele>
        <time>2018-05-19T15:19:45.504Z</time>
      </trkpt>
      <trkpt lat="43.14945667" lon="-4.26176">
        <ele>798.0</ele>
        <time>2018-05-19T15:19:46.458Z</time>
      </trkpt>
      <trkpt lat="43.14945667" lon="-4.26176">
        <ele>798.0</ele>
        <time>2018-05-19T15:19:47.504Z</time>
      </trkpt>
      <trkpt lat="43.14960333" lon="-4.26194833">
        <ele>795.0</ele>
        <time>2018-05-19T15:19:48.504Z</time>
      </trkpt>
      <trkpt lat="43.14968" lon="-4.26205">
        <ele>794.0</ele>
        <time>2018-05-19T15:19:49.503Z</time>
      </trkpt>
      <trkpt lat="43.14968" lon="-4.26205">
        <ele>794.0</ele>
        <time>2018-05-19T15:19:50.504Z</time>
      </trkpt>
      <trkpt lat="43.149835" lon="-4.26227">
        <ele>791.0</ele>
        <time>2018-05-19T15:19:51.478Z</time>
      </trkpt>
      <trkpt lat="43.14990667" lon="-4.26239">
        <ele>790.0</ele>
        <time>2018-05-19T15:19:52.477Z</time>
      </trkpt>
      <trkpt lat="43.14990667" lon="-4.26239">
        <ele>790.0</ele>
        <time>2018-05-19T15:19:53.504Z</time>
      </trkpt>
      <trkpt lat="43.15004" lon="-4.26264333">
        <ele>788.0</ele>
        <time>2018-05-19T15:19:54.449Z</time>
      </trkpt>
      <trkpt lat="43.15004" lon="-4.26264333">
        <ele>788.0</ele>
        <time>2018-05-19T15:19:55.472Z</time>
      </trkpt>
      <trkpt lat="43.150175" lon="-4.26288833">
        <ele>786.0</ele>
        <time>2018-05-19T15:19:56.474Z</time>
      </trkpt>
      <trkpt lat="43.150175" lon="-4.26288833">
        <ele>786.0</ele>
        <time>2018-05-19T15:19:57.502Z</time>
      </trkpt>
      <trkpt lat="43.15032667" lon="-4.26311167">
        <ele>784.0</ele>
        <time>2018-05-19T15:19:58.499Z</time>
      </trkpt>
      <trkpt lat="43.15032667" lon="-4.26311167">
        <ele>784.0</ele>
        <time>2018-05-19T15:19:59.503Z</time>
      </trkpt>
      <trkpt lat="43.150455" lon="-4.26333833">
        <ele>784.0</ele>
        <time>2018-05-19T15:20:00.477Z</time>
      </trkpt>
      <trkpt lat="43.15051667" lon="-4.26345">
        <ele>783.0</ele>
        <time>2018-05-19T15:20:01.473Z</time>
      </trkpt>
      <trkpt lat="43.15058167" lon="-4.263555">
        <ele>782.0</ele>
        <time>2018-05-19T15:20:02.498Z</time>
      </trkpt>
      <trkpt lat="43.15058167" lon="-4.263555">
        <ele>782.0</ele>
        <time>2018-05-19T15:20:03.503Z</time>
      </trkpt>
      <trkpt lat="43.15071167" lon="-4.26375333">
        <ele>781.0</ele>
        <time>2018-05-19T15:20:04.475Z</time>
      </trkpt>
      <trkpt lat="43.15071167" lon="-4.26375333">
        <ele>781.0</ele>
        <time>2018-05-19T15:20:05.477Z</time>
      </trkpt>
      <trkpt lat="43.150835" lon="-4.26396833">
        <ele>778.0</ele>
        <time>2018-05-19T15:20:06.464Z</time>
      </trkpt>
      <trkpt lat="43.150835" lon="-4.26396833">
        <ele>778.0</ele>
        <time>2018-05-19T15:20:07.468Z</time>
      </trkpt>
      <trkpt lat="43.15097333" lon="-4.26417333">
        <ele>776.0</ele>
        <time>2018-05-19T15:20:08.478Z</time>
      </trkpt>
      <trkpt lat="43.15104333" lon="-4.26427167">
        <ele>775.0</ele>
        <time>2018-05-19T15:20:09.480Z</time>
      </trkpt>
      <trkpt lat="43.15110333" lon="-4.264375">
        <ele>774.0</ele>
        <time>2018-05-19T15:20:10.502Z</time>
      </trkpt>
      <trkpt lat="43.15110333" lon="-4.264375">
        <ele>774.0</ele>
        <time>2018-05-19T15:20:11.449Z</time>
      </trkpt>
      <trkpt lat="43.15121333" lon="-4.264585">
        <ele>773.0</ele>
        <time>2018-05-19T15:20:12.475Z</time>
      </trkpt>
      <trkpt lat="43.15126833" lon="-4.26469">
        <ele>772.0</ele>
        <time>2018-05-19T15:20:13.478Z</time>
      </trkpt>
      <trkpt lat="43.15132167" lon="-4.26479833">
        <ele>771.0</ele>
        <time>2018-05-19T15:20:14.455Z</time>
      </trkpt>
      <trkpt lat="43.15132167" lon="-4.26479833">
        <ele>771.0</ele>
        <time>2018-05-19T15:20:15.484Z</time>
      </trkpt>
      <trkpt lat="43.15143167" lon="-4.26501167">
        <ele>769.0</ele>
        <time>2018-05-19T15:20:16.455Z</time>
      </trkpt>
      <trkpt lat="43.15143167" lon="-4.26501167">
        <ele>769.0</ele>
        <time>2018-05-19T15:20:17.505Z</time>
      </trkpt>
      <trkpt lat="43.15156167" lon="-4.26521667">
        <ele>766.0</ele>
        <time>2018-05-19T15:20:18.483Z</time>
      </trkpt>
      <trkpt lat="43.15156167" lon="-4.26521667">
        <ele>766.0</ele>
        <time>2018-05-19T15:20:19.461Z</time>
      </trkpt>
      <trkpt lat="43.15168167" lon="-4.26545167">
        <ele>764.0</ele>
        <time>2018-05-19T15:20:20.484Z</time>
      </trkpt>
      <trkpt lat="43.15174" lon="-4.26557">
        <ele>764.0</ele>
        <time>2018-05-19T15:20:21.456Z</time>
      </trkpt>
      <trkpt lat="43.15174" lon="-4.26557">
        <ele>764.0</ele>
        <time>2018-05-19T15:20:22.504Z</time>
      </trkpt>
      <trkpt lat="43.15187" lon="-4.26578667">
        <ele>761.0</ele>
        <time>2018-05-19T15:20:23.458Z</time>
      </trkpt>
      <trkpt lat="43.15187" lon="-4.26578667">
        <ele>761.0</ele>
        <time>2018-05-19T15:20:24.464Z</time>
      </trkpt>
      <trkpt lat="43.15198833" lon="-4.26601833">
        <ele>759.0</ele>
        <time>2018-05-19T15:20:25.470Z</time>
      </trkpt>
      <trkpt lat="43.15203833" lon="-4.26614333">
        <ele>758.0</ele>
        <time>2018-05-19T15:20:26.501Z</time>
      </trkpt>
      <trkpt lat="43.15203833" lon="-4.26614333">
        <ele>758.0</ele>
        <time>2018-05-19T15:20:27.505Z</time>
      </trkpt>
      <trkpt lat="43.15214667" lon="-4.26638">
        <ele>756.0</ele>
        <time>2018-05-19T15:20:28.502Z</time>
      </trkpt>
      <trkpt lat="43.15214667" lon="-4.26638">
        <ele>756.0</ele>
        <time>2018-05-19T15:20:29.451Z</time>
      </trkpt>
      <trkpt lat="43.15229667" lon="-4.26656833">
        <ele>754.0</ele>
        <time>2018-05-19T15:20:30.504Z</time>
      </trkpt>
      <trkpt lat="43.15237667" lon="-4.266645">
        <ele>753.0</ele>
        <time>2018-05-19T15:20:31.452Z</time>
      </trkpt>
      <trkpt lat="43.15237667" lon="-4.266645">
        <ele>753.0</ele>
        <time>2018-05-19T15:20:32.476Z</time>
      </trkpt>
      <trkpt lat="43.152525" lon="-4.266805">
        <ele>752.0</ele>
        <time>2018-05-19T15:20:33.474Z</time>
      </trkpt>
      <trkpt lat="43.15259167" lon="-4.26690167">
        <ele>751.0</ele>
        <time>2018-05-19T15:20:34.448Z</time>
      </trkpt>
      <trkpt lat="43.15259167" lon="-4.26690167">
        <ele>751.0</ele>
        <time>2018-05-19T15:20:35.473Z</time>
      </trkpt>
      <trkpt lat="43.152715" lon="-4.26710333">
        <ele>749.0</ele>
        <time>2018-05-19T15:20:36.468Z</time>
      </trkpt>
      <trkpt lat="43.15277167" lon="-4.26720667">
        <ele>749.0</ele>
        <time>2018-05-19T15:20:37.478Z</time>
      </trkpt>
      <trkpt lat="43.15277167" lon="-4.26720667">
        <ele>749.0</ele>
        <time>2018-05-19T15:20:38.501Z</time>
      </trkpt>
      <trkpt lat="43.15287333" lon="-4.26743">
        <ele>748.0</ele>
        <time>2018-05-19T15:20:39.504Z</time>
      </trkpt>
      <trkpt lat="43.15292" lon="-4.26754667">
        <ele>747.0</ele>
        <time>2018-05-19T15:20:40.484Z</time>
      </trkpt>
      <trkpt lat="43.15296667" lon="-4.26766">
        <ele>747.0</ele>
        <time>2018-05-19T15:20:41.454Z</time>
      </trkpt>
      <trkpt lat="43.15296667" lon="-4.26766">
        <ele>747.0</ele>
        <time>2018-05-19T15:20:42.505Z</time>
      </trkpt>
      <trkpt lat="43.15306167" lon="-4.26788667">
        <ele>745.0</ele>
        <time>2018-05-19T15:20:43.499Z</time>
      </trkpt>
      <trkpt lat="43.15306167" lon="-4.26788667">
        <ele>745.0</ele>
        <time>2018-05-19T15:20:44.503Z</time>
      </trkpt>
      <trkpt lat="43.15317" lon="-4.26809">
        <ele>744.0</ele>
        <time>2018-05-19T15:20:45.484Z</time>
      </trkpt>
      <trkpt lat="43.15322167" lon="-4.26818833">
        <ele>743.0</ele>
        <time>2018-05-19T15:20:46.502Z</time>
      </trkpt>
      <trkpt lat="43.15322167" lon="-4.26818833">
        <ele>743.0</ele>
        <time>2018-05-19T15:20:47.503Z</time>
      </trkpt>
      <trkpt lat="43.15328667" lon="-4.26841">
        <ele>741.0</ele>
        <time>2018-05-19T15:20:48.478Z</time>
      </trkpt>
      <trkpt lat="43.15330167" lon="-4.26853167">
        <ele>741.0</ele>
        <time>2018-05-19T15:20:49.460Z</time>
      </trkpt>
      <trkpt lat="43.15330167" lon="-4.26853167">
        <ele>741.0</ele>
        <time>2018-05-19T15:20:50.504Z</time>
      </trkpt>
      <trkpt lat="43.15329833" lon="-4.26875667">
        <ele>739.0</ele>
        <time>2018-05-19T15:20:51.501Z</time>
      </trkpt>
      <trkpt lat="43.15329833" lon="-4.26875667">
        <ele>739.0</ele>
        <time>2018-05-19T15:20:52.504Z</time>
      </trkpt>
      <trkpt lat="43.15328667" lon="-4.26892">
        <ele>738.0</ele>
        <time>2018-05-19T15:20:53.458Z</time>
      </trkpt>
      <trkpt lat="43.15328667" lon="-4.26892">
        <ele>738.0</ele>
        <time>2018-05-19T15:20:54.504Z</time>
      </trkpt>
      <trkpt lat="43.15335" lon="-4.26902667">
        <ele>735.0</ele>
        <time>2018-05-19T15:20:55.506Z</time>
      </trkpt>
      <trkpt lat="43.15335" lon="-4.26902667">
        <ele>735.0</ele>
        <time>2018-05-19T15:20:56.470Z</time>
      </trkpt>
      <trkpt lat="43.1535" lon="-4.26902833">
        <ele>732.0</ele>
        <time>2018-05-19T15:20:57.472Z</time>
      </trkpt>
      <trkpt lat="43.153575" lon="-4.26900333">
        <ele>731.0</ele>
        <time>2018-05-19T15:20:58.499Z</time>
      </trkpt>
      <trkpt lat="43.153575" lon="-4.26900333">
        <ele>731.0</ele>
        <time>2018-05-19T15:20:59.505Z</time>
      </trkpt>
      <trkpt lat="43.15372333" lon="-4.26890833">
        <ele>729.0</ele>
        <time>2018-05-19T15:21:00.502Z</time>
      </trkpt>
      <trkpt lat="43.15372333" lon="-4.26890833">
        <ele>729.0</ele>
        <time>2018-05-19T15:21:01.485Z</time>
      </trkpt>
      <trkpt lat="43.15384167" lon="-4.26876167">
        <ele>726.0</ele>
        <time>2018-05-19T15:21:02.454Z</time>
      </trkpt>
      <trkpt lat="43.15384167" lon="-4.26876167">
        <ele>726.0</ele>
        <time>2018-05-19T15:21:03.503Z</time>
      </trkpt>
      <trkpt lat="43.15391167" lon="-4.26855333">
        <ele>725.0</ele>
        <time>2018-05-19T15:21:04.499Z</time>
      </trkpt>
      <trkpt lat="43.15391167" lon="-4.26855333">
        <ele>725.0</ele>
        <time>2018-05-19T15:21:05.450Z</time>
      </trkpt>
      <trkpt lat="43.15393333" lon="-4.268335">
        <ele>723.0</ele>
        <time>2018-05-19T15:21:06.484Z</time>
      </trkpt>
      <trkpt lat="43.15393833" lon="-4.26824167">
        <ele>723.0</ele>
        <time>2018-05-19T15:21:07.460Z</time>
      </trkpt>
      <trkpt lat="43.15393833" lon="-4.26824167">
        <ele>723.0</ele>
        <time>2018-05-19T15:21:08.460Z</time>
      </trkpt>
      <trkpt lat="43.15395667" lon="-4.26809667">
        <ele>722.0</ele>
        <time>2018-05-19T15:21:09.484Z</time>
      </trkpt>
      <trkpt lat="43.15396167" lon="-4.26805667">
        <ele>721.0</ele>
        <time>2018-05-19T15:21:10.454Z</time>
      </trkpt>
      <trkpt lat="43.15396167" lon="-4.26805667">
        <ele>721.0</ele>
        <time>2018-05-19T15:21:11.504Z</time>
      </trkpt>
      <trkpt lat="43.15396667" lon="-4.26802667">
        <ele>721.0</ele>
        <time>2018-05-19T15:21:12.502Z</time>
      </trkpt>
      <trkpt lat="43.15396667" lon="-4.26802667">
        <ele>721.0</ele>
        <time>2018-05-19T15:21:13.451Z</time>
      </trkpt>
      <trkpt lat="43.15397" lon="-4.26802167">
        <ele>721.0</ele>
        <time>2018-05-19T15:21:14.502Z</time>
      </trkpt>
      <trkpt lat="43.15397" lon="-4.26802167">
        <ele>721.0</ele>
        <time>2018-05-19T15:21:15.485Z</time>
      </trkpt>
      <trkpt lat="43.15397333" lon="-4.26800667">
        <ele>721.0</ele>
        <time>2018-05-19T15:21:16.475Z</time>
      </trkpt>
      <trkpt lat="43.154015" lon="-4.26788167">
        <ele>722.0</ele>
        <time>2018-05-19T15:21:17.477Z</time>
      </trkpt>
      <trkpt lat="43.154015" lon="-4.26788167">
        <ele>722.0</ele>
        <time>2018-05-19T15:21:18.474Z</time>
      </trkpt>
      <trkpt lat="43.15404" lon="-4.26782333">
        <ele>722.0</ele>
        <time>2018-05-19T15:21:19.450Z</time>
      </trkpt>
      <trkpt lat="43.15404" lon="-4.26782333">
        <ele>722.0</ele>
        <time>2018-05-19T15:21:20.478Z</time>
      </trkpt>
      <trkpt lat="43.15408167" lon="-4.26774667">
        <ele>721.0</ele>
        <time>2018-05-19T15:21:21.477Z</time>
      </trkpt>
      <trkpt lat="43.15408167" lon="-4.26774667">
        <ele>721.0</ele>
        <time>2018-05-19T15:21:22.473Z</time>
      </trkpt>
      <trkpt lat="43.15414833" lon="-4.267645">
        <ele>720.0</ele>
        <time>2018-05-19T15:21:23.475Z</time>
      </trkpt>
      <trkpt lat="43.15418667" lon="-4.26758833">
        <ele>720.0</ele>
        <time>2018-05-19T15:21:24.454Z</time>
      </trkpt>
      <trkpt lat="43.15418667" lon="-4.26758833">
        <ele>720.0</ele>
        <time>2018-05-19T15:21:25.479Z</time>
      </trkpt>
      <trkpt lat="43.15427" lon="-4.26747833">
        <ele>720.0</ele>
        <time>2018-05-19T15:21:26.478Z</time>
      </trkpt>
      <trkpt lat="43.15427" lon="-4.26747833">
        <ele>720.0</ele>
        <time>2018-05-19T15:21:27.475Z</time>
      </trkpt>
      <trkpt lat="43.154305" lon="-4.26731">
        <ele>719.0</ele>
        <time>2018-05-19T15:21:28.477Z</time>
      </trkpt>
      <trkpt lat="43.15428833" lon="-4.26720833">
        <ele>719.0</ele>
        <time>2018-05-19T15:21:29.477Z</time>
      </trkpt>
      <trkpt lat="43.15428833" lon="-4.26720833">
        <ele>719.0</ele>
        <time>2018-05-19T15:21:30.475Z</time>
      </trkpt>
      <trkpt lat="43.15421167" lon="-4.26700167">
        <ele>717.0</ele>
        <time>2018-05-19T15:21:31.477Z</time>
      </trkpt>
      <trkpt lat="43.15421167" lon="-4.26700167">
        <ele>717.0</ele>
        <time>2018-05-19T15:21:32.473Z</time>
      </trkpt>
      <trkpt lat="43.15411667" lon="-4.266785">
        <ele>716.0</ele>
        <time>2018-05-19T15:21:33.476Z</time>
      </trkpt>
      <trkpt lat="43.15411667" lon="-4.266785">
        <ele>716.0</ele>
        <time>2018-05-19T15:21:34.473Z</time>
      </trkpt>
      <trkpt lat="43.15401833" lon="-4.26655">
        <ele>715.0</ele>
        <time>2018-05-19T15:21:35.478Z</time>
      </trkpt>
      <trkpt lat="43.15401833" lon="-4.26655">
        <ele>715.0</ele>
        <time>2018-05-19T15:21:36.475Z</time>
      </trkpt>
      <trkpt lat="43.153925" lon="-4.26630833">
        <ele>713.0</ele>
        <time>2018-05-19T15:21:37.478Z</time>
      </trkpt>
      <trkpt lat="43.153925" lon="-4.26630833">
        <ele>713.0</ele>
        <time>2018-05-19T15:21:38.472Z</time>
      </trkpt>
      <trkpt lat="43.15384667" lon="-4.26605">
        <ele>712.0</ele>
        <time>2018-05-19T15:21:39.457Z</time>
      </trkpt>
      <trkpt lat="43.15384667" lon="-4.26605">
        <ele>712.0</ele>
        <time>2018-05-19T15:21:40.480Z</time>
      </trkpt>
      <trkpt lat="43.15378167" lon="-4.26578">
        <ele>711.0</ele>
        <time>2018-05-19T15:21:41.477Z</time>
      </trkpt>
      <trkpt lat="43.15378167" lon="-4.26578">
        <ele>711.0</ele>
        <time>2018-05-19T15:21:42.454Z</time>
      </trkpt>
      <trkpt lat="43.15372333" lon="-4.26549333">
        <ele>710.0</ele>
        <time>2018-05-19T15:21:43.483Z</time>
      </trkpt>
      <trkpt lat="43.15369333" lon="-4.26535167">
        <ele>709.0</ele>
        <time>2018-05-19T15:21:44.478Z</time>
      </trkpt>
      <trkpt lat="43.15369333" lon="-4.26535167">
        <ele>709.0</ele>
        <time>2018-05-19T15:21:45.472Z</time>
      </trkpt>
      <trkpt lat="43.15361667" lon="-4.26507167">
        <ele>708.0</ele>
        <time>2018-05-19T15:21:46.476Z</time>
      </trkpt>
      <trkpt lat="43.15361667" lon="-4.26507167">
        <ele>708.0</ele>
        <time>2018-05-19T15:21:47.471Z</time>
      </trkpt>
      <trkpt lat="43.15352833" lon="-4.26477167">
        <ele>706.0</ele>
        <time>2018-05-19T15:21:48.478Z</time>
      </trkpt>
      <trkpt lat="43.15352833" lon="-4.26477167">
        <ele>706.0</ele>
        <time>2018-05-19T15:21:49.477Z</time>
      </trkpt>
      <trkpt lat="43.15346167" lon="-4.26445667">
        <ele>704.0</ele>
        <time>2018-05-19T15:21:50.477Z</time>
      </trkpt>
      <trkpt lat="43.15346167" lon="-4.26445667">
        <ele>704.0</ele>
        <time>2018-05-19T15:21:51.471Z</time>
      </trkpt>
      <trkpt lat="43.15340833" lon="-4.264115">
        <ele>701.0</ele>
        <time>2018-05-19T15:21:52.475Z</time>
      </trkpt>
      <trkpt lat="43.15337667" lon="-4.26394">
        <ele>700.0</ele>
        <time>2018-05-19T15:21:53.476Z</time>
      </trkpt>
      <trkpt lat="43.15337667" lon="-4.26394">
        <ele>700.0</ele>
        <time>2018-05-19T15:21:54.474Z</time>
      </trkpt>
      <trkpt lat="43.15332167" lon="-4.26359667">
        <ele>697.0</ele>
        <time>2018-05-19T15:21:55.476Z</time>
      </trkpt>
      <trkpt lat="43.15329167" lon="-4.26341167">
        <ele>695.0</ele>
        <time>2018-05-19T15:21:56.477Z</time>
      </trkpt>
      <trkpt lat="43.15329167" lon="-4.26341167">
        <ele>695.0</ele>
        <time>2018-05-19T15:21:57.474Z</time>
      </trkpt>
      <trkpt lat="43.15326333" lon="-4.263015">
        <ele>693.0</ele>
        <time>2018-05-19T15:21:58.476Z</time>
      </trkpt>
      <trkpt lat="43.15326333" lon="-4.263015">
        <ele>693.0</ele>
        <time>2018-05-19T15:21:59.468Z</time>
      </trkpt>
      <trkpt lat="43.15327167" lon="-4.262605">
        <ele>690.0</ele>
        <time>2018-05-19T15:22:00.454Z</time>
      </trkpt>
      <trkpt lat="43.15327167" lon="-4.262605">
        <ele>690.0</ele>
        <time>2018-05-19T15:22:01.480Z</time>
      </trkpt>
      <trkpt lat="43.15328333" lon="-4.262205">
        <ele>688.0</ele>
        <time>2018-05-19T15:22:02.477Z</time>
      </trkpt>
      <trkpt lat="43.15328333" lon="-4.262205">
        <ele>688.0</ele>
        <time>2018-05-19T15:22:03.471Z</time>
      </trkpt>
      <trkpt lat="43.15328833" lon="-4.26182833">
        <ele>686.0</ele>
        <time>2018-05-19T15:22:04.456Z</time>
      </trkpt>
      <trkpt lat="43.153275" lon="-4.26164667">
        <ele>686.0</ele>
        <time>2018-05-19T15:22:05.484Z</time>
      </trkpt>
      <trkpt lat="43.15325" lon="-4.26147">
        <ele>685.0</ele>
        <time>2018-05-19T15:22:06.477Z</time>
      </trkpt>
      <trkpt lat="43.15325" lon="-4.26147">
        <ele>685.0</ele>
        <time>2018-05-19T15:22:07.474Z</time>
      </trkpt>
      <trkpt lat="43.15317667" lon="-4.26111333">
        <ele>682.0</ele>
        <time>2018-05-19T15:22:08.475Z</time>
      </trkpt>
      <trkpt lat="43.15317667" lon="-4.26111333">
        <ele>682.0</ele>
        <time>2018-05-19T15:22:09.472Z</time>
      </trkpt>
      <trkpt lat="43.153105" lon="-4.26075">
        <ele>680.0</ele>
        <time>2018-05-19T15:22:10.475Z</time>
      </trkpt>
      <trkpt lat="43.153105" lon="-4.26075">
        <ele>680.0</ele>
        <time>2018-05-19T15:22:11.468Z</time>
      </trkpt>
      <trkpt lat="43.15302" lon="-4.26038167">
        <ele>677.0</ele>
        <time>2018-05-19T15:22:12.454Z</time>
      </trkpt>
      <trkpt lat="43.15302" lon="-4.26038167">
        <ele>677.0</ele>
        <time>2018-05-19T15:22:13.480Z</time>
      </trkpt>
      <trkpt lat="43.15294333" lon="-4.260005">
        <ele>675.0</ele>
        <time>2018-05-19T15:22:14.482Z</time>
      </trkpt>
      <trkpt lat="43.15294333" lon="-4.260005">
        <ele>675.0</ele>
        <time>2018-05-19T15:22:15.471Z</time>
      </trkpt>
      <trkpt lat="43.152885" lon="-4.25961833">
        <ele>672.0</ele>
        <time>2018-05-19T15:22:16.476Z</time>
      </trkpt>
      <trkpt lat="43.152885" lon="-4.25961833">
        <ele>672.0</ele>
        <time>2018-05-19T15:22:17.480Z</time>
      </trkpt>
      <trkpt lat="43.15283167" lon="-4.25922">
        <ele>669.0</ele>
        <time>2018-05-19T15:22:18.478Z</time>
      </trkpt>
      <trkpt lat="43.15283167" lon="-4.25922">
        <ele>669.0</ele>
        <time>2018-05-19T15:22:19.471Z</time>
      </trkpt>
      <trkpt lat="43.152785" lon="-4.25881">
        <ele>666.0</ele>
        <time>2018-05-19T15:22:20.477Z</time>
      </trkpt>
      <trkpt lat="43.152785" lon="-4.25881">
        <ele>666.0</ele>
        <time>2018-05-19T15:22:21.471Z</time>
      </trkpt>
      <trkpt lat="43.15273667" lon="-4.25841667">
        <ele>664.0</ele>
        <time>2018-05-19T15:22:22.475Z</time>
      </trkpt>
      <trkpt lat="43.15273667" lon="-4.25841667">
        <ele>664.0</ele>
        <time>2018-05-19T15:22:23.453Z</time>
      </trkpt>
      <trkpt lat="43.15267667" lon="-4.25805833">
        <ele>661.0</ele>
        <time>2018-05-19T15:22:24.453Z</time>
      </trkpt>
      <trkpt lat="43.15267667" lon="-4.25805833">
        <ele>661.0</ele>
        <time>2018-05-19T15:22:25.478Z</time>
      </trkpt>
      <trkpt lat="43.15262333" lon="-4.25769">
        <ele>658.0</ele>
        <time>2018-05-19T15:22:26.477Z</time>
      </trkpt>
      <trkpt lat="43.15262333" lon="-4.25769">
        <ele>658.0</ele>
        <time>2018-05-19T15:22:27.471Z</time>
      </trkpt>
      <trkpt lat="43.15259" lon="-4.25733333">
        <ele>656.0</ele>
        <time>2018-05-19T15:22:28.475Z</time>
      </trkpt>
      <trkpt lat="43.15259" lon="-4.25733333">
        <ele>656.0</ele>
        <time>2018-05-19T15:22:29.471Z</time>
      </trkpt>
      <trkpt lat="43.15256" lon="-4.25701167">
        <ele>654.0</ele>
        <time>2018-05-19T15:22:30.477Z</time>
      </trkpt>
      <trkpt lat="43.15256" lon="-4.25701167">
        <ele>654.0</ele>
        <time>2018-05-19T15:22:31.471Z</time>
      </trkpt>
      <trkpt lat="43.152535" lon="-4.25671">
        <ele>652.0</ele>
        <time>2018-05-19T15:22:32.477Z</time>
      </trkpt>
      <trkpt lat="43.152535" lon="-4.25671">
        <ele>652.0</ele>
        <time>2018-05-19T15:22:33.471Z</time>
      </trkpt>
      <trkpt lat="43.15251833" lon="-4.25641667">
        <ele>651.0</ele>
        <time>2018-05-19T15:22:34.476Z</time>
      </trkpt>
      <trkpt lat="43.15251833" lon="-4.25641667">
        <ele>651.0</ele>
        <time>2018-05-19T15:22:35.471Z</time>
      </trkpt>
      <trkpt lat="43.15252" lon="-4.25611167">
        <ele>648.0</ele>
        <time>2018-05-19T15:22:36.477Z</time>
      </trkpt>
      <trkpt lat="43.15252" lon="-4.25611167">
        <ele>648.0</ele>
        <time>2018-05-19T15:22:37.456Z</time>
      </trkpt>
      <trkpt lat="43.15252333" lon="-4.25578667">
        <ele>646.0</ele>
        <time>2018-05-19T15:22:38.484Z</time>
      </trkpt>
      <trkpt lat="43.15252333" lon="-4.25578667">
        <ele>646.0</ele>
        <time>2018-05-19T15:22:39.473Z</time>
      </trkpt>
      <trkpt lat="43.152525" lon="-4.255455">
        <ele>644.0</ele>
        <time>2018-05-19T15:22:40.473Z</time>
      </trkpt>
      <trkpt lat="43.15252333" lon="-4.255295">
        <ele>643.0</ele>
        <time>2018-05-19T15:22:41.475Z</time>
      </trkpt>
      <trkpt lat="43.15252333" lon="-4.25514">
        <ele>642.0</ele>
        <time>2018-05-19T15:22:42.477Z</time>
      </trkpt>
      <trkpt lat="43.15252333" lon="-4.25514">
        <ele>642.0</ele>
        <time>2018-05-19T15:22:43.471Z</time>
      </trkpt>
      <trkpt lat="43.15253833" lon="-4.25485">
        <ele>641.0</ele>
        <time>2018-05-19T15:22:44.477Z</time>
      </trkpt>
      <trkpt lat="43.15253833" lon="-4.25485">
        <ele>641.0</ele>
        <time>2018-05-19T15:22:45.471Z</time>
      </trkpt>
      <trkpt lat="43.15255" lon="-4.25460833">
        <ele>640.0</ele>
        <time>2018-05-19T15:22:46.476Z</time>
      </trkpt>
      <trkpt lat="43.15255" lon="-4.25460833">
        <ele>640.0</ele>
        <time>2018-05-19T15:22:47.471Z</time>
      </trkpt>
      <trkpt lat="43.15260833" lon="-4.25442667">
        <ele>639.0</ele>
        <time>2018-05-19T15:22:48.478Z</time>
      </trkpt>
      <trkpt lat="43.15260833" lon="-4.25442667">
        <ele>639.0</ele>
        <time>2018-05-19T15:22:49.473Z</time>
      </trkpt>
      <trkpt lat="43.15272" lon="-4.25432667">
        <ele>637.0</ele>
        <time>2018-05-19T15:22:50.474Z</time>
      </trkpt>
      <trkpt lat="43.15272" lon="-4.25432667">
        <ele>637.0</ele>
        <time>2018-05-19T15:22:51.472Z</time>
      </trkpt>
      <trkpt lat="43.15287833" lon="-4.25430167">
        <ele>636.0</ele>
        <time>2018-05-19T15:22:52.476Z</time>
      </trkpt>
      <trkpt lat="43.15287833" lon="-4.25430167">
        <ele>636.0</ele>
        <time>2018-05-19T15:22:53.476Z</time>
      </trkpt>
      <trkpt lat="43.15306" lon="-4.25432833">
        <ele>635.0</ele>
        <time>2018-05-19T15:22:54.474Z</time>
      </trkpt>
      <trkpt lat="43.15306" lon="-4.25432833">
        <ele>635.0</ele>
        <time>2018-05-19T15:22:55.471Z</time>
      </trkpt>
      <trkpt lat="43.153245" lon="-4.25437333">
        <ele>633.0</ele>
        <time>2018-05-19T15:22:56.476Z</time>
      </trkpt>
      <trkpt lat="43.153245" lon="-4.25437333">
        <ele>633.0</ele>
        <time>2018-05-19T15:22:57.471Z</time>
      </trkpt>
      <trkpt lat="43.15343833" lon="-4.25437167">
        <ele>632.0</ele>
        <time>2018-05-19T15:22:58.476Z</time>
      </trkpt>
      <trkpt lat="43.15343833" lon="-4.25437167">
        <ele>632.0</ele>
        <time>2018-05-19T15:22:59.471Z</time>
      </trkpt>
      <trkpt lat="43.15363" lon="-4.25431">
        <ele>630.0</ele>
        <time>2018-05-19T15:23:00.477Z</time>
      </trkpt>
      <trkpt lat="43.15363" lon="-4.25431">
        <ele>630.0</ele>
        <time>2018-05-19T15:23:01.474Z</time>
      </trkpt>
      <trkpt lat="43.15380167" lon="-4.25419333">
        <ele>629.0</ele>
        <time>2018-05-19T15:23:02.477Z</time>
      </trkpt>
      <trkpt lat="43.15380167" lon="-4.25419333">
        <ele>629.0</ele>
        <time>2018-05-19T15:23:03.471Z</time>
      </trkpt>
      <trkpt lat="43.153955" lon="-4.25407833">
        <ele>628.0</ele>
        <time>2018-05-19T15:23:04.476Z</time>
      </trkpt>
      <trkpt lat="43.153955" lon="-4.25407833">
        <ele>628.0</ele>
        <time>2018-05-19T15:23:05.471Z</time>
      </trkpt>
      <trkpt lat="43.15410667" lon="-4.25394667">
        <ele>627.0</ele>
        <time>2018-05-19T15:23:06.477Z</time>
      </trkpt>
      <trkpt lat="43.15410667" lon="-4.25394667">
        <ele>627.0</ele>
        <time>2018-05-19T15:23:07.475Z</time>
      </trkpt>
      <trkpt lat="43.154265" lon="-4.25381667">
        <ele>626.0</ele>
        <time>2018-05-19T15:23:08.477Z</time>
      </trkpt>
      <trkpt lat="43.154265" lon="-4.25381667">
        <ele>626.0</ele>
        <time>2018-05-19T15:23:09.451Z</time>
      </trkpt>
      <trkpt lat="43.154435" lon="-4.253675">
        <ele>625.0</ele>
        <time>2018-05-19T15:23:10.479Z</time>
      </trkpt>
      <trkpt lat="43.154435" lon="-4.253675">
        <ele>625.0</ele>
        <time>2018-05-19T15:23:11.475Z</time>
      </trkpt>
      <trkpt lat="43.15459667" lon="-4.25352333">
        <ele>624.0</ele>
        <time>2018-05-19T15:23:12.478Z</time>
      </trkpt>
      <trkpt lat="43.15459667" lon="-4.25352333">
        <ele>624.0</ele>
        <time>2018-05-19T15:23:13.471Z</time>
      </trkpt>
      <trkpt lat="43.154745" lon="-4.25335667">
        <ele>623.0</ele>
        <time>2018-05-19T15:23:14.478Z</time>
      </trkpt>
      <trkpt lat="43.154745" lon="-4.25335667">
        <ele>623.0</ele>
        <time>2018-05-19T15:23:15.468Z</time>
      </trkpt>
      <trkpt lat="43.15486833" lon="-4.25317167">
        <ele>623.0</ele>
        <time>2018-05-19T15:23:16.453Z</time>
      </trkpt>
      <trkpt lat="43.15486833" lon="-4.25317167">
        <ele>623.0</ele>
        <time>2018-05-19T15:23:17.480Z</time>
      </trkpt>
      <trkpt lat="43.15497833" lon="-4.25299167">
        <ele>622.0</ele>
        <time>2018-05-19T15:23:18.477Z</time>
      </trkpt>
      <trkpt lat="43.15497833" lon="-4.25299167">
        <ele>622.0</ele>
        <time>2018-05-19T15:23:19.468Z</time>
      </trkpt>
      <trkpt lat="43.15509167" lon="-4.25282333">
        <ele>622.0</ele>
        <time>2018-05-19T15:23:20.453Z</time>
      </trkpt>
      <trkpt lat="43.15509167" lon="-4.25282333">
        <ele>622.0</ele>
        <time>2018-05-19T15:23:21.476Z</time>
      </trkpt>
      <trkpt lat="43.15518667" lon="-4.25264167">
        <ele>622.0</ele>
        <time>2018-05-19T15:23:22.476Z</time>
      </trkpt>
      <trkpt lat="43.15518667" lon="-4.25264167">
        <ele>622.0</ele>
        <time>2018-05-19T15:23:23.472Z</time>
      </trkpt>
      <trkpt lat="43.15524" lon="-4.25242333">
        <ele>622.0</ele>
        <time>2018-05-19T15:23:24.484Z</time>
      </trkpt>
      <trkpt lat="43.15524" lon="-4.25242333">
        <ele>622.0</ele>
        <time>2018-05-19T15:23:25.471Z</time>
      </trkpt>
      <trkpt lat="43.15526833" lon="-4.25219">
        <ele>621.0</ele>
        <time>2018-05-19T15:23:26.477Z</time>
      </trkpt>
      <trkpt lat="43.15526833" lon="-4.25219">
        <ele>621.0</ele>
        <time>2018-05-19T15:23:27.468Z</time>
      </trkpt>
      <trkpt lat="43.15533" lon="-4.25196333">
        <ele>620.0</ele>
        <time>2018-05-19T15:23:28.452Z</time>
      </trkpt>
      <trkpt lat="43.15533" lon="-4.25196333">
        <ele>620.0</ele>
        <time>2018-05-19T15:23:29.478Z</time>
      </trkpt>
      <trkpt lat="43.15543833" lon="-4.25179833">
        <ele>619.0</ele>
        <time>2018-05-19T15:23:30.479Z</time>
      </trkpt>
      <trkpt lat="43.15543833" lon="-4.25179833">
        <ele>619.0</ele>
        <time>2018-05-19T15:23:31.471Z</time>
      </trkpt>
      <trkpt lat="43.15559" lon="-4.25173">
        <ele>617.0</ele>
        <time>2018-05-19T15:23:32.462Z</time>
      </trkpt>
      <trkpt lat="43.15559" lon="-4.25173">
        <ele>617.0</ele>
        <time>2018-05-19T15:23:33.487Z</time>
      </trkpt>
      <trkpt lat="43.15567333" lon="-4.25156667">
        <ele>616.0</ele>
        <time>2018-05-19T15:23:34.476Z</time>
      </trkpt>
      <trkpt lat="43.15569" lon="-4.251445">
        <ele>615.0</ele>
        <time>2018-05-19T15:23:35.477Z</time>
      </trkpt>
      <trkpt lat="43.155695" lon="-4.25131167">
        <ele>614.0</ele>
        <time>2018-05-19T15:23:36.478Z</time>
      </trkpt>
      <trkpt lat="43.155695" lon="-4.25131167">
        <ele>614.0</ele>
        <time>2018-05-19T15:23:37.472Z</time>
      </trkpt>
      <trkpt lat="43.15571167" lon="-4.25102833">
        <ele>613.0</ele>
        <time>2018-05-19T15:23:38.478Z</time>
      </trkpt>
      <trkpt lat="43.15571167" lon="-4.25102833">
        <ele>613.0</ele>
        <time>2018-05-19T15:23:39.471Z</time>
      </trkpt>
      <trkpt lat="43.15574833" lon="-4.25078333">
        <ele>611.0</ele>
        <time>2018-05-19T15:23:40.476Z</time>
      </trkpt>
      <trkpt lat="43.15578667" lon="-4.250695">
        <ele>610.0</ele>
        <time>2018-05-19T15:23:41.476Z</time>
      </trkpt>
      <trkpt lat="43.15584333" lon="-4.25065">
        <ele>609.0</ele>
        <time>2018-05-19T15:23:42.478Z</time>
      </trkpt>
      <trkpt lat="43.15584333" lon="-4.25065">
        <ele>609.0</ele>
        <time>2018-05-19T15:23:43.472Z</time>
      </trkpt>
      <trkpt lat="43.15594667" lon="-4.25073">
        <ele>608.0</ele>
        <time>2018-05-19T15:23:44.457Z</time>
      </trkpt>
      <trkpt lat="43.15597667" lon="-4.25082833">
        <ele>607.0</ele>
        <time>2018-05-19T15:23:45.487Z</time>
      </trkpt>
      <trkpt lat="43.15597667" lon="-4.25082833">
        <ele>607.0</ele>
        <time>2018-05-19T15:23:46.471Z</time>
      </trkpt>
      <trkpt lat="43.15602" lon="-4.25105167">
        <ele>605.0</ele>
        <time>2018-05-19T15:23:47.476Z</time>
      </trkpt>
      <trkpt lat="43.15605" lon="-4.25116667">
        <ele>605.0</ele>
        <time>2018-05-19T15:23:48.477Z</time>
      </trkpt>
      <trkpt lat="43.15605" lon="-4.25116667">
        <ele>605.0</ele>
        <time>2018-05-19T15:23:49.469Z</time>
      </trkpt>
      <trkpt lat="43.15611833" lon="-4.25140333">
        <ele>604.0</ele>
        <time>2018-05-19T15:23:50.452Z</time>
      </trkpt>
      <trkpt lat="43.15611833" lon="-4.25140333">
        <ele>604.0</ele>
        <time>2018-05-19T15:23:51.478Z</time>
      </trkpt>
      <trkpt lat="43.15617667" lon="-4.251655">
        <ele>602.0</ele>
        <time>2018-05-19T15:23:52.477Z</time>
      </trkpt>
      <trkpt lat="43.15617667" lon="-4.251655">
        <ele>602.0</ele>
        <time>2018-05-19T15:23:53.471Z</time>
      </trkpt>
      <trkpt lat="43.15623333" lon="-4.25191333">
        <ele>602.0</ele>
        <time>2018-05-19T15:23:54.477Z</time>
      </trkpt>
      <trkpt lat="43.15623333" lon="-4.25191333">
        <ele>602.0</ele>
        <time>2018-05-19T15:23:55.471Z</time>
      </trkpt>
      <trkpt lat="43.15627333" lon="-4.25218">
        <ele>600.0</ele>
        <time>2018-05-19T15:23:56.476Z</time>
      </trkpt>
      <trkpt lat="43.15627333" lon="-4.25218">
        <ele>600.0</ele>
        <time>2018-05-19T15:23:57.475Z</time>
      </trkpt>
      <trkpt lat="43.15627833" lon="-4.25247">
        <ele>598.0</ele>
        <time>2018-05-19T15:23:58.476Z</time>
      </trkpt>
      <trkpt lat="43.15627833" lon="-4.25247">
        <ele>598.0</ele>
        <time>2018-05-19T15:23:59.471Z</time>
      </trkpt>
      <trkpt lat="43.15627667" lon="-4.25276833">
        <ele>597.0</ele>
        <time>2018-05-19T15:24:00.480Z</time>
      </trkpt>
      <trkpt lat="43.15627667" lon="-4.25276833">
        <ele>597.0</ele>
        <time>2018-05-19T15:24:01.471Z</time>
      </trkpt>
      <trkpt lat="43.15628833" lon="-4.25306667">
        <ele>595.0</ele>
        <time>2018-05-19T15:24:02.477Z</time>
      </trkpt>
      <trkpt lat="43.15628833" lon="-4.25306667">
        <ele>595.0</ele>
        <time>2018-05-19T15:24:03.471Z</time>
      </trkpt>
      <trkpt lat="43.15631" lon="-4.25336333">
        <ele>594.0</ele>
        <time>2018-05-19T15:24:04.474Z</time>
      </trkpt>
      <trkpt lat="43.15631167" lon="-4.25351333">
        <ele>593.0</ele>
        <time>2018-05-19T15:24:05.476Z</time>
      </trkpt>
      <trkpt lat="43.15631167" lon="-4.25351333">
        <ele>593.0</ele>
        <time>2018-05-19T15:24:06.475Z</time>
      </trkpt>
      <trkpt lat="43.15629667" lon="-4.25381167">
        <ele>591.0</ele>
        <time>2018-05-19T15:24:07.476Z</time>
      </trkpt>
      <trkpt lat="43.15628333" lon="-4.25395">
        <ele>590.0</ele>
        <time>2018-05-19T15:24:08.477Z</time>
      </trkpt>
      <trkpt lat="43.15628333" lon="-4.25395">
        <ele>590.0</ele>
        <time>2018-05-19T15:24:09.472Z</time>
      </trkpt>
      <trkpt lat="43.15626333" lon="-4.25418167">
        <ele>589.0</ele>
        <time>2018-05-19T15:24:10.453Z</time>
      </trkpt>
      <trkpt lat="43.15628833" lon="-4.25427833">
        <ele>588.0</ele>
        <time>2018-05-19T15:24:11.479Z</time>
      </trkpt>
      <trkpt lat="43.15628833" lon="-4.25427833">
        <ele>588.0</ele>
        <time>2018-05-19T15:24:12.475Z</time>
      </trkpt>
      <trkpt lat="43.15637333" lon="-4.25436">
        <ele>586.0</ele>
        <time>2018-05-19T15:24:13.476Z</time>
      </trkpt>
      <trkpt lat="43.15643667" lon="-4.25432333">
        <ele>585.0</ele>
        <time>2018-05-19T15:24:14.476Z</time>
      </trkpt>
      <trkpt lat="43.15643667" lon="-4.25432333">
        <ele>585.0</ele>
        <time>2018-05-19T15:24:15.471Z</time>
      </trkpt>
      <trkpt lat="43.15651667" lon="-4.25412833">
        <ele>584.0</ele>
        <time>2018-05-19T15:24:16.476Z</time>
      </trkpt>
      <trkpt lat="43.15651667" lon="-4.25412833">
        <ele>584.0</ele>
        <time>2018-05-19T15:24:17.480Z</time>
      </trkpt>
      <trkpt lat="43.15655333" lon="-4.25388833">
        <ele>581.0</ele>
        <time>2018-05-19T15:24:18.478Z</time>
      </trkpt>
      <trkpt lat="43.15655333" lon="-4.25388833">
        <ele>581.0</ele>
        <time>2018-05-19T15:24:19.471Z</time>
      </trkpt>
      <trkpt lat="43.15658833" lon="-4.25362167">
        <ele>579.0</ele>
        <time>2018-05-19T15:24:20.456Z</time>
      </trkpt>
      <trkpt lat="43.15658833" lon="-4.25362167">
        <ele>579.0</ele>
        <time>2018-05-19T15:24:21.479Z</time>
      </trkpt>
      <trkpt lat="43.15662667" lon="-4.25334167">
        <ele>577.0</ele>
        <time>2018-05-19T15:24:22.476Z</time>
      </trkpt>
      <trkpt lat="43.15662667" lon="-4.25334167">
        <ele>577.0</ele>
        <time>2018-05-19T15:24:23.474Z</time>
      </trkpt>
      <trkpt lat="43.15667667" lon="-4.253045">
        <ele>576.0</ele>
        <time>2018-05-19T15:24:24.460Z</time>
      </trkpt>
      <trkpt lat="43.15667667" lon="-4.253045">
        <ele>576.0</ele>
        <time>2018-05-19T15:24:25.482Z</time>
      </trkpt>
      <trkpt lat="43.15674" lon="-4.25273333">
        <ele>574.0</ele>
        <time>2018-05-19T15:24:26.457Z</time>
      </trkpt>
      <trkpt lat="43.15674" lon="-4.25273333">
        <ele>574.0</ele>
        <time>2018-05-19T15:24:27.485Z</time>
      </trkpt>
      <trkpt lat="43.156775" lon="-4.25240833">
        <ele>572.0</ele>
        <time>2018-05-19T15:24:28.476Z</time>
      </trkpt>
      <trkpt lat="43.15677667" lon="-4.25223833">
        <ele>571.0</ele>
        <time>2018-05-19T15:24:29.480Z</time>
      </trkpt>
      <trkpt lat="43.156775" lon="-4.252065">
        <ele>570.0</ele>
        <time>2018-05-19T15:24:30.478Z</time>
      </trkpt>
      <trkpt lat="43.156775" lon="-4.252065">
        <ele>570.0</ele>
        <time>2018-05-19T15:24:31.471Z</time>
      </trkpt>
      <trkpt lat="43.15677833" lon="-4.25171667">
        <ele>568.0</ele>
        <time>2018-05-19T15:24:32.477Z</time>
      </trkpt>
      <trkpt lat="43.15677833" lon="-4.25171667">
        <ele>568.0</ele>
        <time>2018-05-19T15:24:33.471Z</time>
      </trkpt>
      <trkpt lat="43.15684333" lon="-4.25135833">
        <ele>566.0</ele>
        <time>2018-05-19T15:24:34.476Z</time>
      </trkpt>
      <trkpt lat="43.15689333" lon="-4.25117833">
        <ele>565.0</ele>
        <time>2018-05-19T15:24:35.476Z</time>
      </trkpt>
      <trkpt lat="43.15689333" lon="-4.25117833">
        <ele>565.0</ele>
        <time>2018-05-19T15:24:36.474Z</time>
      </trkpt>
      <trkpt lat="43.15699333" lon="-4.25081667">
        <ele>563.0</ele>
        <time>2018-05-19T15:24:37.477Z</time>
      </trkpt>
      <trkpt lat="43.15699333" lon="-4.25081667">
        <ele>563.0</ele>
        <time>2018-05-19T15:24:38.471Z</time>
      </trkpt>
      <trkpt lat="43.15709" lon="-4.25045">
        <ele>561.0</ele>
        <time>2018-05-19T15:24:39.457Z</time>
      </trkpt>
      <trkpt lat="43.157145" lon="-4.25026">
        <ele>560.0</ele>
        <time>2018-05-19T15:24:40.455Z</time>
      </trkpt>
      <trkpt lat="43.157145" lon="-4.25026">
        <ele>560.0</ele>
        <time>2018-05-19T15:24:41.482Z</time>
      </trkpt>
      <trkpt lat="43.15726" lon="-4.249875">
        <ele>557.0</ele>
        <time>2018-05-19T15:24:42.476Z</time>
      </trkpt>
      <trkpt lat="43.15731333" lon="-4.249675">
        <ele>555.0</ele>
        <time>2018-05-19T15:24:43.475Z</time>
      </trkpt>
      <trkpt lat="43.15731333" lon="-4.249675">
        <ele>555.0</ele>
        <time>2018-05-19T15:24:44.469Z</time>
      </trkpt>
      <trkpt lat="43.15738333" lon="-4.24924333">
        <ele>552.0</ele>
        <time>2018-05-19T15:24:45.452Z</time>
      </trkpt>
      <trkpt lat="43.15738333" lon="-4.24924333">
        <ele>552.0</ele>
        <time>2018-05-19T15:24:46.478Z</time>
      </trkpt>
      <trkpt lat="43.15744333" lon="-4.24880833">
        <ele>549.0</ele>
        <time>2018-05-19T15:24:47.477Z</time>
      </trkpt>
      <trkpt lat="43.15744333" lon="-4.24880833">
        <ele>549.0</ele>
        <time>2018-05-19T15:24:48.475Z</time>
      </trkpt>
      <trkpt lat="43.15753" lon="-4.24839333">
        <ele>546.0</ele>
        <time>2018-05-19T15:24:49.477Z</time>
      </trkpt>
      <trkpt lat="43.15753" lon="-4.24839333">
        <ele>546.0</ele>
        <time>2018-05-19T15:24:50.471Z</time>
      </trkpt>
      <trkpt lat="43.15765333" lon="-4.24799">
        <ele>543.0</ele>
        <time>2018-05-19T15:24:51.477Z</time>
      </trkpt>
      <trkpt lat="43.15765333" lon="-4.24799">
        <ele>543.0</ele>
        <time>2018-05-19T15:24:52.471Z</time>
      </trkpt>
      <trkpt lat="43.15777833" lon="-4.24761333">
        <ele>540.0</ele>
        <time>2018-05-19T15:24:53.477Z</time>
      </trkpt>
      <trkpt lat="43.15783333" lon="-4.24743833">
        <ele>539.0</ele>
        <time>2018-05-19T15:24:54.475Z</time>
      </trkpt>
      <trkpt lat="43.15783333" lon="-4.24743833">
        <ele>539.0</ele>
        <time>2018-05-19T15:24:55.471Z</time>
      </trkpt>
      <trkpt lat="43.15793167" lon="-4.24710833">
        <ele>536.0</ele>
        <time>2018-05-19T15:24:56.476Z</time>
      </trkpt>
      <trkpt lat="43.15793167" lon="-4.24710833">
        <ele>536.0</ele>
        <time>2018-05-19T15:24:57.472Z</time>
      </trkpt>
      <trkpt lat="43.15805" lon="-4.24681">
        <ele>534.0</ele>
        <time>2018-05-19T15:24:58.452Z</time>
      </trkpt>
      <trkpt lat="43.15805" lon="-4.24681">
        <ele>534.0</ele>
        <time>2018-05-19T15:24:59.479Z</time>
      </trkpt>
      <trkpt lat="43.15822" lon="-4.24656333">
        <ele>531.0</ele>
        <time>2018-05-19T15:25:00.477Z</time>
      </trkpt>
      <trkpt lat="43.15822" lon="-4.24656333">
        <ele>531.0</ele>
        <time>2018-05-19T15:25:01.471Z</time>
      </trkpt>
      <trkpt lat="43.158455" lon="-4.24638167">
        <ele>528.0</ele>
        <time>2018-05-19T15:25:02.474Z</time>
      </trkpt>
      <trkpt lat="43.158455" lon="-4.24638167">
        <ele>528.0</ele>
        <time>2018-05-19T15:25:03.480Z</time>
      </trkpt>
      <trkpt lat="43.15869333" lon="-4.24625333">
        <ele>525.0</ele>
        <time>2018-05-19T15:25:04.477Z</time>
      </trkpt>
      <trkpt lat="43.15869333" lon="-4.24625333">
        <ele>525.0</ele>
        <time>2018-05-19T15:25:05.471Z</time>
      </trkpt>
      <trkpt lat="43.15886833" lon="-4.24608667">
        <ele>523.0</ele>
        <time>2018-05-19T15:25:06.480Z</time>
      </trkpt>
      <trkpt lat="43.15886833" lon="-4.24608667">
        <ele>523.0</ele>
        <time>2018-05-19T15:25:07.471Z</time>
      </trkpt>
      <trkpt lat="43.15898" lon="-4.24587667">
        <ele>522.0</ele>
        <time>2018-05-19T15:25:08.476Z</time>
      </trkpt>
      <trkpt lat="43.15898" lon="-4.24587667">
        <ele>522.0</ele>
        <time>2018-05-19T15:25:09.474Z</time>
      </trkpt>
      <trkpt lat="43.159075" lon="-4.24572">
        <ele>520.0</ele>
        <time>2018-05-19T15:25:10.476Z</time>
      </trkpt>
      <trkpt lat="43.15912" lon="-4.24570167">
        <ele>519.0</ele>
        <time>2018-05-19T15:25:11.477Z</time>
      </trkpt>
      <trkpt lat="43.15912" lon="-4.24570167">
        <ele>519.0</ele>
        <time>2018-05-19T15:25:12.475Z</time>
      </trkpt>
      <trkpt lat="43.15916667" lon="-4.24584333">
        <ele>517.0</ele>
        <time>2018-05-19T15:25:13.476Z</time>
      </trkpt>
      <trkpt lat="43.15916667" lon="-4.24584333">
        <ele>517.0</ele>
        <time>2018-05-19T15:25:14.473Z</time>
      </trkpt>
      <trkpt lat="43.15917667" lon="-4.246055">
        <ele>515.0</ele>
        <time>2018-05-19T15:25:15.475Z</time>
      </trkpt>
      <trkpt lat="43.15917667" lon="-4.246055">
        <ele>515.0</ele>
        <time>2018-05-19T15:25:16.471Z</time>
      </trkpt>
      <trkpt lat="43.15913" lon="-4.246285">
        <ele>513.0</ele>
        <time>2018-05-19T15:25:17.477Z</time>
      </trkpt>
      <trkpt lat="43.15908333" lon="-4.24641">
        <ele>511.0</ele>
        <time>2018-05-19T15:25:18.477Z</time>
      </trkpt>
      <trkpt lat="43.15908333" lon="-4.24641">
        <ele>511.0</ele>
        <time>2018-05-19T15:25:19.471Z</time>
      </trkpt>
      <trkpt lat="43.15895333" lon="-4.246665">
        <ele>509.0</ele>
        <time>2018-05-19T15:25:20.473Z</time>
      </trkpt>
      <trkpt lat="43.15889" lon="-4.24680833">
        <ele>508.0</ele>
        <time>2018-05-19T15:25:21.476Z</time>
      </trkpt>
      <trkpt lat="43.15881667" lon="-4.246955">
        <ele>506.0</ele>
        <time>2018-05-19T15:25:22.476Z</time>
      </trkpt>
      <trkpt lat="43.15881667" lon="-4.246955">
        <ele>506.0</ele>
        <time>2018-05-19T15:25:23.477Z</time>
      </trkpt>
      <trkpt lat="43.1587" lon="-4.24723">
        <ele>504.0</ele>
        <time>2018-05-19T15:25:24.462Z</time>
      </trkpt>
      <trkpt lat="43.1587" lon="-4.24723">
        <ele>504.0</ele>
        <time>2018-05-19T15:25:25.469Z</time>
      </trkpt>
      <trkpt lat="43.15863333" lon="-4.24741">
        <ele>501.0</ele>
        <time>2018-05-19T15:25:26.476Z</time>
      </trkpt>
      <trkpt lat="43.15863333" lon="-4.24741">
        <ele>501.0</ele>
        <time>2018-05-19T15:25:27.471Z</time>
      </trkpt>
      <trkpt lat="43.15869833" lon="-4.24750667">
        <ele>499.0</ele>
        <time>2018-05-19T15:25:28.476Z</time>
      </trkpt>
      <trkpt lat="43.15869833" lon="-4.24750667">
        <ele>499.0</ele>
        <time>2018-05-19T15:25:29.472Z</time>
      </trkpt>
      <trkpt lat="43.158785" lon="-4.24750333">
        <ele>497.0</ele>
        <time>2018-05-19T15:25:30.457Z</time>
      </trkpt>
      <trkpt lat="43.158785" lon="-4.24750333">
        <ele>497.0</ele>
        <time>2018-05-19T15:25:31.480Z</time>
      </trkpt>
      <trkpt lat="43.15889333" lon="-4.24728667">
        <ele>495.0</ele>
        <time>2018-05-19T15:25:32.480Z</time>
      </trkpt>
      <trkpt lat="43.15889333" lon="-4.24728667">
        <ele>495.0</ele>
        <time>2018-05-19T15:25:33.468Z</time>
      </trkpt>
      <trkpt lat="43.15901167" lon="-4.24708667">
        <ele>493.0</ele>
        <time>2018-05-19T15:25:34.454Z</time>
      </trkpt>
      <trkpt lat="43.15901167" lon="-4.24708667">
        <ele>493.0</ele>
        <time>2018-05-19T15:25:35.481Z</time>
      </trkpt>
      <trkpt lat="43.15918" lon="-4.246945">
        <ele>491.0</ele>
        <time>2018-05-19T15:25:36.477Z</time>
      </trkpt>
      <trkpt lat="43.15918" lon="-4.246945">
        <ele>491.0</ele>
        <time>2018-05-19T15:25:37.480Z</time>
      </trkpt>
      <trkpt lat="43.15938333" lon="-4.246835">
        <ele>489.0</ele>
        <time>2018-05-19T15:25:38.476Z</time>
      </trkpt>
      <trkpt lat="43.15938333" lon="-4.246835">
        <ele>489.0</ele>
        <time>2018-05-19T15:25:39.471Z</time>
      </trkpt>
      <trkpt lat="43.15957" lon="-4.24667167">
        <ele>486.0</ele>
        <time>2018-05-19T15:25:40.477Z</time>
      </trkpt>
      <trkpt lat="43.15957" lon="-4.24667167">
        <ele>486.0</ele>
        <time>2018-05-19T15:25:41.471Z</time>
      </trkpt>
      <trkpt lat="43.15969333" lon="-4.24645333">
        <ele>484.0</ele>
        <time>2018-05-19T15:25:42.478Z</time>
      </trkpt>
      <trkpt lat="43.15969333" lon="-4.24645333">
        <ele>484.0</ele>
        <time>2018-05-19T15:25:43.471Z</time>
      </trkpt>
      <trkpt lat="43.15976333" lon="-4.24623167">
        <ele>482.0</ele>
        <time>2018-05-19T15:25:44.476Z</time>
      </trkpt>
      <trkpt lat="43.15976333" lon="-4.24623167">
        <ele>482.0</ele>
        <time>2018-05-19T15:25:45.471Z</time>
      </trkpt>
      <trkpt lat="43.15984333" lon="-4.246165">
        <ele>480.0</ele>
        <time>2018-05-19T15:25:46.476Z</time>
      </trkpt>
      <trkpt lat="43.15984333" lon="-4.246165">
        <ele>480.0</ele>
        <time>2018-05-19T15:25:47.471Z</time>
      </trkpt>
      <trkpt lat="43.15992" lon="-4.2463">
        <ele>478.0</ele>
        <time>2018-05-19T15:25:48.477Z</time>
      </trkpt>
      <trkpt lat="43.15992" lon="-4.2463">
        <ele>478.0</ele>
        <time>2018-05-19T15:25:49.471Z</time>
      </trkpt>
      <trkpt lat="43.15990167" lon="-4.24652167">
        <ele>476.0</ele>
        <time>2018-05-19T15:25:50.479Z</time>
      </trkpt>
      <trkpt lat="43.15990167" lon="-4.24652167">
        <ele>476.0</ele>
        <time>2018-05-19T15:25:51.471Z</time>
      </trkpt>
      <trkpt lat="43.15981" lon="-4.246745">
        <ele>473.0</ele>
        <time>2018-05-19T15:25:52.475Z</time>
      </trkpt>
      <trkpt lat="43.15981" lon="-4.246745">
        <ele>473.0</ele>
        <time>2018-05-19T15:25:53.451Z</time>
      </trkpt>
      <trkpt lat="43.15966667" lon="-4.24694">
        <ele>471.0</ele>
        <time>2018-05-19T15:25:54.477Z</time>
      </trkpt>
      <trkpt lat="43.15966667" lon="-4.24694">
        <ele>471.0</ele>
        <time>2018-05-19T15:25:55.474Z</time>
      </trkpt>
      <trkpt lat="43.15950833" lon="-4.24711">
        <ele>469.0</ele>
        <time>2018-05-19T15:25:56.477Z</time>
      </trkpt>
      <trkpt lat="43.15950833" lon="-4.24711">
        <ele>469.0</ele>
        <time>2018-05-19T15:25:57.471Z</time>
      </trkpt>
      <trkpt lat="43.15933333" lon="-4.24731167">
        <ele>466.0</ele>
        <time>2018-05-19T15:25:58.476Z</time>
      </trkpt>
      <trkpt lat="43.15933333" lon="-4.24731167">
        <ele>466.0</ele>
        <time>2018-05-19T15:25:59.467Z</time>
      </trkpt>
      <trkpt lat="43.15925833" lon="-4.24749167">
        <ele>464.0</ele>
        <time>2018-05-19T15:26:00.459Z</time>
      </trkpt>
      <trkpt lat="43.15925833" lon="-4.24749167">
        <ele>464.0</ele>
        <time>2018-05-19T15:26:01.478Z</time>
      </trkpt>
      <trkpt lat="43.15925167" lon="-4.24763833">
        <ele>462.0</ele>
        <time>2018-05-19T15:26:02.476Z</time>
      </trkpt>
      <trkpt lat="43.15930333" lon="-4.247655">
        <ele>461.0</ele>
        <time>2018-05-19T15:26:03.477Z</time>
      </trkpt>
      <trkpt lat="43.15930333" lon="-4.247655">
        <ele>461.0</ele>
        <time>2018-05-19T15:26:04.474Z</time>
      </trkpt>
      <trkpt lat="43.15941167" lon="-4.24757167">
        <ele>459.0</ele>
        <time>2018-05-19T15:26:05.475Z</time>
      </trkpt>
      <trkpt lat="43.15946833" lon="-4.247495">
        <ele>457.0</ele>
        <time>2018-05-19T15:26:06.476Z</time>
      </trkpt>
      <trkpt lat="43.15946833" lon="-4.247495">
        <ele>457.0</ele>
        <time>2018-05-19T15:26:07.475Z</time>
      </trkpt>
      <trkpt lat="43.15960833" lon="-4.24734333">
        <ele>455.0</ele>
        <time>2018-05-19T15:26:08.477Z</time>
      </trkpt>
      <trkpt lat="43.15960833" lon="-4.24734333">
        <ele>455.0</ele>
        <time>2018-05-19T15:26:09.468Z</time>
      </trkpt>
      <trkpt lat="43.159785" lon="-4.24720167">
        <ele>453.0</ele>
        <time>2018-05-19T15:26:10.458Z</time>
      </trkpt>
      <trkpt lat="43.159785" lon="-4.24720167">
        <ele>453.0</ele>
        <time>2018-05-19T15:26:11.483Z</time>
      </trkpt>
      <trkpt lat="43.15998" lon="-4.24706333">
        <ele>451.0</ele>
        <time>2018-05-19T15:26:12.478Z</time>
      </trkpt>
      <trkpt lat="43.15998" lon="-4.24706333">
        <ele>451.0</ele>
        <time>2018-05-19T15:26:13.471Z</time>
      </trkpt>
      <trkpt lat="43.16016333" lon="-4.246915">
        <ele>449.0</ele>
        <time>2018-05-19T15:26:14.483Z</time>
      </trkpt>
      <trkpt lat="43.16016333" lon="-4.246915">
        <ele>449.0</ele>
        <time>2018-05-19T15:26:15.471Z</time>
      </trkpt>
      <trkpt lat="43.16029167" lon="-4.24676833">
        <ele>447.0</ele>
        <time>2018-05-19T15:26:16.475Z</time>
      </trkpt>
      <trkpt lat="43.16029167" lon="-4.24676833">
        <ele>447.0</ele>
        <time>2018-05-19T15:26:17.471Z</time>
      </trkpt>
      <trkpt lat="43.16039333" lon="-4.246685">
        <ele>445.0</ele>
        <time>2018-05-19T15:26:18.477Z</time>
      </trkpt>
      <trkpt lat="43.16039333" lon="-4.246685">
        <ele>445.0</ele>
        <time>2018-05-19T15:26:19.474Z</time>
      </trkpt>
      <trkpt lat="43.16048667" lon="-4.24680667">
        <ele>442.0</ele>
        <time>2018-05-19T15:26:20.483Z</time>
      </trkpt>
      <trkpt lat="43.16049667" lon="-4.24689833">
        <ele>441.0</ele>
        <time>2018-05-19T15:26:21.475Z</time>
      </trkpt>
      <trkpt lat="43.16049667" lon="-4.24689833">
        <ele>441.0</ele>
        <time>2018-05-19T15:26:22.471Z</time>
      </trkpt>
      <trkpt lat="43.160375" lon="-4.24709667">
        <ele>439.0</ele>
        <time>2018-05-19T15:26:23.481Z</time>
      </trkpt>
      <trkpt lat="43.160305" lon="-4.24719333">
        <ele>438.0</ele>
        <time>2018-05-19T15:26:24.450Z</time>
      </trkpt>
      <trkpt lat="43.160305" lon="-4.24719333">
        <ele>438.0</ele>
        <time>2018-05-19T15:26:25.457Z</time>
      </trkpt>
      <trkpt lat="43.16017167" lon="-4.24737167">
        <ele>436.0</ele>
        <time>2018-05-19T15:26:26.477Z</time>
      </trkpt>
      <trkpt lat="43.16017167" lon="-4.24737167">
        <ele>436.0</ele>
        <time>2018-05-19T15:26:27.471Z</time>
      </trkpt>
      <trkpt lat="43.16000667" lon="-4.24749667">
        <ele>434.0</ele>
        <time>2018-05-19T15:26:28.476Z</time>
      </trkpt>
      <trkpt lat="43.16000667" lon="-4.24749667">
        <ele>434.0</ele>
        <time>2018-05-19T15:26:29.468Z</time>
      </trkpt>
      <trkpt lat="43.15987333" lon="-4.24762333">
        <ele>432.0</ele>
        <time>2018-05-19T15:26:30.453Z</time>
      </trkpt>
      <trkpt lat="43.15987333" lon="-4.24762333">
        <ele>432.0</ele>
        <time>2018-05-19T15:26:31.451Z</time>
      </trkpt>
      <trkpt lat="43.15993833" lon="-4.24774">
        <ele>429.0</ele>
        <time>2018-05-19T15:26:32.478Z</time>
      </trkpt>
      <trkpt lat="43.15993833" lon="-4.24774">
        <ele>429.0</ele>
        <time>2018-05-19T15:26:33.471Z</time>
      </trkpt>
      <trkpt lat="43.16003" lon="-4.24775333">
        <ele>427.0</ele>
        <time>2018-05-19T15:26:34.475Z</time>
      </trkpt>
      <trkpt lat="43.16003" lon="-4.24775333">
        <ele>427.0</ele>
        <time>2018-05-19T15:26:35.471Z</time>
      </trkpt>
      <trkpt lat="43.16017167" lon="-4.247615">
        <ele>425.0</ele>
        <time>2018-05-19T15:26:36.476Z</time>
      </trkpt>
      <trkpt lat="43.16017167" lon="-4.247615">
        <ele>425.0</ele>
        <time>2018-05-19T15:26:37.471Z</time>
      </trkpt>
      <trkpt lat="43.16033833" lon="-4.24748667">
        <ele>423.0</ele>
        <time>2018-05-19T15:26:38.476Z</time>
      </trkpt>
      <trkpt lat="43.16033833" lon="-4.24748667">
        <ele>423.0</ele>
        <time>2018-05-19T15:26:39.467Z</time>
      </trkpt>
      <trkpt lat="43.16047333" lon="-4.24738167">
        <ele>421.0</ele>
        <time>2018-05-19T15:26:40.452Z</time>
      </trkpt>
      <trkpt lat="43.16047333" lon="-4.24738167">
        <ele>421.0</ele>
        <time>2018-05-19T15:26:41.484Z</time>
      </trkpt>
      <trkpt lat="43.160595" lon="-4.2474">
        <ele>419.0</ele>
        <time>2018-05-19T15:26:42.477Z</time>
      </trkpt>
      <trkpt lat="43.160595" lon="-4.2474">
        <ele>419.0</ele>
        <time>2018-05-19T15:26:43.471Z</time>
      </trkpt>
      <trkpt lat="43.16065" lon="-4.24751667">
        <ele>417.0</ele>
        <time>2018-05-19T15:26:44.456Z</time>
      </trkpt>
      <trkpt lat="43.16066333" lon="-4.24756833">
        <ele>416.0</ele>
        <time>2018-05-19T15:26:45.485Z</time>
      </trkpt>
      <trkpt lat="43.16066333" lon="-4.24756833">
        <ele>416.0</ele>
        <time>2018-05-19T15:26:46.474Z</time>
      </trkpt>
      <trkpt lat="43.16052833" lon="-4.24766">
        <ele>414.0</ele>
        <time>2018-05-19T15:26:47.451Z</time>
      </trkpt>
      <trkpt lat="43.16044833" lon="-4.24772">
        <ele>413.0</ele>
        <time>2018-05-19T15:26:48.479Z</time>
      </trkpt>
      <trkpt lat="43.16044833" lon="-4.24772">
        <ele>413.0</ele>
        <time>2018-05-19T15:26:49.471Z</time>
      </trkpt>
      <trkpt lat="43.16022" lon="-4.24791167">
        <ele>410.0</ele>
        <time>2018-05-19T15:26:50.477Z</time>
      </trkpt>
      <trkpt lat="43.16022" lon="-4.24791167">
        <ele>410.0</ele>
        <time>2018-05-19T15:26:51.471Z</time>
      </trkpt>
      <trkpt lat="43.160025" lon="-4.24815833">
        <ele>408.0</ele>
        <time>2018-05-19T15:26:52.475Z</time>
      </trkpt>
      <trkpt lat="43.160025" lon="-4.24815833">
        <ele>408.0</ele>
        <time>2018-05-19T15:26:53.471Z</time>
      </trkpt>
      <trkpt lat="43.15984167" lon="-4.24844667">
        <ele>406.0</ele>
        <time>2018-05-19T15:26:54.476Z</time>
      </trkpt>
      <trkpt lat="43.15984167" lon="-4.24844667">
        <ele>406.0</ele>
        <time>2018-05-19T15:26:55.471Z</time>
      </trkpt>
      <trkpt lat="43.159695" lon="-4.248685">
        <ele>403.0</ele>
        <time>2018-05-19T15:26:56.475Z</time>
      </trkpt>
      <trkpt lat="43.159695" lon="-4.248685">
        <ele>403.0</ele>
        <time>2018-05-19T15:26:57.471Z</time>
      </trkpt>
      <trkpt lat="43.15960167" lon="-4.24890667">
        <ele>401.0</ele>
        <time>2018-05-19T15:26:58.475Z</time>
      </trkpt>
      <trkpt lat="43.15960167" lon="-4.24890667">
        <ele>401.0</ele>
        <time>2018-05-19T15:26:59.471Z</time>
      </trkpt>
      <trkpt lat="43.15967167" lon="-4.24912">
        <ele>399.0</ele>
        <time>2018-05-19T15:27:00.476Z</time>
      </trkpt>
      <trkpt lat="43.15967167" lon="-4.24912">
        <ele>399.0</ele>
        <time>2018-05-19T15:27:01.471Z</time>
      </trkpt>
      <trkpt lat="43.15981833" lon="-4.24925833">
        <ele>397.0</ele>
        <time>2018-05-19T15:27:02.476Z</time>
      </trkpt>
      <trkpt lat="43.159885" lon="-4.24933333">
        <ele>396.0</ele>
        <time>2018-05-19T15:27:03.476Z</time>
      </trkpt>
      <trkpt lat="43.159885" lon="-4.24933333">
        <ele>396.0</ele>
        <time>2018-05-19T15:27:04.471Z</time>
      </trkpt>
      <trkpt lat="43.16003" lon="-4.24948667">
        <ele>394.0</ele>
        <time>2018-05-19T15:27:05.475Z</time>
      </trkpt>
      <trkpt lat="43.16003" lon="-4.24948667">
        <ele>394.0</ele>
        <time>2018-05-19T15:27:06.471Z</time>
      </trkpt>
      <trkpt lat="43.160165" lon="-4.24964667">
        <ele>393.0</ele>
        <time>2018-05-19T15:27:07.480Z</time>
      </trkpt>
      <trkpt lat="43.16024" lon="-4.24971333">
        <ele>392.0</ele>
        <time>2018-05-19T15:27:08.476Z</time>
      </trkpt>
      <trkpt lat="43.16024" lon="-4.24971333">
        <ele>392.0</ele>
        <time>2018-05-19T15:27:09.471Z</time>
      </trkpt>
      <trkpt lat="43.16037667" lon="-4.24977833">
        <ele>393.0</ele>
        <time>2018-05-19T15:27:10.474Z</time>
      </trkpt>
      <trkpt lat="43.16037667" lon="-4.24977833">
        <ele>393.0</ele>
        <time>2018-05-19T15:27:11.465Z</time>
      </trkpt>
      <trkpt lat="43.16041167" lon="-4.249895">
        <ele>392.0</ele>
        <time>2018-05-19T15:27:12.453Z</time>
      </trkpt>
      <trkpt lat="43.16041167" lon="-4.249895">
        <ele>392.0</ele>
        <time>2018-05-19T15:27:13.477Z</time>
      </trkpt>
      <trkpt lat="43.16039833" lon="-4.25005667">
        <ele>392.0</ele>
        <time>2018-05-19T15:27:14.473Z</time>
      </trkpt>
      <trkpt lat="43.16039833" lon="-4.25005667">
        <ele>392.0</ele>
        <time>2018-05-19T15:27:15.471Z</time>
      </trkpt>
      <trkpt lat="43.16037" lon="-4.25022833">
        <ele>392.0</ele>
        <time>2018-05-19T15:27:16.476Z</time>
      </trkpt>
      <trkpt lat="43.16037" lon="-4.25022833">
        <ele>392.0</ele>
        <time>2018-05-19T15:27:17.471Z</time>
      </trkpt>
      <trkpt lat="43.16035833" lon="-4.25041167">
        <ele>392.0</ele>
        <time>2018-05-19T15:27:18.477Z</time>
      </trkpt>
      <trkpt lat="43.16035833" lon="-4.25041167">
        <ele>392.0</ele>
        <time>2018-05-19T15:27:19.454Z</time>
      </trkpt>
      <trkpt lat="43.16036333" lon="-4.250595">
        <ele>392.0</ele>
        <time>2018-05-19T15:27:20.482Z</time>
      </trkpt>
      <trkpt lat="43.16036333" lon="-4.250595">
        <ele>392.0</ele>
        <time>2018-05-19T15:27:21.475Z</time>
      </trkpt>
      <trkpt lat="43.16040333" lon="-4.25077167">
        <ele>391.0</ele>
        <time>2018-05-19T15:27:22.480Z</time>
      </trkpt>
      <trkpt lat="43.16040333" lon="-4.25077167">
        <ele>391.0</ele>
        <time>2018-05-19T15:27:23.471Z</time>
      </trkpt>
      <trkpt lat="43.160475" lon="-4.250935">
        <ele>391.0</ele>
        <time>2018-05-19T15:27:24.449Z</time>
      </trkpt>
      <trkpt lat="43.160475" lon="-4.250935">
        <ele>391.0</ele>
        <time>2018-05-19T15:27:25.475Z</time>
      </trkpt>
      <trkpt lat="43.16057" lon="-4.25109333">
        <ele>391.0</ele>
        <time>2018-05-19T15:27:26.476Z</time>
      </trkpt>
      <trkpt lat="43.16057" lon="-4.25109333">
        <ele>391.0</ele>
        <time>2018-05-19T15:27:27.471Z</time>
      </trkpt>
      <trkpt lat="43.16066333" lon="-4.25125833">
        <ele>391.0</ele>
        <time>2018-05-19T15:27:28.475Z</time>
      </trkpt>
      <trkpt lat="43.16066333" lon="-4.25125833">
        <ele>391.0</ele>
        <time>2018-05-19T15:27:29.471Z</time>
      </trkpt>
      <trkpt lat="43.16076" lon="-4.25142">
        <ele>390.0</ele>
        <time>2018-05-19T15:27:30.477Z</time>
      </trkpt>
      <trkpt lat="43.16076" lon="-4.25142">
        <ele>390.0</ele>
        <time>2018-05-19T15:27:31.470Z</time>
      </trkpt>
      <trkpt lat="43.16084167" lon="-4.251595">
        <ele>390.0</ele>
        <time>2018-05-19T15:27:32.477Z</time>
      </trkpt>
      <trkpt lat="43.16084167" lon="-4.251595">
        <ele>390.0</ele>
        <time>2018-05-19T15:27:33.469Z</time>
      </trkpt>
      <trkpt lat="43.16094167" lon="-4.25176333">
        <ele>389.0</ele>
        <time>2018-05-19T15:27:34.474Z</time>
      </trkpt>
      <trkpt lat="43.16099" lon="-4.251855">
        <ele>389.0</ele>
        <time>2018-05-19T15:27:35.476Z</time>
      </trkpt>
      <trkpt lat="43.16104167" lon="-4.251945">
        <ele>388.0</ele>
        <time>2018-05-19T15:27:36.478Z</time>
      </trkpt>
      <trkpt lat="43.16104167" lon="-4.251945">
        <ele>388.0</ele>
        <time>2018-05-19T15:27:37.471Z</time>
      </trkpt>
      <trkpt lat="43.16114833" lon="-4.252125">
        <ele>388.0</ele>
        <time>2018-05-19T15:27:38.452Z</time>
      </trkpt>
      <trkpt lat="43.16114833" lon="-4.252125">
        <ele>388.0</ele>
        <time>2018-05-19T15:27:39.480Z</time>
      </trkpt>
      <trkpt lat="43.16125833" lon="-4.25230833">
        <ele>387.0</ele>
        <time>2018-05-19T15:27:40.475Z</time>
      </trkpt>
      <trkpt lat="43.16125833" lon="-4.25230833">
        <ele>387.0</ele>
        <time>2018-05-19T15:27:41.470Z</time>
      </trkpt>
      <trkpt lat="43.16136667" lon="-4.25248667">
        <ele>386.0</ele>
        <time>2018-05-19T15:27:42.453Z</time>
      </trkpt>
      <trkpt lat="43.16142333" lon="-4.252575">
        <ele>386.0</ele>
        <time>2018-05-19T15:27:43.452Z</time>
      </trkpt>
      <trkpt lat="43.16147667" lon="-4.252665">
        <ele>386.0</ele>
        <time>2018-05-19T15:27:44.478Z</time>
      </trkpt>
      <trkpt lat="43.16147667" lon="-4.252665">
        <ele>386.0</ele>
        <time>2018-05-19T15:27:45.471Z</time>
      </trkpt>
      <trkpt lat="43.16158333" lon="-4.25284333">
        <ele>385.0</ele>
        <time>2018-05-19T15:27:46.476Z</time>
      </trkpt>
      <trkpt lat="43.16158333" lon="-4.25284333">
        <ele>385.0</ele>
        <time>2018-05-19T15:27:47.474Z</time>
      </trkpt>
      <trkpt lat="43.16167667" lon="-4.25303167">
        <ele>384.0</ele>
        <time>2018-05-19T15:27:48.474Z</time>
      </trkpt>
      <trkpt lat="43.16167667" lon="-4.25303167">
        <ele>384.0</ele>
        <time>2018-05-19T15:27:49.471Z</time>
      </trkpt>
      <trkpt lat="43.16177167" lon="-4.25322333">
        <ele>384.0</ele>
        <time>2018-05-19T15:27:50.472Z</time>
      </trkpt>
      <trkpt lat="43.16177167" lon="-4.25322333">
        <ele>384.0</ele>
        <time>2018-05-19T15:27:51.477Z</time>
      </trkpt>
      <trkpt lat="43.16186" lon="-4.25342833">
        <ele>384.0</ele>
        <time>2018-05-19T15:27:52.475Z</time>
      </trkpt>
      <trkpt lat="43.16186" lon="-4.25342833">
        <ele>384.0</ele>
        <time>2018-05-19T15:27:53.472Z</time>
      </trkpt>
      <trkpt lat="43.16194333" lon="-4.253645">
        <ele>383.0</ele>
        <time>2018-05-19T15:27:54.475Z</time>
      </trkpt>
      <trkpt lat="43.16194333" lon="-4.253645">
        <ele>383.0</ele>
        <time>2018-05-19T15:27:55.472Z</time>
      </trkpt>
      <trkpt lat="43.16202" lon="-4.25387">
        <ele>383.0</ele>
        <time>2018-05-19T15:27:56.475Z</time>
      </trkpt>
      <trkpt lat="43.16202" lon="-4.25387">
        <ele>383.0</ele>
        <time>2018-05-19T15:27:57.471Z</time>
      </trkpt>
      <trkpt lat="43.16210167" lon="-4.254095">
        <ele>382.0</ele>
        <time>2018-05-19T15:27:58.474Z</time>
      </trkpt>
      <trkpt lat="43.16210167" lon="-4.254095">
        <ele>382.0</ele>
        <time>2018-05-19T15:27:59.469Z</time>
      </trkpt>
      <trkpt lat="43.16218" lon="-4.25432167">
        <ele>382.0</ele>
        <time>2018-05-19T15:28:00.453Z</time>
      </trkpt>
      <trkpt lat="43.16218" lon="-4.25432167">
        <ele>382.0</ele>
        <time>2018-05-19T15:28:01.453Z</time>
      </trkpt>
      <trkpt lat="43.16225667" lon="-4.25454667">
        <ele>381.0</ele>
        <time>2018-05-19T15:28:02.476Z</time>
      </trkpt>
      <trkpt lat="43.16225667" lon="-4.25454667">
        <ele>381.0</ele>
        <time>2018-05-19T15:28:03.469Z</time>
      </trkpt>
      <trkpt lat="43.16233667" lon="-4.254765">
        <ele>381.0</ele>
        <time>2018-05-19T15:28:04.455Z</time>
      </trkpt>
      <trkpt lat="43.16233667" lon="-4.254765">
        <ele>381.0</ele>
        <time>2018-05-19T15:28:05.478Z</time>
      </trkpt>
      <trkpt lat="43.162415" lon="-4.25498333">
        <ele>380.0</ele>
        <time>2018-05-19T15:28:06.476Z</time>
      </trkpt>
      <trkpt lat="43.162415" lon="-4.25498333">
        <ele>380.0</ele>
        <time>2018-05-19T15:28:07.471Z</time>
      </trkpt>
      <trkpt lat="43.16249167" lon="-4.25519667">
        <ele>380.0</ele>
        <time>2018-05-19T15:28:08.475Z</time>
      </trkpt>
      <trkpt lat="43.16253" lon="-4.25530167">
        <ele>379.0</ele>
        <time>2018-05-19T15:28:09.477Z</time>
      </trkpt>
      <trkpt lat="43.16253" lon="-4.25530167">
        <ele>379.0</ele>
        <time>2018-05-19T15:28:10.470Z</time>
      </trkpt>
      <trkpt lat="43.16260833" lon="-4.25550833">
        <ele>379.0</ele>
        <time>2018-05-19T15:28:11.476Z</time>
      </trkpt>
      <trkpt lat="43.16265167" lon="-4.25560667">
        <ele>379.0</ele>
        <time>2018-05-19T15:28:12.475Z</time>
      </trkpt>
      <trkpt lat="43.16265167" lon="-4.25560667">
        <ele>379.0</ele>
        <time>2018-05-19T15:28:13.469Z</time>
      </trkpt>
      <trkpt lat="43.16273167" lon="-4.255805">
        <ele>378.0</ele>
        <time>2018-05-19T15:28:14.476Z</time>
      </trkpt>
      <trkpt lat="43.16277333" lon="-4.25590333">
        <ele>378.0</ele>
        <time>2018-05-19T15:28:15.476Z</time>
      </trkpt>
      <trkpt lat="43.16277333" lon="-4.25590333">
        <ele>378.0</ele>
        <time>2018-05-19T15:28:16.470Z</time>
      </trkpt>
      <trkpt lat="43.16285333" lon="-4.25609833">
        <ele>377.0</ele>
        <time>2018-05-19T15:28:17.475Z</time>
      </trkpt>
      <trkpt lat="43.16289333" lon="-4.25619167">
        <ele>377.0</ele>
        <time>2018-05-19T15:28:18.477Z</time>
      </trkpt>
      <trkpt lat="43.16289333" lon="-4.25619167">
        <ele>377.0</ele>
        <time>2018-05-19T15:28:19.485Z</time>
      </trkpt>
      <trkpt lat="43.16297667" lon="-4.256375">
        <ele>377.0</ele>
        <time>2018-05-19T15:28:20.475Z</time>
      </trkpt>
      <trkpt lat="43.16297667" lon="-4.256375">
        <ele>377.0</ele>
        <time>2018-05-19T15:28:21.474Z</time>
      </trkpt>
      <trkpt lat="43.16305833" lon="-4.25655667">
        <ele>376.0</ele>
        <time>2018-05-19T15:28:22.474Z</time>
      </trkpt>
      <trkpt lat="43.16305833" lon="-4.25655667">
        <ele>376.0</ele>
        <time>2018-05-19T15:28:23.477Z</time>
      </trkpt>
      <trkpt lat="43.16313" lon="-4.256745">
        <ele>376.0</ele>
        <time>2018-05-19T15:28:24.481Z</time>
      </trkpt>
      <trkpt lat="43.16313" lon="-4.256745">
        <ele>376.0</ele>
        <time>2018-05-19T15:28:25.471Z</time>
      </trkpt>
      <trkpt lat="43.163205" lon="-4.25693167">
        <ele>375.0</ele>
        <time>2018-05-19T15:28:26.475Z</time>
      </trkpt>
      <trkpt lat="43.163205" lon="-4.25693167">
        <ele>375.0</ele>
        <time>2018-05-19T15:28:27.471Z</time>
      </trkpt>
      <trkpt lat="43.16329167" lon="-4.25711">
        <ele>375.0</ele>
        <time>2018-05-19T15:28:28.474Z</time>
      </trkpt>
      <trkpt lat="43.163335" lon="-4.25719833">
        <ele>374.0</ele>
        <time>2018-05-19T15:28:29.476Z</time>
      </trkpt>
      <trkpt lat="43.163335" lon="-4.25719833">
        <ele>374.0</ele>
        <time>2018-05-19T15:28:30.471Z</time>
      </trkpt>
      <trkpt lat="43.163415" lon="-4.25738">
        <ele>374.0</ele>
        <time>2018-05-19T15:28:31.474Z</time>
      </trkpt>
      <trkpt lat="43.16345167" lon="-4.25746667">
        <ele>374.0</ele>
        <time>2018-05-19T15:28:32.476Z</time>
      </trkpt>
      <trkpt lat="43.16345167" lon="-4.25746667">
        <ele>374.0</ele>
        <time>2018-05-19T15:28:33.469Z</time>
      </trkpt>
      <trkpt lat="43.16353333" lon="-4.257635">
        <ele>373.0</ele>
        <time>2018-05-19T15:28:34.475Z</time>
      </trkpt>
      <trkpt lat="43.16353333" lon="-4.257635">
        <ele>373.0</ele>
        <time>2018-05-19T15:28:35.469Z</time>
      </trkpt>
      <trkpt lat="43.16361" lon="-4.25780667">
        <ele>372.0</ele>
        <time>2018-05-19T15:28:36.452Z</time>
      </trkpt>
      <trkpt lat="43.16361" lon="-4.25780667">
        <ele>372.0</ele>
        <time>2018-05-19T15:28:37.471Z</time>
      </trkpt>
      <trkpt lat="43.16367833" lon="-4.257975">
        <ele>372.0</ele>
        <time>2018-05-19T15:28:38.474Z</time>
      </trkpt>
      <trkpt lat="43.16367833" lon="-4.257975">
        <ele>372.0</ele>
        <time>2018-05-19T15:28:39.469Z</time>
      </trkpt>
      <trkpt lat="43.16375" lon="-4.25814">
        <ele>372.0</ele>
        <time>2018-05-19T15:28:40.472Z</time>
      </trkpt>
      <trkpt lat="43.16375" lon="-4.25814">
        <ele>372.0</ele>
        <time>2018-05-19T15:28:41.469Z</time>
      </trkpt>
      <trkpt lat="43.16382667" lon="-4.25829333">
        <ele>372.0</ele>
        <time>2018-05-19T15:28:42.477Z</time>
      </trkpt>
      <trkpt lat="43.16382667" lon="-4.25829333">
        <ele>372.0</ele>
        <time>2018-05-19T15:28:43.469Z</time>
      </trkpt>
      <trkpt lat="43.16388667" lon="-4.25845">
        <ele>372.0</ele>
        <time>2018-05-19T15:28:44.478Z</time>
      </trkpt>
      <trkpt lat="43.16388667" lon="-4.25845">
        <ele>372.0</ele>
        <time>2018-05-19T15:28:45.469Z</time>
      </trkpt>
      <trkpt lat="43.16393667" lon="-4.25860167">
        <ele>372.0</ele>
        <time>2018-05-19T15:28:46.475Z</time>
      </trkpt>
      <trkpt lat="43.16393667" lon="-4.25860167">
        <ele>372.0</ele>
        <time>2018-05-19T15:28:47.468Z</time>
      </trkpt>
      <trkpt lat="43.16398333" lon="-4.25875333">
        <ele>373.0</ele>
        <time>2018-05-19T15:28:48.452Z</time>
      </trkpt>
      <trkpt lat="43.16398333" lon="-4.25875333">
        <ele>373.0</ele>
        <time>2018-05-19T15:28:49.451Z</time>
      </trkpt>
      <trkpt lat="43.16402667" lon="-4.25889667">
        <ele>373.0</ele>
        <time>2018-05-19T15:28:50.476Z</time>
      </trkpt>
      <trkpt lat="43.16402667" lon="-4.25889667">
        <ele>373.0</ele>
        <time>2018-05-19T15:28:51.469Z</time>
      </trkpt>
      <trkpt lat="43.16406167" lon="-4.25903667">
        <ele>373.0</ele>
        <time>2018-05-19T15:28:52.474Z</time>
      </trkpt>
      <trkpt lat="43.16408167" lon="-4.2591">
        <ele>373.0</ele>
        <time>2018-05-19T15:28:53.474Z</time>
      </trkpt>
      <trkpt lat="43.16408167" lon="-4.2591">
        <ele>373.0</ele>
        <time>2018-05-19T15:28:54.471Z</time>
      </trkpt>
      <trkpt lat="43.16411667" lon="-4.25922333">
        <ele>374.0</ele>
        <time>2018-05-19T15:28:55.476Z</time>
      </trkpt>
      <trkpt lat="43.16413667" lon="-4.259285">
        <ele>374.0</ele>
        <time>2018-05-19T15:28:56.475Z</time>
      </trkpt>
      <trkpt lat="43.16413667" lon="-4.259285">
        <ele>374.0</ele>
        <time>2018-05-19T15:28:57.471Z</time>
      </trkpt>
      <trkpt lat="43.16417167" lon="-4.2594">
        <ele>375.0</ele>
        <time>2018-05-19T15:28:58.474Z</time>
      </trkpt>
      <trkpt lat="43.16417167" lon="-4.2594">
        <ele>375.0</ele>
        <time>2018-05-19T15:28:59.469Z</time>
      </trkpt>
      <trkpt lat="43.16421167" lon="-4.25950667">
        <ele>375.0</ele>
        <time>2018-05-19T15:29:00.452Z</time>
      </trkpt>
      <trkpt lat="43.16422833" lon="-4.25955667">
        <ele>375.0</ele>
        <time>2018-05-19T15:29:01.478Z</time>
      </trkpt>
      <trkpt lat="43.16422833" lon="-4.25955667">
        <ele>375.0</ele>
        <time>2018-05-19T15:29:02.465Z</time>
      </trkpt>
      <trkpt lat="43.16426167" lon="-4.259655">
        <ele>375.0</ele>
        <time>2018-05-19T15:29:03.451Z</time>
      </trkpt>
      <trkpt lat="43.16427833" lon="-4.25970833">
        <ele>376.0</ele>
        <time>2018-05-19T15:29:04.477Z</time>
      </trkpt>
      <trkpt lat="43.16427833" lon="-4.25970833">
        <ele>376.0</ele>
        <time>2018-05-19T15:29:05.469Z</time>
      </trkpt>
      <trkpt lat="43.16431" lon="-4.25981667">
        <ele>377.0</ele>
        <time>2018-05-19T15:29:06.477Z</time>
      </trkpt>
      <trkpt lat="43.16431" lon="-4.25981667">
        <ele>377.0</ele>
        <time>2018-05-19T15:29:07.470Z</time>
      </trkpt>
      <trkpt lat="43.16434167" lon="-4.25992167">
        <ele>377.0</ele>
        <time>2018-05-19T15:29:08.474Z</time>
      </trkpt>
      <trkpt lat="43.16434167" lon="-4.25992167">
        <ele>377.0</ele>
        <time>2018-05-19T15:29:09.450Z</time>
      </trkpt>
      <trkpt lat="43.16437833" lon="-4.26002333">
        <ele>378.0</ele>
        <time>2018-05-19T15:29:10.481Z</time>
      </trkpt>
      <trkpt lat="43.16437833" lon="-4.26002333">
        <ele>378.0</ele>
        <time>2018-05-19T15:29:11.480Z</time>
      </trkpt>
      <trkpt lat="43.16441" lon="-4.26013167">
        <ele>378.0</ele>
        <time>2018-05-19T15:29:12.452Z</time>
      </trkpt>
      <trkpt lat="43.16442833" lon="-4.26018333">
        <ele>379.0</ele>
        <time>2018-05-19T15:29:13.481Z</time>
      </trkpt>
      <trkpt lat="43.16444833" lon="-4.26023">
        <ele>379.0</ele>
        <time>2018-05-19T15:29:14.476Z</time>
      </trkpt>
      <trkpt lat="43.16444833" lon="-4.26023">
        <ele>379.0</ele>
        <time>2018-05-19T15:29:15.469Z</time>
      </trkpt>
      <trkpt lat="43.16448833" lon="-4.26032667">
        <ele>379.0</ele>
        <time>2018-05-19T15:29:16.475Z</time>
      </trkpt>
      <trkpt lat="43.164505" lon="-4.26037667">
        <ele>380.0</ele>
        <time>2018-05-19T15:29:17.480Z</time>
      </trkpt>
      <trkpt lat="43.164505" lon="-4.26037667">
        <ele>380.0</ele>
        <time>2018-05-19T15:29:18.471Z</time>
      </trkpt>
      <trkpt lat="43.164545" lon="-4.26046833">
        <ele>380.0</ele>
        <time>2018-05-19T15:29:19.474Z</time>
      </trkpt>
      <trkpt lat="43.164565" lon="-4.26051333">
        <ele>380.0</ele>
        <time>2018-05-19T15:29:20.475Z</time>
      </trkpt>
      <trkpt lat="43.164565" lon="-4.26051333">
        <ele>380.0</ele>
        <time>2018-05-19T15:29:21.469Z</time>
      </trkpt>
      <trkpt lat="43.16461" lon="-4.260605">
        <ele>381.0</ele>
        <time>2018-05-19T15:29:22.478Z</time>
      </trkpt>
      <trkpt lat="43.16461" lon="-4.260605">
        <ele>381.0</ele>
        <time>2018-05-19T15:29:23.471Z</time>
      </trkpt>
      <trkpt lat="43.16465167" lon="-4.26069333">
        <ele>381.0</ele>
        <time>2018-05-19T15:29:24.481Z</time>
      </trkpt>
      <trkpt lat="43.16465167" lon="-4.26069333">
        <ele>381.0</ele>
        <time>2018-05-19T15:29:25.487Z</time>
      </trkpt>
      <trkpt lat="43.16469167" lon="-4.26077667">
        <ele>382.0</ele>
        <time>2018-05-19T15:29:26.454Z</time>
      </trkpt>
      <trkpt lat="43.16469167" lon="-4.26077667">
        <ele>382.0</ele>
        <time>2018-05-19T15:29:27.449Z</time>
      </trkpt>
      <trkpt lat="43.16473" lon="-4.26086">
        <ele>382.0</ele>
        <time>2018-05-19T15:29:28.475Z</time>
      </trkpt>
      <trkpt lat="43.16473" lon="-4.26086">
        <ele>382.0</ele>
        <time>2018-05-19T15:29:29.468Z</time>
      </trkpt>
      <trkpt lat="43.16477" lon="-4.26094167">
        <ele>382.0</ele>
        <time>2018-05-19T15:29:30.475Z</time>
      </trkpt>
      <trkpt lat="43.16477" lon="-4.26094167">
        <ele>382.0</ele>
        <time>2018-05-19T15:29:31.469Z</time>
      </trkpt>
      <trkpt lat="43.16481" lon="-4.26102167">
        <ele>383.0</ele>
        <time>2018-05-19T15:29:32.479Z</time>
      </trkpt>
      <trkpt lat="43.16481" lon="-4.26102167">
        <ele>383.0</ele>
        <time>2018-05-19T15:29:33.467Z</time>
      </trkpt>
      <trkpt lat="43.164855" lon="-4.26109833">
        <ele>383.0</ele>
        <time>2018-05-19T15:29:34.474Z</time>
      </trkpt>
      <trkpt lat="43.164855" lon="-4.26109833">
        <ele>383.0</ele>
        <time>2018-05-19T15:29:35.469Z</time>
      </trkpt>
      <trkpt lat="43.16489833" lon="-4.261185">
        <ele>384.0</ele>
        <time>2018-05-19T15:29:36.457Z</time>
      </trkpt>
      <trkpt lat="43.16489833" lon="-4.261185">
        <ele>384.0</ele>
        <time>2018-05-19T15:29:37.469Z</time>
      </trkpt>
      <trkpt lat="43.16494667" lon="-4.26126333">
        <ele>384.0</ele>
        <time>2018-05-19T15:29:38.475Z</time>
      </trkpt>
      <trkpt lat="43.16494667" lon="-4.26126333">
        <ele>384.0</ele>
        <time>2018-05-19T15:29:39.468Z</time>
      </trkpt>
      <trkpt lat="43.16499167" lon="-4.26133833">
        <ele>385.0</ele>
        <time>2018-05-19T15:29:40.475Z</time>
      </trkpt>
      <trkpt lat="43.16499167" lon="-4.26133833">
        <ele>385.0</ele>
        <time>2018-05-19T15:29:41.471Z</time>
      </trkpt>
      <trkpt lat="43.16503167" lon="-4.26141333">
        <ele>386.0</ele>
        <time>2018-05-19T15:29:42.481Z</time>
      </trkpt>
      <trkpt lat="43.16503167" lon="-4.26141333">
        <ele>386.0</ele>
        <time>2018-05-19T15:29:43.468Z</time>
      </trkpt>
      <trkpt lat="43.165075" lon="-4.26148833">
        <ele>386.0</ele>
        <time>2018-05-19T15:29:44.454Z</time>
      </trkpt>
      <trkpt lat="43.16509333" lon="-4.26152667">
        <ele>387.0</ele>
        <time>2018-05-19T15:29:45.480Z</time>
      </trkpt>
      <trkpt lat="43.16509333" lon="-4.26152667">
        <ele>387.0</ele>
        <time>2018-05-19T15:29:46.468Z</time>
      </trkpt>
      <trkpt lat="43.16512833" lon="-4.26161167">
        <ele>387.0</ele>
        <time>2018-05-19T15:29:47.480Z</time>
      </trkpt>
      <trkpt lat="43.165145" lon="-4.261655">
        <ele>388.0</ele>
        <time>2018-05-19T15:29:48.475Z</time>
      </trkpt>
      <trkpt lat="43.165145" lon="-4.261655">
        <ele>388.0</ele>
        <time>2018-05-19T15:29:49.469Z</time>
      </trkpt>
      <trkpt lat="43.165185" lon="-4.26173667">
        <ele>388.0</ele>
        <time>2018-05-19T15:29:50.474Z</time>
      </trkpt>
      <trkpt lat="43.165185" lon="-4.26173667">
        <ele>388.0</ele>
        <time>2018-05-19T15:29:51.468Z</time>
      </trkpt>
      <trkpt lat="43.16522167" lon="-4.26181167">
        <ele>389.0</ele>
        <time>2018-05-19T15:29:52.481Z</time>
      </trkpt>
      <trkpt lat="43.16523833" lon="-4.26185">
        <ele>389.0</ele>
        <time>2018-05-19T15:29:53.475Z</time>
      </trkpt>
      <trkpt lat="43.16525333" lon="-4.26189">
        <ele>389.0</ele>
        <time>2018-05-19T15:29:54.476Z</time>
      </trkpt>
      <trkpt lat="43.16525333" lon="-4.26189">
        <ele>389.0</ele>
        <time>2018-05-19T15:29:55.468Z</time>
      </trkpt>
      <trkpt lat="43.16529" lon="-4.26198167">
        <ele>390.0</ele>
        <time>2018-05-19T15:29:56.474Z</time>
      </trkpt>
      <trkpt lat="43.16529" lon="-4.26198167">
        <ele>390.0</ele>
        <time>2018-05-19T15:29:57.471Z</time>
      </trkpt>
      <trkpt lat="43.16532" lon="-4.26206833">
        <ele>390.0</ele>
        <time>2018-05-19T15:29:58.474Z</time>
      </trkpt>
      <trkpt lat="43.16532" lon="-4.26206833">
        <ele>390.0</ele>
        <time>2018-05-19T15:29:59.469Z</time>
      </trkpt>
      <trkpt lat="43.16535333" lon="-4.26216">
        <ele>391.0</ele>
        <time>2018-05-19T15:30:00.475Z</time>
      </trkpt>
      <trkpt lat="43.16535333" lon="-4.26216">
        <ele>391.0</ele>
        <time>2018-05-19T15:30:01.468Z</time>
      </trkpt>
      <trkpt lat="43.16538833" lon="-4.26225">
        <ele>392.0</ele>
        <time>2018-05-19T15:30:02.478Z</time>
      </trkpt>
      <trkpt lat="43.16538833" lon="-4.26225">
        <ele>392.0</ele>
        <time>2018-05-19T15:30:03.468Z</time>
      </trkpt>
      <trkpt lat="43.16541667" lon="-4.26234167">
        <ele>392.0</ele>
        <time>2018-05-19T15:30:04.450Z</time>
      </trkpt>
      <trkpt lat="43.16541667" lon="-4.26234167">
        <ele>392.0</ele>
        <time>2018-05-19T15:30:05.474Z</time>
      </trkpt>
      <trkpt lat="43.16544333" lon="-4.26243833">
        <ele>392.0</ele>
        <time>2018-05-19T15:30:06.473Z</time>
      </trkpt>
      <trkpt lat="43.16544333" lon="-4.26243833">
        <ele>392.0</ele>
        <time>2018-05-19T15:30:07.471Z</time>
      </trkpt>
      <trkpt lat="43.16547333" lon="-4.26253">
        <ele>393.0</ele>
        <time>2018-05-19T15:30:08.474Z</time>
      </trkpt>
      <trkpt lat="43.16547333" lon="-4.26253">
        <ele>393.0</ele>
        <time>2018-05-19T15:30:09.471Z</time>
      </trkpt>
      <trkpt lat="43.16549833" lon="-4.26262333">
        <ele>393.0</ele>
        <time>2018-05-19T15:30:10.474Z</time>
      </trkpt>
      <trkpt lat="43.16550667" lon="-4.26267">
        <ele>393.0</ele>
        <time>2018-05-19T15:30:11.474Z</time>
      </trkpt>
      <trkpt lat="43.16550667" lon="-4.26267">
        <ele>393.0</ele>
        <time>2018-05-19T15:30:12.479Z</time>
      </trkpt>
      <trkpt lat="43.16552333" lon="-4.26277333">
        <ele>394.0</ele>
        <time>2018-05-19T15:30:13.475Z</time>
      </trkpt>
      <trkpt lat="43.16553833" lon="-4.26282333">
        <ele>394.0</ele>
        <time>2018-05-19T15:30:14.475Z</time>
      </trkpt>
      <trkpt lat="43.16553833" lon="-4.26282333">
        <ele>394.0</ele>
        <time>2018-05-19T15:30:15.468Z</time>
      </trkpt>
      <trkpt lat="43.16555" lon="-4.26292667">
        <ele>394.0</ele>
        <time>2018-05-19T15:30:16.474Z</time>
      </trkpt>
      <trkpt lat="43.16555" lon="-4.26292667">
        <ele>394.0</ele>
        <time>2018-05-19T15:30:17.471Z</time>
      </trkpt>
      <trkpt lat="43.16556333" lon="-4.26303167">
        <ele>394.0</ele>
        <time>2018-05-19T15:30:18.474Z</time>
      </trkpt>
      <trkpt lat="43.16556333" lon="-4.26303167">
        <ele>394.0</ele>
        <time>2018-05-19T15:30:19.470Z</time>
      </trkpt>
      <trkpt lat="43.16557333" lon="-4.263135">
        <ele>394.0</ele>
        <time>2018-05-19T15:30:20.475Z</time>
      </trkpt>
      <trkpt lat="43.16557333" lon="-4.263135">
        <ele>394.0</ele>
        <time>2018-05-19T15:30:21.468Z</time>
      </trkpt>
      <trkpt lat="43.16560333" lon="-4.26322667">
        <ele>394.0</ele>
        <time>2018-05-19T15:30:22.474Z</time>
      </trkpt>
      <trkpt lat="43.16560333" lon="-4.26322667">
        <ele>394.0</ele>
        <time>2018-05-19T15:30:23.477Z</time>
      </trkpt>
      <trkpt lat="43.165625" lon="-4.26332167">
        <ele>394.0</ele>
        <time>2018-05-19T15:30:24.484Z</time>
      </trkpt>
      <trkpt lat="43.165625" lon="-4.26332167">
        <ele>394.0</ele>
        <time>2018-05-19T15:30:25.472Z</time>
      </trkpt>
      <trkpt lat="43.16565333" lon="-4.26341833">
        <ele>394.0</ele>
        <time>2018-05-19T15:30:26.473Z</time>
      </trkpt>
      <trkpt lat="43.16565333" lon="-4.26341833">
        <ele>394.0</ele>
        <time>2018-05-19T15:30:27.468Z</time>
      </trkpt>
      <trkpt lat="43.16567833" lon="-4.263515">
        <ele>395.0</ele>
        <time>2018-05-19T15:30:28.474Z</time>
      </trkpt>
      <trkpt lat="43.16567833" lon="-4.263515">
        <ele>395.0</ele>
        <time>2018-05-19T15:30:29.461Z</time>
      </trkpt>
      <trkpt lat="43.16569" lon="-4.26361333">
        <ele>395.0</ele>
        <time>2018-05-19T15:30:30.452Z</time>
      </trkpt>
      <trkpt lat="43.16569" lon="-4.26361333">
        <ele>395.0</ele>
        <time>2018-05-19T15:30:31.485Z</time>
      </trkpt>
      <trkpt lat="43.1657" lon="-4.26371333">
        <ele>395.0</ele>
        <time>2018-05-19T15:30:32.475Z</time>
      </trkpt>
      <trkpt lat="43.1657" lon="-4.26371333">
        <ele>395.0</ele>
        <time>2018-05-19T15:30:33.471Z</time>
      </trkpt>
      <trkpt lat="43.16571" lon="-4.26381333">
        <ele>395.0</ele>
        <time>2018-05-19T15:30:34.471Z</time>
      </trkpt>
      <trkpt lat="43.16571667" lon="-4.26386167">
        <ele>395.0</ele>
        <time>2018-05-19T15:30:35.474Z</time>
      </trkpt>
      <trkpt lat="43.165725" lon="-4.26390667">
        <ele>396.0</ele>
        <time>2018-05-19T15:30:36.475Z</time>
      </trkpt>
      <trkpt lat="43.165725" lon="-4.26390667">
        <ele>396.0</ele>
        <time>2018-05-19T15:30:37.470Z</time>
      </trkpt>
      <trkpt lat="43.16573833" lon="-4.26400667">
        <ele>396.0</ele>
        <time>2018-05-19T15:30:38.474Z</time>
      </trkpt>
      <trkpt lat="43.16573833" lon="-4.26400667">
        <ele>396.0</ele>
        <time>2018-05-19T15:30:39.468Z</time>
      </trkpt>
      <trkpt lat="43.165745" lon="-4.26410333">
        <ele>397.0</ele>
        <time>2018-05-19T15:30:40.473Z</time>
      </trkpt>
      <trkpt lat="43.16574833" lon="-4.26415333">
        <ele>397.0</ele>
        <time>2018-05-19T15:30:41.474Z</time>
      </trkpt>
      <trkpt lat="43.16574833" lon="-4.26415333">
        <ele>397.0</ele>
        <time>2018-05-19T15:30:42.469Z</time>
      </trkpt>
      <trkpt lat="43.16575667" lon="-4.26425">
        <ele>398.0</ele>
        <time>2018-05-19T15:30:43.468Z</time>
      </trkpt>
      <trkpt lat="43.165765" lon="-4.2643">
        <ele>398.0</ele>
        <time>2018-05-19T15:30:44.477Z</time>
      </trkpt>
      <trkpt lat="43.165765" lon="-4.2643">
        <ele>398.0</ele>
        <time>2018-05-19T15:30:45.468Z</time>
      </trkpt>
      <trkpt lat="43.16578333" lon="-4.26439333">
        <ele>399.0</ele>
        <time>2018-05-19T15:30:46.473Z</time>
      </trkpt>
      <trkpt lat="43.16578333" lon="-4.26439333">
        <ele>399.0</ele>
        <time>2018-05-19T15:30:47.471Z</time>
      </trkpt>
      <trkpt lat="43.165805" lon="-4.26448667">
        <ele>399.0</ele>
        <time>2018-05-19T15:30:48.475Z</time>
      </trkpt>
      <trkpt lat="43.165805" lon="-4.26448667">
        <ele>399.0</ele>
        <time>2018-05-19T15:30:49.469Z</time>
      </trkpt>
      <trkpt lat="43.16581667" lon="-4.26458333">
        <ele>400.0</ele>
        <time>2018-05-19T15:30:50.475Z</time>
      </trkpt>
      <trkpt lat="43.16581667" lon="-4.26458333">
        <ele>400.0</ele>
        <time>2018-05-19T15:30:51.467Z</time>
      </trkpt>
      <trkpt lat="43.16583" lon="-4.26467667">
        <ele>400.0</ele>
        <time>2018-05-19T15:30:52.472Z</time>
      </trkpt>
      <trkpt lat="43.16583" lon="-4.26467667">
        <ele>400.0</ele>
        <time>2018-05-19T15:30:53.471Z</time>
      </trkpt>
      <trkpt lat="43.16583833" lon="-4.26477">
        <ele>400.0</ele>
        <time>2018-05-19T15:30:54.474Z</time>
      </trkpt>
      <trkpt lat="43.16583833" lon="-4.26477">
        <ele>400.0</ele>
        <time>2018-05-19T15:30:55.460Z</time>
      </trkpt>
      <trkpt lat="43.16584333" lon="-4.264865">
        <ele>401.0</ele>
        <time>2018-05-19T15:30:56.486Z</time>
      </trkpt>
      <trkpt lat="43.16584333" lon="-4.264865">
        <ele>401.0</ele>
        <time>2018-05-19T15:30:57.471Z</time>
      </trkpt>
      <trkpt lat="43.16584667" lon="-4.26495667">
        <ele>401.0</ele>
        <time>2018-05-19T15:30:58.474Z</time>
      </trkpt>
      <trkpt lat="43.16584667" lon="-4.26495667">
        <ele>401.0</ele>
        <time>2018-05-19T15:30:59.469Z</time>
      </trkpt>
      <trkpt lat="43.16585667" lon="-4.26505167">
        <ele>401.0</ele>
        <time>2018-05-19T15:31:00.476Z</time>
      </trkpt>
      <trkpt lat="43.16585667" lon="-4.26505167">
        <ele>401.0</ele>
        <time>2018-05-19T15:31:01.467Z</time>
      </trkpt>
      <trkpt lat="43.165865" lon="-4.26514667">
        <ele>402.0</ele>
        <time>2018-05-19T15:31:02.474Z</time>
      </trkpt>
      <trkpt lat="43.165865" lon="-4.26514667">
        <ele>402.0</ele>
        <time>2018-05-19T15:31:03.470Z</time>
      </trkpt>
      <trkpt lat="43.16587667" lon="-4.26524333">
        <ele>402.0</ele>
        <time>2018-05-19T15:31:04.453Z</time>
      </trkpt>
      <trkpt lat="43.16587667" lon="-4.26524333">
        <ele>402.0</ele>
        <time>2018-05-19T15:31:05.476Z</time>
      </trkpt>
      <trkpt lat="43.16588667" lon="-4.26533833">
        <ele>403.0</ele>
        <time>2018-05-19T15:31:06.474Z</time>
      </trkpt>
      <trkpt lat="43.16588667" lon="-4.26533833">
        <ele>403.0</ele>
        <time>2018-05-19T15:31:07.470Z</time>
      </trkpt>
      <trkpt lat="43.16589833" lon="-4.265435">
        <ele>403.0</ele>
        <time>2018-05-19T15:31:08.473Z</time>
      </trkpt>
      <trkpt lat="43.16589833" lon="-4.265435">
        <ele>403.0</ele>
        <time>2018-05-19T15:31:09.469Z</time>
      </trkpt>
      <trkpt lat="43.165905" lon="-4.26553">
        <ele>404.0</ele>
        <time>2018-05-19T15:31:10.473Z</time>
      </trkpt>
      <trkpt lat="43.165905" lon="-4.26553">
        <ele>404.0</ele>
        <time>2018-05-19T15:31:11.468Z</time>
      </trkpt>
      <trkpt lat="43.16591333" lon="-4.26562333">
        <ele>404.0</ele>
        <time>2018-05-19T15:31:12.452Z</time>
      </trkpt>
      <trkpt lat="43.16591333" lon="-4.26562333">
        <ele>404.0</ele>
        <time>2018-05-19T15:31:13.452Z</time>
      </trkpt>
      <trkpt lat="43.16592333" lon="-4.26571667">
        <ele>405.0</ele>
        <time>2018-05-19T15:31:14.476Z</time>
      </trkpt>
      <trkpt lat="43.16592333" lon="-4.26571667">
        <ele>405.0</ele>
        <time>2018-05-19T15:31:15.467Z</time>
      </trkpt>
      <trkpt lat="43.16592833" lon="-4.265805">
        <ele>406.0</ele>
        <time>2018-05-19T15:31:16.473Z</time>
      </trkpt>
      <trkpt lat="43.16592833" lon="-4.26585167">
        <ele>406.0</ele>
        <time>2018-05-19T15:31:17.480Z</time>
      </trkpt>
      <trkpt lat="43.16592833" lon="-4.26585167">
        <ele>406.0</ele>
        <time>2018-05-19T15:31:18.469Z</time>
      </trkpt>
      <trkpt lat="43.16593167" lon="-4.26594167">
        <ele>406.0</ele>
        <time>2018-05-19T15:31:19.471Z</time>
      </trkpt>
      <trkpt lat="43.16592833" lon="-4.26598333">
        <ele>407.0</ele>
        <time>2018-05-19T15:31:20.474Z</time>
      </trkpt>
      <trkpt lat="43.16592833" lon="-4.26598333">
        <ele>407.0</ele>
        <time>2018-05-19T15:31:21.468Z</time>
      </trkpt>
      <trkpt lat="43.16592167" lon="-4.26607333">
        <ele>407.0</ele>
        <time>2018-05-19T15:31:22.453Z</time>
      </trkpt>
      <trkpt lat="43.16592167" lon="-4.26607333">
        <ele>407.0</ele>
        <time>2018-05-19T15:31:23.472Z</time>
      </trkpt>
      <trkpt lat="43.16592" lon="-4.26616">
        <ele>408.0</ele>
        <time>2018-05-19T15:31:24.454Z</time>
      </trkpt>
      <trkpt lat="43.16592" lon="-4.26616">
        <ele>408.0</ele>
        <time>2018-05-19T15:31:25.480Z</time>
      </trkpt>
      <trkpt lat="43.16592" lon="-4.26624333">
        <ele>408.0</ele>
        <time>2018-05-19T15:31:26.474Z</time>
      </trkpt>
      <trkpt lat="43.16592" lon="-4.26624333">
        <ele>408.0</ele>
        <time>2018-05-19T15:31:27.471Z</time>
      </trkpt>
      <trkpt lat="43.165915" lon="-4.26633167">
        <ele>409.0</ele>
        <time>2018-05-19T15:31:28.470Z</time>
      </trkpt>
      <trkpt lat="43.165915" lon="-4.26633167">
        <ele>409.0</ele>
        <time>2018-05-19T15:31:29.477Z</time>
      </trkpt>
      <trkpt lat="43.16591167" lon="-4.26641833">
        <ele>409.0</ele>
        <time>2018-05-19T15:31:30.472Z</time>
      </trkpt>
      <trkpt lat="43.16591167" lon="-4.26641833">
        <ele>409.0</ele>
        <time>2018-05-19T15:31:31.468Z</time>
      </trkpt>
      <trkpt lat="43.16590833" lon="-4.26650333">
        <ele>409.0</ele>
        <time>2018-05-19T15:31:32.474Z</time>
      </trkpt>
      <trkpt lat="43.16590833" lon="-4.26650333">
        <ele>409.0</ele>
        <time>2018-05-19T15:31:33.485Z</time>
      </trkpt>
      <trkpt lat="43.16590667" lon="-4.26659">
        <ele>410.0</ele>
        <time>2018-05-19T15:31:34.474Z</time>
      </trkpt>
      <trkpt lat="43.16590667" lon="-4.26659">
        <ele>410.0</ele>
        <time>2018-05-19T15:31:35.467Z</time>
      </trkpt>
      <trkpt lat="43.165895" lon="-4.26666833">
        <ele>410.0</ele>
        <time>2018-05-19T15:31:36.477Z</time>
      </trkpt>
      <trkpt lat="43.165895" lon="-4.26666833">
        <ele>410.0</ele>
        <time>2018-05-19T15:31:37.469Z</time>
      </trkpt>
      <trkpt lat="43.165885" lon="-4.266745">
        <ele>411.0</ele>
        <time>2018-05-19T15:31:38.474Z</time>
      </trkpt>
      <trkpt lat="43.165885" lon="-4.266745">
        <ele>411.0</ele>
        <time>2018-05-19T15:31:39.468Z</time>
      </trkpt>
      <trkpt lat="43.16588" lon="-4.266825">
        <ele>411.0</ele>
        <time>2018-05-19T15:31:40.472Z</time>
      </trkpt>
      <trkpt lat="43.16587167" lon="-4.26686667">
        <ele>411.0</ele>
        <time>2018-05-19T15:31:41.473Z</time>
      </trkpt>
      <trkpt lat="43.16587167" lon="-4.26686667">
        <ele>411.0</ele>
        <time>2018-05-19T15:31:42.467Z</time>
      </trkpt>
      <trkpt lat="43.16586" lon="-4.26695167">
        <ele>412.0</ele>
        <time>2018-05-19T15:31:43.472Z</time>
      </trkpt>
      <trkpt lat="43.165855" lon="-4.266995">
        <ele>412.0</ele>
        <time>2018-05-19T15:31:44.475Z</time>
      </trkpt>
      <trkpt lat="43.165855" lon="-4.266995">
        <ele>412.0</ele>
        <time>2018-05-19T15:31:45.468Z</time>
      </trkpt>
      <trkpt lat="43.16583833" lon="-4.267085">
        <ele>413.0</ele>
        <time>2018-05-19T15:31:46.473Z</time>
      </trkpt>
      <trkpt lat="43.16583833" lon="-4.267085">
        <ele>413.0</ele>
        <time>2018-05-19T15:31:47.471Z</time>
      </trkpt>
      <trkpt lat="43.16584333" lon="-4.26716833">
        <ele>413.0</ele>
        <time>2018-05-19T15:31:48.474Z</time>
      </trkpt>
      <trkpt lat="43.16584333" lon="-4.26716833">
        <ele>413.0</ele>
        <time>2018-05-19T15:31:49.468Z</time>
      </trkpt>
      <trkpt lat="43.165845" lon="-4.26725333">
        <ele>413.0</ele>
        <time>2018-05-19T15:31:50.474Z</time>
      </trkpt>
      <trkpt lat="43.165845" lon="-4.26725333">
        <ele>413.0</ele>
        <time>2018-05-19T15:31:51.467Z</time>
      </trkpt>
      <trkpt lat="43.16585" lon="-4.26733">
        <ele>414.0</ele>
        <time>2018-05-19T15:31:52.470Z</time>
      </trkpt>
      <trkpt lat="43.16585167" lon="-4.26736833">
        <ele>414.0</ele>
        <time>2018-05-19T15:31:53.483Z</time>
      </trkpt>
      <trkpt lat="43.16585167" lon="-4.26736833">
        <ele>414.0</ele>
        <time>2018-05-19T15:31:54.469Z</time>
      </trkpt>
      <trkpt lat="43.165855" lon="-4.267445">
        <ele>415.0</ele>
        <time>2018-05-19T15:31:55.482Z</time>
      </trkpt>
      <trkpt lat="43.16587167" lon="-4.26748833">
        <ele>415.0</ele>
        <time>2018-05-19T15:31:56.476Z</time>
      </trkpt>
      <trkpt lat="43.16587167" lon="-4.26748833">
        <ele>415.0</ele>
        <time>2018-05-19T15:31:57.471Z</time>
      </trkpt>
      <trkpt lat="43.16588333" lon="-4.267565">
        <ele>415.0</ele>
        <time>2018-05-19T15:31:58.477Z</time>
      </trkpt>
      <trkpt lat="43.16588333" lon="-4.267565">
        <ele>415.0</ele>
        <time>2018-05-19T15:31:59.467Z</time>
      </trkpt>
      <trkpt lat="43.16588667" lon="-4.26765">
        <ele>416.0</ele>
        <time>2018-05-19T15:32:00.452Z</time>
      </trkpt>
      <trkpt lat="43.16588667" lon="-4.26765">
        <ele>416.0</ele>
        <time>2018-05-19T15:32:01.478Z</time>
      </trkpt>
      <trkpt lat="43.165875" lon="-4.267735">
        <ele>416.0</ele>
        <time>2018-05-19T15:32:02.474Z</time>
      </trkpt>
      <trkpt lat="43.165875" lon="-4.267735">
        <ele>416.0</ele>
        <time>2018-05-19T15:32:03.471Z</time>
      </trkpt>
      <trkpt lat="43.165875" lon="-4.267815">
        <ele>417.0</ele>
        <time>2018-05-19T15:32:04.475Z</time>
      </trkpt>
      <trkpt lat="43.165875" lon="-4.267815">
        <ele>417.0</ele>
        <time>2018-05-19T15:32:05.468Z</time>
      </trkpt>
      <trkpt lat="43.16587333" lon="-4.26789">
        <ele>417.0</ele>
        <time>2018-05-19T15:32:06.476Z</time>
      </trkpt>
      <trkpt lat="43.16587333" lon="-4.26789">
        <ele>417.0</ele>
        <time>2018-05-19T15:32:07.471Z</time>
      </trkpt>
      <trkpt lat="43.16587667" lon="-4.26796333">
        <ele>417.0</ele>
        <time>2018-05-19T15:32:08.473Z</time>
      </trkpt>
      <trkpt lat="43.16587667" lon="-4.26796333">
        <ele>417.0</ele>
        <time>2018-05-19T15:32:09.467Z</time>
      </trkpt>
      <trkpt lat="43.16588667" lon="-4.268035">
        <ele>418.0</ele>
        <time>2018-05-19T15:32:10.471Z</time>
      </trkpt>
      <trkpt lat="43.16588667" lon="-4.268035">
        <ele>418.0</ele>
        <time>2018-05-19T15:32:11.468Z</time>
      </trkpt>
      <trkpt lat="43.16589667" lon="-4.26810667">
        <ele>418.0</ele>
        <time>2018-05-19T15:32:12.474Z</time>
      </trkpt>
      <trkpt lat="43.16589667" lon="-4.26810667">
        <ele>418.0</ele>
        <time>2018-05-19T15:32:13.467Z</time>
      </trkpt>
      <trkpt lat="43.16591333" lon="-4.26817167">
        <ele>419.0</ele>
        <time>2018-05-19T15:32:14.475Z</time>
      </trkpt>
      <trkpt lat="43.16591333" lon="-4.26817167">
        <ele>419.0</ele>
        <time>2018-05-19T15:32:15.468Z</time>
      </trkpt>
      <trkpt lat="43.165925" lon="-4.26824">
        <ele>419.0</ele>
        <time>2018-05-19T15:32:16.474Z</time>
      </trkpt>
      <trkpt lat="43.165925" lon="-4.26824">
        <ele>419.0</ele>
        <time>2018-05-19T15:32:17.471Z</time>
      </trkpt>
      <trkpt lat="43.16594333" lon="-4.26831167">
        <ele>419.0</ele>
        <time>2018-05-19T15:32:18.474Z</time>
      </trkpt>
      <trkpt lat="43.16594333" lon="-4.26831167">
        <ele>419.0</ele>
        <time>2018-05-19T15:32:19.471Z</time>
      </trkpt>
      <trkpt lat="43.16595833" lon="-4.26838">
        <ele>420.0</ele>
        <time>2018-05-19T15:32:20.474Z</time>
      </trkpt>
      <trkpt lat="43.16595833" lon="-4.26838">
        <ele>420.0</ele>
        <time>2018-05-19T15:32:21.467Z</time>
      </trkpt>
      <trkpt lat="43.16597167" lon="-4.26845">
        <ele>420.0</ele>
        <time>2018-05-19T15:32:22.451Z</time>
      </trkpt>
      <trkpt lat="43.16597167" lon="-4.26845">
        <ele>420.0</ele>
        <time>2018-05-19T15:32:23.463Z</time>
      </trkpt>
      <trkpt lat="43.16598833" lon="-4.26852">
        <ele>420.0</ele>
        <time>2018-05-19T15:32:24.450Z</time>
      </trkpt>
      <trkpt lat="43.16598833" lon="-4.26852">
        <ele>420.0</ele>
        <time>2018-05-19T15:32:25.477Z</time>
      </trkpt>
      <trkpt lat="43.16600333" lon="-4.26859167">
        <ele>420.0</ele>
        <time>2018-05-19T15:32:26.475Z</time>
      </trkpt>
      <trkpt lat="43.16600333" lon="-4.26859167">
        <ele>420.0</ele>
        <time>2018-05-19T15:32:27.471Z</time>
      </trkpt>
      <trkpt lat="43.16601167" lon="-4.26866833">
        <ele>421.0</ele>
        <time>2018-05-19T15:32:28.483Z</time>
      </trkpt>
      <trkpt lat="43.16601167" lon="-4.26866833">
        <ele>421.0</ele>
        <time>2018-05-19T15:32:29.476Z</time>
      </trkpt>
      <trkpt lat="43.16602833" lon="-4.26873333">
        <ele>421.0</ele>
        <time>2018-05-19T15:32:30.474Z</time>
      </trkpt>
      <trkpt lat="43.16602833" lon="-4.26873333">
        <ele>421.0</ele>
        <time>2018-05-19T15:32:31.468Z</time>
      </trkpt>
      <trkpt lat="43.16604" lon="-4.26880333">
        <ele>422.0</ele>
        <time>2018-05-19T15:32:32.474Z</time>
      </trkpt>
      <trkpt lat="43.16604" lon="-4.26880333">
        <ele>422.0</ele>
        <time>2018-05-19T15:32:33.467Z</time>
      </trkpt>
      <trkpt lat="43.16605667" lon="-4.26887667">
        <ele>422.0</ele>
        <time>2018-05-19T15:32:34.453Z</time>
      </trkpt>
      <trkpt lat="43.16606667" lon="-4.26891">
        <ele>422.0</ele>
        <time>2018-05-19T15:32:35.451Z</time>
      </trkpt>
      <trkpt lat="43.16606667" lon="-4.26891">
        <ele>422.0</ele>
        <time>2018-05-19T15:32:36.477Z</time>
      </trkpt>
      <trkpt lat="43.16608833" lon="-4.26897833">
        <ele>423.0</ele>
        <time>2018-05-19T15:32:37.471Z</time>
      </trkpt>
      <trkpt lat="43.16609833" lon="-4.26901333">
        <ele>423.0</ele>
        <time>2018-05-19T15:32:38.471Z</time>
      </trkpt>
      <trkpt lat="43.16609833" lon="-4.26901333">
        <ele>423.0</ele>
        <time>2018-05-19T15:32:39.469Z</time>
      </trkpt>
      <trkpt lat="43.16612" lon="-4.26908167">
        <ele>423.0</ele>
        <time>2018-05-19T15:32:40.473Z</time>
      </trkpt>
      <trkpt lat="43.16612" lon="-4.26908167">
        <ele>423.0</ele>
        <time>2018-05-19T15:32:41.467Z</time>
      </trkpt>
      <trkpt lat="43.16614333" lon="-4.26915333">
        <ele>424.0</ele>
        <time>2018-05-19T15:32:42.474Z</time>
      </trkpt>
      <trkpt lat="43.16614333" lon="-4.26915333">
        <ele>424.0</ele>
        <time>2018-05-19T15:32:43.469Z</time>
      </trkpt>
      <trkpt lat="43.16616167" lon="-4.26923167">
        <ele>424.0</ele>
        <time>2018-05-19T15:32:44.472Z</time>
      </trkpt>
      <trkpt lat="43.16616833" lon="-4.26927167">
        <ele>424.0</ele>
        <time>2018-05-19T15:32:45.473Z</time>
      </trkpt>
      <trkpt lat="43.16616833" lon="-4.26927167">
        <ele>424.0</ele>
        <time>2018-05-19T15:32:46.467Z</time>
      </trkpt>
      <trkpt lat="43.166185" lon="-4.26935167">
        <ele>425.0</ele>
        <time>2018-05-19T15:32:47.475Z</time>
      </trkpt>
      <trkpt lat="43.16619667" lon="-4.26939">
        <ele>425.0</ele>
        <time>2018-05-19T15:32:48.483Z</time>
      </trkpt>
      <trkpt lat="43.16619667" lon="-4.26939">
        <ele>425.0</ele>
        <time>2018-05-19T15:32:49.472Z</time>
      </trkpt>
      <trkpt lat="43.16621833" lon="-4.26947333">
        <ele>425.0</ele>
        <time>2018-05-19T15:32:50.471Z</time>
      </trkpt>
      <trkpt lat="43.16621833" lon="-4.26947333">
        <ele>425.0</ele>
        <time>2018-05-19T15:32:51.467Z</time>
      </trkpt>
      <trkpt lat="43.16624" lon="-4.26955333">
        <ele>425.0</ele>
        <time>2018-05-19T15:32:52.473Z</time>
      </trkpt>
      <trkpt lat="43.16624" lon="-4.26955333">
        <ele>425.0</ele>
        <time>2018-05-19T15:32:53.460Z</time>
      </trkpt>
      <trkpt lat="43.16626167" lon="-4.26963333">
        <ele>426.0</ele>
        <time>2018-05-19T15:32:54.451Z</time>
      </trkpt>
      <trkpt lat="43.166275" lon="-4.26967167">
        <ele>426.0</ele>
        <time>2018-05-19T15:32:55.479Z</time>
      </trkpt>
      <trkpt lat="43.16628833" lon="-4.26971333">
        <ele>426.0</ele>
        <time>2018-05-19T15:32:56.474Z</time>
      </trkpt>
      <trkpt lat="43.16628833" lon="-4.26971333">
        <ele>426.0</ele>
        <time>2018-05-19T15:32:57.471Z</time>
      </trkpt>
      <trkpt lat="43.16632" lon="-4.26979667">
        <ele>426.0</ele>
        <time>2018-05-19T15:32:58.471Z</time>
      </trkpt>
      <trkpt lat="43.16632" lon="-4.26979667">
        <ele>426.0</ele>
        <time>2018-05-19T15:32:59.469Z</time>
      </trkpt>
      <trkpt lat="43.166355" lon="-4.269885">
        <ele>426.0</ele>
        <time>2018-05-19T15:33:00.474Z</time>
      </trkpt>
      <trkpt lat="43.166355" lon="-4.269885">
        <ele>426.0</ele>
        <time>2018-05-19T15:33:01.468Z</time>
      </trkpt>
      <trkpt lat="43.166395" lon="-4.26997333">
        <ele>425.0</ele>
        <time>2018-05-19T15:33:02.480Z</time>
      </trkpt>
      <trkpt lat="43.166395" lon="-4.26997333">
        <ele>425.0</ele>
        <time>2018-05-19T15:33:03.469Z</time>
      </trkpt>
      <trkpt lat="43.16643167" lon="-4.27007">
        <ele>425.0</ele>
        <time>2018-05-19T15:33:04.460Z</time>
      </trkpt>
      <trkpt lat="43.16645667" lon="-4.27011333">
        <ele>425.0</ele>
        <time>2018-05-19T15:33:05.452Z</time>
      </trkpt>
      <trkpt lat="43.16645667" lon="-4.27011333">
        <ele>425.0</ele>
        <time>2018-05-19T15:33:06.475Z</time>
      </trkpt>
      <trkpt lat="43.16651333" lon="-4.27019">
        <ele>425.0</ele>
        <time>2018-05-19T15:33:07.471Z</time>
      </trkpt>
      <trkpt lat="43.166545" lon="-4.27022833">
        <ele>425.0</ele>
        <time>2018-05-19T15:33:08.474Z</time>
      </trkpt>
      <trkpt lat="43.166545" lon="-4.27022833">
        <ele>425.0</ele>
        <time>2018-05-19T15:33:09.465Z</time>
      </trkpt>
      <trkpt lat="43.16662" lon="-4.270295">
        <ele>425.0</ele>
        <time>2018-05-19T15:33:10.463Z</time>
      </trkpt>
      <trkpt lat="43.16662" lon="-4.270295">
        <ele>425.0</ele>
        <time>2018-05-19T15:33:11.449Z</time>
      </trkpt>
      <trkpt lat="43.1667" lon="-4.27035">
        <ele>425.0</ele>
        <time>2018-05-19T15:33:12.474Z</time>
      </trkpt>
      <trkpt lat="43.1667" lon="-4.27035">
        <ele>425.0</ele>
        <time>2018-05-19T15:33:13.469Z</time>
      </trkpt>
      <trkpt lat="43.16679167" lon="-4.27039833">
        <ele>425.0</ele>
        <time>2018-05-19T15:33:14.458Z</time>
      </trkpt>
      <trkpt lat="43.16679167" lon="-4.27039833">
        <ele>425.0</ele>
        <time>2018-05-19T15:33:15.482Z</time>
      </trkpt>
      <trkpt lat="43.16689333" lon="-4.27044833">
        <ele>424.0</ele>
        <time>2018-05-19T15:33:16.470Z</time>
      </trkpt>
      <trkpt lat="43.16689333" lon="-4.27044833">
        <ele>424.0</ele>
        <time>2018-05-19T15:33:17.471Z</time>
      </trkpt>
      <trkpt lat="43.16700167" lon="-4.27049667">
        <ele>424.0</ele>
        <time>2018-05-19T15:33:18.474Z</time>
      </trkpt>
      <trkpt lat="43.16700167" lon="-4.27049667">
        <ele>424.0</ele>
        <time>2018-05-19T15:33:19.471Z</time>
      </trkpt>
      <trkpt lat="43.167115" lon="-4.27055833">
        <ele>423.0</ele>
        <time>2018-05-19T15:33:20.480Z</time>
      </trkpt>
      <trkpt lat="43.167115" lon="-4.27055833">
        <ele>423.0</ele>
        <time>2018-05-19T15:33:21.470Z</time>
      </trkpt>
      <trkpt lat="43.16722667" lon="-4.27062333">
        <ele>423.0</ele>
        <time>2018-05-19T15:33:22.474Z</time>
      </trkpt>
      <trkpt lat="43.167285" lon="-4.270655">
        <ele>423.0</ele>
        <time>2018-05-19T15:33:23.473Z</time>
      </trkpt>
      <trkpt lat="43.16734167" lon="-4.27068833">
        <ele>423.0</ele>
        <time>2018-05-19T15:33:24.486Z</time>
      </trkpt>
      <trkpt lat="43.16734167" lon="-4.27068833">
        <ele>423.0</ele>
        <time>2018-05-19T15:33:25.474Z</time>
      </trkpt>
      <trkpt lat="43.16744833" lon="-4.270775">
        <ele>422.0</ele>
        <time>2018-05-19T15:33:26.474Z</time>
      </trkpt>
      <trkpt lat="43.16744833" lon="-4.270775">
        <ele>422.0</ele>
        <time>2018-05-19T15:33:27.471Z</time>
      </trkpt>
      <trkpt lat="43.167545" lon="-4.27088833">
        <ele>421.0</ele>
        <time>2018-05-19T15:33:28.475Z</time>
      </trkpt>
      <trkpt lat="43.167585" lon="-4.27095667">
        <ele>421.0</ele>
        <time>2018-05-19T15:33:29.475Z</time>
      </trkpt>
      <trkpt lat="43.167585" lon="-4.27095667">
        <ele>421.0</ele>
        <time>2018-05-19T15:33:30.469Z</time>
      </trkpt>
      <trkpt lat="43.167655" lon="-4.271115">
        <ele>420.0</ele>
        <time>2018-05-19T15:33:31.470Z</time>
      </trkpt>
      <trkpt lat="43.167675" lon="-4.27120333">
        <ele>420.0</ele>
        <time>2018-05-19T15:33:32.473Z</time>
      </trkpt>
      <trkpt lat="43.167675" lon="-4.27120333">
        <ele>420.0</ele>
        <time>2018-05-19T15:33:33.468Z</time>
      </trkpt>
      <trkpt lat="43.16769333" lon="-4.27139333">
        <ele>420.0</ele>
        <time>2018-05-19T15:33:34.479Z</time>
      </trkpt>
      <trkpt lat="43.16769333" lon="-4.27139333">
        <ele>420.0</ele>
        <time>2018-05-19T15:33:35.469Z</time>
      </trkpt>
      <trkpt lat="43.16767" lon="-4.27158167">
        <ele>419.0</ele>
        <time>2018-05-19T15:33:36.474Z</time>
      </trkpt>
      <trkpt lat="43.16767" lon="-4.27158167">
        <ele>419.0</ele>
        <time>2018-05-19T15:33:37.472Z</time>
      </trkpt>
      <trkpt lat="43.16761833" lon="-4.27175">
        <ele>420.0</ele>
        <time>2018-05-19T15:33:38.474Z</time>
      </trkpt>
      <trkpt lat="43.16761833" lon="-4.27175">
        <ele>420.0</ele>
        <time>2018-05-19T15:33:39.468Z</time>
      </trkpt>
      <trkpt lat="43.16754167" lon="-4.271895">
        <ele>420.0</ele>
        <time>2018-05-19T15:33:40.473Z</time>
      </trkpt>
      <trkpt lat="43.16754167" lon="-4.271895">
        <ele>420.0</ele>
        <time>2018-05-19T15:33:41.469Z</time>
      </trkpt>
      <trkpt lat="43.16745" lon="-4.27200833">
        <ele>420.0</ele>
        <time>2018-05-19T15:33:42.474Z</time>
      </trkpt>
      <trkpt lat="43.16745" lon="-4.27200833">
        <ele>420.0</ele>
        <time>2018-05-19T15:33:43.469Z</time>
      </trkpt>
      <trkpt lat="43.16735" lon="-4.27210167">
        <ele>420.0</ele>
        <time>2018-05-19T15:33:44.481Z</time>
      </trkpt>
      <trkpt lat="43.16735" lon="-4.27210167">
        <ele>420.0</ele>
        <time>2018-05-19T15:33:45.469Z</time>
      </trkpt>
      <trkpt lat="43.16725" lon="-4.27218333">
        <ele>420.0</ele>
        <time>2018-05-19T15:33:46.469Z</time>
      </trkpt>
      <trkpt lat="43.1672" lon="-4.27222333">
        <ele>421.0</ele>
        <time>2018-05-19T15:33:47.471Z</time>
      </trkpt>
      <trkpt lat="43.16715167" lon="-4.27226333">
        <ele>421.0</ele>
        <time>2018-05-19T15:33:48.475Z</time>
      </trkpt>
      <trkpt lat="43.16715167" lon="-4.27226333">
        <ele>421.0</ele>
        <time>2018-05-19T15:33:49.469Z</time>
      </trkpt>
      <trkpt lat="43.16706167" lon="-4.27236167">
        <ele>421.0</ele>
        <time>2018-05-19T15:33:50.473Z</time>
      </trkpt>
      <trkpt lat="43.16706167" lon="-4.27236167">
        <ele>421.0</ele>
        <time>2018-05-19T15:33:51.471Z</time>
      </trkpt>
      <trkpt lat="43.16698833" lon="-4.27249">
        <ele>422.0</ele>
        <time>2018-05-19T15:33:52.473Z</time>
      </trkpt>
      <trkpt lat="43.16698833" lon="-4.27249">
        <ele>422.0</ele>
        <time>2018-05-19T15:33:53.469Z</time>
      </trkpt>
      <trkpt lat="43.16693667" lon="-4.272635">
        <ele>422.0</ele>
        <time>2018-05-19T15:33:54.479Z</time>
      </trkpt>
      <trkpt lat="43.16693667" lon="-4.272635">
        <ele>422.0</ele>
        <time>2018-05-19T15:33:55.475Z</time>
      </trkpt>
      <trkpt lat="43.16692" lon="-4.27279667">
        <ele>422.0</ele>
        <time>2018-05-19T15:33:56.474Z</time>
      </trkpt>
      <trkpt lat="43.16692" lon="-4.27279667">
        <ele>422.0</ele>
        <time>2018-05-19T15:33:57.471Z</time>
      </trkpt>
      <trkpt lat="43.16695167" lon="-4.27294333">
        <ele>423.0</ele>
        <time>2018-05-19T15:33:58.472Z</time>
      </trkpt>
      <trkpt lat="43.16695167" lon="-4.27294333">
        <ele>423.0</ele>
        <time>2018-05-19T15:33:59.469Z</time>
      </trkpt>
      <trkpt lat="43.16702" lon="-4.273015">
        <ele>423.0</ele>
        <time>2018-05-19T15:34:00.474Z</time>
      </trkpt>
      <trkpt lat="43.16702" lon="-4.273015">
        <ele>423.0</ele>
        <time>2018-05-19T15:34:01.467Z</time>
      </trkpt>
      <trkpt lat="43.16705833" lon="-4.27308">
        <ele>423.0</ele>
        <time>2018-05-19T15:34:02.473Z</time>
      </trkpt>
      <trkpt lat="43.16705833" lon="-4.27308">
        <ele>423.0</ele>
        <time>2018-05-19T15:34:03.469Z</time>
      </trkpt>
      <trkpt lat="43.16708833" lon="-4.27314833">
        <ele>423.0</ele>
        <time>2018-05-19T15:34:04.471Z</time>
      </trkpt>
      <trkpt lat="43.16708833" lon="-4.27314833">
        <ele>423.0</ele>
        <time>2018-05-19T15:34:05.467Z</time>
      </trkpt>
      <trkpt lat="43.16712333" lon="-4.27321833">
        <ele>424.0</ele>
        <time>2018-05-19T15:34:06.474Z</time>
      </trkpt>
      <trkpt lat="43.16712333" lon="-4.27321833">
        <ele>424.0</ele>
        <time>2018-05-19T15:34:07.460Z</time>
      </trkpt>
      <trkpt lat="43.16716" lon="-4.27331">
        <ele>424.0</ele>
        <time>2018-05-19T15:34:08.482Z</time>
      </trkpt>
      <trkpt lat="43.16716" lon="-4.27331">
        <ele>424.0</ele>
        <time>2018-05-19T15:34:09.471Z</time>
      </trkpt>
      <trkpt lat="43.16721" lon="-4.27339667">
        <ele>425.0</ele>
        <time>2018-05-19T15:34:10.470Z</time>
      </trkpt>
      <trkpt lat="43.16721" lon="-4.27339667">
        <ele>425.0</ele>
        <time>2018-05-19T15:34:11.460Z</time>
      </trkpt>
      <trkpt lat="43.16726833" lon="-4.27347333">
        <ele>425.0</ele>
        <time>2018-05-19T15:34:12.484Z</time>
      </trkpt>
      <trkpt lat="43.16726833" lon="-4.27347333">
        <ele>425.0</ele>
        <time>2018-05-19T15:34:13.469Z</time>
      </trkpt>
      <trkpt lat="43.16732" lon="-4.27355667">
        <ele>425.0</ele>
        <time>2018-05-19T15:34:14.472Z</time>
      </trkpt>
      <trkpt lat="43.167345" lon="-4.27359667">
        <ele>425.0</ele>
        <time>2018-05-19T15:34:15.464Z</time>
      </trkpt>
      <trkpt lat="43.167345" lon="-4.27359667">
        <ele>425.0</ele>
        <time>2018-05-19T15:34:16.449Z</time>
      </trkpt>
      <trkpt lat="43.16739833" lon="-4.27367667">
        <ele>426.0</ele>
        <time>2018-05-19T15:34:17.474Z</time>
      </trkpt>
      <trkpt lat="43.16742667" lon="-4.27371833">
        <ele>426.0</ele>
        <time>2018-05-19T15:34:18.474Z</time>
      </trkpt>
      <trkpt lat="43.16742667" lon="-4.27371833">
        <ele>426.0</ele>
        <time>2018-05-19T15:34:19.467Z</time>
      </trkpt>
      <trkpt lat="43.16749" lon="-4.273795">
        <ele>426.0</ele>
        <time>2018-05-19T15:34:20.480Z</time>
      </trkpt>
      <trkpt lat="43.16749" lon="-4.273795">
        <ele>426.0</ele>
        <time>2018-05-19T15:34:21.469Z</time>
      </trkpt>
      <trkpt lat="43.16755333" lon="-4.27383167">
        <ele>427.0</ele>
        <time>2018-05-19T15:34:22.471Z</time>
      </trkpt>
      <trkpt lat="43.16755333" lon="-4.27383167">
        <ele>427.0</ele>
        <time>2018-05-19T15:34:23.467Z</time>
      </trkpt>
      <trkpt lat="43.16761833" lon="-4.27383667">
        <ele>427.0</ele>
        <time>2018-05-19T15:34:24.480Z</time>
      </trkpt>
      <trkpt lat="43.16761833" lon="-4.27383667">
        <ele>427.0</ele>
        <time>2018-05-19T15:34:25.467Z</time>
      </trkpt>
      <trkpt lat="43.16767167" lon="-4.27383833">
        <ele>427.0</ele>
        <time>2018-05-19T15:34:26.474Z</time>
      </trkpt>
      <trkpt lat="43.16767167" lon="-4.27383833">
        <ele>427.0</ele>
        <time>2018-05-19T15:34:27.473Z</time>
      </trkpt>
      <trkpt lat="43.16773333" lon="-4.27384">
        <ele>428.0</ele>
        <time>2018-05-19T15:34:28.472Z</time>
      </trkpt>
      <trkpt lat="43.16775833" lon="-4.27384833">
        <ele>428.0</ele>
        <time>2018-05-19T15:34:29.473Z</time>
      </trkpt>
      <trkpt lat="43.16775833" lon="-4.27384833">
        <ele>428.0</ele>
        <time>2018-05-19T15:34:30.468Z</time>
      </trkpt>
      <trkpt lat="43.16780667" lon="-4.27387333">
        <ele>428.0</ele>
        <time>2018-05-19T15:34:31.469Z</time>
      </trkpt>
      <trkpt lat="43.16783" lon="-4.27387333">
        <ele>429.0</ele>
        <time>2018-05-19T15:34:32.474Z</time>
      </trkpt>
      <trkpt lat="43.16783" lon="-4.27387333">
        <ele>429.0</ele>
        <time>2018-05-19T15:34:33.467Z</time>
      </trkpt>
      <trkpt lat="43.16788667" lon="-4.273855">
        <ele>429.0</ele>
        <time>2018-05-19T15:34:34.469Z</time>
      </trkpt>
      <trkpt lat="43.16788667" lon="-4.273855">
        <ele>429.0</ele>
        <time>2018-05-19T15:34:35.471Z</time>
      </trkpt>
      <trkpt lat="43.16794833" lon="-4.27387333">
        <ele>430.0</ele>
        <time>2018-05-19T15:34:36.474Z</time>
      </trkpt>
      <trkpt lat="43.16794833" lon="-4.27387333">
        <ele>430.0</ele>
        <time>2018-05-19T15:34:37.470Z</time>
      </trkpt>
      <trkpt lat="43.16800667" lon="-4.2739">
        <ele>431.0</ele>
        <time>2018-05-19T15:34:38.473Z</time>
      </trkpt>
      <trkpt lat="43.16800667" lon="-4.2739">
        <ele>431.0</ele>
        <time>2018-05-19T15:34:39.471Z</time>
      </trkpt>
      <trkpt lat="43.16806667" lon="-4.27393">
        <ele>431.0</ele>
        <time>2018-05-19T15:34:40.472Z</time>
      </trkpt>
      <trkpt lat="43.16809333" lon="-4.27395">
        <ele>432.0</ele>
        <time>2018-05-19T15:34:41.471Z</time>
      </trkpt>
      <trkpt lat="43.16811667" lon="-4.27397333">
        <ele>432.0</ele>
        <time>2018-05-19T15:34:42.474Z</time>
      </trkpt>
      <trkpt lat="43.16811667" lon="-4.27397333">
        <ele>432.0</ele>
        <time>2018-05-19T15:34:43.471Z</time>
      </trkpt>
      <trkpt lat="43.16817333" lon="-4.274025">
        <ele>432.0</ele>
        <time>2018-05-19T15:34:44.473Z</time>
      </trkpt>
      <trkpt lat="43.16817333" lon="-4.274025">
        <ele>432.0</ele>
        <time>2018-05-19T15:34:45.471Z</time>
      </trkpt>
      <trkpt lat="43.16823167" lon="-4.27407167">
        <ele>432.0</ele>
        <time>2018-05-19T15:34:46.472Z</time>
      </trkpt>
      <trkpt lat="43.16823167" lon="-4.27407167">
        <ele>432.0</ele>
        <time>2018-05-19T15:34:47.469Z</time>
      </trkpt>
      <trkpt lat="43.16828167" lon="-4.27412333">
        <ele>432.0</ele>
        <time>2018-05-19T15:34:48.474Z</time>
      </trkpt>
      <trkpt lat="43.16828167" lon="-4.27412333">
        <ele>432.0</ele>
        <time>2018-05-19T15:34:49.474Z</time>
      </trkpt>
      <trkpt lat="43.16832667" lon="-4.274185">
        <ele>432.0</ele>
        <time>2018-05-19T15:34:50.474Z</time>
      </trkpt>
      <trkpt lat="43.16832667" lon="-4.274185">
        <ele>432.0</ele>
        <time>2018-05-19T15:34:51.468Z</time>
      </trkpt>
      <trkpt lat="43.16836167" lon="-4.27423833">
        <ele>432.0</ele>
        <time>2018-05-19T15:34:52.472Z</time>
      </trkpt>
      <trkpt lat="43.16836167" lon="-4.27423833">
        <ele>432.0</ele>
        <time>2018-05-19T15:34:53.469Z</time>
      </trkpt>
      <trkpt lat="43.16838833" lon="-4.27429667">
        <ele>432.0</ele>
        <time>2018-05-19T15:34:54.474Z</time>
      </trkpt>
      <trkpt lat="43.16838833" lon="-4.27429667">
        <ele>432.0</ele>
        <time>2018-05-19T15:34:55.470Z</time>
      </trkpt>
      <trkpt lat="43.16839833" lon="-4.27435833">
        <ele>432.0</ele>
        <time>2018-05-19T15:34:56.469Z</time>
      </trkpt>
      <trkpt lat="43.16839833" lon="-4.27435833">
        <ele>432.0</ele>
        <time>2018-05-19T15:34:57.470Z</time>
      </trkpt>
      <trkpt lat="43.168395" lon="-4.27443">
        <ele>432.0</ele>
        <time>2018-05-19T15:34:58.472Z</time>
      </trkpt>
      <trkpt lat="43.168395" lon="-4.27443">
        <ele>432.0</ele>
        <time>2018-05-19T15:34:59.466Z</time>
      </trkpt>
      <trkpt lat="43.16839167" lon="-4.27450833">
        <ele>433.0</ele>
        <time>2018-05-19T15:35:00.473Z</time>
      </trkpt>
      <trkpt lat="43.16839167" lon="-4.27450833">
        <ele>433.0</ele>
        <time>2018-05-19T15:35:01.469Z</time>
      </trkpt>
      <trkpt lat="43.16840167" lon="-4.27459333">
        <ele>433.0</ele>
        <time>2018-05-19T15:35:02.472Z</time>
      </trkpt>
      <trkpt lat="43.16840167" lon="-4.27459333">
        <ele>433.0</ele>
        <time>2018-05-19T15:35:03.471Z</time>
      </trkpt>
      <trkpt lat="43.16840667" lon="-4.27468">
        <ele>434.0</ele>
        <time>2018-05-19T15:35:04.472Z</time>
      </trkpt>
      <trkpt lat="43.16840333" lon="-4.27472167">
        <ele>434.0</ele>
        <time>2018-05-19T15:35:05.474Z</time>
      </trkpt>
      <trkpt lat="43.16839" lon="-4.27476167">
        <ele>435.0</ele>
        <time>2018-05-19T15:35:06.475Z</time>
      </trkpt>
      <trkpt lat="43.16839" lon="-4.27476167">
        <ele>435.0</ele>
        <time>2018-05-19T15:35:07.471Z</time>
      </trkpt>
      <trkpt lat="43.16836333" lon="-4.27484">
        <ele>435.0</ele>
        <time>2018-05-19T15:35:08.474Z</time>
      </trkpt>
      <trkpt lat="43.16836333" lon="-4.27484">
        <ele>435.0</ele>
        <time>2018-05-19T15:35:09.479Z</time>
      </trkpt>
      <trkpt lat="43.168345" lon="-4.27492">
        <ele>436.0</ele>
        <time>2018-05-19T15:35:10.465Z</time>
      </trkpt>
      <trkpt lat="43.168345" lon="-4.27492">
        <ele>436.0</ele>
        <time>2018-05-19T15:35:11.469Z</time>
      </trkpt>
      <trkpt lat="43.168325" lon="-4.27497833">
        <ele>437.0</ele>
        <time>2018-05-19T15:35:12.474Z</time>
      </trkpt>
      <trkpt lat="43.16831333" lon="-4.27500167">
        <ele>438.0</ele>
        <time>2018-05-19T15:35:13.472Z</time>
      </trkpt>
      <trkpt lat="43.16831333" lon="-4.27500167">
        <ele>438.0</ele>
        <time>2018-05-19T15:35:14.471Z</time>
      </trkpt>
      <trkpt lat="43.168295" lon="-4.275055">
        <ele>438.0</ele>
        <time>2018-05-19T15:35:15.476Z</time>
      </trkpt>
      <trkpt lat="43.168295" lon="-4.275055">
        <ele>438.0</ele>
        <time>2018-05-19T15:35:16.470Z</time>
      </trkpt>
      <trkpt lat="43.16827833" lon="-4.27510833">
        <ele>439.0</ele>
        <time>2018-05-19T15:35:17.480Z</time>
      </trkpt>
      <trkpt lat="43.16827167" lon="-4.27513333">
        <ele>439.0</ele>
        <time>2018-05-19T15:35:18.471Z</time>
      </trkpt>
      <trkpt lat="43.16827167" lon="-4.27513333">
        <ele>439.0</ele>
        <time>2018-05-19T15:35:19.468Z</time>
      </trkpt>
      <trkpt lat="43.16826167" lon="-4.275185">
        <ele>440.0</ele>
        <time>2018-05-19T15:35:20.481Z</time>
      </trkpt>
      <trkpt lat="43.16826167" lon="-4.275185">
        <ele>440.0</ele>
        <time>2018-05-19T15:35:21.467Z</time>
      </trkpt>
      <trkpt lat="43.16825167" lon="-4.27523667">
        <ele>440.0</ele>
        <time>2018-05-19T15:35:22.471Z</time>
      </trkpt>
      <trkpt lat="43.16825167" lon="-4.27523667">
        <ele>440.0</ele>
        <time>2018-05-19T15:35:23.469Z</time>
      </trkpt>
      <trkpt lat="43.16824167" lon="-4.27529">
        <ele>440.0</ele>
        <time>2018-05-19T15:35:24.478Z</time>
      </trkpt>
      <trkpt lat="43.16824167" lon="-4.27529">
        <ele>440.0</ele>
        <time>2018-05-19T15:35:25.479Z</time>
      </trkpt>
      <trkpt lat="43.16823167" lon="-4.27534167">
        <ele>441.0</ele>
        <time>2018-05-19T15:35:26.471Z</time>
      </trkpt>
      <trkpt lat="43.16823167" lon="-4.27534167">
        <ele>441.0</ele>
        <time>2018-05-19T15:35:27.470Z</time>
      </trkpt>
      <trkpt lat="43.16823333" lon="-4.27539833">
        <ele>442.0</ele>
        <time>2018-05-19T15:35:28.473Z</time>
      </trkpt>
      <trkpt lat="43.16823333" lon="-4.27539833">
        <ele>442.0</ele>
        <time>2018-05-19T15:35:29.469Z</time>
      </trkpt>
      <trkpt lat="43.16824167" lon="-4.27546">
        <ele>442.0</ele>
        <time>2018-05-19T15:35:30.474Z</time>
      </trkpt>
      <trkpt lat="43.16824167" lon="-4.27546">
        <ele>442.0</ele>
        <time>2018-05-19T15:35:31.469Z</time>
      </trkpt>
      <trkpt lat="43.16825167" lon="-4.27552">
        <ele>442.0</ele>
        <time>2018-05-19T15:35:32.472Z</time>
      </trkpt>
      <trkpt lat="43.16825167" lon="-4.27552">
        <ele>442.0</ele>
        <time>2018-05-19T15:35:33.455Z</time>
      </trkpt>
      <trkpt lat="43.16826333" lon="-4.275575">
        <ele>443.0</ele>
        <time>2018-05-19T15:35:34.482Z</time>
      </trkpt>
      <trkpt lat="43.16827167" lon="-4.2756">
        <ele>443.0</ele>
        <time>2018-05-19T15:35:35.476Z</time>
      </trkpt>
      <trkpt lat="43.16828" lon="-4.27562667">
        <ele>443.0</ele>
        <time>2018-05-19T15:35:36.474Z</time>
      </trkpt>
      <trkpt lat="43.16828833" lon="-4.27565333">
        <ele>444.0</ele>
        <time>2018-05-19T15:35:37.474Z</time>
      </trkpt>
      <trkpt lat="43.16828833" lon="-4.27565333">
        <ele>444.0</ele>
        <time>2018-05-19T15:35:38.472Z</time>
      </trkpt>
      <trkpt lat="43.16830167" lon="-4.27570833">
        <ele>444.0</ele>
        <time>2018-05-19T15:35:39.471Z</time>
      </trkpt>
      <trkpt lat="43.16830167" lon="-4.27570833">
        <ele>444.0</ele>
        <time>2018-05-19T15:35:40.467Z</time>
      </trkpt>
      <trkpt lat="43.16831333" lon="-4.27576167">
        <ele>445.0</ele>
        <time>2018-05-19T15:35:41.472Z</time>
      </trkpt>
      <trkpt lat="43.16832333" lon="-4.275785">
        <ele>445.0</ele>
        <time>2018-05-19T15:35:42.474Z</time>
      </trkpt>
      <trkpt lat="43.16832333" lon="-4.275785">
        <ele>445.0</ele>
        <time>2018-05-19T15:35:43.470Z</time>
      </trkpt>
      <trkpt lat="43.16834833" lon="-4.275825">
        <ele>445.0</ele>
        <time>2018-05-19T15:35:44.474Z</time>
      </trkpt>
      <trkpt lat="43.16834833" lon="-4.275825">
        <ele>445.0</ele>
        <time>2018-05-19T15:35:45.470Z</time>
      </trkpt>
      <trkpt lat="43.16837833" lon="-4.27586667">
        <ele>445.0</ele>
        <time>2018-05-19T15:35:46.472Z</time>
      </trkpt>
      <trkpt lat="43.16837833" lon="-4.27586667">
        <ele>445.0</ele>
        <time>2018-05-19T15:35:47.471Z</time>
      </trkpt>
      <trkpt lat="43.16840833" lon="-4.27590833">
        <ele>445.0</ele>
        <time>2018-05-19T15:35:48.474Z</time>
      </trkpt>
      <trkpt lat="43.16840833" lon="-4.27590833">
        <ele>445.0</ele>
        <time>2018-05-19T15:35:49.467Z</time>
      </trkpt>
      <trkpt lat="43.168445" lon="-4.27594833">
        <ele>445.0</ele>
        <time>2018-05-19T15:35:50.474Z</time>
      </trkpt>
      <trkpt lat="43.168445" lon="-4.27594833">
        <ele>445.0</ele>
        <time>2018-05-19T15:35:51.467Z</time>
      </trkpt>
      <trkpt lat="43.16847667" lon="-4.27599167">
        <ele>446.0</ele>
        <time>2018-05-19T15:35:52.469Z</time>
      </trkpt>
      <trkpt lat="43.16847667" lon="-4.27599167">
        <ele>446.0</ele>
        <time>2018-05-19T15:35:53.469Z</time>
      </trkpt>
      <trkpt lat="43.16851667" lon="-4.27604167">
        <ele>446.0</ele>
        <time>2018-05-19T15:35:54.454Z</time>
      </trkpt>
      <trkpt lat="43.16851667" lon="-4.27604167">
        <ele>446.0</ele>
        <time>2018-05-19T15:35:55.481Z</time>
      </trkpt>
      <trkpt lat="43.16855833" lon="-4.27606333">
        <ele>446.0</ele>
        <time>2018-05-19T15:35:56.479Z</time>
      </trkpt>
      <trkpt lat="43.16855833" lon="-4.27606333">
        <ele>446.0</ele>
        <time>2018-05-19T15:35:57.471Z</time>
      </trkpt>
      <trkpt lat="43.1686" lon="-4.27607333">
        <ele>446.0</ele>
        <time>2018-05-19T15:35:58.472Z</time>
      </trkpt>
      <trkpt lat="43.16862167" lon="-4.27607333">
        <ele>446.0</ele>
        <time>2018-05-19T15:35:59.474Z</time>
      </trkpt>
      <trkpt lat="43.16862167" lon="-4.27607333">
        <ele>446.0</ele>
        <time>2018-05-19T15:36:00.468Z</time>
      </trkpt>
      <trkpt lat="43.16866667" lon="-4.27606667">
        <ele>447.0</ele>
        <time>2018-05-19T15:36:01.472Z</time>
      </trkpt>
      <trkpt lat="43.16868833" lon="-4.27605833">
        <ele>447.0</ele>
        <time>2018-05-19T15:36:02.473Z</time>
      </trkpt>
      <trkpt lat="43.16868833" lon="-4.27605833">
        <ele>447.0</ele>
        <time>2018-05-19T15:36:03.467Z</time>
      </trkpt>
      <trkpt lat="43.16872833" lon="-4.27604167">
        <ele>448.0</ele>
        <time>2018-05-19T15:36:04.471Z</time>
      </trkpt>
      <trkpt lat="43.16874833" lon="-4.27602833">
        <ele>448.0</ele>
        <time>2018-05-19T15:36:05.474Z</time>
      </trkpt>
      <trkpt lat="43.16874833" lon="-4.27602833">
        <ele>448.0</ele>
        <time>2018-05-19T15:36:06.468Z</time>
      </trkpt>
      <trkpt lat="43.16878333" lon="-4.27600333">
        <ele>448.0</ele>
        <time>2018-05-19T15:36:07.474Z</time>
      </trkpt>
      <trkpt lat="43.16879833" lon="-4.275985">
        <ele>449.0</ele>
        <time>2018-05-19T15:36:08.473Z</time>
      </trkpt>
      <trkpt lat="43.16879833" lon="-4.275985">
        <ele>449.0</ele>
        <time>2018-05-19T15:36:09.470Z</time>
      </trkpt>
      <trkpt lat="43.16882667" lon="-4.27594833">
        <ele>449.0</ele>
        <time>2018-05-19T15:36:10.472Z</time>
      </trkpt>
      <trkpt lat="43.16882667" lon="-4.27594833">
        <ele>449.0</ele>
        <time>2018-05-19T15:36:11.466Z</time>
      </trkpt>
      <trkpt lat="43.168855" lon="-4.27591333">
        <ele>450.0</ele>
        <time>2018-05-19T15:36:12.474Z</time>
      </trkpt>
      <trkpt lat="43.168855" lon="-4.27591333">
        <ele>450.0</ele>
        <time>2018-05-19T15:36:13.469Z</time>
      </trkpt>
      <trkpt lat="43.16887167" lon="-4.27586833">
        <ele>450.0</ele>
        <time>2018-05-19T15:36:14.474Z</time>
      </trkpt>
      <trkpt lat="43.16887167" lon="-4.27586833">
        <ele>450.0</ele>
        <time>2018-05-19T15:36:15.470Z</time>
      </trkpt>
      <trkpt lat="43.16889333" lon="-4.275815">
        <ele>451.0</ele>
        <time>2018-05-19T15:36:16.468Z</time>
      </trkpt>
      <trkpt lat="43.168905" lon="-4.27579333">
        <ele>451.0</ele>
        <time>2018-05-19T15:36:17.480Z</time>
      </trkpt>
      <trkpt lat="43.16892167" lon="-4.275775">
        <ele>452.0</ele>
        <time>2018-05-19T15:36:18.473Z</time>
      </trkpt>
      <trkpt lat="43.16892167" lon="-4.275775">
        <ele>452.0</ele>
        <time>2018-05-19T15:36:19.469Z</time>
      </trkpt>
      <trkpt lat="43.16896167" lon="-4.275755">
        <ele>452.0</ele>
        <time>2018-05-19T15:36:20.452Z</time>
      </trkpt>
      <trkpt lat="43.16896167" lon="-4.275755">
        <ele>452.0</ele>
        <time>2018-05-19T15:36:21.448Z</time>
      </trkpt>
      <trkpt lat="43.16900167" lon="-4.27575">
        <ele>453.0</ele>
        <time>2018-05-19T15:36:22.480Z</time>
      </trkpt>
      <trkpt lat="43.16900167" lon="-4.27575">
        <ele>453.0</ele>
        <time>2018-05-19T15:36:23.471Z</time>
      </trkpt>
      <trkpt lat="43.16903667" lon="-4.27576">
        <ele>454.0</ele>
        <time>2018-05-19T15:36:24.480Z</time>
      </trkpt>
      <trkpt lat="43.16903667" lon="-4.27576">
        <ele>454.0</ele>
        <time>2018-05-19T15:36:25.486Z</time>
      </trkpt>
      <trkpt lat="43.16906333" lon="-4.27577667">
        <ele>455.0</ele>
        <time>2018-05-19T15:36:26.452Z</time>
      </trkpt>
      <trkpt lat="43.169075" lon="-4.27577667">
        <ele>455.0</ele>
        <time>2018-05-19T15:36:27.485Z</time>
      </trkpt>
      <trkpt lat="43.169075" lon="-4.27577667">
        <ele>455.0</ele>
        <time>2018-05-19T15:36:28.453Z</time>
      </trkpt>
      <trkpt lat="43.16910333" lon="-4.27578">
        <ele>456.0</ele>
        <time>2018-05-19T15:36:29.481Z</time>
      </trkpt>
      <trkpt lat="43.16911667" lon="-4.27579">
        <ele>456.0</ele>
        <time>2018-05-19T15:36:30.474Z</time>
      </trkpt>
      <trkpt lat="43.16911667" lon="-4.27579">
        <ele>456.0</ele>
        <time>2018-05-19T15:36:31.470Z</time>
      </trkpt>
      <trkpt lat="43.169145" lon="-4.2758">
        <ele>457.0</ele>
        <time>2018-05-19T15:36:32.479Z</time>
      </trkpt>
      <trkpt lat="43.169145" lon="-4.2758">
        <ele>457.0</ele>
        <time>2018-05-19T15:36:33.469Z</time>
      </trkpt>
      <trkpt lat="43.16917333" lon="-4.27581333">
        <ele>457.0</ele>
        <time>2018-05-19T15:36:34.468Z</time>
      </trkpt>
      <trkpt lat="43.16918333" lon="-4.27582833">
        <ele>457.0</ele>
        <time>2018-05-19T15:36:35.474Z</time>
      </trkpt>
      <trkpt lat="43.16918333" lon="-4.27582833">
        <ele>457.0</ele>
        <time>2018-05-19T15:36:36.471Z</time>
      </trkpt>
      <trkpt lat="43.16918333" lon="-4.27586833">
        <ele>457.0</ele>
        <time>2018-05-19T15:36:37.471Z</time>
      </trkpt>
      <trkpt lat="43.16918167" lon="-4.27588667">
        <ele>458.0</ele>
        <time>2018-05-19T15:36:38.473Z</time>
      </trkpt>
      <trkpt lat="43.16918167" lon="-4.27588667">
        <ele>458.0</ele>
        <time>2018-05-19T15:36:39.472Z</time>
      </trkpt>
      <trkpt lat="43.16919667" lon="-4.27591667">
        <ele>458.0</ele>
        <time>2018-05-19T15:36:40.471Z</time>
      </trkpt>
      <trkpt lat="43.16919667" lon="-4.27591667">
        <ele>458.0</ele>
        <time>2018-05-19T15:36:41.469Z</time>
      </trkpt>
      <trkpt lat="43.16921167" lon="-4.275945">
        <ele>459.0</ele>
        <time>2018-05-19T15:36:42.474Z</time>
      </trkpt>
      <trkpt lat="43.16921167" lon="-4.275945">
        <ele>459.0</ele>
        <time>2018-05-19T15:36:43.467Z</time>
      </trkpt>
      <trkpt lat="43.16921" lon="-4.27598">
        <ele>459.0</ele>
        <time>2018-05-19T15:36:44.453Z</time>
      </trkpt>
      <trkpt lat="43.16921" lon="-4.27598">
        <ele>459.0</ele>
        <time>2018-05-19T15:36:45.452Z</time>
      </trkpt>
      <trkpt lat="43.16921" lon="-4.27600833">
        <ele>459.0</ele>
        <time>2018-05-19T15:36:46.480Z</time>
      </trkpt>
      <trkpt lat="43.169215" lon="-4.27601667">
        <ele>460.0</ele>
        <time>2018-05-19T15:36:47.474Z</time>
      </trkpt>
      <trkpt lat="43.16922" lon="-4.276025">
        <ele>460.0</ele>
        <time>2018-05-19T15:36:48.474Z</time>
      </trkpt>
      <trkpt lat="43.16922" lon="-4.276025">
        <ele>460.0</ele>
        <time>2018-05-19T15:36:49.469Z</time>
      </trkpt>
      <trkpt lat="43.16922333" lon="-4.27605333">
        <ele>461.0</ele>
        <time>2018-05-19T15:36:50.471Z</time>
      </trkpt>
      <trkpt lat="43.16922333" lon="-4.27605333">
        <ele>461.0</ele>
        <time>2018-05-19T15:36:51.464Z</time>
      </trkpt>
      <trkpt lat="43.16923333" lon="-4.27610167">
        <ele>461.0</ele>
        <time>2018-05-19T15:36:52.471Z</time>
      </trkpt>
      <trkpt lat="43.16923333" lon="-4.27610167">
        <ele>461.0</ele>
        <time>2018-05-19T15:36:53.468Z</time>
      </trkpt>
      <trkpt lat="43.16923167" lon="-4.27614">
        <ele>462.0</ele>
        <time>2018-05-19T15:36:54.474Z</time>
      </trkpt>
      <trkpt lat="43.16923167" lon="-4.27614">
        <ele>462.0</ele>
        <time>2018-05-19T15:36:55.467Z</time>
      </trkpt>
      <trkpt lat="43.16922833" lon="-4.27617167">
        <ele>462.0</ele>
        <time>2018-05-19T15:36:56.472Z</time>
      </trkpt>
      <trkpt lat="43.16922833" lon="-4.27617167">
        <ele>462.0</ele>
        <time>2018-05-19T15:36:57.470Z</time>
      </trkpt>
      <trkpt lat="43.169235" lon="-4.27620833">
        <ele>463.0</ele>
        <time>2018-05-19T15:36:58.474Z</time>
      </trkpt>
      <trkpt lat="43.169235" lon="-4.27620833">
        <ele>463.0</ele>
        <time>2018-05-19T15:36:59.469Z</time>
      </trkpt>
      <trkpt lat="43.16923833" lon="-4.27624333">
        <ele>464.0</ele>
        <time>2018-05-19T15:37:00.450Z</time>
      </trkpt>
      <trkpt lat="43.16923833" lon="-4.27624333">
        <ele>464.0</ele>
        <time>2018-05-19T15:37:01.476Z</time>
      </trkpt>
      <trkpt lat="43.16923" lon="-4.27627667">
        <ele>464.0</ele>
        <time>2018-05-19T15:37:02.472Z</time>
      </trkpt>
      <trkpt lat="43.16923" lon="-4.27627667">
        <ele>464.0</ele>
        <time>2018-05-19T15:37:03.469Z</time>
      </trkpt>
      <trkpt lat="43.16923333" lon="-4.27630167">
        <ele>465.0</ele>
        <time>2018-05-19T15:37:04.452Z</time>
      </trkpt>
      <trkpt lat="43.16923333" lon="-4.27630167">
        <ele>465.0</ele>
        <time>2018-05-19T15:37:05.481Z</time>
      </trkpt>
      <trkpt lat="43.16924333" lon="-4.27632">
        <ele>466.0</ele>
        <time>2018-05-19T15:37:06.473Z</time>
      </trkpt>
      <trkpt lat="43.16924333" lon="-4.27632">
        <ele>466.0</ele>
        <time>2018-05-19T15:37:07.471Z</time>
      </trkpt>
      <trkpt lat="43.16924667" lon="-4.27635333">
        <ele>467.0</ele>
        <time>2018-05-19T15:37:08.473Z</time>
      </trkpt>
      <trkpt lat="43.16924667" lon="-4.27635333">
        <ele>467.0</ele>
        <time>2018-05-19T15:37:09.466Z</time>
      </trkpt>
      <trkpt lat="43.16925" lon="-4.27638">
        <ele>467.0</ele>
        <time>2018-05-19T15:37:10.471Z</time>
      </trkpt>
      <trkpt lat="43.16925" lon="-4.27638">
        <ele>467.0</ele>
        <time>2018-05-19T15:37:11.468Z</time>
      </trkpt>
      <trkpt lat="43.16924833" lon="-4.27639833">
        <ele>468.0</ele>
        <time>2018-05-19T15:37:12.472Z</time>
      </trkpt>
      <trkpt lat="43.16924833" lon="-4.27639833">
        <ele>468.0</ele>
        <time>2018-05-19T15:37:13.467Z</time>
      </trkpt>
      <trkpt lat="43.16925667" lon="-4.27643667">
        <ele>469.0</ele>
        <time>2018-05-19T15:37:14.472Z</time>
      </trkpt>
      <trkpt lat="43.16925667" lon="-4.27643667">
        <ele>469.0</ele>
        <time>2018-05-19T15:37:15.468Z</time>
      </trkpt>
      <trkpt lat="43.16926" lon="-4.27647833">
        <ele>469.0</ele>
        <time>2018-05-19T15:37:16.471Z</time>
      </trkpt>
      <trkpt lat="43.16926167" lon="-4.2765">
        <ele>470.0</ele>
        <time>2018-05-19T15:37:17.472Z</time>
      </trkpt>
      <trkpt lat="43.16926333" lon="-4.27652167">
        <ele>470.0</ele>
        <time>2018-05-19T15:37:18.473Z</time>
      </trkpt>
      <trkpt lat="43.16926333" lon="-4.27652167">
        <ele>470.0</ele>
        <time>2018-05-19T15:37:19.469Z</time>
      </trkpt>
      <trkpt lat="43.169265" lon="-4.27656167">
        <ele>471.0</ele>
        <time>2018-05-19T15:37:20.472Z</time>
      </trkpt>
      <trkpt lat="43.169265" lon="-4.27656167">
        <ele>471.0</ele>
        <time>2018-05-19T15:37:21.469Z</time>
      </trkpt>
      <trkpt lat="43.16926167" lon="-4.27660667">
        <ele>471.0</ele>
        <time>2018-05-19T15:37:22.471Z</time>
      </trkpt>
      <trkpt lat="43.16926167" lon="-4.27660667">
        <ele>471.0</ele>
        <time>2018-05-19T15:37:23.468Z</time>
      </trkpt>
      <trkpt lat="43.16925667" lon="-4.27667167">
        <ele>472.0</ele>
        <time>2018-05-19T15:37:24.480Z</time>
      </trkpt>
      <trkpt lat="43.16925667" lon="-4.27667167">
        <ele>472.0</ele>
        <time>2018-05-19T15:37:25.469Z</time>
      </trkpt>
      <trkpt lat="43.169255" lon="-4.27671667">
        <ele>473.0</ele>
        <time>2018-05-19T15:37:26.470Z</time>
      </trkpt>
      <trkpt lat="43.169255" lon="-4.27671667">
        <ele>473.0</ele>
        <time>2018-05-19T15:37:27.470Z</time>
      </trkpt>
      <trkpt lat="43.16925667" lon="-4.27675">
        <ele>474.0</ele>
        <time>2018-05-19T15:37:28.471Z</time>
      </trkpt>
      <trkpt lat="43.16925333" lon="-4.27676667">
        <ele>474.0</ele>
        <time>2018-05-19T15:37:29.469Z</time>
      </trkpt>
      <trkpt lat="43.16925333" lon="-4.27676667">
        <ele>474.0</ele>
        <time>2018-05-19T15:37:30.453Z</time>
      </trkpt>
      <trkpt lat="43.16924167" lon="-4.27680333">
        <ele>475.0</ele>
        <time>2018-05-19T15:37:31.480Z</time>
      </trkpt>
      <trkpt lat="43.16923167" lon="-4.27681833">
        <ele>475.0</ele>
        <time>2018-05-19T15:37:32.474Z</time>
      </trkpt>
      <trkpt lat="43.16923167" lon="-4.27681833">
        <ele>475.0</ele>
        <time>2018-05-19T15:37:33.466Z</time>
      </trkpt>
      <trkpt lat="43.16919833" lon="-4.276855">
        <ele>476.0</ele>
        <time>2018-05-19T15:37:34.452Z</time>
      </trkpt>
      <trkpt lat="43.169185" lon="-4.27687">
        <ele>476.0</ele>
        <time>2018-05-19T15:37:35.481Z</time>
      </trkpt>
      <trkpt lat="43.16917333" lon="-4.27688">
        <ele>477.0</ele>
        <time>2018-05-19T15:37:36.471Z</time>
      </trkpt>
      <trkpt lat="43.16917333" lon="-4.27688">
        <ele>477.0</ele>
        <time>2018-05-19T15:37:37.471Z</time>
      </trkpt>
      <trkpt lat="43.16916333" lon="-4.276915">
        <ele>478.0</ele>
        <time>2018-05-19T15:37:38.469Z</time>
      </trkpt>
      <trkpt lat="43.16916333" lon="-4.276915">
        <ele>478.0</ele>
        <time>2018-05-19T15:37:39.454Z</time>
      </trkpt>
      <trkpt lat="43.16915" lon="-4.27694667">
        <ele>478.0</ele>
        <time>2018-05-19T15:37:40.481Z</time>
      </trkpt>
      <trkpt lat="43.16915" lon="-4.27694667">
        <ele>478.0</ele>
        <time>2018-05-19T15:37:41.468Z</time>
      </trkpt>
      <trkpt lat="43.16914" lon="-4.27698833">
        <ele>479.0</ele>
        <time>2018-05-19T15:37:42.472Z</time>
      </trkpt>
      <trkpt lat="43.16914" lon="-4.27698833">
        <ele>479.0</ele>
        <time>2018-05-19T15:37:43.468Z</time>
      </trkpt>
      <trkpt lat="43.169135" lon="-4.27702667">
        <ele>479.0</ele>
        <time>2018-05-19T15:37:44.474Z</time>
      </trkpt>
      <trkpt lat="43.169135" lon="-4.27702667">
        <ele>479.0</ele>
        <time>2018-05-19T15:37:45.469Z</time>
      </trkpt>
      <trkpt lat="43.16911833" lon="-4.27706">
        <ele>480.0</ele>
        <time>2018-05-19T15:37:46.471Z</time>
      </trkpt>
      <trkpt lat="43.16910833" lon="-4.277075">
        <ele>480.0</ele>
        <time>2018-05-19T15:37:47.473Z</time>
      </trkpt>
      <trkpt lat="43.1691" lon="-4.27709">
        <ele>481.0</ele>
        <time>2018-05-19T15:37:48.470Z</time>
      </trkpt>
      <trkpt lat="43.1691" lon="-4.27709">
        <ele>481.0</ele>
        <time>2018-05-19T15:37:49.470Z</time>
      </trkpt>
      <trkpt lat="43.169095" lon="-4.27713">
        <ele>481.0</ele>
        <time>2018-05-19T15:37:50.472Z</time>
      </trkpt>
      <trkpt lat="43.169095" lon="-4.27713">
        <ele>481.0</ele>
        <time>2018-05-19T15:37:51.468Z</time>
      </trkpt>
      <trkpt lat="43.16909333" lon="-4.27716">
        <ele>482.0</ele>
        <time>2018-05-19T15:37:52.471Z</time>
      </trkpt>
      <trkpt lat="43.16909833" lon="-4.277185">
        <ele>482.0</ele>
        <time>2018-05-19T15:37:53.473Z</time>
      </trkpt>
      <trkpt lat="43.16909833" lon="-4.277185">
        <ele>482.0</ele>
        <time>2018-05-19T15:37:54.468Z</time>
      </trkpt>
      <trkpt lat="43.169095" lon="-4.27722167">
        <ele>483.0</ele>
        <time>2018-05-19T15:37:55.477Z</time>
      </trkpt>
      <trkpt lat="43.16909" lon="-4.27724">
        <ele>483.0</ele>
        <time>2018-05-19T15:37:56.474Z</time>
      </trkpt>
      <trkpt lat="43.16909" lon="-4.27724">
        <ele>483.0</ele>
        <time>2018-05-19T15:37:57.450Z</time>
      </trkpt>
      <trkpt lat="43.169085" lon="-4.27727333">
        <ele>483.0</ele>
        <time>2018-05-19T15:37:58.471Z</time>
      </trkpt>
      <trkpt lat="43.169085" lon="-4.27727333">
        <ele>483.0</ele>
        <time>2018-05-19T15:37:59.466Z</time>
      </trkpt>
      <trkpt lat="43.169075" lon="-4.27730833">
        <ele>484.0</ele>
        <time>2018-05-19T15:38:00.477Z</time>
      </trkpt>
      <trkpt lat="43.169075" lon="-4.27730833">
        <ele>484.0</ele>
        <time>2018-05-19T15:38:01.468Z</time>
      </trkpt>
      <trkpt lat="43.16907333" lon="-4.27735">
        <ele>485.0</ele>
        <time>2018-05-19T15:38:02.473Z</time>
      </trkpt>
      <trkpt lat="43.16907333" lon="-4.27735">
        <ele>485.0</ele>
        <time>2018-05-19T15:38:03.468Z</time>
      </trkpt>
      <trkpt lat="43.16907167" lon="-4.27740333">
        <ele>485.0</ele>
        <time>2018-05-19T15:38:04.452Z</time>
      </trkpt>
      <trkpt lat="43.16907167" lon="-4.27740333">
        <ele>485.0</ele>
        <time>2018-05-19T15:38:05.480Z</time>
      </trkpt>
      <trkpt lat="43.16906667" lon="-4.27746333">
        <ele>486.0</ele>
        <time>2018-05-19T15:38:06.469Z</time>
      </trkpt>
      <trkpt lat="43.16906667" lon="-4.27746333">
        <ele>486.0</ele>
        <time>2018-05-19T15:38:07.474Z</time>
      </trkpt>
      <trkpt lat="43.16905167" lon="-4.27752833">
        <ele>486.0</ele>
        <time>2018-05-19T15:38:08.472Z</time>
      </trkpt>
      <trkpt lat="43.16905167" lon="-4.27752833">
        <ele>486.0</ele>
        <time>2018-05-19T15:38:09.469Z</time>
      </trkpt>
      <trkpt lat="43.16903667" lon="-4.27759">
        <ele>486.0</ele>
        <time>2018-05-19T15:38:10.471Z</time>
      </trkpt>
      <trkpt lat="43.16903667" lon="-4.27759">
        <ele>486.0</ele>
        <time>2018-05-19T15:38:11.469Z</time>
      </trkpt>
      <trkpt lat="43.16902167" lon="-4.27764667">
        <ele>487.0</ele>
        <time>2018-05-19T15:38:12.474Z</time>
      </trkpt>
      <trkpt lat="43.16902167" lon="-4.27764667">
        <ele>487.0</ele>
        <time>2018-05-19T15:38:13.466Z</time>
      </trkpt>
      <trkpt lat="43.16901667" lon="-4.27771667">
        <ele>487.0</ele>
        <time>2018-05-19T15:38:14.472Z</time>
      </trkpt>
      <trkpt lat="43.16901667" lon="-4.27771667">
        <ele>487.0</ele>
        <time>2018-05-19T15:38:15.468Z</time>
      </trkpt>
      <trkpt lat="43.16900667" lon="-4.27779">
        <ele>487.0</ele>
        <time>2018-05-19T15:38:16.471Z</time>
      </trkpt>
      <trkpt lat="43.16900667" lon="-4.27779">
        <ele>487.0</ele>
        <time>2018-05-19T15:38:17.463Z</time>
      </trkpt>
      <trkpt lat="43.16899" lon="-4.27786">
        <ele>487.0</ele>
        <time>2018-05-19T15:38:18.450Z</time>
      </trkpt>
      <trkpt lat="43.16899" lon="-4.27786">
        <ele>487.0</ele>
        <time>2018-05-19T15:38:19.474Z</time>
      </trkpt>
      <trkpt lat="43.168965" lon="-4.27793167">
        <ele>488.0</ele>
        <time>2018-05-19T15:38:20.472Z</time>
      </trkpt>
      <trkpt lat="43.168965" lon="-4.27793167">
        <ele>488.0</ele>
        <time>2018-05-19T15:38:21.464Z</time>
      </trkpt>
      <trkpt lat="43.16893" lon="-4.278015">
        <ele>488.0</ele>
        <time>2018-05-19T15:38:22.471Z</time>
      </trkpt>
      <trkpt lat="43.16893" lon="-4.278015">
        <ele>488.0</ele>
        <time>2018-05-19T15:38:23.451Z</time>
      </trkpt>
      <trkpt lat="43.16889333" lon="-4.27814167">
        <ele>488.0</ele>
        <time>2018-05-19T15:38:24.450Z</time>
      </trkpt>
      <trkpt lat="43.16889333" lon="-4.27814167">
        <ele>488.0</ele>
        <time>2018-05-19T15:38:25.473Z</time>
      </trkpt>
      <trkpt lat="43.16886" lon="-4.27825333">
        <ele>488.0</ele>
        <time>2018-05-19T15:38:26.473Z</time>
      </trkpt>
      <trkpt lat="43.16886" lon="-4.27825333">
        <ele>488.0</ele>
        <time>2018-05-19T15:38:27.473Z</time>
      </trkpt>
      <trkpt lat="43.168815" lon="-4.27835333">
        <ele>488.0</ele>
        <time>2018-05-19T15:38:28.472Z</time>
      </trkpt>
      <trkpt lat="43.168815" lon="-4.27835333">
        <ele>488.0</ele>
        <time>2018-05-19T15:38:29.468Z</time>
      </trkpt>
      <trkpt lat="43.16877667" lon="-4.278465">
        <ele>487.0</ele>
        <time>2018-05-19T15:38:30.470Z</time>
      </trkpt>
      <trkpt lat="43.16877667" lon="-4.278465">
        <ele>487.0</ele>
        <time>2018-05-19T15:38:31.469Z</time>
      </trkpt>
      <trkpt lat="43.168745" lon="-4.2786">
        <ele>487.0</ele>
        <time>2018-05-19T15:38:32.472Z</time>
      </trkpt>
      <trkpt lat="43.168745" lon="-4.2786">
        <ele>487.0</ele>
        <time>2018-05-19T15:38:33.469Z</time>
      </trkpt>
      <trkpt lat="43.16871667" lon="-4.27875333">
        <ele>486.0</ele>
        <time>2018-05-19T15:38:34.470Z</time>
      </trkpt>
      <trkpt lat="43.16871667" lon="-4.27875333">
        <ele>486.0</ele>
        <time>2018-05-19T15:38:35.469Z</time>
      </trkpt>
      <trkpt lat="43.16867167" lon="-4.278915">
        <ele>486.0</ele>
        <time>2018-05-19T15:38:36.474Z</time>
      </trkpt>
      <trkpt lat="43.16867167" lon="-4.278915">
        <ele>486.0</ele>
        <time>2018-05-19T15:38:37.463Z</time>
      </trkpt>
      <trkpt lat="43.168625" lon="-4.27909167">
        <ele>485.0</ele>
        <time>2018-05-19T15:38:38.473Z</time>
      </trkpt>
      <trkpt lat="43.168625" lon="-4.27909167">
        <ele>485.0</ele>
        <time>2018-05-19T15:38:39.468Z</time>
      </trkpt>
      <trkpt lat="43.16859167" lon="-4.279275">
        <ele>485.0</ele>
        <time>2018-05-19T15:38:40.468Z</time>
      </trkpt>
      <trkpt lat="43.16859167" lon="-4.279275">
        <ele>485.0</ele>
        <time>2018-05-19T15:38:41.466Z</time>
      </trkpt>
      <trkpt lat="43.168555" lon="-4.279435">
        <ele>485.0</ele>
        <time>2018-05-19T15:38:42.473Z</time>
      </trkpt>
      <trkpt lat="43.168555" lon="-4.279435">
        <ele>485.0</ele>
        <time>2018-05-19T15:38:43.469Z</time>
      </trkpt>
      <trkpt lat="43.16853333" lon="-4.27956167">
        <ele>485.0</ele>
        <time>2018-05-19T15:38:44.473Z</time>
      </trkpt>
      <trkpt lat="43.16853333" lon="-4.27956167">
        <ele>485.0</ele>
        <time>2018-05-19T15:38:45.466Z</time>
      </trkpt>
      <trkpt lat="43.16852167" lon="-4.279665">
        <ele>485.0</ele>
        <time>2018-05-19T15:38:46.471Z</time>
      </trkpt>
      <trkpt lat="43.16852167" lon="-4.279665">
        <ele>485.0</ele>
        <time>2018-05-19T15:38:47.448Z</time>
      </trkpt>
      <trkpt lat="43.16852333" lon="-4.27976333">
        <ele>485.0</ele>
        <time>2018-05-19T15:38:48.474Z</time>
      </trkpt>
      <trkpt lat="43.16852333" lon="-4.27976333">
        <ele>485.0</ele>
        <time>2018-05-19T15:38:49.466Z</time>
      </trkpt>
      <trkpt lat="43.168535" lon="-4.279845">
        <ele>484.0</ele>
        <time>2018-05-19T15:38:50.450Z</time>
      </trkpt>
      <trkpt lat="43.168535" lon="-4.279845">
        <ele>484.0</ele>
        <time>2018-05-19T15:38:51.449Z</time>
      </trkpt>
      <trkpt lat="43.168545" lon="-4.27991667">
        <ele>485.0</ele>
        <time>2018-05-19T15:38:52.481Z</time>
      </trkpt>
      <trkpt lat="43.168545" lon="-4.27991667">
        <ele>485.0</ele>
        <time>2018-05-19T15:38:53.469Z</time>
      </trkpt>
      <trkpt lat="43.16854667" lon="-4.27999">
        <ele>485.0</ele>
        <time>2018-05-19T15:38:54.453Z</time>
      </trkpt>
      <trkpt lat="43.16854667" lon="-4.27999">
        <ele>485.0</ele>
        <time>2018-05-19T15:38:55.482Z</time>
      </trkpt>
      <trkpt lat="43.16855333" lon="-4.28008333">
        <ele>485.0</ele>
        <time>2018-05-19T15:38:56.473Z</time>
      </trkpt>
      <trkpt lat="43.16855333" lon="-4.28008333">
        <ele>485.0</ele>
        <time>2018-05-19T15:38:57.469Z</time>
      </trkpt>
      <trkpt lat="43.16854833" lon="-4.28015667">
        <ele>485.0</ele>
        <time>2018-05-19T15:38:58.472Z</time>
      </trkpt>
      <trkpt lat="43.16854833" lon="-4.28015667">
        <ele>485.0</ele>
        <time>2018-05-19T15:38:59.467Z</time>
      </trkpt>
      <trkpt lat="43.16855833" lon="-4.28022333">
        <ele>485.0</ele>
        <time>2018-05-19T15:39:00.450Z</time>
      </trkpt>
      <trkpt lat="43.16855833" lon="-4.28022333">
        <ele>485.0</ele>
        <time>2018-05-19T15:39:01.474Z</time>
      </trkpt>
      <trkpt lat="43.16857167" lon="-4.280275">
        <ele>485.0</ele>
        <time>2018-05-19T15:39:02.472Z</time>
      </trkpt>
      <trkpt lat="43.16857167" lon="-4.280275">
        <ele>485.0</ele>
        <time>2018-05-19T15:39:03.463Z</time>
      </trkpt>
      <trkpt lat="43.16859333" lon="-4.28032333">
        <ele>485.0</ele>
        <time>2018-05-19T15:39:04.471Z</time>
      </trkpt>
      <trkpt lat="43.16859333" lon="-4.28032333">
        <ele>485.0</ele>
        <time>2018-05-19T15:39:05.468Z</time>
      </trkpt>
      <trkpt lat="43.16862" lon="-4.28037167">
        <ele>485.0</ele>
        <time>2018-05-19T15:39:06.471Z</time>
      </trkpt>
      <trkpt lat="43.16862" lon="-4.28037167">
        <ele>485.0</ele>
        <time>2018-05-19T15:39:07.480Z</time>
      </trkpt>
      <trkpt lat="43.168645" lon="-4.28041667">
        <ele>485.0</ele>
        <time>2018-05-19T15:39:08.472Z</time>
      </trkpt>
      <trkpt lat="43.168645" lon="-4.28041667">
        <ele>485.0</ele>
        <time>2018-05-19T15:39:09.469Z</time>
      </trkpt>
      <trkpt lat="43.16866833" lon="-4.28046167">
        <ele>485.0</ele>
        <time>2018-05-19T15:39:10.471Z</time>
      </trkpt>
      <trkpt lat="43.16867833" lon="-4.28049">
        <ele>485.0</ele>
        <time>2018-05-19T15:39:11.468Z</time>
      </trkpt>
      <trkpt lat="43.16869" lon="-4.28051">
        <ele>486.0</ele>
        <time>2018-05-19T15:39:12.469Z</time>
      </trkpt>
      <trkpt lat="43.16869" lon="-4.28051">
        <ele>486.0</ele>
        <time>2018-05-19T15:39:13.469Z</time>
      </trkpt>
      <trkpt lat="43.168715" lon="-4.28055">
        <ele>486.0</ele>
        <time>2018-05-19T15:39:14.472Z</time>
      </trkpt>
      <trkpt lat="43.168715" lon="-4.28055">
        <ele>486.0</ele>
        <time>2018-05-19T15:39:15.466Z</time>
      </trkpt>
      <trkpt lat="43.16874667" lon="-4.28058667">
        <ele>486.0</ele>
        <time>2018-05-19T15:39:16.471Z</time>
      </trkpt>
      <trkpt lat="43.16874667" lon="-4.28058667">
        <ele>486.0</ele>
        <time>2018-05-19T15:39:17.478Z</time>
      </trkpt>
      <trkpt lat="43.16877167" lon="-4.28063">
        <ele>486.0</ele>
        <time>2018-05-19T15:39:18.471Z</time>
      </trkpt>
      <trkpt lat="43.16877167" lon="-4.28063">
        <ele>486.0</ele>
        <time>2018-05-19T15:39:19.465Z</time>
      </trkpt>
      <trkpt lat="43.16878667" lon="-4.28067667">
        <ele>486.0</ele>
        <time>2018-05-19T15:39:20.473Z</time>
      </trkpt>
      <trkpt lat="43.16878667" lon="-4.28067667">
        <ele>486.0</ele>
        <time>2018-05-19T15:39:21.468Z</time>
      </trkpt>
      <trkpt lat="43.1688" lon="-4.28073833">
        <ele>487.0</ele>
        <time>2018-05-19T15:39:22.471Z</time>
      </trkpt>
      <trkpt lat="43.1688" lon="-4.28073833">
        <ele>487.0</ele>
        <time>2018-05-19T15:39:23.461Z</time>
      </trkpt>
      <trkpt lat="43.16881167" lon="-4.2808">
        <ele>487.0</ele>
        <time>2018-05-19T15:39:24.470Z</time>
      </trkpt>
      <trkpt lat="43.16881167" lon="-4.2808">
        <ele>487.0</ele>
        <time>2018-05-19T15:39:25.476Z</time>
      </trkpt>
      <trkpt lat="43.168825" lon="-4.28086">
        <ele>487.0</ele>
        <time>2018-05-19T15:39:26.483Z</time>
      </trkpt>
      <trkpt lat="43.16882833" lon="-4.28089667">
        <ele>487.0</ele>
        <time>2018-05-19T15:39:27.481Z</time>
      </trkpt>
      <trkpt lat="43.16882833" lon="-4.28089667">
        <ele>487.0</ele>
        <time>2018-05-19T15:39:28.467Z</time>
      </trkpt>
      <trkpt lat="43.16883333" lon="-4.280945">
        <ele>487.0</ele>
        <time>2018-05-19T15:39:29.471Z</time>
      </trkpt>
      <trkpt lat="43.16883667" lon="-4.28096833">
        <ele>487.0</ele>
        <time>2018-05-19T15:39:30.473Z</time>
      </trkpt>
      <trkpt lat="43.16883667" lon="-4.28096833">
        <ele>487.0</ele>
        <time>2018-05-19T15:39:31.466Z</time>
      </trkpt>
      <trkpt lat="43.16883333" lon="-4.28102">
        <ele>487.0</ele>
        <time>2018-05-19T15:39:32.472Z</time>
      </trkpt>
      <trkpt lat="43.16883333" lon="-4.28102">
        <ele>487.0</ele>
        <time>2018-05-19T15:39:33.468Z</time>
      </trkpt>
      <trkpt lat="43.16882667" lon="-4.281075">
        <ele>487.0</ele>
        <time>2018-05-19T15:39:34.472Z</time>
      </trkpt>
      <trkpt lat="43.16882667" lon="-4.281075">
        <ele>487.0</ele>
        <time>2018-05-19T15:39:35.466Z</time>
      </trkpt>
      <trkpt lat="43.16882167" lon="-4.28113667">
        <ele>487.0</ele>
        <time>2018-05-19T15:39:36.472Z</time>
      </trkpt>
      <trkpt lat="43.16882167" lon="-4.28113667">
        <ele>487.0</ele>
        <time>2018-05-19T15:39:37.486Z</time>
      </trkpt>
      <trkpt lat="43.16882833" lon="-4.28118833">
        <ele>487.0</ele>
        <time>2018-05-19T15:39:38.472Z</time>
      </trkpt>
      <trkpt lat="43.16882833" lon="-4.28118833">
        <ele>487.0</ele>
        <time>2018-05-19T15:39:39.466Z</time>
      </trkpt>
      <trkpt lat="43.16883167" lon="-4.28124">
        <ele>487.0</ele>
        <time>2018-05-19T15:39:40.472Z</time>
      </trkpt>
      <trkpt lat="43.16883167" lon="-4.28124">
        <ele>487.0</ele>
        <time>2018-05-19T15:39:41.468Z</time>
      </trkpt>
      <trkpt lat="43.16884333" lon="-4.28129167">
        <ele>487.0</ele>
        <time>2018-05-19T15:39:42.469Z</time>
      </trkpt>
      <trkpt lat="43.16884333" lon="-4.28129167">
        <ele>487.0</ele>
        <time>2018-05-19T15:39:43.467Z</time>
      </trkpt>
      <trkpt lat="43.168855" lon="-4.28134667">
        <ele>488.0</ele>
        <time>2018-05-19T15:39:44.452Z</time>
      </trkpt>
      <trkpt lat="43.168855" lon="-4.28134667">
        <ele>488.0</ele>
        <time>2018-05-19T15:39:45.450Z</time>
      </trkpt>
      <trkpt lat="43.16885833" lon="-4.2814">
        <ele>489.0</ele>
        <time>2018-05-19T15:39:46.481Z</time>
      </trkpt>
      <trkpt lat="43.16885833" lon="-4.2814">
        <ele>489.0</ele>
        <time>2018-05-19T15:39:47.474Z</time>
      </trkpt>
      <trkpt lat="43.16886333" lon="-4.28145">
        <ele>490.0</ele>
        <time>2018-05-19T15:39:48.449Z</time>
      </trkpt>
      <trkpt lat="43.16886333" lon="-4.28145">
        <ele>490.0</ele>
        <time>2018-05-19T15:39:49.477Z</time>
      </trkpt>
      <trkpt lat="43.16886833" lon="-4.2815">
        <ele>490.0</ele>
        <time>2018-05-19T15:39:50.472Z</time>
      </trkpt>
      <trkpt lat="43.16886833" lon="-4.2815">
        <ele>490.0</ele>
        <time>2018-05-19T15:39:51.468Z</time>
      </trkpt>
      <trkpt lat="43.16887667" lon="-4.28155">
        <ele>491.0</ele>
        <time>2018-05-19T15:39:52.469Z</time>
      </trkpt>
      <trkpt lat="43.16888333" lon="-4.281575">
        <ele>491.0</ele>
        <time>2018-05-19T15:39:53.477Z</time>
      </trkpt>
      <trkpt lat="43.16888333" lon="-4.281575">
        <ele>491.0</ele>
        <time>2018-05-19T15:39:54.469Z</time>
      </trkpt>
      <trkpt lat="43.1689" lon="-4.281625">
        <ele>491.0</ele>
        <time>2018-05-19T15:39:55.471Z</time>
      </trkpt>
      <trkpt lat="43.16891167" lon="-4.28165333">
        <ele>491.0</ele>
        <time>2018-05-19T15:39:56.472Z</time>
      </trkpt>
      <trkpt lat="43.16891167" lon="-4.28165333">
        <ele>491.0</ele>
        <time>2018-05-19T15:39:57.480Z</time>
      </trkpt>
      <trkpt lat="43.16892833" lon="-4.28171333">
        <ele>491.0</ele>
        <time>2018-05-19T15:39:58.472Z</time>
      </trkpt>
      <trkpt lat="43.16892833" lon="-4.28171333">
        <ele>491.0</ele>
        <time>2018-05-19T15:39:59.467Z</time>
      </trkpt>
      <trkpt lat="43.16893833" lon="-4.28176333">
        <ele>491.0</ele>
        <time>2018-05-19T15:40:00.469Z</time>
      </trkpt>
      <trkpt lat="43.16893833" lon="-4.28176333">
        <ele>491.0</ele>
        <time>2018-05-19T15:40:01.466Z</time>
      </trkpt>
      <trkpt lat="43.16894833" lon="-4.28181333">
        <ele>492.0</ele>
        <time>2018-05-19T15:40:02.473Z</time>
      </trkpt>
      <trkpt lat="43.16894833" lon="-4.28181333">
        <ele>492.0</ele>
        <time>2018-05-19T15:40:03.468Z</time>
      </trkpt>
      <trkpt lat="43.16895833" lon="-4.28186333">
        <ele>492.0</ele>
        <time>2018-05-19T15:40:04.471Z</time>
      </trkpt>
      <trkpt lat="43.16895667" lon="-4.28188667">
        <ele>492.0</ele>
        <time>2018-05-19T15:40:05.470Z</time>
      </trkpt>
      <trkpt lat="43.16895167" lon="-4.28190833">
        <ele>492.0</ele>
        <time>2018-05-19T15:40:06.474Z</time>
      </trkpt>
      <trkpt lat="43.16895167" lon="-4.28190833">
        <ele>492.0</ele>
        <time>2018-05-19T15:40:07.480Z</time>
      </trkpt>
      <trkpt lat="43.168935" lon="-4.281965">
        <ele>493.0</ele>
        <time>2018-05-19T15:40:08.471Z</time>
      </trkpt>
      <trkpt lat="43.16893333" lon="-4.28199167">
        <ele>494.0</ele>
        <time>2018-05-19T15:40:09.470Z</time>
      </trkpt>
      <trkpt lat="43.16893167" lon="-4.28201833">
        <ele>494.0</ele>
        <time>2018-05-19T15:40:10.471Z</time>
      </trkpt>
      <trkpt lat="43.16893167" lon="-4.28201833">
        <ele>494.0</ele>
        <time>2018-05-19T15:40:11.467Z</time>
      </trkpt>
      <trkpt lat="43.16893" lon="-4.28206833">
        <ele>494.0</ele>
        <time>2018-05-19T15:40:12.469Z</time>
      </trkpt>
      <trkpt lat="43.16893" lon="-4.28206833">
        <ele>494.0</ele>
        <time>2018-05-19T15:40:13.468Z</time>
      </trkpt>
      <trkpt lat="43.16893833" lon="-4.28212">
        <ele>495.0</ele>
        <time>2018-05-19T15:40:14.452Z</time>
      </trkpt>
      <trkpt lat="43.16894667" lon="-4.28214833">
        <ele>495.0</ele>
        <time>2018-05-19T15:40:15.481Z</time>
      </trkpt>
      <trkpt lat="43.16896167" lon="-4.28217167">
        <ele>494.0</ele>
        <time>2018-05-19T15:40:16.480Z</time>
      </trkpt>
      <trkpt lat="43.16896167" lon="-4.28217167">
        <ele>494.0</ele>
        <time>2018-05-19T15:40:17.477Z</time>
      </trkpt>
      <trkpt lat="43.168985" lon="-4.28221167">
        <ele>495.0</ele>
        <time>2018-05-19T15:40:18.469Z</time>
      </trkpt>
      <trkpt lat="43.168985" lon="-4.28221167">
        <ele>495.0</ele>
        <time>2018-05-19T15:40:19.466Z</time>
      </trkpt>
      <trkpt lat="43.16901833" lon="-4.282245">
        <ele>495.0</ele>
        <time>2018-05-19T15:40:20.473Z</time>
      </trkpt>
      <trkpt lat="43.16901833" lon="-4.282245">
        <ele>495.0</ele>
        <time>2018-05-19T15:40:21.468Z</time>
      </trkpt>
      <trkpt lat="43.16905" lon="-4.28228833">
        <ele>495.0</ele>
        <time>2018-05-19T15:40:22.471Z</time>
      </trkpt>
      <trkpt lat="43.16905" lon="-4.28228833">
        <ele>495.0</ele>
        <time>2018-05-19T15:40:23.469Z</time>
      </trkpt>
      <trkpt lat="43.16907333" lon="-4.28234333">
        <ele>495.0</ele>
        <time>2018-05-19T15:40:24.480Z</time>
      </trkpt>
      <trkpt lat="43.16907333" lon="-4.28234333">
        <ele>495.0</ele>
        <time>2018-05-19T15:40:25.467Z</time>
      </trkpt>
      <trkpt lat="43.16909167" lon="-4.28239167">
        <ele>495.0</ele>
        <time>2018-05-19T15:40:26.472Z</time>
      </trkpt>
      <trkpt lat="43.16909167" lon="-4.28239167">
        <ele>495.0</ele>
        <time>2018-05-19T15:40:27.480Z</time>
      </trkpt>
      <trkpt lat="43.16911667" lon="-4.28245333">
        <ele>495.0</ele>
        <time>2018-05-19T15:40:28.467Z</time>
      </trkpt>
      <trkpt lat="43.16913" lon="-4.28247667">
        <ele>495.0</ele>
        <time>2018-05-19T15:40:29.471Z</time>
      </trkpt>
      <trkpt lat="43.16914667" lon="-4.28250667">
        <ele>495.0</ele>
        <time>2018-05-19T15:40:30.473Z</time>
      </trkpt>
      <trkpt lat="43.16914667" lon="-4.28250667">
        <ele>495.0</ele>
        <time>2018-05-19T15:40:31.468Z</time>
      </trkpt>
      <trkpt lat="43.16917833" lon="-4.282555">
        <ele>495.0</ele>
        <time>2018-05-19T15:40:32.472Z</time>
      </trkpt>
      <trkpt lat="43.16917833" lon="-4.282555">
        <ele>495.0</ele>
        <time>2018-05-19T15:40:33.468Z</time>
      </trkpt>
      <trkpt lat="43.16922833" lon="-4.28260333">
        <ele>494.0</ele>
        <time>2018-05-19T15:40:34.468Z</time>
      </trkpt>
      <trkpt lat="43.16925333" lon="-4.282635">
        <ele>494.0</ele>
        <time>2018-05-19T15:40:35.471Z</time>
      </trkpt>
      <trkpt lat="43.16925333" lon="-4.282635">
        <ele>494.0</ele>
        <time>2018-05-19T15:40:36.469Z</time>
      </trkpt>
      <trkpt lat="43.16931" lon="-4.28269833">
        <ele>494.0</ele>
        <time>2018-05-19T15:40:37.475Z</time>
      </trkpt>
      <trkpt lat="43.16931" lon="-4.28269833">
        <ele>494.0</ele>
        <time>2018-05-19T15:40:38.480Z</time>
      </trkpt>
      <trkpt lat="43.16936333" lon="-4.28276167">
        <ele>494.0</ele>
        <time>2018-05-19T15:40:39.471Z</time>
      </trkpt>
      <trkpt lat="43.16939" lon="-4.282785">
        <ele>494.0</ele>
        <time>2018-05-19T15:40:40.472Z</time>
      </trkpt>
      <trkpt lat="43.16939" lon="-4.282785">
        <ele>494.0</ele>
        <time>2018-05-19T15:40:41.468Z</time>
      </trkpt>
      <trkpt lat="43.16944167" lon="-4.28282167">
        <ele>494.0</ele>
        <time>2018-05-19T15:40:42.472Z</time>
      </trkpt>
      <trkpt lat="43.16944167" lon="-4.28282167">
        <ele>494.0</ele>
        <time>2018-05-19T15:40:43.465Z</time>
      </trkpt>
      <trkpt lat="43.169515" lon="-4.28289167">
        <ele>494.0</ele>
        <time>2018-05-19T15:40:44.471Z</time>
      </trkpt>
      <trkpt lat="43.169515" lon="-4.28289167">
        <ele>494.0</ele>
        <time>2018-05-19T15:40:45.468Z</time>
      </trkpt>
      <trkpt lat="43.16962333" lon="-4.28295333">
        <ele>494.0</ele>
        <time>2018-05-19T15:40:46.471Z</time>
      </trkpt>
      <trkpt lat="43.16962333" lon="-4.28295333">
        <ele>494.0</ele>
        <time>2018-05-19T15:40:47.473Z</time>
      </trkpt>
      <trkpt lat="43.16974167" lon="-4.28299833">
        <ele>494.0</ele>
        <time>2018-05-19T15:40:48.449Z</time>
      </trkpt>
      <trkpt lat="43.16974167" lon="-4.28299833">
        <ele>494.0</ele>
        <time>2018-05-19T15:40:49.449Z</time>
      </trkpt>
      <trkpt lat="43.16983833" lon="-4.28303167">
        <ele>494.0</ele>
        <time>2018-05-19T15:40:50.478Z</time>
      </trkpt>
      <trkpt lat="43.16983833" lon="-4.28303167">
        <ele>494.0</ele>
        <time>2018-05-19T15:40:51.466Z</time>
      </trkpt>
      <trkpt lat="43.16992167" lon="-4.28306667">
        <ele>494.0</ele>
        <time>2018-05-19T15:40:52.471Z</time>
      </trkpt>
      <trkpt lat="43.16992167" lon="-4.28306667">
        <ele>494.0</ele>
        <time>2018-05-19T15:40:53.471Z</time>
      </trkpt>
      <trkpt lat="43.16999333" lon="-4.28310167">
        <ele>494.0</ele>
        <time>2018-05-19T15:40:54.472Z</time>
      </trkpt>
      <trkpt lat="43.16999333" lon="-4.28310167">
        <ele>494.0</ele>
        <time>2018-05-19T15:40:55.465Z</time>
      </trkpt>
      <trkpt lat="43.170065" lon="-4.28317167">
        <ele>494.0</ele>
        <time>2018-05-19T15:40:56.471Z</time>
      </trkpt>
      <trkpt lat="43.170065" lon="-4.28317167">
        <ele>494.0</ele>
        <time>2018-05-19T15:40:57.479Z</time>
      </trkpt>
      <trkpt lat="43.17010667" lon="-4.28324333">
        <ele>494.0</ele>
        <time>2018-05-19T15:40:58.475Z</time>
      </trkpt>
      <trkpt lat="43.17010667" lon="-4.28324333">
        <ele>494.0</ele>
        <time>2018-05-19T15:40:59.467Z</time>
      </trkpt>
      <trkpt lat="43.17017333" lon="-4.28332">
        <ele>494.0</ele>
        <time>2018-05-19T15:41:00.473Z</time>
      </trkpt>
      <trkpt lat="43.17017333" lon="-4.28332">
        <ele>494.0</ele>
        <time>2018-05-19T15:41:01.469Z</time>
      </trkpt>
      <trkpt lat="43.17021833" lon="-4.283455">
        <ele>493.0</ele>
        <time>2018-05-19T15:41:02.472Z</time>
      </trkpt>
      <trkpt lat="43.17021833" lon="-4.283455">
        <ele>493.0</ele>
        <time>2018-05-19T15:41:03.468Z</time>
      </trkpt>
      <trkpt lat="43.17026" lon="-4.283615">
        <ele>492.0</ele>
        <time>2018-05-19T15:41:04.472Z</time>
      </trkpt>
      <trkpt lat="43.17026" lon="-4.283615">
        <ele>492.0</ele>
        <time>2018-05-19T15:41:05.468Z</time>
      </trkpt>
      <trkpt lat="43.17032167" lon="-4.283785">
        <ele>492.0</ele>
        <time>2018-05-19T15:41:06.472Z</time>
      </trkpt>
      <trkpt lat="43.17032167" lon="-4.283785">
        <ele>492.0</ele>
        <time>2018-05-19T15:41:07.476Z</time>
      </trkpt>
      <trkpt lat="43.17040667" lon="-4.28391833">
        <ele>491.0</ele>
        <time>2018-05-19T15:41:08.473Z</time>
      </trkpt>
      <trkpt lat="43.17040667" lon="-4.28391833">
        <ele>491.0</ele>
        <time>2018-05-19T15:41:09.464Z</time>
      </trkpt>
      <trkpt lat="43.17048167" lon="-4.28400167">
        <ele>491.0</ele>
        <time>2018-05-19T15:41:10.470Z</time>
      </trkpt>
      <trkpt lat="43.17048167" lon="-4.28400167">
        <ele>491.0</ele>
        <time>2018-05-19T15:41:11.468Z</time>
      </trkpt>
      <trkpt lat="43.17053" lon="-4.28407">
        <ele>491.0</ele>
        <time>2018-05-19T15:41:12.469Z</time>
      </trkpt>
      <trkpt lat="43.17053" lon="-4.28407">
        <ele>491.0</ele>
        <time>2018-05-19T15:41:13.465Z</time>
      </trkpt>
      <trkpt lat="43.170565" lon="-4.28413333">
        <ele>491.0</ele>
        <time>2018-05-19T15:41:14.471Z</time>
      </trkpt>
      <trkpt lat="43.170565" lon="-4.28413333">
        <ele>491.0</ele>
        <time>2018-05-19T15:41:15.468Z</time>
      </trkpt>
      <trkpt lat="43.17059833" lon="-4.28419667">
        <ele>491.0</ele>
        <time>2018-05-19T15:41:16.470Z</time>
      </trkpt>
      <trkpt lat="43.17059833" lon="-4.28419667">
        <ele>491.0</ele>
        <time>2018-05-19T15:41:17.472Z</time>
      </trkpt>
      <trkpt lat="43.17062333" lon="-4.28425833">
        <ele>491.0</ele>
        <time>2018-05-19T15:41:18.481Z</time>
      </trkpt>
      <trkpt lat="43.17062333" lon="-4.28425833">
        <ele>491.0</ele>
        <time>2018-05-19T15:41:19.468Z</time>
      </trkpt>
      <trkpt lat="43.17065" lon="-4.28431167">
        <ele>491.0</ele>
        <time>2018-05-19T15:41:20.471Z</time>
      </trkpt>
      <trkpt lat="43.17065" lon="-4.28431167">
        <ele>491.0</ele>
        <time>2018-05-19T15:41:21.469Z</time>
      </trkpt>
      <trkpt lat="43.17069" lon="-4.28436">
        <ele>491.0</ele>
        <time>2018-05-19T15:41:22.471Z</time>
      </trkpt>
      <trkpt lat="43.17070667" lon="-4.28438167">
        <ele>491.0</ele>
        <time>2018-05-19T15:41:23.481Z</time>
      </trkpt>
      <trkpt lat="43.17070667" lon="-4.28438167">
        <ele>491.0</ele>
        <time>2018-05-19T15:41:24.480Z</time>
      </trkpt>
      <trkpt lat="43.17074167" lon="-4.28441833">
        <ele>492.0</ele>
        <time>2018-05-19T15:41:25.470Z</time>
      </trkpt>
      <trkpt lat="43.17076" lon="-4.28444">
        <ele>492.0</ele>
        <time>2018-05-19T15:41:26.468Z</time>
      </trkpt>
      <trkpt lat="43.17076" lon="-4.28444">
        <ele>492.0</ele>
        <time>2018-05-19T15:41:27.477Z</time>
      </trkpt>
      <trkpt lat="43.17079833" lon="-4.284475">
        <ele>493.0</ele>
        <time>2018-05-19T15:41:28.479Z</time>
      </trkpt>
      <trkpt lat="43.17079833" lon="-4.284475">
        <ele>493.0</ele>
        <time>2018-05-19T15:41:29.465Z</time>
      </trkpt>
      <trkpt lat="43.17084667" lon="-4.284495">
        <ele>493.0</ele>
        <time>2018-05-19T15:41:30.471Z</time>
      </trkpt>
      <trkpt lat="43.17084667" lon="-4.284495">
        <ele>493.0</ele>
        <time>2018-05-19T15:41:31.468Z</time>
      </trkpt>
      <trkpt lat="43.17088833" lon="-4.28452333">
        <ele>494.0</ele>
        <time>2018-05-19T15:41:32.471Z</time>
      </trkpt>
      <trkpt lat="43.17088833" lon="-4.28452333">
        <ele>494.0</ele>
        <time>2018-05-19T15:41:33.465Z</time>
      </trkpt>
      <trkpt lat="43.17092333" lon="-4.28455167">
        <ele>494.0</ele>
        <time>2018-05-19T15:41:34.483Z</time>
      </trkpt>
      <trkpt lat="43.17093833" lon="-4.28456833">
        <ele>495.0</ele>
        <time>2018-05-19T15:41:35.471Z</time>
      </trkpt>
      <trkpt lat="43.17095333" lon="-4.28458833">
        <ele>495.0</ele>
        <time>2018-05-19T15:41:36.472Z</time>
      </trkpt>
      <trkpt lat="43.17095333" lon="-4.28458833">
        <ele>495.0</ele>
        <time>2018-05-19T15:41:37.473Z</time>
      </trkpt>
      <trkpt lat="43.17098167" lon="-4.28462">
        <ele>496.0</ele>
        <time>2018-05-19T15:41:38.477Z</time>
      </trkpt>
      <trkpt lat="43.17098167" lon="-4.28462">
        <ele>496.0</ele>
        <time>2018-05-19T15:41:39.478Z</time>
      </trkpt>
      <trkpt lat="43.171005" lon="-4.28465333">
        <ele>496.0</ele>
        <time>2018-05-19T15:41:40.471Z</time>
      </trkpt>
      <trkpt lat="43.171005" lon="-4.28465333">
        <ele>496.0</ele>
        <time>2018-05-19T15:41:41.468Z</time>
      </trkpt>
      <trkpt lat="43.171035" lon="-4.284685">
        <ele>497.0</ele>
        <time>2018-05-19T15:41:42.472Z</time>
      </trkpt>
      <trkpt lat="43.171035" lon="-4.284685">
        <ele>497.0</ele>
        <time>2018-05-19T15:41:43.468Z</time>
      </trkpt>
      <trkpt lat="43.17106667" lon="-4.28471333">
        <ele>497.0</ele>
        <time>2018-05-19T15:41:44.471Z</time>
      </trkpt>
      <trkpt lat="43.17106667" lon="-4.28471333">
        <ele>497.0</ele>
        <time>2018-05-19T15:41:45.468Z</time>
      </trkpt>
      <trkpt lat="43.17110333" lon="-4.28473">
        <ele>498.0</ele>
        <time>2018-05-19T15:41:46.467Z</time>
      </trkpt>
      <trkpt lat="43.17110333" lon="-4.28473">
        <ele>498.0</ele>
        <time>2018-05-19T15:41:47.465Z</time>
      </trkpt>
      <trkpt lat="43.17114167" lon="-4.28475167">
        <ele>498.0</ele>
        <time>2018-05-19T15:41:48.449Z</time>
      </trkpt>
      <trkpt lat="43.17114167" lon="-4.28475167">
        <ele>498.0</ele>
        <time>2018-05-19T15:41:49.450Z</time>
      </trkpt>
      <trkpt lat="43.17117333" lon="-4.284785">
        <ele>499.0</ele>
        <time>2018-05-19T15:41:50.478Z</time>
      </trkpt>
      <trkpt lat="43.17117333" lon="-4.284785">
        <ele>499.0</ele>
        <time>2018-05-19T15:41:51.464Z</time>
      </trkpt>
      <trkpt lat="43.171205" lon="-4.28481833">
        <ele>499.0</ele>
        <time>2018-05-19T15:41:52.471Z</time>
      </trkpt>
      <trkpt lat="43.171205" lon="-4.28481833">
        <ele>499.0</ele>
        <time>2018-05-19T15:41:53.468Z</time>
      </trkpt>
      <trkpt lat="43.17124" lon="-4.28484">
        <ele>499.0</ele>
        <time>2018-05-19T15:41:54.453Z</time>
      </trkpt>
      <trkpt lat="43.17124" lon="-4.28484">
        <ele>499.0</ele>
        <time>2018-05-19T15:41:55.487Z</time>
      </trkpt>
      <trkpt lat="43.17127833" lon="-4.28485333">
        <ele>500.0</ele>
        <time>2018-05-19T15:41:56.474Z</time>
      </trkpt>
      <trkpt lat="43.17127833" lon="-4.28485333">
        <ele>500.0</ele>
        <time>2018-05-19T15:41:57.482Z</time>
      </trkpt>
      <trkpt lat="43.17131833" lon="-4.28486833">
        <ele>500.0</ele>
        <time>2018-05-19T15:41:58.471Z</time>
      </trkpt>
      <trkpt lat="43.17131833" lon="-4.28486833">
        <ele>500.0</ele>
        <time>2018-05-19T15:41:59.468Z</time>
      </trkpt>
      <trkpt lat="43.17136333" lon="-4.28488667">
        <ele>500.0</ele>
        <time>2018-05-19T15:42:00.472Z</time>
      </trkpt>
      <trkpt lat="43.17136333" lon="-4.28488667">
        <ele>500.0</ele>
        <time>2018-05-19T15:42:01.468Z</time>
      </trkpt>
      <trkpt lat="43.17140833" lon="-4.284925">
        <ele>501.0</ele>
        <time>2018-05-19T15:42:02.471Z</time>
      </trkpt>
      <trkpt lat="43.17140833" lon="-4.284925">
        <ele>501.0</ele>
        <time>2018-05-19T15:42:03.468Z</time>
      </trkpt>
      <trkpt lat="43.17144667" lon="-4.284985">
        <ele>501.0</ele>
        <time>2018-05-19T15:42:04.470Z</time>
      </trkpt>
      <trkpt lat="43.17146167" lon="-4.28502">
        <ele>501.0</ele>
        <time>2018-05-19T15:42:05.469Z</time>
      </trkpt>
      <trkpt lat="43.17148" lon="-4.28504667">
        <ele>501.0</ele>
        <time>2018-05-19T15:42:06.472Z</time>
      </trkpt>
      <trkpt lat="43.17148" lon="-4.28504667">
        <ele>501.0</ele>
        <time>2018-05-19T15:42:07.476Z</time>
      </trkpt>
      <trkpt lat="43.17151833" lon="-4.28512167">
        <ele>501.0</ele>
        <time>2018-05-19T15:42:08.472Z</time>
      </trkpt>
      <trkpt lat="43.17151833" lon="-4.28512167">
        <ele>501.0</ele>
        <time>2018-05-19T15:42:09.465Z</time>
      </trkpt>
      <trkpt lat="43.171555" lon="-4.2852">
        <ele>501.0</ele>
        <time>2018-05-19T15:42:10.471Z</time>
      </trkpt>
      <trkpt lat="43.171555" lon="-4.2852">
        <ele>501.0</ele>
        <time>2018-05-19T15:42:11.468Z</time>
      </trkpt>
      <trkpt lat="43.171585" lon="-4.28527333">
        <ele>501.0</ele>
        <time>2018-05-19T15:42:12.472Z</time>
      </trkpt>
      <trkpt lat="43.171585" lon="-4.28527333">
        <ele>501.0</ele>
        <time>2018-05-19T15:42:13.466Z</time>
      </trkpt>
      <trkpt lat="43.17160833" lon="-4.28535">
        <ele>502.0</ele>
        <time>2018-05-19T15:42:14.468Z</time>
      </trkpt>
      <trkpt lat="43.17160833" lon="-4.28535">
        <ele>502.0</ele>
        <time>2018-05-19T15:42:15.468Z</time>
      </trkpt>
      <trkpt lat="43.171625" lon="-4.285435">
        <ele>502.0</ele>
        <time>2018-05-19T15:42:16.471Z</time>
      </trkpt>
      <trkpt lat="43.171625" lon="-4.285435">
        <ele>502.0</ele>
        <time>2018-05-19T15:42:17.472Z</time>
      </trkpt>
      <trkpt lat="43.17164833" lon="-4.28553">
        <ele>502.0</ele>
        <time>2018-05-19T15:42:18.471Z</time>
      </trkpt>
      <trkpt lat="43.17164833" lon="-4.28553">
        <ele>502.0</ele>
        <time>2018-05-19T15:42:19.464Z</time>
      </trkpt>
      <trkpt lat="43.17168" lon="-4.28562333">
        <ele>502.0</ele>
        <time>2018-05-19T15:42:20.470Z</time>
      </trkpt>
      <trkpt lat="43.17168" lon="-4.28562333">
        <ele>502.0</ele>
        <time>2018-05-19T15:42:21.468Z</time>
      </trkpt>
      <trkpt lat="43.17172" lon="-4.28571833">
        <ele>503.0</ele>
        <time>2018-05-19T15:42:22.468Z</time>
      </trkpt>
      <trkpt lat="43.17174333" lon="-4.28576">
        <ele>503.0</ele>
        <time>2018-05-19T15:42:23.470Z</time>
      </trkpt>
      <trkpt lat="43.17174333" lon="-4.28576">
        <ele>503.0</ele>
        <time>2018-05-19T15:42:24.479Z</time>
      </trkpt>
      <trkpt lat="43.17179" lon="-4.28583667">
        <ele>504.0</ele>
        <time>2018-05-19T15:42:25.471Z</time>
      </trkpt>
      <trkpt lat="43.17181667" lon="-4.28586833">
        <ele>504.0</ele>
        <time>2018-05-19T15:42:26.468Z</time>
      </trkpt>
      <trkpt lat="43.17181667" lon="-4.28586833">
        <ele>504.0</ele>
        <time>2018-05-19T15:42:27.476Z</time>
      </trkpt>
      <trkpt lat="43.17187" lon="-4.285925">
        <ele>504.0</ele>
        <time>2018-05-19T15:42:28.471Z</time>
      </trkpt>
      <trkpt lat="43.17187" lon="-4.285925">
        <ele>504.0</ele>
        <time>2018-05-19T15:42:29.475Z</time>
      </trkpt>
      <trkpt lat="43.17193667" lon="-4.28597">
        <ele>504.0</ele>
        <time>2018-05-19T15:42:30.471Z</time>
      </trkpt>
      <trkpt lat="43.17193667" lon="-4.28597">
        <ele>504.0</ele>
        <time>2018-05-19T15:42:31.468Z</time>
      </trkpt>
      <trkpt lat="43.17202167" lon="-4.28601833">
        <ele>504.0</ele>
        <time>2018-05-19T15:42:32.468Z</time>
      </trkpt>
      <trkpt lat="43.17202167" lon="-4.28601833">
        <ele>504.0</ele>
        <time>2018-05-19T15:42:33.467Z</time>
      </trkpt>
      <trkpt lat="43.17211667" lon="-4.28606667">
        <ele>503.0</ele>
        <time>2018-05-19T15:42:34.482Z</time>
      </trkpt>
      <trkpt lat="43.17211667" lon="-4.28606667">
        <ele>503.0</ele>
        <time>2018-05-19T15:42:35.470Z</time>
      </trkpt>
      <trkpt lat="43.17222" lon="-4.28611833">
        <ele>502.0</ele>
        <time>2018-05-19T15:42:36.471Z</time>
      </trkpt>
      <trkpt lat="43.17222" lon="-4.28611833">
        <ele>502.0</ele>
        <time>2018-05-19T15:42:37.473Z</time>
      </trkpt>
      <trkpt lat="43.17232667" lon="-4.28614667">
        <ele>502.0</ele>
        <time>2018-05-19T15:42:38.471Z</time>
      </trkpt>
      <trkpt lat="43.17232667" lon="-4.28614667">
        <ele>502.0</ele>
        <time>2018-05-19T15:42:39.470Z</time>
      </trkpt>
      <trkpt lat="43.17242667" lon="-4.28616667">
        <ele>501.0</ele>
        <time>2018-05-19T15:42:40.471Z</time>
      </trkpt>
      <trkpt lat="43.17242667" lon="-4.28616667">
        <ele>501.0</ele>
        <time>2018-05-19T15:42:41.468Z</time>
      </trkpt>
      <trkpt lat="43.17251833" lon="-4.28621833">
        <ele>500.0</ele>
        <time>2018-05-19T15:42:42.472Z</time>
      </trkpt>
      <trkpt lat="43.17251833" lon="-4.28621833">
        <ele>500.0</ele>
        <time>2018-05-19T15:42:43.467Z</time>
      </trkpt>
      <trkpt lat="43.17260167" lon="-4.28631167">
        <ele>500.0</ele>
        <time>2018-05-19T15:42:44.470Z</time>
      </trkpt>
      <trkpt lat="43.17260167" lon="-4.28631167">
        <ele>500.0</ele>
        <time>2018-05-19T15:42:45.468Z</time>
      </trkpt>
      <trkpt lat="43.17267333" lon="-4.28644">
        <ele>499.0</ele>
        <time>2018-05-19T15:42:46.470Z</time>
      </trkpt>
      <trkpt lat="43.17267333" lon="-4.28644">
        <ele>499.0</ele>
        <time>2018-05-19T15:42:47.465Z</time>
      </trkpt>
      <trkpt lat="43.17275167" lon="-4.28657">
        <ele>499.0</ele>
        <time>2018-05-19T15:42:48.471Z</time>
      </trkpt>
      <trkpt lat="43.17275167" lon="-4.28657">
        <ele>499.0</ele>
        <time>2018-05-19T15:42:49.473Z</time>
      </trkpt>
      <trkpt lat="43.17283" lon="-4.286665">
        <ele>499.0</ele>
        <time>2018-05-19T15:42:50.471Z</time>
      </trkpt>
      <trkpt lat="43.17283" lon="-4.286665">
        <ele>499.0</ele>
        <time>2018-05-19T15:42:51.464Z</time>
      </trkpt>
      <trkpt lat="43.172885" lon="-4.28674833">
        <ele>499.0</ele>
        <time>2018-05-19T15:42:52.471Z</time>
      </trkpt>
      <trkpt lat="43.172885" lon="-4.28674833">
        <ele>499.0</ele>
        <time>2018-05-19T15:42:53.467Z</time>
      </trkpt>
      <trkpt lat="43.17291167" lon="-4.28684333">
        <ele>498.0</ele>
        <time>2018-05-19T15:42:54.452Z</time>
      </trkpt>
      <trkpt lat="43.17291167" lon="-4.28684333">
        <ele>498.0</ele>
        <time>2018-05-19T15:42:55.487Z</time>
      </trkpt>
      <trkpt lat="43.17294" lon="-4.28694167">
        <ele>498.0</ele>
        <time>2018-05-19T15:42:56.474Z</time>
      </trkpt>
      <trkpt lat="43.17294" lon="-4.28694167">
        <ele>498.0</ele>
        <time>2018-05-19T15:42:57.480Z</time>
      </trkpt>
      <trkpt lat="43.17298" lon="-4.28704">
        <ele>498.0</ele>
        <time>2018-05-19T15:42:58.471Z</time>
      </trkpt>
      <trkpt lat="43.17298" lon="-4.28704">
        <ele>498.0</ele>
        <time>2018-05-19T15:42:59.470Z</time>
      </trkpt>
      <trkpt lat="43.173035" lon="-4.287115">
        <ele>498.0</ele>
        <time>2018-05-19T15:43:00.448Z</time>
      </trkpt>
      <trkpt lat="43.173035" lon="-4.287115">
        <ele>498.0</ele>
        <time>2018-05-19T15:43:01.471Z</time>
      </trkpt>
      <trkpt lat="43.17308" lon="-4.28719167">
        <ele>497.0</ele>
        <time>2018-05-19T15:43:02.485Z</time>
      </trkpt>
      <trkpt lat="43.17308" lon="-4.28719167">
        <ele>497.0</ele>
        <time>2018-05-19T15:43:03.469Z</time>
      </trkpt>
      <trkpt lat="43.17313" lon="-4.28728333">
        <ele>497.0</ele>
        <time>2018-05-19T15:43:04.475Z</time>
      </trkpt>
      <trkpt lat="43.17313" lon="-4.28728333">
        <ele>497.0</ele>
        <time>2018-05-19T15:43:05.468Z</time>
      </trkpt>
      <trkpt lat="43.173175" lon="-4.28736333">
        <ele>498.0</ele>
        <time>2018-05-19T15:43:06.477Z</time>
      </trkpt>
      <trkpt lat="43.173175" lon="-4.28736333">
        <ele>498.0</ele>
        <time>2018-05-19T15:43:07.472Z</time>
      </trkpt>
      <trkpt lat="43.17321" lon="-4.28744833">
        <ele>498.0</ele>
        <time>2018-05-19T15:43:08.482Z</time>
      </trkpt>
      <trkpt lat="43.17321" lon="-4.28744833">
        <ele>498.0</ele>
        <time>2018-05-19T15:43:09.471Z</time>
      </trkpt>
      <trkpt lat="43.17325333" lon="-4.28752167">
        <ele>499.0</ele>
        <time>2018-05-19T15:43:10.471Z</time>
      </trkpt>
      <trkpt lat="43.17327333" lon="-4.28755">
        <ele>500.0</ele>
        <time>2018-05-19T15:43:11.468Z</time>
      </trkpt>
      <trkpt lat="43.17329667" lon="-4.28757833">
        <ele>500.0</ele>
        <time>2018-05-19T15:43:12.469Z</time>
      </trkpt>
      <trkpt lat="43.17329667" lon="-4.28757833">
        <ele>500.0</ele>
        <time>2018-05-19T15:43:13.468Z</time>
      </trkpt>
      <trkpt lat="43.17334833" lon="-4.28763667">
        <ele>500.0</ele>
        <time>2018-05-19T15:43:14.471Z</time>
      </trkpt>
      <trkpt lat="43.17334833" lon="-4.28763667">
        <ele>500.0</ele>
        <time>2018-05-19T15:43:15.467Z</time>
      </trkpt>
      <trkpt lat="43.173405" lon="-4.2877">
        <ele>501.0</ele>
        <time>2018-05-19T15:43:16.469Z</time>
      </trkpt>
      <trkpt lat="43.17343167" lon="-4.28773167">
        <ele>501.0</ele>
        <time>2018-05-19T15:43:17.480Z</time>
      </trkpt>
      <trkpt lat="43.17343167" lon="-4.28773167">
        <ele>501.0</ele>
        <time>2018-05-19T15:43:18.467Z</time>
      </trkpt>
      <trkpt lat="43.17348667" lon="-4.28779167">
        <ele>501.0</ele>
        <time>2018-05-19T15:43:19.473Z</time>
      </trkpt>
      <trkpt lat="43.17351833" lon="-4.287825">
        <ele>501.0</ele>
        <time>2018-05-19T15:43:20.471Z</time>
      </trkpt>
      <trkpt lat="43.17351833" lon="-4.287825">
        <ele>501.0</ele>
        <time>2018-05-19T15:43:21.464Z</time>
      </trkpt>
      <trkpt lat="43.173575" lon="-4.28789167">
        <ele>501.0</ele>
        <time>2018-05-19T15:43:22.470Z</time>
      </trkpt>
      <trkpt lat="43.173575" lon="-4.28789167">
        <ele>501.0</ele>
        <time>2018-05-19T15:43:23.471Z</time>
      </trkpt>
      <trkpt lat="43.17362667" lon="-4.28796667">
        <ele>502.0</ele>
        <time>2018-05-19T15:43:24.475Z</time>
      </trkpt>
      <trkpt lat="43.17362667" lon="-4.28796667">
        <ele>502.0</ele>
        <time>2018-05-19T15:43:25.467Z</time>
      </trkpt>
      <trkpt lat="43.17368333" lon="-4.28803333">
        <ele>502.0</ele>
        <time>2018-05-19T15:43:26.471Z</time>
      </trkpt>
      <trkpt lat="43.17368333" lon="-4.28803333">
        <ele>502.0</ele>
        <time>2018-05-19T15:43:27.464Z</time>
      </trkpt>
      <trkpt lat="43.173745" lon="-4.28809833">
        <ele>502.0</ele>
        <time>2018-05-19T15:43:28.470Z</time>
      </trkpt>
      <trkpt lat="43.173745" lon="-4.28809833">
        <ele>502.0</ele>
        <time>2018-05-19T15:43:29.477Z</time>
      </trkpt>
      <trkpt lat="43.17381333" lon="-4.28817667">
        <ele>502.0</ele>
        <time>2018-05-19T15:43:30.472Z</time>
      </trkpt>
      <trkpt lat="43.17381333" lon="-4.28817667">
        <ele>502.0</ele>
        <time>2018-05-19T15:43:31.464Z</time>
      </trkpt>
      <trkpt lat="43.173885" lon="-4.28825833">
        <ele>502.0</ele>
        <time>2018-05-19T15:43:32.470Z</time>
      </trkpt>
      <trkpt lat="43.173885" lon="-4.28825833">
        <ele>502.0</ele>
        <time>2018-05-19T15:43:33.467Z</time>
      </trkpt>
      <trkpt lat="43.17396833" lon="-4.288335">
        <ele>501.0</ele>
        <time>2018-05-19T15:43:34.470Z</time>
      </trkpt>
      <trkpt lat="43.17396833" lon="-4.288335">
        <ele>501.0</ele>
        <time>2018-05-19T15:43:35.467Z</time>
      </trkpt>
      <trkpt lat="43.17406333" lon="-4.28841167">
        <ele>500.0</ele>
        <time>2018-05-19T15:43:36.472Z</time>
      </trkpt>
      <trkpt lat="43.17406333" lon="-4.28841167">
        <ele>500.0</ele>
        <time>2018-05-19T15:43:37.480Z</time>
      </trkpt>
      <trkpt lat="43.17416333" lon="-4.2885">
        <ele>500.0</ele>
        <time>2018-05-19T15:43:38.467Z</time>
      </trkpt>
      <trkpt lat="43.17416333" lon="-4.2885">
        <ele>500.0</ele>
        <time>2018-05-19T15:43:39.467Z</time>
      </trkpt>
      <trkpt lat="43.17425167" lon="-4.28859333">
        <ele>499.0</ele>
        <time>2018-05-19T15:43:40.467Z</time>
      </trkpt>
      <trkpt lat="43.17429833" lon="-4.28864167">
        <ele>499.0</ele>
        <time>2018-05-19T15:43:41.468Z</time>
      </trkpt>
      <trkpt lat="43.17429833" lon="-4.28864167">
        <ele>499.0</ele>
        <time>2018-05-19T15:43:42.468Z</time>
      </trkpt>
      <trkpt lat="43.17440333" lon="-4.28871667">
        <ele>499.0</ele>
        <time>2018-05-19T15:43:43.470Z</time>
      </trkpt>
      <trkpt lat="43.17440333" lon="-4.28871667">
        <ele>499.0</ele>
        <time>2018-05-19T15:43:44.468Z</time>
      </trkpt>
      <trkpt lat="43.174515" lon="-4.28875167">
        <ele>499.0</ele>
        <time>2018-05-19T15:43:45.470Z</time>
      </trkpt>
      <trkpt lat="43.174515" lon="-4.28875167">
        <ele>499.0</ele>
        <time>2018-05-19T15:43:46.469Z</time>
      </trkpt>
      <trkpt lat="43.17462333" lon="-4.28875167">
        <ele>499.0</ele>
        <time>2018-05-19T15:43:47.478Z</time>
      </trkpt>
      <trkpt lat="43.17462333" lon="-4.28875167">
        <ele>499.0</ele>
        <time>2018-05-19T15:43:48.469Z</time>
      </trkpt>
      <trkpt lat="43.17473833" lon="-4.28873833">
        <ele>499.0</ele>
        <time>2018-05-19T15:43:49.472Z</time>
      </trkpt>
      <trkpt lat="43.17473833" lon="-4.28873833">
        <ele>499.0</ele>
        <time>2018-05-19T15:43:50.464Z</time>
      </trkpt>
      <trkpt lat="43.17485333" lon="-4.28871">
        <ele>499.0</ele>
        <time>2018-05-19T15:43:51.469Z</time>
      </trkpt>
      <trkpt lat="43.17491" lon="-4.288695">
        <ele>499.0</ele>
        <time>2018-05-19T15:43:52.469Z</time>
      </trkpt>
      <trkpt lat="43.17491" lon="-4.288695">
        <ele>499.0</ele>
        <time>2018-05-19T15:43:53.467Z</time>
      </trkpt>
      <trkpt lat="43.175025" lon="-4.28866667">
        <ele>499.0</ele>
        <time>2018-05-19T15:43:54.472Z</time>
      </trkpt>
      <trkpt lat="43.175025" lon="-4.28866667">
        <ele>499.0</ele>
        <time>2018-05-19T15:43:55.466Z</time>
      </trkpt>
      <trkpt lat="43.17514" lon="-4.28864">
        <ele>499.0</ele>
        <time>2018-05-19T15:43:56.471Z</time>
      </trkpt>
      <trkpt lat="43.17514" lon="-4.28864">
        <ele>499.0</ele>
        <time>2018-05-19T15:43:57.473Z</time>
      </trkpt>
      <trkpt lat="43.17525833" lon="-4.288645">
        <ele>499.0</ele>
        <time>2018-05-19T15:43:58.469Z</time>
      </trkpt>
      <trkpt lat="43.17531833" lon="-4.28865833">
        <ele>499.0</ele>
        <time>2018-05-19T15:43:59.470Z</time>
      </trkpt>
      <trkpt lat="43.17531833" lon="-4.28865833">
        <ele>499.0</ele>
        <time>2018-05-19T15:44:00.469Z</time>
      </trkpt>
      <trkpt lat="43.175435" lon="-4.28868833">
        <ele>499.0</ele>
        <time>2018-05-19T15:44:01.479Z</time>
      </trkpt>
      <trkpt lat="43.17549667" lon="-4.28870333">
        <ele>498.0</ele>
        <time>2018-05-19T15:44:02.471Z</time>
      </trkpt>
      <trkpt lat="43.17549667" lon="-4.28870333">
        <ele>498.0</ele>
        <time>2018-05-19T15:44:03.464Z</time>
      </trkpt>
      <trkpt lat="43.17562167" lon="-4.288745">
        <ele>498.0</ele>
        <time>2018-05-19T15:44:04.469Z</time>
      </trkpt>
      <trkpt lat="43.17562167" lon="-4.288745">
        <ele>498.0</ele>
        <time>2018-05-19T15:44:05.467Z</time>
      </trkpt>
      <trkpt lat="43.17574667" lon="-4.28880333">
        <ele>497.0</ele>
        <time>2018-05-19T15:44:06.471Z</time>
      </trkpt>
      <trkpt lat="43.17574667" lon="-4.28880333">
        <ele>497.0</ele>
        <time>2018-05-19T15:44:07.465Z</time>
      </trkpt>
      <trkpt lat="43.17587" lon="-4.288865">
        <ele>497.0</ele>
        <time>2018-05-19T15:44:08.471Z</time>
      </trkpt>
      <trkpt lat="43.17587" lon="-4.288865">
        <ele>497.0</ele>
        <time>2018-05-19T15:44:09.468Z</time>
      </trkpt>
      <trkpt lat="43.17599333" lon="-4.28892167">
        <ele>496.0</ele>
        <time>2018-05-19T15:44:10.465Z</time>
      </trkpt>
      <trkpt lat="43.17605833" lon="-4.28894">
        <ele>496.0</ele>
        <time>2018-05-19T15:44:11.469Z</time>
      </trkpt>
      <trkpt lat="43.17612333" lon="-4.28895">
        <ele>496.0</ele>
        <time>2018-05-19T15:44:12.472Z</time>
      </trkpt>
      <trkpt lat="43.17612333" lon="-4.28895">
        <ele>496.0</ele>
        <time>2018-05-19T15:44:13.467Z</time>
      </trkpt>
      <trkpt lat="43.17625667" lon="-4.28895833">
        <ele>496.0</ele>
        <time>2018-05-19T15:44:14.470Z</time>
      </trkpt>
      <trkpt lat="43.17625667" lon="-4.28895833">
        <ele>496.0</ele>
        <time>2018-05-19T15:44:15.467Z</time>
      </trkpt>
      <trkpt lat="43.17639667" lon="-4.28896333">
        <ele>496.0</ele>
        <time>2018-05-19T15:44:16.451Z</time>
      </trkpt>
      <trkpt lat="43.17647167" lon="-4.28897167">
        <ele>495.0</ele>
        <time>2018-05-19T15:44:17.477Z</time>
      </trkpt>
      <trkpt lat="43.17647167" lon="-4.28897167">
        <ele>495.0</ele>
        <time>2018-05-19T15:44:18.467Z</time>
      </trkpt>
      <trkpt lat="43.17661833" lon="-4.28898833">
        <ele>495.0</ele>
        <time>2018-05-19T15:44:19.469Z</time>
      </trkpt>
      <trkpt lat="43.17661833" lon="-4.28898833">
        <ele>495.0</ele>
        <time>2018-05-19T15:44:20.450Z</time>
      </trkpt>
      <trkpt lat="43.17676" lon="-4.28901">
        <ele>495.0</ele>
        <time>2018-05-19T15:44:21.476Z</time>
      </trkpt>
      <trkpt lat="43.17676" lon="-4.28901">
        <ele>495.0</ele>
        <time>2018-05-19T15:44:22.467Z</time>
      </trkpt>
      <trkpt lat="43.17689333" lon="-4.28904667">
        <ele>494.0</ele>
        <time>2018-05-19T15:44:23.472Z</time>
      </trkpt>
      <trkpt lat="43.17696167" lon="-4.28906167">
        <ele>494.0</ele>
        <time>2018-05-19T15:44:24.478Z</time>
      </trkpt>
      <trkpt lat="43.17696167" lon="-4.28906167">
        <ele>494.0</ele>
        <time>2018-05-19T15:44:25.468Z</time>
      </trkpt>
      <trkpt lat="43.17709167" lon="-4.28906667">
        <ele>494.0</ele>
        <time>2018-05-19T15:44:26.471Z</time>
      </trkpt>
      <trkpt lat="43.17709167" lon="-4.28906667">
        <ele>494.0</ele>
        <time>2018-05-19T15:44:27.464Z</time>
      </trkpt>
      <trkpt lat="43.17723" lon="-4.28911167">
        <ele>493.0</ele>
        <time>2018-05-19T15:44:28.470Z</time>
      </trkpt>
      <trkpt lat="43.17723" lon="-4.28911167">
        <ele>493.0</ele>
        <time>2018-05-19T15:44:29.469Z</time>
      </trkpt>
      <trkpt lat="43.17737" lon="-4.289165">
        <ele>493.0</ele>
        <time>2018-05-19T15:44:30.474Z</time>
      </trkpt>
      <trkpt lat="43.17737" lon="-4.289165">
        <ele>493.0</ele>
        <time>2018-05-19T15:44:31.466Z</time>
      </trkpt>
      <trkpt lat="43.177515" lon="-4.28918167">
        <ele>491.0</ele>
        <time>2018-05-19T15:44:32.468Z</time>
      </trkpt>
      <trkpt lat="43.177515" lon="-4.28918167">
        <ele>491.0</ele>
        <time>2018-05-19T15:44:33.467Z</time>
      </trkpt>
      <trkpt lat="43.17765833" lon="-4.28913833">
        <ele>491.0</ele>
        <time>2018-05-19T15:44:34.469Z</time>
      </trkpt>
      <trkpt lat="43.177735" lon="-4.28911333">
        <ele>490.0</ele>
        <time>2018-05-19T15:44:35.469Z</time>
      </trkpt>
      <trkpt lat="43.17780833" lon="-4.28908667">
        <ele>490.0</ele>
        <time>2018-05-19T15:44:36.471Z</time>
      </trkpt>
      <trkpt lat="43.17780833" lon="-4.28908667">
        <ele>490.0</ele>
        <time>2018-05-19T15:44:37.480Z</time>
      </trkpt>
      <trkpt lat="43.17796333" lon="-4.28905667">
        <ele>488.0</ele>
        <time>2018-05-19T15:44:38.469Z</time>
      </trkpt>
      <trkpt lat="43.17796333" lon="-4.28905667">
        <ele>488.0</ele>
        <time>2018-05-19T15:44:39.467Z</time>
      </trkpt>
      <trkpt lat="43.17812333" lon="-4.28904833">
        <ele>487.0</ele>
        <time>2018-05-19T15:44:40.467Z</time>
      </trkpt>
      <trkpt lat="43.17812333" lon="-4.28904833">
        <ele>487.0</ele>
        <time>2018-05-19T15:44:41.464Z</time>
      </trkpt>
      <trkpt lat="43.17828833" lon="-4.28907333">
        <ele>486.0</ele>
        <time>2018-05-19T15:44:42.471Z</time>
      </trkpt>
      <trkpt lat="43.17828833" lon="-4.28907333">
        <ele>486.0</ele>
        <time>2018-05-19T15:44:43.467Z</time>
      </trkpt>
      <trkpt lat="43.17844833" lon="-4.28914167">
        <ele>485.0</ele>
        <time>2018-05-19T15:44:44.471Z</time>
      </trkpt>
      <trkpt lat="43.17844833" lon="-4.28914167">
        <ele>485.0</ele>
        <time>2018-05-19T15:44:45.465Z</time>
      </trkpt>
      <trkpt lat="43.17858833" lon="-4.289235">
        <ele>484.0</ele>
        <time>2018-05-19T15:44:46.470Z</time>
      </trkpt>
      <trkpt lat="43.17858833" lon="-4.289235">
        <ele>484.0</ele>
        <time>2018-05-19T15:44:47.478Z</time>
      </trkpt>
      <trkpt lat="43.17873833" lon="-4.289315">
        <ele>483.0</ele>
        <time>2018-05-19T15:44:48.471Z</time>
      </trkpt>
      <trkpt lat="43.17873833" lon="-4.289315">
        <ele>483.0</ele>
        <time>2018-05-19T15:44:49.465Z</time>
      </trkpt>
      <trkpt lat="43.17889833" lon="-4.289375">
        <ele>482.0</ele>
        <time>2018-05-19T15:44:50.474Z</time>
      </trkpt>
      <trkpt lat="43.17889833" lon="-4.289375">
        <ele>482.0</ele>
        <time>2018-05-19T15:44:51.467Z</time>
      </trkpt>
      <trkpt lat="43.17905167" lon="-4.28943167">
        <ele>481.0</ele>
        <time>2018-05-19T15:44:52.471Z</time>
      </trkpt>
      <trkpt lat="43.17905167" lon="-4.28943167">
        <ele>481.0</ele>
        <time>2018-05-19T15:44:53.467Z</time>
      </trkpt>
      <trkpt lat="43.17918333" lon="-4.289505">
        <ele>480.0</ele>
        <time>2018-05-19T15:44:54.474Z</time>
      </trkpt>
      <trkpt lat="43.17918333" lon="-4.289505">
        <ele>480.0</ele>
        <time>2018-05-19T15:44:55.468Z</time>
      </trkpt>
      <trkpt lat="43.17928833" lon="-4.289595">
        <ele>480.0</ele>
        <time>2018-05-19T15:44:56.468Z</time>
      </trkpt>
      <trkpt lat="43.17928833" lon="-4.289595">
        <ele>480.0</ele>
        <time>2018-05-19T15:44:57.473Z</time>
      </trkpt>
      <trkpt lat="43.17936333" lon="-4.289665">
        <ele>480.0</ele>
        <time>2018-05-19T15:44:58.469Z</time>
      </trkpt>
      <trkpt lat="43.179395" lon="-4.28969833">
        <ele>480.0</ele>
        <time>2018-05-19T15:44:59.471Z</time>
      </trkpt>
      <trkpt lat="43.179395" lon="-4.28969833">
        <ele>480.0</ele>
        <time>2018-05-19T15:45:00.478Z</time>
      </trkpt>
      <trkpt lat="43.17944167" lon="-4.28976333">
        <ele>481.0</ele>
        <time>2018-05-19T15:45:01.471Z</time>
      </trkpt>
      <trkpt lat="43.17946167" lon="-4.28979667">
        <ele>481.0</ele>
        <time>2018-05-19T15:45:02.470Z</time>
      </trkpt>
      <trkpt lat="43.17946167" lon="-4.28979667">
        <ele>481.0</ele>
        <time>2018-05-19T15:45:03.465Z</time>
      </trkpt>
      <trkpt lat="43.1795" lon="-4.289865">
        <ele>481.0</ele>
        <time>2018-05-19T15:45:04.451Z</time>
      </trkpt>
      <trkpt lat="43.1795" lon="-4.289865">
        <ele>481.0</ele>
        <time>2018-05-19T15:45:05.478Z</time>
      </trkpt>
      <trkpt lat="43.179555" lon="-4.28992333">
        <ele>481.0</ele>
        <time>2018-05-19T15:45:06.471Z</time>
      </trkpt>
      <trkpt lat="43.179555" lon="-4.28992333">
        <ele>481.0</ele>
        <time>2018-05-19T15:45:07.465Z</time>
      </trkpt>
      <trkpt lat="43.179595" lon="-4.28997167">
        <ele>482.0</ele>
        <time>2018-05-19T15:45:08.471Z</time>
      </trkpt>
      <trkpt lat="43.179595" lon="-4.28997167">
        <ele>482.0</ele>
        <time>2018-05-19T15:45:09.468Z</time>
      </trkpt>
      <trkpt lat="43.179625" lon="-4.29002667">
        <ele>482.0</ele>
        <time>2018-05-19T15:45:10.471Z</time>
      </trkpt>
      <trkpt lat="43.179625" lon="-4.29002667">
        <ele>482.0</ele>
        <time>2018-05-19T15:45:11.464Z</time>
      </trkpt>
      <trkpt lat="43.17967" lon="-4.29006833">
        <ele>483.0</ele>
        <time>2018-05-19T15:45:12.487Z</time>
      </trkpt>
      <trkpt lat="43.17967" lon="-4.29006833">
        <ele>483.0</ele>
        <time>2018-05-19T15:45:13.473Z</time>
      </trkpt>
      <trkpt lat="43.17971333" lon="-4.29010167">
        <ele>483.0</ele>
        <time>2018-05-19T15:45:14.470Z</time>
      </trkpt>
      <trkpt lat="43.17971333" lon="-4.29010167">
        <ele>483.0</ele>
        <time>2018-05-19T15:45:15.467Z</time>
      </trkpt>
      <trkpt lat="43.17975333" lon="-4.29012833">
        <ele>483.0</ele>
        <time>2018-05-19T15:45:16.470Z</time>
      </trkpt>
      <trkpt lat="43.17977167" lon="-4.29014833">
        <ele>484.0</ele>
        <time>2018-05-19T15:45:17.479Z</time>
      </trkpt>
      <trkpt lat="43.17977167" lon="-4.29014833">
        <ele>484.0</ele>
        <time>2018-05-19T15:45:18.469Z</time>
      </trkpt>
      <trkpt lat="43.17981" lon="-4.29019833">
        <ele>484.0</ele>
        <time>2018-05-19T15:45:19.470Z</time>
      </trkpt>
      <trkpt lat="43.179825" lon="-4.29022667">
        <ele>485.0</ele>
        <time>2018-05-19T15:45:20.469Z</time>
      </trkpt>
      <trkpt lat="43.179825" lon="-4.29022667">
        <ele>485.0</ele>
        <time>2018-05-19T15:45:21.457Z</time>
      </trkpt>
      <trkpt lat="43.179865" lon="-4.29026667">
        <ele>485.0</ele>
        <time>2018-05-19T15:45:22.486Z</time>
      </trkpt>
      <trkpt lat="43.179865" lon="-4.29026667">
        <ele>485.0</ele>
        <time>2018-05-19T15:45:23.488Z</time>
      </trkpt>
      <trkpt lat="43.17991" lon="-4.29031333">
        <ele>486.0</ele>
        <time>2018-05-19T15:45:24.457Z</time>
      </trkpt>
      <trkpt lat="43.17991" lon="-4.29031333">
        <ele>486.0</ele>
        <time>2018-05-19T15:45:25.463Z</time>
      </trkpt>
      <trkpt lat="43.17996833" lon="-4.29036333">
        <ele>486.0</ele>
        <time>2018-05-19T15:45:26.470Z</time>
      </trkpt>
      <trkpt lat="43.17996833" lon="-4.29036333">
        <ele>486.0</ele>
        <time>2018-05-19T15:45:27.465Z</time>
      </trkpt>
      <trkpt lat="43.18002167" lon="-4.290405">
        <ele>487.0</ele>
        <time>2018-05-19T15:45:28.469Z</time>
      </trkpt>
      <trkpt lat="43.18002167" lon="-4.290405">
        <ele>487.0</ele>
        <time>2018-05-19T15:45:29.468Z</time>
      </trkpt>
      <trkpt lat="43.18005667" lon="-4.29044833">
        <ele>487.0</ele>
        <time>2018-05-19T15:45:30.470Z</time>
      </trkpt>
      <trkpt lat="43.18005667" lon="-4.29044833">
        <ele>487.0</ele>
        <time>2018-05-19T15:45:31.464Z</time>
      </trkpt>
      <trkpt lat="43.18009333" lon="-4.29049">
        <ele>488.0</ele>
        <time>2018-05-19T15:45:32.471Z</time>
      </trkpt>
      <trkpt lat="43.18009333" lon="-4.29049">
        <ele>488.0</ele>
        <time>2018-05-19T15:45:33.468Z</time>
      </trkpt>
      <trkpt lat="43.18012167" lon="-4.29053">
        <ele>488.0</ele>
        <time>2018-05-19T15:45:34.470Z</time>
      </trkpt>
      <trkpt lat="43.18013833" lon="-4.29055167">
        <ele>489.0</ele>
        <time>2018-05-19T15:45:35.470Z</time>
      </trkpt>
      <trkpt lat="43.180155" lon="-4.29057">
        <ele>489.0</ele>
        <time>2018-05-19T15:45:36.472Z</time>
      </trkpt>
      <trkpt lat="43.180155" lon="-4.29057">
        <ele>489.0</ele>
        <time>2018-05-19T15:45:37.480Z</time>
      </trkpt>
      <trkpt lat="43.18018333" lon="-4.2906">
        <ele>489.0</ele>
        <time>2018-05-19T15:45:38.471Z</time>
      </trkpt>
      <trkpt lat="43.18018333" lon="-4.2906">
        <ele>489.0</ele>
        <time>2018-05-19T15:45:39.467Z</time>
      </trkpt>
      <trkpt lat="43.18021333" lon="-4.29063667">
        <ele>490.0</ele>
        <time>2018-05-19T15:45:40.469Z</time>
      </trkpt>
      <trkpt lat="43.18021333" lon="-4.29063667">
        <ele>490.0</ele>
        <time>2018-05-19T15:45:41.467Z</time>
      </trkpt>
      <trkpt lat="43.18025333" lon="-4.29068167">
        <ele>490.0</ele>
        <time>2018-05-19T15:45:42.471Z</time>
      </trkpt>
      <trkpt lat="43.18025333" lon="-4.29068167">
        <ele>490.0</ele>
        <time>2018-05-19T15:45:43.467Z</time>
      </trkpt>
      <trkpt lat="43.18030167" lon="-4.29071">
        <ele>491.0</ele>
        <time>2018-05-19T15:45:44.468Z</time>
      </trkpt>
      <trkpt lat="43.18032667" lon="-4.29072333">
        <ele>491.0</ele>
        <time>2018-05-19T15:45:45.468Z</time>
      </trkpt>
      <trkpt lat="43.18032667" lon="-4.29072333">
        <ele>491.0</ele>
        <time>2018-05-19T15:45:46.467Z</time>
      </trkpt>
      <trkpt lat="43.18037667" lon="-4.29076333">
        <ele>492.0</ele>
        <time>2018-05-19T15:45:47.476Z</time>
      </trkpt>
      <trkpt lat="43.1804" lon="-4.29077667">
        <ele>492.0</ele>
        <time>2018-05-19T15:45:48.468Z</time>
      </trkpt>
      <trkpt lat="43.1804" lon="-4.29077667">
        <ele>492.0</ele>
        <time>2018-05-19T15:45:49.465Z</time>
      </trkpt>
      <trkpt lat="43.180445" lon="-4.290815">
        <ele>492.0</ele>
        <time>2018-05-19T15:45:50.469Z</time>
      </trkpt>
      <trkpt lat="43.180445" lon="-4.290815">
        <ele>492.0</ele>
        <time>2018-05-19T15:45:51.466Z</time>
      </trkpt>
      <trkpt lat="43.18049333" lon="-4.290845">
        <ele>493.0</ele>
        <time>2018-05-19T15:45:52.469Z</time>
      </trkpt>
      <trkpt lat="43.18049333" lon="-4.290845">
        <ele>493.0</ele>
        <time>2018-05-19T15:45:53.466Z</time>
      </trkpt>
      <trkpt lat="43.18054" lon="-4.290865">
        <ele>493.0</ele>
        <time>2018-05-19T15:45:54.471Z</time>
      </trkpt>
      <trkpt lat="43.18054" lon="-4.290865">
        <ele>493.0</ele>
        <time>2018-05-19T15:45:55.466Z</time>
      </trkpt>
      <trkpt lat="43.18057667" lon="-4.29088833">
        <ele>494.0</ele>
        <time>2018-05-19T15:45:56.467Z</time>
      </trkpt>
      <trkpt lat="43.18057667" lon="-4.29088833">
        <ele>494.0</ele>
        <time>2018-05-19T15:45:57.474Z</time>
      </trkpt>
      <trkpt lat="43.18062167" lon="-4.29092333">
        <ele>495.0</ele>
        <time>2018-05-19T15:45:58.469Z</time>
      </trkpt>
      <trkpt lat="43.18062167" lon="-4.29092333">
        <ele>495.0</ele>
        <time>2018-05-19T15:45:59.467Z</time>
      </trkpt>
      <trkpt lat="43.18066167" lon="-4.290935">
        <ele>496.0</ele>
        <time>2018-05-19T15:46:00.471Z</time>
      </trkpt>
      <trkpt lat="43.18066167" lon="-4.290935">
        <ele>496.0</ele>
        <time>2018-05-19T15:46:01.460Z</time>
      </trkpt>
      <trkpt lat="43.18069333" lon="-4.29094667">
        <ele>496.0</ele>
        <time>2018-05-19T15:46:02.487Z</time>
      </trkpt>
      <trkpt lat="43.18069333" lon="-4.29094667">
        <ele>496.0</ele>
        <time>2018-05-19T15:46:03.480Z</time>
      </trkpt>
      <trkpt lat="43.18073167" lon="-4.29096167">
        <ele>497.0</ele>
        <time>2018-05-19T15:46:04.469Z</time>
      </trkpt>
      <trkpt lat="43.18073167" lon="-4.29096167">
        <ele>497.0</ele>
        <time>2018-05-19T15:46:05.466Z</time>
      </trkpt>
      <trkpt lat="43.18077333" lon="-4.29097667">
        <ele>497.0</ele>
        <time>2018-05-19T15:46:06.468Z</time>
      </trkpt>
      <trkpt lat="43.18077333" lon="-4.29097667">
        <ele>497.0</ele>
        <time>2018-05-19T15:46:07.466Z</time>
      </trkpt>
      <trkpt lat="43.18081667" lon="-4.290975">
        <ele>498.0</ele>
        <time>2018-05-19T15:46:08.467Z</time>
      </trkpt>
      <trkpt lat="43.18081667" lon="-4.290975">
        <ele>498.0</ele>
        <time>2018-05-19T15:46:09.466Z</time>
      </trkpt>
      <trkpt lat="43.18085167" lon="-4.290975">
        <ele>498.0</ele>
        <time>2018-05-19T15:46:10.468Z</time>
      </trkpt>
      <trkpt lat="43.18086833" lon="-4.29098167">
        <ele>499.0</ele>
        <time>2018-05-19T15:46:11.487Z</time>
      </trkpt>
      <trkpt lat="43.18086833" lon="-4.29098167">
        <ele>499.0</ele>
        <time>2018-05-19T15:46:12.472Z</time>
      </trkpt>
      <trkpt lat="43.18090667" lon="-4.29098833">
        <ele>499.0</ele>
        <time>2018-05-19T15:46:13.469Z</time>
      </trkpt>
      <trkpt lat="43.180925" lon="-4.29099333">
        <ele>499.0</ele>
        <time>2018-05-19T15:46:14.471Z</time>
      </trkpt>
      <trkpt lat="43.18094333" lon="-4.29100333">
        <ele>500.0</ele>
        <time>2018-05-19T15:46:15.469Z</time>
      </trkpt>
      <trkpt lat="43.18094333" lon="-4.29100333">
        <ele>500.0</ele>
        <time>2018-05-19T15:46:16.466Z</time>
      </trkpt>
      <trkpt lat="43.18099" lon="-4.29101333">
        <ele>500.0</ele>
        <time>2018-05-19T15:46:17.476Z</time>
      </trkpt>
      <trkpt lat="43.18099" lon="-4.29101333">
        <ele>500.0</ele>
        <time>2018-05-19T15:46:18.465Z</time>
      </trkpt>
      <trkpt lat="43.18104667" lon="-4.29101833">
        <ele>500.0</ele>
        <time>2018-05-19T15:46:19.486Z</time>
      </trkpt>
      <trkpt lat="43.18104667" lon="-4.29101833">
        <ele>500.0</ele>
        <time>2018-05-19T15:46:20.471Z</time>
      </trkpt>
      <trkpt lat="43.18109167" lon="-4.29102833">
        <ele>500.0</ele>
        <time>2018-05-19T15:46:21.468Z</time>
      </trkpt>
      <trkpt lat="43.18109167" lon="-4.29102833">
        <ele>500.0</ele>
        <time>2018-05-19T15:46:22.466Z</time>
      </trkpt>
      <trkpt lat="43.18112333" lon="-4.29103167">
        <ele>500.0</ele>
        <time>2018-05-19T15:46:23.481Z</time>
      </trkpt>
      <trkpt lat="43.18112333" lon="-4.29103167">
        <ele>500.0</ele>
        <time>2018-05-19T15:46:24.480Z</time>
      </trkpt>
      <trkpt lat="43.18116333" lon="-4.29104667">
        <ele>501.0</ele>
        <time>2018-05-19T15:46:25.466Z</time>
      </trkpt>
      <trkpt lat="43.18118667" lon="-4.29104833">
        <ele>500.0</ele>
        <time>2018-05-19T15:46:26.468Z</time>
      </trkpt>
      <trkpt lat="43.18118667" lon="-4.29104833">
        <ele>500.0</ele>
        <time>2018-05-19T15:46:27.479Z</time>
      </trkpt>
      <trkpt lat="43.18126667" lon="-4.291065">
        <ele>501.0</ele>
        <time>2018-05-19T15:46:28.469Z</time>
      </trkpt>
      <trkpt lat="43.181305" lon="-4.29108833">
        <ele>501.0</ele>
        <time>2018-05-19T15:46:29.469Z</time>
      </trkpt>
      <trkpt lat="43.181335" lon="-4.291115">
        <ele>501.0</ele>
        <time>2018-05-19T15:46:30.474Z</time>
      </trkpt>
      <trkpt lat="43.181335" lon="-4.291115">
        <ele>501.0</ele>
        <time>2018-05-19T15:46:31.466Z</time>
      </trkpt>
      <trkpt lat="43.181405" lon="-4.29116833">
        <ele>501.0</ele>
        <time>2018-05-19T15:46:32.469Z</time>
      </trkpt>
      <trkpt lat="43.181405" lon="-4.29116833">
        <ele>501.0</ele>
        <time>2018-05-19T15:46:33.466Z</time>
      </trkpt>
      <trkpt lat="43.18146333" lon="-4.29122">
        <ele>501.0</ele>
        <time>2018-05-19T15:46:34.468Z</time>
      </trkpt>
      <trkpt lat="43.18146333" lon="-4.29122">
        <ele>501.0</ele>
        <time>2018-05-19T15:46:35.467Z</time>
      </trkpt>
      <trkpt lat="43.181515" lon="-4.29125667">
        <ele>501.0</ele>
        <time>2018-05-19T15:46:36.469Z</time>
      </trkpt>
      <trkpt lat="43.181515" lon="-4.29125667">
        <ele>501.0</ele>
        <time>2018-05-19T15:46:37.466Z</time>
      </trkpt>
      <trkpt lat="43.18158167" lon="-4.29131">
        <ele>501.0</ele>
        <time>2018-05-19T15:46:38.470Z</time>
      </trkpt>
      <trkpt lat="43.18158167" lon="-4.29131">
        <ele>501.0</ele>
        <time>2018-05-19T15:46:39.464Z</time>
      </trkpt>
      <trkpt lat="43.18164333" lon="-4.29136833">
        <ele>501.0</ele>
        <time>2018-05-19T15:46:40.469Z</time>
      </trkpt>
      <trkpt lat="43.18164333" lon="-4.29136833">
        <ele>501.0</ele>
        <time>2018-05-19T15:46:41.486Z</time>
      </trkpt>
      <trkpt lat="43.18172" lon="-4.29143167">
        <ele>501.0</ele>
        <time>2018-05-19T15:46:42.472Z</time>
      </trkpt>
      <trkpt lat="43.18172" lon="-4.29143167">
        <ele>501.0</ele>
        <time>2018-05-19T15:46:43.464Z</time>
      </trkpt>
      <trkpt lat="43.18182333" lon="-4.29147333">
        <ele>501.0</ele>
        <time>2018-05-19T15:46:44.449Z</time>
      </trkpt>
      <trkpt lat="43.18182333" lon="-4.29147333">
        <ele>501.0</ele>
        <time>2018-05-19T15:46:45.478Z</time>
      </trkpt>
      <trkpt lat="43.18192667" lon="-4.29148667">
        <ele>501.0</ele>
        <time>2018-05-19T15:46:46.470Z</time>
      </trkpt>
      <trkpt lat="43.18200833" lon="-4.29148667">
        <ele>500.0</ele>
        <time>2018-05-19T15:46:47.479Z</time>
      </trkpt>
      <trkpt lat="43.18200833" lon="-4.29148667">
        <ele>500.0</ele>
        <time>2018-05-19T15:46:48.468Z</time>
      </trkpt>
      <trkpt lat="43.18215" lon="-4.29148333">
        <ele>500.0</ele>
        <time>2018-05-19T15:46:49.469Z</time>
      </trkpt>
      <trkpt lat="43.18221833" lon="-4.29149667">
        <ele>498.0</ele>
        <time>2018-05-19T15:46:50.469Z</time>
      </trkpt>
      <trkpt lat="43.18221833" lon="-4.29149667">
        <ele>498.0</ele>
        <time>2018-05-19T15:46:51.466Z</time>
      </trkpt>
      <trkpt lat="43.18235833" lon="-4.29153">
        <ele>497.0</ele>
        <time>2018-05-19T15:46:52.486Z</time>
      </trkpt>
      <trkpt lat="43.18235833" lon="-4.29153">
        <ele>497.0</ele>
        <time>2018-05-19T15:46:53.472Z</time>
      </trkpt>
      <trkpt lat="43.18250667" lon="-4.291565">
        <ele>496.0</ele>
        <time>2018-05-19T15:46:54.470Z</time>
      </trkpt>
      <trkpt lat="43.18250667" lon="-4.291565">
        <ele>496.0</ele>
        <time>2018-05-19T15:46:55.467Z</time>
      </trkpt>
      <trkpt lat="43.18268333" lon="-4.29157667">
        <ele>491.0</ele>
        <time>2018-05-19T15:46:56.471Z</time>
      </trkpt>
      <trkpt lat="43.18268333" lon="-4.29157667">
        <ele>491.0</ele>
        <time>2018-05-19T15:46:57.464Z</time>
      </trkpt>
      <trkpt lat="43.18283667" lon="-4.29156167">
        <ele>490.0</ele>
        <time>2018-05-19T15:46:58.468Z</time>
      </trkpt>
      <trkpt lat="43.18283667" lon="-4.29156167">
        <ele>490.0</ele>
        <time>2018-05-19T15:46:59.467Z</time>
      </trkpt>
      <trkpt lat="43.182975" lon="-4.29153833">
        <ele>488.0</ele>
        <time>2018-05-19T15:47:00.469Z</time>
      </trkpt>
      <trkpt lat="43.182975" lon="-4.29153833">
        <ele>488.0</ele>
        <time>2018-05-19T15:47:01.463Z</time>
      </trkpt>
      <trkpt lat="43.183065" lon="-4.29156167">
        <ele>486.0</ele>
        <time>2018-05-19T15:47:02.486Z</time>
      </trkpt>
      <trkpt lat="43.183065" lon="-4.29156167">
        <ele>486.0</ele>
        <time>2018-05-19T15:47:03.471Z</time>
      </trkpt>
      <trkpt lat="43.18315667" lon="-4.291595">
        <ele>485.0</ele>
        <time>2018-05-19T15:47:04.468Z</time>
      </trkpt>
      <trkpt lat="43.18320333" lon="-4.29162">
        <ele>484.0</ele>
        <time>2018-05-19T15:47:05.468Z</time>
      </trkpt>
      <trkpt lat="43.18320333" lon="-4.29162">
        <ele>484.0</ele>
        <time>2018-05-19T15:47:06.468Z</time>
      </trkpt>
      <trkpt lat="43.18328167" lon="-4.29166333">
        <ele>482.0</ele>
        <time>2018-05-19T15:47:07.479Z</time>
      </trkpt>
      <trkpt lat="43.18332667" lon="-4.29168333">
        <ele>482.0</ele>
        <time>2018-05-19T15:47:08.467Z</time>
      </trkpt>
      <trkpt lat="43.18332667" lon="-4.29168333">
        <ele>482.0</ele>
        <time>2018-05-19T15:47:09.467Z</time>
      </trkpt>
      <trkpt lat="43.18340833" lon="-4.29174">
        <ele>480.0</ele>
        <time>2018-05-19T15:47:10.469Z</time>
      </trkpt>
      <trkpt lat="43.18340833" lon="-4.29174">
        <ele>480.0</ele>
        <time>2018-05-19T15:47:11.465Z</time>
      </trkpt>
      <trkpt lat="43.18347333" lon="-4.29184">
        <ele>479.0</ele>
        <time>2018-05-19T15:47:12.471Z</time>
      </trkpt>
      <trkpt lat="43.18347333" lon="-4.29184">
        <ele>479.0</ele>
        <time>2018-05-19T15:47:13.465Z</time>
      </trkpt>
      <trkpt lat="43.18353667" lon="-4.29194667">
        <ele>477.0</ele>
        <time>2018-05-19T15:47:14.477Z</time>
      </trkpt>
      <trkpt lat="43.18353667" lon="-4.29194667">
        <ele>477.0</ele>
        <time>2018-05-19T15:47:15.463Z</time>
      </trkpt>
      <trkpt lat="43.1836" lon="-4.292055">
        <ele>476.0</ele>
        <time>2018-05-19T15:47:16.469Z</time>
      </trkpt>
      <trkpt lat="43.1836" lon="-4.292055">
        <ele>476.0</ele>
        <time>2018-05-19T15:47:17.467Z</time>
      </trkpt>
      <trkpt lat="43.183655" lon="-4.29217">
        <ele>475.0</ele>
        <time>2018-05-19T15:47:18.470Z</time>
      </trkpt>
      <trkpt lat="43.183655" lon="-4.29217">
        <ele>475.0</ele>
        <time>2018-05-19T15:47:19.464Z</time>
      </trkpt>
      <trkpt lat="43.18370833" lon="-4.29228333">
        <ele>475.0</ele>
        <time>2018-05-19T15:47:20.469Z</time>
      </trkpt>
      <trkpt lat="43.18370833" lon="-4.29228333">
        <ele>475.0</ele>
        <time>2018-05-19T15:47:21.466Z</time>
      </trkpt>
      <trkpt lat="43.18377" lon="-4.29239167">
        <ele>474.0</ele>
        <time>2018-05-19T15:47:22.468Z</time>
      </trkpt>
      <trkpt lat="43.1838" lon="-4.29244833">
        <ele>473.0</ele>
        <time>2018-05-19T15:47:23.481Z</time>
      </trkpt>
      <trkpt lat="43.18383833" lon="-4.29249667">
        <ele>473.0</ele>
        <time>2018-05-19T15:47:24.487Z</time>
      </trkpt>
      <trkpt lat="43.18383833" lon="-4.29249667">
        <ele>473.0</ele>
        <time>2018-05-19T15:47:25.485Z</time>
      </trkpt>
      <trkpt lat="43.183915" lon="-4.29258667">
        <ele>473.0</ele>
        <time>2018-05-19T15:47:26.472Z</time>
      </trkpt>
      <trkpt lat="43.183915" lon="-4.29258667">
        <ele>473.0</ele>
        <time>2018-05-19T15:47:27.465Z</time>
      </trkpt>
      <trkpt lat="43.18400667" lon="-4.29266">
        <ele>472.0</ele>
        <time>2018-05-19T15:47:28.469Z</time>
      </trkpt>
      <trkpt lat="43.18404833" lon="-4.292705">
        <ele>472.0</ele>
        <time>2018-05-19T15:47:29.469Z</time>
      </trkpt>
      <trkpt lat="43.18404833" lon="-4.292705">
        <ele>472.0</ele>
        <time>2018-05-19T15:47:30.465Z</time>
      </trkpt>
      <trkpt lat="43.18414" lon="-4.29281333">
        <ele>472.0</ele>
        <time>2018-05-19T15:47:31.469Z</time>
      </trkpt>
      <trkpt lat="43.18417833" lon="-4.29286333">
        <ele>473.0</ele>
        <time>2018-05-19T15:47:32.469Z</time>
      </trkpt>
      <trkpt lat="43.18417833" lon="-4.29286333">
        <ele>473.0</ele>
        <time>2018-05-19T15:47:33.465Z</time>
      </trkpt>
      <trkpt lat="43.184255" lon="-4.29292333">
        <ele>474.0</ele>
        <time>2018-05-19T15:47:34.450Z</time>
      </trkpt>
      <trkpt lat="43.184255" lon="-4.29292333">
        <ele>474.0</ele>
        <time>2018-05-19T15:47:35.474Z</time>
      </trkpt>
      <trkpt lat="43.18432833" lon="-4.29297">
        <ele>475.0</ele>
        <time>2018-05-19T15:47:36.471Z</time>
      </trkpt>
      <trkpt lat="43.18432833" lon="-4.29297">
        <ele>475.0</ele>
        <time>2018-05-19T15:47:37.466Z</time>
      </trkpt>
      <trkpt lat="43.18439833" lon="-4.29299667">
        <ele>475.0</ele>
        <time>2018-05-19T15:47:38.470Z</time>
      </trkpt>
      <trkpt lat="43.18443167" lon="-4.29300667">
        <ele>476.0</ele>
        <time>2018-05-19T15:47:39.486Z</time>
      </trkpt>
      <trkpt lat="43.18443167" lon="-4.29300667">
        <ele>476.0</ele>
        <time>2018-05-19T15:47:40.472Z</time>
      </trkpt>
      <trkpt lat="43.1845" lon="-4.29301167">
        <ele>476.0</ele>
        <time>2018-05-19T15:47:41.469Z</time>
      </trkpt>
      <trkpt lat="43.18452833" lon="-4.29302">
        <ele>476.0</ele>
        <time>2018-05-19T15:47:42.471Z</time>
      </trkpt>
      <trkpt lat="43.18452833" lon="-4.29302">
        <ele>476.0</ele>
        <time>2018-05-19T15:47:43.465Z</time>
      </trkpt>
      <trkpt lat="43.18457" lon="-4.29303833">
        <ele>476.0</ele>
        <time>2018-05-19T15:47:44.471Z</time>
      </trkpt>
      <trkpt lat="43.18457" lon="-4.29303833">
        <ele>476.0</ele>
        <time>2018-05-19T15:47:45.466Z</time>
      </trkpt>
      <trkpt lat="43.18461167" lon="-4.29306667">
        <ele>477.0</ele>
        <time>2018-05-19T15:47:46.468Z</time>
      </trkpt>
      <trkpt lat="43.18461167" lon="-4.29306667">
        <ele>477.0</ele>
        <time>2018-05-19T15:47:47.466Z</time>
      </trkpt>
      <trkpt lat="43.18466333" lon="-4.29310167">
        <ele>477.0</ele>
        <time>2018-05-19T15:47:48.471Z</time>
      </trkpt>
      <trkpt lat="43.18466333" lon="-4.29310167">
        <ele>477.0</ele>
        <time>2018-05-19T15:47:49.466Z</time>
      </trkpt>
      <trkpt lat="43.18472" lon="-4.29313667">
        <ele>477.0</ele>
        <time>2018-05-19T15:47:50.469Z</time>
      </trkpt>
      <trkpt lat="43.18472" lon="-4.29313667">
        <ele>477.0</ele>
        <time>2018-05-19T15:47:51.465Z</time>
      </trkpt>
      <trkpt lat="43.18477667" lon="-4.29317">
        <ele>478.0</ele>
        <time>2018-05-19T15:47:52.466Z</time>
      </trkpt>
      <trkpt lat="43.184805" lon="-4.29318833">
        <ele>478.0</ele>
        <time>2018-05-19T15:47:53.468Z</time>
      </trkpt>
      <trkpt lat="43.18483167" lon="-4.2932">
        <ele>478.0</ele>
        <time>2018-05-19T15:47:54.471Z</time>
      </trkpt>
      <trkpt lat="43.18483167" lon="-4.2932">
        <ele>478.0</ele>
        <time>2018-05-19T15:47:55.466Z</time>
      </trkpt>
      <trkpt lat="43.18488" lon="-4.29322833">
        <ele>478.0</ele>
        <time>2018-05-19T15:47:56.469Z</time>
      </trkpt>
      <trkpt lat="43.18488" lon="-4.29322833">
        <ele>478.0</ele>
        <time>2018-05-19T15:47:57.464Z</time>
      </trkpt>
      <trkpt lat="43.18492167" lon="-4.29325">
        <ele>479.0</ele>
        <time>2018-05-19T15:47:58.469Z</time>
      </trkpt>
      <trkpt lat="43.18492167" lon="-4.29325">
        <ele>479.0</ele>
        <time>2018-05-19T15:47:59.466Z</time>
      </trkpt>
      <trkpt lat="43.18495833" lon="-4.29327333">
        <ele>480.0</ele>
        <time>2018-05-19T15:48:00.469Z</time>
      </trkpt>
      <trkpt lat="43.18495833" lon="-4.29327333">
        <ele>480.0</ele>
        <time>2018-05-19T15:48:01.463Z</time>
      </trkpt>
      <trkpt lat="43.18499" lon="-4.29330167">
        <ele>480.0</ele>
        <time>2018-05-19T15:48:02.474Z</time>
      </trkpt>
      <trkpt lat="43.18501167" lon="-4.29330833">
        <ele>481.0</ele>
        <time>2018-05-19T15:48:03.469Z</time>
      </trkpt>
      <trkpt lat="43.18501167" lon="-4.29330833">
        <ele>481.0</ele>
        <time>2018-05-19T15:48:04.466Z</time>
      </trkpt>
      <trkpt lat="43.185045" lon="-4.29333">
        <ele>482.0</ele>
        <time>2018-05-19T15:48:05.468Z</time>
      </trkpt>
      <trkpt lat="43.18506667" lon="-4.29334">
        <ele>482.0</ele>
        <time>2018-05-19T15:48:06.468Z</time>
      </trkpt>
      <trkpt lat="43.18506667" lon="-4.29334">
        <ele>482.0</ele>
        <time>2018-05-19T15:48:07.466Z</time>
      </trkpt>
      <trkpt lat="43.185115" lon="-4.29337167">
        <ele>483.0</ele>
        <time>2018-05-19T15:48:08.472Z</time>
      </trkpt>
      <trkpt lat="43.185115" lon="-4.29337167">
        <ele>483.0</ele>
        <time>2018-05-19T15:48:09.466Z</time>
      </trkpt>
      <trkpt lat="43.18515833" lon="-4.29341333">
        <ele>484.0</ele>
        <time>2018-05-19T15:48:10.469Z</time>
      </trkpt>
      <trkpt lat="43.18517167" lon="-4.29344">
        <ele>484.0</ele>
        <time>2018-05-19T15:48:11.468Z</time>
      </trkpt>
      <trkpt lat="43.18519167" lon="-4.29347833">
        <ele>484.0</ele>
        <time>2018-05-19T15:48:12.470Z</time>
      </trkpt>
      <trkpt lat="43.18519167" lon="-4.29347833">
        <ele>484.0</ele>
        <time>2018-05-19T15:48:13.468Z</time>
      </trkpt>
      <trkpt lat="43.18520333" lon="-4.29357833">
        <ele>484.0</ele>
        <time>2018-05-19T15:48:14.471Z</time>
      </trkpt>
      <trkpt lat="43.18521167" lon="-4.29363833">
        <ele>484.0</ele>
        <time>2018-05-19T15:48:15.471Z</time>
      </trkpt>
      <trkpt lat="43.18521167" lon="-4.29363833">
        <ele>484.0</ele>
        <time>2018-05-19T15:48:16.466Z</time>
      </trkpt>
      <trkpt lat="43.18523833" lon="-4.29377833">
        <ele>484.0</ele>
        <time>2018-05-19T15:48:17.476Z</time>
      </trkpt>
      <trkpt lat="43.18525167" lon="-4.29385333">
        <ele>484.0</ele>
        <time>2018-05-19T15:48:18.470Z</time>
      </trkpt>
      <trkpt lat="43.18525167" lon="-4.29385333">
        <ele>484.0</ele>
        <time>2018-05-19T15:48:19.463Z</time>
      </trkpt>
      <trkpt lat="43.18527667" lon="-4.29400167">
        <ele>484.0</ele>
        <time>2018-05-19T15:48:20.469Z</time>
      </trkpt>
      <trkpt lat="43.18527667" lon="-4.29400167">
        <ele>484.0</ele>
        <time>2018-05-19T15:48:21.466Z</time>
      </trkpt>
      <trkpt lat="43.18529" lon="-4.29415333">
        <ele>484.0</ele>
        <time>2018-05-19T15:48:22.468Z</time>
      </trkpt>
      <trkpt lat="43.18529667" lon="-4.29422667">
        <ele>484.0</ele>
        <time>2018-05-19T15:48:23.468Z</time>
      </trkpt>
      <trkpt lat="43.18530333" lon="-4.29429667">
        <ele>484.0</ele>
        <time>2018-05-19T15:48:24.477Z</time>
      </trkpt>
      <trkpt lat="43.18530333" lon="-4.29429667">
        <ele>484.0</ele>
        <time>2018-05-19T15:48:25.483Z</time>
      </trkpt>
      <trkpt lat="43.18531333" lon="-4.29443167">
        <ele>484.0</ele>
        <time>2018-05-19T15:48:26.449Z</time>
      </trkpt>
      <trkpt lat="43.18531333" lon="-4.29443167">
        <ele>484.0</ele>
        <time>2018-05-19T15:48:27.478Z</time>
      </trkpt>
      <trkpt lat="43.18532667" lon="-4.29456667">
        <ele>484.0</ele>
        <time>2018-05-19T15:48:28.467Z</time>
      </trkpt>
      <trkpt lat="43.18532667" lon="-4.29456667">
        <ele>484.0</ele>
        <time>2018-05-19T15:48:29.464Z</time>
      </trkpt>
      <trkpt lat="43.18534333" lon="-4.29469">
        <ele>484.0</ele>
        <time>2018-05-19T15:48:30.468Z</time>
      </trkpt>
      <trkpt lat="43.18534333" lon="-4.29469">
        <ele>484.0</ele>
        <time>2018-05-19T15:48:31.465Z</time>
      </trkpt>
      <trkpt lat="43.18536667" lon="-4.29479833">
        <ele>484.0</ele>
        <time>2018-05-19T15:48:32.469Z</time>
      </trkpt>
      <trkpt lat="43.18536667" lon="-4.29479833">
        <ele>484.0</ele>
        <time>2018-05-19T15:48:33.463Z</time>
      </trkpt>
      <trkpt lat="43.18539" lon="-4.29491">
        <ele>484.0</ele>
        <time>2018-05-19T15:48:34.468Z</time>
      </trkpt>
      <trkpt lat="43.18539" lon="-4.29491">
        <ele>484.0</ele>
        <time>2018-05-19T15:48:35.467Z</time>
      </trkpt>
      <trkpt lat="43.18541333" lon="-4.29502833">
        <ele>485.0</ele>
        <time>2018-05-19T15:48:36.469Z</time>
      </trkpt>
      <trkpt lat="43.18541333" lon="-4.29502833">
        <ele>485.0</ele>
        <time>2018-05-19T15:48:37.466Z</time>
      </trkpt>
      <trkpt lat="43.18543333" lon="-4.29513667">
        <ele>485.0</ele>
        <time>2018-05-19T15:48:38.468Z</time>
      </trkpt>
      <trkpt lat="43.18543333" lon="-4.29513667">
        <ele>485.0</ele>
        <time>2018-05-19T15:48:39.465Z</time>
      </trkpt>
      <trkpt lat="43.18545333" lon="-4.29523333">
        <ele>485.0</ele>
        <time>2018-05-19T15:48:40.468Z</time>
      </trkpt>
      <trkpt lat="43.18545333" lon="-4.29523333">
        <ele>485.0</ele>
        <time>2018-05-19T15:48:41.465Z</time>
      </trkpt>
      <trkpt lat="43.18546833" lon="-4.29533833">
        <ele>486.0</ele>
        <time>2018-05-19T15:48:42.470Z</time>
      </trkpt>
      <trkpt lat="43.18547667" lon="-4.29539667">
        <ele>486.0</ele>
        <time>2018-05-19T15:48:43.468Z</time>
      </trkpt>
      <trkpt lat="43.18547667" lon="-4.29539667">
        <ele>486.0</ele>
        <time>2018-05-19T15:48:44.466Z</time>
      </trkpt>
      <trkpt lat="43.18549667" lon="-4.29553333">
        <ele>486.0</ele>
        <time>2018-05-19T15:48:45.468Z</time>
      </trkpt>
      <trkpt lat="43.18549667" lon="-4.29553333">
        <ele>486.0</ele>
        <time>2018-05-19T15:48:46.466Z</time>
      </trkpt>
      <trkpt lat="43.185525" lon="-4.29567333">
        <ele>486.0</ele>
        <time>2018-05-19T15:48:47.478Z</time>
      </trkpt>
      <trkpt lat="43.18555167" lon="-4.29575333">
        <ele>486.0</ele>
        <time>2018-05-19T15:48:48.471Z</time>
      </trkpt>
      <trkpt lat="43.18555167" lon="-4.29575333">
        <ele>486.0</ele>
        <time>2018-05-19T15:48:49.466Z</time>
      </trkpt>
      <trkpt lat="43.18558" lon="-4.29589167">
        <ele>486.0</ele>
        <time>2018-05-19T15:48:50.469Z</time>
      </trkpt>
      <trkpt lat="43.18558" lon="-4.29589167">
        <ele>486.0</ele>
        <time>2018-05-19T15:48:51.464Z</time>
      </trkpt>
      <trkpt lat="43.18562" lon="-4.29601333">
        <ele>486.0</ele>
        <time>2018-05-19T15:48:52.469Z</time>
      </trkpt>
      <trkpt lat="43.18562" lon="-4.29601333">
        <ele>486.0</ele>
        <time>2018-05-19T15:48:53.465Z</time>
      </trkpt>
      <trkpt lat="43.18567167" lon="-4.296135">
        <ele>486.0</ele>
        <time>2018-05-19T15:48:54.471Z</time>
      </trkpt>
      <trkpt lat="43.18567167" lon="-4.296135">
        <ele>486.0</ele>
        <time>2018-05-19T15:48:55.464Z</time>
      </trkpt>
      <trkpt lat="43.185725" lon="-4.29625833">
        <ele>486.0</ele>
        <time>2018-05-19T15:48:56.469Z</time>
      </trkpt>
      <trkpt lat="43.185725" lon="-4.29625833">
        <ele>486.0</ele>
        <time>2018-05-19T15:48:57.465Z</time>
      </trkpt>
      <trkpt lat="43.18577" lon="-4.296385">
        <ele>486.0</ele>
        <time>2018-05-19T15:48:58.468Z</time>
      </trkpt>
      <trkpt lat="43.18577" lon="-4.296385">
        <ele>486.0</ele>
        <time>2018-05-19T15:48:59.466Z</time>
      </trkpt>
      <trkpt lat="43.18582333" lon="-4.29653333">
        <ele>486.0</ele>
        <time>2018-05-19T15:49:00.468Z</time>
      </trkpt>
      <trkpt lat="43.18582333" lon="-4.29653333">
        <ele>486.0</ele>
        <time>2018-05-19T15:49:01.465Z</time>
      </trkpt>
      <trkpt lat="43.18586833" lon="-4.29666333">
        <ele>487.0</ele>
        <time>2018-05-19T15:49:02.469Z</time>
      </trkpt>
      <trkpt lat="43.18586833" lon="-4.29666333">
        <ele>487.0</ele>
        <time>2018-05-19T15:49:03.476Z</time>
      </trkpt>
      <trkpt lat="43.18592" lon="-4.29678167">
        <ele>487.0</ele>
        <time>2018-05-19T15:49:04.469Z</time>
      </trkpt>
      <trkpt lat="43.18595167" lon="-4.29683333">
        <ele>487.0</ele>
        <time>2018-05-19T15:49:05.468Z</time>
      </trkpt>
      <trkpt lat="43.18595167" lon="-4.29683333">
        <ele>487.0</ele>
        <time>2018-05-19T15:49:06.468Z</time>
      </trkpt>
      <trkpt lat="43.18602333" lon="-4.29692333">
        <ele>488.0</ele>
        <time>2018-05-19T15:49:07.474Z</time>
      </trkpt>
      <trkpt lat="43.18605667" lon="-4.29696833">
        <ele>488.0</ele>
        <time>2018-05-19T15:49:08.469Z</time>
      </trkpt>
      <trkpt lat="43.18605667" lon="-4.29696833">
        <ele>488.0</ele>
        <time>2018-05-19T15:49:09.463Z</time>
      </trkpt>
      <trkpt lat="43.18612167" lon="-4.297065">
        <ele>488.0</ele>
        <time>2018-05-19T15:49:10.468Z</time>
      </trkpt>
      <trkpt lat="43.18612167" lon="-4.297065">
        <ele>488.0</ele>
        <time>2018-05-19T15:49:11.465Z</time>
      </trkpt>
      <trkpt lat="43.18619333" lon="-4.29716667">
        <ele>489.0</ele>
        <time>2018-05-19T15:49:12.467Z</time>
      </trkpt>
      <trkpt lat="43.18619333" lon="-4.29716667">
        <ele>489.0</ele>
        <time>2018-05-19T15:49:13.464Z</time>
      </trkpt>
      <trkpt lat="43.18628333" lon="-4.29725167">
        <ele>489.0</ele>
        <time>2018-05-19T15:49:14.448Z</time>
      </trkpt>
      <trkpt lat="43.18628333" lon="-4.29725167">
        <ele>489.0</ele>
        <time>2018-05-19T15:49:15.474Z</time>
      </trkpt>
      <trkpt lat="43.186385" lon="-4.29733333">
        <ele>489.0</ele>
        <time>2018-05-19T15:49:16.468Z</time>
      </trkpt>
      <trkpt lat="43.186385" lon="-4.29733333">
        <ele>489.0</ele>
        <time>2018-05-19T15:49:17.463Z</time>
      </trkpt>
      <trkpt lat="43.18648" lon="-4.297405">
        <ele>489.0</ele>
        <time>2018-05-19T15:49:18.470Z</time>
      </trkpt>
      <trkpt lat="43.18648" lon="-4.297405">
        <ele>489.0</ele>
        <time>2018-05-19T15:49:19.466Z</time>
      </trkpt>
      <trkpt lat="43.18659833" lon="-4.29747833">
        <ele>489.0</ele>
        <time>2018-05-19T15:49:20.468Z</time>
      </trkpt>
      <trkpt lat="43.18659833" lon="-4.29747833">
        <ele>489.0</ele>
        <time>2018-05-19T15:49:21.465Z</time>
      </trkpt>
      <trkpt lat="43.18669667" lon="-4.29751333">
        <ele>489.0</ele>
        <time>2018-05-19T15:49:22.468Z</time>
      </trkpt>
      <trkpt lat="43.18669667" lon="-4.29751333">
        <ele>489.0</ele>
        <time>2018-05-19T15:49:23.461Z</time>
      </trkpt>
      <trkpt lat="43.18680167" lon="-4.29752167">
        <ele>490.0</ele>
        <time>2018-05-19T15:49:24.470Z</time>
      </trkpt>
      <trkpt lat="43.18680167" lon="-4.29752167">
        <ele>490.0</ele>
        <time>2018-05-19T15:49:25.476Z</time>
      </trkpt>
      <trkpt lat="43.18690167" lon="-4.29749167">
        <ele>489.0</ele>
        <time>2018-05-19T15:49:26.468Z</time>
      </trkpt>
      <trkpt lat="43.18690167" lon="-4.29749167">
        <ele>489.0</ele>
        <time>2018-05-19T15:49:27.466Z</time>
      </trkpt>
      <trkpt lat="43.187" lon="-4.29743667">
        <ele>489.0</ele>
        <time>2018-05-19T15:49:28.468Z</time>
      </trkpt>
      <trkpt lat="43.18704667" lon="-4.29740333">
        <ele>489.0</ele>
        <time>2018-05-19T15:49:29.469Z</time>
      </trkpt>
      <trkpt lat="43.18704667" lon="-4.29740333">
        <ele>489.0</ele>
        <time>2018-05-19T15:49:30.468Z</time>
      </trkpt>
      <trkpt lat="43.18713667" lon="-4.29732">
        <ele>489.0</ele>
        <time>2018-05-19T15:49:31.468Z</time>
      </trkpt>
      <trkpt lat="43.18718" lon="-4.29727">
        <ele>489.0</ele>
        <time>2018-05-19T15:49:32.468Z</time>
      </trkpt>
      <trkpt lat="43.18718" lon="-4.29727">
        <ele>489.0</ele>
        <time>2018-05-19T15:49:33.464Z</time>
      </trkpt>
      <trkpt lat="43.18725833" lon="-4.29716">
        <ele>489.0</ele>
        <time>2018-05-19T15:49:34.449Z</time>
      </trkpt>
      <trkpt lat="43.18729167" lon="-4.29710167">
        <ele>489.0</ele>
        <time>2018-05-19T15:49:35.477Z</time>
      </trkpt>
      <trkpt lat="43.187325" lon="-4.29704">
        <ele>488.0</ele>
        <time>2018-05-19T15:49:36.469Z</time>
      </trkpt>
      <trkpt lat="43.187325" lon="-4.29704">
        <ele>488.0</ele>
        <time>2018-05-19T15:49:37.463Z</time>
      </trkpt>
      <trkpt lat="43.18739" lon="-4.29691333">
        <ele>488.0</ele>
        <time>2018-05-19T15:49:38.486Z</time>
      </trkpt>
      <trkpt lat="43.18739" lon="-4.29691333">
        <ele>488.0</ele>
        <time>2018-05-19T15:49:39.471Z</time>
      </trkpt>
      <trkpt lat="43.18745667" lon="-4.29679167">
        <ele>488.0</ele>
        <time>2018-05-19T15:49:40.467Z</time>
      </trkpt>
      <trkpt lat="43.18749167" lon="-4.29673667">
        <ele>489.0</ele>
        <time>2018-05-19T15:49:41.467Z</time>
      </trkpt>
      <trkpt lat="43.18752667" lon="-4.29668333">
        <ele>489.0</ele>
        <time>2018-05-19T15:49:42.470Z</time>
      </trkpt>
      <trkpt lat="43.18752667" lon="-4.29668333">
        <ele>489.0</ele>
        <time>2018-05-19T15:49:43.459Z</time>
      </trkpt>
      <trkpt lat="43.1876" lon="-4.296585">
        <ele>489.0</ele>
        <time>2018-05-19T15:49:44.485Z</time>
      </trkpt>
      <trkpt lat="43.1876" lon="-4.296585">
        <ele>489.0</ele>
        <time>2018-05-19T15:49:45.471Z</time>
      </trkpt>
      <trkpt lat="43.18767333" lon="-4.29650333">
        <ele>490.0</ele>
        <time>2018-05-19T15:49:46.468Z</time>
      </trkpt>
      <trkpt lat="43.18767333" lon="-4.29650333">
        <ele>490.0</ele>
        <time>2018-05-19T15:49:47.466Z</time>
      </trkpt>
      <trkpt lat="43.18775833" lon="-4.29642833">
        <ele>490.0</ele>
        <time>2018-05-19T15:49:48.471Z</time>
      </trkpt>
      <trkpt lat="43.18775833" lon="-4.29642833">
        <ele>490.0</ele>
        <time>2018-05-19T15:49:49.465Z</time>
      </trkpt>
      <trkpt lat="43.18785333" lon="-4.29633833">
        <ele>489.0</ele>
        <time>2018-05-19T15:49:50.475Z</time>
      </trkpt>
      <trkpt lat="43.1879" lon="-4.29628833">
        <ele>489.0</ele>
        <time>2018-05-19T15:49:51.469Z</time>
      </trkpt>
      <trkpt lat="43.1879" lon="-4.29628833">
        <ele>489.0</ele>
        <time>2018-05-19T15:49:52.465Z</time>
      </trkpt>
      <trkpt lat="43.187995" lon="-4.29618167">
        <ele>488.0</ele>
        <time>2018-05-19T15:49:53.486Z</time>
      </trkpt>
      <trkpt lat="43.187995" lon="-4.29618167">
        <ele>488.0</ele>
        <time>2018-05-19T15:49:54.471Z</time>
      </trkpt>
      <trkpt lat="43.18809" lon="-4.29604667">
        <ele>487.0</ele>
        <time>2018-05-19T15:49:55.467Z</time>
      </trkpt>
      <trkpt lat="43.18814" lon="-4.29597333">
        <ele>487.0</ele>
        <time>2018-05-19T15:49:56.468Z</time>
      </trkpt>
      <trkpt lat="43.18814" lon="-4.29597333">
        <ele>487.0</ele>
        <time>2018-05-19T15:49:57.473Z</time>
      </trkpt>
      <trkpt lat="43.188245" lon="-4.295825">
        <ele>486.0</ele>
        <time>2018-05-19T15:49:58.473Z</time>
      </trkpt>
      <trkpt lat="43.188305" lon="-4.29574667">
        <ele>486.0</ele>
        <time>2018-05-19T15:49:59.473Z</time>
      </trkpt>
      <trkpt lat="43.188305" lon="-4.29574667">
        <ele>486.0</ele>
        <time>2018-05-19T15:50:00.467Z</time>
      </trkpt>
      <trkpt lat="43.18843833" lon="-4.29558333">
        <ele>485.0</ele>
        <time>2018-05-19T15:50:01.468Z</time>
      </trkpt>
      <trkpt lat="43.18853833" lon="-4.29551">
        <ele>482.0</ele>
        <time>2018-05-19T15:50:02.468Z</time>
      </trkpt>
      <trkpt lat="43.18853833" lon="-4.29551">
        <ele>482.0</ele>
        <time>2018-05-19T15:50:03.473Z</time>
      </trkpt>
      <trkpt lat="43.188755" lon="-4.29540667">
        <ele>480.0</ele>
        <time>2018-05-19T15:50:04.486Z</time>
      </trkpt>
      <trkpt lat="43.188755" lon="-4.29540667">
        <ele>480.0</ele>
        <time>2018-05-19T15:50:05.472Z</time>
      </trkpt>
      <trkpt lat="43.18897" lon="-4.29536833">
        <ele>478.0</ele>
        <time>2018-05-19T15:50:06.467Z</time>
      </trkpt>
      <trkpt lat="43.18897" lon="-4.29536833">
        <ele>478.0</ele>
        <time>2018-05-19T15:50:07.462Z</time>
      </trkpt>
      <trkpt lat="43.18917333" lon="-4.295285">
        <ele>477.0</ele>
        <time>2018-05-19T15:50:08.468Z</time>
      </trkpt>
      <trkpt lat="43.18917333" lon="-4.295285">
        <ele>477.0</ele>
        <time>2018-05-19T15:50:09.465Z</time>
      </trkpt>
      <trkpt lat="43.18936" lon="-4.29519">
        <ele>476.0</ele>
        <time>2018-05-19T15:50:10.468Z</time>
      </trkpt>
      <trkpt lat="43.18936" lon="-4.29519">
        <ele>476.0</ele>
        <time>2018-05-19T15:50:11.462Z</time>
      </trkpt>
      <trkpt lat="43.18953833" lon="-4.29510833">
        <ele>475.0</ele>
        <time>2018-05-19T15:50:12.469Z</time>
      </trkpt>
      <trkpt lat="43.18953833" lon="-4.29510833">
        <ele>475.0</ele>
        <time>2018-05-19T15:50:13.470Z</time>
      </trkpt>
      <trkpt lat="43.18970833" lon="-4.29505333">
        <ele>473.0</ele>
        <time>2018-05-19T15:50:14.468Z</time>
      </trkpt>
      <trkpt lat="43.18970833" lon="-4.29505333">
        <ele>473.0</ele>
        <time>2018-05-19T15:50:15.465Z</time>
      </trkpt>
      <trkpt lat="43.18988" lon="-4.29500833">
        <ele>472.0</ele>
        <time>2018-05-19T15:50:16.468Z</time>
      </trkpt>
      <trkpt lat="43.18988" lon="-4.29500833">
        <ele>472.0</ele>
        <time>2018-05-19T15:50:17.465Z</time>
      </trkpt>
      <trkpt lat="43.19004667" lon="-4.29497167">
        <ele>473.0</ele>
        <time>2018-05-19T15:50:18.471Z</time>
      </trkpt>
      <trkpt lat="43.19004667" lon="-4.29497167">
        <ele>473.0</ele>
        <time>2018-05-19T15:50:19.465Z</time>
      </trkpt>
      <trkpt lat="43.19020833" lon="-4.294935">
        <ele>473.0</ele>
        <time>2018-05-19T15:50:20.469Z</time>
      </trkpt>
      <trkpt lat="43.19020833" lon="-4.294935">
        <ele>473.0</ele>
        <time>2018-05-19T15:50:21.466Z</time>
      </trkpt>
      <trkpt lat="43.19035667" lon="-4.2949">
        <ele>472.0</ele>
        <time>2018-05-19T15:50:22.467Z</time>
      </trkpt>
      <trkpt lat="43.19035667" lon="-4.2949">
        <ele>472.0</ele>
        <time>2018-05-19T15:50:23.479Z</time>
      </trkpt>
      <trkpt lat="43.1905" lon="-4.29486833">
        <ele>473.0</ele>
        <time>2018-05-19T15:50:24.450Z</time>
      </trkpt>
      <trkpt lat="43.1905" lon="-4.29486833">
        <ele>473.0</ele>
        <time>2018-05-19T15:50:25.484Z</time>
      </trkpt>
      <trkpt lat="43.19064167" lon="-4.29482833">
        <ele>472.0</ele>
        <time>2018-05-19T15:50:26.469Z</time>
      </trkpt>
      <trkpt lat="43.19064167" lon="-4.29482833">
        <ele>472.0</ele>
        <time>2018-05-19T15:50:27.463Z</time>
      </trkpt>
      <trkpt lat="43.19077667" lon="-4.29478">
        <ele>472.0</ele>
        <time>2018-05-19T15:50:28.467Z</time>
      </trkpt>
      <trkpt lat="43.19084667" lon="-4.29475667">
        <ele>472.0</ele>
        <time>2018-05-19T15:50:29.468Z</time>
      </trkpt>
      <trkpt lat="43.190925" lon="-4.29474333">
        <ele>471.0</ele>
        <time>2018-05-19T15:50:30.469Z</time>
      </trkpt>
      <trkpt lat="43.190925" lon="-4.29474333">
        <ele>471.0</ele>
        <time>2018-05-19T15:50:31.463Z</time>
      </trkpt>
      <trkpt lat="43.19111167" lon="-4.294735">
        <ele>470.0</ele>
        <time>2018-05-19T15:50:32.469Z</time>
      </trkpt>
      <trkpt lat="43.19111167" lon="-4.294735">
        <ele>470.0</ele>
        <time>2018-05-19T15:50:33.469Z</time>
      </trkpt>
      <trkpt lat="43.19130167" lon="-4.29476167">
        <ele>469.0</ele>
        <time>2018-05-19T15:50:34.471Z</time>
      </trkpt>
      <trkpt lat="43.19130167" lon="-4.29476167">
        <ele>469.0</ele>
        <time>2018-05-19T15:50:35.463Z</time>
      </trkpt>
      <trkpt lat="43.19146167" lon="-4.29483167">
        <ele>467.0</ele>
        <time>2018-05-19T15:50:36.467Z</time>
      </trkpt>
      <trkpt lat="43.19146167" lon="-4.29483167">
        <ele>467.0</ele>
        <time>2018-05-19T15:50:37.466Z</time>
      </trkpt>
      <trkpt lat="43.19155" lon="-4.29497333">
        <ele>466.0</ele>
        <time>2018-05-19T15:50:38.469Z</time>
      </trkpt>
      <trkpt lat="43.19155" lon="-4.29497333">
        <ele>466.0</ele>
        <time>2018-05-19T15:50:39.466Z</time>
      </trkpt>
      <trkpt lat="43.19158" lon="-4.29518667">
        <ele>465.0</ele>
        <time>2018-05-19T15:50:40.469Z</time>
      </trkpt>
      <trkpt lat="43.19158" lon="-4.29518667">
        <ele>465.0</ele>
        <time>2018-05-19T15:50:41.465Z</time>
      </trkpt>
      <trkpt lat="43.19157833" lon="-4.29544">
        <ele>463.0</ele>
        <time>2018-05-19T15:50:42.470Z</time>
      </trkpt>
      <trkpt lat="43.19157833" lon="-4.29544">
        <ele>463.0</ele>
        <time>2018-05-19T15:50:43.469Z</time>
      </trkpt>
      <trkpt lat="43.191595" lon="-4.29569667">
        <ele>461.0</ele>
        <time>2018-05-19T15:50:44.469Z</time>
      </trkpt>
      <trkpt lat="43.191595" lon="-4.29569667">
        <ele>461.0</ele>
        <time>2018-05-19T15:50:45.465Z</time>
      </trkpt>
      <trkpt lat="43.19163167" lon="-4.29595333">
        <ele>460.0</ele>
        <time>2018-05-19T15:50:46.468Z</time>
      </trkpt>
      <trkpt lat="43.19163167" lon="-4.29595333">
        <ele>460.0</ele>
        <time>2018-05-19T15:50:47.473Z</time>
      </trkpt>
      <trkpt lat="43.19174333" lon="-4.29619">
        <ele>458.0</ele>
        <time>2018-05-19T15:50:48.467Z</time>
      </trkpt>
      <trkpt lat="43.19174333" lon="-4.29619">
        <ele>458.0</ele>
        <time>2018-05-19T15:50:49.466Z</time>
      </trkpt>
      <trkpt lat="43.19187833" lon="-4.29639667">
        <ele>456.0</ele>
        <time>2018-05-19T15:50:50.469Z</time>
      </trkpt>
      <trkpt lat="43.19187833" lon="-4.29639667">
        <ele>456.0</ele>
        <time>2018-05-19T15:50:51.465Z</time>
      </trkpt>
      <trkpt lat="43.19198833" lon="-4.29657333">
        <ele>455.0</ele>
        <time>2018-05-19T15:50:52.468Z</time>
      </trkpt>
      <trkpt lat="43.19198833" lon="-4.29657333">
        <ele>455.0</ele>
        <time>2018-05-19T15:50:53.465Z</time>
      </trkpt>
      <trkpt lat="43.19209" lon="-4.2967">
        <ele>453.0</ele>
        <time>2018-05-19T15:50:54.477Z</time>
      </trkpt>
      <trkpt lat="43.19209" lon="-4.2967">
        <ele>453.0</ele>
        <time>2018-05-19T15:50:55.465Z</time>
      </trkpt>
      <trkpt lat="43.192235" lon="-4.29672667">
        <ele>451.0</ele>
        <time>2018-05-19T15:50:56.466Z</time>
      </trkpt>
      <trkpt lat="43.192235" lon="-4.29672667">
        <ele>451.0</ele>
        <time>2018-05-19T15:50:57.463Z</time>
      </trkpt>
      <trkpt lat="43.192405" lon="-4.29671">
        <ele>448.0</ele>
        <time>2018-05-19T15:50:58.467Z</time>
      </trkpt>
      <trkpt lat="43.192405" lon="-4.29671">
        <ele>448.0</ele>
        <time>2018-05-19T15:50:59.466Z</time>
      </trkpt>
      <trkpt lat="43.19261" lon="-4.29672">
        <ele>446.0</ele>
        <time>2018-05-19T15:51:00.469Z</time>
      </trkpt>
      <trkpt lat="43.19261" lon="-4.29672">
        <ele>446.0</ele>
        <time>2018-05-19T15:51:01.462Z</time>
      </trkpt>
      <trkpt lat="43.192825" lon="-4.296815">
        <ele>443.0</ele>
        <time>2018-05-19T15:51:02.469Z</time>
      </trkpt>
      <trkpt lat="43.192825" lon="-4.296815">
        <ele>443.0</ele>
        <time>2018-05-19T15:51:03.466Z</time>
      </trkpt>
      <trkpt lat="43.19301833" lon="-4.29703">
        <ele>440.0</ele>
        <time>2018-05-19T15:51:04.470Z</time>
      </trkpt>
      <trkpt lat="43.19301833" lon="-4.29703">
        <ele>440.0</ele>
        <time>2018-05-19T15:51:05.464Z</time>
      </trkpt>
      <trkpt lat="43.19319" lon="-4.29729167">
        <ele>436.0</ele>
        <time>2018-05-19T15:51:06.470Z</time>
      </trkpt>
      <trkpt lat="43.19319" lon="-4.29729167">
        <ele>436.0</ele>
        <time>2018-05-19T15:51:07.464Z</time>
      </trkpt>
      <trkpt lat="43.19334833" lon="-4.29751333">
        <ele>433.0</ele>
        <time>2018-05-19T15:51:08.469Z</time>
      </trkpt>
      <trkpt lat="43.19334833" lon="-4.29751333">
        <ele>433.0</ele>
        <time>2018-05-19T15:51:09.464Z</time>
      </trkpt>
      <trkpt lat="43.193515" lon="-4.29764">
        <ele>430.0</ele>
        <time>2018-05-19T15:51:10.468Z</time>
      </trkpt>
      <trkpt lat="43.193515" lon="-4.29764">
        <ele>430.0</ele>
        <time>2018-05-19T15:51:11.465Z</time>
      </trkpt>
      <trkpt lat="43.19372833" lon="-4.29764">
        <ele>425.0</ele>
        <time>2018-05-19T15:51:12.471Z</time>
      </trkpt>
      <trkpt lat="43.19372833" lon="-4.29764">
        <ele>425.0</ele>
        <time>2018-05-19T15:51:13.466Z</time>
      </trkpt>
      <trkpt lat="43.19395833" lon="-4.29762167">
        <ele>422.0</ele>
        <time>2018-05-19T15:51:14.466Z</time>
      </trkpt>
      <trkpt lat="43.19408167" lon="-4.297645">
        <ele>418.0</ele>
        <time>2018-05-19T15:51:15.469Z</time>
      </trkpt>
      <trkpt lat="43.19408167" lon="-4.297645">
        <ele>418.0</ele>
        <time>2018-05-19T15:51:16.466Z</time>
      </trkpt>
      <trkpt lat="43.194295" lon="-4.29774333">
        <ele>414.0</ele>
        <time>2018-05-19T15:51:17.475Z</time>
      </trkpt>
      <trkpt lat="43.19438833" lon="-4.29781667">
        <ele>413.0</ele>
        <time>2018-05-19T15:51:18.466Z</time>
      </trkpt>
      <trkpt lat="43.19438833" lon="-4.29781667">
        <ele>413.0</ele>
        <time>2018-05-19T15:51:19.463Z</time>
      </trkpt>
      <trkpt lat="43.19453833" lon="-4.29801333">
        <ele>410.0</ele>
        <time>2018-05-19T15:51:20.469Z</time>
      </trkpt>
      <trkpt lat="43.19453833" lon="-4.29801333">
        <ele>410.0</ele>
        <time>2018-05-19T15:51:21.465Z</time>
      </trkpt>
      <trkpt lat="43.19463833" lon="-4.29826">
        <ele>408.0</ele>
        <time>2018-05-19T15:51:22.468Z</time>
      </trkpt>
      <trkpt lat="43.19467167" lon="-4.29837">
        <ele>407.0</ele>
        <time>2018-05-19T15:51:23.487Z</time>
      </trkpt>
      <trkpt lat="43.1947" lon="-4.29845833">
        <ele>406.0</ele>
        <time>2018-05-19T15:51:24.475Z</time>
      </trkpt>
      <trkpt lat="43.1947" lon="-4.29845833">
        <ele>406.0</ele>
        <time>2018-05-19T15:51:25.466Z</time>
      </trkpt>
      <trkpt lat="43.194795" lon="-4.298535">
        <ele>404.0</ele>
        <time>2018-05-19T15:51:26.467Z</time>
      </trkpt>
      <trkpt lat="43.194795" lon="-4.298535">
        <ele>404.0</ele>
        <time>2018-05-19T15:51:27.465Z</time>
      </trkpt>
      <trkpt lat="43.19492167" lon="-4.29844667">
        <ele>402.0</ele>
        <time>2018-05-19T15:51:28.469Z</time>
      </trkpt>
      <trkpt lat="43.19492167" lon="-4.29844667">
        <ele>402.0</ele>
        <time>2018-05-19T15:51:29.466Z</time>
      </trkpt>
      <trkpt lat="43.195035" lon="-4.29825833">
        <ele>401.0</ele>
        <time>2018-05-19T15:51:30.469Z</time>
      </trkpt>
      <trkpt lat="43.195035" lon="-4.29825833">
        <ele>401.0</ele>
        <time>2018-05-19T15:51:31.466Z</time>
      </trkpt>
      <trkpt lat="43.195155" lon="-4.29805">
        <ele>399.0</ele>
        <time>2018-05-19T15:51:32.469Z</time>
      </trkpt>
      <trkpt lat="43.195155" lon="-4.29805">
        <ele>399.0</ele>
        <time>2018-05-19T15:51:33.466Z</time>
      </trkpt>
      <trkpt lat="43.19527833" lon="-4.29781833">
        <ele>398.0</ele>
        <time>2018-05-19T15:51:34.460Z</time>
      </trkpt>
      <trkpt lat="43.19533" lon="-4.29768833">
        <ele>397.0</ele>
        <time>2018-05-19T15:51:35.468Z</time>
      </trkpt>
      <trkpt lat="43.19538" lon="-4.29755167">
        <ele>396.0</ele>
        <time>2018-05-19T15:51:36.471Z</time>
      </trkpt>
      <trkpt lat="43.19538" lon="-4.29755167">
        <ele>396.0</ele>
        <time>2018-05-19T15:51:37.465Z</time>
      </trkpt>
      <trkpt lat="43.19545833" lon="-4.29728">
        <ele>395.0</ele>
        <time>2018-05-19T15:51:38.468Z</time>
      </trkpt>
      <trkpt lat="43.19545833" lon="-4.29728">
        <ele>395.0</ele>
        <time>2018-05-19T15:51:39.464Z</time>
      </trkpt>
      <trkpt lat="43.195515" lon="-4.29708833">
        <ele>393.0</ele>
        <time>2018-05-19T15:51:40.468Z</time>
      </trkpt>
      <trkpt lat="43.195515" lon="-4.29708833">
        <ele>393.0</ele>
        <time>2018-05-19T15:51:41.466Z</time>
      </trkpt>
      <trkpt lat="43.195585" lon="-4.29702833">
        <ele>391.0</ele>
        <time>2018-05-19T15:51:42.469Z</time>
      </trkpt>
      <trkpt lat="43.195585" lon="-4.29702833">
        <ele>391.0</ele>
        <time>2018-05-19T15:51:43.465Z</time>
      </trkpt>
      <trkpt lat="43.19568667" lon="-4.297155">
        <ele>389.0</ele>
        <time>2018-05-19T15:51:44.479Z</time>
      </trkpt>
      <trkpt lat="43.19568667" lon="-4.297155">
        <ele>389.0</ele>
        <time>2018-05-19T15:51:45.465Z</time>
      </trkpt>
      <trkpt lat="43.19575" lon="-4.29737167">
        <ele>387.0</ele>
        <time>2018-05-19T15:51:46.467Z</time>
      </trkpt>
      <trkpt lat="43.19577833" lon="-4.297505">
        <ele>386.0</ele>
        <time>2018-05-19T15:51:47.478Z</time>
      </trkpt>
      <trkpt lat="43.19581333" lon="-4.29763833">
        <ele>385.0</ele>
        <time>2018-05-19T15:51:48.469Z</time>
      </trkpt>
      <trkpt lat="43.19585667" lon="-4.29777">
        <ele>384.0</ele>
        <time>2018-05-19T15:51:49.465Z</time>
      </trkpt>
      <trkpt lat="43.19585667" lon="-4.29777">
        <ele>384.0</ele>
        <time>2018-05-19T15:51:50.466Z</time>
      </trkpt>
      <trkpt lat="43.19591667" lon="-4.29804667">
        <ele>382.0</ele>
        <time>2018-05-19T15:51:51.467Z</time>
      </trkpt>
      <trkpt lat="43.19595167" lon="-4.29818833">
        <ele>381.0</ele>
        <time>2018-05-19T15:51:52.465Z</time>
      </trkpt>
      <trkpt lat="43.19599833" lon="-4.29833167">
        <ele>380.0</ele>
        <time>2018-05-19T15:51:53.468Z</time>
      </trkpt>
      <trkpt lat="43.19599833" lon="-4.29833167">
        <ele>380.0</ele>
        <time>2018-05-19T15:51:54.488Z</time>
      </trkpt>
      <trkpt lat="43.19608" lon="-4.29862667">
        <ele>378.0</ele>
        <time>2018-05-19T15:51:55.474Z</time>
      </trkpt>
      <trkpt lat="43.19613833" lon="-4.29877167">
        <ele>377.0</ele>
        <time>2018-05-19T15:51:56.469Z</time>
      </trkpt>
      <trkpt lat="43.19613833" lon="-4.29877167">
        <ele>377.0</ele>
        <time>2018-05-19T15:51:57.462Z</time>
      </trkpt>
      <trkpt lat="43.19623167" lon="-4.29906667">
        <ele>374.0</ele>
        <time>2018-05-19T15:51:58.468Z</time>
      </trkpt>
      <trkpt lat="43.19626667" lon="-4.29920333">
        <ele>373.0</ele>
        <time>2018-05-19T15:51:59.469Z</time>
      </trkpt>
      <trkpt lat="43.19630667" lon="-4.29933167">
        <ele>372.0</ele>
        <time>2018-05-19T15:52:00.469Z</time>
      </trkpt>
      <trkpt lat="43.19630667" lon="-4.29933167">
        <ele>372.0</ele>
        <time>2018-05-19T15:52:01.463Z</time>
      </trkpt>
      <trkpt lat="43.196435" lon="-4.299515">
        <ele>369.0</ele>
        <time>2018-05-19T15:52:02.484Z</time>
      </trkpt>
      <trkpt lat="43.196435" lon="-4.299515">
        <ele>369.0</ele>
        <time>2018-05-19T15:52:03.469Z</time>
      </trkpt>
      <trkpt lat="43.19659333" lon="-4.29966833">
        <ele>367.0</ele>
        <time>2018-05-19T15:52:04.473Z</time>
      </trkpt>
      <trkpt lat="43.19659333" lon="-4.29966833">
        <ele>367.0</ele>
        <time>2018-05-19T15:52:05.471Z</time>
      </trkpt>
      <trkpt lat="43.19669167" lon="-4.299905">
        <ele>365.0</ele>
        <time>2018-05-19T15:52:06.469Z</time>
      </trkpt>
      <trkpt lat="43.19669167" lon="-4.299905">
        <ele>365.0</ele>
        <time>2018-05-19T15:52:07.465Z</time>
      </trkpt>
      <trkpt lat="43.19671333" lon="-4.300185">
        <ele>362.0</ele>
        <time>2018-05-19T15:52:08.469Z</time>
      </trkpt>
      <trkpt lat="43.19671333" lon="-4.300185">
        <ele>362.0</ele>
        <time>2018-05-19T15:52:09.466Z</time>
      </trkpt>
      <trkpt lat="43.19675" lon="-4.30047333">
        <ele>360.0</ele>
        <time>2018-05-19T15:52:10.468Z</time>
      </trkpt>
      <trkpt lat="43.19675" lon="-4.30047333">
        <ele>360.0</ele>
        <time>2018-05-19T15:52:11.466Z</time>
      </trkpt>
      <trkpt lat="43.19685833" lon="-4.300685">
        <ele>358.0</ele>
        <time>2018-05-19T15:52:12.470Z</time>
      </trkpt>
      <trkpt lat="43.19685833" lon="-4.300685">
        <ele>358.0</ele>
        <time>2018-05-19T15:52:13.465Z</time>
      </trkpt>
      <trkpt lat="43.19702667" lon="-4.30084">
        <ele>355.0</ele>
        <time>2018-05-19T15:52:14.479Z</time>
      </trkpt>
      <trkpt lat="43.19702667" lon="-4.30084">
        <ele>355.0</ele>
        <time>2018-05-19T15:52:15.463Z</time>
      </trkpt>
      <trkpt lat="43.19718667" lon="-4.30100167">
        <ele>352.0</ele>
        <time>2018-05-19T15:52:16.467Z</time>
      </trkpt>
      <trkpt lat="43.19726" lon="-4.30107833">
        <ele>351.0</ele>
        <time>2018-05-19T15:52:17.476Z</time>
      </trkpt>
      <trkpt lat="43.19734" lon="-4.30112833">
        <ele>350.0</ele>
        <time>2018-05-19T15:52:18.469Z</time>
      </trkpt>
      <trkpt lat="43.19742833" lon="-4.30113833">
        <ele>348.0</ele>
        <time>2018-05-19T15:52:19.468Z</time>
      </trkpt>
      <trkpt lat="43.19751333" lon="-4.30110833">
        <ele>346.0</ele>
        <time>2018-05-19T15:52:20.469Z</time>
      </trkpt>
      <trkpt lat="43.19751333" lon="-4.30110833">
        <ele>346.0</ele>
        <time>2018-05-19T15:52:21.465Z</time>
      </trkpt>
      <trkpt lat="43.19767" lon="-4.300985">
        <ele>345.0</ele>
        <time>2018-05-19T15:52:22.468Z</time>
      </trkpt>
      <trkpt lat="43.19767" lon="-4.300985">
        <ele>345.0</ele>
        <time>2018-05-19T15:52:23.471Z</time>
      </trkpt>
      <trkpt lat="43.19783667" lon="-4.30088">
        <ele>343.0</ele>
        <time>2018-05-19T15:52:24.478Z</time>
      </trkpt>
      <trkpt lat="43.19783667" lon="-4.30088">
        <ele>343.0</ele>
        <time>2018-05-19T15:52:25.466Z</time>
      </trkpt>
      <trkpt lat="43.19800833" lon="-4.30077333">
        <ele>342.0</ele>
        <time>2018-05-19T15:52:26.468Z</time>
      </trkpt>
      <trkpt lat="43.19800833" lon="-4.30077333">
        <ele>342.0</ele>
        <time>2018-05-19T15:52:27.465Z</time>
      </trkpt>
      <trkpt lat="43.19818667" lon="-4.30065667">
        <ele>340.0</ele>
        <time>2018-05-19T15:52:28.467Z</time>
      </trkpt>
      <trkpt lat="43.19827333" lon="-4.30058833">
        <ele>339.0</ele>
        <time>2018-05-19T15:52:29.486Z</time>
      </trkpt>
      <trkpt lat="43.19827333" lon="-4.30058833">
        <ele>339.0</ele>
        <time>2018-05-19T15:52:30.468Z</time>
      </trkpt>
      <trkpt lat="43.19843" lon="-4.30042667">
        <ele>337.0</ele>
        <time>2018-05-19T15:52:31.467Z</time>
      </trkpt>
      <trkpt lat="43.1985" lon="-4.30035333">
        <ele>336.0</ele>
        <time>2018-05-19T15:52:32.468Z</time>
      </trkpt>
      <trkpt lat="43.1985" lon="-4.30035333">
        <ele>336.0</ele>
        <time>2018-05-19T15:52:33.466Z</time>
      </trkpt>
      <trkpt lat="43.19861833" lon="-4.30028333">
        <ele>334.0</ele>
        <time>2018-05-19T15:52:34.468Z</time>
      </trkpt>
      <trkpt lat="43.19861833" lon="-4.30028333">
        <ele>334.0</ele>
        <time>2018-05-19T15:52:35.470Z</time>
      </trkpt>
      <trkpt lat="43.19873167" lon="-4.300325">
        <ele>332.0</ele>
        <time>2018-05-19T15:52:36.468Z</time>
      </trkpt>
      <trkpt lat="43.19873167" lon="-4.300325">
        <ele>332.0</ele>
        <time>2018-05-19T15:52:37.465Z</time>
      </trkpt>
      <trkpt lat="43.19874833" lon="-4.30053167">
        <ele>330.0</ele>
        <time>2018-05-19T15:52:38.467Z</time>
      </trkpt>
      <trkpt lat="43.19874833" lon="-4.30053167">
        <ele>330.0</ele>
        <time>2018-05-19T15:52:39.465Z</time>
      </trkpt>
      <trkpt lat="43.19870833" lon="-4.30076667">
        <ele>327.0</ele>
        <time>2018-05-19T15:52:40.469Z</time>
      </trkpt>
      <trkpt lat="43.19870833" lon="-4.30076667">
        <ele>327.0</ele>
        <time>2018-05-19T15:52:41.465Z</time>
      </trkpt>
      <trkpt lat="43.19862833" lon="-4.30093">
        <ele>325.0</ele>
        <time>2018-05-19T15:52:42.469Z</time>
      </trkpt>
      <trkpt lat="43.19862833" lon="-4.30093">
        <ele>325.0</ele>
        <time>2018-05-19T15:52:43.465Z</time>
      </trkpt>
      <trkpt lat="43.198535" lon="-4.30105333">
        <ele>322.0</ele>
        <time>2018-05-19T15:52:44.474Z</time>
      </trkpt>
      <trkpt lat="43.198525" lon="-4.30112167">
        <ele>321.0</ele>
        <time>2018-05-19T15:52:45.468Z</time>
      </trkpt>
      <trkpt lat="43.198525" lon="-4.30112167">
        <ele>321.0</ele>
        <time>2018-05-19T15:52:46.465Z</time>
      </trkpt>
      <trkpt lat="43.19855667" lon="-4.30124667">
        <ele>319.0</ele>
        <time>2018-05-19T15:52:47.483Z</time>
      </trkpt>
      <trkpt lat="43.19855667" lon="-4.30124667">
        <ele>319.0</ele>
        <time>2018-05-19T15:52:48.468Z</time>
      </trkpt>
      <trkpt lat="43.19860833" lon="-4.30129833">
        <ele>317.0</ele>
        <time>2018-05-19T15:52:49.468Z</time>
      </trkpt>
      <trkpt lat="43.19866167" lon="-4.30122333">
        <ele>316.0</ele>
        <time>2018-05-19T15:52:50.469Z</time>
      </trkpt>
      <trkpt lat="43.19866167" lon="-4.30122333">
        <ele>316.0</ele>
        <time>2018-05-19T15:52:51.465Z</time>
      </trkpt>
      <trkpt lat="43.19879833" lon="-4.30104333">
        <ele>314.0</ele>
        <time>2018-05-19T15:52:52.467Z</time>
      </trkpt>
      <trkpt lat="43.19879833" lon="-4.30104333">
        <ele>314.0</ele>
        <time>2018-05-19T15:52:53.463Z</time>
      </trkpt>
      <trkpt lat="43.19894" lon="-4.30088333">
        <ele>313.0</ele>
        <time>2018-05-19T15:52:54.470Z</time>
      </trkpt>
      <trkpt lat="43.19894" lon="-4.30088333">
        <ele>313.0</ele>
        <time>2018-05-19T15:52:55.465Z</time>
      </trkpt>
      <trkpt lat="43.199115" lon="-4.30073833">
        <ele>311.0</ele>
        <time>2018-05-19T15:52:56.467Z</time>
      </trkpt>
      <trkpt lat="43.199115" lon="-4.30073833">
        <ele>311.0</ele>
        <time>2018-05-19T15:52:57.482Z</time>
      </trkpt>
      <trkpt lat="43.19926833" lon="-4.30063">
        <ele>309.0</ele>
        <time>2018-05-19T15:52:58.468Z</time>
      </trkpt>
      <trkpt lat="43.19933833" lon="-4.30059">
        <ele>308.0</ele>
        <time>2018-05-19T15:52:59.468Z</time>
      </trkpt>
      <trkpt lat="43.19933833" lon="-4.30059">
        <ele>308.0</ele>
        <time>2018-05-19T15:53:00.465Z</time>
      </trkpt>
      <trkpt lat="43.199485" lon="-4.30055333">
        <ele>306.0</ele>
        <time>2018-05-19T15:53:01.467Z</time>
      </trkpt>
      <trkpt lat="43.199565" lon="-4.30055333">
        <ele>305.0</ele>
        <time>2018-05-19T15:53:02.468Z</time>
      </trkpt>
      <trkpt lat="43.199565" lon="-4.30055333">
        <ele>305.0</ele>
        <time>2018-05-19T15:53:03.465Z</time>
      </trkpt>
      <trkpt lat="43.19977167" lon="-4.30056">
        <ele>303.0</ele>
        <time>2018-05-19T15:53:04.465Z</time>
      </trkpt>
      <trkpt lat="43.19977167" lon="-4.30056">
        <ele>303.0</ele>
        <time>2018-05-19T15:53:05.464Z</time>
      </trkpt>
      <trkpt lat="43.19995667" lon="-4.30052833">
        <ele>300.0</ele>
        <time>2018-05-19T15:53:06.469Z</time>
      </trkpt>
      <trkpt lat="43.19995667" lon="-4.30052833">
        <ele>300.0</ele>
        <time>2018-05-19T15:53:07.465Z</time>
      </trkpt>
      <trkpt lat="43.2001" lon="-4.30046">
        <ele>298.0</ele>
        <time>2018-05-19T15:53:08.467Z</time>
      </trkpt>
      <trkpt lat="43.2001" lon="-4.30046">
        <ele>298.0</ele>
        <time>2018-05-19T15:53:09.462Z</time>
      </trkpt>
      <trkpt lat="43.20022" lon="-4.30044">
        <ele>296.0</ele>
        <time>2018-05-19T15:53:10.468Z</time>
      </trkpt>
      <trkpt lat="43.20022" lon="-4.30044">
        <ele>296.0</ele>
        <time>2018-05-19T15:53:11.463Z</time>
      </trkpt>
      <trkpt lat="43.20019667" lon="-4.300515">
        <ele>294.0</ele>
        <time>2018-05-19T15:53:12.468Z</time>
      </trkpt>
      <trkpt lat="43.200185" lon="-4.30054667">
        <ele>294.0</ele>
        <time>2018-05-19T15:53:13.468Z</time>
      </trkpt>
      <trkpt lat="43.200185" lon="-4.30054667">
        <ele>294.0</ele>
        <time>2018-05-19T15:53:14.463Z</time>
      </trkpt>
      <trkpt lat="43.20012167" lon="-4.3006">
        <ele>292.0</ele>
        <time>2018-05-19T15:53:15.464Z</time>
      </trkpt>
      <trkpt lat="43.20008833" lon="-4.30062833">
        <ele>291.0</ele>
        <time>2018-05-19T15:53:16.467Z</time>
      </trkpt>
      <trkpt lat="43.20008833" lon="-4.30062833">
        <ele>291.0</ele>
        <time>2018-05-19T15:53:17.478Z</time>
      </trkpt>
      <trkpt lat="43.20001833" lon="-4.30069167">
        <ele>290.0</ele>
        <time>2018-05-19T15:53:18.465Z</time>
      </trkpt>
      <trkpt lat="43.20001833" lon="-4.30069167">
        <ele>290.0</ele>
        <time>2018-05-19T15:53:19.464Z</time>
      </trkpt>
      <trkpt lat="43.19994833" lon="-4.30078667">
        <ele>288.0</ele>
        <time>2018-05-19T15:53:20.468Z</time>
      </trkpt>
      <trkpt lat="43.19994833" lon="-4.30078667">
        <ele>288.0</ele>
        <time>2018-05-19T15:53:21.466Z</time>
      </trkpt>
      <trkpt lat="43.19994" lon="-4.30092833">
        <ele>286.0</ele>
        <time>2018-05-19T15:53:22.467Z</time>
      </trkpt>
      <trkpt lat="43.19994" lon="-4.30092833">
        <ele>286.0</ele>
        <time>2018-05-19T15:53:23.471Z</time>
      </trkpt>
      <trkpt lat="43.19996" lon="-4.30107">
        <ele>284.0</ele>
        <time>2018-05-19T15:53:24.482Z</time>
      </trkpt>
      <trkpt lat="43.19996" lon="-4.30107">
        <ele>284.0</ele>
        <time>2018-05-19T15:53:25.451Z</time>
      </trkpt>
      <trkpt lat="43.19998333" lon="-4.30123">
        <ele>283.0</ele>
        <time>2018-05-19T15:53:26.468Z</time>
      </trkpt>
      <trkpt lat="43.19998333" lon="-4.30123">
        <ele>283.0</ele>
        <time>2018-05-19T15:53:27.465Z</time>
      </trkpt>
      <trkpt lat="43.20000833" lon="-4.30138833">
        <ele>281.0</ele>
        <time>2018-05-19T15:53:28.467Z</time>
      </trkpt>
      <trkpt lat="43.20003333" lon="-4.30145333">
        <ele>280.0</ele>
        <time>2018-05-19T15:53:29.485Z</time>
      </trkpt>
      <trkpt lat="43.20003333" lon="-4.30145333">
        <ele>280.0</ele>
        <time>2018-05-19T15:53:30.473Z</time>
      </trkpt>
      <trkpt lat="43.20005167" lon="-4.30157333">
        <ele>278.0</ele>
        <time>2018-05-19T15:53:31.466Z</time>
      </trkpt>
      <trkpt lat="43.20003667" lon="-4.30160667">
        <ele>277.0</ele>
        <time>2018-05-19T15:53:32.469Z</time>
      </trkpt>
      <trkpt lat="43.20003667" lon="-4.30160667">
        <ele>277.0</ele>
        <time>2018-05-19T15:53:33.466Z</time>
      </trkpt>
      <trkpt lat="43.19995" lon="-4.30165167">
        <ele>276.0</ele>
        <time>2018-05-19T15:53:34.467Z</time>
      </trkpt>
      <trkpt lat="43.19995" lon="-4.30165167">
        <ele>276.0</ele>
        <time>2018-05-19T15:53:35.448Z</time>
      </trkpt>
      <trkpt lat="43.19983333" lon="-4.30169667">
        <ele>274.0</ele>
        <time>2018-05-19T15:53:36.475Z</time>
      </trkpt>
      <trkpt lat="43.19983333" lon="-4.30169667">
        <ele>274.0</ele>
        <time>2018-05-19T15:53:37.465Z</time>
      </trkpt>
      <trkpt lat="43.19971333" lon="-4.30175">
        <ele>273.0</ele>
        <time>2018-05-19T15:53:38.468Z</time>
      </trkpt>
      <trkpt lat="43.19971333" lon="-4.30175">
        <ele>273.0</ele>
        <time>2018-05-19T15:53:39.457Z</time>
      </trkpt>
      <trkpt lat="43.19961667" lon="-4.301805">
        <ele>271.0</ele>
        <time>2018-05-19T15:53:40.467Z</time>
      </trkpt>
      <trkpt lat="43.19961667" lon="-4.301805">
        <ele>271.0</ele>
        <time>2018-05-19T15:53:41.465Z</time>
      </trkpt>
      <trkpt lat="43.19952667" lon="-4.301855">
        <ele>270.0</ele>
        <time>2018-05-19T15:53:42.468Z</time>
      </trkpt>
      <trkpt lat="43.19948667" lon="-4.30188">
        <ele>270.0</ele>
        <time>2018-05-19T15:53:43.465Z</time>
      </trkpt>
      <trkpt lat="43.19948667" lon="-4.30188">
        <ele>270.0</ele>
        <time>2018-05-19T15:53:44.467Z</time>
      </trkpt>
      <trkpt lat="43.19942" lon="-4.30194333">
        <ele>268.0</ele>
        <time>2018-05-19T15:53:45.470Z</time>
      </trkpt>
      <trkpt lat="43.19942" lon="-4.30194333">
        <ele>268.0</ele>
        <time>2018-05-19T15:53:46.465Z</time>
      </trkpt>
      <trkpt lat="43.19936333" lon="-4.30198333">
        <ele>267.0</ele>
        <time>2018-05-19T15:53:47.475Z</time>
      </trkpt>
      <trkpt lat="43.19936333" lon="-4.30198333">
        <ele>267.0</ele>
        <time>2018-05-19T15:53:48.465Z</time>
      </trkpt>
      <trkpt lat="43.19929833" lon="-4.30203167">
        <ele>266.0</ele>
        <time>2018-05-19T15:53:49.468Z</time>
      </trkpt>
      <trkpt lat="43.19925833" lon="-4.30206667">
        <ele>266.0</ele>
        <time>2018-05-19T15:53:50.467Z</time>
      </trkpt>
      <trkpt lat="43.19925833" lon="-4.30206667">
        <ele>266.0</ele>
        <time>2018-05-19T15:53:51.462Z</time>
      </trkpt>
      <trkpt lat="43.19917" lon="-4.30213167">
        <ele>265.0</ele>
        <time>2018-05-19T15:53:52.467Z</time>
      </trkpt>
      <trkpt lat="43.19917" lon="-4.30213167">
        <ele>265.0</ele>
        <time>2018-05-19T15:53:53.465Z</time>
      </trkpt>
      <trkpt lat="43.19909833" lon="-4.30221167">
        <ele>264.0</ele>
        <time>2018-05-19T15:53:54.469Z</time>
      </trkpt>
      <trkpt lat="43.19909833" lon="-4.30221167">
        <ele>264.0</ele>
        <time>2018-05-19T15:53:55.471Z</time>
      </trkpt>
      <trkpt lat="43.199035" lon="-4.30226167">
        <ele>264.0</ele>
        <time>2018-05-19T15:53:56.468Z</time>
      </trkpt>
      <trkpt lat="43.199035" lon="-4.30226167">
        <ele>264.0</ele>
        <time>2018-05-19T15:53:57.462Z</time>
      </trkpt>
      <trkpt lat="43.19898667" lon="-4.30235833">
        <ele>264.0</ele>
        <time>2018-05-19T15:53:58.467Z</time>
      </trkpt>
      <trkpt lat="43.19898667" lon="-4.30235833">
        <ele>264.0</ele>
        <time>2018-05-19T15:53:59.465Z</time>
      </trkpt>
      <trkpt lat="43.19894833" lon="-4.30246167">
        <ele>263.0</ele>
        <time>2018-05-19T15:54:00.465Z</time>
      </trkpt>
      <trkpt lat="43.19894833" lon="-4.30246167">
        <ele>263.0</ele>
        <time>2018-05-19T15:54:01.461Z</time>
      </trkpt>
      <trkpt lat="43.19890833" lon="-4.30257833">
        <ele>263.0</ele>
        <time>2018-05-19T15:54:02.467Z</time>
      </trkpt>
      <trkpt lat="43.19890833" lon="-4.30257833">
        <ele>263.0</ele>
        <time>2018-05-19T15:54:03.464Z</time>
      </trkpt>
      <trkpt lat="43.19886333" lon="-4.30270333">
        <ele>263.0</ele>
        <time>2018-05-19T15:54:04.465Z</time>
      </trkpt>
      <trkpt lat="43.19886333" lon="-4.30270333">
        <ele>263.0</ele>
        <time>2018-05-19T15:54:05.473Z</time>
      </trkpt>
      <trkpt lat="43.19881833" lon="-4.30280833">
        <ele>263.0</ele>
        <time>2018-05-19T15:54:06.468Z</time>
      </trkpt>
      <trkpt lat="43.19879" lon="-4.30285333">
        <ele>263.0</ele>
        <time>2018-05-19T15:54:07.467Z</time>
      </trkpt>
      <trkpt lat="43.19879" lon="-4.30285333">
        <ele>263.0</ele>
        <time>2018-05-19T15:54:08.465Z</time>
      </trkpt>
      <trkpt lat="43.19873667" lon="-4.30295">
        <ele>263.0</ele>
        <time>2018-05-19T15:54:09.467Z</time>
      </trkpt>
      <trkpt lat="43.19873667" lon="-4.30295">
        <ele>263.0</ele>
        <time>2018-05-19T15:54:10.461Z</time>
      </trkpt>
      <trkpt lat="43.1987" lon="-4.30304">
        <ele>264.0</ele>
        <time>2018-05-19T15:54:11.467Z</time>
      </trkpt>
      <trkpt lat="43.1987" lon="-4.30304">
        <ele>264.0</ele>
        <time>2018-05-19T15:54:12.466Z</time>
      </trkpt>
      <trkpt lat="43.19866833" lon="-4.30312167">
        <ele>265.0</ele>
        <time>2018-05-19T15:54:13.467Z</time>
      </trkpt>
      <trkpt lat="43.19865167" lon="-4.30316333">
        <ele>265.0</ele>
        <time>2018-05-19T15:54:14.468Z</time>
      </trkpt>
      <trkpt lat="43.19865167" lon="-4.30316333">
        <ele>265.0</ele>
        <time>2018-05-19T15:54:15.470Z</time>
      </trkpt>
      <trkpt lat="43.19860333" lon="-4.30323833">
        <ele>265.0</ele>
        <time>2018-05-19T15:54:16.455Z</time>
      </trkpt>
      <trkpt lat="43.19857667" lon="-4.30327">
        <ele>265.0</ele>
        <time>2018-05-19T15:54:17.487Z</time>
      </trkpt>
      <trkpt lat="43.19857667" lon="-4.30327">
        <ele>265.0</ele>
        <time>2018-05-19T15:54:18.473Z</time>
      </trkpt>
      <trkpt lat="43.19851667" lon="-4.30331167">
        <ele>265.0</ele>
        <time>2018-05-19T15:54:19.467Z</time>
      </trkpt>
      <trkpt lat="43.19848333" lon="-4.30332333">
        <ele>266.0</ele>
        <time>2018-05-19T15:54:20.467Z</time>
      </trkpt>
      <trkpt lat="43.19848333" lon="-4.30332333">
        <ele>266.0</ele>
        <time>2018-05-19T15:54:21.483Z</time>
      </trkpt>
      <trkpt lat="43.19841" lon="-4.30334833">
        <ele>266.0</ele>
        <time>2018-05-19T15:54:22.469Z</time>
      </trkpt>
      <trkpt lat="43.19841" lon="-4.30334833">
        <ele>266.0</ele>
        <time>2018-05-19T15:54:23.458Z</time>
      </trkpt>
      <trkpt lat="43.19833667" lon="-4.30337667">
        <ele>266.0</ele>
        <time>2018-05-19T15:54:24.485Z</time>
      </trkpt>
      <trkpt lat="43.19833667" lon="-4.30337667">
        <ele>266.0</ele>
        <time>2018-05-19T15:54:25.479Z</time>
      </trkpt>
      <trkpt lat="43.19824667" lon="-4.30337667">
        <ele>267.0</ele>
        <time>2018-05-19T15:54:26.467Z</time>
      </trkpt>
      <trkpt lat="43.19824667" lon="-4.30337667">
        <ele>267.0</ele>
        <time>2018-05-19T15:54:27.465Z</time>
      </trkpt>
      <trkpt lat="43.19817333" lon="-4.30342">
        <ele>267.0</ele>
        <time>2018-05-19T15:54:28.467Z</time>
      </trkpt>
      <trkpt lat="43.19817333" lon="-4.30342">
        <ele>267.0</ele>
        <time>2018-05-19T15:54:29.465Z</time>
      </trkpt>
      <trkpt lat="43.19810833" lon="-4.303475">
        <ele>268.0</ele>
        <time>2018-05-19T15:54:30.468Z</time>
      </trkpt>
      <trkpt lat="43.19810833" lon="-4.303475">
        <ele>268.0</ele>
        <time>2018-05-19T15:54:31.465Z</time>
      </trkpt>
      <trkpt lat="43.19804833" lon="-4.30357333">
        <ele>268.0</ele>
        <time>2018-05-19T15:54:32.468Z</time>
      </trkpt>
      <trkpt lat="43.19804833" lon="-4.30357333">
        <ele>268.0</ele>
        <time>2018-05-19T15:54:33.462Z</time>
      </trkpt>
      <trkpt lat="43.197995" lon="-4.30368333">
        <ele>269.0</ele>
        <time>2018-05-19T15:54:34.468Z</time>
      </trkpt>
      <trkpt lat="43.197995" lon="-4.30368333">
        <ele>269.0</ele>
        <time>2018-05-19T15:54:35.481Z</time>
      </trkpt>
      <trkpt lat="43.19795" lon="-4.30380333">
        <ele>269.0</ele>
        <time>2018-05-19T15:54:36.475Z</time>
      </trkpt>
      <trkpt lat="43.19795" lon="-4.30380333">
        <ele>269.0</ele>
        <time>2018-05-19T15:54:37.463Z</time>
      </trkpt>
      <trkpt lat="43.19792" lon="-4.30390167">
        <ele>269.0</ele>
        <time>2018-05-19T15:54:38.467Z</time>
      </trkpt>
      <trkpt lat="43.19792" lon="-4.30390167">
        <ele>269.0</ele>
        <time>2018-05-19T15:54:39.463Z</time>
      </trkpt>
      <trkpt lat="43.19788667" lon="-4.30397333">
        <ele>270.0</ele>
        <time>2018-05-19T15:54:40.475Z</time>
      </trkpt>
      <trkpt lat="43.19787667" lon="-4.30401333">
        <ele>271.0</ele>
        <time>2018-05-19T15:54:41.467Z</time>
      </trkpt>
      <trkpt lat="43.197865" lon="-4.304055">
        <ele>271.0</ele>
        <time>2018-05-19T15:54:42.469Z</time>
      </trkpt>
      <trkpt lat="43.197865" lon="-4.304055">
        <ele>271.0</ele>
        <time>2018-05-19T15:54:43.465Z</time>
      </trkpt>
      <trkpt lat="43.19783" lon="-4.30413833">
        <ele>272.0</ele>
        <time>2018-05-19T15:54:44.467Z</time>
      </trkpt>
      <trkpt lat="43.19783" lon="-4.30413833">
        <ele>272.0</ele>
        <time>2018-05-19T15:54:45.459Z</time>
      </trkpt>
      <trkpt lat="43.19781333" lon="-4.30423">
        <ele>273.0</ele>
        <time>2018-05-19T15:54:46.467Z</time>
      </trkpt>
      <trkpt lat="43.19781333" lon="-4.30423">
        <ele>273.0</ele>
        <time>2018-05-19T15:54:47.473Z</time>
      </trkpt>
      <trkpt lat="43.197845" lon="-4.304315">
        <ele>274.0</ele>
        <time>2018-05-19T15:54:48.468Z</time>
      </trkpt>
      <trkpt lat="43.197845" lon="-4.304315">
        <ele>274.0</ele>
        <time>2018-05-19T15:54:49.462Z</time>
      </trkpt>
      <trkpt lat="43.19790167" lon="-4.30441167">
        <ele>274.0</ele>
        <time>2018-05-19T15:54:50.467Z</time>
      </trkpt>
      <trkpt lat="43.19790167" lon="-4.30441167">
        <ele>274.0</ele>
        <time>2018-05-19T15:54:51.462Z</time>
      </trkpt>
      <trkpt lat="43.19795" lon="-4.30451667">
        <ele>274.0</ele>
        <time>2018-05-19T15:54:52.466Z</time>
      </trkpt>
      <trkpt lat="43.19795" lon="-4.30451667">
        <ele>274.0</ele>
        <time>2018-05-19T15:54:53.464Z</time>
      </trkpt>
      <trkpt lat="43.19802333" lon="-4.30458833">
        <ele>274.0</ele>
        <time>2018-05-19T15:54:54.467Z</time>
      </trkpt>
      <trkpt lat="43.19802333" lon="-4.30458833">
        <ele>274.0</ele>
        <time>2018-05-19T15:54:55.461Z</time>
      </trkpt>
      <trkpt lat="43.19810833" lon="-4.30460833">
        <ele>274.0</ele>
        <time>2018-05-19T15:54:56.464Z</time>
      </trkpt>
      <trkpt lat="43.19815333" lon="-4.30460333">
        <ele>274.0</ele>
        <time>2018-05-19T15:54:57.466Z</time>
      </trkpt>
      <trkpt lat="43.19819833" lon="-4.30459333">
        <ele>274.0</ele>
        <time>2018-05-19T15:54:58.467Z</time>
      </trkpt>
      <trkpt lat="43.19819833" lon="-4.30459333">
        <ele>274.0</ele>
        <time>2018-05-19T15:54:59.465Z</time>
      </trkpt>
      <trkpt lat="43.19828333" lon="-4.30456833">
        <ele>274.0</ele>
        <time>2018-05-19T15:55:00.465Z</time>
      </trkpt>
      <trkpt lat="43.19832333" lon="-4.30456333">
        <ele>274.0</ele>
        <time>2018-05-19T15:55:01.466Z</time>
      </trkpt>
      <trkpt lat="43.19832333" lon="-4.30456333">
        <ele>274.0</ele>
        <time>2018-05-19T15:55:02.469Z</time>
      </trkpt>
      <trkpt lat="43.19839333" lon="-4.30457167">
        <ele>274.0</ele>
        <time>2018-05-19T15:55:03.467Z</time>
      </trkpt>
      <trkpt lat="43.19839333" lon="-4.30457167">
        <ele>274.0</ele>
        <time>2018-05-19T15:55:04.464Z</time>
      </trkpt>
      <trkpt lat="43.198425" lon="-4.30461">
        <ele>274.0</ele>
        <time>2018-05-19T15:55:05.467Z</time>
      </trkpt>
      <trkpt lat="43.19844167" lon="-4.30463333">
        <ele>274.0</ele>
        <time>2018-05-19T15:55:06.468Z</time>
      </trkpt>
      <trkpt lat="43.19844167" lon="-4.30463333">
        <ele>274.0</ele>
        <time>2018-05-19T15:55:07.465Z</time>
      </trkpt>
      <trkpt lat="43.19845167" lon="-4.30465667">
        <ele>274.0</ele>
        <time>2018-05-19T15:55:08.481Z</time>
      </trkpt>
      <trkpt lat="43.19845167" lon="-4.30465667">
        <ele>274.0</ele>
        <time>2018-05-19T15:55:09.466Z</time>
      </trkpt>
      <trkpt lat="43.19845667" lon="-4.30467333">
        <ele>275.0</ele>
        <time>2018-05-19T15:55:10.466Z</time>
      </trkpt>
      <trkpt lat="43.19845333" lon="-4.30468833">
        <ele>275.0</ele>
        <time>2018-05-19T15:55:11.466Z</time>
      </trkpt>
      <trkpt lat="43.19845333" lon="-4.30470667">
        <ele>275.0</ele>
        <time>2018-05-19T15:55:12.468Z</time>
      </trkpt>
      <trkpt lat="43.19845333" lon="-4.30470667">
        <ele>275.0</ele>
        <time>2018-05-19T15:55:13.470Z</time>
      </trkpt>
      <trkpt lat="43.19843167" lon="-4.30478333">
        <ele>275.0</ele>
        <time>2018-05-19T15:55:14.467Z</time>
      </trkpt>
      <trkpt lat="43.19843167" lon="-4.30478333">
        <ele>275.0</ele>
        <time>2018-05-19T15:55:15.462Z</time>
      </trkpt>
      <trkpt lat="43.19841833" lon="-4.304855">
        <ele>274.0</ele>
        <time>2018-05-19T15:55:16.464Z</time>
      </trkpt>
      <trkpt lat="43.19841833" lon="-4.304885">
        <ele>275.0</ele>
        <time>2018-05-19T15:55:17.467Z</time>
      </trkpt>
      <trkpt lat="43.19841833" lon="-4.304885">
        <ele>275.0</ele>
        <time>2018-05-19T15:55:18.463Z</time>
      </trkpt>
      <trkpt lat="43.19842667" lon="-4.304945">
        <ele>274.0</ele>
        <time>2018-05-19T15:55:19.449Z</time>
      </trkpt>
      <trkpt lat="43.19842667" lon="-4.304945">
        <ele>274.0</ele>
        <time>2018-05-19T15:55:20.477Z</time>
      </trkpt>
      <trkpt lat="43.198445" lon="-4.30499">
        <ele>274.0</ele>
        <time>2018-05-19T15:55:21.484Z</time>
      </trkpt>
      <trkpt lat="43.198445" lon="-4.30499">
        <ele>274.0</ele>
        <time>2018-05-19T15:55:22.469Z</time>
      </trkpt>
      <trkpt lat="43.19847833" lon="-4.30506">
        <ele>274.0</ele>
        <time>2018-05-19T15:55:23.459Z</time>
      </trkpt>
      <trkpt lat="43.19848333" lon="-4.30509833">
        <ele>274.0</ele>
        <time>2018-05-19T15:55:24.478Z</time>
      </trkpt>
      <trkpt lat="43.19848333" lon="-4.30509833">
        <ele>274.0</ele>
        <time>2018-05-19T15:55:25.464Z</time>
      </trkpt>
      <trkpt lat="43.198495" lon="-4.30516333">
        <ele>274.0</ele>
        <time>2018-05-19T15:55:26.483Z</time>
      </trkpt>
      <trkpt lat="43.19850333" lon="-4.305195">
        <ele>274.0</ele>
        <time>2018-05-19T15:55:27.477Z</time>
      </trkpt>
      <trkpt lat="43.19850333" lon="-4.305195">
        <ele>274.0</ele>
        <time>2018-05-19T15:55:28.462Z</time>
      </trkpt>
      <trkpt lat="43.19853167" lon="-4.30527167">
        <ele>275.0</ele>
        <time>2018-05-19T15:55:29.467Z</time>
      </trkpt>
      <trkpt lat="43.19854167" lon="-4.30531167">
        <ele>275.0</ele>
        <time>2018-05-19T15:55:30.483Z</time>
      </trkpt>
      <trkpt lat="43.19854167" lon="-4.30531167">
        <ele>275.0</ele>
        <time>2018-05-19T15:55:31.468Z</time>
      </trkpt>
      <trkpt lat="43.19856667" lon="-4.30537333">
        <ele>275.0</ele>
        <time>2018-05-19T15:55:32.468Z</time>
      </trkpt>
      <trkpt lat="43.19856667" lon="-4.30537333">
        <ele>275.0</ele>
        <time>2018-05-19T15:55:33.461Z</time>
      </trkpt>
      <trkpt lat="43.19856667" lon="-4.305425">
        <ele>275.0</ele>
        <time>2018-05-19T15:55:34.466Z</time>
      </trkpt>
      <trkpt lat="43.19856667" lon="-4.305425">
        <ele>275.0</ele>
        <time>2018-05-19T15:55:35.469Z</time>
      </trkpt>
      <trkpt lat="43.19854833" lon="-4.305485">
        <ele>275.0</ele>
        <time>2018-05-19T15:55:36.469Z</time>
      </trkpt>
      <trkpt lat="43.19854333" lon="-4.30551333">
        <ele>275.0</ele>
        <time>2018-05-19T15:55:37.467Z</time>
      </trkpt>
      <trkpt lat="43.19854333" lon="-4.30551333">
        <ele>275.0</ele>
        <time>2018-05-19T15:55:38.462Z</time>
      </trkpt>
      <trkpt lat="43.19852167" lon="-4.305565">
        <ele>275.0</ele>
        <time>2018-05-19T15:55:39.467Z</time>
      </trkpt>
      <trkpt lat="43.19852167" lon="-4.305565">
        <ele>275.0</ele>
        <time>2018-05-19T15:55:40.465Z</time>
      </trkpt>
      <trkpt lat="43.19847167" lon="-4.30561667">
        <ele>276.0</ele>
        <time>2018-05-19T15:55:41.467Z</time>
      </trkpt>
      <trkpt lat="43.19844833" lon="-4.30564">
        <ele>276.0</ele>
        <time>2018-05-19T15:55:42.468Z</time>
      </trkpt>
      <trkpt lat="43.19844833" lon="-4.30564">
        <ele>276.0</ele>
        <time>2018-05-19T15:55:43.465Z</time>
      </trkpt>
      <trkpt lat="43.19841333" lon="-4.30566667">
        <ele>277.0</ele>
        <time>2018-05-19T15:55:44.466Z</time>
      </trkpt>
      <trkpt lat="43.19841333" lon="-4.30566667">
        <ele>277.0</ele>
        <time>2018-05-19T15:55:45.465Z</time>
      </trkpt>
      <trkpt lat="43.19837167" lon="-4.305705">
        <ele>277.0</ele>
        <time>2018-05-19T15:55:46.470Z</time>
      </trkpt>
      <trkpt lat="43.19837167" lon="-4.305705">
        <ele>277.0</ele>
        <time>2018-05-19T15:55:47.460Z</time>
      </trkpt>
      <trkpt lat="43.19833" lon="-4.305735">
        <ele>278.0</ele>
        <time>2018-05-19T15:55:48.484Z</time>
      </trkpt>
      <trkpt lat="43.19833" lon="-4.305735">
        <ele>278.0</ele>
        <time>2018-05-19T15:55:49.469Z</time>
      </trkpt>
      <trkpt lat="43.19828833" lon="-4.30576167">
        <ele>278.0</ele>
        <time>2018-05-19T15:55:50.467Z</time>
      </trkpt>
      <trkpt lat="43.19828833" lon="-4.30576167">
        <ele>278.0</ele>
        <time>2018-05-19T15:55:51.461Z</time>
      </trkpt>
      <trkpt lat="43.19824333" lon="-4.30579167">
        <ele>278.0</ele>
        <time>2018-05-19T15:55:52.466Z</time>
      </trkpt>
      <trkpt lat="43.19824333" lon="-4.30579167">
        <ele>278.0</ele>
        <time>2018-05-19T15:55:53.461Z</time>
      </trkpt>
      <trkpt lat="43.19821667" lon="-4.30582833">
        <ele>278.0</ele>
        <time>2018-05-19T15:55:54.467Z</time>
      </trkpt>
      <trkpt lat="43.19821667" lon="-4.30582833">
        <ele>278.0</ele>
        <time>2018-05-19T15:55:55.461Z</time>
      </trkpt>
      <trkpt lat="43.19817333" lon="-4.305855">
        <ele>279.0</ele>
        <time>2018-05-19T15:55:56.470Z</time>
      </trkpt>
      <trkpt lat="43.19817333" lon="-4.305855">
        <ele>279.0</ele>
        <time>2018-05-19T15:55:57.462Z</time>
      </trkpt>
      <trkpt lat="43.19813" lon="-4.305875">
        <ele>279.0</ele>
        <time>2018-05-19T15:55:58.467Z</time>
      </trkpt>
      <trkpt lat="43.19811333" lon="-4.30589333">
        <ele>279.0</ele>
        <time>2018-05-19T15:55:59.467Z</time>
      </trkpt>
      <trkpt lat="43.19811333" lon="-4.30589333">
        <ele>279.0</ele>
        <time>2018-05-19T15:56:00.466Z</time>
      </trkpt>
      <trkpt lat="43.19809167" lon="-4.30593167">
        <ele>280.0</ele>
        <time>2018-05-19T15:56:01.467Z</time>
      </trkpt>
      <trkpt lat="43.19809167" lon="-4.30593167">
        <ele>280.0</ele>
        <time>2018-05-19T15:56:02.462Z</time>
      </trkpt>
      <trkpt lat="43.19807167" lon="-4.305975">
        <ele>281.0</ele>
        <time>2018-05-19T15:56:03.475Z</time>
      </trkpt>
      <trkpt lat="43.19807167" lon="-4.305975">
        <ele>281.0</ele>
        <time>2018-05-19T15:56:04.464Z</time>
      </trkpt>
      <trkpt lat="43.19804667" lon="-4.30601833">
        <ele>281.0</ele>
        <time>2018-05-19T15:56:05.467Z</time>
      </trkpt>
      <trkpt lat="43.198035" lon="-4.306045">
        <ele>282.0</ele>
        <time>2018-05-19T15:56:06.477Z</time>
      </trkpt>
      <trkpt lat="43.19801833" lon="-4.30607167">
        <ele>282.0</ele>
        <time>2018-05-19T15:56:07.467Z</time>
      </trkpt>
      <trkpt lat="43.19801833" lon="-4.30607167">
        <ele>282.0</ele>
        <time>2018-05-19T15:56:08.461Z</time>
      </trkpt>
      <trkpt lat="43.19799333" lon="-4.30612333">
        <ele>282.0</ele>
        <time>2018-05-19T15:56:09.469Z</time>
      </trkpt>
      <trkpt lat="43.19799333" lon="-4.30612333">
        <ele>282.0</ele>
        <time>2018-05-19T15:56:10.464Z</time>
      </trkpt>
      <trkpt lat="43.19798" lon="-4.30618667">
        <ele>283.0</ele>
        <time>2018-05-19T15:56:11.467Z</time>
      </trkpt>
      <trkpt lat="43.197975" lon="-4.30622">
        <ele>283.0</ele>
        <time>2018-05-19T15:56:12.468Z</time>
      </trkpt>
      <trkpt lat="43.197975" lon="-4.30622">
        <ele>283.0</ele>
        <time>2018-05-19T15:56:13.461Z</time>
      </trkpt>
      <trkpt lat="43.19797333" lon="-4.30628">
        <ele>284.0</ele>
        <time>2018-05-19T15:56:14.467Z</time>
      </trkpt>
      <trkpt lat="43.19797167" lon="-4.306305">
        <ele>284.0</ele>
        <time>2018-05-19T15:56:15.467Z</time>
      </trkpt>
      <trkpt lat="43.19797167" lon="-4.306305">
        <ele>284.0</ele>
        <time>2018-05-19T15:56:16.469Z</time>
      </trkpt>
      <trkpt lat="43.19796833" lon="-4.30635333">
        <ele>285.0</ele>
        <time>2018-05-19T15:56:17.468Z</time>
      </trkpt>
      <trkpt lat="43.19796833" lon="-4.30635333">
        <ele>285.0</ele>
        <time>2018-05-19T15:56:18.465Z</time>
      </trkpt>
      <trkpt lat="43.19796667" lon="-4.3064">
        <ele>286.0</ele>
        <time>2018-05-19T15:56:19.467Z</time>
      </trkpt>
      <trkpt lat="43.19796667" lon="-4.3064">
        <ele>286.0</ele>
        <time>2018-05-19T15:56:20.460Z</time>
      </trkpt>
      <trkpt lat="43.19796833" lon="-4.30644167">
        <ele>287.0</ele>
        <time>2018-05-19T15:56:21.469Z</time>
      </trkpt>
      <trkpt lat="43.19796833" lon="-4.30646167">
        <ele>287.0</ele>
        <time>2018-05-19T15:56:22.466Z</time>
      </trkpt>
      <trkpt lat="43.19796833" lon="-4.30646167">
        <ele>287.0</ele>
        <time>2018-05-19T15:56:23.471Z</time>
      </trkpt>
      <trkpt lat="43.197975" lon="-4.30650333">
        <ele>288.0</ele>
        <time>2018-05-19T15:56:24.471Z</time>
      </trkpt>
      <trkpt lat="43.19798167" lon="-4.30652">
        <ele>288.0</ele>
        <time>2018-05-19T15:56:25.483Z</time>
      </trkpt>
      <trkpt lat="43.19798167" lon="-4.30652">
        <ele>288.0</ele>
        <time>2018-05-19T15:56:26.469Z</time>
      </trkpt>
      <trkpt lat="43.19800167" lon="-4.30655167">
        <ele>289.0</ele>
        <time>2018-05-19T15:56:27.481Z</time>
      </trkpt>
      <trkpt lat="43.19800167" lon="-4.30655167">
        <ele>289.0</ele>
        <time>2018-05-19T15:56:28.485Z</time>
      </trkpt>
      <trkpt lat="43.19801667" lon="-4.30657833">
        <ele>289.0</ele>
        <time>2018-05-19T15:56:29.468Z</time>
      </trkpt>
      <trkpt lat="43.19802333" lon="-4.30659167">
        <ele>290.0</ele>
        <time>2018-05-19T15:56:30.469Z</time>
      </trkpt>
      <trkpt lat="43.19802333" lon="-4.30659167">
        <ele>290.0</ele>
        <time>2018-05-19T15:56:31.464Z</time>
      </trkpt>
      <trkpt lat="43.19803833" lon="-4.30662333">
        <ele>290.0</ele>
        <time>2018-05-19T15:56:32.467Z</time>
      </trkpt>
      <trkpt lat="43.19803833" lon="-4.30662333">
        <ele>290.0</ele>
        <time>2018-05-19T15:56:33.464Z</time>
      </trkpt>
      <trkpt lat="43.19804833" lon="-4.30665">
        <ele>291.0</ele>
        <time>2018-05-19T15:56:34.468Z</time>
      </trkpt>
      <trkpt lat="43.19804833" lon="-4.30665">
        <ele>291.0</ele>
        <time>2018-05-19T15:56:35.461Z</time>
      </trkpt>
      <trkpt lat="43.19806833" lon="-4.306675">
        <ele>291.0</ele>
        <time>2018-05-19T15:56:36.468Z</time>
      </trkpt>
      <trkpt lat="43.19806833" lon="-4.306675">
        <ele>291.0</ele>
        <time>2018-05-19T15:56:37.462Z</time>
      </trkpt>
      <trkpt lat="43.19809" lon="-4.3067">
        <ele>292.0</ele>
        <time>2018-05-19T15:56:38.466Z</time>
      </trkpt>
      <trkpt lat="43.19809" lon="-4.3067">
        <ele>292.0</ele>
        <time>2018-05-19T15:56:39.471Z</time>
      </trkpt>
      <trkpt lat="43.1981" lon="-4.30672833">
        <ele>293.0</ele>
        <time>2018-05-19T15:56:40.463Z</time>
      </trkpt>
      <trkpt lat="43.19811833" lon="-4.306755">
        <ele>294.0</ele>
        <time>2018-05-19T15:56:41.467Z</time>
      </trkpt>
      <trkpt lat="43.19811833" lon="-4.306755">
        <ele>294.0</ele>
        <time>2018-05-19T15:56:42.465Z</time>
      </trkpt>
      <trkpt lat="43.19813667" lon="-4.306775">
        <ele>294.0</ele>
        <time>2018-05-19T15:56:43.467Z</time>
      </trkpt>
      <trkpt lat="43.19813667" lon="-4.306775">
        <ele>294.0</ele>
        <time>2018-05-19T15:56:44.463Z</time>
      </trkpt>
      <trkpt lat="43.19813667" lon="-4.30680333">
        <ele>294.0</ele>
        <time>2018-05-19T15:56:45.463Z</time>
      </trkpt>
      <trkpt lat="43.198135" lon="-4.30682">
        <ele>295.0</ele>
        <time>2018-05-19T15:56:46.464Z</time>
      </trkpt>
      <trkpt lat="43.19814" lon="-4.30684167">
        <ele>295.0</ele>
        <time>2018-05-19T15:56:47.482Z</time>
      </trkpt>
      <trkpt lat="43.19814" lon="-4.30684167">
        <ele>295.0</ele>
        <time>2018-05-19T15:56:48.467Z</time>
      </trkpt>
      <trkpt lat="43.198145" lon="-4.30687333">
        <ele>295.0</ele>
        <time>2018-05-19T15:56:49.463Z</time>
      </trkpt>
      <trkpt lat="43.198145" lon="-4.30687333">
        <ele>295.0</ele>
        <time>2018-05-19T15:56:50.469Z</time>
      </trkpt>
      <trkpt lat="43.198155" lon="-4.30690333">
        <ele>296.0</ele>
        <time>2018-05-19T15:56:51.467Z</time>
      </trkpt>
      <trkpt lat="43.198155" lon="-4.30690333">
        <ele>296.0</ele>
        <time>2018-05-19T15:56:52.461Z</time>
      </trkpt>
      <trkpt lat="43.19815667" lon="-4.30694">
        <ele>296.0</ele>
        <time>2018-05-19T15:56:53.464Z</time>
      </trkpt>
      <trkpt lat="43.19815667" lon="-4.30695667">
        <ele>297.0</ele>
        <time>2018-05-19T15:56:54.468Z</time>
      </trkpt>
      <trkpt lat="43.19815667" lon="-4.30695667">
        <ele>297.0</ele>
        <time>2018-05-19T15:56:55.462Z</time>
      </trkpt>
      <trkpt lat="43.198155" lon="-4.30699333">
        <ele>298.0</ele>
        <time>2018-05-19T15:56:56.467Z</time>
      </trkpt>
      <trkpt lat="43.198155" lon="-4.30699333">
        <ele>298.0</ele>
        <time>2018-05-19T15:56:57.462Z</time>
      </trkpt>
      <trkpt lat="43.198155" lon="-4.307025">
        <ele>299.0</ele>
        <time>2018-05-19T15:56:58.467Z</time>
      </trkpt>
      <trkpt lat="43.198155" lon="-4.307025">
        <ele>299.0</ele>
        <time>2018-05-19T15:56:59.463Z</time>
      </trkpt>
      <trkpt lat="43.19815" lon="-4.30705667">
        <ele>299.0</ele>
        <time>2018-05-19T15:57:00.468Z</time>
      </trkpt>
      <trkpt lat="43.19814667" lon="-4.30707333">
        <ele>299.0</ele>
        <time>2018-05-19T15:57:01.469Z</time>
      </trkpt>
      <trkpt lat="43.19814667" lon="-4.30707333">
        <ele>299.0</ele>
        <time>2018-05-19T15:57:02.474Z</time>
      </trkpt>
      <trkpt lat="43.19813333" lon="-4.30711333">
        <ele>300.0</ele>
        <time>2018-05-19T15:57:03.480Z</time>
      </trkpt>
      <trkpt lat="43.19813333" lon="-4.30711333">
        <ele>300.0</ele>
        <time>2018-05-19T15:57:04.486Z</time>
      </trkpt>
      <trkpt lat="43.19812667" lon="-4.30715667">
        <ele>301.0</ele>
        <time>2018-05-19T15:57:05.460Z</time>
      </trkpt>
      <trkpt lat="43.19812667" lon="-4.307175">
        <ele>301.0</ele>
        <time>2018-05-19T15:57:06.468Z</time>
      </trkpt>
      <trkpt lat="43.19812667" lon="-4.307175">
        <ele>301.0</ele>
        <time>2018-05-19T15:57:07.457Z</time>
      </trkpt>
      <trkpt lat="43.19812667" lon="-4.30721">
        <ele>302.0</ele>
        <time>2018-05-19T15:57:08.483Z</time>
      </trkpt>
      <trkpt lat="43.19812667" lon="-4.30721">
        <ele>302.0</ele>
        <time>2018-05-19T15:57:09.469Z</time>
      </trkpt>
      <trkpt lat="43.198125" lon="-4.30724667">
        <ele>302.0</ele>
        <time>2018-05-19T15:57:10.466Z</time>
      </trkpt>
      <trkpt lat="43.198125" lon="-4.307265">
        <ele>303.0</ele>
        <time>2018-05-19T15:57:11.466Z</time>
      </trkpt>
      <trkpt lat="43.19813" lon="-4.307285">
        <ele>303.0</ele>
        <time>2018-05-19T15:57:12.467Z</time>
      </trkpt>
      <trkpt lat="43.19813" lon="-4.307285">
        <ele>303.0</ele>
        <time>2018-05-19T15:57:13.461Z</time>
      </trkpt>
      <trkpt lat="43.198135" lon="-4.307315">
        <ele>304.0</ele>
        <time>2018-05-19T15:57:14.465Z</time>
      </trkpt>
      <trkpt lat="43.198135" lon="-4.307315">
        <ele>304.0</ele>
        <time>2018-05-19T15:57:15.461Z</time>
      </trkpt>
      <trkpt lat="43.19813667" lon="-4.30734833">
        <ele>304.0</ele>
        <time>2018-05-19T15:57:16.466Z</time>
      </trkpt>
      <trkpt lat="43.19813667" lon="-4.30734833">
        <ele>304.0</ele>
        <time>2018-05-19T15:57:17.461Z</time>
      </trkpt>
      <trkpt lat="43.19813833" lon="-4.30738">
        <ele>305.0</ele>
        <time>2018-05-19T15:57:18.468Z</time>
      </trkpt>
      <trkpt lat="43.19813833" lon="-4.30738">
        <ele>305.0</ele>
        <time>2018-05-19T15:57:19.453Z</time>
      </trkpt>
      <trkpt lat="43.19813667" lon="-4.30740667">
        <ele>305.0</ele>
        <time>2018-05-19T15:57:20.477Z</time>
      </trkpt>
      <trkpt lat="43.19813833" lon="-4.30742167">
        <ele>305.0</ele>
        <time>2018-05-19T15:57:21.466Z</time>
      </trkpt>
      <trkpt lat="43.19813833" lon="-4.30742167">
        <ele>305.0</ele>
        <time>2018-05-19T15:57:22.465Z</time>
      </trkpt>
      <trkpt lat="43.198135" lon="-4.30745833">
        <ele>306.0</ele>
        <time>2018-05-19T15:57:23.460Z</time>
      </trkpt>
      <trkpt lat="43.19813" lon="-4.30748">
        <ele>306.0</ele>
        <time>2018-05-19T15:57:24.478Z</time>
      </trkpt>
      <trkpt lat="43.19813" lon="-4.30748">
        <ele>306.0</ele>
        <time>2018-05-19T15:57:25.484Z</time>
      </trkpt>
      <trkpt lat="43.19811333" lon="-4.30752">
        <ele>307.0</ele>
        <time>2018-05-19T15:57:26.470Z</time>
      </trkpt>
      <trkpt lat="43.19811333" lon="-4.30752">
        <ele>307.0</ele>
        <time>2018-05-19T15:57:27.461Z</time>
      </trkpt>
      <trkpt lat="43.19810667" lon="-4.30755667">
        <ele>307.0</ele>
        <time>2018-05-19T15:57:28.466Z</time>
      </trkpt>
      <trkpt lat="43.19810667" lon="-4.30755667">
        <ele>307.0</ele>
        <time>2018-05-19T15:57:29.461Z</time>
      </trkpt>
      <trkpt lat="43.19809833" lon="-4.30759167">
        <ele>308.0</ele>
        <time>2018-05-19T15:57:30.465Z</time>
      </trkpt>
      <trkpt lat="43.19809833" lon="-4.30759167">
        <ele>308.0</ele>
        <time>2018-05-19T15:57:31.461Z</time>
      </trkpt>
      <trkpt lat="43.19809" lon="-4.30763167">
        <ele>308.0</ele>
        <time>2018-05-19T15:57:32.466Z</time>
      </trkpt>
      <trkpt lat="43.19809" lon="-4.30763167">
        <ele>308.0</ele>
        <time>2018-05-19T15:57:33.461Z</time>
      </trkpt>
      <trkpt lat="43.198085" lon="-4.30766833">
        <ele>309.0</ele>
        <time>2018-05-19T15:57:34.465Z</time>
      </trkpt>
      <trkpt lat="43.19807833" lon="-4.307695">
        <ele>309.0</ele>
        <time>2018-05-19T15:57:35.465Z</time>
      </trkpt>
      <trkpt lat="43.19807333" lon="-4.30771333">
        <ele>309.0</ele>
        <time>2018-05-19T15:57:36.468Z</time>
      </trkpt>
      <trkpt lat="43.19807333" lon="-4.30771333">
        <ele>309.0</ele>
        <time>2018-05-19T15:57:37.457Z</time>
      </trkpt>
      <trkpt lat="43.19807" lon="-4.30775833">
        <ele>310.0</ele>
        <time>2018-05-19T15:57:38.483Z</time>
      </trkpt>
      <trkpt lat="43.19807" lon="-4.30775833">
        <ele>310.0</ele>
        <time>2018-05-19T15:57:39.469Z</time>
      </trkpt>
      <trkpt lat="43.19806" lon="-4.30780667">
        <ele>311.0</ele>
        <time>2018-05-19T15:57:40.464Z</time>
      </trkpt>
      <trkpt lat="43.19806" lon="-4.30780667">
        <ele>311.0</ele>
        <time>2018-05-19T15:57:41.462Z</time>
      </trkpt>
      <trkpt lat="43.19806" lon="-4.30784833">
        <ele>311.0</ele>
        <time>2018-05-19T15:57:42.468Z</time>
      </trkpt>
      <trkpt lat="43.19806" lon="-4.30784833">
        <ele>311.0</ele>
        <time>2018-05-19T15:57:43.461Z</time>
      </trkpt>
      <trkpt lat="43.198075" lon="-4.30790167">
        <ele>311.0</ele>
        <time>2018-05-19T15:57:44.467Z</time>
      </trkpt>
      <trkpt lat="43.198075" lon="-4.30790167">
        <ele>311.0</ele>
        <time>2018-05-19T15:57:45.460Z</time>
      </trkpt>
      <trkpt lat="43.198075" lon="-4.30794333">
        <ele>312.0</ele>
        <time>2018-05-19T15:57:46.482Z</time>
      </trkpt>
      <trkpt lat="43.198075" lon="-4.30794333">
        <ele>312.0</ele>
        <time>2018-05-19T15:57:47.468Z</time>
      </trkpt>
      <trkpt lat="43.19807333" lon="-4.30797333">
        <ele>312.0</ele>
        <time>2018-05-19T15:57:48.468Z</time>
      </trkpt>
      <trkpt lat="43.19807333" lon="-4.30797333">
        <ele>312.0</ele>
        <time>2018-05-19T15:57:49.464Z</time>
      </trkpt>
      <trkpt lat="43.19807667" lon="-4.308015">
        <ele>313.0</ele>
        <time>2018-05-19T15:57:50.467Z</time>
      </trkpt>
      <trkpt lat="43.19807667" lon="-4.308015">
        <ele>313.0</ele>
        <time>2018-05-19T15:57:51.458Z</time>
      </trkpt>
      <trkpt lat="43.19807833" lon="-4.30804667">
        <ele>314.0</ele>
        <time>2018-05-19T15:57:52.466Z</time>
      </trkpt>
      <trkpt lat="43.19808167" lon="-4.30806333">
        <ele>314.0</ele>
        <time>2018-05-19T15:57:53.481Z</time>
      </trkpt>
      <trkpt lat="43.19808167" lon="-4.30806333">
        <ele>314.0</ele>
        <time>2018-05-19T15:57:54.465Z</time>
      </trkpt>
      <trkpt lat="43.19808667" lon="-4.30809">
        <ele>314.0</ele>
        <time>2018-05-19T15:57:55.466Z</time>
      </trkpt>
      <trkpt lat="43.19808667" lon="-4.30809">
        <ele>314.0</ele>
        <time>2018-05-19T15:57:56.464Z</time>
      </trkpt>
      <trkpt lat="43.19809" lon="-4.30811667">
        <ele>315.0</ele>
        <time>2018-05-19T15:57:57.473Z</time>
      </trkpt>
      <trkpt lat="43.19808667" lon="-4.30812833">
        <ele>315.0</ele>
        <time>2018-05-19T15:57:58.469Z</time>
      </trkpt>
      <trkpt lat="43.19808667" lon="-4.30812833">
        <ele>315.0</ele>
        <time>2018-05-19T15:57:59.461Z</time>
      </trkpt>
      <trkpt lat="43.19808" lon="-4.30816333">
        <ele>316.0</ele>
        <time>2018-05-19T15:58:00.488Z</time>
      </trkpt>
      <trkpt lat="43.19808" lon="-4.30816333">
        <ele>316.0</ele>
        <time>2018-05-19T15:58:01.472Z</time>
      </trkpt>
      <trkpt lat="43.19807" lon="-4.30820167">
        <ele>317.0</ele>
        <time>2018-05-19T15:58:02.466Z</time>
      </trkpt>
      <trkpt lat="43.19807" lon="-4.30820167">
        <ele>317.0</ele>
        <time>2018-05-19T15:58:03.464Z</time>
      </trkpt>
      <trkpt lat="43.19806333" lon="-4.30823833">
        <ele>317.0</ele>
        <time>2018-05-19T15:58:04.466Z</time>
      </trkpt>
      <trkpt lat="43.19806667" lon="-4.308255">
        <ele>317.0</ele>
        <time>2018-05-19T15:58:05.466Z</time>
      </trkpt>
      <trkpt lat="43.19806667" lon="-4.308255">
        <ele>317.0</ele>
        <time>2018-05-19T15:58:06.461Z</time>
      </trkpt>
      <trkpt lat="43.19807" lon="-4.308285">
        <ele>318.0</ele>
        <time>2018-05-19T15:58:07.466Z</time>
      </trkpt>
      <trkpt lat="43.19807" lon="-4.30829667">
        <ele>318.0</ele>
        <time>2018-05-19T15:58:08.466Z</time>
      </trkpt>
      <trkpt lat="43.19806833" lon="-4.30831167">
        <ele>318.0</ele>
        <time>2018-05-19T15:58:09.483Z</time>
      </trkpt>
      <trkpt lat="43.19806833" lon="-4.30831167">
        <ele>318.0</ele>
        <time>2018-05-19T15:58:10.467Z</time>
      </trkpt>
      <trkpt lat="43.19806333" lon="-4.30834833">
        <ele>319.0</ele>
        <time>2018-05-19T15:58:11.466Z</time>
      </trkpt>
      <trkpt lat="43.19806" lon="-4.30836">
        <ele>319.0</ele>
        <time>2018-05-19T15:58:12.467Z</time>
      </trkpt>
      <trkpt lat="43.19805333" lon="-4.30837833">
        <ele>320.0</ele>
        <time>2018-05-19T15:58:13.467Z</time>
      </trkpt>
      <trkpt lat="43.19805333" lon="-4.30837833">
        <ele>320.0</ele>
        <time>2018-05-19T15:58:14.461Z</time>
      </trkpt>
      <trkpt lat="43.19804333" lon="-4.30842">
        <ele>320.0</ele>
        <time>2018-05-19T15:58:15.466Z</time>
      </trkpt>
      <trkpt lat="43.19804333" lon="-4.30843833">
        <ele>321.0</ele>
        <time>2018-05-19T15:58:16.466Z</time>
      </trkpt>
      <trkpt lat="43.19804333" lon="-4.30843833">
        <ele>321.0</ele>
        <time>2018-05-19T15:58:17.458Z</time>
      </trkpt>
      <trkpt lat="43.198045" lon="-4.30847333">
        <ele>321.0</ele>
        <time>2018-05-19T15:58:18.486Z</time>
      </trkpt>
      <trkpt lat="43.19805" lon="-4.30849333">
        <ele>321.0</ele>
        <time>2018-05-19T15:58:19.485Z</time>
      </trkpt>
      <trkpt lat="43.19805" lon="-4.30849333">
        <ele>321.0</ele>
        <time>2018-05-19T15:58:20.471Z</time>
      </trkpt>
      <trkpt lat="43.19805333" lon="-4.30853167">
        <ele>321.0</ele>
        <time>2018-05-19T15:58:21.465Z</time>
      </trkpt>
      <trkpt lat="43.19805333" lon="-4.30853167">
        <ele>321.0</ele>
        <time>2018-05-19T15:58:22.460Z</time>
      </trkpt>
      <trkpt lat="43.19804833" lon="-4.308555">
        <ele>321.0</ele>
        <time>2018-05-19T15:58:23.469Z</time>
      </trkpt>
      <trkpt lat="43.198045" lon="-4.30856833">
        <ele>322.0</ele>
        <time>2018-05-19T15:58:24.471Z</time>
      </trkpt>
      <trkpt lat="43.198045" lon="-4.30856833">
        <ele>322.0</ele>
        <time>2018-05-19T15:58:25.463Z</time>
      </trkpt>
      <trkpt lat="43.19803167" lon="-4.30859833">
        <ele>322.0</ele>
        <time>2018-05-19T15:58:26.466Z</time>
      </trkpt>
      <trkpt lat="43.19803167" lon="-4.30859833">
        <ele>322.0</ele>
        <time>2018-05-19T15:58:27.460Z</time>
      </trkpt>
      <trkpt lat="43.19802167" lon="-4.30862667">
        <ele>323.0</ele>
        <time>2018-05-19T15:58:28.450Z</time>
      </trkpt>
      <trkpt lat="43.19801667" lon="-4.308645">
        <ele>323.0</ele>
        <time>2018-05-19T15:58:29.460Z</time>
      </trkpt>
      <trkpt lat="43.19801" lon="-4.308665">
        <ele>323.0</ele>
        <time>2018-05-19T15:58:30.468Z</time>
      </trkpt>
      <trkpt lat="43.19801" lon="-4.308665">
        <ele>323.0</ele>
        <time>2018-05-19T15:58:31.462Z</time>
      </trkpt>
      <trkpt lat="43.198" lon="-4.30870333">
        <ele>324.0</ele>
        <time>2018-05-19T15:58:32.466Z</time>
      </trkpt>
      <trkpt lat="43.197995" lon="-4.30872167">
        <ele>324.0</ele>
        <time>2018-05-19T15:58:33.467Z</time>
      </trkpt>
      <trkpt lat="43.197995" lon="-4.30872167">
        <ele>324.0</ele>
        <time>2018-05-19T15:58:34.463Z</time>
      </trkpt>
      <trkpt lat="43.19798167" lon="-4.30875667">
        <ele>324.0</ele>
        <time>2018-05-19T15:58:35.467Z</time>
      </trkpt>
      <trkpt lat="43.19798167" lon="-4.30875667">
        <ele>324.0</ele>
        <time>2018-05-19T15:58:36.465Z</time>
      </trkpt>
      <trkpt lat="43.19797" lon="-4.30879">
        <ele>324.0</ele>
        <time>2018-05-19T15:58:37.466Z</time>
      </trkpt>
      <trkpt lat="43.19797" lon="-4.30879">
        <ele>324.0</ele>
        <time>2018-05-19T15:58:38.460Z</time>
      </trkpt>
      <trkpt lat="43.19795" lon="-4.30882833">
        <ele>325.0</ele>
        <time>2018-05-19T15:58:39.465Z</time>
      </trkpt>
      <trkpt lat="43.19794" lon="-4.30884333">
        <ele>325.0</ele>
        <time>2018-05-19T15:58:40.463Z</time>
      </trkpt>
      <trkpt lat="43.19793167" lon="-4.30885833">
        <ele>325.0</ele>
        <time>2018-05-19T15:58:41.466Z</time>
      </trkpt>
      <trkpt lat="43.197925" lon="-4.30887333">
        <ele>325.0</ele>
        <time>2018-05-19T15:58:42.468Z</time>
      </trkpt>
      <trkpt lat="43.197925" lon="-4.30887333">
        <ele>325.0</ele>
        <time>2018-05-19T15:58:43.460Z</time>
      </trkpt>
      <trkpt lat="43.19791833" lon="-4.30890667">
        <ele>325.0</ele>
        <time>2018-05-19T15:58:44.467Z</time>
      </trkpt>
      <trkpt lat="43.19791833" lon="-4.30890667">
        <ele>325.0</ele>
        <time>2018-05-19T15:58:45.470Z</time>
      </trkpt>
      <trkpt lat="43.19791167" lon="-4.30894">
        <ele>325.0</ele>
        <time>2018-05-19T15:58:46.465Z</time>
      </trkpt>
      <trkpt lat="43.19791" lon="-4.30895833">
        <ele>326.0</ele>
        <time>2018-05-19T15:58:47.476Z</time>
      </trkpt>
      <trkpt lat="43.19790833" lon="-4.30897667">
        <ele>326.0</ele>
        <time>2018-05-19T15:58:48.467Z</time>
      </trkpt>
      <trkpt lat="43.19790833" lon="-4.30897667">
        <ele>326.0</ele>
        <time>2018-05-19T15:58:49.461Z</time>
      </trkpt>
      <trkpt lat="43.19790333" lon="-4.30901333">
        <ele>326.0</ele>
        <time>2018-05-19T15:58:50.467Z</time>
      </trkpt>
      <trkpt lat="43.19790333" lon="-4.30901333">
        <ele>326.0</ele>
        <time>2018-05-19T15:58:51.461Z</time>
      </trkpt>
      <trkpt lat="43.19789167" lon="-4.30905">
        <ele>326.0</ele>
        <time>2018-05-19T15:58:52.465Z</time>
      </trkpt>
      <trkpt lat="43.19788167" lon="-4.30906167">
        <ele>327.0</ele>
        <time>2018-05-19T15:58:53.463Z</time>
      </trkpt>
      <trkpt lat="43.19787333" lon="-4.30907333">
        <ele>327.0</ele>
        <time>2018-05-19T15:58:54.448Z</time>
      </trkpt>
      <trkpt lat="43.19787333" lon="-4.30907333">
        <ele>327.0</ele>
        <time>2018-05-19T15:58:55.475Z</time>
      </trkpt>
      <trkpt lat="43.19786167" lon="-4.3091">
        <ele>327.0</ele>
        <time>2018-05-19T15:58:56.466Z</time>
      </trkpt>
      <trkpt lat="43.19786333" lon="-4.30911333">
        <ele>328.0</ele>
        <time>2018-05-19T15:58:57.450Z</time>
      </trkpt>
      <trkpt lat="43.19786333" lon="-4.30911333">
        <ele>328.0</ele>
        <time>2018-05-19T15:58:58.475Z</time>
      </trkpt>
      <trkpt lat="43.19786" lon="-4.30915167">
        <ele>328.0</ele>
        <time>2018-05-19T15:58:59.467Z</time>
      </trkpt>
      <trkpt lat="43.19785" lon="-4.30917833">
        <ele>328.0</ele>
        <time>2018-05-19T15:59:00.468Z</time>
      </trkpt>
      <trkpt lat="43.19783833" lon="-4.30919167">
        <ele>328.0</ele>
        <time>2018-05-19T15:59:01.449Z</time>
      </trkpt>
      <trkpt lat="43.19783833" lon="-4.30919167">
        <ele>328.0</ele>
        <time>2018-05-19T15:59:02.476Z</time>
      </trkpt>
      <trkpt lat="43.19782333" lon="-4.30921333">
        <ele>329.0</ele>
        <time>2018-05-19T15:59:03.463Z</time>
      </trkpt>
      <trkpt lat="43.19782333" lon="-4.30921333">
        <ele>329.0</ele>
        <time>2018-05-19T15:59:04.460Z</time>
      </trkpt>
      <trkpt lat="43.197825" lon="-4.30925">
        <ele>329.0</ele>
        <time>2018-05-19T15:59:05.465Z</time>
      </trkpt>
      <trkpt lat="43.19782833" lon="-4.309265">
        <ele>329.0</ele>
        <time>2018-05-19T15:59:06.468Z</time>
      </trkpt>
      <trkpt lat="43.19782833" lon="-4.309265">
        <ele>329.0</ele>
        <time>2018-05-19T15:59:07.461Z</time>
      </trkpt>
      <trkpt lat="43.19782" lon="-4.30929">
        <ele>329.0</ele>
        <time>2018-05-19T15:59:08.458Z</time>
      </trkpt>
      <trkpt lat="43.19781167" lon="-4.30930167">
        <ele>329.0</ele>
        <time>2018-05-19T15:59:09.483Z</time>
      </trkpt>
      <trkpt lat="43.19781167" lon="-4.30930167">
        <ele>329.0</ele>
        <time>2018-05-19T15:59:10.467Z</time>
      </trkpt>
      <trkpt lat="43.19781" lon="-4.30933333">
        <ele>330.0</ele>
        <time>2018-05-19T15:59:11.464Z</time>
      </trkpt>
      <trkpt lat="43.19781167" lon="-4.30934833">
        <ele>330.0</ele>
        <time>2018-05-19T15:59:12.468Z</time>
      </trkpt>
      <trkpt lat="43.19781167" lon="-4.30934833">
        <ele>330.0</ele>
        <time>2018-05-19T15:59:13.460Z</time>
      </trkpt>
      <trkpt lat="43.19781167" lon="-4.30937833">
        <ele>330.0</ele>
        <time>2018-05-19T15:59:14.466Z</time>
      </trkpt>
      <trkpt lat="43.19781167" lon="-4.30937833">
        <ele>330.0</ele>
        <time>2018-05-19T15:59:15.461Z</time>
      </trkpt>
      <trkpt lat="43.19780333" lon="-4.30939833">
        <ele>330.0</ele>
        <time>2018-05-19T15:59:16.466Z</time>
      </trkpt>
      <trkpt lat="43.19780333" lon="-4.30939833">
        <ele>330.0</ele>
        <time>2018-05-19T15:59:17.473Z</time>
      </trkpt>
      <trkpt lat="43.197805" lon="-4.30943">
        <ele>330.0</ele>
        <time>2018-05-19T15:59:18.474Z</time>
      </trkpt>
      <trkpt lat="43.197805" lon="-4.30943">
        <ele>330.0</ele>
        <time>2018-05-19T15:59:19.465Z</time>
      </trkpt>
      <trkpt lat="43.19781333" lon="-4.30945833">
        <ele>331.0</ele>
        <time>2018-05-19T15:59:20.487Z</time>
      </trkpt>
      <trkpt lat="43.19781333" lon="-4.30945833">
        <ele>331.0</ele>
        <time>2018-05-19T15:59:21.473Z</time>
      </trkpt>
      <trkpt lat="43.19781" lon="-4.30948">
        <ele>331.0</ele>
        <time>2018-05-19T15:59:22.465Z</time>
      </trkpt>
      <trkpt lat="43.19781" lon="-4.30948">
        <ele>331.0</ele>
        <time>2018-05-19T15:59:23.452Z</time>
      </trkpt>
      <trkpt lat="43.197805" lon="-4.309505">
        <ele>331.0</ele>
        <time>2018-05-19T15:59:24.463Z</time>
      </trkpt>
      <trkpt lat="43.197805" lon="-4.309505">
        <ele>331.0</ele>
        <time>2018-05-19T15:59:25.469Z</time>
      </trkpt>
      <trkpt lat="43.19781667" lon="-4.309525">
        <ele>332.0</ele>
        <time>2018-05-19T15:59:26.475Z</time>
      </trkpt>
      <trkpt lat="43.19781667" lon="-4.30953833">
        <ele>332.0</ele>
        <time>2018-05-19T15:59:27.466Z</time>
      </trkpt>
      <trkpt lat="43.197815" lon="-4.30955167">
        <ele>332.0</ele>
        <time>2018-05-19T15:59:28.470Z</time>
      </trkpt>
      <trkpt lat="43.197815" lon="-4.30955167">
        <ele>332.0</ele>
        <time>2018-05-19T15:59:29.458Z</time>
      </trkpt>
      <trkpt lat="43.19780833" lon="-4.30957667">
        <ele>332.0</ele>
        <time>2018-05-19T15:59:30.482Z</time>
      </trkpt>
      <trkpt lat="43.19780833" lon="-4.30959">
        <ele>333.0</ele>
        <time>2018-05-19T15:59:31.470Z</time>
      </trkpt>
      <trkpt lat="43.19780833" lon="-4.30959">
        <ele>333.0</ele>
        <time>2018-05-19T15:59:32.463Z</time>
      </trkpt>
      <trkpt lat="43.19781167" lon="-4.30962333">
        <ele>333.0</ele>
        <time>2018-05-19T15:59:33.464Z</time>
      </trkpt>
      <trkpt lat="43.19781167" lon="-4.30962333">
        <ele>333.0</ele>
        <time>2018-05-19T15:59:34.460Z</time>
      </trkpt>
      <trkpt lat="43.19781167" lon="-4.30965667">
        <ele>333.0</ele>
        <time>2018-05-19T15:59:35.465Z</time>
      </trkpt>
      <trkpt lat="43.19780667" lon="-4.30967">
        <ele>334.0</ele>
        <time>2018-05-19T15:59:36.467Z</time>
      </trkpt>
      <trkpt lat="43.19780667" lon="-4.30967">
        <ele>334.0</ele>
        <time>2018-05-19T15:59:37.460Z</time>
      </trkpt>
      <trkpt lat="43.19779667" lon="-4.30970167">
        <ele>334.0</ele>
        <time>2018-05-19T15:59:38.465Z</time>
      </trkpt>
      <trkpt lat="43.19779667" lon="-4.30970167">
        <ele>334.0</ele>
        <time>2018-05-19T15:59:39.459Z</time>
      </trkpt>
      <trkpt lat="43.19779333" lon="-4.30973167">
        <ele>335.0</ele>
        <time>2018-05-19T15:59:40.466Z</time>
      </trkpt>
      <trkpt lat="43.19779667" lon="-4.309745">
        <ele>335.0</ele>
        <time>2018-05-19T15:59:41.466Z</time>
      </trkpt>
      <trkpt lat="43.19779667" lon="-4.309745">
        <ele>335.0</ele>
        <time>2018-05-19T15:59:42.467Z</time>
      </trkpt>
      <trkpt lat="43.19779333" lon="-4.30977833">
        <ele>335.0</ele>
        <time>2018-05-19T15:59:43.465Z</time>
      </trkpt>
      <trkpt lat="43.19779333" lon="-4.30977833">
        <ele>335.0</ele>
        <time>2018-05-19T15:59:44.458Z</time>
      </trkpt>
      <trkpt lat="43.19778833" lon="-4.30982167">
        <ele>336.0</ele>
        <time>2018-05-19T15:59:45.465Z</time>
      </trkpt>
      <trkpt lat="43.19778833" lon="-4.30982167">
        <ele>336.0</ele>
        <time>2018-05-19T15:59:46.460Z</time>
      </trkpt>
      <trkpt lat="43.19778667" lon="-4.309845">
        <ele>336.0</ele>
        <time>2018-05-19T15:59:47.465Z</time>
      </trkpt>
      <trkpt lat="43.19778667" lon="-4.30986167">
        <ele>336.0</ele>
        <time>2018-05-19T15:59:48.468Z</time>
      </trkpt>
      <trkpt lat="43.19778667" lon="-4.30986167">
        <ele>336.0</ele>
        <time>2018-05-19T15:59:49.461Z</time>
      </trkpt>
      <trkpt lat="43.19778333" lon="-4.30989667">
        <ele>337.0</ele>
        <time>2018-05-19T15:59:50.466Z</time>
      </trkpt>
      <trkpt lat="43.19778333" lon="-4.30989667">
        <ele>337.0</ele>
        <time>2018-05-19T15:59:51.460Z</time>
      </trkpt>
      <trkpt lat="43.19777833" lon="-4.30991667">
        <ele>337.0</ele>
        <time>2018-05-19T15:59:52.465Z</time>
      </trkpt>
      <trkpt lat="43.19777833" lon="-4.30991667">
        <ele>337.0</ele>
        <time>2018-05-19T15:59:53.460Z</time>
      </trkpt>
      <trkpt lat="43.19776" lon="-4.309935">
        <ele>338.0</ele>
        <time>2018-05-19T15:59:54.482Z</time>
      </trkpt>
      <trkpt lat="43.19776" lon="-4.309935">
        <ele>338.0</ele>
        <time>2018-05-19T15:59:55.468Z</time>
      </trkpt>
      <trkpt lat="43.19775" lon="-4.30995667">
        <ele>339.0</ele>
        <time>2018-05-19T15:59:56.466Z</time>
      </trkpt>
      <trkpt lat="43.19775" lon="-4.30995667">
        <ele>339.0</ele>
        <time>2018-05-19T15:59:57.461Z</time>
      </trkpt>
      <trkpt lat="43.197755" lon="-4.30998833">
        <ele>339.0</ele>
        <time>2018-05-19T15:59:58.465Z</time>
      </trkpt>
      <trkpt lat="43.19775167" lon="-4.31000667">
        <ele>339.0</ele>
        <time>2018-05-19T15:59:59.465Z</time>
      </trkpt>
      <trkpt lat="43.19774667" lon="-4.31002667">
        <ele>339.0</ele>
        <time>2018-05-19T16:00:00.467Z</time>
      </trkpt>
      <trkpt lat="43.19774667" lon="-4.31002667">
        <ele>339.0</ele>
        <time>2018-05-19T16:00:01.461Z</time>
      </trkpt>
      <trkpt lat="43.19773667" lon="-4.310055">
        <ele>340.0</ele>
        <time>2018-05-19T16:00:02.466Z</time>
      </trkpt>
      <trkpt lat="43.19773667" lon="-4.310055">
        <ele>340.0</ele>
        <time>2018-05-19T16:00:03.460Z</time>
      </trkpt>
      <trkpt lat="43.197725" lon="-4.31008333">
        <ele>340.0</ele>
        <time>2018-05-19T16:00:04.463Z</time>
      </trkpt>
      <trkpt lat="43.197725" lon="-4.31008333">
        <ele>340.0</ele>
        <time>2018-05-19T16:00:05.460Z</time>
      </trkpt>
      <trkpt lat="43.19770833" lon="-4.31010833">
        <ele>340.0</ele>
        <time>2018-05-19T16:00:06.482Z</time>
      </trkpt>
      <trkpt lat="43.19770833" lon="-4.31010833">
        <ele>340.0</ele>
        <time>2018-05-19T16:00:07.480Z</time>
      </trkpt>
      <trkpt lat="43.197705" lon="-4.31014">
        <ele>341.0</ele>
        <time>2018-05-19T16:00:08.466Z</time>
      </trkpt>
      <trkpt lat="43.197705" lon="-4.31014">
        <ele>341.0</ele>
        <time>2018-05-19T16:00:09.485Z</time>
      </trkpt>
      <trkpt lat="43.19771333" lon="-4.31017833">
        <ele>341.0</ele>
        <time>2018-05-19T16:00:10.471Z</time>
      </trkpt>
      <trkpt lat="43.19771333" lon="-4.31017833">
        <ele>341.0</ele>
        <time>2018-05-19T16:00:11.459Z</time>
      </trkpt>
      <trkpt lat="43.19769833" lon="-4.31023">
        <ele>341.0</ele>
        <time>2018-05-19T16:00:12.482Z</time>
      </trkpt>
      <trkpt lat="43.19769833" lon="-4.31023">
        <ele>341.0</ele>
        <time>2018-05-19T16:00:13.482Z</time>
      </trkpt>
      <trkpt lat="43.19768667" lon="-4.31026667">
        <ele>342.0</ele>
        <time>2018-05-19T16:00:14.467Z</time>
      </trkpt>
      <trkpt lat="43.197685" lon="-4.310295">
        <ele>342.0</ele>
        <time>2018-05-19T16:00:15.448Z</time>
      </trkpt>
      <trkpt lat="43.197685" lon="-4.310295">
        <ele>342.0</ele>
        <time>2018-05-19T16:00:16.472Z</time>
      </trkpt>
      <trkpt lat="43.19768667" lon="-4.31035">
        <ele>343.0</ele>
        <time>2018-05-19T16:00:17.466Z</time>
      </trkpt>
      <trkpt lat="43.19768667" lon="-4.31037333">
        <ele>343.0</ele>
        <time>2018-05-19T16:00:18.467Z</time>
      </trkpt>
      <trkpt lat="43.19768667" lon="-4.31037333">
        <ele>343.0</ele>
        <time>2018-05-19T16:00:19.463Z</time>
      </trkpt>
      <trkpt lat="43.19768167" lon="-4.31039667">
        <ele>344.0</ele>
        <time>2018-05-19T16:00:20.466Z</time>
      </trkpt>
      <trkpt lat="43.19768167" lon="-4.31039667">
        <ele>344.0</ele>
        <time>2018-05-19T16:00:21.460Z</time>
      </trkpt>
      <trkpt lat="43.19768167" lon="-4.31042333">
        <ele>344.0</ele>
        <time>2018-05-19T16:00:22.469Z</time>
      </trkpt>
      <trkpt lat="43.19768167" lon="-4.31042333">
        <ele>344.0</ele>
        <time>2018-05-19T16:00:23.448Z</time>
      </trkpt>
      <trkpt lat="43.19768833" lon="-4.31045167">
        <ele>345.0</ele>
        <time>2018-05-19T16:00:24.459Z</time>
      </trkpt>
      <trkpt lat="43.19768833" lon="-4.31045167">
        <ele>345.0</ele>
        <time>2018-05-19T16:00:25.465Z</time>
      </trkpt>
      <trkpt lat="43.1977" lon="-4.31048333">
        <ele>346.0</ele>
        <time>2018-05-19T16:00:26.465Z</time>
      </trkpt>
      <trkpt lat="43.1977" lon="-4.31048333">
        <ele>346.0</ele>
        <time>2018-05-19T16:00:27.475Z</time>
      </trkpt>
      <trkpt lat="43.1977" lon="-4.31052167">
        <ele>346.0</ele>
        <time>2018-05-19T16:00:28.466Z</time>
      </trkpt>
      <trkpt lat="43.1977" lon="-4.31052167">
        <ele>346.0</ele>
        <time>2018-05-19T16:00:29.460Z</time>
      </trkpt>
      <trkpt lat="43.197705" lon="-4.310555">
        <ele>346.0</ele>
        <time>2018-05-19T16:00:30.483Z</time>
      </trkpt>
      <trkpt lat="43.197705" lon="-4.310555">
        <ele>346.0</ele>
        <time>2018-05-19T16:00:31.481Z</time>
      </trkpt>
      <trkpt lat="43.19770833" lon="-4.31058333">
        <ele>347.0</ele>
        <time>2018-05-19T16:00:32.467Z</time>
      </trkpt>
      <trkpt lat="43.19770833" lon="-4.31058333">
        <ele>347.0</ele>
        <time>2018-05-19T16:00:33.459Z</time>
      </trkpt>
      <trkpt lat="43.19771167" lon="-4.31061333">
        <ele>347.0</ele>
        <time>2018-05-19T16:00:34.465Z</time>
      </trkpt>
      <trkpt lat="43.197715" lon="-4.31062667">
        <ele>347.0</ele>
        <time>2018-05-19T16:00:35.474Z</time>
      </trkpt>
      <trkpt lat="43.197715" lon="-4.31062667">
        <ele>347.0</ele>
        <time>2018-05-19T16:00:36.465Z</time>
      </trkpt>
      <trkpt lat="43.19772167" lon="-4.31065167">
        <ele>348.0</ele>
        <time>2018-05-19T16:00:37.460Z</time>
      </trkpt>
      <trkpt lat="43.19772167" lon="-4.31066667">
        <ele>348.0</ele>
        <time>2018-05-19T16:00:38.465Z</time>
      </trkpt>
      <trkpt lat="43.19772167" lon="-4.31066667">
        <ele>348.0</ele>
        <time>2018-05-19T16:00:39.460Z</time>
      </trkpt>
      <trkpt lat="43.19771667" lon="-4.31069667">
        <ele>349.0</ele>
        <time>2018-05-19T16:00:40.465Z</time>
      </trkpt>
      <trkpt lat="43.19771833" lon="-4.31070667">
        <ele>349.0</ele>
        <time>2018-05-19T16:00:41.463Z</time>
      </trkpt>
      <trkpt lat="43.19771833" lon="-4.31070667">
        <ele>349.0</ele>
        <time>2018-05-19T16:00:42.478Z</time>
      </trkpt>
      <trkpt lat="43.19772167" lon="-4.31073">
        <ele>349.0</ele>
        <time>2018-05-19T16:00:43.469Z</time>
      </trkpt>
      <trkpt lat="43.19772167" lon="-4.31073">
        <ele>349.0</ele>
        <time>2018-05-19T16:00:44.464Z</time>
      </trkpt>
      <trkpt lat="43.19772333" lon="-4.31073833">
        <ele>350.0</ele>
        <time>2018-05-19T16:00:45.463Z</time>
      </trkpt>
      <trkpt lat="43.197725" lon="-4.31074">
        <ele>350.0</ele>
        <time>2018-05-19T16:00:46.470Z</time>
      </trkpt>
      <trkpt lat="43.197725" lon="-4.31074">
        <ele>350.0</ele>
        <time>2018-05-19T16:00:47.453Z</time>
      </trkpt>
      <trkpt lat="43.197725" lon="-4.31075167">
        <ele>349.0</ele>
        <time>2018-05-19T16:00:48.485Z</time>
      </trkpt>
      <trkpt lat="43.197725" lon="-4.31075167">
        <ele>349.0</ele>
        <time>2018-05-19T16:00:49.480Z</time>
      </trkpt>
      <trkpt lat="43.19773" lon="-4.31075167">
        <ele>349.0</ele>
        <time>2018-05-19T16:00:50.482Z</time>
      </trkpt>
      <trkpt lat="43.19773" lon="-4.31075167">
        <ele>349.0</ele>
        <time>2018-05-19T16:00:51.488Z</time>
      </trkpt>
      <trkpt lat="43.19775667" lon="-4.31079833">
        <ele>348.0</ele>
        <time>2018-05-19T16:00:52.480Z</time>
      </trkpt>
      <trkpt lat="43.19775667" lon="-4.31079833">
        <ele>348.0</ele>
        <time>2018-05-19T16:00:53.474Z</time>
      </trkpt>
      <trkpt lat="43.19775667" lon="-4.31081">
        <ele>348.0</ele>
        <time>2018-05-19T16:00:54.482Z</time>
      </trkpt>
      <trkpt lat="43.19775667" lon="-4.31081">
        <ele>348.0</ele>
        <time>2018-05-19T16:00:55.484Z</time>
      </trkpt>
      <trkpt lat="43.19774667" lon="-4.31081667">
        <ele>348.0</ele>
        <time>2018-05-19T16:00:56.480Z</time>
      </trkpt>
      <trkpt lat="43.19774667" lon="-4.31081667">
        <ele>348.0</ele>
        <time>2018-05-19T16:00:57.473Z</time>
      </trkpt>
      <trkpt lat="43.19774167" lon="-4.310825">
        <ele>349.0</ele>
        <time>2018-05-19T16:00:58.483Z</time>
      </trkpt>
      <trkpt lat="43.19774167" lon="-4.310825">
        <ele>349.0</ele>
        <time>2018-05-19T16:00:59.474Z</time>
      </trkpt>
      <trkpt lat="43.19773833" lon="-4.31083">
        <ele>349.0</ele>
        <time>2018-05-19T16:01:00.483Z</time>
      </trkpt>
      <trkpt lat="43.19773833" lon="-4.31083">
        <ele>349.0</ele>
        <time>2018-05-19T16:01:01.477Z</time>
      </trkpt>
      <trkpt lat="43.19773333" lon="-4.31083333">
        <ele>349.0</ele>
        <time>2018-05-19T16:01:02.450Z</time>
      </trkpt>
      <trkpt lat="43.19773333" lon="-4.31083333">
        <ele>349.0</ele>
        <time>2018-05-19T16:01:03.475Z</time>
      </trkpt>
      <trkpt lat="43.19773833" lon="-4.31084167">
        <ele>349.0</ele>
        <time>2018-05-19T16:01:04.480Z</time>
      </trkpt>
      <trkpt lat="43.19774333" lon="-4.31089">
        <ele>350.0</ele>
        <time>2018-05-19T16:01:05.474Z</time>
      </trkpt>
      <trkpt lat="43.19774833" lon="-4.31091333">
        <ele>350.0</ele>
        <time>2018-05-19T16:01:06.473Z</time>
      </trkpt>
      <trkpt lat="43.19774833" lon="-4.31091333">
        <ele>350.0</ele>
        <time>2018-05-19T16:01:07.468Z</time>
      </trkpt>
      <trkpt lat="43.19776167" lon="-4.310945">
        <ele>350.0</ele>
        <time>2018-05-19T16:01:08.470Z</time>
      </trkpt>
      <trkpt lat="43.19776833" lon="-4.31095833">
        <ele>350.0</ele>
        <time>2018-05-19T16:01:09.470Z</time>
      </trkpt>
      <trkpt lat="43.19776833" lon="-4.31095833">
        <ele>350.0</ele>
        <time>2018-05-19T16:01:10.468Z</time>
      </trkpt>
      <trkpt lat="43.19777833" lon="-4.31099333">
        <ele>350.0</ele>
        <time>2018-05-19T16:01:11.470Z</time>
      </trkpt>
      <trkpt lat="43.19777833" lon="-4.31099333">
        <ele>350.0</ele>
        <time>2018-05-19T16:01:12.464Z</time>
      </trkpt>
      <trkpt lat="43.19778333" lon="-4.31102833">
        <ele>350.0</ele>
        <time>2018-05-19T16:01:13.472Z</time>
      </trkpt>
      <trkpt lat="43.19778333" lon="-4.31102833">
        <ele>350.0</ele>
        <time>2018-05-19T16:01:14.468Z</time>
      </trkpt>
      <trkpt lat="43.19777833" lon="-4.31107">
        <ele>350.0</ele>
        <time>2018-05-19T16:01:15.478Z</time>
      </trkpt>
      <trkpt lat="43.19777833" lon="-4.31107">
        <ele>350.0</ele>
        <time>2018-05-19T16:01:16.466Z</time>
      </trkpt>
      <trkpt lat="43.197775" lon="-4.311105">
        <ele>350.0</ele>
        <time>2018-05-19T16:01:17.470Z</time>
      </trkpt>
      <trkpt lat="43.197775" lon="-4.311105">
        <ele>350.0</ele>
        <time>2018-05-19T16:01:18.465Z</time>
      </trkpt>
      <trkpt lat="43.19775833" lon="-4.31115">
        <ele>351.0</ele>
        <time>2018-05-19T16:01:19.469Z</time>
      </trkpt>
      <trkpt lat="43.19775833" lon="-4.31115">
        <ele>351.0</ele>
        <time>2018-05-19T16:01:20.464Z</time>
      </trkpt>
      <trkpt lat="43.19773667" lon="-4.31118167">
        <ele>351.0</ele>
        <time>2018-05-19T16:01:21.450Z</time>
      </trkpt>
      <trkpt lat="43.19773667" lon="-4.31118167">
        <ele>351.0</ele>
        <time>2018-05-19T16:01:22.469Z</time>
      </trkpt>
      <trkpt lat="43.19771" lon="-4.31120667">
        <ele>351.0</ele>
        <time>2018-05-19T16:01:23.470Z</time>
      </trkpt>
      <trkpt lat="43.197695" lon="-4.311215">
        <ele>352.0</ele>
        <time>2018-05-19T16:01:24.451Z</time>
      </trkpt>
      <trkpt lat="43.197695" lon="-4.311215">
        <ele>352.0</ele>
        <time>2018-05-19T16:01:25.471Z</time>
      </trkpt>
      <trkpt lat="43.197665" lon="-4.31121833">
        <ele>352.0</ele>
        <time>2018-05-19T16:01:26.481Z</time>
      </trkpt>
      <trkpt lat="43.19765167" lon="-4.31122333">
        <ele>352.0</ele>
        <time>2018-05-19T16:01:27.468Z</time>
      </trkpt>
      <trkpt lat="43.19765167" lon="-4.31122333">
        <ele>352.0</ele>
        <time>2018-05-19T16:01:28.465Z</time>
      </trkpt>
      <trkpt lat="43.197625" lon="-4.31123667">
        <ele>352.0</ele>
        <time>2018-05-19T16:01:29.470Z</time>
      </trkpt>
      <trkpt lat="43.197625" lon="-4.31123667">
        <ele>352.0</ele>
        <time>2018-05-19T16:01:30.465Z</time>
      </trkpt>
      <trkpt lat="43.19759667" lon="-4.31124833">
        <ele>353.0</ele>
        <time>2018-05-19T16:01:31.484Z</time>
      </trkpt>
      <trkpt lat="43.19759667" lon="-4.31124833">
        <ele>353.0</ele>
        <time>2018-05-19T16:01:32.466Z</time>
      </trkpt>
      <trkpt lat="43.19756833" lon="-4.311255">
        <ele>353.0</ele>
        <time>2018-05-19T16:01:33.471Z</time>
      </trkpt>
      <trkpt lat="43.19756833" lon="-4.311255">
        <ele>353.0</ele>
        <time>2018-05-19T16:01:34.462Z</time>
      </trkpt>
      <trkpt lat="43.19754" lon="-4.31126167">
        <ele>354.0</ele>
        <time>2018-05-19T16:01:35.470Z</time>
      </trkpt>
      <trkpt lat="43.19754" lon="-4.31126167">
        <ele>354.0</ele>
        <time>2018-05-19T16:01:36.478Z</time>
      </trkpt>
      <trkpt lat="43.19751167" lon="-4.31127167">
        <ele>354.0</ele>
        <time>2018-05-19T16:01:37.471Z</time>
      </trkpt>
      <trkpt lat="43.19751167" lon="-4.31127167">
        <ele>354.0</ele>
        <time>2018-05-19T16:01:38.465Z</time>
      </trkpt>
      <trkpt lat="43.19747833" lon="-4.311275">
        <ele>355.0</ele>
        <time>2018-05-19T16:01:39.463Z</time>
      </trkpt>
      <trkpt lat="43.19746167" lon="-4.311275">
        <ele>355.0</ele>
        <time>2018-05-19T16:01:40.470Z</time>
      </trkpt>
      <trkpt lat="43.19746167" lon="-4.311275">
        <ele>355.0</ele>
        <time>2018-05-19T16:01:41.464Z</time>
      </trkpt>
      <trkpt lat="43.19743333" lon="-4.311285">
        <ele>355.0</ele>
        <time>2018-05-19T16:01:42.469Z</time>
      </trkpt>
      <trkpt lat="43.19742" lon="-4.31128833">
        <ele>356.0</ele>
        <time>2018-05-19T16:01:43.468Z</time>
      </trkpt>
      <trkpt lat="43.19742" lon="-4.31128833">
        <ele>356.0</ele>
        <time>2018-05-19T16:01:44.464Z</time>
      </trkpt>
      <trkpt lat="43.19739167" lon="-4.31129167">
        <ele>356.0</ele>
        <time>2018-05-19T16:01:45.471Z</time>
      </trkpt>
      <trkpt lat="43.19739167" lon="-4.31129167">
        <ele>356.0</ele>
        <time>2018-05-19T16:01:46.464Z</time>
      </trkpt>
      <trkpt lat="43.19736333" lon="-4.31129167">
        <ele>356.0</ele>
        <time>2018-05-19T16:01:47.470Z</time>
      </trkpt>
      <trkpt lat="43.19736333" lon="-4.31129167">
        <ele>356.0</ele>
        <time>2018-05-19T16:01:48.464Z</time>
      </trkpt>
      <trkpt lat="43.19733667" lon="-4.31128833">
        <ele>357.0</ele>
        <time>2018-05-19T16:01:49.451Z</time>
      </trkpt>
      <trkpt lat="43.19733667" lon="-4.31128833">
        <ele>357.0</ele>
        <time>2018-05-19T16:01:50.470Z</time>
      </trkpt>
      <trkpt lat="43.19731" lon="-4.31128">
        <ele>357.0</ele>
        <time>2018-05-19T16:01:51.471Z</time>
      </trkpt>
      <trkpt lat="43.19731" lon="-4.31128">
        <ele>357.0</ele>
        <time>2018-05-19T16:01:52.464Z</time>
      </trkpt>
      <trkpt lat="43.19728333" lon="-4.31127">
        <ele>358.0</ele>
        <time>2018-05-19T16:01:53.470Z</time>
      </trkpt>
      <trkpt lat="43.19728333" lon="-4.31127">
        <ele>358.0</ele>
        <time>2018-05-19T16:01:54.464Z</time>
      </trkpt>
      <trkpt lat="43.19726" lon="-4.31126333">
        <ele>358.0</ele>
        <time>2018-05-19T16:01:55.471Z</time>
      </trkpt>
      <trkpt lat="43.19726" lon="-4.31126333">
        <ele>358.0</ele>
        <time>2018-05-19T16:01:56.464Z</time>
      </trkpt>
      <trkpt lat="43.197235" lon="-4.311255">
        <ele>358.0</ele>
        <time>2018-05-19T16:01:57.464Z</time>
      </trkpt>
      <trkpt lat="43.197235" lon="-4.311255">
        <ele>358.0</ele>
        <time>2018-05-19T16:01:58.468Z</time>
      </trkpt>
      <trkpt lat="43.19721167" lon="-4.311245">
        <ele>359.0</ele>
        <time>2018-05-19T16:01:59.472Z</time>
      </trkpt>
      <trkpt lat="43.19720167" lon="-4.311235">
        <ele>359.0</ele>
        <time>2018-05-19T16:02:00.448Z</time>
      </trkpt>
      <trkpt lat="43.19720167" lon="-4.311235">
        <ele>359.0</ele>
        <time>2018-05-19T16:02:01.467Z</time>
      </trkpt>
      <trkpt lat="43.19718333" lon="-4.31121">
        <ele>360.0</ele>
        <time>2018-05-19T16:02:02.470Z</time>
      </trkpt>
      <trkpt lat="43.19717833" lon="-4.31119667">
        <ele>360.0</ele>
        <time>2018-05-19T16:02:03.470Z</time>
      </trkpt>
      <trkpt lat="43.19717833" lon="-4.31119667">
        <ele>360.0</ele>
        <time>2018-05-19T16:02:04.464Z</time>
      </trkpt>
      <trkpt lat="43.19716167" lon="-4.31116333">
        <ele>360.0</ele>
        <time>2018-05-19T16:02:05.470Z</time>
      </trkpt>
      <trkpt lat="43.19716167" lon="-4.31116333">
        <ele>360.0</ele>
        <time>2018-05-19T16:02:06.464Z</time>
      </trkpt>
      <trkpt lat="43.19714333" lon="-4.31113333">
        <ele>360.0</ele>
        <time>2018-05-19T16:02:07.470Z</time>
      </trkpt>
      <trkpt lat="43.19714333" lon="-4.31113333">
        <ele>360.0</ele>
        <time>2018-05-19T16:02:08.467Z</time>
      </trkpt>
      <trkpt lat="43.19712167" lon="-4.31111">
        <ele>361.0</ele>
        <time>2018-05-19T16:02:09.468Z</time>
      </trkpt>
      <trkpt lat="43.19712167" lon="-4.31111">
        <ele>361.0</ele>
        <time>2018-05-19T16:02:10.465Z</time>
      </trkpt>
      <trkpt lat="43.19710833" lon="-4.31108167">
        <ele>362.0</ele>
        <time>2018-05-19T16:02:11.472Z</time>
      </trkpt>
      <trkpt lat="43.19710833" lon="-4.31108167">
        <ele>362.0</ele>
        <time>2018-05-19T16:02:12.465Z</time>
      </trkpt>
      <trkpt lat="43.19709833" lon="-4.31104667">
        <ele>362.0</ele>
        <time>2018-05-19T16:02:13.471Z</time>
      </trkpt>
      <trkpt lat="43.19709833" lon="-4.31104667">
        <ele>362.0</ele>
        <time>2018-05-19T16:02:14.464Z</time>
      </trkpt>
      <trkpt lat="43.19708333" lon="-4.311015">
        <ele>363.0</ele>
        <time>2018-05-19T16:02:15.470Z</time>
      </trkpt>
      <trkpt lat="43.19708333" lon="-4.311015">
        <ele>363.0</ele>
        <time>2018-05-19T16:02:16.464Z</time>
      </trkpt>
      <trkpt lat="43.19707333" lon="-4.31098167">
        <ele>363.0</ele>
        <time>2018-05-19T16:02:17.470Z</time>
      </trkpt>
      <trkpt lat="43.19707333" lon="-4.31098167">
        <ele>363.0</ele>
        <time>2018-05-19T16:02:18.465Z</time>
      </trkpt>
      <trkpt lat="43.19706167" lon="-4.31095167">
        <ele>364.0</ele>
        <time>2018-05-19T16:02:19.468Z</time>
      </trkpt>
      <trkpt lat="43.19706167" lon="-4.31095167">
        <ele>364.0</ele>
        <time>2018-05-19T16:02:20.464Z</time>
      </trkpt>
      <trkpt lat="43.19705333" lon="-4.31091833">
        <ele>365.0</ele>
        <time>2018-05-19T16:02:21.470Z</time>
      </trkpt>
      <trkpt lat="43.19705333" lon="-4.31091833">
        <ele>365.0</ele>
        <time>2018-05-19T16:02:22.465Z</time>
      </trkpt>
      <trkpt lat="43.19705" lon="-4.31089">
        <ele>366.0</ele>
        <time>2018-05-19T16:02:23.448Z</time>
      </trkpt>
      <trkpt lat="43.19705" lon="-4.31089">
        <ele>366.0</ele>
        <time>2018-05-19T16:02:24.471Z</time>
      </trkpt>
      <trkpt lat="43.19704" lon="-4.31086667">
        <ele>367.0</ele>
        <time>2018-05-19T16:02:25.477Z</time>
      </trkpt>
      <trkpt lat="43.19704" lon="-4.31086667">
        <ele>367.0</ele>
        <time>2018-05-19T16:02:26.484Z</time>
      </trkpt>
      <trkpt lat="43.19702833" lon="-4.31084167">
        <ele>367.0</ele>
        <time>2018-05-19T16:02:27.470Z</time>
      </trkpt>
      <trkpt lat="43.19702833" lon="-4.31084167">
        <ele>367.0</ele>
        <time>2018-05-19T16:02:28.464Z</time>
      </trkpt>
      <trkpt lat="43.19701167" lon="-4.31080667">
        <ele>368.0</ele>
        <time>2018-05-19T16:02:29.471Z</time>
      </trkpt>
      <trkpt lat="43.19701167" lon="-4.31080667">
        <ele>368.0</ele>
        <time>2018-05-19T16:02:30.480Z</time>
      </trkpt>
      <trkpt lat="43.19699333" lon="-4.31077333">
        <ele>369.0</ele>
        <time>2018-05-19T16:02:31.484Z</time>
      </trkpt>
      <trkpt lat="43.19699333" lon="-4.31077333">
        <ele>369.0</ele>
        <time>2018-05-19T16:02:32.466Z</time>
      </trkpt>
      <trkpt lat="43.19697167" lon="-4.310735">
        <ele>370.0</ele>
        <time>2018-05-19T16:02:33.471Z</time>
      </trkpt>
      <trkpt lat="43.19697167" lon="-4.310735">
        <ele>370.0</ele>
        <time>2018-05-19T16:02:34.464Z</time>
      </trkpt>
      <trkpt lat="43.19696333" lon="-4.31069833">
        <ele>370.0</ele>
        <time>2018-05-19T16:02:35.470Z</time>
      </trkpt>
      <trkpt lat="43.19696" lon="-4.31068">
        <ele>371.0</ele>
        <time>2018-05-19T16:02:36.484Z</time>
      </trkpt>
      <trkpt lat="43.19696" lon="-4.31068">
        <ele>371.0</ele>
        <time>2018-05-19T16:02:37.466Z</time>
      </trkpt>
      <trkpt lat="43.19695" lon="-4.31064167">
        <ele>372.0</ele>
        <time>2018-05-19T16:02:38.471Z</time>
      </trkpt>
      <trkpt lat="43.19694667" lon="-4.31062167">
        <ele>372.0</ele>
        <time>2018-05-19T16:02:39.472Z</time>
      </trkpt>
      <trkpt lat="43.19694667" lon="-4.31062167">
        <ele>372.0</ele>
        <time>2018-05-19T16:02:40.465Z</time>
      </trkpt>
      <trkpt lat="43.19693833" lon="-4.31058333">
        <ele>372.0</ele>
        <time>2018-05-19T16:02:41.449Z</time>
      </trkpt>
      <trkpt lat="43.19693333" lon="-4.310565">
        <ele>372.0</ele>
        <time>2018-05-19T16:02:42.470Z</time>
      </trkpt>
      <trkpt lat="43.19693333" lon="-4.310565">
        <ele>372.0</ele>
        <time>2018-05-19T16:02:43.468Z</time>
      </trkpt>
      <trkpt lat="43.19692333" lon="-4.31052333">
        <ele>373.0</ele>
        <time>2018-05-19T16:02:44.470Z</time>
      </trkpt>
      <trkpt lat="43.19692167" lon="-4.3105">
        <ele>373.0</ele>
        <time>2018-05-19T16:02:45.470Z</time>
      </trkpt>
      <trkpt lat="43.19692167" lon="-4.3105">
        <ele>373.0</ele>
        <time>2018-05-19T16:02:46.463Z</time>
      </trkpt>
      <trkpt lat="43.196915" lon="-4.31045333">
        <ele>374.0</ele>
        <time>2018-05-19T16:02:47.470Z</time>
      </trkpt>
      <trkpt lat="43.196915" lon="-4.31045333">
        <ele>374.0</ele>
        <time>2018-05-19T16:02:48.465Z</time>
      </trkpt>
      <trkpt lat="43.19690333" lon="-4.31040667">
        <ele>374.0</ele>
        <time>2018-05-19T16:02:49.471Z</time>
      </trkpt>
      <trkpt lat="43.19690333" lon="-4.31040667">
        <ele>374.0</ele>
        <time>2018-05-19T16:02:50.465Z</time>
      </trkpt>
      <trkpt lat="43.19689667" lon="-4.31035333">
        <ele>375.0</ele>
        <time>2018-05-19T16:02:51.470Z</time>
      </trkpt>
      <trkpt lat="43.19689667" lon="-4.31035333">
        <ele>375.0</ele>
        <time>2018-05-19T16:02:52.466Z</time>
      </trkpt>
      <trkpt lat="43.196885" lon="-4.31030333">
        <ele>375.0</ele>
        <time>2018-05-19T16:02:53.469Z</time>
      </trkpt>
      <trkpt lat="43.19687833" lon="-4.31027833">
        <ele>375.0</ele>
        <time>2018-05-19T16:02:54.489Z</time>
      </trkpt>
      <trkpt lat="43.19687833" lon="-4.31027833">
        <ele>375.0</ele>
        <time>2018-05-19T16:02:55.476Z</time>
      </trkpt>
      <trkpt lat="43.19686833" lon="-4.31022667">
        <ele>375.0</ele>
        <time>2018-05-19T16:02:56.471Z</time>
      </trkpt>
      <trkpt lat="43.19686333" lon="-4.31019667">
        <ele>375.0</ele>
        <time>2018-05-19T16:02:57.470Z</time>
      </trkpt>
      <trkpt lat="43.19686333" lon="-4.31019667">
        <ele>375.0</ele>
        <time>2018-05-19T16:02:58.465Z</time>
      </trkpt>
      <trkpt lat="43.196855" lon="-4.31013833">
        <ele>376.0</ele>
        <time>2018-05-19T16:02:59.470Z</time>
      </trkpt>
      <trkpt lat="43.196855" lon="-4.31013833">
        <ele>376.0</ele>
        <time>2018-05-19T16:03:00.464Z</time>
      </trkpt>
      <trkpt lat="43.196845" lon="-4.31007667">
        <ele>376.0</ele>
        <time>2018-05-19T16:03:01.450Z</time>
      </trkpt>
      <trkpt lat="43.196845" lon="-4.31007667">
        <ele>376.0</ele>
        <time>2018-05-19T16:03:02.478Z</time>
      </trkpt>
      <trkpt lat="43.19683333" lon="-4.31001833">
        <ele>376.0</ele>
        <time>2018-05-19T16:03:03.471Z</time>
      </trkpt>
      <trkpt lat="43.19683333" lon="-4.31001833">
        <ele>376.0</ele>
        <time>2018-05-19T16:03:04.462Z</time>
      </trkpt>
      <trkpt lat="43.19682" lon="-4.30996167">
        <ele>377.0</ele>
        <time>2018-05-19T16:03:05.471Z</time>
      </trkpt>
      <trkpt lat="43.19682" lon="-4.30996167">
        <ele>377.0</ele>
        <time>2018-05-19T16:03:06.464Z</time>
      </trkpt>
      <trkpt lat="43.19680667" lon="-4.30990833">
        <ele>377.0</ele>
        <time>2018-05-19T16:03:07.470Z</time>
      </trkpt>
      <trkpt lat="43.19680667" lon="-4.30990833">
        <ele>377.0</ele>
        <time>2018-05-19T16:03:08.464Z</time>
      </trkpt>
      <trkpt lat="43.19679333" lon="-4.30985833">
        <ele>377.0</ele>
        <time>2018-05-19T16:03:09.470Z</time>
      </trkpt>
      <trkpt lat="43.19679333" lon="-4.30985833">
        <ele>377.0</ele>
        <time>2018-05-19T16:03:10.465Z</time>
      </trkpt>
      <trkpt lat="43.19678" lon="-4.30981333">
        <ele>378.0</ele>
        <time>2018-05-19T16:03:11.469Z</time>
      </trkpt>
      <trkpt lat="43.19678" lon="-4.30981333">
        <ele>378.0</ele>
        <time>2018-05-19T16:03:12.464Z</time>
      </trkpt>
      <trkpt lat="43.19677" lon="-4.30976667">
        <ele>378.0</ele>
        <time>2018-05-19T16:03:13.471Z</time>
      </trkpt>
      <trkpt lat="43.19677" lon="-4.30976667">
        <ele>378.0</ele>
        <time>2018-05-19T16:03:14.463Z</time>
      </trkpt>
      <trkpt lat="43.19675833" lon="-4.30972333">
        <ele>379.0</ele>
        <time>2018-05-19T16:03:15.470Z</time>
      </trkpt>
      <trkpt lat="43.19675833" lon="-4.30972333">
        <ele>379.0</ele>
        <time>2018-05-19T16:03:16.463Z</time>
      </trkpt>
      <trkpt lat="43.196745" lon="-4.30968">
        <ele>379.0</ele>
        <time>2018-05-19T16:03:17.449Z</time>
      </trkpt>
      <trkpt lat="43.19674" lon="-4.30965833">
        <ele>379.0</ele>
        <time>2018-05-19T16:03:18.479Z</time>
      </trkpt>
      <trkpt lat="43.19674" lon="-4.30965833">
        <ele>379.0</ele>
        <time>2018-05-19T16:03:19.466Z</time>
      </trkpt>
      <trkpt lat="43.19673" lon="-4.30961667">
        <ele>380.0</ele>
        <time>2018-05-19T16:03:20.461Z</time>
      </trkpt>
      <trkpt lat="43.19673" lon="-4.30959333">
        <ele>380.0</ele>
        <time>2018-05-19T16:03:21.481Z</time>
      </trkpt>
      <trkpt lat="43.19673" lon="-4.30959333">
        <ele>380.0</ele>
        <time>2018-05-19T16:03:22.468Z</time>
      </trkpt>
      <trkpt lat="43.19672333" lon="-4.30955">
        <ele>380.0</ele>
        <time>2018-05-19T16:03:23.480Z</time>
      </trkpt>
      <trkpt lat="43.19672167" lon="-4.30953">
        <ele>380.0</ele>
        <time>2018-05-19T16:03:24.456Z</time>
      </trkpt>
      <trkpt lat="43.19671667" lon="-4.30951">
        <ele>381.0</ele>
        <time>2018-05-19T16:03:25.463Z</time>
      </trkpt>
      <trkpt lat="43.19671667" lon="-4.30951">
        <ele>381.0</ele>
        <time>2018-05-19T16:03:26.469Z</time>
      </trkpt>
      <trkpt lat="43.1967" lon="-4.30946833">
        <ele>381.0</ele>
        <time>2018-05-19T16:03:27.470Z</time>
      </trkpt>
      <trkpt lat="43.1967" lon="-4.30946833">
        <ele>381.0</ele>
        <time>2018-05-19T16:03:28.478Z</time>
      </trkpt>
      <trkpt lat="43.19668667" lon="-4.309425">
        <ele>382.0</ele>
        <time>2018-05-19T16:03:29.470Z</time>
      </trkpt>
      <trkpt lat="43.19668667" lon="-4.309425">
        <ele>382.0</ele>
        <time>2018-05-19T16:03:30.460Z</time>
      </trkpt>
      <trkpt lat="43.19667833" lon="-4.30938167">
        <ele>382.0</ele>
        <time>2018-05-19T16:03:31.485Z</time>
      </trkpt>
      <trkpt lat="43.19667833" lon="-4.30938167">
        <ele>382.0</ele>
        <time>2018-05-19T16:03:32.467Z</time>
      </trkpt>
      <trkpt lat="43.19666667" lon="-4.30933833">
        <ele>382.0</ele>
        <time>2018-05-19T16:03:33.470Z</time>
      </trkpt>
      <trkpt lat="43.19666667" lon="-4.30933833">
        <ele>382.0</ele>
        <time>2018-05-19T16:03:34.465Z</time>
      </trkpt>
      <trkpt lat="43.196655" lon="-4.30929167">
        <ele>383.0</ele>
        <time>2018-05-19T16:03:35.473Z</time>
      </trkpt>
      <trkpt lat="43.196655" lon="-4.30929167">
        <ele>383.0</ele>
        <time>2018-05-19T16:03:36.464Z</time>
      </trkpt>
      <trkpt lat="43.19664333" lon="-4.309245">
        <ele>383.0</ele>
        <time>2018-05-19T16:03:37.470Z</time>
      </trkpt>
      <trkpt lat="43.19664333" lon="-4.309245">
        <ele>383.0</ele>
        <time>2018-05-19T16:03:38.464Z</time>
      </trkpt>
      <trkpt lat="43.19663667" lon="-4.30919667">
        <ele>383.0</ele>
        <time>2018-05-19T16:03:39.479Z</time>
      </trkpt>
      <trkpt lat="43.19663667" lon="-4.30919667">
        <ele>383.0</ele>
        <time>2018-05-19T16:03:40.465Z</time>
      </trkpt>
      <trkpt lat="43.19662667" lon="-4.30914333">
        <ele>384.0</ele>
        <time>2018-05-19T16:03:41.470Z</time>
      </trkpt>
      <trkpt lat="43.19662667" lon="-4.30914333">
        <ele>384.0</ele>
        <time>2018-05-19T16:03:42.463Z</time>
      </trkpt>
      <trkpt lat="43.19661833" lon="-4.30909">
        <ele>384.0</ele>
        <time>2018-05-19T16:03:43.470Z</time>
      </trkpt>
      <trkpt lat="43.19661833" lon="-4.30909">
        <ele>384.0</ele>
        <time>2018-05-19T16:03:44.467Z</time>
      </trkpt>
      <trkpt lat="43.19660333" lon="-4.30903667">
        <ele>384.0</ele>
        <time>2018-05-19T16:03:45.469Z</time>
      </trkpt>
      <trkpt lat="43.19660333" lon="-4.30903667">
        <ele>384.0</ele>
        <time>2018-05-19T16:03:46.464Z</time>
      </trkpt>
      <trkpt lat="43.196585" lon="-4.30898333">
        <ele>385.0</ele>
        <time>2018-05-19T16:03:47.449Z</time>
      </trkpt>
      <trkpt lat="43.196585" lon="-4.30898333">
        <ele>385.0</ele>
        <time>2018-05-19T16:03:48.475Z</time>
      </trkpt>
      <trkpt lat="43.19655833" lon="-4.30893833">
        <ele>385.0</ele>
        <time>2018-05-19T16:03:49.486Z</time>
      </trkpt>
      <trkpt lat="43.19655833" lon="-4.30893833">
        <ele>385.0</ele>
        <time>2018-05-19T16:03:50.471Z</time>
      </trkpt>
      <trkpt lat="43.19652167" lon="-4.30891833">
        <ele>385.0</ele>
        <time>2018-05-19T16:03:51.470Z</time>
      </trkpt>
      <trkpt lat="43.19650167" lon="-4.308915">
        <ele>384.0</ele>
        <time>2018-05-19T16:03:52.471Z</time>
      </trkpt>
      <trkpt lat="43.19650167" lon="-4.308915">
        <ele>384.0</ele>
        <time>2018-05-19T16:03:53.467Z</time>
      </trkpt>
      <trkpt lat="43.19646667" lon="-4.30892667">
        <ele>384.0</ele>
        <time>2018-05-19T16:03:54.470Z</time>
      </trkpt>
      <trkpt lat="43.19646667" lon="-4.30892667">
        <ele>384.0</ele>
        <time>2018-05-19T16:03:55.465Z</time>
      </trkpt>
      <trkpt lat="43.19644" lon="-4.308955">
        <ele>384.0</ele>
        <time>2018-05-19T16:03:56.449Z</time>
      </trkpt>
      <trkpt lat="43.19643" lon="-4.30896833">
        <ele>384.0</ele>
        <time>2018-05-19T16:03:57.470Z</time>
      </trkpt>
      <trkpt lat="43.19643" lon="-4.30896833">
        <ele>384.0</ele>
        <time>2018-05-19T16:03:58.463Z</time>
      </trkpt>
      <trkpt lat="43.19641833" lon="-4.309005">
        <ele>385.0</ele>
        <time>2018-05-19T16:03:59.471Z</time>
      </trkpt>
      <trkpt lat="43.19641833" lon="-4.309005">
        <ele>385.0</ele>
        <time>2018-05-19T16:04:00.463Z</time>
      </trkpt>
      <trkpt lat="43.19640667" lon="-4.30904167">
        <ele>385.0</ele>
        <time>2018-05-19T16:04:01.450Z</time>
      </trkpt>
      <trkpt lat="43.19640667" lon="-4.30904167">
        <ele>385.0</ele>
        <time>2018-05-19T16:04:02.469Z</time>
      </trkpt>
      <trkpt lat="43.19639333" lon="-4.30908">
        <ele>385.0</ele>
        <time>2018-05-19T16:04:03.469Z</time>
      </trkpt>
      <trkpt lat="43.19639333" lon="-4.30908">
        <ele>385.0</ele>
        <time>2018-05-19T16:04:04.463Z</time>
      </trkpt>
      <trkpt lat="43.19638833" lon="-4.30912333">
        <ele>385.0</ele>
        <time>2018-05-19T16:04:05.465Z</time>
      </trkpt>
      <trkpt lat="43.19638833" lon="-4.30914833">
        <ele>385.0</ele>
        <time>2018-05-19T16:04:06.472Z</time>
      </trkpt>
      <trkpt lat="43.19638833" lon="-4.30914833">
        <ele>385.0</ele>
        <time>2018-05-19T16:04:07.468Z</time>
      </trkpt>
      <trkpt lat="43.19639167" lon="-4.30919667">
        <ele>386.0</ele>
        <time>2018-05-19T16:04:08.465Z</time>
      </trkpt>
      <trkpt lat="43.19639333" lon="-4.30922">
        <ele>386.0</ele>
        <time>2018-05-19T16:04:09.470Z</time>
      </trkpt>
      <trkpt lat="43.19639333" lon="-4.30922">
        <ele>386.0</ele>
        <time>2018-05-19T16:04:10.463Z</time>
      </trkpt>
      <trkpt lat="43.19639167" lon="-4.309265">
        <ele>386.0</ele>
        <time>2018-05-19T16:04:11.469Z</time>
      </trkpt>
      <trkpt lat="43.19639167" lon="-4.309265">
        <ele>386.0</ele>
        <time>2018-05-19T16:04:12.464Z</time>
      </trkpt>
      <trkpt lat="43.19639" lon="-4.30931333">
        <ele>386.0</ele>
        <time>2018-05-19T16:04:13.470Z</time>
      </trkpt>
      <trkpt lat="43.19639" lon="-4.30931333">
        <ele>386.0</ele>
        <time>2018-05-19T16:04:14.464Z</time>
      </trkpt>
      <trkpt lat="43.19639167" lon="-4.30935167">
        <ele>387.0</ele>
        <time>2018-05-19T16:04:15.468Z</time>
      </trkpt>
      <trkpt lat="43.19639167" lon="-4.30935167">
        <ele>387.0</ele>
        <time>2018-05-19T16:04:16.464Z</time>
      </trkpt>
      <trkpt lat="43.19638833" lon="-4.30939">
        <ele>387.0</ele>
        <time>2018-05-19T16:04:17.449Z</time>
      </trkpt>
      <trkpt lat="43.19638667" lon="-4.30940667">
        <ele>387.0</ele>
        <time>2018-05-19T16:04:18.476Z</time>
      </trkpt>
      <trkpt lat="43.196385" lon="-4.309425">
        <ele>387.0</ele>
        <time>2018-05-19T16:04:19.471Z</time>
      </trkpt>
      <trkpt lat="43.196385" lon="-4.309425">
        <ele>387.0</ele>
        <time>2018-05-19T16:04:20.463Z</time>
      </trkpt>
      <trkpt lat="43.19638333" lon="-4.30946333">
        <ele>388.0</ele>
        <time>2018-05-19T16:04:21.448Z</time>
      </trkpt>
      <trkpt lat="43.19638333" lon="-4.30946333">
        <ele>388.0</ele>
        <time>2018-05-19T16:04:22.486Z</time>
      </trkpt>
      <trkpt lat="43.19638333" lon="-4.30949833">
        <ele>388.0</ele>
        <time>2018-05-19T16:04:23.461Z</time>
      </trkpt>
      <trkpt lat="43.196385" lon="-4.30951667">
        <ele>388.0</ele>
        <time>2018-05-19T16:04:24.471Z</time>
      </trkpt>
      <trkpt lat="43.196385" lon="-4.30953833">
        <ele>388.0</ele>
        <time>2018-05-19T16:04:25.478Z</time>
      </trkpt>
      <trkpt lat="43.196385" lon="-4.30953833">
        <ele>388.0</ele>
        <time>2018-05-19T16:04:26.484Z</time>
      </trkpt>
      <trkpt lat="43.19639" lon="-4.30958167">
        <ele>389.0</ele>
        <time>2018-05-19T16:04:27.477Z</time>
      </trkpt>
      <trkpt lat="43.19639" lon="-4.30958167">
        <ele>389.0</ele>
        <time>2018-05-19T16:04:28.479Z</time>
      </trkpt>
      <trkpt lat="43.19639667" lon="-4.30962">
        <ele>389.0</ele>
        <time>2018-05-19T16:04:29.471Z</time>
      </trkpt>
      <trkpt lat="43.19639667" lon="-4.30962">
        <ele>389.0</ele>
        <time>2018-05-19T16:04:30.464Z</time>
      </trkpt>
      <trkpt lat="43.19639667" lon="-4.309655">
        <ele>389.0</ele>
        <time>2018-05-19T16:04:31.475Z</time>
      </trkpt>
      <trkpt lat="43.19639667" lon="-4.309655">
        <ele>389.0</ele>
        <time>2018-05-19T16:04:32.464Z</time>
      </trkpt>
      <trkpt lat="43.19639667" lon="-4.30969167">
        <ele>389.0</ele>
        <time>2018-05-19T16:04:33.466Z</time>
      </trkpt>
      <trkpt lat="43.19639667" lon="-4.30969167">
        <ele>389.0</ele>
        <time>2018-05-19T16:04:34.463Z</time>
      </trkpt>
      <trkpt lat="43.19639833" lon="-4.30972833">
        <ele>390.0</ele>
        <time>2018-05-19T16:04:35.470Z</time>
      </trkpt>
      <trkpt lat="43.19639833" lon="-4.30972833">
        <ele>390.0</ele>
        <time>2018-05-19T16:04:36.464Z</time>
      </trkpt>
      <trkpt lat="43.1964" lon="-4.309765">
        <ele>390.0</ele>
        <time>2018-05-19T16:04:37.470Z</time>
      </trkpt>
      <trkpt lat="43.1964" lon="-4.309765">
        <ele>390.0</ele>
        <time>2018-05-19T16:04:38.465Z</time>
      </trkpt>
      <trkpt lat="43.19639833" lon="-4.309805">
        <ele>390.0</ele>
        <time>2018-05-19T16:04:39.469Z</time>
      </trkpt>
      <trkpt lat="43.19639833" lon="-4.309805">
        <ele>390.0</ele>
        <time>2018-05-19T16:04:40.463Z</time>
      </trkpt>
      <trkpt lat="43.19639667" lon="-4.309845">
        <ele>390.0</ele>
        <time>2018-05-19T16:04:41.465Z</time>
      </trkpt>
      <trkpt lat="43.196395" lon="-4.30986333">
        <ele>390.0</ele>
        <time>2018-05-19T16:04:42.470Z</time>
      </trkpt>
      <trkpt lat="43.19639333" lon="-4.30988167">
        <ele>390.0</ele>
        <time>2018-05-19T16:04:43.468Z</time>
      </trkpt>
      <trkpt lat="43.19639333" lon="-4.3099">
        <ele>391.0</ele>
        <time>2018-05-19T16:04:44.488Z</time>
      </trkpt>
      <trkpt lat="43.19639333" lon="-4.3099">
        <ele>391.0</ele>
        <time>2018-05-19T16:04:45.473Z</time>
      </trkpt>
      <trkpt lat="43.19638833" lon="-4.30994">
        <ele>391.0</ele>
        <time>2018-05-19T16:04:46.471Z</time>
      </trkpt>
      <trkpt lat="43.19638833" lon="-4.30994">
        <ele>391.0</ele>
        <time>2018-05-19T16:04:47.464Z</time>
      </trkpt>
      <trkpt lat="43.196385" lon="-4.30998">
        <ele>391.0</ele>
        <time>2018-05-19T16:04:48.468Z</time>
      </trkpt>
      <trkpt lat="43.19638667" lon="-4.30999667">
        <ele>391.0</ele>
        <time>2018-05-19T16:04:49.472Z</time>
      </trkpt>
      <trkpt lat="43.19638667" lon="-4.30999667">
        <ele>391.0</ele>
        <time>2018-05-19T16:04:50.463Z</time>
      </trkpt>
      <trkpt lat="43.19638833" lon="-4.31002833">
        <ele>392.0</ele>
        <time>2018-05-19T16:04:51.471Z</time>
      </trkpt>
      <trkpt lat="43.19638833" lon="-4.31002833">
        <ele>392.0</ele>
        <time>2018-05-19T16:04:52.464Z</time>
      </trkpt>
      <trkpt lat="43.19638833" lon="-4.31006">
        <ele>392.0</ele>
        <time>2018-05-19T16:04:53.470Z</time>
      </trkpt>
      <trkpt lat="43.19638833" lon="-4.31006">
        <ele>392.0</ele>
        <time>2018-05-19T16:04:54.463Z</time>
      </trkpt>
      <trkpt lat="43.19638333" lon="-4.31009667">
        <ele>392.0</ele>
        <time>2018-05-19T16:04:55.470Z</time>
      </trkpt>
      <trkpt lat="43.19638333" lon="-4.31009667">
        <ele>392.0</ele>
        <time>2018-05-19T16:04:56.463Z</time>
      </trkpt>
      <trkpt lat="43.19638833" lon="-4.31014167">
        <ele>393.0</ele>
        <time>2018-05-19T16:04:57.469Z</time>
      </trkpt>
      <trkpt lat="43.19638833" lon="-4.31014167">
        <ele>393.0</ele>
        <time>2018-05-19T16:04:58.463Z</time>
      </trkpt>
      <trkpt lat="43.19638333" lon="-4.31018333">
        <ele>393.0</ele>
        <time>2018-05-19T16:04:59.465Z</time>
      </trkpt>
      <trkpt lat="43.19638333" lon="-4.31018333">
        <ele>393.0</ele>
        <time>2018-05-19T16:05:00.456Z</time>
      </trkpt>
      <trkpt lat="43.19638167" lon="-4.310225">
        <ele>393.0</ele>
        <time>2018-05-19T16:05:01.482Z</time>
      </trkpt>
      <trkpt lat="43.19638167" lon="-4.310225">
        <ele>393.0</ele>
        <time>2018-05-19T16:05:02.468Z</time>
      </trkpt>
      <trkpt lat="43.19638167" lon="-4.31026833">
        <ele>394.0</ele>
        <time>2018-05-19T16:05:03.470Z</time>
      </trkpt>
      <trkpt lat="43.19638167" lon="-4.31026833">
        <ele>394.0</ele>
        <time>2018-05-19T16:05:04.464Z</time>
      </trkpt>
      <trkpt lat="43.19637833" lon="-4.31031667">
        <ele>394.0</ele>
        <time>2018-05-19T16:05:05.469Z</time>
      </trkpt>
      <trkpt lat="43.19637833" lon="-4.31031667">
        <ele>394.0</ele>
        <time>2018-05-19T16:05:06.463Z</time>
      </trkpt>
      <trkpt lat="43.196375" lon="-4.31035833">
        <ele>394.0</ele>
        <time>2018-05-19T16:05:07.471Z</time>
      </trkpt>
      <trkpt lat="43.196375" lon="-4.31035833">
        <ele>394.0</ele>
        <time>2018-05-19T16:05:08.464Z</time>
      </trkpt>
      <trkpt lat="43.19637333" lon="-4.31040167">
        <ele>395.0</ele>
        <time>2018-05-19T16:05:09.469Z</time>
      </trkpt>
      <trkpt lat="43.19637333" lon="-4.31040167">
        <ele>395.0</ele>
        <time>2018-05-19T16:05:10.463Z</time>
      </trkpt>
      <trkpt lat="43.19636667" lon="-4.31045">
        <ele>395.0</ele>
        <time>2018-05-19T16:05:11.461Z</time>
      </trkpt>
      <trkpt lat="43.19636333" lon="-4.31046833">
        <ele>395.0</ele>
        <time>2018-05-19T16:05:12.482Z</time>
      </trkpt>
      <trkpt lat="43.19636167" lon="-4.31049">
        <ele>396.0</ele>
        <time>2018-05-19T16:05:13.468Z</time>
      </trkpt>
      <trkpt lat="43.19636167" lon="-4.31049">
        <ele>396.0</ele>
        <time>2018-05-19T16:05:14.463Z</time>
      </trkpt>
      <trkpt lat="43.19636333" lon="-4.31052333">
        <ele>396.0</ele>
        <time>2018-05-19T16:05:15.469Z</time>
      </trkpt>
      <trkpt lat="43.19636333" lon="-4.31052333">
        <ele>396.0</ele>
        <time>2018-05-19T16:05:16.464Z</time>
      </trkpt>
      <trkpt lat="43.19636833" lon="-4.31056">
        <ele>397.0</ele>
        <time>2018-05-19T16:05:17.482Z</time>
      </trkpt>
      <trkpt lat="43.19636833" lon="-4.31056">
        <ele>397.0</ele>
        <time>2018-05-19T16:05:18.484Z</time>
      </trkpt>
      <trkpt lat="43.19637167" lon="-4.3106">
        <ele>397.0</ele>
        <time>2018-05-19T16:05:19.471Z</time>
      </trkpt>
      <trkpt lat="43.19637167" lon="-4.3106">
        <ele>397.0</ele>
        <time>2018-05-19T16:05:20.464Z</time>
      </trkpt>
      <trkpt lat="43.19637167" lon="-4.31064167">
        <ele>398.0</ele>
        <time>2018-05-19T16:05:21.482Z</time>
      </trkpt>
      <trkpt lat="43.19637167" lon="-4.31064167">
        <ele>398.0</ele>
        <time>2018-05-19T16:05:22.468Z</time>
      </trkpt>
      <trkpt lat="43.19636833" lon="-4.31068333">
        <ele>398.0</ele>
        <time>2018-05-19T16:05:23.480Z</time>
      </trkpt>
      <trkpt lat="43.19636833" lon="-4.31068333">
        <ele>398.0</ele>
        <time>2018-05-19T16:05:24.468Z</time>
      </trkpt>
      <trkpt lat="43.19637167" lon="-4.31072">
        <ele>398.0</ele>
        <time>2018-05-19T16:05:25.468Z</time>
      </trkpt>
      <trkpt lat="43.19637167" lon="-4.31072">
        <ele>398.0</ele>
        <time>2018-05-19T16:05:26.464Z</time>
      </trkpt>
      <trkpt lat="43.19637833" lon="-4.31076667">
        <ele>398.0</ele>
        <time>2018-05-19T16:05:27.468Z</time>
      </trkpt>
      <trkpt lat="43.19637833" lon="-4.31076667">
        <ele>398.0</ele>
        <time>2018-05-19T16:05:28.463Z</time>
      </trkpt>
      <trkpt lat="43.19637833" lon="-4.310805">
        <ele>399.0</ele>
        <time>2018-05-19T16:05:29.470Z</time>
      </trkpt>
      <trkpt lat="43.19637833" lon="-4.310805">
        <ele>399.0</ele>
        <time>2018-05-19T16:05:30.465Z</time>
      </trkpt>
      <trkpt lat="43.19637167" lon="-4.31084167">
        <ele>399.0</ele>
        <time>2018-05-19T16:05:31.464Z</time>
      </trkpt>
      <trkpt lat="43.19637167" lon="-4.31084167">
        <ele>399.0</ele>
        <time>2018-05-19T16:05:32.464Z</time>
      </trkpt>
      <trkpt lat="43.19636833" lon="-4.31087">
        <ele>399.0</ele>
        <time>2018-05-19T16:05:33.469Z</time>
      </trkpt>
      <trkpt lat="43.19636833" lon="-4.31087">
        <ele>399.0</ele>
        <time>2018-05-19T16:05:34.462Z</time>
      </trkpt>
      <trkpt lat="43.19637" lon="-4.31089167">
        <ele>400.0</ele>
        <time>2018-05-19T16:05:35.469Z</time>
      </trkpt>
      <trkpt lat="43.19637" lon="-4.31089167">
        <ele>400.0</ele>
        <time>2018-05-19T16:05:36.465Z</time>
      </trkpt>
      <trkpt lat="43.196365" lon="-4.31092167">
        <ele>400.0</ele>
        <time>2018-05-19T16:05:37.470Z</time>
      </trkpt>
      <trkpt lat="43.196365" lon="-4.31092167">
        <ele>400.0</ele>
        <time>2018-05-19T16:05:38.463Z</time>
      </trkpt>
      <trkpt lat="43.196365" lon="-4.31095667">
        <ele>400.0</ele>
        <time>2018-05-19T16:05:39.469Z</time>
      </trkpt>
      <trkpt lat="43.19636333" lon="-4.31097667">
        <ele>401.0</ele>
        <time>2018-05-19T16:05:40.527Z</time>
      </trkpt>
      <trkpt lat="43.19636333" lon="-4.31097667">
        <ele>401.0</ele>
        <time>2018-05-19T16:05:41.466Z</time>
      </trkpt>
      <trkpt lat="43.19635833" lon="-4.311015">
        <ele>401.0</ele>
        <time>2018-05-19T16:05:42.470Z</time>
      </trkpt>
      <trkpt lat="43.19635833" lon="-4.311035">
        <ele>401.0</ele>
        <time>2018-05-19T16:05:43.471Z</time>
      </trkpt>
      <trkpt lat="43.19635833" lon="-4.311035">
        <ele>401.0</ele>
        <time>2018-05-19T16:05:44.464Z</time>
      </trkpt>
      <trkpt lat="43.19635833" lon="-4.31107167">
        <ele>402.0</ele>
        <time>2018-05-19T16:05:45.474Z</time>
      </trkpt>
      <trkpt lat="43.19635833" lon="-4.31107167">
        <ele>402.0</ele>
        <time>2018-05-19T16:05:46.468Z</time>
      </trkpt>
      <trkpt lat="43.19634833" lon="-4.31110833">
        <ele>403.0</ele>
        <time>2018-05-19T16:05:47.470Z</time>
      </trkpt>
      <trkpt lat="43.19634833" lon="-4.31110833">
        <ele>403.0</ele>
        <time>2018-05-19T16:05:48.464Z</time>
      </trkpt>
      <trkpt lat="43.196345" lon="-4.31114167">
        <ele>403.0</ele>
        <time>2018-05-19T16:05:49.470Z</time>
      </trkpt>
      <trkpt lat="43.196345" lon="-4.31114167">
        <ele>403.0</ele>
        <time>2018-05-19T16:05:50.465Z</time>
      </trkpt>
      <trkpt lat="43.19634833" lon="-4.31117833">
        <ele>404.0</ele>
        <time>2018-05-19T16:05:51.470Z</time>
      </trkpt>
      <trkpt lat="43.19634833" lon="-4.31117833">
        <ele>404.0</ele>
        <time>2018-05-19T16:05:52.468Z</time>
      </trkpt>
      <trkpt lat="43.19635" lon="-4.31121">
        <ele>405.0</ele>
        <time>2018-05-19T16:05:53.480Z</time>
      </trkpt>
      <trkpt lat="43.19635" lon="-4.31121">
        <ele>405.0</ele>
        <time>2018-05-19T16:05:54.463Z</time>
      </trkpt>
      <trkpt lat="43.19635333" lon="-4.31124167">
        <ele>405.0</ele>
        <time>2018-05-19T16:05:55.468Z</time>
      </trkpt>
      <trkpt lat="43.19635333" lon="-4.31124167">
        <ele>405.0</ele>
        <time>2018-05-19T16:05:56.463Z</time>
      </trkpt>
      <trkpt lat="43.19635667" lon="-4.31127167">
        <ele>406.0</ele>
        <time>2018-05-19T16:05:57.470Z</time>
      </trkpt>
      <trkpt lat="43.19635667" lon="-4.31127167">
        <ele>406.0</ele>
        <time>2018-05-19T16:05:58.466Z</time>
      </trkpt>
      <trkpt lat="43.19636167" lon="-4.3113">
        <ele>406.0</ele>
        <time>2018-05-19T16:05:59.466Z</time>
      </trkpt>
      <trkpt lat="43.19636167" lon="-4.3113">
        <ele>406.0</ele>
        <time>2018-05-19T16:06:00.463Z</time>
      </trkpt>
      <trkpt lat="43.19636333" lon="-4.31132667">
        <ele>407.0</ele>
        <time>2018-05-19T16:06:01.469Z</time>
      </trkpt>
      <trkpt lat="43.19636333" lon="-4.31132667">
        <ele>407.0</ele>
        <time>2018-05-19T16:06:02.463Z</time>
      </trkpt>
      <trkpt lat="43.19636333" lon="-4.31135667">
        <ele>407.0</ele>
        <time>2018-05-19T16:06:03.470Z</time>
      </trkpt>
      <trkpt lat="43.19636333" lon="-4.31135667">
        <ele>407.0</ele>
        <time>2018-05-19T16:06:04.465Z</time>
      </trkpt>
      <trkpt lat="43.19636833" lon="-4.31139">
        <ele>407.0</ele>
        <time>2018-05-19T16:06:05.468Z</time>
      </trkpt>
      <trkpt lat="43.19636833" lon="-4.31139">
        <ele>407.0</ele>
        <time>2018-05-19T16:06:06.466Z</time>
      </trkpt>
      <trkpt lat="43.19637167" lon="-4.31142833">
        <ele>408.0</ele>
        <time>2018-05-19T16:06:07.468Z</time>
      </trkpt>
      <trkpt lat="43.19637167" lon="-4.31142833">
        <ele>408.0</ele>
        <time>2018-05-19T16:06:08.465Z</time>
      </trkpt>
      <trkpt lat="43.19637667" lon="-4.31146333">
        <ele>408.0</ele>
        <time>2018-05-19T16:06:09.469Z</time>
      </trkpt>
      <trkpt lat="43.19637667" lon="-4.31146333">
        <ele>408.0</ele>
        <time>2018-05-19T16:06:10.463Z</time>
      </trkpt>
      <trkpt lat="43.19638667" lon="-4.311495">
        <ele>408.0</ele>
        <time>2018-05-19T16:06:11.466Z</time>
      </trkpt>
      <trkpt lat="43.19638667" lon="-4.311495">
        <ele>408.0</ele>
        <time>2018-05-19T16:06:12.466Z</time>
      </trkpt>
      <trkpt lat="43.196395" lon="-4.31152333">
        <ele>409.0</ele>
        <time>2018-05-19T16:06:13.470Z</time>
      </trkpt>
      <trkpt lat="43.196395" lon="-4.31152333">
        <ele>409.0</ele>
        <time>2018-05-19T16:06:14.463Z</time>
      </trkpt>
      <trkpt lat="43.19640333" lon="-4.31155167">
        <ele>409.0</ele>
        <time>2018-05-19T16:06:15.477Z</time>
      </trkpt>
      <trkpt lat="43.19640333" lon="-4.31155167">
        <ele>409.0</ele>
        <time>2018-05-19T16:06:16.466Z</time>
      </trkpt>
      <trkpt lat="43.19641167" lon="-4.31158167">
        <ele>409.0</ele>
        <time>2018-05-19T16:06:17.465Z</time>
      </trkpt>
      <trkpt lat="43.19641167" lon="-4.31158167">
        <ele>409.0</ele>
        <time>2018-05-19T16:06:18.463Z</time>
      </trkpt>
      <trkpt lat="43.19641" lon="-4.311615">
        <ele>410.0</ele>
        <time>2018-05-19T16:06:19.469Z</time>
      </trkpt>
      <trkpt lat="43.19641" lon="-4.311615">
        <ele>410.0</ele>
        <time>2018-05-19T16:06:20.463Z</time>
      </trkpt>
      <trkpt lat="43.19640667" lon="-4.31164667">
        <ele>410.0</ele>
        <time>2018-05-19T16:06:21.468Z</time>
      </trkpt>
      <trkpt lat="43.19640667" lon="-4.31164667">
        <ele>410.0</ele>
        <time>2018-05-19T16:06:22.464Z</time>
      </trkpt>
      <trkpt lat="43.196405" lon="-4.31168167">
        <ele>411.0</ele>
        <time>2018-05-19T16:06:23.469Z</time>
      </trkpt>
      <trkpt lat="43.196405" lon="-4.31168167">
        <ele>411.0</ele>
        <time>2018-05-19T16:06:24.464Z</time>
      </trkpt>
      <trkpt lat="43.19640667" lon="-4.31171167">
        <ele>411.0</ele>
        <time>2018-05-19T16:06:25.470Z</time>
      </trkpt>
      <trkpt lat="43.19640667" lon="-4.31171167">
        <ele>411.0</ele>
        <time>2018-05-19T16:06:26.465Z</time>
      </trkpt>
      <trkpt lat="43.19640167" lon="-4.311745">
        <ele>411.0</ele>
        <time>2018-05-19T16:06:27.470Z</time>
      </trkpt>
      <trkpt lat="43.19640167" lon="-4.311745">
        <ele>411.0</ele>
        <time>2018-05-19T16:06:28.463Z</time>
      </trkpt>
      <trkpt lat="43.19639" lon="-4.311775">
        <ele>412.0</ele>
        <time>2018-05-19T16:06:29.469Z</time>
      </trkpt>
      <trkpt lat="43.196385" lon="-4.31179167">
        <ele>411.0</ele>
        <time>2018-05-19T16:06:30.469Z</time>
      </trkpt>
      <trkpt lat="43.19637667" lon="-4.311805">
        <ele>411.0</ele>
        <time>2018-05-19T16:06:31.484Z</time>
      </trkpt>
      <trkpt lat="43.19637667" lon="-4.311805">
        <ele>411.0</ele>
        <time>2018-05-19T16:06:32.467Z</time>
      </trkpt>
      <trkpt lat="43.19635667" lon="-4.31181667">
        <ele>412.0</ele>
        <time>2018-05-19T16:06:33.470Z</time>
      </trkpt>
      <trkpt lat="43.19635667" lon="-4.31181667">
        <ele>412.0</ele>
        <time>2018-05-19T16:06:34.467Z</time>
      </trkpt>
      <trkpt lat="43.19633833" lon="-4.31183167">
        <ele>413.0</ele>
        <time>2018-05-19T16:06:35.467Z</time>
      </trkpt>
      <trkpt lat="43.19632833" lon="-4.31183667">
        <ele>413.0</ele>
        <time>2018-05-19T16:06:36.468Z</time>
      </trkpt>
      <trkpt lat="43.19631667" lon="-4.31183667">
        <ele>413.0</ele>
        <time>2018-05-19T16:06:37.477Z</time>
      </trkpt>
      <trkpt lat="43.19631667" lon="-4.31183667">
        <ele>413.0</ele>
        <time>2018-05-19T16:06:38.466Z</time>
      </trkpt>
      <trkpt lat="43.19629333" lon="-4.31183333">
        <ele>414.0</ele>
        <time>2018-05-19T16:06:39.470Z</time>
      </trkpt>
      <trkpt lat="43.19629333" lon="-4.31183333">
        <ele>414.0</ele>
        <time>2018-05-19T16:06:40.465Z</time>
      </trkpt>
      <trkpt lat="43.19627" lon="-4.31183333">
        <ele>414.0</ele>
        <time>2018-05-19T16:06:41.470Z</time>
      </trkpt>
      <trkpt lat="43.19627" lon="-4.31183333">
        <ele>414.0</ele>
        <time>2018-05-19T16:06:42.467Z</time>
      </trkpt>
      <trkpt lat="43.196245" lon="-4.311835">
        <ele>415.0</ele>
        <time>2018-05-19T16:06:43.469Z</time>
      </trkpt>
      <trkpt lat="43.196245" lon="-4.311835">
        <ele>415.0</ele>
        <time>2018-05-19T16:06:44.463Z</time>
      </trkpt>
      <trkpt lat="43.19622167" lon="-4.31183167">
        <ele>415.0</ele>
        <time>2018-05-19T16:06:45.468Z</time>
      </trkpt>
      <trkpt lat="43.19622167" lon="-4.31183167">
        <ele>415.0</ele>
        <time>2018-05-19T16:06:46.465Z</time>
      </trkpt>
      <trkpt lat="43.19619833" lon="-4.31182833">
        <ele>415.0</ele>
        <time>2018-05-19T16:06:47.469Z</time>
      </trkpt>
      <trkpt lat="43.19619833" lon="-4.31182833">
        <ele>415.0</ele>
        <time>2018-05-19T16:06:48.462Z</time>
      </trkpt>
      <trkpt lat="43.196175" lon="-4.31182333">
        <ele>416.0</ele>
        <time>2018-05-19T16:06:49.469Z</time>
      </trkpt>
      <trkpt lat="43.196175" lon="-4.31182333">
        <ele>416.0</ele>
        <time>2018-05-19T16:06:50.464Z</time>
      </trkpt>
      <trkpt lat="43.19615333" lon="-4.31182167">
        <ele>417.0</ele>
        <time>2018-05-19T16:06:51.470Z</time>
      </trkpt>
      <trkpt lat="43.19615333" lon="-4.31182167">
        <ele>417.0</ele>
        <time>2018-05-19T16:06:52.463Z</time>
      </trkpt>
      <trkpt lat="43.19613167" lon="-4.31182333">
        <ele>417.0</ele>
        <time>2018-05-19T16:06:53.466Z</time>
      </trkpt>
      <trkpt lat="43.19613167" lon="-4.31182333">
        <ele>417.0</ele>
        <time>2018-05-19T16:06:54.463Z</time>
      </trkpt>
      <trkpt lat="43.19610833" lon="-4.31182333">
        <ele>417.0</ele>
        <time>2018-05-19T16:06:55.471Z</time>
      </trkpt>
      <trkpt lat="43.19610833" lon="-4.31182333">
        <ele>417.0</ele>
        <time>2018-05-19T16:06:56.464Z</time>
      </trkpt>
      <trkpt lat="43.19608167" lon="-4.31182333">
        <ele>418.0</ele>
        <time>2018-05-19T16:06:57.469Z</time>
      </trkpt>
      <trkpt lat="43.19608167" lon="-4.31182333">
        <ele>418.0</ele>
        <time>2018-05-19T16:06:58.463Z</time>
      </trkpt>
      <trkpt lat="43.19605333" lon="-4.31182333">
        <ele>418.0</ele>
        <time>2018-05-19T16:06:59.470Z</time>
      </trkpt>
      <trkpt lat="43.19605333" lon="-4.31182333">
        <ele>418.0</ele>
        <time>2018-05-19T16:07:00.462Z</time>
      </trkpt>
      <trkpt lat="43.19602667" lon="-4.31182167">
        <ele>418.0</ele>
        <time>2018-05-19T16:07:01.479Z</time>
      </trkpt>
      <trkpt lat="43.19602667" lon="-4.31182167">
        <ele>418.0</ele>
        <time>2018-05-19T16:07:02.466Z</time>
      </trkpt>
      <trkpt lat="43.19600333" lon="-4.31182333">
        <ele>419.0</ele>
        <time>2018-05-19T16:07:03.466Z</time>
      </trkpt>
      <trkpt lat="43.19600333" lon="-4.31182333">
        <ele>419.0</ele>
        <time>2018-05-19T16:07:04.463Z</time>
      </trkpt>
      <trkpt lat="43.19598" lon="-4.31182667">
        <ele>419.0</ele>
        <time>2018-05-19T16:07:05.469Z</time>
      </trkpt>
      <trkpt lat="43.19598" lon="-4.31182667">
        <ele>419.0</ele>
        <time>2018-05-19T16:07:06.456Z</time>
      </trkpt>
      <trkpt lat="43.19595667" lon="-4.31182833">
        <ele>419.0</ele>
        <time>2018-05-19T16:07:07.470Z</time>
      </trkpt>
      <trkpt lat="43.19595667" lon="-4.31182833">
        <ele>419.0</ele>
        <time>2018-05-19T16:07:08.457Z</time>
      </trkpt>
      <trkpt lat="43.19593" lon="-4.31183333">
        <ele>419.0</ele>
        <time>2018-05-19T16:07:09.480Z</time>
      </trkpt>
      <trkpt lat="43.19593" lon="-4.31183333">
        <ele>419.0</ele>
        <time>2018-05-19T16:07:10.465Z</time>
      </trkpt>
      <trkpt lat="43.19589833" lon="-4.31183333">
        <ele>420.0</ele>
        <time>2018-05-19T16:07:11.487Z</time>
      </trkpt>
      <trkpt lat="43.19589833" lon="-4.31183333">
        <ele>420.0</ele>
        <time>2018-05-19T16:07:12.465Z</time>
      </trkpt>
      <trkpt lat="43.19586333" lon="-4.31183167">
        <ele>420.0</ele>
        <time>2018-05-19T16:07:13.469Z</time>
      </trkpt>
      <trkpt lat="43.19586333" lon="-4.31183167">
        <ele>420.0</ele>
        <time>2018-05-19T16:07:14.460Z</time>
      </trkpt>
      <trkpt lat="43.19583333" lon="-4.31183333">
        <ele>420.0</ele>
        <time>2018-05-19T16:07:15.470Z</time>
      </trkpt>
      <trkpt lat="43.19583333" lon="-4.31183333">
        <ele>420.0</ele>
        <time>2018-05-19T16:07:16.474Z</time>
      </trkpt>
      <trkpt lat="43.19579833" lon="-4.311835">
        <ele>420.0</ele>
        <time>2018-05-19T16:07:17.470Z</time>
      </trkpt>
      <trkpt lat="43.19579833" lon="-4.311835">
        <ele>420.0</ele>
        <time>2018-05-19T16:07:18.463Z</time>
      </trkpt>
      <trkpt lat="43.19576167" lon="-4.31183833">
        <ele>420.0</ele>
        <time>2018-05-19T16:07:19.471Z</time>
      </trkpt>
      <trkpt lat="43.19576167" lon="-4.31183833">
        <ele>420.0</ele>
        <time>2018-05-19T16:07:20.463Z</time>
      </trkpt>
      <trkpt lat="43.19571667" lon="-4.31183833">
        <ele>420.0</ele>
        <time>2018-05-19T16:07:21.471Z</time>
      </trkpt>
      <trkpt lat="43.19571667" lon="-4.31183833">
        <ele>420.0</ele>
        <time>2018-05-19T16:07:22.463Z</time>
      </trkpt>
      <trkpt lat="43.19567167" lon="-4.31184167">
        <ele>420.0</ele>
        <time>2018-05-19T16:07:23.474Z</time>
      </trkpt>
      <trkpt lat="43.19567167" lon="-4.31184167">
        <ele>420.0</ele>
        <time>2018-05-19T16:07:24.484Z</time>
      </trkpt>
      <trkpt lat="43.195625" lon="-4.31184">
        <ele>420.0</ele>
        <time>2018-05-19T16:07:25.458Z</time>
      </trkpt>
      <trkpt lat="43.195625" lon="-4.31184">
        <ele>420.0</ele>
        <time>2018-05-19T16:07:26.465Z</time>
      </trkpt>
      <trkpt lat="43.19558167" lon="-4.31183833">
        <ele>420.0</ele>
        <time>2018-05-19T16:07:27.471Z</time>
      </trkpt>
      <trkpt lat="43.19558167" lon="-4.31183833">
        <ele>420.0</ele>
        <time>2018-05-19T16:07:28.461Z</time>
      </trkpt>
      <trkpt lat="43.19553833" lon="-4.311835">
        <ele>420.0</ele>
        <time>2018-05-19T16:07:29.469Z</time>
      </trkpt>
      <trkpt lat="43.19551833" lon="-4.31183333">
        <ele>420.0</ele>
        <time>2018-05-19T16:07:30.474Z</time>
      </trkpt>
      <trkpt lat="43.19551833" lon="-4.31183333">
        <ele>420.0</ele>
        <time>2018-05-19T16:07:31.480Z</time>
      </trkpt>
      <trkpt lat="43.195485" lon="-4.31182833">
        <ele>421.0</ele>
        <time>2018-05-19T16:07:32.451Z</time>
      </trkpt>
      <trkpt lat="43.195485" lon="-4.31182833">
        <ele>421.0</ele>
        <time>2018-05-19T16:07:33.464Z</time>
      </trkpt>
      <trkpt lat="43.19545667" lon="-4.311835">
        <ele>421.0</ele>
        <time>2018-05-19T16:07:34.471Z</time>
      </trkpt>
      <trkpt lat="43.19544167" lon="-4.31183333">
        <ele>421.0</ele>
        <time>2018-05-19T16:07:35.480Z</time>
      </trkpt>
      <trkpt lat="43.19544167" lon="-4.31183333">
        <ele>421.0</ele>
        <time>2018-05-19T16:07:36.467Z</time>
      </trkpt>
      <trkpt lat="43.19540833" lon="-4.31182333">
        <ele>422.0</ele>
        <time>2018-05-19T16:07:37.471Z</time>
      </trkpt>
      <trkpt lat="43.19540833" lon="-4.31182333">
        <ele>422.0</ele>
        <time>2018-05-19T16:07:38.466Z</time>
      </trkpt>
      <trkpt lat="43.19537833" lon="-4.31182">
        <ele>422.0</ele>
        <time>2018-05-19T16:07:39.470Z</time>
      </trkpt>
      <trkpt lat="43.19536167" lon="-4.31182">
        <ele>422.0</ele>
        <time>2018-05-19T16:07:40.470Z</time>
      </trkpt>
      <trkpt lat="43.19536167" lon="-4.31182">
        <ele>422.0</ele>
        <time>2018-05-19T16:07:41.463Z</time>
      </trkpt>
      <trkpt lat="43.19533167" lon="-4.311815">
        <ele>423.0</ele>
        <time>2018-05-19T16:07:42.466Z</time>
      </trkpt>
      <trkpt lat="43.19531667" lon="-4.31181333">
        <ele>423.0</ele>
        <time>2018-05-19T16:07:43.471Z</time>
      </trkpt>
      <trkpt lat="43.19531667" lon="-4.31181333">
        <ele>423.0</ele>
        <time>2018-05-19T16:07:44.464Z</time>
      </trkpt>
      <trkpt lat="43.19528333" lon="-4.31181167">
        <ele>423.0</ele>
        <time>2018-05-19T16:07:45.473Z</time>
      </trkpt>
      <trkpt lat="43.19528333" lon="-4.31181167">
        <ele>423.0</ele>
        <time>2018-05-19T16:07:46.463Z</time>
      </trkpt>
      <trkpt lat="43.195245" lon="-4.31181333">
        <ele>424.0</ele>
        <time>2018-05-19T16:07:47.470Z</time>
      </trkpt>
      <trkpt lat="43.195245" lon="-4.31181333">
        <ele>424.0</ele>
        <time>2018-05-19T16:07:48.464Z</time>
      </trkpt>
      <trkpt lat="43.19521" lon="-4.31182333">
        <ele>424.0</ele>
        <time>2018-05-19T16:07:49.468Z</time>
      </trkpt>
      <trkpt lat="43.19521" lon="-4.31182333">
        <ele>424.0</ele>
        <time>2018-05-19T16:07:50.463Z</time>
      </trkpt>
      <trkpt lat="43.19517667" lon="-4.31182167">
        <ele>424.0</ele>
        <time>2018-05-19T16:07:51.470Z</time>
      </trkpt>
      <trkpt lat="43.19517667" lon="-4.31182167">
        <ele>424.0</ele>
        <time>2018-05-19T16:07:52.464Z</time>
      </trkpt>
      <trkpt lat="43.19514167" lon="-4.31183">
        <ele>424.0</ele>
        <time>2018-05-19T16:07:53.470Z</time>
      </trkpt>
      <trkpt lat="43.19512833" lon="-4.31183">
        <ele>424.0</ele>
        <time>2018-05-19T16:07:54.468Z</time>
      </trkpt>
      <trkpt lat="43.19512833" lon="-4.31183">
        <ele>424.0</ele>
        <time>2018-05-19T16:07:55.464Z</time>
      </trkpt>
      <trkpt lat="43.1951" lon="-4.31182833">
        <ele>424.0</ele>
        <time>2018-05-19T16:07:56.466Z</time>
      </trkpt>
      <trkpt lat="43.19508833" lon="-4.31183333">
        <ele>425.0</ele>
        <time>2018-05-19T16:07:57.470Z</time>
      </trkpt>
      <trkpt lat="43.19508833" lon="-4.31183333">
        <ele>425.0</ele>
        <time>2018-05-19T16:07:58.463Z</time>
      </trkpt>
      <trkpt lat="43.195065" lon="-4.31184667">
        <ele>425.0</ele>
        <time>2018-05-19T16:07:59.465Z</time>
      </trkpt>
      <trkpt lat="43.19505333" lon="-4.31185667">
        <ele>425.0</ele>
        <time>2018-05-19T16:08:00.470Z</time>
      </trkpt>
      <trkpt lat="43.19504833" lon="-4.31187167">
        <ele>425.0</ele>
        <time>2018-05-19T16:08:01.470Z</time>
      </trkpt>
      <trkpt lat="43.19504833" lon="-4.31187167">
        <ele>425.0</ele>
        <time>2018-05-19T16:08:02.463Z</time>
      </trkpt>
      <trkpt lat="43.19505833" lon="-4.31190333">
        <ele>426.0</ele>
        <time>2018-05-19T16:08:03.468Z</time>
      </trkpt>
      <trkpt lat="43.19505833" lon="-4.31190333">
        <ele>426.0</ele>
        <time>2018-05-19T16:08:04.456Z</time>
      </trkpt>
      <trkpt lat="43.19509667" lon="-4.31192">
        <ele>426.0</ele>
        <time>2018-05-19T16:08:05.480Z</time>
      </trkpt>
      <trkpt lat="43.19509667" lon="-4.31192">
        <ele>426.0</ele>
        <time>2018-05-19T16:08:06.483Z</time>
      </trkpt>
      <trkpt lat="43.19514" lon="-4.31193833">
        <ele>427.0</ele>
        <time>2018-05-19T16:08:07.458Z</time>
      </trkpt>
      <trkpt lat="43.19514" lon="-4.31193833">
        <ele>427.0</ele>
        <time>2018-05-19T16:08:08.479Z</time>
      </trkpt>
      <trkpt lat="43.19518333" lon="-4.31196">
        <ele>427.0</ele>
        <time>2018-05-19T16:08:09.470Z</time>
      </trkpt>
      <trkpt lat="43.19518333" lon="-4.31196">
        <ele>427.0</ele>
        <time>2018-05-19T16:08:10.464Z</time>
      </trkpt>
      <trkpt lat="43.19522333" lon="-4.31198167">
        <ele>427.0</ele>
        <time>2018-05-19T16:08:11.470Z</time>
      </trkpt>
      <trkpt lat="43.19524167" lon="-4.311995">
        <ele>427.0</ele>
        <time>2018-05-19T16:08:12.473Z</time>
      </trkpt>
      <trkpt lat="43.19524167" lon="-4.311995">
        <ele>427.0</ele>
        <time>2018-05-19T16:08:13.464Z</time>
      </trkpt>
      <trkpt lat="43.19528333" lon="-4.31201667">
        <ele>428.0</ele>
        <time>2018-05-19T16:08:14.466Z</time>
      </trkpt>
      <trkpt lat="43.19530667" lon="-4.312025">
        <ele>428.0</ele>
        <time>2018-05-19T16:08:15.470Z</time>
      </trkpt>
      <trkpt lat="43.19530667" lon="-4.312025">
        <ele>428.0</ele>
        <time>2018-05-19T16:08:16.463Z</time>
      </trkpt>
      <trkpt lat="43.19535167" lon="-4.31204833">
        <ele>428.0</ele>
        <time>2018-05-19T16:08:17.465Z</time>
      </trkpt>
      <trkpt lat="43.195375" lon="-4.31205833">
        <ele>428.0</ele>
        <time>2018-05-19T16:08:18.469Z</time>
      </trkpt>
      <trkpt lat="43.19539667" lon="-4.31206833">
        <ele>429.0</ele>
        <time>2018-05-19T16:08:19.469Z</time>
      </trkpt>
      <trkpt lat="43.19539667" lon="-4.31206833">
        <ele>429.0</ele>
        <time>2018-05-19T16:08:20.463Z</time>
      </trkpt>
      <trkpt lat="43.19544" lon="-4.31208667">
        <ele>429.0</ele>
        <time>2018-05-19T16:08:21.470Z</time>
      </trkpt>
      <trkpt lat="43.19544" lon="-4.31208667">
        <ele>429.0</ele>
        <time>2018-05-19T16:08:22.463Z</time>
      </trkpt>
      <trkpt lat="43.19548" lon="-4.312105">
        <ele>430.0</ele>
        <time>2018-05-19T16:08:23.468Z</time>
      </trkpt>
      <trkpt lat="43.19548" lon="-4.312105">
        <ele>430.0</ele>
        <time>2018-05-19T16:08:24.477Z</time>
      </trkpt>
      <trkpt lat="43.195515" lon="-4.31212333">
        <ele>430.0</ele>
        <time>2018-05-19T16:08:25.483Z</time>
      </trkpt>
      <trkpt lat="43.195515" lon="-4.31212333">
        <ele>430.0</ele>
        <time>2018-05-19T16:08:26.458Z</time>
      </trkpt>
      <trkpt lat="43.19555167" lon="-4.31214333">
        <ele>431.0</ele>
        <time>2018-05-19T16:08:27.469Z</time>
      </trkpt>
      <trkpt lat="43.19555167" lon="-4.31214333">
        <ele>431.0</ele>
        <time>2018-05-19T16:08:28.454Z</time>
      </trkpt>
      <trkpt lat="43.195585" lon="-4.31216833">
        <ele>431.0</ele>
        <time>2018-05-19T16:08:29.466Z</time>
      </trkpt>
      <trkpt lat="43.19560167" lon="-4.31218167">
        <ele>431.0</ele>
        <time>2018-05-19T16:08:30.470Z</time>
      </trkpt>
      <trkpt lat="43.19560167" lon="-4.31218167">
        <ele>431.0</ele>
        <time>2018-05-19T16:08:31.480Z</time>
      </trkpt>
      <trkpt lat="43.19563833" lon="-4.31220833">
        <ele>432.0</ele>
        <time>2018-05-19T16:08:32.470Z</time>
      </trkpt>
      <trkpt lat="43.19563833" lon="-4.31220833">
        <ele>432.0</ele>
        <time>2018-05-19T16:08:33.467Z</time>
      </trkpt>
      <trkpt lat="43.19567333" lon="-4.312235">
        <ele>432.0</ele>
        <time>2018-05-19T16:08:34.465Z</time>
      </trkpt>
      <trkpt lat="43.19567333" lon="-4.312235">
        <ele>432.0</ele>
        <time>2018-05-19T16:08:35.465Z</time>
      </trkpt>
      <trkpt lat="43.19571333" lon="-4.31225667">
        <ele>433.0</ele>
        <time>2018-05-19T16:08:36.470Z</time>
      </trkpt>
      <trkpt lat="43.19573167" lon="-4.31226833">
        <ele>433.0</ele>
        <time>2018-05-19T16:08:37.471Z</time>
      </trkpt>
      <trkpt lat="43.19573167" lon="-4.31226833">
        <ele>433.0</ele>
        <time>2018-05-19T16:08:38.463Z</time>
      </trkpt>
      <trkpt lat="43.19577333" lon="-4.31228167">
        <ele>434.0</ele>
        <time>2018-05-19T16:08:39.470Z</time>
      </trkpt>
      <trkpt lat="43.19577333" lon="-4.31228167">
        <ele>434.0</ele>
        <time>2018-05-19T16:08:40.463Z</time>
      </trkpt>
      <trkpt lat="43.19581" lon="-4.3123">
        <ele>434.0</ele>
        <time>2018-05-19T16:08:41.468Z</time>
      </trkpt>
      <trkpt lat="43.195825" lon="-4.31231333">
        <ele>435.0</ele>
        <time>2018-05-19T16:08:42.469Z</time>
      </trkpt>
      <trkpt lat="43.19584" lon="-4.31233">
        <ele>435.0</ele>
        <time>2018-05-19T16:08:43.470Z</time>
      </trkpt>
      <trkpt lat="43.19584" lon="-4.31233">
        <ele>435.0</ele>
        <time>2018-05-19T16:08:44.463Z</time>
      </trkpt>
      <trkpt lat="43.19586833" lon="-4.312365">
        <ele>436.0</ele>
        <time>2018-05-19T16:08:45.470Z</time>
      </trkpt>
      <trkpt lat="43.19586833" lon="-4.312365">
        <ele>436.0</ele>
        <time>2018-05-19T16:08:46.464Z</time>
      </trkpt>
      <trkpt lat="43.19589667" lon="-4.31240333">
        <ele>436.0</ele>
        <time>2018-05-19T16:08:47.465Z</time>
      </trkpt>
      <trkpt lat="43.19589667" lon="-4.31240333">
        <ele>436.0</ele>
        <time>2018-05-19T16:08:48.466Z</time>
      </trkpt>
      <trkpt lat="43.19592167" lon="-4.31245">
        <ele>437.0</ele>
        <time>2018-05-19T16:08:49.468Z</time>
      </trkpt>
      <trkpt lat="43.19592167" lon="-4.31245">
        <ele>437.0</ele>
        <time>2018-05-19T16:08:50.463Z</time>
      </trkpt>
      <trkpt lat="43.19594667" lon="-4.31249833">
        <ele>437.0</ele>
        <time>2018-05-19T16:08:51.469Z</time>
      </trkpt>
      <trkpt lat="43.19594667" lon="-4.31249833">
        <ele>437.0</ele>
        <time>2018-05-19T16:08:52.465Z</time>
      </trkpt>
      <trkpt lat="43.19597" lon="-4.312555">
        <ele>437.0</ele>
        <time>2018-05-19T16:08:53.449Z</time>
      </trkpt>
      <trkpt lat="43.19597833" lon="-4.31256667">
        <ele>437.0</ele>
        <time>2018-05-19T16:08:54.480Z</time>
      </trkpt>
      <trkpt lat="43.19597833" lon="-4.31256667">
        <ele>437.0</ele>
        <time>2018-05-19T16:08:55.468Z</time>
      </trkpt>
      <trkpt lat="43.196" lon="-4.31260167">
        <ele>437.0</ele>
        <time>2018-05-19T16:08:56.468Z</time>
      </trkpt>
      <trkpt lat="43.19600667" lon="-4.31261667">
        <ele>437.0</ele>
        <time>2018-05-19T16:08:57.466Z</time>
      </trkpt>
      <trkpt lat="43.19600667" lon="-4.31261667">
        <ele>437.0</ele>
        <time>2018-05-19T16:08:58.463Z</time>
      </trkpt>
      <trkpt lat="43.19600667" lon="-4.31265333">
        <ele>438.0</ele>
        <time>2018-05-19T16:08:59.468Z</time>
      </trkpt>
      <trkpt lat="43.19600667" lon="-4.31265333">
        <ele>438.0</ele>
        <time>2018-05-19T16:09:00.463Z</time>
      </trkpt>
      <trkpt lat="43.19599" lon="-4.31268833">
        <ele>438.0</ele>
        <time>2018-05-19T16:09:01.470Z</time>
      </trkpt>
      <trkpt lat="43.19599" lon="-4.31268833">
        <ele>438.0</ele>
        <time>2018-05-19T16:09:02.481Z</time>
      </trkpt>
      <trkpt lat="43.19596" lon="-4.312705">
        <ele>438.0</ele>
        <time>2018-05-19T16:09:03.483Z</time>
      </trkpt>
      <trkpt lat="43.19594167" lon="-4.312705">
        <ele>439.0</ele>
        <time>2018-05-19T16:09:04.469Z</time>
      </trkpt>
      <trkpt lat="43.19594167" lon="-4.312705">
        <ele>439.0</ele>
        <time>2018-05-19T16:09:05.464Z</time>
      </trkpt>
      <trkpt lat="43.19591333" lon="-4.31269667">
        <ele>439.0</ele>
        <time>2018-05-19T16:09:06.468Z</time>
      </trkpt>
      <trkpt lat="43.19590167" lon="-4.31269333">
        <ele>439.0</ele>
        <time>2018-05-19T16:09:07.470Z</time>
      </trkpt>
      <trkpt lat="43.19590167" lon="-4.31269333">
        <ele>439.0</ele>
        <time>2018-05-19T16:09:08.462Z</time>
      </trkpt>
      <trkpt lat="43.19588167" lon="-4.31271">
        <ele>440.0</ele>
        <time>2018-05-19T16:09:09.474Z</time>
      </trkpt>
      <trkpt lat="43.19588167" lon="-4.31271">
        <ele>440.0</ele>
        <time>2018-05-19T16:09:10.465Z</time>
      </trkpt>
      <trkpt lat="43.19586333" lon="-4.31270667">
        <ele>440.0</ele>
        <time>2018-05-19T16:09:11.476Z</time>
      </trkpt>
      <trkpt lat="43.19585333" lon="-4.31269667">
        <ele>440.0</ele>
        <time>2018-05-19T16:09:12.469Z</time>
      </trkpt>
      <trkpt lat="43.19585333" lon="-4.31269667">
        <ele>440.0</ele>
        <time>2018-05-19T16:09:13.459Z</time>
      </trkpt>
      <trkpt lat="43.19582833" lon="-4.31269333">
        <ele>441.0</ele>
        <time>2018-05-19T16:09:14.469Z</time>
      </trkpt>
      <trkpt lat="43.19582833" lon="-4.31269333">
        <ele>441.0</ele>
        <time>2018-05-19T16:09:15.455Z</time>
      </trkpt>
      <trkpt lat="43.19580833" lon="-4.3127">
        <ele>442.0</ele>
        <time>2018-05-19T16:09:16.461Z</time>
      </trkpt>
      <trkpt lat="43.19579833" lon="-4.312705">
        <ele>443.0</ele>
        <time>2018-05-19T16:09:17.474Z</time>
      </trkpt>
      <trkpt lat="43.19579" lon="-4.31271333">
        <ele>443.0</ele>
        <time>2018-05-19T16:09:18.470Z</time>
      </trkpt>
      <trkpt lat="43.19579" lon="-4.31271333">
        <ele>443.0</ele>
        <time>2018-05-19T16:09:19.463Z</time>
      </trkpt>
      <trkpt lat="43.19576833" lon="-4.31271333">
        <ele>444.0</ele>
        <time>2018-05-19T16:09:20.468Z</time>
      </trkpt>
      <trkpt lat="43.19575667" lon="-4.312705">
        <ele>444.0</ele>
        <time>2018-05-19T16:09:21.466Z</time>
      </trkpt>
      <trkpt lat="43.19575667" lon="-4.312705">
        <ele>444.0</ele>
        <time>2018-05-19T16:09:22.464Z</time>
      </trkpt>
      <trkpt lat="43.19573333" lon="-4.312695">
        <ele>445.0</ele>
        <time>2018-05-19T16:09:23.465Z</time>
      </trkpt>
      <trkpt lat="43.195725" lon="-4.31270333">
        <ele>445.0</ele>
        <time>2018-05-19T16:09:24.489Z</time>
      </trkpt>
      <trkpt lat="43.195715" lon="-4.31271333">
        <ele>445.0</ele>
        <time>2018-05-19T16:09:25.483Z</time>
      </trkpt>
      <trkpt lat="43.195715" lon="-4.31271333">
        <ele>445.0</ele>
        <time>2018-05-19T16:09:26.468Z</time>
      </trkpt>
      <trkpt lat="43.19569167" lon="-4.31272833">
        <ele>446.0</ele>
        <time>2018-05-19T16:09:27.468Z</time>
      </trkpt>
      <trkpt lat="43.19567667" lon="-4.31273">
        <ele>446.0</ele>
        <time>2018-05-19T16:09:28.465Z</time>
      </trkpt>
      <trkpt lat="43.19567667" lon="-4.31273">
        <ele>446.0</ele>
        <time>2018-05-19T16:09:29.464Z</time>
      </trkpt>
      <trkpt lat="43.19565333" lon="-4.31272167">
        <ele>447.0</ele>
        <time>2018-05-19T16:09:30.466Z</time>
      </trkpt>
      <trkpt lat="43.19564167" lon="-4.312725">
        <ele>447.0</ele>
        <time>2018-05-19T16:09:31.482Z</time>
      </trkpt>
      <trkpt lat="43.19564167" lon="-4.312725">
        <ele>447.0</ele>
        <time>2018-05-19T16:09:32.463Z</time>
      </trkpt>
      <trkpt lat="43.195625" lon="-4.31274167">
        <ele>447.0</ele>
        <time>2018-05-19T16:09:33.469Z</time>
      </trkpt>
      <trkpt lat="43.195615" lon="-4.31274167">
        <ele>448.0</ele>
        <time>2018-05-19T16:09:34.468Z</time>
      </trkpt>
      <trkpt lat="43.195615" lon="-4.31274167">
        <ele>448.0</ele>
        <time>2018-05-19T16:09:35.466Z</time>
      </trkpt>
      <trkpt lat="43.19559333" lon="-4.31272667">
        <ele>448.0</ele>
        <time>2018-05-19T16:09:36.449Z</time>
      </trkpt>
      <trkpt lat="43.19558" lon="-4.31272">
        <ele>448.0</ele>
        <time>2018-05-19T16:09:37.477Z</time>
      </trkpt>
      <trkpt lat="43.19558" lon="-4.31272">
        <ele>448.0</ele>
        <time>2018-05-19T16:09:38.464Z</time>
      </trkpt>
      <trkpt lat="43.19555833" lon="-4.31273333">
        <ele>449.0</ele>
        <time>2018-05-19T16:09:39.469Z</time>
      </trkpt>
      <trkpt lat="43.19555833" lon="-4.31273333">
        <ele>449.0</ele>
        <time>2018-05-19T16:09:40.463Z</time>
      </trkpt>
      <trkpt lat="43.19554333" lon="-4.31275167">
        <ele>449.0</ele>
        <time>2018-05-19T16:09:41.468Z</time>
      </trkpt>
      <trkpt lat="43.19554333" lon="-4.31275167">
        <ele>449.0</ele>
        <time>2018-05-19T16:09:42.463Z</time>
      </trkpt>
      <trkpt lat="43.195525" lon="-4.31273833">
        <ele>449.0</ele>
        <time>2018-05-19T16:09:43.470Z</time>
      </trkpt>
      <trkpt lat="43.195525" lon="-4.31273833">
        <ele>449.0</ele>
        <time>2018-05-19T16:09:44.451Z</time>
      </trkpt>
      <trkpt lat="43.19550167" lon="-4.31272833">
        <ele>449.0</ele>
        <time>2018-05-19T16:09:45.478Z</time>
      </trkpt>
      <trkpt lat="43.19550167" lon="-4.31272833">
        <ele>449.0</ele>
        <time>2018-05-19T16:09:46.464Z</time>
      </trkpt>
      <trkpt lat="43.19548333" lon="-4.31274833">
        <ele>450.0</ele>
        <time>2018-05-19T16:09:47.468Z</time>
      </trkpt>
      <trkpt lat="43.195475" lon="-4.31276">
        <ele>450.0</ele>
        <time>2018-05-19T16:09:48.468Z</time>
      </trkpt>
      <trkpt lat="43.195465" lon="-4.31276833">
        <ele>450.0</ele>
        <time>2018-05-19T16:09:49.470Z</time>
      </trkpt>
      <trkpt lat="43.195465" lon="-4.31276833">
        <ele>450.0</ele>
        <time>2018-05-19T16:09:50.464Z</time>
      </trkpt>
      <trkpt lat="43.19544333" lon="-4.312765">
        <ele>451.0</ele>
        <time>2018-05-19T16:09:51.470Z</time>
      </trkpt>
      <trkpt lat="43.19543333" lon="-4.31276167">
        <ele>451.0</ele>
        <time>2018-05-19T16:09:52.467Z</time>
      </trkpt>
      <trkpt lat="43.19543333" lon="-4.31276167">
        <ele>451.0</ele>
        <time>2018-05-19T16:09:53.457Z</time>
      </trkpt>
      <trkpt lat="43.19541" lon="-4.31275667">
        <ele>451.0</ele>
        <time>2018-05-19T16:09:54.468Z</time>
      </trkpt>
      <trkpt lat="43.1954" lon="-4.31275833">
        <ele>452.0</ele>
        <time>2018-05-19T16:09:55.470Z</time>
      </trkpt>
      <trkpt lat="43.1954" lon="-4.31275833">
        <ele>452.0</ele>
        <time>2018-05-19T16:09:56.463Z</time>
      </trkpt>
      <trkpt lat="43.19538333" lon="-4.31277667">
        <ele>452.0</ele>
        <time>2018-05-19T16:09:57.469Z</time>
      </trkpt>
      <trkpt lat="43.19538333" lon="-4.31277667">
        <ele>452.0</ele>
        <time>2018-05-19T16:09:58.465Z</time>
      </trkpt>
      <trkpt lat="43.195365" lon="-4.31279833">
        <ele>452.0</ele>
        <time>2018-05-19T16:09:59.468Z</time>
      </trkpt>
      <trkpt lat="43.19535167" lon="-4.31279833">
        <ele>453.0</ele>
        <time>2018-05-19T16:10:00.469Z</time>
      </trkpt>
      <trkpt lat="43.19534" lon="-4.31279667">
        <ele>453.0</ele>
        <time>2018-05-19T16:10:01.469Z</time>
      </trkpt>
      <trkpt lat="43.19534" lon="-4.31279667">
        <ele>453.0</ele>
        <time>2018-05-19T16:10:02.465Z</time>
      </trkpt>
      <trkpt lat="43.19532167" lon="-4.312805">
        <ele>453.0</ele>
        <time>2018-05-19T16:10:03.469Z</time>
      </trkpt>
      <trkpt lat="43.19532167" lon="-4.312805">
        <ele>453.0</ele>
        <time>2018-05-19T16:10:04.463Z</time>
      </trkpt>
      <trkpt lat="43.19530167" lon="-4.312825">
        <ele>453.0</ele>
        <time>2018-05-19T16:10:05.469Z</time>
      </trkpt>
      <trkpt lat="43.19530167" lon="-4.312825">
        <ele>453.0</ele>
        <time>2018-05-19T16:10:06.465Z</time>
      </trkpt>
      <trkpt lat="43.19528167" lon="-4.31284">
        <ele>454.0</ele>
        <time>2018-05-19T16:10:07.470Z</time>
      </trkpt>
      <trkpt lat="43.19528167" lon="-4.31284">
        <ele>454.0</ele>
        <time>2018-05-19T16:10:08.463Z</time>
      </trkpt>
      <trkpt lat="43.19525833" lon="-4.312845">
        <ele>454.0</ele>
        <time>2018-05-19T16:10:09.469Z</time>
      </trkpt>
      <trkpt lat="43.19525833" lon="-4.312845">
        <ele>454.0</ele>
        <time>2018-05-19T16:10:10.463Z</time>
      </trkpt>
      <trkpt lat="43.19523" lon="-4.31285">
        <ele>454.0</ele>
        <time>2018-05-19T16:10:11.467Z</time>
      </trkpt>
      <trkpt lat="43.19523" lon="-4.31285">
        <ele>454.0</ele>
        <time>2018-05-19T16:10:12.463Z</time>
      </trkpt>
      <trkpt lat="43.19521" lon="-4.31285333">
        <ele>455.0</ele>
        <time>2018-05-19T16:10:13.470Z</time>
      </trkpt>
      <trkpt lat="43.19521" lon="-4.31285333">
        <ele>455.0</ele>
        <time>2018-05-19T16:10:14.463Z</time>
      </trkpt>
      <trkpt lat="43.19519" lon="-4.31284667">
        <ele>455.0</ele>
        <time>2018-05-19T16:10:15.469Z</time>
      </trkpt>
      <trkpt lat="43.19519" lon="-4.31284667">
        <ele>455.0</ele>
        <time>2018-05-19T16:10:16.466Z</time>
      </trkpt>
      <trkpt lat="43.195165" lon="-4.31285333">
        <ele>456.0</ele>
        <time>2018-05-19T16:10:17.465Z</time>
      </trkpt>
      <trkpt lat="43.19515333" lon="-4.31285667">
        <ele>456.0</ele>
        <time>2018-05-19T16:10:18.470Z</time>
      </trkpt>
      <trkpt lat="43.19515333" lon="-4.31285667">
        <ele>456.0</ele>
        <time>2018-05-19T16:10:19.463Z</time>
      </trkpt>
      <trkpt lat="43.19513167" lon="-4.31286833">
        <ele>457.0</ele>
        <time>2018-05-19T16:10:20.466Z</time>
      </trkpt>
      <trkpt lat="43.19512167" lon="-4.312875">
        <ele>457.0</ele>
        <time>2018-05-19T16:10:21.448Z</time>
      </trkpt>
      <trkpt lat="43.19512167" lon="-4.312875">
        <ele>457.0</ele>
        <time>2018-05-19T16:10:22.472Z</time>
      </trkpt>
      <trkpt lat="43.19510667" lon="-4.3129">
        <ele>457.0</ele>
        <time>2018-05-19T16:10:23.482Z</time>
      </trkpt>
      <trkpt lat="43.19510667" lon="-4.3129">
        <ele>457.0</ele>
        <time>2018-05-19T16:10:24.481Z</time>
      </trkpt>
      <trkpt lat="43.19508167" lon="-4.31291167">
        <ele>458.0</ele>
        <time>2018-05-19T16:10:25.470Z</time>
      </trkpt>
      <trkpt lat="43.19508167" lon="-4.31291167">
        <ele>458.0</ele>
        <time>2018-05-19T16:10:26.465Z</time>
      </trkpt>
      <trkpt lat="43.195055" lon="-4.312915">
        <ele>458.0</ele>
        <time>2018-05-19T16:10:27.468Z</time>
      </trkpt>
      <trkpt lat="43.19504833" lon="-4.31291833">
        <ele>458.0</ele>
        <time>2018-05-19T16:10:28.468Z</time>
      </trkpt>
      <trkpt lat="43.19504833" lon="-4.31291833">
        <ele>458.0</ele>
        <time>2018-05-19T16:10:29.464Z</time>
      </trkpt>
      <trkpt lat="43.19504333" lon="-4.31292333">
        <ele>458.0</ele>
        <time>2018-05-19T16:10:30.466Z</time>
      </trkpt>
      <trkpt lat="43.19504333" lon="-4.31292333">
        <ele>458.0</ele>
        <time>2018-05-19T16:10:31.456Z</time>
      </trkpt>
      <trkpt lat="43.19504333" lon="-4.312925">
        <ele>459.0</ele>
        <time>2018-05-19T16:10:32.463Z</time>
      </trkpt>
      <trkpt lat="43.195025" lon="-4.31294">
        <ele>459.0</ele>
        <time>2018-05-19T16:10:33.470Z</time>
      </trkpt>
      <trkpt lat="43.195025" lon="-4.31294">
        <ele>459.0</ele>
        <time>2018-05-19T16:10:34.463Z</time>
      </trkpt>
      <trkpt lat="43.19500833" lon="-4.312955">
        <ele>459.0</ele>
        <time>2018-05-19T16:10:35.465Z</time>
      </trkpt>
      <trkpt lat="43.19500833" lon="-4.312955">
        <ele>459.0</ele>
        <time>2018-05-19T16:10:36.465Z</time>
      </trkpt>
      <trkpt lat="43.19499" lon="-4.31296833">
        <ele>460.0</ele>
        <time>2018-05-19T16:10:37.470Z</time>
      </trkpt>
      <trkpt lat="43.19499" lon="-4.31296833">
        <ele>460.0</ele>
        <time>2018-05-19T16:10:38.464Z</time>
      </trkpt>
      <trkpt lat="43.19497167" lon="-4.31297667">
        <ele>460.0</ele>
        <time>2018-05-19T16:10:39.467Z</time>
      </trkpt>
      <trkpt lat="43.19497167" lon="-4.31297667">
        <ele>460.0</ele>
        <time>2018-05-19T16:10:40.465Z</time>
      </trkpt>
      <trkpt lat="43.19495333" lon="-4.31298333">
        <ele>461.0</ele>
        <time>2018-05-19T16:10:41.464Z</time>
      </trkpt>
      <trkpt lat="43.19495333" lon="-4.31298333">
        <ele>461.0</ele>
        <time>2018-05-19T16:10:42.460Z</time>
      </trkpt>
      <trkpt lat="43.19493667" lon="-4.31299833">
        <ele>461.0</ele>
        <time>2018-05-19T16:10:43.468Z</time>
      </trkpt>
      <trkpt lat="43.19493667" lon="-4.31299833">
        <ele>461.0</ele>
        <time>2018-05-19T16:10:44.465Z</time>
      </trkpt>
      <trkpt lat="43.19492" lon="-4.313">
        <ele>462.0</ele>
        <time>2018-05-19T16:10:45.468Z</time>
      </trkpt>
      <trkpt lat="43.19492" lon="-4.313">
        <ele>462.0</ele>
        <time>2018-05-19T16:10:46.463Z</time>
      </trkpt>
      <trkpt lat="43.19490333" lon="-4.31300833">
        <ele>462.0</ele>
        <time>2018-05-19T16:10:47.466Z</time>
      </trkpt>
      <trkpt lat="43.194895" lon="-4.313015">
        <ele>462.0</ele>
        <time>2018-05-19T16:10:48.467Z</time>
      </trkpt>
      <trkpt lat="43.194895" lon="-4.313015">
        <ele>462.0</ele>
        <time>2018-05-19T16:10:49.464Z</time>
      </trkpt>
      <trkpt lat="43.19487667" lon="-4.31302667">
        <ele>463.0</ele>
        <time>2018-05-19T16:10:50.468Z</time>
      </trkpt>
      <trkpt lat="43.19487667" lon="-4.31302667">
        <ele>463.0</ele>
        <time>2018-05-19T16:10:51.448Z</time>
      </trkpt>
      <trkpt lat="43.19485667" lon="-4.31304">
        <ele>463.0</ele>
        <time>2018-05-19T16:10:52.476Z</time>
      </trkpt>
      <trkpt lat="43.19485667" lon="-4.31304">
        <ele>463.0</ele>
        <time>2018-05-19T16:10:53.464Z</time>
      </trkpt>
      <trkpt lat="43.19483667" lon="-4.31305">
        <ele>463.0</ele>
        <time>2018-05-19T16:10:54.486Z</time>
      </trkpt>
      <trkpt lat="43.19482667" lon="-4.313055">
        <ele>463.0</ele>
        <time>2018-05-19T16:10:55.479Z</time>
      </trkpt>
      <trkpt lat="43.19482667" lon="-4.313055">
        <ele>463.0</ele>
        <time>2018-05-19T16:10:56.466Z</time>
      </trkpt>
      <trkpt lat="43.19480833" lon="-4.31306167">
        <ele>464.0</ele>
        <time>2018-05-19T16:10:57.469Z</time>
      </trkpt>
      <trkpt lat="43.19480833" lon="-4.31306167">
        <ele>464.0</ele>
        <time>2018-05-19T16:10:58.465Z</time>
      </trkpt>
      <trkpt lat="43.19478833" lon="-4.31306833">
        <ele>464.0</ele>
        <time>2018-05-19T16:10:59.468Z</time>
      </trkpt>
      <trkpt lat="43.19477833" lon="-4.31307167">
        <ele>464.0</ele>
        <time>2018-05-19T16:11:00.469Z</time>
      </trkpt>
      <trkpt lat="43.19477833" lon="-4.31307167">
        <ele>464.0</ele>
        <time>2018-05-19T16:11:01.463Z</time>
      </trkpt>
      <trkpt lat="43.19475833" lon="-4.31307833">
        <ele>465.0</ele>
        <time>2018-05-19T16:11:02.466Z</time>
      </trkpt>
      <trkpt lat="43.19474833" lon="-4.31308333">
        <ele>465.0</ele>
        <time>2018-05-19T16:11:03.468Z</time>
      </trkpt>
      <trkpt lat="43.19474833" lon="-4.31308333">
        <ele>465.0</ele>
        <time>2018-05-19T16:11:04.459Z</time>
      </trkpt>
      <trkpt lat="43.19472667" lon="-4.31308833">
        <ele>465.0</ele>
        <time>2018-05-19T16:11:05.466Z</time>
      </trkpt>
      <trkpt lat="43.19472667" lon="-4.31308833">
        <ele>465.0</ele>
        <time>2018-05-19T16:11:06.463Z</time>
      </trkpt>
      <trkpt lat="43.19470667" lon="-4.31309667">
        <ele>466.0</ele>
        <time>2018-05-19T16:11:07.470Z</time>
      </trkpt>
      <trkpt lat="43.19470667" lon="-4.31309667">
        <ele>466.0</ele>
        <time>2018-05-19T16:11:08.462Z</time>
      </trkpt>
      <trkpt lat="43.19468333" lon="-4.313105">
        <ele>466.0</ele>
        <time>2018-05-19T16:11:09.468Z</time>
      </trkpt>
      <trkpt lat="43.19468333" lon="-4.313105">
        <ele>466.0</ele>
        <time>2018-05-19T16:11:10.464Z</time>
      </trkpt>
      <trkpt lat="43.19466333" lon="-4.31311667">
        <ele>467.0</ele>
        <time>2018-05-19T16:11:11.467Z</time>
      </trkpt>
      <trkpt lat="43.19466333" lon="-4.31311667">
        <ele>467.0</ele>
        <time>2018-05-19T16:11:12.464Z</time>
      </trkpt>
      <trkpt lat="43.19464667" lon="-4.31312667">
        <ele>467.0</ele>
        <time>2018-05-19T16:11:13.470Z</time>
      </trkpt>
      <trkpt lat="43.19464667" lon="-4.31312667">
        <ele>467.0</ele>
        <time>2018-05-19T16:11:14.459Z</time>
      </trkpt>
      <trkpt lat="43.19462667" lon="-4.31313">
        <ele>467.0</ele>
        <time>2018-05-19T16:11:15.468Z</time>
      </trkpt>
      <trkpt lat="43.19462667" lon="-4.31313">
        <ele>467.0</ele>
        <time>2018-05-19T16:11:16.464Z</time>
      </trkpt>
      <trkpt lat="43.19460833" lon="-4.31313">
        <ele>468.0</ele>
        <time>2018-05-19T16:11:17.468Z</time>
      </trkpt>
      <trkpt lat="43.19459833" lon="-4.31313333">
        <ele>468.0</ele>
        <time>2018-05-19T16:11:18.484Z</time>
      </trkpt>
      <trkpt lat="43.19459833" lon="-4.31313333">
        <ele>468.0</ele>
        <time>2018-05-19T16:11:19.465Z</time>
      </trkpt>
      <trkpt lat="43.19458" lon="-4.31313833">
        <ele>468.0</ele>
        <time>2018-05-19T16:11:20.466Z</time>
      </trkpt>
      <trkpt lat="43.19458" lon="-4.31313833">
        <ele>468.0</ele>
        <time>2018-05-19T16:11:21.448Z</time>
      </trkpt>
      <trkpt lat="43.19456" lon="-4.31314333">
        <ele>469.0</ele>
        <time>2018-05-19T16:11:22.478Z</time>
      </trkpt>
      <trkpt lat="43.19456" lon="-4.31314333">
        <ele>469.0</ele>
        <time>2018-05-19T16:11:23.470Z</time>
      </trkpt>
      <trkpt lat="43.19454" lon="-4.31314333">
        <ele>469.0</ele>
        <time>2018-05-19T16:11:24.480Z</time>
      </trkpt>
      <trkpt lat="43.19453" lon="-4.31314333">
        <ele>469.0</ele>
        <time>2018-05-19T16:11:25.486Z</time>
      </trkpt>
      <trkpt lat="43.19453" lon="-4.31314333">
        <ele>469.0</ele>
        <time>2018-05-19T16:11:26.462Z</time>
      </trkpt>
      <trkpt lat="43.19451" lon="-4.31314667">
        <ele>470.0</ele>
        <time>2018-05-19T16:11:27.464Z</time>
      </trkpt>
      <trkpt lat="43.19451" lon="-4.31314667">
        <ele>470.0</ele>
        <time>2018-05-19T16:11:28.464Z</time>
      </trkpt>
      <trkpt lat="43.19449" lon="-4.313155">
        <ele>470.0</ele>
        <time>2018-05-19T16:11:29.466Z</time>
      </trkpt>
      <trkpt lat="43.19449" lon="-4.313155">
        <ele>470.0</ele>
        <time>2018-05-19T16:11:30.464Z</time>
      </trkpt>
      <trkpt lat="43.19447" lon="-4.31315833">
        <ele>471.0</ele>
        <time>2018-05-19T16:11:31.482Z</time>
      </trkpt>
      <trkpt lat="43.19447" lon="-4.31315833">
        <ele>471.0</ele>
        <time>2018-05-19T16:11:32.464Z</time>
      </trkpt>
      <trkpt lat="43.19444667" lon="-4.31316">
        <ele>471.0</ele>
        <time>2018-05-19T16:11:33.469Z</time>
      </trkpt>
      <trkpt lat="43.19444667" lon="-4.31316">
        <ele>471.0</ele>
        <time>2018-05-19T16:11:34.464Z</time>
      </trkpt>
      <trkpt lat="43.194425" lon="-4.31316667">
        <ele>471.0</ele>
        <time>2018-05-19T16:11:35.465Z</time>
      </trkpt>
      <trkpt lat="43.194425" lon="-4.31316667">
        <ele>471.0</ele>
        <time>2018-05-19T16:11:36.465Z</time>
      </trkpt>
      <trkpt lat="43.19440667" lon="-4.31317833">
        <ele>471.0</ele>
        <time>2018-05-19T16:11:37.468Z</time>
      </trkpt>
      <trkpt lat="43.19440667" lon="-4.31317833">
        <ele>471.0</ele>
        <time>2018-05-19T16:11:38.464Z</time>
      </trkpt>
      <trkpt lat="43.19439667" lon="-4.3132">
        <ele>472.0</ele>
        <time>2018-05-19T16:11:39.468Z</time>
      </trkpt>
      <trkpt lat="43.19439667" lon="-4.3132">
        <ele>472.0</ele>
        <time>2018-05-19T16:11:40.465Z</time>
      </trkpt>
      <trkpt lat="43.19439333" lon="-4.31322833">
        <ele>472.0</ele>
        <time>2018-05-19T16:11:41.466Z</time>
      </trkpt>
      <trkpt lat="43.194395" lon="-4.31324333">
        <ele>472.0</ele>
        <time>2018-05-19T16:11:42.467Z</time>
      </trkpt>
      <trkpt lat="43.19439667" lon="-4.313255">
        <ele>473.0</ele>
        <time>2018-05-19T16:11:43.469Z</time>
      </trkpt>
      <trkpt lat="43.19439667" lon="-4.313255">
        <ele>473.0</ele>
        <time>2018-05-19T16:11:44.464Z</time>
      </trkpt>
      <trkpt lat="43.19440333" lon="-4.31328167">
        <ele>473.0</ele>
        <time>2018-05-19T16:11:45.466Z</time>
      </trkpt>
      <trkpt lat="43.19440333" lon="-4.31328167">
        <ele>473.0</ele>
        <time>2018-05-19T16:11:46.462Z</time>
      </trkpt>
      <trkpt lat="43.19441167" lon="-4.313305">
        <ele>474.0</ele>
        <time>2018-05-19T16:11:47.466Z</time>
      </trkpt>
      <trkpt lat="43.19441167" lon="-4.313305">
        <ele>474.0</ele>
        <time>2018-05-19T16:11:48.464Z</time>
      </trkpt>
      <trkpt lat="43.19442167" lon="-4.313325">
        <ele>474.0</ele>
        <time>2018-05-19T16:11:49.479Z</time>
      </trkpt>
      <trkpt lat="43.19442167" lon="-4.313325">
        <ele>474.0</ele>
        <time>2018-05-19T16:11:50.464Z</time>
      </trkpt>
      <trkpt lat="43.19443333" lon="-4.31334167">
        <ele>474.0</ele>
        <time>2018-05-19T16:11:51.465Z</time>
      </trkpt>
      <trkpt lat="43.19443333" lon="-4.31334167">
        <ele>474.0</ele>
        <time>2018-05-19T16:11:52.464Z</time>
      </trkpt>
      <trkpt lat="43.194445" lon="-4.31335333">
        <ele>475.0</ele>
        <time>2018-05-19T16:11:53.468Z</time>
      </trkpt>
      <trkpt lat="43.194445" lon="-4.31335333">
        <ele>475.0</ele>
        <time>2018-05-19T16:11:54.465Z</time>
      </trkpt>
      <trkpt lat="43.19445667" lon="-4.31337667">
        <ele>475.0</ele>
        <time>2018-05-19T16:11:55.468Z</time>
      </trkpt>
      <trkpt lat="43.19445667" lon="-4.31337667">
        <ele>475.0</ele>
        <time>2018-05-19T16:11:56.464Z</time>
      </trkpt>
      <trkpt lat="43.19447" lon="-4.31339833">
        <ele>475.0</ele>
        <time>2018-05-19T16:11:57.468Z</time>
      </trkpt>
      <trkpt lat="43.19447" lon="-4.31339833">
        <ele>475.0</ele>
        <time>2018-05-19T16:11:58.465Z</time>
      </trkpt>
      <trkpt lat="43.19448333" lon="-4.313415">
        <ele>476.0</ele>
        <time>2018-05-19T16:11:59.467Z</time>
      </trkpt>
      <trkpt lat="43.19448333" lon="-4.313415">
        <ele>476.0</ele>
        <time>2018-05-19T16:12:00.462Z</time>
      </trkpt>
      <trkpt lat="43.19449667" lon="-4.31343">
        <ele>476.0</ele>
        <time>2018-05-19T16:12:01.469Z</time>
      </trkpt>
      <trkpt lat="43.19449667" lon="-4.31343">
        <ele>476.0</ele>
        <time>2018-05-19T16:12:02.464Z</time>
      </trkpt>
      <trkpt lat="43.19451167" lon="-4.31344833">
        <ele>477.0</ele>
        <time>2018-05-19T16:12:03.468Z</time>
      </trkpt>
      <trkpt lat="43.19451167" lon="-4.31344833">
        <ele>477.0</ele>
        <time>2018-05-19T16:12:04.462Z</time>
      </trkpt>
      <trkpt lat="43.19453" lon="-4.31345833">
        <ele>477.0</ele>
        <time>2018-05-19T16:12:05.464Z</time>
      </trkpt>
      <trkpt lat="43.19453" lon="-4.31345833">
        <ele>477.0</ele>
        <time>2018-05-19T16:12:06.465Z</time>
      </trkpt>
      <trkpt lat="43.194545" lon="-4.31347333">
        <ele>478.0</ele>
        <time>2018-05-19T16:12:07.468Z</time>
      </trkpt>
      <trkpt lat="43.194545" lon="-4.31347333">
        <ele>478.0</ele>
        <time>2018-05-19T16:12:08.461Z</time>
      </trkpt>
      <trkpt lat="43.194565" lon="-4.31348333">
        <ele>478.0</ele>
        <time>2018-05-19T16:12:09.468Z</time>
      </trkpt>
      <trkpt lat="43.194565" lon="-4.31348333">
        <ele>478.0</ele>
        <time>2018-05-19T16:12:10.464Z</time>
      </trkpt>
      <trkpt lat="43.19458333" lon="-4.31349667">
        <ele>479.0</ele>
        <time>2018-05-19T16:12:11.468Z</time>
      </trkpt>
      <trkpt lat="43.19459" lon="-4.31350333">
        <ele>479.0</ele>
        <time>2018-05-19T16:12:12.466Z</time>
      </trkpt>
      <trkpt lat="43.19459667" lon="-4.31351167">
        <ele>479.0</ele>
        <time>2018-05-19T16:12:13.468Z</time>
      </trkpt>
      <trkpt lat="43.19459667" lon="-4.31351167">
        <ele>479.0</ele>
        <time>2018-05-19T16:12:14.464Z</time>
      </trkpt>
      <trkpt lat="43.19461" lon="-4.313525">
        <ele>479.0</ele>
        <time>2018-05-19T16:12:15.464Z</time>
      </trkpt>
      <trkpt lat="43.19461" lon="-4.313525">
        <ele>479.0</ele>
        <time>2018-05-19T16:12:16.465Z</time>
      </trkpt>
      <trkpt lat="43.19462333" lon="-4.31353667">
        <ele>480.0</ele>
        <time>2018-05-19T16:12:17.467Z</time>
      </trkpt>
      <trkpt lat="43.19463" lon="-4.31354">
        <ele>480.0</ele>
        <time>2018-05-19T16:12:18.467Z</time>
      </trkpt>
      <trkpt lat="43.19463" lon="-4.31354">
        <ele>480.0</ele>
        <time>2018-05-19T16:12:19.464Z</time>
      </trkpt>
      <trkpt lat="43.194645" lon="-4.31355">
        <ele>480.0</ele>
        <time>2018-05-19T16:12:20.466Z</time>
      </trkpt>
      <trkpt lat="43.19465333" lon="-4.313555">
        <ele>480.0</ele>
        <time>2018-05-19T16:12:21.467Z</time>
      </trkpt>
      <trkpt lat="43.19465333" lon="-4.313555">
        <ele>480.0</ele>
        <time>2018-05-19T16:12:22.461Z</time>
      </trkpt>
      <trkpt lat="43.19467" lon="-4.31356333">
        <ele>481.0</ele>
        <time>2018-05-19T16:12:23.479Z</time>
      </trkpt>
      <trkpt lat="43.19467" lon="-4.31356333">
        <ele>481.0</ele>
        <time>2018-05-19T16:12:24.454Z</time>
      </trkpt>
      <trkpt lat="43.19468333" lon="-4.31357667">
        <ele>481.0</ele>
        <time>2018-05-19T16:12:25.461Z</time>
      </trkpt>
      <trkpt lat="43.19468333" lon="-4.31357667">
        <ele>481.0</ele>
        <time>2018-05-19T16:12:26.471Z</time>
      </trkpt>
      <trkpt lat="43.1947" lon="-4.31358667">
        <ele>481.0</ele>
        <time>2018-05-19T16:12:27.467Z</time>
      </trkpt>
      <trkpt lat="43.1947" lon="-4.31358667">
        <ele>481.0</ele>
        <time>2018-05-19T16:12:28.464Z</time>
      </trkpt>
      <trkpt lat="43.19471667" lon="-4.31359">
        <ele>481.0</ele>
        <time>2018-05-19T16:12:29.468Z</time>
      </trkpt>
      <trkpt lat="43.19471667" lon="-4.31359">
        <ele>481.0</ele>
        <time>2018-05-19T16:12:30.464Z</time>
      </trkpt>
      <trkpt lat="43.19473333" lon="-4.313605">
        <ele>482.0</ele>
        <time>2018-05-19T16:12:31.486Z</time>
      </trkpt>
      <trkpt lat="43.19473333" lon="-4.313605">
        <ele>482.0</ele>
        <time>2018-05-19T16:12:32.466Z</time>
      </trkpt>
      <trkpt lat="43.19474833" lon="-4.31362167">
        <ele>482.0</ele>
        <time>2018-05-19T16:12:33.468Z</time>
      </trkpt>
      <trkpt lat="43.19474833" lon="-4.31362167">
        <ele>482.0</ele>
        <time>2018-05-19T16:12:34.464Z</time>
      </trkpt>
      <trkpt lat="43.19476167" lon="-4.31364333">
        <ele>482.0</ele>
        <time>2018-05-19T16:12:35.466Z</time>
      </trkpt>
      <trkpt lat="43.19476167" lon="-4.31364333">
        <ele>482.0</ele>
        <time>2018-05-19T16:12:36.464Z</time>
      </trkpt>
      <trkpt lat="43.19478" lon="-4.31365667">
        <ele>483.0</ele>
        <time>2018-05-19T16:12:37.468Z</time>
      </trkpt>
      <trkpt lat="43.19478" lon="-4.31365667">
        <ele>483.0</ele>
        <time>2018-05-19T16:12:38.464Z</time>
      </trkpt>
      <trkpt lat="43.19479667" lon="-4.31367">
        <ele>483.0</ele>
        <time>2018-05-19T16:12:39.468Z</time>
      </trkpt>
      <trkpt lat="43.19479667" lon="-4.31367">
        <ele>483.0</ele>
        <time>2018-05-19T16:12:40.464Z</time>
      </trkpt>
      <trkpt lat="43.19481" lon="-4.313685">
        <ele>484.0</ele>
        <time>2018-05-19T16:12:41.464Z</time>
      </trkpt>
      <trkpt lat="43.19481833" lon="-4.31369333">
        <ele>484.0</ele>
        <time>2018-05-19T16:12:42.466Z</time>
      </trkpt>
      <trkpt lat="43.194825" lon="-4.313705">
        <ele>484.0</ele>
        <time>2018-05-19T16:12:43.468Z</time>
      </trkpt>
      <trkpt lat="43.194825" lon="-4.313705">
        <ele>484.0</ele>
        <time>2018-05-19T16:12:44.483Z</time>
      </trkpt>
      <trkpt lat="43.19484" lon="-4.31373">
        <ele>484.0</ele>
        <time>2018-05-19T16:12:45.469Z</time>
      </trkpt>
      <trkpt lat="43.194845" lon="-4.31373833">
        <ele>484.0</ele>
        <time>2018-05-19T16:12:46.467Z</time>
      </trkpt>
      <trkpt lat="43.194845" lon="-4.31373833">
        <ele>484.0</ele>
        <time>2018-05-19T16:12:47.465Z</time>
      </trkpt>
      <trkpt lat="43.19485833" lon="-4.31375833">
        <ele>485.0</ele>
        <time>2018-05-19T16:12:48.467Z</time>
      </trkpt>
      <trkpt lat="43.194865" lon="-4.31376833">
        <ele>485.0</ele>
        <time>2018-05-19T16:12:49.469Z</time>
      </trkpt>
      <trkpt lat="43.194865" lon="-4.31376833">
        <ele>485.0</ele>
        <time>2018-05-19T16:12:50.462Z</time>
      </trkpt>
      <trkpt lat="43.19488" lon="-4.313785">
        <ele>485.0</ele>
        <time>2018-05-19T16:12:51.469Z</time>
      </trkpt>
      <trkpt lat="43.19488" lon="-4.313785">
        <ele>485.0</ele>
        <time>2018-05-19T16:12:52.464Z</time>
      </trkpt>
      <trkpt lat="43.194895" lon="-4.31379667">
        <ele>485.0</ele>
        <time>2018-05-19T16:12:53.467Z</time>
      </trkpt>
      <trkpt lat="43.194895" lon="-4.31379667">
        <ele>485.0</ele>
        <time>2018-05-19T16:12:54.464Z</time>
      </trkpt>
      <trkpt lat="43.19490833" lon="-4.31381">
        <ele>485.0</ele>
        <time>2018-05-19T16:12:55.468Z</time>
      </trkpt>
      <trkpt lat="43.19490833" lon="-4.31381">
        <ele>485.0</ele>
        <time>2018-05-19T16:12:56.464Z</time>
      </trkpt>
      <trkpt lat="43.19492167" lon="-4.313825">
        <ele>486.0</ele>
        <time>2018-05-19T16:12:57.466Z</time>
      </trkpt>
      <trkpt lat="43.19493" lon="-4.31383333">
        <ele>486.0</ele>
        <time>2018-05-19T16:12:58.466Z</time>
      </trkpt>
      <trkpt lat="43.19493" lon="-4.31383333">
        <ele>486.0</ele>
        <time>2018-05-19T16:12:59.462Z</time>
      </trkpt>
      <trkpt lat="43.19494167" lon="-4.31385">
        <ele>486.0</ele>
        <time>2018-05-19T16:13:00.466Z</time>
      </trkpt>
      <trkpt lat="43.19494167" lon="-4.31385">
        <ele>486.0</ele>
        <time>2018-05-19T16:13:01.465Z</time>
      </trkpt>
      <trkpt lat="43.19495167" lon="-4.31386667">
        <ele>486.0</ele>
        <time>2018-05-19T16:13:02.466Z</time>
      </trkpt>
      <trkpt lat="43.19496" lon="-4.31387333">
        <ele>486.0</ele>
        <time>2018-05-19T16:13:03.468Z</time>
      </trkpt>
      <trkpt lat="43.19496" lon="-4.31387333">
        <ele>486.0</ele>
        <time>2018-05-19T16:13:04.462Z</time>
      </trkpt>
      <trkpt lat="43.19497167" lon="-4.313895">
        <ele>487.0</ele>
        <time>2018-05-19T16:13:05.460Z</time>
      </trkpt>
      <trkpt lat="43.19497667" lon="-4.313905">
        <ele>487.0</ele>
        <time>2018-05-19T16:13:06.485Z</time>
      </trkpt>
      <trkpt lat="43.19498167" lon="-4.31391667">
        <ele>487.0</ele>
        <time>2018-05-19T16:13:07.472Z</time>
      </trkpt>
      <trkpt lat="43.19498167" lon="-4.31391667">
        <ele>487.0</ele>
        <time>2018-05-19T16:13:08.461Z</time>
      </trkpt>
      <trkpt lat="43.19499167" lon="-4.31393833">
        <ele>488.0</ele>
        <time>2018-05-19T16:13:09.469Z</time>
      </trkpt>
      <trkpt lat="43.19499167" lon="-4.31393833">
        <ele>488.0</ele>
        <time>2018-05-19T16:13:10.464Z</time>
      </trkpt>
      <trkpt lat="43.19500333" lon="-4.31396">
        <ele>488.0</ele>
        <time>2018-05-19T16:13:11.466Z</time>
      </trkpt>
      <trkpt lat="43.19500333" lon="-4.31396">
        <ele>488.0</ele>
        <time>2018-05-19T16:13:12.464Z</time>
      </trkpt>
      <trkpt lat="43.19501333" lon="-4.31398167">
        <ele>488.0</ele>
        <time>2018-05-19T16:13:13.468Z</time>
      </trkpt>
      <trkpt lat="43.19501333" lon="-4.31398167">
        <ele>488.0</ele>
        <time>2018-05-19T16:13:14.464Z</time>
      </trkpt>
      <trkpt lat="43.19502333" lon="-4.314">
        <ele>489.0</ele>
        <time>2018-05-19T16:13:15.466Z</time>
      </trkpt>
      <trkpt lat="43.19502667" lon="-4.31401167">
        <ele>489.0</ele>
        <time>2018-05-19T16:13:16.466Z</time>
      </trkpt>
      <trkpt lat="43.19503167" lon="-4.31402167">
        <ele>489.0</ele>
        <time>2018-05-19T16:13:17.466Z</time>
      </trkpt>
      <trkpt lat="43.19503167" lon="-4.31402167">
        <ele>489.0</ele>
        <time>2018-05-19T16:13:18.468Z</time>
      </trkpt>
      <trkpt lat="43.19504" lon="-4.31404167">
        <ele>489.0</ele>
        <time>2018-05-19T16:13:19.467Z</time>
      </trkpt>
      <trkpt lat="43.19504" lon="-4.31404167">
        <ele>489.0</ele>
        <time>2018-05-19T16:13:20.462Z</time>
      </trkpt>
      <trkpt lat="43.19504667" lon="-4.31406333">
        <ele>490.0</ele>
        <time>2018-05-19T16:13:21.467Z</time>
      </trkpt>
      <trkpt lat="43.19504667" lon="-4.31406333">
        <ele>490.0</ele>
        <time>2018-05-19T16:13:22.464Z</time>
      </trkpt>
      <trkpt lat="43.195055" lon="-4.314085">
        <ele>490.0</ele>
        <time>2018-05-19T16:13:23.473Z</time>
      </trkpt>
      <trkpt lat="43.195055" lon="-4.314085">
        <ele>490.0</ele>
        <time>2018-05-19T16:13:24.464Z</time>
      </trkpt>
      <trkpt lat="43.19506333" lon="-4.31410167">
        <ele>491.0</ele>
        <time>2018-05-19T16:13:25.468Z</time>
      </trkpt>
      <trkpt lat="43.19506333" lon="-4.31410167">
        <ele>491.0</ele>
        <time>2018-05-19T16:13:26.464Z</time>
      </trkpt>
      <trkpt lat="43.19507" lon="-4.31411667">
        <ele>491.0</ele>
        <time>2018-05-19T16:13:27.467Z</time>
      </trkpt>
      <trkpt lat="43.19507" lon="-4.31411667">
        <ele>491.0</ele>
        <time>2018-05-19T16:13:28.465Z</time>
      </trkpt>
      <trkpt lat="43.19507667" lon="-4.314135">
        <ele>491.0</ele>
        <time>2018-05-19T16:13:29.466Z</time>
      </trkpt>
      <trkpt lat="43.19508" lon="-4.31414333">
        <ele>492.0</ele>
        <time>2018-05-19T16:13:30.467Z</time>
      </trkpt>
      <trkpt lat="43.19508333" lon="-4.31415167">
        <ele>492.0</ele>
        <time>2018-05-19T16:13:31.485Z</time>
      </trkpt>
      <trkpt lat="43.19508333" lon="-4.31415167">
        <ele>492.0</ele>
        <time>2018-05-19T16:13:32.464Z</time>
      </trkpt>
      <trkpt lat="43.19508833" lon="-4.31416833">
        <ele>492.0</ele>
        <time>2018-05-19T16:13:33.467Z</time>
      </trkpt>
      <trkpt lat="43.19508833" lon="-4.31416833">
        <ele>492.0</ele>
        <time>2018-05-19T16:13:34.464Z</time>
      </trkpt>
      <trkpt lat="43.19509167" lon="-4.314185">
        <ele>492.0</ele>
        <time>2018-05-19T16:13:35.464Z</time>
      </trkpt>
      <trkpt lat="43.19509333" lon="-4.31419333">
        <ele>493.0</ele>
        <time>2018-05-19T16:13:36.479Z</time>
      </trkpt>
      <trkpt lat="43.195095" lon="-4.31420167">
        <ele>493.0</ele>
        <time>2018-05-19T16:13:37.465Z</time>
      </trkpt>
      <trkpt lat="43.195095" lon="-4.31420167">
        <ele>493.0</ele>
        <time>2018-05-19T16:13:38.463Z</time>
      </trkpt>
      <trkpt lat="43.19509833" lon="-4.31421833">
        <ele>493.0</ele>
        <time>2018-05-19T16:13:39.479Z</time>
      </trkpt>
      <trkpt lat="43.19509833" lon="-4.31421833">
        <ele>493.0</ele>
        <time>2018-05-19T16:13:40.461Z</time>
      </trkpt>
      <trkpt lat="43.195105" lon="-4.31422833">
        <ele>494.0</ele>
        <time>2018-05-19T16:13:41.464Z</time>
      </trkpt>
      <trkpt lat="43.195105" lon="-4.31422833">
        <ele>494.0</ele>
        <time>2018-05-19T16:13:42.464Z</time>
      </trkpt>
      <trkpt lat="43.19510833" lon="-4.31424333">
        <ele>494.0</ele>
        <time>2018-05-19T16:13:43.468Z</time>
      </trkpt>
      <trkpt lat="43.19510833" lon="-4.31424333">
        <ele>494.0</ele>
        <time>2018-05-19T16:13:44.463Z</time>
      </trkpt>
      <trkpt lat="43.195115" lon="-4.31425667">
        <ele>494.0</ele>
        <time>2018-05-19T16:13:45.468Z</time>
      </trkpt>
      <trkpt lat="43.195115" lon="-4.31425667">
        <ele>494.0</ele>
        <time>2018-05-19T16:13:46.464Z</time>
      </trkpt>
      <trkpt lat="43.19512167" lon="-4.31427167">
        <ele>495.0</ele>
        <time>2018-05-19T16:13:47.466Z</time>
      </trkpt>
      <trkpt lat="43.19512167" lon="-4.31427167">
        <ele>495.0</ele>
        <time>2018-05-19T16:13:48.464Z</time>
      </trkpt>
      <trkpt lat="43.195125" lon="-4.31429167">
        <ele>495.0</ele>
        <time>2018-05-19T16:13:49.468Z</time>
      </trkpt>
      <trkpt lat="43.195125" lon="-4.31429167">
        <ele>495.0</ele>
        <time>2018-05-19T16:13:50.464Z</time>
      </trkpt>
      <trkpt lat="43.19513" lon="-4.31431">
        <ele>495.0</ele>
        <time>2018-05-19T16:13:51.467Z</time>
      </trkpt>
      <trkpt lat="43.19513" lon="-4.31431">
        <ele>495.0</ele>
        <time>2018-05-19T16:13:52.464Z</time>
      </trkpt>
      <trkpt lat="43.195135" lon="-4.31432833">
        <ele>496.0</ele>
        <time>2018-05-19T16:13:53.466Z</time>
      </trkpt>
      <trkpt lat="43.19513833" lon="-4.31433667">
        <ele>496.0</ele>
        <time>2018-05-19T16:13:54.468Z</time>
      </trkpt>
      <trkpt lat="43.19513833" lon="-4.31433667">
        <ele>496.0</ele>
        <time>2018-05-19T16:13:55.464Z</time>
      </trkpt>
      <trkpt lat="43.19514333" lon="-4.31435167">
        <ele>496.0</ele>
        <time>2018-05-19T16:13:56.466Z</time>
      </trkpt>
      <trkpt lat="43.19514667" lon="-4.31436">
        <ele>496.0</ele>
        <time>2018-05-19T16:13:57.468Z</time>
      </trkpt>
      <trkpt lat="43.19514667" lon="-4.31436">
        <ele>496.0</ele>
        <time>2018-05-19T16:13:58.465Z</time>
      </trkpt>
      <trkpt lat="43.19515" lon="-4.314375">
        <ele>496.0</ele>
        <time>2018-05-19T16:13:59.466Z</time>
      </trkpt>
      <trkpt lat="43.19515" lon="-4.314375">
        <ele>496.0</ele>
        <time>2018-05-19T16:14:00.464Z</time>
      </trkpt>
      <trkpt lat="43.195155" lon="-4.31439167">
        <ele>497.0</ele>
        <time>2018-05-19T16:14:01.469Z</time>
      </trkpt>
      <trkpt lat="43.195155" lon="-4.31439167">
        <ele>497.0</ele>
        <time>2018-05-19T16:14:02.464Z</time>
      </trkpt>
      <trkpt lat="43.19516" lon="-4.31440833">
        <ele>497.0</ele>
        <time>2018-05-19T16:14:03.468Z</time>
      </trkpt>
      <trkpt lat="43.19516" lon="-4.31440833">
        <ele>497.0</ele>
        <time>2018-05-19T16:14:04.462Z</time>
      </trkpt>
      <trkpt lat="43.19516667" lon="-4.31442667">
        <ele>497.0</ele>
        <time>2018-05-19T16:14:05.466Z</time>
      </trkpt>
      <trkpt lat="43.19516667" lon="-4.31442667">
        <ele>497.0</ele>
        <time>2018-05-19T16:14:06.464Z</time>
      </trkpt>
      <trkpt lat="43.19517167" lon="-4.31444333">
        <ele>497.0</ele>
        <time>2018-05-19T16:14:07.465Z</time>
      </trkpt>
      <trkpt lat="43.19517167" lon="-4.31444333">
        <ele>497.0</ele>
        <time>2018-05-19T16:14:08.463Z</time>
      </trkpt>
      <trkpt lat="43.19517833" lon="-4.31446333">
        <ele>498.0</ele>
        <time>2018-05-19T16:14:09.468Z</time>
      </trkpt>
      <trkpt lat="43.19517833" lon="-4.31446333">
        <ele>498.0</ele>
        <time>2018-05-19T16:14:10.463Z</time>
      </trkpt>
      <trkpt lat="43.195185" lon="-4.31448333">
        <ele>498.0</ele>
        <time>2018-05-19T16:14:11.466Z</time>
      </trkpt>
      <trkpt lat="43.195185" lon="-4.31448333">
        <ele>498.0</ele>
        <time>2018-05-19T16:14:12.463Z</time>
      </trkpt>
      <trkpt lat="43.19519333" lon="-4.31449833">
        <ele>498.0</ele>
        <time>2018-05-19T16:14:13.466Z</time>
      </trkpt>
      <trkpt lat="43.19519333" lon="-4.31449833">
        <ele>498.0</ele>
        <time>2018-05-19T16:14:14.451Z</time>
      </trkpt>
      <trkpt lat="43.19520333" lon="-4.31452167">
        <ele>498.0</ele>
        <time>2018-05-19T16:14:15.468Z</time>
      </trkpt>
      <trkpt lat="43.19520333" lon="-4.31452167">
        <ele>498.0</ele>
        <time>2018-05-19T16:14:16.464Z</time>
      </trkpt>
      <trkpt lat="43.19521333" lon="-4.314545">
        <ele>498.0</ele>
        <time>2018-05-19T16:14:17.466Z</time>
      </trkpt>
      <trkpt lat="43.19521333" lon="-4.314545">
        <ele>498.0</ele>
        <time>2018-05-19T16:14:18.464Z</time>
      </trkpt>
      <trkpt lat="43.19522333" lon="-4.31457">
        <ele>499.0</ele>
        <time>2018-05-19T16:14:19.468Z</time>
      </trkpt>
      <trkpt lat="43.19522333" lon="-4.31457">
        <ele>499.0</ele>
        <time>2018-05-19T16:14:20.461Z</time>
      </trkpt>
      <trkpt lat="43.195235" lon="-4.31459167">
        <ele>499.0</ele>
        <time>2018-05-19T16:14:21.488Z</time>
      </trkpt>
      <trkpt lat="43.195235" lon="-4.31459167">
        <ele>499.0</ele>
        <time>2018-05-19T16:14:22.474Z</time>
      </trkpt>
      <trkpt lat="43.19524667" lon="-4.31461833">
        <ele>499.0</ele>
        <time>2018-05-19T16:14:23.469Z</time>
      </trkpt>
      <trkpt lat="43.19525167" lon="-4.31462833">
        <ele>499.0</ele>
        <time>2018-05-19T16:14:24.480Z</time>
      </trkpt>
      <trkpt lat="43.19525833" lon="-4.31464">
        <ele>499.0</ele>
        <time>2018-05-19T16:14:25.487Z</time>
      </trkpt>
      <trkpt lat="43.19525833" lon="-4.31464">
        <ele>499.0</ele>
        <time>2018-05-19T16:14:26.462Z</time>
      </trkpt>
      <trkpt lat="43.19527" lon="-4.314665">
        <ele>500.0</ele>
        <time>2018-05-19T16:14:27.459Z</time>
      </trkpt>
      <trkpt lat="43.19527" lon="-4.314665">
        <ele>500.0</ele>
        <time>2018-05-19T16:14:28.465Z</time>
      </trkpt>
      <trkpt lat="43.19528" lon="-4.31469167">
        <ele>500.0</ele>
        <time>2018-05-19T16:14:29.471Z</time>
      </trkpt>
      <trkpt lat="43.195285" lon="-4.31470167">
        <ele>500.0</ele>
        <time>2018-05-19T16:14:30.478Z</time>
      </trkpt>
      <trkpt lat="43.195285" lon="-4.31470167">
        <ele>500.0</ele>
        <time>2018-05-19T16:14:31.472Z</time>
      </trkpt>
      <trkpt lat="43.1953" lon="-4.31472333">
        <ele>501.0</ele>
        <time>2018-05-19T16:14:32.482Z</time>
      </trkpt>
      <trkpt lat="43.19530667" lon="-4.31473333">
        <ele>501.0</ele>
        <time>2018-05-19T16:14:33.467Z</time>
      </trkpt>
      <trkpt lat="43.19530667" lon="-4.31473333">
        <ele>501.0</ele>
        <time>2018-05-19T16:14:34.456Z</time>
      </trkpt>
      <trkpt lat="43.19532" lon="-4.31475667">
        <ele>501.0</ele>
        <time>2018-05-19T16:14:35.477Z</time>
      </trkpt>
      <trkpt lat="43.19532" lon="-4.31475667">
        <ele>501.0</ele>
        <time>2018-05-19T16:14:36.464Z</time>
      </trkpt>
      <trkpt lat="43.19533" lon="-4.31478167">
        <ele>502.0</ele>
        <time>2018-05-19T16:14:37.466Z</time>
      </trkpt>
      <trkpt lat="43.19533" lon="-4.31478167">
        <ele>502.0</ele>
        <time>2018-05-19T16:14:38.464Z</time>
      </trkpt>
      <trkpt lat="43.19534" lon="-4.31480833">
        <ele>502.0</ele>
        <time>2018-05-19T16:14:39.468Z</time>
      </trkpt>
      <trkpt lat="43.19534" lon="-4.31480833">
        <ele>502.0</ele>
        <time>2018-05-19T16:14:40.461Z</time>
      </trkpt>
      <trkpt lat="43.19534833" lon="-4.31483333">
        <ele>502.0</ele>
        <time>2018-05-19T16:14:41.466Z</time>
      </trkpt>
      <trkpt lat="43.19534833" lon="-4.31483333">
        <ele>502.0</ele>
        <time>2018-05-19T16:14:42.463Z</time>
      </trkpt>
      <trkpt lat="43.19535667" lon="-4.31486167">
        <ele>502.0</ele>
        <time>2018-05-19T16:14:43.468Z</time>
      </trkpt>
      <trkpt lat="43.19535667" lon="-4.31486167">
        <ele>502.0</ele>
        <time>2018-05-19T16:14:44.461Z</time>
      </trkpt>
      <trkpt lat="43.19536833" lon="-4.31488667">
        <ele>503.0</ele>
        <time>2018-05-19T16:14:45.467Z</time>
      </trkpt>
      <trkpt lat="43.19536833" lon="-4.31488667">
        <ele>503.0</ele>
        <time>2018-05-19T16:14:46.459Z</time>
      </trkpt>
      <trkpt lat="43.19538" lon="-4.31491">
        <ele>503.0</ele>
        <time>2018-05-19T16:14:47.466Z</time>
      </trkpt>
      <trkpt lat="43.19538333" lon="-4.31491833">
        <ele>503.0</ele>
        <time>2018-05-19T16:14:48.464Z</time>
      </trkpt>
      <trkpt lat="43.19538667" lon="-4.314925">
        <ele>503.0</ele>
        <time>2018-05-19T16:14:49.468Z</time>
      </trkpt>
      <trkpt lat="43.19538667" lon="-4.314925">
        <ele>503.0</ele>
        <time>2018-05-19T16:14:50.463Z</time>
      </trkpt>
      <trkpt lat="43.19539" lon="-4.31492667">
        <ele>503.0</ele>
        <time>2018-05-19T16:14:51.467Z</time>
      </trkpt>
      <trkpt lat="43.19539" lon="-4.31492667">
        <ele>503.0</ele>
        <time>2018-05-19T16:14:52.464Z</time>
      </trkpt>
      <trkpt lat="43.19539" lon="-4.31492667">
        <ele>503.0</ele>
        <time>2018-05-19T16:14:53.465Z</time>
      </trkpt>
      <trkpt lat="43.19539" lon="-4.31492667">
        <ele>503.0</ele>
        <time>2018-05-19T16:14:54.466Z</time>
      </trkpt>
      <trkpt lat="43.19539" lon="-4.31492667">
        <ele>503.0</ele>
        <time>2018-05-19T16:14:55.459Z</time>
      </trkpt>
      <trkpt lat="43.19539" lon="-4.31492667">
        <ele>503.0</ele>
        <time>2018-05-19T16:14:56.485Z</time>
      </trkpt>
      <trkpt lat="43.19541" lon="-4.31495167">
        <ele>503.0</ele>
        <time>2018-05-19T16:14:57.480Z</time>
      </trkpt>
      <trkpt lat="43.19541" lon="-4.31495167">
        <ele>503.0</ele>
        <time>2018-05-19T16:14:58.474Z</time>
      </trkpt>
      <trkpt lat="43.19543333" lon="-4.31498833">
        <ele>503.0</ele>
        <time>2018-05-19T16:14:59.478Z</time>
      </trkpt>
      <trkpt lat="43.19544667" lon="-4.31500833">
        <ele>503.0</ele>
        <time>2018-05-19T16:15:00.481Z</time>
      </trkpt>
      <trkpt lat="43.19544667" lon="-4.31500833">
        <ele>503.0</ele>
        <time>2018-05-19T16:15:01.477Z</time>
      </trkpt>
      <trkpt lat="43.19547167" lon="-4.31505333">
        <ele>503.0</ele>
        <time>2018-05-19T16:15:02.481Z</time>
      </trkpt>
      <trkpt lat="43.19547167" lon="-4.31505333">
        <ele>503.0</ele>
        <time>2018-05-19T16:15:03.479Z</time>
      </trkpt>
      <trkpt lat="43.19549833" lon="-4.31510333">
        <ele>503.0</ele>
        <time>2018-05-19T16:15:04.480Z</time>
      </trkpt>
      <trkpt lat="43.19549833" lon="-4.31510333">
        <ele>503.0</ele>
        <time>2018-05-19T16:15:05.479Z</time>
      </trkpt>
      <trkpt lat="43.19553" lon="-4.31514667">
        <ele>503.0</ele>
        <time>2018-05-19T16:15:06.480Z</time>
      </trkpt>
      <trkpt lat="43.19553" lon="-4.31514667">
        <ele>503.0</ele>
        <time>2018-05-19T16:15:07.474Z</time>
      </trkpt>
      <trkpt lat="43.19556167" lon="-4.31519">
        <ele>504.0</ele>
        <time>2018-05-19T16:15:08.480Z</time>
      </trkpt>
      <trkpt lat="43.19556167" lon="-4.31519">
        <ele>504.0</ele>
        <time>2018-05-19T16:15:09.469Z</time>
      </trkpt>
      <trkpt lat="43.19558667" lon="-4.315235">
        <ele>504.0</ele>
        <time>2018-05-19T16:15:10.456Z</time>
      </trkpt>
      <trkpt lat="43.19558667" lon="-4.315235">
        <ele>504.0</ele>
        <time>2018-05-19T16:15:11.481Z</time>
      </trkpt>
      <trkpt lat="43.19561833" lon="-4.31527667">
        <ele>504.0</ele>
        <time>2018-05-19T16:15:12.481Z</time>
      </trkpt>
      <trkpt lat="43.19561833" lon="-4.31527667">
        <ele>504.0</ele>
        <time>2018-05-19T16:15:13.479Z</time>
      </trkpt>
      <trkpt lat="43.19565" lon="-4.31532833">
        <ele>504.0</ele>
        <time>2018-05-19T16:15:14.481Z</time>
      </trkpt>
      <trkpt lat="43.19565" lon="-4.31532833">
        <ele>504.0</ele>
        <time>2018-05-19T16:15:15.486Z</time>
      </trkpt>
      <trkpt lat="43.19568333" lon="-4.31537167">
        <ele>504.0</ele>
        <time>2018-05-19T16:15:16.480Z</time>
      </trkpt>
      <trkpt lat="43.19568333" lon="-4.31537167">
        <ele>504.0</ele>
        <time>2018-05-19T16:15:17.477Z</time>
      </trkpt>
      <trkpt lat="43.19571833" lon="-4.31541167">
        <ele>505.0</ele>
        <time>2018-05-19T16:15:18.481Z</time>
      </trkpt>
      <trkpt lat="43.19571833" lon="-4.31541167">
        <ele>505.0</ele>
        <time>2018-05-19T16:15:19.476Z</time>
      </trkpt>
      <trkpt lat="43.19575333" lon="-4.31545667">
        <ele>505.0</ele>
        <time>2018-05-19T16:15:20.481Z</time>
      </trkpt>
      <trkpt lat="43.19575333" lon="-4.31545667">
        <ele>505.0</ele>
        <time>2018-05-19T16:15:21.477Z</time>
      </trkpt>
      <trkpt lat="43.195785" lon="-4.31550167">
        <ele>505.0</ele>
        <time>2018-05-19T16:15:22.480Z</time>
      </trkpt>
      <trkpt lat="43.19580667" lon="-4.31551667">
        <ele>505.0</ele>
        <time>2018-05-19T16:15:23.473Z</time>
      </trkpt>
      <trkpt lat="43.19580667" lon="-4.31551667">
        <ele>505.0</ele>
        <time>2018-05-19T16:15:24.483Z</time>
      </trkpt>
      <trkpt lat="43.195855" lon="-4.31555333">
        <ele>506.0</ele>
        <time>2018-05-19T16:15:25.452Z</time>
      </trkpt>
      <trkpt lat="43.19588167" lon="-4.31557167">
        <ele>506.0</ele>
        <time>2018-05-19T16:15:26.460Z</time>
      </trkpt>
      <trkpt lat="43.19588167" lon="-4.31557167">
        <ele>506.0</ele>
        <time>2018-05-19T16:15:27.481Z</time>
      </trkpt>
      <trkpt lat="43.195925" lon="-4.31561667">
        <ele>506.0</ele>
        <time>2018-05-19T16:15:28.479Z</time>
      </trkpt>
      <trkpt lat="43.195925" lon="-4.31561667">
        <ele>506.0</ele>
        <time>2018-05-19T16:15:29.472Z</time>
      </trkpt>
      <trkpt lat="43.19596333" lon="-4.31565333">
        <ele>506.0</ele>
        <time>2018-05-19T16:15:30.449Z</time>
      </trkpt>
      <trkpt lat="43.19596333" lon="-4.31565333">
        <ele>506.0</ele>
        <time>2018-05-19T16:15:31.475Z</time>
      </trkpt>
      <trkpt lat="43.19599667" lon="-4.31568667">
        <ele>507.0</ele>
        <time>2018-05-19T16:15:32.481Z</time>
      </trkpt>
      <trkpt lat="43.19599667" lon="-4.31568667">
        <ele>507.0</ele>
        <time>2018-05-19T16:15:33.477Z</time>
      </trkpt>
      <trkpt lat="43.19602667" lon="-4.31572">
        <ele>507.0</ele>
        <time>2018-05-19T16:15:34.480Z</time>
      </trkpt>
      <trkpt lat="43.19602667" lon="-4.31572">
        <ele>507.0</ele>
        <time>2018-05-19T16:15:35.474Z</time>
      </trkpt>
      <trkpt lat="43.196055" lon="-4.31575667">
        <ele>508.0</ele>
        <time>2018-05-19T16:15:36.480Z</time>
      </trkpt>
      <trkpt lat="43.196055" lon="-4.31575667">
        <ele>508.0</ele>
        <time>2018-05-19T16:15:37.477Z</time>
      </trkpt>
      <trkpt lat="43.19607667" lon="-4.31579333">
        <ele>508.0</ele>
        <time>2018-05-19T16:15:38.480Z</time>
      </trkpt>
      <trkpt lat="43.19607667" lon="-4.31579333">
        <ele>508.0</ele>
        <time>2018-05-19T16:15:39.475Z</time>
      </trkpt>
      <trkpt lat="43.196095" lon="-4.31583167">
        <ele>509.0</ele>
        <time>2018-05-19T16:15:40.466Z</time>
      </trkpt>
      <trkpt lat="43.1961" lon="-4.31585167">
        <ele>509.0</ele>
        <time>2018-05-19T16:15:41.455Z</time>
      </trkpt>
      <trkpt lat="43.19610167" lon="-4.31587333">
        <ele>510.0</ele>
        <time>2018-05-19T16:15:42.481Z</time>
      </trkpt>
      <trkpt lat="43.19610167" lon="-4.31587333">
        <ele>510.0</ele>
        <time>2018-05-19T16:15:43.477Z</time>
      </trkpt>
      <trkpt lat="43.19610167" lon="-4.31591333">
        <ele>510.0</ele>
        <time>2018-05-19T16:15:44.481Z</time>
      </trkpt>
      <trkpt lat="43.19610167" lon="-4.31591333">
        <ele>510.0</ele>
        <time>2018-05-19T16:15:45.481Z</time>
      </trkpt>
      <trkpt lat="43.19610333" lon="-4.31595667">
        <ele>511.0</ele>
        <time>2018-05-19T16:15:46.480Z</time>
      </trkpt>
      <trkpt lat="43.19610333" lon="-4.31595667">
        <ele>511.0</ele>
        <time>2018-05-19T16:15:47.475Z</time>
      </trkpt>
      <trkpt lat="43.19609833" lon="-4.315995">
        <ele>511.0</ele>
        <time>2018-05-19T16:15:48.480Z</time>
      </trkpt>
      <trkpt lat="43.19609833" lon="-4.315995">
        <ele>511.0</ele>
        <time>2018-05-19T16:15:49.476Z</time>
      </trkpt>
      <trkpt lat="43.19609667" lon="-4.31603333">
        <ele>512.0</ele>
        <time>2018-05-19T16:15:50.478Z</time>
      </trkpt>
      <trkpt lat="43.19609667" lon="-4.31603333">
        <ele>512.0</ele>
        <time>2018-05-19T16:15:51.477Z</time>
      </trkpt>
      <trkpt lat="43.196095" lon="-4.31607">
        <ele>513.0</ele>
        <time>2018-05-19T16:15:52.480Z</time>
      </trkpt>
      <trkpt lat="43.196095" lon="-4.31607">
        <ele>513.0</ele>
        <time>2018-05-19T16:15:53.477Z</time>
      </trkpt>
      <trkpt lat="43.19608667" lon="-4.31611667">
        <ele>513.0</ele>
        <time>2018-05-19T16:15:54.480Z</time>
      </trkpt>
      <trkpt lat="43.19608667" lon="-4.31611667">
        <ele>513.0</ele>
        <time>2018-05-19T16:15:55.477Z</time>
      </trkpt>
      <trkpt lat="43.19608" lon="-4.316165">
        <ele>514.0</ele>
        <time>2018-05-19T16:15:56.481Z</time>
      </trkpt>
      <trkpt lat="43.19608" lon="-4.316165">
        <ele>514.0</ele>
        <time>2018-05-19T16:15:57.487Z</time>
      </trkpt>
      <trkpt lat="43.196075" lon="-4.31621167">
        <ele>514.0</ele>
        <time>2018-05-19T16:15:58.455Z</time>
      </trkpt>
      <trkpt lat="43.196075" lon="-4.31621167">
        <ele>514.0</ele>
        <time>2018-05-19T16:15:59.468Z</time>
      </trkpt>
      <trkpt lat="43.19606667" lon="-4.31626">
        <ele>515.0</ele>
        <time>2018-05-19T16:16:00.475Z</time>
      </trkpt>
      <trkpt lat="43.19606667" lon="-4.31626">
        <ele>515.0</ele>
        <time>2018-05-19T16:16:01.485Z</time>
      </trkpt>
      <trkpt lat="43.196055" lon="-4.31630167">
        <ele>515.0</ele>
        <time>2018-05-19T16:16:02.453Z</time>
      </trkpt>
      <trkpt lat="43.196055" lon="-4.31630167">
        <ele>515.0</ele>
        <time>2018-05-19T16:16:03.459Z</time>
      </trkpt>
      <trkpt lat="43.19603667" lon="-4.31637">
        <ele>516.0</ele>
        <time>2018-05-19T16:16:04.470Z</time>
      </trkpt>
      <trkpt lat="43.19603667" lon="-4.31637">
        <ele>516.0</ele>
        <time>2018-05-19T16:16:05.459Z</time>
      </trkpt>
      <trkpt lat="43.19602167" lon="-4.31643833">
        <ele>516.0</ele>
        <time>2018-05-19T16:16:06.487Z</time>
      </trkpt>
      <trkpt lat="43.19602167" lon="-4.31643833">
        <ele>516.0</ele>
        <time>2018-05-19T16:16:07.481Z</time>
      </trkpt>
      <trkpt lat="43.19601167" lon="-4.31650667">
        <ele>517.0</ele>
        <time>2018-05-19T16:16:08.477Z</time>
      </trkpt>
      <trkpt lat="43.19601167" lon="-4.31650667">
        <ele>517.0</ele>
        <time>2018-05-19T16:16:09.477Z</time>
      </trkpt>
      <trkpt lat="43.19600167" lon="-4.31657833">
        <ele>517.0</ele>
        <time>2018-05-19T16:16:10.469Z</time>
      </trkpt>
      <trkpt lat="43.195995" lon="-4.31661">
        <ele>518.0</ele>
        <time>2018-05-19T16:16:11.456Z</time>
      </trkpt>
      <trkpt lat="43.19599" lon="-4.31663667">
        <ele>518.0</ele>
        <time>2018-05-19T16:16:12.480Z</time>
      </trkpt>
      <trkpt lat="43.19599" lon="-4.31663667">
        <ele>518.0</ele>
        <time>2018-05-19T16:16:13.477Z</time>
      </trkpt>
      <trkpt lat="43.19598333" lon="-4.31668833">
        <ele>519.0</ele>
        <time>2018-05-19T16:16:14.480Z</time>
      </trkpt>
      <trkpt lat="43.19598333" lon="-4.31668833">
        <ele>519.0</ele>
        <time>2018-05-19T16:16:15.475Z</time>
      </trkpt>
      <trkpt lat="43.19598" lon="-4.31675167">
        <ele>520.0</ele>
        <time>2018-05-19T16:16:16.480Z</time>
      </trkpt>
      <trkpt lat="43.19598" lon="-4.31675167">
        <ele>520.0</ele>
        <time>2018-05-19T16:16:17.477Z</time>
      </trkpt>
      <trkpt lat="43.19598" lon="-4.31682333">
        <ele>521.0</ele>
        <time>2018-05-19T16:16:18.480Z</time>
      </trkpt>
      <trkpt lat="43.19598" lon="-4.31682333">
        <ele>521.0</ele>
        <time>2018-05-19T16:16:19.477Z</time>
      </trkpt>
      <trkpt lat="43.19599" lon="-4.316895">
        <ele>521.0</ele>
        <time>2018-05-19T16:16:20.480Z</time>
      </trkpt>
      <trkpt lat="43.19599" lon="-4.316895">
        <ele>521.0</ele>
        <time>2018-05-19T16:16:21.477Z</time>
      </trkpt>
      <trkpt lat="43.19599833" lon="-4.31698167">
        <ele>522.0</ele>
        <time>2018-05-19T16:16:22.480Z</time>
      </trkpt>
      <trkpt lat="43.19599833" lon="-4.31698167">
        <ele>522.0</ele>
        <time>2018-05-19T16:16:23.462Z</time>
      </trkpt>
      <trkpt lat="43.19600833" lon="-4.31707167">
        <ele>522.0</ele>
        <time>2018-05-19T16:16:24.474Z</time>
      </trkpt>
      <trkpt lat="43.19600833" lon="-4.31707167">
        <ele>522.0</ele>
        <time>2018-05-19T16:16:25.481Z</time>
      </trkpt>
      <trkpt lat="43.196025" lon="-4.31718333">
        <ele>522.0</ele>
        <time>2018-05-19T16:16:26.448Z</time>
      </trkpt>
      <trkpt lat="43.19603667" lon="-4.31722667">
        <ele>523.0</ele>
        <time>2018-05-19T16:16:27.461Z</time>
      </trkpt>
      <trkpt lat="43.19603667" lon="-4.31722667">
        <ele>523.0</ele>
        <time>2018-05-19T16:16:28.485Z</time>
      </trkpt>
      <trkpt lat="43.196045" lon="-4.31734">
        <ele>523.0</ele>
        <time>2018-05-19T16:16:29.480Z</time>
      </trkpt>
      <trkpt lat="43.19604667" lon="-4.31740167">
        <ele>523.0</ele>
        <time>2018-05-19T16:16:30.454Z</time>
      </trkpt>
      <trkpt lat="43.19604667" lon="-4.31740167">
        <ele>523.0</ele>
        <time>2018-05-19T16:16:31.480Z</time>
      </trkpt>
      <trkpt lat="43.19604" lon="-4.31751667">
        <ele>523.0</ele>
        <time>2018-05-19T16:16:32.479Z</time>
      </trkpt>
      <trkpt lat="43.19604" lon="-4.31751667">
        <ele>523.0</ele>
        <time>2018-05-19T16:16:33.476Z</time>
      </trkpt>
      <trkpt lat="43.19602833" lon="-4.31761333">
        <ele>523.0</ele>
        <time>2018-05-19T16:16:34.480Z</time>
      </trkpt>
      <trkpt lat="43.19602833" lon="-4.31761333">
        <ele>523.0</ele>
        <time>2018-05-19T16:16:35.474Z</time>
      </trkpt>
      <trkpt lat="43.19601667" lon="-4.31769667">
        <ele>523.0</ele>
        <time>2018-05-19T16:16:36.461Z</time>
      </trkpt>
      <trkpt lat="43.19601667" lon="-4.31769667">
        <ele>523.0</ele>
        <time>2018-05-19T16:16:37.459Z</time>
      </trkpt>
      <trkpt lat="43.19600833" lon="-4.31776833">
        <ele>524.0</ele>
        <time>2018-05-19T16:16:38.486Z</time>
      </trkpt>
      <trkpt lat="43.19600833" lon="-4.31776833">
        <ele>524.0</ele>
        <time>2018-05-19T16:16:39.476Z</time>
      </trkpt>
      <trkpt lat="43.19599667" lon="-4.31784">
        <ele>524.0</ele>
        <time>2018-05-19T16:16:40.480Z</time>
      </trkpt>
      <trkpt lat="43.19599667" lon="-4.31784">
        <ele>524.0</ele>
        <time>2018-05-19T16:16:41.476Z</time>
      </trkpt>
      <trkpt lat="43.19599" lon="-4.3179">
        <ele>525.0</ele>
        <time>2018-05-19T16:16:42.480Z</time>
      </trkpt>
      <trkpt lat="43.19599" lon="-4.3179">
        <ele>525.0</ele>
        <time>2018-05-19T16:16:43.476Z</time>
      </trkpt>
      <trkpt lat="43.19598833" lon="-4.31795333">
        <ele>526.0</ele>
        <time>2018-05-19T16:16:44.476Z</time>
      </trkpt>
      <trkpt lat="43.19598833" lon="-4.31795333">
        <ele>526.0</ele>
        <time>2018-05-19T16:16:45.476Z</time>
      </trkpt>
      <trkpt lat="43.19597333" lon="-4.31800167">
        <ele>526.0</ele>
        <time>2018-05-19T16:16:46.471Z</time>
      </trkpt>
      <trkpt lat="43.19596833" lon="-4.31802333">
        <ele>526.0</ele>
        <time>2018-05-19T16:16:47.448Z</time>
      </trkpt>
      <trkpt lat="43.19596833" lon="-4.31802333">
        <ele>526.0</ele>
        <time>2018-05-19T16:16:48.477Z</time>
      </trkpt>
      <trkpt lat="43.19595667" lon="-4.31807333">
        <ele>527.0</ele>
        <time>2018-05-19T16:16:49.476Z</time>
      </trkpt>
      <trkpt lat="43.19594833" lon="-4.31809667">
        <ele>528.0</ele>
        <time>2018-05-19T16:16:50.479Z</time>
      </trkpt>
      <trkpt lat="43.19594833" lon="-4.31809667">
        <ele>528.0</ele>
        <time>2018-05-19T16:16:51.476Z</time>
      </trkpt>
      <trkpt lat="43.19593833" lon="-4.31815333">
        <ele>528.0</ele>
        <time>2018-05-19T16:16:52.478Z</time>
      </trkpt>
      <trkpt lat="43.19593667" lon="-4.31818833">
        <ele>528.0</ele>
        <time>2018-05-19T16:16:53.477Z</time>
      </trkpt>
      <trkpt lat="43.19593333" lon="-4.31822833">
        <ele>529.0</ele>
        <time>2018-05-19T16:16:54.480Z</time>
      </trkpt>
      <trkpt lat="43.19593333" lon="-4.31822833">
        <ele>529.0</ele>
        <time>2018-05-19T16:16:55.476Z</time>
      </trkpt>
      <trkpt lat="43.19593667" lon="-4.31832333">
        <ele>529.0</ele>
        <time>2018-05-19T16:16:56.471Z</time>
      </trkpt>
      <trkpt lat="43.19594167" lon="-4.31836667">
        <ele>529.0</ele>
        <time>2018-05-19T16:16:57.475Z</time>
      </trkpt>
      <trkpt lat="43.19594167" lon="-4.31836667">
        <ele>529.0</ele>
        <time>2018-05-19T16:16:58.473Z</time>
      </trkpt>
      <trkpt lat="43.19595" lon="-4.31844667">
        <ele>530.0</ele>
        <time>2018-05-19T16:16:59.478Z</time>
      </trkpt>
      <trkpt lat="43.19595" lon="-4.31848667">
        <ele>531.0</ele>
        <time>2018-05-19T16:17:00.480Z</time>
      </trkpt>
      <trkpt lat="43.19595" lon="-4.31848667">
        <ele>531.0</ele>
        <time>2018-05-19T16:17:01.487Z</time>
      </trkpt>
      <trkpt lat="43.19595167" lon="-4.31857167">
        <ele>531.0</ele>
        <time>2018-05-19T16:17:02.480Z</time>
      </trkpt>
      <trkpt lat="43.19595167" lon="-4.31857167">
        <ele>531.0</ele>
        <time>2018-05-19T16:17:03.476Z</time>
      </trkpt>
      <trkpt lat="43.19596167" lon="-4.31865">
        <ele>532.0</ele>
        <time>2018-05-19T16:17:04.478Z</time>
      </trkpt>
      <trkpt lat="43.19596167" lon="-4.31865">
        <ele>532.0</ele>
        <time>2018-05-19T16:17:05.476Z</time>
      </trkpt>
      <trkpt lat="43.195955" lon="-4.31876167">
        <ele>532.0</ele>
        <time>2018-05-19T16:17:06.463Z</time>
      </trkpt>
      <trkpt lat="43.195955" lon="-4.31876167">
        <ele>532.0</ele>
        <time>2018-05-19T16:17:07.462Z</time>
      </trkpt>
      <trkpt lat="43.195945" lon="-4.31888333">
        <ele>533.0</ele>
        <time>2018-05-19T16:17:08.455Z</time>
      </trkpt>
      <trkpt lat="43.195945" lon="-4.31888333">
        <ele>533.0</ele>
        <time>2018-05-19T16:17:09.481Z</time>
      </trkpt>
      <trkpt lat="43.19594333" lon="-4.31898667">
        <ele>534.0</ele>
        <time>2018-05-19T16:17:10.478Z</time>
      </trkpt>
      <trkpt lat="43.19594333" lon="-4.31898667">
        <ele>534.0</ele>
        <time>2018-05-19T16:17:11.473Z</time>
      </trkpt>
      <trkpt lat="43.19594333" lon="-4.31906">
        <ele>534.0</ele>
        <time>2018-05-19T16:17:12.480Z</time>
      </trkpt>
      <trkpt lat="43.19594333" lon="-4.31906">
        <ele>534.0</ele>
        <time>2018-05-19T16:17:13.476Z</time>
      </trkpt>
      <trkpt lat="43.195955" lon="-4.3191">
        <ele>535.0</ele>
        <time>2018-05-19T16:17:14.476Z</time>
      </trkpt>
      <trkpt lat="43.195955" lon="-4.3191">
        <ele>535.0</ele>
        <time>2018-05-19T16:17:15.475Z</time>
      </trkpt>
      <trkpt lat="43.19596333" lon="-4.31915833">
        <ele>535.0</ele>
        <time>2018-05-19T16:17:16.478Z</time>
      </trkpt>
      <trkpt lat="43.19596333" lon="-4.31915833">
        <ele>535.0</ele>
        <time>2018-05-19T16:17:17.475Z</time>
      </trkpt>
      <trkpt lat="43.19597833" lon="-4.31921333">
        <ele>536.0</ele>
        <time>2018-05-19T16:17:18.479Z</time>
      </trkpt>
      <trkpt lat="43.19597833" lon="-4.31921333">
        <ele>536.0</ele>
        <time>2018-05-19T16:17:19.475Z</time>
      </trkpt>
      <trkpt lat="43.19601333" lon="-4.319255">
        <ele>536.0</ele>
        <time>2018-05-19T16:17:20.480Z</time>
      </trkpt>
      <trkpt lat="43.19603167" lon="-4.31927333">
        <ele>537.0</ele>
        <time>2018-05-19T16:17:21.478Z</time>
      </trkpt>
      <trkpt lat="43.19603167" lon="-4.31927333">
        <ele>537.0</ele>
        <time>2018-05-19T16:17:22.475Z</time>
      </trkpt>
      <trkpt lat="43.19607167" lon="-4.31931167">
        <ele>537.0</ele>
        <time>2018-05-19T16:17:23.485Z</time>
      </trkpt>
      <trkpt lat="43.19607167" lon="-4.31931167">
        <ele>537.0</ele>
        <time>2018-05-19T16:17:24.484Z</time>
      </trkpt>
      <trkpt lat="43.1961" lon="-4.31934">
        <ele>538.0</ele>
        <time>2018-05-19T16:17:25.486Z</time>
      </trkpt>
      <trkpt lat="43.19611833" lon="-4.31934667">
        <ele>538.0</ele>
        <time>2018-05-19T16:17:26.480Z</time>
      </trkpt>
      <trkpt lat="43.19611833" lon="-4.31934667">
        <ele>538.0</ele>
        <time>2018-05-19T16:17:27.476Z</time>
      </trkpt>
      <trkpt lat="43.196155" lon="-4.31937833">
        <ele>539.0</ele>
        <time>2018-05-19T16:17:28.478Z</time>
      </trkpt>
      <trkpt lat="43.196155" lon="-4.31937833">
        <ele>539.0</ele>
        <time>2018-05-19T16:17:29.473Z</time>
      </trkpt>
      <trkpt lat="43.19616667" lon="-4.3194">
        <ele>539.0</ele>
        <time>2018-05-19T16:17:30.473Z</time>
      </trkpt>
      <trkpt lat="43.19616667" lon="-4.3194">
        <ele>539.0</ele>
        <time>2018-05-19T16:17:31.474Z</time>
      </trkpt>
      <trkpt lat="43.19617833" lon="-4.31942167">
        <ele>540.0</ele>
        <time>2018-05-19T16:17:32.479Z</time>
      </trkpt>
      <trkpt lat="43.19617833" lon="-4.31942167">
        <ele>540.0</ele>
        <time>2018-05-19T16:17:33.476Z</time>
      </trkpt>
      <trkpt lat="43.19619333" lon="-4.31944333">
        <ele>541.0</ele>
        <time>2018-05-19T16:17:34.478Z</time>
      </trkpt>
      <trkpt lat="43.1962" lon="-4.319455">
        <ele>541.0</ele>
        <time>2018-05-19T16:17:35.457Z</time>
      </trkpt>
      <trkpt lat="43.19621833" lon="-4.31945667">
        <ele>541.0</ele>
        <time>2018-05-19T16:17:36.481Z</time>
      </trkpt>
      <trkpt lat="43.19621833" lon="-4.31945667">
        <ele>541.0</ele>
        <time>2018-05-19T16:17:37.473Z</time>
      </trkpt>
      <trkpt lat="43.19624833" lon="-4.319455">
        <ele>542.0</ele>
        <time>2018-05-19T16:17:38.478Z</time>
      </trkpt>
      <trkpt lat="43.19624833" lon="-4.319455">
        <ele>542.0</ele>
        <time>2018-05-19T16:17:39.473Z</time>
      </trkpt>
      <trkpt lat="43.19626833" lon="-4.31946667">
        <ele>542.0</ele>
        <time>2018-05-19T16:17:40.478Z</time>
      </trkpt>
      <trkpt lat="43.19627333" lon="-4.31948">
        <ele>543.0</ele>
        <time>2018-05-19T16:17:41.477Z</time>
      </trkpt>
      <trkpt lat="43.19627333" lon="-4.31948">
        <ele>543.0</ele>
        <time>2018-05-19T16:17:42.476Z</time>
      </trkpt>
      <trkpt lat="43.19629" lon="-4.31951">
        <ele>543.0</ele>
        <time>2018-05-19T16:17:43.478Z</time>
      </trkpt>
      <trkpt lat="43.19629833" lon="-4.31952167">
        <ele>543.0</ele>
        <time>2018-05-19T16:17:44.476Z</time>
      </trkpt>
      <trkpt lat="43.19629833" lon="-4.31952167">
        <ele>543.0</ele>
        <time>2018-05-19T16:17:45.473Z</time>
      </trkpt>
      <trkpt lat="43.196315" lon="-4.31953833">
        <ele>544.0</ele>
        <time>2018-05-19T16:17:46.479Z</time>
      </trkpt>
      <trkpt lat="43.19631833" lon="-4.31954833">
        <ele>544.0</ele>
        <time>2018-05-19T16:17:47.478Z</time>
      </trkpt>
      <trkpt lat="43.19631833" lon="-4.31954833">
        <ele>544.0</ele>
        <time>2018-05-19T16:17:48.476Z</time>
      </trkpt>
      <trkpt lat="43.19632167" lon="-4.31958167">
        <ele>545.0</ele>
        <time>2018-05-19T16:17:49.479Z</time>
      </trkpt>
      <trkpt lat="43.19632167" lon="-4.31958167">
        <ele>545.0</ele>
        <time>2018-05-19T16:17:50.476Z</time>
      </trkpt>
      <trkpt lat="43.19633167" lon="-4.31960667">
        <ele>546.0</ele>
        <time>2018-05-19T16:17:51.479Z</time>
      </trkpt>
      <trkpt lat="43.196335" lon="-4.31962167">
        <ele>546.0</ele>
        <time>2018-05-19T16:17:52.448Z</time>
      </trkpt>
      <trkpt lat="43.196335" lon="-4.31962167">
        <ele>546.0</ele>
        <time>2018-05-19T16:17:53.475Z</time>
      </trkpt>
      <trkpt lat="43.19634333" lon="-4.31965167">
        <ele>546.0</ele>
        <time>2018-05-19T16:17:54.480Z</time>
      </trkpt>
      <trkpt lat="43.19634333" lon="-4.31965167">
        <ele>546.0</ele>
        <time>2018-05-19T16:17:55.476Z</time>
      </trkpt>
      <trkpt lat="43.19634833" lon="-4.319665">
        <ele>546.0</ele>
        <time>2018-05-19T16:17:56.481Z</time>
      </trkpt>
      <trkpt lat="43.19634833" lon="-4.319665">
        <ele>546.0</ele>
        <time>2018-05-19T16:17:57.469Z</time>
      </trkpt>
      <trkpt lat="43.19634667" lon="-4.31966333">
        <ele>547.0</ele>
        <time>2018-05-19T16:17:58.480Z</time>
      </trkpt>
      <trkpt lat="43.19636667" lon="-4.31972833">
        <ele>546.0</ele>
        <time>2018-05-19T16:17:59.481Z</time>
      </trkpt>
      <trkpt lat="43.196375" lon="-4.31973333">
        <ele>546.0</ele>
        <time>2018-05-19T16:18:00.481Z</time>
      </trkpt>
      <trkpt lat="43.196385" lon="-4.31973667">
        <ele>546.0</ele>
        <time>2018-05-19T16:18:01.459Z</time>
      </trkpt>
      <trkpt lat="43.196385" lon="-4.31973667">
        <ele>546.0</ele>
        <time>2018-05-19T16:18:02.482Z</time>
      </trkpt>
      <trkpt lat="43.1964" lon="-4.319755">
        <ele>546.0</ele>
        <time>2018-05-19T16:18:03.449Z</time>
      </trkpt>
      <trkpt lat="43.1964" lon="-4.319755">
        <ele>546.0</ele>
        <time>2018-05-19T16:18:04.479Z</time>
      </trkpt>
      <trkpt lat="43.19641" lon="-4.319785">
        <ele>547.0</ele>
        <time>2018-05-19T16:18:05.481Z</time>
      </trkpt>
      <trkpt lat="43.19641" lon="-4.319785">
        <ele>547.0</ele>
        <time>2018-05-19T16:18:06.482Z</time>
      </trkpt>
      <trkpt lat="43.19642333" lon="-4.31980333">
        <ele>547.0</ele>
        <time>2018-05-19T16:18:07.482Z</time>
      </trkpt>
      <trkpt lat="43.19642333" lon="-4.31980333">
        <ele>547.0</ele>
        <time>2018-05-19T16:18:08.478Z</time>
      </trkpt>
      <trkpt lat="43.19644333" lon="-4.31981167">
        <ele>547.0</ele>
        <time>2018-05-19T16:18:09.483Z</time>
      </trkpt>
      <trkpt lat="43.19644333" lon="-4.31981167">
        <ele>547.0</ele>
        <time>2018-05-19T16:18:10.477Z</time>
      </trkpt>
      <trkpt lat="43.19645833" lon="-4.31982667">
        <ele>547.0</ele>
        <time>2018-05-19T16:18:11.482Z</time>
      </trkpt>
      <trkpt lat="43.19645833" lon="-4.31982667">
        <ele>547.0</ele>
        <time>2018-05-19T16:18:12.478Z</time>
      </trkpt>
      <trkpt lat="43.19647" lon="-4.31984333">
        <ele>548.0</ele>
        <time>2018-05-19T16:18:13.481Z</time>
      </trkpt>
      <trkpt lat="43.19647" lon="-4.31984333">
        <ele>548.0</ele>
        <time>2018-05-19T16:18:14.476Z</time>
      </trkpt>
      <trkpt lat="43.19648167" lon="-4.31986">
        <ele>548.0</ele>
        <time>2018-05-19T16:18:15.463Z</time>
      </trkpt>
      <trkpt lat="43.19648167" lon="-4.31986">
        <ele>548.0</ele>
        <time>2018-05-19T16:18:16.482Z</time>
      </trkpt>
      <trkpt lat="43.196495" lon="-4.31987">
        <ele>548.0</ele>
        <time>2018-05-19T16:18:17.481Z</time>
      </trkpt>
      <trkpt lat="43.196495" lon="-4.31987">
        <ele>548.0</ele>
        <time>2018-05-19T16:18:18.476Z</time>
      </trkpt>
      <trkpt lat="43.19651167" lon="-4.31989">
        <ele>549.0</ele>
        <time>2018-05-19T16:18:19.452Z</time>
      </trkpt>
      <trkpt lat="43.19651167" lon="-4.31989">
        <ele>549.0</ele>
        <time>2018-05-19T16:18:20.477Z</time>
      </trkpt>
      <trkpt lat="43.196525" lon="-4.31990833">
        <ele>549.0</ele>
        <time>2018-05-19T16:18:21.481Z</time>
      </trkpt>
      <trkpt lat="43.196525" lon="-4.31990833">
        <ele>549.0</ele>
        <time>2018-05-19T16:18:22.479Z</time>
      </trkpt>
      <trkpt lat="43.19653833" lon="-4.31992333">
        <ele>549.0</ele>
        <time>2018-05-19T16:18:23.457Z</time>
      </trkpt>
      <trkpt lat="43.19654167" lon="-4.31993333">
        <ele>549.0</ele>
        <time>2018-05-19T16:18:24.471Z</time>
      </trkpt>
      <trkpt lat="43.19654667" lon="-4.31994167">
        <ele>549.0</ele>
        <time>2018-05-19T16:18:25.477Z</time>
      </trkpt>
      <trkpt lat="43.19654667" lon="-4.31994167">
        <ele>549.0</ele>
        <time>2018-05-19T16:18:26.484Z</time>
      </trkpt>
      <trkpt lat="43.196555" lon="-4.31995667">
        <ele>549.0</ele>
        <time>2018-05-19T16:18:27.482Z</time>
      </trkpt>
      <trkpt lat="43.196555" lon="-4.31995667">
        <ele>549.0</ele>
        <time>2018-05-19T16:18:28.477Z</time>
      </trkpt>
      <trkpt lat="43.19656167" lon="-4.31998667">
        <ele>549.0</ele>
        <time>2018-05-19T16:18:29.481Z</time>
      </trkpt>
      <trkpt lat="43.19656833" lon="-4.31999667">
        <ele>549.0</ele>
        <time>2018-05-19T16:18:30.450Z</time>
      </trkpt>
      <trkpt lat="43.19656833" lon="-4.31999667">
        <ele>549.0</ele>
        <time>2018-05-19T16:18:31.480Z</time>
      </trkpt>
      <trkpt lat="43.19657833" lon="-4.320015">
        <ele>549.0</ele>
        <time>2018-05-19T16:18:32.481Z</time>
      </trkpt>
      <trkpt lat="43.19658333" lon="-4.320025">
        <ele>549.0</ele>
        <time>2018-05-19T16:18:33.482Z</time>
      </trkpt>
      <trkpt lat="43.19658333" lon="-4.320025">
        <ele>549.0</ele>
        <time>2018-05-19T16:18:34.480Z</time>
      </trkpt>
      <trkpt lat="43.19659333" lon="-4.32005">
        <ele>549.0</ele>
        <time>2018-05-19T16:18:35.482Z</time>
      </trkpt>
      <trkpt lat="43.19659333" lon="-4.32005">
        <ele>549.0</ele>
        <time>2018-05-19T16:18:36.476Z</time>
      </trkpt>
      <trkpt lat="43.19661" lon="-4.32007333">
        <ele>549.0</ele>
        <time>2018-05-19T16:18:37.482Z</time>
      </trkpt>
      <trkpt lat="43.19661" lon="-4.32007333">
        <ele>549.0</ele>
        <time>2018-05-19T16:18:38.478Z</time>
      </trkpt>
      <trkpt lat="43.19662167" lon="-4.32009333">
        <ele>549.0</ele>
        <time>2018-05-19T16:18:39.481Z</time>
      </trkpt>
      <trkpt lat="43.19662167" lon="-4.32009333">
        <ele>549.0</ele>
        <time>2018-05-19T16:18:40.478Z</time>
      </trkpt>
      <trkpt lat="43.19662833" lon="-4.32011667">
        <ele>550.0</ele>
        <time>2018-05-19T16:18:41.481Z</time>
      </trkpt>
      <trkpt lat="43.19662833" lon="-4.32011667">
        <ele>550.0</ele>
        <time>2018-05-19T16:18:42.479Z</time>
      </trkpt>
      <trkpt lat="43.19664167" lon="-4.32014167">
        <ele>550.0</ele>
        <time>2018-05-19T16:18:43.482Z</time>
      </trkpt>
      <trkpt lat="43.19664167" lon="-4.32014167">
        <ele>550.0</ele>
        <time>2018-05-19T16:18:44.479Z</time>
      </trkpt>
      <trkpt lat="43.19665" lon="-4.32016667">
        <ele>550.0</ele>
        <time>2018-05-19T16:18:45.481Z</time>
      </trkpt>
      <trkpt lat="43.19665" lon="-4.32016667">
        <ele>550.0</ele>
        <time>2018-05-19T16:18:46.450Z</time>
      </trkpt>
      <trkpt lat="43.19666" lon="-4.320195">
        <ele>551.0</ele>
        <time>2018-05-19T16:18:47.455Z</time>
      </trkpt>
      <trkpt lat="43.19666" lon="-4.320195">
        <ele>551.0</ele>
        <time>2018-05-19T16:18:48.479Z</time>
      </trkpt>
      <trkpt lat="43.19666667" lon="-4.32022167">
        <ele>551.0</ele>
        <time>2018-05-19T16:18:49.464Z</time>
      </trkpt>
      <trkpt lat="43.19666667" lon="-4.32022167">
        <ele>551.0</ele>
        <time>2018-05-19T16:18:50.452Z</time>
      </trkpt>
      <trkpt lat="43.19667167" lon="-4.32024833">
        <ele>551.0</ele>
        <time>2018-05-19T16:18:51.448Z</time>
      </trkpt>
      <trkpt lat="43.19667167" lon="-4.32024833">
        <ele>551.0</ele>
        <time>2018-05-19T16:18:52.483Z</time>
      </trkpt>
      <trkpt lat="43.19667667" lon="-4.32027333">
        <ele>552.0</ele>
        <time>2018-05-19T16:18:53.482Z</time>
      </trkpt>
      <trkpt lat="43.19667667" lon="-4.32027333">
        <ele>552.0</ele>
        <time>2018-05-19T16:18:54.477Z</time>
      </trkpt>
      <trkpt lat="43.19667833" lon="-4.32029833">
        <ele>552.0</ele>
        <time>2018-05-19T16:18:55.482Z</time>
      </trkpt>
      <trkpt lat="43.19667833" lon="-4.32029833">
        <ele>552.0</ele>
        <time>2018-05-19T16:18:56.483Z</time>
      </trkpt>
      <trkpt lat="43.19668167" lon="-4.32032667">
        <ele>552.0</ele>
        <time>2018-05-19T16:18:57.484Z</time>
      </trkpt>
      <trkpt lat="43.19668167" lon="-4.32032667">
        <ele>552.0</ele>
        <time>2018-05-19T16:18:58.476Z</time>
      </trkpt>
      <trkpt lat="43.196685" lon="-4.32035167">
        <ele>552.0</ele>
        <time>2018-05-19T16:18:59.482Z</time>
      </trkpt>
      <trkpt lat="43.196685" lon="-4.32035167">
        <ele>552.0</ele>
        <time>2018-05-19T16:19:00.479Z</time>
      </trkpt>
      <trkpt lat="43.19669" lon="-4.32037333">
        <ele>552.0</ele>
        <time>2018-05-19T16:19:01.482Z</time>
      </trkpt>
      <trkpt lat="43.19669" lon="-4.32037333">
        <ele>552.0</ele>
        <time>2018-05-19T16:19:02.479Z</time>
      </trkpt>
      <trkpt lat="43.196695" lon="-4.320395">
        <ele>553.0</ele>
        <time>2018-05-19T16:19:03.479Z</time>
      </trkpt>
      <trkpt lat="43.196695" lon="-4.320395">
        <ele>553.0</ele>
        <time>2018-05-19T16:19:04.459Z</time>
      </trkpt>
      <trkpt lat="43.1967" lon="-4.320415">
        <ele>553.0</ele>
        <time>2018-05-19T16:19:05.486Z</time>
      </trkpt>
      <trkpt lat="43.19670167" lon="-4.32042333">
        <ele>553.0</ele>
        <time>2018-05-19T16:19:06.481Z</time>
      </trkpt>
      <trkpt lat="43.19670333" lon="-4.32043167">
        <ele>553.0</ele>
        <time>2018-05-19T16:19:07.483Z</time>
      </trkpt>
      <trkpt lat="43.19670333" lon="-4.32043167">
        <ele>553.0</ele>
        <time>2018-05-19T16:19:08.480Z</time>
      </trkpt>
      <trkpt lat="43.19670667" lon="-4.32045">
        <ele>553.0</ele>
        <time>2018-05-19T16:19:09.482Z</time>
      </trkpt>
      <trkpt lat="43.19670667" lon="-4.32045">
        <ele>553.0</ele>
        <time>2018-05-19T16:19:10.479Z</time>
      </trkpt>
      <trkpt lat="43.196715" lon="-4.32046833">
        <ele>553.0</ele>
        <time>2018-05-19T16:19:11.480Z</time>
      </trkpt>
      <trkpt lat="43.19671833" lon="-4.32048">
        <ele>554.0</ele>
        <time>2018-05-19T16:19:12.481Z</time>
      </trkpt>
      <trkpt lat="43.19671833" lon="-4.32048">
        <ele>554.0</ele>
        <time>2018-05-19T16:19:13.480Z</time>
      </trkpt>
      <trkpt lat="43.19672333" lon="-4.32050333">
        <ele>554.0</ele>
        <time>2018-05-19T16:19:14.482Z</time>
      </trkpt>
      <trkpt lat="43.19672667" lon="-4.32051333">
        <ele>554.0</ele>
        <time>2018-05-19T16:19:15.482Z</time>
      </trkpt>
      <trkpt lat="43.19672667" lon="-4.32051333">
        <ele>554.0</ele>
        <time>2018-05-19T16:19:16.476Z</time>
      </trkpt>
      <trkpt lat="43.19672667" lon="-4.32053667">
        <ele>554.0</ele>
        <time>2018-05-19T16:19:17.481Z</time>
      </trkpt>
      <trkpt lat="43.19672333" lon="-4.32054833">
        <ele>554.0</ele>
        <time>2018-05-19T16:19:18.481Z</time>
      </trkpt>
      <trkpt lat="43.19672167" lon="-4.32056">
        <ele>555.0</ele>
        <time>2018-05-19T16:19:19.458Z</time>
      </trkpt>
      <trkpt lat="43.19672167" lon="-4.32056">
        <ele>555.0</ele>
        <time>2018-05-19T16:19:20.453Z</time>
      </trkpt>
      <trkpt lat="43.19671333" lon="-4.320585">
        <ele>555.0</ele>
        <time>2018-05-19T16:19:21.482Z</time>
      </trkpt>
      <trkpt lat="43.19671333" lon="-4.320585">
        <ele>555.0</ele>
        <time>2018-05-19T16:19:22.483Z</time>
      </trkpt>
      <trkpt lat="43.19670167" lon="-4.320605">
        <ele>556.0</ele>
        <time>2018-05-19T16:19:23.454Z</time>
      </trkpt>
      <trkpt lat="43.19670167" lon="-4.320605">
        <ele>556.0</ele>
        <time>2018-05-19T16:19:24.471Z</time>
      </trkpt>
      <trkpt lat="43.19669167" lon="-4.32062333">
        <ele>556.0</ele>
        <time>2018-05-19T16:19:25.479Z</time>
      </trkpt>
      <trkpt lat="43.19669167" lon="-4.32062333">
        <ele>556.0</ele>
        <time>2018-05-19T16:19:26.485Z</time>
      </trkpt>
      <trkpt lat="43.19667833" lon="-4.320635">
        <ele>557.0</ele>
        <time>2018-05-19T16:19:27.455Z</time>
      </trkpt>
      <trkpt lat="43.19667833" lon="-4.320635">
        <ele>557.0</ele>
        <time>2018-05-19T16:19:28.486Z</time>
      </trkpt>
      <trkpt lat="43.19666333" lon="-4.320645">
        <ele>557.0</ele>
        <time>2018-05-19T16:19:29.481Z</time>
      </trkpt>
      <trkpt lat="43.19666333" lon="-4.320645">
        <ele>557.0</ele>
        <time>2018-05-19T16:19:30.476Z</time>
      </trkpt>
      <trkpt lat="43.196645" lon="-4.32066333">
        <ele>557.0</ele>
        <time>2018-05-19T16:19:31.459Z</time>
      </trkpt>
      <trkpt lat="43.196645" lon="-4.32066333">
        <ele>557.0</ele>
        <time>2018-05-19T16:19:32.487Z</time>
      </trkpt>
      <trkpt lat="43.196625" lon="-4.32068667">
        <ele>558.0</ele>
        <time>2018-05-19T16:19:33.450Z</time>
      </trkpt>
      <trkpt lat="43.196625" lon="-4.32068667">
        <ele>558.0</ele>
        <time>2018-05-19T16:19:34.479Z</time>
      </trkpt>
      <trkpt lat="43.19660167" lon="-4.32069667">
        <ele>558.0</ele>
        <time>2018-05-19T16:19:35.481Z</time>
      </trkpt>
      <trkpt lat="43.19660167" lon="-4.32069667">
        <ele>558.0</ele>
        <time>2018-05-19T16:19:36.479Z</time>
      </trkpt>
      <trkpt lat="43.19657833" lon="-4.32070667">
        <ele>558.0</ele>
        <time>2018-05-19T16:19:37.483Z</time>
      </trkpt>
      <trkpt lat="43.19657833" lon="-4.32070667">
        <ele>558.0</ele>
        <time>2018-05-19T16:19:38.477Z</time>
      </trkpt>
      <trkpt lat="43.19656" lon="-4.32072333">
        <ele>559.0</ele>
        <time>2018-05-19T16:19:39.462Z</time>
      </trkpt>
      <trkpt lat="43.19656" lon="-4.32072333">
        <ele>559.0</ele>
        <time>2018-05-19T16:19:40.452Z</time>
      </trkpt>
      <trkpt lat="43.19653833" lon="-4.320735">
        <ele>559.0</ele>
        <time>2018-05-19T16:19:41.482Z</time>
      </trkpt>
      <trkpt lat="43.19653833" lon="-4.320735">
        <ele>559.0</ele>
        <time>2018-05-19T16:19:42.479Z</time>
      </trkpt>
      <trkpt lat="43.19652" lon="-4.32075167">
        <ele>560.0</ele>
        <time>2018-05-19T16:19:43.459Z</time>
      </trkpt>
      <trkpt lat="43.19652" lon="-4.32075167">
        <ele>560.0</ele>
        <time>2018-05-19T16:19:44.484Z</time>
      </trkpt>
      <trkpt lat="43.19650167" lon="-4.32077">
        <ele>560.0</ele>
        <time>2018-05-19T16:19:45.480Z</time>
      </trkpt>
      <trkpt lat="43.19650167" lon="-4.32077">
        <ele>560.0</ele>
        <time>2018-05-19T16:19:46.480Z</time>
      </trkpt>
      <trkpt lat="43.196485" lon="-4.32079333">
        <ele>561.0</ele>
        <time>2018-05-19T16:19:47.482Z</time>
      </trkpt>
      <trkpt lat="43.196485" lon="-4.32079333">
        <ele>561.0</ele>
        <time>2018-05-19T16:19:48.477Z</time>
      </trkpt>
      <trkpt lat="43.19647833" lon="-4.32079667">
        <ele>561.0</ele>
        <time>2018-05-19T16:19:49.483Z</time>
      </trkpt>
      <trkpt lat="43.19647833" lon="-4.32079667">
        <ele>561.0</ele>
        <time>2018-05-19T16:19:50.479Z</time>
      </trkpt>
      <trkpt lat="43.196475" lon="-4.32079667">
        <ele>561.0</ele>
        <time>2018-05-19T16:19:51.483Z</time>
      </trkpt>
      <trkpt lat="43.196475" lon="-4.32079667">
        <ele>561.0</ele>
        <time>2018-05-19T16:19:52.458Z</time>
      </trkpt>
      <trkpt lat="43.19641333" lon="-4.32092167">
        <ele>562.0</ele>
        <time>2018-05-19T16:19:53.485Z</time>
      </trkpt>
      <trkpt lat="43.19641333" lon="-4.32092167">
        <ele>562.0</ele>
        <time>2018-05-19T16:19:54.481Z</time>
      </trkpt>
      <trkpt lat="43.19639333" lon="-4.32094333">
        <ele>562.0</ele>
        <time>2018-05-19T16:19:55.484Z</time>
      </trkpt>
      <trkpt lat="43.19638333" lon="-4.32095">
        <ele>562.0</ele>
        <time>2018-05-19T16:19:56.484Z</time>
      </trkpt>
      <trkpt lat="43.19638333" lon="-4.32095">
        <ele>562.0</ele>
        <time>2018-05-19T16:19:57.481Z</time>
      </trkpt>
      <trkpt lat="43.196365" lon="-4.32097167">
        <ele>563.0</ele>
        <time>2018-05-19T16:19:58.483Z</time>
      </trkpt>
      <trkpt lat="43.196365" lon="-4.32097167">
        <ele>563.0</ele>
        <time>2018-05-19T16:19:59.480Z</time>
      </trkpt>
      <trkpt lat="43.19635667" lon="-4.32098667">
        <ele>563.0</ele>
        <time>2018-05-19T16:20:00.485Z</time>
      </trkpt>
      <trkpt lat="43.19635667" lon="-4.32098667">
        <ele>563.0</ele>
        <time>2018-05-19T16:20:01.468Z</time>
      </trkpt>
      <trkpt lat="43.19631167" lon="-4.32107167">
        <ele>564.0</ele>
        <time>2018-05-19T16:20:02.475Z</time>
      </trkpt>
      <trkpt lat="43.19630667" lon="-4.32107667">
        <ele>564.0</ele>
        <time>2018-05-19T16:20:03.458Z</time>
      </trkpt>
      <trkpt lat="43.19630667" lon="-4.32107667">
        <ele>564.0</ele>
        <time>2018-05-19T16:20:04.483Z</time>
      </trkpt>
      <trkpt lat="43.196295" lon="-4.321095">
        <ele>565.0</ele>
        <time>2018-05-19T16:20:05.475Z</time>
      </trkpt>
      <trkpt lat="43.196295" lon="-4.321095">
        <ele>565.0</ele>
        <time>2018-05-19T16:20:06.476Z</time>
      </trkpt>
      <trkpt lat="43.19628" lon="-4.32111667">
        <ele>565.0</ele>
        <time>2018-05-19T16:20:07.451Z</time>
      </trkpt>
      <trkpt lat="43.19628" lon="-4.32111667">
        <ele>565.0</ele>
        <time>2018-05-19T16:20:08.477Z</time>
      </trkpt>
      <trkpt lat="43.19627333" lon="-4.32113333">
        <ele>565.0</ele>
        <time>2018-05-19T16:20:09.477Z</time>
      </trkpt>
      <trkpt lat="43.19627333" lon="-4.32113333">
        <ele>565.0</ele>
        <time>2018-05-19T16:20:10.473Z</time>
      </trkpt>
      <trkpt lat="43.19626667" lon="-4.32115">
        <ele>565.0</ele>
        <time>2018-05-19T16:20:11.468Z</time>
      </trkpt>
      <trkpt lat="43.19626167" lon="-4.32116">
        <ele>565.0</ele>
        <time>2018-05-19T16:20:12.474Z</time>
      </trkpt>
      <trkpt lat="43.19626167" lon="-4.32116">
        <ele>565.0</ele>
        <time>2018-05-19T16:20:13.459Z</time>
      </trkpt>
      <trkpt lat="43.19622833" lon="-4.32122333">
        <ele>566.0</ele>
        <time>2018-05-19T16:20:14.453Z</time>
      </trkpt>
      <trkpt lat="43.19622167" lon="-4.321235">
        <ele>567.0</ele>
        <time>2018-05-19T16:20:15.487Z</time>
      </trkpt>
      <trkpt lat="43.19622167" lon="-4.321235">
        <ele>567.0</ele>
        <time>2018-05-19T16:20:16.486Z</time>
      </trkpt>
      <trkpt lat="43.19621" lon="-4.32125667">
        <ele>567.0</ele>
        <time>2018-05-19T16:20:17.486Z</time>
      </trkpt>
      <trkpt lat="43.19620667" lon="-4.32126667">
        <ele>567.0</ele>
        <time>2018-05-19T16:20:18.485Z</time>
      </trkpt>
      <trkpt lat="43.19620667" lon="-4.32126667">
        <ele>567.0</ele>
        <time>2018-05-19T16:20:19.481Z</time>
      </trkpt>
      <trkpt lat="43.19619667" lon="-4.321285">
        <ele>568.0</ele>
        <time>2018-05-19T16:20:20.485Z</time>
      </trkpt>
      <trkpt lat="43.19619667" lon="-4.321285">
        <ele>568.0</ele>
        <time>2018-05-19T16:20:21.483Z</time>
      </trkpt>
      <trkpt lat="43.19618333" lon="-4.32130667">
        <ele>569.0</ele>
        <time>2018-05-19T16:20:22.488Z</time>
      </trkpt>
      <trkpt lat="43.19618333" lon="-4.32130667">
        <ele>569.0</ele>
        <time>2018-05-19T16:20:23.488Z</time>
      </trkpt>
      <trkpt lat="43.19617" lon="-4.32133">
        <ele>569.0</ele>
        <time>2018-05-19T16:20:24.458Z</time>
      </trkpt>
      <trkpt lat="43.19617" lon="-4.32133">
        <ele>569.0</ele>
        <time>2018-05-19T16:20:25.485Z</time>
      </trkpt>
      <trkpt lat="43.196155" lon="-4.321345">
        <ele>569.0</ele>
        <time>2018-05-19T16:20:26.453Z</time>
      </trkpt>
      <trkpt lat="43.196155" lon="-4.321345">
        <ele>569.0</ele>
        <time>2018-05-19T16:20:27.474Z</time>
      </trkpt>
      <trkpt lat="43.19613667" lon="-4.321355">
        <ele>570.0</ele>
        <time>2018-05-19T16:20:28.459Z</time>
      </trkpt>
      <trkpt lat="43.19613" lon="-4.32136167">
        <ele>570.0</ele>
        <time>2018-05-19T16:20:29.456Z</time>
      </trkpt>
      <trkpt lat="43.19612333" lon="-4.32136833">
        <ele>570.0</ele>
        <time>2018-05-19T16:20:30.486Z</time>
      </trkpt>
      <trkpt lat="43.19612333" lon="-4.32136833">
        <ele>570.0</ele>
        <time>2018-05-19T16:20:31.483Z</time>
      </trkpt>
      <trkpt lat="43.19611" lon="-4.32137833">
        <ele>571.0</ele>
        <time>2018-05-19T16:20:32.485Z</time>
      </trkpt>
      <trkpt lat="43.19610167" lon="-4.32138333">
        <ele>571.0</ele>
        <time>2018-05-19T16:20:33.486Z</time>
      </trkpt>
      <trkpt lat="43.19610167" lon="-4.32138333">
        <ele>571.0</ele>
        <time>2018-05-19T16:20:34.485Z</time>
      </trkpt>
      <trkpt lat="43.19608667" lon="-4.32138833">
        <ele>572.0</ele>
        <time>2018-05-19T16:20:35.455Z</time>
      </trkpt>
      <trkpt lat="43.19607667" lon="-4.32138833">
        <ele>572.0</ele>
        <time>2018-05-19T16:20:36.485Z</time>
      </trkpt>
      <trkpt lat="43.19607667" lon="-4.32138833">
        <ele>572.0</ele>
        <time>2018-05-19T16:20:37.448Z</time>
      </trkpt>
      <trkpt lat="43.19606" lon="-4.32138667">
        <ele>573.0</ele>
        <time>2018-05-19T16:20:38.486Z</time>
      </trkpt>
      <trkpt lat="43.19606" lon="-4.32138667">
        <ele>573.0</ele>
        <time>2018-05-19T16:20:39.483Z</time>
      </trkpt>
      <trkpt lat="43.19604333" lon="-4.32138833">
        <ele>573.0</ele>
        <time>2018-05-19T16:20:40.486Z</time>
      </trkpt>
      <trkpt lat="43.19604333" lon="-4.32138833">
        <ele>573.0</ele>
        <time>2018-05-19T16:20:41.481Z</time>
      </trkpt>
      <trkpt lat="43.19602833" lon="-4.32138167">
        <ele>574.0</ele>
        <time>2018-05-19T16:20:42.486Z</time>
      </trkpt>
      <trkpt lat="43.19602833" lon="-4.32138167">
        <ele>574.0</ele>
        <time>2018-05-19T16:20:43.482Z</time>
      </trkpt>
      <trkpt lat="43.19601333" lon="-4.32136333">
        <ele>575.0</ele>
        <time>2018-05-19T16:20:44.485Z</time>
      </trkpt>
      <trkpt lat="43.19600667" lon="-4.321355">
        <ele>575.0</ele>
        <time>2018-05-19T16:20:45.488Z</time>
      </trkpt>
      <trkpt lat="43.19600667" lon="-4.321355">
        <ele>575.0</ele>
        <time>2018-05-19T16:20:46.484Z</time>
      </trkpt>
      <trkpt lat="43.19599167" lon="-4.32134333">
        <ele>575.0</ele>
        <time>2018-05-19T16:20:47.485Z</time>
      </trkpt>
      <trkpt lat="43.19599167" lon="-4.32134333">
        <ele>575.0</ele>
        <time>2018-05-19T16:20:48.483Z</time>
      </trkpt>
      <trkpt lat="43.19597667" lon="-4.32133333">
        <ele>575.0</ele>
        <time>2018-05-19T16:20:49.485Z</time>
      </trkpt>
      <trkpt lat="43.19597" lon="-4.32133">
        <ele>576.0</ele>
        <time>2018-05-19T16:20:50.486Z</time>
      </trkpt>
      <trkpt lat="43.19597" lon="-4.32133">
        <ele>576.0</ele>
        <time>2018-05-19T16:20:51.484Z</time>
      </trkpt>
      <trkpt lat="43.195955" lon="-4.321325">
        <ele>576.0</ele>
        <time>2018-05-19T16:20:52.488Z</time>
      </trkpt>
      <trkpt lat="43.195955" lon="-4.321325">
        <ele>576.0</ele>
        <time>2018-05-19T16:20:53.484Z</time>
      </trkpt>
      <trkpt lat="43.19594" lon="-4.32131667">
        <ele>576.0</ele>
        <time>2018-05-19T16:20:54.486Z</time>
      </trkpt>
      <trkpt lat="43.19594" lon="-4.32131667">
        <ele>576.0</ele>
        <time>2018-05-19T16:20:55.483Z</time>
      </trkpt>
      <trkpt lat="43.19592667" lon="-4.32131167">
        <ele>576.0</ele>
        <time>2018-05-19T16:20:56.486Z</time>
      </trkpt>
      <trkpt lat="43.19592667" lon="-4.32131167">
        <ele>576.0</ele>
        <time>2018-05-19T16:20:57.483Z</time>
      </trkpt>
      <trkpt lat="43.19591167" lon="-4.32130167">
        <ele>577.0</ele>
        <time>2018-05-19T16:20:58.464Z</time>
      </trkpt>
      <trkpt lat="43.19591167" lon="-4.32130167">
        <ele>577.0</ele>
        <time>2018-05-19T16:20:59.458Z</time>
      </trkpt>
      <trkpt lat="43.19589167" lon="-4.32129667">
        <ele>577.0</ele>
        <time>2018-05-19T16:21:00.486Z</time>
      </trkpt>
      <trkpt lat="43.19589167" lon="-4.32129667">
        <ele>577.0</ele>
        <time>2018-05-19T16:21:01.484Z</time>
      </trkpt>
      <trkpt lat="43.195875" lon="-4.32129167">
        <ele>577.0</ele>
        <time>2018-05-19T16:21:02.487Z</time>
      </trkpt>
      <trkpt lat="43.19586833" lon="-4.32128833">
        <ele>577.0</ele>
        <time>2018-05-19T16:21:03.485Z</time>
      </trkpt>
      <trkpt lat="43.19586167" lon="-4.321285">
        <ele>577.0</ele>
        <time>2018-05-19T16:21:04.488Z</time>
      </trkpt>
      <trkpt lat="43.19586167" lon="-4.321285">
        <ele>577.0</ele>
        <time>2018-05-19T16:21:05.483Z</time>
      </trkpt>
      <trkpt lat="43.195845" lon="-4.32128">
        <ele>578.0</ele>
        <time>2018-05-19T16:21:06.486Z</time>
      </trkpt>
      <trkpt lat="43.195845" lon="-4.32128">
        <ele>578.0</ele>
        <time>2018-05-19T16:21:07.483Z</time>
      </trkpt>
      <trkpt lat="43.19583" lon="-4.32126833">
        <ele>578.0</ele>
        <time>2018-05-19T16:21:08.486Z</time>
      </trkpt>
      <trkpt lat="43.19583" lon="-4.32126833">
        <ele>578.0</ele>
        <time>2018-05-19T16:21:09.483Z</time>
      </trkpt>
      <trkpt lat="43.19581333" lon="-4.32126333">
        <ele>578.0</ele>
        <time>2018-05-19T16:21:10.488Z</time>
      </trkpt>
      <trkpt lat="43.19581333" lon="-4.32126333">
        <ele>578.0</ele>
        <time>2018-05-19T16:21:11.484Z</time>
      </trkpt>
      <trkpt lat="43.19579833" lon="-4.32125833">
        <ele>579.0</ele>
        <time>2018-05-19T16:21:12.488Z</time>
      </trkpt>
      <trkpt lat="43.19579167" lon="-4.321255">
        <ele>579.0</ele>
        <time>2018-05-19T16:21:13.483Z</time>
      </trkpt>
      <trkpt lat="43.19579167" lon="-4.321255">
        <ele>579.0</ele>
        <time>2018-05-19T16:21:14.483Z</time>
      </trkpt>
      <trkpt lat="43.19577833" lon="-4.32124167">
        <ele>580.0</ele>
        <time>2018-05-19T16:21:15.485Z</time>
      </trkpt>
      <trkpt lat="43.19577" lon="-4.32123667">
        <ele>580.0</ele>
        <time>2018-05-19T16:21:16.483Z</time>
      </trkpt>
      <trkpt lat="43.19577" lon="-4.32123667">
        <ele>580.0</ele>
        <time>2018-05-19T16:21:17.480Z</time>
      </trkpt>
      <trkpt lat="43.19575333" lon="-4.32122667">
        <ele>581.0</ele>
        <time>2018-05-19T16:21:18.485Z</time>
      </trkpt>
      <trkpt lat="43.19575333" lon="-4.32122667">
        <ele>581.0</ele>
        <time>2018-05-19T16:21:19.482Z</time>
      </trkpt>
      <trkpt lat="43.19573667" lon="-4.32121667">
        <ele>581.0</ele>
        <time>2018-05-19T16:21:20.486Z</time>
      </trkpt>
      <trkpt lat="43.19573667" lon="-4.32121667">
        <ele>581.0</ele>
        <time>2018-05-19T16:21:21.479Z</time>
      </trkpt>
      <trkpt lat="43.19572333" lon="-4.321205">
        <ele>582.0</ele>
        <time>2018-05-19T16:21:22.448Z</time>
      </trkpt>
      <trkpt lat="43.19572333" lon="-4.321205">
        <ele>582.0</ele>
        <time>2018-05-19T16:21:23.449Z</time>
      </trkpt>
      <trkpt lat="43.19570833" lon="-4.32119833">
        <ele>583.0</ele>
        <time>2018-05-19T16:21:24.474Z</time>
      </trkpt>
      <trkpt lat="43.19570833" lon="-4.32119833">
        <ele>583.0</ele>
        <time>2018-05-19T16:21:25.481Z</time>
      </trkpt>
      <trkpt lat="43.19569167" lon="-4.321195">
        <ele>583.0</ele>
        <time>2018-05-19T16:21:26.493Z</time>
      </trkpt>
      <trkpt lat="43.195685" lon="-4.32119167">
        <ele>583.0</ele>
        <time>2018-05-19T16:21:27.451Z</time>
      </trkpt>
      <trkpt lat="43.19567833" lon="-4.32118667">
        <ele>583.0</ele>
        <time>2018-05-19T16:21:28.486Z</time>
      </trkpt>
      <trkpt lat="43.19567833" lon="-4.32118667">
        <ele>583.0</ele>
        <time>2018-05-19T16:21:29.482Z</time>
      </trkpt>
      <trkpt lat="43.19565833" lon="-4.32118333">
        <ele>584.0</ele>
        <time>2018-05-19T16:21:30.486Z</time>
      </trkpt>
      <trkpt lat="43.19565833" lon="-4.32118333">
        <ele>584.0</ele>
        <time>2018-05-19T16:21:31.449Z</time>
      </trkpt>
      <trkpt lat="43.19563833" lon="-4.32119">
        <ele>584.0</ele>
        <time>2018-05-19T16:21:32.485Z</time>
      </trkpt>
      <trkpt lat="43.19563" lon="-4.321195">
        <ele>584.0</ele>
        <time>2018-05-19T16:21:33.484Z</time>
      </trkpt>
      <trkpt lat="43.19563" lon="-4.321195">
        <ele>584.0</ele>
        <time>2018-05-19T16:21:34.482Z</time>
      </trkpt>
      <trkpt lat="43.19561667" lon="-4.32120167">
        <ele>585.0</ele>
        <time>2018-05-19T16:21:35.485Z</time>
      </trkpt>
      <trkpt lat="43.19560833" lon="-4.32120167">
        <ele>585.0</ele>
        <time>2018-05-19T16:21:36.486Z</time>
      </trkpt>
      <trkpt lat="43.19560833" lon="-4.32120167">
        <ele>585.0</ele>
        <time>2018-05-19T16:21:37.482Z</time>
      </trkpt>
      <trkpt lat="43.19559667" lon="-4.321205">
        <ele>586.0</ele>
        <time>2018-05-19T16:21:38.460Z</time>
      </trkpt>
      <trkpt lat="43.19559667" lon="-4.321205">
        <ele>586.0</ele>
        <time>2018-05-19T16:21:39.480Z</time>
      </trkpt>
      <trkpt lat="43.19558333" lon="-4.32121167">
        <ele>586.0</ele>
        <time>2018-05-19T16:21:40.486Z</time>
      </trkpt>
      <trkpt lat="43.19558333" lon="-4.32121167">
        <ele>586.0</ele>
        <time>2018-05-19T16:21:41.488Z</time>
      </trkpt>
      <trkpt lat="43.19557167" lon="-4.32122">
        <ele>586.0</ele>
        <time>2018-05-19T16:21:42.486Z</time>
      </trkpt>
      <trkpt lat="43.19557167" lon="-4.32122">
        <ele>586.0</ele>
        <time>2018-05-19T16:21:43.484Z</time>
      </trkpt>
      <trkpt lat="43.19556167" lon="-4.32123333">
        <ele>587.0</ele>
        <time>2018-05-19T16:21:44.485Z</time>
      </trkpt>
      <trkpt lat="43.19556167" lon="-4.32123333">
        <ele>587.0</ele>
        <time>2018-05-19T16:21:45.482Z</time>
      </trkpt>
      <trkpt lat="43.19555167" lon="-4.32124667">
        <ele>587.0</ele>
        <time>2018-05-19T16:21:46.483Z</time>
      </trkpt>
      <trkpt lat="43.19555167" lon="-4.32124667">
        <ele>587.0</ele>
        <time>2018-05-19T16:21:47.480Z</time>
      </trkpt>
      <trkpt lat="43.19554333" lon="-4.32126333">
        <ele>587.0</ele>
        <time>2018-05-19T16:21:48.485Z</time>
      </trkpt>
      <trkpt lat="43.19554333" lon="-4.32126333">
        <ele>587.0</ele>
        <time>2018-05-19T16:21:49.483Z</time>
      </trkpt>
      <trkpt lat="43.195535" lon="-4.32128333">
        <ele>587.0</ele>
        <time>2018-05-19T16:21:50.485Z</time>
      </trkpt>
      <trkpt lat="43.195535" lon="-4.32128333">
        <ele>587.0</ele>
        <time>2018-05-19T16:21:51.487Z</time>
      </trkpt>
      <trkpt lat="43.19552667" lon="-4.321305">
        <ele>587.0</ele>
        <time>2018-05-19T16:21:52.486Z</time>
      </trkpt>
      <trkpt lat="43.195525" lon="-4.32131667">
        <ele>588.0</ele>
        <time>2018-05-19T16:21:53.488Z</time>
      </trkpt>
      <trkpt lat="43.195525" lon="-4.32131667">
        <ele>588.0</ele>
        <time>2018-05-19T16:21:54.483Z</time>
      </trkpt>
      <trkpt lat="43.19551667" lon="-4.32134167">
        <ele>588.0</ele>
        <time>2018-05-19T16:21:55.475Z</time>
      </trkpt>
      <trkpt lat="43.19551667" lon="-4.32134167">
        <ele>588.0</ele>
        <time>2018-05-19T16:21:56.483Z</time>
      </trkpt>
      <trkpt lat="43.19550667" lon="-4.32136833">
        <ele>588.0</ele>
        <time>2018-05-19T16:21:57.448Z</time>
      </trkpt>
      <trkpt lat="43.19550667" lon="-4.32136833">
        <ele>588.0</ele>
        <time>2018-05-19T16:21:58.465Z</time>
      </trkpt>
      <trkpt lat="43.19549667" lon="-4.321395">
        <ele>588.0</ele>
        <time>2018-05-19T16:21:59.451Z</time>
      </trkpt>
      <trkpt lat="43.19549167" lon="-4.32140667">
        <ele>588.0</ele>
        <time>2018-05-19T16:22:00.449Z</time>
      </trkpt>
      <trkpt lat="43.19549167" lon="-4.32140667">
        <ele>588.0</ele>
        <time>2018-05-19T16:22:01.487Z</time>
      </trkpt>
      <trkpt lat="43.19548167" lon="-4.32143167">
        <ele>589.0</ele>
        <time>2018-05-19T16:22:02.485Z</time>
      </trkpt>
      <trkpt lat="43.19548167" lon="-4.32143167">
        <ele>589.0</ele>
        <time>2018-05-19T16:22:03.482Z</time>
      </trkpt>
      <trkpt lat="43.19546833" lon="-4.32145833">
        <ele>589.0</ele>
        <time>2018-05-19T16:22:04.488Z</time>
      </trkpt>
      <trkpt lat="43.19546833" lon="-4.32145833">
        <ele>589.0</ele>
        <time>2018-05-19T16:22:05.480Z</time>
      </trkpt>
      <trkpt lat="43.19545667" lon="-4.32148833">
        <ele>589.0</ele>
        <time>2018-05-19T16:22:06.486Z</time>
      </trkpt>
      <trkpt lat="43.19545667" lon="-4.32148833">
        <ele>589.0</ele>
        <time>2018-05-19T16:22:07.477Z</time>
      </trkpt>
      <trkpt lat="43.19544167" lon="-4.32151333">
        <ele>589.0</ele>
        <time>2018-05-19T16:22:08.485Z</time>
      </trkpt>
      <trkpt lat="43.19543167" lon="-4.321525">
        <ele>589.0</ele>
        <time>2018-05-19T16:22:09.481Z</time>
      </trkpt>
      <trkpt lat="43.19541833" lon="-4.32153833">
        <ele>589.0</ele>
        <time>2018-05-19T16:22:10.486Z</time>
      </trkpt>
      <trkpt lat="43.19541833" lon="-4.32153833">
        <ele>589.0</ele>
        <time>2018-05-19T16:22:11.484Z</time>
      </trkpt>
      <trkpt lat="43.19539667" lon="-4.32155667">
        <ele>590.0</ele>
        <time>2018-05-19T16:22:12.486Z</time>
      </trkpt>
      <trkpt lat="43.19539667" lon="-4.32155667">
        <ele>590.0</ele>
        <time>2018-05-19T16:22:13.483Z</time>
      </trkpt>
      <trkpt lat="43.19537833" lon="-4.32157333">
        <ele>590.0</ele>
        <time>2018-05-19T16:22:14.484Z</time>
      </trkpt>
      <trkpt lat="43.19537833" lon="-4.32157333">
        <ele>590.0</ele>
        <time>2018-05-19T16:22:15.483Z</time>
      </trkpt>
      <trkpt lat="43.19536" lon="-4.32159">
        <ele>590.0</ele>
        <time>2018-05-19T16:22:16.486Z</time>
      </trkpt>
      <trkpt lat="43.19536" lon="-4.32159">
        <ele>590.0</ele>
        <time>2018-05-19T16:22:17.457Z</time>
      </trkpt>
      <trkpt lat="43.195345" lon="-4.32160333">
        <ele>590.0</ele>
        <time>2018-05-19T16:22:18.486Z</time>
      </trkpt>
      <trkpt lat="43.195345" lon="-4.32160333">
        <ele>590.0</ele>
        <time>2018-05-19T16:22:19.485Z</time>
      </trkpt>
      <trkpt lat="43.19533" lon="-4.32161667">
        <ele>591.0</ele>
        <time>2018-05-19T16:22:20.485Z</time>
      </trkpt>
      <trkpt lat="43.19533" lon="-4.32161667">
        <ele>591.0</ele>
        <time>2018-05-19T16:22:21.487Z</time>
      </trkpt>
      <trkpt lat="43.19531667" lon="-4.32163333">
        <ele>591.0</ele>
        <time>2018-05-19T16:22:22.486Z</time>
      </trkpt>
      <trkpt lat="43.19531667" lon="-4.32163333">
        <ele>591.0</ele>
        <time>2018-05-19T16:22:23.482Z</time>
      </trkpt>
      <trkpt lat="43.195305" lon="-4.32165167">
        <ele>591.0</ele>
        <time>2018-05-19T16:22:24.456Z</time>
      </trkpt>
      <trkpt lat="43.195305" lon="-4.32165167">
        <ele>591.0</ele>
        <time>2018-05-19T16:22:25.483Z</time>
      </trkpt>
      <trkpt lat="43.19529333" lon="-4.32166833">
        <ele>591.0</ele>
        <time>2018-05-19T16:22:26.485Z</time>
      </trkpt>
      <trkpt lat="43.19529333" lon="-4.32166833">
        <ele>591.0</ele>
        <time>2018-05-19T16:22:27.450Z</time>
      </trkpt>
      <trkpt lat="43.19527833" lon="-4.32168167">
        <ele>591.0</ele>
        <time>2018-05-19T16:22:28.458Z</time>
      </trkpt>
      <trkpt lat="43.19527833" lon="-4.32168167">
        <ele>591.0</ele>
        <time>2018-05-19T16:22:29.483Z</time>
      </trkpt>
      <trkpt lat="43.19525833" lon="-4.32168667">
        <ele>591.0</ele>
        <time>2018-05-19T16:22:30.483Z</time>
      </trkpt>
      <trkpt lat="43.19525833" lon="-4.32168667">
        <ele>591.0</ele>
        <time>2018-05-19T16:22:31.487Z</time>
      </trkpt>
      <trkpt lat="43.19523833" lon="-4.32168667">
        <ele>592.0</ele>
        <time>2018-05-19T16:22:32.485Z</time>
      </trkpt>
      <trkpt lat="43.19523833" lon="-4.32168667">
        <ele>592.0</ele>
        <time>2018-05-19T16:22:33.482Z</time>
      </trkpt>
      <trkpt lat="43.19522167" lon="-4.321675">
        <ele>592.0</ele>
        <time>2018-05-19T16:22:34.486Z</time>
      </trkpt>
      <trkpt lat="43.19521167" lon="-4.32166667">
        <ele>593.0</ele>
        <time>2018-05-19T16:22:35.486Z</time>
      </trkpt>
      <trkpt lat="43.19521167" lon="-4.32166667">
        <ele>593.0</ele>
        <time>2018-05-19T16:22:36.483Z</time>
      </trkpt>
      <trkpt lat="43.19519667" lon="-4.32164333">
        <ele>593.0</ele>
        <time>2018-05-19T16:22:37.485Z</time>
      </trkpt>
      <trkpt lat="43.19519667" lon="-4.32164333">
        <ele>593.0</ele>
        <time>2018-05-19T16:22:38.458Z</time>
      </trkpt>
      <trkpt lat="43.195185" lon="-4.32161667">
        <ele>594.0</ele>
        <time>2018-05-19T16:22:39.485Z</time>
      </trkpt>
      <trkpt lat="43.19518" lon="-4.32160333">
        <ele>594.0</ele>
        <time>2018-05-19T16:22:40.486Z</time>
      </trkpt>
      <trkpt lat="43.19518" lon="-4.32160333">
        <ele>594.0</ele>
        <time>2018-05-19T16:22:41.487Z</time>
      </trkpt>
      <trkpt lat="43.19517667" lon="-4.32157833">
        <ele>594.0</ele>
        <time>2018-05-19T16:22:42.485Z</time>
      </trkpt>
      <trkpt lat="43.19517667" lon="-4.32157833">
        <ele>594.0</ele>
        <time>2018-05-19T16:22:43.480Z</time>
      </trkpt>
      <trkpt lat="43.19517" lon="-4.32155">
        <ele>595.0</ele>
        <time>2018-05-19T16:22:44.484Z</time>
      </trkpt>
      <trkpt lat="43.19517" lon="-4.32155">
        <ele>595.0</ele>
        <time>2018-05-19T16:22:45.482Z</time>
      </trkpt>
      <trkpt lat="43.19516" lon="-4.32152333">
        <ele>595.0</ele>
        <time>2018-05-19T16:22:46.454Z</time>
      </trkpt>
      <trkpt lat="43.19516" lon="-4.32152333">
        <ele>595.0</ele>
        <time>2018-05-19T16:22:47.479Z</time>
      </trkpt>
      <trkpt lat="43.19515" lon="-4.3215">
        <ele>595.0</ele>
        <time>2018-05-19T16:22:48.486Z</time>
      </trkpt>
      <trkpt lat="43.19515" lon="-4.3215">
        <ele>595.0</ele>
        <time>2018-05-19T16:22:49.484Z</time>
      </trkpt>
      <trkpt lat="43.19514167" lon="-4.321475">
        <ele>595.0</ele>
        <time>2018-05-19T16:22:50.485Z</time>
      </trkpt>
      <trkpt lat="43.19514167" lon="-4.321475">
        <ele>595.0</ele>
        <time>2018-05-19T16:22:51.487Z</time>
      </trkpt>
      <trkpt lat="43.19513167" lon="-4.32144833">
        <ele>595.0</ele>
        <time>2018-05-19T16:22:52.451Z</time>
      </trkpt>
      <trkpt lat="43.19513167" lon="-4.32144833">
        <ele>595.0</ele>
        <time>2018-05-19T16:22:53.481Z</time>
      </trkpt>
      <trkpt lat="43.19511833" lon="-4.32142667">
        <ele>595.0</ele>
        <time>2018-05-19T16:22:54.486Z</time>
      </trkpt>
      <trkpt lat="43.19511833" lon="-4.32142667">
        <ele>595.0</ele>
        <time>2018-05-19T16:22:55.480Z</time>
      </trkpt>
      <trkpt lat="43.19510333" lon="-4.32140333">
        <ele>595.0</ele>
        <time>2018-05-19T16:22:56.485Z</time>
      </trkpt>
      <trkpt lat="43.19509333" lon="-4.32139333">
        <ele>595.0</ele>
        <time>2018-05-19T16:22:57.486Z</time>
      </trkpt>
      <trkpt lat="43.195085" lon="-4.32138333">
        <ele>596.0</ele>
        <time>2018-05-19T16:22:58.464Z</time>
      </trkpt>
      <trkpt lat="43.195085" lon="-4.32138333">
        <ele>596.0</ele>
        <time>2018-05-19T16:22:59.451Z</time>
      </trkpt>
      <trkpt lat="43.195065" lon="-4.32137333">
        <ele>596.0</ele>
        <time>2018-05-19T16:23:00.486Z</time>
      </trkpt>
      <trkpt lat="43.195065" lon="-4.32137333">
        <ele>596.0</ele>
        <time>2018-05-19T16:23:01.487Z</time>
      </trkpt>
      <trkpt lat="43.195045" lon="-4.32138167">
        <ele>596.0</ele>
        <time>2018-05-19T16:23:02.485Z</time>
      </trkpt>
      <trkpt lat="43.195045" lon="-4.32138167">
        <ele>596.0</ele>
        <time>2018-05-19T16:23:03.485Z</time>
      </trkpt>
      <trkpt lat="43.19502667" lon="-4.321395">
        <ele>596.0</ele>
        <time>2018-05-19T16:23:04.486Z</time>
      </trkpt>
      <trkpt lat="43.19502667" lon="-4.321395">
        <ele>596.0</ele>
        <time>2018-05-19T16:23:05.482Z</time>
      </trkpt>
      <trkpt lat="43.19501667" lon="-4.32142">
        <ele>597.0</ele>
        <time>2018-05-19T16:23:06.485Z</time>
      </trkpt>
      <trkpt lat="43.19501667" lon="-4.32142">
        <ele>597.0</ele>
        <time>2018-05-19T16:23:07.484Z</time>
      </trkpt>
      <trkpt lat="43.19500833" lon="-4.32145167">
        <ele>597.0</ele>
        <time>2018-05-19T16:23:08.451Z</time>
      </trkpt>
      <trkpt lat="43.19500833" lon="-4.32145167">
        <ele>597.0</ele>
        <time>2018-05-19T16:23:09.483Z</time>
      </trkpt>
      <trkpt lat="43.195" lon="-4.321485">
        <ele>597.0</ele>
        <time>2018-05-19T16:23:10.486Z</time>
      </trkpt>
      <trkpt lat="43.195" lon="-4.321485">
        <ele>597.0</ele>
        <time>2018-05-19T16:23:11.487Z</time>
      </trkpt>
      <trkpt lat="43.19499333" lon="-4.32151833">
        <ele>597.0</ele>
        <time>2018-05-19T16:23:12.486Z</time>
      </trkpt>
      <trkpt lat="43.19499333" lon="-4.32151833">
        <ele>597.0</ele>
        <time>2018-05-19T16:23:13.482Z</time>
      </trkpt>
      <trkpt lat="43.19498833" lon="-4.32155">
        <ele>597.0</ele>
        <time>2018-05-19T16:23:14.482Z</time>
      </trkpt>
      <trkpt lat="43.19498833" lon="-4.32155">
        <ele>597.0</ele>
        <time>2018-05-19T16:23:15.480Z</time>
      </trkpt>
      <trkpt lat="43.194985" lon="-4.32158333">
        <ele>598.0</ele>
        <time>2018-05-19T16:23:16.488Z</time>
      </trkpt>
      <trkpt lat="43.194985" lon="-4.32158333">
        <ele>598.0</ele>
        <time>2018-05-19T16:23:17.482Z</time>
      </trkpt>
      <trkpt lat="43.19498" lon="-4.32161667">
        <ele>598.0</ele>
        <time>2018-05-19T16:23:18.486Z</time>
      </trkpt>
      <trkpt lat="43.19498" lon="-4.32161667">
        <ele>598.0</ele>
        <time>2018-05-19T16:23:19.483Z</time>
      </trkpt>
      <trkpt lat="43.194975" lon="-4.32164833">
        <ele>598.0</ele>
        <time>2018-05-19T16:23:20.484Z</time>
      </trkpt>
      <trkpt lat="43.19497167" lon="-4.321665">
        <ele>598.0</ele>
        <time>2018-05-19T16:23:21.486Z</time>
      </trkpt>
      <trkpt lat="43.19497167" lon="-4.321665">
        <ele>598.0</ele>
        <time>2018-05-19T16:23:22.484Z</time>
      </trkpt>
      <trkpt lat="43.19496667" lon="-4.32169833">
        <ele>598.0</ele>
        <time>2018-05-19T16:23:23.463Z</time>
      </trkpt>
      <trkpt lat="43.19496667" lon="-4.32169833">
        <ele>598.0</ele>
        <time>2018-05-19T16:23:24.475Z</time>
      </trkpt>
      <trkpt lat="43.19496167" lon="-4.32173167">
        <ele>598.0</ele>
        <time>2018-05-19T16:23:25.481Z</time>
      </trkpt>
      <trkpt lat="43.19496167" lon="-4.32173167">
        <ele>598.0</ele>
        <time>2018-05-19T16:23:26.488Z</time>
      </trkpt>
      <trkpt lat="43.19495833" lon="-4.321765">
        <ele>598.0</ele>
        <time>2018-05-19T16:23:27.484Z</time>
      </trkpt>
      <trkpt lat="43.19495667" lon="-4.32178">
        <ele>598.0</ele>
        <time>2018-05-19T16:23:28.487Z</time>
      </trkpt>
      <trkpt lat="43.19495667" lon="-4.32178">
        <ele>598.0</ele>
        <time>2018-05-19T16:23:29.481Z</time>
      </trkpt>
      <trkpt lat="43.194955" lon="-4.32181">
        <ele>598.0</ele>
        <time>2018-05-19T16:23:30.486Z</time>
      </trkpt>
      <trkpt lat="43.194955" lon="-4.32181">
        <ele>598.0</ele>
        <time>2018-05-19T16:23:31.487Z</time>
      </trkpt>
      <trkpt lat="43.19495667" lon="-4.32183833">
        <ele>599.0</ele>
        <time>2018-05-19T16:23:32.485Z</time>
      </trkpt>
      <trkpt lat="43.19495667" lon="-4.32185167">
        <ele>599.0</ele>
        <time>2018-05-19T16:23:33.485Z</time>
      </trkpt>
      <trkpt lat="43.19495667" lon="-4.32185167">
        <ele>599.0</ele>
        <time>2018-05-19T16:23:34.483Z</time>
      </trkpt>
      <trkpt lat="43.194965" lon="-4.32187833">
        <ele>599.0</ele>
        <time>2018-05-19T16:23:35.485Z</time>
      </trkpt>
      <trkpt lat="43.19496667" lon="-4.32189333">
        <ele>599.0</ele>
        <time>2018-05-19T16:23:36.485Z</time>
      </trkpt>
      <trkpt lat="43.19496667" lon="-4.32189333">
        <ele>599.0</ele>
        <time>2018-05-19T16:23:37.482Z</time>
      </trkpt>
      <trkpt lat="43.194975" lon="-4.32192167">
        <ele>599.0</ele>
        <time>2018-05-19T16:23:38.484Z</time>
      </trkpt>
      <trkpt lat="43.194975" lon="-4.32192167">
        <ele>599.0</ele>
        <time>2018-05-19T16:23:39.482Z</time>
      </trkpt>
      <trkpt lat="43.19498333" lon="-4.32195">
        <ele>600.0</ele>
        <time>2018-05-19T16:23:40.486Z</time>
      </trkpt>
      <trkpt lat="43.19498333" lon="-4.32195">
        <ele>600.0</ele>
        <time>2018-05-19T16:23:41.487Z</time>
      </trkpt>
      <trkpt lat="43.19499167" lon="-4.321975">
        <ele>600.0</ele>
        <time>2018-05-19T16:23:42.486Z</time>
      </trkpt>
      <trkpt lat="43.19499167" lon="-4.321975">
        <ele>600.0</ele>
        <time>2018-05-19T16:23:43.482Z</time>
      </trkpt>
      <trkpt lat="43.19500167" lon="-4.32200167">
        <ele>600.0</ele>
        <time>2018-05-19T16:23:44.481Z</time>
      </trkpt>
      <trkpt lat="43.19500167" lon="-4.32200167">
        <ele>600.0</ele>
        <time>2018-05-19T16:23:45.477Z</time>
      </trkpt>
      <trkpt lat="43.19501" lon="-4.322025">
        <ele>600.0</ele>
        <time>2018-05-19T16:23:46.478Z</time>
      </trkpt>
      <trkpt lat="43.19501" lon="-4.322025">
        <ele>600.0</ele>
        <time>2018-05-19T16:23:47.458Z</time>
      </trkpt>
      <trkpt lat="43.19501833" lon="-4.32205167">
        <ele>601.0</ele>
        <time>2018-05-19T16:23:48.451Z</time>
      </trkpt>
      <trkpt lat="43.19502333" lon="-4.32206333">
        <ele>601.0</ele>
        <time>2018-05-19T16:23:49.485Z</time>
      </trkpt>
      <trkpt lat="43.19502333" lon="-4.32206333">
        <ele>601.0</ele>
        <time>2018-05-19T16:23:50.483Z</time>
      </trkpt>
      <trkpt lat="43.195035" lon="-4.32208667">
        <ele>601.0</ele>
        <time>2018-05-19T16:23:51.486Z</time>
      </trkpt>
      <trkpt lat="43.19504167" lon="-4.32210167">
        <ele>601.0</ele>
        <time>2018-05-19T16:23:52.454Z</time>
      </trkpt>
      <trkpt lat="43.19504167" lon="-4.32210167">
        <ele>601.0</ele>
        <time>2018-05-19T16:23:53.477Z</time>
      </trkpt>
      <trkpt lat="43.19505667" lon="-4.32213333">
        <ele>602.0</ele>
        <time>2018-05-19T16:23:54.486Z</time>
      </trkpt>
      <trkpt lat="43.19505667" lon="-4.32213333">
        <ele>602.0</ele>
        <time>2018-05-19T16:23:55.483Z</time>
      </trkpt>
      <trkpt lat="43.19505667" lon="-4.32217">
        <ele>602.0</ele>
        <time>2018-05-19T16:23:56.485Z</time>
      </trkpt>
      <trkpt lat="43.19505667" lon="-4.32217">
        <ele>602.0</ele>
        <time>2018-05-19T16:23:57.481Z</time>
      </trkpt>
      <trkpt lat="43.195065" lon="-4.3222">
        <ele>602.0</ele>
        <time>2018-05-19T16:23:58.485Z</time>
      </trkpt>
      <trkpt lat="43.195065" lon="-4.3222">
        <ele>602.0</ele>
        <time>2018-05-19T16:23:59.480Z</time>
      </trkpt>
      <trkpt lat="43.195075" lon="-4.322225">
        <ele>602.0</ele>
        <time>2018-05-19T16:24:00.485Z</time>
      </trkpt>
      <trkpt lat="43.195075" lon="-4.322225">
        <ele>602.0</ele>
        <time>2018-05-19T16:24:01.483Z</time>
      </trkpt>
      <trkpt lat="43.19507833" lon="-4.32225667">
        <ele>602.0</ele>
        <time>2018-05-19T16:24:02.485Z</time>
      </trkpt>
      <trkpt lat="43.19507833" lon="-4.32225667">
        <ele>602.0</ele>
        <time>2018-05-19T16:24:03.480Z</time>
      </trkpt>
      <trkpt lat="43.19508167" lon="-4.32229333">
        <ele>603.0</ele>
        <time>2018-05-19T16:24:04.488Z</time>
      </trkpt>
      <trkpt lat="43.19508167" lon="-4.32229333">
        <ele>603.0</ele>
        <time>2018-05-19T16:24:05.482Z</time>
      </trkpt>
      <trkpt lat="43.195085" lon="-4.322325">
        <ele>603.0</ele>
        <time>2018-05-19T16:24:06.486Z</time>
      </trkpt>
      <trkpt lat="43.195085" lon="-4.322325">
        <ele>603.0</ele>
        <time>2018-05-19T16:24:07.482Z</time>
      </trkpt>
      <trkpt lat="43.19508667" lon="-4.32236">
        <ele>604.0</ele>
        <time>2018-05-19T16:24:08.484Z</time>
      </trkpt>
      <trkpt lat="43.19508667" lon="-4.32237833">
        <ele>604.0</ele>
        <time>2018-05-19T16:24:09.484Z</time>
      </trkpt>
      <trkpt lat="43.19508833" lon="-4.322395">
        <ele>605.0</ele>
        <time>2018-05-19T16:24:10.487Z</time>
      </trkpt>
      <trkpt lat="43.19508833" lon="-4.322395">
        <ele>605.0</ele>
        <time>2018-05-19T16:24:11.487Z</time>
      </trkpt>
      <trkpt lat="43.19509667" lon="-4.322435">
        <ele>605.0</ele>
        <time>2018-05-19T16:24:12.485Z</time>
      </trkpt>
      <trkpt lat="43.19509667" lon="-4.322435">
        <ele>605.0</ele>
        <time>2018-05-19T16:24:13.484Z</time>
      </trkpt>
      <trkpt lat="43.19509833" lon="-4.32247167">
        <ele>606.0</ele>
        <time>2018-05-19T16:24:14.485Z</time>
      </trkpt>
      <trkpt lat="43.19509833" lon="-4.32247167">
        <ele>606.0</ele>
        <time>2018-05-19T16:24:15.483Z</time>
      </trkpt>
      <trkpt lat="43.19509667" lon="-4.32250833">
        <ele>606.0</ele>
        <time>2018-05-19T16:24:16.485Z</time>
      </trkpt>
      <trkpt lat="43.19509667" lon="-4.32252667">
        <ele>606.0</ele>
        <time>2018-05-19T16:24:17.486Z</time>
      </trkpt>
      <trkpt lat="43.19509667" lon="-4.32252667">
        <ele>606.0</ele>
        <time>2018-05-19T16:24:18.484Z</time>
      </trkpt>
      <trkpt lat="43.19509667" lon="-4.32256">
        <ele>606.0</ele>
        <time>2018-05-19T16:24:19.485Z</time>
      </trkpt>
      <trkpt lat="43.19509667" lon="-4.32256">
        <ele>606.0</ele>
        <time>2018-05-19T16:24:20.479Z</time>
      </trkpt>
      <trkpt lat="43.195095" lon="-4.32259667">
        <ele>607.0</ele>
        <time>2018-05-19T16:24:21.487Z</time>
      </trkpt>
      <trkpt lat="43.195095" lon="-4.32261167">
        <ele>607.0</ele>
        <time>2018-05-19T16:24:22.486Z</time>
      </trkpt>
      <trkpt lat="43.195095" lon="-4.32261167">
        <ele>607.0</ele>
        <time>2018-05-19T16:24:23.485Z</time>
      </trkpt>
      <trkpt lat="43.195095" lon="-4.32264167">
        <ele>607.0</ele>
        <time>2018-05-19T16:24:24.456Z</time>
      </trkpt>
      <trkpt lat="43.195095" lon="-4.32264167">
        <ele>607.0</ele>
        <time>2018-05-19T16:24:25.463Z</time>
      </trkpt>
      <trkpt lat="43.195095" lon="-4.322675">
        <ele>608.0</ele>
        <time>2018-05-19T16:24:26.471Z</time>
      </trkpt>
      <trkpt lat="43.195095" lon="-4.32268833">
        <ele>608.0</ele>
        <time>2018-05-19T16:24:27.458Z</time>
      </trkpt>
      <trkpt lat="43.19509333" lon="-4.322705">
        <ele>609.0</ele>
        <time>2018-05-19T16:24:28.488Z</time>
      </trkpt>
      <trkpt lat="43.19509333" lon="-4.322705">
        <ele>609.0</ele>
        <time>2018-05-19T16:24:29.483Z</time>
      </trkpt>
      <trkpt lat="43.19509" lon="-4.32273333">
        <ele>609.0</ele>
        <time>2018-05-19T16:24:30.485Z</time>
      </trkpt>
      <trkpt lat="43.19509" lon="-4.32273333">
        <ele>609.0</ele>
        <time>2018-05-19T16:24:31.454Z</time>
      </trkpt>
      <trkpt lat="43.195085" lon="-4.32276167">
        <ele>610.0</ele>
        <time>2018-05-19T16:24:32.486Z</time>
      </trkpt>
      <trkpt lat="43.19508333" lon="-4.32277833">
        <ele>610.0</ele>
        <time>2018-05-19T16:24:33.484Z</time>
      </trkpt>
      <trkpt lat="43.19508167" lon="-4.32279667">
        <ele>610.0</ele>
        <time>2018-05-19T16:24:34.486Z</time>
      </trkpt>
      <trkpt lat="43.19508167" lon="-4.32279667">
        <ele>610.0</ele>
        <time>2018-05-19T16:24:35.483Z</time>
      </trkpt>
      <trkpt lat="43.19507833" lon="-4.32282667">
        <ele>610.0</ele>
        <time>2018-05-19T16:24:36.486Z</time>
      </trkpt>
      <trkpt lat="43.19507833" lon="-4.32282667">
        <ele>610.0</ele>
        <time>2018-05-19T16:24:37.480Z</time>
      </trkpt>
      <trkpt lat="43.195075" lon="-4.32285833">
        <ele>611.0</ele>
        <time>2018-05-19T16:24:38.486Z</time>
      </trkpt>
      <trkpt lat="43.195075" lon="-4.32285833">
        <ele>611.0</ele>
        <time>2018-05-19T16:24:39.483Z</time>
      </trkpt>
      <trkpt lat="43.195075" lon="-4.32289167">
        <ele>611.0</ele>
        <time>2018-05-19T16:24:40.485Z</time>
      </trkpt>
      <trkpt lat="43.195075" lon="-4.32289167">
        <ele>611.0</ele>
        <time>2018-05-19T16:24:41.487Z</time>
      </trkpt>
      <trkpt lat="43.195075" lon="-4.32292667">
        <ele>611.0</ele>
        <time>2018-05-19T16:24:42.451Z</time>
      </trkpt>
      <trkpt lat="43.195075" lon="-4.32292667">
        <ele>611.0</ele>
        <time>2018-05-19T16:24:43.455Z</time>
      </trkpt>
      <trkpt lat="43.19507833" lon="-4.32295833">
        <ele>611.0</ele>
        <time>2018-05-19T16:24:44.485Z</time>
      </trkpt>
      <trkpt lat="43.19507833" lon="-4.32295833">
        <ele>611.0</ele>
        <time>2018-05-19T16:24:45.482Z</time>
      </trkpt>
      <trkpt lat="43.19508333" lon="-4.32299333">
        <ele>612.0</ele>
        <time>2018-05-19T16:24:46.485Z</time>
      </trkpt>
      <trkpt lat="43.19508333" lon="-4.32299333">
        <ele>612.0</ele>
        <time>2018-05-19T16:24:47.485Z</time>
      </trkpt>
      <trkpt lat="43.19509167" lon="-4.32302333">
        <ele>612.0</ele>
        <time>2018-05-19T16:24:48.486Z</time>
      </trkpt>
      <trkpt lat="43.19509167" lon="-4.32302333">
        <ele>612.0</ele>
        <time>2018-05-19T16:24:49.483Z</time>
      </trkpt>
      <trkpt lat="43.19509833" lon="-4.32305333">
        <ele>612.0</ele>
        <time>2018-05-19T16:24:50.484Z</time>
      </trkpt>
      <trkpt lat="43.19510167" lon="-4.32306667">
        <ele>612.0</ele>
        <time>2018-05-19T16:24:51.486Z</time>
      </trkpt>
      <trkpt lat="43.19510167" lon="-4.32306667">
        <ele>612.0</ele>
        <time>2018-05-19T16:24:52.483Z</time>
      </trkpt>
      <trkpt lat="43.195105" lon="-4.32309833">
        <ele>613.0</ele>
        <time>2018-05-19T16:24:53.485Z</time>
      </trkpt>
      <trkpt lat="43.195105" lon="-4.32309833">
        <ele>613.0</ele>
        <time>2018-05-19T16:24:54.481Z</time>
      </trkpt>
      <trkpt lat="43.195115" lon="-4.32313">
        <ele>613.0</ele>
        <time>2018-05-19T16:24:55.485Z</time>
      </trkpt>
      <trkpt lat="43.195115" lon="-4.32313">
        <ele>613.0</ele>
        <time>2018-05-19T16:24:56.482Z</time>
      </trkpt>
      <trkpt lat="43.19511833" lon="-4.32316333">
        <ele>613.0</ele>
        <time>2018-05-19T16:24:57.484Z</time>
      </trkpt>
      <trkpt lat="43.19512" lon="-4.32318167">
        <ele>613.0</ele>
        <time>2018-05-19T16:24:58.467Z</time>
      </trkpt>
      <trkpt lat="43.19512" lon="-4.32318167">
        <ele>613.0</ele>
        <time>2018-05-19T16:24:59.449Z</time>
      </trkpt>
      <trkpt lat="43.19512833" lon="-4.32321167">
        <ele>613.0</ele>
        <time>2018-05-19T16:25:00.483Z</time>
      </trkpt>
      <trkpt lat="43.19512833" lon="-4.32321167">
        <ele>613.0</ele>
        <time>2018-05-19T16:25:01.487Z</time>
      </trkpt>
      <trkpt lat="43.19513333" lon="-4.32324167">
        <ele>613.0</ele>
        <time>2018-05-19T16:25:02.486Z</time>
      </trkpt>
      <trkpt lat="43.19513333" lon="-4.32324167">
        <ele>613.0</ele>
        <time>2018-05-19T16:25:03.483Z</time>
      </trkpt>
      <trkpt lat="43.19514167" lon="-4.32327333">
        <ele>614.0</ele>
        <time>2018-05-19T16:25:04.482Z</time>
      </trkpt>
      <trkpt lat="43.19514167" lon="-4.32327333">
        <ele>614.0</ele>
        <time>2018-05-19T16:25:05.476Z</time>
      </trkpt>
      <trkpt lat="43.19514833" lon="-4.323305">
        <ele>614.0</ele>
        <time>2018-05-19T16:25:06.485Z</time>
      </trkpt>
      <trkpt lat="43.19514833" lon="-4.323305">
        <ele>614.0</ele>
        <time>2018-05-19T16:25:07.481Z</time>
      </trkpt>
      <trkpt lat="43.19515167" lon="-4.32333833">
        <ele>614.0</ele>
        <time>2018-05-19T16:25:08.485Z</time>
      </trkpt>
      <trkpt lat="43.19515167" lon="-4.32333833">
        <ele>614.0</ele>
        <time>2018-05-19T16:25:09.479Z</time>
      </trkpt>
      <trkpt lat="43.19514667" lon="-4.32336833">
        <ele>614.0</ele>
        <time>2018-05-19T16:25:10.485Z</time>
      </trkpt>
      <trkpt lat="43.19514667" lon="-4.32336833">
        <ele>614.0</ele>
        <time>2018-05-19T16:25:11.487Z</time>
      </trkpt>
      <trkpt lat="43.19512667" lon="-4.32339">
        <ele>615.0</ele>
        <time>2018-05-19T16:25:12.483Z</time>
      </trkpt>
      <trkpt lat="43.19512667" lon="-4.32339">
        <ele>615.0</ele>
        <time>2018-05-19T16:25:13.479Z</time>
      </trkpt>
      <trkpt lat="43.19510667" lon="-4.32339833">
        <ele>615.0</ele>
        <time>2018-05-19T16:25:14.484Z</time>
      </trkpt>
      <trkpt lat="43.19510667" lon="-4.32339833">
        <ele>615.0</ele>
        <time>2018-05-19T16:25:15.481Z</time>
      </trkpt>
      <trkpt lat="43.19508833" lon="-4.32338667">
        <ele>615.0</ele>
        <time>2018-05-19T16:25:16.486Z</time>
      </trkpt>
      <trkpt lat="43.19508833" lon="-4.32338667">
        <ele>615.0</ele>
        <time>2018-05-19T16:25:17.467Z</time>
      </trkpt>
      <trkpt lat="43.19506833" lon="-4.32337">
        <ele>616.0</ele>
        <time>2018-05-19T16:25:18.488Z</time>
      </trkpt>
      <trkpt lat="43.19506833" lon="-4.32337">
        <ele>616.0</ele>
        <time>2018-05-19T16:25:19.457Z</time>
      </trkpt>
      <trkpt lat="43.19505167" lon="-4.32334667">
        <ele>616.0</ele>
        <time>2018-05-19T16:25:20.484Z</time>
      </trkpt>
      <trkpt lat="43.19505167" lon="-4.32334667">
        <ele>616.0</ele>
        <time>2018-05-19T16:25:21.487Z</time>
      </trkpt>
      <trkpt lat="43.195035" lon="-4.323325">
        <ele>617.0</ele>
        <time>2018-05-19T16:25:22.487Z</time>
      </trkpt>
      <trkpt lat="43.195035" lon="-4.323325">
        <ele>617.0</ele>
        <time>2018-05-19T16:25:23.487Z</time>
      </trkpt>
      <trkpt lat="43.19502" lon="-4.323305">
        <ele>617.0</ele>
        <time>2018-05-19T16:25:24.457Z</time>
      </trkpt>
      <trkpt lat="43.19502" lon="-4.323305">
        <ele>617.0</ele>
        <time>2018-05-19T16:25:25.464Z</time>
      </trkpt>
      <trkpt lat="43.19500333" lon="-4.32328167">
        <ele>617.0</ele>
        <time>2018-05-19T16:25:26.472Z</time>
      </trkpt>
      <trkpt lat="43.19499667" lon="-4.32327167">
        <ele>617.0</ele>
        <time>2018-05-19T16:25:27.458Z</time>
      </trkpt>
      <trkpt lat="43.19499667" lon="-4.32327167">
        <ele>617.0</ele>
        <time>2018-05-19T16:25:28.483Z</time>
      </trkpt>
      <trkpt lat="43.194985" lon="-4.32324833">
        <ele>617.0</ele>
        <time>2018-05-19T16:25:29.484Z</time>
      </trkpt>
      <trkpt lat="43.19498" lon="-4.323235">
        <ele>617.0</ele>
        <time>2018-05-19T16:25:30.485Z</time>
      </trkpt>
      <trkpt lat="43.19498" lon="-4.323235">
        <ele>617.0</ele>
        <time>2018-05-19T16:25:31.493Z</time>
      </trkpt>
      <trkpt lat="43.194965" lon="-4.32321667">
        <ele>617.0</ele>
        <time>2018-05-19T16:25:32.485Z</time>
      </trkpt>
      <trkpt lat="43.194965" lon="-4.32321667">
        <ele>617.0</ele>
        <time>2018-05-19T16:25:33.482Z</time>
      </trkpt>
      <trkpt lat="43.19494667" lon="-4.32319667">
        <ele>617.0</ele>
        <time>2018-05-19T16:25:34.486Z</time>
      </trkpt>
      <trkpt lat="43.19494667" lon="-4.32319667">
        <ele>617.0</ele>
        <time>2018-05-19T16:25:35.481Z</time>
      </trkpt>
      <trkpt lat="43.19492833" lon="-4.32317">
        <ele>618.0</ele>
        <time>2018-05-19T16:25:36.485Z</time>
      </trkpt>
      <trkpt lat="43.19492833" lon="-4.32317">
        <ele>618.0</ele>
        <time>2018-05-19T16:25:37.475Z</time>
      </trkpt>
      <trkpt lat="43.19490833" lon="-4.32314333">
        <ele>618.0</ele>
        <time>2018-05-19T16:25:38.454Z</time>
      </trkpt>
      <trkpt lat="43.19490833" lon="-4.32314333">
        <ele>618.0</ele>
        <time>2018-05-19T16:25:39.448Z</time>
      </trkpt>
      <trkpt lat="43.19489" lon="-4.32311833">
        <ele>618.0</ele>
        <time>2018-05-19T16:25:40.485Z</time>
      </trkpt>
      <trkpt lat="43.19489" lon="-4.32311833">
        <ele>618.0</ele>
        <time>2018-05-19T16:25:41.488Z</time>
      </trkpt>
      <trkpt lat="43.19487" lon="-4.32308667">
        <ele>619.0</ele>
        <time>2018-05-19T16:25:42.486Z</time>
      </trkpt>
      <trkpt lat="43.19487" lon="-4.32308667">
        <ele>619.0</ele>
        <time>2018-05-19T16:25:43.481Z</time>
      </trkpt>
      <trkpt lat="43.19485" lon="-4.32306167">
        <ele>619.0</ele>
        <time>2018-05-19T16:25:44.484Z</time>
      </trkpt>
      <trkpt lat="43.19485" lon="-4.32306167">
        <ele>619.0</ele>
        <time>2018-05-19T16:25:45.482Z</time>
      </trkpt>
      <trkpt lat="43.194825" lon="-4.32303667">
        <ele>619.0</ele>
        <time>2018-05-19T16:25:46.485Z</time>
      </trkpt>
      <trkpt lat="43.194815" lon="-4.32302333">
        <ele>619.0</ele>
        <time>2018-05-19T16:25:47.486Z</time>
      </trkpt>
      <trkpt lat="43.194805" lon="-4.32301">
        <ele>619.0</ele>
        <time>2018-05-19T16:25:48.488Z</time>
      </trkpt>
      <trkpt lat="43.194805" lon="-4.32301">
        <ele>619.0</ele>
        <time>2018-05-19T16:25:49.483Z</time>
      </trkpt>
      <trkpt lat="43.19478667" lon="-4.322985">
        <ele>619.0</ele>
        <time>2018-05-19T16:25:50.485Z</time>
      </trkpt>
      <trkpt lat="43.19478667" lon="-4.322985">
        <ele>619.0</ele>
        <time>2018-05-19T16:25:51.487Z</time>
      </trkpt>
      <trkpt lat="43.19476667" lon="-4.32296333">
        <ele>619.0</ele>
        <time>2018-05-19T16:25:52.486Z</time>
      </trkpt>
      <trkpt lat="43.19476667" lon="-4.32296333">
        <ele>619.0</ele>
        <time>2018-05-19T16:25:53.482Z</time>
      </trkpt>
      <trkpt lat="43.19474667" lon="-4.32293667">
        <ele>620.0</ele>
        <time>2018-05-19T16:25:54.485Z</time>
      </trkpt>
      <trkpt lat="43.19474667" lon="-4.32293667">
        <ele>620.0</ele>
        <time>2018-05-19T16:25:55.479Z</time>
      </trkpt>
      <trkpt lat="43.19473" lon="-4.32291167">
        <ele>620.0</ele>
        <time>2018-05-19T16:25:56.484Z</time>
      </trkpt>
      <trkpt lat="43.19473" lon="-4.32291167">
        <ele>620.0</ele>
        <time>2018-05-19T16:25:57.481Z</time>
      </trkpt>
      <trkpt lat="43.194715" lon="-4.322885">
        <ele>620.0</ele>
        <time>2018-05-19T16:25:58.477Z</time>
      </trkpt>
      <trkpt lat="43.194715" lon="-4.322885">
        <ele>620.0</ele>
        <time>2018-05-19T16:25:59.481Z</time>
      </trkpt>
      <trkpt lat="43.19469667" lon="-4.32286167">
        <ele>620.0</ele>
        <time>2018-05-19T16:26:00.465Z</time>
      </trkpt>
      <trkpt lat="43.19469667" lon="-4.32286167">
        <ele>620.0</ele>
        <time>2018-05-19T16:26:01.487Z</time>
      </trkpt>
      <trkpt lat="43.19467667" lon="-4.32284167">
        <ele>620.0</ele>
        <time>2018-05-19T16:26:02.485Z</time>
      </trkpt>
      <trkpt lat="43.19467667" lon="-4.32284167">
        <ele>620.0</ele>
        <time>2018-05-19T16:26:03.482Z</time>
      </trkpt>
      <trkpt lat="43.19466167" lon="-4.32281667">
        <ele>621.0</ele>
        <time>2018-05-19T16:26:04.485Z</time>
      </trkpt>
      <trkpt lat="43.19466167" lon="-4.32281667">
        <ele>621.0</ele>
        <time>2018-05-19T16:26:05.479Z</time>
      </trkpt>
      <trkpt lat="43.19464667" lon="-4.32279333">
        <ele>621.0</ele>
        <time>2018-05-19T16:26:06.485Z</time>
      </trkpt>
      <trkpt lat="43.19464667" lon="-4.32279333">
        <ele>621.0</ele>
        <time>2018-05-19T16:26:07.481Z</time>
      </trkpt>
      <trkpt lat="43.19462833" lon="-4.32277333">
        <ele>621.0</ele>
        <time>2018-05-19T16:26:08.487Z</time>
      </trkpt>
      <trkpt lat="43.19462" lon="-4.32276333">
        <ele>622.0</ele>
        <time>2018-05-19T16:26:09.452Z</time>
      </trkpt>
      <trkpt lat="43.19462" lon="-4.32276333">
        <ele>622.0</ele>
        <time>2018-05-19T16:26:10.482Z</time>
      </trkpt>
      <trkpt lat="43.19460167" lon="-4.32274167">
        <ele>622.0</ele>
        <time>2018-05-19T16:26:11.486Z</time>
      </trkpt>
      <trkpt lat="43.19459333" lon="-4.32273">
        <ele>622.0</ele>
        <time>2018-05-19T16:26:12.486Z</time>
      </trkpt>
      <trkpt lat="43.19459333" lon="-4.32273">
        <ele>622.0</ele>
        <time>2018-05-19T16:26:13.451Z</time>
      </trkpt>
      <trkpt lat="43.19457667" lon="-4.32270833">
        <ele>622.0</ele>
        <time>2018-05-19T16:26:14.486Z</time>
      </trkpt>
      <trkpt lat="43.19457667" lon="-4.32270833">
        <ele>622.0</ele>
        <time>2018-05-19T16:26:15.482Z</time>
      </trkpt>
      <trkpt lat="43.19456167" lon="-4.322685">
        <ele>623.0</ele>
        <time>2018-05-19T16:26:16.485Z</time>
      </trkpt>
      <trkpt lat="43.19456167" lon="-4.322685">
        <ele>623.0</ele>
        <time>2018-05-19T16:26:17.482Z</time>
      </trkpt>
      <trkpt lat="43.194545" lon="-4.32266167">
        <ele>623.0</ele>
        <time>2018-05-19T16:26:18.484Z</time>
      </trkpt>
      <trkpt lat="43.194545" lon="-4.32266167">
        <ele>623.0</ele>
        <time>2018-05-19T16:26:19.453Z</time>
      </trkpt>
      <trkpt lat="43.19453" lon="-4.32263833">
        <ele>623.0</ele>
        <time>2018-05-19T16:26:20.449Z</time>
      </trkpt>
      <trkpt lat="43.19452167" lon="-4.32262833">
        <ele>623.0</ele>
        <time>2018-05-19T16:26:21.483Z</time>
      </trkpt>
      <trkpt lat="43.19452167" lon="-4.32262833">
        <ele>623.0</ele>
        <time>2018-05-19T16:26:22.483Z</time>
      </trkpt>
      <trkpt lat="43.19450833" lon="-4.32260333">
        <ele>623.0</ele>
        <time>2018-05-19T16:26:23.449Z</time>
      </trkpt>
      <trkpt lat="43.19450833" lon="-4.32260333">
        <ele>623.0</ele>
        <time>2018-05-19T16:26:24.460Z</time>
      </trkpt>
      <trkpt lat="43.194495" lon="-4.32257667">
        <ele>623.0</ele>
        <time>2018-05-19T16:26:25.467Z</time>
      </trkpt>
      <trkpt lat="43.19449" lon="-4.32256167">
        <ele>624.0</ele>
        <time>2018-05-19T16:26:26.484Z</time>
      </trkpt>
      <trkpt lat="43.19448333" lon="-4.32254667">
        <ele>624.0</ele>
        <time>2018-05-19T16:26:27.485Z</time>
      </trkpt>
      <trkpt lat="43.19448333" lon="-4.32254667">
        <ele>624.0</ele>
        <time>2018-05-19T16:26:28.483Z</time>
      </trkpt>
      <trkpt lat="43.19447167" lon="-4.32251833">
        <ele>624.0</ele>
        <time>2018-05-19T16:26:29.484Z</time>
      </trkpt>
      <trkpt lat="43.194465" lon="-4.32250167">
        <ele>624.0</ele>
        <time>2018-05-19T16:26:30.487Z</time>
      </trkpt>
      <trkpt lat="43.194465" lon="-4.32250167">
        <ele>624.0</ele>
        <time>2018-05-19T16:26:31.457Z</time>
      </trkpt>
      <trkpt lat="43.19445333" lon="-4.32247333">
        <ele>624.0</ele>
        <time>2018-05-19T16:26:32.461Z</time>
      </trkpt>
      <trkpt lat="43.19445333" lon="-4.32247333">
        <ele>624.0</ele>
        <time>2018-05-19T16:26:33.482Z</time>
      </trkpt>
      <trkpt lat="43.19444833" lon="-4.32244">
        <ele>624.0</ele>
        <time>2018-05-19T16:26:34.485Z</time>
      </trkpt>
      <trkpt lat="43.19444333" lon="-4.32242333">
        <ele>623.0</ele>
        <time>2018-05-19T16:26:35.457Z</time>
      </trkpt>
      <trkpt lat="43.19444333" lon="-4.32242333">
        <ele>623.0</ele>
        <time>2018-05-19T16:26:36.455Z</time>
      </trkpt>
      <trkpt lat="43.19443333" lon="-4.32239">
        <ele>623.0</ele>
        <time>2018-05-19T16:26:37.484Z</time>
      </trkpt>
      <trkpt lat="43.19442667" lon="-4.322375">
        <ele>624.0</ele>
        <time>2018-05-19T16:26:38.485Z</time>
      </trkpt>
      <trkpt lat="43.19442667" lon="-4.322375">
        <ele>624.0</ele>
        <time>2018-05-19T16:26:39.481Z</time>
      </trkpt>
      <trkpt lat="43.19441667" lon="-4.32234333">
        <ele>624.0</ele>
        <time>2018-05-19T16:26:40.485Z</time>
      </trkpt>
      <trkpt lat="43.19441667" lon="-4.32234333">
        <ele>624.0</ele>
        <time>2018-05-19T16:26:41.482Z</time>
      </trkpt>
      <trkpt lat="43.19441" lon="-4.32231">
        <ele>624.0</ele>
        <time>2018-05-19T16:26:42.486Z</time>
      </trkpt>
      <trkpt lat="43.19441" lon="-4.32231">
        <ele>624.0</ele>
        <time>2018-05-19T16:26:43.482Z</time>
      </trkpt>
      <trkpt lat="43.19440167" lon="-4.32227833">
        <ele>625.0</ele>
        <time>2018-05-19T16:26:44.484Z</time>
      </trkpt>
      <trkpt lat="43.19440167" lon="-4.32227833">
        <ele>625.0</ele>
        <time>2018-05-19T16:26:45.481Z</time>
      </trkpt>
      <trkpt lat="43.19438833" lon="-4.32224333">
        <ele>625.0</ele>
        <time>2018-05-19T16:26:46.484Z</time>
      </trkpt>
      <trkpt lat="43.19438833" lon="-4.32224333">
        <ele>625.0</ele>
        <time>2018-05-19T16:26:47.476Z</time>
      </trkpt>
      <trkpt lat="43.194375" lon="-4.32221">
        <ele>625.0</ele>
        <time>2018-05-19T16:26:48.465Z</time>
      </trkpt>
      <trkpt lat="43.194375" lon="-4.32221">
        <ele>625.0</ele>
        <time>2018-05-19T16:26:49.485Z</time>
      </trkpt>
      <trkpt lat="43.19435833" lon="-4.32218">
        <ele>626.0</ele>
        <time>2018-05-19T16:26:50.484Z</time>
      </trkpt>
      <trkpt lat="43.19435" lon="-4.32216333">
        <ele>626.0</ele>
        <time>2018-05-19T16:26:51.484Z</time>
      </trkpt>
      <trkpt lat="43.19434333" lon="-4.32214833">
        <ele>626.0</ele>
        <time>2018-05-19T16:26:52.485Z</time>
      </trkpt>
      <trkpt lat="43.194335" lon="-4.32213333">
        <ele>626.0</ele>
        <time>2018-05-19T16:26:53.486Z</time>
      </trkpt>
      <trkpt lat="43.194335" lon="-4.32213333">
        <ele>626.0</ele>
        <time>2018-05-19T16:26:54.480Z</time>
      </trkpt>
      <trkpt lat="43.19431833" lon="-4.32210833">
        <ele>626.0</ele>
        <time>2018-05-19T16:26:55.484Z</time>
      </trkpt>
      <trkpt lat="43.19431167" lon="-4.32209833">
        <ele>626.0</ele>
        <time>2018-05-19T16:26:56.485Z</time>
      </trkpt>
      <trkpt lat="43.19431167" lon="-4.32209833">
        <ele>626.0</ele>
        <time>2018-05-19T16:26:57.481Z</time>
      </trkpt>
      <trkpt lat="43.194295" lon="-4.32207333">
        <ele>627.0</ele>
        <time>2018-05-19T16:26:58.465Z</time>
      </trkpt>
      <trkpt lat="43.194295" lon="-4.32207333">
        <ele>627.0</ele>
        <time>2018-05-19T16:26:59.486Z</time>
      </trkpt>
      <trkpt lat="43.19427833" lon="-4.32205333">
        <ele>627.0</ele>
        <time>2018-05-19T16:27:00.488Z</time>
      </trkpt>
      <trkpt lat="43.19427833" lon="-4.32205333">
        <ele>627.0</ele>
        <time>2018-05-19T16:27:01.479Z</time>
      </trkpt>
      <trkpt lat="43.19426167" lon="-4.32203">
        <ele>627.0</ele>
        <time>2018-05-19T16:27:02.487Z</time>
      </trkpt>
      <trkpt lat="43.19426167" lon="-4.32203">
        <ele>627.0</ele>
        <time>2018-05-19T16:27:03.481Z</time>
      </trkpt>
      <trkpt lat="43.19424333" lon="-4.32200667">
        <ele>628.0</ele>
        <time>2018-05-19T16:27:04.485Z</time>
      </trkpt>
      <trkpt lat="43.19424333" lon="-4.32200667">
        <ele>628.0</ele>
        <time>2018-05-19T16:27:05.480Z</time>
      </trkpt>
      <trkpt lat="43.194225" lon="-4.32198667">
        <ele>628.0</ele>
        <time>2018-05-19T16:27:06.485Z</time>
      </trkpt>
      <trkpt lat="43.194225" lon="-4.32198667">
        <ele>628.0</ele>
        <time>2018-05-19T16:27:07.480Z</time>
      </trkpt>
      <trkpt lat="43.19420833" lon="-4.32196167">
        <ele>628.0</ele>
        <time>2018-05-19T16:27:08.484Z</time>
      </trkpt>
      <trkpt lat="43.19420833" lon="-4.32196167">
        <ele>628.0</ele>
        <time>2018-05-19T16:27:09.481Z</time>
      </trkpt>
      <trkpt lat="43.19419333" lon="-4.32194">
        <ele>629.0</ele>
        <time>2018-05-19T16:27:10.467Z</time>
      </trkpt>
      <trkpt lat="43.19419333" lon="-4.32194">
        <ele>629.0</ele>
        <time>2018-05-19T16:27:11.450Z</time>
      </trkpt>
      <trkpt lat="43.194175" lon="-4.32192">
        <ele>629.0</ele>
        <time>2018-05-19T16:27:12.453Z</time>
      </trkpt>
      <trkpt lat="43.194175" lon="-4.32192">
        <ele>629.0</ele>
        <time>2018-05-19T16:27:13.482Z</time>
      </trkpt>
      <trkpt lat="43.19415333" lon="-4.32190333">
        <ele>629.0</ele>
        <time>2018-05-19T16:27:14.481Z</time>
      </trkpt>
      <trkpt lat="43.19414333" lon="-4.321895">
        <ele>629.0</ele>
        <time>2018-05-19T16:27:15.486Z</time>
      </trkpt>
      <trkpt lat="43.19414333" lon="-4.321895">
        <ele>629.0</ele>
        <time>2018-05-19T16:27:16.484Z</time>
      </trkpt>
      <trkpt lat="43.19412333" lon="-4.32187167">
        <ele>629.0</ele>
        <time>2018-05-19T16:27:17.484Z</time>
      </trkpt>
      <trkpt lat="43.19411333" lon="-4.32185833">
        <ele>629.0</ele>
        <time>2018-05-19T16:27:18.485Z</time>
      </trkpt>
      <trkpt lat="43.19411333" lon="-4.32185833">
        <ele>629.0</ele>
        <time>2018-05-19T16:27:19.484Z</time>
      </trkpt>
      <trkpt lat="43.19409667" lon="-4.32183333">
        <ele>630.0</ele>
        <time>2018-05-19T16:27:20.485Z</time>
      </trkpt>
      <trkpt lat="43.19409667" lon="-4.32183333">
        <ele>630.0</ele>
        <time>2018-05-19T16:27:21.482Z</time>
      </trkpt>
      <trkpt lat="43.19407667" lon="-4.32181">
        <ele>630.0</ele>
        <time>2018-05-19T16:27:22.450Z</time>
      </trkpt>
      <trkpt lat="43.19407667" lon="-4.32181">
        <ele>630.0</ele>
        <time>2018-05-19T16:27:23.475Z</time>
      </trkpt>
      <trkpt lat="43.19405667" lon="-4.32179">
        <ele>630.0</ele>
        <time>2018-05-19T16:27:24.485Z</time>
      </trkpt>
      <trkpt lat="43.19405667" lon="-4.32179">
        <ele>630.0</ele>
        <time>2018-05-19T16:27:25.453Z</time>
      </trkpt>
      <trkpt lat="43.19403833" lon="-4.32176333">
        <ele>631.0</ele>
        <time>2018-05-19T16:27:26.459Z</time>
      </trkpt>
      <trkpt lat="43.19403833" lon="-4.32176333">
        <ele>631.0</ele>
        <time>2018-05-19T16:27:27.478Z</time>
      </trkpt>
      <trkpt lat="43.19401833" lon="-4.32173667">
        <ele>631.0</ele>
        <time>2018-05-19T16:27:28.485Z</time>
      </trkpt>
      <trkpt lat="43.19401833" lon="-4.32173667">
        <ele>631.0</ele>
        <time>2018-05-19T16:27:29.480Z</time>
      </trkpt>
      <trkpt lat="43.19399833" lon="-4.32171167">
        <ele>631.0</ele>
        <time>2018-05-19T16:27:30.482Z</time>
      </trkpt>
      <trkpt lat="43.19399833" lon="-4.32171167">
        <ele>631.0</ele>
        <time>2018-05-19T16:27:31.452Z</time>
      </trkpt>
      <trkpt lat="43.19398167" lon="-4.32168667">
        <ele>632.0</ele>
        <time>2018-05-19T16:27:32.484Z</time>
      </trkpt>
      <trkpt lat="43.19398167" lon="-4.32168667">
        <ele>632.0</ele>
        <time>2018-05-19T16:27:33.481Z</time>
      </trkpt>
      <trkpt lat="43.193965" lon="-4.32166">
        <ele>632.0</ele>
        <time>2018-05-19T16:27:34.486Z</time>
      </trkpt>
      <trkpt lat="43.193965" lon="-4.32166">
        <ele>632.0</ele>
        <time>2018-05-19T16:27:35.476Z</time>
      </trkpt>
      <trkpt lat="43.19394667" lon="-4.32163333">
        <ele>632.0</ele>
        <time>2018-05-19T16:27:36.484Z</time>
      </trkpt>
      <trkpt lat="43.19394667" lon="-4.32163333">
        <ele>632.0</ele>
        <time>2018-05-19T16:27:37.488Z</time>
      </trkpt>
      <trkpt lat="43.19393" lon="-4.321615">
        <ele>632.0</ele>
        <time>2018-05-19T16:27:38.449Z</time>
      </trkpt>
      <trkpt lat="43.19393" lon="-4.321615">
        <ele>632.0</ele>
        <time>2018-05-19T16:27:39.476Z</time>
      </trkpt>
      <trkpt lat="43.19391333" lon="-4.32159">
        <ele>632.0</ele>
        <time>2018-05-19T16:27:40.486Z</time>
      </trkpt>
      <trkpt lat="43.19391333" lon="-4.32159">
        <ele>632.0</ele>
        <time>2018-05-19T16:27:41.480Z</time>
      </trkpt>
      <trkpt lat="43.19389667" lon="-4.32156667">
        <ele>633.0</ele>
        <time>2018-05-19T16:27:42.486Z</time>
      </trkpt>
      <trkpt lat="43.19389667" lon="-4.32156667">
        <ele>633.0</ele>
        <time>2018-05-19T16:27:43.479Z</time>
      </trkpt>
      <trkpt lat="43.19388333" lon="-4.32153833">
        <ele>633.0</ele>
        <time>2018-05-19T16:27:44.482Z</time>
      </trkpt>
      <trkpt lat="43.19388333" lon="-4.32153833">
        <ele>633.0</ele>
        <time>2018-05-19T16:27:45.480Z</time>
      </trkpt>
      <trkpt lat="43.19386833" lon="-4.32151167">
        <ele>633.0</ele>
        <time>2018-05-19T16:27:46.485Z</time>
      </trkpt>
      <trkpt lat="43.19386833" lon="-4.32151167">
        <ele>633.0</ele>
        <time>2018-05-19T16:27:47.477Z</time>
      </trkpt>
      <trkpt lat="43.19385833" lon="-4.32148167">
        <ele>634.0</ele>
        <time>2018-05-19T16:27:48.485Z</time>
      </trkpt>
      <trkpt lat="43.19385833" lon="-4.32148167">
        <ele>634.0</ele>
        <time>2018-05-19T16:27:49.483Z</time>
      </trkpt>
      <trkpt lat="43.19384833" lon="-4.32145333">
        <ele>634.0</ele>
        <time>2018-05-19T16:27:50.477Z</time>
      </trkpt>
      <trkpt lat="43.19384833" lon="-4.32145333">
        <ele>634.0</ele>
        <time>2018-05-19T16:27:51.457Z</time>
      </trkpt>
      <trkpt lat="43.193835" lon="-4.32142167">
        <ele>634.0</ele>
        <time>2018-05-19T16:27:52.485Z</time>
      </trkpt>
      <trkpt lat="43.193835" lon="-4.32142167">
        <ele>634.0</ele>
        <time>2018-05-19T16:27:53.480Z</time>
      </trkpt>
      <trkpt lat="43.19381833" lon="-4.32139">
        <ele>634.0</ele>
        <time>2018-05-19T16:27:54.462Z</time>
      </trkpt>
      <trkpt lat="43.19381833" lon="-4.32139">
        <ele>634.0</ele>
        <time>2018-05-19T16:27:55.453Z</time>
      </trkpt>
      <trkpt lat="43.19379833" lon="-4.32136">
        <ele>634.0</ele>
        <time>2018-05-19T16:27:56.484Z</time>
      </trkpt>
      <trkpt lat="43.19379833" lon="-4.32136">
        <ele>634.0</ele>
        <time>2018-05-19T16:27:57.480Z</time>
      </trkpt>
      <trkpt lat="43.19377833" lon="-4.32133">
        <ele>635.0</ele>
        <time>2018-05-19T16:27:58.453Z</time>
      </trkpt>
      <trkpt lat="43.19377833" lon="-4.32133">
        <ele>635.0</ele>
        <time>2018-05-19T16:27:59.480Z</time>
      </trkpt>
      <trkpt lat="43.19375833" lon="-4.3213">
        <ele>635.0</ele>
        <time>2018-05-19T16:28:00.457Z</time>
      </trkpt>
      <trkpt lat="43.19375" lon="-4.321285">
        <ele>635.0</ele>
        <time>2018-05-19T16:28:01.487Z</time>
      </trkpt>
      <trkpt lat="43.19375" lon="-4.321285">
        <ele>635.0</ele>
        <time>2018-05-19T16:28:02.486Z</time>
      </trkpt>
      <trkpt lat="43.19373167" lon="-4.321255">
        <ele>636.0</ele>
        <time>2018-05-19T16:28:03.482Z</time>
      </trkpt>
      <trkpt lat="43.19372333" lon="-4.32124">
        <ele>636.0</ele>
        <time>2018-05-19T16:28:04.481Z</time>
      </trkpt>
      <trkpt lat="43.19372333" lon="-4.32124">
        <ele>636.0</ele>
        <time>2018-05-19T16:28:05.477Z</time>
      </trkpt>
      <trkpt lat="43.19370833" lon="-4.32121333">
        <ele>636.0</ele>
        <time>2018-05-19T16:28:06.483Z</time>
      </trkpt>
      <trkpt lat="43.19370833" lon="-4.32121333">
        <ele>636.0</ele>
        <time>2018-05-19T16:28:07.476Z</time>
      </trkpt>
      <trkpt lat="43.19369" lon="-4.321185">
        <ele>636.0</ele>
        <time>2018-05-19T16:28:08.456Z</time>
      </trkpt>
      <trkpt lat="43.19368167" lon="-4.32117333">
        <ele>636.0</ele>
        <time>2018-05-19T16:28:09.480Z</time>
      </trkpt>
      <trkpt lat="43.19367167" lon="-4.32116167">
        <ele>637.0</ele>
        <time>2018-05-19T16:28:10.448Z</time>
      </trkpt>
      <trkpt lat="43.19367167" lon="-4.32116167">
        <ele>637.0</ele>
        <time>2018-05-19T16:28:11.487Z</time>
      </trkpt>
      <trkpt lat="43.193655" lon="-4.32113333">
        <ele>637.0</ele>
        <time>2018-05-19T16:28:12.486Z</time>
      </trkpt>
      <trkpt lat="43.193655" lon="-4.32113333">
        <ele>637.0</ele>
        <time>2018-05-19T16:28:13.480Z</time>
      </trkpt>
      <trkpt lat="43.19363833" lon="-4.32110667">
        <ele>637.0</ele>
        <time>2018-05-19T16:28:14.485Z</time>
      </trkpt>
      <trkpt lat="43.19363833" lon="-4.32110667">
        <ele>637.0</ele>
        <time>2018-05-19T16:28:15.478Z</time>
      </trkpt>
      <trkpt lat="43.19362667" lon="-4.32108167">
        <ele>638.0</ele>
        <time>2018-05-19T16:28:16.485Z</time>
      </trkpt>
      <trkpt lat="43.19362667" lon="-4.32108167">
        <ele>638.0</ele>
        <time>2018-05-19T16:28:17.481Z</time>
      </trkpt>
      <trkpt lat="43.19360833" lon="-4.32105833">
        <ele>638.0</ele>
        <time>2018-05-19T16:28:18.448Z</time>
      </trkpt>
      <trkpt lat="43.19360833" lon="-4.32105833">
        <ele>638.0</ele>
        <time>2018-05-19T16:28:19.480Z</time>
      </trkpt>
      <trkpt lat="43.19359" lon="-4.32103833">
        <ele>638.0</ele>
        <time>2018-05-19T16:28:20.485Z</time>
      </trkpt>
      <trkpt lat="43.19359" lon="-4.32103833">
        <ele>638.0</ele>
        <time>2018-05-19T16:28:21.487Z</time>
      </trkpt>
      <trkpt lat="43.19357" lon="-4.32101833">
        <ele>638.0</ele>
        <time>2018-05-19T16:28:22.486Z</time>
      </trkpt>
      <trkpt lat="43.19357" lon="-4.32101833">
        <ele>638.0</ele>
        <time>2018-05-19T16:28:23.479Z</time>
      </trkpt>
      <trkpt lat="43.19355167" lon="-4.32098833">
        <ele>639.0</ele>
        <time>2018-05-19T16:28:24.449Z</time>
      </trkpt>
      <trkpt lat="43.193545" lon="-4.320975">
        <ele>639.0</ele>
        <time>2018-05-19T16:28:25.455Z</time>
      </trkpt>
      <trkpt lat="43.193545" lon="-4.320975">
        <ele>639.0</ele>
        <time>2018-05-19T16:28:26.463Z</time>
      </trkpt>
      <trkpt lat="43.19353167" lon="-4.32094333">
        <ele>639.0</ele>
        <time>2018-05-19T16:28:27.449Z</time>
      </trkpt>
      <trkpt lat="43.19352333" lon="-4.32092833">
        <ele>639.0</ele>
        <time>2018-05-19T16:28:28.485Z</time>
      </trkpt>
      <trkpt lat="43.19352333" lon="-4.32092833">
        <ele>639.0</ele>
        <time>2018-05-19T16:28:29.481Z</time>
      </trkpt>
      <trkpt lat="43.193505" lon="-4.3209">
        <ele>640.0</ele>
        <time>2018-05-19T16:28:30.484Z</time>
      </trkpt>
      <trkpt lat="43.193505" lon="-4.3209">
        <ele>640.0</ele>
        <time>2018-05-19T16:28:31.479Z</time>
      </trkpt>
      <trkpt lat="43.19349" lon="-4.32087">
        <ele>640.0</ele>
        <time>2018-05-19T16:28:32.458Z</time>
      </trkpt>
      <trkpt lat="43.19349" lon="-4.32087">
        <ele>640.0</ele>
        <time>2018-05-19T16:28:33.482Z</time>
      </trkpt>
      <trkpt lat="43.193475" lon="-4.32083833">
        <ele>640.0</ele>
        <time>2018-05-19T16:28:34.485Z</time>
      </trkpt>
      <trkpt lat="43.193475" lon="-4.32083833">
        <ele>640.0</ele>
        <time>2018-05-19T16:28:35.480Z</time>
      </trkpt>
      <trkpt lat="43.19345833" lon="-4.32080833">
        <ele>641.0</ele>
        <time>2018-05-19T16:28:36.486Z</time>
      </trkpt>
      <trkpt lat="43.19345833" lon="-4.32080833">
        <ele>641.0</ele>
        <time>2018-05-19T16:28:37.481Z</time>
      </trkpt>
      <trkpt lat="43.19344167" lon="-4.32077833">
        <ele>641.0</ele>
        <time>2018-05-19T16:28:38.484Z</time>
      </trkpt>
      <trkpt lat="43.19344167" lon="-4.32077833">
        <ele>641.0</ele>
        <time>2018-05-19T16:28:39.478Z</time>
      </trkpt>
      <trkpt lat="43.19342333" lon="-4.32075167">
        <ele>641.0</ele>
        <time>2018-05-19T16:28:40.484Z</time>
      </trkpt>
      <trkpt lat="43.19342333" lon="-4.32075167">
        <ele>641.0</ele>
        <time>2018-05-19T16:28:41.480Z</time>
      </trkpt>
      <trkpt lat="43.193405" lon="-4.320725">
        <ele>642.0</ele>
        <time>2018-05-19T16:28:42.449Z</time>
      </trkpt>
      <trkpt lat="43.193405" lon="-4.320725">
        <ele>642.0</ele>
        <time>2018-05-19T16:28:43.480Z</time>
      </trkpt>
      <trkpt lat="43.19338833" lon="-4.3207">
        <ele>642.0</ele>
        <time>2018-05-19T16:28:44.483Z</time>
      </trkpt>
      <trkpt lat="43.19338" lon="-4.32068667">
        <ele>642.0</ele>
        <time>2018-05-19T16:28:45.483Z</time>
      </trkpt>
      <trkpt lat="43.19337167" lon="-4.32067667">
        <ele>642.0</ele>
        <time>2018-05-19T16:28:46.485Z</time>
      </trkpt>
      <trkpt lat="43.19337167" lon="-4.32067667">
        <ele>642.0</ele>
        <time>2018-05-19T16:28:47.481Z</time>
      </trkpt>
      <trkpt lat="43.19335333" lon="-4.32064833">
        <ele>642.0</ele>
        <time>2018-05-19T16:28:48.483Z</time>
      </trkpt>
      <trkpt lat="43.193345" lon="-4.32063333">
        <ele>643.0</ele>
        <time>2018-05-19T16:28:49.482Z</time>
      </trkpt>
      <trkpt lat="43.193345" lon="-4.32063333">
        <ele>643.0</ele>
        <time>2018-05-19T16:28:50.480Z</time>
      </trkpt>
      <trkpt lat="43.19332833" lon="-4.32060833">
        <ele>643.0</ele>
        <time>2018-05-19T16:28:51.482Z</time>
      </trkpt>
      <trkpt lat="43.19332" lon="-4.320595">
        <ele>643.0</ele>
        <time>2018-05-19T16:28:52.450Z</time>
      </trkpt>
      <trkpt lat="43.19332" lon="-4.320595">
        <ele>643.0</ele>
        <time>2018-05-19T16:28:53.474Z</time>
      </trkpt>
      <trkpt lat="43.193305" lon="-4.32056667">
        <ele>643.0</ele>
        <time>2018-05-19T16:28:54.483Z</time>
      </trkpt>
      <trkpt lat="43.193305" lon="-4.32056667">
        <ele>643.0</ele>
        <time>2018-05-19T16:28:55.481Z</time>
      </trkpt>
      <trkpt lat="43.19328667" lon="-4.32054">
        <ele>643.0</ele>
        <time>2018-05-19T16:28:56.483Z</time>
      </trkpt>
      <trkpt lat="43.19328667" lon="-4.32054">
        <ele>643.0</ele>
        <time>2018-05-19T16:28:57.478Z</time>
      </trkpt>
      <trkpt lat="43.19327" lon="-4.32051167">
        <ele>644.0</ele>
        <time>2018-05-19T16:28:58.471Z</time>
      </trkpt>
      <trkpt lat="43.19327" lon="-4.32051167">
        <ele>644.0</ele>
        <time>2018-05-19T16:28:59.457Z</time>
      </trkpt>
      <trkpt lat="43.19325333" lon="-4.32048167">
        <ele>644.0</ele>
        <time>2018-05-19T16:29:00.485Z</time>
      </trkpt>
      <trkpt lat="43.19325333" lon="-4.32048167">
        <ele>644.0</ele>
        <time>2018-05-19T16:29:01.483Z</time>
      </trkpt>
      <trkpt lat="43.19323667" lon="-4.32045333">
        <ele>644.0</ele>
        <time>2018-05-19T16:29:02.485Z</time>
      </trkpt>
      <trkpt lat="43.19323667" lon="-4.32045333">
        <ele>644.0</ele>
        <time>2018-05-19T16:29:03.475Z</time>
      </trkpt>
      <trkpt lat="43.19322167" lon="-4.32042">
        <ele>644.0</ele>
        <time>2018-05-19T16:29:04.450Z</time>
      </trkpt>
      <trkpt lat="43.19322167" lon="-4.32042">
        <ele>644.0</ele>
        <time>2018-05-19T16:29:05.480Z</time>
      </trkpt>
      <trkpt lat="43.193205" lon="-4.32039">
        <ele>644.0</ele>
        <time>2018-05-19T16:29:06.484Z</time>
      </trkpt>
      <trkpt lat="43.193205" lon="-4.32039">
        <ele>644.0</ele>
        <time>2018-05-19T16:29:07.478Z</time>
      </trkpt>
      <trkpt lat="43.19318833" lon="-4.32035833">
        <ele>645.0</ele>
        <time>2018-05-19T16:29:08.482Z</time>
      </trkpt>
      <trkpt lat="43.19318833" lon="-4.32035833">
        <ele>645.0</ele>
        <time>2018-05-19T16:29:09.480Z</time>
      </trkpt>
      <trkpt lat="43.19317333" lon="-4.32032833">
        <ele>645.0</ele>
        <time>2018-05-19T16:29:10.484Z</time>
      </trkpt>
      <trkpt lat="43.19317333" lon="-4.32032833">
        <ele>645.0</ele>
        <time>2018-05-19T16:29:11.478Z</time>
      </trkpt>
      <trkpt lat="43.19315833" lon="-4.320295">
        <ele>645.0</ele>
        <time>2018-05-19T16:29:12.449Z</time>
      </trkpt>
      <trkpt lat="43.19315833" lon="-4.320295">
        <ele>645.0</ele>
        <time>2018-05-19T16:29:13.478Z</time>
      </trkpt>
      <trkpt lat="43.19314333" lon="-4.32026167">
        <ele>645.0</ele>
        <time>2018-05-19T16:29:14.483Z</time>
      </trkpt>
      <trkpt lat="43.19314333" lon="-4.32026167">
        <ele>645.0</ele>
        <time>2018-05-19T16:29:15.479Z</time>
      </trkpt>
      <trkpt lat="43.19312667" lon="-4.32023167">
        <ele>645.0</ele>
        <time>2018-05-19T16:29:16.485Z</time>
      </trkpt>
      <trkpt lat="43.19312667" lon="-4.32023167">
        <ele>645.0</ele>
        <time>2018-05-19T16:29:17.482Z</time>
      </trkpt>
      <trkpt lat="43.19310833" lon="-4.32020667">
        <ele>645.0</ele>
        <time>2018-05-19T16:29:18.483Z</time>
      </trkpt>
      <trkpt lat="43.1931" lon="-4.32019333">
        <ele>646.0</ele>
        <time>2018-05-19T16:29:19.483Z</time>
      </trkpt>
      <trkpt lat="43.1931" lon="-4.32019333">
        <ele>646.0</ele>
        <time>2018-05-19T16:29:20.480Z</time>
      </trkpt>
      <trkpt lat="43.19308333" lon="-4.32017167">
        <ele>646.0</ele>
        <time>2018-05-19T16:29:21.483Z</time>
      </trkpt>
      <trkpt lat="43.193075" lon="-4.32016167">
        <ele>646.0</ele>
        <time>2018-05-19T16:29:22.451Z</time>
      </trkpt>
      <trkpt lat="43.193075" lon="-4.32016167">
        <ele>646.0</ele>
        <time>2018-05-19T16:29:23.481Z</time>
      </trkpt>
      <trkpt lat="43.19306" lon="-4.32013667">
        <ele>646.0</ele>
        <time>2018-05-19T16:29:24.485Z</time>
      </trkpt>
      <trkpt lat="43.19306" lon="-4.32013667">
        <ele>646.0</ele>
        <time>2018-05-19T16:29:25.465Z</time>
      </trkpt>
      <trkpt lat="43.19304333" lon="-4.320115">
        <ele>647.0</ele>
        <time>2018-05-19T16:29:26.477Z</time>
      </trkpt>
      <trkpt lat="43.19304333" lon="-4.320115">
        <ele>647.0</ele>
        <time>2018-05-19T16:29:27.457Z</time>
      </trkpt>
      <trkpt lat="43.19302833" lon="-4.32009667">
        <ele>647.0</ele>
        <time>2018-05-19T16:29:28.485Z</time>
      </trkpt>
      <trkpt lat="43.19302" lon="-4.32009167">
        <ele>647.0</ele>
        <time>2018-05-19T16:29:29.464Z</time>
      </trkpt>
      <trkpt lat="43.19302" lon="-4.32009167">
        <ele>647.0</ele>
        <time>2018-05-19T16:29:30.462Z</time>
      </trkpt>
      <trkpt lat="43.19300833" lon="-4.320075">
        <ele>647.0</ele>
        <time>2018-05-19T16:29:31.480Z</time>
      </trkpt>
      <trkpt lat="43.193" lon="-4.32006667">
        <ele>647.0</ele>
        <time>2018-05-19T16:29:32.464Z</time>
      </trkpt>
      <trkpt lat="43.193" lon="-4.32006667">
        <ele>647.0</ele>
        <time>2018-05-19T16:29:33.473Z</time>
      </trkpt>
      <trkpt lat="43.19299" lon="-4.32004333">
        <ele>648.0</ele>
        <time>2018-05-19T16:29:34.485Z</time>
      </trkpt>
      <trkpt lat="43.19299" lon="-4.32004333">
        <ele>648.0</ele>
        <time>2018-05-19T16:29:35.481Z</time>
      </trkpt>
      <trkpt lat="43.192985" lon="-4.32001667">
        <ele>648.0</ele>
        <time>2018-05-19T16:29:36.484Z</time>
      </trkpt>
      <trkpt lat="43.192985" lon="-4.32001667">
        <ele>648.0</ele>
        <time>2018-05-19T16:29:37.487Z</time>
      </trkpt>
      <trkpt lat="43.192975" lon="-4.31999333">
        <ele>648.0</ele>
        <time>2018-05-19T16:29:38.482Z</time>
      </trkpt>
      <trkpt lat="43.192975" lon="-4.31999333">
        <ele>648.0</ele>
        <time>2018-05-19T16:29:39.475Z</time>
      </trkpt>
      <trkpt lat="43.19296333" lon="-4.31997">
        <ele>648.0</ele>
        <time>2018-05-19T16:29:40.485Z</time>
      </trkpt>
      <trkpt lat="43.19296333" lon="-4.31997">
        <ele>648.0</ele>
        <time>2018-05-19T16:29:41.479Z</time>
      </trkpt>
      <trkpt lat="43.19295167" lon="-4.31994">
        <ele>648.0</ele>
        <time>2018-05-19T16:29:42.484Z</time>
      </trkpt>
      <trkpt lat="43.19295167" lon="-4.31994">
        <ele>648.0</ele>
        <time>2018-05-19T16:29:43.475Z</time>
      </trkpt>
      <trkpt lat="43.19294667" lon="-4.31989833">
        <ele>648.0</ele>
        <time>2018-05-19T16:29:44.454Z</time>
      </trkpt>
      <trkpt lat="43.19294333" lon="-4.31987667">
        <ele>648.0</ele>
        <time>2018-05-19T16:29:45.483Z</time>
      </trkpt>
      <trkpt lat="43.19294333" lon="-4.31987667">
        <ele>648.0</ele>
        <time>2018-05-19T16:29:46.484Z</time>
      </trkpt>
      <trkpt lat="43.19294167" lon="-4.31984">
        <ele>648.0</ele>
        <time>2018-05-19T16:29:47.484Z</time>
      </trkpt>
      <trkpt lat="43.19294" lon="-4.31982333">
        <ele>648.0</ele>
        <time>2018-05-19T16:29:48.451Z</time>
      </trkpt>
      <trkpt lat="43.19294" lon="-4.31982333">
        <ele>648.0</ele>
        <time>2018-05-19T16:29:49.483Z</time>
      </trkpt>
      <trkpt lat="43.192935" lon="-4.31978833">
        <ele>648.0</ele>
        <time>2018-05-19T16:29:50.484Z</time>
      </trkpt>
      <trkpt lat="43.192935" lon="-4.31978833">
        <ele>648.0</ele>
        <time>2018-05-19T16:29:51.477Z</time>
      </trkpt>
      <trkpt lat="43.19292667" lon="-4.31975333">
        <ele>648.0</ele>
        <time>2018-05-19T16:29:52.487Z</time>
      </trkpt>
      <trkpt lat="43.19292667" lon="-4.31975333">
        <ele>648.0</ele>
        <time>2018-05-19T16:29:53.475Z</time>
      </trkpt>
      <trkpt lat="43.19291667" lon="-4.31971333">
        <ele>648.0</ele>
        <time>2018-05-19T16:29:54.484Z</time>
      </trkpt>
      <trkpt lat="43.19291667" lon="-4.31971333">
        <ele>648.0</ele>
        <time>2018-05-19T16:29:55.479Z</time>
      </trkpt>
      <trkpt lat="43.19290667" lon="-4.319675">
        <ele>649.0</ele>
        <time>2018-05-19T16:29:56.483Z</time>
      </trkpt>
      <trkpt lat="43.19290333" lon="-4.31965667">
        <ele>649.0</ele>
        <time>2018-05-19T16:29:57.484Z</time>
      </trkpt>
      <trkpt lat="43.1929" lon="-4.31963833">
        <ele>649.0</ele>
        <time>2018-05-19T16:29:58.456Z</time>
      </trkpt>
      <trkpt lat="43.1929" lon="-4.31963833">
        <ele>649.0</ele>
        <time>2018-05-19T16:29:59.480Z</time>
      </trkpt>
      <trkpt lat="43.19289" lon="-4.31960333">
        <ele>649.0</ele>
        <time>2018-05-19T16:30:00.484Z</time>
      </trkpt>
      <trkpt lat="43.19289" lon="-4.31960333">
        <ele>649.0</ele>
        <time>2018-05-19T16:30:01.471Z</time>
      </trkpt>
      <trkpt lat="43.19288" lon="-4.31956833">
        <ele>649.0</ele>
        <time>2018-05-19T16:30:02.485Z</time>
      </trkpt>
      <trkpt lat="43.19288" lon="-4.31956833">
        <ele>649.0</ele>
        <time>2018-05-19T16:30:03.479Z</time>
      </trkpt>
      <trkpt lat="43.19286667" lon="-4.31953667">
        <ele>649.0</ele>
        <time>2018-05-19T16:30:04.484Z</time>
      </trkpt>
      <trkpt lat="43.19286667" lon="-4.31953667">
        <ele>649.0</ele>
        <time>2018-05-19T16:30:05.480Z</time>
      </trkpt>
      <trkpt lat="43.19285333" lon="-4.319505">
        <ele>649.0</ele>
        <time>2018-05-19T16:30:06.484Z</time>
      </trkpt>
      <trkpt lat="43.19285333" lon="-4.319505">
        <ele>649.0</ele>
        <time>2018-05-19T16:30:07.478Z</time>
      </trkpt>
      <trkpt lat="43.192845" lon="-4.31946833">
        <ele>649.0</ele>
        <time>2018-05-19T16:30:08.482Z</time>
      </trkpt>
      <trkpt lat="43.192845" lon="-4.31946833">
        <ele>649.0</ele>
        <time>2018-05-19T16:30:09.480Z</time>
      </trkpt>
      <trkpt lat="43.19284333" lon="-4.31943167">
        <ele>650.0</ele>
        <time>2018-05-19T16:30:10.486Z</time>
      </trkpt>
      <trkpt lat="43.19284333" lon="-4.31943167">
        <ele>650.0</ele>
        <time>2018-05-19T16:30:11.480Z</time>
      </trkpt>
      <trkpt lat="43.192835" lon="-4.31939667">
        <ele>650.0</ele>
        <time>2018-05-19T16:30:12.485Z</time>
      </trkpt>
      <trkpt lat="43.192835" lon="-4.31939667">
        <ele>650.0</ele>
        <time>2018-05-19T16:30:13.483Z</time>
      </trkpt>
      <trkpt lat="43.19282167" lon="-4.31936167">
        <ele>650.0</ele>
        <time>2018-05-19T16:30:14.484Z</time>
      </trkpt>
      <trkpt lat="43.19282167" lon="-4.31936167">
        <ele>650.0</ele>
        <time>2018-05-19T16:30:15.481Z</time>
      </trkpt>
      <trkpt lat="43.19280667" lon="-4.31933">
        <ele>650.0</ele>
        <time>2018-05-19T16:30:16.485Z</time>
      </trkpt>
      <trkpt lat="43.19280667" lon="-4.31933">
        <ele>650.0</ele>
        <time>2018-05-19T16:30:17.480Z</time>
      </trkpt>
      <trkpt lat="43.19279167" lon="-4.31930333">
        <ele>651.0</ele>
        <time>2018-05-19T16:30:18.483Z</time>
      </trkpt>
      <trkpt lat="43.19279167" lon="-4.31930333">
        <ele>651.0</ele>
        <time>2018-05-19T16:30:19.480Z</time>
      </trkpt>
      <trkpt lat="43.19277667" lon="-4.31928333">
        <ele>652.0</ele>
        <time>2018-05-19T16:30:20.480Z</time>
      </trkpt>
      <trkpt lat="43.19277667" lon="-4.31928333">
        <ele>652.0</ele>
        <time>2018-05-19T16:30:21.480Z</time>
      </trkpt>
      <trkpt lat="43.19275333" lon="-4.31928">
        <ele>652.0</ele>
        <time>2018-05-19T16:30:22.485Z</time>
      </trkpt>
      <trkpt lat="43.19275333" lon="-4.31928">
        <ele>652.0</ele>
        <time>2018-05-19T16:30:23.471Z</time>
      </trkpt>
      <trkpt lat="43.19273" lon="-4.31928667">
        <ele>652.0</ele>
        <time>2018-05-19T16:30:24.463Z</time>
      </trkpt>
      <trkpt lat="43.19272" lon="-4.31929333">
        <ele>652.0</ele>
        <time>2018-05-19T16:30:25.476Z</time>
      </trkpt>
      <trkpt lat="43.19272" lon="-4.31929333">
        <ele>652.0</ele>
        <time>2018-05-19T16:30:26.481Z</time>
      </trkpt>
      <trkpt lat="43.192705" lon="-4.31931">
        <ele>652.0</ele>
        <time>2018-05-19T16:30:27.483Z</time>
      </trkpt>
      <trkpt lat="43.19269833" lon="-4.31932333">
        <ele>652.0</ele>
        <time>2018-05-19T16:30:28.486Z</time>
      </trkpt>
      <trkpt lat="43.19269833" lon="-4.31932333">
        <ele>652.0</ele>
        <time>2018-05-19T16:30:29.478Z</time>
      </trkpt>
      <trkpt lat="43.19268833" lon="-4.319345">
        <ele>653.0</ele>
        <time>2018-05-19T16:30:30.484Z</time>
      </trkpt>
      <trkpt lat="43.19268833" lon="-4.319345">
        <ele>653.0</ele>
        <time>2018-05-19T16:30:31.480Z</time>
      </trkpt>
      <trkpt lat="43.19268" lon="-4.31937333">
        <ele>653.0</ele>
        <time>2018-05-19T16:30:32.457Z</time>
      </trkpt>
      <trkpt lat="43.19268" lon="-4.31937333">
        <ele>653.0</ele>
        <time>2018-05-19T16:30:33.481Z</time>
      </trkpt>
      <trkpt lat="43.19267167" lon="-4.3194">
        <ele>653.0</ele>
        <time>2018-05-19T16:30:34.486Z</time>
      </trkpt>
      <trkpt lat="43.19267167" lon="-4.3194">
        <ele>653.0</ele>
        <time>2018-05-19T16:30:35.482Z</time>
      </trkpt>
      <trkpt lat="43.19266333" lon="-4.31943333">
        <ele>654.0</ele>
        <time>2018-05-19T16:30:36.482Z</time>
      </trkpt>
      <trkpt lat="43.19266333" lon="-4.31943333">
        <ele>654.0</ele>
        <time>2018-05-19T16:30:37.480Z</time>
      </trkpt>
      <trkpt lat="43.19265833" lon="-4.31946167">
        <ele>654.0</ele>
        <time>2018-05-19T16:30:38.485Z</time>
      </trkpt>
      <trkpt lat="43.19265833" lon="-4.31946167">
        <ele>654.0</ele>
        <time>2018-05-19T16:30:39.480Z</time>
      </trkpt>
      <trkpt lat="43.19265333" lon="-4.31949167">
        <ele>654.0</ele>
        <time>2018-05-19T16:30:40.485Z</time>
      </trkpt>
      <trkpt lat="43.19265333" lon="-4.31949167">
        <ele>654.0</ele>
        <time>2018-05-19T16:30:41.487Z</time>
      </trkpt>
      <trkpt lat="43.19264833" lon="-4.31952333">
        <ele>655.0</ele>
        <time>2018-05-19T16:30:42.450Z</time>
      </trkpt>
      <trkpt lat="43.19264833" lon="-4.31952333">
        <ele>655.0</ele>
        <time>2018-05-19T16:30:43.481Z</time>
      </trkpt>
      <trkpt lat="43.19264333" lon="-4.319555">
        <ele>655.0</ele>
        <time>2018-05-19T16:30:44.482Z</time>
      </trkpt>
      <trkpt lat="43.19264333" lon="-4.319555">
        <ele>655.0</ele>
        <time>2018-05-19T16:30:45.480Z</time>
      </trkpt>
      <trkpt lat="43.19263833" lon="-4.319585">
        <ele>655.0</ele>
        <time>2018-05-19T16:30:46.484Z</time>
      </trkpt>
      <trkpt lat="43.19263833" lon="-4.319585">
        <ele>655.0</ele>
        <time>2018-05-19T16:30:47.475Z</time>
      </trkpt>
      <trkpt lat="43.19263667" lon="-4.31961833">
        <ele>655.0</ele>
        <time>2018-05-19T16:30:48.484Z</time>
      </trkpt>
      <trkpt lat="43.19263667" lon="-4.31961833">
        <ele>655.0</ele>
        <time>2018-05-19T16:30:49.481Z</time>
      </trkpt>
      <trkpt lat="43.192635" lon="-4.31965">
        <ele>656.0</ele>
        <time>2018-05-19T16:30:50.483Z</time>
      </trkpt>
      <trkpt lat="43.192635" lon="-4.31965">
        <ele>656.0</ele>
        <time>2018-05-19T16:30:51.486Z</time>
      </trkpt>
      <trkpt lat="43.19263333" lon="-4.319685">
        <ele>656.0</ele>
        <time>2018-05-19T16:30:52.449Z</time>
      </trkpt>
      <trkpt lat="43.19263333" lon="-4.319685">
        <ele>656.0</ele>
        <time>2018-05-19T16:30:53.475Z</time>
      </trkpt>
      <trkpt lat="43.19263" lon="-4.31971667">
        <ele>656.0</ele>
        <time>2018-05-19T16:30:54.484Z</time>
      </trkpt>
      <trkpt lat="43.19263" lon="-4.31971667">
        <ele>656.0</ele>
        <time>2018-05-19T16:30:55.475Z</time>
      </trkpt>
      <trkpt lat="43.19262667" lon="-4.31975167">
        <ele>656.0</ele>
        <time>2018-05-19T16:30:56.482Z</time>
      </trkpt>
      <trkpt lat="43.19262667" lon="-4.31975167">
        <ele>656.0</ele>
        <time>2018-05-19T16:30:57.480Z</time>
      </trkpt>
      <trkpt lat="43.192625" lon="-4.319785">
        <ele>656.0</ele>
        <time>2018-05-19T16:30:58.472Z</time>
      </trkpt>
      <trkpt lat="43.192625" lon="-4.319785">
        <ele>656.0</ele>
        <time>2018-05-19T16:30:59.482Z</time>
      </trkpt>
      <trkpt lat="43.19262167" lon="-4.319815">
        <ele>657.0</ele>
        <time>2018-05-19T16:31:00.485Z</time>
      </trkpt>
      <trkpt lat="43.19262167" lon="-4.319815">
        <ele>657.0</ele>
        <time>2018-05-19T16:31:01.477Z</time>
      </trkpt>
      <trkpt lat="43.19262333" lon="-4.319845">
        <ele>657.0</ele>
        <time>2018-05-19T16:31:02.458Z</time>
      </trkpt>
      <trkpt lat="43.19262333" lon="-4.319845">
        <ele>657.0</ele>
        <time>2018-05-19T16:31:03.480Z</time>
      </trkpt>
      <trkpt lat="43.19262167" lon="-4.31987667">
        <ele>657.0</ele>
        <time>2018-05-19T16:31:04.485Z</time>
      </trkpt>
      <trkpt lat="43.19262167" lon="-4.31987667">
        <ele>657.0</ele>
        <time>2018-05-19T16:31:05.480Z</time>
      </trkpt>
      <trkpt lat="43.19262333" lon="-4.31990833">
        <ele>658.0</ele>
        <time>2018-05-19T16:31:06.483Z</time>
      </trkpt>
      <trkpt lat="43.19262333" lon="-4.31990833">
        <ele>658.0</ele>
        <time>2018-05-19T16:31:07.480Z</time>
      </trkpt>
      <trkpt lat="43.192625" lon="-4.31994">
        <ele>658.0</ele>
        <time>2018-05-19T16:31:08.483Z</time>
      </trkpt>
      <trkpt lat="43.192625" lon="-4.31994">
        <ele>658.0</ele>
        <time>2018-05-19T16:31:09.480Z</time>
      </trkpt>
      <trkpt lat="43.19262667" lon="-4.31997167">
        <ele>658.0</ele>
        <time>2018-05-19T16:31:10.485Z</time>
      </trkpt>
      <trkpt lat="43.19262667" lon="-4.31997167">
        <ele>658.0</ele>
        <time>2018-05-19T16:31:11.487Z</time>
      </trkpt>
      <trkpt lat="43.192625" lon="-4.32000333">
        <ele>658.0</ele>
        <time>2018-05-19T16:31:12.450Z</time>
      </trkpt>
      <trkpt lat="43.192625" lon="-4.32000333">
        <ele>658.0</ele>
        <time>2018-05-19T16:31:13.475Z</time>
      </trkpt>
      <trkpt lat="43.19262667" lon="-4.32003833">
        <ele>659.0</ele>
        <time>2018-05-19T16:31:14.483Z</time>
      </trkpt>
      <trkpt lat="43.19262667" lon="-4.32003833">
        <ele>659.0</ele>
        <time>2018-05-19T16:31:15.479Z</time>
      </trkpt>
      <trkpt lat="43.19262833" lon="-4.32007333">
        <ele>659.0</ele>
        <time>2018-05-19T16:31:16.484Z</time>
      </trkpt>
      <trkpt lat="43.19262833" lon="-4.32007333">
        <ele>659.0</ele>
        <time>2018-05-19T16:31:17.478Z</time>
      </trkpt>
      <trkpt lat="43.19262833" lon="-4.32011">
        <ele>659.0</ele>
        <time>2018-05-19T16:31:18.482Z</time>
      </trkpt>
      <trkpt lat="43.19262833" lon="-4.32013">
        <ele>660.0</ele>
        <time>2018-05-19T16:31:19.482Z</time>
      </trkpt>
      <trkpt lat="43.19262833" lon="-4.32013">
        <ele>660.0</ele>
        <time>2018-05-19T16:31:20.480Z</time>
      </trkpt>
      <trkpt lat="43.19262833" lon="-4.32016667">
        <ele>660.0</ele>
        <time>2018-05-19T16:31:21.482Z</time>
      </trkpt>
      <trkpt lat="43.19262833" lon="-4.320185">
        <ele>660.0</ele>
        <time>2018-05-19T16:31:22.466Z</time>
      </trkpt>
      <trkpt lat="43.19262833" lon="-4.320185">
        <ele>660.0</ele>
        <time>2018-05-19T16:31:23.482Z</time>
      </trkpt>
      <trkpt lat="43.19262833" lon="-4.32022167">
        <ele>660.0</ele>
        <time>2018-05-19T16:31:24.454Z</time>
      </trkpt>
      <trkpt lat="43.19262833" lon="-4.32022167">
        <ele>660.0</ele>
        <time>2018-05-19T16:31:25.478Z</time>
      </trkpt>
      <trkpt lat="43.19262833" lon="-4.32026167">
        <ele>660.0</ele>
        <time>2018-05-19T16:31:26.485Z</time>
      </trkpt>
      <trkpt lat="43.19262833" lon="-4.32026167">
        <ele>660.0</ele>
        <time>2018-05-19T16:31:27.480Z</time>
      </trkpt>
      <trkpt lat="43.19263" lon="-4.32029833">
        <ele>661.0</ele>
        <time>2018-05-19T16:31:28.485Z</time>
      </trkpt>
      <trkpt lat="43.19263" lon="-4.32029833">
        <ele>661.0</ele>
        <time>2018-05-19T16:31:29.481Z</time>
      </trkpt>
      <trkpt lat="43.19263167" lon="-4.32033333">
        <ele>661.0</ele>
        <time>2018-05-19T16:31:30.484Z</time>
      </trkpt>
      <trkpt lat="43.19263167" lon="-4.32033333">
        <ele>661.0</ele>
        <time>2018-05-19T16:31:31.484Z</time>
      </trkpt>
      <trkpt lat="43.19263" lon="-4.32036667">
        <ele>661.0</ele>
        <time>2018-05-19T16:31:32.449Z</time>
      </trkpt>
      <trkpt lat="43.19263333" lon="-4.32038333">
        <ele>661.0</ele>
        <time>2018-05-19T16:31:33.483Z</time>
      </trkpt>
      <trkpt lat="43.19263333" lon="-4.32038333">
        <ele>661.0</ele>
        <time>2018-05-19T16:31:34.477Z</time>
      </trkpt>
      <trkpt lat="43.19263667" lon="-4.32041833">
        <ele>662.0</ele>
        <time>2018-05-19T16:31:35.482Z</time>
      </trkpt>
      <trkpt lat="43.19263833" lon="-4.320435">
        <ele>662.0</ele>
        <time>2018-05-19T16:31:36.483Z</time>
      </trkpt>
      <trkpt lat="43.19263833" lon="-4.320435">
        <ele>662.0</ele>
        <time>2018-05-19T16:31:37.480Z</time>
      </trkpt>
      <trkpt lat="43.19264" lon="-4.320465">
        <ele>662.0</ele>
        <time>2018-05-19T16:31:38.483Z</time>
      </trkpt>
      <trkpt lat="43.19264" lon="-4.320465">
        <ele>662.0</ele>
        <time>2018-05-19T16:31:39.475Z</time>
      </trkpt>
      <trkpt lat="43.19264" lon="-4.320495">
        <ele>663.0</ele>
        <time>2018-05-19T16:31:40.485Z</time>
      </trkpt>
      <trkpt lat="43.19264" lon="-4.320495">
        <ele>663.0</ele>
        <time>2018-05-19T16:31:41.487Z</time>
      </trkpt>
      <trkpt lat="43.19264333" lon="-4.32053">
        <ele>663.0</ele>
        <time>2018-05-19T16:31:42.487Z</time>
      </trkpt>
      <trkpt lat="43.19264333" lon="-4.32053">
        <ele>663.0</ele>
        <time>2018-05-19T16:31:43.484Z</time>
      </trkpt>
      <trkpt lat="43.19264667" lon="-4.32056667">
        <ele>663.0</ele>
        <time>2018-05-19T16:31:44.482Z</time>
      </trkpt>
      <trkpt lat="43.19265" lon="-4.320585">
        <ele>663.0</ele>
        <time>2018-05-19T16:31:45.483Z</time>
      </trkpt>
      <trkpt lat="43.19265167" lon="-4.32060333">
        <ele>663.0</ele>
        <time>2018-05-19T16:31:46.486Z</time>
      </trkpt>
      <trkpt lat="43.19265167" lon="-4.32060333">
        <ele>663.0</ele>
        <time>2018-05-19T16:31:47.481Z</time>
      </trkpt>
      <trkpt lat="43.192655" lon="-4.32063833">
        <ele>663.0</ele>
        <time>2018-05-19T16:31:48.488Z</time>
      </trkpt>
      <trkpt lat="43.192655" lon="-4.32063833">
        <ele>663.0</ele>
        <time>2018-05-19T16:31:49.481Z</time>
      </trkpt>
      <trkpt lat="43.19265667" lon="-4.320675">
        <ele>664.0</ele>
        <time>2018-05-19T16:31:50.484Z</time>
      </trkpt>
      <trkpt lat="43.19265833" lon="-4.32069333">
        <ele>664.0</ele>
        <time>2018-05-19T16:31:51.485Z</time>
      </trkpt>
      <trkpt lat="43.19265833" lon="-4.32069333">
        <ele>664.0</ele>
        <time>2018-05-19T16:31:52.452Z</time>
      </trkpt>
      <trkpt lat="43.19266" lon="-4.32072667">
        <ele>664.0</ele>
        <time>2018-05-19T16:31:53.461Z</time>
      </trkpt>
      <trkpt lat="43.19266" lon="-4.320745">
        <ele>664.0</ele>
        <time>2018-05-19T16:31:54.484Z</time>
      </trkpt>
      <trkpt lat="43.19266" lon="-4.320745">
        <ele>664.0</ele>
        <time>2018-05-19T16:31:55.477Z</time>
      </trkpt>
      <trkpt lat="43.19265833" lon="-4.32078333">
        <ele>664.0</ele>
        <time>2018-05-19T16:31:56.483Z</time>
      </trkpt>
      <trkpt lat="43.19265833" lon="-4.32078333">
        <ele>664.0</ele>
        <time>2018-05-19T16:31:57.479Z</time>
      </trkpt>
      <trkpt lat="43.19265833" lon="-4.32081667">
        <ele>664.0</ele>
        <time>2018-05-19T16:31:58.461Z</time>
      </trkpt>
      <trkpt lat="43.19265833" lon="-4.32081667">
        <ele>664.0</ele>
        <time>2018-05-19T16:31:59.456Z</time>
      </trkpt>
      <trkpt lat="43.19266" lon="-4.32085167">
        <ele>664.0</ele>
        <time>2018-05-19T16:32:00.483Z</time>
      </trkpt>
      <trkpt lat="43.19266" lon="-4.32085167">
        <ele>664.0</ele>
        <time>2018-05-19T16:32:01.477Z</time>
      </trkpt>
      <trkpt lat="43.19266" lon="-4.320885">
        <ele>665.0</ele>
        <time>2018-05-19T16:32:02.453Z</time>
      </trkpt>
      <trkpt lat="43.19266" lon="-4.320885">
        <ele>665.0</ele>
        <time>2018-05-19T16:32:03.479Z</time>
      </trkpt>
      <trkpt lat="43.19265833" lon="-4.320925">
        <ele>665.0</ele>
        <time>2018-05-19T16:32:04.481Z</time>
      </trkpt>
      <trkpt lat="43.19265833" lon="-4.320925">
        <ele>665.0</ele>
        <time>2018-05-19T16:32:05.475Z</time>
      </trkpt>
      <trkpt lat="43.19265833" lon="-4.32096">
        <ele>665.0</ele>
        <time>2018-05-19T16:32:06.483Z</time>
      </trkpt>
      <trkpt lat="43.19265833" lon="-4.32096">
        <ele>665.0</ele>
        <time>2018-05-19T16:32:07.479Z</time>
      </trkpt>
      <trkpt lat="43.192655" lon="-4.32099333">
        <ele>665.0</ele>
        <time>2018-05-19T16:32:08.483Z</time>
      </trkpt>
      <trkpt lat="43.192655" lon="-4.32099333">
        <ele>665.0</ele>
        <time>2018-05-19T16:32:09.478Z</time>
      </trkpt>
      <trkpt lat="43.19265167" lon="-4.32103167">
        <ele>666.0</ele>
        <time>2018-05-19T16:32:10.485Z</time>
      </trkpt>
      <trkpt lat="43.19265167" lon="-4.32103167">
        <ele>666.0</ele>
        <time>2018-05-19T16:32:11.487Z</time>
      </trkpt>
      <trkpt lat="43.19265333" lon="-4.32106167">
        <ele>666.0</ele>
        <time>2018-05-19T16:32:12.487Z</time>
      </trkpt>
      <trkpt lat="43.19265333" lon="-4.32106167">
        <ele>666.0</ele>
        <time>2018-05-19T16:32:13.457Z</time>
      </trkpt>
      <trkpt lat="43.19266167" lon="-4.32108833">
        <ele>667.0</ele>
        <time>2018-05-19T16:32:14.484Z</time>
      </trkpt>
      <trkpt lat="43.19266167" lon="-4.32108833">
        <ele>667.0</ele>
        <time>2018-05-19T16:32:15.480Z</time>
      </trkpt>
      <trkpt lat="43.19266833" lon="-4.32112">
        <ele>667.0</ele>
        <time>2018-05-19T16:32:16.485Z</time>
      </trkpt>
      <trkpt lat="43.19266833" lon="-4.32112">
        <ele>667.0</ele>
        <time>2018-05-19T16:32:17.480Z</time>
      </trkpt>
      <trkpt lat="43.19267" lon="-4.32114833">
        <ele>667.0</ele>
        <time>2018-05-19T16:32:18.453Z</time>
      </trkpt>
      <trkpt lat="43.19267" lon="-4.32114833">
        <ele>667.0</ele>
        <time>2018-05-19T16:32:19.481Z</time>
      </trkpt>
      <trkpt lat="43.19267333" lon="-4.32118">
        <ele>668.0</ele>
        <time>2018-05-19T16:32:20.483Z</time>
      </trkpt>
      <trkpt lat="43.192675" lon="-4.321195">
        <ele>668.0</ele>
        <time>2018-05-19T16:32:21.482Z</time>
      </trkpt>
      <trkpt lat="43.192675" lon="-4.32121">
        <ele>668.0</ele>
        <time>2018-05-19T16:32:22.450Z</time>
      </trkpt>
      <trkpt lat="43.192675" lon="-4.32121">
        <ele>668.0</ele>
        <time>2018-05-19T16:32:23.449Z</time>
      </trkpt>
      <trkpt lat="43.19267667" lon="-4.32124167">
        <ele>669.0</ele>
        <time>2018-05-19T16:32:24.457Z</time>
      </trkpt>
      <trkpt lat="43.19267667" lon="-4.32126">
        <ele>669.0</ele>
        <time>2018-05-19T16:32:25.463Z</time>
      </trkpt>
      <trkpt lat="43.19267667" lon="-4.32126">
        <ele>669.0</ele>
        <time>2018-05-19T16:32:26.478Z</time>
      </trkpt>
      <trkpt lat="43.19268" lon="-4.32129333">
        <ele>669.0</ele>
        <time>2018-05-19T16:32:27.483Z</time>
      </trkpt>
      <trkpt lat="43.19268" lon="-4.32130833">
        <ele>669.0</ele>
        <time>2018-05-19T16:32:28.484Z</time>
      </trkpt>
      <trkpt lat="43.19268" lon="-4.32130833">
        <ele>669.0</ele>
        <time>2018-05-19T16:32:29.481Z</time>
      </trkpt>
      <trkpt lat="43.19268" lon="-4.32134167">
        <ele>670.0</ele>
        <time>2018-05-19T16:32:30.484Z</time>
      </trkpt>
      <trkpt lat="43.19268" lon="-4.32134167">
        <ele>670.0</ele>
        <time>2018-05-19T16:32:31.478Z</time>
      </trkpt>
      <trkpt lat="43.19267833" lon="-4.32138">
        <ele>670.0</ele>
        <time>2018-05-19T16:32:32.458Z</time>
      </trkpt>
      <trkpt lat="43.19267833" lon="-4.32138">
        <ele>670.0</ele>
        <time>2018-05-19T16:32:33.481Z</time>
      </trkpt>
      <trkpt lat="43.19268167" lon="-4.321415">
        <ele>670.0</ele>
        <time>2018-05-19T16:32:34.485Z</time>
      </trkpt>
      <trkpt lat="43.19268333" lon="-4.32143167">
        <ele>670.0</ele>
        <time>2018-05-19T16:32:35.485Z</time>
      </trkpt>
      <trkpt lat="43.19268333" lon="-4.32143167">
        <ele>670.0</ele>
        <time>2018-05-19T16:32:36.480Z</time>
      </trkpt>
      <trkpt lat="43.19268667" lon="-4.32146833">
        <ele>670.0</ele>
        <time>2018-05-19T16:32:37.483Z</time>
      </trkpt>
      <trkpt lat="43.19268667" lon="-4.32146833">
        <ele>670.0</ele>
        <time>2018-05-19T16:32:38.480Z</time>
      </trkpt>
      <trkpt lat="43.19269333" lon="-4.32150167">
        <ele>671.0</ele>
        <time>2018-05-19T16:32:39.483Z</time>
      </trkpt>
      <trkpt lat="43.19269333" lon="-4.32152">
        <ele>671.0</ele>
        <time>2018-05-19T16:32:40.483Z</time>
      </trkpt>
      <trkpt lat="43.19269333" lon="-4.32152">
        <ele>671.0</ele>
        <time>2018-05-19T16:32:41.480Z</time>
      </trkpt>
      <trkpt lat="43.19269333" lon="-4.321555">
        <ele>671.0</ele>
        <time>2018-05-19T16:32:42.485Z</time>
      </trkpt>
      <trkpt lat="43.19269333" lon="-4.321555">
        <ele>671.0</ele>
        <time>2018-05-19T16:32:43.478Z</time>
      </trkpt>
      <trkpt lat="43.19269333" lon="-4.32159167">
        <ele>671.0</ele>
        <time>2018-05-19T16:32:44.483Z</time>
      </trkpt>
      <trkpt lat="43.19269333" lon="-4.32159167">
        <ele>671.0</ele>
        <time>2018-05-19T16:32:45.479Z</time>
      </trkpt>
      <trkpt lat="43.19269167" lon="-4.32162667">
        <ele>671.0</ele>
        <time>2018-05-19T16:32:46.484Z</time>
      </trkpt>
      <trkpt lat="43.19269167" lon="-4.32162667">
        <ele>671.0</ele>
        <time>2018-05-19T16:32:47.478Z</time>
      </trkpt>
      <trkpt lat="43.19269333" lon="-4.32166">
        <ele>671.0</ele>
        <time>2018-05-19T16:32:48.467Z</time>
      </trkpt>
      <trkpt lat="43.19269333" lon="-4.32166">
        <ele>671.0</ele>
        <time>2018-05-19T16:32:49.482Z</time>
      </trkpt>
      <trkpt lat="43.192695" lon="-4.321695">
        <ele>671.0</ele>
        <time>2018-05-19T16:32:50.483Z</time>
      </trkpt>
      <trkpt lat="43.192695" lon="-4.321695">
        <ele>671.0</ele>
        <time>2018-05-19T16:32:51.480Z</time>
      </trkpt>
      <trkpt lat="43.19269667" lon="-4.32173333">
        <ele>672.0</ele>
        <time>2018-05-19T16:32:52.450Z</time>
      </trkpt>
      <trkpt lat="43.19269667" lon="-4.32173333">
        <ele>672.0</ele>
        <time>2018-05-19T16:32:53.478Z</time>
      </trkpt>
      <trkpt lat="43.19269333" lon="-4.32176833">
        <ele>672.0</ele>
        <time>2018-05-19T16:32:54.484Z</time>
      </trkpt>
      <trkpt lat="43.19269333" lon="-4.32176833">
        <ele>672.0</ele>
        <time>2018-05-19T16:32:55.480Z</time>
      </trkpt>
      <trkpt lat="43.19268833" lon="-4.321805">
        <ele>672.0</ele>
        <time>2018-05-19T16:32:56.482Z</time>
      </trkpt>
      <trkpt lat="43.19268833" lon="-4.321805">
        <ele>672.0</ele>
        <time>2018-05-19T16:32:57.479Z</time>
      </trkpt>
      <trkpt lat="43.19268667" lon="-4.32184">
        <ele>672.0</ele>
        <time>2018-05-19T16:32:58.471Z</time>
      </trkpt>
      <trkpt lat="43.19268667" lon="-4.32184">
        <ele>672.0</ele>
        <time>2018-05-19T16:32:59.456Z</time>
      </trkpt>
      <trkpt lat="43.19268167" lon="-4.321875">
        <ele>672.0</ele>
        <time>2018-05-19T16:33:00.485Z</time>
      </trkpt>
      <trkpt lat="43.19268167" lon="-4.321875">
        <ele>672.0</ele>
        <time>2018-05-19T16:33:01.481Z</time>
      </trkpt>
      <trkpt lat="43.19267667" lon="-4.32190667">
        <ele>673.0</ele>
        <time>2018-05-19T16:33:02.486Z</time>
      </trkpt>
      <trkpt lat="43.19267667" lon="-4.32190667">
        <ele>673.0</ele>
        <time>2018-05-19T16:33:03.483Z</time>
      </trkpt>
      <trkpt lat="43.192675" lon="-4.32194333">
        <ele>673.0</ele>
        <time>2018-05-19T16:33:04.483Z</time>
      </trkpt>
      <trkpt lat="43.192675" lon="-4.32194333">
        <ele>673.0</ele>
        <time>2018-05-19T16:33:05.479Z</time>
      </trkpt>
      <trkpt lat="43.19267167" lon="-4.32197667">
        <ele>673.0</ele>
        <time>2018-05-19T16:33:06.483Z</time>
      </trkpt>
      <trkpt lat="43.19267167" lon="-4.32197667">
        <ele>673.0</ele>
        <time>2018-05-19T16:33:07.480Z</time>
      </trkpt>
      <trkpt lat="43.19266333" lon="-4.32201167">
        <ele>673.0</ele>
        <time>2018-05-19T16:33:08.481Z</time>
      </trkpt>
      <trkpt lat="43.19266333" lon="-4.32201167">
        <ele>673.0</ele>
        <time>2018-05-19T16:33:09.480Z</time>
      </trkpt>
      <trkpt lat="43.19265667" lon="-4.32204667">
        <ele>674.0</ele>
        <time>2018-05-19T16:33:10.483Z</time>
      </trkpt>
      <trkpt lat="43.19265667" lon="-4.32204667">
        <ele>674.0</ele>
        <time>2018-05-19T16:33:11.477Z</time>
      </trkpt>
      <trkpt lat="43.19265333" lon="-4.32208">
        <ele>674.0</ele>
        <time>2018-05-19T16:33:12.483Z</time>
      </trkpt>
      <trkpt lat="43.19265333" lon="-4.32208">
        <ele>674.0</ele>
        <time>2018-05-19T16:33:13.477Z</time>
      </trkpt>
      <trkpt lat="43.19264833" lon="-4.32211333">
        <ele>674.0</ele>
        <time>2018-05-19T16:33:14.481Z</time>
      </trkpt>
      <trkpt lat="43.192645" lon="-4.32212667">
        <ele>675.0</ele>
        <time>2018-05-19T16:33:15.482Z</time>
      </trkpt>
      <trkpt lat="43.19264167" lon="-4.32214333">
        <ele>675.0</ele>
        <time>2018-05-19T16:33:16.484Z</time>
      </trkpt>
      <trkpt lat="43.19264167" lon="-4.32214333">
        <ele>675.0</ele>
        <time>2018-05-19T16:33:17.480Z</time>
      </trkpt>
      <trkpt lat="43.19263333" lon="-4.32217333">
        <ele>675.0</ele>
        <time>2018-05-19T16:33:18.483Z</time>
      </trkpt>
      <trkpt lat="43.19263333" lon="-4.32217333">
        <ele>675.0</ele>
        <time>2018-05-19T16:33:19.477Z</time>
      </trkpt>
      <trkpt lat="43.19262667" lon="-4.32220667">
        <ele>675.0</ele>
        <time>2018-05-19T16:33:20.481Z</time>
      </trkpt>
      <trkpt lat="43.19262667" lon="-4.32220667">
        <ele>675.0</ele>
        <time>2018-05-19T16:33:21.480Z</time>
      </trkpt>
      <trkpt lat="43.19261833" lon="-4.32223833">
        <ele>675.0</ele>
        <time>2018-05-19T16:33:22.450Z</time>
      </trkpt>
      <trkpt lat="43.19261833" lon="-4.32223833">
        <ele>675.0</ele>
        <time>2018-05-19T16:33:23.486Z</time>
      </trkpt>
      <trkpt lat="43.19261333" lon="-4.32227">
        <ele>676.0</ele>
        <time>2018-05-19T16:33:24.462Z</time>
      </trkpt>
      <trkpt lat="43.19261333" lon="-4.32227">
        <ele>676.0</ele>
        <time>2018-05-19T16:33:25.471Z</time>
      </trkpt>
      <trkpt lat="43.19260667" lon="-4.32230333">
        <ele>676.0</ele>
        <time>2018-05-19T16:33:26.481Z</time>
      </trkpt>
      <trkpt lat="43.19260667" lon="-4.32230333">
        <ele>676.0</ele>
        <time>2018-05-19T16:33:27.477Z</time>
      </trkpt>
      <trkpt lat="43.19260167" lon="-4.32233667">
        <ele>676.0</ele>
        <time>2018-05-19T16:33:28.483Z</time>
      </trkpt>
      <trkpt lat="43.19260167" lon="-4.32233667">
        <ele>676.0</ele>
        <time>2018-05-19T16:33:29.478Z</time>
      </trkpt>
      <trkpt lat="43.19259333" lon="-4.32237167">
        <ele>676.0</ele>
        <time>2018-05-19T16:33:30.483Z</time>
      </trkpt>
      <trkpt lat="43.19259333" lon="-4.32237167">
        <ele>676.0</ele>
        <time>2018-05-19T16:33:31.488Z</time>
      </trkpt>
      <trkpt lat="43.19258667" lon="-4.32240833">
        <ele>676.0</ele>
        <time>2018-05-19T16:33:32.449Z</time>
      </trkpt>
      <trkpt lat="43.19258667" lon="-4.32240833">
        <ele>676.0</ele>
        <time>2018-05-19T16:33:33.473Z</time>
      </trkpt>
      <trkpt lat="43.19258" lon="-4.32244333">
        <ele>676.0</ele>
        <time>2018-05-19T16:33:34.455Z</time>
      </trkpt>
      <trkpt lat="43.19258" lon="-4.32244333">
        <ele>676.0</ele>
        <time>2018-05-19T16:33:35.477Z</time>
      </trkpt>
      <trkpt lat="43.19257333" lon="-4.32247833">
        <ele>677.0</ele>
        <time>2018-05-19T16:33:36.483Z</time>
      </trkpt>
      <trkpt lat="43.19257333" lon="-4.32247833">
        <ele>677.0</ele>
        <time>2018-05-19T16:33:37.480Z</time>
      </trkpt>
      <trkpt lat="43.192565" lon="-4.32251">
        <ele>677.0</ele>
        <time>2018-05-19T16:33:38.483Z</time>
      </trkpt>
      <trkpt lat="43.192565" lon="-4.32251">
        <ele>677.0</ele>
        <time>2018-05-19T16:33:39.480Z</time>
      </trkpt>
      <trkpt lat="43.19255833" lon="-4.32254333">
        <ele>677.0</ele>
        <time>2018-05-19T16:33:40.484Z</time>
      </trkpt>
      <trkpt lat="43.19255833" lon="-4.32254333">
        <ele>677.0</ele>
        <time>2018-05-19T16:33:41.483Z</time>
      </trkpt>
      <trkpt lat="43.19255" lon="-4.32257667">
        <ele>677.0</ele>
        <time>2018-05-19T16:33:42.449Z</time>
      </trkpt>
      <trkpt lat="43.19255" lon="-4.32257667">
        <ele>677.0</ele>
        <time>2018-05-19T16:33:43.477Z</time>
      </trkpt>
      <trkpt lat="43.19254333" lon="-4.32260833">
        <ele>678.0</ele>
        <time>2018-05-19T16:33:44.482Z</time>
      </trkpt>
      <trkpt lat="43.19254333" lon="-4.32260833">
        <ele>678.0</ele>
        <time>2018-05-19T16:33:45.479Z</time>
      </trkpt>
      <trkpt lat="43.19254167" lon="-4.322645">
        <ele>678.0</ele>
        <time>2018-05-19T16:33:46.457Z</time>
      </trkpt>
      <trkpt lat="43.19254167" lon="-4.322645">
        <ele>678.0</ele>
        <time>2018-05-19T16:33:47.481Z</time>
      </trkpt>
      <trkpt lat="43.19254" lon="-4.32268167">
        <ele>678.0</ele>
        <time>2018-05-19T16:33:48.484Z</time>
      </trkpt>
      <trkpt lat="43.19254" lon="-4.32268167">
        <ele>678.0</ele>
        <time>2018-05-19T16:33:49.480Z</time>
      </trkpt>
      <trkpt lat="43.19253833" lon="-4.32271667">
        <ele>678.0</ele>
        <time>2018-05-19T16:33:50.483Z</time>
      </trkpt>
      <trkpt lat="43.19253833" lon="-4.32271667">
        <ele>678.0</ele>
        <time>2018-05-19T16:33:51.487Z</time>
      </trkpt>
      <trkpt lat="43.192535" lon="-4.32275167">
        <ele>679.0</ele>
        <time>2018-05-19T16:33:52.450Z</time>
      </trkpt>
      <trkpt lat="43.192535" lon="-4.32275167">
        <ele>679.0</ele>
        <time>2018-05-19T16:33:53.477Z</time>
      </trkpt>
      <trkpt lat="43.19253333" lon="-4.32278833">
        <ele>679.0</ele>
        <time>2018-05-19T16:33:54.483Z</time>
      </trkpt>
      <trkpt lat="43.19253333" lon="-4.32278833">
        <ele>679.0</ele>
        <time>2018-05-19T16:33:55.480Z</time>
      </trkpt>
      <trkpt lat="43.19253" lon="-4.32282167">
        <ele>679.0</ele>
        <time>2018-05-19T16:33:56.482Z</time>
      </trkpt>
      <trkpt lat="43.19253" lon="-4.32282167">
        <ele>679.0</ele>
        <time>2018-05-19T16:33:57.478Z</time>
      </trkpt>
      <trkpt lat="43.192525" lon="-4.32285333">
        <ele>679.0</ele>
        <time>2018-05-19T16:33:58.472Z</time>
      </trkpt>
      <trkpt lat="43.192525" lon="-4.32285333">
        <ele>679.0</ele>
        <time>2018-05-19T16:33:59.453Z</time>
      </trkpt>
      <trkpt lat="43.19251833" lon="-4.32288333">
        <ele>679.0</ele>
        <time>2018-05-19T16:34:00.483Z</time>
      </trkpt>
      <trkpt lat="43.19251833" lon="-4.32288333">
        <ele>679.0</ele>
        <time>2018-05-19T16:34:01.479Z</time>
      </trkpt>
      <trkpt lat="43.19251333" lon="-4.32291833">
        <ele>680.0</ele>
        <time>2018-05-19T16:34:02.448Z</time>
      </trkpt>
      <trkpt lat="43.19251333" lon="-4.32291833">
        <ele>680.0</ele>
        <time>2018-05-19T16:34:03.479Z</time>
      </trkpt>
      <trkpt lat="43.19250667" lon="-4.32295167">
        <ele>680.0</ele>
        <time>2018-05-19T16:34:04.484Z</time>
      </trkpt>
      <trkpt lat="43.19250667" lon="-4.32295167">
        <ele>680.0</ele>
        <time>2018-05-19T16:34:05.479Z</time>
      </trkpt>
      <trkpt lat="43.1925" lon="-4.32298667">
        <ele>680.0</ele>
        <time>2018-05-19T16:34:06.483Z</time>
      </trkpt>
      <trkpt lat="43.1925" lon="-4.32298667">
        <ele>680.0</ele>
        <time>2018-05-19T16:34:07.476Z</time>
      </trkpt>
      <trkpt lat="43.19249667" lon="-4.32302167">
        <ele>681.0</ele>
        <time>2018-05-19T16:34:08.455Z</time>
      </trkpt>
      <trkpt lat="43.19249333" lon="-4.32303833">
        <ele>681.0</ele>
        <time>2018-05-19T16:34:09.482Z</time>
      </trkpt>
      <trkpt lat="43.19249" lon="-4.323055">
        <ele>681.0</ele>
        <time>2018-05-19T16:34:10.485Z</time>
      </trkpt>
      <trkpt lat="43.19249" lon="-4.323055">
        <ele>681.0</ele>
        <time>2018-05-19T16:34:11.487Z</time>
      </trkpt>
      <trkpt lat="43.19248167" lon="-4.32309">
        <ele>681.0</ele>
        <time>2018-05-19T16:34:12.449Z</time>
      </trkpt>
      <trkpt lat="43.19248167" lon="-4.32309">
        <ele>681.0</ele>
        <time>2018-05-19T16:34:13.481Z</time>
      </trkpt>
      <trkpt lat="43.19247167" lon="-4.323125">
        <ele>681.0</ele>
        <time>2018-05-19T16:34:14.483Z</time>
      </trkpt>
      <trkpt lat="43.19247167" lon="-4.323125">
        <ele>681.0</ele>
        <time>2018-05-19T16:34:15.477Z</time>
      </trkpt>
      <trkpt lat="43.19246667" lon="-4.32315833">
        <ele>682.0</ele>
        <time>2018-05-19T16:34:16.485Z</time>
      </trkpt>
      <trkpt lat="43.19246667" lon="-4.32315833">
        <ele>682.0</ele>
        <time>2018-05-19T16:34:17.480Z</time>
      </trkpt>
      <trkpt lat="43.19246167" lon="-4.32319333">
        <ele>682.0</ele>
        <time>2018-05-19T16:34:18.482Z</time>
      </trkpt>
      <trkpt lat="43.19246167" lon="-4.32319333">
        <ele>682.0</ele>
        <time>2018-05-19T16:34:19.480Z</time>
      </trkpt>
      <trkpt lat="43.19246" lon="-4.32323">
        <ele>683.0</ele>
        <time>2018-05-19T16:34:20.481Z</time>
      </trkpt>
      <trkpt lat="43.19246" lon="-4.32324833">
        <ele>683.0</ele>
        <time>2018-05-19T16:34:21.483Z</time>
      </trkpt>
      <trkpt lat="43.19246" lon="-4.323265">
        <ele>683.0</ele>
        <time>2018-05-19T16:34:22.450Z</time>
      </trkpt>
      <trkpt lat="43.19246" lon="-4.323265">
        <ele>683.0</ele>
        <time>2018-05-19T16:34:23.458Z</time>
      </trkpt>
      <trkpt lat="43.19246167" lon="-4.32329667">
        <ele>683.0</ele>
        <time>2018-05-19T16:34:24.470Z</time>
      </trkpt>
      <trkpt lat="43.19246167" lon="-4.32329667">
        <ele>683.0</ele>
        <time>2018-05-19T16:34:25.475Z</time>
      </trkpt>
      <trkpt lat="43.19246167" lon="-4.32333">
        <ele>684.0</ele>
        <time>2018-05-19T16:34:26.482Z</time>
      </trkpt>
      <trkpt lat="43.19246167" lon="-4.32333">
        <ele>684.0</ele>
        <time>2018-05-19T16:34:27.480Z</time>
      </trkpt>
      <trkpt lat="43.19246167" lon="-4.32336333">
        <ele>684.0</ele>
        <time>2018-05-19T16:34:28.484Z</time>
      </trkpt>
      <trkpt lat="43.19246167" lon="-4.32336333">
        <ele>684.0</ele>
        <time>2018-05-19T16:34:29.477Z</time>
      </trkpt>
      <trkpt lat="43.19246833" lon="-4.32339167">
        <ele>684.0</ele>
        <time>2018-05-19T16:34:30.482Z</time>
      </trkpt>
      <trkpt lat="43.19246833" lon="-4.32339167">
        <ele>684.0</ele>
        <time>2018-05-19T16:34:31.479Z</time>
      </trkpt>
      <trkpt lat="43.19247667" lon="-4.32341667">
        <ele>685.0</ele>
        <time>2018-05-19T16:34:32.451Z</time>
      </trkpt>
      <trkpt lat="43.19247667" lon="-4.32341667">
        <ele>685.0</ele>
        <time>2018-05-19T16:34:33.478Z</time>
      </trkpt>
      <trkpt lat="43.19248333" lon="-4.323445">
        <ele>685.0</ele>
        <time>2018-05-19T16:34:34.485Z</time>
      </trkpt>
      <trkpt lat="43.19248333" lon="-4.323445">
        <ele>685.0</ele>
        <time>2018-05-19T16:34:35.481Z</time>
      </trkpt>
      <trkpt lat="43.19249167" lon="-4.323465">
        <ele>685.0</ele>
        <time>2018-05-19T16:34:36.483Z</time>
      </trkpt>
      <trkpt lat="43.19249167" lon="-4.323465">
        <ele>685.0</ele>
        <time>2018-05-19T16:34:37.476Z</time>
      </trkpt>
      <trkpt lat="43.19250167" lon="-4.32348833">
        <ele>686.0</ele>
        <time>2018-05-19T16:34:38.484Z</time>
      </trkpt>
      <trkpt lat="43.19250167" lon="-4.32348833">
        <ele>686.0</ele>
        <time>2018-05-19T16:34:39.479Z</time>
      </trkpt>
      <trkpt lat="43.19250833" lon="-4.32351">
        <ele>686.0</ele>
        <time>2018-05-19T16:34:40.481Z</time>
      </trkpt>
      <trkpt lat="43.19250833" lon="-4.32351">
        <ele>686.0</ele>
        <time>2018-05-19T16:34:41.477Z</time>
      </trkpt>
      <trkpt lat="43.192515" lon="-4.32353167">
        <ele>686.0</ele>
        <time>2018-05-19T16:34:42.461Z</time>
      </trkpt>
      <trkpt lat="43.192515" lon="-4.32353167">
        <ele>686.0</ele>
        <time>2018-05-19T16:34:43.458Z</time>
      </trkpt>
      <trkpt lat="43.19251667" lon="-4.32355333">
        <ele>686.0</ele>
        <time>2018-05-19T16:34:44.482Z</time>
      </trkpt>
      <trkpt lat="43.19251833" lon="-4.32355667">
        <ele>686.0</ele>
        <time>2018-05-19T16:34:45.482Z</time>
      </trkpt>
      <trkpt lat="43.19251833" lon="-4.32355667">
        <ele>686.0</ele>
        <time>2018-05-19T16:34:46.483Z</time>
      </trkpt>
      <trkpt lat="43.19251833" lon="-4.32355667">
        <ele>686.0</ele>
        <time>2018-05-19T16:34:47.482Z</time>
      </trkpt>
      <trkpt lat="43.19251833" lon="-4.32355833">
        <ele>686.0</ele>
        <time>2018-05-19T16:34:48.483Z</time>
      </trkpt>
      <trkpt lat="43.19252833" lon="-4.32358167">
        <ele>687.0</ele>
        <time>2018-05-19T16:34:49.470Z</time>
      </trkpt>
      <trkpt lat="43.19252833" lon="-4.32358167">
        <ele>687.0</ele>
        <time>2018-05-19T16:34:50.469Z</time>
      </trkpt>
      <trkpt lat="43.192535" lon="-4.32360333">
        <ele>687.0</ele>
        <time>2018-05-19T16:34:51.472Z</time>
      </trkpt>
      <trkpt lat="43.192535" lon="-4.32360333">
        <ele>687.0</ele>
        <time>2018-05-19T16:34:52.469Z</time>
      </trkpt>
      <trkpt lat="43.19254" lon="-4.323625">
        <ele>687.0</ele>
        <time>2018-05-19T16:34:53.474Z</time>
      </trkpt>
      <trkpt lat="43.19254" lon="-4.323625">
        <ele>687.0</ele>
        <time>2018-05-19T16:34:54.471Z</time>
      </trkpt>
      <trkpt lat="43.192545" lon="-4.32364333">
        <ele>687.0</ele>
        <time>2018-05-19T16:34:55.461Z</time>
      </trkpt>
      <trkpt lat="43.192545" lon="-4.32364333">
        <ele>687.0</ele>
        <time>2018-05-19T16:34:56.480Z</time>
      </trkpt>
      <trkpt lat="43.19254667" lon="-4.32366667">
        <ele>687.0</ele>
        <time>2018-05-19T16:34:57.476Z</time>
      </trkpt>
      <trkpt lat="43.19254667" lon="-4.32366667">
        <ele>687.0</ele>
        <time>2018-05-19T16:34:58.470Z</time>
      </trkpt>
      <trkpt lat="43.19255" lon="-4.32368833">
        <ele>687.0</ele>
        <time>2018-05-19T16:34:59.481Z</time>
      </trkpt>
      <trkpt lat="43.19255" lon="-4.32368833">
        <ele>687.0</ele>
        <time>2018-05-19T16:35:00.473Z</time>
      </trkpt>
      <trkpt lat="43.19255167" lon="-4.323715">
        <ele>688.0</ele>
        <time>2018-05-19T16:35:01.476Z</time>
      </trkpt>
      <trkpt lat="43.19255167" lon="-4.323715">
        <ele>688.0</ele>
        <time>2018-05-19T16:35:02.470Z</time>
      </trkpt>
      <trkpt lat="43.19255167" lon="-4.32374333">
        <ele>688.0</ele>
        <time>2018-05-19T16:35:03.475Z</time>
      </trkpt>
      <trkpt lat="43.19255167" lon="-4.32374333">
        <ele>688.0</ele>
        <time>2018-05-19T16:35:04.453Z</time>
      </trkpt>
      <trkpt lat="43.19255" lon="-4.32377">
        <ele>688.0</ele>
        <time>2018-05-19T16:35:05.475Z</time>
      </trkpt>
      <trkpt lat="43.19255" lon="-4.32377">
        <ele>688.0</ele>
        <time>2018-05-19T16:35:06.469Z</time>
      </trkpt>
      <trkpt lat="43.19255" lon="-4.32380167">
        <ele>688.0</ele>
        <time>2018-05-19T16:35:07.477Z</time>
      </trkpt>
      <trkpt lat="43.19255" lon="-4.32380167">
        <ele>688.0</ele>
        <time>2018-05-19T16:35:08.471Z</time>
      </trkpt>
      <trkpt lat="43.192545" lon="-4.32383">
        <ele>688.0</ele>
        <time>2018-05-19T16:35:09.480Z</time>
      </trkpt>
      <trkpt lat="43.192545" lon="-4.32383">
        <ele>688.0</ele>
        <time>2018-05-19T16:35:10.472Z</time>
      </trkpt>
      <trkpt lat="43.192545" lon="-4.32385667">
        <ele>688.0</ele>
        <time>2018-05-19T16:35:11.473Z</time>
      </trkpt>
      <trkpt lat="43.19254333" lon="-4.32387167">
        <ele>688.0</ele>
        <time>2018-05-19T16:35:12.474Z</time>
      </trkpt>
      <trkpt lat="43.19254333" lon="-4.32388667">
        <ele>688.0</ele>
        <time>2018-05-19T16:35:13.475Z</time>
      </trkpt>
      <trkpt lat="43.19254333" lon="-4.32388667">
        <ele>688.0</ele>
        <time>2018-05-19T16:35:14.471Z</time>
      </trkpt>
      <trkpt lat="43.19254333" lon="-4.32391667">
        <ele>688.0</ele>
        <time>2018-05-19T16:35:15.486Z</time>
      </trkpt>
      <trkpt lat="43.19254333" lon="-4.32391667">
        <ele>688.0</ele>
        <time>2018-05-19T16:35:16.471Z</time>
      </trkpt>
      <trkpt lat="43.19254333" lon="-4.32395">
        <ele>688.0</ele>
        <time>2018-05-19T16:35:17.475Z</time>
      </trkpt>
      <trkpt lat="43.19254333" lon="-4.32396667">
        <ele>688.0</ele>
        <time>2018-05-19T16:35:18.475Z</time>
      </trkpt>
      <trkpt lat="43.19254333" lon="-4.32398333">
        <ele>688.0</ele>
        <time>2018-05-19T16:35:19.480Z</time>
      </trkpt>
      <trkpt lat="43.19254333" lon="-4.32398333">
        <ele>688.0</ele>
        <time>2018-05-19T16:35:20.477Z</time>
      </trkpt>
      <trkpt lat="43.19254667" lon="-4.32402167">
        <ele>688.0</ele>
        <time>2018-05-19T16:35:21.476Z</time>
      </trkpt>
      <trkpt lat="43.19255" lon="-4.32403833">
        <ele>688.0</ele>
        <time>2018-05-19T16:35:22.476Z</time>
      </trkpt>
      <trkpt lat="43.19255" lon="-4.32403833">
        <ele>688.0</ele>
        <time>2018-05-19T16:35:23.476Z</time>
      </trkpt>
      <trkpt lat="43.19255167" lon="-4.32407167">
        <ele>688.0</ele>
        <time>2018-05-19T16:35:24.487Z</time>
      </trkpt>
      <trkpt lat="43.19255167" lon="-4.32407167">
        <ele>688.0</ele>
        <time>2018-05-19T16:35:25.454Z</time>
      </trkpt>
      <trkpt lat="43.19255333" lon="-4.32410333">
        <ele>689.0</ele>
        <time>2018-05-19T16:35:26.475Z</time>
      </trkpt>
      <trkpt lat="43.19255667" lon="-4.32411833">
        <ele>689.0</ele>
        <time>2018-05-19T16:35:27.475Z</time>
      </trkpt>
      <trkpt lat="43.19255667" lon="-4.32411833">
        <ele>689.0</ele>
        <time>2018-05-19T16:35:28.480Z</time>
      </trkpt>
      <trkpt lat="43.19256333" lon="-4.32414667">
        <ele>689.0</ele>
        <time>2018-05-19T16:35:29.478Z</time>
      </trkpt>
      <trkpt lat="43.19256333" lon="-4.32414667">
        <ele>689.0</ele>
        <time>2018-05-19T16:35:30.470Z</time>
      </trkpt>
      <trkpt lat="43.19256833" lon="-4.32417833">
        <ele>690.0</ele>
        <time>2018-05-19T16:35:31.470Z</time>
      </trkpt>
      <trkpt lat="43.19256833" lon="-4.32417833">
        <ele>690.0</ele>
        <time>2018-05-19T16:35:32.470Z</time>
      </trkpt>
      <trkpt lat="43.19257" lon="-4.32421">
        <ele>690.0</ele>
        <time>2018-05-19T16:35:33.475Z</time>
      </trkpt>
      <trkpt lat="43.19257" lon="-4.32421">
        <ele>690.0</ele>
        <time>2018-05-19T16:35:34.470Z</time>
      </trkpt>
      <trkpt lat="43.19257167" lon="-4.32424333">
        <ele>690.0</ele>
        <time>2018-05-19T16:35:35.475Z</time>
      </trkpt>
      <trkpt lat="43.19257167" lon="-4.32424333">
        <ele>690.0</ele>
        <time>2018-05-19T16:35:36.479Z</time>
      </trkpt>
      <trkpt lat="43.192575" lon="-4.324275">
        <ele>690.0</ele>
        <time>2018-05-19T16:35:37.477Z</time>
      </trkpt>
      <trkpt lat="43.192575" lon="-4.324275">
        <ele>690.0</ele>
        <time>2018-05-19T16:35:38.480Z</time>
      </trkpt>
      <trkpt lat="43.192575" lon="-4.324305">
        <ele>691.0</ele>
        <time>2018-05-19T16:35:39.481Z</time>
      </trkpt>
      <trkpt lat="43.192575" lon="-4.324305">
        <ele>691.0</ele>
        <time>2018-05-19T16:35:40.472Z</time>
      </trkpt>
      <trkpt lat="43.192575" lon="-4.32434">
        <ele>691.0</ele>
        <time>2018-05-19T16:35:41.467Z</time>
      </trkpt>
      <trkpt lat="43.19257667" lon="-4.32435667">
        <ele>691.0</ele>
        <time>2018-05-19T16:35:42.489Z</time>
      </trkpt>
      <trkpt lat="43.19258" lon="-4.32437333">
        <ele>691.0</ele>
        <time>2018-05-19T16:35:43.478Z</time>
      </trkpt>
      <trkpt lat="43.19258" lon="-4.32437333">
        <ele>691.0</ele>
        <time>2018-05-19T16:35:44.472Z</time>
      </trkpt>
      <trkpt lat="43.19258333" lon="-4.32440833">
        <ele>691.0</ele>
        <time>2018-05-19T16:35:45.474Z</time>
      </trkpt>
      <trkpt lat="43.19258333" lon="-4.32440833">
        <ele>691.0</ele>
        <time>2018-05-19T16:35:46.472Z</time>
      </trkpt>
      <trkpt lat="43.19258667" lon="-4.32444167">
        <ele>692.0</ele>
        <time>2018-05-19T16:35:47.477Z</time>
      </trkpt>
      <trkpt lat="43.19258667" lon="-4.32444167">
        <ele>692.0</ele>
        <time>2018-05-19T16:35:48.480Z</time>
      </trkpt>
      <trkpt lat="43.19259167" lon="-4.32447667">
        <ele>692.0</ele>
        <time>2018-05-19T16:35:49.480Z</time>
      </trkpt>
      <trkpt lat="43.19259167" lon="-4.32447667">
        <ele>692.0</ele>
        <time>2018-05-19T16:35:50.470Z</time>
      </trkpt>
      <trkpt lat="43.19259333" lon="-4.32451167">
        <ele>692.0</ele>
        <time>2018-05-19T16:35:51.480Z</time>
      </trkpt>
      <trkpt lat="43.19259333" lon="-4.32451167">
        <ele>692.0</ele>
        <time>2018-05-19T16:35:52.470Z</time>
      </trkpt>
      <trkpt lat="43.19259667" lon="-4.32455">
        <ele>692.0</ele>
        <time>2018-05-19T16:35:53.475Z</time>
      </trkpt>
      <trkpt lat="43.19259667" lon="-4.32455">
        <ele>692.0</ele>
        <time>2018-05-19T16:35:54.470Z</time>
      </trkpt>
      <trkpt lat="43.19259833" lon="-4.32458167">
        <ele>692.0</ele>
        <time>2018-05-19T16:35:55.455Z</time>
      </trkpt>
      <trkpt lat="43.19259833" lon="-4.32458167">
        <ele>692.0</ele>
        <time>2018-05-19T16:35:56.478Z</time>
      </trkpt>
      <trkpt lat="43.1926" lon="-4.32462">
        <ele>693.0</ele>
        <time>2018-05-19T16:35:57.475Z</time>
      </trkpt>
      <trkpt lat="43.1926" lon="-4.32462">
        <ele>693.0</ele>
        <time>2018-05-19T16:35:58.479Z</time>
      </trkpt>
      <trkpt lat="43.19260167" lon="-4.324655">
        <ele>693.0</ele>
        <time>2018-05-19T16:35:59.478Z</time>
      </trkpt>
      <trkpt lat="43.19260167" lon="-4.324655">
        <ele>693.0</ele>
        <time>2018-05-19T16:36:00.470Z</time>
      </trkpt>
      <trkpt lat="43.19260667" lon="-4.32469167">
        <ele>693.0</ele>
        <time>2018-05-19T16:36:01.481Z</time>
      </trkpt>
      <trkpt lat="43.19260667" lon="-4.32469167">
        <ele>693.0</ele>
        <time>2018-05-19T16:36:02.481Z</time>
      </trkpt>
      <trkpt lat="43.19260667" lon="-4.32472667">
        <ele>693.0</ele>
        <time>2018-05-19T16:36:03.475Z</time>
      </trkpt>
      <trkpt lat="43.19260667" lon="-4.32472667">
        <ele>693.0</ele>
        <time>2018-05-19T16:36:04.471Z</time>
      </trkpt>
      <trkpt lat="43.19261" lon="-4.32476333">
        <ele>693.0</ele>
        <time>2018-05-19T16:36:05.474Z</time>
      </trkpt>
      <trkpt lat="43.19261" lon="-4.32476333">
        <ele>693.0</ele>
        <time>2018-05-19T16:36:06.469Z</time>
      </trkpt>
      <trkpt lat="43.19261167" lon="-4.32479833">
        <ele>693.0</ele>
        <time>2018-05-19T16:36:07.478Z</time>
      </trkpt>
      <trkpt lat="43.19261167" lon="-4.32481667">
        <ele>693.0</ele>
        <time>2018-05-19T16:36:08.488Z</time>
      </trkpt>
      <trkpt lat="43.19261167" lon="-4.32481667">
        <ele>693.0</ele>
        <time>2018-05-19T16:36:09.476Z</time>
      </trkpt>
      <trkpt lat="43.19261333" lon="-4.32485167">
        <ele>693.0</ele>
        <time>2018-05-19T16:36:10.476Z</time>
      </trkpt>
      <trkpt lat="43.19261333" lon="-4.32485167">
        <ele>693.0</ele>
        <time>2018-05-19T16:36:11.459Z</time>
      </trkpt>
      <trkpt lat="43.19261667" lon="-4.32488667">
        <ele>693.0</ele>
        <time>2018-05-19T16:36:12.481Z</time>
      </trkpt>
      <trkpt lat="43.19261667" lon="-4.324905">
        <ele>694.0</ele>
        <time>2018-05-19T16:36:13.477Z</time>
      </trkpt>
      <trkpt lat="43.19261667" lon="-4.324905">
        <ele>694.0</ele>
        <time>2018-05-19T16:36:14.470Z</time>
      </trkpt>
      <trkpt lat="43.19261833" lon="-4.32494167">
        <ele>694.0</ele>
        <time>2018-05-19T16:36:15.478Z</time>
      </trkpt>
      <trkpt lat="43.19261833" lon="-4.32494167">
        <ele>694.0</ele>
        <time>2018-05-19T16:36:16.475Z</time>
      </trkpt>
      <trkpt lat="43.19262" lon="-4.32498">
        <ele>694.0</ele>
        <time>2018-05-19T16:36:17.473Z</time>
      </trkpt>
      <trkpt lat="43.19262" lon="-4.32498">
        <ele>694.0</ele>
        <time>2018-05-19T16:36:18.471Z</time>
      </trkpt>
      <trkpt lat="43.192625" lon="-4.32502167">
        <ele>694.0</ele>
        <time>2018-05-19T16:36:19.483Z</time>
      </trkpt>
      <trkpt lat="43.192625" lon="-4.32502167">
        <ele>694.0</ele>
        <time>2018-05-19T16:36:20.470Z</time>
      </trkpt>
      <trkpt lat="43.19262" lon="-4.32506">
        <ele>694.0</ele>
        <time>2018-05-19T16:36:21.476Z</time>
      </trkpt>
      <trkpt lat="43.19262" lon="-4.32506">
        <ele>694.0</ele>
        <time>2018-05-19T16:36:22.471Z</time>
      </trkpt>
      <trkpt lat="43.19262" lon="-4.32509833">
        <ele>694.0</ele>
        <time>2018-05-19T16:36:23.473Z</time>
      </trkpt>
      <trkpt lat="43.19262" lon="-4.32511833">
        <ele>695.0</ele>
        <time>2018-05-19T16:36:24.482Z</time>
      </trkpt>
      <trkpt lat="43.19261833" lon="-4.32513667">
        <ele>695.0</ele>
        <time>2018-05-19T16:36:25.450Z</time>
      </trkpt>
      <trkpt lat="43.19261833" lon="-4.32513667">
        <ele>695.0</ele>
        <time>2018-05-19T16:36:26.465Z</time>
      </trkpt>
      <trkpt lat="43.19262167" lon="-4.32517167">
        <ele>695.0</ele>
        <time>2018-05-19T16:36:27.475Z</time>
      </trkpt>
      <trkpt lat="43.19262167" lon="-4.32517167">
        <ele>695.0</ele>
        <time>2018-05-19T16:36:28.482Z</time>
      </trkpt>
      <trkpt lat="43.19263" lon="-4.325205">
        <ele>695.0</ele>
        <time>2018-05-19T16:36:29.476Z</time>
      </trkpt>
      <trkpt lat="43.19263" lon="-4.325205">
        <ele>695.0</ele>
        <time>2018-05-19T16:36:30.469Z</time>
      </trkpt>
      <trkpt lat="43.19263667" lon="-4.32523833">
        <ele>696.0</ele>
        <time>2018-05-19T16:36:31.478Z</time>
      </trkpt>
      <trkpt lat="43.19263667" lon="-4.32523833">
        <ele>696.0</ele>
        <time>2018-05-19T16:36:32.479Z</time>
      </trkpt>
      <trkpt lat="43.19263833" lon="-4.32527333">
        <ele>695.0</ele>
        <time>2018-05-19T16:36:33.477Z</time>
      </trkpt>
      <trkpt lat="43.19263833" lon="-4.32527333">
        <ele>695.0</ele>
        <time>2018-05-19T16:36:34.471Z</time>
      </trkpt>
      <trkpt lat="43.19264167" lon="-4.32530833">
        <ele>696.0</ele>
        <time>2018-05-19T16:36:35.476Z</time>
      </trkpt>
      <trkpt lat="43.19264333" lon="-4.32532333">
        <ele>696.0</ele>
        <time>2018-05-19T16:36:36.476Z</time>
      </trkpt>
      <trkpt lat="43.192645" lon="-4.32534167">
        <ele>696.0</ele>
        <time>2018-05-19T16:36:37.478Z</time>
      </trkpt>
      <trkpt lat="43.192645" lon="-4.32534167">
        <ele>696.0</ele>
        <time>2018-05-19T16:36:38.470Z</time>
      </trkpt>
      <trkpt lat="43.19265" lon="-4.325375">
        <ele>696.0</ele>
        <time>2018-05-19T16:36:39.481Z</time>
      </trkpt>
      <trkpt lat="43.19265" lon="-4.325375">
        <ele>696.0</ele>
        <time>2018-05-19T16:36:40.471Z</time>
      </trkpt>
      <trkpt lat="43.19265167" lon="-4.325405">
        <ele>696.0</ele>
        <time>2018-05-19T16:36:41.476Z</time>
      </trkpt>
      <trkpt lat="43.19265167" lon="-4.325405">
        <ele>696.0</ele>
        <time>2018-05-19T16:36:42.471Z</time>
      </trkpt>
      <trkpt lat="43.19265167" lon="-4.32544167">
        <ele>696.0</ele>
        <time>2018-05-19T16:36:43.477Z</time>
      </trkpt>
      <trkpt lat="43.19265167" lon="-4.32544167">
        <ele>696.0</ele>
        <time>2018-05-19T16:36:44.470Z</time>
      </trkpt>
      <trkpt lat="43.19264833" lon="-4.32547167">
        <ele>697.0</ele>
        <time>2018-05-19T16:36:45.477Z</time>
      </trkpt>
      <trkpt lat="43.19264833" lon="-4.32547167">
        <ele>697.0</ele>
        <time>2018-05-19T16:36:46.469Z</time>
      </trkpt>
      <trkpt lat="43.192645" lon="-4.32550333">
        <ele>697.0</ele>
        <time>2018-05-19T16:36:47.476Z</time>
      </trkpt>
      <trkpt lat="43.192645" lon="-4.32550333">
        <ele>697.0</ele>
        <time>2018-05-19T16:36:48.471Z</time>
      </trkpt>
      <trkpt lat="43.19264667" lon="-4.325535">
        <ele>698.0</ele>
        <time>2018-05-19T16:36:49.482Z</time>
      </trkpt>
      <trkpt lat="43.19264667" lon="-4.325535">
        <ele>698.0</ele>
        <time>2018-05-19T16:36:50.470Z</time>
      </trkpt>
      <trkpt lat="43.19265" lon="-4.32556667">
        <ele>698.0</ele>
        <time>2018-05-19T16:36:51.475Z</time>
      </trkpt>
      <trkpt lat="43.19265" lon="-4.32556667">
        <ele>698.0</ele>
        <time>2018-05-19T16:36:52.470Z</time>
      </trkpt>
      <trkpt lat="43.19264833" lon="-4.325605">
        <ele>699.0</ele>
        <time>2018-05-19T16:36:53.475Z</time>
      </trkpt>
      <trkpt lat="43.19264833" lon="-4.325605">
        <ele>699.0</ele>
        <time>2018-05-19T16:36:54.470Z</time>
      </trkpt>
      <trkpt lat="43.19265" lon="-4.32564333">
        <ele>699.0</ele>
        <time>2018-05-19T16:36:55.463Z</time>
      </trkpt>
      <trkpt lat="43.19265" lon="-4.32564333">
        <ele>699.0</ele>
        <time>2018-05-19T16:36:56.489Z</time>
      </trkpt>
      <trkpt lat="43.19264833" lon="-4.32567667">
        <ele>699.0</ele>
        <time>2018-05-19T16:36:57.480Z</time>
      </trkpt>
      <trkpt lat="43.19264833" lon="-4.32567667">
        <ele>699.0</ele>
        <time>2018-05-19T16:36:58.471Z</time>
      </trkpt>
      <trkpt lat="43.19264833" lon="-4.32570833">
        <ele>700.0</ele>
        <time>2018-05-19T16:36:59.450Z</time>
      </trkpt>
      <trkpt lat="43.19264833" lon="-4.32570833">
        <ele>700.0</ele>
        <time>2018-05-19T16:37:00.473Z</time>
      </trkpt>
      <trkpt lat="43.19265" lon="-4.32573833">
        <ele>701.0</ele>
        <time>2018-05-19T16:37:01.476Z</time>
      </trkpt>
      <trkpt lat="43.19265" lon="-4.32573833">
        <ele>701.0</ele>
        <time>2018-05-19T16:37:02.470Z</time>
      </trkpt>
      <trkpt lat="43.19265167" lon="-4.32576833">
        <ele>701.0</ele>
        <time>2018-05-19T16:37:03.476Z</time>
      </trkpt>
      <trkpt lat="43.19265167" lon="-4.32576833">
        <ele>701.0</ele>
        <time>2018-05-19T16:37:04.470Z</time>
      </trkpt>
      <trkpt lat="43.19265667" lon="-4.3258">
        <ele>701.0</ele>
        <time>2018-05-19T16:37:05.476Z</time>
      </trkpt>
      <trkpt lat="43.19265667" lon="-4.3258">
        <ele>701.0</ele>
        <time>2018-05-19T16:37:06.471Z</time>
      </trkpt>
      <trkpt lat="43.19266" lon="-4.32583">
        <ele>702.0</ele>
        <time>2018-05-19T16:37:07.483Z</time>
      </trkpt>
      <trkpt lat="43.19266" lon="-4.32583">
        <ele>702.0</ele>
        <time>2018-05-19T16:37:08.470Z</time>
      </trkpt>
      <trkpt lat="43.19266167" lon="-4.32586">
        <ele>702.0</ele>
        <time>2018-05-19T16:37:09.482Z</time>
      </trkpt>
      <trkpt lat="43.19266167" lon="-4.32586">
        <ele>702.0</ele>
        <time>2018-05-19T16:37:10.470Z</time>
      </trkpt>
      <trkpt lat="43.19266833" lon="-4.32589">
        <ele>703.0</ele>
        <time>2018-05-19T16:37:11.455Z</time>
      </trkpt>
      <trkpt lat="43.19266833" lon="-4.32589">
        <ele>703.0</ele>
        <time>2018-05-19T16:37:12.480Z</time>
      </trkpt>
      <trkpt lat="43.192675" lon="-4.32592167">
        <ele>703.0</ele>
        <time>2018-05-19T16:37:13.477Z</time>
      </trkpt>
      <trkpt lat="43.192675" lon="-4.32592167">
        <ele>703.0</ele>
        <time>2018-05-19T16:37:14.470Z</time>
      </trkpt>
      <trkpt lat="43.19268333" lon="-4.32595">
        <ele>703.0</ele>
        <time>2018-05-19T16:37:15.476Z</time>
      </trkpt>
      <trkpt lat="43.19268333" lon="-4.32595">
        <ele>703.0</ele>
        <time>2018-05-19T16:37:16.471Z</time>
      </trkpt>
      <trkpt lat="43.19269333" lon="-4.32597667">
        <ele>703.0</ele>
        <time>2018-05-19T16:37:17.488Z</time>
      </trkpt>
      <trkpt lat="43.19269333" lon="-4.32597667">
        <ele>703.0</ele>
        <time>2018-05-19T16:37:18.470Z</time>
      </trkpt>
      <trkpt lat="43.19269667" lon="-4.32600333">
        <ele>704.0</ele>
        <time>2018-05-19T16:37:19.482Z</time>
      </trkpt>
      <trkpt lat="43.19269667" lon="-4.32600333">
        <ele>704.0</ele>
        <time>2018-05-19T16:37:20.472Z</time>
      </trkpt>
      <trkpt lat="43.19269833" lon="-4.32602667">
        <ele>704.0</ele>
        <time>2018-05-19T16:37:21.477Z</time>
      </trkpt>
      <trkpt lat="43.19269833" lon="-4.32602667">
        <ele>704.0</ele>
        <time>2018-05-19T16:37:22.471Z</time>
      </trkpt>
      <trkpt lat="43.19269833" lon="-4.32604667">
        <ele>705.0</ele>
        <time>2018-05-19T16:37:23.450Z</time>
      </trkpt>
      <trkpt lat="43.19269833" lon="-4.32604667">
        <ele>705.0</ele>
        <time>2018-05-19T16:37:24.474Z</time>
      </trkpt>
      <trkpt lat="43.1927" lon="-4.32606667">
        <ele>705.0</ele>
        <time>2018-05-19T16:37:25.476Z</time>
      </trkpt>
      <trkpt lat="43.1927" lon="-4.32606667">
        <ele>705.0</ele>
        <time>2018-05-19T16:37:26.470Z</time>
      </trkpt>
      <trkpt lat="43.1927" lon="-4.32609">
        <ele>706.0</ele>
        <time>2018-05-19T16:37:27.475Z</time>
      </trkpt>
      <trkpt lat="43.1927" lon="-4.32609">
        <ele>706.0</ele>
        <time>2018-05-19T16:37:28.470Z</time>
      </trkpt>
      <trkpt lat="43.19270333" lon="-4.32611333">
        <ele>706.0</ele>
        <time>2018-05-19T16:37:29.453Z</time>
      </trkpt>
      <trkpt lat="43.19270333" lon="-4.32611333">
        <ele>706.0</ele>
        <time>2018-05-19T16:37:30.478Z</time>
      </trkpt>
      <trkpt lat="43.19270333" lon="-4.32614">
        <ele>706.0</ele>
        <time>2018-05-19T16:37:31.477Z</time>
      </trkpt>
      <trkpt lat="43.19270333" lon="-4.32614">
        <ele>706.0</ele>
        <time>2018-05-19T16:37:32.468Z</time>
      </trkpt>
      <trkpt lat="43.192705" lon="-4.32617167">
        <ele>707.0</ele>
        <time>2018-05-19T16:37:33.474Z</time>
      </trkpt>
      <trkpt lat="43.192705" lon="-4.32617167">
        <ele>707.0</ele>
        <time>2018-05-19T16:37:34.480Z</time>
      </trkpt>
      <trkpt lat="43.192705" lon="-4.326205">
        <ele>707.0</ele>
        <time>2018-05-19T16:37:35.495Z</time>
      </trkpt>
      <trkpt lat="43.192705" lon="-4.326205">
        <ele>707.0</ele>
        <time>2018-05-19T16:37:36.470Z</time>
      </trkpt>
      <trkpt lat="43.19270833" lon="-4.32623167">
        <ele>707.0</ele>
        <time>2018-05-19T16:37:37.478Z</time>
      </trkpt>
      <trkpt lat="43.19270833" lon="-4.32623167">
        <ele>707.0</ele>
        <time>2018-05-19T16:37:38.471Z</time>
      </trkpt>
      <trkpt lat="43.19270667" lon="-4.32626">
        <ele>708.0</ele>
        <time>2018-05-19T16:37:39.477Z</time>
      </trkpt>
      <trkpt lat="43.19270667" lon="-4.32626">
        <ele>708.0</ele>
        <time>2018-05-19T16:37:40.470Z</time>
      </trkpt>
      <trkpt lat="43.19270667" lon="-4.32628667">
        <ele>708.0</ele>
        <time>2018-05-19T16:37:41.475Z</time>
      </trkpt>
      <trkpt lat="43.19270667" lon="-4.32628667">
        <ele>708.0</ele>
        <time>2018-05-19T16:37:42.477Z</time>
      </trkpt>
      <trkpt lat="43.19271" lon="-4.32631333">
        <ele>708.0</ele>
        <time>2018-05-19T16:37:43.476Z</time>
      </trkpt>
      <trkpt lat="43.19271" lon="-4.32631333">
        <ele>708.0</ele>
        <time>2018-05-19T16:37:44.472Z</time>
      </trkpt>
      <trkpt lat="43.19270667" lon="-4.32634167">
        <ele>708.0</ele>
        <time>2018-05-19T16:37:45.477Z</time>
      </trkpt>
      <trkpt lat="43.19270667" lon="-4.32634167">
        <ele>708.0</ele>
        <time>2018-05-19T16:37:46.471Z</time>
      </trkpt>
      <trkpt lat="43.19270667" lon="-4.32637333">
        <ele>709.0</ele>
        <time>2018-05-19T16:37:47.476Z</time>
      </trkpt>
      <trkpt lat="43.19270667" lon="-4.32637333">
        <ele>709.0</ele>
        <time>2018-05-19T16:37:48.471Z</time>
      </trkpt>
      <trkpt lat="43.19270833" lon="-4.32640833">
        <ele>709.0</ele>
        <time>2018-05-19T16:37:49.482Z</time>
      </trkpt>
      <trkpt lat="43.19270833" lon="-4.32640833">
        <ele>709.0</ele>
        <time>2018-05-19T16:37:50.470Z</time>
      </trkpt>
      <trkpt lat="43.19271333" lon="-4.32644">
        <ele>709.0</ele>
        <time>2018-05-19T16:37:51.473Z</time>
      </trkpt>
      <trkpt lat="43.19271333" lon="-4.32644">
        <ele>709.0</ele>
        <time>2018-05-19T16:37:52.470Z</time>
      </trkpt>
      <trkpt lat="43.19271667" lon="-4.32647">
        <ele>709.0</ele>
        <time>2018-05-19T16:37:53.475Z</time>
      </trkpt>
      <trkpt lat="43.19271667" lon="-4.32647">
        <ele>709.0</ele>
        <time>2018-05-19T16:37:54.470Z</time>
      </trkpt>
      <trkpt lat="43.192725" lon="-4.3265">
        <ele>709.0</ele>
        <time>2018-05-19T16:37:55.472Z</time>
      </trkpt>
      <trkpt lat="43.192725" lon="-4.3265">
        <ele>709.0</ele>
        <time>2018-05-19T16:37:56.470Z</time>
      </trkpt>
      <trkpt lat="43.19274167" lon="-4.32652833">
        <ele>710.0</ele>
        <time>2018-05-19T16:37:57.475Z</time>
      </trkpt>
      <trkpt lat="43.19274167" lon="-4.32652833">
        <ele>710.0</ele>
        <time>2018-05-19T16:37:58.470Z</time>
      </trkpt>
      <trkpt lat="43.19275333" lon="-4.326555">
        <ele>710.0</ele>
        <time>2018-05-19T16:37:59.474Z</time>
      </trkpt>
      <trkpt lat="43.19275333" lon="-4.326555">
        <ele>710.0</ele>
        <time>2018-05-19T16:38:00.469Z</time>
      </trkpt>
      <trkpt lat="43.192765" lon="-4.326585">
        <ele>710.0</ele>
        <time>2018-05-19T16:38:01.476Z</time>
      </trkpt>
      <trkpt lat="43.192765" lon="-4.326585">
        <ele>710.0</ele>
        <time>2018-05-19T16:38:02.470Z</time>
      </trkpt>
      <trkpt lat="43.19277667" lon="-4.326615">
        <ele>710.0</ele>
        <time>2018-05-19T16:38:03.472Z</time>
      </trkpt>
      <trkpt lat="43.19277667" lon="-4.326615">
        <ele>710.0</ele>
        <time>2018-05-19T16:38:04.469Z</time>
      </trkpt>
      <trkpt lat="43.192785" lon="-4.32664">
        <ele>710.0</ele>
        <time>2018-05-19T16:38:05.487Z</time>
      </trkpt>
      <trkpt lat="43.192785" lon="-4.32664">
        <ele>710.0</ele>
        <time>2018-05-19T16:38:06.470Z</time>
      </trkpt>
      <trkpt lat="43.19279167" lon="-4.32664833">
        <ele>710.0</ele>
        <time>2018-05-19T16:38:07.475Z</time>
      </trkpt>
      <trkpt lat="43.19279167" lon="-4.32664833">
        <ele>710.0</ele>
        <time>2018-05-19T16:38:08.472Z</time>
      </trkpt>
      <trkpt lat="43.19279" lon="-4.32664833">
        <ele>710.0</ele>
        <time>2018-05-19T16:38:09.483Z</time>
      </trkpt>
      <trkpt lat="43.19279" lon="-4.32664833">
        <ele>710.0</ele>
        <time>2018-05-19T16:38:10.474Z</time>
      </trkpt>
      <trkpt lat="43.19279" lon="-4.32664833">
        <ele>710.0</ele>
        <time>2018-05-19T16:38:11.481Z</time>
      </trkpt>
      <trkpt lat="43.19280833" lon="-4.32665667">
        <ele>711.0</ele>
        <time>2018-05-19T16:38:12.476Z</time>
      </trkpt>
      <trkpt lat="43.19280833" lon="-4.32665667">
        <ele>711.0</ele>
        <time>2018-05-19T16:38:13.467Z</time>
      </trkpt>
      <trkpt lat="43.192835" lon="-4.32667">
        <ele>711.0</ele>
        <time>2018-05-19T16:38:14.467Z</time>
      </trkpt>
      <trkpt lat="43.192835" lon="-4.32667">
        <ele>711.0</ele>
        <time>2018-05-19T16:38:15.463Z</time>
      </trkpt>
      <trkpt lat="43.19286" lon="-4.32669">
        <ele>711.0</ele>
        <time>2018-05-19T16:38:16.480Z</time>
      </trkpt>
      <trkpt lat="43.19286" lon="-4.32669">
        <ele>711.0</ele>
        <time>2018-05-19T16:38:17.464Z</time>
      </trkpt>
      <trkpt lat="43.19287833" lon="-4.32671833">
        <ele>711.0</ele>
        <time>2018-05-19T16:38:18.469Z</time>
      </trkpt>
      <trkpt lat="43.19287833" lon="-4.32671833">
        <ele>711.0</ele>
        <time>2018-05-19T16:38:19.463Z</time>
      </trkpt>
      <trkpt lat="43.19290667" lon="-4.32674">
        <ele>711.0</ele>
        <time>2018-05-19T16:38:20.469Z</time>
      </trkpt>
      <trkpt lat="43.19291833" lon="-4.32675167">
        <ele>711.0</ele>
        <time>2018-05-19T16:38:21.464Z</time>
      </trkpt>
      <trkpt lat="43.19292833" lon="-4.32676667">
        <ele>711.0</ele>
        <time>2018-05-19T16:38:22.469Z</time>
      </trkpt>
      <trkpt lat="43.19292833" lon="-4.32676667">
        <ele>711.0</ele>
        <time>2018-05-19T16:38:23.464Z</time>
      </trkpt>
      <trkpt lat="43.192945" lon="-4.32679667">
        <ele>711.0</ele>
        <time>2018-05-19T16:38:24.475Z</time>
      </trkpt>
      <trkpt lat="43.19295333" lon="-4.32681167">
        <ele>711.0</ele>
        <time>2018-05-19T16:38:25.448Z</time>
      </trkpt>
      <trkpt lat="43.19295333" lon="-4.32681167">
        <ele>711.0</ele>
        <time>2018-05-19T16:38:26.454Z</time>
      </trkpt>
      <trkpt lat="43.192975" lon="-4.32684167">
        <ele>712.0</ele>
        <time>2018-05-19T16:38:27.467Z</time>
      </trkpt>
      <trkpt lat="43.19298333" lon="-4.32686">
        <ele>712.0</ele>
        <time>2018-05-19T16:38:28.470Z</time>
      </trkpt>
      <trkpt lat="43.19298333" lon="-4.32686">
        <ele>712.0</ele>
        <time>2018-05-19T16:38:29.465Z</time>
      </trkpt>
      <trkpt lat="43.19300333" lon="-4.326895">
        <ele>712.0</ele>
        <time>2018-05-19T16:38:30.469Z</time>
      </trkpt>
      <trkpt lat="43.19301333" lon="-4.32690667">
        <ele>712.0</ele>
        <time>2018-05-19T16:38:31.469Z</time>
      </trkpt>
      <trkpt lat="43.19301333" lon="-4.32690667">
        <ele>712.0</ele>
        <time>2018-05-19T16:38:32.464Z</time>
      </trkpt>
      <trkpt lat="43.19303667" lon="-4.32693333">
        <ele>712.0</ele>
        <time>2018-05-19T16:38:33.469Z</time>
      </trkpt>
      <trkpt lat="43.19304833" lon="-4.32694833">
        <ele>712.0</ele>
        <time>2018-05-19T16:38:34.469Z</time>
      </trkpt>
      <trkpt lat="43.19304833" lon="-4.32694833">
        <ele>712.0</ele>
        <time>2018-05-19T16:38:35.463Z</time>
      </trkpt>
      <trkpt lat="43.19307" lon="-4.32697">
        <ele>712.0</ele>
        <time>2018-05-19T16:38:36.485Z</time>
      </trkpt>
      <trkpt lat="43.19307" lon="-4.32697">
        <ele>712.0</ele>
        <time>2018-05-19T16:38:37.466Z</time>
      </trkpt>
      <trkpt lat="43.19308" lon="-4.32700333">
        <ele>713.0</ele>
        <time>2018-05-19T16:38:38.468Z</time>
      </trkpt>
      <trkpt lat="43.19308" lon="-4.32700333">
        <ele>713.0</ele>
        <time>2018-05-19T16:38:39.462Z</time>
      </trkpt>
      <trkpt lat="43.19310167" lon="-4.327035">
        <ele>713.0</ele>
        <time>2018-05-19T16:38:40.469Z</time>
      </trkpt>
      <trkpt lat="43.19310167" lon="-4.327035">
        <ele>713.0</ele>
        <time>2018-05-19T16:38:41.467Z</time>
      </trkpt>
      <trkpt lat="43.19312333" lon="-4.32706">
        <ele>713.0</ele>
        <time>2018-05-19T16:38:42.468Z</time>
      </trkpt>
      <trkpt lat="43.19313667" lon="-4.327075">
        <ele>714.0</ele>
        <time>2018-05-19T16:38:43.467Z</time>
      </trkpt>
      <trkpt lat="43.19314833" lon="-4.32709">
        <ele>714.0</ele>
        <time>2018-05-19T16:38:44.468Z</time>
      </trkpt>
      <trkpt lat="43.19314833" lon="-4.32709">
        <ele>714.0</ele>
        <time>2018-05-19T16:38:45.462Z</time>
      </trkpt>
      <trkpt lat="43.19317333" lon="-4.327115">
        <ele>714.0</ele>
        <time>2018-05-19T16:38:46.470Z</time>
      </trkpt>
      <trkpt lat="43.19317333" lon="-4.327115">
        <ele>714.0</ele>
        <time>2018-05-19T16:38:47.463Z</time>
      </trkpt>
      <trkpt lat="43.193195" lon="-4.327135">
        <ele>715.0</ele>
        <time>2018-05-19T16:38:48.468Z</time>
      </trkpt>
      <trkpt lat="43.193195" lon="-4.327135">
        <ele>715.0</ele>
        <time>2018-05-19T16:38:49.462Z</time>
      </trkpt>
      <trkpt lat="43.19321833" lon="-4.32715167">
        <ele>715.0</ele>
        <time>2018-05-19T16:38:50.466Z</time>
      </trkpt>
      <trkpt lat="43.19323" lon="-4.32716333">
        <ele>715.0</ele>
        <time>2018-05-19T16:38:51.467Z</time>
      </trkpt>
      <trkpt lat="43.19324167" lon="-4.32717833">
        <ele>715.0</ele>
        <time>2018-05-19T16:38:52.456Z</time>
      </trkpt>
      <trkpt lat="43.19324167" lon="-4.32717833">
        <ele>715.0</ele>
        <time>2018-05-19T16:38:53.465Z</time>
      </trkpt>
      <trkpt lat="43.19325833" lon="-4.32720333">
        <ele>716.0</ele>
        <time>2018-05-19T16:38:54.469Z</time>
      </trkpt>
      <trkpt lat="43.19325833" lon="-4.32720333">
        <ele>716.0</ele>
        <time>2018-05-19T16:38:55.463Z</time>
      </trkpt>
      <trkpt lat="43.19328333" lon="-4.327225">
        <ele>716.0</ele>
        <time>2018-05-19T16:38:56.475Z</time>
      </trkpt>
      <trkpt lat="43.19328333" lon="-4.327225">
        <ele>716.0</ele>
        <time>2018-05-19T16:38:57.464Z</time>
      </trkpt>
      <trkpt lat="43.19331" lon="-4.32724">
        <ele>716.0</ele>
        <time>2018-05-19T16:38:58.470Z</time>
      </trkpt>
      <trkpt lat="43.19331" lon="-4.32724">
        <ele>716.0</ele>
        <time>2018-05-19T16:38:59.462Z</time>
      </trkpt>
      <trkpt lat="43.19332667" lon="-4.32725167">
        <ele>716.0</ele>
        <time>2018-05-19T16:39:00.468Z</time>
      </trkpt>
      <trkpt lat="43.19332667" lon="-4.32725167">
        <ele>716.0</ele>
        <time>2018-05-19T16:39:01.462Z</time>
      </trkpt>
      <trkpt lat="43.19333" lon="-4.32724833">
        <ele>716.0</ele>
        <time>2018-05-19T16:39:02.468Z</time>
      </trkpt>
      <trkpt lat="43.19333" lon="-4.32724833">
        <ele>716.0</ele>
        <time>2018-05-19T16:39:03.462Z</time>
      </trkpt>
      <trkpt lat="43.193345" lon="-4.32725667">
        <ele>716.0</ele>
        <time>2018-05-19T16:39:04.469Z</time>
      </trkpt>
      <trkpt lat="43.193345" lon="-4.32725667">
        <ele>716.0</ele>
        <time>2018-05-19T16:39:05.462Z</time>
      </trkpt>
      <trkpt lat="43.19336333" lon="-4.32727">
        <ele>717.0</ele>
        <time>2018-05-19T16:39:06.468Z</time>
      </trkpt>
      <trkpt lat="43.19336333" lon="-4.32727">
        <ele>717.0</ele>
        <time>2018-05-19T16:39:07.463Z</time>
      </trkpt>
      <trkpt lat="43.19338" lon="-4.32729">
        <ele>717.0</ele>
        <time>2018-05-19T16:39:08.468Z</time>
      </trkpt>
      <trkpt lat="43.19338" lon="-4.32729">
        <ele>717.0</ele>
        <time>2018-05-19T16:39:09.463Z</time>
      </trkpt>
      <trkpt lat="43.193395" lon="-4.327305">
        <ele>717.0</ele>
        <time>2018-05-19T16:39:10.461Z</time>
      </trkpt>
      <trkpt lat="43.1934" lon="-4.327315">
        <ele>718.0</ele>
        <time>2018-05-19T16:39:11.468Z</time>
      </trkpt>
      <trkpt lat="43.19340667" lon="-4.32732333">
        <ele>718.0</ele>
        <time>2018-05-19T16:39:12.466Z</time>
      </trkpt>
      <trkpt lat="43.19340667" lon="-4.32732333">
        <ele>718.0</ele>
        <time>2018-05-19T16:39:13.463Z</time>
      </trkpt>
      <trkpt lat="43.19342" lon="-4.327335">
        <ele>718.0</ele>
        <time>2018-05-19T16:39:14.468Z</time>
      </trkpt>
      <trkpt lat="43.19342" lon="-4.327335">
        <ele>718.0</ele>
        <time>2018-05-19T16:39:15.462Z</time>
      </trkpt>
      <trkpt lat="43.19343333" lon="-4.32734833">
        <ele>719.0</ele>
        <time>2018-05-19T16:39:16.474Z</time>
      </trkpt>
      <trkpt lat="43.19343333" lon="-4.32734833">
        <ele>719.0</ele>
        <time>2018-05-19T16:39:17.465Z</time>
      </trkpt>
      <trkpt lat="43.19344667" lon="-4.32737167">
        <ele>719.0</ele>
        <time>2018-05-19T16:39:18.470Z</time>
      </trkpt>
      <trkpt lat="43.19344667" lon="-4.32737167">
        <ele>719.0</ele>
        <time>2018-05-19T16:39:19.463Z</time>
      </trkpt>
      <trkpt lat="43.19345833" lon="-4.3274">
        <ele>719.0</ele>
        <time>2018-05-19T16:39:20.460Z</time>
      </trkpt>
      <trkpt lat="43.19346333" lon="-4.32741333">
        <ele>719.0</ele>
        <time>2018-05-19T16:39:21.469Z</time>
      </trkpt>
      <trkpt lat="43.19346667" lon="-4.32742667">
        <ele>719.0</ele>
        <time>2018-05-19T16:39:22.470Z</time>
      </trkpt>
      <trkpt lat="43.19346667" lon="-4.32742667">
        <ele>719.0</ele>
        <time>2018-05-19T16:39:23.484Z</time>
      </trkpt>
      <trkpt lat="43.19348333" lon="-4.32744667">
        <ele>719.0</ele>
        <time>2018-05-19T16:39:24.456Z</time>
      </trkpt>
      <trkpt lat="43.19349167" lon="-4.32745667">
        <ele>719.0</ele>
        <time>2018-05-19T16:39:25.463Z</time>
      </trkpt>
      <trkpt lat="43.19349167" lon="-4.32745667">
        <ele>719.0</ele>
        <time>2018-05-19T16:39:26.458Z</time>
      </trkpt>
      <trkpt lat="43.19351167" lon="-4.32747167">
        <ele>720.0</ele>
        <time>2018-05-19T16:39:27.467Z</time>
      </trkpt>
      <trkpt lat="43.19352" lon="-4.32748">
        <ele>720.0</ele>
        <time>2018-05-19T16:39:28.472Z</time>
      </trkpt>
      <trkpt lat="43.19352667" lon="-4.32749">
        <ele>720.0</ele>
        <time>2018-05-19T16:39:29.482Z</time>
      </trkpt>
      <trkpt lat="43.19352667" lon="-4.32749">
        <ele>720.0</ele>
        <time>2018-05-19T16:39:30.465Z</time>
      </trkpt>
      <trkpt lat="43.19355333" lon="-4.3275">
        <ele>720.0</ele>
        <time>2018-05-19T16:39:31.468Z</time>
      </trkpt>
      <trkpt lat="43.19355333" lon="-4.3275">
        <ele>720.0</ele>
        <time>2018-05-19T16:39:32.463Z</time>
      </trkpt>
      <trkpt lat="43.193575" lon="-4.327515">
        <ele>720.0</ele>
        <time>2018-05-19T16:39:33.468Z</time>
      </trkpt>
      <trkpt lat="43.19358333" lon="-4.327525">
        <ele>720.0</ele>
        <time>2018-05-19T16:39:34.469Z</time>
      </trkpt>
      <trkpt lat="43.19358333" lon="-4.327525">
        <ele>720.0</ele>
        <time>2018-05-19T16:39:35.462Z</time>
      </trkpt>
      <trkpt lat="43.19361" lon="-4.32753167">
        <ele>720.0</ele>
        <time>2018-05-19T16:39:36.468Z</time>
      </trkpt>
      <trkpt lat="43.19361" lon="-4.32753167">
        <ele>720.0</ele>
        <time>2018-05-19T16:39:37.462Z</time>
      </trkpt>
      <trkpt lat="43.193635" lon="-4.32754333">
        <ele>720.0</ele>
        <time>2018-05-19T16:39:38.465Z</time>
      </trkpt>
      <trkpt lat="43.193635" lon="-4.32754333">
        <ele>720.0</ele>
        <time>2018-05-19T16:39:39.462Z</time>
      </trkpt>
      <trkpt lat="43.19366333" lon="-4.32755167">
        <ele>721.0</ele>
        <time>2018-05-19T16:39:40.473Z</time>
      </trkpt>
      <trkpt lat="43.19366333" lon="-4.32755167">
        <ele>721.0</ele>
        <time>2018-05-19T16:39:41.465Z</time>
      </trkpt>
      <trkpt lat="43.19369333" lon="-4.32754667">
        <ele>721.0</ele>
        <time>2018-05-19T16:39:42.469Z</time>
      </trkpt>
      <trkpt lat="43.19369333" lon="-4.32754667">
        <ele>721.0</ele>
        <time>2018-05-19T16:39:43.463Z</time>
      </trkpt>
      <trkpt lat="43.19371833" lon="-4.32755">
        <ele>721.0</ele>
        <time>2018-05-19T16:39:44.468Z</time>
      </trkpt>
      <trkpt lat="43.19371833" lon="-4.32755">
        <ele>721.0</ele>
        <time>2018-05-19T16:39:45.463Z</time>
      </trkpt>
      <trkpt lat="43.19374667" lon="-4.32755167">
        <ele>721.0</ele>
        <time>2018-05-19T16:39:46.480Z</time>
      </trkpt>
      <trkpt lat="43.19374667" lon="-4.32755167">
        <ele>721.0</ele>
        <time>2018-05-19T16:39:47.462Z</time>
      </trkpt>
      <trkpt lat="43.19377333" lon="-4.32755333">
        <ele>721.0</ele>
        <time>2018-05-19T16:39:48.468Z</time>
      </trkpt>
      <trkpt lat="43.19377333" lon="-4.32755333">
        <ele>721.0</ele>
        <time>2018-05-19T16:39:49.462Z</time>
      </trkpt>
      <trkpt lat="43.19380167" lon="-4.32755333">
        <ele>722.0</ele>
        <time>2018-05-19T16:39:50.467Z</time>
      </trkpt>
      <trkpt lat="43.19380167" lon="-4.32755333">
        <ele>722.0</ele>
        <time>2018-05-19T16:39:51.466Z</time>
      </trkpt>
      <trkpt lat="43.19383167" lon="-4.32755167">
        <ele>721.0</ele>
        <time>2018-05-19T16:39:52.485Z</time>
      </trkpt>
      <trkpt lat="43.19383167" lon="-4.32755167">
        <ele>721.0</ele>
        <time>2018-05-19T16:39:53.487Z</time>
      </trkpt>
      <trkpt lat="43.19386167" lon="-4.32755167">
        <ele>722.0</ele>
        <time>2018-05-19T16:39:54.486Z</time>
      </trkpt>
      <trkpt lat="43.19386167" lon="-4.32755167">
        <ele>722.0</ele>
        <time>2018-05-19T16:39:55.467Z</time>
      </trkpt>
      <trkpt lat="43.19389" lon="-4.32755667">
        <ele>722.0</ele>
        <time>2018-05-19T16:39:56.474Z</time>
      </trkpt>
      <trkpt lat="43.19389" lon="-4.32755667">
        <ele>722.0</ele>
        <time>2018-05-19T16:39:57.462Z</time>
      </trkpt>
      <trkpt lat="43.19392167" lon="-4.32755333">
        <ele>722.0</ele>
        <time>2018-05-19T16:39:58.468Z</time>
      </trkpt>
      <trkpt lat="43.19392167" lon="-4.32755333">
        <ele>722.0</ele>
        <time>2018-05-19T16:39:59.473Z</time>
      </trkpt>
      <trkpt lat="43.19395167" lon="-4.32755167">
        <ele>722.0</ele>
        <time>2018-05-19T16:40:00.474Z</time>
      </trkpt>
      <trkpt lat="43.19395167" lon="-4.32755167">
        <ele>722.0</ele>
        <time>2018-05-19T16:40:01.463Z</time>
      </trkpt>
      <trkpt lat="43.19398167" lon="-4.327555">
        <ele>721.0</ele>
        <time>2018-05-19T16:40:02.468Z</time>
      </trkpt>
      <trkpt lat="43.193995" lon="-4.32755833">
        <ele>721.0</ele>
        <time>2018-05-19T16:40:03.467Z</time>
      </trkpt>
      <trkpt lat="43.194005" lon="-4.32756667">
        <ele>721.0</ele>
        <time>2018-05-19T16:40:04.468Z</time>
      </trkpt>
      <trkpt lat="43.194005" lon="-4.32756667">
        <ele>721.0</ele>
        <time>2018-05-19T16:40:05.464Z</time>
      </trkpt>
      <trkpt lat="43.19402833" lon="-4.32757833">
        <ele>721.0</ele>
        <time>2018-05-19T16:40:06.476Z</time>
      </trkpt>
      <trkpt lat="43.19402833" lon="-4.32757833">
        <ele>721.0</ele>
        <time>2018-05-19T16:40:07.473Z</time>
      </trkpt>
      <trkpt lat="43.19405333" lon="-4.32758833">
        <ele>722.0</ele>
        <time>2018-05-19T16:40:08.468Z</time>
      </trkpt>
      <trkpt lat="43.19405333" lon="-4.32758833">
        <ele>722.0</ele>
        <time>2018-05-19T16:40:09.464Z</time>
      </trkpt>
      <trkpt lat="43.194075" lon="-4.327605">
        <ele>722.0</ele>
        <time>2018-05-19T16:40:10.468Z</time>
      </trkpt>
      <trkpt lat="43.194075" lon="-4.327605">
        <ele>722.0</ele>
        <time>2018-05-19T16:40:11.462Z</time>
      </trkpt>
      <trkpt lat="43.19409333" lon="-4.32762">
        <ele>722.0</ele>
        <time>2018-05-19T16:40:12.468Z</time>
      </trkpt>
      <trkpt lat="43.19409333" lon="-4.32762">
        <ele>722.0</ele>
        <time>2018-05-19T16:40:13.462Z</time>
      </trkpt>
      <trkpt lat="43.19411" lon="-4.32763667">
        <ele>723.0</ele>
        <time>2018-05-19T16:40:14.468Z</time>
      </trkpt>
      <trkpt lat="43.19411" lon="-4.32763667">
        <ele>723.0</ele>
        <time>2018-05-19T16:40:15.462Z</time>
      </trkpt>
      <trkpt lat="43.19413167" lon="-4.32764333">
        <ele>723.0</ele>
        <time>2018-05-19T16:40:16.470Z</time>
      </trkpt>
      <trkpt lat="43.19413167" lon="-4.32764333">
        <ele>723.0</ele>
        <time>2018-05-19T16:40:17.462Z</time>
      </trkpt>
      <trkpt lat="43.19415" lon="-4.32766">
        <ele>723.0</ele>
        <time>2018-05-19T16:40:18.468Z</time>
      </trkpt>
      <trkpt lat="43.19415" lon="-4.32766">
        <ele>723.0</ele>
        <time>2018-05-19T16:40:19.463Z</time>
      </trkpt>
      <trkpt lat="43.19417167" lon="-4.32767333">
        <ele>724.0</ele>
        <time>2018-05-19T16:40:20.466Z</time>
      </trkpt>
      <trkpt lat="43.19417167" lon="-4.32767333">
        <ele>724.0</ele>
        <time>2018-05-19T16:40:21.462Z</time>
      </trkpt>
      <trkpt lat="43.19419" lon="-4.32769167">
        <ele>724.0</ele>
        <time>2018-05-19T16:40:22.470Z</time>
      </trkpt>
      <trkpt lat="43.19419" lon="-4.32769167">
        <ele>724.0</ele>
        <time>2018-05-19T16:40:23.464Z</time>
      </trkpt>
      <trkpt lat="43.19421" lon="-4.32770833">
        <ele>724.0</ele>
        <time>2018-05-19T16:40:24.475Z</time>
      </trkpt>
      <trkpt lat="43.19422" lon="-4.32771833">
        <ele>724.0</ele>
        <time>2018-05-19T16:40:25.485Z</time>
      </trkpt>
      <trkpt lat="43.19422" lon="-4.32771833">
        <ele>724.0</ele>
        <time>2018-05-19T16:40:26.454Z</time>
      </trkpt>
      <trkpt lat="43.19424" lon="-4.32773667">
        <ele>724.0</ele>
        <time>2018-05-19T16:40:27.469Z</time>
      </trkpt>
      <trkpt lat="43.19425167" lon="-4.327745">
        <ele>725.0</ele>
        <time>2018-05-19T16:40:28.470Z</time>
      </trkpt>
      <trkpt lat="43.19425167" lon="-4.327745">
        <ele>725.0</ele>
        <time>2018-05-19T16:40:29.472Z</time>
      </trkpt>
      <trkpt lat="43.19427167" lon="-4.32776">
        <ele>725.0</ele>
        <time>2018-05-19T16:40:30.470Z</time>
      </trkpt>
      <trkpt lat="43.19427167" lon="-4.32776">
        <ele>725.0</ele>
        <time>2018-05-19T16:40:31.463Z</time>
      </trkpt>
      <trkpt lat="43.19429333" lon="-4.32777833">
        <ele>725.0</ele>
        <time>2018-05-19T16:40:32.469Z</time>
      </trkpt>
      <trkpt lat="43.19430167" lon="-4.32779167">
        <ele>725.0</ele>
        <time>2018-05-19T16:40:33.469Z</time>
      </trkpt>
      <trkpt lat="43.19431167" lon="-4.32780167">
        <ele>725.0</ele>
        <time>2018-05-19T16:40:34.469Z</time>
      </trkpt>
      <trkpt lat="43.194325" lon="-4.32780833">
        <ele>725.0</ele>
        <time>2018-05-19T16:40:35.481Z</time>
      </trkpt>
      <trkpt lat="43.194325" lon="-4.32780833">
        <ele>725.0</ele>
        <time>2018-05-19T16:40:36.473Z</time>
      </trkpt>
      <trkpt lat="43.19435" lon="-4.32782833">
        <ele>725.0</ele>
        <time>2018-05-19T16:40:37.467Z</time>
      </trkpt>
      <trkpt lat="43.19436833" lon="-4.32783167">
        <ele>725.0</ele>
        <time>2018-05-19T16:40:38.468Z</time>
      </trkpt>
      <trkpt lat="43.19436833" lon="-4.32783167">
        <ele>725.0</ele>
        <time>2018-05-19T16:40:39.462Z</time>
      </trkpt>
      <trkpt lat="43.19439333" lon="-4.32783833">
        <ele>725.0</ele>
        <time>2018-05-19T16:40:40.469Z</time>
      </trkpt>
      <trkpt lat="43.19439333" lon="-4.32783833">
        <ele>725.0</ele>
        <time>2018-05-19T16:40:41.466Z</time>
      </trkpt>
      <trkpt lat="43.19441167" lon="-4.32785833">
        <ele>725.0</ele>
        <time>2018-05-19T16:40:42.468Z</time>
      </trkpt>
      <trkpt lat="43.19441167" lon="-4.32785833">
        <ele>725.0</ele>
        <time>2018-05-19T16:40:43.462Z</time>
      </trkpt>
      <trkpt lat="43.194435" lon="-4.32787667">
        <ele>725.0</ele>
        <time>2018-05-19T16:40:44.467Z</time>
      </trkpt>
      <trkpt lat="43.194435" lon="-4.32787667">
        <ele>725.0</ele>
        <time>2018-05-19T16:40:45.472Z</time>
      </trkpt>
      <trkpt lat="43.19445833" lon="-4.32788833">
        <ele>726.0</ele>
        <time>2018-05-19T16:40:46.474Z</time>
      </trkpt>
      <trkpt lat="43.19445833" lon="-4.32788833">
        <ele>726.0</ele>
        <time>2018-05-19T16:40:47.462Z</time>
      </trkpt>
      <trkpt lat="43.19448" lon="-4.327905">
        <ele>726.0</ele>
        <time>2018-05-19T16:40:48.468Z</time>
      </trkpt>
      <trkpt lat="43.19448" lon="-4.327905">
        <ele>726.0</ele>
        <time>2018-05-19T16:40:49.462Z</time>
      </trkpt>
      <trkpt lat="43.19450167" lon="-4.32792">
        <ele>726.0</ele>
        <time>2018-05-19T16:40:50.477Z</time>
      </trkpt>
      <trkpt lat="43.19451333" lon="-4.32792833">
        <ele>726.0</ele>
        <time>2018-05-19T16:40:51.468Z</time>
      </trkpt>
      <trkpt lat="43.19451333" lon="-4.32792833">
        <ele>726.0</ele>
        <time>2018-05-19T16:40:52.448Z</time>
      </trkpt>
      <trkpt lat="43.194535" lon="-4.32794333">
        <ele>726.0</ele>
        <time>2018-05-19T16:40:53.482Z</time>
      </trkpt>
      <trkpt lat="43.194545" lon="-4.32795333">
        <ele>726.0</ele>
        <time>2018-05-19T16:40:54.469Z</time>
      </trkpt>
      <trkpt lat="43.194545" lon="-4.32795333">
        <ele>726.0</ele>
        <time>2018-05-19T16:40:55.493Z</time>
      </trkpt>
      <trkpt lat="43.19456667" lon="-4.32797167">
        <ele>727.0</ele>
        <time>2018-05-19T16:40:56.481Z</time>
      </trkpt>
      <trkpt lat="43.19457667" lon="-4.32798">
        <ele>727.0</ele>
        <time>2018-05-19T16:40:57.467Z</time>
      </trkpt>
      <trkpt lat="43.19457667" lon="-4.32798">
        <ele>727.0</ele>
        <time>2018-05-19T16:40:58.464Z</time>
      </trkpt>
      <trkpt lat="43.19460167" lon="-4.32799333">
        <ele>727.0</ele>
        <time>2018-05-19T16:40:59.467Z</time>
      </trkpt>
      <trkpt lat="43.19461167" lon="-4.32800167">
        <ele>727.0</ele>
        <time>2018-05-19T16:41:00.468Z</time>
      </trkpt>
      <trkpt lat="43.19461167" lon="-4.32800167">
        <ele>727.0</ele>
        <time>2018-05-19T16:41:01.467Z</time>
      </trkpt>
      <trkpt lat="43.194635" lon="-4.32801833">
        <ele>727.0</ele>
        <time>2018-05-19T16:41:02.467Z</time>
      </trkpt>
      <trkpt lat="43.194635" lon="-4.32801833">
        <ele>727.0</ele>
        <time>2018-05-19T16:41:03.462Z</time>
      </trkpt>
      <trkpt lat="43.194655" lon="-4.32803833">
        <ele>727.0</ele>
        <time>2018-05-19T16:41:04.468Z</time>
      </trkpt>
      <trkpt lat="43.194655" lon="-4.32803833">
        <ele>727.0</ele>
        <time>2018-05-19T16:41:05.470Z</time>
      </trkpt>
      <trkpt lat="43.19467833" lon="-4.32806167">
        <ele>727.0</ele>
        <time>2018-05-19T16:41:06.474Z</time>
      </trkpt>
      <trkpt lat="43.19467833" lon="-4.32806167">
        <ele>727.0</ele>
        <time>2018-05-19T16:41:07.465Z</time>
      </trkpt>
      <trkpt lat="43.1947" lon="-4.32808167">
        <ele>727.0</ele>
        <time>2018-05-19T16:41:08.467Z</time>
      </trkpt>
      <trkpt lat="43.1947" lon="-4.32808167">
        <ele>727.0</ele>
        <time>2018-05-19T16:41:09.466Z</time>
      </trkpt>
      <trkpt lat="43.19472333" lon="-4.3281">
        <ele>727.0</ele>
        <time>2018-05-19T16:41:10.466Z</time>
      </trkpt>
      <trkpt lat="43.19472333" lon="-4.3281">
        <ele>727.0</ele>
        <time>2018-05-19T16:41:11.462Z</time>
      </trkpt>
      <trkpt lat="43.194745" lon="-4.32812">
        <ele>728.0</ele>
        <time>2018-05-19T16:41:12.468Z</time>
      </trkpt>
      <trkpt lat="43.194745" lon="-4.32812">
        <ele>728.0</ele>
        <time>2018-05-19T16:41:13.461Z</time>
      </trkpt>
      <trkpt lat="43.19476667" lon="-4.32814">
        <ele>728.0</ele>
        <time>2018-05-19T16:41:14.468Z</time>
      </trkpt>
      <trkpt lat="43.19476667" lon="-4.32814">
        <ele>728.0</ele>
        <time>2018-05-19T16:41:15.462Z</time>
      </trkpt>
      <trkpt lat="43.19478333" lon="-4.32816333">
        <ele>728.0</ele>
        <time>2018-05-19T16:41:16.474Z</time>
      </trkpt>
      <trkpt lat="43.19478333" lon="-4.32816333">
        <ele>728.0</ele>
        <time>2018-05-19T16:41:17.464Z</time>
      </trkpt>
      <trkpt lat="43.1948" lon="-4.32818667">
        <ele>729.0</ele>
        <time>2018-05-19T16:41:18.466Z</time>
      </trkpt>
      <trkpt lat="43.1948" lon="-4.32818667">
        <ele>729.0</ele>
        <time>2018-05-19T16:41:19.464Z</time>
      </trkpt>
      <trkpt lat="43.19481667" lon="-4.32821">
        <ele>729.0</ele>
        <time>2018-05-19T16:41:20.468Z</time>
      </trkpt>
      <trkpt lat="43.19481667" lon="-4.32821">
        <ele>729.0</ele>
        <time>2018-05-19T16:41:21.482Z</time>
      </trkpt>
      <trkpt lat="43.194835" lon="-4.32823333">
        <ele>730.0</ele>
        <time>2018-05-19T16:41:22.469Z</time>
      </trkpt>
      <trkpt lat="43.194835" lon="-4.32823333">
        <ele>730.0</ele>
        <time>2018-05-19T16:41:23.482Z</time>
      </trkpt>
      <trkpt lat="43.19485" lon="-4.32826333">
        <ele>730.0</ele>
        <time>2018-05-19T16:41:24.455Z</time>
      </trkpt>
      <trkpt lat="43.19485833" lon="-4.32828">
        <ele>730.0</ele>
        <time>2018-05-19T16:41:25.460Z</time>
      </trkpt>
      <trkpt lat="43.19485833" lon="-4.32828">
        <ele>730.0</ele>
        <time>2018-05-19T16:41:26.466Z</time>
      </trkpt>
      <trkpt lat="43.19488" lon="-4.32830333">
        <ele>730.0</ele>
        <time>2018-05-19T16:41:27.472Z</time>
      </trkpt>
      <trkpt lat="43.19489167" lon="-4.32830833">
        <ele>731.0</ele>
        <time>2018-05-19T16:41:28.483Z</time>
      </trkpt>
      <trkpt lat="43.19489167" lon="-4.32830833">
        <ele>731.0</ele>
        <time>2018-05-19T16:41:29.471Z</time>
      </trkpt>
      <trkpt lat="43.19492667" lon="-4.32833167">
        <ele>731.0</ele>
        <time>2018-05-19T16:41:30.469Z</time>
      </trkpt>
      <trkpt lat="43.19492667" lon="-4.32833167">
        <ele>731.0</ele>
        <time>2018-05-19T16:41:31.481Z</time>
      </trkpt>
      <trkpt lat="43.194935" lon="-4.328365">
        <ele>732.0</ele>
        <time>2018-05-19T16:41:32.467Z</time>
      </trkpt>
      <trkpt lat="43.194935" lon="-4.328365">
        <ele>732.0</ele>
        <time>2018-05-19T16:41:33.462Z</time>
      </trkpt>
      <trkpt lat="43.19494833" lon="-4.32838667">
        <ele>732.0</ele>
        <time>2018-05-19T16:41:34.469Z</time>
      </trkpt>
      <trkpt lat="43.19494833" lon="-4.32838667">
        <ele>732.0</ele>
        <time>2018-05-19T16:41:35.468Z</time>
      </trkpt>
      <trkpt lat="43.19496333" lon="-4.3284">
        <ele>732.0</ele>
        <time>2018-05-19T16:41:36.474Z</time>
      </trkpt>
      <trkpt lat="43.19496333" lon="-4.3284">
        <ele>732.0</ele>
        <time>2018-05-19T16:41:37.466Z</time>
      </trkpt>
      <trkpt lat="43.19498167" lon="-4.32842167">
        <ele>733.0</ele>
        <time>2018-05-19T16:41:38.467Z</time>
      </trkpt>
      <trkpt lat="43.19498167" lon="-4.32842167">
        <ele>733.0</ele>
        <time>2018-05-19T16:41:39.462Z</time>
      </trkpt>
      <trkpt lat="43.194995" lon="-4.328445">
        <ele>733.0</ele>
        <time>2018-05-19T16:41:40.468Z</time>
      </trkpt>
      <trkpt lat="43.194995" lon="-4.328445">
        <ele>733.0</ele>
        <time>2018-05-19T16:41:41.468Z</time>
      </trkpt>
      <trkpt lat="43.195015" lon="-4.32846167">
        <ele>734.0</ele>
        <time>2018-05-19T16:41:42.469Z</time>
      </trkpt>
      <trkpt lat="43.195015" lon="-4.32846167">
        <ele>734.0</ele>
        <time>2018-05-19T16:41:43.463Z</time>
      </trkpt>
      <trkpt lat="43.195035" lon="-4.32847833">
        <ele>734.0</ele>
        <time>2018-05-19T16:41:44.482Z</time>
      </trkpt>
      <trkpt lat="43.195035" lon="-4.32847833">
        <ele>734.0</ele>
        <time>2018-05-19T16:41:45.472Z</time>
      </trkpt>
      <trkpt lat="43.19505333" lon="-4.32849333">
        <ele>735.0</ele>
        <time>2018-05-19T16:41:46.470Z</time>
      </trkpt>
      <trkpt lat="43.19505333" lon="-4.32849333">
        <ele>735.0</ele>
        <time>2018-05-19T16:41:47.462Z</time>
      </trkpt>
      <trkpt lat="43.19507333" lon="-4.32851167">
        <ele>735.0</ele>
        <time>2018-05-19T16:41:48.469Z</time>
      </trkpt>
      <trkpt lat="43.19507333" lon="-4.32851167">
        <ele>735.0</ele>
        <time>2018-05-19T16:41:49.467Z</time>
      </trkpt>
      <trkpt lat="43.19509167" lon="-4.32853">
        <ele>736.0</ele>
        <time>2018-05-19T16:41:50.466Z</time>
      </trkpt>
      <trkpt lat="43.1951" lon="-4.32854">
        <ele>736.0</ele>
        <time>2018-05-19T16:41:51.468Z</time>
      </trkpt>
      <trkpt lat="43.19510833" lon="-4.32855167">
        <ele>736.0</ele>
        <time>2018-05-19T16:41:52.481Z</time>
      </trkpt>
      <trkpt lat="43.19510833" lon="-4.32855167">
        <ele>736.0</ele>
        <time>2018-05-19T16:41:53.468Z</time>
      </trkpt>
      <trkpt lat="43.19511667" lon="-4.32858">
        <ele>736.0</ele>
        <time>2018-05-19T16:41:54.468Z</time>
      </trkpt>
      <trkpt lat="43.19511667" lon="-4.32858">
        <ele>736.0</ele>
        <time>2018-05-19T16:41:55.465Z</time>
      </trkpt>
      <trkpt lat="43.19513333" lon="-4.32860167">
        <ele>736.0</ele>
        <time>2018-05-19T16:41:56.473Z</time>
      </trkpt>
      <trkpt lat="43.19513333" lon="-4.32860167">
        <ele>736.0</ele>
        <time>2018-05-19T16:41:57.462Z</time>
      </trkpt>
      <trkpt lat="43.19514833" lon="-4.32862333">
        <ele>736.0</ele>
        <time>2018-05-19T16:41:58.470Z</time>
      </trkpt>
      <trkpt lat="43.19514833" lon="-4.32862333">
        <ele>736.0</ele>
        <time>2018-05-19T16:41:59.461Z</time>
      </trkpt>
      <trkpt lat="43.19517" lon="-4.32864667">
        <ele>737.0</ele>
        <time>2018-05-19T16:42:00.467Z</time>
      </trkpt>
      <trkpt lat="43.19517" lon="-4.32864667">
        <ele>737.0</ele>
        <time>2018-05-19T16:42:01.461Z</time>
      </trkpt>
      <trkpt lat="43.19518667" lon="-4.32866333">
        <ele>737.0</ele>
        <time>2018-05-19T16:42:02.466Z</time>
      </trkpt>
      <trkpt lat="43.19519833" lon="-4.328675">
        <ele>737.0</ele>
        <time>2018-05-19T16:42:03.467Z</time>
      </trkpt>
      <trkpt lat="43.19520667" lon="-4.328685">
        <ele>737.0</ele>
        <time>2018-05-19T16:42:04.468Z</time>
      </trkpt>
      <trkpt lat="43.19520667" lon="-4.328685">
        <ele>737.0</ele>
        <time>2018-05-19T16:42:05.462Z</time>
      </trkpt>
      <trkpt lat="43.19522" lon="-4.328705">
        <ele>737.0</ele>
        <time>2018-05-19T16:42:06.475Z</time>
      </trkpt>
      <trkpt lat="43.19522" lon="-4.328705">
        <ele>737.0</ele>
        <time>2018-05-19T16:42:07.463Z</time>
      </trkpt>
      <trkpt lat="43.19523333" lon="-4.32872667">
        <ele>737.0</ele>
        <time>2018-05-19T16:42:08.468Z</time>
      </trkpt>
      <trkpt lat="43.19524667" lon="-4.32874">
        <ele>737.0</ele>
        <time>2018-05-19T16:42:09.469Z</time>
      </trkpt>
      <trkpt lat="43.19524667" lon="-4.32874">
        <ele>737.0</ele>
        <time>2018-05-19T16:42:10.465Z</time>
      </trkpt>
      <trkpt lat="43.19526333" lon="-4.32875833">
        <ele>738.0</ele>
        <time>2018-05-19T16:42:11.466Z</time>
      </trkpt>
      <trkpt lat="43.19527167" lon="-4.328765">
        <ele>738.0</ele>
        <time>2018-05-19T16:42:12.467Z</time>
      </trkpt>
      <trkpt lat="43.19527167" lon="-4.328765">
        <ele>738.0</ele>
        <time>2018-05-19T16:42:13.462Z</time>
      </trkpt>
      <trkpt lat="43.19529167" lon="-4.32878333">
        <ele>738.0</ele>
        <time>2018-05-19T16:42:14.466Z</time>
      </trkpt>
      <trkpt lat="43.19529167" lon="-4.32878333">
        <ele>738.0</ele>
        <time>2018-05-19T16:42:15.469Z</time>
      </trkpt>
      <trkpt lat="43.19531" lon="-4.32880167">
        <ele>739.0</ele>
        <time>2018-05-19T16:42:16.474Z</time>
      </trkpt>
      <trkpt lat="43.19531" lon="-4.32880167">
        <ele>739.0</ele>
        <time>2018-05-19T16:42:17.461Z</time>
      </trkpt>
      <trkpt lat="43.19532" lon="-4.32882833">
        <ele>739.0</ele>
        <time>2018-05-19T16:42:18.467Z</time>
      </trkpt>
      <trkpt lat="43.19532" lon="-4.32882833">
        <ele>739.0</ele>
        <time>2018-05-19T16:42:19.466Z</time>
      </trkpt>
      <trkpt lat="43.19533667" lon="-4.32884833">
        <ele>740.0</ele>
        <time>2018-05-19T16:42:20.474Z</time>
      </trkpt>
      <trkpt lat="43.19533667" lon="-4.32884833">
        <ele>740.0</ele>
        <time>2018-05-19T16:42:21.462Z</time>
      </trkpt>
      <trkpt lat="43.19535333" lon="-4.32886833">
        <ele>740.0</ele>
        <time>2018-05-19T16:42:22.468Z</time>
      </trkpt>
      <trkpt lat="43.19535333" lon="-4.32886833">
        <ele>740.0</ele>
        <time>2018-05-19T16:42:23.474Z</time>
      </trkpt>
      <trkpt lat="43.195365" lon="-4.328895">
        <ele>741.0</ele>
        <time>2018-05-19T16:42:24.487Z</time>
      </trkpt>
      <trkpt lat="43.195365" lon="-4.328895">
        <ele>741.0</ele>
        <time>2018-05-19T16:42:25.453Z</time>
      </trkpt>
      <trkpt lat="43.19538333" lon="-4.32891833">
        <ele>741.0</ele>
        <time>2018-05-19T16:42:26.476Z</time>
      </trkpt>
      <trkpt lat="43.19538333" lon="-4.32891833">
        <ele>741.0</ele>
        <time>2018-05-19T16:42:27.486Z</time>
      </trkpt>
      <trkpt lat="43.19539833" lon="-4.32894333">
        <ele>741.0</ele>
        <time>2018-05-19T16:42:28.475Z</time>
      </trkpt>
      <trkpt lat="43.19539833" lon="-4.32894333">
        <ele>741.0</ele>
        <time>2018-05-19T16:42:29.468Z</time>
      </trkpt>
      <trkpt lat="43.19541667" lon="-4.32895833">
        <ele>742.0</ele>
        <time>2018-05-19T16:42:30.469Z</time>
      </trkpt>
      <trkpt lat="43.19541667" lon="-4.32895833">
        <ele>742.0</ele>
        <time>2018-05-19T16:42:31.473Z</time>
      </trkpt>
      <trkpt lat="43.19544167" lon="-4.32897167">
        <ele>742.0</ele>
        <time>2018-05-19T16:42:32.468Z</time>
      </trkpt>
      <trkpt lat="43.19545333" lon="-4.32898">
        <ele>742.0</ele>
        <time>2018-05-19T16:42:33.465Z</time>
      </trkpt>
      <trkpt lat="43.19546167" lon="-4.32898667">
        <ele>742.0</ele>
        <time>2018-05-19T16:42:34.469Z</time>
      </trkpt>
      <trkpt lat="43.19546167" lon="-4.32898667">
        <ele>742.0</ele>
        <time>2018-05-19T16:42:35.473Z</time>
      </trkpt>
      <trkpt lat="43.19547167" lon="-4.32900333">
        <ele>742.0</ele>
        <time>2018-05-19T16:42:36.481Z</time>
      </trkpt>
      <trkpt lat="43.19547167" lon="-4.32900333">
        <ele>742.0</ele>
        <time>2018-05-19T16:42:37.465Z</time>
      </trkpt>
      <trkpt lat="43.19549667" lon="-4.32901667">
        <ele>742.0</ele>
        <time>2018-05-19T16:42:38.467Z</time>
      </trkpt>
      <trkpt lat="43.19549667" lon="-4.32901667">
        <ele>742.0</ele>
        <time>2018-05-19T16:42:39.462Z</time>
      </trkpt>
      <trkpt lat="43.195515" lon="-4.32903667">
        <ele>742.0</ele>
        <time>2018-05-19T16:42:40.468Z</time>
      </trkpt>
      <trkpt lat="43.19552333" lon="-4.32904667">
        <ele>743.0</ele>
        <time>2018-05-19T16:42:41.474Z</time>
      </trkpt>
      <trkpt lat="43.19552333" lon="-4.32904667">
        <ele>743.0</ele>
        <time>2018-05-19T16:42:42.462Z</time>
      </trkpt>
      <trkpt lat="43.19554667" lon="-4.32906333">
        <ele>743.0</ele>
        <time>2018-05-19T16:42:43.466Z</time>
      </trkpt>
      <trkpt lat="43.19554667" lon="-4.32906333">
        <ele>743.0</ele>
        <time>2018-05-19T16:42:44.462Z</time>
      </trkpt>
      <trkpt lat="43.19557167" lon="-4.329075">
        <ele>744.0</ele>
        <time>2018-05-19T16:42:45.466Z</time>
      </trkpt>
      <trkpt lat="43.19558167" lon="-4.32907833">
        <ele>744.0</ele>
        <time>2018-05-19T16:42:46.474Z</time>
      </trkpt>
      <trkpt lat="43.19558167" lon="-4.32907833">
        <ele>744.0</ele>
        <time>2018-05-19T16:42:47.465Z</time>
      </trkpt>
      <trkpt lat="43.1956" lon="-4.329095">
        <ele>744.0</ele>
        <time>2018-05-19T16:42:48.469Z</time>
      </trkpt>
      <trkpt lat="43.1956" lon="-4.329095">
        <ele>744.0</ele>
        <time>2018-05-19T16:42:49.463Z</time>
      </trkpt>
      <trkpt lat="43.19561833" lon="-4.32910833">
        <ele>744.0</ele>
        <time>2018-05-19T16:42:50.468Z</time>
      </trkpt>
      <trkpt lat="43.19561833" lon="-4.32910833">
        <ele>744.0</ele>
        <time>2018-05-19T16:42:51.461Z</time>
      </trkpt>
      <trkpt lat="43.19563833" lon="-4.32912167">
        <ele>744.0</ele>
        <time>2018-05-19T16:42:52.482Z</time>
      </trkpt>
      <trkpt lat="43.19563833" lon="-4.32912167">
        <ele>744.0</ele>
        <time>2018-05-19T16:42:53.469Z</time>
      </trkpt>
      <trkpt lat="43.19566" lon="-4.32913833">
        <ele>745.0</ele>
        <time>2018-05-19T16:42:54.469Z</time>
      </trkpt>
      <trkpt lat="43.19566" lon="-4.32913833">
        <ele>745.0</ele>
        <time>2018-05-19T16:42:55.464Z</time>
      </trkpt>
      <trkpt lat="43.19568167" lon="-4.32915167">
        <ele>745.0</ele>
        <time>2018-05-19T16:42:56.468Z</time>
      </trkpt>
      <trkpt lat="43.19569333" lon="-4.32915667">
        <ele>745.0</ele>
        <time>2018-05-19T16:42:57.468Z</time>
      </trkpt>
      <trkpt lat="43.19569333" lon="-4.32915667">
        <ele>745.0</ele>
        <time>2018-05-19T16:42:58.465Z</time>
      </trkpt>
      <trkpt lat="43.19571333" lon="-4.329175">
        <ele>746.0</ele>
        <time>2018-05-19T16:42:59.469Z</time>
      </trkpt>
      <trkpt lat="43.19572333" lon="-4.32918333">
        <ele>746.0</ele>
        <time>2018-05-19T16:43:00.467Z</time>
      </trkpt>
      <trkpt lat="43.19572333" lon="-4.32918333">
        <ele>746.0</ele>
        <time>2018-05-19T16:43:01.461Z</time>
      </trkpt>
      <trkpt lat="43.19574833" lon="-4.32919667">
        <ele>746.0</ele>
        <time>2018-05-19T16:43:02.466Z</time>
      </trkpt>
      <trkpt lat="43.19576" lon="-4.32920667">
        <ele>746.0</ele>
        <time>2018-05-19T16:43:03.469Z</time>
      </trkpt>
      <trkpt lat="43.19576" lon="-4.32920667">
        <ele>746.0</ele>
        <time>2018-05-19T16:43:04.463Z</time>
      </trkpt>
      <trkpt lat="43.195785" lon="-4.32921667">
        <ele>747.0</ele>
        <time>2018-05-19T16:43:05.466Z</time>
      </trkpt>
      <trkpt lat="43.19579667" lon="-4.32922333">
        <ele>747.0</ele>
        <time>2018-05-19T16:43:06.467Z</time>
      </trkpt>
      <trkpt lat="43.19579667" lon="-4.32922333">
        <ele>747.0</ele>
        <time>2018-05-19T16:43:07.462Z</time>
      </trkpt>
      <trkpt lat="43.19581333" lon="-4.32924333">
        <ele>747.0</ele>
        <time>2018-05-19T16:43:08.466Z</time>
      </trkpt>
      <trkpt lat="43.19581333" lon="-4.32924333">
        <ele>747.0</ele>
        <time>2018-05-19T16:43:09.462Z</time>
      </trkpt>
      <trkpt lat="43.195835" lon="-4.32925833">
        <ele>748.0</ele>
        <time>2018-05-19T16:43:10.468Z</time>
      </trkpt>
      <trkpt lat="43.195835" lon="-4.32925833">
        <ele>748.0</ele>
        <time>2018-05-19T16:43:11.461Z</time>
      </trkpt>
      <trkpt lat="43.19586" lon="-4.329275">
        <ele>748.0</ele>
        <time>2018-05-19T16:43:12.466Z</time>
      </trkpt>
      <trkpt lat="43.19586" lon="-4.329275">
        <ele>748.0</ele>
        <time>2018-05-19T16:43:13.462Z</time>
      </trkpt>
      <trkpt lat="43.19588167" lon="-4.329295">
        <ele>748.0</ele>
        <time>2018-05-19T16:43:14.466Z</time>
      </trkpt>
      <trkpt lat="43.19588167" lon="-4.329295">
        <ele>748.0</ele>
        <time>2018-05-19T16:43:15.470Z</time>
      </trkpt>
      <trkpt lat="43.19590833" lon="-4.32930167">
        <ele>748.0</ele>
        <time>2018-05-19T16:43:16.466Z</time>
      </trkpt>
      <trkpt lat="43.19590833" lon="-4.32930167">
        <ele>748.0</ele>
        <time>2018-05-19T16:43:17.462Z</time>
      </trkpt>
      <trkpt lat="43.19593667" lon="-4.32930833">
        <ele>749.0</ele>
        <time>2018-05-19T16:43:18.465Z</time>
      </trkpt>
      <trkpt lat="43.19594833" lon="-4.329315">
        <ele>749.0</ele>
        <time>2018-05-19T16:43:19.468Z</time>
      </trkpt>
      <trkpt lat="43.19595833" lon="-4.32932167">
        <ele>749.0</ele>
        <time>2018-05-19T16:43:20.471Z</time>
      </trkpt>
      <trkpt lat="43.19595833" lon="-4.32932167">
        <ele>749.0</ele>
        <time>2018-05-19T16:43:21.463Z</time>
      </trkpt>
      <trkpt lat="43.19598" lon="-4.32933667">
        <ele>749.0</ele>
        <time>2018-05-19T16:43:22.473Z</time>
      </trkpt>
      <trkpt lat="43.19599167" lon="-4.32934667">
        <ele>749.0</ele>
        <time>2018-05-19T16:43:23.473Z</time>
      </trkpt>
      <trkpt lat="43.19599167" lon="-4.32934667">
        <ele>749.0</ele>
        <time>2018-05-19T16:43:24.486Z</time>
      </trkpt>
      <trkpt lat="43.196015" lon="-4.32936">
        <ele>750.0</ele>
        <time>2018-05-19T16:43:25.456Z</time>
      </trkpt>
      <trkpt lat="43.196015" lon="-4.32936">
        <ele>750.0</ele>
        <time>2018-05-19T16:43:26.479Z</time>
      </trkpt>
      <trkpt lat="43.19603833" lon="-4.32937667">
        <ele>750.0</ele>
        <time>2018-05-19T16:43:27.485Z</time>
      </trkpt>
      <trkpt lat="43.19604833" lon="-4.329385">
        <ele>750.0</ele>
        <time>2018-05-19T16:43:28.468Z</time>
      </trkpt>
      <trkpt lat="43.19604833" lon="-4.329385">
        <ele>750.0</ele>
        <time>2018-05-19T16:43:29.462Z</time>
      </trkpt>
      <trkpt lat="43.19607167" lon="-4.32940167">
        <ele>750.0</ele>
        <time>2018-05-19T16:43:30.481Z</time>
      </trkpt>
      <trkpt lat="43.19607167" lon="-4.32940167">
        <ele>750.0</ele>
        <time>2018-05-19T16:43:31.465Z</time>
      </trkpt>
      <trkpt lat="43.19609333" lon="-4.329415">
        <ele>750.0</ele>
        <time>2018-05-19T16:43:32.468Z</time>
      </trkpt>
      <trkpt lat="43.196105" lon="-4.32942167">
        <ele>750.0</ele>
        <time>2018-05-19T16:43:33.465Z</time>
      </trkpt>
      <trkpt lat="43.196105" lon="-4.32942167">
        <ele>750.0</ele>
        <time>2018-05-19T16:43:34.462Z</time>
      </trkpt>
      <trkpt lat="43.19613" lon="-4.329435">
        <ele>750.0</ele>
        <time>2018-05-19T16:43:35.467Z</time>
      </trkpt>
      <trkpt lat="43.19614167" lon="-4.32944333">
        <ele>751.0</ele>
        <time>2018-05-19T16:43:36.478Z</time>
      </trkpt>
      <trkpt lat="43.19614167" lon="-4.32944333">
        <ele>751.0</ele>
        <time>2018-05-19T16:43:37.461Z</time>
      </trkpt>
      <trkpt lat="43.19616333" lon="-4.32945667">
        <ele>751.0</ele>
        <time>2018-05-19T16:43:38.467Z</time>
      </trkpt>
      <trkpt lat="43.19616333" lon="-4.32945667">
        <ele>751.0</ele>
        <time>2018-05-19T16:43:39.461Z</time>
      </trkpt>
      <trkpt lat="43.19618333" lon="-4.32947333">
        <ele>751.0</ele>
        <time>2018-05-19T16:43:40.468Z</time>
      </trkpt>
      <trkpt lat="43.19618333" lon="-4.32947333">
        <ele>751.0</ele>
        <time>2018-05-19T16:43:41.469Z</time>
      </trkpt>
      <trkpt lat="43.196205" lon="-4.32948667">
        <ele>751.0</ele>
        <time>2018-05-19T16:43:42.476Z</time>
      </trkpt>
      <trkpt lat="43.196205" lon="-4.32948667">
        <ele>751.0</ele>
        <time>2018-05-19T16:43:43.495Z</time>
      </trkpt>
      <trkpt lat="43.19622667" lon="-4.329495">
        <ele>751.0</ele>
        <time>2018-05-19T16:43:44.468Z</time>
      </trkpt>
      <trkpt lat="43.19622667" lon="-4.329495">
        <ele>751.0</ele>
        <time>2018-05-19T16:43:45.470Z</time>
      </trkpt>
      <trkpt lat="43.19624833" lon="-4.3295">
        <ele>752.0</ele>
        <time>2018-05-19T16:43:46.475Z</time>
      </trkpt>
      <trkpt lat="43.19624833" lon="-4.3295">
        <ele>752.0</ele>
        <time>2018-05-19T16:43:47.462Z</time>
      </trkpt>
      <trkpt lat="43.19627167" lon="-4.32950667">
        <ele>752.0</ele>
        <time>2018-05-19T16:43:48.467Z</time>
      </trkpt>
      <trkpt lat="43.19627167" lon="-4.32950667">
        <ele>752.0</ele>
        <time>2018-05-19T16:43:49.463Z</time>
      </trkpt>
      <trkpt lat="43.19629333" lon="-4.32951167">
        <ele>752.0</ele>
        <time>2018-05-19T16:43:50.468Z</time>
      </trkpt>
      <trkpt lat="43.19629333" lon="-4.32951167">
        <ele>752.0</ele>
        <time>2018-05-19T16:43:51.461Z</time>
      </trkpt>
      <trkpt lat="43.19631667" lon="-4.32952">
        <ele>752.0</ele>
        <time>2018-05-19T16:43:52.486Z</time>
      </trkpt>
      <trkpt lat="43.19631667" lon="-4.32952">
        <ele>752.0</ele>
        <time>2018-05-19T16:43:53.466Z</time>
      </trkpt>
      <trkpt lat="43.19634" lon="-4.32953333">
        <ele>753.0</ele>
        <time>2018-05-19T16:43:54.467Z</time>
      </trkpt>
      <trkpt lat="43.19634" lon="-4.32953333">
        <ele>753.0</ele>
        <time>2018-05-19T16:43:55.462Z</time>
      </trkpt>
      <trkpt lat="43.19636167" lon="-4.329545">
        <ele>753.0</ele>
        <time>2018-05-19T16:43:56.480Z</time>
      </trkpt>
      <trkpt lat="43.19636167" lon="-4.329545">
        <ele>753.0</ele>
        <time>2018-05-19T16:43:57.468Z</time>
      </trkpt>
      <trkpt lat="43.19638333" lon="-4.32955833">
        <ele>753.0</ele>
        <time>2018-05-19T16:43:58.469Z</time>
      </trkpt>
      <trkpt lat="43.19638333" lon="-4.32955833">
        <ele>753.0</ele>
        <time>2018-05-19T16:43:59.462Z</time>
      </trkpt>
      <trkpt lat="43.196405" lon="-4.32957167">
        <ele>753.0</ele>
        <time>2018-05-19T16:44:00.467Z</time>
      </trkpt>
      <trkpt lat="43.196405" lon="-4.32957167">
        <ele>753.0</ele>
        <time>2018-05-19T16:44:01.461Z</time>
      </trkpt>
      <trkpt lat="43.19642667" lon="-4.329585">
        <ele>754.0</ele>
        <time>2018-05-19T16:44:02.483Z</time>
      </trkpt>
      <trkpt lat="43.19642667" lon="-4.329585">
        <ele>754.0</ele>
        <time>2018-05-19T16:44:03.470Z</time>
      </trkpt>
      <trkpt lat="43.19644833" lon="-4.32959833">
        <ele>754.0</ele>
        <time>2018-05-19T16:44:04.467Z</time>
      </trkpt>
      <trkpt lat="43.19644833" lon="-4.32959833">
        <ele>754.0</ele>
        <time>2018-05-19T16:44:05.462Z</time>
      </trkpt>
      <trkpt lat="43.19646833" lon="-4.32961167">
        <ele>754.0</ele>
        <time>2018-05-19T16:44:06.479Z</time>
      </trkpt>
      <trkpt lat="43.19646833" lon="-4.32961167">
        <ele>754.0</ele>
        <time>2018-05-19T16:44:07.461Z</time>
      </trkpt>
      <trkpt lat="43.19649" lon="-4.329625">
        <ele>754.0</ele>
        <time>2018-05-19T16:44:08.467Z</time>
      </trkpt>
      <trkpt lat="43.1965" lon="-4.32963167">
        <ele>754.0</ele>
        <time>2018-05-19T16:44:09.466Z</time>
      </trkpt>
      <trkpt lat="43.1965" lon="-4.32963167">
        <ele>754.0</ele>
        <time>2018-05-19T16:44:10.464Z</time>
      </trkpt>
      <trkpt lat="43.19651833" lon="-4.32964667">
        <ele>755.0</ele>
        <time>2018-05-19T16:44:11.466Z</time>
      </trkpt>
      <trkpt lat="43.19652833" lon="-4.32965333">
        <ele>755.0</ele>
        <time>2018-05-19T16:44:12.477Z</time>
      </trkpt>
      <trkpt lat="43.19652833" lon="-4.32965333">
        <ele>755.0</ele>
        <time>2018-05-19T16:44:13.463Z</time>
      </trkpt>
      <trkpt lat="43.19655333" lon="-4.32966">
        <ele>755.0</ele>
        <time>2018-05-19T16:44:14.467Z</time>
      </trkpt>
      <trkpt lat="43.19655333" lon="-4.32966">
        <ele>755.0</ele>
        <time>2018-05-19T16:44:15.462Z</time>
      </trkpt>
      <trkpt lat="43.196575" lon="-4.32966833">
        <ele>755.0</ele>
        <time>2018-05-19T16:44:16.468Z</time>
      </trkpt>
      <trkpt lat="43.196575" lon="-4.32966833">
        <ele>755.0</ele>
        <time>2018-05-19T16:44:17.469Z</time>
      </trkpt>
      <trkpt lat="43.19659333" lon="-4.32967667">
        <ele>755.0</ele>
        <time>2018-05-19T16:44:18.474Z</time>
      </trkpt>
      <trkpt lat="43.19659333" lon="-4.32967667">
        <ele>755.0</ele>
        <time>2018-05-19T16:44:19.463Z</time>
      </trkpt>
      <trkpt lat="43.19661333" lon="-4.32968333">
        <ele>755.0</ele>
        <time>2018-05-19T16:44:20.467Z</time>
      </trkpt>
      <trkpt lat="43.19661333" lon="-4.32968333">
        <ele>755.0</ele>
        <time>2018-05-19T16:44:21.464Z</time>
      </trkpt>
      <trkpt lat="43.19663667" lon="-4.32969">
        <ele>756.0</ele>
        <time>2018-05-19T16:44:22.465Z</time>
      </trkpt>
      <trkpt lat="43.19664667" lon="-4.329695">
        <ele>756.0</ele>
        <time>2018-05-19T16:44:23.485Z</time>
      </trkpt>
      <trkpt lat="43.19664667" lon="-4.329695">
        <ele>756.0</ele>
        <time>2018-05-19T16:44:24.456Z</time>
      </trkpt>
      <trkpt lat="43.196665" lon="-4.32970333">
        <ele>756.0</ele>
        <time>2018-05-19T16:44:25.461Z</time>
      </trkpt>
      <trkpt lat="43.196665" lon="-4.32970333">
        <ele>756.0</ele>
        <time>2018-05-19T16:44:26.455Z</time>
      </trkpt>
      <trkpt lat="43.19668333" lon="-4.329715">
        <ele>756.0</ele>
        <time>2018-05-19T16:44:27.466Z</time>
      </trkpt>
      <trkpt lat="43.19669333" lon="-4.32972">
        <ele>756.0</ele>
        <time>2018-05-19T16:44:28.467Z</time>
      </trkpt>
      <trkpt lat="43.19669333" lon="-4.32972">
        <ele>756.0</ele>
        <time>2018-05-19T16:44:29.462Z</time>
      </trkpt>
      <trkpt lat="43.19671333" lon="-4.32973167">
        <ele>756.0</ele>
        <time>2018-05-19T16:44:30.482Z</time>
      </trkpt>
      <trkpt lat="43.19671333" lon="-4.32973167">
        <ele>756.0</ele>
        <time>2018-05-19T16:44:31.473Z</time>
      </trkpt>
      <trkpt lat="43.196735" lon="-4.32974167">
        <ele>757.0</ele>
        <time>2018-05-19T16:44:32.468Z</time>
      </trkpt>
      <trkpt lat="43.196735" lon="-4.32974167">
        <ele>757.0</ele>
        <time>2018-05-19T16:44:33.464Z</time>
      </trkpt>
      <trkpt lat="43.196755" lon="-4.32975">
        <ele>757.0</ele>
        <time>2018-05-19T16:44:34.479Z</time>
      </trkpt>
      <trkpt lat="43.196755" lon="-4.32975">
        <ele>757.0</ele>
        <time>2018-05-19T16:44:35.464Z</time>
      </trkpt>
      <trkpt lat="43.19677333" lon="-4.32976167">
        <ele>757.0</ele>
        <time>2018-05-19T16:44:36.479Z</time>
      </trkpt>
      <trkpt lat="43.19677333" lon="-4.32976167">
        <ele>757.0</ele>
        <time>2018-05-19T16:44:37.461Z</time>
      </trkpt>
      <trkpt lat="43.196795" lon="-4.32977">
        <ele>757.0</ele>
        <time>2018-05-19T16:44:38.467Z</time>
      </trkpt>
      <trkpt lat="43.196795" lon="-4.32977">
        <ele>757.0</ele>
        <time>2018-05-19T16:44:39.464Z</time>
      </trkpt>
      <trkpt lat="43.19681833" lon="-4.32977833">
        <ele>758.0</ele>
        <time>2018-05-19T16:44:40.467Z</time>
      </trkpt>
      <trkpt lat="43.19681833" lon="-4.32977833">
        <ele>758.0</ele>
        <time>2018-05-19T16:44:41.462Z</time>
      </trkpt>
      <trkpt lat="43.19684167" lon="-4.32978667">
        <ele>758.0</ele>
        <time>2018-05-19T16:44:42.467Z</time>
      </trkpt>
      <trkpt lat="43.19684167" lon="-4.32978667">
        <ele>758.0</ele>
        <time>2018-05-19T16:44:43.463Z</time>
      </trkpt>
      <trkpt lat="43.196865" lon="-4.32979667">
        <ele>758.0</ele>
        <time>2018-05-19T16:44:44.466Z</time>
      </trkpt>
      <trkpt lat="43.196865" lon="-4.32979667">
        <ele>758.0</ele>
        <time>2018-05-19T16:44:45.462Z</time>
      </trkpt>
      <trkpt lat="43.196885" lon="-4.32980167">
        <ele>758.0</ele>
        <time>2018-05-19T16:44:46.480Z</time>
      </trkpt>
      <trkpt lat="43.196885" lon="-4.32980167">
        <ele>758.0</ele>
        <time>2018-05-19T16:44:47.465Z</time>
      </trkpt>
      <trkpt lat="43.19691333" lon="-4.32981">
        <ele>758.0</ele>
        <time>2018-05-19T16:44:48.468Z</time>
      </trkpt>
      <trkpt lat="43.19691333" lon="-4.32981">
        <ele>758.0</ele>
        <time>2018-05-19T16:44:49.461Z</time>
      </trkpt>
      <trkpt lat="43.19693667" lon="-4.32981167">
        <ele>759.0</ele>
        <time>2018-05-19T16:44:50.467Z</time>
      </trkpt>
      <trkpt lat="43.19693667" lon="-4.32981167">
        <ele>759.0</ele>
        <time>2018-05-19T16:44:51.460Z</time>
      </trkpt>
      <trkpt lat="43.19696167" lon="-4.32982">
        <ele>759.0</ele>
        <time>2018-05-19T16:44:52.480Z</time>
      </trkpt>
      <trkpt lat="43.19696167" lon="-4.32982">
        <ele>759.0</ele>
        <time>2018-05-19T16:44:53.465Z</time>
      </trkpt>
      <trkpt lat="43.19698167" lon="-4.32983">
        <ele>759.0</ele>
        <time>2018-05-19T16:44:54.466Z</time>
      </trkpt>
      <trkpt lat="43.19698167" lon="-4.32983">
        <ele>759.0</ele>
        <time>2018-05-19T16:44:55.464Z</time>
      </trkpt>
      <trkpt lat="43.197005" lon="-4.32983833">
        <ele>760.0</ele>
        <time>2018-05-19T16:44:56.475Z</time>
      </trkpt>
      <trkpt lat="43.197015" lon="-4.32984167">
        <ele>760.0</ele>
        <time>2018-05-19T16:44:57.466Z</time>
      </trkpt>
      <trkpt lat="43.197015" lon="-4.32984167">
        <ele>760.0</ele>
        <time>2018-05-19T16:44:58.463Z</time>
      </trkpt>
      <trkpt lat="43.19703333" lon="-4.32985">
        <ele>760.0</ele>
        <time>2018-05-19T16:44:59.466Z</time>
      </trkpt>
      <trkpt lat="43.19704333" lon="-4.329855">
        <ele>760.0</ele>
        <time>2018-05-19T16:45:00.467Z</time>
      </trkpt>
      <trkpt lat="43.19705667" lon="-4.32985667">
        <ele>761.0</ele>
        <time>2018-05-19T16:45:01.467Z</time>
      </trkpt>
      <trkpt lat="43.19705667" lon="-4.32985667">
        <ele>761.0</ele>
        <time>2018-05-19T16:45:02.461Z</time>
      </trkpt>
      <trkpt lat="43.19707667" lon="-4.32986167">
        <ele>761.0</ele>
        <time>2018-05-19T16:45:03.458Z</time>
      </trkpt>
      <trkpt lat="43.19709" lon="-4.32986333">
        <ele>761.0</ele>
        <time>2018-05-19T16:45:04.467Z</time>
      </trkpt>
      <trkpt lat="43.19709" lon="-4.32986333">
        <ele>761.0</ele>
        <time>2018-05-19T16:45:05.469Z</time>
      </trkpt>
      <trkpt lat="43.19711333" lon="-4.32987333">
        <ele>762.0</ele>
        <time>2018-05-19T16:45:06.479Z</time>
      </trkpt>
      <trkpt lat="43.19711333" lon="-4.32987333">
        <ele>762.0</ele>
        <time>2018-05-19T16:45:07.461Z</time>
      </trkpt>
      <trkpt lat="43.19713833" lon="-4.329875">
        <ele>762.0</ele>
        <time>2018-05-19T16:45:08.466Z</time>
      </trkpt>
      <trkpt lat="43.19715" lon="-4.32987833">
        <ele>762.0</ele>
        <time>2018-05-19T16:45:09.467Z</time>
      </trkpt>
      <trkpt lat="43.19716333" lon="-4.32988">
        <ele>762.0</ele>
        <time>2018-05-19T16:45:10.467Z</time>
      </trkpt>
      <trkpt lat="43.19716333" lon="-4.32988">
        <ele>762.0</ele>
        <time>2018-05-19T16:45:11.462Z</time>
      </trkpt>
      <trkpt lat="43.19719" lon="-4.32987833">
        <ele>763.0</ele>
        <time>2018-05-19T16:45:12.467Z</time>
      </trkpt>
      <trkpt lat="43.19719" lon="-4.32987833">
        <ele>763.0</ele>
        <time>2018-05-19T16:45:13.474Z</time>
      </trkpt>
      <trkpt lat="43.19721667" lon="-4.32987833">
        <ele>763.0</ele>
        <time>2018-05-19T16:45:14.482Z</time>
      </trkpt>
      <trkpt lat="43.19723" lon="-4.32987833">
        <ele>763.0</ele>
        <time>2018-05-19T16:45:15.471Z</time>
      </trkpt>
      <trkpt lat="43.19723" lon="-4.32987833">
        <ele>763.0</ele>
        <time>2018-05-19T16:45:16.474Z</time>
      </trkpt>
      <trkpt lat="43.19725333" lon="-4.329875">
        <ele>763.0</ele>
        <time>2018-05-19T16:45:17.466Z</time>
      </trkpt>
      <trkpt lat="43.19726833" lon="-4.329875">
        <ele>763.0</ele>
        <time>2018-05-19T16:45:18.468Z</time>
      </trkpt>
      <trkpt lat="43.19726833" lon="-4.329875">
        <ele>763.0</ele>
        <time>2018-05-19T16:45:19.463Z</time>
      </trkpt>
      <trkpt lat="43.19729667" lon="-4.32987333">
        <ele>764.0</ele>
        <time>2018-05-19T16:45:20.471Z</time>
      </trkpt>
      <trkpt lat="43.19729667" lon="-4.32987333">
        <ele>764.0</ele>
        <time>2018-05-19T16:45:21.462Z</time>
      </trkpt>
      <trkpt lat="43.19732167" lon="-4.329875">
        <ele>765.0</ele>
        <time>2018-05-19T16:45:22.466Z</time>
      </trkpt>
      <trkpt lat="43.19732167" lon="-4.329875">
        <ele>765.0</ele>
        <time>2018-05-19T16:45:23.450Z</time>
      </trkpt>
      <trkpt lat="43.19734167" lon="-4.32987833">
        <ele>765.0</ele>
        <time>2018-05-19T16:45:24.461Z</time>
      </trkpt>
      <trkpt lat="43.19735" lon="-4.32988167">
        <ele>766.0</ele>
        <time>2018-05-19T16:45:25.467Z</time>
      </trkpt>
      <trkpt lat="43.19735" lon="-4.32988167">
        <ele>766.0</ele>
        <time>2018-05-19T16:45:26.455Z</time>
      </trkpt>
      <trkpt lat="43.19737" lon="-4.32988667">
        <ele>766.0</ele>
        <time>2018-05-19T16:45:27.461Z</time>
      </trkpt>
      <trkpt lat="43.19737" lon="-4.32988667">
        <ele>766.0</ele>
        <time>2018-05-19T16:45:28.470Z</time>
      </trkpt>
      <trkpt lat="43.19739167" lon="-4.32988667">
        <ele>766.0</ele>
        <time>2018-05-19T16:45:29.479Z</time>
      </trkpt>
      <trkpt lat="43.19740167" lon="-4.32988667">
        <ele>767.0</ele>
        <time>2018-05-19T16:45:30.473Z</time>
      </trkpt>
      <trkpt lat="43.19740167" lon="-4.32988667">
        <ele>767.0</ele>
        <time>2018-05-19T16:45:31.458Z</time>
      </trkpt>
      <trkpt lat="43.197425" lon="-4.329885">
        <ele>767.0</ele>
        <time>2018-05-19T16:45:32.466Z</time>
      </trkpt>
      <trkpt lat="43.19743667" lon="-4.32988333">
        <ele>767.0</ele>
        <time>2018-05-19T16:45:33.468Z</time>
      </trkpt>
      <trkpt lat="43.19744667" lon="-4.32988333">
        <ele>767.0</ele>
        <time>2018-05-19T16:45:34.468Z</time>
      </trkpt>
      <trkpt lat="43.19744667" lon="-4.32988333">
        <ele>767.0</ele>
        <time>2018-05-19T16:45:35.469Z</time>
      </trkpt>
      <trkpt lat="43.19746833" lon="-4.32988">
        <ele>767.0</ele>
        <time>2018-05-19T16:45:36.481Z</time>
      </trkpt>
      <trkpt lat="43.19746833" lon="-4.32988">
        <ele>767.0</ele>
        <time>2018-05-19T16:45:37.466Z</time>
      </trkpt>
      <trkpt lat="43.19749" lon="-4.32987667">
        <ele>768.0</ele>
        <time>2018-05-19T16:45:38.467Z</time>
      </trkpt>
      <trkpt lat="43.19749" lon="-4.32987667">
        <ele>768.0</ele>
        <time>2018-05-19T16:45:39.461Z</time>
      </trkpt>
      <trkpt lat="43.19751" lon="-4.329875">
        <ele>768.0</ele>
        <time>2018-05-19T16:45:40.464Z</time>
      </trkpt>
      <trkpt lat="43.19751" lon="-4.329875">
        <ele>768.0</ele>
        <time>2018-05-19T16:45:41.461Z</time>
      </trkpt>
      <trkpt lat="43.19753167" lon="-4.32987667">
        <ele>768.0</ele>
        <time>2018-05-19T16:45:42.467Z</time>
      </trkpt>
      <trkpt lat="43.19753167" lon="-4.32987667">
        <ele>768.0</ele>
        <time>2018-05-19T16:45:43.463Z</time>
      </trkpt>
      <trkpt lat="43.19755333" lon="-4.32987333">
        <ele>769.0</ele>
        <time>2018-05-19T16:45:44.466Z</time>
      </trkpt>
      <trkpt lat="43.19755333" lon="-4.32987333">
        <ele>769.0</ele>
        <time>2018-05-19T16:45:45.463Z</time>
      </trkpt>
      <trkpt lat="43.197575" lon="-4.32987333">
        <ele>769.0</ele>
        <time>2018-05-19T16:45:46.474Z</time>
      </trkpt>
      <trkpt lat="43.197575" lon="-4.32987333">
        <ele>769.0</ele>
        <time>2018-05-19T16:45:47.465Z</time>
      </trkpt>
      <trkpt lat="43.19759667" lon="-4.329875">
        <ele>769.0</ele>
        <time>2018-05-19T16:45:48.469Z</time>
      </trkpt>
      <trkpt lat="43.19759667" lon="-4.329875">
        <ele>769.0</ele>
        <time>2018-05-19T16:45:49.463Z</time>
      </trkpt>
      <trkpt lat="43.19761833" lon="-4.32987167">
        <ele>769.0</ele>
        <time>2018-05-19T16:45:50.466Z</time>
      </trkpt>
      <trkpt lat="43.19761833" lon="-4.32987167">
        <ele>769.0</ele>
        <time>2018-05-19T16:45:51.460Z</time>
      </trkpt>
      <trkpt lat="43.197635" lon="-4.32986833">
        <ele>769.0</ele>
        <time>2018-05-19T16:45:52.482Z</time>
      </trkpt>
      <trkpt lat="43.197635" lon="-4.32986833">
        <ele>769.0</ele>
        <time>2018-05-19T16:45:53.468Z</time>
      </trkpt>
      <trkpt lat="43.197655" lon="-4.32986167">
        <ele>770.0</ele>
        <time>2018-05-19T16:45:54.467Z</time>
      </trkpt>
      <trkpt lat="43.197655" lon="-4.32986167">
        <ele>770.0</ele>
        <time>2018-05-19T16:45:55.462Z</time>
      </trkpt>
      <trkpt lat="43.19767667" lon="-4.32985833">
        <ele>770.0</ele>
        <time>2018-05-19T16:45:56.480Z</time>
      </trkpt>
      <trkpt lat="43.19767667" lon="-4.32985833">
        <ele>770.0</ele>
        <time>2018-05-19T16:45:57.463Z</time>
      </trkpt>
      <trkpt lat="43.1977" lon="-4.32985667">
        <ele>770.0</ele>
        <time>2018-05-19T16:45:58.467Z</time>
      </trkpt>
      <trkpt lat="43.19771333" lon="-4.329855">
        <ele>770.0</ele>
        <time>2018-05-19T16:45:59.467Z</time>
      </trkpt>
      <trkpt lat="43.19772333" lon="-4.329855">
        <ele>770.0</ele>
        <time>2018-05-19T16:46:00.467Z</time>
      </trkpt>
      <trkpt lat="43.19772333" lon="-4.329855">
        <ele>770.0</ele>
        <time>2018-05-19T16:46:01.461Z</time>
      </trkpt>
      <trkpt lat="43.19774833" lon="-4.32984833">
        <ele>770.0</ele>
        <time>2018-05-19T16:46:02.466Z</time>
      </trkpt>
      <trkpt lat="43.19776" lon="-4.32984667">
        <ele>770.0</ele>
        <time>2018-05-19T16:46:03.466Z</time>
      </trkpt>
      <trkpt lat="43.19776" lon="-4.32984667">
        <ele>770.0</ele>
        <time>2018-05-19T16:46:04.464Z</time>
      </trkpt>
      <trkpt lat="43.19778833" lon="-4.32984167">
        <ele>770.0</ele>
        <time>2018-05-19T16:46:05.489Z</time>
      </trkpt>
      <trkpt lat="43.1978" lon="-4.32983833">
        <ele>771.0</ele>
        <time>2018-05-19T16:46:06.467Z</time>
      </trkpt>
      <trkpt lat="43.1978" lon="-4.32983833">
        <ele>771.0</ele>
        <time>2018-05-19T16:46:07.464Z</time>
      </trkpt>
      <trkpt lat="43.19782167" lon="-4.329835">
        <ele>771.0</ele>
        <time>2018-05-19T16:46:08.468Z</time>
      </trkpt>
      <trkpt lat="43.19782167" lon="-4.329835">
        <ele>771.0</ele>
        <time>2018-05-19T16:46:09.464Z</time>
      </trkpt>
      <trkpt lat="43.19784833" lon="-4.32983167">
        <ele>771.0</ele>
        <time>2018-05-19T16:46:10.468Z</time>
      </trkpt>
      <trkpt lat="43.19784833" lon="-4.32983167">
        <ele>771.0</ele>
        <time>2018-05-19T16:46:11.463Z</time>
      </trkpt>
      <trkpt lat="43.19786833" lon="-4.32982667">
        <ele>772.0</ele>
        <time>2018-05-19T16:46:12.466Z</time>
      </trkpt>
      <trkpt lat="43.19786833" lon="-4.32982667">
        <ele>772.0</ele>
        <time>2018-05-19T16:46:13.463Z</time>
      </trkpt>
      <trkpt lat="43.19789167" lon="-4.32982667">
        <ele>772.0</ele>
        <time>2018-05-19T16:46:14.467Z</time>
      </trkpt>
      <trkpt lat="43.19789167" lon="-4.32982667">
        <ele>772.0</ele>
        <time>2018-05-19T16:46:15.462Z</time>
      </trkpt>
      <trkpt lat="43.19791667" lon="-4.329825">
        <ele>772.0</ele>
        <time>2018-05-19T16:46:16.480Z</time>
      </trkpt>
      <trkpt lat="43.19791667" lon="-4.329825">
        <ele>772.0</ele>
        <time>2018-05-19T16:46:17.466Z</time>
      </trkpt>
      <trkpt lat="43.19794167" lon="-4.32982">
        <ele>772.0</ele>
        <time>2018-05-19T16:46:18.467Z</time>
      </trkpt>
      <trkpt lat="43.19794167" lon="-4.32982">
        <ele>772.0</ele>
        <time>2018-05-19T16:46:19.461Z</time>
      </trkpt>
      <trkpt lat="43.19796667" lon="-4.32981333">
        <ele>772.0</ele>
        <time>2018-05-19T16:46:20.466Z</time>
      </trkpt>
      <trkpt lat="43.19796667" lon="-4.32981333">
        <ele>772.0</ele>
        <time>2018-05-19T16:46:21.463Z</time>
      </trkpt>
      <trkpt lat="43.19799167" lon="-4.32980833">
        <ele>773.0</ele>
        <time>2018-05-19T16:46:22.467Z</time>
      </trkpt>
      <trkpt lat="43.19799167" lon="-4.32980833">
        <ele>773.0</ele>
        <time>2018-05-19T16:46:23.483Z</time>
      </trkpt>
      <trkpt lat="43.19801833" lon="-4.32981">
        <ele>773.0</ele>
        <time>2018-05-19T16:46:24.455Z</time>
      </trkpt>
      <trkpt lat="43.19801833" lon="-4.32981">
        <ele>773.0</ele>
        <time>2018-05-19T16:46:25.460Z</time>
      </trkpt>
      <trkpt lat="43.19804333" lon="-4.329805">
        <ele>773.0</ele>
        <time>2018-05-19T16:46:26.465Z</time>
      </trkpt>
      <trkpt lat="43.19804333" lon="-4.329805">
        <ele>773.0</ele>
        <time>2018-05-19T16:46:27.474Z</time>
      </trkpt>
      <trkpt lat="43.19806833" lon="-4.32979667">
        <ele>774.0</ele>
        <time>2018-05-19T16:46:28.467Z</time>
      </trkpt>
      <trkpt lat="43.19806833" lon="-4.32979667">
        <ele>774.0</ele>
        <time>2018-05-19T16:46:29.473Z</time>
      </trkpt>
      <trkpt lat="43.19809333" lon="-4.32979">
        <ele>774.0</ele>
        <time>2018-05-19T16:46:30.467Z</time>
      </trkpt>
      <trkpt lat="43.19809333" lon="-4.32979">
        <ele>774.0</ele>
        <time>2018-05-19T16:46:31.464Z</time>
      </trkpt>
      <trkpt lat="43.19812" lon="-4.32978167">
        <ele>774.0</ele>
        <time>2018-05-19T16:46:32.467Z</time>
      </trkpt>
      <trkpt lat="43.19813" lon="-4.32977667">
        <ele>775.0</ele>
        <time>2018-05-19T16:46:33.465Z</time>
      </trkpt>
      <trkpt lat="43.19813" lon="-4.32977667">
        <ele>775.0</ele>
        <time>2018-05-19T16:46:34.463Z</time>
      </trkpt>
      <trkpt lat="43.19815667" lon="-4.32977">
        <ele>775.0</ele>
        <time>2018-05-19T16:46:35.465Z</time>
      </trkpt>
      <trkpt lat="43.19817" lon="-4.32976667">
        <ele>775.0</ele>
        <time>2018-05-19T16:46:36.474Z</time>
      </trkpt>
      <trkpt lat="43.19817" lon="-4.32976667">
        <ele>775.0</ele>
        <time>2018-05-19T16:46:37.462Z</time>
      </trkpt>
      <trkpt lat="43.198195" lon="-4.32975833">
        <ele>775.0</ele>
        <time>2018-05-19T16:46:38.466Z</time>
      </trkpt>
      <trkpt lat="43.198195" lon="-4.32975833">
        <ele>775.0</ele>
        <time>2018-05-19T16:46:39.463Z</time>
      </trkpt>
      <trkpt lat="43.19821667" lon="-4.32975">
        <ele>776.0</ele>
        <time>2018-05-19T16:46:40.467Z</time>
      </trkpt>
      <trkpt lat="43.19822833" lon="-4.32974333">
        <ele>776.0</ele>
        <time>2018-05-19T16:46:41.466Z</time>
      </trkpt>
      <trkpt lat="43.19823833" lon="-4.32973667">
        <ele>777.0</ele>
        <time>2018-05-19T16:46:42.480Z</time>
      </trkpt>
      <trkpt lat="43.19823833" lon="-4.32973667">
        <ele>777.0</ele>
        <time>2018-05-19T16:46:43.466Z</time>
      </trkpt>
      <trkpt lat="43.19825833" lon="-4.32971833">
        <ele>777.0</ele>
        <time>2018-05-19T16:46:44.466Z</time>
      </trkpt>
      <trkpt lat="43.19825833" lon="-4.32971833">
        <ele>777.0</ele>
        <time>2018-05-19T16:46:45.465Z</time>
      </trkpt>
      <trkpt lat="43.198285" lon="-4.32970333">
        <ele>778.0</ele>
        <time>2018-05-19T16:46:46.483Z</time>
      </trkpt>
      <trkpt lat="43.198285" lon="-4.32970333">
        <ele>778.0</ele>
        <time>2018-05-19T16:46:47.469Z</time>
      </trkpt>
      <trkpt lat="43.1983" lon="-4.329695">
        <ele>779.0</ele>
        <time>2018-05-19T16:46:48.473Z</time>
      </trkpt>
      <trkpt lat="43.1983" lon="-4.329695">
        <ele>779.0</ele>
        <time>2018-05-19T16:46:49.461Z</time>
      </trkpt>
      <trkpt lat="43.19832" lon="-4.329685">
        <ele>779.0</ele>
        <time>2018-05-19T16:46:50.466Z</time>
      </trkpt>
      <trkpt lat="43.19832" lon="-4.329685">
        <ele>779.0</ele>
        <time>2018-05-19T16:46:51.467Z</time>
      </trkpt>
      <trkpt lat="43.198345" lon="-4.32967333">
        <ele>780.0</ele>
        <time>2018-05-19T16:46:52.480Z</time>
      </trkpt>
      <trkpt lat="43.198345" lon="-4.32967333">
        <ele>780.0</ele>
        <time>2018-05-19T16:46:53.463Z</time>
      </trkpt>
      <trkpt lat="43.19837" lon="-4.32967167">
        <ele>780.0</ele>
        <time>2018-05-19T16:46:54.464Z</time>
      </trkpt>
      <trkpt lat="43.19838167" lon="-4.329665">
        <ele>780.0</ele>
        <time>2018-05-19T16:46:55.466Z</time>
      </trkpt>
      <trkpt lat="43.19838167" lon="-4.329665">
        <ele>780.0</ele>
        <time>2018-05-19T16:46:56.475Z</time>
      </trkpt>
      <trkpt lat="43.198405" lon="-4.32965667">
        <ele>781.0</ele>
        <time>2018-05-19T16:46:57.480Z</time>
      </trkpt>
      <trkpt lat="43.19841667" lon="-4.32965167">
        <ele>781.0</ele>
        <time>2018-05-19T16:46:58.469Z</time>
      </trkpt>
      <trkpt lat="43.19841667" lon="-4.32965167">
        <ele>781.0</ele>
        <time>2018-05-19T16:46:59.459Z</time>
      </trkpt>
      <trkpt lat="43.19844" lon="-4.329645">
        <ele>782.0</ele>
        <time>2018-05-19T16:47:00.466Z</time>
      </trkpt>
      <trkpt lat="43.19844" lon="-4.329645">
        <ele>782.0</ele>
        <time>2018-05-19T16:47:01.463Z</time>
      </trkpt>
      <trkpt lat="43.19845333" lon="-4.32965">
        <ele>782.0</ele>
        <time>2018-05-19T16:47:02.481Z</time>
      </trkpt>
      <trkpt lat="43.19845333" lon="-4.32965">
        <ele>782.0</ele>
        <time>2018-05-19T16:47:03.468Z</time>
      </trkpt>
      <trkpt lat="43.19847167" lon="-4.32965333">
        <ele>783.0</ele>
        <time>2018-05-19T16:47:04.467Z</time>
      </trkpt>
      <trkpt lat="43.19847833" lon="-4.32965333">
        <ele>783.0</ele>
        <time>2018-05-19T16:47:05.467Z</time>
      </trkpt>
      <trkpt lat="43.19848833" lon="-4.32964833">
        <ele>783.0</ele>
        <time>2018-05-19T16:47:06.473Z</time>
      </trkpt>
      <trkpt lat="43.19848833" lon="-4.32964833">
        <ele>783.0</ele>
        <time>2018-05-19T16:47:07.465Z</time>
      </trkpt>
      <trkpt lat="43.19851" lon="-4.32963167">
        <ele>784.0</ele>
        <time>2018-05-19T16:47:08.464Z</time>
      </trkpt>
      <trkpt lat="43.19851" lon="-4.32963167">
        <ele>784.0</ele>
        <time>2018-05-19T16:47:09.452Z</time>
      </trkpt>
      <trkpt lat="43.19853167" lon="-4.32961833">
        <ele>784.0</ele>
        <time>2018-05-19T16:47:10.480Z</time>
      </trkpt>
      <trkpt lat="43.19853167" lon="-4.32961833">
        <ele>784.0</ele>
        <time>2018-05-19T16:47:11.465Z</time>
      </trkpt>
      <trkpt lat="43.198555" lon="-4.32960833">
        <ele>784.0</ele>
        <time>2018-05-19T16:47:12.467Z</time>
      </trkpt>
      <trkpt lat="43.198555" lon="-4.32960833">
        <ele>784.0</ele>
        <time>2018-05-19T16:47:13.463Z</time>
      </trkpt>
      <trkpt lat="43.198575" lon="-4.32959667">
        <ele>785.0</ele>
        <time>2018-05-19T16:47:14.472Z</time>
      </trkpt>
      <trkpt lat="43.198575" lon="-4.32959667">
        <ele>785.0</ele>
        <time>2018-05-19T16:47:15.471Z</time>
      </trkpt>
      <trkpt lat="43.19859667" lon="-4.32958333">
        <ele>785.0</ele>
        <time>2018-05-19T16:47:16.478Z</time>
      </trkpt>
      <trkpt lat="43.19859667" lon="-4.32958333">
        <ele>785.0</ele>
        <time>2018-05-19T16:47:17.463Z</time>
      </trkpt>
      <trkpt lat="43.19862167" lon="-4.32956667">
        <ele>786.0</ele>
        <time>2018-05-19T16:47:18.467Z</time>
      </trkpt>
      <trkpt lat="43.19862167" lon="-4.32956667">
        <ele>786.0</ele>
        <time>2018-05-19T16:47:19.464Z</time>
      </trkpt>
      <trkpt lat="43.19864667" lon="-4.32955">
        <ele>786.0</ele>
        <time>2018-05-19T16:47:20.467Z</time>
      </trkpt>
      <trkpt lat="43.19865667" lon="-4.32954">
        <ele>786.0</ele>
        <time>2018-05-19T16:47:21.465Z</time>
      </trkpt>
      <trkpt lat="43.19865667" lon="-4.32954">
        <ele>786.0</ele>
        <time>2018-05-19T16:47:22.463Z</time>
      </trkpt>
      <trkpt lat="43.198675" lon="-4.32952167">
        <ele>786.0</ele>
        <time>2018-05-19T16:47:23.475Z</time>
      </trkpt>
      <trkpt lat="43.198675" lon="-4.32952167">
        <ele>786.0</ele>
        <time>2018-05-19T16:47:24.476Z</time>
      </trkpt>
      <trkpt lat="43.19869833" lon="-4.3295">
        <ele>787.0</ele>
        <time>2018-05-19T16:47:25.482Z</time>
      </trkpt>
      <trkpt lat="43.19869833" lon="-4.3295">
        <ele>787.0</ele>
        <time>2018-05-19T16:47:26.464Z</time>
      </trkpt>
      <trkpt lat="43.19871833" lon="-4.32947833">
        <ele>787.0</ele>
        <time>2018-05-19T16:47:27.465Z</time>
      </trkpt>
      <trkpt lat="43.198725" lon="-4.32946833">
        <ele>787.0</ele>
        <time>2018-05-19T16:47:28.467Z</time>
      </trkpt>
      <trkpt lat="43.19873333" lon="-4.32945833">
        <ele>788.0</ele>
        <time>2018-05-19T16:47:29.467Z</time>
      </trkpt>
      <trkpt lat="43.19874" lon="-4.32944833">
        <ele>788.0</ele>
        <time>2018-05-19T16:47:30.467Z</time>
      </trkpt>
      <trkpt lat="43.19874" lon="-4.32944833">
        <ele>788.0</ele>
        <time>2018-05-19T16:47:31.462Z</time>
      </trkpt>
      <trkpt lat="43.19875667" lon="-4.32942833">
        <ele>788.0</ele>
        <time>2018-05-19T16:47:32.466Z</time>
      </trkpt>
      <trkpt lat="43.198765" lon="-4.32942167">
        <ele>788.0</ele>
        <time>2018-05-19T16:47:33.464Z</time>
      </trkpt>
      <trkpt lat="43.198775" lon="-4.32941333">
        <ele>789.0</ele>
        <time>2018-05-19T16:47:34.467Z</time>
      </trkpt>
      <trkpt lat="43.198775" lon="-4.32941333">
        <ele>789.0</ele>
        <time>2018-05-19T16:47:35.479Z</time>
      </trkpt>
      <trkpt lat="43.19879167" lon="-4.32939333">
        <ele>789.0</ele>
        <time>2018-05-19T16:47:36.473Z</time>
      </trkpt>
      <trkpt lat="43.19879167" lon="-4.32939333">
        <ele>789.0</ele>
        <time>2018-05-19T16:47:37.466Z</time>
      </trkpt>
      <trkpt lat="43.19880333" lon="-4.32937">
        <ele>790.0</ele>
        <time>2018-05-19T16:47:38.466Z</time>
      </trkpt>
      <trkpt lat="43.19881" lon="-4.329365">
        <ele>790.0</ele>
        <time>2018-05-19T16:47:39.466Z</time>
      </trkpt>
      <trkpt lat="43.19881" lon="-4.329365">
        <ele>790.0</ele>
        <time>2018-05-19T16:47:40.461Z</time>
      </trkpt>
      <trkpt lat="43.198825" lon="-4.32935167">
        <ele>790.0</ele>
        <time>2018-05-19T16:47:41.466Z</time>
      </trkpt>
      <trkpt lat="43.19883667" lon="-4.32934">
        <ele>791.0</ele>
        <time>2018-05-19T16:47:42.464Z</time>
      </trkpt>
      <trkpt lat="43.19883667" lon="-4.32934">
        <ele>791.0</ele>
        <time>2018-05-19T16:47:43.452Z</time>
      </trkpt>
      <trkpt lat="43.198855" lon="-4.32931667">
        <ele>791.0</ele>
        <time>2018-05-19T16:47:44.479Z</time>
      </trkpt>
      <trkpt lat="43.198855" lon="-4.32931667">
        <ele>791.0</ele>
        <time>2018-05-19T16:47:45.470Z</time>
      </trkpt>
      <trkpt lat="43.19886667" lon="-4.329295">
        <ele>791.0</ele>
        <time>2018-05-19T16:47:46.478Z</time>
      </trkpt>
      <trkpt lat="43.19886667" lon="-4.329295">
        <ele>791.0</ele>
        <time>2018-05-19T16:47:47.463Z</time>
      </trkpt>
      <trkpt lat="43.19888333" lon="-4.32927833">
        <ele>792.0</ele>
        <time>2018-05-19T16:47:48.467Z</time>
      </trkpt>
      <trkpt lat="43.19888333" lon="-4.32927833">
        <ele>792.0</ele>
        <time>2018-05-19T16:47:49.461Z</time>
      </trkpt>
      <trkpt lat="43.19890833" lon="-4.32923667">
        <ele>792.0</ele>
        <time>2018-05-19T16:47:50.466Z</time>
      </trkpt>
      <trkpt lat="43.19890833" lon="-4.32923667">
        <ele>792.0</ele>
        <time>2018-05-19T16:47:51.463Z</time>
      </trkpt>
      <trkpt lat="43.19893167" lon="-4.32920833">
        <ele>792.0</ele>
        <time>2018-05-19T16:47:52.484Z</time>
      </trkpt>
      <trkpt lat="43.19893167" lon="-4.32920833">
        <ele>792.0</ele>
        <time>2018-05-19T16:47:53.471Z</time>
      </trkpt>
      <trkpt lat="43.19894833" lon="-4.32917667">
        <ele>792.0</ele>
        <time>2018-05-19T16:47:54.466Z</time>
      </trkpt>
      <trkpt lat="43.19894833" lon="-4.32917667">
        <ele>792.0</ele>
        <time>2018-05-19T16:47:55.471Z</time>
      </trkpt>
      <trkpt lat="43.198965" lon="-4.32914833">
        <ele>793.0</ele>
        <time>2018-05-19T16:47:56.479Z</time>
      </trkpt>
      <trkpt lat="43.198965" lon="-4.32914833">
        <ele>793.0</ele>
        <time>2018-05-19T16:47:57.464Z</time>
      </trkpt>
      <trkpt lat="43.19897667" lon="-4.32911833">
        <ele>793.0</ele>
        <time>2018-05-19T16:47:58.466Z</time>
      </trkpt>
      <trkpt lat="43.19897667" lon="-4.32911833">
        <ele>793.0</ele>
        <time>2018-05-19T16:47:59.474Z</time>
      </trkpt>
      <trkpt lat="43.198995" lon="-4.32908833">
        <ele>793.0</ele>
        <time>2018-05-19T16:48:00.466Z</time>
      </trkpt>
      <trkpt lat="43.198995" lon="-4.32908833">
        <ele>793.0</ele>
        <time>2018-05-19T16:48:01.463Z</time>
      </trkpt>
      <trkpt lat="43.19901333" lon="-4.32906167">
        <ele>793.0</ele>
        <time>2018-05-19T16:48:02.464Z</time>
      </trkpt>
      <trkpt lat="43.19901333" lon="-4.32906167">
        <ele>793.0</ele>
        <time>2018-05-19T16:48:03.463Z</time>
      </trkpt>
      <trkpt lat="43.19902667" lon="-4.32903">
        <ele>794.0</ele>
        <time>2018-05-19T16:48:04.467Z</time>
      </trkpt>
      <trkpt lat="43.19902667" lon="-4.32903">
        <ele>794.0</ele>
        <time>2018-05-19T16:48:05.467Z</time>
      </trkpt>
      <trkpt lat="43.19904167" lon="-4.329">
        <ele>794.0</ele>
        <time>2018-05-19T16:48:06.478Z</time>
      </trkpt>
      <trkpt lat="43.19904167" lon="-4.329">
        <ele>794.0</ele>
        <time>2018-05-19T16:48:07.464Z</time>
      </trkpt>
      <trkpt lat="43.19905833" lon="-4.32897">
        <ele>794.0</ele>
        <time>2018-05-19T16:48:08.466Z</time>
      </trkpt>
      <trkpt lat="43.19905833" lon="-4.32897">
        <ele>794.0</ele>
        <time>2018-05-19T16:48:09.457Z</time>
      </trkpt>
      <trkpt lat="43.19907167" lon="-4.328935">
        <ele>794.0</ele>
        <time>2018-05-19T16:48:10.468Z</time>
      </trkpt>
      <trkpt lat="43.19907167" lon="-4.328935">
        <ele>794.0</ele>
        <time>2018-05-19T16:48:11.465Z</time>
      </trkpt>
      <trkpt lat="43.19908333" lon="-4.32890333">
        <ele>794.0</ele>
        <time>2018-05-19T16:48:12.466Z</time>
      </trkpt>
      <trkpt lat="43.19908333" lon="-4.32890333">
        <ele>794.0</ele>
        <time>2018-05-19T16:48:13.460Z</time>
      </trkpt>
      <trkpt lat="43.19909667" lon="-4.32886833">
        <ele>794.0</ele>
        <time>2018-05-19T16:48:14.465Z</time>
      </trkpt>
      <trkpt lat="43.19909667" lon="-4.32886833">
        <ele>794.0</ele>
        <time>2018-05-19T16:48:15.472Z</time>
      </trkpt>
      <trkpt lat="43.19910833" lon="-4.328835">
        <ele>794.0</ele>
        <time>2018-05-19T16:48:16.478Z</time>
      </trkpt>
      <trkpt lat="43.19910833" lon="-4.328835">
        <ele>794.0</ele>
        <time>2018-05-19T16:48:17.460Z</time>
      </trkpt>
      <trkpt lat="43.19912167" lon="-4.32880167">
        <ele>794.0</ele>
        <time>2018-05-19T16:48:18.467Z</time>
      </trkpt>
      <trkpt lat="43.19912167" lon="-4.32880167">
        <ele>794.0</ele>
        <time>2018-05-19T16:48:19.463Z</time>
      </trkpt>
      <trkpt lat="43.19913667" lon="-4.32876833">
        <ele>794.0</ele>
        <time>2018-05-19T16:48:20.486Z</time>
      </trkpt>
      <trkpt lat="43.19913667" lon="-4.32876833">
        <ele>794.0</ele>
        <time>2018-05-19T16:48:21.465Z</time>
      </trkpt>
      <trkpt lat="43.19914667" lon="-4.32873333">
        <ele>794.0</ele>
        <time>2018-05-19T16:48:22.468Z</time>
      </trkpt>
      <trkpt lat="43.19914667" lon="-4.32873333">
        <ele>794.0</ele>
        <time>2018-05-19T16:48:23.484Z</time>
      </trkpt>
      <trkpt lat="43.19915667" lon="-4.32870333">
        <ele>794.0</ele>
        <time>2018-05-19T16:48:24.477Z</time>
      </trkpt>
      <trkpt lat="43.19915667" lon="-4.32870333">
        <ele>794.0</ele>
        <time>2018-05-19T16:48:25.483Z</time>
      </trkpt>
      <trkpt lat="43.19917" lon="-4.32867">
        <ele>794.0</ele>
        <time>2018-05-19T16:48:26.455Z</time>
      </trkpt>
      <trkpt lat="43.19917" lon="-4.32867">
        <ele>794.0</ele>
        <time>2018-05-19T16:48:27.473Z</time>
      </trkpt>
      <trkpt lat="43.19918" lon="-4.32863667">
        <ele>794.0</ele>
        <time>2018-05-19T16:48:28.466Z</time>
      </trkpt>
      <trkpt lat="43.19918" lon="-4.32863667">
        <ele>794.0</ele>
        <time>2018-05-19T16:48:29.463Z</time>
      </trkpt>
      <trkpt lat="43.19919167" lon="-4.328605">
        <ele>794.0</ele>
        <time>2018-05-19T16:48:30.466Z</time>
      </trkpt>
      <trkpt lat="43.19919167" lon="-4.328605">
        <ele>794.0</ele>
        <time>2018-05-19T16:48:31.478Z</time>
      </trkpt>
      <trkpt lat="43.199205" lon="-4.32857333">
        <ele>795.0</ele>
        <time>2018-05-19T16:48:32.466Z</time>
      </trkpt>
      <trkpt lat="43.199205" lon="-4.32857333">
        <ele>795.0</ele>
        <time>2018-05-19T16:48:33.465Z</time>
      </trkpt>
      <trkpt lat="43.19921667" lon="-4.32853833">
        <ele>795.0</ele>
        <time>2018-05-19T16:48:34.468Z</time>
      </trkpt>
      <trkpt lat="43.19921667" lon="-4.32853833">
        <ele>795.0</ele>
        <time>2018-05-19T16:48:35.466Z</time>
      </trkpt>
      <trkpt lat="43.199225" lon="-4.32850667">
        <ele>795.0</ele>
        <time>2018-05-19T16:48:36.478Z</time>
      </trkpt>
      <trkpt lat="43.199225" lon="-4.32850667">
        <ele>795.0</ele>
        <time>2018-05-19T16:48:37.464Z</time>
      </trkpt>
      <trkpt lat="43.19924" lon="-4.32848">
        <ele>796.0</ele>
        <time>2018-05-19T16:48:38.466Z</time>
      </trkpt>
      <trkpt lat="43.19924" lon="-4.32848">
        <ele>796.0</ele>
        <time>2018-05-19T16:48:39.457Z</time>
      </trkpt>
      <trkpt lat="43.19925667" lon="-4.328455">
        <ele>795.0</ele>
        <time>2018-05-19T16:48:40.467Z</time>
      </trkpt>
      <trkpt lat="43.19925667" lon="-4.328455">
        <ele>795.0</ele>
        <time>2018-05-19T16:48:41.463Z</time>
      </trkpt>
      <trkpt lat="43.19927" lon="-4.328425">
        <ele>795.0</ele>
        <time>2018-05-19T16:48:42.466Z</time>
      </trkpt>
      <trkpt lat="43.19927" lon="-4.328425">
        <ele>795.0</ele>
        <time>2018-05-19T16:48:43.457Z</time>
      </trkpt>
      <trkpt lat="43.199285" lon="-4.328395">
        <ele>795.0</ele>
        <time>2018-05-19T16:48:44.466Z</time>
      </trkpt>
      <trkpt lat="43.199285" lon="-4.328395">
        <ele>795.0</ele>
        <time>2018-05-19T16:48:45.465Z</time>
      </trkpt>
      <trkpt lat="43.19929833" lon="-4.32836667">
        <ele>795.0</ele>
        <time>2018-05-19T16:48:46.478Z</time>
      </trkpt>
      <trkpt lat="43.19929833" lon="-4.32836667">
        <ele>795.0</ele>
        <time>2018-05-19T16:48:47.463Z</time>
      </trkpt>
      <trkpt lat="43.19931333" lon="-4.32833667">
        <ele>795.0</ele>
        <time>2018-05-19T16:48:48.466Z</time>
      </trkpt>
      <trkpt lat="43.19931333" lon="-4.32833667">
        <ele>795.0</ele>
        <time>2018-05-19T16:48:49.461Z</time>
      </trkpt>
      <trkpt lat="43.199325" lon="-4.32830833">
        <ele>795.0</ele>
        <time>2018-05-19T16:48:50.465Z</time>
      </trkpt>
      <trkpt lat="43.199325" lon="-4.32830833">
        <ele>795.0</ele>
        <time>2018-05-19T16:48:51.463Z</time>
      </trkpt>
      <trkpt lat="43.19934167" lon="-4.328275">
        <ele>795.0</ele>
        <time>2018-05-19T16:48:52.481Z</time>
      </trkpt>
      <trkpt lat="43.19934167" lon="-4.328275">
        <ele>795.0</ele>
        <time>2018-05-19T16:48:53.470Z</time>
      </trkpt>
      <trkpt lat="43.19935667" lon="-4.328245">
        <ele>795.0</ele>
        <time>2018-05-19T16:48:54.466Z</time>
      </trkpt>
      <trkpt lat="43.19935667" lon="-4.328245">
        <ele>795.0</ele>
        <time>2018-05-19T16:48:55.456Z</time>
      </trkpt>
      <trkpt lat="43.19937" lon="-4.328215">
        <ele>795.0</ele>
        <time>2018-05-19T16:48:56.479Z</time>
      </trkpt>
      <trkpt lat="43.19937" lon="-4.328215">
        <ele>795.0</ele>
        <time>2018-05-19T16:48:57.482Z</time>
      </trkpt>
      <trkpt lat="43.19938" lon="-4.32818167">
        <ele>795.0</ele>
        <time>2018-05-19T16:48:58.468Z</time>
      </trkpt>
      <trkpt lat="43.19938" lon="-4.32818167">
        <ele>795.0</ele>
        <time>2018-05-19T16:48:59.458Z</time>
      </trkpt>
      <trkpt lat="43.19939333" lon="-4.32815167">
        <ele>795.0</ele>
        <time>2018-05-19T16:49:00.468Z</time>
      </trkpt>
      <trkpt lat="43.19939333" lon="-4.32815167">
        <ele>795.0</ele>
        <time>2018-05-19T16:49:01.462Z</time>
      </trkpt>
      <trkpt lat="43.19940333" lon="-4.32812333">
        <ele>795.0</ele>
        <time>2018-05-19T16:49:02.465Z</time>
      </trkpt>
      <trkpt lat="43.19940333" lon="-4.32812333">
        <ele>795.0</ele>
        <time>2018-05-19T16:49:03.457Z</time>
      </trkpt>
      <trkpt lat="43.19941667" lon="-4.328095">
        <ele>796.0</ele>
        <time>2018-05-19T16:49:04.467Z</time>
      </trkpt>
      <trkpt lat="43.19941667" lon="-4.328095">
        <ele>796.0</ele>
        <time>2018-05-19T16:49:05.479Z</time>
      </trkpt>
      <trkpt lat="43.19943333" lon="-4.32806667">
        <ele>796.0</ele>
        <time>2018-05-19T16:49:06.478Z</time>
      </trkpt>
      <trkpt lat="43.19943333" lon="-4.32806667">
        <ele>796.0</ele>
        <time>2018-05-19T16:49:07.460Z</time>
      </trkpt>
      <trkpt lat="43.19944667" lon="-4.32803667">
        <ele>796.0</ele>
        <time>2018-05-19T16:49:08.466Z</time>
      </trkpt>
      <trkpt lat="43.19944667" lon="-4.32803667">
        <ele>796.0</ele>
        <time>2018-05-19T16:49:09.463Z</time>
      </trkpt>
      <trkpt lat="43.19946" lon="-4.32800833">
        <ele>796.0</ele>
        <time>2018-05-19T16:49:10.466Z</time>
      </trkpt>
      <trkpt lat="43.19946" lon="-4.32800833">
        <ele>796.0</ele>
        <time>2018-05-19T16:49:11.463Z</time>
      </trkpt>
      <trkpt lat="43.199475" lon="-4.32797833">
        <ele>796.0</ele>
        <time>2018-05-19T16:49:12.467Z</time>
      </trkpt>
      <trkpt lat="43.199475" lon="-4.32797833">
        <ele>796.0</ele>
        <time>2018-05-19T16:49:13.461Z</time>
      </trkpt>
      <trkpt lat="43.19948667" lon="-4.32794833">
        <ele>796.0</ele>
        <time>2018-05-19T16:49:14.466Z</time>
      </trkpt>
      <trkpt lat="43.199495" lon="-4.32793333">
        <ele>796.0</ele>
        <time>2018-05-19T16:49:15.472Z</time>
      </trkpt>
      <trkpt lat="43.199495" lon="-4.32793333">
        <ele>796.0</ele>
        <time>2018-05-19T16:49:16.479Z</time>
      </trkpt>
      <trkpt lat="43.19950833" lon="-4.32790167">
        <ele>796.0</ele>
        <time>2018-05-19T16:49:17.465Z</time>
      </trkpt>
      <trkpt lat="43.19951333" lon="-4.327885">
        <ele>796.0</ele>
        <time>2018-05-19T16:49:18.467Z</time>
      </trkpt>
      <trkpt lat="43.19951333" lon="-4.327885">
        <ele>796.0</ele>
        <time>2018-05-19T16:49:19.459Z</time>
      </trkpt>
      <trkpt lat="43.19952333" lon="-4.32784833">
        <ele>796.0</ele>
        <time>2018-05-19T16:49:20.465Z</time>
      </trkpt>
      <trkpt lat="43.19952333" lon="-4.32784833">
        <ele>796.0</ele>
        <time>2018-05-19T16:49:21.464Z</time>
      </trkpt>
      <trkpt lat="43.19953667" lon="-4.32781667">
        <ele>797.0</ele>
        <time>2018-05-19T16:49:22.468Z</time>
      </trkpt>
      <trkpt lat="43.19953667" lon="-4.32781667">
        <ele>797.0</ele>
        <time>2018-05-19T16:49:23.476Z</time>
      </trkpt>
      <trkpt lat="43.19955" lon="-4.32778667">
        <ele>797.0</ele>
        <time>2018-05-19T16:49:24.461Z</time>
      </trkpt>
      <trkpt lat="43.19956" lon="-4.32776667">
        <ele>797.0</ele>
        <time>2018-05-19T16:49:25.474Z</time>
      </trkpt>
      <trkpt lat="43.19956" lon="-4.32776667">
        <ele>797.0</ele>
        <time>2018-05-19T16:49:26.483Z</time>
      </trkpt>
      <trkpt lat="43.199575" lon="-4.32773">
        <ele>797.0</ele>
        <time>2018-05-19T16:49:27.466Z</time>
      </trkpt>
      <trkpt lat="43.19958167" lon="-4.32771667">
        <ele>797.0</ele>
        <time>2018-05-19T16:49:28.465Z</time>
      </trkpt>
      <trkpt lat="43.19958167" lon="-4.32771667">
        <ele>797.0</ele>
        <time>2018-05-19T16:49:29.458Z</time>
      </trkpt>
      <trkpt lat="43.19958667" lon="-4.32770833">
        <ele>796.0</ele>
        <time>2018-05-19T16:49:30.474Z</time>
      </trkpt>
      <trkpt lat="43.19959667" lon="-4.32768833">
        <ele>796.0</ele>
        <time>2018-05-19T16:49:31.481Z</time>
      </trkpt>
      <trkpt lat="43.19960333" lon="-4.32767333">
        <ele>796.0</ele>
        <time>2018-05-19T16:49:32.448Z</time>
      </trkpt>
      <trkpt lat="43.19960333" lon="-4.32767333">
        <ele>796.0</ele>
        <time>2018-05-19T16:49:33.462Z</time>
      </trkpt>
      <trkpt lat="43.19961" lon="-4.32764333">
        <ele>796.0</ele>
        <time>2018-05-19T16:49:34.468Z</time>
      </trkpt>
      <trkpt lat="43.19961" lon="-4.32764333">
        <ele>796.0</ele>
        <time>2018-05-19T16:49:35.472Z</time>
      </trkpt>
      <trkpt lat="43.19962333" lon="-4.32761333">
        <ele>796.0</ele>
        <time>2018-05-19T16:49:36.466Z</time>
      </trkpt>
      <trkpt lat="43.19962333" lon="-4.32761333">
        <ele>796.0</ele>
        <time>2018-05-19T16:49:37.462Z</time>
      </trkpt>
      <trkpt lat="43.19964167" lon="-4.32758833">
        <ele>796.0</ele>
        <time>2018-05-19T16:49:38.466Z</time>
      </trkpt>
      <trkpt lat="43.19965" lon="-4.32757667">
        <ele>796.0</ele>
        <time>2018-05-19T16:49:39.463Z</time>
      </trkpt>
      <trkpt lat="43.19965" lon="-4.32757667">
        <ele>796.0</ele>
        <time>2018-05-19T16:49:40.462Z</time>
      </trkpt>
      <trkpt lat="43.19966667" lon="-4.32755">
        <ele>796.0</ele>
        <time>2018-05-19T16:49:41.465Z</time>
      </trkpt>
      <trkpt lat="43.19966667" lon="-4.32755">
        <ele>796.0</ele>
        <time>2018-05-19T16:49:42.473Z</time>
      </trkpt>
      <trkpt lat="43.19968167" lon="-4.32752167">
        <ele>795.0</ele>
        <time>2018-05-19T16:49:43.466Z</time>
      </trkpt>
      <trkpt lat="43.19968167" lon="-4.32752167">
        <ele>795.0</ele>
        <time>2018-05-19T16:49:44.466Z</time>
      </trkpt>
      <trkpt lat="43.19969833" lon="-4.32749167">
        <ele>795.0</ele>
        <time>2018-05-19T16:49:45.465Z</time>
      </trkpt>
      <trkpt lat="43.19969833" lon="-4.32749167">
        <ele>795.0</ele>
        <time>2018-05-19T16:49:46.479Z</time>
      </trkpt>
      <trkpt lat="43.199715" lon="-4.32746167">
        <ele>795.0</ele>
        <time>2018-05-19T16:49:47.466Z</time>
      </trkpt>
      <trkpt lat="43.19972333" lon="-4.32744667">
        <ele>795.0</ele>
        <time>2018-05-19T16:49:48.467Z</time>
      </trkpt>
      <trkpt lat="43.19972333" lon="-4.32744667">
        <ele>795.0</ele>
        <time>2018-05-19T16:49:49.459Z</time>
      </trkpt>
      <trkpt lat="43.19974333" lon="-4.327415">
        <ele>795.0</ele>
        <time>2018-05-19T16:49:50.465Z</time>
      </trkpt>
      <trkpt lat="43.19974333" lon="-4.327415">
        <ele>795.0</ele>
        <time>2018-05-19T16:49:51.463Z</time>
      </trkpt>
      <trkpt lat="43.19976333" lon="-4.32738667">
        <ele>795.0</ele>
        <time>2018-05-19T16:49:52.480Z</time>
      </trkpt>
      <trkpt lat="43.19976333" lon="-4.32738667">
        <ele>795.0</ele>
        <time>2018-05-19T16:49:53.463Z</time>
      </trkpt>
      <trkpt lat="43.199785" lon="-4.327365">
        <ele>795.0</ele>
        <time>2018-05-19T16:49:54.466Z</time>
      </trkpt>
      <trkpt lat="43.199785" lon="-4.327365">
        <ele>795.0</ele>
        <time>2018-05-19T16:49:55.469Z</time>
      </trkpt>
      <trkpt lat="43.19980667" lon="-4.32733833">
        <ele>795.0</ele>
        <time>2018-05-19T16:49:56.465Z</time>
      </trkpt>
      <trkpt lat="43.19980667" lon="-4.32733833">
        <ele>795.0</ele>
        <time>2018-05-19T16:49:57.463Z</time>
      </trkpt>
      <trkpt lat="43.199825" lon="-4.32730667">
        <ele>795.0</ele>
        <time>2018-05-19T16:49:58.466Z</time>
      </trkpt>
      <trkpt lat="43.199825" lon="-4.32730667">
        <ele>795.0</ele>
        <time>2018-05-19T16:49:59.464Z</time>
      </trkpt>
      <trkpt lat="43.19984333" lon="-4.32727833">
        <ele>795.0</ele>
        <time>2018-05-19T16:50:00.467Z</time>
      </trkpt>
      <trkpt lat="43.19985333" lon="-4.327265">
        <ele>795.0</ele>
        <time>2018-05-19T16:50:01.468Z</time>
      </trkpt>
      <trkpt lat="43.19985333" lon="-4.327265">
        <ele>795.0</ele>
        <time>2018-05-19T16:50:02.463Z</time>
      </trkpt>
      <trkpt lat="43.199875" lon="-4.32724167">
        <ele>795.0</ele>
        <time>2018-05-19T16:50:03.466Z</time>
      </trkpt>
      <trkpt lat="43.19988667" lon="-4.32723">
        <ele>795.0</ele>
        <time>2018-05-19T16:50:04.468Z</time>
      </trkpt>
      <trkpt lat="43.19988667" lon="-4.32723">
        <ele>795.0</ele>
        <time>2018-05-19T16:50:05.464Z</time>
      </trkpt>
      <trkpt lat="43.19991167" lon="-4.32720667">
        <ele>794.0</ele>
        <time>2018-05-19T16:50:06.485Z</time>
      </trkpt>
      <trkpt lat="43.19991167" lon="-4.32720667">
        <ele>794.0</ele>
        <time>2018-05-19T16:50:07.479Z</time>
      </trkpt>
      <trkpt lat="43.19993667" lon="-4.32718333">
        <ele>794.0</ele>
        <time>2018-05-19T16:50:08.466Z</time>
      </trkpt>
      <trkpt lat="43.19994833" lon="-4.32717333">
        <ele>794.0</ele>
        <time>2018-05-19T16:50:09.466Z</time>
      </trkpt>
      <trkpt lat="43.19996167" lon="-4.32716333">
        <ele>794.0</ele>
        <time>2018-05-19T16:50:10.468Z</time>
      </trkpt>
      <trkpt lat="43.19996167" lon="-4.32716333">
        <ele>794.0</ele>
        <time>2018-05-19T16:50:11.461Z</time>
      </trkpt>
      <trkpt lat="43.19999" lon="-4.32714333">
        <ele>795.0</ele>
        <time>2018-05-19T16:50:12.467Z</time>
      </trkpt>
      <trkpt lat="43.19999" lon="-4.32714333">
        <ele>795.0</ele>
        <time>2018-05-19T16:50:13.463Z</time>
      </trkpt>
      <trkpt lat="43.20001833" lon="-4.32712833">
        <ele>794.0</ele>
        <time>2018-05-19T16:50:14.465Z</time>
      </trkpt>
      <trkpt lat="43.20001833" lon="-4.32712833">
        <ele>794.0</ele>
        <time>2018-05-19T16:50:15.472Z</time>
      </trkpt>
      <trkpt lat="43.20004667" lon="-4.32711333">
        <ele>794.0</ele>
        <time>2018-05-19T16:50:16.485Z</time>
      </trkpt>
      <trkpt lat="43.20004667" lon="-4.32711333">
        <ele>794.0</ele>
        <time>2018-05-19T16:50:17.467Z</time>
      </trkpt>
      <trkpt lat="43.20007667" lon="-4.3271">
        <ele>794.0</ele>
        <time>2018-05-19T16:50:18.466Z</time>
      </trkpt>
      <trkpt lat="43.20007667" lon="-4.3271">
        <ele>794.0</ele>
        <time>2018-05-19T16:50:19.463Z</time>
      </trkpt>
      <trkpt lat="43.20010667" lon="-4.32709333">
        <ele>794.0</ele>
        <time>2018-05-19T16:50:20.465Z</time>
      </trkpt>
      <trkpt lat="43.20010667" lon="-4.32709333">
        <ele>794.0</ele>
        <time>2018-05-19T16:50:21.459Z</time>
      </trkpt>
      <trkpt lat="43.20013167" lon="-4.32709333">
        <ele>794.0</ele>
        <time>2018-05-19T16:50:22.466Z</time>
      </trkpt>
      <trkpt lat="43.20013167" lon="-4.32709333">
        <ele>794.0</ele>
        <time>2018-05-19T16:50:23.454Z</time>
      </trkpt>
      <trkpt lat="43.20014167" lon="-4.32709333">
        <ele>794.0</ele>
        <time>2018-05-19T16:50:24.482Z</time>
      </trkpt>
      <trkpt lat="43.200145" lon="-4.327095">
        <ele>794.0</ele>
        <time>2018-05-19T16:50:25.454Z</time>
      </trkpt>
      <trkpt lat="43.200145" lon="-4.327095">
        <ele>794.0</ele>
        <time>2018-05-19T16:50:26.461Z</time>
      </trkpt>
      <trkpt lat="43.200145" lon="-4.327095">
        <ele>794.0</ele>
        <time>2018-05-19T16:50:27.456Z</time>
      </trkpt>
      <trkpt lat="43.200145" lon="-4.327095">
        <ele>794.0</ele>
        <time>2018-05-19T16:50:28.481Z</time>
      </trkpt>
      <trkpt lat="43.20017" lon="-4.32708833">
        <ele>794.0</ele>
        <time>2018-05-19T16:50:29.481Z</time>
      </trkpt>
      <trkpt lat="43.20017" lon="-4.32708833">
        <ele>794.0</ele>
        <time>2018-05-19T16:50:30.480Z</time>
      </trkpt>
      <trkpt lat="43.20020333" lon="-4.32707333">
        <ele>794.0</ele>
        <time>2018-05-19T16:50:31.483Z</time>
      </trkpt>
      <trkpt lat="43.20020333" lon="-4.32707333">
        <ele>794.0</ele>
        <time>2018-05-19T16:50:32.480Z</time>
      </trkpt>
      <trkpt lat="43.20023667" lon="-4.327065">
        <ele>794.0</ele>
        <time>2018-05-19T16:50:33.483Z</time>
      </trkpt>
      <trkpt lat="43.20023667" lon="-4.327065">
        <ele>794.0</ele>
        <time>2018-05-19T16:50:34.481Z</time>
      </trkpt>
      <trkpt lat="43.20028" lon="-4.32706333">
        <ele>794.0</ele>
        <time>2018-05-19T16:50:35.481Z</time>
      </trkpt>
      <trkpt lat="43.200305" lon="-4.327065">
        <ele>794.0</ele>
        <time>2018-05-19T16:50:36.451Z</time>
      </trkpt>
      <trkpt lat="43.200305" lon="-4.327065">
        <ele>794.0</ele>
        <time>2018-05-19T16:50:37.478Z</time>
      </trkpt>
      <trkpt lat="43.20035" lon="-4.32707">
        <ele>794.0</ele>
        <time>2018-05-19T16:50:38.481Z</time>
      </trkpt>
      <trkpt lat="43.20037167" lon="-4.32707167">
        <ele>794.0</ele>
        <time>2018-05-19T16:50:39.482Z</time>
      </trkpt>
      <trkpt lat="43.20037167" lon="-4.32707167">
        <ele>794.0</ele>
        <time>2018-05-19T16:50:40.479Z</time>
      </trkpt>
      <trkpt lat="43.20041833" lon="-4.32707667">
        <ele>794.0</ele>
        <time>2018-05-19T16:50:41.483Z</time>
      </trkpt>
      <trkpt lat="43.20041833" lon="-4.32707667">
        <ele>794.0</ele>
        <time>2018-05-19T16:50:42.472Z</time>
      </trkpt>
      <trkpt lat="43.20046333" lon="-4.32709">
        <ele>794.0</ele>
        <time>2018-05-19T16:50:43.481Z</time>
      </trkpt>
      <trkpt lat="43.20046333" lon="-4.32709">
        <ele>794.0</ele>
        <time>2018-05-19T16:50:44.487Z</time>
      </trkpt>
      <trkpt lat="43.200505" lon="-4.32711">
        <ele>794.0</ele>
        <time>2018-05-19T16:50:45.482Z</time>
      </trkpt>
      <trkpt lat="43.200505" lon="-4.32711">
        <ele>794.0</ele>
        <time>2018-05-19T16:50:46.484Z</time>
      </trkpt>
      <trkpt lat="43.20054333" lon="-4.32713333">
        <ele>794.0</ele>
        <time>2018-05-19T16:50:47.481Z</time>
      </trkpt>
      <trkpt lat="43.20054333" lon="-4.32713333">
        <ele>794.0</ele>
        <time>2018-05-19T16:50:48.480Z</time>
      </trkpt>
      <trkpt lat="43.20058" lon="-4.32716">
        <ele>794.0</ele>
        <time>2018-05-19T16:50:49.481Z</time>
      </trkpt>
      <trkpt lat="43.2006" lon="-4.32717333">
        <ele>794.0</ele>
        <time>2018-05-19T16:50:50.482Z</time>
      </trkpt>
      <trkpt lat="43.2006" lon="-4.32717333">
        <ele>794.0</ele>
        <time>2018-05-19T16:50:51.456Z</time>
      </trkpt>
      <trkpt lat="43.20064" lon="-4.32720333">
        <ele>794.0</ele>
        <time>2018-05-19T16:50:52.482Z</time>
      </trkpt>
      <trkpt lat="43.20066167" lon="-4.32721833">
        <ele>794.0</ele>
        <time>2018-05-19T16:50:53.482Z</time>
      </trkpt>
      <trkpt lat="43.20066167" lon="-4.32721833">
        <ele>794.0</ele>
        <time>2018-05-19T16:50:54.481Z</time>
      </trkpt>
      <trkpt lat="43.20069833" lon="-4.327245">
        <ele>794.0</ele>
        <time>2018-05-19T16:50:55.475Z</time>
      </trkpt>
      <trkpt lat="43.20069833" lon="-4.327245">
        <ele>794.0</ele>
        <time>2018-05-19T16:50:56.454Z</time>
      </trkpt>
      <trkpt lat="43.20074" lon="-4.32727167">
        <ele>794.0</ele>
        <time>2018-05-19T16:50:57.484Z</time>
      </trkpt>
      <trkpt lat="43.20074" lon="-4.32727167">
        <ele>794.0</ele>
        <time>2018-05-19T16:50:58.474Z</time>
      </trkpt>
      <trkpt lat="43.20078333" lon="-4.32729833">
        <ele>795.0</ele>
        <time>2018-05-19T16:50:59.483Z</time>
      </trkpt>
      <trkpt lat="43.20078333" lon="-4.32729833">
        <ele>795.0</ele>
        <time>2018-05-19T16:51:00.448Z</time>
      </trkpt>
      <trkpt lat="43.20082167" lon="-4.327325">
        <ele>795.0</ele>
        <time>2018-05-19T16:51:01.481Z</time>
      </trkpt>
      <trkpt lat="43.20083667" lon="-4.32734">
        <ele>795.0</ele>
        <time>2018-05-19T16:51:02.481Z</time>
      </trkpt>
      <trkpt lat="43.20085167" lon="-4.327355">
        <ele>795.0</ele>
        <time>2018-05-19T16:51:03.482Z</time>
      </trkpt>
      <trkpt lat="43.20085167" lon="-4.327355">
        <ele>795.0</ele>
        <time>2018-05-19T16:51:04.487Z</time>
      </trkpt>
      <trkpt lat="43.20087833" lon="-4.32738833">
        <ele>795.0</ele>
        <time>2018-05-19T16:51:05.465Z</time>
      </trkpt>
      <trkpt lat="43.20087833" lon="-4.32738833">
        <ele>795.0</ele>
        <time>2018-05-19T16:51:06.457Z</time>
      </trkpt>
      <trkpt lat="43.20090333" lon="-4.327435">
        <ele>796.0</ele>
        <time>2018-05-19T16:51:07.484Z</time>
      </trkpt>
      <trkpt lat="43.20090333" lon="-4.327435">
        <ele>796.0</ele>
        <time>2018-05-19T16:51:08.476Z</time>
      </trkpt>
      <trkpt lat="43.20093333" lon="-4.32748167">
        <ele>796.0</ele>
        <time>2018-05-19T16:51:09.482Z</time>
      </trkpt>
      <trkpt lat="43.20094833" lon="-4.32750667">
        <ele>796.0</ele>
        <time>2018-05-19T16:51:10.481Z</time>
      </trkpt>
      <trkpt lat="43.20094833" lon="-4.32750667">
        <ele>796.0</ele>
        <time>2018-05-19T16:51:11.477Z</time>
      </trkpt>
      <trkpt lat="43.20097167" lon="-4.32755833">
        <ele>796.0</ele>
        <time>2018-05-19T16:51:12.481Z</time>
      </trkpt>
      <trkpt lat="43.20098333" lon="-4.32758167">
        <ele>796.0</ele>
        <time>2018-05-19T16:51:13.482Z</time>
      </trkpt>
      <trkpt lat="43.20099667" lon="-4.32760167">
        <ele>796.0</ele>
        <time>2018-05-19T16:51:14.482Z</time>
      </trkpt>
      <trkpt lat="43.20099667" lon="-4.32760167">
        <ele>796.0</ele>
        <time>2018-05-19T16:51:15.482Z</time>
      </trkpt>
      <trkpt lat="43.20103167" lon="-4.32763667">
        <ele>796.0</ele>
        <time>2018-05-19T16:51:16.481Z</time>
      </trkpt>
      <trkpt lat="43.20104833" lon="-4.32765833">
        <ele>796.0</ele>
        <time>2018-05-19T16:51:17.482Z</time>
      </trkpt>
      <trkpt lat="43.20104833" lon="-4.32765833">
        <ele>796.0</ele>
        <time>2018-05-19T16:51:18.475Z</time>
      </trkpt>
      <trkpt lat="43.20108333" lon="-4.3277">
        <ele>796.0</ele>
        <time>2018-05-19T16:51:19.480Z</time>
      </trkpt>
      <trkpt lat="43.20108333" lon="-4.3277">
        <ele>796.0</ele>
        <time>2018-05-19T16:51:20.478Z</time>
      </trkpt>
      <trkpt lat="43.20111667" lon="-4.327735">
        <ele>796.0</ele>
        <time>2018-05-19T16:51:21.484Z</time>
      </trkpt>
      <trkpt lat="43.20111667" lon="-4.327735">
        <ele>796.0</ele>
        <time>2018-05-19T16:51:22.477Z</time>
      </trkpt>
      <trkpt lat="43.201145" lon="-4.32777833">
        <ele>797.0</ele>
        <time>2018-05-19T16:51:23.448Z</time>
      </trkpt>
      <trkpt lat="43.20115667" lon="-4.32779333">
        <ele>797.0</ele>
        <time>2018-05-19T16:51:24.459Z</time>
      </trkpt>
      <trkpt lat="43.20115667" lon="-4.32779333">
        <ele>797.0</ele>
        <time>2018-05-19T16:51:25.466Z</time>
      </trkpt>
      <trkpt lat="43.20117833" lon="-4.32782667">
        <ele>798.0</ele>
        <time>2018-05-19T16:51:26.472Z</time>
      </trkpt>
      <trkpt lat="43.20119167" lon="-4.32784">
        <ele>798.0</ele>
        <time>2018-05-19T16:51:27.483Z</time>
      </trkpt>
      <trkpt lat="43.20119167" lon="-4.32784">
        <ele>798.0</ele>
        <time>2018-05-19T16:51:28.475Z</time>
      </trkpt>
      <trkpt lat="43.20121667" lon="-4.32786667">
        <ele>798.0</ele>
        <time>2018-05-19T16:51:29.482Z</time>
      </trkpt>
      <trkpt lat="43.20121667" lon="-4.32786667">
        <ele>798.0</ele>
        <time>2018-05-19T16:51:30.475Z</time>
      </trkpt>
      <trkpt lat="43.20124167" lon="-4.32789833">
        <ele>798.0</ele>
        <time>2018-05-19T16:51:31.456Z</time>
      </trkpt>
      <trkpt lat="43.20124167" lon="-4.32789833">
        <ele>798.0</ele>
        <time>2018-05-19T16:51:32.479Z</time>
      </trkpt>
      <trkpt lat="43.201265" lon="-4.32792333">
        <ele>799.0</ele>
        <time>2018-05-19T16:51:33.483Z</time>
      </trkpt>
      <trkpt lat="43.201265" lon="-4.32792333">
        <ele>799.0</ele>
        <time>2018-05-19T16:51:34.481Z</time>
      </trkpt>
      <trkpt lat="43.20129167" lon="-4.32795167">
        <ele>799.0</ele>
        <time>2018-05-19T16:51:35.481Z</time>
      </trkpt>
      <trkpt lat="43.20129167" lon="-4.32795167">
        <ele>799.0</ele>
        <time>2018-05-19T16:51:36.475Z</time>
      </trkpt>
      <trkpt lat="43.20132333" lon="-4.32797167">
        <ele>799.0</ele>
        <time>2018-05-19T16:51:37.480Z</time>
      </trkpt>
      <trkpt lat="43.20133667" lon="-4.32798">
        <ele>800.0</ele>
        <time>2018-05-19T16:51:38.482Z</time>
      </trkpt>
      <trkpt lat="43.20133667" lon="-4.32798">
        <ele>800.0</ele>
        <time>2018-05-19T16:51:39.477Z</time>
      </trkpt>
      <trkpt lat="43.20136167" lon="-4.327995">
        <ele>800.0</ele>
        <time>2018-05-19T16:51:40.481Z</time>
      </trkpt>
      <trkpt lat="43.20136167" lon="-4.327995">
        <ele>800.0</ele>
        <time>2018-05-19T16:51:41.479Z</time>
      </trkpt>
      <trkpt lat="43.20138667" lon="-4.328015">
        <ele>801.0</ele>
        <time>2018-05-19T16:51:42.465Z</time>
      </trkpt>
      <trkpt lat="43.20138667" lon="-4.328015">
        <ele>801.0</ele>
        <time>2018-05-19T16:51:43.449Z</time>
      </trkpt>
      <trkpt lat="43.20141" lon="-4.32804833">
        <ele>801.0</ele>
        <time>2018-05-19T16:51:44.483Z</time>
      </trkpt>
      <trkpt lat="43.20142167" lon="-4.32807">
        <ele>801.0</ele>
        <time>2018-05-19T16:51:45.484Z</time>
      </trkpt>
      <trkpt lat="43.20142167" lon="-4.32807">
        <ele>801.0</ele>
        <time>2018-05-19T16:51:46.480Z</time>
      </trkpt>
      <trkpt lat="43.20144833" lon="-4.32811167">
        <ele>802.0</ele>
        <time>2018-05-19T16:51:47.484Z</time>
      </trkpt>
      <trkpt lat="43.20144833" lon="-4.32811167">
        <ele>802.0</ele>
        <time>2018-05-19T16:51:48.480Z</time>
      </trkpt>
      <trkpt lat="43.20147667" lon="-4.32815">
        <ele>802.0</ele>
        <time>2018-05-19T16:51:49.481Z</time>
      </trkpt>
      <trkpt lat="43.20149167" lon="-4.32817">
        <ele>802.0</ele>
        <time>2018-05-19T16:51:50.482Z</time>
      </trkpt>
      <trkpt lat="43.20149167" lon="-4.32817">
        <ele>802.0</ele>
        <time>2018-05-19T16:51:51.456Z</time>
      </trkpt>
      <trkpt lat="43.20151833" lon="-4.32820667">
        <ele>803.0</ele>
        <time>2018-05-19T16:51:52.481Z</time>
      </trkpt>
      <trkpt lat="43.20153167" lon="-4.32822667">
        <ele>803.0</ele>
        <time>2018-05-19T16:51:53.482Z</time>
      </trkpt>
      <trkpt lat="43.20153167" lon="-4.32822667">
        <ele>803.0</ele>
        <time>2018-05-19T16:51:54.481Z</time>
      </trkpt>
      <trkpt lat="43.20156333" lon="-4.32827167">
        <ele>803.0</ele>
        <time>2018-05-19T16:51:55.479Z</time>
      </trkpt>
      <trkpt lat="43.20156333" lon="-4.32827167">
        <ele>803.0</ele>
        <time>2018-05-19T16:51:56.478Z</time>
      </trkpt>
      <trkpt lat="43.20158667" lon="-4.328305">
        <ele>803.0</ele>
        <time>2018-05-19T16:51:57.482Z</time>
      </trkpt>
      <trkpt lat="43.20159667" lon="-4.32831833">
        <ele>803.0</ele>
        <time>2018-05-19T16:51:58.482Z</time>
      </trkpt>
      <trkpt lat="43.20160833" lon="-4.32832667">
        <ele>803.0</ele>
        <time>2018-05-19T16:51:59.481Z</time>
      </trkpt>
      <trkpt lat="43.20160833" lon="-4.32832667">
        <ele>803.0</ele>
        <time>2018-05-19T16:52:00.479Z</time>
      </trkpt>
      <trkpt lat="43.20162833" lon="-4.32835333">
        <ele>804.0</ele>
        <time>2018-05-19T16:52:01.482Z</time>
      </trkpt>
      <trkpt lat="43.20162833" lon="-4.32835333">
        <ele>804.0</ele>
        <time>2018-05-19T16:52:02.475Z</time>
      </trkpt>
      <trkpt lat="43.20165333" lon="-4.32837833">
        <ele>805.0</ele>
        <time>2018-05-19T16:52:03.481Z</time>
      </trkpt>
      <trkpt lat="43.20165333" lon="-4.32837833">
        <ele>805.0</ele>
        <time>2018-05-19T16:52:04.487Z</time>
      </trkpt>
      <trkpt lat="43.20168" lon="-4.328405">
        <ele>805.0</ele>
        <time>2018-05-19T16:52:05.481Z</time>
      </trkpt>
      <trkpt lat="43.20168" lon="-4.328405">
        <ele>805.0</ele>
        <time>2018-05-19T16:52:06.479Z</time>
      </trkpt>
      <trkpt lat="43.20170333" lon="-4.32844">
        <ele>806.0</ele>
        <time>2018-05-19T16:52:07.481Z</time>
      </trkpt>
      <trkpt lat="43.20171333" lon="-4.32845667">
        <ele>806.0</ele>
        <time>2018-05-19T16:52:08.481Z</time>
      </trkpt>
      <trkpt lat="43.20172333" lon="-4.328475">
        <ele>807.0</ele>
        <time>2018-05-19T16:52:09.483Z</time>
      </trkpt>
      <trkpt lat="43.20172333" lon="-4.328475">
        <ele>807.0</ele>
        <time>2018-05-19T16:52:10.477Z</time>
      </trkpt>
      <trkpt lat="43.20174667" lon="-4.32850667">
        <ele>807.0</ele>
        <time>2018-05-19T16:52:11.459Z</time>
      </trkpt>
      <trkpt lat="43.20175833" lon="-4.32851833">
        <ele>807.0</ele>
        <time>2018-05-19T16:52:12.458Z</time>
      </trkpt>
      <trkpt lat="43.20175833" lon="-4.32851833">
        <ele>807.0</ele>
        <time>2018-05-19T16:52:13.483Z</time>
      </trkpt>
      <trkpt lat="43.20177667" lon="-4.32854333">
        <ele>808.0</ele>
        <time>2018-05-19T16:52:14.481Z</time>
      </trkpt>
      <trkpt lat="43.20178833" lon="-4.328555">
        <ele>808.0</ele>
        <time>2018-05-19T16:52:15.483Z</time>
      </trkpt>
      <trkpt lat="43.20178833" lon="-4.328555">
        <ele>808.0</ele>
        <time>2018-05-19T16:52:16.476Z</time>
      </trkpt>
      <trkpt lat="43.20180833" lon="-4.32857833">
        <ele>809.0</ele>
        <time>2018-05-19T16:52:17.463Z</time>
      </trkpt>
      <trkpt lat="43.20180833" lon="-4.32857833">
        <ele>809.0</ele>
        <time>2018-05-19T16:52:18.449Z</time>
      </trkpt>
      <trkpt lat="43.20183167" lon="-4.328605">
        <ele>809.0</ele>
        <time>2018-05-19T16:52:19.481Z</time>
      </trkpt>
      <trkpt lat="43.20183167" lon="-4.328605">
        <ele>809.0</ele>
        <time>2018-05-19T16:52:20.475Z</time>
      </trkpt>
      <trkpt lat="43.20185833" lon="-4.32863">
        <ele>810.0</ele>
        <time>2018-05-19T16:52:21.482Z</time>
      </trkpt>
      <trkpt lat="43.20185833" lon="-4.32863">
        <ele>810.0</ele>
        <time>2018-05-19T16:52:22.479Z</time>
      </trkpt>
      <trkpt lat="43.20188333" lon="-4.32865333">
        <ele>810.0</ele>
        <time>2018-05-19T16:52:23.449Z</time>
      </trkpt>
      <trkpt lat="43.20189833" lon="-4.32865833">
        <ele>810.0</ele>
        <time>2018-05-19T16:52:24.475Z</time>
      </trkpt>
      <trkpt lat="43.201915" lon="-4.32866667">
        <ele>811.0</ele>
        <time>2018-05-19T16:52:25.482Z</time>
      </trkpt>
      <trkpt lat="43.201915" lon="-4.32866667">
        <ele>811.0</ele>
        <time>2018-05-19T16:52:26.449Z</time>
      </trkpt>
      <trkpt lat="43.20194833" lon="-4.32867667">
        <ele>811.0</ele>
        <time>2018-05-19T16:52:27.482Z</time>
      </trkpt>
      <trkpt lat="43.20194833" lon="-4.32867667">
        <ele>811.0</ele>
        <time>2018-05-19T16:52:28.478Z</time>
      </trkpt>
      <trkpt lat="43.20197833" lon="-4.32867833">
        <ele>811.0</ele>
        <time>2018-05-19T16:52:29.483Z</time>
      </trkpt>
      <trkpt lat="43.20197833" lon="-4.32867833">
        <ele>811.0</ele>
        <time>2018-05-19T16:52:30.478Z</time>
      </trkpt>
      <trkpt lat="43.20200833" lon="-4.32867833">
        <ele>812.0</ele>
        <time>2018-05-19T16:52:31.480Z</time>
      </trkpt>
      <trkpt lat="43.202025" lon="-4.32867833">
        <ele>812.0</ele>
        <time>2018-05-19T16:52:32.483Z</time>
      </trkpt>
      <trkpt lat="43.20204667" lon="-4.32868333">
        <ele>812.0</ele>
        <time>2018-05-19T16:52:33.484Z</time>
      </trkpt>
      <trkpt lat="43.20206667" lon="-4.32868833">
        <ele>812.0</ele>
        <time>2018-05-19T16:52:34.482Z</time>
      </trkpt>
      <trkpt lat="43.20206667" lon="-4.32868833">
        <ele>812.0</ele>
        <time>2018-05-19T16:52:35.478Z</time>
      </trkpt>
      <trkpt lat="43.20209833" lon="-4.32869">
        <ele>813.0</ele>
        <time>2018-05-19T16:52:36.448Z</time>
      </trkpt>
      <trkpt lat="43.20209833" lon="-4.32869">
        <ele>813.0</ele>
        <time>2018-05-19T16:52:37.478Z</time>
      </trkpt>
      <trkpt lat="43.20214167" lon="-4.32869833">
        <ele>813.0</ele>
        <time>2018-05-19T16:52:38.477Z</time>
      </trkpt>
      <trkpt lat="43.20214167" lon="-4.32869833">
        <ele>813.0</ele>
        <time>2018-05-19T16:52:39.480Z</time>
      </trkpt>
      <trkpt lat="43.20219833" lon="-4.32871">
        <ele>814.0</ele>
        <time>2018-05-19T16:52:40.481Z</time>
      </trkpt>
      <trkpt lat="43.20222167" lon="-4.32871833">
        <ele>814.0</ele>
        <time>2018-05-19T16:52:41.482Z</time>
      </trkpt>
      <trkpt lat="43.20222167" lon="-4.32871833">
        <ele>814.0</ele>
        <time>2018-05-19T16:52:42.476Z</time>
      </trkpt>
      <trkpt lat="43.20226333" lon="-4.32873667">
        <ele>815.0</ele>
        <time>2018-05-19T16:52:43.480Z</time>
      </trkpt>
      <trkpt lat="43.20226333" lon="-4.32873667">
        <ele>815.0</ele>
        <time>2018-05-19T16:52:44.487Z</time>
      </trkpt>
      <trkpt lat="43.2023" lon="-4.32875667">
        <ele>815.0</ele>
        <time>2018-05-19T16:52:45.482Z</time>
      </trkpt>
      <trkpt lat="43.2023" lon="-4.32875667">
        <ele>815.0</ele>
        <time>2018-05-19T16:52:46.477Z</time>
      </trkpt>
      <trkpt lat="43.20233167" lon="-4.32878833">
        <ele>815.0</ele>
        <time>2018-05-19T16:52:47.480Z</time>
      </trkpt>
      <trkpt lat="43.20233167" lon="-4.32878833">
        <ele>815.0</ele>
        <time>2018-05-19T16:52:48.475Z</time>
      </trkpt>
      <trkpt lat="43.20237" lon="-4.32882">
        <ele>816.0</ele>
        <time>2018-05-19T16:52:49.482Z</time>
      </trkpt>
      <trkpt lat="43.20237" lon="-4.32882">
        <ele>816.0</ele>
        <time>2018-05-19T16:52:50.479Z</time>
      </trkpt>
      <trkpt lat="43.20241167" lon="-4.32885167">
        <ele>816.0</ele>
        <time>2018-05-19T16:52:51.458Z</time>
      </trkpt>
      <trkpt lat="43.20241167" lon="-4.32885167">
        <ele>816.0</ele>
        <time>2018-05-19T16:52:52.484Z</time>
      </trkpt>
      <trkpt lat="43.20245333" lon="-4.328885">
        <ele>816.0</ele>
        <time>2018-05-19T16:52:53.481Z</time>
      </trkpt>
      <trkpt lat="43.20245333" lon="-4.328885">
        <ele>816.0</ele>
        <time>2018-05-19T16:52:54.483Z</time>
      </trkpt>
      <trkpt lat="43.20249167" lon="-4.32892333">
        <ele>816.0</ele>
        <time>2018-05-19T16:52:55.482Z</time>
      </trkpt>
      <trkpt lat="43.20249167" lon="-4.32892333">
        <ele>816.0</ele>
        <time>2018-05-19T16:52:56.459Z</time>
      </trkpt>
      <trkpt lat="43.202535" lon="-4.328965">
        <ele>816.0</ele>
        <time>2018-05-19T16:52:57.485Z</time>
      </trkpt>
      <trkpt lat="43.202535" lon="-4.328965">
        <ele>816.0</ele>
        <time>2018-05-19T16:52:58.477Z</time>
      </trkpt>
      <trkpt lat="43.20258" lon="-4.32900667">
        <ele>816.0</ele>
        <time>2018-05-19T16:52:59.482Z</time>
      </trkpt>
      <trkpt lat="43.20258" lon="-4.32900667">
        <ele>816.0</ele>
        <time>2018-05-19T16:53:00.477Z</time>
      </trkpt>
      <trkpt lat="43.20262" lon="-4.32904167">
        <ele>816.0</ele>
        <time>2018-05-19T16:53:01.481Z</time>
      </trkpt>
      <trkpt lat="43.20264167" lon="-4.32906">
        <ele>816.0</ele>
        <time>2018-05-19T16:53:02.482Z</time>
      </trkpt>
      <trkpt lat="43.20264167" lon="-4.32906">
        <ele>816.0</ele>
        <time>2018-05-19T16:53:03.476Z</time>
      </trkpt>
      <trkpt lat="43.20270167" lon="-4.32909">
        <ele>817.0</ele>
        <time>2018-05-19T16:53:04.483Z</time>
      </trkpt>
      <trkpt lat="43.20273" lon="-4.32910833">
        <ele>816.0</ele>
        <time>2018-05-19T16:53:05.482Z</time>
      </trkpt>
      <trkpt lat="43.20273" lon="-4.32910833">
        <ele>816.0</ele>
        <time>2018-05-19T16:53:06.478Z</time>
      </trkpt>
      <trkpt lat="43.20277833" lon="-4.329145">
        <ele>816.0</ele>
        <time>2018-05-19T16:53:07.482Z</time>
      </trkpt>
      <trkpt lat="43.20277833" lon="-4.329145">
        <ele>816.0</ele>
        <time>2018-05-19T16:53:08.479Z</time>
      </trkpt>
      <trkpt lat="43.20283333" lon="-4.32917667">
        <ele>816.0</ele>
        <time>2018-05-19T16:53:09.482Z</time>
      </trkpt>
      <trkpt lat="43.20283333" lon="-4.32917667">
        <ele>816.0</ele>
        <time>2018-05-19T16:53:10.475Z</time>
      </trkpt>
      <trkpt lat="43.20288833" lon="-4.3292">
        <ele>816.0</ele>
        <time>2018-05-19T16:53:11.482Z</time>
      </trkpt>
      <trkpt lat="43.20288833" lon="-4.3292">
        <ele>816.0</ele>
        <time>2018-05-19T16:53:12.479Z</time>
      </trkpt>
      <trkpt lat="43.20293167" lon="-4.32924167">
        <ele>816.0</ele>
        <time>2018-05-19T16:53:13.455Z</time>
      </trkpt>
      <trkpt lat="43.20293167" lon="-4.32924167">
        <ele>816.0</ele>
        <time>2018-05-19T16:53:14.487Z</time>
      </trkpt>
      <trkpt lat="43.20298833" lon="-4.32929167">
        <ele>816.0</ele>
        <time>2018-05-19T16:53:15.480Z</time>
      </trkpt>
      <trkpt lat="43.20298833" lon="-4.32929167">
        <ele>816.0</ele>
        <time>2018-05-19T16:53:16.476Z</time>
      </trkpt>
      <trkpt lat="43.20305167" lon="-4.32934667">
        <ele>815.0</ele>
        <time>2018-05-19T16:53:17.482Z</time>
      </trkpt>
      <trkpt lat="43.20305167" lon="-4.32934667">
        <ele>815.0</ele>
        <time>2018-05-19T16:53:18.475Z</time>
      </trkpt>
      <trkpt lat="43.20312333" lon="-4.32940167">
        <ele>814.0</ele>
        <time>2018-05-19T16:53:19.481Z</time>
      </trkpt>
      <trkpt lat="43.203155" lon="-4.32943167">
        <ele>814.0</ele>
        <time>2018-05-19T16:53:20.484Z</time>
      </trkpt>
      <trkpt lat="43.203155" lon="-4.32943167">
        <ele>814.0</ele>
        <time>2018-05-19T16:53:21.478Z</time>
      </trkpt>
      <trkpt lat="43.203225" lon="-4.32949333">
        <ele>814.0</ele>
        <time>2018-05-19T16:53:22.479Z</time>
      </trkpt>
      <trkpt lat="43.203225" lon="-4.32949333">
        <ele>814.0</ele>
        <time>2018-05-19T16:53:23.467Z</time>
      </trkpt>
      <trkpt lat="43.20329167" lon="-4.32955833">
        <ele>814.0</ele>
        <time>2018-05-19T16:53:24.483Z</time>
      </trkpt>
      <trkpt lat="43.203325" lon="-4.32958167">
        <ele>814.0</ele>
        <time>2018-05-19T16:53:25.449Z</time>
      </trkpt>
      <trkpt lat="43.203325" lon="-4.32958167">
        <ele>814.0</ele>
        <time>2018-05-19T16:53:26.455Z</time>
      </trkpt>
      <trkpt lat="43.20338167" lon="-4.32962167">
        <ele>814.0</ele>
        <time>2018-05-19T16:53:27.484Z</time>
      </trkpt>
      <trkpt lat="43.20340833" lon="-4.32964333">
        <ele>814.0</ele>
        <time>2018-05-19T16:53:28.483Z</time>
      </trkpt>
      <trkpt lat="43.20343667" lon="-4.329665">
        <ele>814.0</ele>
        <time>2018-05-19T16:53:29.478Z</time>
      </trkpt>
      <trkpt lat="43.20343667" lon="-4.329665">
        <ele>814.0</ele>
        <time>2018-05-19T16:53:30.476Z</time>
      </trkpt>
      <trkpt lat="43.20349667" lon="-4.32972333">
        <ele>814.0</ele>
        <time>2018-05-19T16:53:31.478Z</time>
      </trkpt>
      <trkpt lat="43.20349667" lon="-4.32972333">
        <ele>814.0</ele>
        <time>2018-05-19T16:53:32.476Z</time>
      </trkpt>
      <trkpt lat="43.20356667" lon="-4.32977833">
        <ele>814.0</ele>
        <time>2018-05-19T16:53:33.483Z</time>
      </trkpt>
      <trkpt lat="43.20356667" lon="-4.32977833">
        <ele>814.0</ele>
        <time>2018-05-19T16:53:34.453Z</time>
      </trkpt>
      <trkpt lat="43.20362833" lon="-4.329835">
        <ele>813.0</ele>
        <time>2018-05-19T16:53:35.481Z</time>
      </trkpt>
      <trkpt lat="43.20362833" lon="-4.329835">
        <ele>813.0</ele>
        <time>2018-05-19T16:53:36.476Z</time>
      </trkpt>
      <trkpt lat="43.20370333" lon="-4.32989833">
        <ele>813.0</ele>
        <time>2018-05-19T16:53:37.483Z</time>
      </trkpt>
      <trkpt lat="43.20370333" lon="-4.32989833">
        <ele>813.0</ele>
        <time>2018-05-19T16:53:38.476Z</time>
      </trkpt>
      <trkpt lat="43.20378167" lon="-4.32997167">
        <ele>813.0</ele>
        <time>2018-05-19T16:53:39.482Z</time>
      </trkpt>
      <trkpt lat="43.20378167" lon="-4.32997167">
        <ele>813.0</ele>
        <time>2018-05-19T16:53:40.475Z</time>
      </trkpt>
      <trkpt lat="43.20386" lon="-4.33004167">
        <ele>813.0</ele>
        <time>2018-05-19T16:53:41.481Z</time>
      </trkpt>
      <trkpt lat="43.20390167" lon="-4.330075">
        <ele>813.0</ele>
        <time>2018-05-19T16:53:42.481Z</time>
      </trkpt>
      <trkpt lat="43.20390167" lon="-4.330075">
        <ele>813.0</ele>
        <time>2018-05-19T16:53:43.476Z</time>
      </trkpt>
      <trkpt lat="43.20396667" lon="-4.33015">
        <ele>813.0</ele>
        <time>2018-05-19T16:53:44.483Z</time>
      </trkpt>
      <trkpt lat="43.20396667" lon="-4.33015">
        <ele>813.0</ele>
        <time>2018-05-19T16:53:45.479Z</time>
      </trkpt>
      <trkpt lat="43.20402833" lon="-4.33021833">
        <ele>813.0</ele>
        <time>2018-05-19T16:53:46.483Z</time>
      </trkpt>
      <trkpt lat="43.20406" lon="-4.33024833">
        <ele>813.0</ele>
        <time>2018-05-19T16:53:47.483Z</time>
      </trkpt>
      <trkpt lat="43.20406" lon="-4.33024833">
        <ele>813.0</ele>
        <time>2018-05-19T16:53:48.477Z</time>
      </trkpt>
      <trkpt lat="43.20413167" lon="-4.33030167">
        <ele>813.0</ele>
        <time>2018-05-19T16:53:49.480Z</time>
      </trkpt>
      <trkpt lat="43.20413167" lon="-4.33030167">
        <ele>813.0</ele>
        <time>2018-05-19T16:53:50.476Z</time>
      </trkpt>
      <trkpt lat="43.20421167" lon="-4.33036667">
        <ele>812.0</ele>
        <time>2018-05-19T16:53:51.465Z</time>
      </trkpt>
      <trkpt lat="43.20421167" lon="-4.33036667">
        <ele>812.0</ele>
        <time>2018-05-19T16:53:52.449Z</time>
      </trkpt>
      <trkpt lat="43.20429" lon="-4.33043">
        <ele>812.0</ele>
        <time>2018-05-19T16:53:53.482Z</time>
      </trkpt>
      <trkpt lat="43.20429" lon="-4.33043">
        <ele>812.0</ele>
        <time>2018-05-19T16:53:54.487Z</time>
      </trkpt>
      <trkpt lat="43.20437" lon="-4.33048167">
        <ele>812.0</ele>
        <time>2018-05-19T16:53:55.478Z</time>
      </trkpt>
      <trkpt lat="43.20441" lon="-4.330505">
        <ele>812.0</ele>
        <time>2018-05-19T16:53:56.456Z</time>
      </trkpt>
      <trkpt lat="43.20444833" lon="-4.33053167">
        <ele>812.0</ele>
        <time>2018-05-19T16:53:57.482Z</time>
      </trkpt>
      <trkpt lat="43.20444833" lon="-4.33053167">
        <ele>812.0</ele>
        <time>2018-05-19T16:53:58.468Z</time>
      </trkpt>
      <trkpt lat="43.20452" lon="-4.33058167">
        <ele>812.0</ele>
        <time>2018-05-19T16:53:59.454Z</time>
      </trkpt>
      <trkpt lat="43.20455833" lon="-4.33060333">
        <ele>812.0</ele>
        <time>2018-05-19T16:54:00.482Z</time>
      </trkpt>
      <trkpt lat="43.20459833" lon="-4.33062333">
        <ele>812.0</ele>
        <time>2018-05-19T16:54:01.483Z</time>
      </trkpt>
      <trkpt lat="43.20459833" lon="-4.33062333">
        <ele>812.0</ele>
        <time>2018-05-19T16:54:02.475Z</time>
      </trkpt>
      <trkpt lat="43.20467833" lon="-4.33066833">
        <ele>813.0</ele>
        <time>2018-05-19T16:54:03.481Z</time>
      </trkpt>
      <trkpt lat="43.20467833" lon="-4.33066833">
        <ele>813.0</ele>
        <time>2018-05-19T16:54:04.487Z</time>
      </trkpt>
      <trkpt lat="43.20475667" lon="-4.33071667">
        <ele>813.0</ele>
        <time>2018-05-19T16:54:05.481Z</time>
      </trkpt>
      <trkpt lat="43.20475667" lon="-4.33071667">
        <ele>813.0</ele>
        <time>2018-05-19T16:54:06.476Z</time>
      </trkpt>
      <trkpt lat="43.20483333" lon="-4.33076667">
        <ele>814.0</ele>
        <time>2018-05-19T16:54:07.480Z</time>
      </trkpt>
      <trkpt lat="43.20483333" lon="-4.33076667">
        <ele>814.0</ele>
        <time>2018-05-19T16:54:08.468Z</time>
      </trkpt>
      <trkpt lat="43.20490333" lon="-4.33081167">
        <ele>814.0</ele>
        <time>2018-05-19T16:54:09.472Z</time>
      </trkpt>
      <trkpt lat="43.20490333" lon="-4.33081167">
        <ele>814.0</ele>
        <time>2018-05-19T16:54:10.474Z</time>
      </trkpt>
      <trkpt lat="43.20497833" lon="-4.330855">
        <ele>814.0</ele>
        <time>2018-05-19T16:54:11.481Z</time>
      </trkpt>
      <trkpt lat="43.20497833" lon="-4.330855">
        <ele>814.0</ele>
        <time>2018-05-19T16:54:12.479Z</time>
      </trkpt>
      <trkpt lat="43.20505667" lon="-4.33089">
        <ele>815.0</ele>
        <time>2018-05-19T16:54:13.482Z</time>
      </trkpt>
      <trkpt lat="43.20505667" lon="-4.33089">
        <ele>815.0</ele>
        <time>2018-05-19T16:54:14.467Z</time>
      </trkpt>
      <trkpt lat="43.20514167" lon="-4.33092667">
        <ele>815.0</ele>
        <time>2018-05-19T16:54:15.453Z</time>
      </trkpt>
      <trkpt lat="43.20514167" lon="-4.33092667">
        <ele>815.0</ele>
        <time>2018-05-19T16:54:16.479Z</time>
      </trkpt>
      <trkpt lat="43.20521833" lon="-4.330945">
        <ele>815.0</ele>
        <time>2018-05-19T16:54:17.481Z</time>
      </trkpt>
      <trkpt lat="43.20521833" lon="-4.330945">
        <ele>815.0</ele>
        <time>2018-05-19T16:54:18.478Z</time>
      </trkpt>
      <trkpt lat="43.205295" lon="-4.33096167">
        <ele>815.0</ele>
        <time>2018-05-19T16:54:19.481Z</time>
      </trkpt>
      <trkpt lat="43.205295" lon="-4.33096167">
        <ele>815.0</ele>
        <time>2018-05-19T16:54:20.478Z</time>
      </trkpt>
      <trkpt lat="43.20536167" lon="-4.33097667">
        <ele>816.0</ele>
        <time>2018-05-19T16:54:21.481Z</time>
      </trkpt>
      <trkpt lat="43.20536167" lon="-4.33097667">
        <ele>816.0</ele>
        <time>2018-05-19T16:54:22.478Z</time>
      </trkpt>
      <trkpt lat="43.20542833" lon="-4.330995">
        <ele>816.0</ele>
        <time>2018-05-19T16:54:23.481Z</time>
      </trkpt>
      <trkpt lat="43.20546667" lon="-4.33100167">
        <ele>816.0</ele>
        <time>2018-05-19T16:54:24.453Z</time>
      </trkpt>
      <trkpt lat="43.20546667" lon="-4.33100167">
        <ele>816.0</ele>
        <time>2018-05-19T16:54:25.459Z</time>
      </trkpt>
      <trkpt lat="43.20553333" lon="-4.331015">
        <ele>816.0</ele>
        <time>2018-05-19T16:54:26.468Z</time>
      </trkpt>
      <trkpt lat="43.20553333" lon="-4.331015">
        <ele>816.0</ele>
        <time>2018-05-19T16:54:27.453Z</time>
      </trkpt>
      <trkpt lat="43.20560333" lon="-4.33103167">
        <ele>817.0</ele>
        <time>2018-05-19T16:54:28.481Z</time>
      </trkpt>
      <trkpt lat="43.20564" lon="-4.33103667">
        <ele>817.0</ele>
        <time>2018-05-19T16:54:29.482Z</time>
      </trkpt>
      <trkpt lat="43.20564" lon="-4.33103667">
        <ele>817.0</ele>
        <time>2018-05-19T16:54:30.458Z</time>
      </trkpt>
      <trkpt lat="43.20571667" lon="-4.33104333">
        <ele>817.0</ele>
        <time>2018-05-19T16:54:31.482Z</time>
      </trkpt>
      <trkpt lat="43.20571667" lon="-4.33104333">
        <ele>817.0</ele>
        <time>2018-05-19T16:54:32.476Z</time>
      </trkpt>
      <trkpt lat="43.2058" lon="-4.33103667">
        <ele>817.0</ele>
        <time>2018-05-19T16:54:33.480Z</time>
      </trkpt>
      <trkpt lat="43.2058" lon="-4.33103667">
        <ele>817.0</ele>
        <time>2018-05-19T16:54:34.487Z</time>
      </trkpt>
      <trkpt lat="43.20587667" lon="-4.33101667">
        <ele>818.0</ele>
        <time>2018-05-19T16:54:35.486Z</time>
      </trkpt>
      <trkpt lat="43.20587667" lon="-4.33101667">
        <ele>818.0</ele>
        <time>2018-05-19T16:54:36.484Z</time>
      </trkpt>
      <trkpt lat="43.20595167" lon="-4.33099333">
        <ele>819.0</ele>
        <time>2018-05-19T16:54:37.481Z</time>
      </trkpt>
      <trkpt lat="43.20598333" lon="-4.33098667">
        <ele>820.0</ele>
        <time>2018-05-19T16:54:38.482Z</time>
      </trkpt>
      <trkpt lat="43.20598333" lon="-4.33098667">
        <ele>820.0</ele>
        <time>2018-05-19T16:54:39.479Z</time>
      </trkpt>
      <trkpt lat="43.20604333" lon="-4.330965">
        <ele>820.0</ele>
        <time>2018-05-19T16:54:40.482Z</time>
      </trkpt>
      <trkpt lat="43.20604333" lon="-4.330965">
        <ele>820.0</ele>
        <time>2018-05-19T16:54:41.476Z</time>
      </trkpt>
      <trkpt lat="43.20610833" lon="-4.33091833">
        <ele>822.0</ele>
        <time>2018-05-19T16:54:42.481Z</time>
      </trkpt>
      <trkpt lat="43.20610833" lon="-4.33091833">
        <ele>822.0</ele>
        <time>2018-05-19T16:54:43.478Z</time>
      </trkpt>
      <trkpt lat="43.206185" lon="-4.33088">
        <ele>823.0</ele>
        <time>2018-05-19T16:54:44.482Z</time>
      </trkpt>
      <trkpt lat="43.206225" lon="-4.33086167">
        <ele>823.0</ele>
        <time>2018-05-19T16:54:45.481Z</time>
      </trkpt>
      <trkpt lat="43.206225" lon="-4.33086167">
        <ele>823.0</ele>
        <time>2018-05-19T16:54:46.476Z</time>
      </trkpt>
      <trkpt lat="43.20631667" lon="-4.33082167">
        <ele>824.0</ele>
        <time>2018-05-19T16:54:47.459Z</time>
      </trkpt>
      <trkpt lat="43.206365" lon="-4.33078167">
        <ele>823.0</ele>
        <time>2018-05-19T16:54:48.487Z</time>
      </trkpt>
      <trkpt lat="43.206365" lon="-4.33078167">
        <ele>823.0</ele>
        <time>2018-05-19T16:54:49.477Z</time>
      </trkpt>
      <trkpt lat="43.20644667" lon="-4.33073167">
        <ele>824.0</ele>
        <time>2018-05-19T16:54:50.477Z</time>
      </trkpt>
      <trkpt lat="43.20644667" lon="-4.33073167">
        <ele>824.0</ele>
        <time>2018-05-19T16:54:51.453Z</time>
      </trkpt>
      <trkpt lat="43.20649833" lon="-4.330695">
        <ele>824.0</ele>
        <time>2018-05-19T16:54:52.482Z</time>
      </trkpt>
      <trkpt lat="43.20652167" lon="-4.33068667">
        <ele>824.0</ele>
        <time>2018-05-19T16:54:53.481Z</time>
      </trkpt>
      <trkpt lat="43.20652167" lon="-4.33068667">
        <ele>824.0</ele>
        <time>2018-05-19T16:54:54.487Z</time>
      </trkpt>
      <trkpt lat="43.20656" lon="-4.33068">
        <ele>825.0</ele>
        <time>2018-05-19T16:54:55.483Z</time>
      </trkpt>
      <trkpt lat="43.20656" lon="-4.33068">
        <ele>825.0</ele>
        <time>2018-05-19T16:54:56.478Z</time>
      </trkpt>
      <trkpt lat="43.2066" lon="-4.33066333">
        <ele>825.0</ele>
        <time>2018-05-19T16:54:57.452Z</time>
      </trkpt>
      <trkpt lat="43.2066" lon="-4.33066333">
        <ele>825.0</ele>
        <time>2018-05-19T16:54:58.479Z</time>
      </trkpt>
      <trkpt lat="43.206635" lon="-4.330655">
        <ele>826.0</ele>
        <time>2018-05-19T16:54:59.482Z</time>
      </trkpt>
      <trkpt lat="43.20665333" lon="-4.33065333">
        <ele>826.0</ele>
        <time>2018-05-19T16:55:00.481Z</time>
      </trkpt>
      <trkpt lat="43.20665333" lon="-4.33065333">
        <ele>826.0</ele>
        <time>2018-05-19T16:55:01.477Z</time>
      </trkpt>
      <trkpt lat="43.206695" lon="-4.330645">
        <ele>826.0</ele>
        <time>2018-05-19T16:55:02.481Z</time>
      </trkpt>
      <trkpt lat="43.20671333" lon="-4.33063833">
        <ele>826.0</ele>
        <time>2018-05-19T16:55:03.483Z</time>
      </trkpt>
      <trkpt lat="43.20671333" lon="-4.33063833">
        <ele>826.0</ele>
        <time>2018-05-19T16:55:04.487Z</time>
      </trkpt>
      <trkpt lat="43.20675" lon="-4.33062333">
        <ele>826.0</ele>
        <time>2018-05-19T16:55:05.471Z</time>
      </trkpt>
      <trkpt lat="43.20675" lon="-4.33062333">
        <ele>826.0</ele>
        <time>2018-05-19T16:55:06.459Z</time>
      </trkpt>
      <trkpt lat="43.20677833" lon="-4.33060667">
        <ele>827.0</ele>
        <time>2018-05-19T16:55:07.448Z</time>
      </trkpt>
      <trkpt lat="43.20677833" lon="-4.33060667">
        <ele>827.0</ele>
        <time>2018-05-19T16:55:08.479Z</time>
      </trkpt>
      <trkpt lat="43.20681" lon="-4.33059167">
        <ele>827.0</ele>
        <time>2018-05-19T16:55:09.481Z</time>
      </trkpt>
      <trkpt lat="43.20681" lon="-4.33059167">
        <ele>827.0</ele>
        <time>2018-05-19T16:55:10.477Z</time>
      </trkpt>
      <trkpt lat="43.20684" lon="-4.330575">
        <ele>827.0</ele>
        <time>2018-05-19T16:55:11.482Z</time>
      </trkpt>
      <trkpt lat="43.20684" lon="-4.330575">
        <ele>827.0</ele>
        <time>2018-05-19T16:55:12.478Z</time>
      </trkpt>
      <trkpt lat="43.20687" lon="-4.33055833">
        <ele>827.0</ele>
        <time>2018-05-19T16:55:13.482Z</time>
      </trkpt>
      <trkpt lat="43.20688667" lon="-4.33054833">
        <ele>827.0</ele>
        <time>2018-05-19T16:55:14.482Z</time>
      </trkpt>
      <trkpt lat="43.20688667" lon="-4.33054833">
        <ele>827.0</ele>
        <time>2018-05-19T16:55:15.477Z</time>
      </trkpt>
      <trkpt lat="43.206915" lon="-4.33052833">
        <ele>827.0</ele>
        <time>2018-05-19T16:55:16.478Z</time>
      </trkpt>
      <trkpt lat="43.20692833" lon="-4.330515">
        <ele>827.0</ele>
        <time>2018-05-19T16:55:17.481Z</time>
      </trkpt>
      <trkpt lat="43.20692833" lon="-4.330515">
        <ele>827.0</ele>
        <time>2018-05-19T16:55:18.475Z</time>
      </trkpt>
      <trkpt lat="43.206955" lon="-4.33048667">
        <ele>827.0</ele>
        <time>2018-05-19T16:55:19.480Z</time>
      </trkpt>
      <trkpt lat="43.206955" lon="-4.33048667">
        <ele>827.0</ele>
        <time>2018-05-19T16:55:20.478Z</time>
      </trkpt>
      <trkpt lat="43.20698333" lon="-4.33046">
        <ele>827.0</ele>
        <time>2018-05-19T16:55:21.483Z</time>
      </trkpt>
      <trkpt lat="43.20698333" lon="-4.33046">
        <ele>827.0</ele>
        <time>2018-05-19T16:55:22.479Z</time>
      </trkpt>
      <trkpt lat="43.20701167" lon="-4.33043833">
        <ele>827.0</ele>
        <time>2018-05-19T16:55:23.453Z</time>
      </trkpt>
      <trkpt lat="43.20702833" lon="-4.33042333">
        <ele>826.0</ele>
        <time>2018-05-19T16:55:24.466Z</time>
      </trkpt>
      <trkpt lat="43.20704167" lon="-4.33041">
        <ele>826.0</ele>
        <time>2018-05-19T16:55:25.473Z</time>
      </trkpt>
      <trkpt lat="43.20704167" lon="-4.33041">
        <ele>826.0</ele>
        <time>2018-05-19T16:55:26.480Z</time>
      </trkpt>
      <trkpt lat="43.207065" lon="-4.33038333">
        <ele>826.0</ele>
        <time>2018-05-19T16:55:27.483Z</time>
      </trkpt>
      <trkpt lat="43.207065" lon="-4.33038333">
        <ele>826.0</ele>
        <time>2018-05-19T16:55:28.472Z</time>
      </trkpt>
      <trkpt lat="43.20709333" lon="-4.33035667">
        <ele>826.0</ele>
        <time>2018-05-19T16:55:29.481Z</time>
      </trkpt>
      <trkpt lat="43.20709333" lon="-4.33035667">
        <ele>826.0</ele>
        <time>2018-05-19T16:55:30.479Z</time>
      </trkpt>
      <trkpt lat="43.20711667" lon="-4.33033167">
        <ele>827.0</ele>
        <time>2018-05-19T16:55:31.481Z</time>
      </trkpt>
      <trkpt lat="43.20711667" lon="-4.33033167">
        <ele>827.0</ele>
        <time>2018-05-19T16:55:32.475Z</time>
      </trkpt>
      <trkpt lat="43.207135" lon="-4.33030333">
        <ele>827.0</ele>
        <time>2018-05-19T16:55:33.483Z</time>
      </trkpt>
      <trkpt lat="43.207135" lon="-4.33030333">
        <ele>827.0</ele>
        <time>2018-05-19T16:55:34.487Z</time>
      </trkpt>
      <trkpt lat="43.20715333" lon="-4.330275">
        <ele>827.0</ele>
        <time>2018-05-19T16:55:35.481Z</time>
      </trkpt>
      <trkpt lat="43.20715333" lon="-4.330275">
        <ele>827.0</ele>
        <time>2018-05-19T16:55:36.479Z</time>
      </trkpt>
      <trkpt lat="43.20717167" lon="-4.330245">
        <ele>828.0</ele>
        <time>2018-05-19T16:55:37.481Z</time>
      </trkpt>
      <trkpt lat="43.20717167" lon="-4.330245">
        <ele>828.0</ele>
        <time>2018-05-19T16:55:38.478Z</time>
      </trkpt>
      <trkpt lat="43.20719" lon="-4.33021">
        <ele>828.0</ele>
        <time>2018-05-19T16:55:39.481Z</time>
      </trkpt>
      <trkpt lat="43.20719" lon="-4.33021">
        <ele>828.0</ele>
        <time>2018-05-19T16:55:40.478Z</time>
      </trkpt>
      <trkpt lat="43.207215" lon="-4.33017833">
        <ele>828.0</ele>
        <time>2018-05-19T16:55:41.481Z</time>
      </trkpt>
      <trkpt lat="43.207215" lon="-4.33017833">
        <ele>828.0</ele>
        <time>2018-05-19T16:55:42.478Z</time>
      </trkpt>
      <trkpt lat="43.20723667" lon="-4.33014667">
        <ele>829.0</ele>
        <time>2018-05-19T16:55:43.480Z</time>
      </trkpt>
      <trkpt lat="43.20724667" lon="-4.33013167">
        <ele>829.0</ele>
        <time>2018-05-19T16:55:44.483Z</time>
      </trkpt>
      <trkpt lat="43.20725667" lon="-4.33011833">
        <ele>829.0</ele>
        <time>2018-05-19T16:55:45.483Z</time>
      </trkpt>
      <trkpt lat="43.20725667" lon="-4.33011833">
        <ele>829.0</ele>
        <time>2018-05-19T16:55:46.477Z</time>
      </trkpt>
      <trkpt lat="43.20728333" lon="-4.33009333">
        <ele>829.0</ele>
        <time>2018-05-19T16:55:47.482Z</time>
      </trkpt>
      <trkpt lat="43.20728333" lon="-4.33009333">
        <ele>829.0</ele>
        <time>2018-05-19T16:55:48.479Z</time>
      </trkpt>
      <trkpt lat="43.20730833" lon="-4.33007">
        <ele>829.0</ele>
        <time>2018-05-19T16:55:49.482Z</time>
      </trkpt>
      <trkpt lat="43.20732" lon="-4.33006">
        <ele>829.0</ele>
        <time>2018-05-19T16:55:50.481Z</time>
      </trkpt>
      <trkpt lat="43.20733333" lon="-4.33004833">
        <ele>829.0</ele>
        <time>2018-05-19T16:55:51.453Z</time>
      </trkpt>
      <trkpt lat="43.20733333" lon="-4.33004833">
        <ele>829.0</ele>
        <time>2018-05-19T16:55:52.478Z</time>
      </trkpt>
      <trkpt lat="43.20736" lon="-4.33002833">
        <ele>829.0</ele>
        <time>2018-05-19T16:55:53.480Z</time>
      </trkpt>
      <trkpt lat="43.20737167" lon="-4.33002">
        <ele>829.0</ele>
        <time>2018-05-19T16:55:54.454Z</time>
      </trkpt>
      <trkpt lat="43.20737167" lon="-4.33002">
        <ele>829.0</ele>
        <time>2018-05-19T16:55:55.479Z</time>
      </trkpt>
      <trkpt lat="43.20739833" lon="-4.33000667">
        <ele>829.0</ele>
        <time>2018-05-19T16:55:56.477Z</time>
      </trkpt>
      <trkpt lat="43.20741" lon="-4.33000167">
        <ele>830.0</ele>
        <time>2018-05-19T16:55:57.481Z</time>
      </trkpt>
      <trkpt lat="43.20741" lon="-4.33000167">
        <ele>830.0</ele>
        <time>2018-05-19T16:55:58.478Z</time>
      </trkpt>
      <trkpt lat="43.207435" lon="-4.32999333">
        <ele>830.0</ele>
        <time>2018-05-19T16:55:59.479Z</time>
      </trkpt>
      <trkpt lat="43.20744833" lon="-4.32998833">
        <ele>830.0</ele>
        <time>2018-05-19T16:56:00.477Z</time>
      </trkpt>
      <trkpt lat="43.20744833" lon="-4.32998833">
        <ele>830.0</ele>
        <time>2018-05-19T16:56:01.479Z</time>
      </trkpt>
      <trkpt lat="43.207475" lon="-4.32997833">
        <ele>830.0</ele>
        <time>2018-05-19T16:56:02.481Z</time>
      </trkpt>
      <trkpt lat="43.20748833" lon="-4.329975">
        <ele>830.0</ele>
        <time>2018-05-19T16:56:03.482Z</time>
      </trkpt>
      <trkpt lat="43.20748833" lon="-4.329975">
        <ele>830.0</ele>
        <time>2018-05-19T16:56:04.487Z</time>
      </trkpt>
      <trkpt lat="43.20752" lon="-4.329975">
        <ele>831.0</ele>
        <time>2018-05-19T16:56:05.481Z</time>
      </trkpt>
      <trkpt lat="43.20752" lon="-4.329975">
        <ele>831.0</ele>
        <time>2018-05-19T16:56:06.474Z</time>
      </trkpt>
      <trkpt lat="43.20755" lon="-4.32998167">
        <ele>831.0</ele>
        <time>2018-05-19T16:56:07.480Z</time>
      </trkpt>
      <trkpt lat="43.20755" lon="-4.32998167">
        <ele>831.0</ele>
        <time>2018-05-19T16:56:08.478Z</time>
      </trkpt>
      <trkpt lat="43.20758" lon="-4.32998833">
        <ele>831.0</ele>
        <time>2018-05-19T16:56:09.483Z</time>
      </trkpt>
      <trkpt lat="43.20758" lon="-4.32998833">
        <ele>831.0</ele>
        <time>2018-05-19T16:56:10.477Z</time>
      </trkpt>
      <trkpt lat="43.207605" lon="-4.330005">
        <ele>832.0</ele>
        <time>2018-05-19T16:56:11.480Z</time>
      </trkpt>
      <trkpt lat="43.207605" lon="-4.330005">
        <ele>832.0</ele>
        <time>2018-05-19T16:56:12.479Z</time>
      </trkpt>
      <trkpt lat="43.20763167" lon="-4.33001833">
        <ele>832.0</ele>
        <time>2018-05-19T16:56:13.483Z</time>
      </trkpt>
      <trkpt lat="43.20763167" lon="-4.33001833">
        <ele>832.0</ele>
        <time>2018-05-19T16:56:14.486Z</time>
      </trkpt>
      <trkpt lat="43.20766" lon="-4.33003167">
        <ele>832.0</ele>
        <time>2018-05-19T16:56:15.481Z</time>
      </trkpt>
      <trkpt lat="43.20766" lon="-4.33003167">
        <ele>832.0</ele>
        <time>2018-05-19T16:56:16.477Z</time>
      </trkpt>
      <trkpt lat="43.20769333" lon="-4.33004833">
        <ele>832.0</ele>
        <time>2018-05-19T16:56:17.481Z</time>
      </trkpt>
      <trkpt lat="43.20769333" lon="-4.33004833">
        <ele>832.0</ele>
        <time>2018-05-19T16:56:18.483Z</time>
      </trkpt>
      <trkpt lat="43.20772333" lon="-4.33006833">
        <ele>832.0</ele>
        <time>2018-05-19T16:56:19.481Z</time>
      </trkpt>
      <trkpt lat="43.20772333" lon="-4.33006833">
        <ele>832.0</ele>
        <time>2018-05-19T16:56:20.479Z</time>
      </trkpt>
      <trkpt lat="43.207755" lon="-4.330095">
        <ele>833.0</ele>
        <time>2018-05-19T16:56:21.481Z</time>
      </trkpt>
      <trkpt lat="43.207755" lon="-4.330095">
        <ele>833.0</ele>
        <time>2018-05-19T16:56:22.478Z</time>
      </trkpt>
      <trkpt lat="43.20778333" lon="-4.330125">
        <ele>833.0</ele>
        <time>2018-05-19T16:56:23.479Z</time>
      </trkpt>
      <trkpt lat="43.20778333" lon="-4.330125">
        <ele>833.0</ele>
        <time>2018-05-19T16:56:24.478Z</time>
      </trkpt>
      <trkpt lat="43.207805" lon="-4.33015667">
        <ele>833.0</ele>
        <time>2018-05-19T16:56:25.484Z</time>
      </trkpt>
      <trkpt lat="43.207805" lon="-4.33015667">
        <ele>833.0</ele>
        <time>2018-05-19T16:56:26.452Z</time>
      </trkpt>
      <trkpt lat="43.207825" lon="-4.330195">
        <ele>834.0</ele>
        <time>2018-05-19T16:56:27.481Z</time>
      </trkpt>
      <trkpt lat="43.207825" lon="-4.330195">
        <ele>834.0</ele>
        <time>2018-05-19T16:56:28.477Z</time>
      </trkpt>
      <trkpt lat="43.20785167" lon="-4.330225">
        <ele>834.0</ele>
        <time>2018-05-19T16:56:29.481Z</time>
      </trkpt>
      <trkpt lat="43.20785167" lon="-4.330225">
        <ele>834.0</ele>
        <time>2018-05-19T16:56:30.453Z</time>
      </trkpt>
      <trkpt lat="43.20788" lon="-4.33027">
        <ele>834.0</ele>
        <time>2018-05-19T16:56:31.480Z</time>
      </trkpt>
      <trkpt lat="43.20789333" lon="-4.33029167">
        <ele>834.0</ele>
        <time>2018-05-19T16:56:32.477Z</time>
      </trkpt>
      <trkpt lat="43.207905" lon="-4.33031167">
        <ele>834.0</ele>
        <time>2018-05-19T16:56:33.482Z</time>
      </trkpt>
      <trkpt lat="43.207905" lon="-4.33031167">
        <ele>834.0</ele>
        <time>2018-05-19T16:56:34.457Z</time>
      </trkpt>
      <trkpt lat="43.20792333" lon="-4.330365">
        <ele>834.0</ele>
        <time>2018-05-19T16:56:35.483Z</time>
      </trkpt>
      <trkpt lat="43.20792333" lon="-4.330365">
        <ele>834.0</ele>
        <time>2018-05-19T16:56:36.474Z</time>
      </trkpt>
      <trkpt lat="43.20794667" lon="-4.33041333">
        <ele>834.0</ele>
        <time>2018-05-19T16:56:37.481Z</time>
      </trkpt>
      <trkpt lat="43.20794667" lon="-4.33041333">
        <ele>834.0</ele>
        <time>2018-05-19T16:56:38.471Z</time>
      </trkpt>
      <trkpt lat="43.20796833" lon="-4.33046167">
        <ele>835.0</ele>
        <time>2018-05-19T16:56:39.456Z</time>
      </trkpt>
      <trkpt lat="43.20796833" lon="-4.33046167">
        <ele>835.0</ele>
        <time>2018-05-19T16:56:40.482Z</time>
      </trkpt>
      <trkpt lat="43.20799" lon="-4.33050667">
        <ele>835.0</ele>
        <time>2018-05-19T16:56:41.483Z</time>
      </trkpt>
      <trkpt lat="43.20799" lon="-4.33050667">
        <ele>835.0</ele>
        <time>2018-05-19T16:56:42.478Z</time>
      </trkpt>
      <trkpt lat="43.20801" lon="-4.330545">
        <ele>836.0</ele>
        <time>2018-05-19T16:56:43.477Z</time>
      </trkpt>
      <trkpt lat="43.20801" lon="-4.330545">
        <ele>836.0</ele>
        <time>2018-05-19T16:56:44.486Z</time>
      </trkpt>
      <trkpt lat="43.20803" lon="-4.330575">
        <ele>836.0</ele>
        <time>2018-05-19T16:56:45.484Z</time>
      </trkpt>
      <trkpt lat="43.20803" lon="-4.330575">
        <ele>836.0</ele>
        <time>2018-05-19T16:56:46.474Z</time>
      </trkpt>
      <trkpt lat="43.20805167" lon="-4.33060833">
        <ele>836.0</ele>
        <time>2018-05-19T16:56:47.481Z</time>
      </trkpt>
      <trkpt lat="43.20805167" lon="-4.33060833">
        <ele>836.0</ele>
        <time>2018-05-19T16:56:48.474Z</time>
      </trkpt>
      <trkpt lat="43.20807167" lon="-4.330645">
        <ele>837.0</ele>
        <time>2018-05-19T16:56:49.480Z</time>
      </trkpt>
      <trkpt lat="43.20808333" lon="-4.33066167">
        <ele>837.0</ele>
        <time>2018-05-19T16:56:50.480Z</time>
      </trkpt>
      <trkpt lat="43.208095" lon="-4.33067667">
        <ele>837.0</ele>
        <time>2018-05-19T16:56:51.464Z</time>
      </trkpt>
      <trkpt lat="43.208095" lon="-4.33067667">
        <ele>837.0</ele>
        <time>2018-05-19T16:56:52.453Z</time>
      </trkpt>
      <trkpt lat="43.20812" lon="-4.33071333">
        <ele>838.0</ele>
        <time>2018-05-19T16:56:53.481Z</time>
      </trkpt>
      <trkpt lat="43.20813333" lon="-4.33073667">
        <ele>838.0</ele>
        <time>2018-05-19T16:56:54.483Z</time>
      </trkpt>
      <trkpt lat="43.20813333" lon="-4.33073667">
        <ele>838.0</ele>
        <time>2018-05-19T16:56:55.477Z</time>
      </trkpt>
      <trkpt lat="43.20816" lon="-4.33077833">
        <ele>838.0</ele>
        <time>2018-05-19T16:56:56.480Z</time>
      </trkpt>
      <trkpt lat="43.20817333" lon="-4.33079833">
        <ele>838.0</ele>
        <time>2018-05-19T16:56:57.481Z</time>
      </trkpt>
      <trkpt lat="43.20817333" lon="-4.33079833">
        <ele>838.0</ele>
        <time>2018-05-19T16:56:58.467Z</time>
      </trkpt>
      <trkpt lat="43.20819667" lon="-4.330835">
        <ele>838.0</ele>
        <time>2018-05-19T16:56:59.453Z</time>
      </trkpt>
      <trkpt lat="43.20819667" lon="-4.330835">
        <ele>838.0</ele>
        <time>2018-05-19T16:57:00.479Z</time>
      </trkpt>
      <trkpt lat="43.20821667" lon="-4.33087">
        <ele>838.0</ele>
        <time>2018-05-19T16:57:01.457Z</time>
      </trkpt>
      <trkpt lat="43.20821667" lon="-4.33087">
        <ele>838.0</ele>
        <time>2018-05-19T16:57:02.479Z</time>
      </trkpt>
      <trkpt lat="43.208235" lon="-4.330905">
        <ele>839.0</ele>
        <time>2018-05-19T16:57:03.481Z</time>
      </trkpt>
      <trkpt lat="43.208235" lon="-4.330905">
        <ele>839.0</ele>
        <time>2018-05-19T16:57:04.485Z</time>
      </trkpt>
      <trkpt lat="43.20825333" lon="-4.33094333">
        <ele>839.0</ele>
        <time>2018-05-19T16:57:05.481Z</time>
      </trkpt>
      <trkpt lat="43.20825333" lon="-4.33094333">
        <ele>839.0</ele>
        <time>2018-05-19T16:57:06.484Z</time>
      </trkpt>
      <trkpt lat="43.20827167" lon="-4.33098">
        <ele>840.0</ele>
        <time>2018-05-19T16:57:07.481Z</time>
      </trkpt>
      <trkpt lat="43.20827167" lon="-4.33098">
        <ele>840.0</ele>
        <time>2018-05-19T16:57:08.478Z</time>
      </trkpt>
      <trkpt lat="43.20829167" lon="-4.33102">
        <ele>840.0</ele>
        <time>2018-05-19T16:57:09.481Z</time>
      </trkpt>
      <trkpt lat="43.20829167" lon="-4.33102">
        <ele>840.0</ele>
        <time>2018-05-19T16:57:10.478Z</time>
      </trkpt>
      <trkpt lat="43.20831333" lon="-4.33105833">
        <ele>841.0</ele>
        <time>2018-05-19T16:57:11.480Z</time>
      </trkpt>
      <trkpt lat="43.208325" lon="-4.33108">
        <ele>841.0</ele>
        <time>2018-05-19T16:57:12.481Z</time>
      </trkpt>
      <trkpt lat="43.208325" lon="-4.33108">
        <ele>841.0</ele>
        <time>2018-05-19T16:57:13.475Z</time>
      </trkpt>
      <trkpt lat="43.20835167" lon="-4.33112">
        <ele>841.0</ele>
        <time>2018-05-19T16:57:14.483Z</time>
      </trkpt>
      <trkpt lat="43.20836833" lon="-4.33114333">
        <ele>841.0</ele>
        <time>2018-05-19T16:57:15.482Z</time>
      </trkpt>
      <trkpt lat="43.20836833" lon="-4.33114333">
        <ele>841.0</ele>
        <time>2018-05-19T16:57:16.479Z</time>
      </trkpt>
      <trkpt lat="43.20840333" lon="-4.33119833">
        <ele>841.0</ele>
        <time>2018-05-19T16:57:17.481Z</time>
      </trkpt>
      <trkpt lat="43.20840333" lon="-4.33119833">
        <ele>841.0</ele>
        <time>2018-05-19T16:57:18.472Z</time>
      </trkpt>
      <trkpt lat="43.20843" lon="-4.331255">
        <ele>841.0</ele>
        <time>2018-05-19T16:57:19.481Z</time>
      </trkpt>
      <trkpt lat="43.20843" lon="-4.331255">
        <ele>841.0</ele>
        <time>2018-05-19T16:57:20.478Z</time>
      </trkpt>
      <trkpt lat="43.208465" lon="-4.33131667">
        <ele>841.0</ele>
        <time>2018-05-19T16:57:21.481Z</time>
      </trkpt>
      <trkpt lat="43.208465" lon="-4.33131667">
        <ele>841.0</ele>
        <time>2018-05-19T16:57:22.479Z</time>
      </trkpt>
      <trkpt lat="43.208495" lon="-4.33137833">
        <ele>841.0</ele>
        <time>2018-05-19T16:57:23.481Z</time>
      </trkpt>
      <trkpt lat="43.208495" lon="-4.33137833">
        <ele>841.0</ele>
        <time>2018-05-19T16:57:24.466Z</time>
      </trkpt>
      <trkpt lat="43.208525" lon="-4.33143667">
        <ele>841.0</ele>
        <time>2018-05-19T16:57:25.473Z</time>
      </trkpt>
      <trkpt lat="43.208525" lon="-4.33143667">
        <ele>841.0</ele>
        <time>2018-05-19T16:57:26.480Z</time>
      </trkpt>
      <trkpt lat="43.20855333" lon="-4.33149833">
        <ele>841.0</ele>
        <time>2018-05-19T16:57:27.483Z</time>
      </trkpt>
      <trkpt lat="43.20855333" lon="-4.33149833">
        <ele>841.0</ele>
        <time>2018-05-19T16:57:28.479Z</time>
      </trkpt>
      <trkpt lat="43.20858" lon="-4.33156">
        <ele>842.0</ele>
        <time>2018-05-19T16:57:29.480Z</time>
      </trkpt>
      <trkpt lat="43.20858" lon="-4.33156">
        <ele>842.0</ele>
        <time>2018-05-19T16:57:30.487Z</time>
      </trkpt>
      <trkpt lat="43.208605" lon="-4.331615">
        <ele>842.0</ele>
        <time>2018-05-19T16:57:31.480Z</time>
      </trkpt>
      <trkpt lat="43.20861833" lon="-4.33164167">
        <ele>842.0</ele>
        <time>2018-05-19T16:57:32.481Z</time>
      </trkpt>
      <trkpt lat="43.20861833" lon="-4.33164167">
        <ele>842.0</ele>
        <time>2018-05-19T16:57:33.476Z</time>
      </trkpt>
      <trkpt lat="43.20864667" lon="-4.331695">
        <ele>842.0</ele>
        <time>2018-05-19T16:57:34.448Z</time>
      </trkpt>
      <trkpt lat="43.20865667" lon="-4.33172333">
        <ele>842.0</ele>
        <time>2018-05-19T16:57:35.481Z</time>
      </trkpt>
      <trkpt lat="43.20865667" lon="-4.33172333">
        <ele>842.0</ele>
        <time>2018-05-19T16:57:36.476Z</time>
      </trkpt>
      <trkpt lat="43.20868" lon="-4.33178667">
        <ele>843.0</ele>
        <time>2018-05-19T16:57:37.480Z</time>
      </trkpt>
      <trkpt lat="43.20869167" lon="-4.33181833">
        <ele>843.0</ele>
        <time>2018-05-19T16:57:38.480Z</time>
      </trkpt>
      <trkpt lat="43.208705" lon="-4.33185">
        <ele>843.0</ele>
        <time>2018-05-19T16:57:39.478Z</time>
      </trkpt>
      <trkpt lat="43.208705" lon="-4.33185">
        <ele>843.0</ele>
        <time>2018-05-19T16:57:40.476Z</time>
      </trkpt>
      <trkpt lat="43.20872833" lon="-4.331915">
        <ele>843.0</ele>
        <time>2018-05-19T16:57:41.453Z</time>
      </trkpt>
      <trkpt lat="43.20872833" lon="-4.331915">
        <ele>843.0</ele>
        <time>2018-05-19T16:57:42.479Z</time>
      </trkpt>
      <trkpt lat="43.208755" lon="-4.33198167">
        <ele>843.0</ele>
        <time>2018-05-19T16:57:43.480Z</time>
      </trkpt>
      <trkpt lat="43.208755" lon="-4.33198167">
        <ele>843.0</ele>
        <time>2018-05-19T16:57:44.487Z</time>
      </trkpt>
      <trkpt lat="43.20878167" lon="-4.332055">
        <ele>843.0</ele>
        <time>2018-05-19T16:57:45.483Z</time>
      </trkpt>
      <trkpt lat="43.20878167" lon="-4.332055">
        <ele>843.0</ele>
        <time>2018-05-19T16:57:46.479Z</time>
      </trkpt>
      <trkpt lat="43.20881333" lon="-4.33212667">
        <ele>843.0</ele>
        <time>2018-05-19T16:57:47.482Z</time>
      </trkpt>
      <trkpt lat="43.20881333" lon="-4.33212667">
        <ele>843.0</ele>
        <time>2018-05-19T16:57:48.479Z</time>
      </trkpt>
      <trkpt lat="43.20884167" lon="-4.33219333">
        <ele>843.0</ele>
        <time>2018-05-19T16:57:49.482Z</time>
      </trkpt>
      <trkpt lat="43.20884167" lon="-4.33219333">
        <ele>843.0</ele>
        <time>2018-05-19T16:57:50.479Z</time>
      </trkpt>
      <trkpt lat="43.20887333" lon="-4.33225833">
        <ele>843.0</ele>
        <time>2018-05-19T16:57:51.474Z</time>
      </trkpt>
      <trkpt lat="43.20887333" lon="-4.33225833">
        <ele>843.0</ele>
        <time>2018-05-19T16:57:52.478Z</time>
      </trkpt>
      <trkpt lat="43.208905" lon="-4.33232833">
        <ele>843.0</ele>
        <time>2018-05-19T16:57:53.480Z</time>
      </trkpt>
      <trkpt lat="43.208905" lon="-4.33232833">
        <ele>843.0</ele>
        <time>2018-05-19T16:57:54.487Z</time>
      </trkpt>
      <trkpt lat="43.20893833" lon="-4.33239833">
        <ele>843.0</ele>
        <time>2018-05-19T16:57:55.466Z</time>
      </trkpt>
      <trkpt lat="43.20893833" lon="-4.33239833">
        <ele>843.0</ele>
        <time>2018-05-19T16:57:56.452Z</time>
      </trkpt>
      <trkpt lat="43.20897" lon="-4.33247167">
        <ele>843.0</ele>
        <time>2018-05-19T16:57:57.481Z</time>
      </trkpt>
      <trkpt lat="43.20897" lon="-4.33247167">
        <ele>843.0</ele>
        <time>2018-05-19T16:57:58.478Z</time>
      </trkpt>
      <trkpt lat="43.20899667" lon="-4.33255167">
        <ele>843.0</ele>
        <time>2018-05-19T16:57:59.477Z</time>
      </trkpt>
      <trkpt lat="43.20901167" lon="-4.33259333">
        <ele>843.0</ele>
        <time>2018-05-19T16:58:00.484Z</time>
      </trkpt>
      <trkpt lat="43.20901167" lon="-4.33259333">
        <ele>843.0</ele>
        <time>2018-05-19T16:58:01.474Z</time>
      </trkpt>
      <trkpt lat="43.20904333" lon="-4.33268167">
        <ele>843.0</ele>
        <time>2018-05-19T16:58:02.481Z</time>
      </trkpt>
      <trkpt lat="43.20905833" lon="-4.33272667">
        <ele>843.0</ele>
        <time>2018-05-19T16:58:03.479Z</time>
      </trkpt>
      <trkpt lat="43.20905833" lon="-4.33272667">
        <ele>843.0</ele>
        <time>2018-05-19T16:58:04.485Z</time>
      </trkpt>
      <trkpt lat="43.20909" lon="-4.33280833">
        <ele>843.0</ele>
        <time>2018-05-19T16:58:05.481Z</time>
      </trkpt>
      <trkpt lat="43.20909" lon="-4.33280833">
        <ele>843.0</ele>
        <time>2018-05-19T16:58:06.478Z</time>
      </trkpt>
      <trkpt lat="43.20912167" lon="-4.33289">
        <ele>843.0</ele>
        <time>2018-05-19T16:58:07.480Z</time>
      </trkpt>
      <trkpt lat="43.20912167" lon="-4.33289">
        <ele>843.0</ele>
        <time>2018-05-19T16:58:08.478Z</time>
      </trkpt>
      <trkpt lat="43.20915667" lon="-4.33298667">
        <ele>843.0</ele>
        <time>2018-05-19T16:58:09.477Z</time>
      </trkpt>
      <trkpt lat="43.20917167" lon="-4.333035">
        <ele>843.0</ele>
        <time>2018-05-19T16:58:10.481Z</time>
      </trkpt>
      <trkpt lat="43.20918667" lon="-4.33308333">
        <ele>843.0</ele>
        <time>2018-05-19T16:58:11.482Z</time>
      </trkpt>
      <trkpt lat="43.20918667" lon="-4.33308333">
        <ele>843.0</ele>
        <time>2018-05-19T16:58:12.480Z</time>
      </trkpt>
      <trkpt lat="43.20921833" lon="-4.33318">
        <ele>843.0</ele>
        <time>2018-05-19T16:58:13.481Z</time>
      </trkpt>
      <trkpt lat="43.20923167" lon="-4.33323333">
        <ele>843.0</ele>
        <time>2018-05-19T16:58:14.481Z</time>
      </trkpt>
      <trkpt lat="43.20923167" lon="-4.33323333">
        <ele>843.0</ele>
        <time>2018-05-19T16:58:15.476Z</time>
      </trkpt>
      <trkpt lat="43.20926" lon="-4.33334">
        <ele>842.0</ele>
        <time>2018-05-19T16:58:16.480Z</time>
      </trkpt>
      <trkpt lat="43.20927167" lon="-4.33339833">
        <ele>842.0</ele>
        <time>2018-05-19T16:58:17.481Z</time>
      </trkpt>
      <trkpt lat="43.20927167" lon="-4.33339833">
        <ele>842.0</ele>
        <time>2018-05-19T16:58:18.475Z</time>
      </trkpt>
      <trkpt lat="43.20929667" lon="-4.33351167">
        <ele>842.0</ele>
        <time>2018-05-19T16:58:19.472Z</time>
      </trkpt>
      <trkpt lat="43.20930667" lon="-4.333565">
        <ele>842.0</ele>
        <time>2018-05-19T16:58:20.480Z</time>
      </trkpt>
      <trkpt lat="43.20931833" lon="-4.333615">
        <ele>842.0</ele>
        <time>2018-05-19T16:58:21.482Z</time>
      </trkpt>
      <trkpt lat="43.20931833" lon="-4.333615">
        <ele>842.0</ele>
        <time>2018-05-19T16:58:22.475Z</time>
      </trkpt>
      <trkpt lat="43.20934167" lon="-4.33371167">
        <ele>842.0</ele>
        <time>2018-05-19T16:58:23.477Z</time>
      </trkpt>
      <trkpt lat="43.20934167" lon="-4.33371167">
        <ele>842.0</ele>
        <time>2018-05-19T16:58:24.462Z</time>
      </trkpt>
      <trkpt lat="43.20936333" lon="-4.33380833">
        <ele>842.0</ele>
        <time>2018-05-19T16:58:25.471Z</time>
      </trkpt>
      <trkpt lat="43.20937667" lon="-4.33386167">
        <ele>842.0</ele>
        <time>2018-05-19T16:58:26.477Z</time>
      </trkpt>
      <trkpt lat="43.20939" lon="-4.33391667">
        <ele>841.0</ele>
        <time>2018-05-19T16:58:27.483Z</time>
      </trkpt>
      <trkpt lat="43.20939" lon="-4.33391667">
        <ele>841.0</ele>
        <time>2018-05-19T16:58:28.478Z</time>
      </trkpt>
      <trkpt lat="43.20940667" lon="-4.334035">
        <ele>841.0</ele>
        <time>2018-05-19T16:58:29.481Z</time>
      </trkpt>
      <trkpt lat="43.20940167" lon="-4.33409167">
        <ele>841.0</ele>
        <time>2018-05-19T16:58:30.453Z</time>
      </trkpt>
      <trkpt lat="43.20940167" lon="-4.33409167">
        <ele>841.0</ele>
        <time>2018-05-19T16:58:31.478Z</time>
      </trkpt>
      <trkpt lat="43.20937833" lon="-4.33418667">
        <ele>842.0</ele>
        <time>2018-05-19T16:58:32.481Z</time>
      </trkpt>
      <trkpt lat="43.20937833" lon="-4.33418667">
        <ele>842.0</ele>
        <time>2018-05-19T16:58:33.476Z</time>
      </trkpt>
      <trkpt lat="43.20934833" lon="-4.33425667">
        <ele>843.0</ele>
        <time>2018-05-19T16:58:34.483Z</time>
      </trkpt>
      <trkpt lat="43.20933333" lon="-4.334285">
        <ele>843.0</ele>
        <time>2018-05-19T16:58:35.482Z</time>
      </trkpt>
      <trkpt lat="43.20933333" lon="-4.334285">
        <ele>843.0</ele>
        <time>2018-05-19T16:58:36.474Z</time>
      </trkpt>
      <trkpt lat="43.20930167" lon="-4.33434333">
        <ele>843.0</ele>
        <time>2018-05-19T16:58:37.481Z</time>
      </trkpt>
      <trkpt lat="43.20930167" lon="-4.33434333">
        <ele>843.0</ele>
        <time>2018-05-19T16:58:38.479Z</time>
      </trkpt>
      <trkpt lat="43.20926333" lon="-4.33439333">
        <ele>844.0</ele>
        <time>2018-05-19T16:58:39.478Z</time>
      </trkpt>
      <trkpt lat="43.20926333" lon="-4.33439333">
        <ele>844.0</ele>
        <time>2018-05-19T16:58:40.475Z</time>
      </trkpt>
      <trkpt lat="43.20922667" lon="-4.334435">
        <ele>844.0</ele>
        <time>2018-05-19T16:58:41.483Z</time>
      </trkpt>
      <trkpt lat="43.20922667" lon="-4.334435">
        <ele>844.0</ele>
        <time>2018-05-19T16:58:42.478Z</time>
      </trkpt>
      <trkpt lat="43.20919" lon="-4.334475">
        <ele>844.0</ele>
        <time>2018-05-19T16:58:43.480Z</time>
      </trkpt>
      <trkpt lat="43.20919" lon="-4.334475">
        <ele>844.0</ele>
        <time>2018-05-19T16:58:44.486Z</time>
      </trkpt>
      <trkpt lat="43.20915" lon="-4.334515">
        <ele>844.0</ele>
        <time>2018-05-19T16:58:45.482Z</time>
      </trkpt>
      <trkpt lat="43.20915" lon="-4.334515">
        <ele>844.0</ele>
        <time>2018-05-19T16:58:46.478Z</time>
      </trkpt>
      <trkpt lat="43.209105" lon="-4.33455167">
        <ele>845.0</ele>
        <time>2018-05-19T16:58:47.480Z</time>
      </trkpt>
      <trkpt lat="43.209105" lon="-4.33455167">
        <ele>845.0</ele>
        <time>2018-05-19T16:58:48.475Z</time>
      </trkpt>
      <trkpt lat="43.20906" lon="-4.33459833">
        <ele>846.0</ele>
        <time>2018-05-19T16:58:49.481Z</time>
      </trkpt>
      <trkpt lat="43.20906" lon="-4.33459833">
        <ele>846.0</ele>
        <time>2018-05-19T16:58:50.478Z</time>
      </trkpt>
      <trkpt lat="43.20901" lon="-4.33465">
        <ele>846.0</ele>
        <time>2018-05-19T16:58:51.456Z</time>
      </trkpt>
      <trkpt lat="43.20898667" lon="-4.33467833">
        <ele>846.0</ele>
        <time>2018-05-19T16:58:52.480Z</time>
      </trkpt>
      <trkpt lat="43.20898667" lon="-4.33467833">
        <ele>846.0</ele>
        <time>2018-05-19T16:58:53.474Z</time>
      </trkpt>
      <trkpt lat="43.20894" lon="-4.33474">
        <ele>846.0</ele>
        <time>2018-05-19T16:58:54.483Z</time>
      </trkpt>
      <trkpt lat="43.20892" lon="-4.33476667">
        <ele>846.0</ele>
        <time>2018-05-19T16:58:55.480Z</time>
      </trkpt>
      <trkpt lat="43.20892" lon="-4.33476667">
        <ele>846.0</ele>
        <time>2018-05-19T16:58:56.477Z</time>
      </trkpt>
      <trkpt lat="43.20888" lon="-4.33482333">
        <ele>847.0</ele>
        <time>2018-05-19T16:58:57.478Z</time>
      </trkpt>
      <trkpt lat="43.20888" lon="-4.33482333">
        <ele>847.0</ele>
        <time>2018-05-19T16:58:58.479Z</time>
      </trkpt>
      <trkpt lat="43.208835" lon="-4.334875">
        <ele>847.0</ele>
        <time>2018-05-19T16:58:59.481Z</time>
      </trkpt>
      <trkpt lat="43.208835" lon="-4.334875">
        <ele>847.0</ele>
        <time>2018-05-19T16:59:00.479Z</time>
      </trkpt>
      <trkpt lat="43.20879" lon="-4.334925">
        <ele>847.0</ele>
        <time>2018-05-19T16:59:01.481Z</time>
      </trkpt>
      <trkpt lat="43.20879" lon="-4.334925">
        <ele>847.0</ele>
        <time>2018-05-19T16:59:02.479Z</time>
      </trkpt>
      <trkpt lat="43.20873833" lon="-4.33499167">
        <ele>846.0</ele>
        <time>2018-05-19T16:59:03.483Z</time>
      </trkpt>
      <trkpt lat="43.20871" lon="-4.335035">
        <ele>846.0</ele>
        <time>2018-05-19T16:59:04.481Z</time>
      </trkpt>
      <trkpt lat="43.20867833" lon="-4.335085">
        <ele>846.0</ele>
        <time>2018-05-19T16:59:05.480Z</time>
      </trkpt>
      <trkpt lat="43.20867833" lon="-4.335085">
        <ele>846.0</ele>
        <time>2018-05-19T16:59:06.478Z</time>
      </trkpt>
      <trkpt lat="43.20861167" lon="-4.33519333">
        <ele>845.0</ele>
        <time>2018-05-19T16:59:07.479Z</time>
      </trkpt>
      <trkpt lat="43.20861167" lon="-4.33519333">
        <ele>845.0</ele>
        <time>2018-05-19T16:59:08.474Z</time>
      </trkpt>
      <trkpt lat="43.20854333" lon="-4.335305">
        <ele>844.0</ele>
        <time>2018-05-19T16:59:09.481Z</time>
      </trkpt>
      <trkpt lat="43.20854333" lon="-4.335305">
        <ele>844.0</ele>
        <time>2018-05-19T16:59:10.479Z</time>
      </trkpt>
      <trkpt lat="43.20846833" lon="-4.33540167">
        <ele>843.0</ele>
        <time>2018-05-19T16:59:11.480Z</time>
      </trkpt>
      <trkpt lat="43.20846833" lon="-4.33540167">
        <ele>843.0</ele>
        <time>2018-05-19T16:59:12.473Z</time>
      </trkpt>
      <trkpt lat="43.2084" lon="-4.33547667">
        <ele>842.0</ele>
        <time>2018-05-19T16:59:13.480Z</time>
      </trkpt>
      <trkpt lat="43.2084" lon="-4.33547667">
        <ele>842.0</ele>
        <time>2018-05-19T16:59:14.487Z</time>
      </trkpt>
      <trkpt lat="43.20835833" lon="-4.33554833">
        <ele>841.0</ele>
        <time>2018-05-19T16:59:15.481Z</time>
      </trkpt>
      <trkpt lat="43.20835833" lon="-4.33554833">
        <ele>841.0</ele>
        <time>2018-05-19T16:59:16.478Z</time>
      </trkpt>
      <trkpt lat="43.20837667" lon="-4.335605">
        <ele>840.0</ele>
        <time>2018-05-19T16:59:17.482Z</time>
      </trkpt>
      <trkpt lat="43.20837667" lon="-4.335605">
        <ele>840.0</ele>
        <time>2018-05-19T16:59:18.477Z</time>
      </trkpt>
      <trkpt lat="43.20844" lon="-4.33561167">
        <ele>839.0</ele>
        <time>2018-05-19T16:59:19.480Z</time>
      </trkpt>
      <trkpt lat="43.20844" lon="-4.33561167">
        <ele>839.0</ele>
        <time>2018-05-19T16:59:20.478Z</time>
      </trkpt>
      <trkpt lat="43.208535" lon="-4.33560667">
        <ele>838.0</ele>
        <time>2018-05-19T16:59:21.483Z</time>
      </trkpt>
      <trkpt lat="43.208535" lon="-4.33560667">
        <ele>838.0</ele>
        <time>2018-05-19T16:59:22.479Z</time>
      </trkpt>
      <trkpt lat="43.20864667" lon="-4.33560167">
        <ele>836.0</ele>
        <time>2018-05-19T16:59:23.482Z</time>
      </trkpt>
      <trkpt lat="43.20870833" lon="-4.33560167">
        <ele>835.0</ele>
        <time>2018-05-19T16:59:24.453Z</time>
      </trkpt>
      <trkpt lat="43.20870833" lon="-4.33560167">
        <ele>835.0</ele>
        <time>2018-05-19T16:59:25.469Z</time>
      </trkpt>
      <trkpt lat="43.20885333" lon="-4.33559667">
        <ele>833.0</ele>
        <time>2018-05-19T16:59:26.475Z</time>
      </trkpt>
      <trkpt lat="43.20885333" lon="-4.33559667">
        <ele>833.0</ele>
        <time>2018-05-19T16:59:27.475Z</time>
      </trkpt>
      <trkpt lat="43.20902167" lon="-4.33560167">
        <ele>831.0</ele>
        <time>2018-05-19T16:59:28.487Z</time>
      </trkpt>
      <trkpt lat="43.20902167" lon="-4.33560167">
        <ele>831.0</ele>
        <time>2018-05-19T16:59:29.474Z</time>
      </trkpt>
      <trkpt lat="43.20921167" lon="-4.33559667">
        <ele>829.0</ele>
        <time>2018-05-19T16:59:30.480Z</time>
      </trkpt>
      <trkpt lat="43.20921167" lon="-4.33559667">
        <ele>829.0</ele>
        <time>2018-05-19T16:59:31.452Z</time>
      </trkpt>
      <trkpt lat="43.20940333" lon="-4.33559667">
        <ele>826.0</ele>
        <time>2018-05-19T16:59:32.480Z</time>
      </trkpt>
      <trkpt lat="43.20949667" lon="-4.335595">
        <ele>825.0</ele>
        <time>2018-05-19T16:59:33.482Z</time>
      </trkpt>
      <trkpt lat="43.20949667" lon="-4.335595">
        <ele>825.0</ele>
        <time>2018-05-19T16:59:34.475Z</time>
      </trkpt>
      <trkpt lat="43.20968" lon="-4.33556833">
        <ele>823.0</ele>
        <time>2018-05-19T16:59:35.481Z</time>
      </trkpt>
      <trkpt lat="43.20968" lon="-4.33556833">
        <ele>823.0</ele>
        <time>2018-05-19T16:59:36.478Z</time>
      </trkpt>
      <trkpt lat="43.20986167" lon="-4.33554167">
        <ele>820.0</ele>
        <time>2018-05-19T16:59:37.480Z</time>
      </trkpt>
      <trkpt lat="43.20986167" lon="-4.33554167">
        <ele>820.0</ele>
        <time>2018-05-19T16:59:38.477Z</time>
      </trkpt>
      <trkpt lat="43.21005" lon="-4.33559">
        <ele>817.0</ele>
        <time>2018-05-19T16:59:39.481Z</time>
      </trkpt>
      <trkpt lat="43.21005" lon="-4.33559">
        <ele>817.0</ele>
        <time>2018-05-19T16:59:40.478Z</time>
      </trkpt>
      <trkpt lat="43.21023" lon="-4.33574667">
        <ele>815.0</ele>
        <time>2018-05-19T16:59:41.480Z</time>
      </trkpt>
      <trkpt lat="43.210305" lon="-4.33585667">
        <ele>814.0</ele>
        <time>2018-05-19T16:59:42.480Z</time>
      </trkpt>
      <trkpt lat="43.210305" lon="-4.33585667">
        <ele>814.0</ele>
        <time>2018-05-19T16:59:43.475Z</time>
      </trkpt>
      <trkpt lat="43.21043333" lon="-4.3361">
        <ele>812.0</ele>
        <time>2018-05-19T16:59:44.452Z</time>
      </trkpt>
      <trkpt lat="43.21043333" lon="-4.3361">
        <ele>812.0</ele>
        <time>2018-05-19T16:59:45.478Z</time>
      </trkpt>
      <trkpt lat="43.21054833" lon="-4.33634333">
        <ele>813.0</ele>
        <time>2018-05-19T16:59:46.451Z</time>
      </trkpt>
      <trkpt lat="43.21060833" lon="-4.33644">
        <ele>814.0</ele>
        <time>2018-05-19T16:59:47.482Z</time>
      </trkpt>
      <trkpt lat="43.21060833" lon="-4.33644">
        <ele>814.0</ele>
        <time>2018-05-19T16:59:48.477Z</time>
      </trkpt>
      <trkpt lat="43.21074667" lon="-4.33656667">
        <ele>814.0</ele>
        <time>2018-05-19T16:59:49.482Z</time>
      </trkpt>
      <trkpt lat="43.21074667" lon="-4.33656667">
        <ele>814.0</ele>
        <time>2018-05-19T16:59:50.479Z</time>
      </trkpt>
      <trkpt lat="43.210885" lon="-4.33662333">
        <ele>814.0</ele>
        <time>2018-05-19T16:59:51.467Z</time>
      </trkpt>
      <trkpt lat="43.210885" lon="-4.33662333">
        <ele>814.0</ele>
        <time>2018-05-19T16:59:52.453Z</time>
      </trkpt>
      <trkpt lat="43.21101667" lon="-4.33666">
        <ele>814.0</ele>
        <time>2018-05-19T16:59:53.479Z</time>
      </trkpt>
      <trkpt lat="43.21108" lon="-4.33667833">
        <ele>815.0</ele>
        <time>2018-05-19T16:59:54.487Z</time>
      </trkpt>
      <trkpt lat="43.21108" lon="-4.33667833">
        <ele>815.0</ele>
        <time>2018-05-19T16:59:55.475Z</time>
      </trkpt>
      <trkpt lat="43.21120333" lon="-4.336715">
        <ele>815.0</ele>
        <time>2018-05-19T16:59:56.480Z</time>
      </trkpt>
      <trkpt lat="43.21126333" lon="-4.33673333">
        <ele>815.0</ele>
        <time>2018-05-19T16:59:57.478Z</time>
      </trkpt>
      <trkpt lat="43.21126333" lon="-4.33673333">
        <ele>815.0</ele>
        <time>2018-05-19T16:59:58.477Z</time>
      </trkpt>
      <trkpt lat="43.211375" lon="-4.33676333">
        <ele>816.0</ele>
        <time>2018-05-19T16:59:59.479Z</time>
      </trkpt>
      <trkpt lat="43.211375" lon="-4.33676333">
        <ele>816.0</ele>
        <time>2018-05-19T17:00:00.474Z</time>
      </trkpt>
      <trkpt lat="43.21148" lon="-4.33678167">
        <ele>817.0</ele>
        <time>2018-05-19T17:00:01.481Z</time>
      </trkpt>
      <trkpt lat="43.21148" lon="-4.33678167">
        <ele>817.0</ele>
        <time>2018-05-19T17:00:02.477Z</time>
      </trkpt>
      <trkpt lat="43.21157167" lon="-4.33680333">
        <ele>817.0</ele>
        <time>2018-05-19T17:00:03.481Z</time>
      </trkpt>
      <trkpt lat="43.21157167" lon="-4.33680333">
        <ele>817.0</ele>
        <time>2018-05-19T17:00:04.474Z</time>
      </trkpt>
      <trkpt lat="43.21165833" lon="-4.33682667">
        <ele>817.0</ele>
        <time>2018-05-19T17:00:05.477Z</time>
      </trkpt>
      <trkpt lat="43.21165833" lon="-4.33682667">
        <ele>817.0</ele>
        <time>2018-05-19T17:00:06.479Z</time>
      </trkpt>
      <trkpt lat="43.21173667" lon="-4.336845">
        <ele>818.0</ele>
        <time>2018-05-19T17:00:07.480Z</time>
      </trkpt>
      <trkpt lat="43.21173667" lon="-4.336845">
        <ele>818.0</ele>
        <time>2018-05-19T17:00:08.475Z</time>
      </trkpt>
      <trkpt lat="43.21181333" lon="-4.33685833">
        <ele>818.0</ele>
        <time>2018-05-19T17:00:09.482Z</time>
      </trkpt>
      <trkpt lat="43.21181333" lon="-4.33685833">
        <ele>818.0</ele>
        <time>2018-05-19T17:00:10.476Z</time>
      </trkpt>
      <trkpt lat="43.21189" lon="-4.33688">
        <ele>818.0</ele>
        <time>2018-05-19T17:00:11.482Z</time>
      </trkpt>
      <trkpt lat="43.21189" lon="-4.33688">
        <ele>818.0</ele>
        <time>2018-05-19T17:00:12.476Z</time>
      </trkpt>
      <trkpt lat="43.21196333" lon="-4.33690667">
        <ele>819.0</ele>
        <time>2018-05-19T17:00:13.482Z</time>
      </trkpt>
      <trkpt lat="43.21196333" lon="-4.33690667">
        <ele>819.0</ele>
        <time>2018-05-19T17:00:14.448Z</time>
      </trkpt>
      <trkpt lat="43.212035" lon="-4.33693833">
        <ele>819.0</ele>
        <time>2018-05-19T17:00:15.483Z</time>
      </trkpt>
      <trkpt lat="43.212035" lon="-4.33693833">
        <ele>819.0</ele>
        <time>2018-05-19T17:00:16.477Z</time>
      </trkpt>
      <trkpt lat="43.212095" lon="-4.33698167">
        <ele>820.0</ele>
        <time>2018-05-19T17:00:17.477Z</time>
      </trkpt>
      <trkpt lat="43.212095" lon="-4.33698167">
        <ele>820.0</ele>
        <time>2018-05-19T17:00:18.477Z</time>
      </trkpt>
      <trkpt lat="43.21213833" lon="-4.33703">
        <ele>820.0</ele>
        <time>2018-05-19T17:00:19.479Z</time>
      </trkpt>
      <trkpt lat="43.21213833" lon="-4.33703">
        <ele>820.0</ele>
        <time>2018-05-19T17:00:20.470Z</time>
      </trkpt>
      <trkpt lat="43.21217" lon="-4.33708">
        <ele>821.0</ele>
        <time>2018-05-19T17:00:21.478Z</time>
      </trkpt>
      <trkpt lat="43.21217" lon="-4.33708">
        <ele>821.0</ele>
        <time>2018-05-19T17:00:22.462Z</time>
      </trkpt>
      <trkpt lat="43.21219833" lon="-4.33712833">
        <ele>822.0</ele>
        <time>2018-05-19T17:00:23.456Z</time>
      </trkpt>
      <trkpt lat="43.21221" lon="-4.33715333">
        <ele>822.0</ele>
        <time>2018-05-19T17:00:24.471Z</time>
      </trkpt>
      <trkpt lat="43.21221" lon="-4.33715333">
        <ele>822.0</ele>
        <time>2018-05-19T17:00:25.477Z</time>
      </trkpt>
      <trkpt lat="43.21223333" lon="-4.33720167">
        <ele>823.0</ele>
        <time>2018-05-19T17:00:26.483Z</time>
      </trkpt>
      <trkpt lat="43.212245" lon="-4.337225">
        <ele>823.0</ele>
        <time>2018-05-19T17:00:27.487Z</time>
      </trkpt>
      <trkpt lat="43.212245" lon="-4.337225">
        <ele>823.0</ele>
        <time>2018-05-19T17:00:28.478Z</time>
      </trkpt>
      <trkpt lat="43.21227" lon="-4.33726833">
        <ele>823.0</ele>
        <time>2018-05-19T17:00:29.479Z</time>
      </trkpt>
      <trkpt lat="43.21227" lon="-4.33726833">
        <ele>823.0</ele>
        <time>2018-05-19T17:00:30.486Z</time>
      </trkpt>
      <trkpt lat="43.212295" lon="-4.33731">
        <ele>824.0</ele>
        <time>2018-05-19T17:00:31.454Z</time>
      </trkpt>
      <trkpt lat="43.21230833" lon="-4.33732833">
        <ele>824.0</ele>
        <time>2018-05-19T17:00:32.480Z</time>
      </trkpt>
      <trkpt lat="43.21232167" lon="-4.337345">
        <ele>824.0</ele>
        <time>2018-05-19T17:00:33.481Z</time>
      </trkpt>
      <trkpt lat="43.21232167" lon="-4.337345">
        <ele>824.0</ele>
        <time>2018-05-19T17:00:34.482Z</time>
      </trkpt>
      <trkpt lat="43.21234833" lon="-4.33737833">
        <ele>825.0</ele>
        <time>2018-05-19T17:00:35.481Z</time>
      </trkpt>
      <trkpt lat="43.21234833" lon="-4.33737833">
        <ele>825.0</ele>
        <time>2018-05-19T17:00:36.480Z</time>
      </trkpt>
      <trkpt lat="43.212375" lon="-4.33741">
        <ele>826.0</ele>
        <time>2018-05-19T17:00:37.481Z</time>
      </trkpt>
      <trkpt lat="43.212375" lon="-4.33741">
        <ele>826.0</ele>
        <time>2018-05-19T17:00:38.475Z</time>
      </trkpt>
      <trkpt lat="43.21240333" lon="-4.33744333">
        <ele>826.0</ele>
        <time>2018-05-19T17:00:39.481Z</time>
      </trkpt>
      <trkpt lat="43.21240333" lon="-4.33744333">
        <ele>826.0</ele>
        <time>2018-05-19T17:00:40.478Z</time>
      </trkpt>
      <trkpt lat="43.21243" lon="-4.33747833">
        <ele>826.0</ele>
        <time>2018-05-19T17:00:41.480Z</time>
      </trkpt>
      <trkpt lat="43.21243" lon="-4.33747833">
        <ele>826.0</ele>
        <time>2018-05-19T17:00:42.474Z</time>
      </trkpt>
      <trkpt lat="43.21245667" lon="-4.33751167">
        <ele>827.0</ele>
        <time>2018-05-19T17:00:43.452Z</time>
      </trkpt>
      <trkpt lat="43.21245667" lon="-4.33751167">
        <ele>827.0</ele>
        <time>2018-05-19T17:00:44.487Z</time>
      </trkpt>
      <trkpt lat="43.21249167" lon="-4.33754">
        <ele>827.0</ele>
        <time>2018-05-19T17:00:45.482Z</time>
      </trkpt>
      <trkpt lat="43.21249167" lon="-4.33754">
        <ele>827.0</ele>
        <time>2018-05-19T17:00:46.476Z</time>
      </trkpt>
      <trkpt lat="43.212525" lon="-4.33757">
        <ele>828.0</ele>
        <time>2018-05-19T17:00:47.479Z</time>
      </trkpt>
      <trkpt lat="43.212525" lon="-4.33757">
        <ele>828.0</ele>
        <time>2018-05-19T17:00:48.477Z</time>
      </trkpt>
      <trkpt lat="43.21255833" lon="-4.33759833">
        <ele>829.0</ele>
        <time>2018-05-19T17:00:49.480Z</time>
      </trkpt>
      <trkpt lat="43.21255833" lon="-4.33759833">
        <ele>829.0</ele>
        <time>2018-05-19T17:00:50.478Z</time>
      </trkpt>
      <trkpt lat="43.21259167" lon="-4.33761833">
        <ele>829.0</ele>
        <time>2018-05-19T17:00:51.475Z</time>
      </trkpt>
      <trkpt lat="43.21260833" lon="-4.33763">
        <ele>829.0</ele>
        <time>2018-05-19T17:00:52.480Z</time>
      </trkpt>
      <trkpt lat="43.21262667" lon="-4.33763667">
        <ele>829.0</ele>
        <time>2018-05-19T17:00:53.480Z</time>
      </trkpt>
      <trkpt lat="43.21262667" lon="-4.33763667">
        <ele>829.0</ele>
        <time>2018-05-19T17:00:54.475Z</time>
      </trkpt>
      <trkpt lat="43.21266333" lon="-4.337655">
        <ele>830.0</ele>
        <time>2018-05-19T17:00:55.479Z</time>
      </trkpt>
      <trkpt lat="43.21267833" lon="-4.33766333">
        <ele>830.0</ele>
        <time>2018-05-19T17:00:56.480Z</time>
      </trkpt>
      <trkpt lat="43.212695" lon="-4.33767167">
        <ele>830.0</ele>
        <time>2018-05-19T17:00:57.481Z</time>
      </trkpt>
      <trkpt lat="43.212695" lon="-4.33767167">
        <ele>830.0</ele>
        <time>2018-05-19T17:00:58.474Z</time>
      </trkpt>
      <trkpt lat="43.21272833" lon="-4.33768667">
        <ele>831.0</ele>
        <time>2018-05-19T17:00:59.481Z</time>
      </trkpt>
      <trkpt lat="43.21272833" lon="-4.33768667">
        <ele>831.0</ele>
        <time>2018-05-19T17:01:00.479Z</time>
      </trkpt>
      <trkpt lat="43.21276" lon="-4.337705">
        <ele>831.0</ele>
        <time>2018-05-19T17:01:01.481Z</time>
      </trkpt>
      <trkpt lat="43.21276" lon="-4.337705">
        <ele>831.0</ele>
        <time>2018-05-19T17:01:02.475Z</time>
      </trkpt>
      <trkpt lat="43.21279333" lon="-4.33772167">
        <ele>832.0</ele>
        <time>2018-05-19T17:01:03.483Z</time>
      </trkpt>
      <trkpt lat="43.21279333" lon="-4.33772167">
        <ele>832.0</ele>
        <time>2018-05-19T17:01:04.487Z</time>
      </trkpt>
      <trkpt lat="43.21282667" lon="-4.33773167">
        <ele>832.0</ele>
        <time>2018-05-19T17:01:05.479Z</time>
      </trkpt>
      <trkpt lat="43.21282667" lon="-4.33773167">
        <ele>832.0</ele>
        <time>2018-05-19T17:01:06.474Z</time>
      </trkpt>
      <trkpt lat="43.21286333" lon="-4.33773333">
        <ele>833.0</ele>
        <time>2018-05-19T17:01:07.480Z</time>
      </trkpt>
      <trkpt lat="43.21286333" lon="-4.33773333">
        <ele>833.0</ele>
        <time>2018-05-19T17:01:08.476Z</time>
      </trkpt>
      <trkpt lat="43.2129" lon="-4.33773333">
        <ele>833.0</ele>
        <time>2018-05-19T17:01:09.480Z</time>
      </trkpt>
      <trkpt lat="43.2129" lon="-4.33773333">
        <ele>833.0</ele>
        <time>2018-05-19T17:01:10.477Z</time>
      </trkpt>
      <trkpt lat="43.21294" lon="-4.33773167">
        <ele>834.0</ele>
        <time>2018-05-19T17:01:11.479Z</time>
      </trkpt>
      <trkpt lat="43.21294" lon="-4.33773167">
        <ele>834.0</ele>
        <time>2018-05-19T17:01:12.478Z</time>
      </trkpt>
      <trkpt lat="43.212985" lon="-4.33773">
        <ele>834.0</ele>
        <time>2018-05-19T17:01:13.480Z</time>
      </trkpt>
      <trkpt lat="43.212985" lon="-4.33773">
        <ele>834.0</ele>
        <time>2018-05-19T17:01:14.487Z</time>
      </trkpt>
      <trkpt lat="43.21302833" lon="-4.33772667">
        <ele>834.0</ele>
        <time>2018-05-19T17:01:15.480Z</time>
      </trkpt>
      <trkpt lat="43.21302833" lon="-4.33772667">
        <ele>834.0</ele>
        <time>2018-05-19T17:01:16.475Z</time>
      </trkpt>
      <trkpt lat="43.213065" lon="-4.337735">
        <ele>834.0</ele>
        <time>2018-05-19T17:01:17.477Z</time>
      </trkpt>
      <trkpt lat="43.213065" lon="-4.337735">
        <ele>834.0</ele>
        <time>2018-05-19T17:01:18.477Z</time>
      </trkpt>
      <trkpt lat="43.213105" lon="-4.33774333">
        <ele>835.0</ele>
        <time>2018-05-19T17:01:19.453Z</time>
      </trkpt>
      <trkpt lat="43.213105" lon="-4.33774333">
        <ele>835.0</ele>
        <time>2018-05-19T17:01:20.477Z</time>
      </trkpt>
      <trkpt lat="43.21315167" lon="-4.33775833">
        <ele>836.0</ele>
        <time>2018-05-19T17:01:21.481Z</time>
      </trkpt>
      <trkpt lat="43.21315167" lon="-4.33775833">
        <ele>836.0</ele>
        <time>2018-05-19T17:01:22.477Z</time>
      </trkpt>
      <trkpt lat="43.2132" lon="-4.33778333">
        <ele>836.0</ele>
        <time>2018-05-19T17:01:23.483Z</time>
      </trkpt>
      <trkpt lat="43.21322333" lon="-4.33779833">
        <ele>836.0</ele>
        <time>2018-05-19T17:01:24.454Z</time>
      </trkpt>
      <trkpt lat="43.21322333" lon="-4.33779833">
        <ele>836.0</ele>
        <time>2018-05-19T17:01:25.463Z</time>
      </trkpt>
      <trkpt lat="43.21327667" lon="-4.33782333">
        <ele>836.0</ele>
        <time>2018-05-19T17:01:26.469Z</time>
      </trkpt>
      <trkpt lat="43.21330167" lon="-4.33783667">
        <ele>836.0</ele>
        <time>2018-05-19T17:01:27.482Z</time>
      </trkpt>
      <trkpt lat="43.21330167" lon="-4.33783667">
        <ele>836.0</ele>
        <time>2018-05-19T17:01:28.473Z</time>
      </trkpt>
      <trkpt lat="43.21335" lon="-4.337865">
        <ele>836.0</ele>
        <time>2018-05-19T17:01:29.477Z</time>
      </trkpt>
      <trkpt lat="43.21335" lon="-4.337865">
        <ele>836.0</ele>
        <time>2018-05-19T17:01:30.477Z</time>
      </trkpt>
      <trkpt lat="43.21340333" lon="-4.33789">
        <ele>836.0</ele>
        <time>2018-05-19T17:01:31.460Z</time>
      </trkpt>
      <trkpt lat="43.21340333" lon="-4.33789">
        <ele>836.0</ele>
        <time>2018-05-19T17:01:32.485Z</time>
      </trkpt>
      <trkpt lat="43.21345167" lon="-4.337915">
        <ele>836.0</ele>
        <time>2018-05-19T17:01:33.482Z</time>
      </trkpt>
      <trkpt lat="43.21345167" lon="-4.337915">
        <ele>836.0</ele>
        <time>2018-05-19T17:01:34.487Z</time>
      </trkpt>
      <trkpt lat="43.21349833" lon="-4.337945">
        <ele>837.0</ele>
        <time>2018-05-19T17:01:35.480Z</time>
      </trkpt>
      <trkpt lat="43.21349833" lon="-4.337945">
        <ele>837.0</ele>
        <time>2018-05-19T17:01:36.477Z</time>
      </trkpt>
      <trkpt lat="43.21355667" lon="-4.337975">
        <ele>836.0</ele>
        <time>2018-05-19T17:01:37.478Z</time>
      </trkpt>
      <trkpt lat="43.21358667" lon="-4.33799">
        <ele>836.0</ele>
        <time>2018-05-19T17:01:38.479Z</time>
      </trkpt>
      <trkpt lat="43.213615" lon="-4.33800167">
        <ele>836.0</ele>
        <time>2018-05-19T17:01:39.460Z</time>
      </trkpt>
      <trkpt lat="43.213615" lon="-4.33800167">
        <ele>836.0</ele>
        <time>2018-05-19T17:01:40.487Z</time>
      </trkpt>
      <trkpt lat="43.21366833" lon="-4.33802333">
        <ele>836.0</ele>
        <time>2018-05-19T17:01:41.480Z</time>
      </trkpt>
      <trkpt lat="43.21366833" lon="-4.33802333">
        <ele>836.0</ele>
        <time>2018-05-19T17:01:42.477Z</time>
      </trkpt>
      <trkpt lat="43.21370667" lon="-4.33804333">
        <ele>836.0</ele>
        <time>2018-05-19T17:01:43.479Z</time>
      </trkpt>
      <trkpt lat="43.21371333" lon="-4.33804667">
        <ele>836.0</ele>
        <time>2018-05-19T17:01:44.464Z</time>
      </trkpt>
      <trkpt lat="43.213715" lon="-4.33804333">
        <ele>836.0</ele>
        <time>2018-05-19T17:01:45.450Z</time>
      </trkpt>
      <trkpt lat="43.213715" lon="-4.33804333">
        <ele>836.0</ele>
        <time>2018-05-19T17:01:46.476Z</time>
      </trkpt>
      <trkpt lat="43.21374" lon="-4.33805">
        <ele>836.0</ele>
        <time>2018-05-19T17:01:47.474Z</time>
      </trkpt>
      <trkpt lat="43.21374" lon="-4.33805">
        <ele>836.0</ele>
        <time>2018-05-19T17:01:48.471Z</time>
      </trkpt>
      <trkpt lat="43.213785" lon="-4.338065">
        <ele>836.0</ele>
        <time>2018-05-19T17:01:49.480Z</time>
      </trkpt>
      <trkpt lat="43.21381667" lon="-4.33806833">
        <ele>835.0</ele>
        <time>2018-05-19T17:01:50.473Z</time>
      </trkpt>
      <trkpt lat="43.21381667" lon="-4.33806833">
        <ele>835.0</ele>
        <time>2018-05-19T17:01:51.470Z</time>
      </trkpt>
      <trkpt lat="43.21388167" lon="-4.33807167">
        <ele>835.0</ele>
        <time>2018-05-19T17:01:52.472Z</time>
      </trkpt>
      <trkpt lat="43.21388167" lon="-4.33807167">
        <ele>835.0</ele>
        <time>2018-05-19T17:01:53.470Z</time>
      </trkpt>
      <trkpt lat="43.21395833" lon="-4.33807333">
        <ele>835.0</ele>
        <time>2018-05-19T17:01:54.474Z</time>
      </trkpt>
      <trkpt lat="43.21395833" lon="-4.33807333">
        <ele>835.0</ele>
        <time>2018-05-19T17:01:55.470Z</time>
      </trkpt>
      <trkpt lat="43.21404667" lon="-4.33808333">
        <ele>834.0</ele>
        <time>2018-05-19T17:01:56.462Z</time>
      </trkpt>
      <trkpt lat="43.21409833" lon="-4.33808667">
        <ele>834.0</ele>
        <time>2018-05-19T17:01:57.453Z</time>
      </trkpt>
      <trkpt lat="43.21409833" lon="-4.33808667">
        <ele>834.0</ele>
        <time>2018-05-19T17:01:58.477Z</time>
      </trkpt>
      <trkpt lat="43.21421667" lon="-4.33809333">
        <ele>833.0</ele>
        <time>2018-05-19T17:01:59.477Z</time>
      </trkpt>
      <trkpt lat="43.21421667" lon="-4.33809333">
        <ele>833.0</ele>
        <time>2018-05-19T17:02:00.472Z</time>
      </trkpt>
      <trkpt lat="43.21435833" lon="-4.338105">
        <ele>831.0</ele>
        <time>2018-05-19T17:02:01.472Z</time>
      </trkpt>
      <trkpt lat="43.214435" lon="-4.33811333">
        <ele>831.0</ele>
        <time>2018-05-19T17:02:02.472Z</time>
      </trkpt>
      <trkpt lat="43.214435" lon="-4.33811333">
        <ele>831.0</ele>
        <time>2018-05-19T17:02:03.465Z</time>
      </trkpt>
      <trkpt lat="43.21459" lon="-4.33813">
        <ele>830.0</ele>
        <time>2018-05-19T17:02:04.472Z</time>
      </trkpt>
      <trkpt lat="43.21459" lon="-4.33813">
        <ele>830.0</ele>
        <time>2018-05-19T17:02:05.470Z</time>
      </trkpt>
      <trkpt lat="43.21475" lon="-4.33815">
        <ele>829.0</ele>
        <time>2018-05-19T17:02:06.487Z</time>
      </trkpt>
      <trkpt lat="43.21483167" lon="-4.33816">
        <ele>829.0</ele>
        <time>2018-05-19T17:02:07.472Z</time>
      </trkpt>
      <trkpt lat="43.21483167" lon="-4.33816">
        <ele>829.0</ele>
        <time>2018-05-19T17:02:08.466Z</time>
      </trkpt>
      <trkpt lat="43.21499667" lon="-4.33818833">
        <ele>828.0</ele>
        <time>2018-05-19T17:02:09.485Z</time>
      </trkpt>
      <trkpt lat="43.21499667" lon="-4.33818833">
        <ele>828.0</ele>
        <time>2018-05-19T17:02:10.471Z</time>
      </trkpt>
      <trkpt lat="43.21516667" lon="-4.33821">
        <ele>827.0</ele>
        <time>2018-05-19T17:02:11.472Z</time>
      </trkpt>
      <trkpt lat="43.21525" lon="-4.33822167">
        <ele>827.0</ele>
        <time>2018-05-19T17:02:12.474Z</time>
      </trkpt>
      <trkpt lat="43.21525" lon="-4.33822167">
        <ele>827.0</ele>
        <time>2018-05-19T17:02:13.470Z</time>
      </trkpt>
      <trkpt lat="43.21541667" lon="-4.338245">
        <ele>827.0</ele>
        <time>2018-05-19T17:02:14.472Z</time>
      </trkpt>
      <trkpt lat="43.21541667" lon="-4.338245">
        <ele>827.0</ele>
        <time>2018-05-19T17:02:15.469Z</time>
      </trkpt>
      <trkpt lat="43.21558833" lon="-4.338265">
        <ele>827.0</ele>
        <time>2018-05-19T17:02:16.471Z</time>
      </trkpt>
      <trkpt lat="43.21558833" lon="-4.338265">
        <ele>827.0</ele>
        <time>2018-05-19T17:02:17.466Z</time>
      </trkpt>
      <trkpt lat="43.21575667" lon="-4.33828">
        <ele>826.0</ele>
        <time>2018-05-19T17:02:18.472Z</time>
      </trkpt>
      <trkpt lat="43.21575667" lon="-4.33828">
        <ele>826.0</ele>
        <time>2018-05-19T17:02:19.485Z</time>
      </trkpt>
      <trkpt lat="43.21592333" lon="-4.33829667">
        <ele>827.0</ele>
        <time>2018-05-19T17:02:20.474Z</time>
      </trkpt>
      <trkpt lat="43.21592333" lon="-4.33829667">
        <ele>827.0</ele>
        <time>2018-05-19T17:02:21.468Z</time>
      </trkpt>
      <trkpt lat="43.21607" lon="-4.3383">
        <ele>828.0</ele>
        <time>2018-05-19T17:02:22.473Z</time>
      </trkpt>
      <trkpt lat="43.21607" lon="-4.3383">
        <ele>828.0</ele>
        <time>2018-05-19T17:02:23.448Z</time>
      </trkpt>
      <trkpt lat="43.216195" lon="-4.33830833">
        <ele>828.0</ele>
        <time>2018-05-19T17:02:24.461Z</time>
      </trkpt>
      <trkpt lat="43.216195" lon="-4.33830833">
        <ele>828.0</ele>
        <time>2018-05-19T17:02:25.467Z</time>
      </trkpt>
      <trkpt lat="43.21630667" lon="-4.33833167">
        <ele>829.0</ele>
        <time>2018-05-19T17:02:26.476Z</time>
      </trkpt>
      <trkpt lat="43.21636333" lon="-4.33835333">
        <ele>829.0</ele>
        <time>2018-05-19T17:02:27.472Z</time>
      </trkpt>
      <trkpt lat="43.21641833" lon="-4.338385">
        <ele>829.0</ele>
        <time>2018-05-19T17:02:28.473Z</time>
      </trkpt>
      <trkpt lat="43.21641833" lon="-4.338385">
        <ele>829.0</ele>
        <time>2018-05-19T17:02:29.478Z</time>
      </trkpt>
      <trkpt lat="43.21653667" lon="-4.33847667">
        <ele>828.0</ele>
        <time>2018-05-19T17:02:30.474Z</time>
      </trkpt>
      <trkpt lat="43.21653667" lon="-4.33847667">
        <ele>828.0</ele>
        <time>2018-05-19T17:02:31.476Z</time>
      </trkpt>
      <trkpt lat="43.216645" lon="-4.33860833">
        <ele>829.0</ele>
        <time>2018-05-19T17:02:32.469Z</time>
      </trkpt>
      <trkpt lat="43.216645" lon="-4.33860833">
        <ele>829.0</ele>
        <time>2018-05-19T17:02:33.469Z</time>
      </trkpt>
      <trkpt lat="43.216735" lon="-4.33875833">
        <ele>830.0</ele>
        <time>2018-05-19T17:02:34.471Z</time>
      </trkpt>
      <trkpt lat="43.216735" lon="-4.33875833">
        <ele>830.0</ele>
        <time>2018-05-19T17:02:35.466Z</time>
      </trkpt>
      <trkpt lat="43.21681167" lon="-4.33890333">
        <ele>829.0</ele>
        <time>2018-05-19T17:02:36.468Z</time>
      </trkpt>
      <trkpt lat="43.21681167" lon="-4.33890333">
        <ele>829.0</ele>
        <time>2018-05-19T17:02:37.471Z</time>
      </trkpt>
      <trkpt lat="43.21687833" lon="-4.339055">
        <ele>829.0</ele>
        <time>2018-05-19T17:02:38.469Z</time>
      </trkpt>
      <trkpt lat="43.21687833" lon="-4.339055">
        <ele>829.0</ele>
        <time>2018-05-19T17:02:39.480Z</time>
      </trkpt>
      <trkpt lat="43.21694167" lon="-4.33920833">
        <ele>829.0</ele>
        <time>2018-05-19T17:02:40.471Z</time>
      </trkpt>
      <trkpt lat="43.21694167" lon="-4.33920833">
        <ele>829.0</ele>
        <time>2018-05-19T17:02:41.466Z</time>
      </trkpt>
      <trkpt lat="43.21699833" lon="-4.339365">
        <ele>829.0</ele>
        <time>2018-05-19T17:02:42.473Z</time>
      </trkpt>
      <trkpt lat="43.21702833" lon="-4.33944">
        <ele>829.0</ele>
        <time>2018-05-19T17:02:43.472Z</time>
      </trkpt>
      <trkpt lat="43.21706" lon="-4.33951333">
        <ele>829.0</ele>
        <time>2018-05-19T17:02:44.472Z</time>
      </trkpt>
      <trkpt lat="43.21706" lon="-4.33951333">
        <ele>829.0</ele>
        <time>2018-05-19T17:02:45.468Z</time>
      </trkpt>
      <trkpt lat="43.217125" lon="-4.339655">
        <ele>829.0</ele>
        <time>2018-05-19T17:02:46.473Z</time>
      </trkpt>
      <trkpt lat="43.217125" lon="-4.339655">
        <ele>829.0</ele>
        <time>2018-05-19T17:02:47.471Z</time>
      </trkpt>
      <trkpt lat="43.21719833" lon="-4.33977667">
        <ele>829.0</ele>
        <time>2018-05-19T17:02:48.474Z</time>
      </trkpt>
      <trkpt lat="43.21719833" lon="-4.33977667">
        <ele>829.0</ele>
        <time>2018-05-19T17:02:49.477Z</time>
      </trkpt>
      <trkpt lat="43.21727667" lon="-4.33987667">
        <ele>829.0</ele>
        <time>2018-05-19T17:02:50.472Z</time>
      </trkpt>
      <trkpt lat="43.21727667" lon="-4.33987667">
        <ele>829.0</ele>
        <time>2018-05-19T17:02:51.470Z</time>
      </trkpt>
      <trkpt lat="43.21736333" lon="-4.33997">
        <ele>829.0</ele>
        <time>2018-05-19T17:02:52.472Z</time>
      </trkpt>
      <trkpt lat="43.21736333" lon="-4.33997">
        <ele>829.0</ele>
        <time>2018-05-19T17:02:53.469Z</time>
      </trkpt>
      <trkpt lat="43.21744833" lon="-4.34007333">
        <ele>829.0</ele>
        <time>2018-05-19T17:02:54.472Z</time>
      </trkpt>
      <trkpt lat="43.21748833" lon="-4.34013667">
        <ele>829.0</ele>
        <time>2018-05-19T17:02:55.469Z</time>
      </trkpt>
      <trkpt lat="43.21748833" lon="-4.34013667">
        <ele>829.0</ele>
        <time>2018-05-19T17:02:56.466Z</time>
      </trkpt>
      <trkpt lat="43.21756" lon="-4.34028667">
        <ele>828.0</ele>
        <time>2018-05-19T17:02:57.472Z</time>
      </trkpt>
      <trkpt lat="43.21756" lon="-4.34028667">
        <ele>828.0</ele>
        <time>2018-05-19T17:02:58.469Z</time>
      </trkpt>
      <trkpt lat="43.21762333" lon="-4.34047167">
        <ele>827.0</ele>
        <time>2018-05-19T17:02:59.485Z</time>
      </trkpt>
      <trkpt lat="43.21766167" lon="-4.34056833">
        <ele>826.0</ele>
        <time>2018-05-19T17:03:00.473Z</time>
      </trkpt>
      <trkpt lat="43.21766167" lon="-4.34056833">
        <ele>826.0</ele>
        <time>2018-05-19T17:03:01.469Z</time>
      </trkpt>
      <trkpt lat="43.21776167" lon="-4.34074833">
        <ele>825.0</ele>
        <time>2018-05-19T17:03:02.464Z</time>
      </trkpt>
      <trkpt lat="43.21776167" lon="-4.34074833">
        <ele>825.0</ele>
        <time>2018-05-19T17:03:03.465Z</time>
      </trkpt>
      <trkpt lat="43.21787833" lon="-4.34091333">
        <ele>824.0</ele>
        <time>2018-05-19T17:03:04.472Z</time>
      </trkpt>
      <trkpt lat="43.21787833" lon="-4.34091333">
        <ele>824.0</ele>
        <time>2018-05-19T17:03:05.469Z</time>
      </trkpt>
      <trkpt lat="43.21801333" lon="-4.34104">
        <ele>823.0</ele>
        <time>2018-05-19T17:03:06.474Z</time>
      </trkpt>
      <trkpt lat="43.21801333" lon="-4.34104">
        <ele>823.0</ele>
        <time>2018-05-19T17:03:07.469Z</time>
      </trkpt>
      <trkpt lat="43.21817167" lon="-4.34112667">
        <ele>822.0</ele>
        <time>2018-05-19T17:03:08.471Z</time>
      </trkpt>
      <trkpt lat="43.21825833" lon="-4.34115667">
        <ele>821.0</ele>
        <time>2018-05-19T17:03:09.485Z</time>
      </trkpt>
      <trkpt lat="43.21825833" lon="-4.34115667">
        <ele>821.0</ele>
        <time>2018-05-19T17:03:10.471Z</time>
      </trkpt>
      <trkpt lat="43.21844667" lon="-4.34117667">
        <ele>820.0</ele>
        <time>2018-05-19T17:03:11.485Z</time>
      </trkpt>
      <trkpt lat="43.21854667" lon="-4.34118167">
        <ele>820.0</ele>
        <time>2018-05-19T17:03:12.474Z</time>
      </trkpt>
      <trkpt lat="43.21854667" lon="-4.34118167">
        <ele>820.0</ele>
        <time>2018-05-19T17:03:13.471Z</time>
      </trkpt>
      <trkpt lat="43.21876833" lon="-4.34118167">
        <ele>819.0</ele>
        <time>2018-05-19T17:03:14.472Z</time>
      </trkpt>
      <trkpt lat="43.21876833" lon="-4.34118167">
        <ele>819.0</ele>
        <time>2018-05-19T17:03:15.470Z</time>
      </trkpt>
      <trkpt lat="43.21899833" lon="-4.341175">
        <ele>818.0</ele>
        <time>2018-05-19T17:03:16.470Z</time>
      </trkpt>
      <trkpt lat="43.21910833" lon="-4.34117667">
        <ele>817.0</ele>
        <time>2018-05-19T17:03:17.469Z</time>
      </trkpt>
      <trkpt lat="43.21910833" lon="-4.34117667">
        <ele>817.0</ele>
        <time>2018-05-19T17:03:18.471Z</time>
      </trkpt>
      <trkpt lat="43.21934333" lon="-4.341145">
        <ele>816.0</ele>
        <time>2018-05-19T17:03:19.480Z</time>
      </trkpt>
      <trkpt lat="43.21946167" lon="-4.34111333">
        <ele>816.0</ele>
        <time>2018-05-19T17:03:20.470Z</time>
      </trkpt>
      <trkpt lat="43.21946167" lon="-4.34111333">
        <ele>816.0</ele>
        <time>2018-05-19T17:03:21.469Z</time>
      </trkpt>
      <trkpt lat="43.21968667" lon="-4.34107333">
        <ele>815.0</ele>
        <time>2018-05-19T17:03:22.471Z</time>
      </trkpt>
      <trkpt lat="43.21979167" lon="-4.341065">
        <ele>814.0</ele>
        <time>2018-05-19T17:03:23.463Z</time>
      </trkpt>
      <trkpt lat="43.21979167" lon="-4.341065">
        <ele>814.0</ele>
        <time>2018-05-19T17:03:24.478Z</time>
      </trkpt>
      <trkpt lat="43.21999167" lon="-4.34105">
        <ele>815.0</ele>
        <time>2018-05-19T17:03:25.485Z</time>
      </trkpt>
      <trkpt lat="43.21999167" lon="-4.34105">
        <ele>815.0</ele>
        <time>2018-05-19T17:03:26.451Z</time>
      </trkpt>
      <trkpt lat="43.22017" lon="-4.34102333">
        <ele>815.0</ele>
        <time>2018-05-19T17:03:27.472Z</time>
      </trkpt>
      <trkpt lat="43.22017" lon="-4.34102333">
        <ele>815.0</ele>
        <time>2018-05-19T17:03:28.467Z</time>
      </trkpt>
      <trkpt lat="43.22033" lon="-4.34097167">
        <ele>816.0</ele>
        <time>2018-05-19T17:03:29.485Z</time>
      </trkpt>
      <trkpt lat="43.22033" lon="-4.34097167">
        <ele>816.0</ele>
        <time>2018-05-19T17:03:30.484Z</time>
      </trkpt>
      <trkpt lat="43.22048" lon="-4.34090333">
        <ele>817.0</ele>
        <time>2018-05-19T17:03:31.472Z</time>
      </trkpt>
      <trkpt lat="43.22054667" lon="-4.34087667">
        <ele>817.0</ele>
        <time>2018-05-19T17:03:32.472Z</time>
      </trkpt>
      <trkpt lat="43.22054667" lon="-4.34087667">
        <ele>817.0</ele>
        <time>2018-05-19T17:03:33.467Z</time>
      </trkpt>
      <trkpt lat="43.22068167" lon="-4.340815">
        <ele>818.0</ele>
        <time>2018-05-19T17:03:34.474Z</time>
      </trkpt>
      <trkpt lat="43.22068167" lon="-4.340815">
        <ele>818.0</ele>
        <time>2018-05-19T17:03:35.471Z</time>
      </trkpt>
      <trkpt lat="43.220825" lon="-4.340755">
        <ele>818.0</ele>
        <time>2018-05-19T17:03:36.479Z</time>
      </trkpt>
      <trkpt lat="43.220825" lon="-4.340755">
        <ele>818.0</ele>
        <time>2018-05-19T17:03:37.471Z</time>
      </trkpt>
      <trkpt lat="43.22098167" lon="-4.34071667">
        <ele>819.0</ele>
        <time>2018-05-19T17:03:38.471Z</time>
      </trkpt>
      <trkpt lat="43.22098167" lon="-4.34071667">
        <ele>819.0</ele>
        <time>2018-05-19T17:03:39.468Z</time>
      </trkpt>
      <trkpt lat="43.22114167" lon="-4.34069">
        <ele>819.0</ele>
        <time>2018-05-19T17:03:40.471Z</time>
      </trkpt>
      <trkpt lat="43.22114167" lon="-4.34069">
        <ele>819.0</ele>
        <time>2018-05-19T17:03:41.469Z</time>
      </trkpt>
      <trkpt lat="43.22130333" lon="-4.34067333">
        <ele>819.0</ele>
        <time>2018-05-19T17:03:42.473Z</time>
      </trkpt>
      <trkpt lat="43.22130333" lon="-4.34067333">
        <ele>819.0</ele>
        <time>2018-05-19T17:03:43.469Z</time>
      </trkpt>
      <trkpt lat="43.22147333" lon="-4.34066">
        <ele>818.0</ele>
        <time>2018-05-19T17:03:44.471Z</time>
      </trkpt>
      <trkpt lat="43.22147333" lon="-4.34066">
        <ele>818.0</ele>
        <time>2018-05-19T17:03:45.470Z</time>
      </trkpt>
      <trkpt lat="43.22165667" lon="-4.34068333">
        <ele>818.0</ele>
        <time>2018-05-19T17:03:46.473Z</time>
      </trkpt>
      <trkpt lat="43.22165667" lon="-4.34068333">
        <ele>818.0</ele>
        <time>2018-05-19T17:03:47.466Z</time>
      </trkpt>
      <trkpt lat="43.22185833" lon="-4.34072667">
        <ele>816.0</ele>
        <time>2018-05-19T17:03:48.472Z</time>
      </trkpt>
      <trkpt lat="43.22196167" lon="-4.34074167">
        <ele>815.0</ele>
        <time>2018-05-19T17:03:49.485Z</time>
      </trkpt>
      <trkpt lat="43.22196167" lon="-4.34074167">
        <ele>815.0</ele>
        <time>2018-05-19T17:03:50.468Z</time>
      </trkpt>
      <trkpt lat="43.222165" lon="-4.34073">
        <ele>815.0</ele>
        <time>2018-05-19T17:03:51.471Z</time>
      </trkpt>
      <trkpt lat="43.222165" lon="-4.34073">
        <ele>815.0</ele>
        <time>2018-05-19T17:03:52.469Z</time>
      </trkpt>
      <trkpt lat="43.22238333" lon="-4.34067167">
        <ele>813.0</ele>
        <time>2018-05-19T17:03:53.471Z</time>
      </trkpt>
      <trkpt lat="43.22238333" lon="-4.34067167">
        <ele>813.0</ele>
        <time>2018-05-19T17:03:54.470Z</time>
      </trkpt>
      <trkpt lat="43.222585" lon="-4.34058333">
        <ele>814.0</ele>
        <time>2018-05-19T17:03:55.473Z</time>
      </trkpt>
      <trkpt lat="43.22267833" lon="-4.34052167">
        <ele>813.0</ele>
        <time>2018-05-19T17:03:56.473Z</time>
      </trkpt>
      <trkpt lat="43.22267833" lon="-4.34052167">
        <ele>813.0</ele>
        <time>2018-05-19T17:03:57.466Z</time>
      </trkpt>
      <trkpt lat="43.22285" lon="-4.34039833">
        <ele>813.0</ele>
        <time>2018-05-19T17:03:58.473Z</time>
      </trkpt>
      <trkpt lat="43.22285" lon="-4.34039833">
        <ele>813.0</ele>
        <time>2018-05-19T17:03:59.480Z</time>
      </trkpt>
      <trkpt lat="43.223015" lon="-4.34029333">
        <ele>813.0</ele>
        <time>2018-05-19T17:04:00.466Z</time>
      </trkpt>
      <trkpt lat="43.223015" lon="-4.34029333">
        <ele>813.0</ele>
        <time>2018-05-19T17:04:01.470Z</time>
      </trkpt>
      <trkpt lat="43.22319" lon="-4.34018">
        <ele>812.0</ele>
        <time>2018-05-19T17:04:02.471Z</time>
      </trkpt>
      <trkpt lat="43.22319" lon="-4.34018">
        <ele>812.0</ele>
        <time>2018-05-19T17:04:03.469Z</time>
      </trkpt>
      <trkpt lat="43.22338" lon="-4.34008667">
        <ele>812.0</ele>
        <time>2018-05-19T17:04:04.473Z</time>
      </trkpt>
      <trkpt lat="43.22338" lon="-4.34008667">
        <ele>812.0</ele>
        <time>2018-05-19T17:04:05.451Z</time>
      </trkpt>
      <trkpt lat="43.22359833" lon="-4.33999">
        <ele>811.0</ele>
        <time>2018-05-19T17:04:06.480Z</time>
      </trkpt>
      <trkpt lat="43.22359833" lon="-4.33999">
        <ele>811.0</ele>
        <time>2018-05-19T17:04:07.477Z</time>
      </trkpt>
      <trkpt lat="43.22381333" lon="-4.33989">
        <ele>810.0</ele>
        <time>2018-05-19T17:04:08.469Z</time>
      </trkpt>
      <trkpt lat="43.22381333" lon="-4.33989">
        <ele>810.0</ele>
        <time>2018-05-19T17:04:09.479Z</time>
      </trkpt>
      <trkpt lat="43.22404" lon="-4.33979">
        <ele>809.0</ele>
        <time>2018-05-19T17:04:10.469Z</time>
      </trkpt>
      <trkpt lat="43.22404" lon="-4.33979">
        <ele>809.0</ele>
        <time>2018-05-19T17:04:11.466Z</time>
      </trkpt>
      <trkpt lat="43.224265" lon="-4.33971833">
        <ele>809.0</ele>
        <time>2018-05-19T17:04:12.472Z</time>
      </trkpt>
      <trkpt lat="43.224265" lon="-4.33971833">
        <ele>809.0</ele>
        <time>2018-05-19T17:04:13.468Z</time>
      </trkpt>
      <trkpt lat="43.22448667" lon="-4.33964667">
        <ele>808.0</ele>
        <time>2018-05-19T17:04:14.471Z</time>
      </trkpt>
      <trkpt lat="43.22448667" lon="-4.33964667">
        <ele>808.0</ele>
        <time>2018-05-19T17:04:15.466Z</time>
      </trkpt>
      <trkpt lat="43.22469333" lon="-4.33956667">
        <ele>805.0</ele>
        <time>2018-05-19T17:04:16.472Z</time>
      </trkpt>
      <trkpt lat="43.22469333" lon="-4.33956667">
        <ele>805.0</ele>
        <time>2018-05-19T17:04:17.470Z</time>
      </trkpt>
      <trkpt lat="43.224895" lon="-4.33947167">
        <ele>800.0</ele>
        <time>2018-05-19T17:04:18.473Z</time>
      </trkpt>
      <trkpt lat="43.224895" lon="-4.33947167">
        <ele>800.0</ele>
        <time>2018-05-19T17:04:19.477Z</time>
      </trkpt>
      <trkpt lat="43.22507333" lon="-4.3393">
        <ele>794.0</ele>
        <time>2018-05-19T17:04:20.471Z</time>
      </trkpt>
      <trkpt lat="43.22507333" lon="-4.3393">
        <ele>794.0</ele>
        <time>2018-05-19T17:04:21.471Z</time>
      </trkpt>
      <trkpt lat="43.22521667" lon="-4.33903667">
        <ele>790.0</ele>
        <time>2018-05-19T17:04:22.474Z</time>
      </trkpt>
      <trkpt lat="43.22521667" lon="-4.33903667">
        <ele>790.0</ele>
        <time>2018-05-19T17:04:23.470Z</time>
      </trkpt>
      <trkpt lat="43.22536167" lon="-4.33877833">
        <ele>787.0</ele>
        <time>2018-05-19T17:04:24.456Z</time>
      </trkpt>
      <trkpt lat="43.22543667" lon="-4.33865167">
        <ele>786.0</ele>
        <time>2018-05-19T17:04:25.462Z</time>
      </trkpt>
      <trkpt lat="43.22543667" lon="-4.33865167">
        <ele>786.0</ele>
        <time>2018-05-19T17:04:26.469Z</time>
      </trkpt>
      <trkpt lat="43.22557333" lon="-4.33838333">
        <ele>784.0</ele>
        <time>2018-05-19T17:04:27.476Z</time>
      </trkpt>
      <trkpt lat="43.22557333" lon="-4.33838333">
        <ele>784.0</ele>
        <time>2018-05-19T17:04:28.470Z</time>
      </trkpt>
      <trkpt lat="43.22567667" lon="-4.33811">
        <ele>783.0</ele>
        <time>2018-05-19T17:04:29.485Z</time>
      </trkpt>
      <trkpt lat="43.22572" lon="-4.33798">
        <ele>782.0</ele>
        <time>2018-05-19T17:04:30.472Z</time>
      </trkpt>
      <trkpt lat="43.22572" lon="-4.33798">
        <ele>782.0</ele>
        <time>2018-05-19T17:04:31.469Z</time>
      </trkpt>
      <trkpt lat="43.2258" lon="-4.33773167">
        <ele>782.0</ele>
        <time>2018-05-19T17:04:32.469Z</time>
      </trkpt>
      <trkpt lat="43.2258" lon="-4.33773167">
        <ele>782.0</ele>
        <time>2018-05-19T17:04:33.466Z</time>
      </trkpt>
      <trkpt lat="43.22588" lon="-4.33751833">
        <ele>783.0</ele>
        <time>2018-05-19T17:04:34.470Z</time>
      </trkpt>
      <trkpt lat="43.22588" lon="-4.33751833">
        <ele>783.0</ele>
        <time>2018-05-19T17:04:35.470Z</time>
      </trkpt>
      <trkpt lat="43.22599167" lon="-4.33736167">
        <ele>783.0</ele>
        <time>2018-05-19T17:04:36.451Z</time>
      </trkpt>
      <trkpt lat="43.22599167" lon="-4.33736167">
        <ele>783.0</ele>
        <time>2018-05-19T17:04:37.480Z</time>
      </trkpt>
      <trkpt lat="43.22612333" lon="-4.33722">
        <ele>782.0</ele>
        <time>2018-05-19T17:04:38.471Z</time>
      </trkpt>
      <trkpt lat="43.22612333" lon="-4.33722">
        <ele>782.0</ele>
        <time>2018-05-19T17:04:39.468Z</time>
      </trkpt>
      <trkpt lat="43.22626167" lon="-4.33709">
        <ele>782.0</ele>
        <time>2018-05-19T17:04:40.472Z</time>
      </trkpt>
      <trkpt lat="43.22626167" lon="-4.33709">
        <ele>782.0</ele>
        <time>2018-05-19T17:04:41.484Z</time>
      </trkpt>
      <trkpt lat="43.22640667" lon="-4.33699167">
        <ele>782.0</ele>
        <time>2018-05-19T17:04:42.472Z</time>
      </trkpt>
      <trkpt lat="43.22640667" lon="-4.33699167">
        <ele>782.0</ele>
        <time>2018-05-19T17:04:43.469Z</time>
      </trkpt>
      <trkpt lat="43.22654667" lon="-4.33691667">
        <ele>781.0</ele>
        <time>2018-05-19T17:04:44.471Z</time>
      </trkpt>
      <trkpt lat="43.22654667" lon="-4.33691667">
        <ele>781.0</ele>
        <time>2018-05-19T17:04:45.468Z</time>
      </trkpt>
      <trkpt lat="43.22668667" lon="-4.336855">
        <ele>781.0</ele>
        <time>2018-05-19T17:04:46.473Z</time>
      </trkpt>
      <trkpt lat="43.22668667" lon="-4.336855">
        <ele>781.0</ele>
        <time>2018-05-19T17:04:47.476Z</time>
      </trkpt>
      <trkpt lat="43.22682833" lon="-4.3368">
        <ele>780.0</ele>
        <time>2018-05-19T17:04:48.474Z</time>
      </trkpt>
      <trkpt lat="43.22682833" lon="-4.3368">
        <ele>780.0</ele>
        <time>2018-05-19T17:04:49.467Z</time>
      </trkpt>
      <trkpt lat="43.22697333" lon="-4.33674167">
        <ele>779.0</ele>
        <time>2018-05-19T17:04:50.470Z</time>
      </trkpt>
      <trkpt lat="43.22697333" lon="-4.33674167">
        <ele>779.0</ele>
        <time>2018-05-19T17:04:51.468Z</time>
      </trkpt>
      <trkpt lat="43.22710833" lon="-4.33663333">
        <ele>778.0</ele>
        <time>2018-05-19T17:04:52.472Z</time>
      </trkpt>
      <trkpt lat="43.22710833" lon="-4.33663333">
        <ele>778.0</ele>
        <time>2018-05-19T17:04:53.465Z</time>
      </trkpt>
      <trkpt lat="43.22722" lon="-4.33646167">
        <ele>776.0</ele>
        <time>2018-05-19T17:04:54.472Z</time>
      </trkpt>
      <trkpt lat="43.22722" lon="-4.33646167">
        <ele>776.0</ele>
        <time>2018-05-19T17:04:55.469Z</time>
      </trkpt>
      <trkpt lat="43.22732167" lon="-4.33626333">
        <ele>775.0</ele>
        <time>2018-05-19T17:04:56.468Z</time>
      </trkpt>
      <trkpt lat="43.22732167" lon="-4.33626333">
        <ele>775.0</ele>
        <time>2018-05-19T17:04:57.483Z</time>
      </trkpt>
      <trkpt lat="43.22744167" lon="-4.33607167">
        <ele>773.0</ele>
        <time>2018-05-19T17:04:58.487Z</time>
      </trkpt>
      <trkpt lat="43.22744167" lon="-4.33607167">
        <ele>773.0</ele>
        <time>2018-05-19T17:04:59.480Z</time>
      </trkpt>
      <trkpt lat="43.22760167" lon="-4.33596">
        <ele>772.0</ele>
        <time>2018-05-19T17:05:00.473Z</time>
      </trkpt>
      <trkpt lat="43.22760167" lon="-4.33596">
        <ele>772.0</ele>
        <time>2018-05-19T17:05:01.468Z</time>
      </trkpt>
      <trkpt lat="43.22778" lon="-4.33596167">
        <ele>771.0</ele>
        <time>2018-05-19T17:05:02.468Z</time>
      </trkpt>
      <trkpt lat="43.22778" lon="-4.33596167">
        <ele>771.0</ele>
        <time>2018-05-19T17:05:03.470Z</time>
      </trkpt>
      <trkpt lat="43.22797" lon="-4.33601833">
        <ele>769.0</ele>
        <time>2018-05-19T17:05:04.472Z</time>
      </trkpt>
      <trkpt lat="43.22797" lon="-4.33601833">
        <ele>769.0</ele>
        <time>2018-05-19T17:05:05.469Z</time>
      </trkpt>
      <trkpt lat="43.22817" lon="-4.33610667">
        <ele>767.0</ele>
        <time>2018-05-19T17:05:06.474Z</time>
      </trkpt>
      <trkpt lat="43.22817" lon="-4.33610667">
        <ele>767.0</ele>
        <time>2018-05-19T17:05:07.472Z</time>
      </trkpt>
      <trkpt lat="43.22838333" lon="-4.33618833">
        <ele>765.0</ele>
        <time>2018-05-19T17:05:08.471Z</time>
      </trkpt>
      <trkpt lat="43.22838333" lon="-4.33618833">
        <ele>765.0</ele>
        <time>2018-05-19T17:05:09.469Z</time>
      </trkpt>
      <trkpt lat="43.22859667" lon="-4.336275">
        <ele>763.0</ele>
        <time>2018-05-19T17:05:10.471Z</time>
      </trkpt>
      <trkpt lat="43.22859667" lon="-4.336275">
        <ele>763.0</ele>
        <time>2018-05-19T17:05:11.470Z</time>
      </trkpt>
      <trkpt lat="43.22876833" lon="-4.33640167">
        <ele>761.0</ele>
        <time>2018-05-19T17:05:12.474Z</time>
      </trkpt>
      <trkpt lat="43.22876833" lon="-4.33640167">
        <ele>761.0</ele>
        <time>2018-05-19T17:05:13.471Z</time>
      </trkpt>
      <trkpt lat="43.22888167" lon="-4.33660667">
        <ele>759.0</ele>
        <time>2018-05-19T17:05:14.472Z</time>
      </trkpt>
      <trkpt lat="43.22888167" lon="-4.33660667">
        <ele>759.0</ele>
        <time>2018-05-19T17:05:15.465Z</time>
      </trkpt>
      <trkpt lat="43.22894667" lon="-4.33687167">
        <ele>757.0</ele>
        <time>2018-05-19T17:05:16.472Z</time>
      </trkpt>
      <trkpt lat="43.22894667" lon="-4.33687167">
        <ele>757.0</ele>
        <time>2018-05-19T17:05:17.472Z</time>
      </trkpt>
      <trkpt lat="43.228995" lon="-4.33712167">
        <ele>754.0</ele>
        <time>2018-05-19T17:05:18.472Z</time>
      </trkpt>
      <trkpt lat="43.228995" lon="-4.33712167">
        <ele>754.0</ele>
        <time>2018-05-19T17:05:19.464Z</time>
      </trkpt>
      <trkpt lat="43.22905167" lon="-4.33732833">
        <ele>751.0</ele>
        <time>2018-05-19T17:05:20.469Z</time>
      </trkpt>
      <trkpt lat="43.22905167" lon="-4.33732833">
        <ele>751.0</ele>
        <time>2018-05-19T17:05:21.469Z</time>
      </trkpt>
      <trkpt lat="43.22918333" lon="-4.33742">
        <ele>748.0</ele>
        <time>2018-05-19T17:05:22.471Z</time>
      </trkpt>
      <trkpt lat="43.22926167" lon="-4.33740167">
        <ele>746.0</ele>
        <time>2018-05-19T17:05:23.471Z</time>
      </trkpt>
      <trkpt lat="43.22926167" lon="-4.33740167">
        <ele>746.0</ele>
        <time>2018-05-19T17:05:24.464Z</time>
      </trkpt>
      <trkpt lat="43.229435" lon="-4.337325">
        <ele>744.0</ele>
        <time>2018-05-19T17:05:25.471Z</time>
      </trkpt>
      <trkpt lat="43.229435" lon="-4.337325">
        <ele>744.0</ele>
        <time>2018-05-19T17:05:26.476Z</time>
      </trkpt>
      <trkpt lat="43.22962833" lon="-4.33725167">
        <ele>742.0</ele>
        <time>2018-05-19T17:05:27.477Z</time>
      </trkpt>
      <trkpt lat="43.22962833" lon="-4.33725167">
        <ele>742.0</ele>
        <time>2018-05-19T17:05:28.472Z</time>
      </trkpt>
      <trkpt lat="43.22984333" lon="-4.33718167">
        <ele>739.0</ele>
        <time>2018-05-19T17:05:29.484Z</time>
      </trkpt>
      <trkpt lat="43.229955" lon="-4.33715">
        <ele>738.0</ele>
        <time>2018-05-19T17:05:30.473Z</time>
      </trkpt>
      <trkpt lat="43.23007" lon="-4.33712167">
        <ele>737.0</ele>
        <time>2018-05-19T17:05:31.471Z</time>
      </trkpt>
      <trkpt lat="43.23007" lon="-4.33712167">
        <ele>737.0</ele>
        <time>2018-05-19T17:05:32.468Z</time>
      </trkpt>
      <trkpt lat="43.23031" lon="-4.33705833">
        <ele>735.0</ele>
        <time>2018-05-19T17:05:33.472Z</time>
      </trkpt>
      <trkpt lat="43.23031" lon="-4.33705833">
        <ele>735.0</ele>
        <time>2018-05-19T17:05:34.470Z</time>
      </trkpt>
      <trkpt lat="43.23054833" lon="-4.336945">
        <ele>732.0</ele>
        <time>2018-05-19T17:05:35.472Z</time>
      </trkpt>
      <trkpt lat="43.23066833" lon="-4.33687833">
        <ele>731.0</ele>
        <time>2018-05-19T17:05:36.455Z</time>
      </trkpt>
      <trkpt lat="43.23066833" lon="-4.33687833">
        <ele>731.0</ele>
        <time>2018-05-19T17:05:37.484Z</time>
      </trkpt>
      <trkpt lat="43.23091" lon="-4.33676">
        <ele>728.0</ele>
        <time>2018-05-19T17:05:38.474Z</time>
      </trkpt>
      <trkpt lat="43.23091" lon="-4.33676">
        <ele>728.0</ele>
        <time>2018-05-19T17:05:39.469Z</time>
      </trkpt>
      <trkpt lat="43.231155" lon="-4.33667667">
        <ele>725.0</ele>
        <time>2018-05-19T17:05:40.471Z</time>
      </trkpt>
      <trkpt lat="43.23127333" lon="-4.33664667">
        <ele>724.0</ele>
        <time>2018-05-19T17:05:41.472Z</time>
      </trkpt>
      <trkpt lat="43.23138667" lon="-4.33662">
        <ele>723.0</ele>
        <time>2018-05-19T17:05:42.473Z</time>
      </trkpt>
      <trkpt lat="43.23138667" lon="-4.33662">
        <ele>723.0</ele>
        <time>2018-05-19T17:05:43.468Z</time>
      </trkpt>
      <trkpt lat="43.23159833" lon="-4.33653333">
        <ele>720.0</ele>
        <time>2018-05-19T17:05:44.471Z</time>
      </trkpt>
      <trkpt lat="43.23159833" lon="-4.33653333">
        <ele>720.0</ele>
        <time>2018-05-19T17:05:45.468Z</time>
      </trkpt>
      <trkpt lat="43.23181667" lon="-4.33641">
        <ele>716.0</ele>
        <time>2018-05-19T17:05:46.468Z</time>
      </trkpt>
      <trkpt lat="43.23192833" lon="-4.33635167">
        <ele>714.0</ele>
        <time>2018-05-19T17:05:47.472Z</time>
      </trkpt>
      <trkpt lat="43.23192833" lon="-4.33635167">
        <ele>714.0</ele>
        <time>2018-05-19T17:05:48.461Z</time>
      </trkpt>
      <trkpt lat="43.23215833" lon="-4.33622667">
        <ele>710.0</ele>
        <time>2018-05-19T17:05:49.451Z</time>
      </trkpt>
      <trkpt lat="43.23227333" lon="-4.33616333">
        <ele>708.0</ele>
        <time>2018-05-19T17:05:50.478Z</time>
      </trkpt>
      <trkpt lat="43.23227333" lon="-4.33616333">
        <ele>708.0</ele>
        <time>2018-05-19T17:05:51.468Z</time>
      </trkpt>
      <trkpt lat="43.23249667" lon="-4.33601167">
        <ele>704.0</ele>
        <time>2018-05-19T17:05:52.471Z</time>
      </trkpt>
      <trkpt lat="43.23249667" lon="-4.33601167">
        <ele>704.0</ele>
        <time>2018-05-19T17:05:53.468Z</time>
      </trkpt>
      <trkpt lat="43.232725" lon="-4.335855">
        <ele>700.0</ele>
        <time>2018-05-19T17:05:54.472Z</time>
      </trkpt>
      <trkpt lat="43.23284" lon="-4.33578833">
        <ele>699.0</ele>
        <time>2018-05-19T17:05:55.470Z</time>
      </trkpt>
      <trkpt lat="43.23295167" lon="-4.33571333">
        <ele>697.0</ele>
        <time>2018-05-19T17:05:56.472Z</time>
      </trkpt>
      <trkpt lat="43.23295167" lon="-4.33571333">
        <ele>697.0</ele>
        <time>2018-05-19T17:05:57.468Z</time>
      </trkpt>
      <trkpt lat="43.23317167" lon="-4.33553333">
        <ele>693.0</ele>
        <time>2018-05-19T17:05:58.486Z</time>
      </trkpt>
      <trkpt lat="43.23328667" lon="-4.33545167">
        <ele>692.0</ele>
        <time>2018-05-19T17:05:59.477Z</time>
      </trkpt>
      <trkpt lat="43.23340833" lon="-4.33538167">
        <ele>691.0</ele>
        <time>2018-05-19T17:06:00.474Z</time>
      </trkpt>
      <trkpt lat="43.23340833" lon="-4.33538167">
        <ele>691.0</ele>
        <time>2018-05-19T17:06:01.469Z</time>
      </trkpt>
      <trkpt lat="43.23365667" lon="-4.33525833">
        <ele>687.0</ele>
        <time>2018-05-19T17:06:02.474Z</time>
      </trkpt>
      <trkpt lat="43.23365667" lon="-4.33525833">
        <ele>687.0</ele>
        <time>2018-05-19T17:06:03.470Z</time>
      </trkpt>
      <trkpt lat="43.23390333" lon="-4.33512">
        <ele>682.0</ele>
        <time>2018-05-19T17:06:04.470Z</time>
      </trkpt>
      <trkpt lat="43.23402667" lon="-4.33505833">
        <ele>680.0</ele>
        <time>2018-05-19T17:06:05.471Z</time>
      </trkpt>
      <trkpt lat="43.23402667" lon="-4.33505833">
        <ele>680.0</ele>
        <time>2018-05-19T17:06:06.471Z</time>
      </trkpt>
      <trkpt lat="43.234265" lon="-4.33494667">
        <ele>677.0</ele>
        <time>2018-05-19T17:06:07.471Z</time>
      </trkpt>
      <trkpt lat="43.23437333" lon="-4.33488833">
        <ele>675.0</ele>
        <time>2018-05-19T17:06:08.475Z</time>
      </trkpt>
      <trkpt lat="43.23437333" lon="-4.33488833">
        <ele>675.0</ele>
        <time>2018-05-19T17:06:09.466Z</time>
      </trkpt>
      <trkpt lat="43.23457" lon="-4.33474167">
        <ele>673.0</ele>
        <time>2018-05-19T17:06:10.471Z</time>
      </trkpt>
      <trkpt lat="43.23457" lon="-4.33474167">
        <ele>673.0</ele>
        <time>2018-05-19T17:06:11.470Z</time>
      </trkpt>
      <trkpt lat="43.23474833" lon="-4.33455667">
        <ele>669.0</ele>
        <time>2018-05-19T17:06:12.472Z</time>
      </trkpt>
      <trkpt lat="43.23474833" lon="-4.33455667">
        <ele>669.0</ele>
        <time>2018-05-19T17:06:13.466Z</time>
      </trkpt>
      <trkpt lat="43.23493167" lon="-4.33436167">
        <ele>665.0</ele>
        <time>2018-05-19T17:06:14.471Z</time>
      </trkpt>
      <trkpt lat="43.23493167" lon="-4.33436167">
        <ele>665.0</ele>
        <time>2018-05-19T17:06:15.468Z</time>
      </trkpt>
      <trkpt lat="43.235105" lon="-4.334145">
        <ele>661.0</ele>
        <time>2018-05-19T17:06:16.472Z</time>
      </trkpt>
      <trkpt lat="43.235105" lon="-4.334145">
        <ele>661.0</ele>
        <time>2018-05-19T17:06:17.457Z</time>
      </trkpt>
      <trkpt lat="43.23525667" lon="-4.33388333">
        <ele>657.0</ele>
        <time>2018-05-19T17:06:18.484Z</time>
      </trkpt>
      <trkpt lat="43.23525667" lon="-4.33388333">
        <ele>657.0</ele>
        <time>2018-05-19T17:06:19.470Z</time>
      </trkpt>
      <trkpt lat="43.235405" lon="-4.33361333">
        <ele>653.0</ele>
        <time>2018-05-19T17:06:20.471Z</time>
      </trkpt>
      <trkpt lat="43.235405" lon="-4.33361333">
        <ele>653.0</ele>
        <time>2018-05-19T17:06:21.468Z</time>
      </trkpt>
      <trkpt lat="43.23553667" lon="-4.333345">
        <ele>649.0</ele>
        <time>2018-05-19T17:06:22.470Z</time>
      </trkpt>
      <trkpt lat="43.23553667" lon="-4.333345">
        <ele>649.0</ele>
        <time>2018-05-19T17:06:23.480Z</time>
      </trkpt>
      <trkpt lat="43.23562667" lon="-4.33309167">
        <ele>647.0</ele>
        <time>2018-05-19T17:06:24.449Z</time>
      </trkpt>
      <trkpt lat="43.23565167" lon="-4.33296833">
        <ele>645.0</ele>
        <time>2018-05-19T17:06:25.456Z</time>
      </trkpt>
      <trkpt lat="43.23565167" lon="-4.33296833">
        <ele>645.0</ele>
        <time>2018-05-19T17:06:26.463Z</time>
      </trkpt>
      <trkpt lat="43.23565667" lon="-4.332745">
        <ele>644.0</ele>
        <time>2018-05-19T17:06:27.472Z</time>
      </trkpt>
      <trkpt lat="43.23564167" lon="-4.33265333">
        <ele>643.0</ele>
        <time>2018-05-19T17:06:28.472Z</time>
      </trkpt>
      <trkpt lat="43.23564167" lon="-4.33265333">
        <ele>643.0</ele>
        <time>2018-05-19T17:06:29.468Z</time>
      </trkpt>
      <trkpt lat="43.23562333" lon="-4.332505">
        <ele>642.0</ele>
        <time>2018-05-19T17:06:30.472Z</time>
      </trkpt>
      <trkpt lat="43.23562333" lon="-4.332505">
        <ele>642.0</ele>
        <time>2018-05-19T17:06:31.466Z</time>
      </trkpt>
      <trkpt lat="43.23568833" lon="-4.33242333">
        <ele>640.0</ele>
        <time>2018-05-19T17:06:32.471Z</time>
      </trkpt>
      <trkpt lat="43.23568833" lon="-4.33242333">
        <ele>640.0</ele>
        <time>2018-05-19T17:06:33.469Z</time>
      </trkpt>
      <trkpt lat="43.235805" lon="-4.33246333">
        <ele>639.0</ele>
        <time>2018-05-19T17:06:34.472Z</time>
      </trkpt>
      <trkpt lat="43.235805" lon="-4.33246333">
        <ele>639.0</ele>
        <time>2018-05-19T17:06:35.467Z</time>
      </trkpt>
      <trkpt lat="43.23593" lon="-4.33257">
        <ele>637.0</ele>
        <time>2018-05-19T17:06:36.466Z</time>
      </trkpt>
      <trkpt lat="43.23593" lon="-4.33257">
        <ele>637.0</ele>
        <time>2018-05-19T17:06:37.465Z</time>
      </trkpt>
      <trkpt lat="43.236045" lon="-4.33272">
        <ele>635.0</ele>
        <time>2018-05-19T17:06:38.468Z</time>
      </trkpt>
      <trkpt lat="43.236045" lon="-4.33272">
        <ele>635.0</ele>
        <time>2018-05-19T17:06:39.468Z</time>
      </trkpt>
      <trkpt lat="43.23612667" lon="-4.33287667">
        <ele>633.0</ele>
        <time>2018-05-19T17:06:40.471Z</time>
      </trkpt>
      <trkpt lat="43.23612667" lon="-4.33287667">
        <ele>633.0</ele>
        <time>2018-05-19T17:06:41.469Z</time>
      </trkpt>
      <trkpt lat="43.23620167" lon="-4.33294167">
        <ele>631.0</ele>
        <time>2018-05-19T17:06:42.472Z</time>
      </trkpt>
      <trkpt lat="43.23620167" lon="-4.33294167">
        <ele>631.0</ele>
        <time>2018-05-19T17:06:43.469Z</time>
      </trkpt>
      <trkpt lat="43.23628667" lon="-4.33289">
        <ele>630.0</ele>
        <time>2018-05-19T17:06:44.470Z</time>
      </trkpt>
      <trkpt lat="43.23628667" lon="-4.33289">
        <ele>630.0</ele>
        <time>2018-05-19T17:06:45.467Z</time>
      </trkpt>
      <trkpt lat="43.23632667" lon="-4.33274167">
        <ele>628.0</ele>
        <time>2018-05-19T17:06:46.470Z</time>
      </trkpt>
      <trkpt lat="43.23633333" lon="-4.33263833">
        <ele>627.0</ele>
        <time>2018-05-19T17:06:47.473Z</time>
      </trkpt>
      <trkpt lat="43.23633333" lon="-4.33263833">
        <ele>627.0</ele>
        <time>2018-05-19T17:06:48.472Z</time>
      </trkpt>
      <trkpt lat="43.23634" lon="-4.33239">
        <ele>624.0</ele>
        <time>2018-05-19T17:06:49.484Z</time>
      </trkpt>
      <trkpt lat="43.23633833" lon="-4.33225167">
        <ele>622.0</ele>
        <time>2018-05-19T17:06:50.450Z</time>
      </trkpt>
      <trkpt lat="43.23633833" lon="-4.33225167">
        <ele>622.0</ele>
        <time>2018-05-19T17:06:51.486Z</time>
      </trkpt>
      <trkpt lat="43.23631" lon="-4.33195833">
        <ele>619.0</ele>
        <time>2018-05-19T17:06:52.471Z</time>
      </trkpt>
      <trkpt lat="43.23631" lon="-4.33195833">
        <ele>619.0</ele>
        <time>2018-05-19T17:06:53.468Z</time>
      </trkpt>
      <trkpt lat="43.23626167" lon="-4.331665">
        <ele>616.0</ele>
        <time>2018-05-19T17:06:54.473Z</time>
      </trkpt>
      <trkpt lat="43.23626167" lon="-4.331665">
        <ele>616.0</ele>
        <time>2018-05-19T17:06:55.468Z</time>
      </trkpt>
      <trkpt lat="43.236205" lon="-4.33138">
        <ele>613.0</ele>
        <time>2018-05-19T17:06:56.471Z</time>
      </trkpt>
      <trkpt lat="43.236205" lon="-4.33138">
        <ele>613.0</ele>
        <time>2018-05-19T17:06:57.466Z</time>
      </trkpt>
      <trkpt lat="43.23617333" lon="-4.33109667">
        <ele>610.0</ele>
        <time>2018-05-19T17:06:58.472Z</time>
      </trkpt>
      <trkpt lat="43.23617333" lon="-4.33109667">
        <ele>610.0</ele>
        <time>2018-05-19T17:06:59.478Z</time>
      </trkpt>
      <trkpt lat="43.23620333" lon="-4.330815">
        <ele>608.0</ele>
        <time>2018-05-19T17:07:00.472Z</time>
      </trkpt>
      <trkpt lat="43.23620333" lon="-4.330815">
        <ele>608.0</ele>
        <time>2018-05-19T17:07:01.469Z</time>
      </trkpt>
      <trkpt lat="43.23629167" lon="-4.33056333">
        <ele>607.0</ele>
        <time>2018-05-19T17:07:02.468Z</time>
      </trkpt>
      <trkpt lat="43.23629167" lon="-4.33056333">
        <ele>607.0</ele>
        <time>2018-05-19T17:07:03.465Z</time>
      </trkpt>
      <trkpt lat="43.23643" lon="-4.330345">
        <ele>605.0</ele>
        <time>2018-05-19T17:07:04.472Z</time>
      </trkpt>
      <trkpt lat="43.23643" lon="-4.330345">
        <ele>605.0</ele>
        <time>2018-05-19T17:07:05.469Z</time>
      </trkpt>
      <trkpt lat="43.23659" lon="-4.33014">
        <ele>604.0</ele>
        <time>2018-05-19T17:07:06.484Z</time>
      </trkpt>
      <trkpt lat="43.23666667" lon="-4.33003333">
        <ele>603.0</ele>
        <time>2018-05-19T17:07:07.453Z</time>
      </trkpt>
      <trkpt lat="43.23666667" lon="-4.33003333">
        <ele>603.0</ele>
        <time>2018-05-19T17:07:08.461Z</time>
      </trkpt>
      <trkpt lat="43.23679833" lon="-4.329815">
        <ele>603.0</ele>
        <time>2018-05-19T17:07:09.467Z</time>
      </trkpt>
      <trkpt lat="43.23679833" lon="-4.329815">
        <ele>603.0</ele>
        <time>2018-05-19T17:07:10.473Z</time>
      </trkpt>
      <trkpt lat="43.23691" lon="-4.3296">
        <ele>604.0</ele>
        <time>2018-05-19T17:07:11.479Z</time>
      </trkpt>
      <trkpt lat="43.23696167" lon="-4.329495">
        <ele>604.0</ele>
        <time>2018-05-19T17:07:12.472Z</time>
      </trkpt>
      <trkpt lat="43.23696167" lon="-4.329495">
        <ele>604.0</ele>
        <time>2018-05-19T17:07:13.466Z</time>
      </trkpt>
      <trkpt lat="43.23706" lon="-4.32929167">
        <ele>604.0</ele>
        <time>2018-05-19T17:07:14.471Z</time>
      </trkpt>
      <trkpt lat="43.237105" lon="-4.32919333">
        <ele>605.0</ele>
        <time>2018-05-19T17:07:15.472Z</time>
      </trkpt>
      <trkpt lat="43.23714667" lon="-4.32909667">
        <ele>605.0</ele>
        <time>2018-05-19T17:07:16.486Z</time>
      </trkpt>
      <trkpt lat="43.23714667" lon="-4.32909667">
        <ele>605.0</ele>
        <time>2018-05-19T17:07:17.471Z</time>
      </trkpt>
      <trkpt lat="43.23722" lon="-4.32891833">
        <ele>606.0</ele>
        <time>2018-05-19T17:07:18.472Z</time>
      </trkpt>
      <trkpt lat="43.23722" lon="-4.32891833">
        <ele>606.0</ele>
        <time>2018-05-19T17:07:19.465Z</time>
      </trkpt>
      <trkpt lat="43.23729" lon="-4.328755">
        <ele>606.0</ele>
        <time>2018-05-19T17:07:20.468Z</time>
      </trkpt>
      <trkpt lat="43.23729" lon="-4.328755">
        <ele>606.0</ele>
        <time>2018-05-19T17:07:21.467Z</time>
      </trkpt>
      <trkpt lat="43.23735833" lon="-4.32860167">
        <ele>606.0</ele>
        <time>2018-05-19T17:07:22.470Z</time>
      </trkpt>
      <trkpt lat="43.23735833" lon="-4.32860167">
        <ele>606.0</ele>
        <time>2018-05-19T17:07:23.461Z</time>
      </trkpt>
      <trkpt lat="43.237425" lon="-4.32846">
        <ele>607.0</ele>
        <time>2018-05-19T17:07:24.472Z</time>
      </trkpt>
      <trkpt lat="43.23745667" lon="-4.32839167">
        <ele>607.0</ele>
        <time>2018-05-19T17:07:25.478Z</time>
      </trkpt>
      <trkpt lat="43.237485" lon="-4.328325">
        <ele>607.0</ele>
        <time>2018-05-19T17:07:26.486Z</time>
      </trkpt>
      <trkpt lat="43.237485" lon="-4.328325">
        <ele>607.0</ele>
        <time>2018-05-19T17:07:27.483Z</time>
      </trkpt>
      <trkpt lat="43.23754167" lon="-4.32819">
        <ele>607.0</ele>
        <time>2018-05-19T17:07:28.471Z</time>
      </trkpt>
      <trkpt lat="43.23754167" lon="-4.32819">
        <ele>607.0</ele>
        <time>2018-05-19T17:07:29.478Z</time>
      </trkpt>
      <trkpt lat="43.23760167" lon="-4.32806333">
        <ele>607.0</ele>
        <time>2018-05-19T17:07:30.472Z</time>
      </trkpt>
      <trkpt lat="43.23760167" lon="-4.32806333">
        <ele>607.0</ele>
        <time>2018-05-19T17:07:31.467Z</time>
      </trkpt>
      <trkpt lat="43.23767667" lon="-4.32794667">
        <ele>607.0</ele>
        <time>2018-05-19T17:07:32.470Z</time>
      </trkpt>
      <trkpt lat="43.23767667" lon="-4.32794667">
        <ele>607.0</ele>
        <time>2018-05-19T17:07:33.465Z</time>
      </trkpt>
      <trkpt lat="43.23776833" lon="-4.32783833">
        <ele>607.0</ele>
        <time>2018-05-19T17:07:34.469Z</time>
      </trkpt>
      <trkpt lat="43.23776833" lon="-4.32783833">
        <ele>607.0</ele>
        <time>2018-05-19T17:07:35.468Z</time>
      </trkpt>
      <trkpt lat="43.23787" lon="-4.32773833">
        <ele>607.0</ele>
        <time>2018-05-19T17:07:36.451Z</time>
      </trkpt>
      <trkpt lat="43.23787" lon="-4.32773833">
        <ele>607.0</ele>
        <time>2018-05-19T17:07:37.476Z</time>
      </trkpt>
      <trkpt lat="43.23797333" lon="-4.327635">
        <ele>607.0</ele>
        <time>2018-05-19T17:07:38.472Z</time>
      </trkpt>
      <trkpt lat="43.23797333" lon="-4.327635">
        <ele>607.0</ele>
        <time>2018-05-19T17:07:39.468Z</time>
      </trkpt>
      <trkpt lat="43.23807333" lon="-4.327535">
        <ele>607.0</ele>
        <time>2018-05-19T17:07:40.471Z</time>
      </trkpt>
      <trkpt lat="43.23812167" lon="-4.32748833">
        <ele>607.0</ele>
        <time>2018-05-19T17:07:41.474Z</time>
      </trkpt>
      <trkpt lat="43.23812167" lon="-4.32748833">
        <ele>607.0</ele>
        <time>2018-05-19T17:07:42.469Z</time>
      </trkpt>
      <trkpt lat="43.23821167" lon="-4.32738">
        <ele>606.0</ele>
        <time>2018-05-19T17:07:43.471Z</time>
      </trkpt>
      <trkpt lat="43.23825667" lon="-4.327325">
        <ele>606.0</ele>
        <time>2018-05-19T17:07:44.471Z</time>
      </trkpt>
      <trkpt lat="43.23825667" lon="-4.327325">
        <ele>606.0</ele>
        <time>2018-05-19T17:07:45.464Z</time>
      </trkpt>
      <trkpt lat="43.23835" lon="-4.327215">
        <ele>606.0</ele>
        <time>2018-05-19T17:07:46.485Z</time>
      </trkpt>
      <trkpt lat="43.2384" lon="-4.32715833">
        <ele>606.0</ele>
        <time>2018-05-19T17:07:47.482Z</time>
      </trkpt>
      <trkpt lat="43.2384" lon="-4.32715833">
        <ele>606.0</ele>
        <time>2018-05-19T17:07:48.470Z</time>
      </trkpt>
      <trkpt lat="43.2385" lon="-4.32704">
        <ele>606.0</ele>
        <time>2018-05-19T17:07:49.478Z</time>
      </trkpt>
      <trkpt lat="43.23854667" lon="-4.32697">
        <ele>605.0</ele>
        <time>2018-05-19T17:07:50.468Z</time>
      </trkpt>
      <trkpt lat="43.23854667" lon="-4.32697">
        <ele>605.0</ele>
        <time>2018-05-19T17:07:51.468Z</time>
      </trkpt>
      <trkpt lat="43.23863" lon="-4.32680667">
        <ele>604.0</ele>
        <time>2018-05-19T17:07:52.479Z</time>
      </trkpt>
      <trkpt lat="43.23863" lon="-4.32680667">
        <ele>604.0</ele>
        <time>2018-05-19T17:07:53.468Z</time>
      </trkpt>
      <trkpt lat="43.23870667" lon="-4.32663333">
        <ele>603.0</ele>
        <time>2018-05-19T17:07:54.472Z</time>
      </trkpt>
      <trkpt lat="43.23870667" lon="-4.32663333">
        <ele>603.0</ele>
        <time>2018-05-19T17:07:55.468Z</time>
      </trkpt>
      <trkpt lat="43.23878833" lon="-4.32644833">
        <ele>602.0</ele>
        <time>2018-05-19T17:07:56.485Z</time>
      </trkpt>
      <trkpt lat="43.23878833" lon="-4.32644833">
        <ele>602.0</ele>
        <time>2018-05-19T17:07:57.471Z</time>
      </trkpt>
      <trkpt lat="43.23888167" lon="-4.32626667">
        <ele>601.0</ele>
        <time>2018-05-19T17:07:58.467Z</time>
      </trkpt>
      <trkpt lat="43.23894333" lon="-4.32619">
        <ele>601.0</ele>
        <time>2018-05-19T17:07:59.476Z</time>
      </trkpt>
      <trkpt lat="43.23894333" lon="-4.32619">
        <ele>601.0</ele>
        <time>2018-05-19T17:08:00.471Z</time>
      </trkpt>
      <trkpt lat="43.23909833" lon="-4.32609">
        <ele>600.0</ele>
        <time>2018-05-19T17:08:01.472Z</time>
      </trkpt>
      <trkpt lat="43.23917667" lon="-4.32606333">
        <ele>600.0</ele>
        <time>2018-05-19T17:08:02.472Z</time>
      </trkpt>
      <trkpt lat="43.23917667" lon="-4.32606333">
        <ele>600.0</ele>
        <time>2018-05-19T17:08:03.467Z</time>
      </trkpt>
      <trkpt lat="43.23932167" lon="-4.32601833">
        <ele>600.0</ele>
        <time>2018-05-19T17:08:04.472Z</time>
      </trkpt>
      <trkpt lat="43.23932167" lon="-4.32601833">
        <ele>600.0</ele>
        <time>2018-05-19T17:08:05.467Z</time>
      </trkpt>
      <trkpt lat="43.23946167" lon="-4.32596833">
        <ele>600.0</ele>
        <time>2018-05-19T17:08:06.471Z</time>
      </trkpt>
      <trkpt lat="43.23946167" lon="-4.32596833">
        <ele>600.0</ele>
        <time>2018-05-19T17:08:07.464Z</time>
      </trkpt>
      <trkpt lat="43.23959167" lon="-4.32590667">
        <ele>600.0</ele>
        <time>2018-05-19T17:08:08.472Z</time>
      </trkpt>
      <trkpt lat="43.23959167" lon="-4.32590667">
        <ele>600.0</ele>
        <time>2018-05-19T17:08:09.478Z</time>
      </trkpt>
      <trkpt lat="43.23970833" lon="-4.32582333">
        <ele>599.0</ele>
        <time>2018-05-19T17:08:10.471Z</time>
      </trkpt>
      <trkpt lat="43.23970833" lon="-4.32582333">
        <ele>599.0</ele>
        <time>2018-05-19T17:08:11.464Z</time>
      </trkpt>
      <trkpt lat="43.23981333" lon="-4.32573167">
        <ele>599.0</ele>
        <time>2018-05-19T17:08:12.473Z</time>
      </trkpt>
      <trkpt lat="43.23981333" lon="-4.32573167">
        <ele>599.0</ele>
        <time>2018-05-19T17:08:13.467Z</time>
      </trkpt>
      <trkpt lat="43.239915" lon="-4.32563833">
        <ele>599.0</ele>
        <time>2018-05-19T17:08:14.470Z</time>
      </trkpt>
      <trkpt lat="43.239915" lon="-4.32563833">
        <ele>599.0</ele>
        <time>2018-05-19T17:08:15.464Z</time>
      </trkpt>
      <trkpt lat="43.24002" lon="-4.32554833">
        <ele>598.0</ele>
        <time>2018-05-19T17:08:16.449Z</time>
      </trkpt>
      <trkpt lat="43.24002" lon="-4.32554833">
        <ele>598.0</ele>
        <time>2018-05-19T17:08:17.472Z</time>
      </trkpt>
      <trkpt lat="43.24012833" lon="-4.32547">
        <ele>598.0</ele>
        <time>2018-05-19T17:08:18.471Z</time>
      </trkpt>
      <trkpt lat="43.24017833" lon="-4.32543333">
        <ele>597.0</ele>
        <time>2018-05-19T17:08:19.469Z</time>
      </trkpt>
      <trkpt lat="43.24022167" lon="-4.32538333">
        <ele>597.0</ele>
        <time>2018-05-19T17:08:20.469Z</time>
      </trkpt>
      <trkpt lat="43.24022167" lon="-4.32538333">
        <ele>597.0</ele>
        <time>2018-05-19T17:08:21.468Z</time>
      </trkpt>
      <trkpt lat="43.24028667" lon="-4.32524">
        <ele>596.0</ele>
        <time>2018-05-19T17:08:22.470Z</time>
      </trkpt>
      <trkpt lat="43.24028667" lon="-4.32524">
        <ele>596.0</ele>
        <time>2018-05-19T17:08:23.450Z</time>
      </trkpt>
      <trkpt lat="43.24034" lon="-4.32510667">
        <ele>597.0</ele>
        <time>2018-05-19T17:08:24.461Z</time>
      </trkpt>
      <trkpt lat="43.24034" lon="-4.32510667">
        <ele>597.0</ele>
        <time>2018-05-19T17:08:25.467Z</time>
      </trkpt>
      <trkpt lat="43.240375" lon="-4.32500667">
        <ele>597.0</ele>
        <time>2018-05-19T17:08:26.473Z</time>
      </trkpt>
      <trkpt lat="43.240375" lon="-4.32500667">
        <ele>597.0</ele>
        <time>2018-05-19T17:08:27.469Z</time>
      </trkpt>
      <trkpt lat="43.240425" lon="-4.32493833">
        <ele>597.0</ele>
        <time>2018-05-19T17:08:28.469Z</time>
      </trkpt>
      <trkpt lat="43.24045" lon="-4.32491">
        <ele>597.0</ele>
        <time>2018-05-19T17:08:29.483Z</time>
      </trkpt>
      <trkpt lat="43.24045" lon="-4.32491">
        <ele>597.0</ele>
        <time>2018-05-19T17:08:30.469Z</time>
      </trkpt>
      <trkpt lat="43.24049667" lon="-4.32485167">
        <ele>598.0</ele>
        <time>2018-05-19T17:08:31.470Z</time>
      </trkpt>
      <trkpt lat="43.24052" lon="-4.32482">
        <ele>598.0</ele>
        <time>2018-05-19T17:08:32.470Z</time>
      </trkpt>
      <trkpt lat="43.24052" lon="-4.32482">
        <ele>598.0</ele>
        <time>2018-05-19T17:08:33.466Z</time>
      </trkpt>
      <trkpt lat="43.24056667" lon="-4.32475167">
        <ele>598.0</ele>
        <time>2018-05-19T17:08:34.471Z</time>
      </trkpt>
      <trkpt lat="43.24056667" lon="-4.32475167">
        <ele>598.0</ele>
        <time>2018-05-19T17:08:35.467Z</time>
      </trkpt>
      <trkpt lat="43.24061" lon="-4.32468167">
        <ele>599.0</ele>
        <time>2018-05-19T17:08:36.449Z</time>
      </trkpt>
      <trkpt lat="43.24061" lon="-4.32468167">
        <ele>599.0</ele>
        <time>2018-05-19T17:08:37.472Z</time>
      </trkpt>
      <trkpt lat="43.24064833" lon="-4.32462">
        <ele>600.0</ele>
        <time>2018-05-19T17:08:38.471Z</time>
      </trkpt>
      <trkpt lat="43.24064833" lon="-4.32462">
        <ele>600.0</ele>
        <time>2018-05-19T17:08:39.465Z</time>
      </trkpt>
      <trkpt lat="43.24068667" lon="-4.32456667">
        <ele>600.0</ele>
        <time>2018-05-19T17:08:40.470Z</time>
      </trkpt>
      <trkpt lat="43.24068667" lon="-4.32456667">
        <ele>600.0</ele>
        <time>2018-05-19T17:08:41.468Z</time>
      </trkpt>
      <trkpt lat="43.240725" lon="-4.324525">
        <ele>601.0</ele>
        <time>2018-05-19T17:08:42.476Z</time>
      </trkpt>
      <trkpt lat="43.240725" lon="-4.324525">
        <ele>601.0</ele>
        <time>2018-05-19T17:08:43.468Z</time>
      </trkpt>
      <trkpt lat="43.24076667" lon="-4.32448">
        <ele>601.0</ele>
        <time>2018-05-19T17:08:44.471Z</time>
      </trkpt>
      <trkpt lat="43.24076667" lon="-4.32448">
        <ele>601.0</ele>
        <time>2018-05-19T17:08:45.468Z</time>
      </trkpt>
      <trkpt lat="43.240815" lon="-4.324435">
        <ele>601.0</ele>
        <time>2018-05-19T17:08:46.471Z</time>
      </trkpt>
      <trkpt lat="43.240815" lon="-4.324435">
        <ele>601.0</ele>
        <time>2018-05-19T17:08:47.467Z</time>
      </trkpt>
      <trkpt lat="43.24086167" lon="-4.32438833">
        <ele>602.0</ele>
        <time>2018-05-19T17:08:48.468Z</time>
      </trkpt>
      <trkpt lat="43.24086167" lon="-4.32438833">
        <ele>602.0</ele>
        <time>2018-05-19T17:08:49.467Z</time>
      </trkpt>
      <trkpt lat="43.24090667" lon="-4.32434">
        <ele>602.0</ele>
        <time>2018-05-19T17:08:50.472Z</time>
      </trkpt>
      <trkpt lat="43.24090667" lon="-4.32434">
        <ele>602.0</ele>
        <time>2018-05-19T17:08:51.469Z</time>
      </trkpt>
      <trkpt lat="43.24095667" lon="-4.32429667">
        <ele>603.0</ele>
        <time>2018-05-19T17:08:52.477Z</time>
      </trkpt>
      <trkpt lat="43.24095667" lon="-4.32429667">
        <ele>603.0</ele>
        <time>2018-05-19T17:08:53.467Z</time>
      </trkpt>
      <trkpt lat="43.24100667" lon="-4.324255">
        <ele>603.0</ele>
        <time>2018-05-19T17:08:54.451Z</time>
      </trkpt>
      <trkpt lat="43.24100667" lon="-4.324255">
        <ele>603.0</ele>
        <time>2018-05-19T17:08:55.475Z</time>
      </trkpt>
      <trkpt lat="43.24106333" lon="-4.32421833">
        <ele>603.0</ele>
        <time>2018-05-19T17:08:56.470Z</time>
      </trkpt>
      <trkpt lat="43.24106333" lon="-4.32421833">
        <ele>603.0</ele>
        <time>2018-05-19T17:08:57.467Z</time>
      </trkpt>
      <trkpt lat="43.24112333" lon="-4.32419">
        <ele>603.0</ele>
        <time>2018-05-19T17:08:58.470Z</time>
      </trkpt>
      <trkpt lat="43.24115333" lon="-4.32417833">
        <ele>603.0</ele>
        <time>2018-05-19T17:08:59.484Z</time>
      </trkpt>
      <trkpt lat="43.24115333" lon="-4.32417833">
        <ele>603.0</ele>
        <time>2018-05-19T17:09:00.469Z</time>
      </trkpt>
      <trkpt lat="43.24121" lon="-4.32415333">
        <ele>603.0</ele>
        <time>2018-05-19T17:09:01.470Z</time>
      </trkpt>
      <trkpt lat="43.24123833" lon="-4.324145">
        <ele>603.0</ele>
        <time>2018-05-19T17:09:02.470Z</time>
      </trkpt>
      <trkpt lat="43.24123833" lon="-4.324145">
        <ele>603.0</ele>
        <time>2018-05-19T17:09:03.468Z</time>
      </trkpt>
      <trkpt lat="43.24129333" lon="-4.32413">
        <ele>604.0</ele>
        <time>2018-05-19T17:09:04.470Z</time>
      </trkpt>
      <trkpt lat="43.24129333" lon="-4.32413">
        <ele>604.0</ele>
        <time>2018-05-19T17:09:05.468Z</time>
      </trkpt>
      <trkpt lat="43.24134" lon="-4.324115">
        <ele>605.0</ele>
        <time>2018-05-19T17:09:06.468Z</time>
      </trkpt>
      <trkpt lat="43.24135667" lon="-4.32411167">
        <ele>605.0</ele>
        <time>2018-05-19T17:09:07.470Z</time>
      </trkpt>
      <trkpt lat="43.24135667" lon="-4.32411167">
        <ele>605.0</ele>
        <time>2018-05-19T17:09:08.464Z</time>
      </trkpt>
      <trkpt lat="43.24139333" lon="-4.3241">
        <ele>606.0</ele>
        <time>2018-05-19T17:09:09.472Z</time>
      </trkpt>
      <trkpt lat="43.24139333" lon="-4.3241">
        <ele>606.0</ele>
        <time>2018-05-19T17:09:10.468Z</time>
      </trkpt>
      <trkpt lat="43.24142833" lon="-4.32409">
        <ele>607.0</ele>
        <time>2018-05-19T17:09:11.469Z</time>
      </trkpt>
      <trkpt lat="43.24144667" lon="-4.324085">
        <ele>607.0</ele>
        <time>2018-05-19T17:09:12.472Z</time>
      </trkpt>
      <trkpt lat="43.24144667" lon="-4.324085">
        <ele>607.0</ele>
        <time>2018-05-19T17:09:13.469Z</time>
      </trkpt>
      <trkpt lat="43.24148" lon="-4.324075">
        <ele>607.0</ele>
        <time>2018-05-19T17:09:14.472Z</time>
      </trkpt>
      <trkpt lat="43.24148" lon="-4.324075">
        <ele>607.0</ele>
        <time>2018-05-19T17:09:15.466Z</time>
      </trkpt>
      <trkpt lat="43.24151833" lon="-4.32406333">
        <ele>607.0</ele>
        <time>2018-05-19T17:09:16.472Z</time>
      </trkpt>
      <trkpt lat="43.24151833" lon="-4.32406333">
        <ele>607.0</ele>
        <time>2018-05-19T17:09:17.469Z</time>
      </trkpt>
      <trkpt lat="43.241555" lon="-4.324045">
        <ele>607.0</ele>
        <time>2018-05-19T17:09:18.478Z</time>
      </trkpt>
      <trkpt lat="43.241555" lon="-4.324045">
        <ele>607.0</ele>
        <time>2018-05-19T17:09:19.468Z</time>
      </trkpt>
      <trkpt lat="43.24159667" lon="-4.32403">
        <ele>607.0</ele>
        <time>2018-05-19T17:09:20.479Z</time>
      </trkpt>
      <trkpt lat="43.24161667" lon="-4.32402">
        <ele>607.0</ele>
        <time>2018-05-19T17:09:21.469Z</time>
      </trkpt>
      <trkpt lat="43.24163667" lon="-4.32401333">
        <ele>608.0</ele>
        <time>2018-05-19T17:09:22.471Z</time>
      </trkpt>
      <trkpt lat="43.24163667" lon="-4.32401333">
        <ele>608.0</ele>
        <time>2018-05-19T17:09:23.471Z</time>
      </trkpt>
      <trkpt lat="43.24167833" lon="-4.32399833">
        <ele>608.0</ele>
        <time>2018-05-19T17:09:24.483Z</time>
      </trkpt>
      <trkpt lat="43.24167833" lon="-4.32399833">
        <ele>608.0</ele>
        <time>2018-05-19T17:09:25.449Z</time>
      </trkpt>
      <trkpt lat="43.24172333" lon="-4.32398167">
        <ele>608.0</ele>
        <time>2018-05-19T17:09:26.460Z</time>
      </trkpt>
      <trkpt lat="43.24174667" lon="-4.32397333">
        <ele>608.0</ele>
        <time>2018-05-19T17:09:27.470Z</time>
      </trkpt>
      <trkpt lat="43.24176833" lon="-4.32396333">
        <ele>608.0</ele>
        <time>2018-05-19T17:09:28.468Z</time>
      </trkpt>
      <trkpt lat="43.24176833" lon="-4.32396333">
        <ele>608.0</ele>
        <time>2018-05-19T17:09:29.467Z</time>
      </trkpt>
      <trkpt lat="43.241815" lon="-4.32394167">
        <ele>609.0</ele>
        <time>2018-05-19T17:09:30.467Z</time>
      </trkpt>
      <trkpt lat="43.24183667" lon="-4.32393">
        <ele>609.0</ele>
        <time>2018-05-19T17:09:31.468Z</time>
      </trkpt>
      <trkpt lat="43.24186" lon="-4.32391667">
        <ele>608.0</ele>
        <time>2018-05-19T17:09:32.469Z</time>
      </trkpt>
      <trkpt lat="43.24186" lon="-4.32391667">
        <ele>608.0</ele>
        <time>2018-05-19T17:09:33.467Z</time>
      </trkpt>
      <trkpt lat="43.24190333" lon="-4.32389167">
        <ele>608.0</ele>
        <time>2018-05-19T17:09:34.470Z</time>
      </trkpt>
      <trkpt lat="43.24190333" lon="-4.32389167">
        <ele>608.0</ele>
        <time>2018-05-19T17:09:35.467Z</time>
      </trkpt>
      <trkpt lat="43.24195" lon="-4.32386">
        <ele>608.0</ele>
        <time>2018-05-19T17:09:36.484Z</time>
      </trkpt>
      <trkpt lat="43.24195" lon="-4.32386">
        <ele>608.0</ele>
        <time>2018-05-19T17:09:37.469Z</time>
      </trkpt>
      <trkpt lat="43.24200333" lon="-4.32384333">
        <ele>608.0</ele>
        <time>2018-05-19T17:09:38.482Z</time>
      </trkpt>
      <trkpt lat="43.24200333" lon="-4.32384333">
        <ele>608.0</ele>
        <time>2018-05-19T17:09:39.469Z</time>
      </trkpt>
      <trkpt lat="43.24205333" lon="-4.32384333">
        <ele>609.0</ele>
        <time>2018-05-19T17:09:40.464Z</time>
      </trkpt>
      <trkpt lat="43.24205333" lon="-4.32384333">
        <ele>609.0</ele>
        <time>2018-05-19T17:09:41.468Z</time>
      </trkpt>
      <trkpt lat="43.242105" lon="-4.323835">
        <ele>609.0</ele>
        <time>2018-05-19T17:09:42.471Z</time>
      </trkpt>
      <trkpt lat="43.242105" lon="-4.323835">
        <ele>609.0</ele>
        <time>2018-05-19T17:09:43.465Z</time>
      </trkpt>
      <trkpt lat="43.24215833" lon="-4.32382667">
        <ele>609.0</ele>
        <time>2018-05-19T17:09:44.471Z</time>
      </trkpt>
      <trkpt lat="43.24215833" lon="-4.32382667">
        <ele>609.0</ele>
        <time>2018-05-19T17:09:45.467Z</time>
      </trkpt>
      <trkpt lat="43.24221167" lon="-4.32382667">
        <ele>609.0</ele>
        <time>2018-05-19T17:09:46.470Z</time>
      </trkpt>
      <trkpt lat="43.24224" lon="-4.32382167">
        <ele>610.0</ele>
        <time>2018-05-19T17:09:47.470Z</time>
      </trkpt>
      <trkpt lat="43.24224" lon="-4.32382167">
        <ele>610.0</ele>
        <time>2018-05-19T17:09:48.469Z</time>
      </trkpt>
      <trkpt lat="43.24229167" lon="-4.32380833">
        <ele>610.0</ele>
        <time>2018-05-19T17:09:49.469Z</time>
      </trkpt>
      <trkpt lat="43.24229167" lon="-4.32380833">
        <ele>610.0</ele>
        <time>2018-05-19T17:09:50.475Z</time>
      </trkpt>
      <trkpt lat="43.242335" lon="-4.32379667">
        <ele>610.0</ele>
        <time>2018-05-19T17:09:51.467Z</time>
      </trkpt>
      <trkpt lat="43.242335" lon="-4.32379667">
        <ele>610.0</ele>
        <time>2018-05-19T17:09:52.464Z</time>
      </trkpt>
      <trkpt lat="43.24238667" lon="-4.323785">
        <ele>611.0</ele>
        <time>2018-05-19T17:09:53.471Z</time>
      </trkpt>
      <trkpt lat="43.242415" lon="-4.32377833">
        <ele>611.0</ele>
        <time>2018-05-19T17:09:54.471Z</time>
      </trkpt>
      <trkpt lat="43.242415" lon="-4.32377833">
        <ele>611.0</ele>
        <time>2018-05-19T17:09:55.467Z</time>
      </trkpt>
      <trkpt lat="43.242465" lon="-4.32376833">
        <ele>611.0</ele>
        <time>2018-05-19T17:09:56.470Z</time>
      </trkpt>
      <trkpt lat="43.242465" lon="-4.32376833">
        <ele>611.0</ele>
        <time>2018-05-19T17:09:57.466Z</time>
      </trkpt>
      <trkpt lat="43.24251833" lon="-4.32375333">
        <ele>611.0</ele>
        <time>2018-05-19T17:09:58.484Z</time>
      </trkpt>
      <trkpt lat="43.24251833" lon="-4.32375333">
        <ele>611.0</ele>
        <time>2018-05-19T17:09:59.469Z</time>
      </trkpt>
      <trkpt lat="43.24256167" lon="-4.32373">
        <ele>612.0</ele>
        <time>2018-05-19T17:10:00.471Z</time>
      </trkpt>
      <trkpt lat="43.24256167" lon="-4.32373">
        <ele>612.0</ele>
        <time>2018-05-19T17:10:01.464Z</time>
      </trkpt>
      <trkpt lat="43.242605" lon="-4.32371167">
        <ele>612.0</ele>
        <time>2018-05-19T17:10:02.472Z</time>
      </trkpt>
      <trkpt lat="43.242605" lon="-4.32371167">
        <ele>612.0</ele>
        <time>2018-05-19T17:10:03.469Z</time>
      </trkpt>
      <trkpt lat="43.24264833" lon="-4.32369167">
        <ele>613.0</ele>
        <time>2018-05-19T17:10:04.470Z</time>
      </trkpt>
      <trkpt lat="43.24267" lon="-4.32368167">
        <ele>613.0</ele>
        <time>2018-05-19T17:10:05.473Z</time>
      </trkpt>
      <trkpt lat="43.24267" lon="-4.32368167">
        <ele>613.0</ele>
        <time>2018-05-19T17:10:06.471Z</time>
      </trkpt>
      <trkpt lat="43.24271167" lon="-4.32367167">
        <ele>613.0</ele>
        <time>2018-05-19T17:10:07.485Z</time>
      </trkpt>
      <trkpt lat="43.24271167" lon="-4.32367167">
        <ele>613.0</ele>
        <time>2018-05-19T17:10:08.459Z</time>
      </trkpt>
      <trkpt lat="43.24275" lon="-4.323655">
        <ele>613.0</ele>
        <time>2018-05-19T17:10:09.466Z</time>
      </trkpt>
      <trkpt lat="43.24275" lon="-4.323655">
        <ele>613.0</ele>
        <time>2018-05-19T17:10:10.473Z</time>
      </trkpt>
      <trkpt lat="43.24279" lon="-4.323635">
        <ele>613.0</ele>
        <time>2018-05-19T17:10:11.478Z</time>
      </trkpt>
      <trkpt lat="43.24281" lon="-4.32362667">
        <ele>614.0</ele>
        <time>2018-05-19T17:10:12.472Z</time>
      </trkpt>
      <trkpt lat="43.24281" lon="-4.32362667">
        <ele>614.0</ele>
        <time>2018-05-19T17:10:13.464Z</time>
      </trkpt>
      <trkpt lat="43.242855" lon="-4.323605">
        <ele>613.0</ele>
        <time>2018-05-19T17:10:14.467Z</time>
      </trkpt>
      <trkpt lat="43.242855" lon="-4.323605">
        <ele>613.0</ele>
        <time>2018-05-19T17:10:15.485Z</time>
      </trkpt>
      <trkpt lat="43.24289667" lon="-4.32359">
        <ele>614.0</ele>
        <time>2018-05-19T17:10:16.471Z</time>
      </trkpt>
      <trkpt lat="43.24291833" lon="-4.32358167">
        <ele>614.0</ele>
        <time>2018-05-19T17:10:17.471Z</time>
      </trkpt>
      <trkpt lat="43.24291833" lon="-4.32358167">
        <ele>614.0</ele>
        <time>2018-05-19T17:10:18.466Z</time>
      </trkpt>
      <trkpt lat="43.24295833" lon="-4.323565">
        <ele>614.0</ele>
        <time>2018-05-19T17:10:19.484Z</time>
      </trkpt>
      <trkpt lat="43.24297833" lon="-4.32355">
        <ele>614.0</ele>
        <time>2018-05-19T17:10:20.484Z</time>
      </trkpt>
      <trkpt lat="43.24297833" lon="-4.32355">
        <ele>614.0</ele>
        <time>2018-05-19T17:10:21.469Z</time>
      </trkpt>
      <trkpt lat="43.243015" lon="-4.32351833">
        <ele>615.0</ele>
        <time>2018-05-19T17:10:22.470Z</time>
      </trkpt>
      <trkpt lat="43.243015" lon="-4.32351833">
        <ele>615.0</ele>
        <time>2018-05-19T17:10:23.481Z</time>
      </trkpt>
      <trkpt lat="43.24305333" lon="-4.32348">
        <ele>615.0</ele>
        <time>2018-05-19T17:10:24.460Z</time>
      </trkpt>
      <trkpt lat="43.24305333" lon="-4.32348">
        <ele>615.0</ele>
        <time>2018-05-19T17:10:25.466Z</time>
      </trkpt>
      <trkpt lat="43.24309" lon="-4.32343667">
        <ele>615.0</ele>
        <time>2018-05-19T17:10:26.472Z</time>
      </trkpt>
      <trkpt lat="43.24310667" lon="-4.32340667">
        <ele>615.0</ele>
        <time>2018-05-19T17:10:27.470Z</time>
      </trkpt>
      <trkpt lat="43.24312333" lon="-4.32337333">
        <ele>615.0</ele>
        <time>2018-05-19T17:10:28.472Z</time>
      </trkpt>
      <trkpt lat="43.24312333" lon="-4.32337333">
        <ele>615.0</ele>
        <time>2018-05-19T17:10:29.469Z</time>
      </trkpt>
      <trkpt lat="43.24315333" lon="-4.323305">
        <ele>615.0</ele>
        <time>2018-05-19T17:10:30.473Z</time>
      </trkpt>
      <trkpt lat="43.24315333" lon="-4.323305">
        <ele>615.0</ele>
        <time>2018-05-19T17:10:31.475Z</time>
      </trkpt>
      <trkpt lat="43.243185" lon="-4.32324167">
        <ele>616.0</ele>
        <time>2018-05-19T17:10:32.468Z</time>
      </trkpt>
      <trkpt lat="43.243185" lon="-4.32324167">
        <ele>616.0</ele>
        <time>2018-05-19T17:10:33.469Z</time>
      </trkpt>
      <trkpt lat="43.24320833" lon="-4.323175">
        <ele>616.0</ele>
        <time>2018-05-19T17:10:34.469Z</time>
      </trkpt>
      <trkpt lat="43.24321833" lon="-4.32314333">
        <ele>616.0</ele>
        <time>2018-05-19T17:10:35.468Z</time>
      </trkpt>
      <trkpt lat="43.24323167" lon="-4.32311167">
        <ele>616.0</ele>
        <time>2018-05-19T17:10:36.485Z</time>
      </trkpt>
      <trkpt lat="43.24323167" lon="-4.32311167">
        <ele>616.0</ele>
        <time>2018-05-19T17:10:37.471Z</time>
      </trkpt>
      <trkpt lat="43.24325667" lon="-4.323045">
        <ele>616.0</ele>
        <time>2018-05-19T17:10:38.467Z</time>
      </trkpt>
      <trkpt lat="43.24326833" lon="-4.32301333">
        <ele>617.0</ele>
        <time>2018-05-19T17:10:39.471Z</time>
      </trkpt>
      <trkpt lat="43.24326833" lon="-4.32301333">
        <ele>617.0</ele>
        <time>2018-05-19T17:10:40.467Z</time>
      </trkpt>
      <trkpt lat="43.243285" lon="-4.32295167">
        <ele>617.0</ele>
        <time>2018-05-19T17:10:41.471Z</time>
      </trkpt>
      <trkpt lat="43.243295" lon="-4.32292167">
        <ele>617.0</ele>
        <time>2018-05-19T17:10:42.472Z</time>
      </trkpt>
      <trkpt lat="43.243295" lon="-4.32292167">
        <ele>617.0</ele>
        <time>2018-05-19T17:10:43.466Z</time>
      </trkpt>
      <trkpt lat="43.24331167" lon="-4.32285667">
        <ele>618.0</ele>
        <time>2018-05-19T17:10:44.471Z</time>
      </trkpt>
      <trkpt lat="43.24331167" lon="-4.32285667">
        <ele>618.0</ele>
        <time>2018-05-19T17:10:45.468Z</time>
      </trkpt>
      <trkpt lat="43.24332667" lon="-4.32278833">
        <ele>618.0</ele>
        <time>2018-05-19T17:10:46.469Z</time>
      </trkpt>
      <trkpt lat="43.24333333" lon="-4.32275167">
        <ele>618.0</ele>
        <time>2018-05-19T17:10:47.470Z</time>
      </trkpt>
      <trkpt lat="43.24334" lon="-4.322715">
        <ele>618.0</ele>
        <time>2018-05-19T17:10:48.471Z</time>
      </trkpt>
      <trkpt lat="43.24334" lon="-4.322715">
        <ele>618.0</ele>
        <time>2018-05-19T17:10:49.466Z</time>
      </trkpt>
      <trkpt lat="43.24335167" lon="-4.32264667">
        <ele>619.0</ele>
        <time>2018-05-19T17:10:50.472Z</time>
      </trkpt>
      <trkpt lat="43.24335167" lon="-4.32264667">
        <ele>619.0</ele>
        <time>2018-05-19T17:10:51.469Z</time>
      </trkpt>
      <trkpt lat="43.243365" lon="-4.32257667">
        <ele>619.0</ele>
        <time>2018-05-19T17:10:52.471Z</time>
      </trkpt>
      <trkpt lat="43.24337" lon="-4.32254167">
        <ele>619.0</ele>
        <time>2018-05-19T17:10:53.472Z</time>
      </trkpt>
      <trkpt lat="43.243375" lon="-4.32251">
        <ele>619.0</ele>
        <time>2018-05-19T17:10:54.474Z</time>
      </trkpt>
      <trkpt lat="43.243375" lon="-4.32251">
        <ele>619.0</ele>
        <time>2018-05-19T17:10:55.468Z</time>
      </trkpt>
      <trkpt lat="43.243385" lon="-4.32244333">
        <ele>620.0</ele>
        <time>2018-05-19T17:10:56.467Z</time>
      </trkpt>
      <trkpt lat="43.243385" lon="-4.32244333">
        <ele>620.0</ele>
        <time>2018-05-19T17:10:57.469Z</time>
      </trkpt>
      <trkpt lat="43.24339167" lon="-4.32237833">
        <ele>620.0</ele>
        <time>2018-05-19T17:10:58.469Z</time>
      </trkpt>
      <trkpt lat="43.24339167" lon="-4.32237833">
        <ele>620.0</ele>
        <time>2018-05-19T17:10:59.467Z</time>
      </trkpt>
      <trkpt lat="43.24339833" lon="-4.322325">
        <ele>620.0</ele>
        <time>2018-05-19T17:11:00.472Z</time>
      </trkpt>
      <trkpt lat="43.24339833" lon="-4.322325">
        <ele>620.0</ele>
        <time>2018-05-19T17:11:01.465Z</time>
      </trkpt>
      <trkpt lat="43.24340667" lon="-4.32225833">
        <ele>621.0</ele>
        <time>2018-05-19T17:11:02.471Z</time>
      </trkpt>
      <trkpt lat="43.24340667" lon="-4.32225833">
        <ele>621.0</ele>
        <time>2018-05-19T17:11:03.467Z</time>
      </trkpt>
      <trkpt lat="43.24342" lon="-4.32219">
        <ele>621.0</ele>
        <time>2018-05-19T17:11:04.470Z</time>
      </trkpt>
      <trkpt lat="43.24342" lon="-4.32219">
        <ele>621.0</ele>
        <time>2018-05-19T17:11:05.465Z</time>
      </trkpt>
      <trkpt lat="43.24343167" lon="-4.32212667">
        <ele>621.0</ele>
        <time>2018-05-19T17:11:06.472Z</time>
      </trkpt>
      <trkpt lat="43.24343167" lon="-4.32212667">
        <ele>621.0</ele>
        <time>2018-05-19T17:11:07.468Z</time>
      </trkpt>
      <trkpt lat="43.243445" lon="-4.322065">
        <ele>622.0</ele>
        <time>2018-05-19T17:11:08.470Z</time>
      </trkpt>
      <trkpt lat="43.243445" lon="-4.322065">
        <ele>622.0</ele>
        <time>2018-05-19T17:11:09.468Z</time>
      </trkpt>
      <trkpt lat="43.24345667" lon="-4.32200167">
        <ele>622.0</ele>
        <time>2018-05-19T17:11:10.469Z</time>
      </trkpt>
      <trkpt lat="43.24345667" lon="-4.32200167">
        <ele>622.0</ele>
        <time>2018-05-19T17:11:11.451Z</time>
      </trkpt>
      <trkpt lat="43.24347333" lon="-4.32194167">
        <ele>622.0</ele>
        <time>2018-05-19T17:11:12.478Z</time>
      </trkpt>
      <trkpt lat="43.24347333" lon="-4.32194167">
        <ele>622.0</ele>
        <time>2018-05-19T17:11:13.468Z</time>
      </trkpt>
      <trkpt lat="43.24349167" lon="-4.32188333">
        <ele>623.0</ele>
        <time>2018-05-19T17:11:14.472Z</time>
      </trkpt>
      <trkpt lat="43.24349167" lon="-4.32188333">
        <ele>623.0</ele>
        <time>2018-05-19T17:11:15.469Z</time>
      </trkpt>
      <trkpt lat="43.24351167" lon="-4.32182167">
        <ele>623.0</ele>
        <time>2018-05-19T17:11:16.478Z</time>
      </trkpt>
      <trkpt lat="43.24352167" lon="-4.32179167">
        <ele>623.0</ele>
        <time>2018-05-19T17:11:17.472Z</time>
      </trkpt>
      <trkpt lat="43.24352167" lon="-4.32179167">
        <ele>623.0</ele>
        <time>2018-05-19T17:11:18.469Z</time>
      </trkpt>
      <trkpt lat="43.24354" lon="-4.321735">
        <ele>624.0</ele>
        <time>2018-05-19T17:11:19.470Z</time>
      </trkpt>
      <trkpt lat="43.24354667" lon="-4.32170833">
        <ele>624.0</ele>
        <time>2018-05-19T17:11:20.470Z</time>
      </trkpt>
      <trkpt lat="43.24354667" lon="-4.32170833">
        <ele>624.0</ele>
        <time>2018-05-19T17:11:21.476Z</time>
      </trkpt>
      <trkpt lat="43.243565" lon="-4.32165667">
        <ele>624.0</ele>
        <time>2018-05-19T17:11:22.470Z</time>
      </trkpt>
      <trkpt lat="43.243565" lon="-4.32165667">
        <ele>624.0</ele>
        <time>2018-05-19T17:11:23.476Z</time>
      </trkpt>
      <trkpt lat="43.24358" lon="-4.32160833">
        <ele>625.0</ele>
        <time>2018-05-19T17:11:24.487Z</time>
      </trkpt>
      <trkpt lat="43.24358" lon="-4.32160833">
        <ele>625.0</ele>
        <time>2018-05-19T17:11:25.461Z</time>
      </trkpt>
      <trkpt lat="43.24359667" lon="-4.32155667">
        <ele>625.0</ele>
        <time>2018-05-19T17:11:26.467Z</time>
      </trkpt>
      <trkpt lat="43.24360333" lon="-4.32153167">
        <ele>625.0</ele>
        <time>2018-05-19T17:11:27.466Z</time>
      </trkpt>
      <trkpt lat="43.24360333" lon="-4.32153167">
        <ele>625.0</ele>
        <time>2018-05-19T17:11:28.464Z</time>
      </trkpt>
      <trkpt lat="43.243615" lon="-4.32148">
        <ele>626.0</ele>
        <time>2018-05-19T17:11:29.469Z</time>
      </trkpt>
      <trkpt lat="43.24362333" lon="-4.32145167">
        <ele>626.0</ele>
        <time>2018-05-19T17:11:30.472Z</time>
      </trkpt>
      <trkpt lat="43.24362333" lon="-4.32145167">
        <ele>626.0</ele>
        <time>2018-05-19T17:11:31.475Z</time>
      </trkpt>
      <trkpt lat="43.24362833" lon="-4.32139333">
        <ele>627.0</ele>
        <time>2018-05-19T17:11:32.471Z</time>
      </trkpt>
      <trkpt lat="43.24362833" lon="-4.32139333">
        <ele>627.0</ele>
        <time>2018-05-19T17:11:33.467Z</time>
      </trkpt>
      <trkpt lat="43.24363667" lon="-4.32133167">
        <ele>627.0</ele>
        <time>2018-05-19T17:11:34.470Z</time>
      </trkpt>
      <trkpt lat="43.24363667" lon="-4.32133167">
        <ele>627.0</ele>
        <time>2018-05-19T17:11:35.466Z</time>
      </trkpt>
      <trkpt lat="43.24364167" lon="-4.32127">
        <ele>628.0</ele>
        <time>2018-05-19T17:11:36.451Z</time>
      </trkpt>
      <trkpt lat="43.24364333" lon="-4.32123833">
        <ele>628.0</ele>
        <time>2018-05-19T17:11:37.486Z</time>
      </trkpt>
      <trkpt lat="43.243645" lon="-4.32120667">
        <ele>628.0</ele>
        <time>2018-05-19T17:11:38.474Z</time>
      </trkpt>
      <trkpt lat="43.243645" lon="-4.32120667">
        <ele>628.0</ele>
        <time>2018-05-19T17:11:39.466Z</time>
      </trkpt>
      <trkpt lat="43.24364833" lon="-4.32114667">
        <ele>629.0</ele>
        <time>2018-05-19T17:11:40.471Z</time>
      </trkpt>
      <trkpt lat="43.24364833" lon="-4.32114667">
        <ele>629.0</ele>
        <time>2018-05-19T17:11:41.472Z</time>
      </trkpt>
      <trkpt lat="43.24365667" lon="-4.32108333">
        <ele>629.0</ele>
        <time>2018-05-19T17:11:42.472Z</time>
      </trkpt>
      <trkpt lat="43.24365667" lon="-4.32108333">
        <ele>629.0</ele>
        <time>2018-05-19T17:11:43.466Z</time>
      </trkpt>
      <trkpt lat="43.24365667" lon="-4.32101833">
        <ele>630.0</ele>
        <time>2018-05-19T17:11:44.471Z</time>
      </trkpt>
      <trkpt lat="43.24365667" lon="-4.32101833">
        <ele>630.0</ele>
        <time>2018-05-19T17:11:45.468Z</time>
      </trkpt>
      <trkpt lat="43.24366333" lon="-4.32094333">
        <ele>629.0</ele>
        <time>2018-05-19T17:11:46.470Z</time>
      </trkpt>
      <trkpt lat="43.24366333" lon="-4.32094333">
        <ele>629.0</ele>
        <time>2018-05-19T17:11:47.465Z</time>
      </trkpt>
      <trkpt lat="43.24367333" lon="-4.32087833">
        <ele>629.0</ele>
        <time>2018-05-19T17:11:48.471Z</time>
      </trkpt>
      <trkpt lat="43.24367333" lon="-4.32087833">
        <ele>629.0</ele>
        <time>2018-05-19T17:11:49.466Z</time>
      </trkpt>
      <trkpt lat="43.24368333" lon="-4.32080833">
        <ele>630.0</ele>
        <time>2018-05-19T17:11:50.470Z</time>
      </trkpt>
      <trkpt lat="43.24368333" lon="-4.32080833">
        <ele>630.0</ele>
        <time>2018-05-19T17:11:51.467Z</time>
      </trkpt>
      <trkpt lat="43.24369667" lon="-4.32074">
        <ele>630.0</ele>
        <time>2018-05-19T17:11:52.471Z</time>
      </trkpt>
      <trkpt lat="43.24369667" lon="-4.32074">
        <ele>630.0</ele>
        <time>2018-05-19T17:11:53.467Z</time>
      </trkpt>
      <trkpt lat="43.24370667" lon="-4.32067167">
        <ele>630.0</ele>
        <time>2018-05-19T17:11:54.471Z</time>
      </trkpt>
      <trkpt lat="43.24370667" lon="-4.32067167">
        <ele>630.0</ele>
        <time>2018-05-19T17:11:55.468Z</time>
      </trkpt>
      <trkpt lat="43.24372333" lon="-4.32060833">
        <ele>630.0</ele>
        <time>2018-05-19T17:11:56.470Z</time>
      </trkpt>
      <trkpt lat="43.24372333" lon="-4.32060833">
        <ele>630.0</ele>
        <time>2018-05-19T17:11:57.468Z</time>
      </trkpt>
      <trkpt lat="43.24374667" lon="-4.32053833">
        <ele>629.0</ele>
        <time>2018-05-19T17:11:58.471Z</time>
      </trkpt>
      <trkpt lat="43.24374667" lon="-4.32053833">
        <ele>629.0</ele>
        <time>2018-05-19T17:11:59.468Z</time>
      </trkpt>
      <trkpt lat="43.24377167" lon="-4.32046333">
        <ele>629.0</ele>
        <time>2018-05-19T17:12:00.466Z</time>
      </trkpt>
      <trkpt lat="43.24377167" lon="-4.32046333">
        <ele>629.0</ele>
        <time>2018-05-19T17:12:01.465Z</time>
      </trkpt>
      <trkpt lat="43.243805" lon="-4.32039">
        <ele>629.0</ele>
        <time>2018-05-19T17:12:02.470Z</time>
      </trkpt>
      <trkpt lat="43.243805" lon="-4.32039">
        <ele>629.0</ele>
        <time>2018-05-19T17:12:03.468Z</time>
      </trkpt>
      <trkpt lat="43.243845" lon="-4.32032167">
        <ele>629.0</ele>
        <time>2018-05-19T17:12:04.470Z</time>
      </trkpt>
      <trkpt lat="43.243845" lon="-4.32032167">
        <ele>629.0</ele>
        <time>2018-05-19T17:12:05.465Z</time>
      </trkpt>
      <trkpt lat="43.243875" lon="-4.32025167">
        <ele>630.0</ele>
        <time>2018-05-19T17:12:06.450Z</time>
      </trkpt>
      <trkpt lat="43.24388667" lon="-4.32021667">
        <ele>630.0</ele>
        <time>2018-05-19T17:12:07.472Z</time>
      </trkpt>
      <trkpt lat="43.2439" lon="-4.32018333">
        <ele>630.0</ele>
        <time>2018-05-19T17:12:08.483Z</time>
      </trkpt>
      <trkpt lat="43.2439" lon="-4.32018333">
        <ele>630.0</ele>
        <time>2018-05-19T17:12:09.469Z</time>
      </trkpt>
      <trkpt lat="43.243935" lon="-4.32012167">
        <ele>631.0</ele>
        <time>2018-05-19T17:12:10.478Z</time>
      </trkpt>
      <trkpt lat="43.243935" lon="-4.32012167">
        <ele>631.0</ele>
        <time>2018-05-19T17:12:11.467Z</time>
      </trkpt>
      <trkpt lat="43.24396" lon="-4.32004333">
        <ele>631.0</ele>
        <time>2018-05-19T17:12:12.471Z</time>
      </trkpt>
      <trkpt lat="43.24396" lon="-4.32004333">
        <ele>631.0</ele>
        <time>2018-05-19T17:12:13.470Z</time>
      </trkpt>
      <trkpt lat="43.24399167" lon="-4.31997167">
        <ele>631.0</ele>
        <time>2018-05-19T17:12:14.472Z</time>
      </trkpt>
      <trkpt lat="43.24399167" lon="-4.31997167">
        <ele>631.0</ele>
        <time>2018-05-19T17:12:15.468Z</time>
      </trkpt>
      <trkpt lat="43.244025" lon="-4.319905">
        <ele>632.0</ele>
        <time>2018-05-19T17:12:16.471Z</time>
      </trkpt>
      <trkpt lat="43.244025" lon="-4.319905">
        <ele>632.0</ele>
        <time>2018-05-19T17:12:17.468Z</time>
      </trkpt>
      <trkpt lat="43.24406" lon="-4.31983833">
        <ele>632.0</ele>
        <time>2018-05-19T17:12:18.470Z</time>
      </trkpt>
      <trkpt lat="43.244075" lon="-4.319805">
        <ele>632.0</ele>
        <time>2018-05-19T17:12:19.470Z</time>
      </trkpt>
      <trkpt lat="43.244075" lon="-4.319805">
        <ele>632.0</ele>
        <time>2018-05-19T17:12:20.468Z</time>
      </trkpt>
      <trkpt lat="43.244105" lon="-4.31973667">
        <ele>632.0</ele>
        <time>2018-05-19T17:12:21.471Z</time>
      </trkpt>
      <trkpt lat="43.244105" lon="-4.31973667">
        <ele>632.0</ele>
        <time>2018-05-19T17:12:22.467Z</time>
      </trkpt>
      <trkpt lat="43.24414167" lon="-4.31966833">
        <ele>632.0</ele>
        <time>2018-05-19T17:12:23.467Z</time>
      </trkpt>
      <trkpt lat="43.24415667" lon="-4.31963167">
        <ele>632.0</ele>
        <time>2018-05-19T17:12:24.478Z</time>
      </trkpt>
      <trkpt lat="43.24415667" lon="-4.31963167">
        <ele>632.0</ele>
        <time>2018-05-19T17:12:25.485Z</time>
      </trkpt>
      <trkpt lat="43.24419" lon="-4.31955667">
        <ele>632.0</ele>
        <time>2018-05-19T17:12:26.457Z</time>
      </trkpt>
      <trkpt lat="43.24419" lon="-4.31955667">
        <ele>632.0</ele>
        <time>2018-05-19T17:12:27.482Z</time>
      </trkpt>
      <trkpt lat="43.24422" lon="-4.31948333">
        <ele>632.0</ele>
        <time>2018-05-19T17:12:28.467Z</time>
      </trkpt>
      <trkpt lat="43.244235" lon="-4.31945167">
        <ele>633.0</ele>
        <time>2018-05-19T17:12:29.466Z</time>
      </trkpt>
      <trkpt lat="43.24425" lon="-4.31942333">
        <ele>633.0</ele>
        <time>2018-05-19T17:12:30.473Z</time>
      </trkpt>
      <trkpt lat="43.24425" lon="-4.31942333">
        <ele>633.0</ele>
        <time>2018-05-19T17:12:31.478Z</time>
      </trkpt>
      <trkpt lat="43.24428667" lon="-4.31937167">
        <ele>633.0</ele>
        <time>2018-05-19T17:12:32.470Z</time>
      </trkpt>
      <trkpt lat="43.24428667" lon="-4.31937167">
        <ele>633.0</ele>
        <time>2018-05-19T17:12:33.468Z</time>
      </trkpt>
      <trkpt lat="43.24431667" lon="-4.31932167">
        <ele>633.0</ele>
        <time>2018-05-19T17:12:34.470Z</time>
      </trkpt>
      <trkpt lat="43.24431667" lon="-4.31932167">
        <ele>633.0</ele>
        <time>2018-05-19T17:12:35.467Z</time>
      </trkpt>
      <trkpt lat="43.244345" lon="-4.31926833">
        <ele>633.0</ele>
        <time>2018-05-19T17:12:36.487Z</time>
      </trkpt>
      <trkpt lat="43.244345" lon="-4.31926833">
        <ele>633.0</ele>
        <time>2018-05-19T17:12:37.482Z</time>
      </trkpt>
      <trkpt lat="43.24437333" lon="-4.319215">
        <ele>634.0</ele>
        <time>2018-05-19T17:12:38.470Z</time>
      </trkpt>
      <trkpt lat="43.24437333" lon="-4.319215">
        <ele>634.0</ele>
        <time>2018-05-19T17:12:39.468Z</time>
      </trkpt>
      <trkpt lat="43.2444" lon="-4.31916">
        <ele>635.0</ele>
        <time>2018-05-19T17:12:40.469Z</time>
      </trkpt>
      <trkpt lat="43.2444" lon="-4.31916">
        <ele>635.0</ele>
        <time>2018-05-19T17:12:41.468Z</time>
      </trkpt>
      <trkpt lat="43.24442333" lon="-4.319105">
        <ele>635.0</ele>
        <time>2018-05-19T17:12:42.471Z</time>
      </trkpt>
      <trkpt lat="43.24442333" lon="-4.319105">
        <ele>635.0</ele>
        <time>2018-05-19T17:12:43.464Z</time>
      </trkpt>
      <trkpt lat="43.24445167" lon="-4.31904667">
        <ele>635.0</ele>
        <time>2018-05-19T17:12:44.470Z</time>
      </trkpt>
      <trkpt lat="43.24445167" lon="-4.31904667">
        <ele>635.0</ele>
        <time>2018-05-19T17:12:45.467Z</time>
      </trkpt>
      <trkpt lat="43.244485" lon="-4.318995">
        <ele>636.0</ele>
        <time>2018-05-19T17:12:46.470Z</time>
      </trkpt>
      <trkpt lat="43.244485" lon="-4.318995">
        <ele>636.0</ele>
        <time>2018-05-19T17:12:47.464Z</time>
      </trkpt>
      <trkpt lat="43.24452167" lon="-4.31895167">
        <ele>636.0</ele>
        <time>2018-05-19T17:12:48.472Z</time>
      </trkpt>
      <trkpt lat="43.24452167" lon="-4.31895167">
        <ele>636.0</ele>
        <time>2018-05-19T17:12:49.466Z</time>
      </trkpt>
      <trkpt lat="43.24456667" lon="-4.31891833">
        <ele>637.0</ele>
        <time>2018-05-19T17:12:50.470Z</time>
      </trkpt>
      <trkpt lat="43.24459" lon="-4.31891167">
        <ele>637.0</ele>
        <time>2018-05-19T17:12:51.472Z</time>
      </trkpt>
      <trkpt lat="43.24459" lon="-4.31891167">
        <ele>637.0</ele>
        <time>2018-05-19T17:12:52.465Z</time>
      </trkpt>
      <trkpt lat="43.24463333" lon="-4.31891167">
        <ele>637.0</ele>
        <time>2018-05-19T17:12:53.471Z</time>
      </trkpt>
      <trkpt lat="43.24463333" lon="-4.31891167">
        <ele>637.0</ele>
        <time>2018-05-19T17:12:54.470Z</time>
      </trkpt>
      <trkpt lat="43.24467833" lon="-4.31891333">
        <ele>637.0</ele>
        <time>2018-05-19T17:12:55.472Z</time>
      </trkpt>
      <trkpt lat="43.24467833" lon="-4.31891333">
        <ele>637.0</ele>
        <time>2018-05-19T17:12:56.465Z</time>
      </trkpt>
      <trkpt lat="43.24471667" lon="-4.31892167">
        <ele>639.0</ele>
        <time>2018-05-19T17:12:57.469Z</time>
      </trkpt>
      <trkpt lat="43.244735" lon="-4.31892667">
        <ele>639.0</ele>
        <time>2018-05-19T17:12:58.468Z</time>
      </trkpt>
      <trkpt lat="43.244735" lon="-4.31892667">
        <ele>639.0</ele>
        <time>2018-05-19T17:12:59.466Z</time>
      </trkpt>
      <trkpt lat="43.24477333" lon="-4.31893833">
        <ele>640.0</ele>
        <time>2018-05-19T17:13:00.471Z</time>
      </trkpt>
      <trkpt lat="43.24477333" lon="-4.31893833">
        <ele>640.0</ele>
        <time>2018-05-19T17:13:01.465Z</time>
      </trkpt>
      <trkpt lat="43.24481167" lon="-4.31895">
        <ele>640.0</ele>
        <time>2018-05-19T17:13:02.467Z</time>
      </trkpt>
      <trkpt lat="43.24483167" lon="-4.31895667">
        <ele>640.0</ele>
        <time>2018-05-19T17:13:03.470Z</time>
      </trkpt>
      <trkpt lat="43.24483167" lon="-4.31895667">
        <ele>640.0</ele>
        <time>2018-05-19T17:13:04.467Z</time>
      </trkpt>
      <trkpt lat="43.244875" lon="-4.31896833">
        <ele>641.0</ele>
        <time>2018-05-19T17:13:05.466Z</time>
      </trkpt>
      <trkpt lat="43.244895" lon="-4.31897667">
        <ele>641.0</ele>
        <time>2018-05-19T17:13:06.467Z</time>
      </trkpt>
      <trkpt lat="43.244895" lon="-4.31897667">
        <ele>641.0</ele>
        <time>2018-05-19T17:13:07.466Z</time>
      </trkpt>
      <trkpt lat="43.24494167" lon="-4.31899333">
        <ele>642.0</ele>
        <time>2018-05-19T17:13:08.470Z</time>
      </trkpt>
      <trkpt lat="43.24494167" lon="-4.31899333">
        <ele>642.0</ele>
        <time>2018-05-19T17:13:09.468Z</time>
      </trkpt>
      <trkpt lat="43.244985" lon="-4.31900667">
        <ele>643.0</ele>
        <time>2018-05-19T17:13:10.469Z</time>
      </trkpt>
      <trkpt lat="43.244985" lon="-4.31900667">
        <ele>643.0</ele>
        <time>2018-05-19T17:13:11.467Z</time>
      </trkpt>
      <trkpt lat="43.24502667" lon="-4.31901333">
        <ele>643.0</ele>
        <time>2018-05-19T17:13:12.471Z</time>
      </trkpt>
      <trkpt lat="43.24502667" lon="-4.31901333">
        <ele>643.0</ele>
        <time>2018-05-19T17:13:13.467Z</time>
      </trkpt>
      <trkpt lat="43.24506833" lon="-4.31902667">
        <ele>643.0</ele>
        <time>2018-05-19T17:13:14.470Z</time>
      </trkpt>
      <trkpt lat="43.24506833" lon="-4.31902667">
        <ele>643.0</ele>
        <time>2018-05-19T17:13:15.470Z</time>
      </trkpt>
      <trkpt lat="43.245115" lon="-4.31903167">
        <ele>644.0</ele>
        <time>2018-05-19T17:13:16.478Z</time>
      </trkpt>
      <trkpt lat="43.245115" lon="-4.31903167">
        <ele>644.0</ele>
        <time>2018-05-19T17:13:17.469Z</time>
      </trkpt>
      <trkpt lat="43.24515833" lon="-4.31902833">
        <ele>646.0</ele>
        <time>2018-05-19T17:13:18.468Z</time>
      </trkpt>
      <trkpt lat="43.24515833" lon="-4.31902833">
        <ele>646.0</ele>
        <time>2018-05-19T17:13:19.466Z</time>
      </trkpt>
      <trkpt lat="43.24519833" lon="-4.31903">
        <ele>647.0</ele>
        <time>2018-05-19T17:13:20.471Z</time>
      </trkpt>
      <trkpt lat="43.24519833" lon="-4.31903">
        <ele>647.0</ele>
        <time>2018-05-19T17:13:21.471Z</time>
      </trkpt>
      <trkpt lat="43.24523667" lon="-4.319035">
        <ele>648.0</ele>
        <time>2018-05-19T17:13:22.461Z</time>
      </trkpt>
      <trkpt lat="43.24525333" lon="-4.31904">
        <ele>648.0</ele>
        <time>2018-05-19T17:13:23.454Z</time>
      </trkpt>
      <trkpt lat="43.24527167" lon="-4.31904333">
        <ele>648.0</ele>
        <time>2018-05-19T17:13:24.467Z</time>
      </trkpt>
      <trkpt lat="43.24527167" lon="-4.31904333">
        <ele>648.0</ele>
        <time>2018-05-19T17:13:25.479Z</time>
      </trkpt>
      <trkpt lat="43.24530833" lon="-4.31905167">
        <ele>648.0</ele>
        <time>2018-05-19T17:13:26.485Z</time>
      </trkpt>
      <trkpt lat="43.24530833" lon="-4.31905167">
        <ele>648.0</ele>
        <time>2018-05-19T17:13:27.470Z</time>
      </trkpt>
      <trkpt lat="43.24535" lon="-4.31905333">
        <ele>648.0</ele>
        <time>2018-05-19T17:13:28.469Z</time>
      </trkpt>
      <trkpt lat="43.24537" lon="-4.31905333">
        <ele>649.0</ele>
        <time>2018-05-19T17:13:29.470Z</time>
      </trkpt>
      <trkpt lat="43.24537" lon="-4.31905333">
        <ele>649.0</ele>
        <time>2018-05-19T17:13:30.467Z</time>
      </trkpt>
      <trkpt lat="43.24542" lon="-4.31905167">
        <ele>649.0</ele>
        <time>2018-05-19T17:13:31.485Z</time>
      </trkpt>
      <trkpt lat="43.24542" lon="-4.31905167">
        <ele>649.0</ele>
        <time>2018-05-19T17:13:32.471Z</time>
      </trkpt>
      <trkpt lat="43.24546833" lon="-4.31905333">
        <ele>650.0</ele>
        <time>2018-05-19T17:13:33.471Z</time>
      </trkpt>
      <trkpt lat="43.24546833" lon="-4.31905333">
        <ele>650.0</ele>
        <time>2018-05-19T17:13:34.468Z</time>
      </trkpt>
      <trkpt lat="43.24552" lon="-4.31905">
        <ele>651.0</ele>
        <time>2018-05-19T17:13:35.470Z</time>
      </trkpt>
      <trkpt lat="43.24552" lon="-4.31905">
        <ele>651.0</ele>
        <time>2018-05-19T17:13:36.487Z</time>
      </trkpt>
      <trkpt lat="43.24557667" lon="-4.31901833">
        <ele>650.0</ele>
        <time>2018-05-19T17:13:37.472Z</time>
      </trkpt>
      <trkpt lat="43.24560333" lon="-4.318995">
        <ele>650.0</ele>
        <time>2018-05-19T17:13:38.470Z</time>
      </trkpt>
      <trkpt lat="43.24560333" lon="-4.318995">
        <ele>650.0</ele>
        <time>2018-05-19T17:13:39.466Z</time>
      </trkpt>
      <trkpt lat="43.24564333" lon="-4.31894333">
        <ele>648.0</ele>
        <time>2018-05-19T17:13:40.470Z</time>
      </trkpt>
      <trkpt lat="43.24565667" lon="-4.318905">
        <ele>648.0</ele>
        <time>2018-05-19T17:13:41.468Z</time>
      </trkpt>
      <trkpt lat="43.24565667" lon="-4.318905">
        <ele>648.0</ele>
        <time>2018-05-19T17:13:42.467Z</time>
      </trkpt>
      <trkpt lat="43.245675" lon="-4.31882">
        <ele>647.0</ele>
        <time>2018-05-19T17:13:43.471Z</time>
      </trkpt>
      <trkpt lat="43.24568167" lon="-4.31877">
        <ele>647.0</ele>
        <time>2018-05-19T17:13:44.470Z</time>
      </trkpt>
      <trkpt lat="43.24568167" lon="-4.31877">
        <ele>647.0</ele>
        <time>2018-05-19T17:13:45.468Z</time>
      </trkpt>
      <trkpt lat="43.24570167" lon="-4.31865667">
        <ele>647.0</ele>
        <time>2018-05-19T17:13:46.469Z</time>
      </trkpt>
      <trkpt lat="43.24570167" lon="-4.31865667">
        <ele>647.0</ele>
        <time>2018-05-19T17:13:47.468Z</time>
      </trkpt>
      <trkpt lat="43.24573167" lon="-4.31853333">
        <ele>647.0</ele>
        <time>2018-05-19T17:13:48.470Z</time>
      </trkpt>
      <trkpt lat="43.24574667" lon="-4.31846667">
        <ele>647.0</ele>
        <time>2018-05-19T17:13:49.471Z</time>
      </trkpt>
      <trkpt lat="43.24576333" lon="-4.318395">
        <ele>646.0</ele>
        <time>2018-05-19T17:13:50.470Z</time>
      </trkpt>
      <trkpt lat="43.24576333" lon="-4.318395">
        <ele>646.0</ele>
        <time>2018-05-19T17:13:51.466Z</time>
      </trkpt>
      <trkpt lat="43.24579333" lon="-4.31823167">
        <ele>646.0</ele>
        <time>2018-05-19T17:13:52.470Z</time>
      </trkpt>
      <trkpt lat="43.24579333" lon="-4.31823167">
        <ele>646.0</ele>
        <time>2018-05-19T17:13:53.468Z</time>
      </trkpt>
      <trkpt lat="43.24582667" lon="-4.318055">
        <ele>646.0</ele>
        <time>2018-05-19T17:13:54.470Z</time>
      </trkpt>
      <trkpt lat="43.24582667" lon="-4.318055">
        <ele>646.0</ele>
        <time>2018-05-19T17:13:55.463Z</time>
      </trkpt>
      <trkpt lat="43.24587167" lon="-4.31787833">
        <ele>645.0</ele>
        <time>2018-05-19T17:13:56.470Z</time>
      </trkpt>
      <trkpt lat="43.24587167" lon="-4.31787833">
        <ele>645.0</ele>
        <time>2018-05-19T17:13:57.467Z</time>
      </trkpt>
      <trkpt lat="43.24592667" lon="-4.31771333">
        <ele>644.0</ele>
        <time>2018-05-19T17:13:58.470Z</time>
      </trkpt>
      <trkpt lat="43.24592667" lon="-4.31771333">
        <ele>644.0</ele>
        <time>2018-05-19T17:13:59.468Z</time>
      </trkpt>
      <trkpt lat="43.24599167" lon="-4.31756667">
        <ele>643.0</ele>
        <time>2018-05-19T17:14:00.470Z</time>
      </trkpt>
      <trkpt lat="43.24599167" lon="-4.31756667">
        <ele>643.0</ele>
        <time>2018-05-19T17:14:01.466Z</time>
      </trkpt>
      <trkpt lat="43.24605833" lon="-4.31740667">
        <ele>641.0</ele>
        <time>2018-05-19T17:14:02.485Z</time>
      </trkpt>
      <trkpt lat="43.24605833" lon="-4.31740667">
        <ele>641.0</ele>
        <time>2018-05-19T17:14:03.470Z</time>
      </trkpt>
      <trkpt lat="43.24613667" lon="-4.31722">
        <ele>637.0</ele>
        <time>2018-05-19T17:14:04.472Z</time>
      </trkpt>
      <trkpt lat="43.246175" lon="-4.31712833">
        <ele>636.0</ele>
        <time>2018-05-19T17:14:05.472Z</time>
      </trkpt>
      <trkpt lat="43.246215" lon="-4.31704667">
        <ele>634.0</ele>
        <time>2018-05-19T17:14:06.473Z</time>
      </trkpt>
      <trkpt lat="43.246215" lon="-4.31704667">
        <ele>634.0</ele>
        <time>2018-05-19T17:14:07.468Z</time>
      </trkpt>
      <trkpt lat="43.24632" lon="-4.31691">
        <ele>633.0</ele>
        <time>2018-05-19T17:14:08.470Z</time>
      </trkpt>
      <trkpt lat="43.24632" lon="-4.31691">
        <ele>633.0</ele>
        <time>2018-05-19T17:14:09.465Z</time>
      </trkpt>
      <trkpt lat="43.246425" lon="-4.31678167">
        <ele>632.0</ele>
        <time>2018-05-19T17:14:10.469Z</time>
      </trkpt>
      <trkpt lat="43.24647667" lon="-4.31672333">
        <ele>632.0</ele>
        <time>2018-05-19T17:14:11.470Z</time>
      </trkpt>
      <trkpt lat="43.24647667" lon="-4.31672333">
        <ele>632.0</ele>
        <time>2018-05-19T17:14:12.458Z</time>
      </trkpt>
      <trkpt lat="43.246575" lon="-4.31660833">
        <ele>634.0</ele>
        <time>2018-05-19T17:14:13.482Z</time>
      </trkpt>
      <trkpt lat="43.24662167" lon="-4.31654833">
        <ele>634.0</ele>
        <time>2018-05-19T17:14:14.469Z</time>
      </trkpt>
      <trkpt lat="43.24662167" lon="-4.31654833">
        <ele>634.0</ele>
        <time>2018-05-19T17:14:15.467Z</time>
      </trkpt>
      <trkpt lat="43.24670333" lon="-4.31641833">
        <ele>634.0</ele>
        <time>2018-05-19T17:14:16.470Z</time>
      </trkpt>
      <trkpt lat="43.24670333" lon="-4.31641833">
        <ele>634.0</ele>
        <time>2018-05-19T17:14:17.464Z</time>
      </trkpt>
      <trkpt lat="43.24678" lon="-4.31627">
        <ele>633.0</ele>
        <time>2018-05-19T17:14:18.468Z</time>
      </trkpt>
      <trkpt lat="43.24678" lon="-4.31627">
        <ele>633.0</ele>
        <time>2018-05-19T17:14:19.468Z</time>
      </trkpt>
      <trkpt lat="43.24686" lon="-4.31611167">
        <ele>633.0</ele>
        <time>2018-05-19T17:14:20.473Z</time>
      </trkpt>
      <trkpt lat="43.24686" lon="-4.31611167">
        <ele>633.0</ele>
        <time>2018-05-19T17:14:21.469Z</time>
      </trkpt>
      <trkpt lat="43.24694833" lon="-4.31594833">
        <ele>633.0</ele>
        <time>2018-05-19T17:14:22.470Z</time>
      </trkpt>
      <trkpt lat="43.24694833" lon="-4.31594833">
        <ele>633.0</ele>
        <time>2018-05-19T17:14:23.482Z</time>
      </trkpt>
      <trkpt lat="43.247035" lon="-4.31577833">
        <ele>632.0</ele>
        <time>2018-05-19T17:14:24.465Z</time>
      </trkpt>
      <trkpt lat="43.24707667" lon="-4.31568833">
        <ele>632.0</ele>
        <time>2018-05-19T17:14:25.471Z</time>
      </trkpt>
      <trkpt lat="43.24707667" lon="-4.31568833">
        <ele>632.0</ele>
        <time>2018-05-19T17:14:26.477Z</time>
      </trkpt>
      <trkpt lat="43.24715667" lon="-4.31550333">
        <ele>631.0</ele>
        <time>2018-05-19T17:14:27.472Z</time>
      </trkpt>
      <trkpt lat="43.24715667" lon="-4.31550333">
        <ele>631.0</ele>
        <time>2018-05-19T17:14:28.469Z</time>
      </trkpt>
      <trkpt lat="43.24723" lon="-4.31530667">
        <ele>629.0</ele>
        <time>2018-05-19T17:14:29.472Z</time>
      </trkpt>
      <trkpt lat="43.24726333" lon="-4.3152">
        <ele>628.0</ele>
        <time>2018-05-19T17:14:30.472Z</time>
      </trkpt>
      <trkpt lat="43.24726333" lon="-4.3152">
        <ele>628.0</ele>
        <time>2018-05-19T17:14:31.466Z</time>
      </trkpt>
      <trkpt lat="43.24731667" lon="-4.314965">
        <ele>626.0</ele>
        <time>2018-05-19T17:14:32.474Z</time>
      </trkpt>
      <trkpt lat="43.24731667" lon="-4.314965">
        <ele>626.0</ele>
        <time>2018-05-19T17:14:33.467Z</time>
      </trkpt>
      <trkpt lat="43.24735833" lon="-4.31469833">
        <ele>623.0</ele>
        <time>2018-05-19T17:14:34.470Z</time>
      </trkpt>
      <trkpt lat="43.24735833" lon="-4.31469833">
        <ele>623.0</ele>
        <time>2018-05-19T17:14:35.464Z</time>
      </trkpt>
      <trkpt lat="43.24740167" lon="-4.31439833">
        <ele>620.0</ele>
        <time>2018-05-19T17:14:36.456Z</time>
      </trkpt>
      <trkpt lat="43.24740167" lon="-4.31439833">
        <ele>620.0</ele>
        <time>2018-05-19T17:14:37.482Z</time>
      </trkpt>
      <trkpt lat="43.24743167" lon="-4.31406833">
        <ele>617.0</ele>
        <time>2018-05-19T17:14:38.470Z</time>
      </trkpt>
      <trkpt lat="43.24743167" lon="-4.31406833">
        <ele>617.0</ele>
        <time>2018-05-19T17:14:39.468Z</time>
      </trkpt>
      <trkpt lat="43.24745167" lon="-4.31372833">
        <ele>616.0</ele>
        <time>2018-05-19T17:14:40.470Z</time>
      </trkpt>
      <trkpt lat="43.24745167" lon="-4.31372833">
        <ele>616.0</ele>
        <time>2018-05-19T17:14:41.483Z</time>
      </trkpt>
      <trkpt lat="43.247465" lon="-4.31339333">
        <ele>615.0</ele>
        <time>2018-05-19T17:14:42.475Z</time>
      </trkpt>
      <trkpt lat="43.247465" lon="-4.31339333">
        <ele>615.0</ele>
        <time>2018-05-19T17:14:43.467Z</time>
      </trkpt>
      <trkpt lat="43.247465" lon="-4.31306">
        <ele>614.0</ele>
        <time>2018-05-19T17:14:44.470Z</time>
      </trkpt>
      <trkpt lat="43.247465" lon="-4.31306">
        <ele>614.0</ele>
        <time>2018-05-19T17:14:45.468Z</time>
      </trkpt>
      <trkpt lat="43.24745833" lon="-4.31274167">
        <ele>614.0</ele>
        <time>2018-05-19T17:14:46.469Z</time>
      </trkpt>
      <trkpt lat="43.24745167" lon="-4.31259">
        <ele>614.0</ele>
        <time>2018-05-19T17:14:47.469Z</time>
      </trkpt>
      <trkpt lat="43.24745167" lon="-4.31259">
        <ele>614.0</ele>
        <time>2018-05-19T17:14:48.467Z</time>
      </trkpt>
      <trkpt lat="43.24744" lon="-4.31230667">
        <ele>615.0</ele>
        <time>2018-05-19T17:14:49.471Z</time>
      </trkpt>
      <trkpt lat="43.24743167" lon="-4.31217667">
        <ele>615.0</ele>
        <time>2018-05-19T17:14:50.470Z</time>
      </trkpt>
      <trkpt lat="43.24743167" lon="-4.31217667">
        <ele>615.0</ele>
        <time>2018-05-19T17:14:51.464Z</time>
      </trkpt>
      <trkpt lat="43.24740333" lon="-4.31193833">
        <ele>616.0</ele>
        <time>2018-05-19T17:14:52.482Z</time>
      </trkpt>
      <trkpt lat="43.24739" lon="-4.31182333">
        <ele>616.0</ele>
        <time>2018-05-19T17:14:53.471Z</time>
      </trkpt>
      <trkpt lat="43.24739" lon="-4.31182333">
        <ele>616.0</ele>
        <time>2018-05-19T17:14:54.469Z</time>
      </trkpt>
      <trkpt lat="43.24736167" lon="-4.311585">
        <ele>615.0</ele>
        <time>2018-05-19T17:14:55.471Z</time>
      </trkpt>
      <trkpt lat="43.247345" lon="-4.31145833">
        <ele>615.0</ele>
        <time>2018-05-19T17:14:56.472Z</time>
      </trkpt>
      <trkpt lat="43.247345" lon="-4.31145833">
        <ele>615.0</ele>
        <time>2018-05-19T17:14:57.467Z</time>
      </trkpt>
      <trkpt lat="43.24731" lon="-4.31119833">
        <ele>614.0</ele>
        <time>2018-05-19T17:14:58.469Z</time>
      </trkpt>
      <trkpt lat="43.24729" lon="-4.31106833">
        <ele>614.0</ele>
        <time>2018-05-19T17:14:59.479Z</time>
      </trkpt>
      <trkpt lat="43.24726833" lon="-4.31093833">
        <ele>613.0</ele>
        <time>2018-05-19T17:15:00.471Z</time>
      </trkpt>
      <trkpt lat="43.24726833" lon="-4.31093833">
        <ele>613.0</ele>
        <time>2018-05-19T17:15:01.466Z</time>
      </trkpt>
      <trkpt lat="43.247215" lon="-4.31067333">
        <ele>612.0</ele>
        <time>2018-05-19T17:15:02.469Z</time>
      </trkpt>
      <trkpt lat="43.247215" lon="-4.31067333">
        <ele>612.0</ele>
        <time>2018-05-19T17:15:03.463Z</time>
      </trkpt>
      <trkpt lat="43.24715333" lon="-4.31040833">
        <ele>611.0</ele>
        <time>2018-05-19T17:15:04.470Z</time>
      </trkpt>
      <trkpt lat="43.24712333" lon="-4.31027833">
        <ele>611.0</ele>
        <time>2018-05-19T17:15:05.470Z</time>
      </trkpt>
      <trkpt lat="43.24712333" lon="-4.31027833">
        <ele>611.0</ele>
        <time>2018-05-19T17:15:06.467Z</time>
      </trkpt>
      <trkpt lat="43.24707333" lon="-4.31002667">
        <ele>611.0</ele>
        <time>2018-05-19T17:15:07.470Z</time>
      </trkpt>
      <trkpt lat="43.247055" lon="-4.309905">
        <ele>611.0</ele>
        <time>2018-05-19T17:15:08.470Z</time>
      </trkpt>
      <trkpt lat="43.24704" lon="-4.30978833">
        <ele>611.0</ele>
        <time>2018-05-19T17:15:09.471Z</time>
      </trkpt>
      <trkpt lat="43.24704" lon="-4.30978833">
        <ele>611.0</ele>
        <time>2018-05-19T17:15:10.467Z</time>
      </trkpt>
      <trkpt lat="43.24701833" lon="-4.309565">
        <ele>611.0</ele>
        <time>2018-05-19T17:15:11.470Z</time>
      </trkpt>
      <trkpt lat="43.24701833" lon="-4.309565">
        <ele>611.0</ele>
        <time>2018-05-19T17:15:12.468Z</time>
      </trkpt>
      <trkpt lat="43.24700667" lon="-4.30935167">
        <ele>611.0</ele>
        <time>2018-05-19T17:15:13.474Z</time>
      </trkpt>
      <trkpt lat="43.24699833" lon="-4.30925">
        <ele>611.0</ele>
        <time>2018-05-19T17:15:14.469Z</time>
      </trkpt>
      <trkpt lat="43.24699833" lon="-4.30925">
        <ele>611.0</ele>
        <time>2018-05-19T17:15:15.467Z</time>
      </trkpt>
      <trkpt lat="43.24697833" lon="-4.30905">
        <ele>611.0</ele>
        <time>2018-05-19T17:15:16.471Z</time>
      </trkpt>
      <trkpt lat="43.24697833" lon="-4.30905">
        <ele>611.0</ele>
        <time>2018-05-19T17:15:17.466Z</time>
      </trkpt>
      <trkpt lat="43.24695833" lon="-4.30885167">
        <ele>611.0</ele>
        <time>2018-05-19T17:15:18.471Z</time>
      </trkpt>
      <trkpt lat="43.24695833" lon="-4.30885167">
        <ele>611.0</ele>
        <time>2018-05-19T17:15:19.468Z</time>
      </trkpt>
      <trkpt lat="43.24694167" lon="-4.30866">
        <ele>612.0</ele>
        <time>2018-05-19T17:15:20.472Z</time>
      </trkpt>
      <trkpt lat="43.24694167" lon="-4.30866">
        <ele>612.0</ele>
        <time>2018-05-19T17:15:21.468Z</time>
      </trkpt>
      <trkpt lat="43.246925" lon="-4.30847833">
        <ele>612.0</ele>
        <time>2018-05-19T17:15:22.469Z</time>
      </trkpt>
      <trkpt lat="43.246925" lon="-4.30847833">
        <ele>612.0</ele>
        <time>2018-05-19T17:15:23.486Z</time>
      </trkpt>
      <trkpt lat="43.24690667" lon="-4.308305">
        <ele>612.0</ele>
        <time>2018-05-19T17:15:24.466Z</time>
      </trkpt>
      <trkpt lat="43.2469" lon="-4.30822333">
        <ele>612.0</ele>
        <time>2018-05-19T17:15:25.473Z</time>
      </trkpt>
      <trkpt lat="43.2469" lon="-4.30822333">
        <ele>612.0</ele>
        <time>2018-05-19T17:15:26.482Z</time>
      </trkpt>
      <trkpt lat="43.24688333" lon="-4.30806333">
        <ele>613.0</ele>
        <time>2018-05-19T17:15:27.473Z</time>
      </trkpt>
      <trkpt lat="43.24688333" lon="-4.30806333">
        <ele>613.0</ele>
        <time>2018-05-19T17:15:28.467Z</time>
      </trkpt>
      <trkpt lat="43.24687167" lon="-4.30790833">
        <ele>612.0</ele>
        <time>2018-05-19T17:15:29.471Z</time>
      </trkpt>
      <trkpt lat="43.24686667" lon="-4.30783167">
        <ele>612.0</ele>
        <time>2018-05-19T17:15:30.477Z</time>
      </trkpt>
      <trkpt lat="43.24686667" lon="-4.30783167">
        <ele>612.0</ele>
        <time>2018-05-19T17:15:31.464Z</time>
      </trkpt>
      <trkpt lat="43.24686167" lon="-4.30768">
        <ele>612.0</ele>
        <time>2018-05-19T17:15:32.471Z</time>
      </trkpt>
      <trkpt lat="43.24686167" lon="-4.30768">
        <ele>612.0</ele>
        <time>2018-05-19T17:15:33.482Z</time>
      </trkpt>
      <trkpt lat="43.24686667" lon="-4.30752167">
        <ele>612.0</ele>
        <time>2018-05-19T17:15:34.470Z</time>
      </trkpt>
      <trkpt lat="43.24686667" lon="-4.30752167">
        <ele>612.0</ele>
        <time>2018-05-19T17:15:35.465Z</time>
      </trkpt>
      <trkpt lat="43.24687833" lon="-4.30736667">
        <ele>611.0</ele>
        <time>2018-05-19T17:15:36.451Z</time>
      </trkpt>
      <trkpt lat="43.24687833" lon="-4.30736667">
        <ele>611.0</ele>
        <time>2018-05-19T17:15:37.476Z</time>
      </trkpt>
      <trkpt lat="43.24689" lon="-4.30720833">
        <ele>611.0</ele>
        <time>2018-05-19T17:15:38.471Z</time>
      </trkpt>
      <trkpt lat="43.24689" lon="-4.30720833">
        <ele>611.0</ele>
        <time>2018-05-19T17:15:39.467Z</time>
      </trkpt>
      <trkpt lat="43.24689833" lon="-4.307045">
        <ele>611.0</ele>
        <time>2018-05-19T17:15:40.471Z</time>
      </trkpt>
      <trkpt lat="43.24689833" lon="-4.307045">
        <ele>611.0</ele>
        <time>2018-05-19T17:15:41.466Z</time>
      </trkpt>
      <trkpt lat="43.24690333" lon="-4.30687833">
        <ele>610.0</ele>
        <time>2018-05-19T17:15:42.472Z</time>
      </trkpt>
      <trkpt lat="43.24690333" lon="-4.30687833">
        <ele>610.0</ele>
        <time>2018-05-19T17:15:43.468Z</time>
      </trkpt>
      <trkpt lat="43.24689833" lon="-4.306705">
        <ele>610.0</ele>
        <time>2018-05-19T17:15:44.471Z</time>
      </trkpt>
      <trkpt lat="43.24689833" lon="-4.306705">
        <ele>610.0</ele>
        <time>2018-05-19T17:15:45.466Z</time>
      </trkpt>
      <trkpt lat="43.24688833" lon="-4.30651667">
        <ele>609.0</ele>
        <time>2018-05-19T17:15:46.469Z</time>
      </trkpt>
      <trkpt lat="43.24688833" lon="-4.30651667">
        <ele>609.0</ele>
        <time>2018-05-19T17:15:47.466Z</time>
      </trkpt>
      <trkpt lat="43.24687833" lon="-4.30632">
        <ele>608.0</ele>
        <time>2018-05-19T17:15:48.470Z</time>
      </trkpt>
      <trkpt lat="43.24687833" lon="-4.30632">
        <ele>608.0</ele>
        <time>2018-05-19T17:15:49.469Z</time>
      </trkpt>
      <trkpt lat="43.24685833" lon="-4.30612">
        <ele>607.0</ele>
        <time>2018-05-19T17:15:50.470Z</time>
      </trkpt>
      <trkpt lat="43.24685833" lon="-4.30612">
        <ele>607.0</ele>
        <time>2018-05-19T17:15:51.463Z</time>
      </trkpt>
      <trkpt lat="43.246835" lon="-4.30590667">
        <ele>605.0</ele>
        <time>2018-05-19T17:15:52.470Z</time>
      </trkpt>
      <trkpt lat="43.246835" lon="-4.30590667">
        <ele>605.0</ele>
        <time>2018-05-19T17:15:53.467Z</time>
      </trkpt>
      <trkpt lat="43.2468" lon="-4.30568">
        <ele>604.0</ele>
        <time>2018-05-19T17:15:54.470Z</time>
      </trkpt>
      <trkpt lat="43.2468" lon="-4.30568">
        <ele>604.0</ele>
        <time>2018-05-19T17:15:55.464Z</time>
      </trkpt>
      <trkpt lat="43.24677667" lon="-4.30543167">
        <ele>602.0</ele>
        <time>2018-05-19T17:15:56.471Z</time>
      </trkpt>
      <trkpt lat="43.24677667" lon="-4.30543167">
        <ele>602.0</ele>
        <time>2018-05-19T17:15:57.460Z</time>
      </trkpt>
      <trkpt lat="43.24681167" lon="-4.305165">
        <ele>600.0</ele>
        <time>2018-05-19T17:15:58.469Z</time>
      </trkpt>
      <trkpt lat="43.24681167" lon="-4.305165">
        <ele>600.0</ele>
        <time>2018-05-19T17:15:59.467Z</time>
      </trkpt>
      <trkpt lat="43.24690333" lon="-4.30489833">
        <ele>598.0</ele>
        <time>2018-05-19T17:16:00.471Z</time>
      </trkpt>
      <trkpt lat="43.24690333" lon="-4.30489833">
        <ele>598.0</ele>
        <time>2018-05-19T17:16:01.467Z</time>
      </trkpt>
      <trkpt lat="43.246985" lon="-4.30461">
        <ele>595.0</ele>
        <time>2018-05-19T17:16:02.479Z</time>
      </trkpt>
      <trkpt lat="43.246985" lon="-4.30461">
        <ele>595.0</ele>
        <time>2018-05-19T17:16:03.466Z</time>
      </trkpt>
      <trkpt lat="43.24704667" lon="-4.30431167">
        <ele>594.0</ele>
        <time>2018-05-19T17:16:04.472Z</time>
      </trkpt>
      <trkpt lat="43.24704667" lon="-4.30431167">
        <ele>594.0</ele>
        <time>2018-05-19T17:16:05.468Z</time>
      </trkpt>
      <trkpt lat="43.247085" lon="-4.30402167">
        <ele>593.0</ele>
        <time>2018-05-19T17:16:06.471Z</time>
      </trkpt>
      <trkpt lat="43.247085" lon="-4.30402167">
        <ele>593.0</ele>
        <time>2018-05-19T17:16:07.469Z</time>
      </trkpt>
      <trkpt lat="43.24709333" lon="-4.30377167">
        <ele>595.0</ele>
        <time>2018-05-19T17:16:08.471Z</time>
      </trkpt>
      <trkpt lat="43.24709333" lon="-4.30377167">
        <ele>595.0</ele>
        <time>2018-05-19T17:16:09.467Z</time>
      </trkpt>
      <trkpt lat="43.24709" lon="-4.303575">
        <ele>597.0</ele>
        <time>2018-05-19T17:16:10.470Z</time>
      </trkpt>
      <trkpt lat="43.24709" lon="-4.303575">
        <ele>597.0</ele>
        <time>2018-05-19T17:16:11.467Z</time>
      </trkpt>
      <trkpt lat="43.24707833" lon="-4.30342333">
        <ele>599.0</ele>
        <time>2018-05-19T17:16:12.469Z</time>
      </trkpt>
      <trkpt lat="43.24707333" lon="-4.303355">
        <ele>599.0</ele>
        <time>2018-05-19T17:16:13.470Z</time>
      </trkpt>
      <trkpt lat="43.24707333" lon="-4.303355">
        <ele>599.0</ele>
        <time>2018-05-19T17:16:14.468Z</time>
      </trkpt>
      <trkpt lat="43.24706167" lon="-4.30324">
        <ele>600.0</ele>
        <time>2018-05-19T17:16:15.470Z</time>
      </trkpt>
      <trkpt lat="43.24706167" lon="-4.30324">
        <ele>600.0</ele>
        <time>2018-05-19T17:16:16.466Z</time>
      </trkpt>
      <trkpt lat="43.24704667" lon="-4.30314333">
        <ele>601.0</ele>
        <time>2018-05-19T17:16:17.466Z</time>
      </trkpt>
      <trkpt lat="43.24704" lon="-4.30309833">
        <ele>601.0</ele>
        <time>2018-05-19T17:16:18.471Z</time>
      </trkpt>
      <trkpt lat="43.24704" lon="-4.30309833">
        <ele>601.0</ele>
        <time>2018-05-19T17:16:19.467Z</time>
      </trkpt>
      <trkpt lat="43.24702667" lon="-4.30301333">
        <ele>602.0</ele>
        <time>2018-05-19T17:16:20.467Z</time>
      </trkpt>
      <trkpt lat="43.24702667" lon="-4.30301333">
        <ele>602.0</ele>
        <time>2018-05-19T17:16:21.460Z</time>
      </trkpt>
      <trkpt lat="43.24702" lon="-4.30292833">
        <ele>602.0</ele>
        <time>2018-05-19T17:16:22.470Z</time>
      </trkpt>
      <trkpt lat="43.24702" lon="-4.30292833">
        <ele>602.0</ele>
        <time>2018-05-19T17:16:23.475Z</time>
      </trkpt>
      <trkpt lat="43.24701167" lon="-4.302845">
        <ele>603.0</ele>
        <time>2018-05-19T17:16:24.474Z</time>
      </trkpt>
      <trkpt lat="43.24701167" lon="-4.302845">
        <ele>603.0</ele>
        <time>2018-05-19T17:16:25.480Z</time>
      </trkpt>
      <trkpt lat="43.24700333" lon="-4.30276333">
        <ele>604.0</ele>
        <time>2018-05-19T17:16:26.487Z</time>
      </trkpt>
      <trkpt lat="43.24699667" lon="-4.30272167">
        <ele>604.0</ele>
        <time>2018-05-19T17:16:27.487Z</time>
      </trkpt>
      <trkpt lat="43.24699667" lon="-4.30272167">
        <ele>604.0</ele>
        <time>2018-05-19T17:16:28.472Z</time>
      </trkpt>
      <trkpt lat="43.24699" lon="-4.302645">
        <ele>604.0</ele>
        <time>2018-05-19T17:16:29.472Z</time>
      </trkpt>
      <trkpt lat="43.24698833" lon="-4.30260833">
        <ele>604.0</ele>
        <time>2018-05-19T17:16:30.473Z</time>
      </trkpt>
      <trkpt lat="43.246985" lon="-4.30257">
        <ele>605.0</ele>
        <time>2018-05-19T17:16:31.471Z</time>
      </trkpt>
      <trkpt lat="43.246985" lon="-4.30257">
        <ele>605.0</ele>
        <time>2018-05-19T17:16:32.469Z</time>
      </trkpt>
      <trkpt lat="43.24698167" lon="-4.30249667">
        <ele>605.0</ele>
        <time>2018-05-19T17:16:33.470Z</time>
      </trkpt>
      <trkpt lat="43.24698167" lon="-4.302465">
        <ele>605.0</ele>
        <time>2018-05-19T17:16:34.451Z</time>
      </trkpt>
      <trkpt lat="43.24698167" lon="-4.30243167">
        <ele>606.0</ele>
        <time>2018-05-19T17:16:35.477Z</time>
      </trkpt>
      <trkpt lat="43.24698167" lon="-4.30243167">
        <ele>606.0</ele>
        <time>2018-05-19T17:16:36.481Z</time>
      </trkpt>
      <trkpt lat="43.24698167" lon="-4.30236333">
        <ele>606.0</ele>
        <time>2018-05-19T17:16:37.470Z</time>
      </trkpt>
      <trkpt lat="43.24698" lon="-4.30233">
        <ele>607.0</ele>
        <time>2018-05-19T17:16:38.470Z</time>
      </trkpt>
      <trkpt lat="43.24698" lon="-4.30233">
        <ele>607.0</ele>
        <time>2018-05-19T17:16:39.469Z</time>
      </trkpt>
      <trkpt lat="43.24697667" lon="-4.30226167">
        <ele>607.0</ele>
        <time>2018-05-19T17:16:40.470Z</time>
      </trkpt>
      <trkpt lat="43.24697667" lon="-4.30226167">
        <ele>607.0</ele>
        <time>2018-05-19T17:16:41.463Z</time>
      </trkpt>
      <trkpt lat="43.24697167" lon="-4.302195">
        <ele>607.0</ele>
        <time>2018-05-19T17:16:42.471Z</time>
      </trkpt>
      <trkpt lat="43.24697167" lon="-4.302195">
        <ele>607.0</ele>
        <time>2018-05-19T17:16:43.468Z</time>
      </trkpt>
      <trkpt lat="43.24697167" lon="-4.30212667">
        <ele>608.0</ele>
        <time>2018-05-19T17:16:44.472Z</time>
      </trkpt>
      <trkpt lat="43.24697333" lon="-4.30209167">
        <ele>608.0</ele>
        <time>2018-05-19T17:16:45.467Z</time>
      </trkpt>
      <trkpt lat="43.24697333" lon="-4.30209167">
        <ele>608.0</ele>
        <time>2018-05-19T17:16:46.466Z</time>
      </trkpt>
      <trkpt lat="43.24697833" lon="-4.30202833">
        <ele>608.0</ele>
        <time>2018-05-19T17:16:47.471Z</time>
      </trkpt>
      <trkpt lat="43.24697833" lon="-4.30202833">
        <ele>608.0</ele>
        <time>2018-05-19T17:16:48.468Z</time>
      </trkpt>
      <trkpt lat="43.24697833" lon="-4.30196833">
        <ele>609.0</ele>
        <time>2018-05-19T17:16:49.470Z</time>
      </trkpt>
      <trkpt lat="43.24697833" lon="-4.30194">
        <ele>609.0</ele>
        <time>2018-05-19T17:16:50.469Z</time>
      </trkpt>
      <trkpt lat="43.24697833" lon="-4.30194">
        <ele>609.0</ele>
        <time>2018-05-19T17:16:51.468Z</time>
      </trkpt>
      <trkpt lat="43.24698167" lon="-4.301885">
        <ele>609.0</ele>
        <time>2018-05-19T17:16:52.471Z</time>
      </trkpt>
      <trkpt lat="43.24698167" lon="-4.301885">
        <ele>609.0</ele>
        <time>2018-05-19T17:16:53.460Z</time>
      </trkpt>
      <trkpt lat="43.24698333" lon="-4.30182667">
        <ele>610.0</ele>
        <time>2018-05-19T17:16:54.472Z</time>
      </trkpt>
      <trkpt lat="43.24698333" lon="-4.30182667">
        <ele>610.0</ele>
        <time>2018-05-19T17:16:55.467Z</time>
      </trkpt>
      <trkpt lat="43.24698833" lon="-4.30177167">
        <ele>610.0</ele>
        <time>2018-05-19T17:16:56.472Z</time>
      </trkpt>
      <trkpt lat="43.24698833" lon="-4.30177167">
        <ele>610.0</ele>
        <time>2018-05-19T17:16:57.468Z</time>
      </trkpt>
      <trkpt lat="43.24699167" lon="-4.30171833">
        <ele>611.0</ele>
        <time>2018-05-19T17:16:58.469Z</time>
      </trkpt>
      <trkpt lat="43.24699167" lon="-4.30171833">
        <ele>611.0</ele>
        <time>2018-05-19T17:16:59.465Z</time>
      </trkpt>
      <trkpt lat="43.24699333" lon="-4.30166667">
        <ele>611.0</ele>
        <time>2018-05-19T17:17:00.473Z</time>
      </trkpt>
      <trkpt lat="43.24699333" lon="-4.30166667">
        <ele>611.0</ele>
        <time>2018-05-19T17:17:01.467Z</time>
      </trkpt>
      <trkpt lat="43.24700333" lon="-4.301615">
        <ele>612.0</ele>
        <time>2018-05-19T17:17:02.470Z</time>
      </trkpt>
      <trkpt lat="43.24700333" lon="-4.301615">
        <ele>612.0</ele>
        <time>2018-05-19T17:17:03.464Z</time>
      </trkpt>
      <trkpt lat="43.24701333" lon="-4.30156">
        <ele>612.0</ele>
        <time>2018-05-19T17:17:04.466Z</time>
      </trkpt>
      <trkpt lat="43.24701833" lon="-4.30153167">
        <ele>612.0</ele>
        <time>2018-05-19T17:17:05.471Z</time>
      </trkpt>
      <trkpt lat="43.24702333" lon="-4.30150333">
        <ele>613.0</ele>
        <time>2018-05-19T17:17:06.472Z</time>
      </trkpt>
      <trkpt lat="43.24702333" lon="-4.30150333">
        <ele>613.0</ele>
        <time>2018-05-19T17:17:07.463Z</time>
      </trkpt>
      <trkpt lat="43.24703333" lon="-4.30144667">
        <ele>613.0</ele>
        <time>2018-05-19T17:17:08.470Z</time>
      </trkpt>
      <trkpt lat="43.24703333" lon="-4.30144667">
        <ele>613.0</ele>
        <time>2018-05-19T17:17:09.469Z</time>
      </trkpt>
      <trkpt lat="43.247045" lon="-4.30139">
        <ele>613.0</ele>
        <time>2018-05-19T17:17:10.470Z</time>
      </trkpt>
      <trkpt lat="43.24705167" lon="-4.30136167">
        <ele>614.0</ele>
        <time>2018-05-19T17:17:11.470Z</time>
      </trkpt>
      <trkpt lat="43.24705167" lon="-4.30136167">
        <ele>614.0</ele>
        <time>2018-05-19T17:17:12.471Z</time>
      </trkpt>
      <trkpt lat="43.24706167" lon="-4.30130667">
        <ele>614.0</ele>
        <time>2018-05-19T17:17:13.470Z</time>
      </trkpt>
      <trkpt lat="43.24706167" lon="-4.30130667">
        <ele>614.0</ele>
        <time>2018-05-19T17:17:14.460Z</time>
      </trkpt>
      <trkpt lat="43.24707333" lon="-4.30125167">
        <ele>615.0</ele>
        <time>2018-05-19T17:17:15.482Z</time>
      </trkpt>
      <trkpt lat="43.24707333" lon="-4.30125167">
        <ele>615.0</ele>
        <time>2018-05-19T17:17:16.467Z</time>
      </trkpt>
      <trkpt lat="43.247085" lon="-4.30119167">
        <ele>615.0</ele>
        <time>2018-05-19T17:17:17.471Z</time>
      </trkpt>
      <trkpt lat="43.247085" lon="-4.30119167">
        <ele>615.0</ele>
        <time>2018-05-19T17:17:18.469Z</time>
      </trkpt>
      <trkpt lat="43.24709" lon="-4.30111333">
        <ele>615.0</ele>
        <time>2018-05-19T17:17:19.472Z</time>
      </trkpt>
      <trkpt lat="43.247095" lon="-4.30107667">
        <ele>615.0</ele>
        <time>2018-05-19T17:17:20.472Z</time>
      </trkpt>
      <trkpt lat="43.247095" lon="-4.30107667">
        <ele>615.0</ele>
        <time>2018-05-19T17:17:21.466Z</time>
      </trkpt>
      <trkpt lat="43.24710667" lon="-4.30100833">
        <ele>616.0</ele>
        <time>2018-05-19T17:17:22.470Z</time>
      </trkpt>
      <trkpt lat="43.24710667" lon="-4.30100833">
        <ele>616.0</ele>
        <time>2018-05-19T17:17:23.450Z</time>
      </trkpt>
      <trkpt lat="43.24712667" lon="-4.30093333">
        <ele>616.0</ele>
        <time>2018-05-19T17:17:24.458Z</time>
      </trkpt>
      <trkpt lat="43.24712667" lon="-4.30093333">
        <ele>616.0</ele>
        <time>2018-05-19T17:17:25.465Z</time>
      </trkpt>
      <trkpt lat="43.24714" lon="-4.300855">
        <ele>615.0</ele>
        <time>2018-05-19T17:17:26.471Z</time>
      </trkpt>
      <trkpt lat="43.24715" lon="-4.30081333">
        <ele>615.0</ele>
        <time>2018-05-19T17:17:27.469Z</time>
      </trkpt>
      <trkpt lat="43.24715" lon="-4.30081333">
        <ele>615.0</ele>
        <time>2018-05-19T17:17:28.467Z</time>
      </trkpt>
      <trkpt lat="43.24717" lon="-4.30072667">
        <ele>615.0</ele>
        <time>2018-05-19T17:17:29.468Z</time>
      </trkpt>
      <trkpt lat="43.24717833" lon="-4.30067667">
        <ele>615.0</ele>
        <time>2018-05-19T17:17:30.472Z</time>
      </trkpt>
      <trkpt lat="43.24717833" lon="-4.30067667">
        <ele>615.0</ele>
        <time>2018-05-19T17:17:31.482Z</time>
      </trkpt>
      <trkpt lat="43.247195" lon="-4.30057">
        <ele>615.0</ele>
        <time>2018-05-19T17:17:32.470Z</time>
      </trkpt>
      <trkpt lat="43.247195" lon="-4.30057">
        <ele>615.0</ele>
        <time>2018-05-19T17:17:33.467Z</time>
      </trkpt>
      <trkpt lat="43.24722167" lon="-4.30045833">
        <ele>614.0</ele>
        <time>2018-05-19T17:17:34.472Z</time>
      </trkpt>
      <trkpt lat="43.24722167" lon="-4.30045833">
        <ele>614.0</ele>
        <time>2018-05-19T17:17:35.465Z</time>
      </trkpt>
      <trkpt lat="43.24725167" lon="-4.30033167">
        <ele>614.0</ele>
        <time>2018-05-19T17:17:36.466Z</time>
      </trkpt>
      <trkpt lat="43.24725167" lon="-4.30033167">
        <ele>614.0</ele>
        <time>2018-05-19T17:17:37.467Z</time>
      </trkpt>
      <trkpt lat="43.24729" lon="-4.30019333">
        <ele>613.0</ele>
        <time>2018-05-19T17:17:38.481Z</time>
      </trkpt>
      <trkpt lat="43.24729" lon="-4.30019333">
        <ele>613.0</ele>
        <time>2018-05-19T17:17:39.468Z</time>
      </trkpt>
      <trkpt lat="43.24734333" lon="-4.30004167">
        <ele>612.0</ele>
        <time>2018-05-19T17:17:40.468Z</time>
      </trkpt>
      <trkpt lat="43.24734333" lon="-4.30004167">
        <ele>612.0</ele>
        <time>2018-05-19T17:17:41.466Z</time>
      </trkpt>
      <trkpt lat="43.24742" lon="-4.29988167">
        <ele>610.0</ele>
        <time>2018-05-19T17:17:42.475Z</time>
      </trkpt>
      <trkpt lat="43.24742" lon="-4.29988167">
        <ele>610.0</ele>
        <time>2018-05-19T17:17:43.469Z</time>
      </trkpt>
      <trkpt lat="43.247535" lon="-4.29972667">
        <ele>608.0</ele>
        <time>2018-05-19T17:17:44.472Z</time>
      </trkpt>
      <trkpt lat="43.247535" lon="-4.29972667">
        <ele>608.0</ele>
        <time>2018-05-19T17:17:45.467Z</time>
      </trkpt>
      <trkpt lat="43.24766167" lon="-4.29956">
        <ele>606.0</ele>
        <time>2018-05-19T17:17:46.470Z</time>
      </trkpt>
      <trkpt lat="43.24766167" lon="-4.29956">
        <ele>606.0</ele>
        <time>2018-05-19T17:17:47.467Z</time>
      </trkpt>
      <trkpt lat="43.24778333" lon="-4.299355">
        <ele>604.0</ele>
        <time>2018-05-19T17:17:48.473Z</time>
      </trkpt>
      <trkpt lat="43.24778333" lon="-4.299355">
        <ele>604.0</ele>
        <time>2018-05-19T17:17:49.451Z</time>
      </trkpt>
      <trkpt lat="43.24789" lon="-4.29911333">
        <ele>603.0</ele>
        <time>2018-05-19T17:17:50.480Z</time>
      </trkpt>
      <trkpt lat="43.24789" lon="-4.29911333">
        <ele>603.0</ele>
        <time>2018-05-19T17:17:51.467Z</time>
      </trkpt>
      <trkpt lat="43.24798667" lon="-4.29885667">
        <ele>601.0</ele>
        <time>2018-05-19T17:17:52.470Z</time>
      </trkpt>
      <trkpt lat="43.24798667" lon="-4.29885667">
        <ele>601.0</ele>
        <time>2018-05-19T17:17:53.468Z</time>
      </trkpt>
      <trkpt lat="43.24807667" lon="-4.298585">
        <ele>599.0</ele>
        <time>2018-05-19T17:17:54.470Z</time>
      </trkpt>
      <trkpt lat="43.24807667" lon="-4.298585">
        <ele>599.0</ele>
        <time>2018-05-19T17:17:55.468Z</time>
      </trkpt>
      <trkpt lat="43.24817167" lon="-4.29830333">
        <ele>596.0</ele>
        <time>2018-05-19T17:17:56.469Z</time>
      </trkpt>
      <trkpt lat="43.24817167" lon="-4.29830333">
        <ele>596.0</ele>
        <time>2018-05-19T17:17:57.468Z</time>
      </trkpt>
      <trkpt lat="43.24829333" lon="-4.298035">
        <ele>594.0</ele>
        <time>2018-05-19T17:17:58.476Z</time>
      </trkpt>
      <trkpt lat="43.24836667" lon="-4.29791333">
        <ele>593.0</ele>
        <time>2018-05-19T17:17:59.472Z</time>
      </trkpt>
      <trkpt lat="43.24836667" lon="-4.29791333">
        <ele>593.0</ele>
        <time>2018-05-19T17:18:00.469Z</time>
      </trkpt>
      <trkpt lat="43.24853" lon="-4.29769667">
        <ele>590.0</ele>
        <time>2018-05-19T17:18:01.470Z</time>
      </trkpt>
      <trkpt lat="43.24853" lon="-4.29769667">
        <ele>590.0</ele>
        <time>2018-05-19T17:18:02.465Z</time>
      </trkpt>
      <trkpt lat="43.24868833" lon="-4.29747667">
        <ele>587.0</ele>
        <time>2018-05-19T17:18:03.470Z</time>
      </trkpt>
      <trkpt lat="43.24875833" lon="-4.29735667">
        <ele>584.0</ele>
        <time>2018-05-19T17:18:04.470Z</time>
      </trkpt>
      <trkpt lat="43.24875833" lon="-4.29735667">
        <ele>584.0</ele>
        <time>2018-05-19T17:18:05.469Z</time>
      </trkpt>
      <trkpt lat="43.24888333" lon="-4.29709167">
        <ele>580.0</ele>
        <time>2018-05-19T17:18:06.474Z</time>
      </trkpt>
      <trkpt lat="43.24888333" lon="-4.29709167">
        <ele>580.0</ele>
        <time>2018-05-19T17:18:07.466Z</time>
      </trkpt>
      <trkpt lat="43.24900833" lon="-4.29682667">
        <ele>576.0</ele>
        <time>2018-05-19T17:18:08.471Z</time>
      </trkpt>
      <trkpt lat="43.24900833" lon="-4.29682667">
        <ele>576.0</ele>
        <time>2018-05-19T17:18:09.469Z</time>
      </trkpt>
      <trkpt lat="43.24914667" lon="-4.29657667">
        <ele>571.0</ele>
        <time>2018-05-19T17:18:10.471Z</time>
      </trkpt>
      <trkpt lat="43.24914667" lon="-4.29657667">
        <ele>571.0</ele>
        <time>2018-05-19T17:18:11.467Z</time>
      </trkpt>
      <trkpt lat="43.2493" lon="-4.29632">
        <ele>565.0</ele>
        <time>2018-05-19T17:18:12.468Z</time>
      </trkpt>
      <trkpt lat="43.2493" lon="-4.29632">
        <ele>565.0</ele>
        <time>2018-05-19T17:18:13.468Z</time>
      </trkpt>
      <trkpt lat="43.249455" lon="-4.296035">
        <ele>560.0</ele>
        <time>2018-05-19T17:18:14.470Z</time>
      </trkpt>
      <trkpt lat="43.249455" lon="-4.296035">
        <ele>560.0</ele>
        <time>2018-05-19T17:18:15.468Z</time>
      </trkpt>
      <trkpt lat="43.24960667" lon="-4.29574">
        <ele>555.0</ele>
        <time>2018-05-19T17:18:16.469Z</time>
      </trkpt>
      <trkpt lat="43.24968" lon="-4.29559">
        <ele>553.0</ele>
        <time>2018-05-19T17:18:17.471Z</time>
      </trkpt>
      <trkpt lat="43.24968" lon="-4.29559">
        <ele>553.0</ele>
        <time>2018-05-19T17:18:18.468Z</time>
      </trkpt>
      <trkpt lat="43.24980167" lon="-4.295295">
        <ele>551.0</ele>
        <time>2018-05-19T17:18:19.471Z</time>
      </trkpt>
      <trkpt lat="43.249845" lon="-4.29515667">
        <ele>551.0</ele>
        <time>2018-05-19T17:18:20.471Z</time>
      </trkpt>
      <trkpt lat="43.249845" lon="-4.29515667">
        <ele>551.0</ele>
        <time>2018-05-19T17:18:21.464Z</time>
      </trkpt>
      <trkpt lat="43.24992167" lon="-4.29491833">
        <ele>549.0</ele>
        <time>2018-05-19T17:18:22.469Z</time>
      </trkpt>
      <trkpt lat="43.24992167" lon="-4.29491833">
        <ele>549.0</ele>
        <time>2018-05-19T17:18:23.472Z</time>
      </trkpt>
      <trkpt lat="43.25" lon="-4.294735">
        <ele>547.0</ele>
        <time>2018-05-19T17:18:24.484Z</time>
      </trkpt>
      <trkpt lat="43.25" lon="-4.294735">
        <ele>547.0</ele>
        <time>2018-05-19T17:18:25.456Z</time>
      </trkpt>
      <trkpt lat="43.25011167" lon="-4.294635">
        <ele>545.0</ele>
        <time>2018-05-19T17:18:26.463Z</time>
      </trkpt>
      <trkpt lat="43.25017833" lon="-4.294635">
        <ele>544.0</ele>
        <time>2018-05-19T17:18:27.470Z</time>
      </trkpt>
      <trkpt lat="43.25017833" lon="-4.294635">
        <ele>544.0</ele>
        <time>2018-05-19T17:18:28.462Z</time>
      </trkpt>
      <trkpt lat="43.25030167" lon="-4.29472667">
        <ele>542.0</ele>
        <time>2018-05-19T17:18:29.468Z</time>
      </trkpt>
      <trkpt lat="43.250355" lon="-4.29478">
        <ele>541.0</ele>
        <time>2018-05-19T17:18:30.470Z</time>
      </trkpt>
      <trkpt lat="43.250355" lon="-4.29478">
        <ele>541.0</ele>
        <time>2018-05-19T17:18:31.476Z</time>
      </trkpt>
      <trkpt lat="43.250445" lon="-4.29476333">
        <ele>539.0</ele>
        <time>2018-05-19T17:18:32.471Z</time>
      </trkpt>
      <trkpt lat="43.250445" lon="-4.29476333">
        <ele>539.0</ele>
        <time>2018-05-19T17:18:33.470Z</time>
      </trkpt>
      <trkpt lat="43.25047667" lon="-4.29459167">
        <ele>537.0</ele>
        <time>2018-05-19T17:18:34.470Z</time>
      </trkpt>
      <trkpt lat="43.25047667" lon="-4.29459167">
        <ele>537.0</ele>
        <time>2018-05-19T17:18:35.466Z</time>
      </trkpt>
      <trkpt lat="43.25044167" lon="-4.29436833">
        <ele>535.0</ele>
        <time>2018-05-19T17:18:36.470Z</time>
      </trkpt>
      <trkpt lat="43.25044167" lon="-4.29436833">
        <ele>535.0</ele>
        <time>2018-05-19T17:18:37.466Z</time>
      </trkpt>
      <trkpt lat="43.25040333" lon="-4.29415833">
        <ele>532.0</ele>
        <time>2018-05-19T17:18:38.469Z</time>
      </trkpt>
      <trkpt lat="43.25040333" lon="-4.29415833">
        <ele>532.0</ele>
        <time>2018-05-19T17:18:39.469Z</time>
      </trkpt>
      <trkpt lat="43.25038167" lon="-4.29399167">
        <ele>529.0</ele>
        <time>2018-05-19T17:18:40.470Z</time>
      </trkpt>
      <trkpt lat="43.25040333" lon="-4.29392">
        <ele>528.0</ele>
        <time>2018-05-19T17:18:41.470Z</time>
      </trkpt>
      <trkpt lat="43.25040333" lon="-4.29392">
        <ele>528.0</ele>
        <time>2018-05-19T17:18:42.451Z</time>
      </trkpt>
      <trkpt lat="43.25051333" lon="-4.29380833">
        <ele>527.0</ele>
        <time>2018-05-19T17:18:43.448Z</time>
      </trkpt>
      <trkpt lat="43.25058833" lon="-4.29375167">
        <ele>526.0</ele>
        <time>2018-05-19T17:18:44.477Z</time>
      </trkpt>
      <trkpt lat="43.25058833" lon="-4.29375167">
        <ele>526.0</ele>
        <time>2018-05-19T17:18:45.465Z</time>
      </trkpt>
      <trkpt lat="43.25075167" lon="-4.29362167">
        <ele>522.0</ele>
        <time>2018-05-19T17:18:46.481Z</time>
      </trkpt>
      <trkpt lat="43.25075167" lon="-4.29362167">
        <ele>522.0</ele>
        <time>2018-05-19T17:18:47.470Z</time>
      </trkpt>
      <trkpt lat="43.250945" lon="-4.29349333">
        <ele>518.0</ele>
        <time>2018-05-19T17:18:48.472Z</time>
      </trkpt>
      <trkpt lat="43.250945" lon="-4.29349333">
        <ele>518.0</ele>
        <time>2018-05-19T17:18:49.464Z</time>
      </trkpt>
      <trkpt lat="43.25115667" lon="-4.29341833">
        <ele>514.0</ele>
        <time>2018-05-19T17:18:50.471Z</time>
      </trkpt>
      <trkpt lat="43.25115667" lon="-4.29341833">
        <ele>514.0</ele>
        <time>2018-05-19T17:18:51.464Z</time>
      </trkpt>
      <trkpt lat="43.251335" lon="-4.29340333">
        <ele>512.0</ele>
        <time>2018-05-19T17:18:52.470Z</time>
      </trkpt>
      <trkpt lat="43.251335" lon="-4.29340333">
        <ele>512.0</ele>
        <time>2018-05-19T17:18:53.469Z</time>
      </trkpt>
      <trkpt lat="43.251465" lon="-4.293395">
        <ele>510.0</ele>
        <time>2018-05-19T17:18:54.473Z</time>
      </trkpt>
      <trkpt lat="43.25152833" lon="-4.29340167">
        <ele>509.0</ele>
        <time>2018-05-19T17:18:55.471Z</time>
      </trkpt>
      <trkpt lat="43.25152833" lon="-4.29340167">
        <ele>509.0</ele>
        <time>2018-05-19T17:18:56.471Z</time>
      </trkpt>
      <trkpt lat="43.25164667" lon="-4.2935">
        <ele>507.0</ele>
        <time>2018-05-19T17:18:57.471Z</time>
      </trkpt>
      <trkpt lat="43.25164667" lon="-4.2935">
        <ele>507.0</ele>
        <time>2018-05-19T17:18:58.465Z</time>
      </trkpt>
      <trkpt lat="43.25175" lon="-4.29366667">
        <ele>505.0</ele>
        <time>2018-05-19T17:18:59.473Z</time>
      </trkpt>
      <trkpt lat="43.25175" lon="-4.29366667">
        <ele>505.0</ele>
        <time>2018-05-19T17:19:00.469Z</time>
      </trkpt>
      <trkpt lat="43.251835" lon="-4.29387667">
        <ele>504.0</ele>
        <time>2018-05-19T17:19:01.470Z</time>
      </trkpt>
      <trkpt lat="43.25186333" lon="-4.29399667">
        <ele>505.0</ele>
        <time>2018-05-19T17:19:02.470Z</time>
      </trkpt>
      <trkpt lat="43.25186333" lon="-4.29399667">
        <ele>505.0</ele>
        <time>2018-05-19T17:19:03.464Z</time>
      </trkpt>
      <trkpt lat="43.25194167" lon="-4.2942">
        <ele>503.0</ele>
        <time>2018-05-19T17:19:04.469Z</time>
      </trkpt>
      <trkpt lat="43.25194167" lon="-4.2942">
        <ele>503.0</ele>
        <time>2018-05-19T17:19:05.463Z</time>
      </trkpt>
      <trkpt lat="43.25207333" lon="-4.294345">
        <ele>501.0</ele>
        <time>2018-05-19T17:19:06.470Z</time>
      </trkpt>
      <trkpt lat="43.25207333" lon="-4.294345">
        <ele>501.0</ele>
        <time>2018-05-19T17:19:07.465Z</time>
      </trkpt>
      <trkpt lat="43.25221167" lon="-4.29450167">
        <ele>500.0</ele>
        <time>2018-05-19T17:19:08.469Z</time>
      </trkpt>
      <trkpt lat="43.25227667" lon="-4.29459">
        <ele>499.0</ele>
        <time>2018-05-19T17:19:09.470Z</time>
      </trkpt>
      <trkpt lat="43.25227667" lon="-4.29459">
        <ele>499.0</ele>
        <time>2018-05-19T17:19:10.467Z</time>
      </trkpt>
      <trkpt lat="43.252385" lon="-4.29478167">
        <ele>499.0</ele>
        <time>2018-05-19T17:19:11.470Z</time>
      </trkpt>
      <trkpt lat="43.25243167" lon="-4.29487">
        <ele>498.0</ele>
        <time>2018-05-19T17:19:12.471Z</time>
      </trkpt>
      <trkpt lat="43.25243167" lon="-4.29487">
        <ele>498.0</ele>
        <time>2018-05-19T17:19:13.467Z</time>
      </trkpt>
      <trkpt lat="43.25255333" lon="-4.295005">
        <ele>497.0</ele>
        <time>2018-05-19T17:19:14.469Z</time>
      </trkpt>
      <trkpt lat="43.25255333" lon="-4.295005">
        <ele>497.0</ele>
        <time>2018-05-19T17:19:15.458Z</time>
      </trkpt>
      <trkpt lat="43.25269833" lon="-4.29512167">
        <ele>496.0</ele>
        <time>2018-05-19T17:19:16.482Z</time>
      </trkpt>
      <trkpt lat="43.25276833" lon="-4.29517833">
        <ele>495.0</ele>
        <time>2018-05-19T17:19:17.470Z</time>
      </trkpt>
      <trkpt lat="43.25284833" lon="-4.295205">
        <ele>495.0</ele>
        <time>2018-05-19T17:19:18.470Z</time>
      </trkpt>
      <trkpt lat="43.25284833" lon="-4.295205">
        <ele>495.0</ele>
        <time>2018-05-19T17:19:19.469Z</time>
      </trkpt>
      <trkpt lat="43.253005" lon="-4.29523">
        <ele>493.0</ele>
        <time>2018-05-19T17:19:20.472Z</time>
      </trkpt>
      <trkpt lat="43.253005" lon="-4.29523">
        <ele>493.0</ele>
        <time>2018-05-19T17:19:21.465Z</time>
      </trkpt>
      <trkpt lat="43.25313833" lon="-4.29528833">
        <ele>492.0</ele>
        <time>2018-05-19T17:19:22.472Z</time>
      </trkpt>
      <trkpt lat="43.25313833" lon="-4.29528833">
        <ele>492.0</ele>
        <time>2018-05-19T17:19:23.461Z</time>
      </trkpt>
      <trkpt lat="43.25324833" lon="-4.29540667">
        <ele>490.0</ele>
        <time>2018-05-19T17:19:24.472Z</time>
      </trkpt>
      <trkpt lat="43.25324833" lon="-4.29540667">
        <ele>490.0</ele>
        <time>2018-05-19T17:19:25.479Z</time>
      </trkpt>
      <trkpt lat="43.25331" lon="-4.29559667">
        <ele>489.0</ele>
        <time>2018-05-19T17:19:26.485Z</time>
      </trkpt>
      <trkpt lat="43.25331" lon="-4.295715">
        <ele>489.0</ele>
        <time>2018-05-19T17:19:27.471Z</time>
      </trkpt>
      <trkpt lat="43.25331" lon="-4.295715">
        <ele>489.0</ele>
        <time>2018-05-19T17:19:28.467Z</time>
      </trkpt>
      <trkpt lat="43.25329167" lon="-4.295955">
        <ele>488.0</ele>
        <time>2018-05-19T17:19:29.450Z</time>
      </trkpt>
      <trkpt lat="43.25328167" lon="-4.29608167">
        <ele>487.0</ele>
        <time>2018-05-19T17:19:30.473Z</time>
      </trkpt>
      <trkpt lat="43.25328167" lon="-4.29608167">
        <ele>487.0</ele>
        <time>2018-05-19T17:19:31.467Z</time>
      </trkpt>
      <trkpt lat="43.253275" lon="-4.29633833">
        <ele>486.0</ele>
        <time>2018-05-19T17:19:32.469Z</time>
      </trkpt>
      <trkpt lat="43.253275" lon="-4.29633833">
        <ele>486.0</ele>
        <time>2018-05-19T17:19:33.467Z</time>
      </trkpt>
      <trkpt lat="43.25330833" lon="-4.29658667">
        <ele>485.0</ele>
        <time>2018-05-19T17:19:34.469Z</time>
      </trkpt>
      <trkpt lat="43.25330833" lon="-4.29658667">
        <ele>485.0</ele>
        <time>2018-05-19T17:19:35.465Z</time>
      </trkpt>
      <trkpt lat="43.25338667" lon="-4.29682333">
        <ele>484.0</ele>
        <time>2018-05-19T17:19:36.449Z</time>
      </trkpt>
      <trkpt lat="43.25338667" lon="-4.29682333">
        <ele>484.0</ele>
        <time>2018-05-19T17:19:37.472Z</time>
      </trkpt>
      <trkpt lat="43.253445" lon="-4.29707">
        <ele>483.0</ele>
        <time>2018-05-19T17:19:38.484Z</time>
      </trkpt>
      <trkpt lat="43.253445" lon="-4.29707">
        <ele>483.0</ele>
        <time>2018-05-19T17:19:39.471Z</time>
      </trkpt>
      <trkpt lat="43.25348667" lon="-4.29731667">
        <ele>481.0</ele>
        <time>2018-05-19T17:19:40.469Z</time>
      </trkpt>
      <trkpt lat="43.25348667" lon="-4.29731667">
        <ele>481.0</ele>
        <time>2018-05-19T17:19:41.473Z</time>
      </trkpt>
      <trkpt lat="43.25353333" lon="-4.297505">
        <ele>480.0</ele>
        <time>2018-05-19T17:19:42.472Z</time>
      </trkpt>
      <trkpt lat="43.25353333" lon="-4.297505">
        <ele>480.0</ele>
        <time>2018-05-19T17:19:43.467Z</time>
      </trkpt>
      <trkpt lat="43.25353333" lon="-4.29765333">
        <ele>480.0</ele>
        <time>2018-05-19T17:19:44.471Z</time>
      </trkpt>
      <trkpt lat="43.25352167" lon="-4.29772">
        <ele>480.0</ele>
        <time>2018-05-19T17:19:45.469Z</time>
      </trkpt>
      <trkpt lat="43.25352167" lon="-4.29772">
        <ele>480.0</ele>
        <time>2018-05-19T17:19:46.468Z</time>
      </trkpt>
      <trkpt lat="43.25352667" lon="-4.29783">
        <ele>479.0</ele>
        <time>2018-05-19T17:19:47.470Z</time>
      </trkpt>
      <trkpt lat="43.253555" lon="-4.29785">
        <ele>478.0</ele>
        <time>2018-05-19T17:19:48.467Z</time>
      </trkpt>
      <trkpt lat="43.253555" lon="-4.29785">
        <ele>478.0</ele>
        <time>2018-05-19T17:19:49.467Z</time>
      </trkpt>
      <trkpt lat="43.25362333" lon="-4.297805">
        <ele>477.0</ele>
        <time>2018-05-19T17:19:50.469Z</time>
      </trkpt>
      <trkpt lat="43.25362333" lon="-4.297805">
        <ele>477.0</ele>
        <time>2018-05-19T17:19:51.468Z</time>
      </trkpt>
      <trkpt lat="43.253665" lon="-4.29769333">
        <ele>477.0</ele>
        <time>2018-05-19T17:19:52.472Z</time>
      </trkpt>
      <trkpt lat="43.253665" lon="-4.29769333">
        <ele>477.0</ele>
        <time>2018-05-19T17:19:53.468Z</time>
      </trkpt>
      <trkpt lat="43.25371167" lon="-4.29755333">
        <ele>477.0</ele>
        <time>2018-05-19T17:19:54.471Z</time>
      </trkpt>
      <trkpt lat="43.25371167" lon="-4.29755333">
        <ele>477.0</ele>
        <time>2018-05-19T17:19:55.468Z</time>
      </trkpt>
      <trkpt lat="43.25376667" lon="-4.29739">
        <ele>476.0</ele>
        <time>2018-05-19T17:19:56.470Z</time>
      </trkpt>
      <trkpt lat="43.25376667" lon="-4.29739">
        <ele>476.0</ele>
        <time>2018-05-19T17:19:57.468Z</time>
      </trkpt>
      <trkpt lat="43.2538" lon="-4.29720167">
        <ele>475.0</ele>
        <time>2018-05-19T17:19:58.469Z</time>
      </trkpt>
      <trkpt lat="43.2538" lon="-4.29720167">
        <ele>475.0</ele>
        <time>2018-05-19T17:19:59.466Z</time>
      </trkpt>
      <trkpt lat="43.25376" lon="-4.297005">
        <ele>474.0</ele>
        <time>2018-05-19T17:20:00.471Z</time>
      </trkpt>
      <trkpt lat="43.25376" lon="-4.297005">
        <ele>474.0</ele>
        <time>2018-05-19T17:20:01.464Z</time>
      </trkpt>
      <trkpt lat="43.25373333" lon="-4.29679167">
        <ele>473.0</ele>
        <time>2018-05-19T17:20:02.470Z</time>
      </trkpt>
      <trkpt lat="43.25373333" lon="-4.29679167">
        <ele>473.0</ele>
        <time>2018-05-19T17:20:03.466Z</time>
      </trkpt>
      <trkpt lat="43.25378" lon="-4.29658833">
        <ele>472.0</ele>
        <time>2018-05-19T17:20:04.469Z</time>
      </trkpt>
      <trkpt lat="43.25378" lon="-4.29658833">
        <ele>472.0</ele>
        <time>2018-05-19T17:20:05.466Z</time>
      </trkpt>
      <trkpt lat="43.25386833" lon="-4.2964">
        <ele>470.0</ele>
        <time>2018-05-19T17:20:06.471Z</time>
      </trkpt>
      <trkpt lat="43.25386833" lon="-4.2964">
        <ele>470.0</ele>
        <time>2018-05-19T17:20:07.468Z</time>
      </trkpt>
      <trkpt lat="43.25401167" lon="-4.29626833">
        <ele>470.0</ele>
        <time>2018-05-19T17:20:08.471Z</time>
      </trkpt>
      <trkpt lat="43.25401167" lon="-4.29626833">
        <ele>470.0</ele>
        <time>2018-05-19T17:20:09.469Z</time>
      </trkpt>
      <trkpt lat="43.25418" lon="-4.296205">
        <ele>469.0</ele>
        <time>2018-05-19T17:20:10.473Z</time>
      </trkpt>
      <trkpt lat="43.25418" lon="-4.296205">
        <ele>469.0</ele>
        <time>2018-05-19T17:20:11.466Z</time>
      </trkpt>
      <trkpt lat="43.25433333" lon="-4.29611333">
        <ele>468.0</ele>
        <time>2018-05-19T17:20:12.470Z</time>
      </trkpt>
      <trkpt lat="43.25433333" lon="-4.29611333">
        <ele>468.0</ele>
        <time>2018-05-19T17:20:13.468Z</time>
      </trkpt>
      <trkpt lat="43.25441" lon="-4.295945">
        <ele>466.0</ele>
        <time>2018-05-19T17:20:14.466Z</time>
      </trkpt>
      <trkpt lat="43.25441" lon="-4.295945">
        <ele>466.0</ele>
        <time>2018-05-19T17:20:15.454Z</time>
      </trkpt>
      <trkpt lat="43.25439167" lon="-4.29574">
        <ele>465.0</ele>
        <time>2018-05-19T17:20:16.481Z</time>
      </trkpt>
      <trkpt lat="43.25439167" lon="-4.29574">
        <ele>465.0</ele>
        <time>2018-05-19T17:20:17.467Z</time>
      </trkpt>
      <trkpt lat="43.25432" lon="-4.29552833">
        <ele>464.0</ele>
        <time>2018-05-19T17:20:18.471Z</time>
      </trkpt>
      <trkpt lat="43.25432" lon="-4.29552833">
        <ele>464.0</ele>
        <time>2018-05-19T17:20:19.464Z</time>
      </trkpt>
      <trkpt lat="43.25423167" lon="-4.29530667">
        <ele>463.0</ele>
        <time>2018-05-19T17:20:20.470Z</time>
      </trkpt>
      <trkpt lat="43.25423167" lon="-4.29530667">
        <ele>463.0</ele>
        <time>2018-05-19T17:20:21.467Z</time>
      </trkpt>
      <trkpt lat="43.25413333" lon="-4.295075">
        <ele>462.0</ele>
        <time>2018-05-19T17:20:22.469Z</time>
      </trkpt>
      <trkpt lat="43.25413333" lon="-4.295075">
        <ele>462.0</ele>
        <time>2018-05-19T17:20:23.471Z</time>
      </trkpt>
      <trkpt lat="43.25403333" lon="-4.29484">
        <ele>460.0</ele>
        <time>2018-05-19T17:20:24.483Z</time>
      </trkpt>
      <trkpt lat="43.25403333" lon="-4.29484">
        <ele>460.0</ele>
        <time>2018-05-19T17:20:25.456Z</time>
      </trkpt>
      <trkpt lat="43.25399833" lon="-4.2946">
        <ele>459.0</ele>
        <time>2018-05-19T17:20:26.463Z</time>
      </trkpt>
      <trkpt lat="43.254015" lon="-4.294475">
        <ele>459.0</ele>
        <time>2018-05-19T17:20:27.469Z</time>
      </trkpt>
      <trkpt lat="43.254015" lon="-4.294475">
        <ele>459.0</ele>
        <time>2018-05-19T17:20:28.464Z</time>
      </trkpt>
      <trkpt lat="43.25401833" lon="-4.294215">
        <ele>457.0</ele>
        <time>2018-05-19T17:20:29.471Z</time>
      </trkpt>
      <trkpt lat="43.25399333" lon="-4.294095">
        <ele>457.0</ele>
        <time>2018-05-19T17:20:30.471Z</time>
      </trkpt>
      <trkpt lat="43.25399333" lon="-4.294095">
        <ele>457.0</ele>
        <time>2018-05-19T17:20:31.467Z</time>
      </trkpt>
      <trkpt lat="43.25393833" lon="-4.29388833">
        <ele>455.0</ele>
        <time>2018-05-19T17:20:32.470Z</time>
      </trkpt>
      <trkpt lat="43.25393833" lon="-4.29388833">
        <ele>455.0</ele>
        <time>2018-05-19T17:20:33.469Z</time>
      </trkpt>
      <trkpt lat="43.253975" lon="-4.29370833">
        <ele>453.0</ele>
        <time>2018-05-19T17:20:34.471Z</time>
      </trkpt>
      <trkpt lat="43.253975" lon="-4.29370833">
        <ele>453.0</ele>
        <time>2018-05-19T17:20:35.469Z</time>
      </trkpt>
      <trkpt lat="43.25407167" lon="-4.29355">
        <ele>452.0</ele>
        <time>2018-05-19T17:20:36.453Z</time>
      </trkpt>
      <trkpt lat="43.25407167" lon="-4.29355">
        <ele>452.0</ele>
        <time>2018-05-19T17:20:37.481Z</time>
      </trkpt>
      <trkpt lat="43.25411667" lon="-4.29334">
        <ele>452.0</ele>
        <time>2018-05-19T17:20:38.469Z</time>
      </trkpt>
      <trkpt lat="43.25411667" lon="-4.29334">
        <ele>452.0</ele>
        <time>2018-05-19T17:20:39.469Z</time>
      </trkpt>
      <trkpt lat="43.25409333" lon="-4.29310667">
        <ele>451.0</ele>
        <time>2018-05-19T17:20:40.451Z</time>
      </trkpt>
      <trkpt lat="43.25409333" lon="-4.29310667">
        <ele>451.0</ele>
        <time>2018-05-19T17:20:41.481Z</time>
      </trkpt>
      <trkpt lat="43.25404667" lon="-4.29286667">
        <ele>450.0</ele>
        <time>2018-05-19T17:20:42.470Z</time>
      </trkpt>
      <trkpt lat="43.25404667" lon="-4.29286667">
        <ele>450.0</ele>
        <time>2018-05-19T17:20:43.463Z</time>
      </trkpt>
      <trkpt lat="43.25398833" lon="-4.29262167">
        <ele>448.0</ele>
        <time>2018-05-19T17:20:44.470Z</time>
      </trkpt>
      <trkpt lat="43.25398833" lon="-4.29262167">
        <ele>448.0</ele>
        <time>2018-05-19T17:20:45.481Z</time>
      </trkpt>
      <trkpt lat="43.25391333" lon="-4.29237333">
        <ele>447.0</ele>
        <time>2018-05-19T17:20:46.473Z</time>
      </trkpt>
      <trkpt lat="43.25391333" lon="-4.29237333">
        <ele>447.0</ele>
        <time>2018-05-19T17:20:47.466Z</time>
      </trkpt>
      <trkpt lat="43.25385833" lon="-4.29211667">
        <ele>446.0</ele>
        <time>2018-05-19T17:20:48.470Z</time>
      </trkpt>
      <trkpt lat="43.25385833" lon="-4.29211667">
        <ele>446.0</ele>
        <time>2018-05-19T17:20:49.468Z</time>
      </trkpt>
      <trkpt lat="43.25380667" lon="-4.291845">
        <ele>444.0</ele>
        <time>2018-05-19T17:20:50.466Z</time>
      </trkpt>
      <trkpt lat="43.25380667" lon="-4.291845">
        <ele>444.0</ele>
        <time>2018-05-19T17:20:51.467Z</time>
      </trkpt>
      <trkpt lat="43.25375167" lon="-4.29158333">
        <ele>442.0</ele>
        <time>2018-05-19T17:20:52.466Z</time>
      </trkpt>
      <trkpt lat="43.25372833" lon="-4.29145833">
        <ele>440.0</ele>
        <time>2018-05-19T17:20:53.470Z</time>
      </trkpt>
      <trkpt lat="43.25372833" lon="-4.29145833">
        <ele>440.0</ele>
        <time>2018-05-19T17:20:54.469Z</time>
      </trkpt>
      <trkpt lat="43.25373667" lon="-4.29118667">
        <ele>439.0</ele>
        <time>2018-05-19T17:20:55.471Z</time>
      </trkpt>
      <trkpt lat="43.25375833" lon="-4.29104333">
        <ele>437.0</ele>
        <time>2018-05-19T17:20:56.470Z</time>
      </trkpt>
      <trkpt lat="43.25375833" lon="-4.29104333">
        <ele>437.0</ele>
        <time>2018-05-19T17:20:57.468Z</time>
      </trkpt>
      <trkpt lat="43.25379833" lon="-4.29075333">
        <ele>435.0</ele>
        <time>2018-05-19T17:20:58.482Z</time>
      </trkpt>
      <trkpt lat="43.25381667" lon="-4.29062">
        <ele>434.0</ele>
        <time>2018-05-19T17:20:59.469Z</time>
      </trkpt>
      <trkpt lat="43.25384" lon="-4.29049">
        <ele>433.0</ele>
        <time>2018-05-19T17:21:00.466Z</time>
      </trkpt>
      <trkpt lat="43.25384" lon="-4.29049">
        <ele>433.0</ele>
        <time>2018-05-19T17:21:01.464Z</time>
      </trkpt>
      <trkpt lat="43.25390667" lon="-4.29025667">
        <ele>431.0</ele>
        <time>2018-05-19T17:21:02.466Z</time>
      </trkpt>
      <trkpt lat="43.25390667" lon="-4.29025667">
        <ele>431.0</ele>
        <time>2018-05-19T17:21:03.468Z</time>
      </trkpt>
      <trkpt lat="43.253965" lon="-4.29005">
        <ele>429.0</ele>
        <time>2018-05-19T17:21:04.470Z</time>
      </trkpt>
      <trkpt lat="43.253965" lon="-4.29005">
        <ele>429.0</ele>
        <time>2018-05-19T17:21:05.463Z</time>
      </trkpt>
      <trkpt lat="43.25405333" lon="-4.28988167">
        <ele>428.0</ele>
        <time>2018-05-19T17:21:06.467Z</time>
      </trkpt>
      <trkpt lat="43.25412167" lon="-4.28982">
        <ele>428.0</ele>
        <time>2018-05-19T17:21:07.469Z</time>
      </trkpt>
      <trkpt lat="43.25418833" lon="-4.28975833">
        <ele>427.0</ele>
        <time>2018-05-19T17:21:08.469Z</time>
      </trkpt>
      <trkpt lat="43.25418833" lon="-4.28975833">
        <ele>427.0</ele>
        <time>2018-05-19T17:21:09.468Z</time>
      </trkpt>
      <trkpt lat="43.25433333" lon="-4.28960833">
        <ele>425.0</ele>
        <time>2018-05-19T17:21:10.486Z</time>
      </trkpt>
      <trkpt lat="43.25441167" lon="-4.289525">
        <ele>423.0</ele>
        <time>2018-05-19T17:21:11.476Z</time>
      </trkpt>
      <trkpt lat="43.25441167" lon="-4.289525">
        <ele>423.0</ele>
        <time>2018-05-19T17:21:12.468Z</time>
      </trkpt>
      <trkpt lat="43.25458167" lon="-4.28936167">
        <ele>422.0</ele>
        <time>2018-05-19T17:21:13.470Z</time>
      </trkpt>
      <trkpt lat="43.25458167" lon="-4.28936167">
        <ele>422.0</ele>
        <time>2018-05-19T17:21:14.459Z</time>
      </trkpt>
      <trkpt lat="43.25475667" lon="-4.28918833">
        <ele>420.0</ele>
        <time>2018-05-19T17:21:15.476Z</time>
      </trkpt>
      <trkpt lat="43.25475667" lon="-4.28918833">
        <ele>420.0</ele>
        <time>2018-05-19T17:21:16.466Z</time>
      </trkpt>
      <trkpt lat="43.25493" lon="-4.28901167">
        <ele>420.0</ele>
        <time>2018-05-19T17:21:17.469Z</time>
      </trkpt>
      <trkpt lat="43.25501333" lon="-4.28891833">
        <ele>419.0</ele>
        <time>2018-05-19T17:21:18.467Z</time>
      </trkpt>
      <trkpt lat="43.25501333" lon="-4.28891833">
        <ele>419.0</ele>
        <time>2018-05-19T17:21:19.468Z</time>
      </trkpt>
      <trkpt lat="43.25517167" lon="-4.28872167">
        <ele>418.0</ele>
        <time>2018-05-19T17:21:20.472Z</time>
      </trkpt>
      <trkpt lat="43.25517167" lon="-4.28872167">
        <ele>418.0</ele>
        <time>2018-05-19T17:21:21.468Z</time>
      </trkpt>
      <trkpt lat="43.25532833" lon="-4.28851833">
        <ele>416.0</ele>
        <time>2018-05-19T17:21:22.472Z</time>
      </trkpt>
      <trkpt lat="43.25532833" lon="-4.28851833">
        <ele>416.0</ele>
        <time>2018-05-19T17:21:23.462Z</time>
      </trkpt>
      <trkpt lat="43.25549333" lon="-4.28832333">
        <ele>414.0</ele>
        <time>2018-05-19T17:21:24.473Z</time>
      </trkpt>
      <trkpt lat="43.25549333" lon="-4.28832333">
        <ele>414.0</ele>
        <time>2018-05-19T17:21:25.480Z</time>
      </trkpt>
      <trkpt lat="43.25566833" lon="-4.28815167">
        <ele>413.0</ele>
        <time>2018-05-19T17:21:26.485Z</time>
      </trkpt>
      <trkpt lat="43.255755" lon="-4.28807167">
        <ele>413.0</ele>
        <time>2018-05-19T17:21:27.471Z</time>
      </trkpt>
      <trkpt lat="43.255755" lon="-4.28807167">
        <ele>413.0</ele>
        <time>2018-05-19T17:21:28.463Z</time>
      </trkpt>
      <trkpt lat="43.25593" lon="-4.28792333">
        <ele>411.0</ele>
        <time>2018-05-19T17:21:29.471Z</time>
      </trkpt>
      <trkpt lat="43.256015" lon="-4.287845">
        <ele>411.0</ele>
        <time>2018-05-19T17:21:30.477Z</time>
      </trkpt>
      <trkpt lat="43.256015" lon="-4.287845">
        <ele>411.0</ele>
        <time>2018-05-19T17:21:31.467Z</time>
      </trkpt>
      <trkpt lat="43.256155" lon="-4.28764833">
        <ele>409.0</ele>
        <time>2018-05-19T17:21:32.470Z</time>
      </trkpt>
      <trkpt lat="43.256155" lon="-4.28764833">
        <ele>409.0</ele>
        <time>2018-05-19T17:21:33.467Z</time>
      </trkpt>
      <trkpt lat="43.25627833" lon="-4.28744167">
        <ele>408.0</ele>
        <time>2018-05-19T17:21:34.469Z</time>
      </trkpt>
      <trkpt lat="43.25634667" lon="-4.287355">
        <ele>407.0</ele>
        <time>2018-05-19T17:21:35.470Z</time>
      </trkpt>
      <trkpt lat="43.25634667" lon="-4.287355">
        <ele>407.0</ele>
        <time>2018-05-19T17:21:36.488Z</time>
      </trkpt>
      <trkpt lat="43.256465" lon="-4.28719333">
        <ele>406.0</ele>
        <time>2018-05-19T17:21:37.476Z</time>
      </trkpt>
      <trkpt lat="43.25651167" lon="-4.28712667">
        <ele>406.0</ele>
        <time>2018-05-19T17:21:38.469Z</time>
      </trkpt>
      <trkpt lat="43.25651167" lon="-4.28712667">
        <ele>406.0</ele>
        <time>2018-05-19T17:21:39.464Z</time>
      </trkpt>
      <trkpt lat="43.25659333" lon="-4.28706333">
        <ele>405.0</ele>
        <time>2018-05-19T17:21:40.470Z</time>
      </trkpt>
      <trkpt lat="43.25659333" lon="-4.28706333">
        <ele>405.0</ele>
        <time>2018-05-19T17:21:41.466Z</time>
      </trkpt>
      <trkpt lat="43.256625" lon="-4.28715167">
        <ele>404.0</ele>
        <time>2018-05-19T17:21:42.471Z</time>
      </trkpt>
      <trkpt lat="43.256625" lon="-4.28715167">
        <ele>404.0</ele>
        <time>2018-05-19T17:21:43.465Z</time>
      </trkpt>
      <trkpt lat="43.25659" lon="-4.287295">
        <ele>403.0</ele>
        <time>2018-05-19T17:21:44.471Z</time>
      </trkpt>
      <trkpt lat="43.25659" lon="-4.287295">
        <ele>403.0</ele>
        <time>2018-05-19T17:21:45.468Z</time>
      </trkpt>
      <trkpt lat="43.25653" lon="-4.28747167">
        <ele>402.0</ele>
        <time>2018-05-19T17:21:46.469Z</time>
      </trkpt>
      <trkpt lat="43.25650167" lon="-4.28756833">
        <ele>402.0</ele>
        <time>2018-05-19T17:21:47.469Z</time>
      </trkpt>
      <trkpt lat="43.25647" lon="-4.28767">
        <ele>401.0</ele>
        <time>2018-05-19T17:21:48.471Z</time>
      </trkpt>
      <trkpt lat="43.25647" lon="-4.28767">
        <ele>401.0</ele>
        <time>2018-05-19T17:21:49.466Z</time>
      </trkpt>
      <trkpt lat="43.25640333" lon="-4.28788833">
        <ele>400.0</ele>
        <time>2018-05-19T17:21:50.466Z</time>
      </trkpt>
      <trkpt lat="43.25640333" lon="-4.28788833">
        <ele>400.0</ele>
        <time>2018-05-19T17:21:51.467Z</time>
      </trkpt>
      <trkpt lat="43.256345" lon="-4.28813">
        <ele>399.0</ele>
        <time>2018-05-19T17:21:52.469Z</time>
      </trkpt>
      <trkpt lat="43.256345" lon="-4.28813">
        <ele>399.0</ele>
        <time>2018-05-19T17:21:53.467Z</time>
      </trkpt>
      <trkpt lat="43.256295" lon="-4.28838667">
        <ele>397.0</ele>
        <time>2018-05-19T17:21:54.471Z</time>
      </trkpt>
      <trkpt lat="43.256295" lon="-4.28838667">
        <ele>397.0</ele>
        <time>2018-05-19T17:21:55.468Z</time>
      </trkpt>
      <trkpt lat="43.25627667" lon="-4.28864333">
        <ele>396.0</ele>
        <time>2018-05-19T17:21:56.469Z</time>
      </trkpt>
      <trkpt lat="43.25626333" lon="-4.28876667">
        <ele>395.0</ele>
        <time>2018-05-19T17:21:57.471Z</time>
      </trkpt>
      <trkpt lat="43.25626333" lon="-4.28876667">
        <ele>395.0</ele>
        <time>2018-05-19T17:21:58.468Z</time>
      </trkpt>
      <trkpt lat="43.256185" lon="-4.28897667">
        <ele>393.0</ele>
        <time>2018-05-19T17:21:59.469Z</time>
      </trkpt>
      <trkpt lat="43.25611833" lon="-4.28905">
        <ele>392.0</ele>
        <time>2018-05-19T17:22:00.470Z</time>
      </trkpt>
      <trkpt lat="43.25611833" lon="-4.28905">
        <ele>392.0</ele>
        <time>2018-05-19T17:22:01.465Z</time>
      </trkpt>
      <trkpt lat="43.25599333" lon="-4.289235">
        <ele>391.0</ele>
        <time>2018-05-19T17:22:02.486Z</time>
      </trkpt>
      <trkpt lat="43.25599333" lon="-4.289235">
        <ele>391.0</ele>
        <time>2018-05-19T17:22:03.471Z</time>
      </trkpt>
      <trkpt lat="43.25595" lon="-4.28948167">
        <ele>390.0</ele>
        <time>2018-05-19T17:22:04.466Z</time>
      </trkpt>
      <trkpt lat="43.25595" lon="-4.28948167">
        <ele>390.0</ele>
        <time>2018-05-19T17:22:05.466Z</time>
      </trkpt>
      <trkpt lat="43.25597667" lon="-4.28974">
        <ele>388.0</ele>
        <time>2018-05-19T17:22:06.457Z</time>
      </trkpt>
      <trkpt lat="43.25597667" lon="-4.28974">
        <ele>388.0</ele>
        <time>2018-05-19T17:22:07.485Z</time>
      </trkpt>
      <trkpt lat="43.25602667" lon="-4.289955">
        <ele>387.0</ele>
        <time>2018-05-19T17:22:08.472Z</time>
      </trkpt>
      <trkpt lat="43.25602667" lon="-4.289955">
        <ele>387.0</ele>
        <time>2018-05-19T17:22:09.470Z</time>
      </trkpt>
      <trkpt lat="43.25606167" lon="-4.29013167">
        <ele>385.0</ele>
        <time>2018-05-19T17:22:10.472Z</time>
      </trkpt>
      <trkpt lat="43.25606167" lon="-4.29013167">
        <ele>385.0</ele>
        <time>2018-05-19T17:22:11.470Z</time>
      </trkpt>
      <trkpt lat="43.25613833" lon="-4.29028667">
        <ele>383.0</ele>
        <time>2018-05-19T17:22:12.470Z</time>
      </trkpt>
      <trkpt lat="43.25613833" lon="-4.29028667">
        <ele>383.0</ele>
        <time>2018-05-19T17:22:13.463Z</time>
      </trkpt>
      <trkpt lat="43.25626333" lon="-4.29043667">
        <ele>381.0</ele>
        <time>2018-05-19T17:22:14.470Z</time>
      </trkpt>
      <trkpt lat="43.25626333" lon="-4.29043667">
        <ele>381.0</ele>
        <time>2018-05-19T17:22:15.467Z</time>
      </trkpt>
      <trkpt lat="43.256435" lon="-4.290545">
        <ele>379.0</ele>
        <time>2018-05-19T17:22:16.466Z</time>
      </trkpt>
      <trkpt lat="43.25653" lon="-4.29058833">
        <ele>378.0</ele>
        <time>2018-05-19T17:22:17.470Z</time>
      </trkpt>
      <trkpt lat="43.25662833" lon="-4.29064333">
        <ele>378.0</ele>
        <time>2018-05-19T17:22:18.470Z</time>
      </trkpt>
      <trkpt lat="43.25672333" lon="-4.29070667">
        <ele>377.0</ele>
        <time>2018-05-19T17:22:19.470Z</time>
      </trkpt>
      <trkpt lat="43.25672333" lon="-4.29070667">
        <ele>377.0</ele>
        <time>2018-05-19T17:22:20.466Z</time>
      </trkpt>
      <trkpt lat="43.25691" lon="-4.29087833">
        <ele>375.0</ele>
        <time>2018-05-19T17:22:21.469Z</time>
      </trkpt>
      <trkpt lat="43.25691" lon="-4.29087833">
        <ele>375.0</ele>
        <time>2018-05-19T17:22:22.464Z</time>
      </trkpt>
      <trkpt lat="43.25709167" lon="-4.291075">
        <ele>373.0</ele>
        <time>2018-05-19T17:22:23.461Z</time>
      </trkpt>
      <trkpt lat="43.25709167" lon="-4.291075">
        <ele>373.0</ele>
        <time>2018-05-19T17:22:24.473Z</time>
      </trkpt>
      <trkpt lat="43.25726333" lon="-4.29128667">
        <ele>372.0</ele>
        <time>2018-05-19T17:22:25.479Z</time>
      </trkpt>
      <trkpt lat="43.25726333" lon="-4.29128667">
        <ele>372.0</ele>
        <time>2018-05-19T17:22:26.485Z</time>
      </trkpt>
      <trkpt lat="43.25741833" lon="-4.29150167">
        <ele>370.0</ele>
        <time>2018-05-19T17:22:27.470Z</time>
      </trkpt>
      <trkpt lat="43.257495" lon="-4.29160167">
        <ele>368.0</ele>
        <time>2018-05-19T17:22:28.470Z</time>
      </trkpt>
      <trkpt lat="43.257495" lon="-4.29160167">
        <ele>368.0</ele>
        <time>2018-05-19T17:22:29.466Z</time>
      </trkpt>
      <trkpt lat="43.25765333" lon="-4.291785">
        <ele>366.0</ele>
        <time>2018-05-19T17:22:30.484Z</time>
      </trkpt>
      <trkpt lat="43.25765333" lon="-4.291785">
        <ele>366.0</ele>
        <time>2018-05-19T17:22:31.470Z</time>
      </trkpt>
      <trkpt lat="43.25783" lon="-4.29193667">
        <ele>364.0</ele>
        <time>2018-05-19T17:22:32.470Z</time>
      </trkpt>
      <trkpt lat="43.25783" lon="-4.29193667">
        <ele>364.0</ele>
        <time>2018-05-19T17:22:33.465Z</time>
      </trkpt>
      <trkpt lat="43.25803333" lon="-4.29203833">
        <ele>362.0</ele>
        <time>2018-05-19T17:22:34.471Z</time>
      </trkpt>
      <trkpt lat="43.25813167" lon="-4.2921">
        <ele>361.0</ele>
        <time>2018-05-19T17:22:35.471Z</time>
      </trkpt>
      <trkpt lat="43.258225" lon="-4.29218333">
        <ele>359.0</ele>
        <time>2018-05-19T17:22:36.465Z</time>
      </trkpt>
      <trkpt lat="43.258225" lon="-4.29218333">
        <ele>359.0</ele>
        <time>2018-05-19T17:22:37.466Z</time>
      </trkpt>
      <trkpt lat="43.25838" lon="-4.292405">
        <ele>358.0</ele>
        <time>2018-05-19T17:22:38.466Z</time>
      </trkpt>
      <trkpt lat="43.25838" lon="-4.292405">
        <ele>358.0</ele>
        <time>2018-05-19T17:22:39.460Z</time>
      </trkpt>
      <trkpt lat="43.258515" lon="-4.29264167">
        <ele>357.0</ele>
        <time>2018-05-19T17:22:40.482Z</time>
      </trkpt>
      <trkpt lat="43.258515" lon="-4.29264167">
        <ele>357.0</ele>
        <time>2018-05-19T17:22:41.472Z</time>
      </trkpt>
      <trkpt lat="43.25866" lon="-4.29285833">
        <ele>356.0</ele>
        <time>2018-05-19T17:22:42.470Z</time>
      </trkpt>
      <trkpt lat="43.25866" lon="-4.29285833">
        <ele>356.0</ele>
        <time>2018-05-19T17:22:43.460Z</time>
      </trkpt>
      <trkpt lat="43.25879667" lon="-4.29307167">
        <ele>354.0</ele>
        <time>2018-05-19T17:22:44.483Z</time>
      </trkpt>
      <trkpt lat="43.25879667" lon="-4.29307167">
        <ele>354.0</ele>
        <time>2018-05-19T17:22:45.469Z</time>
      </trkpt>
      <trkpt lat="43.258925" lon="-4.293315">
        <ele>353.0</ele>
        <time>2018-05-19T17:22:46.468Z</time>
      </trkpt>
      <trkpt lat="43.258925" lon="-4.293315">
        <ele>353.0</ele>
        <time>2018-05-19T17:22:47.472Z</time>
      </trkpt>
      <trkpt lat="43.25906167" lon="-4.29354667">
        <ele>350.0</ele>
        <time>2018-05-19T17:22:48.471Z</time>
      </trkpt>
      <trkpt lat="43.25906167" lon="-4.29354667">
        <ele>350.0</ele>
        <time>2018-05-19T17:22:49.467Z</time>
      </trkpt>
      <trkpt lat="43.2592" lon="-4.29370833">
        <ele>348.0</ele>
        <time>2018-05-19T17:22:50.468Z</time>
      </trkpt>
      <trkpt lat="43.2592" lon="-4.29370833">
        <ele>348.0</ele>
        <time>2018-05-19T17:22:51.466Z</time>
      </trkpt>
      <trkpt lat="43.25934667" lon="-4.293805">
        <ele>346.0</ele>
        <time>2018-05-19T17:22:52.466Z</time>
      </trkpt>
      <trkpt lat="43.259415" lon="-4.29385833">
        <ele>344.0</ele>
        <time>2018-05-19T17:22:53.470Z</time>
      </trkpt>
      <trkpt lat="43.259415" lon="-4.29385833">
        <ele>344.0</ele>
        <time>2018-05-19T17:22:54.464Z</time>
      </trkpt>
      <trkpt lat="43.25951333" lon="-4.294045">
        <ele>342.0</ele>
        <time>2018-05-19T17:22:55.470Z</time>
      </trkpt>
      <trkpt lat="43.25953167" lon="-4.29417833">
        <ele>342.0</ele>
        <time>2018-05-19T17:22:56.468Z</time>
      </trkpt>
      <trkpt lat="43.25953167" lon="-4.29417833">
        <ele>342.0</ele>
        <time>2018-05-19T17:22:57.462Z</time>
      </trkpt>
      <trkpt lat="43.259565" lon="-4.29443833">
        <ele>338.0</ele>
        <time>2018-05-19T17:22:58.472Z</time>
      </trkpt>
      <trkpt lat="43.25959333" lon="-4.29455833">
        <ele>336.0</ele>
        <time>2018-05-19T17:22:59.473Z</time>
      </trkpt>
      <trkpt lat="43.25959333" lon="-4.29455833">
        <ele>336.0</ele>
        <time>2018-05-19T17:23:00.466Z</time>
      </trkpt>
      <trkpt lat="43.25966167" lon="-4.29478333">
        <ele>333.0</ele>
        <time>2018-05-19T17:23:01.469Z</time>
      </trkpt>
      <trkpt lat="43.25966167" lon="-4.29478333">
        <ele>333.0</ele>
        <time>2018-05-19T17:23:02.463Z</time>
      </trkpt>
      <trkpt lat="43.25976" lon="-4.29494667">
        <ele>331.0</ele>
        <time>2018-05-19T17:23:03.468Z</time>
      </trkpt>
      <trkpt lat="43.25976" lon="-4.29494667">
        <ele>331.0</ele>
        <time>2018-05-19T17:23:04.464Z</time>
      </trkpt>
      <trkpt lat="43.25990833" lon="-4.29499">
        <ele>329.0</ele>
        <time>2018-05-19T17:23:05.466Z</time>
      </trkpt>
      <trkpt lat="43.25990833" lon="-4.29499">
        <ele>329.0</ele>
        <time>2018-05-19T17:23:06.466Z</time>
      </trkpt>
      <trkpt lat="43.26009" lon="-4.29492333">
        <ele>327.0</ele>
        <time>2018-05-19T17:23:07.451Z</time>
      </trkpt>
      <trkpt lat="43.26018333" lon="-4.29488333">
        <ele>326.0</ele>
        <time>2018-05-19T17:23:08.480Z</time>
      </trkpt>
      <trkpt lat="43.26018333" lon="-4.29488333">
        <ele>326.0</ele>
        <time>2018-05-19T17:23:09.467Z</time>
      </trkpt>
      <trkpt lat="43.26036833" lon="-4.29480167">
        <ele>324.0</ele>
        <time>2018-05-19T17:23:10.470Z</time>
      </trkpt>
      <trkpt lat="43.26036833" lon="-4.29480167">
        <ele>324.0</ele>
        <time>2018-05-19T17:23:11.466Z</time>
      </trkpt>
      <trkpt lat="43.26054" lon="-4.294675">
        <ele>322.0</ele>
        <time>2018-05-19T17:23:12.472Z</time>
      </trkpt>
      <trkpt lat="43.26054" lon="-4.294675">
        <ele>322.0</ele>
        <time>2018-05-19T17:23:13.467Z</time>
      </trkpt>
      <trkpt lat="43.26064167" lon="-4.29446833">
        <ele>320.0</ele>
        <time>2018-05-19T17:23:14.469Z</time>
      </trkpt>
      <trkpt lat="43.26064167" lon="-4.29446833">
        <ele>320.0</ele>
        <time>2018-05-19T17:23:15.468Z</time>
      </trkpt>
      <trkpt lat="43.26071833" lon="-4.294225">
        <ele>317.0</ele>
        <time>2018-05-19T17:23:16.467Z</time>
      </trkpt>
      <trkpt lat="43.26071833" lon="-4.294225">
        <ele>317.0</ele>
        <time>2018-05-19T17:23:17.473Z</time>
      </trkpt>
      <trkpt lat="43.26085167" lon="-4.29399167">
        <ele>315.0</ele>
        <time>2018-05-19T17:23:18.470Z</time>
      </trkpt>
      <trkpt lat="43.26091333" lon="-4.293885">
        <ele>313.0</ele>
        <time>2018-05-19T17:23:19.471Z</time>
      </trkpt>
      <trkpt lat="43.26095833" lon="-4.29378">
        <ele>313.0</ele>
        <time>2018-05-19T17:23:20.468Z</time>
      </trkpt>
      <trkpt lat="43.26095833" lon="-4.29378">
        <ele>313.0</ele>
        <time>2018-05-19T17:23:21.467Z</time>
      </trkpt>
      <trkpt lat="43.260965" lon="-4.29358">
        <ele>311.0</ele>
        <time>2018-05-19T17:23:22.467Z</time>
      </trkpt>
      <trkpt lat="43.260965" lon="-4.29358">
        <ele>311.0</ele>
        <time>2018-05-19T17:23:23.452Z</time>
      </trkpt>
      <trkpt lat="43.26088833" lon="-4.29342">
        <ele>310.0</ele>
        <time>2018-05-19T17:23:24.464Z</time>
      </trkpt>
      <trkpt lat="43.26088833" lon="-4.29342">
        <ele>310.0</ele>
        <time>2018-05-19T17:23:25.470Z</time>
      </trkpt>
      <trkpt lat="43.26074333" lon="-4.29334">
        <ele>308.0</ele>
        <time>2018-05-19T17:23:26.476Z</time>
      </trkpt>
      <trkpt lat="43.26074333" lon="-4.29334">
        <ele>308.0</ele>
        <time>2018-05-19T17:23:27.465Z</time>
      </trkpt>
      <trkpt lat="43.26060833" lon="-4.29333833">
        <ele>305.0</ele>
        <time>2018-05-19T17:23:28.470Z</time>
      </trkpt>
      <trkpt lat="43.26060833" lon="-4.29333833">
        <ele>305.0</ele>
        <time>2018-05-19T17:23:29.465Z</time>
      </trkpt>
      <trkpt lat="43.26054167" lon="-4.29323167">
        <ele>303.0</ele>
        <time>2018-05-19T17:23:30.470Z</time>
      </trkpt>
      <trkpt lat="43.26054167" lon="-4.29323167">
        <ele>303.0</ele>
        <time>2018-05-19T17:23:31.463Z</time>
      </trkpt>
      <trkpt lat="43.26060833" lon="-4.29311167">
        <ele>301.0</ele>
        <time>2018-05-19T17:23:32.469Z</time>
      </trkpt>
      <trkpt lat="43.26060833" lon="-4.29311167">
        <ele>301.0</ele>
        <time>2018-05-19T17:23:33.464Z</time>
      </trkpt>
      <trkpt lat="43.26074833" lon="-4.293065">
        <ele>299.0</ele>
        <time>2018-05-19T17:23:34.470Z</time>
      </trkpt>
      <trkpt lat="43.26074833" lon="-4.293065">
        <ele>299.0</ele>
        <time>2018-05-19T17:23:35.466Z</time>
      </trkpt>
      <trkpt lat="43.26091167" lon="-4.29307667">
        <ele>297.0</ele>
        <time>2018-05-19T17:23:36.458Z</time>
      </trkpt>
      <trkpt lat="43.26091167" lon="-4.29307667">
        <ele>297.0</ele>
        <time>2018-05-19T17:23:37.482Z</time>
      </trkpt>
      <trkpt lat="43.261095" lon="-4.293145">
        <ele>296.0</ele>
        <time>2018-05-19T17:23:38.469Z</time>
      </trkpt>
      <trkpt lat="43.261095" lon="-4.293145">
        <ele>296.0</ele>
        <time>2018-05-19T17:23:39.459Z</time>
      </trkpt>
      <trkpt lat="43.261275" lon="-4.29325167">
        <ele>294.0</ele>
        <time>2018-05-19T17:23:40.482Z</time>
      </trkpt>
      <trkpt lat="43.26135667" lon="-4.29332167">
        <ele>294.0</ele>
        <time>2018-05-19T17:23:41.471Z</time>
      </trkpt>
      <trkpt lat="43.26142667" lon="-4.29342167">
        <ele>293.0</ele>
        <time>2018-05-19T17:23:42.471Z</time>
      </trkpt>
      <trkpt lat="43.26142667" lon="-4.29342167">
        <ele>293.0</ele>
        <time>2018-05-19T17:23:43.462Z</time>
      </trkpt>
      <trkpt lat="43.26156" lon="-4.293645">
        <ele>291.0</ele>
        <time>2018-05-19T17:23:44.470Z</time>
      </trkpt>
      <trkpt lat="43.26156" lon="-4.293645">
        <ele>291.0</ele>
        <time>2018-05-19T17:23:45.466Z</time>
      </trkpt>
      <trkpt lat="43.26169" lon="-4.29384833">
        <ele>289.0</ele>
        <time>2018-05-19T17:23:46.472Z</time>
      </trkpt>
      <trkpt lat="43.26169" lon="-4.29384833">
        <ele>289.0</ele>
        <time>2018-05-19T17:23:47.465Z</time>
      </trkpt>
      <trkpt lat="43.261815" lon="-4.294015">
        <ele>288.0</ele>
        <time>2018-05-19T17:23:48.469Z</time>
      </trkpt>
      <trkpt lat="43.261815" lon="-4.294015">
        <ele>288.0</ele>
        <time>2018-05-19T17:23:49.464Z</time>
      </trkpt>
      <trkpt lat="43.26194333" lon="-4.29411333">
        <ele>286.0</ele>
        <time>2018-05-19T17:23:50.469Z</time>
      </trkpt>
      <trkpt lat="43.26194333" lon="-4.29411333">
        <ele>286.0</ele>
        <time>2018-05-19T17:23:51.466Z</time>
      </trkpt>
      <trkpt lat="43.26208833" lon="-4.29411833">
        <ele>284.0</ele>
        <time>2018-05-19T17:23:52.467Z</time>
      </trkpt>
      <trkpt lat="43.26208833" lon="-4.29411833">
        <ele>284.0</ele>
        <time>2018-05-19T17:23:53.465Z</time>
      </trkpt>
      <trkpt lat="43.26227833" lon="-4.29399167">
        <ele>281.0</ele>
        <time>2018-05-19T17:23:54.469Z</time>
      </trkpt>
      <trkpt lat="43.26227833" lon="-4.29399167">
        <ele>281.0</ele>
        <time>2018-05-19T17:23:55.466Z</time>
      </trkpt>
      <trkpt lat="43.26242" lon="-4.29382333">
        <ele>278.0</ele>
        <time>2018-05-19T17:23:56.468Z</time>
      </trkpt>
      <trkpt lat="43.26247833" lon="-4.29370167">
        <ele>276.0</ele>
        <time>2018-05-19T17:23:57.470Z</time>
      </trkpt>
      <trkpt lat="43.26247833" lon="-4.29370167">
        <ele>276.0</ele>
        <time>2018-05-19T17:23:58.466Z</time>
      </trkpt>
      <trkpt lat="43.26258833" lon="-4.293425">
        <ele>274.0</ele>
        <time>2018-05-19T17:23:59.468Z</time>
      </trkpt>
      <trkpt lat="43.26265667" lon="-4.293285">
        <ele>273.0</ele>
        <time>2018-05-19T17:24:00.467Z</time>
      </trkpt>
      <trkpt lat="43.26265667" lon="-4.293285">
        <ele>273.0</ele>
        <time>2018-05-19T17:24:01.464Z</time>
      </trkpt>
      <trkpt lat="43.26277167" lon="-4.29301333">
        <ele>270.0</ele>
        <time>2018-05-19T17:24:02.470Z</time>
      </trkpt>
      <trkpt lat="43.26277167" lon="-4.29301333">
        <ele>270.0</ele>
        <time>2018-05-19T17:24:03.464Z</time>
      </trkpt>
      <trkpt lat="43.26288333" lon="-4.29274333">
        <ele>268.0</ele>
        <time>2018-05-19T17:24:04.475Z</time>
      </trkpt>
      <trkpt lat="43.26288333" lon="-4.29274333">
        <ele>268.0</ele>
        <time>2018-05-19T17:24:05.462Z</time>
      </trkpt>
      <trkpt lat="43.26298333" lon="-4.29250667">
        <ele>266.0</ele>
        <time>2018-05-19T17:24:06.471Z</time>
      </trkpt>
      <trkpt lat="43.26298333" lon="-4.29250667">
        <ele>266.0</ele>
        <time>2018-05-19T17:24:07.467Z</time>
      </trkpt>
      <trkpt lat="43.26302667" lon="-4.29225833">
        <ele>263.0</ele>
        <time>2018-05-19T17:24:08.470Z</time>
      </trkpt>
      <trkpt lat="43.26302667" lon="-4.29225833">
        <ele>263.0</ele>
        <time>2018-05-19T17:24:09.467Z</time>
      </trkpt>
      <trkpt lat="43.26305833" lon="-4.29198667">
        <ele>260.0</ele>
        <time>2018-05-19T17:24:10.468Z</time>
      </trkpt>
      <trkpt lat="43.26305833" lon="-4.29198667">
        <ele>260.0</ele>
        <time>2018-05-19T17:24:11.468Z</time>
      </trkpt>
      <trkpt lat="43.26308667" lon="-4.29171667">
        <ele>257.0</ele>
        <time>2018-05-19T17:24:12.471Z</time>
      </trkpt>
      <trkpt lat="43.26308667" lon="-4.29171667">
        <ele>257.0</ele>
        <time>2018-05-19T17:24:13.466Z</time>
      </trkpt>
      <trkpt lat="43.26308167" lon="-4.29143833">
        <ele>252.0</ele>
        <time>2018-05-19T17:24:14.468Z</time>
      </trkpt>
      <trkpt lat="43.26307833" lon="-4.29129167">
        <ele>249.0</ele>
        <time>2018-05-19T17:24:15.471Z</time>
      </trkpt>
      <trkpt lat="43.26307833" lon="-4.29129167">
        <ele>249.0</ele>
        <time>2018-05-19T17:24:16.467Z</time>
      </trkpt>
      <trkpt lat="43.26304833" lon="-4.290995">
        <ele>245.0</ele>
        <time>2018-05-19T17:24:17.469Z</time>
      </trkpt>
      <trkpt lat="43.26301667" lon="-4.29084833">
        <ele>243.0</ele>
        <time>2018-05-19T17:24:18.468Z</time>
      </trkpt>
      <trkpt lat="43.26301667" lon="-4.29084833">
        <ele>243.0</ele>
        <time>2018-05-19T17:24:19.463Z</time>
      </trkpt>
      <trkpt lat="43.26291333" lon="-4.29058167">
        <ele>241.0</ele>
        <time>2018-05-19T17:24:20.471Z</time>
      </trkpt>
      <trkpt lat="43.26291333" lon="-4.29058167">
        <ele>241.0</ele>
        <time>2018-05-19T17:24:21.465Z</time>
      </trkpt>
      <trkpt lat="43.262795" lon="-4.29032333">
        <ele>240.0</ele>
        <time>2018-05-19T17:24:22.469Z</time>
      </trkpt>
      <trkpt lat="43.262795" lon="-4.29032333">
        <ele>240.0</ele>
        <time>2018-05-19T17:24:23.481Z</time>
      </trkpt>
      <trkpt lat="43.26267833" lon="-4.290055">
        <ele>238.0</ele>
        <time>2018-05-19T17:24:24.478Z</time>
      </trkpt>
      <trkpt lat="43.26262" lon="-4.28992">
        <ele>237.0</ele>
        <time>2018-05-19T17:24:25.484Z</time>
      </trkpt>
      <trkpt lat="43.26262" lon="-4.28992">
        <ele>237.0</ele>
        <time>2018-05-19T17:24:26.451Z</time>
      </trkpt>
      <trkpt lat="43.262505" lon="-4.28966333">
        <ele>234.0</ele>
        <time>2018-05-19T17:24:27.483Z</time>
      </trkpt>
      <trkpt lat="43.262505" lon="-4.28966333">
        <ele>234.0</ele>
        <time>2018-05-19T17:24:28.464Z</time>
      </trkpt>
      <trkpt lat="43.26240833" lon="-4.28939667">
        <ele>232.0</ele>
        <time>2018-05-19T17:24:29.469Z</time>
      </trkpt>
      <trkpt lat="43.26240833" lon="-4.28939667">
        <ele>232.0</ele>
        <time>2018-05-19T17:24:30.468Z</time>
      </trkpt>
      <trkpt lat="43.26235" lon="-4.28912">
        <ele>231.0</ele>
        <time>2018-05-19T17:24:31.469Z</time>
      </trkpt>
      <trkpt lat="43.262325" lon="-4.288985">
        <ele>230.0</ele>
        <time>2018-05-19T17:24:32.470Z</time>
      </trkpt>
      <trkpt lat="43.262325" lon="-4.288985">
        <ele>230.0</ele>
        <time>2018-05-19T17:24:33.460Z</time>
      </trkpt>
      <trkpt lat="43.26227" lon="-4.288735">
        <ele>228.0</ele>
        <time>2018-05-19T17:24:34.482Z</time>
      </trkpt>
      <trkpt lat="43.26227" lon="-4.288735">
        <ele>228.0</ele>
        <time>2018-05-19T17:24:35.468Z</time>
      </trkpt>
      <trkpt lat="43.26222833" lon="-4.28847833">
        <ele>226.0</ele>
        <time>2018-05-19T17:24:36.456Z</time>
      </trkpt>
      <trkpt lat="43.26222833" lon="-4.28847833">
        <ele>226.0</ele>
        <time>2018-05-19T17:24:37.482Z</time>
      </trkpt>
      <trkpt lat="43.26222667" lon="-4.28821333">
        <ele>224.0</ele>
        <time>2018-05-19T17:24:38.481Z</time>
      </trkpt>
      <trkpt lat="43.26224333" lon="-4.28808833">
        <ele>223.0</ele>
        <time>2018-05-19T17:24:39.472Z</time>
      </trkpt>
      <trkpt lat="43.26224333" lon="-4.28808833">
        <ele>223.0</ele>
        <time>2018-05-19T17:24:40.464Z</time>
      </trkpt>
      <trkpt lat="43.26230333" lon="-4.28784833">
        <ele>222.0</ele>
        <time>2018-05-19T17:24:41.468Z</time>
      </trkpt>
      <trkpt lat="43.26234167" lon="-4.28773167">
        <ele>221.0</ele>
        <time>2018-05-19T17:24:42.469Z</time>
      </trkpt>
      <trkpt lat="43.26234167" lon="-4.28773167">
        <ele>221.0</ele>
        <time>2018-05-19T17:24:43.463Z</time>
      </trkpt>
      <trkpt lat="43.26241333" lon="-4.2875">
        <ele>220.0</ele>
        <time>2018-05-19T17:24:44.475Z</time>
      </trkpt>
      <trkpt lat="43.26241333" lon="-4.2875">
        <ele>220.0</ele>
        <time>2018-05-19T17:24:45.466Z</time>
      </trkpt>
      <trkpt lat="43.262465" lon="-4.28727667">
        <ele>219.0</ele>
        <time>2018-05-19T17:24:46.468Z</time>
      </trkpt>
      <trkpt lat="43.26248333" lon="-4.28716667">
        <ele>219.0</ele>
        <time>2018-05-19T17:24:47.468Z</time>
      </trkpt>
      <trkpt lat="43.26250167" lon="-4.28705333">
        <ele>219.0</ele>
        <time>2018-05-19T17:24:48.469Z</time>
      </trkpt>
      <trkpt lat="43.26250167" lon="-4.28705333">
        <ele>219.0</ele>
        <time>2018-05-19T17:24:49.467Z</time>
      </trkpt>
      <trkpt lat="43.26252833" lon="-4.28682">
        <ele>218.0</ele>
        <time>2018-05-19T17:24:50.469Z</time>
      </trkpt>
      <trkpt lat="43.26252833" lon="-4.28682">
        <ele>218.0</ele>
        <time>2018-05-19T17:24:51.461Z</time>
      </trkpt>
      <trkpt lat="43.26255667" lon="-4.28658">
        <ele>218.0</ele>
        <time>2018-05-19T17:24:52.471Z</time>
      </trkpt>
      <trkpt lat="43.26255667" lon="-4.28658">
        <ele>218.0</ele>
        <time>2018-05-19T17:24:53.466Z</time>
      </trkpt>
      <trkpt lat="43.26258167" lon="-4.28633167">
        <ele>217.0</ele>
        <time>2018-05-19T17:24:54.470Z</time>
      </trkpt>
      <trkpt lat="43.26258167" lon="-4.28633167">
        <ele>217.0</ele>
        <time>2018-05-19T17:24:55.449Z</time>
      </trkpt>
      <trkpt lat="43.26259667" lon="-4.286075">
        <ele>217.0</ele>
        <time>2018-05-19T17:24:56.480Z</time>
      </trkpt>
      <trkpt lat="43.26259667" lon="-4.286075">
        <ele>217.0</ele>
        <time>2018-05-19T17:24:57.466Z</time>
      </trkpt>
      <trkpt lat="43.26261" lon="-4.28582">
        <ele>216.0</ele>
        <time>2018-05-19T17:24:58.460Z</time>
      </trkpt>
      <trkpt lat="43.26261833" lon="-4.28569333">
        <ele>216.0</ele>
        <time>2018-05-19T17:24:59.471Z</time>
      </trkpt>
      <trkpt lat="43.26262667" lon="-4.28556833">
        <ele>215.0</ele>
        <time>2018-05-19T17:25:00.471Z</time>
      </trkpt>
      <trkpt lat="43.26263833" lon="-4.28544667">
        <ele>215.0</ele>
        <time>2018-05-19T17:25:01.469Z</time>
      </trkpt>
      <trkpt lat="43.26263833" lon="-4.28544667">
        <ele>215.0</ele>
        <time>2018-05-19T17:25:02.467Z</time>
      </trkpt>
      <trkpt lat="43.262665" lon="-4.285195">
        <ele>214.0</ele>
        <time>2018-05-19T17:25:03.485Z</time>
      </trkpt>
      <trkpt lat="43.26267833" lon="-4.28506833">
        <ele>214.0</ele>
        <time>2018-05-19T17:25:04.474Z</time>
      </trkpt>
      <trkpt lat="43.26267833" lon="-4.28506833">
        <ele>214.0</ele>
        <time>2018-05-19T17:25:05.465Z</time>
      </trkpt>
      <trkpt lat="43.26270833" lon="-4.28482167">
        <ele>214.0</ele>
        <time>2018-05-19T17:25:06.470Z</time>
      </trkpt>
      <trkpt lat="43.26270833" lon="-4.28482167">
        <ele>214.0</ele>
        <time>2018-05-19T17:25:07.465Z</time>
      </trkpt>
      <trkpt lat="43.262745" lon="-4.28458333">
        <ele>213.0</ele>
        <time>2018-05-19T17:25:08.480Z</time>
      </trkpt>
      <trkpt lat="43.26276333" lon="-4.28446">
        <ele>213.0</ele>
        <time>2018-05-19T17:25:09.468Z</time>
      </trkpt>
      <trkpt lat="43.26276333" lon="-4.28446">
        <ele>213.0</ele>
        <time>2018-05-19T17:25:10.463Z</time>
      </trkpt>
      <trkpt lat="43.26281167" lon="-4.28420333">
        <ele>212.0</ele>
        <time>2018-05-19T17:25:11.469Z</time>
      </trkpt>
      <trkpt lat="43.26281167" lon="-4.28420333">
        <ele>212.0</ele>
        <time>2018-05-19T17:25:12.467Z</time>
      </trkpt>
      <trkpt lat="43.262885" lon="-4.28394167">
        <ele>211.0</ele>
        <time>2018-05-19T17:25:13.467Z</time>
      </trkpt>
      <trkpt lat="43.262885" lon="-4.28394167">
        <ele>211.0</ele>
        <time>2018-05-19T17:25:14.459Z</time>
      </trkpt>
      <trkpt lat="43.26296833" lon="-4.28368333">
        <ele>211.0</ele>
        <time>2018-05-19T17:25:15.469Z</time>
      </trkpt>
      <trkpt lat="43.26296833" lon="-4.28368333">
        <ele>211.0</ele>
        <time>2018-05-19T17:25:16.473Z</time>
      </trkpt>
      <trkpt lat="43.26306167" lon="-4.28343167">
        <ele>210.0</ele>
        <time>2018-05-19T17:25:17.468Z</time>
      </trkpt>
      <trkpt lat="43.26310833" lon="-4.28330833">
        <ele>210.0</ele>
        <time>2018-05-19T17:25:18.483Z</time>
      </trkpt>
      <trkpt lat="43.26310833" lon="-4.28330833">
        <ele>210.0</ele>
        <time>2018-05-19T17:25:19.469Z</time>
      </trkpt>
      <trkpt lat="43.263215" lon="-4.28307167">
        <ele>210.0</ele>
        <time>2018-05-19T17:25:20.471Z</time>
      </trkpt>
      <trkpt lat="43.263215" lon="-4.28307167">
        <ele>210.0</ele>
        <time>2018-05-19T17:25:21.465Z</time>
      </trkpt>
      <trkpt lat="43.26333333" lon="-4.282845">
        <ele>210.0</ele>
        <time>2018-05-19T17:25:22.470Z</time>
      </trkpt>
      <trkpt lat="43.26333333" lon="-4.282845">
        <ele>210.0</ele>
        <time>2018-05-19T17:25:23.450Z</time>
      </trkpt>
      <trkpt lat="43.26344333" lon="-4.28262833">
        <ele>211.0</ele>
        <time>2018-05-19T17:25:24.464Z</time>
      </trkpt>
      <trkpt lat="43.26349167" lon="-4.28252333">
        <ele>211.0</ele>
        <time>2018-05-19T17:25:25.471Z</time>
      </trkpt>
      <trkpt lat="43.26349167" lon="-4.28252333">
        <ele>211.0</ele>
        <time>2018-05-19T17:25:26.477Z</time>
      </trkpt>
      <trkpt lat="43.26356167" lon="-4.28231667">
        <ele>212.0</ele>
        <time>2018-05-19T17:25:27.468Z</time>
      </trkpt>
      <trkpt lat="43.263585" lon="-4.28221833">
        <ele>212.0</ele>
        <time>2018-05-19T17:25:28.470Z</time>
      </trkpt>
      <trkpt lat="43.263585" lon="-4.28221833">
        <ele>212.0</ele>
        <time>2018-05-19T17:25:29.464Z</time>
      </trkpt>
      <trkpt lat="43.26361833" lon="-4.28201333">
        <ele>212.0</ele>
        <time>2018-05-19T17:25:30.471Z</time>
      </trkpt>
      <trkpt lat="43.26361833" lon="-4.28201333">
        <ele>212.0</ele>
        <time>2018-05-19T17:25:31.463Z</time>
      </trkpt>
      <trkpt lat="43.26364" lon="-4.281815">
        <ele>213.0</ele>
        <time>2018-05-19T17:25:32.466Z</time>
      </trkpt>
      <trkpt lat="43.26364" lon="-4.281815">
        <ele>213.0</ele>
        <time>2018-05-19T17:25:33.463Z</time>
      </trkpt>
      <trkpt lat="43.263645" lon="-4.28162167">
        <ele>214.0</ele>
        <time>2018-05-19T17:25:34.468Z</time>
      </trkpt>
      <trkpt lat="43.263645" lon="-4.28162167">
        <ele>214.0</ele>
        <time>2018-05-19T17:25:35.466Z</time>
      </trkpt>
      <trkpt lat="43.26363833" lon="-4.28144">
        <ele>214.0</ele>
        <time>2018-05-19T17:25:36.486Z</time>
      </trkpt>
      <trkpt lat="43.26362333" lon="-4.28135333">
        <ele>215.0</ele>
        <time>2018-05-19T17:25:37.474Z</time>
      </trkpt>
      <trkpt lat="43.26359833" lon="-4.281275">
        <ele>215.0</ele>
        <time>2018-05-19T17:25:38.470Z</time>
      </trkpt>
      <trkpt lat="43.26359833" lon="-4.281275">
        <ele>215.0</ele>
        <time>2018-05-19T17:25:39.461Z</time>
      </trkpt>
      <trkpt lat="43.263535" lon="-4.28114167">
        <ele>216.0</ele>
        <time>2018-05-19T17:25:40.468Z</time>
      </trkpt>
      <trkpt lat="43.263535" lon="-4.28114167">
        <ele>216.0</ele>
        <time>2018-05-19T17:25:41.466Z</time>
      </trkpt>
      <trkpt lat="43.26347333" lon="-4.281015">
        <ele>216.0</ele>
        <time>2018-05-19T17:25:42.469Z</time>
      </trkpt>
      <trkpt lat="43.26347333" lon="-4.281015">
        <ele>216.0</ele>
        <time>2018-05-19T17:25:43.461Z</time>
      </trkpt>
      <trkpt lat="43.26340833" lon="-4.280885">
        <ele>217.0</ele>
        <time>2018-05-19T17:25:44.470Z</time>
      </trkpt>
      <trkpt lat="43.26340833" lon="-4.280885">
        <ele>217.0</ele>
        <time>2018-05-19T17:25:45.466Z</time>
      </trkpt>
      <trkpt lat="43.26332833" lon="-4.280745">
        <ele>217.0</ele>
        <time>2018-05-19T17:25:46.470Z</time>
      </trkpt>
      <trkpt lat="43.26332833" lon="-4.280745">
        <ele>217.0</ele>
        <time>2018-05-19T17:25:47.467Z</time>
      </trkpt>
      <trkpt lat="43.26323667" lon="-4.28057833">
        <ele>216.0</ele>
        <time>2018-05-19T17:25:48.473Z</time>
      </trkpt>
      <trkpt lat="43.26323667" lon="-4.28057833">
        <ele>216.0</ele>
        <time>2018-05-19T17:25:49.461Z</time>
      </trkpt>
      <trkpt lat="43.26314333" lon="-4.28038667">
        <ele>215.0</ele>
        <time>2018-05-19T17:25:50.481Z</time>
      </trkpt>
      <trkpt lat="43.26309333" lon="-4.280285">
        <ele>214.0</ele>
        <time>2018-05-19T17:25:51.468Z</time>
      </trkpt>
      <trkpt lat="43.26304833" lon="-4.28017833">
        <ele>214.0</ele>
        <time>2018-05-19T17:25:52.468Z</time>
      </trkpt>
      <trkpt lat="43.26301333" lon="-4.280065">
        <ele>214.0</ele>
        <time>2018-05-19T17:25:53.469Z</time>
      </trkpt>
      <trkpt lat="43.26301333" lon="-4.280065">
        <ele>214.0</ele>
        <time>2018-05-19T17:25:54.467Z</time>
      </trkpt>
      <trkpt lat="43.26296167" lon="-4.27982167">
        <ele>213.0</ele>
        <time>2018-05-19T17:25:55.472Z</time>
      </trkpt>
      <trkpt lat="43.26296167" lon="-4.27982167">
        <ele>213.0</ele>
        <time>2018-05-19T17:25:56.463Z</time>
      </trkpt>
      <trkpt lat="43.26292333" lon="-4.27956833">
        <ele>212.0</ele>
        <time>2018-05-19T17:25:57.468Z</time>
      </trkpt>
      <trkpt lat="43.26292333" lon="-4.27956833">
        <ele>212.0</ele>
        <time>2018-05-19T17:25:58.467Z</time>
      </trkpt>
      <trkpt lat="43.26287" lon="-4.27931667">
        <ele>211.0</ele>
        <time>2018-05-19T17:25:59.471Z</time>
      </trkpt>
      <trkpt lat="43.26282" lon="-4.27920667">
        <ele>211.0</ele>
        <time>2018-05-19T17:26:00.469Z</time>
      </trkpt>
      <trkpt lat="43.26282" lon="-4.27920667">
        <ele>211.0</ele>
        <time>2018-05-19T17:26:01.459Z</time>
      </trkpt>
      <trkpt lat="43.26268" lon="-4.27906833">
        <ele>210.0</ele>
        <time>2018-05-19T17:26:02.468Z</time>
      </trkpt>
      <trkpt lat="43.26268" lon="-4.27906833">
        <ele>210.0</ele>
        <time>2018-05-19T17:26:03.464Z</time>
      </trkpt>
      <trkpt lat="43.26250167" lon="-4.27899">
        <ele>209.0</ele>
        <time>2018-05-19T17:26:04.468Z</time>
      </trkpt>
      <trkpt lat="43.262415" lon="-4.27893167">
        <ele>209.0</ele>
        <time>2018-05-19T17:26:05.469Z</time>
      </trkpt>
      <trkpt lat="43.26233" lon="-4.278865">
        <ele>209.0</ele>
        <time>2018-05-19T17:26:06.471Z</time>
      </trkpt>
      <trkpt lat="43.26233" lon="-4.278865">
        <ele>209.0</ele>
        <time>2018-05-19T17:26:07.465Z</time>
      </trkpt>
      <trkpt lat="43.262155" lon="-4.27872">
        <ele>208.0</ele>
        <time>2018-05-19T17:26:08.470Z</time>
      </trkpt>
      <trkpt lat="43.262155" lon="-4.27872">
        <ele>208.0</ele>
        <time>2018-05-19T17:26:09.468Z</time>
      </trkpt>
      <trkpt lat="43.26196333" lon="-4.27858">
        <ele>207.0</ele>
        <time>2018-05-19T17:26:10.471Z</time>
      </trkpt>
      <trkpt lat="43.26196333" lon="-4.27858">
        <ele>207.0</ele>
        <time>2018-05-19T17:26:11.461Z</time>
      </trkpt>
      <trkpt lat="43.26177333" lon="-4.27843667">
        <ele>206.0</ele>
        <time>2018-05-19T17:26:12.471Z</time>
      </trkpt>
      <trkpt lat="43.26177333" lon="-4.27843667">
        <ele>206.0</ele>
        <time>2018-05-19T17:26:13.466Z</time>
      </trkpt>
      <trkpt lat="43.26157333" lon="-4.27830167">
        <ele>205.0</ele>
        <time>2018-05-19T17:26:14.468Z</time>
      </trkpt>
      <trkpt lat="43.26157333" lon="-4.27830167">
        <ele>205.0</ele>
        <time>2018-05-19T17:26:15.461Z</time>
      </trkpt>
      <trkpt lat="43.261375" lon="-4.27813167">
        <ele>204.0</ele>
        <time>2018-05-19T17:26:16.468Z</time>
      </trkpt>
      <trkpt lat="43.261375" lon="-4.27813167">
        <ele>204.0</ele>
        <time>2018-05-19T17:26:17.467Z</time>
      </trkpt>
      <trkpt lat="43.26117833" lon="-4.27796333">
        <ele>203.0</ele>
        <time>2018-05-19T17:26:18.469Z</time>
      </trkpt>
      <trkpt lat="43.26117833" lon="-4.27796333">
        <ele>203.0</ele>
        <time>2018-05-19T17:26:19.465Z</time>
      </trkpt>
      <trkpt lat="43.261005" lon="-4.277795">
        <ele>202.0</ele>
        <time>2018-05-19T17:26:20.468Z</time>
      </trkpt>
      <trkpt lat="43.261005" lon="-4.277795">
        <ele>202.0</ele>
        <time>2018-05-19T17:26:21.466Z</time>
      </trkpt>
      <trkpt lat="43.26086" lon="-4.27761">
        <ele>201.0</ele>
        <time>2018-05-19T17:26:22.468Z</time>
      </trkpt>
      <trkpt lat="43.26086" lon="-4.27761">
        <ele>201.0</ele>
        <time>2018-05-19T17:26:23.480Z</time>
      </trkpt>
      <trkpt lat="43.26074667" lon="-4.277395">
        <ele>200.0</ele>
        <time>2018-05-19T17:26:24.453Z</time>
      </trkpt>
      <trkpt lat="43.26069667" lon="-4.27727833">
        <ele>200.0</ele>
        <time>2018-05-19T17:26:25.460Z</time>
      </trkpt>
      <trkpt lat="43.26069667" lon="-4.27727833">
        <ele>200.0</ele>
        <time>2018-05-19T17:26:26.466Z</time>
      </trkpt>
      <trkpt lat="43.26060333" lon="-4.27703833">
        <ele>199.0</ele>
        <time>2018-05-19T17:26:27.468Z</time>
      </trkpt>
      <trkpt lat="43.26060333" lon="-4.27703833">
        <ele>199.0</ele>
        <time>2018-05-19T17:26:28.470Z</time>
      </trkpt>
      <trkpt lat="43.260505" lon="-4.27680333">
        <ele>198.0</ele>
        <time>2018-05-19T17:26:29.452Z</time>
      </trkpt>
      <trkpt lat="43.260455" lon="-4.276685">
        <ele>198.0</ele>
        <time>2018-05-19T17:26:30.479Z</time>
      </trkpt>
      <trkpt lat="43.260455" lon="-4.276685">
        <ele>198.0</ele>
        <time>2018-05-19T17:26:31.467Z</time>
      </trkpt>
      <trkpt lat="43.26035667" lon="-4.27644333">
        <ele>197.0</ele>
        <time>2018-05-19T17:26:32.470Z</time>
      </trkpt>
      <trkpt lat="43.26035667" lon="-4.27644333">
        <ele>197.0</ele>
        <time>2018-05-19T17:26:33.461Z</time>
      </trkpt>
      <trkpt lat="43.26028167" lon="-4.27617833">
        <ele>196.0</ele>
        <time>2018-05-19T17:26:34.471Z</time>
      </trkpt>
      <trkpt lat="43.26028167" lon="-4.27617833">
        <ele>196.0</ele>
        <time>2018-05-19T17:26:35.466Z</time>
      </trkpt>
      <trkpt lat="43.260235" lon="-4.27589">
        <ele>195.0</ele>
        <time>2018-05-19T17:26:36.449Z</time>
      </trkpt>
      <trkpt lat="43.260235" lon="-4.27589">
        <ele>195.0</ele>
        <time>2018-05-19T17:26:37.472Z</time>
      </trkpt>
      <trkpt lat="43.26022167" lon="-4.27560333">
        <ele>194.0</ele>
        <time>2018-05-19T17:26:38.469Z</time>
      </trkpt>
      <trkpt lat="43.26022167" lon="-4.27560333">
        <ele>194.0</ele>
        <time>2018-05-19T17:26:39.461Z</time>
      </trkpt>
      <trkpt lat="43.26022" lon="-4.27531833">
        <ele>193.0</ele>
        <time>2018-05-19T17:26:40.468Z</time>
      </trkpt>
      <trkpt lat="43.26022" lon="-4.27531833">
        <ele>193.0</ele>
        <time>2018-05-19T17:26:41.474Z</time>
      </trkpt>
      <trkpt lat="43.26022" lon="-4.27504">
        <ele>193.0</ele>
        <time>2018-05-19T17:26:42.469Z</time>
      </trkpt>
      <trkpt lat="43.26022" lon="-4.27504">
        <ele>193.0</ele>
        <time>2018-05-19T17:26:43.465Z</time>
      </trkpt>
      <trkpt lat="43.260225" lon="-4.274765">
        <ele>192.0</ele>
        <time>2018-05-19T17:26:44.468Z</time>
      </trkpt>
      <trkpt lat="43.260225" lon="-4.274765">
        <ele>192.0</ele>
        <time>2018-05-19T17:26:45.466Z</time>
      </trkpt>
      <trkpt lat="43.26024" lon="-4.274495">
        <ele>192.0</ele>
        <time>2018-05-19T17:26:46.449Z</time>
      </trkpt>
      <trkpt lat="43.260255" lon="-4.274365">
        <ele>191.0</ele>
        <time>2018-05-19T17:26:47.452Z</time>
      </trkpt>
      <trkpt lat="43.26027333" lon="-4.27423833">
        <ele>191.0</ele>
        <time>2018-05-19T17:26:48.480Z</time>
      </trkpt>
      <trkpt lat="43.26027333" lon="-4.27423833">
        <ele>191.0</ele>
        <time>2018-05-19T17:26:49.462Z</time>
      </trkpt>
      <trkpt lat="43.26030667" lon="-4.273995">
        <ele>191.0</ele>
        <time>2018-05-19T17:26:50.468Z</time>
      </trkpt>
      <trkpt lat="43.26030667" lon="-4.273995">
        <ele>191.0</ele>
        <time>2018-05-19T17:26:51.468Z</time>
      </trkpt>
      <trkpt lat="43.26035333" lon="-4.27377667">
        <ele>190.0</ele>
        <time>2018-05-19T17:26:52.468Z</time>
      </trkpt>
      <trkpt lat="43.26035333" lon="-4.27377667">
        <ele>190.0</ele>
        <time>2018-05-19T17:26:53.461Z</time>
      </trkpt>
      <trkpt lat="43.260395" lon="-4.27355667">
        <ele>190.0</ele>
        <time>2018-05-19T17:26:54.468Z</time>
      </trkpt>
      <trkpt lat="43.260395" lon="-4.27355667">
        <ele>190.0</ele>
        <time>2018-05-19T17:26:55.466Z</time>
      </trkpt>
      <trkpt lat="43.26039" lon="-4.27333167">
        <ele>189.0</ele>
        <time>2018-05-19T17:26:56.468Z</time>
      </trkpt>
      <trkpt lat="43.26039" lon="-4.27333167">
        <ele>189.0</ele>
        <time>2018-05-19T17:26:57.462Z</time>
      </trkpt>
      <trkpt lat="43.26032333" lon="-4.27314333">
        <ele>189.0</ele>
        <time>2018-05-19T17:26:58.470Z</time>
      </trkpt>
      <trkpt lat="43.26032333" lon="-4.27314333">
        <ele>189.0</ele>
        <time>2018-05-19T17:26:59.470Z</time>
      </trkpt>
      <trkpt lat="43.2602" lon="-4.27297333">
        <ele>188.0</ele>
        <time>2018-05-19T17:27:00.471Z</time>
      </trkpt>
      <trkpt lat="43.2602" lon="-4.27297333">
        <ele>188.0</ele>
        <time>2018-05-19T17:27:01.468Z</time>
      </trkpt>
      <trkpt lat="43.260105" lon="-4.27275">
        <ele>187.0</ele>
        <time>2018-05-19T17:27:02.467Z</time>
      </trkpt>
      <trkpt lat="43.260105" lon="-4.27275">
        <ele>187.0</ele>
        <time>2018-05-19T17:27:03.457Z</time>
      </trkpt>
      <trkpt lat="43.26005833" lon="-4.27249833">
        <ele>186.0</ele>
        <time>2018-05-19T17:27:04.468Z</time>
      </trkpt>
      <trkpt lat="43.26005833" lon="-4.27249833">
        <ele>186.0</ele>
        <time>2018-05-19T17:27:05.461Z</time>
      </trkpt>
      <trkpt lat="43.26001833" lon="-4.27225">
        <ele>186.0</ele>
        <time>2018-05-19T17:27:06.470Z</time>
      </trkpt>
      <trkpt lat="43.26001833" lon="-4.27225">
        <ele>186.0</ele>
        <time>2018-05-19T17:27:07.459Z</time>
      </trkpt>
      <trkpt lat="43.25996333" lon="-4.27201667">
        <ele>186.0</ele>
        <time>2018-05-19T17:27:08.469Z</time>
      </trkpt>
      <trkpt lat="43.25996333" lon="-4.27201667">
        <ele>186.0</ele>
        <time>2018-05-19T17:27:09.467Z</time>
      </trkpt>
      <trkpt lat="43.25984833" lon="-4.27186">
        <ele>187.0</ele>
        <time>2018-05-19T17:27:10.466Z</time>
      </trkpt>
      <trkpt lat="43.25984833" lon="-4.27186">
        <ele>187.0</ele>
        <time>2018-05-19T17:27:11.461Z</time>
      </trkpt>
      <trkpt lat="43.25968833" lon="-4.27182167">
        <ele>187.0</ele>
        <time>2018-05-19T17:27:12.469Z</time>
      </trkpt>
      <trkpt lat="43.25960833" lon="-4.27183333">
        <ele>187.0</ele>
        <time>2018-05-19T17:27:13.466Z</time>
      </trkpt>
      <trkpt lat="43.25960833" lon="-4.27183333">
        <ele>187.0</ele>
        <time>2018-05-19T17:27:14.462Z</time>
      </trkpt>
      <trkpt lat="43.25946167" lon="-4.27185667">
        <ele>188.0</ele>
        <time>2018-05-19T17:27:15.467Z</time>
      </trkpt>
      <trkpt lat="43.25946167" lon="-4.27185667">
        <ele>188.0</ele>
        <time>2018-05-19T17:27:16.459Z</time>
      </trkpt>
      <trkpt lat="43.25931167" lon="-4.27181">
        <ele>188.0</ele>
        <time>2018-05-19T17:27:17.470Z</time>
      </trkpt>
      <trkpt lat="43.259245" lon="-4.27175833">
        <ele>188.0</ele>
        <time>2018-05-19T17:27:18.469Z</time>
      </trkpt>
      <trkpt lat="43.259245" lon="-4.27175833">
        <ele>188.0</ele>
        <time>2018-05-19T17:27:19.471Z</time>
      </trkpt>
      <trkpt lat="43.25912" lon="-4.27164167">
        <ele>188.0</ele>
        <time>2018-05-19T17:27:20.468Z</time>
      </trkpt>
      <trkpt lat="43.25912" lon="-4.27164167">
        <ele>188.0</ele>
        <time>2018-05-19T17:27:21.459Z</time>
      </trkpt>
      <trkpt lat="43.25899667" lon="-4.27152167">
        <ele>187.0</ele>
        <time>2018-05-19T17:27:22.480Z</time>
      </trkpt>
      <trkpt lat="43.25899667" lon="-4.27152167">
        <ele>187.0</ele>
        <time>2018-05-19T17:27:23.482Z</time>
      </trkpt>
      <trkpt lat="43.25887167" lon="-4.271405">
        <ele>188.0</ele>
        <time>2018-05-19T17:27:24.458Z</time>
      </trkpt>
      <trkpt lat="43.25887167" lon="-4.271405">
        <ele>188.0</ele>
        <time>2018-05-19T17:27:25.464Z</time>
      </trkpt>
      <trkpt lat="43.25874333" lon="-4.27128667">
        <ele>187.0</ele>
        <time>2018-05-19T17:27:26.470Z</time>
      </trkpt>
      <trkpt lat="43.25867667" lon="-4.27123167">
        <ele>187.0</ele>
        <time>2018-05-19T17:27:27.479Z</time>
      </trkpt>
      <trkpt lat="43.258605" lon="-4.27119">
        <ele>187.0</ele>
        <time>2018-05-19T17:27:28.470Z</time>
      </trkpt>
      <trkpt lat="43.258605" lon="-4.27119">
        <ele>187.0</ele>
        <time>2018-05-19T17:27:29.460Z</time>
      </trkpt>
      <trkpt lat="43.25844833" lon="-4.27115">
        <ele>187.0</ele>
        <time>2018-05-19T17:27:30.450Z</time>
      </trkpt>
      <trkpt lat="43.25844833" lon="-4.27115">
        <ele>187.0</ele>
        <time>2018-05-19T17:27:31.472Z</time>
      </trkpt>
      <trkpt lat="43.258285" lon="-4.27112833">
        <ele>186.0</ele>
        <time>2018-05-19T17:27:32.469Z</time>
      </trkpt>
      <trkpt lat="43.258285" lon="-4.27112833">
        <ele>186.0</ele>
        <time>2018-05-19T17:27:33.459Z</time>
      </trkpt>
      <trkpt lat="43.25812667" lon="-4.27113833">
        <ele>186.0</ele>
        <time>2018-05-19T17:27:34.468Z</time>
      </trkpt>
      <trkpt lat="43.25812667" lon="-4.27113833">
        <ele>186.0</ele>
        <time>2018-05-19T17:27:35.464Z</time>
      </trkpt>
      <trkpt lat="43.25798167" lon="-4.27119667">
        <ele>187.0</ele>
        <time>2018-05-19T17:27:36.485Z</time>
      </trkpt>
      <trkpt lat="43.25798167" lon="-4.27119667">
        <ele>187.0</ele>
        <time>2018-05-19T17:27:37.470Z</time>
      </trkpt>
      <trkpt lat="43.25784667" lon="-4.271265">
        <ele>187.0</ele>
        <time>2018-05-19T17:27:38.468Z</time>
      </trkpt>
      <trkpt lat="43.25777833" lon="-4.27129333">
        <ele>187.0</ele>
        <time>2018-05-19T17:27:39.468Z</time>
      </trkpt>
      <trkpt lat="43.25771167" lon="-4.27132">
        <ele>188.0</ele>
        <time>2018-05-19T17:27:40.468Z</time>
      </trkpt>
      <trkpt lat="43.25771167" lon="-4.27132">
        <ele>188.0</ele>
        <time>2018-05-19T17:27:41.470Z</time>
      </trkpt>
      <trkpt lat="43.25758" lon="-4.27136">
        <ele>188.0</ele>
        <time>2018-05-19T17:27:42.470Z</time>
      </trkpt>
      <trkpt lat="43.25758" lon="-4.27136">
        <ele>188.0</ele>
        <time>2018-05-19T17:27:43.461Z</time>
      </trkpt>
      <trkpt lat="43.25744833" lon="-4.27136333">
        <ele>188.0</ele>
        <time>2018-05-19T17:27:44.467Z</time>
      </trkpt>
      <trkpt lat="43.25744833" lon="-4.27136333">
        <ele>188.0</ele>
        <time>2018-05-19T17:27:45.459Z</time>
      </trkpt>
      <trkpt lat="43.257325" lon="-4.27131667">
        <ele>189.0</ele>
        <time>2018-05-19T17:27:46.470Z</time>
      </trkpt>
      <trkpt lat="43.257325" lon="-4.27131667">
        <ele>189.0</ele>
        <time>2018-05-19T17:27:47.470Z</time>
      </trkpt>
      <trkpt lat="43.257225" lon="-4.27123">
        <ele>189.0</ele>
        <time>2018-05-19T17:27:48.471Z</time>
      </trkpt>
      <trkpt lat="43.25718833" lon="-4.27117667">
        <ele>189.0</ele>
        <time>2018-05-19T17:27:49.470Z</time>
      </trkpt>
      <trkpt lat="43.25718833" lon="-4.27117667">
        <ele>189.0</ele>
        <time>2018-05-19T17:27:50.462Z</time>
      </trkpt>
      <trkpt lat="43.25713" lon="-4.271055">
        <ele>189.0</ele>
        <time>2018-05-19T17:27:51.468Z</time>
      </trkpt>
      <trkpt lat="43.25713" lon="-4.271055">
        <ele>189.0</ele>
        <time>2018-05-19T17:27:52.461Z</time>
      </trkpt>
      <trkpt lat="43.25707667" lon="-4.27093167">
        <ele>189.0</ele>
        <time>2018-05-19T17:27:53.468Z</time>
      </trkpt>
      <trkpt lat="43.25705167" lon="-4.27087">
        <ele>190.0</ele>
        <time>2018-05-19T17:27:54.467Z</time>
      </trkpt>
      <trkpt lat="43.25705167" lon="-4.27087">
        <ele>190.0</ele>
        <time>2018-05-19T17:27:55.459Z</time>
      </trkpt>
      <trkpt lat="43.25700833" lon="-4.27073833">
        <ele>190.0</ele>
        <time>2018-05-19T17:27:56.468Z</time>
      </trkpt>
      <trkpt lat="43.25700833" lon="-4.27073833">
        <ele>190.0</ele>
        <time>2018-05-19T17:27:57.461Z</time>
      </trkpt>
      <trkpt lat="43.25697" lon="-4.27060333">
        <ele>190.0</ele>
        <time>2018-05-19T17:27:58.468Z</time>
      </trkpt>
      <trkpt lat="43.25697" lon="-4.27060333">
        <ele>190.0</ele>
        <time>2018-05-19T17:27:59.459Z</time>
      </trkpt>
      <trkpt lat="43.25693667" lon="-4.27046833">
        <ele>190.0</ele>
        <time>2018-05-19T17:28:00.480Z</time>
      </trkpt>
      <trkpt lat="43.25693667" lon="-4.27046833">
        <ele>190.0</ele>
        <time>2018-05-19T17:28:01.464Z</time>
      </trkpt>
      <trkpt lat="43.25693833" lon="-4.270355">
        <ele>190.0</ele>
        <time>2018-05-19T17:28:02.468Z</time>
      </trkpt>
      <trkpt lat="43.25693833" lon="-4.270355">
        <ele>190.0</ele>
        <time>2018-05-19T17:28:03.459Z</time>
      </trkpt>
      <trkpt lat="43.25697333" lon="-4.270235">
        <ele>190.0</ele>
        <time>2018-05-19T17:28:04.467Z</time>
      </trkpt>
      <trkpt lat="43.25697333" lon="-4.270235">
        <ele>190.0</ele>
        <time>2018-05-19T17:28:05.459Z</time>
      </trkpt>
      <trkpt lat="43.25706333" lon="-4.27012833">
        <ele>190.0</ele>
        <time>2018-05-19T17:28:06.482Z</time>
      </trkpt>
      <trkpt lat="43.25711667" lon="-4.27007667">
        <ele>190.0</ele>
        <time>2018-05-19T17:28:07.471Z</time>
      </trkpt>
      <trkpt lat="43.25711667" lon="-4.27007667">
        <ele>190.0</ele>
        <time>2018-05-19T17:28:08.461Z</time>
      </trkpt>
      <trkpt lat="43.257225" lon="-4.26996833">
        <ele>189.0</ele>
        <time>2018-05-19T17:28:09.471Z</time>
      </trkpt>
      <trkpt lat="43.257225" lon="-4.26996833">
        <ele>189.0</ele>
        <time>2018-05-19T17:28:10.465Z</time>
      </trkpt>
      <trkpt lat="43.25734167" lon="-4.269835">
        <ele>189.0</ele>
        <time>2018-05-19T17:28:11.453Z</time>
      </trkpt>
      <trkpt lat="43.25734167" lon="-4.269835">
        <ele>189.0</ele>
        <time>2018-05-19T17:28:12.479Z</time>
      </trkpt>
      <trkpt lat="43.25746" lon="-4.26969167">
        <ele>187.0</ele>
        <time>2018-05-19T17:28:13.471Z</time>
      </trkpt>
      <trkpt lat="43.25752" lon="-4.26962">
        <ele>187.0</ele>
        <time>2018-05-19T17:28:14.467Z</time>
      </trkpt>
      <trkpt lat="43.25752" lon="-4.26962">
        <ele>187.0</ele>
        <time>2018-05-19T17:28:15.458Z</time>
      </trkpt>
      <trkpt lat="43.257645" lon="-4.269475">
        <ele>186.0</ele>
        <time>2018-05-19T17:28:16.467Z</time>
      </trkpt>
      <trkpt lat="43.257645" lon="-4.269475">
        <ele>186.0</ele>
        <time>2018-05-19T17:28:17.461Z</time>
      </trkpt>
      <trkpt lat="43.25776833" lon="-4.26932667">
        <ele>186.0</ele>
        <time>2018-05-19T17:28:18.487Z</time>
      </trkpt>
      <trkpt lat="43.25776833" lon="-4.26932667">
        <ele>186.0</ele>
        <time>2018-05-19T17:28:19.463Z</time>
      </trkpt>
      <trkpt lat="43.25789" lon="-4.26917833">
        <ele>185.0</ele>
        <time>2018-05-19T17:28:20.485Z</time>
      </trkpt>
      <trkpt lat="43.25795167" lon="-4.26910167">
        <ele>185.0</ele>
        <time>2018-05-19T17:28:21.473Z</time>
      </trkpt>
      <trkpt lat="43.25795167" lon="-4.26910167">
        <ele>185.0</ele>
        <time>2018-05-19T17:28:22.464Z</time>
      </trkpt>
      <trkpt lat="43.25806667" lon="-4.268945">
        <ele>185.0</ele>
        <time>2018-05-19T17:28:23.453Z</time>
      </trkpt>
      <trkpt lat="43.25806667" lon="-4.268945">
        <ele>185.0</ele>
        <time>2018-05-19T17:28:24.465Z</time>
      </trkpt>
      <trkpt lat="43.25817667" lon="-4.26878">
        <ele>185.0</ele>
        <time>2018-05-19T17:28:25.471Z</time>
      </trkpt>
      <trkpt lat="43.25817667" lon="-4.26878">
        <ele>185.0</ele>
        <time>2018-05-19T17:28:26.478Z</time>
      </trkpt>
      <trkpt lat="43.25827833" lon="-4.26861167">
        <ele>184.0</ele>
        <time>2018-05-19T17:28:27.469Z</time>
      </trkpt>
      <trkpt lat="43.25827833" lon="-4.26861167">
        <ele>184.0</ele>
        <time>2018-05-19T17:28:28.467Z</time>
      </trkpt>
      <trkpt lat="43.25837667" lon="-4.268435">
        <ele>184.0</ele>
        <time>2018-05-19T17:28:29.468Z</time>
      </trkpt>
      <trkpt lat="43.258425" lon="-4.26834667">
        <ele>184.0</ele>
        <time>2018-05-19T17:28:30.469Z</time>
      </trkpt>
      <trkpt lat="43.258425" lon="-4.26834667">
        <ele>184.0</ele>
        <time>2018-05-19T17:28:31.461Z</time>
      </trkpt>
      <trkpt lat="43.258525" lon="-4.26817">
        <ele>184.0</ele>
        <time>2018-05-19T17:28:32.467Z</time>
      </trkpt>
      <trkpt lat="43.258525" lon="-4.26817">
        <ele>184.0</ele>
        <time>2018-05-19T17:28:33.467Z</time>
      </trkpt>
      <trkpt lat="43.25862333" lon="-4.26799667">
        <ele>183.0</ele>
        <time>2018-05-19T17:28:34.468Z</time>
      </trkpt>
      <trkpt lat="43.25862333" lon="-4.26799667">
        <ele>183.0</ele>
        <time>2018-05-19T17:28:35.460Z</time>
      </trkpt>
      <trkpt lat="43.258725" lon="-4.26782333">
        <ele>183.0</ele>
        <time>2018-05-19T17:28:36.449Z</time>
      </trkpt>
      <trkpt lat="43.258725" lon="-4.26782333">
        <ele>183.0</ele>
        <time>2018-05-19T17:28:37.472Z</time>
      </trkpt>
      <trkpt lat="43.258825" lon="-4.26765167">
        <ele>184.0</ele>
        <time>2018-05-19T17:28:38.468Z</time>
      </trkpt>
      <trkpt lat="43.258825" lon="-4.26765167">
        <ele>184.0</ele>
        <time>2018-05-19T17:28:39.473Z</time>
      </trkpt>
      <trkpt lat="43.25892167" lon="-4.26747333">
        <ele>183.0</ele>
        <time>2018-05-19T17:28:40.463Z</time>
      </trkpt>
      <trkpt lat="43.25897167" lon="-4.267385">
        <ele>183.0</ele>
        <time>2018-05-19T17:28:41.468Z</time>
      </trkpt>
      <trkpt lat="43.25902" lon="-4.26729833">
        <ele>182.0</ele>
        <time>2018-05-19T17:28:42.469Z</time>
      </trkpt>
      <trkpt lat="43.25902" lon="-4.26729833">
        <ele>182.0</ele>
        <time>2018-05-19T17:28:43.464Z</time>
      </trkpt>
      <trkpt lat="43.25911833" lon="-4.26712667">
        <ele>182.0</ele>
        <time>2018-05-19T17:28:44.465Z</time>
      </trkpt>
      <trkpt lat="43.25911833" lon="-4.26712667">
        <ele>182.0</ele>
        <time>2018-05-19T17:28:45.465Z</time>
      </trkpt>
      <trkpt lat="43.25922" lon="-4.266955">
        <ele>181.0</ele>
        <time>2018-05-19T17:28:46.467Z</time>
      </trkpt>
      <trkpt lat="43.25926833" lon="-4.266865">
        <ele>182.0</ele>
        <time>2018-05-19T17:28:47.470Z</time>
      </trkpt>
      <trkpt lat="43.25926833" lon="-4.266865">
        <ele>182.0</ele>
        <time>2018-05-19T17:28:48.467Z</time>
      </trkpt>
      <trkpt lat="43.25937" lon="-4.26669">
        <ele>181.0</ele>
        <time>2018-05-19T17:28:49.467Z</time>
      </trkpt>
      <trkpt lat="43.25942167" lon="-4.26659833">
        <ele>181.0</ele>
        <time>2018-05-19T17:28:50.473Z</time>
      </trkpt>
      <trkpt lat="43.25942167" lon="-4.26659833">
        <ele>181.0</ele>
        <time>2018-05-19T17:28:51.466Z</time>
      </trkpt>
      <trkpt lat="43.25952333" lon="-4.26641833">
        <ele>181.0</ele>
        <time>2018-05-19T17:28:52.468Z</time>
      </trkpt>
      <trkpt lat="43.25952333" lon="-4.26641833">
        <ele>181.0</ele>
        <time>2018-05-19T17:28:53.465Z</time>
      </trkpt>
      <trkpt lat="43.25962333" lon="-4.26623667">
        <ele>181.0</ele>
        <time>2018-05-19T17:28:54.470Z</time>
      </trkpt>
      <trkpt lat="43.25962333" lon="-4.26623667">
        <ele>181.0</ele>
        <time>2018-05-19T17:28:55.465Z</time>
      </trkpt>
      <trkpt lat="43.25972333" lon="-4.26606667">
        <ele>181.0</ele>
        <time>2018-05-19T17:28:56.467Z</time>
      </trkpt>
      <trkpt lat="43.25977833" lon="-4.26598">
        <ele>181.0</ele>
        <time>2018-05-19T17:28:57.470Z</time>
      </trkpt>
      <trkpt lat="43.25977833" lon="-4.26598">
        <ele>181.0</ele>
        <time>2018-05-19T17:28:58.466Z</time>
      </trkpt>
      <trkpt lat="43.25988333" lon="-4.26580833">
        <ele>181.0</ele>
        <time>2018-05-19T17:28:59.469Z</time>
      </trkpt>
      <trkpt lat="43.259935" lon="-4.26572667">
        <ele>181.0</ele>
        <time>2018-05-19T17:29:00.472Z</time>
      </trkpt>
      <trkpt lat="43.259935" lon="-4.26572667">
        <ele>181.0</ele>
        <time>2018-05-19T17:29:01.461Z</time>
      </trkpt>
      <trkpt lat="43.26003333" lon="-4.265565">
        <ele>181.0</ele>
        <time>2018-05-19T17:29:02.467Z</time>
      </trkpt>
      <trkpt lat="43.26003333" lon="-4.265565">
        <ele>181.0</ele>
        <time>2018-05-19T17:29:03.465Z</time>
      </trkpt>
      <trkpt lat="43.26012333" lon="-4.26538333">
        <ele>181.0</ele>
        <time>2018-05-19T17:29:04.466Z</time>
      </trkpt>
      <trkpt lat="43.26012333" lon="-4.26538333">
        <ele>181.0</ele>
        <time>2018-05-19T17:29:05.458Z</time>
      </trkpt>
      <trkpt lat="43.26021167" lon="-4.26519667">
        <ele>180.0</ele>
        <time>2018-05-19T17:29:06.483Z</time>
      </trkpt>
      <trkpt lat="43.26021167" lon="-4.26519667">
        <ele>180.0</ele>
        <time>2018-05-19T17:29:07.468Z</time>
      </trkpt>
      <trkpt lat="43.26030833" lon="-4.26501833">
        <ele>180.0</ele>
        <time>2018-05-19T17:29:08.470Z</time>
      </trkpt>
      <trkpt lat="43.26030833" lon="-4.26501833">
        <ele>180.0</ele>
        <time>2018-05-19T17:29:09.461Z</time>
      </trkpt>
      <trkpt lat="43.26040667" lon="-4.26484">
        <ele>180.0</ele>
        <time>2018-05-19T17:29:10.467Z</time>
      </trkpt>
      <trkpt lat="43.26040667" lon="-4.26484">
        <ele>180.0</ele>
        <time>2018-05-19T17:29:11.464Z</time>
      </trkpt>
      <trkpt lat="43.26051" lon="-4.264665">
        <ele>179.0</ele>
        <time>2018-05-19T17:29:12.468Z</time>
      </trkpt>
      <trkpt lat="43.26051" lon="-4.264665">
        <ele>179.0</ele>
        <time>2018-05-19T17:29:13.464Z</time>
      </trkpt>
      <trkpt lat="43.26061333" lon="-4.26448833">
        <ele>179.0</ele>
        <time>2018-05-19T17:29:14.467Z</time>
      </trkpt>
      <trkpt lat="43.26061333" lon="-4.26448833">
        <ele>179.0</ele>
        <time>2018-05-19T17:29:15.461Z</time>
      </trkpt>
      <trkpt lat="43.260715" lon="-4.26430667">
        <ele>179.0</ele>
        <time>2018-05-19T17:29:16.468Z</time>
      </trkpt>
      <trkpt lat="43.260715" lon="-4.26430667">
        <ele>179.0</ele>
        <time>2018-05-19T17:29:17.465Z</time>
      </trkpt>
      <trkpt lat="43.260815" lon="-4.26412167">
        <ele>179.0</ele>
        <time>2018-05-19T17:29:18.466Z</time>
      </trkpt>
      <trkpt lat="43.260815" lon="-4.26412167">
        <ele>179.0</ele>
        <time>2018-05-19T17:29:19.464Z</time>
      </trkpt>
      <trkpt lat="43.26091833" lon="-4.26393667">
        <ele>179.0</ele>
        <time>2018-05-19T17:29:20.467Z</time>
      </trkpt>
      <trkpt lat="43.26091833" lon="-4.26393667">
        <ele>179.0</ele>
        <time>2018-05-19T17:29:21.466Z</time>
      </trkpt>
      <trkpt lat="43.26102333" lon="-4.263755">
        <ele>178.0</ele>
        <time>2018-05-19T17:29:22.470Z</time>
      </trkpt>
      <trkpt lat="43.26102333" lon="-4.263755">
        <ele>178.0</ele>
        <time>2018-05-19T17:29:23.470Z</time>
      </trkpt>
      <trkpt lat="43.26112833" lon="-4.26357">
        <ele>178.0</ele>
        <time>2018-05-19T17:29:24.455Z</time>
      </trkpt>
      <trkpt lat="43.26118167" lon="-4.26347667">
        <ele>178.0</ele>
        <time>2018-05-19T17:29:25.462Z</time>
      </trkpt>
      <trkpt lat="43.26118167" lon="-4.26347667">
        <ele>178.0</ele>
        <time>2018-05-19T17:29:26.468Z</time>
      </trkpt>
      <trkpt lat="43.26128667" lon="-4.26328667">
        <ele>178.0</ele>
        <time>2018-05-19T17:29:27.470Z</time>
      </trkpt>
      <trkpt lat="43.26128667" lon="-4.26328667">
        <ele>178.0</ele>
        <time>2018-05-19T17:29:28.467Z</time>
      </trkpt>
      <trkpt lat="43.26139333" lon="-4.26310333">
        <ele>177.0</ele>
        <time>2018-05-19T17:29:29.471Z</time>
      </trkpt>
      <trkpt lat="43.261445" lon="-4.26301333">
        <ele>178.0</ele>
        <time>2018-05-19T17:29:30.472Z</time>
      </trkpt>
      <trkpt lat="43.261445" lon="-4.26301333">
        <ele>178.0</ele>
        <time>2018-05-19T17:29:31.459Z</time>
      </trkpt>
      <trkpt lat="43.26155" lon="-4.26282667">
        <ele>177.0</ele>
        <time>2018-05-19T17:29:32.466Z</time>
      </trkpt>
      <trkpt lat="43.26155" lon="-4.26282667">
        <ele>177.0</ele>
        <time>2018-05-19T17:29:33.463Z</time>
      </trkpt>
      <trkpt lat="43.26165333" lon="-4.26264">
        <ele>177.0</ele>
        <time>2018-05-19T17:29:34.466Z</time>
      </trkpt>
      <trkpt lat="43.26165333" lon="-4.26264">
        <ele>177.0</ele>
        <time>2018-05-19T17:29:35.481Z</time>
      </trkpt>
      <trkpt lat="43.26175667" lon="-4.26246">
        <ele>177.0</ele>
        <time>2018-05-19T17:29:36.471Z</time>
      </trkpt>
      <trkpt lat="43.26175667" lon="-4.26246">
        <ele>177.0</ele>
        <time>2018-05-19T17:29:37.479Z</time>
      </trkpt>
      <trkpt lat="43.26185833" lon="-4.26228">
        <ele>176.0</ele>
        <time>2018-05-19T17:29:38.472Z</time>
      </trkpt>
      <trkpt lat="43.26191" lon="-4.26219167">
        <ele>176.0</ele>
        <time>2018-05-19T17:29:39.470Z</time>
      </trkpt>
      <trkpt lat="43.26191" lon="-4.26219167">
        <ele>176.0</ele>
        <time>2018-05-19T17:29:40.471Z</time>
      </trkpt>
      <trkpt lat="43.26201833" lon="-4.26201667">
        <ele>176.0</ele>
        <time>2018-05-19T17:29:41.475Z</time>
      </trkpt>
      <trkpt lat="43.26207" lon="-4.26193">
        <ele>176.0</ele>
        <time>2018-05-19T17:29:42.484Z</time>
      </trkpt>
      <trkpt lat="43.26207" lon="-4.26193">
        <ele>176.0</ele>
        <time>2018-05-19T17:29:43.474Z</time>
      </trkpt>
      <trkpt lat="43.262175" lon="-4.26175333">
        <ele>176.0</ele>
        <time>2018-05-19T17:29:44.473Z</time>
      </trkpt>
      <trkpt lat="43.262175" lon="-4.26175333">
        <ele>176.0</ele>
        <time>2018-05-19T17:29:45.468Z</time>
      </trkpt>
      <trkpt lat="43.262275" lon="-4.26157333">
        <ele>175.0</ele>
        <time>2018-05-19T17:29:46.473Z</time>
      </trkpt>
      <trkpt lat="43.262275" lon="-4.26157333">
        <ele>175.0</ele>
        <time>2018-05-19T17:29:47.470Z</time>
      </trkpt>
      <trkpt lat="43.262375" lon="-4.26139167">
        <ele>175.0</ele>
        <time>2018-05-19T17:29:48.470Z</time>
      </trkpt>
      <trkpt lat="43.262375" lon="-4.26139167">
        <ele>175.0</ele>
        <time>2018-05-19T17:29:49.470Z</time>
      </trkpt>
      <trkpt lat="43.26247667" lon="-4.26121333">
        <ele>175.0</ele>
        <time>2018-05-19T17:29:50.467Z</time>
      </trkpt>
      <trkpt lat="43.26247667" lon="-4.26121333">
        <ele>175.0</ele>
        <time>2018-05-19T17:29:51.464Z</time>
      </trkpt>
      <trkpt lat="43.26257833" lon="-4.26103833">
        <ele>174.0</ele>
        <time>2018-05-19T17:29:52.470Z</time>
      </trkpt>
      <trkpt lat="43.26263" lon="-4.26095">
        <ele>174.0</ele>
        <time>2018-05-19T17:29:53.466Z</time>
      </trkpt>
      <trkpt lat="43.26268333" lon="-4.26086167">
        <ele>174.0</ele>
        <time>2018-05-19T17:29:54.469Z</time>
      </trkpt>
      <trkpt lat="43.26273333" lon="-4.26077333">
        <ele>173.0</ele>
        <time>2018-05-19T17:29:55.472Z</time>
      </trkpt>
      <trkpt lat="43.26273333" lon="-4.26077333">
        <ele>173.0</ele>
        <time>2018-05-19T17:29:56.467Z</time>
      </trkpt>
      <trkpt lat="43.26283167" lon="-4.26059333">
        <ele>173.0</ele>
        <time>2018-05-19T17:29:57.471Z</time>
      </trkpt>
      <trkpt lat="43.26283167" lon="-4.26059333">
        <ele>173.0</ele>
        <time>2018-05-19T17:29:58.465Z</time>
      </trkpt>
      <trkpt lat="43.262925" lon="-4.260415">
        <ele>173.0</ele>
        <time>2018-05-19T17:29:59.469Z</time>
      </trkpt>
      <trkpt lat="43.26297167" lon="-4.26032833">
        <ele>173.0</ele>
        <time>2018-05-19T17:30:00.471Z</time>
      </trkpt>
      <trkpt lat="43.26297167" lon="-4.26032833">
        <ele>173.0</ele>
        <time>2018-05-19T17:30:01.467Z</time>
      </trkpt>
      <trkpt lat="43.26306833" lon="-4.260155">
        <ele>173.0</ele>
        <time>2018-05-19T17:30:02.468Z</time>
      </trkpt>
      <trkpt lat="43.26306833" lon="-4.260155">
        <ele>173.0</ele>
        <time>2018-05-19T17:30:03.465Z</time>
      </trkpt>
      <trkpt lat="43.26317167" lon="-4.25998167">
        <ele>173.0</ele>
        <time>2018-05-19T17:30:04.466Z</time>
      </trkpt>
      <trkpt lat="43.26317167" lon="-4.25998167">
        <ele>173.0</ele>
        <time>2018-05-19T17:30:05.461Z</time>
      </trkpt>
      <trkpt lat="43.263275" lon="-4.25981">
        <ele>172.0</ele>
        <time>2018-05-19T17:30:06.469Z</time>
      </trkpt>
      <trkpt lat="43.263275" lon="-4.25981">
        <ele>172.0</ele>
        <time>2018-05-19T17:30:07.465Z</time>
      </trkpt>
      <trkpt lat="43.26337333" lon="-4.259635">
        <ele>172.0</ele>
        <time>2018-05-19T17:30:08.466Z</time>
      </trkpt>
      <trkpt lat="43.26337333" lon="-4.259635">
        <ele>172.0</ele>
        <time>2018-05-19T17:30:09.467Z</time>
      </trkpt>
      <trkpt lat="43.263475" lon="-4.25946167">
        <ele>172.0</ele>
        <time>2018-05-19T17:30:10.471Z</time>
      </trkpt>
      <trkpt lat="43.263475" lon="-4.25946167">
        <ele>172.0</ele>
        <time>2018-05-19T17:30:11.485Z</time>
      </trkpt>
      <trkpt lat="43.263575" lon="-4.25928667">
        <ele>172.0</ele>
        <time>2018-05-19T17:30:12.479Z</time>
      </trkpt>
      <trkpt lat="43.263575" lon="-4.25928667">
        <ele>172.0</ele>
        <time>2018-05-19T17:30:13.470Z</time>
      </trkpt>
      <trkpt lat="43.26367667" lon="-4.25910833">
        <ele>172.0</ele>
        <time>2018-05-19T17:30:14.470Z</time>
      </trkpt>
      <trkpt lat="43.26367667" lon="-4.25910833">
        <ele>172.0</ele>
        <time>2018-05-19T17:30:15.466Z</time>
      </trkpt>
      <trkpt lat="43.26378" lon="-4.25892667">
        <ele>172.0</ele>
        <time>2018-05-19T17:30:16.468Z</time>
      </trkpt>
      <trkpt lat="43.26383167" lon="-4.258835">
        <ele>172.0</ele>
        <time>2018-05-19T17:30:17.469Z</time>
      </trkpt>
      <trkpt lat="43.26388333" lon="-4.25874167">
        <ele>172.0</ele>
        <time>2018-05-19T17:30:18.471Z</time>
      </trkpt>
      <trkpt lat="43.26388333" lon="-4.25874167">
        <ele>172.0</ele>
        <time>2018-05-19T17:30:19.465Z</time>
      </trkpt>
      <trkpt lat="43.26399" lon="-4.25855667">
        <ele>171.0</ele>
        <time>2018-05-19T17:30:20.468Z</time>
      </trkpt>
      <trkpt lat="43.26399" lon="-4.25855667">
        <ele>171.0</ele>
        <time>2018-05-19T17:30:21.461Z</time>
      </trkpt>
      <trkpt lat="43.26409833" lon="-4.25837">
        <ele>171.0</ele>
        <time>2018-05-19T17:30:22.467Z</time>
      </trkpt>
      <trkpt lat="43.26409833" lon="-4.25837">
        <ele>171.0</ele>
        <time>2018-05-19T17:30:23.448Z</time>
      </trkpt>
      <trkpt lat="43.26420167" lon="-4.25818333">
        <ele>171.0</ele>
        <time>2018-05-19T17:30:24.463Z</time>
      </trkpt>
      <trkpt lat="43.26420167" lon="-4.25818333">
        <ele>171.0</ele>
        <time>2018-05-19T17:30:25.470Z</time>
      </trkpt>
      <trkpt lat="43.26430667" lon="-4.257995">
        <ele>171.0</ele>
        <time>2018-05-19T17:30:26.477Z</time>
      </trkpt>
      <trkpt lat="43.26435833" lon="-4.25790333">
        <ele>171.0</ele>
        <time>2018-05-19T17:30:27.468Z</time>
      </trkpt>
      <trkpt lat="43.26441" lon="-4.25781167">
        <ele>171.0</ele>
        <time>2018-05-19T17:30:28.467Z</time>
      </trkpt>
      <trkpt lat="43.26441" lon="-4.25781167">
        <ele>171.0</ele>
        <time>2018-05-19T17:30:29.464Z</time>
      </trkpt>
      <trkpt lat="43.264515" lon="-4.25763">
        <ele>170.0</ele>
        <time>2018-05-19T17:30:30.467Z</time>
      </trkpt>
      <trkpt lat="43.264515" lon="-4.25763">
        <ele>170.0</ele>
        <time>2018-05-19T17:30:31.479Z</time>
      </trkpt>
      <trkpt lat="43.26461667" lon="-4.25745333">
        <ele>170.0</ele>
        <time>2018-05-19T17:30:32.467Z</time>
      </trkpt>
      <trkpt lat="43.26461667" lon="-4.25745333">
        <ele>170.0</ele>
        <time>2018-05-19T17:30:33.466Z</time>
      </trkpt>
      <trkpt lat="43.26471833" lon="-4.25727833">
        <ele>170.0</ele>
        <time>2018-05-19T17:30:34.468Z</time>
      </trkpt>
      <trkpt lat="43.26471833" lon="-4.25727833">
        <ele>170.0</ele>
        <time>2018-05-19T17:30:35.460Z</time>
      </trkpt>
      <trkpt lat="43.26482333" lon="-4.25710167">
        <ele>170.0</ele>
        <time>2018-05-19T17:30:36.469Z</time>
      </trkpt>
      <trkpt lat="43.26482333" lon="-4.25710167">
        <ele>170.0</ele>
        <time>2018-05-19T17:30:37.460Z</time>
      </trkpt>
      <trkpt lat="43.264925" lon="-4.25692333">
        <ele>170.0</ele>
        <time>2018-05-19T17:30:38.468Z</time>
      </trkpt>
      <trkpt lat="43.264925" lon="-4.25692333">
        <ele>170.0</ele>
        <time>2018-05-19T17:30:39.465Z</time>
      </trkpt>
      <trkpt lat="43.26502667" lon="-4.25674333">
        <ele>170.0</ele>
        <time>2018-05-19T17:30:40.468Z</time>
      </trkpt>
      <trkpt lat="43.26502667" lon="-4.25674333">
        <ele>170.0</ele>
        <time>2018-05-19T17:30:41.484Z</time>
      </trkpt>
      <trkpt lat="43.26513" lon="-4.256565">
        <ele>169.0</ele>
        <time>2018-05-19T17:30:42.472Z</time>
      </trkpt>
      <trkpt lat="43.26513" lon="-4.256565">
        <ele>169.0</ele>
        <time>2018-05-19T17:30:43.465Z</time>
      </trkpt>
      <trkpt lat="43.26523" lon="-4.25638833">
        <ele>169.0</ele>
        <time>2018-05-19T17:30:44.468Z</time>
      </trkpt>
      <trkpt lat="43.26523" lon="-4.25638833">
        <ele>169.0</ele>
        <time>2018-05-19T17:30:45.464Z</time>
      </trkpt>
      <trkpt lat="43.26532333" lon="-4.25620833">
        <ele>169.0</ele>
        <time>2018-05-19T17:30:46.467Z</time>
      </trkpt>
      <trkpt lat="43.26537667" lon="-4.25612167">
        <ele>169.0</ele>
        <time>2018-05-19T17:30:47.467Z</time>
      </trkpt>
      <trkpt lat="43.26542667" lon="-4.25603667">
        <ele>169.0</ele>
        <time>2018-05-19T17:30:48.479Z</time>
      </trkpt>
      <trkpt lat="43.26542667" lon="-4.25603667">
        <ele>169.0</ele>
        <time>2018-05-19T17:30:49.465Z</time>
      </trkpt>
      <trkpt lat="43.26552167" lon="-4.25586667">
        <ele>169.0</ele>
        <time>2018-05-19T17:30:50.467Z</time>
      </trkpt>
      <trkpt lat="43.26552167" lon="-4.25586667">
        <ele>169.0</ele>
        <time>2018-05-19T17:30:51.458Z</time>
      </trkpt>
      <trkpt lat="43.26562167" lon="-4.2557">
        <ele>169.0</ele>
        <time>2018-05-19T17:30:52.467Z</time>
      </trkpt>
      <trkpt lat="43.26562167" lon="-4.2557">
        <ele>169.0</ele>
        <time>2018-05-19T17:30:53.464Z</time>
      </trkpt>
      <trkpt lat="43.26571667" lon="-4.255535">
        <ele>169.0</ele>
        <time>2018-05-19T17:30:54.469Z</time>
      </trkpt>
      <trkpt lat="43.26571667" lon="-4.255535">
        <ele>169.0</ele>
        <time>2018-05-19T17:30:55.458Z</time>
      </trkpt>
      <trkpt lat="43.26581" lon="-4.25537">
        <ele>168.0</ele>
        <time>2018-05-19T17:30:56.468Z</time>
      </trkpt>
      <trkpt lat="43.26581" lon="-4.25537">
        <ele>168.0</ele>
        <time>2018-05-19T17:30:57.466Z</time>
      </trkpt>
      <trkpt lat="43.26590667" lon="-4.25520333">
        <ele>168.0</ele>
        <time>2018-05-19T17:30:58.468Z</time>
      </trkpt>
      <trkpt lat="43.26590667" lon="-4.25520333">
        <ele>168.0</ele>
        <time>2018-05-19T17:30:59.461Z</time>
      </trkpt>
      <trkpt lat="43.26600167" lon="-4.25503333">
        <ele>168.0</ele>
        <time>2018-05-19T17:31:00.472Z</time>
      </trkpt>
      <trkpt lat="43.26600167" lon="-4.25503333">
        <ele>168.0</ele>
        <time>2018-05-19T17:31:01.462Z</time>
      </trkpt>
      <trkpt lat="43.26609333" lon="-4.25487">
        <ele>168.0</ele>
        <time>2018-05-19T17:31:02.468Z</time>
      </trkpt>
      <trkpt lat="43.26609333" lon="-4.25487">
        <ele>168.0</ele>
        <time>2018-05-19T17:31:03.453Z</time>
      </trkpt>
      <trkpt lat="43.26619" lon="-4.25470167">
        <ele>168.0</ele>
        <time>2018-05-19T17:31:04.481Z</time>
      </trkpt>
      <trkpt lat="43.26619" lon="-4.25470167">
        <ele>168.0</ele>
        <time>2018-05-19T17:31:05.467Z</time>
      </trkpt>
      <trkpt lat="43.266285" lon="-4.25453333">
        <ele>168.0</ele>
        <time>2018-05-19T17:31:06.468Z</time>
      </trkpt>
      <trkpt lat="43.266285" lon="-4.25453333">
        <ele>168.0</ele>
        <time>2018-05-19T17:31:07.463Z</time>
      </trkpt>
      <trkpt lat="43.26638" lon="-4.254365">
        <ele>168.0</ele>
        <time>2018-05-19T17:31:08.469Z</time>
      </trkpt>
      <trkpt lat="43.26642667" lon="-4.25428">
        <ele>167.0</ele>
        <time>2018-05-19T17:31:09.470Z</time>
      </trkpt>
      <trkpt lat="43.26642667" lon="-4.25428">
        <ele>167.0</ele>
        <time>2018-05-19T17:31:10.464Z</time>
      </trkpt>
      <trkpt lat="43.26652" lon="-4.25411333">
        <ele>167.0</ele>
        <time>2018-05-19T17:31:11.468Z</time>
      </trkpt>
      <trkpt lat="43.26656833" lon="-4.25403">
        <ele>167.0</ele>
        <time>2018-05-19T17:31:12.470Z</time>
      </trkpt>
      <trkpt lat="43.26656833" lon="-4.25403">
        <ele>167.0</ele>
        <time>2018-05-19T17:31:13.461Z</time>
      </trkpt>
      <trkpt lat="43.26666667" lon="-4.25386">
        <ele>167.0</ele>
        <time>2018-05-19T17:31:14.469Z</time>
      </trkpt>
      <trkpt lat="43.26666667" lon="-4.25386">
        <ele>167.0</ele>
        <time>2018-05-19T17:31:15.458Z</time>
      </trkpt>
      <trkpt lat="43.26676167" lon="-4.253685">
        <ele>167.0</ele>
        <time>2018-05-19T17:31:16.468Z</time>
      </trkpt>
      <trkpt lat="43.26676167" lon="-4.253685">
        <ele>167.0</ele>
        <time>2018-05-19T17:31:17.461Z</time>
      </trkpt>
      <trkpt lat="43.26686667" lon="-4.25351">
        <ele>167.0</ele>
        <time>2018-05-19T17:31:18.470Z</time>
      </trkpt>
      <trkpt lat="43.26686667" lon="-4.25351">
        <ele>167.0</ele>
        <time>2018-05-19T17:31:19.458Z</time>
      </trkpt>
      <trkpt lat="43.26697" lon="-4.25333167">
        <ele>167.0</ele>
        <time>2018-05-19T17:31:20.481Z</time>
      </trkpt>
      <trkpt lat="43.26702167" lon="-4.25324333">
        <ele>167.0</ele>
        <time>2018-05-19T17:31:21.470Z</time>
      </trkpt>
      <trkpt lat="43.26702167" lon="-4.25324333">
        <ele>167.0</ele>
        <time>2018-05-19T17:31:22.458Z</time>
      </trkpt>
      <trkpt lat="43.26712167" lon="-4.25306333">
        <ele>166.0</ele>
        <time>2018-05-19T17:31:23.462Z</time>
      </trkpt>
      <trkpt lat="43.26717" lon="-4.252975">
        <ele>166.0</ele>
        <time>2018-05-19T17:31:24.477Z</time>
      </trkpt>
      <trkpt lat="43.26717" lon="-4.252975">
        <ele>166.0</ele>
        <time>2018-05-19T17:31:25.484Z</time>
      </trkpt>
      <trkpt lat="43.267275" lon="-4.25279667">
        <ele>166.0</ele>
        <time>2018-05-19T17:31:26.453Z</time>
      </trkpt>
      <trkpt lat="43.26732667" lon="-4.25270333">
        <ele>166.0</ele>
        <time>2018-05-19T17:31:27.449Z</time>
      </trkpt>
      <trkpt lat="43.26732667" lon="-4.25270333">
        <ele>166.0</ele>
        <time>2018-05-19T17:31:28.480Z</time>
      </trkpt>
      <trkpt lat="43.26743333" lon="-4.25251333">
        <ele>165.0</ele>
        <time>2018-05-19T17:31:29.469Z</time>
      </trkpt>
      <trkpt lat="43.26748833" lon="-4.25241833">
        <ele>165.0</ele>
        <time>2018-05-19T17:31:30.469Z</time>
      </trkpt>
      <trkpt lat="43.26748833" lon="-4.25241833">
        <ele>165.0</ele>
        <time>2018-05-19T17:31:31.461Z</time>
      </trkpt>
      <trkpt lat="43.2676" lon="-4.25222333">
        <ele>165.0</ele>
        <time>2018-05-19T17:31:32.473Z</time>
      </trkpt>
      <trkpt lat="43.2676" lon="-4.25222333">
        <ele>165.0</ele>
        <time>2018-05-19T17:31:33.465Z</time>
      </trkpt>
      <trkpt lat="43.26770833" lon="-4.25203167">
        <ele>164.0</ele>
        <time>2018-05-19T17:31:34.469Z</time>
      </trkpt>
      <trkpt lat="43.26770833" lon="-4.25203167">
        <ele>164.0</ele>
        <time>2018-05-19T17:31:35.458Z</time>
      </trkpt>
      <trkpt lat="43.267815" lon="-4.25184667">
        <ele>164.0</ele>
        <time>2018-05-19T17:31:36.485Z</time>
      </trkpt>
      <trkpt lat="43.267815" lon="-4.25184667">
        <ele>164.0</ele>
        <time>2018-05-19T17:31:37.471Z</time>
      </trkpt>
      <trkpt lat="43.26792167" lon="-4.25166">
        <ele>164.0</ele>
        <time>2018-05-19T17:31:38.468Z</time>
      </trkpt>
      <trkpt lat="43.26792167" lon="-4.25166">
        <ele>164.0</ele>
        <time>2018-05-19T17:31:39.461Z</time>
      </trkpt>
      <trkpt lat="43.26802833" lon="-4.25147">
        <ele>163.0</ele>
        <time>2018-05-19T17:31:40.468Z</time>
      </trkpt>
      <trkpt lat="43.26802833" lon="-4.25147">
        <ele>163.0</ele>
        <time>2018-05-19T17:31:41.462Z</time>
      </trkpt>
      <trkpt lat="43.268135" lon="-4.25128667">
        <ele>163.0</ele>
        <time>2018-05-19T17:31:42.469Z</time>
      </trkpt>
      <trkpt lat="43.268135" lon="-4.25128667">
        <ele>163.0</ele>
        <time>2018-05-19T17:31:43.461Z</time>
      </trkpt>
      <trkpt lat="43.26824" lon="-4.25110167">
        <ele>163.0</ele>
        <time>2018-05-19T17:31:44.468Z</time>
      </trkpt>
      <trkpt lat="43.26824" lon="-4.25110167">
        <ele>163.0</ele>
        <time>2018-05-19T17:31:45.462Z</time>
      </trkpt>
      <trkpt lat="43.268345" lon="-4.25091833">
        <ele>163.0</ele>
        <time>2018-05-19T17:31:46.470Z</time>
      </trkpt>
      <trkpt lat="43.26839833" lon="-4.25082667">
        <ele>162.0</ele>
        <time>2018-05-19T17:31:47.470Z</time>
      </trkpt>
      <trkpt lat="43.26839833" lon="-4.25082667">
        <ele>162.0</ele>
        <time>2018-05-19T17:31:48.459Z</time>
      </trkpt>
      <trkpt lat="43.26850667" lon="-4.25064167">
        <ele>162.0</ele>
        <time>2018-05-19T17:31:49.470Z</time>
      </trkpt>
      <trkpt lat="43.26856167" lon="-4.25055">
        <ele>162.0</ele>
        <time>2018-05-19T17:31:50.467Z</time>
      </trkpt>
      <trkpt lat="43.26856167" lon="-4.25055">
        <ele>162.0</ele>
        <time>2018-05-19T17:31:51.458Z</time>
      </trkpt>
      <trkpt lat="43.26866667" lon="-4.25036333">
        <ele>162.0</ele>
        <time>2018-05-19T17:31:52.479Z</time>
      </trkpt>
      <trkpt lat="43.26866667" lon="-4.25036333">
        <ele>162.0</ele>
        <time>2018-05-19T17:31:53.463Z</time>
      </trkpt>
      <trkpt lat="43.26877333" lon="-4.25018">
        <ele>162.0</ele>
        <time>2018-05-19T17:31:54.451Z</time>
      </trkpt>
      <trkpt lat="43.26877333" lon="-4.25018">
        <ele>162.0</ele>
        <time>2018-05-19T17:31:55.478Z</time>
      </trkpt>
      <trkpt lat="43.26888" lon="-4.249995">
        <ele>161.0</ele>
        <time>2018-05-19T17:31:56.467Z</time>
      </trkpt>
      <trkpt lat="43.26888" lon="-4.249995">
        <ele>161.0</ele>
        <time>2018-05-19T17:31:57.461Z</time>
      </trkpt>
      <trkpt lat="43.26898667" lon="-4.24981">
        <ele>161.0</ele>
        <time>2018-05-19T17:31:58.467Z</time>
      </trkpt>
      <trkpt lat="43.26898667" lon="-4.24981">
        <ele>161.0</ele>
        <time>2018-05-19T17:31:59.467Z</time>
      </trkpt>
      <trkpt lat="43.26908833" lon="-4.24963167">
        <ele>161.0</ele>
        <time>2018-05-19T17:32:00.467Z</time>
      </trkpt>
      <trkpt lat="43.26913667" lon="-4.24954333">
        <ele>161.0</ele>
        <time>2018-05-19T17:32:01.467Z</time>
      </trkpt>
      <trkpt lat="43.26913667" lon="-4.24954333">
        <ele>161.0</ele>
        <time>2018-05-19T17:32:02.463Z</time>
      </trkpt>
      <trkpt lat="43.26923833" lon="-4.24936667">
        <ele>161.0</ele>
        <time>2018-05-19T17:32:03.468Z</time>
      </trkpt>
      <trkpt lat="43.26923833" lon="-4.24936667">
        <ele>161.0</ele>
        <time>2018-05-19T17:32:04.485Z</time>
      </trkpt>
      <trkpt lat="43.26933833" lon="-4.24918667">
        <ele>160.0</ele>
        <time>2018-05-19T17:32:05.473Z</time>
      </trkpt>
      <trkpt lat="43.26933833" lon="-4.24918667">
        <ele>160.0</ele>
        <time>2018-05-19T17:32:06.464Z</time>
      </trkpt>
      <trkpt lat="43.26944" lon="-4.24900333">
        <ele>160.0</ele>
        <time>2018-05-19T17:32:07.468Z</time>
      </trkpt>
      <trkpt lat="43.26949167" lon="-4.24891333">
        <ele>160.0</ele>
        <time>2018-05-19T17:32:08.467Z</time>
      </trkpt>
      <trkpt lat="43.26949167" lon="-4.24891333">
        <ele>160.0</ele>
        <time>2018-05-19T17:32:09.467Z</time>
      </trkpt>
      <trkpt lat="43.26959333" lon="-4.24873667">
        <ele>160.0</ele>
        <time>2018-05-19T17:32:10.471Z</time>
      </trkpt>
      <trkpt lat="43.26959333" lon="-4.24873667">
        <ele>160.0</ele>
        <time>2018-05-19T17:32:11.461Z</time>
      </trkpt>
      <trkpt lat="43.26969167" lon="-4.248555">
        <ele>160.0</ele>
        <time>2018-05-19T17:32:12.470Z</time>
      </trkpt>
      <trkpt lat="43.26969167" lon="-4.248555">
        <ele>160.0</ele>
        <time>2018-05-19T17:32:13.461Z</time>
      </trkpt>
      <trkpt lat="43.269795" lon="-4.24837833">
        <ele>160.0</ele>
        <time>2018-05-19T17:32:14.467Z</time>
      </trkpt>
      <trkpt lat="43.26984833" lon="-4.24828833">
        <ele>160.0</ele>
        <time>2018-05-19T17:32:15.468Z</time>
      </trkpt>
      <trkpt lat="43.26990167" lon="-4.248195">
        <ele>159.0</ele>
        <time>2018-05-19T17:32:16.468Z</time>
      </trkpt>
      <trkpt lat="43.26990167" lon="-4.248195">
        <ele>159.0</ele>
        <time>2018-05-19T17:32:17.458Z</time>
      </trkpt>
      <trkpt lat="43.27000667" lon="-4.24800667">
        <ele>159.0</ele>
        <time>2018-05-19T17:32:18.482Z</time>
      </trkpt>
      <trkpt lat="43.27000667" lon="-4.24800667">
        <ele>159.0</ele>
        <time>2018-05-19T17:32:19.467Z</time>
      </trkpt>
      <trkpt lat="43.270115" lon="-4.24781333">
        <ele>159.0</ele>
        <time>2018-05-19T17:32:20.467Z</time>
      </trkpt>
      <trkpt lat="43.270115" lon="-4.24781333">
        <ele>159.0</ele>
        <time>2018-05-19T17:32:21.458Z</time>
      </trkpt>
      <trkpt lat="43.27022167" lon="-4.24762333">
        <ele>159.0</ele>
        <time>2018-05-19T17:32:22.483Z</time>
      </trkpt>
      <trkpt lat="43.27027333" lon="-4.24753167">
        <ele>159.0</ele>
        <time>2018-05-19T17:32:23.484Z</time>
      </trkpt>
      <trkpt lat="43.27032667" lon="-4.24743833">
        <ele>159.0</ele>
        <time>2018-05-19T17:32:24.458Z</time>
      </trkpt>
      <trkpt lat="43.27038" lon="-4.24734667">
        <ele>159.0</ele>
        <time>2018-05-19T17:32:25.464Z</time>
      </trkpt>
      <trkpt lat="43.27043333" lon="-4.247255">
        <ele>159.0</ele>
        <time>2018-05-19T17:32:26.478Z</time>
      </trkpt>
      <trkpt lat="43.27043333" lon="-4.247255">
        <ele>159.0</ele>
        <time>2018-05-19T17:32:27.472Z</time>
      </trkpt>
      <trkpt lat="43.27053667" lon="-4.247075">
        <ele>159.0</ele>
        <time>2018-05-19T17:32:28.468Z</time>
      </trkpt>
      <trkpt lat="43.27053667" lon="-4.247075">
        <ele>159.0</ele>
        <time>2018-05-19T17:32:29.456Z</time>
      </trkpt>
      <trkpt lat="43.27064333" lon="-4.24690167">
        <ele>159.0</ele>
        <time>2018-05-19T17:32:30.467Z</time>
      </trkpt>
      <trkpt lat="43.27064333" lon="-4.24690167">
        <ele>159.0</ele>
        <time>2018-05-19T17:32:31.460Z</time>
      </trkpt>
      <trkpt lat="43.27075833" lon="-4.24674167">
        <ele>159.0</ele>
        <time>2018-05-19T17:32:32.465Z</time>
      </trkpt>
      <trkpt lat="43.27081667" lon="-4.246665">
        <ele>159.0</ele>
        <time>2018-05-19T17:32:33.470Z</time>
      </trkpt>
      <trkpt lat="43.270875" lon="-4.24659">
        <ele>159.0</ele>
        <time>2018-05-19T17:32:34.471Z</time>
      </trkpt>
      <trkpt lat="43.270875" lon="-4.24659">
        <ele>159.0</ele>
        <time>2018-05-19T17:32:35.458Z</time>
      </trkpt>
      <trkpt lat="43.270995" lon="-4.24644667">
        <ele>160.0</ele>
        <time>2018-05-19T17:32:36.448Z</time>
      </trkpt>
      <trkpt lat="43.270995" lon="-4.24644667">
        <ele>160.0</ele>
        <time>2018-05-19T17:32:37.472Z</time>
      </trkpt>
      <trkpt lat="43.27111167" lon="-4.246315">
        <ele>160.0</ele>
        <time>2018-05-19T17:32:38.466Z</time>
      </trkpt>
      <trkpt lat="43.27111167" lon="-4.246315">
        <ele>160.0</ele>
        <time>2018-05-19T17:32:39.461Z</time>
      </trkpt>
      <trkpt lat="43.27123333" lon="-4.246195">
        <ele>160.0</ele>
        <time>2018-05-19T17:32:40.467Z</time>
      </trkpt>
      <trkpt lat="43.27123333" lon="-4.246195">
        <ele>160.0</ele>
        <time>2018-05-19T17:32:41.461Z</time>
      </trkpt>
      <trkpt lat="43.27135667" lon="-4.24608833">
        <ele>160.0</ele>
        <time>2018-05-19T17:32:42.487Z</time>
      </trkpt>
      <trkpt lat="43.27135667" lon="-4.24608833">
        <ele>160.0</ele>
        <time>2018-05-19T17:32:43.479Z</time>
      </trkpt>
      <trkpt lat="43.27148" lon="-4.24598833">
        <ele>160.0</ele>
        <time>2018-05-19T17:32:44.467Z</time>
      </trkpt>
      <trkpt lat="43.27148" lon="-4.24598833">
        <ele>160.0</ele>
        <time>2018-05-19T17:32:45.458Z</time>
      </trkpt>
      <trkpt lat="43.27160333" lon="-4.24589833">
        <ele>160.0</ele>
        <time>2018-05-19T17:32:46.467Z</time>
      </trkpt>
      <trkpt lat="43.27160333" lon="-4.24589833">
        <ele>160.0</ele>
        <time>2018-05-19T17:32:47.461Z</time>
      </trkpt>
      <trkpt lat="43.27172833" lon="-4.24581333">
        <ele>160.0</ele>
        <time>2018-05-19T17:32:48.468Z</time>
      </trkpt>
      <trkpt lat="43.27172833" lon="-4.24581333">
        <ele>160.0</ele>
        <time>2018-05-19T17:32:49.458Z</time>
      </trkpt>
      <trkpt lat="43.27185667" lon="-4.24573833">
        <ele>160.0</ele>
        <time>2018-05-19T17:32:50.467Z</time>
      </trkpt>
      <trkpt lat="43.27192167" lon="-4.245705">
        <ele>160.0</ele>
        <time>2018-05-19T17:32:51.467Z</time>
      </trkpt>
      <trkpt lat="43.27192167" lon="-4.245705">
        <ele>160.0</ele>
        <time>2018-05-19T17:32:52.458Z</time>
      </trkpt>
      <trkpt lat="43.27205333" lon="-4.24564167">
        <ele>160.0</ele>
        <time>2018-05-19T17:32:53.467Z</time>
      </trkpt>
      <trkpt lat="43.27211833" lon="-4.24561167">
        <ele>160.0</ele>
        <time>2018-05-19T17:32:54.468Z</time>
      </trkpt>
      <trkpt lat="43.27211833" lon="-4.24561167">
        <ele>160.0</ele>
        <time>2018-05-19T17:32:55.461Z</time>
      </trkpt>
      <trkpt lat="43.27225167" lon="-4.24556">
        <ele>161.0</ele>
        <time>2018-05-19T17:32:56.469Z</time>
      </trkpt>
      <trkpt lat="43.27225167" lon="-4.24556">
        <ele>161.0</ele>
        <time>2018-05-19T17:32:57.466Z</time>
      </trkpt>
      <trkpt lat="43.27238333" lon="-4.24551667">
        <ele>161.0</ele>
        <time>2018-05-19T17:32:58.477Z</time>
      </trkpt>
      <trkpt lat="43.27245167" lon="-4.24549667">
        <ele>160.0</ele>
        <time>2018-05-19T17:32:59.469Z</time>
      </trkpt>
      <trkpt lat="43.27245167" lon="-4.24549667">
        <ele>160.0</ele>
        <time>2018-05-19T17:33:00.481Z</time>
      </trkpt>
      <trkpt lat="43.27258" lon="-4.245465">
        <ele>161.0</ele>
        <time>2018-05-19T17:33:01.467Z</time>
      </trkpt>
      <trkpt lat="43.27264833" lon="-4.24545333">
        <ele>161.0</ele>
        <time>2018-05-19T17:33:02.466Z</time>
      </trkpt>
      <trkpt lat="43.27264833" lon="-4.24545333">
        <ele>161.0</ele>
        <time>2018-05-19T17:33:03.460Z</time>
      </trkpt>
      <trkpt lat="43.272785" lon="-4.245435">
        <ele>161.0</ele>
        <time>2018-05-19T17:33:04.467Z</time>
      </trkpt>
      <trkpt lat="43.27285167" lon="-4.24542833">
        <ele>161.0</ele>
        <time>2018-05-19T17:33:05.464Z</time>
      </trkpt>
      <trkpt lat="43.27292333" lon="-4.24541833">
        <ele>160.0</ele>
        <time>2018-05-19T17:33:06.469Z</time>
      </trkpt>
      <trkpt lat="43.27292333" lon="-4.24541833">
        <ele>160.0</ele>
        <time>2018-05-19T17:33:07.458Z</time>
      </trkpt>
      <trkpt lat="43.273065" lon="-4.24542">
        <ele>160.0</ele>
        <time>2018-05-19T17:33:08.466Z</time>
      </trkpt>
      <trkpt lat="43.273065" lon="-4.24542">
        <ele>160.0</ele>
        <time>2018-05-19T17:33:09.463Z</time>
      </trkpt>
      <trkpt lat="43.273205" lon="-4.24542333">
        <ele>160.0</ele>
        <time>2018-05-19T17:33:10.467Z</time>
      </trkpt>
      <trkpt lat="43.273205" lon="-4.24542333">
        <ele>160.0</ele>
        <time>2018-05-19T17:33:11.460Z</time>
      </trkpt>
      <trkpt lat="43.273345" lon="-4.24544">
        <ele>160.0</ele>
        <time>2018-05-19T17:33:12.467Z</time>
      </trkpt>
      <trkpt lat="43.273345" lon="-4.24544">
        <ele>160.0</ele>
        <time>2018-05-19T17:33:13.460Z</time>
      </trkpt>
      <trkpt lat="43.27348167" lon="-4.245455">
        <ele>161.0</ele>
        <time>2018-05-19T17:33:14.466Z</time>
      </trkpt>
      <trkpt lat="43.27348167" lon="-4.245455">
        <ele>161.0</ele>
        <time>2018-05-19T17:33:15.457Z</time>
      </trkpt>
      <trkpt lat="43.27361" lon="-4.24546667">
        <ele>163.0</ele>
        <time>2018-05-19T17:33:16.466Z</time>
      </trkpt>
      <trkpt lat="43.27361" lon="-4.24546667">
        <ele>163.0</ele>
        <time>2018-05-19T17:33:17.459Z</time>
      </trkpt>
      <trkpt lat="43.27374167" lon="-4.24548">
        <ele>162.0</ele>
        <time>2018-05-19T17:33:18.467Z</time>
      </trkpt>
      <trkpt lat="43.27374167" lon="-4.24548">
        <ele>162.0</ele>
        <time>2018-05-19T17:33:19.459Z</time>
      </trkpt>
      <trkpt lat="43.273875" lon="-4.24549">
        <ele>163.0</ele>
        <time>2018-05-19T17:33:20.467Z</time>
      </trkpt>
      <trkpt lat="43.273875" lon="-4.24549">
        <ele>163.0</ele>
        <time>2018-05-19T17:33:21.461Z</time>
      </trkpt>
      <trkpt lat="43.27398833" lon="-4.2455">
        <ele>163.0</ele>
        <time>2018-05-19T17:33:22.468Z</time>
      </trkpt>
      <trkpt lat="43.27398833" lon="-4.2455">
        <ele>163.0</ele>
        <time>2018-05-19T17:33:23.471Z</time>
      </trkpt>
      <trkpt lat="43.27410167" lon="-4.24551167">
        <ele>164.0</ele>
        <time>2018-05-19T17:33:24.469Z</time>
      </trkpt>
      <trkpt lat="43.27415667" lon="-4.24552">
        <ele>165.0</ele>
        <time>2018-05-19T17:33:25.475Z</time>
      </trkpt>
      <trkpt lat="43.27415667" lon="-4.24552">
        <ele>165.0</ele>
        <time>2018-05-19T17:33:26.482Z</time>
      </trkpt>
      <trkpt lat="43.27426667" lon="-4.245545">
        <ele>167.0</ele>
        <time>2018-05-19T17:33:27.482Z</time>
      </trkpt>
      <trkpt lat="43.27426667" lon="-4.245545">
        <ele>167.0</ele>
        <time>2018-05-19T17:33:28.468Z</time>
      </trkpt>
      <trkpt lat="43.27437" lon="-4.24556833">
        <ele>169.0</ele>
        <time>2018-05-19T17:33:29.459Z</time>
      </trkpt>
      <trkpt lat="43.27442667" lon="-4.24557833">
        <ele>170.0</ele>
        <time>2018-05-19T17:33:30.467Z</time>
      </trkpt>
      <trkpt lat="43.27442667" lon="-4.24557833">
        <ele>170.0</ele>
        <time>2018-05-19T17:33:31.460Z</time>
      </trkpt>
      <trkpt lat="43.27453667" lon="-4.24559333">
        <ele>170.0</ele>
        <time>2018-05-19T17:33:32.466Z</time>
      </trkpt>
      <trkpt lat="43.27453667" lon="-4.24559333">
        <ele>170.0</ele>
        <time>2018-05-19T17:33:33.457Z</time>
      </trkpt>
      <trkpt lat="43.274645" lon="-4.24560167">
        <ele>171.0</ele>
        <time>2018-05-19T17:33:34.465Z</time>
      </trkpt>
      <trkpt lat="43.274645" lon="-4.24560167">
        <ele>171.0</ele>
        <time>2018-05-19T17:33:35.459Z</time>
      </trkpt>
      <trkpt lat="43.27476" lon="-4.245615">
        <ele>172.0</ele>
        <time>2018-05-19T17:33:36.478Z</time>
      </trkpt>
      <trkpt lat="43.27476" lon="-4.245615">
        <ele>172.0</ele>
        <time>2018-05-19T17:33:37.464Z</time>
      </trkpt>
      <trkpt lat="43.27487833" lon="-4.245635">
        <ele>172.0</ele>
        <time>2018-05-19T17:33:38.465Z</time>
      </trkpt>
      <trkpt lat="43.27487833" lon="-4.245635">
        <ele>172.0</ele>
        <time>2018-05-19T17:33:39.460Z</time>
      </trkpt>
      <trkpt lat="43.27500667" lon="-4.24565167">
        <ele>172.0</ele>
        <time>2018-05-19T17:33:40.465Z</time>
      </trkpt>
      <trkpt lat="43.27500667" lon="-4.24565167">
        <ele>172.0</ele>
        <time>2018-05-19T17:33:41.459Z</time>
      </trkpt>
      <trkpt lat="43.275145" lon="-4.24566333">
        <ele>172.0</ele>
        <time>2018-05-19T17:33:42.467Z</time>
      </trkpt>
      <trkpt lat="43.275145" lon="-4.24566333">
        <ele>172.0</ele>
        <time>2018-05-19T17:33:43.459Z</time>
      </trkpt>
      <trkpt lat="43.27528833" lon="-4.24566667">
        <ele>172.0</ele>
        <time>2018-05-19T17:33:44.467Z</time>
      </trkpt>
      <trkpt lat="43.27535667" lon="-4.24567833">
        <ele>173.0</ele>
        <time>2018-05-19T17:33:45.469Z</time>
      </trkpt>
      <trkpt lat="43.27535667" lon="-4.24567833">
        <ele>173.0</ele>
        <time>2018-05-19T17:33:46.459Z</time>
      </trkpt>
      <trkpt lat="43.27549667" lon="-4.24570333">
        <ele>175.0</ele>
        <time>2018-05-19T17:33:47.467Z</time>
      </trkpt>
      <trkpt lat="43.27557" lon="-4.24572">
        <ele>175.0</ele>
        <time>2018-05-19T17:33:48.468Z</time>
      </trkpt>
      <trkpt lat="43.27557" lon="-4.24572">
        <ele>175.0</ele>
        <time>2018-05-19T17:33:49.460Z</time>
      </trkpt>
      <trkpt lat="43.275725" lon="-4.24573167">
        <ele>175.0</ele>
        <time>2018-05-19T17:33:50.465Z</time>
      </trkpt>
      <trkpt lat="43.275725" lon="-4.24573167">
        <ele>175.0</ele>
        <time>2018-05-19T17:33:51.459Z</time>
      </trkpt>
      <trkpt lat="43.27588667" lon="-4.24573">
        <ele>176.0</ele>
        <time>2018-05-19T17:33:52.465Z</time>
      </trkpt>
      <trkpt lat="43.27588667" lon="-4.24573">
        <ele>176.0</ele>
        <time>2018-05-19T17:33:53.461Z</time>
      </trkpt>
      <trkpt lat="43.27604333" lon="-4.245695">
        <ele>177.0</ele>
        <time>2018-05-19T17:33:54.466Z</time>
      </trkpt>
      <trkpt lat="43.27612" lon="-4.24566667">
        <ele>178.0</ele>
        <time>2018-05-19T17:33:55.465Z</time>
      </trkpt>
      <trkpt lat="43.27612" lon="-4.24566667">
        <ele>178.0</ele>
        <time>2018-05-19T17:33:56.456Z</time>
      </trkpt>
      <trkpt lat="43.27627" lon="-4.24559333">
        <ele>179.0</ele>
        <time>2018-05-19T17:33:57.471Z</time>
      </trkpt>
      <trkpt lat="43.27635167" lon="-4.245535">
        <ele>177.0</ele>
        <time>2018-05-19T17:33:58.465Z</time>
      </trkpt>
      <trkpt lat="43.27635167" lon="-4.245535">
        <ele>177.0</ele>
        <time>2018-05-19T17:33:59.460Z</time>
      </trkpt>
      <trkpt lat="43.27649167" lon="-4.24540167">
        <ele>176.0</ele>
        <time>2018-05-19T17:34:00.467Z</time>
      </trkpt>
      <trkpt lat="43.27649167" lon="-4.24540167">
        <ele>176.0</ele>
        <time>2018-05-19T17:34:01.457Z</time>
      </trkpt>
      <trkpt lat="43.27660167" lon="-4.24524">
        <ele>175.0</ele>
        <time>2018-05-19T17:34:02.466Z</time>
      </trkpt>
      <trkpt lat="43.27660167" lon="-4.24524">
        <ele>175.0</ele>
        <time>2018-05-19T17:34:03.461Z</time>
      </trkpt>
      <trkpt lat="43.27670833" lon="-4.24506667">
        <ele>173.0</ele>
        <time>2018-05-19T17:34:04.467Z</time>
      </trkpt>
      <trkpt lat="43.27670833" lon="-4.24506667">
        <ele>173.0</ele>
        <time>2018-05-19T17:34:05.459Z</time>
      </trkpt>
      <trkpt lat="43.27678667" lon="-4.24488333">
        <ele>172.0</ele>
        <time>2018-05-19T17:34:06.466Z</time>
      </trkpt>
      <trkpt lat="43.27678667" lon="-4.24488333">
        <ele>172.0</ele>
        <time>2018-05-19T17:34:07.460Z</time>
      </trkpt>
      <trkpt lat="43.27683667" lon="-4.24469667">
        <ele>172.0</ele>
        <time>2018-05-19T17:34:08.468Z</time>
      </trkpt>
      <trkpt lat="43.27683667" lon="-4.24469667">
        <ele>172.0</ele>
        <time>2018-05-19T17:34:09.462Z</time>
      </trkpt>
      <trkpt lat="43.276865" lon="-4.24451167">
        <ele>171.0</ele>
        <time>2018-05-19T17:34:10.468Z</time>
      </trkpt>
      <trkpt lat="43.276865" lon="-4.24451167">
        <ele>171.0</ele>
        <time>2018-05-19T17:34:11.461Z</time>
      </trkpt>
      <trkpt lat="43.27687333" lon="-4.24433167">
        <ele>171.0</ele>
        <time>2018-05-19T17:34:12.469Z</time>
      </trkpt>
      <trkpt lat="43.27687333" lon="-4.24433167">
        <ele>171.0</ele>
        <time>2018-05-19T17:34:13.455Z</time>
      </trkpt>
      <trkpt lat="43.27688167" lon="-4.24415333">
        <ele>171.0</ele>
        <time>2018-05-19T17:34:14.465Z</time>
      </trkpt>
      <trkpt lat="43.27688167" lon="-4.24415333">
        <ele>171.0</ele>
        <time>2018-05-19T17:34:15.460Z</time>
      </trkpt>
      <trkpt lat="43.276875" lon="-4.24398167">
        <ele>171.0</ele>
        <time>2018-05-19T17:34:16.469Z</time>
      </trkpt>
      <trkpt lat="43.276875" lon="-4.24398167">
        <ele>171.0</ele>
        <time>2018-05-19T17:34:17.460Z</time>
      </trkpt>
      <trkpt lat="43.27686" lon="-4.24381">
        <ele>171.0</ele>
        <time>2018-05-19T17:34:18.465Z</time>
      </trkpt>
      <trkpt lat="43.27686" lon="-4.24381">
        <ele>171.0</ele>
        <time>2018-05-19T17:34:19.461Z</time>
      </trkpt>
      <trkpt lat="43.27684" lon="-4.243635">
        <ele>171.0</ele>
        <time>2018-05-19T17:34:20.467Z</time>
      </trkpt>
      <trkpt lat="43.27682833" lon="-4.24355">
        <ele>172.0</ele>
        <time>2018-05-19T17:34:21.466Z</time>
      </trkpt>
      <trkpt lat="43.27682833" lon="-4.24355">
        <ele>172.0</ele>
        <time>2018-05-19T17:34:22.458Z</time>
      </trkpt>
      <trkpt lat="43.27680167" lon="-4.24336667">
        <ele>172.0</ele>
        <time>2018-05-19T17:34:23.457Z</time>
      </trkpt>
      <trkpt lat="43.27680167" lon="-4.24336667">
        <ele>172.0</ele>
        <time>2018-05-19T17:34:24.470Z</time>
      </trkpt>
      <trkpt lat="43.27678" lon="-4.24318667">
        <ele>171.0</ele>
        <time>2018-05-19T17:34:25.477Z</time>
      </trkpt>
      <trkpt lat="43.27678" lon="-4.24318667">
        <ele>171.0</ele>
        <time>2018-05-19T17:34:26.485Z</time>
      </trkpt>
      <trkpt lat="43.27676333" lon="-4.24299667">
        <ele>171.0</ele>
        <time>2018-05-19T17:34:27.468Z</time>
      </trkpt>
      <trkpt lat="43.27676333" lon="-4.24299667">
        <ele>171.0</ele>
        <time>2018-05-19T17:34:28.459Z</time>
      </trkpt>
      <trkpt lat="43.27675" lon="-4.24279667">
        <ele>170.0</ele>
        <time>2018-05-19T17:34:29.465Z</time>
      </trkpt>
      <trkpt lat="43.27675" lon="-4.24279667">
        <ele>170.0</ele>
        <time>2018-05-19T17:34:30.458Z</time>
      </trkpt>
      <trkpt lat="43.276735" lon="-4.24259167">
        <ele>170.0</ele>
        <time>2018-05-19T17:34:31.482Z</time>
      </trkpt>
      <trkpt lat="43.276735" lon="-4.24259167">
        <ele>170.0</ele>
        <time>2018-05-19T17:34:32.468Z</time>
      </trkpt>
      <trkpt lat="43.27672833" lon="-4.24237667">
        <ele>169.0</ele>
        <time>2018-05-19T17:34:33.468Z</time>
      </trkpt>
      <trkpt lat="43.27672833" lon="-4.24237667">
        <ele>169.0</ele>
        <time>2018-05-19T17:34:34.459Z</time>
      </trkpt>
      <trkpt lat="43.27672" lon="-4.242155">
        <ele>169.0</ele>
        <time>2018-05-19T17:34:35.467Z</time>
      </trkpt>
      <trkpt lat="43.27672" lon="-4.242155">
        <ele>169.0</ele>
        <time>2018-05-19T17:34:36.483Z</time>
      </trkpt>
      <trkpt lat="43.27671833" lon="-4.24193">
        <ele>168.0</ele>
        <time>2018-05-19T17:34:37.469Z</time>
      </trkpt>
      <trkpt lat="43.27671833" lon="-4.24181667">
        <ele>168.0</ele>
        <time>2018-05-19T17:34:38.465Z</time>
      </trkpt>
      <trkpt lat="43.27671833" lon="-4.24181667">
        <ele>168.0</ele>
        <time>2018-05-19T17:34:39.459Z</time>
      </trkpt>
      <trkpt lat="43.27671667" lon="-4.24158667">
        <ele>167.0</ele>
        <time>2018-05-19T17:34:40.465Z</time>
      </trkpt>
      <trkpt lat="43.27671667" lon="-4.24158667">
        <ele>167.0</ele>
        <time>2018-05-19T17:34:41.459Z</time>
      </trkpt>
      <trkpt lat="43.27671667" lon="-4.24135167">
        <ele>166.0</ele>
        <time>2018-05-19T17:34:42.466Z</time>
      </trkpt>
      <trkpt lat="43.27671667" lon="-4.24135167">
        <ele>166.0</ele>
        <time>2018-05-19T17:34:43.463Z</time>
      </trkpt>
      <trkpt lat="43.27672" lon="-4.24111667">
        <ele>165.0</ele>
        <time>2018-05-19T17:34:44.465Z</time>
      </trkpt>
      <trkpt lat="43.27672" lon="-4.241">
        <ele>165.0</ele>
        <time>2018-05-19T17:34:45.465Z</time>
      </trkpt>
      <trkpt lat="43.27671833" lon="-4.24088333">
        <ele>165.0</ele>
        <time>2018-05-19T17:34:46.464Z</time>
      </trkpt>
      <trkpt lat="43.27671833" lon="-4.24088333">
        <ele>165.0</ele>
        <time>2018-05-19T17:34:47.459Z</time>
      </trkpt>
      <trkpt lat="43.27672167" lon="-4.24065333">
        <ele>165.0</ele>
        <time>2018-05-19T17:34:48.466Z</time>
      </trkpt>
      <trkpt lat="43.27672667" lon="-4.24054">
        <ele>164.0</ele>
        <time>2018-05-19T17:34:49.465Z</time>
      </trkpt>
      <trkpt lat="43.27672667" lon="-4.24054">
        <ele>164.0</ele>
        <time>2018-05-19T17:34:50.455Z</time>
      </trkpt>
      <trkpt lat="43.27674667" lon="-4.24031167">
        <ele>164.0</ele>
        <time>2018-05-19T17:34:51.480Z</time>
      </trkpt>
      <trkpt lat="43.27674667" lon="-4.24031167">
        <ele>164.0</ele>
        <time>2018-05-19T17:34:52.466Z</time>
      </trkpt>
      <trkpt lat="43.27677833" lon="-4.24008">
        <ele>164.0</ele>
        <time>2018-05-19T17:34:53.465Z</time>
      </trkpt>
      <trkpt lat="43.27677833" lon="-4.24008">
        <ele>164.0</ele>
        <time>2018-05-19T17:34:54.461Z</time>
      </trkpt>
      <trkpt lat="43.27683" lon="-4.23985333">
        <ele>164.0</ele>
        <time>2018-05-19T17:34:55.465Z</time>
      </trkpt>
      <trkpt lat="43.27683" lon="-4.23985333">
        <ele>164.0</ele>
        <time>2018-05-19T17:34:56.459Z</time>
      </trkpt>
      <trkpt lat="43.276895" lon="-4.23964333">
        <ele>163.0</ele>
        <time>2018-05-19T17:34:57.467Z</time>
      </trkpt>
      <trkpt lat="43.27693167" lon="-4.23954333">
        <ele>163.0</ele>
        <time>2018-05-19T17:34:58.466Z</time>
      </trkpt>
      <trkpt lat="43.27693167" lon="-4.23954333">
        <ele>163.0</ele>
        <time>2018-05-19T17:34:59.458Z</time>
      </trkpt>
      <trkpt lat="43.27701667" lon="-4.23935167">
        <ele>163.0</ele>
        <time>2018-05-19T17:35:00.468Z</time>
      </trkpt>
      <trkpt lat="43.27701667" lon="-4.23935167">
        <ele>163.0</ele>
        <time>2018-05-19T17:35:01.462Z</time>
      </trkpt>
      <trkpt lat="43.277115" lon="-4.23917667">
        <ele>163.0</ele>
        <time>2018-05-19T17:35:02.466Z</time>
      </trkpt>
      <trkpt lat="43.277115" lon="-4.23917667">
        <ele>163.0</ele>
        <time>2018-05-19T17:35:03.459Z</time>
      </trkpt>
      <trkpt lat="43.27723167" lon="-4.23902">
        <ele>163.0</ele>
        <time>2018-05-19T17:35:04.466Z</time>
      </trkpt>
      <trkpt lat="43.27723167" lon="-4.23902">
        <ele>163.0</ele>
        <time>2018-05-19T17:35:05.459Z</time>
      </trkpt>
      <trkpt lat="43.27735167" lon="-4.23887833">
        <ele>163.0</ele>
        <time>2018-05-19T17:35:06.467Z</time>
      </trkpt>
      <trkpt lat="43.27735167" lon="-4.23887833">
        <ele>163.0</ele>
        <time>2018-05-19T17:35:07.458Z</time>
      </trkpt>
      <trkpt lat="43.27747333" lon="-4.23875">
        <ele>163.0</ele>
        <time>2018-05-19T17:35:08.465Z</time>
      </trkpt>
      <trkpt lat="43.27747333" lon="-4.23875">
        <ele>163.0</ele>
        <time>2018-05-19T17:35:09.458Z</time>
      </trkpt>
      <trkpt lat="43.27759833" lon="-4.23863167">
        <ele>163.0</ele>
        <time>2018-05-19T17:35:10.465Z</time>
      </trkpt>
      <trkpt lat="43.27766167" lon="-4.23858167">
        <ele>163.0</ele>
        <time>2018-05-19T17:35:11.468Z</time>
      </trkpt>
      <trkpt lat="43.27766167" lon="-4.23858167">
        <ele>163.0</ele>
        <time>2018-05-19T17:35:12.468Z</time>
      </trkpt>
      <trkpt lat="43.277795" lon="-4.2385">
        <ele>163.0</ele>
        <time>2018-05-19T17:35:13.466Z</time>
      </trkpt>
      <trkpt lat="43.277795" lon="-4.2385">
        <ele>163.0</ele>
        <time>2018-05-19T17:35:14.455Z</time>
      </trkpt>
      <trkpt lat="43.27793333" lon="-4.238435">
        <ele>163.0</ele>
        <time>2018-05-19T17:35:15.465Z</time>
      </trkpt>
      <trkpt lat="43.27793333" lon="-4.238435">
        <ele>163.0</ele>
        <time>2018-05-19T17:35:16.461Z</time>
      </trkpt>
      <trkpt lat="43.27807667" lon="-4.238385">
        <ele>163.0</ele>
        <time>2018-05-19T17:35:17.465Z</time>
      </trkpt>
      <trkpt lat="43.27807667" lon="-4.238385">
        <ele>163.0</ele>
        <time>2018-05-19T17:35:18.460Z</time>
      </trkpt>
      <trkpt lat="43.27822333" lon="-4.23835">
        <ele>163.0</ele>
        <time>2018-05-19T17:35:19.465Z</time>
      </trkpt>
      <trkpt lat="43.278295" lon="-4.23833667">
        <ele>163.0</ele>
        <time>2018-05-19T17:35:20.467Z</time>
      </trkpt>
      <trkpt lat="43.278295" lon="-4.23833667">
        <ele>163.0</ele>
        <time>2018-05-19T17:35:21.459Z</time>
      </trkpt>
      <trkpt lat="43.27844" lon="-4.23832">
        <ele>163.0</ele>
        <time>2018-05-19T17:35:22.467Z</time>
      </trkpt>
      <trkpt lat="43.27844" lon="-4.23832">
        <ele>163.0</ele>
        <time>2018-05-19T17:35:23.485Z</time>
      </trkpt>
      <trkpt lat="43.27858" lon="-4.23830833">
        <ele>163.0</ele>
        <time>2018-05-19T17:35:24.477Z</time>
      </trkpt>
      <trkpt lat="43.27858" lon="-4.23830833">
        <ele>163.0</ele>
        <time>2018-05-19T17:35:25.448Z</time>
      </trkpt>
      <trkpt lat="43.27872833" lon="-4.23829167">
        <ele>164.0</ele>
        <time>2018-05-19T17:35:26.467Z</time>
      </trkpt>
      <trkpt lat="43.27872833" lon="-4.23829167">
        <ele>164.0</ele>
        <time>2018-05-19T17:35:27.461Z</time>
      </trkpt>
      <trkpt lat="43.27887167" lon="-4.23828833">
        <ele>164.0</ele>
        <time>2018-05-19T17:35:28.470Z</time>
      </trkpt>
      <trkpt lat="43.27887167" lon="-4.23828833">
        <ele>164.0</ele>
        <time>2018-05-19T17:35:29.476Z</time>
      </trkpt>
      <trkpt lat="43.27902333" lon="-4.23828">
        <ele>165.0</ele>
        <time>2018-05-19T17:35:30.483Z</time>
      </trkpt>
      <trkpt lat="43.27909833" lon="-4.23826667">
        <ele>165.0</ele>
        <time>2018-05-19T17:35:31.472Z</time>
      </trkpt>
      <trkpt lat="43.27917167" lon="-4.23824833">
        <ele>165.0</ele>
        <time>2018-05-19T17:35:32.465Z</time>
      </trkpt>
      <trkpt lat="43.27917167" lon="-4.23824833">
        <ele>165.0</ele>
        <time>2018-05-19T17:35:33.479Z</time>
      </trkpt>
      <trkpt lat="43.27931667" lon="-4.238195">
        <ele>166.0</ele>
        <time>2018-05-19T17:35:34.466Z</time>
      </trkpt>
      <trkpt lat="43.27931667" lon="-4.238195">
        <ele>166.0</ele>
        <time>2018-05-19T17:35:35.460Z</time>
      </trkpt>
      <trkpt lat="43.279465" lon="-4.238115">
        <ele>167.0</ele>
        <time>2018-05-19T17:35:36.484Z</time>
      </trkpt>
      <trkpt lat="43.279465" lon="-4.238115">
        <ele>167.0</ele>
        <time>2018-05-19T17:35:37.470Z</time>
      </trkpt>
      <trkpt lat="43.27960167" lon="-4.23801333">
        <ele>168.0</ele>
        <time>2018-05-19T17:35:38.465Z</time>
      </trkpt>
      <trkpt lat="43.27960167" lon="-4.23801333">
        <ele>168.0</ele>
        <time>2018-05-19T17:35:39.460Z</time>
      </trkpt>
      <trkpt lat="43.27973167" lon="-4.23789833">
        <ele>167.0</ele>
        <time>2018-05-19T17:35:40.466Z</time>
      </trkpt>
      <trkpt lat="43.27973167" lon="-4.23789833">
        <ele>167.0</ele>
        <time>2018-05-19T17:35:41.465Z</time>
      </trkpt>
      <trkpt lat="43.27985" lon="-4.237765">
        <ele>167.0</ele>
        <time>2018-05-19T17:35:42.467Z</time>
      </trkpt>
      <trkpt lat="43.27985" lon="-4.237765">
        <ele>167.0</ele>
        <time>2018-05-19T17:35:43.469Z</time>
      </trkpt>
      <trkpt lat="43.27997333" lon="-4.23761333">
        <ele>166.0</ele>
        <time>2018-05-19T17:35:44.484Z</time>
      </trkpt>
      <trkpt lat="43.28004" lon="-4.237545">
        <ele>166.0</ele>
        <time>2018-05-19T17:35:45.482Z</time>
      </trkpt>
      <trkpt lat="43.28010833" lon="-4.237475">
        <ele>166.0</ele>
        <time>2018-05-19T17:35:46.472Z</time>
      </trkpt>
      <trkpt lat="43.28010833" lon="-4.237475">
        <ele>166.0</ele>
        <time>2018-05-19T17:35:47.463Z</time>
      </trkpt>
      <trkpt lat="43.28023667" lon="-4.23734667">
        <ele>167.0</ele>
        <time>2018-05-19T17:35:48.468Z</time>
      </trkpt>
      <trkpt lat="43.28023667" lon="-4.23734667">
        <ele>167.0</ele>
        <time>2018-05-19T17:35:49.465Z</time>
      </trkpt>
      <trkpt lat="43.28036833" lon="-4.237225">
        <ele>167.0</ele>
        <time>2018-05-19T17:35:50.464Z</time>
      </trkpt>
      <trkpt lat="43.28043333" lon="-4.23716167">
        <ele>167.0</ele>
        <time>2018-05-19T17:35:51.465Z</time>
      </trkpt>
      <trkpt lat="43.28050167" lon="-4.23710333">
        <ele>167.0</ele>
        <time>2018-05-19T17:35:52.465Z</time>
      </trkpt>
      <trkpt lat="43.28050167" lon="-4.23710333">
        <ele>167.0</ele>
        <time>2018-05-19T17:35:53.459Z</time>
      </trkpt>
      <trkpt lat="43.28063833" lon="-4.23700167">
        <ele>168.0</ele>
        <time>2018-05-19T17:35:54.456Z</time>
      </trkpt>
      <trkpt lat="43.28071167" lon="-4.23695">
        <ele>168.0</ele>
        <time>2018-05-19T17:35:55.463Z</time>
      </trkpt>
      <trkpt lat="43.28078333" lon="-4.236905">
        <ele>168.0</ele>
        <time>2018-05-19T17:35:56.486Z</time>
      </trkpt>
      <trkpt lat="43.28078333" lon="-4.236905">
        <ele>168.0</ele>
        <time>2018-05-19T17:35:57.477Z</time>
      </trkpt>
      <trkpt lat="43.28093167" lon="-4.23682167">
        <ele>169.0</ele>
        <time>2018-05-19T17:35:58.467Z</time>
      </trkpt>
      <trkpt lat="43.28093167" lon="-4.23682167">
        <ele>169.0</ele>
        <time>2018-05-19T17:35:59.460Z</time>
      </trkpt>
      <trkpt lat="43.28108833" lon="-4.23673">
        <ele>169.0</ele>
        <time>2018-05-19T17:36:00.467Z</time>
      </trkpt>
      <trkpt lat="43.28108833" lon="-4.23673">
        <ele>169.0</ele>
        <time>2018-05-19T17:36:01.461Z</time>
      </trkpt>
      <trkpt lat="43.28123833" lon="-4.23664333">
        <ele>170.0</ele>
        <time>2018-05-19T17:36:02.465Z</time>
      </trkpt>
      <trkpt lat="43.28123833" lon="-4.23664333">
        <ele>170.0</ele>
        <time>2018-05-19T17:36:03.458Z</time>
      </trkpt>
      <trkpt lat="43.281385" lon="-4.23656167">
        <ele>171.0</ele>
        <time>2018-05-19T17:36:04.456Z</time>
      </trkpt>
      <trkpt lat="43.28146" lon="-4.236525">
        <ele>171.0</ele>
        <time>2018-05-19T17:36:05.465Z</time>
      </trkpt>
      <trkpt lat="43.28146" lon="-4.236525">
        <ele>171.0</ele>
        <time>2018-05-19T17:36:06.460Z</time>
      </trkpt>
      <trkpt lat="43.281605" lon="-4.23644">
        <ele>172.0</ele>
        <time>2018-05-19T17:36:07.465Z</time>
      </trkpt>
      <trkpt lat="43.281605" lon="-4.23644">
        <ele>172.0</ele>
        <time>2018-05-19T17:36:08.458Z</time>
      </trkpt>
      <trkpt lat="43.28175167" lon="-4.23635167">
        <ele>172.0</ele>
        <time>2018-05-19T17:36:09.469Z</time>
      </trkpt>
      <trkpt lat="43.28175167" lon="-4.23635167">
        <ele>172.0</ele>
        <time>2018-05-19T17:36:10.459Z</time>
      </trkpt>
      <trkpt lat="43.281905" lon="-4.23626333">
        <ele>172.0</ele>
        <time>2018-05-19T17:36:11.467Z</time>
      </trkpt>
      <trkpt lat="43.281905" lon="-4.23626333">
        <ele>172.0</ele>
        <time>2018-05-19T17:36:12.459Z</time>
      </trkpt>
      <trkpt lat="43.28206167" lon="-4.23617333">
        <ele>173.0</ele>
        <time>2018-05-19T17:36:13.465Z</time>
      </trkpt>
      <trkpt lat="43.28206167" lon="-4.23617333">
        <ele>173.0</ele>
        <time>2018-05-19T17:36:14.471Z</time>
      </trkpt>
      <trkpt lat="43.28221833" lon="-4.236085">
        <ele>173.0</ele>
        <time>2018-05-19T17:36:15.465Z</time>
      </trkpt>
      <trkpt lat="43.28221833" lon="-4.236085">
        <ele>173.0</ele>
        <time>2018-05-19T17:36:16.458Z</time>
      </trkpt>
      <trkpt lat="43.28238" lon="-4.23599833">
        <ele>173.0</ele>
        <time>2018-05-19T17:36:17.471Z</time>
      </trkpt>
      <trkpt lat="43.28246167" lon="-4.23595333">
        <ele>173.0</ele>
        <time>2018-05-19T17:36:18.468Z</time>
      </trkpt>
      <trkpt lat="43.28246167" lon="-4.23595333">
        <ele>173.0</ele>
        <time>2018-05-19T17:36:19.460Z</time>
      </trkpt>
      <trkpt lat="43.28262667" lon="-4.23585167">
        <ele>174.0</ele>
        <time>2018-05-19T17:36:20.465Z</time>
      </trkpt>
      <trkpt lat="43.28262667" lon="-4.23585167">
        <ele>174.0</ele>
        <time>2018-05-19T17:36:21.463Z</time>
      </trkpt>
      <trkpt lat="43.28280333" lon="-4.23574667">
        <ele>174.0</ele>
        <time>2018-05-19T17:36:22.465Z</time>
      </trkpt>
      <trkpt lat="43.28289167" lon="-4.23569833">
        <ele>174.0</ele>
        <time>2018-05-19T17:36:23.459Z</time>
      </trkpt>
      <trkpt lat="43.28289167" lon="-4.23569833">
        <ele>174.0</ele>
        <time>2018-05-19T17:36:24.473Z</time>
      </trkpt>
      <trkpt lat="43.28305" lon="-4.23560833">
        <ele>174.0</ele>
        <time>2018-05-19T17:36:25.479Z</time>
      </trkpt>
      <trkpt lat="43.28305" lon="-4.23560833">
        <ele>174.0</ele>
        <time>2018-05-19T17:36:26.488Z</time>
      </trkpt>
      <trkpt lat="43.28320333" lon="-4.235555">
        <ele>174.0</ele>
        <time>2018-05-19T17:36:27.476Z</time>
      </trkpt>
      <trkpt lat="43.28327833" lon="-4.23557167">
        <ele>175.0</ele>
        <time>2018-05-19T17:36:28.468Z</time>
      </trkpt>
      <trkpt lat="43.28327833" lon="-4.23557167">
        <ele>175.0</ele>
        <time>2018-05-19T17:36:29.460Z</time>
      </trkpt>
      <trkpt lat="43.28340167" lon="-4.23569167">
        <ele>175.0</ele>
        <time>2018-05-19T17:36:30.478Z</time>
      </trkpt>
      <trkpt lat="43.28340167" lon="-4.23569167">
        <ele>175.0</ele>
        <time>2018-05-19T17:36:31.466Z</time>
      </trkpt>
      <trkpt lat="43.28347833" lon="-4.2359">
        <ele>175.0</ele>
        <time>2018-05-19T17:36:32.466Z</time>
      </trkpt>
      <trkpt lat="43.28347833" lon="-4.2359">
        <ele>175.0</ele>
        <time>2018-05-19T17:36:33.459Z</time>
      </trkpt>
      <trkpt lat="43.28354833" lon="-4.23609667">
        <ele>175.0</ele>
        <time>2018-05-19T17:36:34.466Z</time>
      </trkpt>
      <trkpt lat="43.28354833" lon="-4.23609667">
        <ele>175.0</ele>
        <time>2018-05-19T17:36:35.459Z</time>
      </trkpt>
      <trkpt lat="43.28363333" lon="-4.23628833">
        <ele>173.0</ele>
        <time>2018-05-19T17:36:36.478Z</time>
      </trkpt>
      <trkpt lat="43.28363333" lon="-4.23628833">
        <ele>173.0</ele>
        <time>2018-05-19T17:36:37.466Z</time>
      </trkpt>
      <trkpt lat="43.283715" lon="-4.23648833">
        <ele>172.0</ele>
        <time>2018-05-19T17:36:38.466Z</time>
      </trkpt>
      <trkpt lat="43.283715" lon="-4.23648833">
        <ele>172.0</ele>
        <time>2018-05-19T17:36:39.459Z</time>
      </trkpt>
      <trkpt lat="43.28385" lon="-4.23661667">
        <ele>172.0</ele>
        <time>2018-05-19T17:36:40.463Z</time>
      </trkpt>
      <trkpt lat="43.28393833" lon="-4.23660667">
        <ele>171.0</ele>
        <time>2018-05-19T17:36:41.478Z</time>
      </trkpt>
      <trkpt lat="43.28402667" lon="-4.23657667">
        <ele>170.0</ele>
        <time>2018-05-19T17:36:42.467Z</time>
      </trkpt>
      <trkpt lat="43.28402667" lon="-4.23657667">
        <ele>170.0</ele>
        <time>2018-05-19T17:36:43.458Z</time>
      </trkpt>
      <trkpt lat="43.28419" lon="-4.23646333">
        <ele>169.0</ele>
        <time>2018-05-19T17:36:44.472Z</time>
      </trkpt>
      <trkpt lat="43.28427333" lon="-4.23641167">
        <ele>169.0</ele>
        <time>2018-05-19T17:36:45.463Z</time>
      </trkpt>
      <trkpt lat="43.28427333" lon="-4.23641167">
        <ele>169.0</ele>
        <time>2018-05-19T17:36:46.461Z</time>
      </trkpt>
      <trkpt lat="43.28444667" lon="-4.23630167">
        <ele>167.0</ele>
        <time>2018-05-19T17:36:47.465Z</time>
      </trkpt>
      <trkpt lat="43.284535" lon="-4.23625333">
        <ele>167.0</ele>
        <time>2018-05-19T17:36:48.467Z</time>
      </trkpt>
      <trkpt lat="43.284535" lon="-4.23625333">
        <ele>167.0</ele>
        <time>2018-05-19T17:36:49.460Z</time>
      </trkpt>
      <trkpt lat="43.28471667" lon="-4.236185">
        <ele>167.0</ele>
        <time>2018-05-19T17:36:50.465Z</time>
      </trkpt>
      <trkpt lat="43.284815" lon="-4.23616167">
        <ele>166.0</ele>
        <time>2018-05-19T17:36:51.464Z</time>
      </trkpt>
      <trkpt lat="43.284815" lon="-4.23616167">
        <ele>166.0</ele>
        <time>2018-05-19T17:36:52.458Z</time>
      </trkpt>
      <trkpt lat="43.28501167" lon="-4.23613833">
        <ele>165.0</ele>
        <time>2018-05-19T17:36:53.465Z</time>
      </trkpt>
      <trkpt lat="43.28510833" lon="-4.23614">
        <ele>164.0</ele>
        <time>2018-05-19T17:36:54.466Z</time>
      </trkpt>
      <trkpt lat="43.28510833" lon="-4.23614">
        <ele>164.0</ele>
        <time>2018-05-19T17:36:55.456Z</time>
      </trkpt>
      <trkpt lat="43.28529333" lon="-4.23616">
        <ele>163.0</ele>
        <time>2018-05-19T17:36:56.468Z</time>
      </trkpt>
      <trkpt lat="43.28529333" lon="-4.23616">
        <ele>163.0</ele>
        <time>2018-05-19T17:36:57.460Z</time>
      </trkpt>
      <trkpt lat="43.28547833" lon="-4.236155">
        <ele>160.0</ele>
        <time>2018-05-19T17:36:58.466Z</time>
      </trkpt>
      <trkpt lat="43.28547833" lon="-4.236155">
        <ele>160.0</ele>
        <time>2018-05-19T17:36:59.458Z</time>
      </trkpt>
      <trkpt lat="43.285665" lon="-4.236135">
        <ele>157.0</ele>
        <time>2018-05-19T17:37:00.469Z</time>
      </trkpt>
      <trkpt lat="43.285665" lon="-4.236135">
        <ele>157.0</ele>
        <time>2018-05-19T17:37:01.458Z</time>
      </trkpt>
      <trkpt lat="43.28585" lon="-4.236115">
        <ele>155.0</ele>
        <time>2018-05-19T17:37:02.465Z</time>
      </trkpt>
      <trkpt lat="43.28594167" lon="-4.236105">
        <ele>155.0</ele>
        <time>2018-05-19T17:37:03.465Z</time>
      </trkpt>
      <trkpt lat="43.28603333" lon="-4.23609833">
        <ele>154.0</ele>
        <time>2018-05-19T17:37:04.466Z</time>
      </trkpt>
      <trkpt lat="43.28603333" lon="-4.23609833">
        <ele>154.0</ele>
        <time>2018-05-19T17:37:05.459Z</time>
      </trkpt>
      <trkpt lat="43.286215" lon="-4.23607833">
        <ele>153.0</ele>
        <time>2018-05-19T17:37:06.466Z</time>
      </trkpt>
      <trkpt lat="43.286215" lon="-4.23607833">
        <ele>153.0</ele>
        <time>2018-05-19T17:37:07.459Z</time>
      </trkpt>
      <trkpt lat="43.28639167" lon="-4.23605667">
        <ele>153.0</ele>
        <time>2018-05-19T17:37:08.463Z</time>
      </trkpt>
      <trkpt lat="43.28648" lon="-4.236045">
        <ele>152.0</ele>
        <time>2018-05-19T17:37:09.463Z</time>
      </trkpt>
      <trkpt lat="43.28657" lon="-4.23603333">
        <ele>152.0</ele>
        <time>2018-05-19T17:37:10.464Z</time>
      </trkpt>
      <trkpt lat="43.28657" lon="-4.23603333">
        <ele>152.0</ele>
        <time>2018-05-19T17:37:11.451Z</time>
      </trkpt>
      <trkpt lat="43.28675333" lon="-4.23601333">
        <ele>151.0</ele>
        <time>2018-05-19T17:37:12.476Z</time>
      </trkpt>
      <trkpt lat="43.28675333" lon="-4.23601333">
        <ele>151.0</ele>
        <time>2018-05-19T17:37:13.461Z</time>
      </trkpt>
      <trkpt lat="43.28693833" lon="-4.23599333">
        <ele>151.0</ele>
        <time>2018-05-19T17:37:14.461Z</time>
      </trkpt>
      <trkpt lat="43.28703167" lon="-4.235985">
        <ele>151.0</ele>
        <time>2018-05-19T17:37:15.465Z</time>
      </trkpt>
      <trkpt lat="43.28703167" lon="-4.235985">
        <ele>151.0</ele>
        <time>2018-05-19T17:37:16.459Z</time>
      </trkpt>
      <trkpt lat="43.28721667" lon="-4.23597167">
        <ele>150.0</ele>
        <time>2018-05-19T17:37:17.465Z</time>
      </trkpt>
      <trkpt lat="43.28731" lon="-4.23596167">
        <ele>150.0</ele>
        <time>2018-05-19T17:37:18.465Z</time>
      </trkpt>
      <trkpt lat="43.28731" lon="-4.23596167">
        <ele>150.0</ele>
        <time>2018-05-19T17:37:19.463Z</time>
      </trkpt>
      <trkpt lat="43.28748833" lon="-4.235945">
        <ele>149.0</ele>
        <time>2018-05-19T17:37:20.453Z</time>
      </trkpt>
      <trkpt lat="43.28757667" lon="-4.23594167">
        <ele>149.0</ele>
        <time>2018-05-19T17:37:21.467Z</time>
      </trkpt>
      <trkpt lat="43.28766167" lon="-4.23593833">
        <ele>149.0</ele>
        <time>2018-05-19T17:37:22.466Z</time>
      </trkpt>
      <trkpt lat="43.28766167" lon="-4.23593833">
        <ele>149.0</ele>
        <time>2018-05-19T17:37:23.478Z</time>
      </trkpt>
      <trkpt lat="43.287835" lon="-4.23592833">
        <ele>148.0</ele>
        <time>2018-05-19T17:37:24.456Z</time>
      </trkpt>
      <trkpt lat="43.287835" lon="-4.23592833">
        <ele>148.0</ele>
        <time>2018-05-19T17:37:25.461Z</time>
      </trkpt>
      <trkpt lat="43.288005" lon="-4.235915">
        <ele>148.0</ele>
        <time>2018-05-19T17:37:26.467Z</time>
      </trkpt>
      <trkpt lat="43.28809167" lon="-4.23591">
        <ele>148.0</ele>
        <time>2018-05-19T17:37:27.465Z</time>
      </trkpt>
      <trkpt lat="43.28809167" lon="-4.23591">
        <ele>148.0</ele>
        <time>2018-05-19T17:37:28.459Z</time>
      </trkpt>
      <trkpt lat="43.288265" lon="-4.23590833">
        <ele>147.0</ele>
        <time>2018-05-19T17:37:29.465Z</time>
      </trkpt>
      <trkpt lat="43.28834833" lon="-4.23590833">
        <ele>147.0</ele>
        <time>2018-05-19T17:37:30.467Z</time>
      </trkpt>
      <trkpt lat="43.28834833" lon="-4.23590833">
        <ele>147.0</ele>
        <time>2018-05-19T17:37:31.472Z</time>
      </trkpt>
      <trkpt lat="43.28851667" lon="-4.23590167">
        <ele>147.0</ele>
        <time>2018-05-19T17:37:32.464Z</time>
      </trkpt>
      <trkpt lat="43.28860167" lon="-4.23589833">
        <ele>146.0</ele>
        <time>2018-05-19T17:37:33.465Z</time>
      </trkpt>
      <trkpt lat="43.28860167" lon="-4.23589833">
        <ele>146.0</ele>
        <time>2018-05-19T17:37:34.458Z</time>
      </trkpt>
      <trkpt lat="43.28877167" lon="-4.23589833">
        <ele>146.0</ele>
        <time>2018-05-19T17:37:35.465Z</time>
      </trkpt>
      <trkpt lat="43.28877167" lon="-4.23589833">
        <ele>146.0</ele>
        <time>2018-05-19T17:37:36.475Z</time>
      </trkpt>
      <trkpt lat="43.28894333" lon="-4.23589833">
        <ele>146.0</ele>
        <time>2018-05-19T17:37:37.465Z</time>
      </trkpt>
      <trkpt lat="43.28894333" lon="-4.23589833">
        <ele>146.0</ele>
        <time>2018-05-19T17:37:38.458Z</time>
      </trkpt>
      <trkpt lat="43.28911333" lon="-4.23589167">
        <ele>145.0</ele>
        <time>2018-05-19T17:37:39.464Z</time>
      </trkpt>
      <trkpt lat="43.28911333" lon="-4.23589167">
        <ele>145.0</ele>
        <time>2018-05-19T17:37:40.453Z</time>
      </trkpt>
      <trkpt lat="43.289285" lon="-4.23589333">
        <ele>145.0</ele>
        <time>2018-05-19T17:37:41.483Z</time>
      </trkpt>
      <trkpt lat="43.28937167" lon="-4.23589833">
        <ele>144.0</ele>
        <time>2018-05-19T17:37:42.466Z</time>
      </trkpt>
      <trkpt lat="43.28937167" lon="-4.23589833">
        <ele>144.0</ele>
        <time>2018-05-19T17:37:43.459Z</time>
      </trkpt>
      <trkpt lat="43.289545" lon="-4.23590167">
        <ele>144.0</ele>
        <time>2018-05-19T17:37:44.467Z</time>
      </trkpt>
      <trkpt lat="43.289545" lon="-4.23590167">
        <ele>144.0</ele>
        <time>2018-05-19T17:37:45.458Z</time>
      </trkpt>
      <trkpt lat="43.28972167" lon="-4.235895">
        <ele>144.0</ele>
        <time>2018-05-19T17:37:46.465Z</time>
      </trkpt>
      <trkpt lat="43.28972167" lon="-4.235895">
        <ele>144.0</ele>
        <time>2018-05-19T17:37:47.459Z</time>
      </trkpt>
      <trkpt lat="43.2899" lon="-4.235895">
        <ele>144.0</ele>
        <time>2018-05-19T17:37:48.467Z</time>
      </trkpt>
      <trkpt lat="43.2899" lon="-4.235895">
        <ele>144.0</ele>
        <time>2018-05-19T17:37:49.459Z</time>
      </trkpt>
      <trkpt lat="43.290075" lon="-4.23588667">
        <ele>143.0</ele>
        <time>2018-05-19T17:37:50.465Z</time>
      </trkpt>
      <trkpt lat="43.29016167" lon="-4.23588167">
        <ele>143.0</ele>
        <time>2018-05-19T17:37:51.466Z</time>
      </trkpt>
      <trkpt lat="43.29016167" lon="-4.23588167">
        <ele>143.0</ele>
        <time>2018-05-19T17:37:52.458Z</time>
      </trkpt>
      <trkpt lat="43.29033333" lon="-4.23587333">
        <ele>143.0</ele>
        <time>2018-05-19T17:37:53.465Z</time>
      </trkpt>
      <trkpt lat="43.29033333" lon="-4.23587333">
        <ele>143.0</ele>
        <time>2018-05-19T17:37:54.459Z</time>
      </trkpt>
      <trkpt lat="43.290505" lon="-4.235865">
        <ele>142.0</ele>
        <time>2018-05-19T17:37:55.483Z</time>
      </trkpt>
      <trkpt lat="43.29058833" lon="-4.23586333">
        <ele>142.0</ele>
        <time>2018-05-19T17:37:56.471Z</time>
      </trkpt>
      <trkpt lat="43.29058833" lon="-4.23586333">
        <ele>142.0</ele>
        <time>2018-05-19T17:37:57.459Z</time>
      </trkpt>
      <trkpt lat="43.290755" lon="-4.23586667">
        <ele>142.0</ele>
        <time>2018-05-19T17:37:58.465Z</time>
      </trkpt>
      <trkpt lat="43.290755" lon="-4.23586667">
        <ele>142.0</ele>
        <time>2018-05-19T17:37:59.459Z</time>
      </trkpt>
      <trkpt lat="43.29092333" lon="-4.23586667">
        <ele>141.0</ele>
        <time>2018-05-19T17:38:00.465Z</time>
      </trkpt>
      <trkpt lat="43.29092333" lon="-4.23586667">
        <ele>141.0</ele>
        <time>2018-05-19T17:38:01.460Z</time>
      </trkpt>
      <trkpt lat="43.29109167" lon="-4.23586333">
        <ele>141.0</ele>
        <time>2018-05-19T17:38:02.464Z</time>
      </trkpt>
      <trkpt lat="43.29109167" lon="-4.23586333">
        <ele>141.0</ele>
        <time>2018-05-19T17:38:03.458Z</time>
      </trkpt>
      <trkpt lat="43.291265" lon="-4.23586333">
        <ele>141.0</ele>
        <time>2018-05-19T17:38:04.464Z</time>
      </trkpt>
      <trkpt lat="43.291265" lon="-4.23586333">
        <ele>141.0</ele>
        <time>2018-05-19T17:38:05.459Z</time>
      </trkpt>
      <trkpt lat="43.29144" lon="-4.23586167">
        <ele>140.0</ele>
        <time>2018-05-19T17:38:06.467Z</time>
      </trkpt>
      <trkpt lat="43.29152833" lon="-4.23586">
        <ele>140.0</ele>
        <time>2018-05-19T17:38:07.464Z</time>
      </trkpt>
      <trkpt lat="43.29152833" lon="-4.23586">
        <ele>140.0</ele>
        <time>2018-05-19T17:38:08.458Z</time>
      </trkpt>
      <trkpt lat="43.2917" lon="-4.23585333">
        <ele>140.0</ele>
        <time>2018-05-19T17:38:09.465Z</time>
      </trkpt>
      <trkpt lat="43.2917" lon="-4.23585333">
        <ele>140.0</ele>
        <time>2018-05-19T17:38:10.458Z</time>
      </trkpt>
      <trkpt lat="43.29187333" lon="-4.23585333">
        <ele>140.0</ele>
        <time>2018-05-19T17:38:11.463Z</time>
      </trkpt>
      <trkpt lat="43.29196" lon="-4.23585167">
        <ele>139.0</ele>
        <time>2018-05-19T17:38:12.468Z</time>
      </trkpt>
      <trkpt lat="43.29196" lon="-4.23585167">
        <ele>139.0</ele>
        <time>2018-05-19T17:38:13.459Z</time>
      </trkpt>
      <trkpt lat="43.29213333" lon="-4.23584833">
        <ele>139.0</ele>
        <time>2018-05-19T17:38:14.463Z</time>
      </trkpt>
      <trkpt lat="43.29222" lon="-4.23585">
        <ele>139.0</ele>
        <time>2018-05-19T17:38:15.465Z</time>
      </trkpt>
      <trkpt lat="43.29222" lon="-4.23585">
        <ele>139.0</ele>
        <time>2018-05-19T17:38:16.459Z</time>
      </trkpt>
      <trkpt lat="43.29239167" lon="-4.23586333">
        <ele>139.0</ele>
        <time>2018-05-19T17:38:17.456Z</time>
      </trkpt>
      <trkpt lat="43.29247667" lon="-4.23587667">
        <ele>138.0</ele>
        <time>2018-05-19T17:38:18.467Z</time>
      </trkpt>
      <trkpt lat="43.29247667" lon="-4.23587667">
        <ele>138.0</ele>
        <time>2018-05-19T17:38:19.458Z</time>
      </trkpt>
      <trkpt lat="43.292645" lon="-4.23592833">
        <ele>138.0</ele>
        <time>2018-05-19T17:38:20.466Z</time>
      </trkpt>
      <trkpt lat="43.292645" lon="-4.23592833">
        <ele>138.0</ele>
        <time>2018-05-19T17:38:21.459Z</time>
      </trkpt>
      <trkpt lat="43.29281" lon="-4.236015">
        <ele>138.0</ele>
        <time>2018-05-19T17:38:22.462Z</time>
      </trkpt>
      <trkpt lat="43.29281" lon="-4.236015">
        <ele>138.0</ele>
        <time>2018-05-19T17:38:23.471Z</time>
      </trkpt>
      <trkpt lat="43.29296833" lon="-4.23611167">
        <ele>138.0</ele>
        <time>2018-05-19T17:38:24.483Z</time>
      </trkpt>
      <trkpt lat="43.29296833" lon="-4.23611167">
        <ele>138.0</ele>
        <time>2018-05-19T17:38:25.453Z</time>
      </trkpt>
      <trkpt lat="43.29312333" lon="-4.236205">
        <ele>138.0</ele>
        <time>2018-05-19T17:38:26.464Z</time>
      </trkpt>
      <trkpt lat="43.2932" lon="-4.23625333">
        <ele>138.0</ele>
        <time>2018-05-19T17:38:27.465Z</time>
      </trkpt>
      <trkpt lat="43.2932" lon="-4.23625333">
        <ele>138.0</ele>
        <time>2018-05-19T17:38:28.456Z</time>
      </trkpt>
      <trkpt lat="43.293355" lon="-4.23635833">
        <ele>138.0</ele>
        <time>2018-05-19T17:38:29.464Z</time>
      </trkpt>
      <trkpt lat="43.29343167" lon="-4.23641167">
        <ele>138.0</ele>
        <time>2018-05-19T17:38:30.467Z</time>
      </trkpt>
      <trkpt lat="43.29343167" lon="-4.23641167">
        <ele>138.0</ele>
        <time>2018-05-19T17:38:31.461Z</time>
      </trkpt>
      <trkpt lat="43.293585" lon="-4.23651333">
        <ele>138.0</ele>
        <time>2018-05-19T17:38:32.467Z</time>
      </trkpt>
      <trkpt lat="43.29366167" lon="-4.23656333">
        <ele>138.0</ele>
        <time>2018-05-19T17:38:33.467Z</time>
      </trkpt>
      <trkpt lat="43.29366167" lon="-4.23656333">
        <ele>138.0</ele>
        <time>2018-05-19T17:38:34.460Z</time>
      </trkpt>
      <trkpt lat="43.29381" lon="-4.23667">
        <ele>138.0</ele>
        <time>2018-05-19T17:38:35.461Z</time>
      </trkpt>
      <trkpt lat="43.293885" lon="-4.236725">
        <ele>138.0</ele>
        <time>2018-05-19T17:38:36.465Z</time>
      </trkpt>
      <trkpt lat="43.293885" lon="-4.236725">
        <ele>138.0</ele>
        <time>2018-05-19T17:38:37.468Z</time>
      </trkpt>
      <trkpt lat="43.29403333" lon="-4.23683">
        <ele>138.0</ele>
        <time>2018-05-19T17:38:38.465Z</time>
      </trkpt>
      <trkpt lat="43.29403333" lon="-4.23683">
        <ele>138.0</ele>
        <time>2018-05-19T17:38:39.463Z</time>
      </trkpt>
      <trkpt lat="43.29417667" lon="-4.23694333">
        <ele>138.0</ele>
        <time>2018-05-19T17:38:40.466Z</time>
      </trkpt>
      <trkpt lat="43.29417667" lon="-4.23694333">
        <ele>138.0</ele>
        <time>2018-05-19T17:38:41.470Z</time>
      </trkpt>
      <trkpt lat="43.29430333" lon="-4.23709">
        <ele>139.0</ele>
        <time>2018-05-19T17:38:42.467Z</time>
      </trkpt>
      <trkpt lat="43.29430333" lon="-4.23709">
        <ele>139.0</ele>
        <time>2018-05-19T17:38:43.457Z</time>
      </trkpt>
      <trkpt lat="43.29440667" lon="-4.23725333">
        <ele>139.0</ele>
        <time>2018-05-19T17:38:44.466Z</time>
      </trkpt>
      <trkpt lat="43.29440667" lon="-4.23725333">
        <ele>139.0</ele>
        <time>2018-05-19T17:38:45.459Z</time>
      </trkpt>
      <trkpt lat="43.2945" lon="-4.23742833">
        <ele>139.0</ele>
        <time>2018-05-19T17:38:46.467Z</time>
      </trkpt>
      <trkpt lat="43.294555" lon="-4.23750833">
        <ele>140.0</ele>
        <time>2018-05-19T17:38:47.466Z</time>
      </trkpt>
      <trkpt lat="43.294555" lon="-4.23750833">
        <ele>140.0</ele>
        <time>2018-05-19T17:38:48.464Z</time>
      </trkpt>
      <trkpt lat="43.294685" lon="-4.23763333">
        <ele>139.0</ele>
        <time>2018-05-19T17:38:49.472Z</time>
      </trkpt>
      <trkpt lat="43.29475833" lon="-4.23768667">
        <ele>139.0</ele>
        <time>2018-05-19T17:38:50.467Z</time>
      </trkpt>
      <trkpt lat="43.29475833" lon="-4.23768667">
        <ele>139.0</ele>
        <time>2018-05-19T17:38:51.465Z</time>
      </trkpt>
      <trkpt lat="43.29490833" lon="-4.23778333">
        <ele>140.0</ele>
        <time>2018-05-19T17:38:52.468Z</time>
      </trkpt>
      <trkpt lat="43.29490833" lon="-4.23778333">
        <ele>140.0</ele>
        <time>2018-05-19T17:38:53.459Z</time>
      </trkpt>
      <trkpt lat="43.29506167" lon="-4.23787333">
        <ele>140.0</ele>
        <time>2018-05-19T17:38:54.467Z</time>
      </trkpt>
      <trkpt lat="43.29506167" lon="-4.23787333">
        <ele>140.0</ele>
        <time>2018-05-19T17:38:55.459Z</time>
      </trkpt>
      <trkpt lat="43.29521167" lon="-4.237965">
        <ele>140.0</ele>
        <time>2018-05-19T17:38:56.470Z</time>
      </trkpt>
      <trkpt lat="43.29521167" lon="-4.237965">
        <ele>140.0</ele>
        <time>2018-05-19T17:38:57.459Z</time>
      </trkpt>
      <trkpt lat="43.29536167" lon="-4.238045">
        <ele>140.0</ele>
        <time>2018-05-19T17:38:58.467Z</time>
      </trkpt>
      <trkpt lat="43.29536167" lon="-4.238045">
        <ele>140.0</ele>
        <time>2018-05-19T17:38:59.458Z</time>
      </trkpt>
      <trkpt lat="43.29551" lon="-4.23813">
        <ele>140.0</ele>
        <time>2018-05-19T17:39:00.469Z</time>
      </trkpt>
      <trkpt lat="43.29551" lon="-4.23813">
        <ele>140.0</ele>
        <time>2018-05-19T17:39:01.459Z</time>
      </trkpt>
      <trkpt lat="43.29565833" lon="-4.23821833">
        <ele>140.0</ele>
        <time>2018-05-19T17:39:02.465Z</time>
      </trkpt>
      <trkpt lat="43.29573167" lon="-4.23826">
        <ele>140.0</ele>
        <time>2018-05-19T17:39:03.465Z</time>
      </trkpt>
      <trkpt lat="43.29573167" lon="-4.23826">
        <ele>140.0</ele>
        <time>2018-05-19T17:39:04.462Z</time>
      </trkpt>
      <trkpt lat="43.29588333" lon="-4.23832">
        <ele>140.0</ele>
        <time>2018-05-19T17:39:05.465Z</time>
      </trkpt>
      <trkpt lat="43.295965" lon="-4.238335">
        <ele>140.0</ele>
        <time>2018-05-19T17:39:06.468Z</time>
      </trkpt>
      <trkpt lat="43.295965" lon="-4.238335">
        <ele>140.0</ele>
        <time>2018-05-19T17:39:07.460Z</time>
      </trkpt>
      <trkpt lat="43.29612667" lon="-4.23835667">
        <ele>139.0</ele>
        <time>2018-05-19T17:39:08.463Z</time>
      </trkpt>
      <trkpt lat="43.29621" lon="-4.23836333">
        <ele>139.0</ele>
        <time>2018-05-19T17:39:09.465Z</time>
      </trkpt>
      <trkpt lat="43.29621" lon="-4.23836333">
        <ele>139.0</ele>
        <time>2018-05-19T17:39:10.460Z</time>
      </trkpt>
      <trkpt lat="43.29637833" lon="-4.23837167">
        <ele>139.0</ele>
        <time>2018-05-19T17:39:11.467Z</time>
      </trkpt>
      <trkpt lat="43.29646" lon="-4.23836667">
        <ele>138.0</ele>
        <time>2018-05-19T17:39:12.470Z</time>
      </trkpt>
      <trkpt lat="43.29646" lon="-4.23836667">
        <ele>138.0</ele>
        <time>2018-05-19T17:39:13.464Z</time>
      </trkpt>
      <trkpt lat="43.29662" lon="-4.23835">
        <ele>138.0</ele>
        <time>2018-05-19T17:39:14.465Z</time>
      </trkpt>
      <trkpt lat="43.29662" lon="-4.23835">
        <ele>138.0</ele>
        <time>2018-05-19T17:39:15.459Z</time>
      </trkpt>
      <trkpt lat="43.29678" lon="-4.23833333">
        <ele>137.0</ele>
        <time>2018-05-19T17:39:16.466Z</time>
      </trkpt>
      <trkpt lat="43.29678" lon="-4.23833333">
        <ele>137.0</ele>
        <time>2018-05-19T17:39:17.458Z</time>
      </trkpt>
      <trkpt lat="43.29694167" lon="-4.23831667">
        <ele>137.0</ele>
        <time>2018-05-19T17:39:18.466Z</time>
      </trkpt>
      <trkpt lat="43.29694167" lon="-4.23831667">
        <ele>137.0</ele>
        <time>2018-05-19T17:39:19.460Z</time>
      </trkpt>
      <trkpt lat="43.29709833" lon="-4.23830333">
        <ele>137.0</ele>
        <time>2018-05-19T17:39:20.465Z</time>
      </trkpt>
      <trkpt lat="43.29709833" lon="-4.23830333">
        <ele>137.0</ele>
        <time>2018-05-19T17:39:21.461Z</time>
      </trkpt>
      <trkpt lat="43.29724833" lon="-4.238285">
        <ele>137.0</ele>
        <time>2018-05-19T17:39:22.468Z</time>
      </trkpt>
      <trkpt lat="43.29724833" lon="-4.238285">
        <ele>137.0</ele>
        <time>2018-05-19T17:39:23.450Z</time>
      </trkpt>
      <trkpt lat="43.29739833" lon="-4.23826667">
        <ele>136.0</ele>
        <time>2018-05-19T17:39:24.462Z</time>
      </trkpt>
      <trkpt lat="43.297475" lon="-4.238255">
        <ele>136.0</ele>
        <time>2018-05-19T17:39:25.468Z</time>
      </trkpt>
      <trkpt lat="43.297475" lon="-4.238255">
        <ele>136.0</ele>
        <time>2018-05-19T17:39:26.476Z</time>
      </trkpt>
      <trkpt lat="43.29762833" lon="-4.238235">
        <ele>136.0</ele>
        <time>2018-05-19T17:39:27.469Z</time>
      </trkpt>
      <trkpt lat="43.29762833" lon="-4.238235">
        <ele>136.0</ele>
        <time>2018-05-19T17:39:28.460Z</time>
      </trkpt>
      <trkpt lat="43.29778667" lon="-4.23822167">
        <ele>136.0</ele>
        <time>2018-05-19T17:39:29.475Z</time>
      </trkpt>
      <trkpt lat="43.29786667" lon="-4.23821333">
        <ele>136.0</ele>
        <time>2018-05-19T17:39:30.468Z</time>
      </trkpt>
      <trkpt lat="43.29786667" lon="-4.23821333">
        <ele>136.0</ele>
        <time>2018-05-19T17:39:31.459Z</time>
      </trkpt>
      <trkpt lat="43.29802833" lon="-4.23819833">
        <ele>135.0</ele>
        <time>2018-05-19T17:39:32.486Z</time>
      </trkpt>
      <trkpt lat="43.29802833" lon="-4.23819833">
        <ele>135.0</ele>
        <time>2018-05-19T17:39:33.471Z</time>
      </trkpt>
      <trkpt lat="43.29819333" lon="-4.23818667">
        <ele>135.0</ele>
        <time>2018-05-19T17:39:34.466Z</time>
      </trkpt>
      <trkpt lat="43.29827333" lon="-4.23818">
        <ele>135.0</ele>
        <time>2018-05-19T17:39:35.466Z</time>
      </trkpt>
      <trkpt lat="43.29827333" lon="-4.23818">
        <ele>135.0</ele>
        <time>2018-05-19T17:39:36.476Z</time>
      </trkpt>
      <trkpt lat="43.29843" lon="-4.23816">
        <ele>135.0</ele>
        <time>2018-05-19T17:39:37.477Z</time>
      </trkpt>
      <trkpt lat="43.29843" lon="-4.23816">
        <ele>135.0</ele>
        <time>2018-05-19T17:39:38.464Z</time>
      </trkpt>
      <trkpt lat="43.29858667" lon="-4.238145">
        <ele>135.0</ele>
        <time>2018-05-19T17:39:39.465Z</time>
      </trkpt>
      <trkpt lat="43.29858667" lon="-4.238145">
        <ele>135.0</ele>
        <time>2018-05-19T17:39:40.460Z</time>
      </trkpt>
      <trkpt lat="43.298745" lon="-4.23812833">
        <ele>134.0</ele>
        <time>2018-05-19T17:39:41.467Z</time>
      </trkpt>
      <trkpt lat="43.298745" lon="-4.23812833">
        <ele>134.0</ele>
        <time>2018-05-19T17:39:42.459Z</time>
      </trkpt>
      <trkpt lat="43.29890833" lon="-4.23811667">
        <ele>134.0</ele>
        <time>2018-05-19T17:39:43.467Z</time>
      </trkpt>
      <trkpt lat="43.29899" lon="-4.23810833">
        <ele>134.0</ele>
        <time>2018-05-19T17:39:44.468Z</time>
      </trkpt>
      <trkpt lat="43.29899" lon="-4.23810833">
        <ele>134.0</ele>
        <time>2018-05-19T17:39:45.459Z</time>
      </trkpt>
      <trkpt lat="43.29915333" lon="-4.23809333">
        <ele>134.0</ele>
        <time>2018-05-19T17:39:46.466Z</time>
      </trkpt>
      <trkpt lat="43.299235" lon="-4.238085">
        <ele>133.0</ele>
        <time>2018-05-19T17:39:47.469Z</time>
      </trkpt>
      <trkpt lat="43.29931833" lon="-4.23807833">
        <ele>133.0</ele>
        <time>2018-05-19T17:39:48.470Z</time>
      </trkpt>
      <trkpt lat="43.29931833" lon="-4.23807833">
        <ele>133.0</ele>
        <time>2018-05-19T17:39:49.462Z</time>
      </trkpt>
      <trkpt lat="43.299485" lon="-4.23806833">
        <ele>133.0</ele>
        <time>2018-05-19T17:39:50.463Z</time>
      </trkpt>
      <trkpt lat="43.299485" lon="-4.23806833">
        <ele>133.0</ele>
        <time>2018-05-19T17:39:51.462Z</time>
      </trkpt>
      <trkpt lat="43.29965167" lon="-4.23805333">
        <ele>133.0</ele>
        <time>2018-05-19T17:39:52.463Z</time>
      </trkpt>
      <trkpt lat="43.29965167" lon="-4.23805333">
        <ele>133.0</ele>
        <time>2018-05-19T17:39:53.459Z</time>
      </trkpt>
      <trkpt lat="43.29982" lon="-4.23803167">
        <ele>132.0</ele>
        <time>2018-05-19T17:39:54.466Z</time>
      </trkpt>
      <trkpt lat="43.29982" lon="-4.23803167">
        <ele>132.0</ele>
        <time>2018-05-19T17:39:55.459Z</time>
      </trkpt>
      <trkpt lat="43.29998667" lon="-4.23800833">
        <ele>132.0</ele>
        <time>2018-05-19T17:39:56.456Z</time>
      </trkpt>
      <trkpt lat="43.30007" lon="-4.23799667">
        <ele>132.0</ele>
        <time>2018-05-19T17:39:57.465Z</time>
      </trkpt>
      <trkpt lat="43.30007" lon="-4.23799667">
        <ele>132.0</ele>
        <time>2018-05-19T17:39:58.459Z</time>
      </trkpt>
      <trkpt lat="43.30023833" lon="-4.237975">
        <ele>132.0</ele>
        <time>2018-05-19T17:39:59.465Z</time>
      </trkpt>
      <trkpt lat="43.30032333" lon="-4.237965">
        <ele>132.0</ele>
        <time>2018-05-19T17:40:00.468Z</time>
      </trkpt>
      <trkpt lat="43.30032333" lon="-4.237965">
        <ele>132.0</ele>
        <time>2018-05-19T17:40:01.459Z</time>
      </trkpt>
      <trkpt lat="43.300495" lon="-4.23795">
        <ele>132.0</ele>
        <time>2018-05-19T17:40:02.465Z</time>
      </trkpt>
      <trkpt lat="43.300495" lon="-4.23795">
        <ele>132.0</ele>
        <time>2018-05-19T17:40:03.456Z</time>
      </trkpt>
      <trkpt lat="43.300665" lon="-4.23793333">
        <ele>131.0</ele>
        <time>2018-05-19T17:40:04.465Z</time>
      </trkpt>
      <trkpt lat="43.300665" lon="-4.23793333">
        <ele>131.0</ele>
        <time>2018-05-19T17:40:05.459Z</time>
      </trkpt>
      <trkpt lat="43.30083333" lon="-4.237915">
        <ele>131.0</ele>
        <time>2018-05-19T17:40:06.486Z</time>
      </trkpt>
      <trkpt lat="43.30083333" lon="-4.237915">
        <ele>131.0</ele>
        <time>2018-05-19T17:40:07.481Z</time>
      </trkpt>
      <trkpt lat="43.30099833" lon="-4.23789667">
        <ele>131.0</ele>
        <time>2018-05-19T17:40:08.468Z</time>
      </trkpt>
      <trkpt lat="43.30099833" lon="-4.23789667">
        <ele>131.0</ele>
        <time>2018-05-19T17:40:09.453Z</time>
      </trkpt>
      <trkpt lat="43.30116333" lon="-4.23788">
        <ele>131.0</ele>
        <time>2018-05-19T17:40:10.468Z</time>
      </trkpt>
      <trkpt lat="43.30116333" lon="-4.23788">
        <ele>131.0</ele>
        <time>2018-05-19T17:40:11.466Z</time>
      </trkpt>
      <trkpt lat="43.30132667" lon="-4.23786167">
        <ele>131.0</ele>
        <time>2018-05-19T17:40:12.470Z</time>
      </trkpt>
      <trkpt lat="43.30132667" lon="-4.23786167">
        <ele>131.0</ele>
        <time>2018-05-19T17:40:13.458Z</time>
      </trkpt>
      <trkpt lat="43.30149167" lon="-4.237845">
        <ele>130.0</ele>
        <time>2018-05-19T17:40:14.462Z</time>
      </trkpt>
      <trkpt lat="43.30157167" lon="-4.23783833">
        <ele>130.0</ele>
        <time>2018-05-19T17:40:15.465Z</time>
      </trkpt>
      <trkpt lat="43.30157167" lon="-4.23783833">
        <ele>130.0</ele>
        <time>2018-05-19T17:40:16.462Z</time>
      </trkpt>
      <trkpt lat="43.30172833" lon="-4.23782667">
        <ele>130.0</ele>
        <time>2018-05-19T17:40:17.466Z</time>
      </trkpt>
      <trkpt lat="43.30172833" lon="-4.23782667">
        <ele>130.0</ele>
        <time>2018-05-19T17:40:18.464Z</time>
      </trkpt>
      <trkpt lat="43.301885" lon="-4.237805">
        <ele>130.0</ele>
        <time>2018-05-19T17:40:19.466Z</time>
      </trkpt>
      <trkpt lat="43.30196167" lon="-4.23779333">
        <ele>130.0</ele>
        <time>2018-05-19T17:40:20.467Z</time>
      </trkpt>
      <trkpt lat="43.30196167" lon="-4.23779333">
        <ele>130.0</ele>
        <time>2018-05-19T17:40:21.458Z</time>
      </trkpt>
      <trkpt lat="43.30212333" lon="-4.237775">
        <ele>130.0</ele>
        <time>2018-05-19T17:40:22.466Z</time>
      </trkpt>
      <trkpt lat="43.30212333" lon="-4.237775">
        <ele>130.0</ele>
        <time>2018-05-19T17:40:23.451Z</time>
      </trkpt>
      <trkpt lat="43.30228667" lon="-4.23775667">
        <ele>130.0</ele>
        <time>2018-05-19T17:40:24.463Z</time>
      </trkpt>
      <trkpt lat="43.30228667" lon="-4.23775667">
        <ele>130.0</ele>
        <time>2018-05-19T17:40:25.469Z</time>
      </trkpt>
      <trkpt lat="43.30245167" lon="-4.23774">
        <ele>129.0</ele>
        <time>2018-05-19T17:40:26.477Z</time>
      </trkpt>
      <trkpt lat="43.30253333" lon="-4.23773333">
        <ele>129.0</ele>
        <time>2018-05-19T17:40:27.465Z</time>
      </trkpt>
      <trkpt lat="43.30253333" lon="-4.23773333">
        <ele>129.0</ele>
        <time>2018-05-19T17:40:28.458Z</time>
      </trkpt>
      <trkpt lat="43.30269667" lon="-4.23772">
        <ele>129.0</ele>
        <time>2018-05-19T17:40:29.456Z</time>
      </trkpt>
      <trkpt lat="43.302775" lon="-4.23771">
        <ele>129.0</ele>
        <time>2018-05-19T17:40:30.467Z</time>
      </trkpt>
      <trkpt lat="43.302775" lon="-4.23771">
        <ele>129.0</ele>
        <time>2018-05-19T17:40:31.476Z</time>
      </trkpt>
      <trkpt lat="43.302935" lon="-4.23769">
        <ele>129.0</ele>
        <time>2018-05-19T17:40:32.467Z</time>
      </trkpt>
      <trkpt lat="43.302935" lon="-4.23769">
        <ele>129.0</ele>
        <time>2018-05-19T17:40:33.459Z</time>
      </trkpt>
      <trkpt lat="43.303095" lon="-4.23766833">
        <ele>129.0</ele>
        <time>2018-05-19T17:40:34.461Z</time>
      </trkpt>
      <trkpt lat="43.30317333" lon="-4.23766167">
        <ele>129.0</ele>
        <time>2018-05-19T17:40:35.472Z</time>
      </trkpt>
      <trkpt lat="43.30317333" lon="-4.23766167">
        <ele>129.0</ele>
        <time>2018-05-19T17:40:36.448Z</time>
      </trkpt>
      <trkpt lat="43.30333333" lon="-4.23765">
        <ele>130.0</ele>
        <time>2018-05-19T17:40:37.483Z</time>
      </trkpt>
      <trkpt lat="43.30333333" lon="-4.23765">
        <ele>130.0</ele>
        <time>2018-05-19T17:40:38.469Z</time>
      </trkpt>
      <trkpt lat="43.30349333" lon="-4.23764833">
        <ele>130.0</ele>
        <time>2018-05-19T17:40:39.465Z</time>
      </trkpt>
      <trkpt lat="43.30349333" lon="-4.23764833">
        <ele>130.0</ele>
        <time>2018-05-19T17:40:40.460Z</time>
      </trkpt>
      <trkpt lat="43.30364833" lon="-4.23765">
        <ele>130.0</ele>
        <time>2018-05-19T17:40:41.467Z</time>
      </trkpt>
      <trkpt lat="43.30364833" lon="-4.23765">
        <ele>130.0</ele>
        <time>2018-05-19T17:40:42.461Z</time>
      </trkpt>
      <trkpt lat="43.303805" lon="-4.23767333">
        <ele>130.0</ele>
        <time>2018-05-19T17:40:43.465Z</time>
      </trkpt>
      <trkpt lat="43.30388333" lon="-4.23769167">
        <ele>130.0</ele>
        <time>2018-05-19T17:40:44.465Z</time>
      </trkpt>
      <trkpt lat="43.30388333" lon="-4.23769167">
        <ele>130.0</ele>
        <time>2018-05-19T17:40:45.456Z</time>
      </trkpt>
      <trkpt lat="43.304035" lon="-4.23772167">
        <ele>130.0</ele>
        <time>2018-05-19T17:40:46.465Z</time>
      </trkpt>
      <trkpt lat="43.304035" lon="-4.23772167">
        <ele>130.0</ele>
        <time>2018-05-19T17:40:47.457Z</time>
      </trkpt>
      <trkpt lat="43.30419333" lon="-4.23775333">
        <ele>130.0</ele>
        <time>2018-05-19T17:40:48.467Z</time>
      </trkpt>
      <trkpt lat="43.30419333" lon="-4.23775333">
        <ele>130.0</ele>
        <time>2018-05-19T17:40:49.460Z</time>
      </trkpt>
      <trkpt lat="43.30435167" lon="-4.23778167">
        <ele>130.0</ele>
        <time>2018-05-19T17:40:50.465Z</time>
      </trkpt>
      <trkpt lat="43.30435167" lon="-4.23778167">
        <ele>130.0</ele>
        <time>2018-05-19T17:40:51.459Z</time>
      </trkpt>
      <trkpt lat="43.30451333" lon="-4.23782">
        <ele>129.0</ele>
        <time>2018-05-19T17:40:52.464Z</time>
      </trkpt>
      <trkpt lat="43.30451333" lon="-4.23782">
        <ele>129.0</ele>
        <time>2018-05-19T17:40:53.464Z</time>
      </trkpt>
      <trkpt lat="43.30466667" lon="-4.23785167">
        <ele>129.0</ele>
        <time>2018-05-19T17:40:54.466Z</time>
      </trkpt>
      <trkpt lat="43.30466667" lon="-4.23785167">
        <ele>129.0</ele>
        <time>2018-05-19T17:40:55.459Z</time>
      </trkpt>
      <trkpt lat="43.30481333" lon="-4.23789">
        <ele>130.0</ele>
        <time>2018-05-19T17:40:56.465Z</time>
      </trkpt>
      <trkpt lat="43.30481333" lon="-4.23789">
        <ele>130.0</ele>
        <time>2018-05-19T17:40:57.459Z</time>
      </trkpt>
      <trkpt lat="43.30494833" lon="-4.237935">
        <ele>132.0</ele>
        <time>2018-05-19T17:40:58.467Z</time>
      </trkpt>
      <trkpt lat="43.30494833" lon="-4.237935">
        <ele>132.0</ele>
        <time>2018-05-19T17:40:59.459Z</time>
      </trkpt>
      <trkpt lat="43.30509" lon="-4.23798833">
        <ele>132.0</ele>
        <time>2018-05-19T17:41:00.469Z</time>
      </trkpt>
      <trkpt lat="43.30509" lon="-4.23798833">
        <ele>132.0</ele>
        <time>2018-05-19T17:41:01.461Z</time>
      </trkpt>
      <trkpt lat="43.30523167" lon="-4.23802333">
        <ele>132.0</ele>
        <time>2018-05-19T17:41:02.465Z</time>
      </trkpt>
      <trkpt lat="43.30523167" lon="-4.23802333">
        <ele>132.0</ele>
        <time>2018-05-19T17:41:03.463Z</time>
      </trkpt>
      <trkpt lat="43.305375" lon="-4.23806833">
        <ele>131.0</ele>
        <time>2018-05-19T17:41:04.465Z</time>
      </trkpt>
      <trkpt lat="43.305375" lon="-4.23806833">
        <ele>131.0</ele>
        <time>2018-05-19T17:41:05.458Z</time>
      </trkpt>
      <trkpt lat="43.30551167" lon="-4.23810833">
        <ele>131.0</ele>
        <time>2018-05-19T17:41:06.476Z</time>
      </trkpt>
      <trkpt lat="43.30558" lon="-4.238125">
        <ele>132.0</ele>
        <time>2018-05-19T17:41:07.465Z</time>
      </trkpt>
      <trkpt lat="43.30562" lon="-4.23816167">
        <ele>134.0</ele>
        <time>2018-05-19T17:41:08.466Z</time>
      </trkpt>
      <trkpt lat="43.30562" lon="-4.23816167">
        <ele>134.0</ele>
        <time>2018-05-19T17:41:09.459Z</time>
      </trkpt>
      <trkpt lat="43.30571833" lon="-4.238205">
        <ele>140.0</ele>
        <time>2018-05-19T17:41:10.465Z</time>
      </trkpt>
      <trkpt lat="43.30571833" lon="-4.238205">
        <ele>140.0</ele>
        <time>2018-05-19T17:41:11.464Z</time>
      </trkpt>
      <trkpt lat="43.305855" lon="-4.23823">
        <ele>140.0</ele>
        <time>2018-05-19T17:41:12.467Z</time>
      </trkpt>
      <trkpt lat="43.305855" lon="-4.23823">
        <ele>140.0</ele>
        <time>2018-05-19T17:41:13.460Z</time>
      </trkpt>
      <trkpt lat="43.30599167" lon="-4.23822333">
        <ele>141.0</ele>
        <time>2018-05-19T17:41:14.465Z</time>
      </trkpt>
      <trkpt lat="43.30606333" lon="-4.23820833">
        <ele>140.0</ele>
        <time>2018-05-19T17:41:15.465Z</time>
      </trkpt>
      <trkpt lat="43.30606333" lon="-4.23820833">
        <ele>140.0</ele>
        <time>2018-05-19T17:41:16.460Z</time>
      </trkpt>
      <trkpt lat="43.30621" lon="-4.23817">
        <ele>140.0</ele>
        <time>2018-05-19T17:41:17.464Z</time>
      </trkpt>
      <trkpt lat="43.30621" lon="-4.23817">
        <ele>140.0</ele>
        <time>2018-05-19T17:41:18.457Z</time>
      </trkpt>
      <trkpt lat="43.30635333" lon="-4.23813167">
        <ele>140.0</ele>
        <time>2018-05-19T17:41:19.464Z</time>
      </trkpt>
      <trkpt lat="43.30642333" lon="-4.23811167">
        <ele>139.0</ele>
        <time>2018-05-19T17:41:20.468Z</time>
      </trkpt>
      <trkpt lat="43.30642333" lon="-4.23811167">
        <ele>139.0</ele>
        <time>2018-05-19T17:41:21.459Z</time>
      </trkpt>
      <trkpt lat="43.30656" lon="-4.23807333">
        <ele>139.0</ele>
        <time>2018-05-19T17:41:22.466Z</time>
      </trkpt>
      <trkpt lat="43.30656" lon="-4.23807333">
        <ele>139.0</ele>
        <time>2018-05-19T17:41:23.469Z</time>
      </trkpt>
      <trkpt lat="43.30669167" lon="-4.23804">
        <ele>139.0</ele>
        <time>2018-05-19T17:41:24.481Z</time>
      </trkpt>
      <trkpt lat="43.30669167" lon="-4.23804">
        <ele>139.0</ele>
        <time>2018-05-19T17:41:25.450Z</time>
      </trkpt>
      <trkpt lat="43.30680833" lon="-4.23799667">
        <ele>139.0</ele>
        <time>2018-05-19T17:41:26.457Z</time>
      </trkpt>
      <trkpt lat="43.30680833" lon="-4.23799667">
        <ele>139.0</ele>
        <time>2018-05-19T17:41:27.463Z</time>
      </trkpt>
      <trkpt lat="43.306925" lon="-4.23795667">
        <ele>139.0</ele>
        <time>2018-05-19T17:41:28.465Z</time>
      </trkpt>
      <trkpt lat="43.306925" lon="-4.23795667">
        <ele>139.0</ele>
        <time>2018-05-19T17:41:29.460Z</time>
      </trkpt>
      <trkpt lat="43.30703167" lon="-4.23788167">
        <ele>139.0</ele>
        <time>2018-05-19T17:41:30.466Z</time>
      </trkpt>
      <trkpt lat="43.30707333" lon="-4.23780667">
        <ele>137.0</ele>
        <time>2018-05-19T17:41:31.469Z</time>
      </trkpt>
      <trkpt lat="43.30707333" lon="-4.23780667">
        <ele>137.0</ele>
        <time>2018-05-19T17:41:32.460Z</time>
      </trkpt>
      <trkpt lat="43.30714167" lon="-4.23765">
        <ele>135.0</ele>
        <time>2018-05-19T17:41:33.465Z</time>
      </trkpt>
      <trkpt lat="43.30714167" lon="-4.23765">
        <ele>135.0</ele>
        <time>2018-05-19T17:41:34.458Z</time>
      </trkpt>
      <trkpt lat="43.30724" lon="-4.23751167">
        <ele>133.0</ele>
        <time>2018-05-19T17:41:35.466Z</time>
      </trkpt>
      <trkpt lat="43.30724" lon="-4.23751167">
        <ele>133.0</ele>
        <time>2018-05-19T17:41:36.480Z</time>
      </trkpt>
      <trkpt lat="43.30735333" lon="-4.23739333">
        <ele>132.0</ele>
        <time>2018-05-19T17:41:37.466Z</time>
      </trkpt>
      <trkpt lat="43.30741333" lon="-4.23734">
        <ele>131.0</ele>
        <time>2018-05-19T17:41:38.465Z</time>
      </trkpt>
      <trkpt lat="43.30745833" lon="-4.23727">
        <ele>131.0</ele>
        <time>2018-05-19T17:41:39.465Z</time>
      </trkpt>
      <trkpt lat="43.30747667" lon="-4.23718333">
        <ele>131.0</ele>
        <time>2018-05-19T17:41:40.451Z</time>
      </trkpt>
      <trkpt lat="43.30747667" lon="-4.23718333">
        <ele>131.0</ele>
        <time>2018-05-19T17:41:41.478Z</time>
      </trkpt>
      <trkpt lat="43.307475" lon="-4.23699333">
        <ele>130.0</ele>
        <time>2018-05-19T17:41:42.467Z</time>
      </trkpt>
      <trkpt lat="43.307475" lon="-4.23699333">
        <ele>130.0</ele>
        <time>2018-05-19T17:41:43.456Z</time>
      </trkpt>
      <trkpt lat="43.307455" lon="-4.23681">
        <ele>129.0</ele>
        <time>2018-05-19T17:41:44.465Z</time>
      </trkpt>
      <trkpt lat="43.307455" lon="-4.23681">
        <ele>129.0</ele>
        <time>2018-05-19T17:41:45.461Z</time>
      </trkpt>
      <trkpt lat="43.30748333" lon="-4.23666">
        <ele>128.0</ele>
        <time>2018-05-19T17:41:46.467Z</time>
      </trkpt>
      <trkpt lat="43.30748333" lon="-4.23666">
        <ele>128.0</ele>
        <time>2018-05-19T17:41:47.453Z</time>
      </trkpt>
      <trkpt lat="43.30759833" lon="-4.23661167">
        <ele>128.0</ele>
        <time>2018-05-19T17:41:48.471Z</time>
      </trkpt>
      <trkpt lat="43.30759833" lon="-4.23661167">
        <ele>128.0</ele>
        <time>2018-05-19T17:41:49.460Z</time>
      </trkpt>
      <trkpt lat="43.30772667" lon="-4.23660333">
        <ele>127.0</ele>
        <time>2018-05-19T17:41:50.463Z</time>
      </trkpt>
      <trkpt lat="43.30772667" lon="-4.23660333">
        <ele>127.0</ele>
        <time>2018-05-19T17:41:51.464Z</time>
      </trkpt>
      <trkpt lat="43.30786167" lon="-4.23657167">
        <ele>128.0</ele>
        <time>2018-05-19T17:41:52.467Z</time>
      </trkpt>
      <trkpt lat="43.30791333" lon="-4.23651667">
        <ele>128.0</ele>
        <time>2018-05-19T17:41:53.470Z</time>
      </trkpt>
      <trkpt lat="43.30791333" lon="-4.23651667">
        <ele>128.0</ele>
        <time>2018-05-19T17:41:54.463Z</time>
      </trkpt>
      <trkpt lat="43.30799" lon="-4.23635833">
        <ele>128.0</ele>
        <time>2018-05-19T17:41:55.467Z</time>
      </trkpt>
      <trkpt lat="43.308015" lon="-4.23627167">
        <ele>128.0</ele>
        <time>2018-05-19T17:41:56.471Z</time>
      </trkpt>
      <trkpt lat="43.308015" lon="-4.23627167">
        <ele>128.0</ele>
        <time>2018-05-19T17:41:57.465Z</time>
      </trkpt>
      <trkpt lat="43.30803" lon="-4.23607333">
        <ele>128.0</ele>
        <time>2018-05-19T17:41:58.465Z</time>
      </trkpt>
      <trkpt lat="43.30803" lon="-4.23607333">
        <ele>128.0</ele>
        <time>2018-05-19T17:41:59.459Z</time>
      </trkpt>
      <trkpt lat="43.30803667" lon="-4.23587167">
        <ele>128.0</ele>
        <time>2018-05-19T17:42:00.467Z</time>
      </trkpt>
      <trkpt lat="43.30803667" lon="-4.23587167">
        <ele>128.0</ele>
        <time>2018-05-19T17:42:01.464Z</time>
      </trkpt>
      <trkpt lat="43.30803" lon="-4.23569">
        <ele>128.0</ele>
        <time>2018-05-19T17:42:02.479Z</time>
      </trkpt>
      <trkpt lat="43.30803167" lon="-4.2356">
        <ele>128.0</ele>
        <time>2018-05-19T17:42:03.470Z</time>
      </trkpt>
      <trkpt lat="43.30803167" lon="-4.2356">
        <ele>128.0</ele>
        <time>2018-05-19T17:42:04.458Z</time>
      </trkpt>
      <trkpt lat="43.30802667" lon="-4.23541">
        <ele>128.0</ele>
        <time>2018-05-19T17:42:05.461Z</time>
      </trkpt>
      <trkpt lat="43.30802167" lon="-4.235325">
        <ele>128.0</ele>
        <time>2018-05-19T17:42:06.472Z</time>
      </trkpt>
      <trkpt lat="43.30802167" lon="-4.235325">
        <ele>128.0</ele>
        <time>2018-05-19T17:42:07.467Z</time>
      </trkpt>
      <trkpt lat="43.30802" lon="-4.23519833">
        <ele>128.0</ele>
        <time>2018-05-19T17:42:08.467Z</time>
      </trkpt>
      <trkpt lat="43.30801667" lon="-4.23514667">
        <ele>127.0</ele>
        <time>2018-05-19T17:42:09.467Z</time>
      </trkpt>
      <trkpt lat="43.30801667" lon="-4.23514667">
        <ele>127.0</ele>
        <time>2018-05-19T17:42:10.462Z</time>
      </trkpt>
      <trkpt lat="43.30802833" lon="-4.235115">
        <ele>128.0</ele>
        <time>2018-05-19T17:42:11.467Z</time>
      </trkpt>
      <trkpt lat="43.308025" lon="-4.23511">
        <ele>128.0</ele>
        <time>2018-05-19T17:42:12.468Z</time>
      </trkpt>
      <trkpt lat="43.308025" lon="-4.23511">
        <ele>128.0</ele>
        <time>2018-05-19T17:42:13.462Z</time>
      </trkpt>
    </trkseg>
  </trk>
</gpx>
